/* DATA DESCRIPTION:
Citation:	Vuilleumier, Laurent (2026): Other measurements at 10 m from station Payerne (2025-08) [dataset]. Federal Office of Meteorology and Climatology MeteoSwiss, Payerne, PANGAEA, https://doi.org/10.1594/PANGAEA.992971
Other version:	Vuilleumier, Laurent (2026): BSRN Station-to-archive file for station Payerne (2025-08) [dataset]. ftp://ftp.bsrn.awi.de/pay/pay0825.dat.gz
Project(s):	Baseline Surface Radiation Network (BSRN) (URI: https://bsrn.awi.de/)
Coverage:	LATITUDE: 46.812300 * LONGITUDE: 6.942200
	DATE/TIME START: 2025-08-01T00:00:00 * DATE/TIME END: 2025-08-31T23:59:00
	MINIMUM HEIGHT above ground: 10 m * MAXIMUM HEIGHT above ground: 10 m
Event(s):	PAY (Payerne) * LATITUDE: 46.812300 * LONGITUDE: 6.942200 * DATE/TIME: 1992-09-01T00:00:00 * ELEVATION: 491.0 m * LOCATION: Switzerland * METHOD/DEVICE: Monitoring station (MONS) * COMMENT: BSRN station no: 21; Surface type: cultivated; Topography type: hilly, rural; Horizon: doi:10.1594/PANGAEA.947035; Station scientist: Laurent Vuilleumier (laurent.vuilleumier@meteoswiss.ch)
Parameter(s):	DATE/TIME (Date/Time) * GEOCODE * PI: Vuilleumier, Laurent (https://orcid.org/0000-0003-0222-2566, laurent.vuilleumier@meteoswiss.ch)
	HEIGHT above ground [m] (Height) * GEOCODE * PI: Vuilleumier, Laurent (https://orcid.org/0000-0003-0222-2566, laurent.vuilleumier@meteoswiss.ch)
	Short-wave upward (REFLEX) radiation [W/m**2] (SWU) * PI: Vuilleumier, Laurent (https://orcid.org/0000-0003-0222-2566, laurent.vuilleumier@meteoswiss.ch) * METHOD/DEVICE: Pyranometer, Kipp & Zonen, CM21, SN 041303, WRMC No. 21074
	Short-wave upward (REFLEX) radiation, standard deviation [W/m**2] (SWU std dev) * PI: Vuilleumier, Laurent (https://orcid.org/0000-0003-0222-2566, laurent.vuilleumier@meteoswiss.ch) * METHOD/DEVICE: Pyranometer, Kipp & Zonen, CM21, SN 041303, WRMC No. 21074
	Short-wave upward (REFLEX) radiation, minimum [W/m**2] (SWU min) * PI: Vuilleumier, Laurent (https://orcid.org/0000-0003-0222-2566, laurent.vuilleumier@meteoswiss.ch) * METHOD/DEVICE: Pyranometer, Kipp & Zonen, CM21, SN 041303, WRMC No. 21074
	Short-wave upward (REFLEX) radiation, maximum [W/m**2] (SWU max) * PI: Vuilleumier, Laurent (https://orcid.org/0000-0003-0222-2566, laurent.vuilleumier@meteoswiss.ch) * METHOD/DEVICE: Pyranometer, Kipp & Zonen, CM21, SN 041303, WRMC No. 21074
	Long-wave upward radiation [W/m**2] (LWU) * PI: Vuilleumier, Laurent (https://orcid.org/0000-0003-0222-2566, laurent.vuilleumier@meteoswiss.ch) * METHOD/DEVICE: Pyrgeometer, Eppley, PIR, SN 31964F3, WRMC No. 21089
	Long-wave upward radiation, standard deviation [W/m**2] (LWU std dev) * PI: Vuilleumier, Laurent (https://orcid.org/0000-0003-0222-2566, laurent.vuilleumier@meteoswiss.ch) * METHOD/DEVICE: Pyrgeometer, Eppley, PIR, SN 31964F3, WRMC No. 21089
	Long-wave upward radiation, minimum [W/m**2] (LWU min) * PI: Vuilleumier, Laurent (https://orcid.org/0000-0003-0222-2566, laurent.vuilleumier@meteoswiss.ch) * METHOD/DEVICE: Pyrgeometer, Eppley, PIR, SN 31964F3, WRMC No. 21089
	Long-wave upward radiation, maximum [W/m**2] (LWU max) * PI: Vuilleumier, Laurent (https://orcid.org/0000-0003-0222-2566, laurent.vuilleumier@meteoswiss.ch) * METHOD/DEVICE: Pyrgeometer, Eppley, PIR, SN 31964F3, WRMC No. 21089
	Temperature, air [°C] (TTT) * PI: Vuilleumier, Laurent (https://orcid.org/0000-0003-0222-2566, laurent.vuilleumier@meteoswiss.ch) * METHOD/DEVICE: Thermometer
	Humidity, relative [%] (RH) * PI: Vuilleumier, Laurent (https://orcid.org/0000-0003-0222-2566, laurent.vuilleumier@meteoswiss.ch) * METHOD/DEVICE: Hygrometer (HYGRO)
License:	Baseline Surface Radiation Network License 1.0 (BSRN-1.0) (URI: https://bsrn.awi.de/data/conditions-of-data-release/)
Status:	Curation Level: Enhanced curation (URI: https://wiki.pangaea.de/wiki/Curation_levels)
Size:	446396 data points
*/
Date/Time	Height [m]	SWU [W/m**2]	SWU std dev [W/m**2]	SWU min [W/m**2]	SWU max [W/m**2]	LWU [W/m**2]	LWU std dev [W/m**2]	LWU min [W/m**2]	LWU max [W/m**2]	TTT [°C]	RH [%]
2025-08-01T00:00	10	0	0.1	0	0	390	0.2	390	390	17.0	82.2
2025-08-01T00:01	10	0	0.1	0	0	390	0.3	389	390	17.0	82.0
2025-08-01T00:02	10	0	0.1	0	0	389	0.3	388	390	16.9	82.4
2025-08-01T00:03	10	0	0.1	0	0	389	0.2	388	389	16.9	82.6
2025-08-01T00:04	10	0	0.1	0	0	389	0.2	388	389	17.0	81.4
2025-08-01T00:05	10	0	0.1	0	0	389	0.2	388	390	17.1	80.9
2025-08-01T00:06	10	0	0.1	0	0	389	0.3	388	389	17.1	81.2
2025-08-01T00:07	10	0	0.1	0	0	389	0.3	388	390	17.0	81.7
2025-08-01T00:08	10	0	0.1	0	0	389	0.3	389	390	16.8	82.9
2025-08-01T00:09	10	0	0.1	0	0	389	0.3	388	389	16.7	83.5
2025-08-01T00:10	10	0	0.0	0	0	388	0.2	388	389	16.7	83.8
2025-08-01T00:11	10	0	0.1	0	0	388	0.2	387	388	16.7	83.3
2025-08-01T00:12	10	0	0.1	0	0	388	0.2	387	388	16.7	82.9
2025-08-01T00:13	10	0	0.0	0	0	388	0.2	387	388	16.7	82.6
2025-08-01T00:14	10	0	0.1	0	0	388	0.3	387	388	16.8	82.4
2025-08-01T00:15	10	0	0.1	0	0	387	0.2	387	388	16.7	82.9
2025-08-01T00:16	10	0	0.0	0	0	387	0.2	386	387	16.7	83.3
2025-08-01T00:17	10	0	0.0	0	0	387	0.3	386	388	16.7	83.3
2025-08-01T00:18	10	0	0.1	0	0	387	0.2	386	387	16.6	83.8
2025-08-01T00:19	10	0	0.1	0	0	387	0.2	387	388	16.6	83.9
2025-08-01T00:20	10	0	0.1	0	0	387	0.2	387	388	16.6	84.6
2025-08-01T00:21	10	0	0.1	0	0	387	0.2	386	387	16.5	84.8
2025-08-01T00:22	10	0	0.0	0	0	387	0.2	387	388	16.6	84.4
2025-08-01T00:23	10	0	0.1	0	0	387	0.2	386	388	16.6	84.2
2025-08-01T00:24	10	0	0.1	0	0	387	0.3	387	388	16.6	83.8
2025-08-01T00:25	10	0	0.1	0	0	387	0.2	387	387	16.6	83.7
2025-08-01T00:26	10	0	0.1	0	0	387	0.3	386	388	16.7	83.2
2025-08-01T00:27	10	0	0.1	0	0	387	0.2	387	388	16.8	82.4
2025-08-01T00:28	10	0	0.1	0	0	387	0.3	387	388	16.8	82.5
2025-08-01T00:29	10	0	0.1	0	0	387	0.2	387	388	16.8	82.6
2025-08-01T00:30	10	0	0.1	0	0	387	0.2	387	388	16.7	82.9
2025-08-01T00:31	10	0	0.1	0	0	387	0.2	387	388	16.7	83.0
2025-08-01T00:32	10	0	0.0	0	0	388	0.3	387	388	16.6	83.1
2025-08-01T00:33	10	0	0.0	0	0	388	0.2	387	388	16.6	83.2
2025-08-01T00:34	10	0	0.1	0	0	388	0.3	387	388	16.6	83.2
2025-08-01T00:35	10	0	0.1	0	0	388	0.2	387	389	16.6	83.1
2025-08-01T00:36	10	0	0.1	0	0	388	0.2	388	389	16.6	83.3
2025-08-01T00:37	10	0	0.1	0	0	389	0.2	388	389	16.6	83.4
2025-08-01T00:38	10	0	0.1	0	0	389	0.3	388	390	16.6	83.2
2025-08-01T00:39	10	0	0.0	0	0	389	0.2	389	389	16.7	82.6
2025-08-01T00:40	10	0	0.1	0	0	389	0.2	389	390	16.7	83.0
2025-08-01T00:41	10	0	0.1	0	0	389	0.3	389	390	16.6	83.5
2025-08-01T00:42	10	0	0.1	0	1	389	0.2	389	390	16.6	83.6
2025-08-01T00:43	10	0	0.1	0	0	390	0.2	389	390	16.6	83.6
2025-08-01T00:44	10	0	0.1	0	0	389	0.2	389	390	16.6	83.7
2025-08-01T00:45	10	0	0.1	0	0	390	0.2	389	390	16.6	83.8
2025-08-01T00:46	10	0	0.1	0	0	390	0.2	389	391	16.5	83.9
2025-08-01T00:47	10	0	0.1	0	0	390	0.3	389	391	16.6	83.8
2025-08-01T00:48	10	0	0.2	0	1	390	0.3	390	391	16.6	83.3
2025-08-01T00:49	10	0	0.1	0	0	390	0.3	389	391	16.6	83.2
2025-08-01T00:50	10	0	0.1	0	0	390	0.2	390	391	16.6	83.0
2025-08-01T00:51	10	0	0.1	0	0	390	0.2	390	391	16.6	83.5
2025-08-01T00:52	10	0	0.1	0	0	390	0.2	390	391	16.6	83.9
2025-08-01T00:53	10	0	0.1	0	0	391	0.2	390	391	16.5	83.9
2025-08-01T00:54	10	0	0.1	0	0	391	0.3	390	391	16.5	83.9
2025-08-01T00:55	10	0	0.1	0	0	391	0.3	390	392	16.5	84.1
2025-08-01T00:56	10	0	0.2	0	0	391	0.2	391	392	16.5	84.2
2025-08-01T00:57	10	0	0.1	0	0	391	0.2	390	391	16.5	84.2
2025-08-01T00:58	10	0	0.2	0	1	391	0.3	390	391	16.5	84.0
2025-08-01T00:59	10	0	0.2	0	0	391	0.2	390	391	16.5	83.8
2025-08-01T01:00	10	0	0.1	0	0	391	0.2	390	391	16.5	83.6
2025-08-01T01:01	10	0	0.1	0	0	391	0.2	390	391	16.5	83.4
2025-08-01T01:02	10	0	0.1	0	0	391	0.2	390	391	16.5	83.9
2025-08-01T01:03	10	0	0.1	0	0	391	0.3	390	391	16.5	84.0
2025-08-01T01:04	10	0	0.1	0	0	390	0.3	390	391	16.5	83.1
2025-08-01T01:05	10	0	0.2	0	1	390	0.4	390	391	16.6	83.2
2025-08-01T01:06	10	0	0.1	0	0	390	0.2	389	390	16.5	83.2
2025-08-01T01:07	10	0	0.1	0	0	389	0.2	389	390	16.5	83.3
2025-08-01T01:08	10	0	0.1	0	0	389	0.3	388	389	16.5	83.2
2025-08-01T01:09	10	0	0.1	0	0	389	0.2	389	390	16.5	83.1
2025-08-01T01:10	10	0	0.2	0	1	389	0.2	389	390	16.5	82.9
2025-08-01T01:11	10	0	0.1	0	0	389	0.2	389	390	16.6	82.1
2025-08-01T01:12	10	0	0.2	0	1	390	0.3	389	390	16.6	82.3
2025-08-01T01:13	10	0	0.1	0	1	389	0.2	389	390	16.6	82.4
2025-08-01T01:14	10	0	0.1	0	1	389	0.2	389	389	16.6	82.8
2025-08-01T01:15	10	0	0.2	0	0	389	0.3	388	389	16.5	84.2
2025-08-01T01:16	10	0	0.2	0	1	389	0.3	388	390	16.4	84.5
2025-08-01T01:17	10	0	0.1	0	0	389	0.3	388	390	16.4	84.3
2025-08-01T01:18	10	0	0.2	0	1	389	0.3	389	390	16.5	84.3
2025-08-01T01:19	10	0	0.1	0	0	390	0.3	389	390	16.5	84.0
2025-08-01T01:20	10	0	0.2	0	1	390	0.3	389	390	16.5	84.0
2025-08-01T01:21	10	0	0.2	0	0	390	0.2	390	391	16.5	83.8
2025-08-01T01:22	10	0	0.1	0	0	390	0.3	390	391	16.5	83.7
2025-08-01T01:23	10	0	0.1	0	0	391	0.2	390	391	16.5	83.7
2025-08-01T01:24	10	0	0.1	0	0	391	0.3	390	391	16.5	83.6
2025-08-01T01:25	10	0	0.2	0	1	391	0.2	390	391	16.5	83.4
2025-08-01T01:26	10	0	0.2	0	0	391	0.3	390	392	16.6	83.2
2025-08-01T01:27	10	0	0.1	0	0	391	0.2	391	392	16.6	83.2
2025-08-01T01:28	10	0	0.2	0	0	391	0.2	390	392	16.6	83.0
2025-08-01T01:29	10	0	0.1	0	0	391	0.2	391	392	16.6	82.9
2025-08-01T01:30	10	0	0.2	0	0	391	0.3	390	391	16.6	82.9
2025-08-01T01:31	10	0	0.1	0	0	391	0.2	390	391	16.6	82.9
2025-08-01T01:32	10	0	0.1	0	0	390	0.3	390	391	16.6	83.1
2025-08-01T01:33	10	0	0.1	0	1	390	0.3	390	391	16.6	83.3
2025-08-01T01:34	10	0	0.2	0	1	390	0.2	389	391	16.6	83.4
2025-08-01T01:35	10	0	1.0	0	7	390	0.3	389	390	16.6	83.5
2025-08-01T01:36	10	0	0.1	0	0	389	0.3	389	390	16.5	83.6
2025-08-01T01:37	10	0	0.2	0	1	389	0.2	389	390	16.5	83.6
2025-08-01T01:38	10	0	0.1	0	0	389	0.2	388	389	16.5	83.8
2025-08-01T01:39	10	0	0.1	0	0	388	0.3	388	389	16.5	83.6
2025-08-01T01:40	10	0	0.1	0	0	389	0.2	388	389	16.5	83.5
2025-08-01T01:41	10	0	0.1	0	0	388	0.3	388	389	16.6	83.6
2025-08-01T01:42	10	0	0.1	0	0	388	0.2	388	389	16.5	85.7
2025-08-01T01:43	10	0	0.1	0	0	388	0.2	387	388	16.4	86.1
2025-08-01T01:44	10	0	0.1	0	0	388	0.2	387	388	16.4	86.6
2025-08-01T01:45	10	0	0.1	0	0	388	0.3	387	389	16.4	85.9
2025-08-01T01:46	10	0	0.2	0	1	388	0.2	387	388	16.4	85.2
2025-08-01T01:47	10	0	0.1	0	0	388	0.3	388	389	16.4	85.2
2025-08-01T01:48	10	0	0.1	0	0	388	0.3	388	389	16.5	84.0
2025-08-01T01:49	10	0	0.1	0	0	389	0.3	388	389	16.5	84.2
2025-08-01T01:50	10	0	0.1	0	0	389	0.2	388	389	16.5	83.9
2025-08-01T01:51	10	0	0.1	0	0	389	0.2	389	390	16.5	83.4
2025-08-01T01:52	10	0	0.1	0	0	389	0.2	388	389	16.5	83.5
2025-08-01T01:53	10	0	0.2	0	0	389	0.2	389	390	16.5	83.5
2025-08-01T01:54	10	0	0.1	0	0	389	0.3	389	390	16.6	83.0
2025-08-01T01:55	10	0	0.2	0	1	390	0.2	389	390	16.7	81.6
2025-08-01T01:56	10	0	0.2	0	0	390	0.3	389	390	16.7	81.3
2025-08-01T01:57	10	0	0.2	0	1	390	0.2	390	391	16.8	80.5
2025-08-01T01:58	10	0	0.2	0	1	390	0.2	390	391	16.8	80.6
2025-08-01T01:59	10	0	0.2	0	0	390	0.2	390	391	16.8	81.2
2025-08-01T02:00	10	0	0.1	0	0	390	0.3	390	391	16.7	81.0
2025-08-01T02:01	10	0	0.2	0	1	390	0.2	390	391	16.8	80.8
2025-08-01T02:02	10	0	0.2	0	1	391	0.2	390	391	16.8	80.5
2025-08-01T02:03	10	0	0.2	0	1	391	0.3	390	391	16.8	80.5
2025-08-01T02:04	10	0	0.2	0	0	391	0.2	390	391	16.7	80.8
2025-08-01T02:05	10	0	0.1	0	0	391	0.3	390	391	16.7	80.9
2025-08-01T02:06	10	0	0.1	0	1	390	0.2	390	391	16.7	81.3
2025-08-01T02:07	10	0	0.2	0	1	390	0.3	390	391	16.7	81.4
2025-08-01T02:08	10	0	0.2	0	0	390	0.2	390	391	16.6	81.7
2025-08-01T02:09	10	0	0.2	0	1	390	0.3	389	391	16.6	81.7
2025-08-01T02:10	10	0	0.1	0	0	390	0.2	390	391	16.6	82.4
2025-08-01T02:11	10	0	0.2	0	1	390	0.3	390	391	16.6	82.4
2025-08-01T02:12	10	0	0.2	0	1	390	0.3	390	391	16.5	83.0
2025-08-01T02:13	10	0	0.1	0	0	390	0.3	390	391	16.5	82.8
2025-08-01T02:14	10	0	0.2	0	1	391	0.3	390	391	16.5	82.6
2025-08-01T02:15	10	0	0.2	0	0	391	0.2	390	391	16.5	82.6
2025-08-01T02:16	10	0	0.2	0	0	391	0.3	390	391	16.6	82.3
2025-08-01T02:17	10	0	0.1	0	0	391	0.3	390	391	16.6	81.9
2025-08-01T02:18	10	0	0.2	0	1	391	0.2	390	392	16.6	81.9
2025-08-01T02:19	10	0	0.2	0	1	391	0.2	390	391	16.7	81.6
2025-08-01T02:20	10	0	0.2	0	0	391	0.2	391	391	16.7	81.5
2025-08-01T02:21	10	0	0.2	0	1	391	0.2	391	392	16.7	81.1
2025-08-01T02:22	10	0	0.2	0	1	391	0.2	391	392	16.7	81.0
2025-08-01T02:23	10	0	0.1	0	0	391	0.3	391	392	16.8	80.8
2025-08-01T02:24	10	0	0.2	0	1	391	0.2	390	391	16.7	81.3
2025-08-01T02:25	10	0	0.2	0	0	391	0.2	390	391	16.7	81.5
2025-08-01T02:26	10	0	0.1	0	1	391	0.3	390	392	16.6	81.7
2025-08-01T02:27	10	0	0.2	0	1	391	0.3	390	391	16.6	81.8
2025-08-01T02:28	10	0	0.1	0	0	391	0.2	390	391	16.6	81.9
2025-08-01T02:29	10	0	0.1	0	1	391	0.2	390	391	16.6	82.0
2025-08-01T02:30	10	0	0.2	0	1	391	0.2	390	391	16.6	81.9
2025-08-01T02:31	10	0	0.1	0	0	391	0.3	390	392	16.6	81.9
2025-08-01T02:32	10	0	0.2	0	1	391	0.2	390	391	16.6	81.8
2025-08-01T02:33	10	0	0.2	0	0	391	0.2	390	391	16.6	81.6
2025-08-01T02:34	10	0	0.1	0	0	391	0.3	390	391	16.6	81.9
2025-08-01T02:35	10	0	0.2	0	1	391	0.3	390	391	16.5	82.2
2025-08-01T02:36	10	0	0.2	0	1	391	0.2	390	391	16.5	82.2
2025-08-01T02:37	10	0	0.2	0	1	391	0.3	390	391	16.5	81.9
2025-08-01T02:38	10	0	0.1	0	0	391	0.2	390	391	16.6	81.4
2025-08-01T02:39	10	0	0.1	0	0	391	0.3	390	391	16.6	81.5
2025-08-01T02:40	10	0	0.1	0	0	391	0.2	390	391	16.6	81.4
2025-08-01T02:41	10	0	0.2	0	1	391	0.3	390	391	16.6	81.6
2025-08-01T02:42	10	0	0.1	0	0	390	0.2	390	391	16.6	81.8
2025-08-01T02:43	10	0	0.1	0	0	390	0.2	390	391	16.6	81.1
2025-08-01T02:44	10	0	0.1	0	0	391	0.2	390	391	16.7	81.0
2025-08-01T02:45	10	0	0.2	0	1	391	0.2	390	391	16.7	80.5
2025-08-01T02:46	10	0	0.1	0	0	391	0.2	390	391	16.7	80.2
2025-08-01T02:47	10	0	0.2	0	1	390	0.2	390	391	16.8	80.1
2025-08-01T02:48	10	0	0.1	0	0	390	0.2	390	390	16.8	79.9
2025-08-01T02:49	10	0	0.1	0	0	390	0.3	389	390	16.8	80.0
2025-08-01T02:50	10	0	0.2	0	1	389	0.2	389	390	16.7	80.9
2025-08-01T02:51	10	0	0.2	0	1	389	0.3	388	390	16.7	80.5
2025-08-01T02:52	10	0	0.1	0	0	389	0.2	388	389	16.7	80.6
2025-08-01T02:53	10	0	0.2	0	0	388	0.4	388	389	16.7	81.0
2025-08-01T02:54	10	0	0.1	0	0	388	0.2	388	389	16.6	81.7
2025-08-01T02:55	10	0	0.1	0	0	388	0.2	388	389	16.6	82.3
2025-08-01T02:56	10	0	0.1	0	0	389	0.3	388	389	16.6	80.6
2025-08-01T02:57	10	0	0.1	0	0	389	0.2	388	389	16.7	80.3
2025-08-01T02:58	10	0	0.1	0	0	389	0.2	388	389	16.6	81.7
2025-08-01T02:59	10	0	0.1	0	0	389	0.3	388	389	16.6	81.7
2025-08-01T03:00	10	0	0.1	0	1	389	0.2	388	389	16.5	82.6
2025-08-01T03:01	10	0	0.1	0	0	389	0.2	388	389	16.5	83.1
2025-08-01T03:02	10	0	0.1	0	0	389	0.2	388	389	16.5	82.9
2025-08-01T03:03	10	0	0.1	0	1	389	0.2	388	390	16.5	83.6
2025-08-01T03:04	10	0	0.1	0	0	388	0.2	388	389	16.4	83.9
2025-08-01T03:05	10	0	0.1	0	0	389	0.2	388	389	16.4	82.9
2025-08-01T03:06	10	0	0.1	0	0	388	0.2	388	389	16.4	82.9
2025-08-01T03:07	10	0	0.1	0	0	388	0.2	388	389	16.4	82.8
2025-08-01T03:08	10	0	0.1	0	0	388	0.2	388	389	16.4	82.8
2025-08-01T03:09	10	0	0.1	0	0	388	0.2	388	389	16.5	82.4
2025-08-01T03:10	10	0	0.1	0	0	388	0.2	387	388	16.4	82.9
2025-08-01T03:11	10	0	0.1	0	0	387	0.3	386	388	16.4	82.9
2025-08-01T03:12	10	0	0.1	0	0	387	0.2	386	387	16.4	83.0
2025-08-01T03:13	10	0	0.1	0	0	386	0.2	386	387	16.4	83.1
2025-08-01T03:14	10	0	0.1	0	0	386	0.2	386	386	16.4	83.4
2025-08-01T03:15	10	0	0.1	0	0	386	0.2	386	387	16.3	83.4
2025-08-01T03:16	10	0	0.1	0	0	385	0.3	385	386	16.3	83.4
2025-08-01T03:17	10	0	0.1	0	0	385	0.3	384	385	16.3	83.9
2025-08-01T03:18	10	0	0.1	0	1	384	0.3	383	385	16.2	84.2
2025-08-01T03:19	10	0	0.1	0	0	383	0.2	383	384	16.1	84.5
2025-08-01T03:20	10	0	0.0	0	0	383	0.2	382	384	16.1	85.0
2025-08-01T03:21	10	0	0.1	0	0	383	0.2	382	383	16.1	85.2
2025-08-01T03:22	10	0	0.1	0	0	382	0.2	382	383	16.1	85.6
2025-08-01T03:23	10	0	0.1	0	1	382	0.3	381	383	16.1	86.5
2025-08-01T03:24	10	0	0.0	0	0	381	0.2	381	382	16.0	87.0
2025-08-01T03:25	10	0	0.0	0	0	381	0.2	381	381	15.9	87.5
2025-08-01T03:26	10	0	0.0	0	0	380	0.3	380	381	15.9	88.0
2025-08-01T03:27	10	0	0.0	0	0	380	0.2	380	381	15.8	88.2
2025-08-01T03:28	10	0	0.0	0	0	381	0.2	380	381	15.8	87.8
2025-08-01T03:29	10	0	0.0	0	0	381	0.2	381	382	15.9	87.3
2025-08-01T03:30	10	0	0.1	0	0	381	0.3	380	382	15.9	87.5
2025-08-01T03:31	10	0	0.1	0	0	382	0.2	381	382	15.8	87.7
2025-08-01T03:32	10	0	0.1	0	0	382	0.2	381	382	15.8	88.5
2025-08-01T03:33	10	0	0.0	0	0	382	0.3	382	383	15.7	87.8
2025-08-01T03:34	10	0	0.1	0	0	383	0.4	382	384	15.8	87.9
2025-08-01T03:35	10	0	0.1	0	0	384	0.3	383	384	15.9	87.7
2025-08-01T03:36	10	0	0.1	0	0	385	0.4	384	385	16.0	85.9
2025-08-01T03:37	10	0	0.1	0	0	385	0.3	384	385	16.1	84.2
2025-08-01T03:38	10	0	0.1	0	0	385	0.2	385	386	16.1	84.3
2025-08-01T03:39	10	0	0.1	0	0	385	0.2	385	386	16.1	84.3
2025-08-01T03:40	10	0	0.1	0	0	385	0.2	385	386	16.1	84.5
2025-08-01T03:41	10	0	0.1	0	0	385	0.3	384	386	16.1	84.0
2025-08-01T03:42	10	0	0.1	0	0	385	0.3	385	386	16.2	83.6
2025-08-01T03:43	10	0	0.0	0	0	386	0.2	385	386	16.3	83.0
2025-08-01T03:44	10	0	0.1	0	0	386	0.2	385	386	16.3	82.5
2025-08-01T03:45	10	0	0.1	0	0	386	0.2	385	386	16.4	82.2
2025-08-01T03:46	10	0	0.1	0	0	386	0.2	385	386	16.4	81.8
2025-08-01T03:47	10	0	0.1	0	0	385	0.3	385	386	16.4	82.3
2025-08-01T03:48	10	0	0.1	0	0	385	0.3	384	386	16.3	82.9
2025-08-01T03:49	10	0	0.1	0	0	385	0.2	384	385	16.3	83.2
2025-08-01T03:50	10	0	0.1	0	0	384	0.2	384	385	16.2	83.7
2025-08-01T03:51	10	0	0.1	0	0	384	0.3	383	385	16.2	83.2
2025-08-01T03:52	10	0	0.1	0	0	384	0.2	383	385	16.2	83.4
2025-08-01T03:53	10	0	0.1	0	0	384	0.2	384	385	16.2	83.5
2025-08-01T03:54	10	0	0.1	0	0	384	0.2	384	385	16.2	83.0
2025-08-01T03:55	10	0	0.1	0	0	384	0.3	384	385	16.3	82.9
2025-08-01T03:56	10	0	0.1	0	0	385	0.3	384	385	16.3	82.9
2025-08-01T03:57	10	0	0.1	0	0	385	0.2	384	385	16.3	82.7
2025-08-01T03:58	10	0	0.1	0	0	385	0.2	384	385	16.3	82.4
2025-08-01T03:59	10	0	0.1	0	0	385	0.2	384	385	16.3	82.4
2025-08-01T04:00	10	0	0.1	0	0	385	0.3	385	386	16.3	82.3
2025-08-01T04:01	10	0	0.1	0	0	385	0.3	385	386	16.3	82.5
2025-08-01T04:02	10	0	0.1	0	0	385	0.2	385	385	16.3	82.4
2025-08-01T04:03	10	0	0.1	0	0	385	0.2	385	385	16.4	82.2
2025-08-01T04:04	10	0	0.1	0	1	385	0.3	384	386	16.3	82.4
2025-08-01T04:05	10	0	0.1	0	1	385	0.3	384	386	16.4	82.3
2025-08-01T04:06	10	0	0.1	0	1	385	0.2	384	385	16.3	82.5
2025-08-01T04:07	10	0	0.1	0	1	384	0.3	384	385	16.3	82.5
2025-08-01T04:08	10	0	0.1	0	1	384	0.2	383	384	16.3	82.7
2025-08-01T04:09	10	0	0.1	0	1	383	0.3	383	384	16.2	83.1
2025-08-01T04:10	10	0	0.0	0	1	383	0.2	383	384	16.3	82.7
2025-08-01T04:11	10	0	0.1	0	1	383	0.3	382	384	16.2	82.9
2025-08-01T04:12	10	0	0.1	0	1	383	0.2	383	384	16.3	82.0
2025-08-01T04:13	10	0	0.0	0	1	383	0.3	383	384	16.3	82.1
2025-08-01T04:14	10	0	0.1	0	1	383	0.2	383	384	16.4	81.2
2025-08-01T04:15	10	1	0.1	0	1	383	0.3	383	384	16.5	79.9
2025-08-01T04:16	10	1	0.1	0	1	383	0.4	382	384	16.6	79.1
2025-08-01T04:17	10	1	0.1	1	1	383	0.3	382	383	16.5	80.6
2025-08-01T04:18	10	1	0.1	1	1	383	0.3	382	384	16.5	78.9
2025-08-01T04:19	10	1	0.1	1	1	382	0.4	381	383	16.7	77.3
2025-08-01T04:20	10	1	0.1	1	1	382	0.2	382	383	16.8	76.9
2025-08-01T04:21	10	1	0.1	1	1	382	0.2	382	383	16.8	76.5
2025-08-01T04:22	10	1	0.1	1	2	382	0.2	382	383	16.7	77.7
2025-08-01T04:23	10	2	0.1	1	2	383	0.3	382	384	16.7	77.7
2025-08-01T04:24	10	2	0.1	2	2	384	0.3	383	385	16.8	76.1
2025-08-01T04:25	10	2	0.1	2	3	385	0.3	384	385	16.9	76.3
2025-08-01T04:26	10	3	0.1	2	3	385	0.4	385	386	17.0	75.4
2025-08-01T04:27	10	3	0.1	3	3	386	0.3	385	386	17.0	76.2
2025-08-01T04:28	10	3	0.1	3	3	386	0.3	386	387	16.6	79.6
2025-08-01T04:29	10	3	0.1	3	4	387	0.3	386	387	16.5	80.2
2025-08-01T04:30	10	4	0.1	3	4	387	0.3	386	388	16.4	81.0
2025-08-01T04:31	10	4	0.1	4	4	387	0.2	387	388	16.4	80.2
2025-08-01T04:32	10	4	0.1	4	4	388	0.2	387	388	16.3	81.0
2025-08-01T04:33	10	4	0.1	4	5	388	0.3	387	388	16.4	80.0
2025-08-01T04:34	10	5	0.2	5	5	388	0.3	387	388	16.5	79.5
2025-08-01T04:35	10	5	0.1	5	5	388	0.2	387	388	16.5	79.3
2025-08-01T04:36	10	6	0.1	5	6	388	0.2	387	388	16.4	80.5
2025-08-01T04:37	10	6	0.1	6	6	388	0.3	387	389	16.3	82.2
2025-08-01T04:38	10	6	0.1	6	6	388	0.3	387	388	16.2	82.8
2025-08-01T04:39	10	6	0.1	5	6	388	0.3	387	388	16.2	82.9
2025-08-01T04:40	10	6	0.1	5	6	388	0.2	387	388	16.1	83.7
2025-08-01T04:41	10	5	0.1	5	6	387	0.2	387	388	16.0	84.5
2025-08-01T04:42	10	6	0.1	5	6	387	0.2	386	387	15.9	85.6
2025-08-01T04:43	10	6	0.1	6	6	387	0.2	386	387	15.8	86.7
2025-08-01T04:44	10	6	0.1	5	6	386	0.2	386	387	15.8	86.6
2025-08-01T04:45	10	6	0.1	5	6	386	0.2	386	387	15.7	86.7
2025-08-01T04:46	10	6	0.1	6	6	386	0.3	386	387	15.7	86.9
2025-08-01T04:47	10	5	0.1	5	6	387	0.3	386	387	15.7	86.8
2025-08-01T04:48	10	5	0.2	5	5	386	0.3	386	387	15.7	87.5
2025-08-01T04:49	10	4	0.2	4	5	386	0.2	386	387	15.7	86.9
2025-08-01T04:50	10	4	0.1	4	4	386	0.2	386	387	15.6	87.2
2025-08-01T04:51	10	4	0.1	3	4	386	0.2	386	387	15.6	87.4
2025-08-01T04:52	10	4	0.1	3	4	387	0.3	386	387	15.6	87.2
2025-08-01T04:53	10	3	0.1	3	4	387	0.3	386	388	15.7	86.7
2025-08-01T04:54	10	3	0.1	3	3	388	0.2	387	388	15.8	85.5
2025-08-01T04:55	10	3	0.1	3	3	388	0.2	387	388	15.8	84.9
2025-08-01T04:56	10	3	0.1	3	3	387	0.2	387	388	15.9	85.0
2025-08-01T04:57	10	3	0.1	3	3	387	0.2	387	388	15.8	85.3
2025-08-01T04:58	10	3	0.1	3	3	387	0.3	387	388	15.9	84.2
2025-08-01T04:59	10	3	0.1	3	4	387	0.2	387	387	15.9	83.8
2025-08-01T05:00	10	3	0.1	3	4	387	0.2	386	388	15.9	83.7
2025-08-01T05:01	10	4	0.1	3	4	387	0.2	386	387	15.9	83.3
2025-08-01T05:02	10	4	0.1	4	4	387	0.2	386	387	15.9	83.9
2025-08-01T05:03	10	4	0.1	4	4	387	0.3	386	387	15.9	84.2
2025-08-01T05:04	10	4	0.1	4	4	387	0.3	386	387	15.9	84.0
2025-08-01T05:05	10	4	0.1	4	4	386	0.3	386	387	15.9	83.9
2025-08-01T05:06	10	5	0.1	4	5	386	0.2	386	387	15.8	84.3
2025-08-01T05:07	10	5	0.1	5	5	386	0.3	386	387	15.8	84.6
2025-08-01T05:08	10	5	0.1	5	5	386	0.3	385	386	15.8	84.8
2025-08-01T05:09	10	5	0.1	5	5	385	0.2	385	386	15.8	84.7
2025-08-01T05:10	10	5	0.1	5	5	385	0.2	385	386	15.8	84.4
2025-08-01T05:11	10	5	0.1	5	5	385	0.3	384	385	15.9	84.2
2025-08-01T05:12	10	5	0.1	5	5	384	0.2	384	385	15.9	84.3
2025-08-01T05:13	10	5	0.1	5	5	384	0.3	384	385	15.9	84.0
2025-08-01T05:14	10	5	0.2	5	6	384	0.3	383	385	15.9	83.9
2025-08-01T05:15	10	6	0.2	6	6	384	0.2	384	385	15.9	83.7
2025-08-01T05:16	10	6	0.2	6	7	384	0.2	384	384	15.9	83.6
2025-08-01T05:17	10	7	0.1	7	7	384	0.3	383	385	16.0	83.5
2025-08-01T05:18	10	7	0.1	7	7	384	0.2	384	385	15.9	83.6
2025-08-01T05:19	10	7	0.1	7	7	384	0.2	384	384	15.9	83.5
2025-08-01T05:20	10	7	0.1	7	8	384	0.2	383	384	16.0	83.2
2025-08-01T05:21	10	8	0.1	7	8	384	0.2	384	385	16.0	83.0
2025-08-01T05:22	10	8	0.1	8	8	384	0.3	383	385	16.0	82.8
2025-08-01T05:23	10	8	0.2	8	9	384	0.2	384	385	16.0	82.8
2025-08-01T05:24	10	9	0.3	9	10	385	0.3	384	385	16.0	82.8
2025-08-01T05:25	10	10	0.4	10	11	385	0.3	384	386	16.0	82.7
2025-08-01T05:26	10	12	0.5	11	13	386	0.4	385	387	16.0	82.7
2025-08-01T05:27	10	13	0.5	13	14	387	0.3	386	387	16.1	82.1
2025-08-01T05:28	10	21	5.4	14	29	388	0.5	387	388	16.1	82.2
2025-08-01T05:29	10	24	2.1	21	27	389	0.3	388	389	16.1	82.1
2025-08-01T05:30	10	20	3.0	17	26	389	0.3	388	390	16.1	82.3
2025-08-01T05:31	10	21	4.6	16	30	389	0.4	389	390	16.1	82.0
2025-08-01T05:32	10	26	4.7	20	34	390	0.5	389	391	16.2	81.8
2025-08-01T05:33	10	31	4.9	23	38	391	0.4	390	392	16.2	82.0
2025-08-01T05:34	10	21	3.7	16	26	391	0.4	390	392	16.2	82.0
2025-08-01T05:35	10	16	0.2	15	16	390	0.3	390	391	16.2	82.1
2025-08-01T05:36	10	17	2.2	15	24	390	0.2	390	391	16.2	81.9
2025-08-01T05:37	10	21	4.0	16	26	391	0.3	390	391	16.2	81.8
2025-08-01T05:38	10	16	0.6	16	17	391	0.2	390	391	16.2	81.8
2025-08-01T05:39	10	16	0.2	16	17	391	0.2	391	391	16.2	82.0
2025-08-01T05:40	10	17	0.4	17	18	391	0.3	391	392	16.2	82.2
2025-08-01T05:41	10	19	0.4	18	20	392	0.4	391	393	16.2	82.2
2025-08-01T05:42	10	20	0.1	19	20	393	0.3	392	393	16.2	81.9
2025-08-01T05:43	10	19	0.3	18	20	393	0.2	393	393	16.2	82.1
2025-08-01T05:44	10	18	0.3	17	18	393	0.2	392	393	16.3	81.9
2025-08-01T05:45	10	17	0.1	17	17	393	0.2	392	393	16.3	81.9
2025-08-01T05:46	10	18	0.3	17	18	393	0.2	392	393	16.3	82.0
2025-08-01T05:47	10	19	0.3	18	19	393	0.3	392	394	16.3	81.4
2025-08-01T05:48	10	20	0.3	19	20	394	0.2	393	394	16.3	81.7
2025-08-01T05:49	10	21	0.2	20	21	394	0.3	393	395	16.4	81.2
2025-08-01T05:50	10	21	0.1	21	21	394	0.2	394	395	16.4	81.8
2025-08-01T05:51	10	21	0.1	21	21	395	0.2	394	395	16.4	81.6
2025-08-01T05:52	10	21	0.2	20	21	395	0.2	394	395	16.5	80.5
2025-08-01T05:53	10	20	0.4	19	21	395	0.3	394	395	16.5	80.8
2025-08-01T05:54	10	19	0.3	18	19	394	0.3	394	395	16.5	80.6
2025-08-01T05:55	10	18	0.2	18	18	394	0.2	393	394	16.5	80.8
2025-08-01T05:56	10	18	0.1	17	18	394	0.2	393	394	16.5	81.3
2025-08-01T05:57	10	18	0.1	18	18	394	0.2	394	394	16.5	81.5
2025-08-01T05:58	10	18	0.1	18	18	394	0.2	393	394	16.5	81.5
2025-08-01T05:59	10	19	0.1	18	19	394	0.2	394	394	16.5	81.3
2025-08-01T06:00	10	19	0.0	19	19	394	0.2	393	394	16.6	80.9
2025-08-01T06:01	10	19	0.1	19	19	394	0.2	393	394	16.6	80.8
2025-08-01T06:02	10	19	0.3	19	20	394	0.3	393	394	16.7	80.6
2025-08-01T06:03	10	34	7.5	20	45	395	0.8	393	396	16.8	80.3
2025-08-01T06:04	10	33	4.5	27	44	396	0.3	395	396	16.8	80.7
2025-08-01T06:05	10	50	5.4	42	57	397	0.8	396	399	16.8	79.8
2025-08-01T06:06	10	62	1.6	57	64	400	0.9	398	401	16.9	79.6
2025-08-01T06:07	10	65	0.3	64	65	401	0.6	400	403	17.0	79.3
2025-08-01T06:08	10	65	0.1	65	65	403	0.4	402	404	17.1	78.5
2025-08-01T06:09	10	66	0.4	65	66	403	0.2	403	404	17.2	78.5
2025-08-01T06:10	10	67	0.2	66	67	404	0.3	403	405	17.3	79.1
2025-08-01T06:11	10	67	0.2	67	68	405	0.2	404	405	17.4	77.4
2025-08-01T06:12	10	69	0.4	68	69	405	0.3	404	405	17.5	76.7
2025-08-01T06:13	10	69	0.2	69	69	405	0.5	404	406	17.6	76.3
2025-08-01T06:14	10	69	0.1	69	69	406	0.3	405	407	17.6	76.2
2025-08-01T06:15	10	69	0.2	69	69	407	0.2	407	407	17.6	76.4
2025-08-01T06:16	10	69	0.3	69	70	407	0.5	406	408	17.7	76.0
2025-08-01T06:17	10	70	0.2	70	71	407	0.2	406	407	17.7	74.9
2025-08-01T06:18	10	71	0.1	71	71	407	0.3	406	407	17.8	75.1
2025-08-01T06:19	10	70	0.4	69	71	408	0.3	407	409	17.9	74.5
2025-08-01T06:20	10	72	0.4	71	72	409	0.3	408	409	17.9	74.5
2025-08-01T06:21	10	65	7.8	50	73	409	0.5	408	410	18.0	75.2
2025-08-01T06:22	10	66	8.7	47	73	409	0.5	408	410	18.1	74.9
2025-08-01T06:23	10	69	5.1	51	74	409	0.3	408	410	18.1	74.3
2025-08-01T06:24	10	61	3.6	54	67	409	0.5	408	410	18.1	73.9
2025-08-01T06:25	10	76	2.6	68	79	411	0.8	409	412	18.2	73.9
2025-08-01T06:26	10	66	10.2	46	77	411	0.9	409	412	18.3	73.1
2025-08-01T06:27	10	42	12.0	31	69	408	1.1	406	410	18.3	72.9
2025-08-01T06:28	10	53	15.6	32	73	409	0.9	407	410	18.3	73.5
2025-08-01T06:29	10	34	0.7	33	35	407	0.4	406	408	18.3	73.8
2025-08-01T06:30	10	43	4.0	36	49	407	0.5	406	408	18.3	74.7
2025-08-01T06:31	10	52	14.5	34	77	409	1.0	407	410	18.4	74.9
2025-08-01T06:32	10	32	1.0	30	34	407	1.2	405	410	18.4	74.1
2025-08-01T06:33	10	30	0.3	29	30	406	0.4	405	406	18.4	73.6
2025-08-01T06:34	10	29	0.1	29	29	405	0.3	405	406	18.4	74.0
2025-08-01T06:35	10	31	2.0	29	35	405	0.2	404	405	18.4	73.3
2025-08-01T06:36	10	29	3.0	27	38	404	0.3	404	405	18.4	72.6
2025-08-01T06:37	10	27	0.1	27	27	404	0.2	404	405	18.4	73.0
2025-08-01T06:38	10	27	0.1	26	27	404	0.3	403	404	18.4	73.1
2025-08-01T06:39	10	27	0.1	26	27	404	0.3	403	404	18.5	71.4
2025-08-01T06:40	10	26	0.4	25	27	404	0.3	403	404	18.5	72.0
2025-08-01T06:41	10	25	0.4	24	26	404	0.3	403	404	18.5	71.8
2025-08-01T06:42	10	25	0.2	25	25	404	0.2	403	404	18.6	71.0
2025-08-01T06:43	10	26	0.2	25	26	403	0.2	403	404	18.6	71.5
2025-08-01T06:44	10	26	0.3	26	27	403	0.2	403	404	18.6	70.8
2025-08-01T06:45	10	29	0.9	27	30	403	0.3	403	404	18.5	71.8
2025-08-01T06:46	10	32	0.8	30	34	404	0.3	403	405	18.5	71.6
2025-08-01T06:47	10	37	2.3	34	41	405	0.5	404	406	18.5	72.1
2025-08-01T06:48	10	34	1.5	32	37	406	0.2	406	406	18.6	71.2
2025-08-01T06:49	10	32	0.7	31	33	406	0.3	405	406	18.6	70.8
2025-08-01T06:50	10	38	5.9	33	53	406	0.7	405	408	18.7	71.6
2025-08-01T06:51	10	84	22.2	35	103	411	3.2	406	415	18.7	71.6
2025-08-01T06:52	10	65	21.1	43	105	412	1.2	410	414	18.8	70.8
2025-08-01T06:53	10	104	0.3	104	105	416	1.2	413	418	18.9	70.0
2025-08-01T06:54	10	103	0.4	103	105	418	1.0	417	420	19.0	69.4
2025-08-01T06:55	10	104	1.3	100	105	420	0.3	419	421	19.1	69.9
2025-08-01T06:56	10	91	13.4	62	103	420	0.7	418	421	19.2	69.4
2025-08-01T06:57	10	68	7.4	56	81	418	1.2	416	420	19.3	69.1
2025-08-01T06:58	10	96	10.0	75	105	419	1.2	417	422	19.4	68.7
2025-08-01T06:59	10	103	1.1	100	105	422	0.6	420	423	19.5	68.7
2025-08-01T07:00	10	104	0.2	104	104	422	0.3	421	422	19.7	66.2
2025-08-01T07:01	10	105	0.2	104	105	422	0.8	420	423	19.8	65.4
2025-08-01T07:02	10	106	0.6	105	107	423	0.7	422	424	19.9	65.8
2025-08-01T07:03	10	107	2.7	98	109	424	0.3	423	424	19.9	65.6
2025-08-01T07:04	10	103	4.8	93	110	423	0.7	422	424	19.9	64.2
2025-08-01T07:05	10	107	5.4	91	111	423	0.7	422	424	19.9	64.5
2025-08-01T07:06	10	112	0.6	110	113	426	0.7	425	427	20.1	65.5
2025-08-01T07:07	10	113	1.2	110	114	427	0.7	426	429	20.1	63.8
2025-08-01T07:08	10	115	0.7	114	116	430	0.4	429	431	20.3	64.9
2025-08-01T07:09	10	118	1.1	116	120	429	0.6	429	431	20.3	62.5
2025-08-01T07:10	10	122	1.3	120	124	430	0.3	429	431	20.2	61.7
2025-08-01T07:11	10	127	1.5	125	130	432	0.5	431	433	20.2	62.1
2025-08-01T07:12	10	132	1.4	129	134	434	0.3	433	434	20.4	62.0
2025-08-01T07:13	10	136	1.2	134	139	435	1.3	433	437	20.5	61.9
2025-08-01T07:14	10	122	20.9	80	139	436	1.2	433	438	20.6	61.3
2025-08-01T07:15	10	120	15.5	85	139	435	1.1	433	437	20.7	60.7
2025-08-01T07:16	10	137	3.7	127	142	438	0.5	436	438	20.7	61.0
2025-08-01T07:17	10	116	14.4	84	137	437	2.0	433	440	20.7	60.8
2025-08-01T07:18	10	81	8.9	67	95	432	1.2	430	435	20.7	62.1
2025-08-01T07:19	10	110	22.3	73	139	433	1.6	431	436	21.0	61.8
2025-08-01T07:20	10	118	22.8	72	140	435	1.7	432	438	20.8	59.9
2025-08-01T07:21	10	114	16.9	89	141	439	1.0	436	440	20.8	60.5
2025-08-01T07:22	10	60	15.4	49	103	433	3.3	427	438	21.0	61.3
2025-08-01T07:23	10	49	0.3	48	50	426	2.4	423	430	20.8	60.2
2025-08-01T07:24	10	50	0.5	49	51	423	1.3	420	425	20.6	60.0
2025-08-01T07:25	10	55	3.8	51	66	421	0.4	420	422	20.5	58.3
2025-08-01T07:26	10	53	0.2	53	54	421	0.3	420	421	20.4	59.2
2025-08-01T07:27	10	54	0.5	53	55	421	0.5	420	422	20.4	60.2
2025-08-01T07:28	10	57	0.8	55	58	421	0.3	420	421	20.4	60.0
2025-08-01T07:29	10	57	0.1	57	57	421	0.5	421	422	20.4	59.6
2025-08-01T07:30	10	58	0.4	57	59	422	0.4	421	423	20.4	59.5
2025-08-01T07:31	10	59	0.4	58	60	423	1.0	421	425	20.5	59.5
2025-08-01T07:32	10	60	0.5	60	61	424	0.3	424	425	20.5	59.7
2025-08-01T07:33	10	62	0.4	61	63	424	0.3	424	425	20.5	59.0
2025-08-01T07:34	10	63	0.3	63	64	423	0.2	422	424	20.5	57.6
2025-08-01T07:35	10	64	0.1	63	64	423	0.5	422	424	20.6	56.8
2025-08-01T07:36	10	64	0.1	63	64	422	0.4	421	422	20.5	56.5
2025-08-01T07:37	10	66	1.7	64	70	422	1.0	421	425	20.5	56.6
2025-08-01T07:38	10	83	6.9	70	93	426	1.1	423	427	20.5	56.4
2025-08-01T07:39	10	91	24.4	73	150	428	2.2	425	432	20.6	56.4
2025-08-01T07:40	10	72	2.2	70	77	427	0.9	426	429	20.6	56.2
2025-08-01T07:41	10	95	20.2	71	143	427	2.0	425	432	20.6	56.0
2025-08-01T07:42	10	121	29.8	80	168	434	1.2	431	436	20.6	56.5
2025-08-01T07:43	10	73	2.0	70	79	431	1.4	429	434	20.8	56.9
2025-08-01T07:44	10	72	1.5	70	76	428	1.2	427	431	20.9	56.9
2025-08-01T07:45	10	80	4.0	75	87	429	0.5	428	429	20.8	57.1
2025-08-01T07:46	10	80	3.1	77	87	427	0.4	426	428	20.6	57.0
2025-08-01T07:47	10	83	3.2	79	90	428	1.0	427	430	20.7	57.0
2025-08-01T07:48	10	95	10.9	82	115	431	1.6	428	434	20.8	57.3
2025-08-01T07:49	10	106	21.7	83	152	433	1.2	431	435	20.9	56.7
2025-08-01T07:50	10	136	28.0	81	168	439	2.7	432	442	20.9	56.3
2025-08-01T07:51	10	80	1.3	78	83	435	1.5	432	438	20.9	56.2
2025-08-01T07:52	10	86	14.1	73	117	434	0.8	433	436	21.0	56.5
2025-08-01T07:53	10	75	2.4	73	81	431	1.0	430	434	21.0	56.5
2025-08-01T07:54	10	73	3.6	71	93	431	1.2	429	433	21.0	56.3
2025-08-01T07:55	10	77	7.0	73	100	431	0.3	430	431	20.9	56.7
2025-08-01T07:56	10	74	1.4	73	78	431	0.6	430	432	20.9	56.4
2025-08-01T07:57	10	87	9.1	74	105	430	0.8	429	432	20.8	55.0
2025-08-01T07:58	10	83	5.5	76	94	430	0.7	429	431	20.6	55.1
2025-08-01T07:59	10	101	24.1	76	153	431	2.2	428	436	20.7	56.1
2025-08-01T08:00	10	112	23.3	74	149	434	1.9	430	436	20.9	55.7
2025-08-01T08:01	10	83	13.0	69	113	431	1.2	429	433	20.7	55.9
2025-08-01T08:02	10	65	2.3	62	70	430	1.4	427	433	20.9	56.2
2025-08-01T08:03	10	62	1.3	60	65	427	0.7	426	428	20.9	56.0
2025-08-01T08:04	10	60	0.2	59	60	427	0.3	426	427	20.8	55.9
2025-08-01T08:05	10	60	0.6	59	62	427	0.7	425	428	20.8	56.1
2025-08-01T08:06	10	64	1.7	62	67	426	0.6	425	427	20.7	56.1
2025-08-01T08:07	10	66	0.9	65	69	426	0.3	425	427	20.8	56.2
2025-08-01T08:08	10	67	1.0	66	69	427	0.4	426	427	20.8	56.4
2025-08-01T08:09	10	65	0.4	64	66	427	0.3	426	427	20.8	56.6
2025-08-01T08:10	10	63	0.8	62	64	427	0.5	426	428	20.8	57.2
2025-08-01T08:11	10	61	0.2	61	62	427	0.7	425	428	20.8	57.0
2025-08-01T08:12	10	61	0.2	61	61	425	0.4	424	426	20.8	57.0
2025-08-01T08:13	10	63	1.2	62	65	425	0.2	424	426	20.7	56.8
2025-08-01T08:14	10	64	1.1	63	66	425	0.5	424	426	20.7	57.0
2025-08-01T08:15	10	88	16.9	63	123	429	2.7	425	432	20.8	56.9
2025-08-01T08:16	10	68	10.4	61	99	428	1.8	425	431	20.8	56.1
2025-08-01T08:17	10	61	7.7	54	92	425	1.6	423	428	20.7	56.2
2025-08-01T08:18	10	51	1.3	49	54	423	0.3	422	424	20.6	56.7
2025-08-01T08:19	10	48	0.5	47	49	423	0.5	422	424	20.8	57.3
2025-08-01T08:20	10	48	0.9	47	50	422	0.8	421	423	20.8	57.4
2025-08-01T08:21	10	45	1.0	44	47	421	0.5	420	422	20.8	57.7
2025-08-01T08:22	10	43	0.3	43	44	422	0.4	421	423	20.8	56.9
2025-08-01T08:23	10	42	0.6	41	43	421	0.6	420	422	20.7	57.3
2025-08-01T08:24	10	42	0.2	41	42	420	0.5	419	421	20.7	57.3
2025-08-01T08:25	10	43	0.5	42	44	420	0.6	419	421	20.6	57.9
2025-08-01T08:26	10	46	1.7	44	49	421	0.4	420	422	20.7	57.8
2025-08-01T08:27	10	46	0.5	46	49	422	0.3	421	422	20.7	57.7
2025-08-01T08:28	10	47	0.7	46	48	422	0.3	421	422	20.7	58.4
2025-08-01T08:29	10	53	4.6	49	67	421	0.3	421	422	20.7	58.0
2025-08-01T08:30	10	53	0.6	52	55	421	0.2	421	422	20.6	57.7
2025-08-01T08:31	10	62	8.8	55	85	423	1.1	421	425	20.7	58.2
2025-08-01T08:32	10	56	3.6	52	64	423	1.0	421	424	20.7	57.3
2025-08-01T08:33	10	50	2.5	46	55	421	0.4	420	422	20.6	57.3
2025-08-01T08:34	10	44	0.5	44	46	421	0.3	420	422	20.7	57.3
2025-08-01T08:35	10	46	0.9	44	48	420	0.2	420	421	20.7	57.6
2025-08-01T08:36	10	51	2.0	48	54	421	0.3	420	421	20.7	57.5
2025-08-01T08:37	10	58	5.9	52	73	422	1.1	421	424	20.7	58.4
2025-08-01T08:38	10	86	15.1	66	118	426	1.4	423	428	20.7	57.2
2025-08-01T08:39	10	60	9.3	48	82	426	1.3	424	428	20.7	57.8
2025-08-01T08:40	10	50	3.8	47	57	424	0.3	423	424	20.8	58.5
2025-08-01T08:41	10	56	2.7	51	64	423	0.3	422	424	20.8	57.7
2025-08-01T08:42	10	79	5.3	67	91	426	2.1	422	430	20.8	57.4
2025-08-01T08:43	10	77	9.4	67	101	430	1.3	428	432	20.9	58.5
2025-08-01T08:44	10	89	17.7	69	124	433	1.5	431	436	21.0	57.8
2025-08-01T08:45	10	72	3.1	68	79	432	0.7	431	433	21.0	57.3
2025-08-01T08:46	10	64	2.4	61	69	431	1.7	428	434	21.1	57.6
2025-08-01T08:47	10	59	1.5	57	62	428	0.7	427	429	21.0	56.3
2025-08-01T08:48	10	55	0.9	54	57	426	0.7	425	428	21.0	56.1
2025-08-01T08:49	10	53	0.3	53	54	425	0.3	425	426	21.0	55.5
2025-08-01T08:50	10	54	0.1	53	54	425	0.4	425	426	21.1	55.7
2025-08-01T08:51	10	53	0.2	52	53	426	0.3	425	426	21.2	56.5
2025-08-01T08:52	10	55	1.3	53	57	426	0.3	425	427	21.2	55.8
2025-08-01T08:53	10	58	0.5	57	59	425	0.6	424	426	21.2	55.7
2025-08-01T08:54	10	57	0.5	56	58	425	0.4	424	425	21.1	55.0
2025-08-01T08:55	10	55	0.4	54	56	426	0.4	424	426	21.2	55.8
2025-08-01T08:56	10	55	0.3	54	55	427	0.3	426	427	21.2	56.4
2025-08-01T08:57	10	58	1.9	55	61	427	0.5	426	428	21.3	56.2
2025-08-01T08:58	10	78	17.1	59	118	429	1.7	427	433	21.3	55.5
2025-08-01T08:59	10	145	27.8	97	183	436	4.2	431	445	21.3	54.3
2025-08-01T09:00	10	178	7.2	157	183	447	2.1	443	451	21.5	53.9
2025-08-01T09:01	10	183	0.7	182	184	455	2.7	449	458	21.9	53.4
2025-08-01T09:02	10	112	52.9	67	187	451	7.8	438	460	22.2	52.7
2025-08-01T09:03	10	72	5.5	65	85	437	1.9	435	442	21.8	52.1
2025-08-01T09:04	10	65	0.8	64	67	435	1.1	433	436	21.9	52.3
2025-08-01T09:05	10	70	3.6	66	86	434	0.7	432	435	21.7	51.7
2025-08-01T09:06	10	95	12.3	80	118	437	1.8	434	441	21.8	51.9
2025-08-01T09:07	10	120	29.5	84	172	443	2.4	440	448	21.7	51.6
2025-08-01T09:08	10	140	34.5	99	189	448	4.0	440	453	21.7	52.2
2025-08-01T09:09	10	94	9.1	81	111	445	2.2	441	449	21.9	52.7
2025-08-01T09:10	10	80	3.2	73	85	441	1.3	439	443	21.8	53.6
2025-08-01T09:11	10	67	3.5	61	73	438	1.6	435	440	21.8	53.8
2025-08-01T09:12	10	57	2.3	53	61	435	0.4	434	436	21.7	53.2
2025-08-01T09:13	10	52	0.5	51	53	433	1.3	431	435	21.8	53.7
2025-08-01T09:14	10	53	0.7	52	54	430	1.4	428	433	21.6	53.3
2025-08-01T09:15	10	73	26.5	55	142	431	3.0	428	438	21.5	52.7
2025-08-01T09:16	10	54	6.7	50	85	433	1.6	431	437	21.6	53.3
2025-08-01T09:17	10	49	0.6	48	50	430	1.1	428	432	21.7	53.0
2025-08-01T09:18	10	48	0.2	47	48	427	0.8	426	429	21.6	52.5
2025-08-01T09:19	10	48	0.2	47	48	426	0.2	425	426	21.6	52.8
2025-08-01T09:20	10	48	0.2	47	48	427	0.5	426	427	21.6	52.8
2025-08-01T09:21	10	47	0.2	47	47	427	0.3	427	428	21.7	52.7
2025-08-01T09:22	10	47	0.4	47	48	427	0.5	426	428	21.6	53.1
2025-08-01T09:23	10	72	39.4	48	167	428	2.7	426	436	21.6	53.6
2025-08-01T09:24	10	62	16.5	55	142	432	1.8	429	436	21.6	53.8
2025-08-01T09:25	10	60	1.9	57	64	431	0.9	430	433	21.6	54.1
2025-08-01T09:26	10	106	41.7	64	183	437	5.6	431	444	21.7	54.2
2025-08-01T09:27	10	65	1.1	64	69	439	2.0	435	442	21.9	54.5
2025-08-01T09:28	10	66	1.4	65	69	435	0.6	433	436	21.8	53.3
2025-08-01T09:29	10	70	1.4	69	74	433	0.5	432	434	21.8	53.5
2025-08-01T09:30	10	132	45.0	74	203	440	5.0	432	445	21.7	52.7
2025-08-01T09:31	10	160	37.7	93	206	448	5.8	439	455	21.8	52.8
2025-08-01T09:32	10	111	31.7	70	174	449	2.9	442	453	21.8	52.5
2025-08-01T09:33	10	64	3.2	59	70	438	3.4	434	444	21.7	51.5
2025-08-01T09:34	10	56	2.0	54	64	433	0.9	431	435	21.6	51.6
2025-08-01T09:35	10	53	8.2	46	78	432	0.8	431	434	21.7	52.6
2025-08-01T09:36	10	44	1.4	41	46	429	1.2	427	431	21.7	52.4
2025-08-01T09:37	10	39	1.2	37	41	426	0.7	425	428	21.7	50.0
2025-08-01T09:38	10	36	0.8	35	37	425	0.5	424	426	20.5	50.9
2025-08-01T09:39	10	34	0.3	34	35	424	0.3	424	425	21.7	52.6
2025-08-01T09:40	10	33	0.3	33	34	424	0.3	424	425	21.7	52.6
2025-08-01T09:41	10	32	0.3	32	33	424	0.4	423	424	21.7	51.8
2025-08-01T09:42	10	32	0.1	32	32	422	0.5	421	423	21.7	52.6
2025-08-01T09:43	10	32	0.1	31	32	422	0.3	421	422	21.7	52.6
2025-08-01T09:44	10	32	0.3	31	32	422	0.2	421	422	21.7	52.7
2025-08-01T09:45	10	33	0.4	32	34	421	0.4	420	422	21.6	52.5
2025-08-01T09:46	10	35	1.0	34	37	421	0.4	420	422	21.5	52.7
2025-08-01T09:47	10	39	1.2	37	41	422	0.5	421	423	21.5	52.2
2025-08-01T09:48	10	45	3.7	41	57	424	0.8	422	425	21.5	52.7
2025-08-01T09:49	10	114	31.4	58	188	434	6.0	423	444	21.5	52.7
2025-08-01T09:50	10	117	48.5	73	195	446	2.4	441	451	21.6	52.1
2025-08-01T09:51	10	139	29.6	89	193	450	4.6	442	456	21.8	52.5
2025-08-01T09:52	10	136	37.2	72	190	455	2.1	451	459	22.0	53.4
2025-08-01T09:53	10	91	24.1	66	132	450	2.8	446	457	22.3	53.0
2025-08-01T09:54	10	70	20.4	57	122	445	4.1	439	452	22.1	52.0
2025-08-01T09:55	10	120	62.4	57	193	443	5.8	437	455	22.0	51.9
2025-08-01T09:56	10	188	4.9	173	192	460	3.9	453	465	22.2	52.3
2025-08-01T09:57	10	178	14.5	137	189	461	1.5	459	464	22.3	50.3
2025-08-01T09:58	10	91	43.7	53	178	451	8.0	441	463	22.1	50.1
2025-08-01T09:59	10	164	30.3	71	190	453	6.6	441	460	22.2	50.1
2025-08-01T10:00	10	74	36.6	55	175	451	6.6	442	461	22.2	50.1
2025-08-01T10:01	10	130	54.9	58	193	451	4.9	442	458	22.1	50.0
2025-08-01T10:02	10	101	32.9	60	169	447	2.1	444	452	22.0	50.3
2025-08-01T10:03	10	102	47.4	60	195	451	3.5	445	457	22.1	50.5
2025-08-01T10:04	10	59	0.6	58	61	443	2.2	440	447	22.3	50.4
2025-08-01T10:05	10	62	0.7	61	64	439	1.1	437	441	22.5	50.4
2025-08-01T10:06	10	62	1.8	59	66	438	0.8	436	439	22.5	50.2
2025-08-01T10:07	10	125	38.1	62	184	446	7.5	435	455	22.4	49.4
2025-08-01T10:08	10	117	27.6	78	160	454	2.6	449	458	22.6	49.8
2025-08-01T10:09	10	163	26.9	100	199	461	4.1	452	466	23.0	49.2
2025-08-01T10:10	10	86	33.1	63	173	456	7.5	446	468	22.9	49.0
2025-08-01T10:11	10	98	43.6	65	199	445	2.7	440	450	22.6	48.5
2025-08-01T10:12	10	74	30.3	59	194	444	3.9	439	452	22.3	47.9
2025-08-01T10:13	10	59	2.8	56	69	438	1.3	436	441	22.3	48.3
2025-08-01T10:14	10	56	0.3	55	57	434	0.8	433	437	22.2	49.7
2025-08-01T10:15	10	58	1.1	56	60	433	0.8	432	435	22.1	50.5
2025-08-01T10:16	10	66	3.6	61	75	433	0.3	432	434	21.9	50.8
2025-08-01T10:17	10	63	1.0	62	65	434	0.6	433	435	22.0	51.2
2025-08-01T10:18	10	85	24.1	65	141	437	2.3	434	443	21.9	51.0
2025-08-01T10:19	10	59	7.0	53	91	437	2.5	434	443	22.0	51.5
2025-08-01T10:20	10	51	1.1	49	53	434	0.3	434	435	22.0	51.1
2025-08-01T10:21	10	48	0.6	48	49	433	0.8	431	434	22.1	50.9
2025-08-01T10:22	10	47	0.2	47	48	432	0.3	431	432	22.1	50.8
2025-08-01T10:23	10	47	0.2	46	47	431	0.5	430	431	22.0	50.8
2025-08-01T10:24	10	46	0.2	46	47	430	0.3	429	430	22.0	50.8
2025-08-01T10:25	10	46	0.1	46	46	431	0.8	429	432	22.0	51.1
2025-08-01T10:26	10	47	0.5	46	48	431	0.2	431	432	22.1	51.0
2025-08-01T10:27	10	49	1.0	47	51	432	0.6	431	433	22.1	51.3
2025-08-01T10:28	10	53	1.3	51	55	432	0.5	431	433	22.1	50.6
2025-08-01T10:29	10	57	0.8	55	58	431	0.2	431	432	22.1	50.3
2025-08-01T10:30	10	58	0.2	58	59	432	0.9	431	434	22.2	50.7
2025-08-01T10:31	10	60	0.8	59	62	434	0.4	432	435	22.2	49.7
2025-08-01T10:32	10	92	25.0	62	126	437	3.8	433	444	22.2	50.6
2025-08-01T10:33	10	76	13.9	64	112	442	1.2	441	444	22.3	51.2
2025-08-01T10:34	10	64	1.4	63	67	440	0.9	438	442	22.4	50.3
2025-08-01T10:35	10	77	18.5	63	123	440	1.4	438	443	22.4	50.6
2025-08-01T10:36	10	96	22.6	64	137	441	2.4	438	445	22.4	49.8
2025-08-01T10:37	10	69	13.0	57	101	441	2.4	437	445	22.3	49.5
2025-08-01T10:38	10	54	1.7	51	57	436	1.4	434	439	22.3	50.0
2025-08-01T10:39	10	49	1.2	47	51	433	0.8	432	435	22.4	50.5
2025-08-01T10:40	10	46	0.6	45	47	431	0.9	430	433	22.4	50.5
2025-08-01T10:41	10	45	0.2	45	45	430	0.3	429	431	22.3	50.8
2025-08-01T10:42	10	44	0.2	44	45	430	0.4	429	430	22.2	50.6
2025-08-01T10:43	10	43	0.3	43	44	428	0.6	427	429	22.1	50.0
2025-08-01T10:44	10	43	0.2	42	43	427	0.3	427	428	22.0	49.9
2025-08-01T10:45	10	44	0.5	43	45	428	0.6	427	429	22.0	50.5
2025-08-01T10:46	10	46	0.9	44	47	428	0.4	428	429	22.1	50.5
2025-08-01T10:47	10	49	0.8	47	50	429	0.2	428	429	22.0	50.4
2025-08-01T10:48	10	61	14.9	50	100	431	1.6	429	434	22.0	50.9
2025-08-01T10:49	10	55	3.0	52	60	432	0.4	431	433	22.0	51.3
2025-08-01T10:50	10	56	1.3	54	59	431	0.6	430	432	22.0	51.2
2025-08-01T10:51	10	52	1.0	51	54	431	0.3	430	432	22.0	51.4
2025-08-01T10:52	10	49	1.1	47	51	430	0.6	429	431	22.0	51.5
2025-08-01T10:53	10	45	1.1	43	47	429	0.3	429	430	22.0	51.6
2025-08-01T10:54	10	42	0.8	40	43	429	0.4	428	430	22.0	52.0
2025-08-01T10:55	10	39	1.0	37	40	427	0.8	425	428	22.0	51.6
2025-08-01T10:56	10	35	0.7	34	37	426	0.2	425	426	21.9	51.8
2025-08-01T10:57	10	34	0.2	33	34	425	0.3	424	426	21.9	52.0
2025-08-01T10:58	10	34	0.1	33	34	424	0.2	424	425	21.9	51.1
2025-08-01T10:59	10	34	0.1	34	34	424	0.5	423	425	21.8	51.7
2025-08-01T11:00	10	35	0.4	34	35	424	0.5	423	425	21.8	51.5
2025-08-01T11:01	10	36	0.7	35	37	424	0.3	423	424	21.8	51.2
2025-08-01T11:02	10	39	0.8	37	40	424	0.4	423	425	21.8	51.5
2025-08-01T11:03	10	42	0.6	40	42	425	0.2	425	425	21.8	51.8
2025-08-01T11:04	10	42	0.2	42	43	426	0.3	425	427	21.8	51.8
2025-08-01T11:05	10	40	0.8	39	42	427	0.4	426	428	21.9	52.8
2025-08-01T11:06	10	37	0.9	36	39	426	0.2	425	427	21.9	52.7
2025-08-01T11:07	10	35	0.4	34	36	425	0.9	423	426	21.9	52.7
2025-08-01T11:08	10	34	0.1	34	34	423	0.4	423	424	21.8	52.7
2025-08-01T11:09	10	36	0.7	35	37	423	0.2	422	423	21.8	52.6
2025-08-01T11:10	10	39	0.9	37	40	424	0.4	423	425	21.8	53.2
2025-08-01T11:11	10	41	0.5	40	42	424	0.2	424	425	21.8	52.6
2025-08-01T11:12	10	41	0.3	40	42	424	0.2	423	424	21.7	52.4
2025-08-01T11:13	10	40	0.2	40	41	424	0.3	423	425	21.8	52.5
2025-08-01T11:14	10	41	0.7	40	43	425	0.2	424	425	21.8	52.9
2025-08-01T11:15	10	44	1.2	43	47	424	0.3	424	425	21.8	52.4
2025-08-01T11:16	10	49	1.4	46	51	425	0.5	424	426	21.7	51.3
2025-08-01T11:17	10	52	0.7	51	54	426	0.4	425	427	21.7	51.8
2025-08-01T11:18	10	55	1.2	53	58	427	0.4	426	428	21.8	51.6
2025-08-01T11:19	10	94	34.3	58	161	432	4.8	427	443	21.8	51.4
2025-08-01T11:20	10	181	41.1	93	215	449	7.9	439	462	21.9	51.3
2025-08-01T11:21	10	189	24.1	127	215	461	3.7	456	468	22.1	51.5
2025-08-01T11:22	10	195	23.1	138	215	469	1.3	467	471	22.3	50.5
2025-08-01T11:23	10	197	16.8	171	223	470	1.4	468	473	22.7	50.2
2025-08-01T11:24	10	204	7.6	186	220	471	0.9	469	472	22.3	49.8
2025-08-01T11:25	10	213	1.3	207	214	475	1.7	471	477	22.3	54.9
2025-08-01T11:26	10	212	0.2	212	212	477	1.0	475	479	22.3	54.9
2025-08-01T11:27	10	213	0.2	212	213	477	0.6	476	479	22.2	53.5
2025-08-01T11:28	10	212	0.2	212	213	483	1.8	478	485	22.4	54.0
2025-08-01T11:29	10	213	0.7	212	214	485	1.0	483	486	22.7	53.8
2025-08-01T11:30	10	216	1.1	215	218	486	2.1	483	489	22.8	52.0
2025-08-01T11:31	10	221	2.0	218	226	485	0.8	483	486	22.7	50.6
2025-08-01T11:32	10	162	50.8	99	227	480	7.2	469	488	23.0	50.0
2025-08-01T11:33	10	161	30.4	113	225	472	3.9	467	479	22.6	49.8
2025-08-01T11:34	10	112	6.4	99	123	464	2.0	461	469	22.3	50.7
2025-08-01T11:35	10	98	3.0	95	105	460	1.3	457	463	22.5	50.8
2025-08-01T11:36	10	121	12.2	105	142	457	1.6	454	459	22.4	50.2
2025-08-01T11:37	10	132	21.4	115	199	460	2.4	457	466	22.4	50.9
2025-08-01T11:38	10	168	22.8	126	207	469	2.2	464	474	23.0	51.4
2025-08-01T11:39	10	176	37.3	135	254	475	3.8	468	480	22.7	50.6
2025-08-01T11:40	10	165	40.4	115	243	471	2.8	466	476	22.7	50.7
2025-08-01T11:41	10	145	40.3	97	219	468	5.9	459	477	22.9	50.1
2025-08-01T11:42	10	84	3.4	81	96	456	2.8	451	462	22.6	51.7
2025-08-01T11:43	10	78	1.8	75	81	449	1.7	447	452	22.6	52.1
2025-08-01T11:44	10	74	0.5	74	76	444	1.2	443	448	22.3	50.7
2025-08-01T11:45	10	76	1.4	74	78	444	0.5	443	445	22.2	51.2
2025-08-01T11:46	10	83	4.9	78	97	445	0.4	444	446	22.3	51.1
2025-08-01T11:47	10	76	1.3	75	80	445	0.4	444	446	22.2	50.7
2025-08-01T11:48	10	79	1.9	76	81	444	1.0	443	446	22.3	50.6
2025-08-01T11:49	10	88	4.8	81	97	448	1.8	445	450	22.5	51.6
2025-08-01T11:50	10	90	0.7	88	91	447	0.7	446	449	22.4	50.6
2025-08-01T11:51	10	85	1.1	84	87	447	0.7	446	448	22.4	50.8
2025-08-01T11:52	10	83	0.7	82	84	447	0.5	446	448	22.5	51.7
2025-08-01T11:53	10	79	1.2	77	82	446	0.7	445	448	22.5	52.0
2025-08-01T11:54	10	75	1.3	73	77	446	0.4	445	447	22.5	52.5
2025-08-01T11:55	10	71	1.1	69	73	446	0.3	445	446	22.7	52.3
2025-08-01T11:56	10	68	0.8	67	69	444	1.9	441	446	22.8	51.5
2025-08-01T11:57	10	66	0.4	65	67	441	0.7	439	442	22.8	52.3
2025-08-01T11:58	10	64	0.7	63	65	438	0.7	437	440	22.6	48.9
2025-08-01T11:59	10	63	0.3	62	63	437	0.8	435	438	22.5	50.4
2025-08-01T12:00	10	62	0.2	62	63	436	0.4	435	437	22.4	48.5
2025-08-01T12:01	10	73	10.4	63	97	438	2.0	435	442	22.5	49.7
2025-08-01T12:02	10	68	2.5	65	72	440	0.3	439	441	22.5	49.5
2025-08-01T12:03	10	64	0.7	62	65	440	0.7	439	441	22.6	50.1
2025-08-01T12:04	10	59	1.9	56	62	439	1.5	436	441	22.6	49.7
2025-08-01T12:05	10	53	1.9	50	56	436	0.2	436	437	22.5	49.6
2025-08-01T12:06	10	47	1.5	44	49	435	0.8	434	436	22.6	49.9
2025-08-01T12:07	10	42	1.3	40	44	433	1.3	430	435	22.6	49.6
2025-08-01T12:08	10	38	1.1	36	40	430	0.3	430	431	22.5	49.3
2025-08-01T12:09	10	35	0.7	34	36	430	0.2	429	430	22.5	49.1
2025-08-01T12:10	10	34	0.2	33	34	429	0.4	428	430	22.6	49.8
2025-08-01T12:11	10	33	0.1	33	33	428	0.5	427	429	22.6	50.9
2025-08-01T12:12	10	34	0.4	33	35	424	2.1	421	428	22.4	52.0
2025-08-01T12:13	10	36	0.5	35	37	421	0.4	420	422	22.1	54.8
2025-08-01T12:14	10	38	0.7	37	39	421	0.5	420	422	21.9	56.6
2025-08-01T12:15	10	41	1.0	40	43	420	1.1	418	422	21.7	58.0
2025-08-01T12:16	10	45	0.9	43	46	417	0.5	416	418	21.2	61.7
2025-08-01T12:17	10	48	0.9	47	50	415	0.5	414	416	20.4	65.9
2025-08-01T12:18	10	53	1.8	50	56	415	0.9	414	417	20.0	68.4
2025-08-01T12:19	10	60	3.0	56	68	418	1.6	415	421	20.2	64.6
2025-08-01T12:20	10	101	31.1	67	161	426	4.5	417	430	20.5	63.1
2025-08-01T12:21	10	121	53.5	66	198	431	5.8	425	440	20.7	60.7
2025-08-01T12:22	10	175	25.1	123	198	443	4.8	435	451	20.9	62.3
2025-08-01T12:23	10	105	27.2	66	175	445	3.0	440	449	21.1	61.2
2025-08-01T12:24	10	86	28.2	64	151	441	2.7	437	446	21.2	60.6
2025-08-01T12:25	10	122	14.6	80	158	441	1.9	437	443	21.4	59.4
2025-08-01T12:26	10	163	36.6	66	184	447	4.9	438	454	21.5	61.7
2025-08-01T12:27	10	174	1.4	172	177	454	1.1	452	456	21.6	58.4
2025-08-01T12:28	10	171	0.8	169	172	454	0.9	453	455	21.6	57.0
2025-08-01T12:29	10	169	0.5	168	169	453	0.5	452	455	21.6	55.4
2025-08-01T12:30	10	167	0.5	166	168	453	0.6	452	454	21.6	55.5
2025-08-01T12:31	10	165	0.6	164	166	454	1.0	452	455	21.7	57.0
2025-08-01T12:32	10	164	0.2	164	165	454	1.5	451	456	21.8	57.7
2025-08-01T12:33	10	165	0.3	164	165	453	0.5	452	454	21.8	58.8
2025-08-01T12:34	10	165	0.1	165	165	454	1.8	452	457	22.0	58.7
2025-08-01T12:35	10	165	0.2	165	166	453	0.3	452	454	22.1	57.0
2025-08-01T12:36	10	166	0.2	165	166	454	0.4	453	455	22.1	55.8
2025-08-01T12:37	10	167	0.4	166	167	458	2.0	454	461	22.4	58.6
2025-08-01T12:38	10	168	0.5	167	169	460	0.8	459	462	22.5	58.1
2025-08-01T12:39	10	169	0.3	169	170	461	0.6	460	462	22.9	60.1
2025-08-01T12:40	10	171	7.2	125	175	458	1.7	455	461	22.6	55.7
2025-08-01T12:41	10	86	51.1	38	176	448	3.8	440	457	22.6	54.9
2025-08-01T12:42	10	41	2.1	38	45	438	2.8	434	444	22.4	54.4
2025-08-01T12:43	10	122	59.0	45	193	439	6.4	433	453	22.3	53.8
2025-08-01T12:44	10	175	19.7	135	197	453	2.3	450	459	22.5	54.5
2025-08-01T12:45	10	119	36.5	76	197	453	4.1	448	460	22.5	54.0
2025-08-01T12:46	10	176	29.7	94	203	457	2.6	452	461	22.5	54.4
2025-08-01T12:47	10	93	43.7	58	188	450	3.9	443	456	22.5	53.6
2025-08-01T12:48	10	62	1.4	60	65	441	2.8	437	446	22.7	53.3
2025-08-01T12:49	10	69	3.7	65	78	438	0.5	437	439	22.5	53.7
2025-08-01T12:50	10	78	2.4	76	83	439	0.9	438	441	22.5	53.2
2025-08-01T12:51	10	79	4.0	72	84	438	0.7	437	439	22.5	52.4
2025-08-01T12:52	10	76	8.8	71	101	438	1.1	437	441	22.5	52.3
2025-08-01T12:53	10	80	4.5	76	98	440	0.5	439	441	22.5	52.8
2025-08-01T12:54	10	89	8.2	81	124	442	1.2	440	445	22.6	53.5
2025-08-01T12:55	10	141	19.7	102	189	452	4.6	443	457	22.7	52.3
2025-08-01T12:56	10	149	36.5	97	208	456	3.5	452	463	22.8	51.5
2025-08-01T12:57	10	188	26.3	131	209	461	2.4	457	464	23.0	52.0
2025-08-01T12:58	10	203	3.1	196	208	463	1.6	461	466	22.9	49.5
2025-08-01T12:59	10	199	1.6	196	202	467	0.6	465	468	23.0	48.8
2025-08-01T13:00	10	192	9.3	145	196	470	1.7	467	472	23.2	49.7
2025-08-01T13:01	10	186	12.4	136	197	468	1.2	467	471	23.2	48.7
2025-08-01T13:02	10	188	0.5	188	189	474	1.7	471	476	23.5	49.3
2025-08-01T13:03	10	188	0.3	187	188	473	1.7	471	476	23.6	47.6
2025-08-01T13:04	10	186	0.9	184	187	473	0.9	471	475	23.6	48.8
2025-08-01T13:05	10	183	0.7	182	184	474	0.7	472	475	23.8	48.0
2025-08-01T13:06	10	181	0.5	180	182	473	0.7	471	474	23.5	48.4
2025-08-01T13:07	10	180	0.3	179	180	473	0.6	472	475	23.6	47.9
2025-08-01T13:08	10	178	0.5	177	179	474	1.5	471	476	23.8	47.7
2025-08-01T13:09	10	176	0.8	175	177	471	1.3	469	473	23.7	45.0
2025-08-01T13:10	10	173	0.8	172	175	475	1.1	473	477	23.8	46.2
2025-08-01T13:11	10	172	0.2	171	172	478	1.0	476	480	24.1	45.4
2025-08-01T13:12	10	174	1.5	172	177	476	0.4	475	477	24.2	46.5
2025-08-01T13:13	10	151	17.7	111	174	473	3.3	468	477	24.5	46.2
2025-08-01T13:14	10	141	31.9	95	179	463	3.8	458	471	24.1	42.8
2025-08-01T13:15	10	177	0.4	176	178	469	1.9	465	471	24.2	42.0
2025-08-01T13:16	10	175	0.7	174	177	468	1.3	466	471	24.0	41.3
2025-08-01T13:17	10	173	0.5	172	174	471	1.3	468	473	24.1	41.3
2025-08-01T13:18	10	172	0.4	171	173	471	0.8	469	473	24.2	41.8
2025-08-01T13:19	10	170	0.6	169	171	470	0.8	468	471	23.9	41.1
2025-08-01T13:20	10	169	0.3	168	169	472	1.9	469	475	23.9	41.6
2025-08-01T13:21	10	168	2.0	163	170	469	1.6	467	474	24.0	41.2
2025-08-01T13:22	10	125	38.2	74	171	466	4.1	459	471	24.0	41.4
2025-08-01T13:23	10	157	11.7	113	167	468	3.2	460	472	24.0	41.7
2025-08-01T13:24	10	159	8.4	134	164	468	1.1	466	470	24.0	41.7
2025-08-01T13:25	10	160	10.1	134	167	469	1.2	467	472	23.8	42.2
2025-08-01T13:26	10	165	0.8	162	166	471	0.6	470	472	23.9	43.1
2025-08-01T13:27	10	112	54.7	35	166	466	5.8	455	472	24.3	43.7
2025-08-01T13:28	10	142	38.3	41	166	462	4.2	455	468	24.2	43.4
2025-08-01T13:29	10	164	0.5	163	165	466	1.6	464	469	24.1	42.9
2025-08-01T13:30	10	165	0.2	165	166	468	2.0	466	472	24.0	42.7
2025-08-01T13:31	10	166	0.3	165	166	474	1.7	471	478	24.2	43.3
2025-08-01T13:32	10	166	0.2	166	167	477	1.0	475	478	24.2	43.4
2025-08-01T13:33	10	167	0.3	167	168	477	1.5	475	481	24.2	44.1
2025-08-01T13:34	10	169	0.6	168	170	478	0.9	477	480	24.6	43.7
2025-08-01T13:35	10	170	1.1	167	171	477	2.3	474	480	24.3	43.6
2025-08-01T13:36	10	172	1.1	169	174	473	2.6	470	478	24.2	43.5
2025-08-01T13:37	10	165	11.2	133	174	473	0.9	472	475	24.2	42.8
2025-08-01T13:38	10	171	1.1	169	173	474	1.1	472	476	24.0	42.9
2025-08-01T13:39	10	168	0.7	167	169	475	1.5	473	478	24.1	43.0
2025-08-01T13:40	10	166	0.2	166	167	476	1.1	475	478	24.5	43.2
2025-08-01T13:41	10	151	20.3	104	166	475	3.0	470	478	24.4	42.9
2025-08-01T13:42	10	163	0.6	162	164	472	0.5	471	473	24.1	43.3
2025-08-01T13:43	10	162	0.2	161	162	472	1.5	469	474	24.0	42.9
2025-08-01T13:44	10	161	0.3	161	162	471	1.7	469	474	24.0	42.8
2025-08-01T13:45	10	162	0.2	162	163	473	1.6	471	476	24.1	42.8
2025-08-01T13:46	10	163	0.3	163	164	474	1.4	472	478	24.2	42.5
2025-08-01T13:47	10	163	0.2	163	163	475	1.4	472	477	23.9	42.5
2025-08-01T13:48	10	163	0.2	162	163	477	1.0	474	479	24.0	42.4
2025-08-01T13:49	10	164	0.2	163	164	474	0.4	473	474	23.8	41.5
2025-08-01T13:50	10	163	0.2	163	164	477	1.7	474	479	23.8	42.2
2025-08-01T13:51	10	162	0.4	162	163	479	0.4	478	480	24.0	42.7
2025-08-01T13:52	10	163	0.5	162	164	480	0.8	478	481	24.4	42.6
2025-08-01T13:53	10	166	1.6	163	169	478	0.9	476	480	24.4	41.2
2025-08-01T13:54	10	78	41.6	40	169	469	8.1	458	482	24.6	41.3
2025-08-01T13:55	10	169	7.9	129	174	467	2.3	460	470	24.3	41.0
2025-08-01T13:56	10	162	11.3	135	176	472	1.4	468	473	24.1	41.6
2025-08-01T13:57	10	176	1.7	172	179	474	0.6	473	476	24.2	41.3
2025-08-01T13:58	10	95	52.0	46	179	470	7.1	457	480	24.2	42.0
2025-08-01T13:59	10	47	5.0	43	63	454	4.3	448	461	24.3	41.3
2025-08-01T14:00	10	41	1.3	39	43	446	2.0	443	449	24.1	41.6
2025-08-01T14:01	10	41	4.6	37	55	443	0.4	442	444	24.0	42.0
2025-08-01T14:02	10	37	0.2	37	38	442	0.9	441	444	24.1	42.3
2025-08-01T14:03	10	37	0.1	37	38	440	0.7	439	441	23.9	42.0
2025-08-01T14:04	10	38	0.4	37	39	439	0.4	438	440	23.9	42.4
2025-08-01T14:05	10	38	0.3	38	39	439	0.3	438	440	23.8	42.5
2025-08-01T14:06	10	37	0.2	37	38	438	0.4	437	439	23.8	42.7
2025-08-01T14:07	10	36	0.4	35	37	437	0.3	437	438	23.8	42.8
2025-08-01T14:08	10	35	0.3	35	36	438	0.2	437	438	23.8	42.7
2025-08-01T14:09	10	37	0.8	36	39	438	0.7	436	439	23.8	42.9
2025-08-01T14:10	10	41	1.5	39	44	438	0.7	437	440	23.9	43.0
2025-08-01T14:11	10	46	1.6	44	49	440	0.7	438	441	23.8	43.2
2025-08-01T14:12	10	79	46.0	49	180	443	4.0	440	455	23.8	43.0
2025-08-01T14:13	10	181	6.5	160	186	461	5.1	451	469	23.9	42.8
2025-08-01T14:14	10	171	23.0	114	194	470	3.4	465	475	24.1	42.3
2025-08-01T14:15	10	152	30.7	105	200	470	1.9	468	475	24.3	41.8
2025-08-01T14:16	10	159	28.5	103	197	471	1.7	466	473	24.3	39.9
2025-08-01T14:17	10	104	38.6	69	188	462	6.0	452	471	24.3	42.2
2025-08-01T14:18	10	71	3.8	66	81	452	1.9	449	455	24.0	43.9
2025-08-01T14:19	10	62	4.5	57	73	448	2.2	445	451	23.8	44.5
2025-08-01T14:20	10	55	1.0	53	57	444	1.4	442	447	23.8	45.3
2025-08-01T14:21	10	52	0.5	51	53	443	0.4	442	444	23.8	45.8
2025-08-01T14:22	10	50	0.8	49	52	442	0.2	441	442	23.8	45.9
2025-08-01T14:23	10	48	0.6	47	49	439	1.1	438	441	23.6	45.9
2025-08-01T14:24	10	47	0.2	47	48	438	0.4	437	439	23.4	46.0
2025-08-01T14:25	10	50	1.4	48	53	438	0.9	436	439	23.4	46.2
2025-08-01T14:26	10	57	2.5	53	64	439	0.6	438	440	23.5	46.7
2025-08-01T14:27	10	131	35.8	66	185	446	5.4	438	456	23.5	46.4
2025-08-01T14:28	10	141	39.4	87	186	456	1.9	453	459	23.4	46.2
2025-08-01T14:29	10	79	3.3	75	87	448	2.8	445	454	23.4	46.2
2025-08-01T14:30	10	84	6.4	75	95	445	0.4	444	446	23.3	46.5
2025-08-01T14:31	10	156	25.4	99	191	454	5.3	444	464	23.4	46.7
2025-08-01T14:32	10	178	11.2	153	191	466	2.0	461	469	23.6	46.4
2025-08-01T14:33	10	163	28.3	106	191	468	3.2	463	473	23.6	46.1
2025-08-01T14:34	10	180	3.7	174	185	471	2.3	466	476	23.8	46.5
2025-08-01T14:35	10	167	7.6	150	174	472	2.3	469	476	23.9	45.7
2025-08-01T14:36	10	165	5.4	153	172	471	0.8	469	472	23.8	45.3
2025-08-01T14:37	10	168	2.0	163	170	472	1.1	470	475	23.9	45.7
2025-08-01T14:38	10	162	2.0	159	165	472	1.0	471	474	24.1	45.5
2025-08-01T14:39	10	156	1.5	153	159	474	1.0	472	475	24.4	45.4
2025-08-01T14:40	10	151	1.4	149	153	473	0.9	472	475	24.5	45.1
2025-08-01T14:41	10	147	0.9	145	149	472	1.2	471	475	24.5	45.0
2025-08-01T14:42	10	145	0.5	144	145	471	3.4	465	475	24.6	44.5
2025-08-01T14:43	10	144	0.4	143	144	465	1.2	463	468	23.9	44.5
2025-08-01T14:44	10	143	0.3	142	143	466	1.2	465	469	23.9	45.1
2025-08-01T14:45	10	142	0.1	142	142	466	0.9	465	468	24.1	44.6
2025-08-01T14:46	10	141	0.4	141	142	464	0.6	463	466	23.9	44.9
2025-08-01T14:47	10	140	0.3	139	141	465	0.8	464	467	24.3	45.1
2025-08-01T14:48	10	139	0.5	138	140	467	1.0	465	468	24.6	44.7
2025-08-01T14:49	10	137	0.4	137	138	467	1.6	464	469	24.6	44.9
2025-08-01T14:50	10	137	0.3	137	138	466	0.9	464	467	24.5	44.5
2025-08-01T14:51	10	138	0.2	137	138	465	1.1	463	466	24.2	44.6
2025-08-01T14:52	10	138	0.2	138	138	466	1.6	464	469	24.3	44.9
2025-08-01T14:53	10	138	0.2	138	139	468	0.8	467	470	24.4	44.9
2025-08-01T14:54	10	138	0.1	138	138	468	0.8	467	470	24.7	44.6
2025-08-01T14:55	10	138	0.2	138	139	468	1.2	465	469	24.5	44.2
2025-08-01T14:56	10	139	0.3	139	140	467	0.9	465	469	24.3	44.2
2025-08-01T14:57	10	127	25.5	39	140	465	2.3	457	468	24.4	44.0
2025-08-01T14:58	10	30	1.1	29	36	449	5.0	443	461	24.2	44.0
2025-08-01T14:59	10	44	19.8	31	103	442	1.0	440	445	24.1	44.0
2025-08-01T15:00	10	120	28.8	52	150	450	3.8	442	454	23.9	43.6
2025-08-01T15:01	10	64	13.5	42	89	448	1.2	446	450	23.9	44.0
2025-08-01T15:02	10	38	3.2	35	52	442	1.8	440	447	23.9	44.0
2025-08-01T15:03	10	56	20.7	35	103	442	1.8	440	445	24.0	44.4
2025-08-01T15:04	10	107	26.0	62	144	450	3.2	441	454	24.1	44.2
2025-08-01T15:05	10	128	22.5	88	146	455	4.4	450	462	24.5	43.5
2025-08-01T15:06	10	147	0.7	146	148	460	0.7	458	461	24.4	43.1
2025-08-01T15:07	10	150	0.9	148	151	462	1.1	460	463	24.2	43.7
2025-08-01T15:08	10	153	0.7	151	154	463	1.6	460	466	24.2	43.4
2025-08-01T15:09	10	153	0.2	153	154	466	0.6	465	468	24.2	43.2
2025-08-01T15:10	10	153	0.2	152	153	468	0.4	466	468	24.2	43.3
2025-08-01T15:11	10	152	0.4	151	152	469	2.0	467	473	24.3	43.6
2025-08-01T15:12	10	151	0.2	151	151	470	1.7	467	472	24.5	43.3
2025-08-01T15:13	10	152	0.5	151	153	470	1.4	467	473	24.5	43.6
2025-08-01T15:14	10	153	0.3	153	154	470	2.4	467	473	24.3	43.4
2025-08-01T15:15	10	153	0.1	152	153	468	0.5	467	469	24.2	43.8
2025-08-01T15:16	10	153	0.1	153	153	469	0.9	467	471	24.3	43.8
2025-08-01T15:17	10	153	0.1	152	153	470	0.9	468	472	24.5	43.8
2025-08-01T15:18	10	153	0.5	153	154	472	0.6	470	473	24.7	43.6
2025-08-01T15:19	10	110	27.6	75	154	465	4.1	460	471	24.7	43.1
2025-08-01T15:20	10	126	19.0	93	151	462	1.5	460	465	24.5	43.5
2025-08-01T15:21	10	64	16.4	47	101	457	4.9	448	465	24.6	43.4
2025-08-01T15:22	10	118	29.6	67	149	454	2.9	448	457	24.1	43.7
2025-08-01T15:23	10	68	29.2	40	131	451	4.2	444	457	24.1	43.7
2025-08-01T15:24	10	37	1.3	35	40	442	2.1	439	446	23.9	43.9
2025-08-01T15:25	10	34	1.5	31	36	438	0.6	437	440	23.8	43.7
2025-08-01T15:26	10	29	1.1	27	31	437	0.8	435	438	23.8	43.7
2025-08-01T15:27	10	26	0.5	26	27	435	0.4	434	436	23.7	43.7
2025-08-01T15:28	10	26	0.1	25	26	434	0.2	433	434	23.8	44.1
2025-08-01T15:29	10	27	0.3	26	27	433	0.4	432	434	23.7	44.1
2025-08-01T15:30	10	28	0.4	27	29	433	0.2	432	433	23.7	44.4
2025-08-01T15:31	10	30	0.6	29	31	433	0.4	432	434	23.7	44.4
2025-08-01T15:32	10	32	0.6	31	33	433	0.3	432	434	23.6	43.9
2025-08-01T15:33	10	34	0.6	33	35	433	0.4	432	434	23.5	43.9
2025-08-01T15:34	10	36	0.5	35	36	434	0.5	433	435	23.5	44.2
2025-08-01T15:35	10	37	0.4	36	38	435	0.4	434	436	23.5	43.8
2025-08-01T15:36	10	38	0.2	38	38	434	0.3	434	435	23.5	43.4
2025-08-01T15:37	10	38	0.2	38	39	435	0.4	434	436	23.5	43.8
2025-08-01T15:38	10	39	0.2	39	39	436	0.7	435	437	23.5	43.7
2025-08-01T15:39	10	40	0.3	39	40	436	0.4	435	437	23.5	44.0
2025-08-01T15:40	10	41	0.3	40	41	436	0.2	436	437	23.6	44.3
2025-08-01T15:41	10	42	0.6	41	43	437	0.6	435	438	23.6	44.7
2025-08-01T15:42	10	45	0.9	43	46	437	0.4	437	438	23.6	45.1
2025-08-01T15:43	10	48	1.2	46	50	437	0.3	437	438	23.6	44.9
2025-08-01T15:44	10	53	1.8	51	56	437	0.6	436	439	23.5	44.9
2025-08-01T15:45	10	67	10.1	54	90	440	1.5	438	442	23.6	44.9
2025-08-01T15:46	10	65	8.3	57	89	440	0.9	439	442	23.6	44.1
2025-08-01T15:47	10	55	2.7	51	59	440	0.3	439	440	23.6	44.2
2025-08-01T15:48	10	50	0.7	48	51	438	0.5	437	439	23.6	43.8
2025-08-01T15:49	10	47	0.9	46	49	437	0.3	437	438	23.6	43.8
2025-08-01T15:50	10	45	0.3	45	46	437	0.4	436	438	23.6	43.6
2025-08-01T15:51	10	46	2.8	43	53	437	0.4	436	438	23.6	43.5
2025-08-01T15:52	10	43	0.1	42	43	436	0.5	436	437	23.7	43.8
2025-08-01T15:53	10	43	0.5	42	44	437	0.3	436	438	23.7	43.9
2025-08-01T15:54	10	52	4.8	45	62	438	0.8	437	440	23.8	44.3
2025-08-01T15:55	10	105	15.8	65	124	446	3.8	437	450	23.9	44.3
2025-08-01T15:56	10	89	12.3	66	107	450	0.9	448	451	24.2	44.5
2025-08-01T15:57	10	84	21.4	55	116	449	1.0	447	451	24.3	43.8
2025-08-01T15:58	10	65	7.6	54	79	444	2.1	441	448	24.0	43.8
2025-08-01T15:59	10	64	15.0	54	110	443	0.7	442	445	24.0	44.5
2025-08-01T16:00	10	98	16.7	76	130	448	1.0	444	449	24.1	44.4
2025-08-01T16:01	10	133	5.7	107	136	452	2.6	448	456	24.1	44.8
2025-08-01T16:02	10	124	17.7	84	137	456	1.1	454	459	24.2	44.7
2025-08-01T16:03	10	62	5.7	58	81	452	2.1	450	458	24.5	44.9
2025-08-01T16:04	10	129	14.1	85	140	456	3.1	451	460	24.5	44.8
2025-08-01T16:05	10	136	0.4	135	137	459	0.5	458	460	24.3	44.5
2025-08-01T16:06	10	132	2.6	126	135	458	0.5	457	458	24.1	44.3
2025-08-01T16:07	10	133	2.3	126	135	457	1.7	454	460	24.2	44.5
2025-08-01T16:08	10	129	4.3	115	131	454	0.9	452	455	23.9	44.4
2025-08-01T16:09	10	107	2.6	104	115	452	1.3	450	454	23.8	44.5
2025-08-01T16:10	10	92	8.4	77	104	451	0.4	450	451	23.7	44.8
2025-08-01T16:11	10	74	4.2	68	81	448	1.1	446	450	23.7	44.6
2025-08-01T16:12	10	76	1.7	72	79	447	0.6	445	448	23.7	45.0
2025-08-01T16:13	10	84	6.9	78	97	446	0.3	445	446	23.7	45.5
2025-08-01T16:14	10	104	5.3	96	110	446	0.4	445	446	23.6	45.7
2025-08-01T16:15	10	115	3.3	110	120	447	1.1	445	449	23.5	45.6
2025-08-01T16:16	10	118	0.7	117	119	451	1.0	449	452	23.7	45.7
2025-08-01T16:17	10	117	0.7	116	119	453	0.8	451	454	23.8	45.2
2025-08-01T16:18	10	117	0.8	116	118	452	1.5	450	454	23.8	44.7
2025-08-01T16:19	10	110	17.7	52	119	450	1.0	447	452	23.7	44.8
2025-08-01T16:20	10	72	22.5	44	114	444	1.5	442	448	23.6	44.7
2025-08-01T16:21	10	112	2.1	106	114	447	1.4	444	449	23.8	44.7
2025-08-01T16:22	10	114	0.5	114	115	448	0.5	447	449	23.7	44.6
2025-08-01T16:23	10	116	0.6	115	118	449	0.7	448	451	23.7	44.5
2025-08-01T16:24	10	118	0.4	117	119	450	1.0	449	453	23.8	44.8
2025-08-01T16:25	10	120	0.7	119	121	452	0.4	451	453	23.9	44.8
2025-08-01T16:26	10	120	0.5	119	121	452	0.4	451	453	23.7	45.1
2025-08-01T16:27	10	94	16.4	70	119	450	2.6	446	453	23.7	45.0
2025-08-01T16:28	10	89	9.1	73	104	447	1.2	445	449	23.6	45.2
2025-08-01T16:29	10	108	8.1	85	116	449	1.7	446	452	23.9	45.3
2025-08-01T16:30	10	92	23.9	45	115	448	1.9	444	450	23.6	44.8
2025-08-01T16:31	10	89	20.3	45	111	447	2.2	444	449	23.7	45.3
2025-08-01T16:32	10	110	5.4	95	114	450	1.3	447	452	23.7	45.3
2025-08-01T16:33	10	113	0.7	112	114	450	0.5	449	451	23.6	45.7
2025-08-01T16:34	10	110	1.7	106	112	449	0.8	448	450	23.5	45.8
2025-08-01T16:35	10	107	1.0	105	109	450	0.7	448	451	23.6	46.1
2025-08-01T16:36	10	105	1.1	103	107	447	1.1	445	449	23.5	45.9
2025-08-01T16:37	10	101	1.2	99	103	445	0.3	444	445	23.4	45.8
2025-08-01T16:38	10	98	1.0	96	99	446	0.5	445	447	23.5	46.3
2025-08-01T16:39	10	94	0.7	93	96	445	0.3	444	445	23.5	46.1
2025-08-01T16:40	10	93	0.3	92	93	444	0.5	443	445	23.2	46.2
2025-08-01T16:41	10	92	0.2	92	93	444	0.7	443	445	23.4	46.2
2025-08-01T16:42	10	93	0.1	92	93	443	0.9	442	446	23.4	45.7
2025-08-01T16:43	10	93	0.2	92	93	444	0.6	443	445	23.5	45.9
2025-08-01T16:44	10	91	0.8	89	92	443	0.3	442	444	23.5	46.3
2025-08-01T16:45	10	88	0.7	87	89	442	0.9	441	444	23.5	46.3
2025-08-01T16:46	10	87	0.2	87	87	442	0.4	441	443	23.5	46.2
2025-08-01T16:47	10	86	0.6	85	87	441	0.5	440	442	23.3	45.9
2025-08-01T16:48	10	87	0.4	85	87	441	0.5	440	442	23.4	46.2
2025-08-01T16:49	10	34	21.9	19	85	437	2.7	433	442	23.4	46.3
2025-08-01T16:50	10	18	0.6	17	19	431	1.8	428	434	23.4	45.9
2025-08-01T16:51	10	16	0.5	16	18	428	0.6	427	429	23.2	46.5
2025-08-01T16:52	10	15	0.3	15	16	427	0.4	426	428	23.2	46.9
2025-08-01T16:53	10	15	0.1	15	15	425	0.3	425	426	23.1	46.5
2025-08-01T16:54	10	15	0.1	15	15	425	0.4	424	425	23.0	46.5
2025-08-01T16:55	10	14	0.2	14	15	424	0.3	423	424	23.0	46.6
2025-08-01T16:56	10	14	0.2	13	14	423	0.2	423	424	22.9	47.1
2025-08-01T16:57	10	13	0.1	13	14	423	0.3	422	424	22.9	47.9
2025-08-01T16:58	10	13	0.1	13	14	422	0.3	422	423	22.8	47.9
2025-08-01T16:59	10	13	0.1	13	14	422	0.3	422	423	22.8	47.9
2025-08-01T17:00	10	13	0.1	13	14	422	0.3	421	422	22.7	47.3
2025-08-01T17:01	10	29	20.2	13	65	422	1.3	421	425	22.7	47.2
2025-08-01T17:02	10	53	4.4	45	61	426	1.1	424	427	22.7	48.1
2025-08-01T17:03	10	45	11.7	22	62	427	0.8	426	428	22.7	48.1
2025-08-01T17:04	10	36	17.1	21	71	426	1.0	425	428	22.7	48.4
2025-08-01T17:05	10	70	4.4	63	76	430	1.6	427	432	22.8	48.6
2025-08-01T17:06	10	76	0.2	76	77	433	0.8	431	434	22.9	48.5
2025-08-01T17:07	10	77	0.2	76	77	435	0.6	433	436	23.0	48.4
2025-08-01T17:08	10	76	0.1	76	77	435	0.4	435	436	23.0	48.2
2025-08-01T17:09	10	77	0.1	76	77	435	0.2	435	436	23.0	48.0
2025-08-01T17:10	10	77	0.2	76	77	436	0.4	435	437	23.0	47.9
2025-08-01T17:11	10	76	0.2	76	77	436	0.4	436	437	23.1	48.3
2025-08-01T17:12	10	76	0.6	74	76	436	0.5	435	437	23.1	47.5
2025-08-01T17:13	10	64	6.1	56	74	435	1.1	433	437	23.2	47.8
2025-08-01T17:14	10	54	10.2	39	71	432	1.0	431	434	23.1	47.7
2025-08-01T17:15	10	53	14.3	27	71	432	1.5	429	433	23.1	47.3
2025-08-01T17:16	10	21	1.9	19	27	427	1.3	425	430	22.9	47.4
2025-08-01T17:17	10	29	5.9	22	40	426	0.3	425	426	22.9	48.0
2025-08-01T17:18	10	39	1.5	37	41	425	0.3	425	426	22.8	47.4
2025-08-01T17:19	10	41	5.6	36	55	425	0.3	425	427	22.8	47.7
2025-08-01T17:20	10	61	1.6	56	62	427	0.9	426	429	22.8	47.8
2025-08-01T17:21	10	62	0.1	62	62	429	0.6	428	430	22.9	47.8
2025-08-01T17:22	10	61	0.2	61	62	430	0.6	428	431	23.0	47.9
2025-08-01T17:23	10	61	0.1	60	61	430	0.4	430	431	23.0	48.0
2025-08-01T17:24	10	60	0.1	60	60	430	0.4	430	431	23.0	48.1
2025-08-01T17:25	10	60	0.2	60	60	430	0.3	430	431	23.1	48.5
2025-08-01T17:26	10	43	12.4	26	60	429	1.4	426	430	23.1	48.2
2025-08-01T17:27	10	32	6.7	26	47	426	0.5	425	427	23.0	48.4
2025-08-01T17:28	10	44	4.7	37	51	426	0.4	425	427	23.0	48.8
2025-08-01T17:29	10	50	4.1	45	56	427	0.4	426	428	23.0	48.2
2025-08-01T17:30	10	55	2.7	48	57	427	0.8	426	428	23.0	48.6
2025-08-01T17:31	10	57	0.2	57	57	428	0.3	427	429	23.0	48.3
2025-08-01T17:32	10	57	0.1	57	57	428	0.3	427	428	23.0	48.1
2025-08-01T17:33	10	57	0.1	57	57	428	0.2	427	428	23.0	48.3
2025-08-01T17:34	10	56	0.8	54	57	428	0.3	427	429	23.0	48.1
2025-08-01T17:35	10	54	0.5	53	55	428	0.2	428	429	23.0	48.5
2025-08-01T17:36	10	55	0.1	54	55	428	0.4	427	429	23.0	48.8
2025-08-01T17:37	10	54	0.4	53	55	428	0.3	427	428	23.0	48.7
2025-08-01T17:38	10	53	0.3	53	54	426	0.6	425	428	22.6	50.6
2025-08-01T17:39	10	53	0.1	52	53	426	0.3	425	426	22.5	51.5
2025-08-01T17:40	10	50	0.9	49	52	425	0.2	425	426	22.5	51.9
2025-08-01T17:41	10	48	0.9	47	49	425	0.3	424	425	22.4	52.6
2025-08-01T17:42	10	34	13.2	18	49	424	1.0	422	426	22.4	52.9
2025-08-01T17:43	10	16	1.4	15	19	422	0.5	421	423	22.2	53.7
2025-08-01T17:44	10	16	1.1	15	19	421	0.3	420	421	22.2	54.0
2025-08-01T17:45	10	18	1.1	16	19	421	0.2	420	421	22.1	54.1
2025-08-01T17:46	10	14	1.6	12	17	420	0.4	419	421	22.1	54.1
2025-08-01T17:47	10	12	0.1	12	12	419	0.2	419	420	22.1	53.6
2025-08-01T17:48	10	12	0.2	11	12	419	0.3	419	420	22.0	53.5
2025-08-01T17:49	10	12	0.1	11	12	419	0.2	418	420	21.9	53.3
2025-08-01T17:50	10	13	1.2	12	15	419	0.3	418	419	21.9	53.6
2025-08-01T17:51	10	10	0.9	10	13	418	0.2	418	419	21.8	53.5
2025-08-01T17:52	10	9	0.2	9	10	418	0.3	417	419	21.8	53.8
2025-08-01T17:53	10	8	0.2	8	9	417	0.3	417	418	21.8	54.0
2025-08-01T17:54	10	8	0.2	7	8	417	0.3	416	418	21.8	54.3
2025-08-01T17:55	10	7	0.3	6	7	416	0.3	415	417	21.7	54.5
2025-08-01T17:56	10	6	0.2	6	7	416	0.2	416	416	21.6	54.8
2025-08-01T17:57	10	6	0.1	6	6	415	0.3	414	416	21.6	55.2
2025-08-01T17:58	10	6	0.1	6	6	415	0.2	414	415	21.5	55.4
2025-08-01T17:59	10	6	0.1	6	6	415	0.2	414	415	21.5	55.6
2025-08-01T18:00	10	7	0.1	6	7	414	0.2	414	415	21.5	55.8
2025-08-01T18:01	10	7	0.1	6	7	414	0.3	413	414	21.5	56.1
2025-08-01T18:02	10	7	0.1	6	7	413	0.3	413	414	21.4	56.2
2025-08-01T18:03	10	7	0.1	7	7	413	0.3	413	414	21.4	56.4
2025-08-01T18:04	10	7	0.2	6	7	413	0.3	412	414	21.4	56.5
2025-08-01T18:05	10	6	0.2	6	7	413	0.2	413	414	21.3	56.5
2025-08-01T18:06	10	6	0.1	6	6	413	0.3	412	414	21.3	56.6
2025-08-01T18:07	10	6	0.1	6	6	413	0.2	412	414	21.2	57.1
2025-08-01T18:08	10	6	0.2	6	6	413	0.2	412	414	21.2	57.4
2025-08-01T18:09	10	6	0.2	6	7	412	0.3	411	413	21.2	57.6
2025-08-01T18:10	10	6	0.2	6	7	412	0.3	411	412	21.2	57.7
2025-08-01T18:11	10	6	0.2	6	7	412	0.3	412	413	21.2	57.6
2025-08-01T18:12	10	6	0.2	6	7	412	0.3	411	413	21.2	57.7
2025-08-01T18:13	10	6	0.1	6	6	412	0.2	411	412	21.1	57.8
2025-08-01T18:14	10	6	0.2	5	7	412	0.3	411	412	21.1	57.9
2025-08-01T18:15	10	6	0.1	6	6	412	0.2	411	412	21.1	57.9
2025-08-01T18:16	10	6	0.1	5	6	412	0.3	411	412	21.1	58.1
2025-08-01T18:17	10	6	0.1	5	6	412	0.2	411	412	21.1	58.3
2025-08-01T18:18	10	6	0.1	6	6	412	0.2	411	412	21.1	58.3
2025-08-01T18:19	10	6	0.1	6	6	412	0.3	411	413	21.0	58.6
2025-08-01T18:20	10	6	0.1	6	6	412	0.2	412	412	21.0	58.8
2025-08-01T18:21	10	6	0.1	6	6	412	0.2	411	412	21.0	58.9
2025-08-01T18:22	10	6	0.1	6	6	412	0.3	412	413	21.0	58.9
2025-08-01T18:23	10	6	0.1	5	6	412	0.2	412	413	21.0	58.9
2025-08-01T18:24	10	5	0.1	5	6	413	0.2	412	413	21.0	59.2
2025-08-01T18:25	10	5	0.1	5	6	412	0.2	412	413	21.0	59.4
2025-08-01T18:26	10	5	0.1	5	5	412	0.2	412	412	21.0	59.4
2025-08-01T18:27	10	5	0.2	4	5	412	0.2	411	412	20.9	59.7
2025-08-01T18:28	10	4	0.1	4	5	412	0.2	411	412	20.9	59.7
2025-08-01T18:29	10	4	0.1	4	5	412	0.3	411	412	20.9	59.4
2025-08-01T18:30	10	4	0.1	4	4	412	0.3	411	412	20.9	59.7
2025-08-01T18:31	10	4	0.1	4	4	412	0.2	411	412	20.9	60.0
2025-08-01T18:32	10	4	0.1	4	4	411	0.2	411	412	20.9	59.7
2025-08-01T18:33	10	4	0.1	3	4	411	0.2	410	411	20.9	59.7
2025-08-01T18:34	10	3	0.1	3	4	411	0.3	411	412	20.9	59.9
2025-08-01T18:35	10	3	0.1	3	3	411	0.2	411	412	20.8	59.9
2025-08-01T18:36	10	3	0.1	3	3	411	0.3	410	411	20.8	60.1
2025-08-01T18:37	10	3	0.1	3	3	411	0.2	410	411	20.8	60.2
2025-08-01T18:38	10	3	0.2	2	3	410	0.3	410	411	20.8	60.2
2025-08-01T18:39	10	2	0.1	2	3	410	0.2	410	411	20.8	59.9
2025-08-01T18:40	10	2	0.1	2	3	410	0.2	409	410	20.8	60.0
2025-08-01T18:41	10	2	0.1	2	2	410	0.2	409	410	20.8	60.3
2025-08-01T18:42	10	2	0.1	2	2	409	0.3	408	410	20.8	60.3
2025-08-01T18:43	10	1	0.1	1	2	409	0.2	409	410	20.7	60.5
2025-08-01T18:44	10	1	0.2	1	1	409	0.2	408	409	20.8	60.4
2025-08-01T18:45	10	1	0.1	1	1	408	0.3	408	409	20.7	60.7
2025-08-01T18:46	10	1	0.1	1	1	408	0.3	407	408	20.7	61.0
2025-08-01T18:47	10	1	0.1	1	1	407	0.2	407	408	20.7	61.3
2025-08-01T18:48	10	1	0.1	1	1	407	0.4	407	408	20.7	61.5
2025-08-01T18:49	10	1	0.1	1	1	407	0.3	406	407	20.6	61.6
2025-08-01T18:50	10	1	0.1	0	1	406	0.3	406	407	20.6	61.6
2025-08-01T18:51	10	1	0.1	0	1	406	0.3	405	407	20.6	61.6
2025-08-01T18:52	10	1	0.0	0	1	405	0.3	405	406	20.6	61.6
2025-08-01T18:53	10	1	0.1	0	1	405	0.3	404	406	20.6	61.6
2025-08-01T18:54	10	1	0.1	0	1	405	0.3	404	405	20.6	61.7
2025-08-01T18:55	10	0	0.1	0	1	405	0.2	404	405	20.6	60.8
2025-08-01T18:56	10	0	0.1	0	1	404	0.2	404	405	20.6	60.8
2025-08-01T18:57	10	0	0.1	0	1	404	0.1	404	405	20.5	60.8
2025-08-01T18:58	10	0	0.1	0	0	404	0.4	403	405	20.5	60.7
2025-08-01T18:59	10	0	0.1	0	1	403	0.2	403	404	20.5	60.6
2025-08-01T19:00	10	0	0.1	0	0	403	0.2	403	404	20.5	60.8
2025-08-01T19:01	10	0	0.1	0	0	403	0.2	403	404	20.5	60.6
2025-08-01T19:02	10	0	0.1	0	0	403	0.3	403	404	20.4	60.8
2025-08-01T19:03	10	0	0.1	0	1	403	0.2	403	404	20.5	60.6
2025-08-01T19:04	10	0	0.1	0	0	403	0.3	403	404	20.4	60.9
2025-08-01T19:05	10	0	0.1	0	1	403	0.2	403	404	20.4	60.8
2025-08-01T19:06	10	0	0.1	0	0	403	0.3	402	404	20.4	61.4
2025-08-01T19:07	10	0	0.1	0	1	404	0.3	403	404	20.3	61.4
2025-08-01T19:08	10	0	0.1	0	1	403	0.3	402	404	20.3	61.9
2025-08-01T19:09	10	0	0.1	0	1	404	0.3	403	404	20.2	61.9
2025-08-01T19:10	10	0	0.1	0	0	404	0.2	404	404	20.2	61.9
2025-08-01T19:11	10	0	0.1	0	1	404	0.2	403	404	20.2	62.2
2025-08-01T19:12	10	0	0.2	0	1	403	0.3	403	404	20.1	62.6
2025-08-01T19:13	10	0	0.2	0	1	403	0.3	403	404	20.0	62.8
2025-08-01T19:14	10	0	0.2	0	1	403	0.3	402	403	20.1	62.3
2025-08-01T19:15	10	0	0.1	0	0	402	0.3	402	403	20.0	63.3
2025-08-01T19:16	10	0	0.2	0	1	402	0.2	402	403	20.0	62.4
2025-08-01T19:17	10	0	0.1	0	1	402	0.3	401	403	20.0	62.3
2025-08-01T19:18	10	0	0.2	0	1	401	0.3	401	402	20.0	62.6
2025-08-01T19:19	10	0	0.2	0	1	401	0.3	400	402	19.9	63.0
2025-08-01T19:20	10	0	0.1	0	0	400	0.2	400	401	19.9	62.8
2025-08-01T19:21	10	0	0.1	0	0	400	0.3	399	401	19.9	62.8
2025-08-01T19:22	10	0	0.1	0	0	399	0.3	398	400	19.9	62.7
2025-08-01T19:23	10	0	0.1	0	0	399	0.3	398	399	19.9	62.5
2025-08-01T19:24	10	0	0.1	0	0	399	0.3	398	399	19.9	62.4
2025-08-01T19:25	10	0	0.1	0	0	399	0.3	399	400	19.9	61.9
2025-08-01T19:26	10	0	0.1	0	0	398	0.4	398	399	20.0	61.9
2025-08-01T19:27	10	0	0.1	0	0	398	0.3	397	399	19.8	62.6
2025-08-01T19:28	10	0	0.1	0	0	398	0.3	398	399	19.9	61.8
2025-08-01T19:29	10	0	0.1	0	0	398	0.2	398	399	19.9	61.7
2025-08-01T19:30	10	0	0.1	0	0	398	0.4	397	399	20.0	61.0
2025-08-01T19:31	10	0	0.1	0	0	398	0.4	397	399	20.0	60.6
2025-08-01T19:32	10	0	0.1	0	0	397	0.3	397	398	19.9	60.8
2025-08-01T19:33	10	0	0.0	0	0	397	0.4	396	397	19.8	61.7
2025-08-01T19:34	10	0	0.0	0	0	396	0.3	395	397	19.8	61.6
2025-08-01T19:35	10	0	0.1	0	0	396	0.2	395	396	19.8	61.4
2025-08-01T19:36	10	0	0.1	0	0	395	0.4	394	396	19.6	62.3
2025-08-01T19:37	10	0	0.1	0	0	394	0.3	394	395	19.6	62.2
2025-08-01T19:38	10	0	0.1	0	0	394	0.3	393	395	19.6	62.5
2025-08-01T19:39	10	0	0.1	0	0	395	0.5	394	395	19.6	61.8
2025-08-01T19:40	10	0	0.1	0	0	395	0.3	395	396	19.7	61.0
2025-08-01T19:41	10	0	0.1	0	0	396	0.3	395	396	19.7	60.9
2025-08-01T19:42	10	0	0.1	0	0	396	0.2	396	397	19.7	61.2
2025-08-01T19:43	10	0	0.1	0	0	396	0.3	395	397	19.5	61.8
2025-08-01T19:44	10	0	0.1	0	0	396	0.3	395	396	19.5	62.0
2025-08-01T19:45	10	0	0.1	0	0	396	0.2	395	396	19.4	62.6
2025-08-01T19:46	10	0	0.1	0	0	396	0.3	395	396	19.4	62.3
2025-08-01T19:47	10	0	0.1	0	0	396	0.6	395	398	19.5	61.8
2025-08-01T19:48	10	0	0.1	0	0	397	0.2	397	397	19.5	61.4
2025-08-01T19:49	10	0	0.1	0	0	397	0.3	397	398	19.5	60.8
2025-08-01T19:50	10	0	0.1	0	0	398	0.3	397	398	19.7	59.9
2025-08-01T19:51	10	0	0.1	0	0	399	0.3	398	399	19.6	60.5
2025-08-01T19:52	10	0	0.1	0	0	398	0.2	398	399	19.6	60.5
2025-08-01T19:53	10	0	0.1	0	0	398	0.3	398	399	19.5	60.7
2025-08-01T19:54	10	0	0.1	0	0	399	0.3	398	400	19.7	59.7
2025-08-01T19:55	10	0	0.1	0	0	399	0.3	399	400	19.6	60.2
2025-08-01T19:56	10	0	0.1	0	0	399	0.4	398	400	19.6	59.6
2025-08-01T19:57	10	0	0.1	0	0	399	0.3	399	400	19.8	58.8
2025-08-01T19:58	10	0	0.1	0	0	400	0.2	400	400	19.9	58.3
2025-08-01T19:59	10	0	0.1	0	0	400	0.3	400	401	19.8	58.5
2025-08-01T20:00	10	0	0.1	0	0	400	0.2	399	400	19.8	58.8
2025-08-01T20:01	10	0	0.1	0	0	400	0.2	399	400	19.7	59.5
2025-08-01T20:02	10	0	0.1	0	0	400	0.3	399	400	19.6	59.4
2025-08-01T20:03	10	0	0.1	0	0	400	0.2	399	400	19.7	58.6
2025-08-01T20:04	10	0	0.1	0	0	399	0.4	399	400	19.6	59.6
2025-08-01T20:05	10	0	0.1	0	0	399	0.3	399	400	19.5	60.1
2025-08-01T20:06	10	0	0.1	0	0	399	0.3	398	399	19.4	60.9
2025-08-01T20:07	10	0	0.1	0	0	398	0.2	398	399	19.3	61.9
2025-08-01T20:08	10	0	0.1	0	0	398	0.2	398	399	19.2	62.2
2025-08-01T20:09	10	0	0.1	0	0	398	0.2	397	398	19.2	62.5
2025-08-01T20:10	10	0	0.1	0	0	398	0.2	397	398	19.2	62.8
2025-08-01T20:11	10	0	0.1	0	0	398	0.2	397	398	19.2	62.9
2025-08-01T20:12	10	0	0.1	0	0	398	0.2	398	398	19.1	63.4
2025-08-01T20:13	10	0	0.1	0	0	398	0.2	397	398	19.0	65.0
2025-08-01T20:14	10	0	0.1	0	0	398	0.2	397	398	19.0	64.4
2025-08-01T20:15	10	0	0.1	0	0	398	0.2	397	398	19.0	64.7
2025-08-01T20:16	10	0	0.1	0	0	397	0.3	397	398	19.1	63.6
2025-08-01T20:17	10	0	0.1	0	0	397	0.2	397	398	19.2	63.6
2025-08-01T20:18	10	0	0.1	0	0	397	0.5	396	397	19.2	63.9
2025-08-01T20:19	10	0	0.0	0	0	396	0.4	395	397	19.1	64.3
2025-08-01T20:20	10	0	0.1	0	0	395	0.2	395	396	19.0	64.7
2025-08-01T20:21	10	0	0.1	0	0	395	0.3	394	395	19.1	64.2
2025-08-01T20:22	10	0	0.1	0	0	394	0.3	394	395	19.1	64.1
2025-08-01T20:23	10	0	0.0	0	0	394	0.2	394	394	19.1	64.4
2025-08-01T20:24	10	0	0.1	0	0	394	0.2	394	395	19.2	63.8
2025-08-01T20:25	10	0	0.1	0	0	394	0.2	394	395	19.2	63.7
2025-08-01T20:26	10	0	0.1	0	0	394	0.3	394	395	19.1	64.7
2025-08-01T20:27	10	0	0.0	0	0	394	0.3	394	395	19.1	64.7
2025-08-01T20:28	10	0	1.3	0	8	394	0.3	393	395	19.1	64.8
2025-08-01T20:29	10	0	0.0	0	0	394	0.2	394	395	19.1	65.2
2025-08-01T20:30	10	0	0.0	0	0	395	0.4	394	396	19.0	66.1
2025-08-01T20:31	10	0	0.1	0	0	395	0.3	395	396	18.9	66.4
2025-08-01T20:32	10	0	0.1	0	0	395	0.3	395	396	18.9	66.7
2025-08-01T20:33	10	0	0.0	0	0	396	0.2	395	396	18.8	67.2
2025-08-01T20:34	10	0	0.1	0	0	396	0.3	396	397	18.8	67.4
2025-08-01T20:35	10	0	0.0	0	0	396	0.2	396	397	18.7	67.9
2025-08-01T20:36	10	0	0.0	0	0	396	0.3	396	396	18.7	68.1
2025-08-01T20:37	10	0	0.0	0	0	396	0.2	395	397	18.7	68.3
2025-08-01T20:38	10	0	0.0	0	0	396	0.3	396	397	18.7	68.3
2025-08-01T20:39	10	0	0.0	0	0	396	0.4	396	397	18.6	68.6
2025-08-01T20:40	10	0	0.0	0	0	397	0.3	396	397	18.7	68.5
2025-08-01T20:41	10	0	0.1	0	0	397	0.3	396	398	18.7	68.6
2025-08-01T20:42	10	0	0.0	0	0	397	0.2	397	398	18.7	68.9
2025-08-01T20:43	10	0	0.1	0	0	397	0.2	397	398	18.6	69.1
2025-08-01T20:44	10	0	0.0	0	0	397	0.2	396	397	18.6	69.6
2025-08-01T20:45	10	0	0.0	0	0	397	0.2	397	398	18.6	69.7
2025-08-01T20:46	10	0	0.1	0	0	398	0.3	397	398	18.6	69.6
2025-08-01T20:47	10	0	0.0	0	0	398	0.2	398	398	18.6	69.9
2025-08-01T20:48	10	0	0.0	0	0	397	0.3	397	398	18.5	70.1
2025-08-01T20:49	10	0	0.0	0	0	397	0.2	397	398	18.5	70.7
2025-08-01T20:50	10	0	0.1	0	0	397	0.2	397	397	18.5	70.5
2025-08-01T20:51	10	0	0.1	0	0	397	0.2	397	398	18.5	70.4
2025-08-01T20:52	10	0	0.1	0	0	397	0.2	397	398	18.5	71.2
2025-08-01T20:53	10	0	0.1	0	0	397	0.2	397	398	18.4	71.3
2025-08-01T20:54	10	0	0.1	0	0	397	0.3	397	398	18.4	71.1
2025-08-01T20:55	10	0	0.2	0	1	398	0.3	397	399	18.6	70.0
2025-08-01T20:56	10	0	0.1	0	0	398	0.3	397	399	18.6	69.8
2025-08-01T20:57	10	0	0.1	0	0	397	0.2	397	398	18.6	70.0
2025-08-01T20:58	10	0	0.1	0	0	397	0.3	397	398	18.6	70.0
2025-08-01T20:59	10	0	0.2	0	0	397	0.3	397	398	18.5	70.0
2025-08-01T21:00	10	0	0.2	0	1	397	0.2	397	398	18.5	69.9
2025-08-01T21:01	10	0	0.2	0	0	397	0.3	396	398	18.6	69.5
2025-08-01T21:02	10	0	0.1	0	0	397	0.2	397	398	18.5	69.9
2025-08-01T21:03	10	0	0.2	0	1	398	0.3	397	398	18.5	69.7
2025-08-01T21:04	10	0	0.1	0	0	398	0.2	397	398	18.5	70.3
2025-08-01T21:05	10	0	0.2	0	1	398	0.3	397	398	18.4	71.0
2025-08-01T21:06	10	0	0.1	0	0	398	0.2	397	398	18.3	71.6
2025-08-01T21:07	10	0	0.1	0	0	398	0.2	397	398	18.3	71.2
2025-08-01T21:08	10	0	0.2	0	1	397	0.2	396	398	18.3	71.6
2025-08-01T21:09	10	0	0.1	0	0	397	0.2	397	398	18.3	71.3
2025-08-01T21:10	10	0	0.1	0	0	397	0.3	397	398	18.4	70.9
2025-08-01T21:11	10	0	0.2	0	0	397	0.2	397	398	18.3	71.4
2025-08-01T21:12	10	0	0.1	0	0	397	0.2	397	397	18.3	71.1
2025-08-01T21:13	10	0	0.1	0	0	397	0.2	397	398	18.4	70.4
2025-08-01T21:14	10	0	0.1	0	0	397	0.2	397	398	18.5	69.9
2025-08-01T21:15	10	0	0.1	0	0	398	0.2	397	398	18.4	70.3
2025-08-01T21:16	10	0	0.1	0	0	398	0.3	397	399	18.5	69.2
2025-08-01T21:17	10	0	0.1	0	0	398	0.2	398	399	18.6	67.9
2025-08-01T21:18	10	0	0.1	0	0	398	0.3	397	399	18.6	68.0
2025-08-01T21:19	10	0	0.1	0	0	398	0.2	397	398	18.5	69.0
2025-08-01T21:20	10	0	0.1	0	0	398	0.2	397	398	18.5	69.1
2025-08-01T21:21	10	0	0.1	0	0	398	0.2	398	398	18.5	68.7
2025-08-01T21:22	10	0	0.1	0	0	398	0.2	398	399	18.5	68.7
2025-08-01T21:23	10	0	0.1	0	0	398	0.1	398	398	18.5	68.3
2025-08-01T21:24	10	0	0.1	0	1	398	0.3	397	398	18.5	68.8
2025-08-01T21:25	10	0	0.1	0	0	398	0.2	397	398	18.4	68.8
2025-08-01T21:26	10	0	0.1	0	0	398	0.2	397	398	18.4	68.3
2025-08-01T21:27	10	0	0.1	0	0	398	0.2	397	398	18.4	68.7
2025-08-01T21:28	10	0	0.1	0	0	397	0.3	397	398	18.4	68.1
2025-08-01T21:29	10	0	0.1	0	0	397	0.2	396	397	18.4	68.4
2025-08-01T21:30	10	0	0.1	0	0	396	0.3	396	397	18.3	69.3
2025-08-01T21:31	10	0	0.1	0	0	396	0.2	396	397	18.3	69.3
2025-08-01T21:32	10	0	0.1	0	0	396	0.2	396	397	18.2	69.6
2025-08-01T21:33	10	0	0.1	0	0	396	0.3	395	396	18.2	69.1
2025-08-01T21:34	10	0	0.1	0	0	396	0.3	395	396	18.3	68.4
2025-08-01T21:35	10	0	0.0	0	0	396	0.2	395	396	18.3	68.3
2025-08-01T21:36	10	0	0.0	0	0	395	0.3	395	396	18.3	68.3
2025-08-01T21:37	10	0	0.0	0	0	395	0.3	395	396	18.0	66.1
2025-08-01T21:38	10	0	0.0	0	0	395	0.2	394	395	18.3	68.3
2025-08-01T21:39	10	0	0.0	0	0	395	0.2	395	396	18.3	68.3
2025-08-01T21:40	10	0	0.0	0	0	395	0.2	394	396	18.3	68.3
2025-08-01T21:41	10	0	0.0	0	0	395	0.2	394	395	18.3	68.3
2025-08-01T21:42	10	0	0.0	0	0	395	0.2	395	395	18.3	68.3
2025-08-01T21:43	10	0	0.0	0	0	395	0.3	394	395	18.3	68.4
2025-08-01T21:44	10	0	0.0	0	0	394	0.3	394	395	18.1	69.1
2025-08-01T21:45	10	0	0.1	0	0	394	0.3	394	395	18.0	69.6
2025-08-01T21:46	10	0	0.0	0	0	394	0.3	393	394	18.0	70.1
2025-08-01T21:47	10	0	0.0	0	0	393	0.2	393	394	17.9	70.2
2025-08-01T21:48	10	0	0.1	0	0	393	0.3	392	394	17.9	70.4
2025-08-01T21:49	10	0	0.0	0	0	392	0.2	392	393	17.9	70.4
2025-08-01T21:50	10	0	0.1	0	0	392	0.2	392	393	17.8	70.6
2025-08-01T21:51	10	0	0.0	0	0	392	0.2	391	392	17.8	70.7
2025-08-01T21:52	10	0	0.1	0	0	392	0.3	391	392	17.9	69.9
2025-08-01T21:53	10	0	0.0	0	0	391	0.3	391	392	17.9	70.0
2025-08-01T21:54	10	0	0.0	0	0	391	0.2	391	392	17.9	70.3
2025-08-01T21:55	10	0	0.0	0	0	391	0.2	391	392	17.9	70.1
2025-08-01T21:56	10	0	0.0	0	0	392	0.2	391	392	17.8	70.5
2025-08-01T21:57	10	0	0.0	0	0	391	0.3	391	392	17.8	70.4
2025-08-01T21:58	10	0	0.1	0	0	391	0.3	391	392	17.8	70.4
2025-08-01T21:59	10	0	0.1	0	0	391	0.2	390	391	17.7	70.6
2025-08-01T22:00	10	0	0.0	0	0	391	0.3	390	391	17.8	70.2
2025-08-01T22:01	10	0	0.0	0	0	391	0.3	390	391	17.8	69.6
2025-08-01T22:02	10	0	0.0	0	0	390	0.2	390	391	17.8	69.6
2025-08-01T22:03	10	0	0.1	0	0	390	0.2	390	391	17.8	69.6
2025-08-01T22:04	10	0	0.0	0	0	390	0.3	390	391	17.8	70.3
2025-08-01T22:05	10	0	0.0	0	0	390	0.4	389	390	17.7	70.8
2025-08-01T22:06	10	0	0.0	0	0	389	0.2	389	389	17.7	70.4
2025-08-01T22:07	10	0	0.1	0	0	389	0.3	388	389	17.7	70.4
2025-08-01T22:08	10	0	0.1	0	0	388	0.5	387	389	17.7	70.6
2025-08-01T22:09	10	0	0.1	0	0	388	0.2	387	388	17.7	70.4
2025-08-01T22:10	10	0	0.1	0	0	387	0.3	386	387	17.7	69.8
2025-08-01T22:11	10	0	0.1	0	0	387	0.2	387	388	17.7	70.1
2025-08-01T22:12	10	0	0.1	0	0	387	0.3	386	388	17.7	69.9
2025-08-01T22:13	10	0	0.1	0	0	386	0.3	386	387	17.7	70.5
2025-08-01T22:14	10	0	0.0	0	0	386	0.3	385	386	17.6	70.9
2025-08-01T22:15	10	0	0.1	0	0	386	0.2	385	387	17.6	70.4
2025-08-01T22:16	10	0	0.1	0	0	387	0.4	386	388	17.6	70.6
2025-08-01T22:17	10	0	0.1	0	0	387	0.2	387	388	17.6	70.5
2025-08-01T22:18	10	0	0.1	0	0	387	0.2	386	387	17.6	70.4
2025-08-01T22:19	10	0	0.1	0	0	387	0.2	387	388	17.6	71.0
2025-08-01T22:20	10	0	0.0	0	0	387	0.3	386	387	17.5	71.2
2025-08-01T22:21	10	0	0.1	0	0	387	0.2	387	388	17.5	71.4
2025-08-01T22:22	10	0	0.1	0	0	388	0.3	387	388	17.5	71.4
2025-08-01T22:23	10	0	0.1	0	0	388	0.2	387	388	17.6	71.2
2025-08-01T22:24	10	0	0.1	0	0	388	0.3	387	388	17.5	71.6
2025-08-01T22:25	10	0	0.1	0	0	387	0.2	387	388	17.5	71.5
2025-08-01T22:26	10	0	0.1	0	0	387	0.2	387	388	17.5	71.8
2025-08-01T22:27	10	0	0.1	0	0	387	0.3	387	388	17.4	72.2
2025-08-01T22:28	10	0	0.0	0	0	388	0.2	388	388	17.5	71.8
2025-08-01T22:29	10	0	0.1	0	0	388	0.3	387	388	17.5	71.7
2025-08-01T22:30	10	0	0.1	0	0	387	0.3	387	388	17.4	71.9
2025-08-01T22:31	10	0	0.1	0	0	387	0.2	386	387	17.4	72.2
2025-08-01T22:32	10	0	0.1	0	0	386	0.4	385	386	17.3	72.6
2025-08-01T22:33	10	0	0.1	0	0	385	0.2	385	386	17.2	73.2
2025-08-01T22:34	10	0	0.1	0	0	385	0.2	384	385	17.1	73.8
2025-08-01T22:35	10	0	0.1	0	0	385	0.2	384	385	17.1	74.1
2025-08-01T22:36	10	0	0.1	0	0	384	0.2	384	385	17.1	73.8
2025-08-01T22:37	10	0	0.1	0	0	384	0.3	383	385	17.1	73.4
2025-08-01T22:38	10	0	0.1	0	0	384	0.2	383	384	17.0	74.0
2025-08-01T22:39	10	0	0.1	0	0	383	0.3	382	383	17.0	74.1
2025-08-01T22:40	10	0	0.1	0	0	382	0.3	382	383	17.0	73.9
2025-08-01T22:41	10	0	0.1	0	0	382	0.3	381	382	17.0	74.3
2025-08-01T22:42	10	0	0.1	0	0	381	0.2	381	382	16.9	74.3
2025-08-01T22:43	10	0	0.1	0	0	381	0.2	380	381	16.9	74.2
2025-08-01T22:44	10	0	0.1	0	0	381	0.2	380	381	16.9	74.0
2025-08-01T22:45	10	0	0.1	0	0	380	0.4	380	381	17.0	73.9
2025-08-01T22:46	10	0	0.1	0	0	380	0.2	380	381	16.9	74.3
2025-08-01T22:47	10	0	0.1	0	0	380	0.2	380	381	17.0	74.1
2025-08-01T22:48	10	0	0.1	0	0	380	0.3	380	381	17.0	74.2
2025-08-01T22:49	10	0	0.1	-1	0	381	0.3	380	381	17.0	73.9
2025-08-01T22:50	10	0	0.1	0	0	381	0.2	381	382	17.0	73.6
2025-08-01T22:51	10	0	0.1	0	0	381	0.2	381	382	17.0	73.9
2025-08-01T22:52	10	0	0.1	0	0	381	0.3	380	381	17.0	73.8
2025-08-01T22:53	10	0	0.1	0	0	381	0.4	380	382	17.0	73.7
2025-08-01T22:54	10	0	0.1	0	0	382	0.3	381	383	17.0	72.4
2025-08-01T22:55	10	0	0.1	0	0	381	0.3	381	382	17.0	73.2
2025-08-01T22:56	10	0	0.1	0	0	382	0.4	381	382	16.9	74.0
2025-08-01T22:57	10	0	0.1	0	0	382	0.3	382	383	17.0	73.6
2025-08-01T22:58	10	0	0.1	0	0	382	0.3	382	383	17.0	73.4
2025-08-01T22:59	10	0	0.1	0	0	383	0.3	382	384	17.0	73.2
2025-08-01T23:00	10	0	0.1	0	0	383	0.2	383	384	17.0	73.0
2025-08-01T23:01	10	0	0.0	0	0	383	0.3	382	384	17.0	72.6
2025-08-01T23:02	10	0	0.0	0	0	384	0.3	383	384	17.0	72.4
2025-08-01T23:03	10	0	0.1	0	0	384	0.3	383	385	17.1	72.4
2025-08-01T23:04	10	0	0.0	0	0	384	0.2	383	385	17.1	72.5
2025-08-01T23:05	10	0	0.0	0	0	384	0.2	383	384	17.0	72.5
2025-08-01T23:06	10	0	0.0	0	0	384	0.3	383	384	17.0	72.5
2025-08-01T23:07	10	0	0.0	0	0	383	0.3	383	384	17.1	71.8
2025-08-01T23:08	10	0	0.1	0	0	383	0.3	383	384	17.1	71.9
2025-08-01T23:09	10	0	0.0	0	0	382	0.3	382	383	17.0	72.2
2025-08-01T23:10	10	0	0.0	0	0	382	0.3	381	382	17.0	72.6
2025-08-01T23:11	10	0	0.0	0	0	381	0.2	380	382	17.0	72.6
2025-08-01T23:12	10	0	0.0	0	0	381	0.2	381	382	17.1	71.7
2025-08-01T23:13	10	0	0.0	0	0	381	0.3	380	381	17.1	71.4
2025-08-01T23:14	10	0	0.0	0	0	380	0.2	380	381	17.1	71.2
2025-08-01T23:15	10	0	0.0	0	0	380	0.3	380	381	17.2	70.9
2025-08-01T23:16	10	0	0.1	0	0	380	0.2	379	380	17.1	71.2
2025-08-01T23:17	10	0	0.0	0	0	380	0.2	379	380	17.1	71.0
2025-08-01T23:18	10	0	0.0	0	0	379	0.2	379	380	17.2	70.8
2025-08-01T23:19	10	0	0.1	0	0	380	0.2	379	381	17.2	70.1
2025-08-01T23:20	10	0	0.0	0	0	380	0.2	379	380	17.4	69.0
2025-08-01T23:21	10	0	0.0	0	0	380	0.2	379	381	17.5	68.6
2025-08-01T23:22	10	0	0.0	0	0	380	0.3	379	381	17.5	68.2
2025-08-01T23:23	10	0	0.0	0	0	380	0.3	380	381	17.5	68.4
2025-08-01T23:24	10	0	0.0	0	0	380	0.2	380	381	17.5	68.4
2025-08-01T23:25	10	0	0.0	0	0	380	0.3	380	381	17.4	68.7
2025-08-01T23:26	10	0	0.1	0	0	380	0.3	379	380	17.4	68.9
2025-08-01T23:27	10	0	0.1	0	0	380	0.2	379	380	17.3	69.2
2025-08-01T23:28	10	0	0.0	0	0	380	0.4	380	381	17.3	68.8
2025-08-01T23:29	10	0	0.1	0	0	381	0.3	380	381	17.3	68.7
2025-08-01T23:30	10	0	0.1	0	0	382	0.3	381	382	17.3	68.7
2025-08-01T23:31	10	0	0.1	0	0	382	0.3	381	383	17.3	68.7
2025-08-01T23:32	10	0	0.0	0	0	382	0.2	382	383	17.2	69.5
2025-08-01T23:33	10	0	0.0	0	0	383	0.2	382	383	17.0	70.0
2025-08-01T23:34	10	0	0.0	0	0	383	0.3	382	384	17.0	70.1
2025-08-01T23:35	10	0	0.1	0	0	384	0.4	383	384	17.0	69.8
2025-08-01T23:36	10	0	0.1	0	0	384	0.2	384	385	17.1	69.2
2025-08-01T23:37	10	0	0.0	0	0	384	0.2	384	385	17.2	69.0
2025-08-01T23:38	10	0	0.1	0	0	384	0.2	384	385	17.1	69.3
2025-08-01T23:39	10	0	0.0	0	0	384	0.3	384	385	17.2	68.8
2025-08-01T23:40	10	0	0.0	0	0	384	0.2	384	385	17.3	68.2
2025-08-01T23:41	10	0	0.1	0	0	384	0.3	383	384	17.2	68.8
2025-08-01T23:42	10	0	0.0	0	0	383	0.4	382	384	17.1	69.8
2025-08-01T23:43	10	0	0.0	0	0	382	0.4	382	383	16.9	70.8
2025-08-01T23:44	10	0	0.1	0	0	382	0.2	381	382	16.8	71.3
2025-08-01T23:45	10	0	0.1	0	0	382	0.3	381	382	16.8	71.5
2025-08-01T23:46	10	0	0.1	0	0	381	0.3	381	382	16.7	71.9
2025-08-01T23:47	10	0	0.1	0	0	381	0.3	381	382	16.6	72.0
2025-08-01T23:48	10	0	0.1	0	0	381	0.3	380	382	16.6	72.2
2025-08-01T23:49	10	0	0.1	0	0	381	0.2	381	382	16.6	72.3
2025-08-01T23:50	10	0	0.1	0	0	381	0.2	380	381	16.4	73.3
2025-08-01T23:51	10	0	0.1	0	0	381	0.2	380	381	16.3	73.9
2025-08-01T23:52	10	0	0.1	0	0	381	0.4	380	382	16.3	74.3
2025-08-01T23:53	10	0	0.1	0	0	381	0.3	381	382	16.4	73.4
2025-08-01T23:54	10	0	0.1	0	0	382	0.3	382	383	16.5	72.8
2025-08-01T23:55	10	0	0.1	0	0	383	0.3	382	383	16.6	72.2
2025-08-01T23:56	10	0	0.1	0	0	383	0.2	383	384	16.7	71.6
2025-08-01T23:57	10	0	0.1	0	0	384	0.4	383	385	16.8	71.4
2025-08-01T23:58	10	0	0.1	0	0	385	0.2	384	385	16.9	70.7
2025-08-01T23:59	10	0	0.1	0	0	385	0.3	385	386	16.9	70.7
2025-08-02T00:00	10	0	0.1	0	0	386	0.3	385	387	17.0	70.4
2025-08-02T00:01	10	0	0.1	0	0	386	0.2	386	387	17.0	70.6
2025-08-02T00:02	10	0	0.1	0	0	386	0.3	386	387	16.9	70.7
2025-08-02T00:03	10	0	0.1	0	0	387	0.4	386	388	17.1	69.8
2025-08-02T00:04	10	0	0.1	0	0	387	0.3	386	387	17.0	70.1
2025-08-02T00:05	10	0	0.1	0	0	387	0.3	386	387	16.9	71.3
2025-08-02T00:06	10	0	0.1	0	0	387	0.3	386	387	16.7	72.4
2025-08-02T00:07	10	0	0.2	0	0	386	0.3	386	387	16.5	74.3
2025-08-02T00:08	10	0	0.1	0	0	386	0.3	386	387	16.4	75.0
2025-08-02T00:09	10	0	0.1	0	0	387	0.4	385	387	16.4	74.4
2025-08-02T00:10	10	0	0.1	0	0	387	0.2	386	387	16.5	74.0
2025-08-02T00:11	10	0	0.1	0	0	387	0.3	387	388	16.5	73.5
2025-08-02T00:12	10	0	0.1	0	0	387	0.3	387	388	16.5	73.3
2025-08-02T00:13	10	0	0.1	0	0	388	0.3	387	388	16.8	72.1
2025-08-02T00:14	10	0	0.1	0	0	387	0.2	387	388	16.7	73.1
2025-08-02T00:15	10	0	0.2	0	0	388	0.3	387	389	16.6	73.6
2025-08-02T00:16	10	0	0.2	0	0	388	0.3	387	388	16.6	73.6
2025-08-02T00:17	10	0	0.1	0	0	388	0.3	388	389	16.6	74.1
2025-08-02T00:18	10	0	0.1	0	0	388	0.2	388	389	16.5	74.4
2025-08-02T00:19	10	0	0.1	0	0	389	0.3	388	389	16.5	74.7
2025-08-02T00:20	10	0	0.1	0	0	388	0.3	388	389	16.5	75.2
2025-08-02T00:21	10	0	0.1	0	0	389	0.3	388	389	16.5	75.2
2025-08-02T00:22	10	0	0.1	0	0	389	0.3	388	390	16.5	74.8
2025-08-02T00:23	10	0	0.1	0	0	389	0.3	388	390	16.5	75.2
2025-08-02T00:24	10	0	0.2	0	0	389	0.2	389	390	16.6	74.5
2025-08-02T00:25	10	0	0.1	0	0	389	0.2	389	390	16.5	75.1
2025-08-02T00:26	10	0	0.1	0	0	389	0.2	389	390	16.5	75.1
2025-08-02T00:27	10	0	0.1	0	0	390	0.2	389	390	16.6	74.6
2025-08-02T00:28	10	0	0.1	0	0	389	0.2	389	390	16.6	74.6
2025-08-02T00:29	10	0	0.1	0	0	389	0.3	389	390	16.6	74.1
2025-08-02T00:30	10	0	0.1	0	0	389	0.2	389	390	16.6	74.6
2025-08-02T00:31	10	0	0.1	0	0	389	0.3	389	390	16.5	75.0
2025-08-02T00:32	10	0	0.1	0	0	390	0.2	389	390	16.6	74.1
2025-08-02T00:33	10	0	0.1	0	0	390	0.2	389	390	16.6	73.9
2025-08-02T00:34	10	0	0.1	0	0	390	0.2	389	390	16.6	73.9
2025-08-02T00:35	10	0	0.1	0	0	390	0.3	389	390	16.6	73.8
2025-08-02T00:36	10	0	0.1	0	0	389	0.2	389	390	16.6	74.1
2025-08-02T00:37	10	0	0.1	0	0	390	0.2	389	390	16.6	74.3
2025-08-02T00:38	10	0	0.2	0	0	390	0.2	389	390	16.5	74.6
2025-08-02T00:39	10	0	0.1	0	0	389	0.3	389	390	16.5	74.6
2025-08-02T00:40	10	0	0.1	0	0	389	0.2	389	390	16.6	74.5
2025-08-02T00:41	10	0	0.1	0	0	389	0.2	389	390	16.5	74.9
2025-08-02T00:42	10	0	0.1	0	0	389	0.2	388	390	16.5	74.7
2025-08-02T00:43	10	0	0.1	0	0	390	0.2	389	390	16.5	74.6
2025-08-02T00:44	10	0	0.1	0	0	389	0.2	389	390	16.6	74.2
2025-08-02T00:45	10	0	0.1	0	0	389	0.2	389	390	16.6	74.2
2025-08-02T00:46	10	0	0.1	0	0	389	0.2	389	390	16.6	73.7
2025-08-02T00:47	10	0	0.1	0	0	390	0.3	389	391	16.7	73.3
2025-08-02T00:48	10	0	0.2	0	1	390	0.3	389	391	16.8	72.8
2025-08-02T00:49	10	0	0.1	0	0	390	0.3	389	391	16.8	73.0
2025-08-02T00:50	10	0	0.2	0	0	390	0.3	389	390	16.7	73.1
2025-08-02T00:51	10	0	0.1	0	0	390	0.2	389	390	16.7	73.1
2025-08-02T00:52	10	0	0.2	0	0	389	0.3	389	390	16.7	73.6
2025-08-02T00:53	10	0	0.2	0	1	390	0.2	389	390	16.7	73.3
2025-08-02T00:54	10	0	0.1	0	0	390	0.2	389	390	16.7	73.4
2025-08-02T00:55	10	0	0.1	0	0	390	0.2	389	390	16.7	73.6
2025-08-02T00:56	10	0	0.2	0	1	390	0.3	389	390	16.8	73.2
2025-08-02T00:57	10	0	0.1	0	1	389	0.3	389	390	16.8	73.8
2025-08-02T00:58	10	0	0.2	0	1	389	0.2	388	390	16.7	73.9
2025-08-02T00:59	10	0	0.2	0	1	389	0.2	388	389	16.7	74.3
2025-08-02T01:00	10	0	0.2	0	1	389	0.2	388	389	16.7	74.1
2025-08-02T01:01	10	0	0.1	0	0	389	0.2	388	389	16.8	73.9
2025-08-02T01:02	10	0	0.1	0	0	389	0.2	388	389	16.7	74.9
2025-08-02T01:03	10	0	0.1	0	0	389	0.3	388	389	16.8	73.9
2025-08-02T01:04	10	0	0.1	0	1	389	0.3	388	389	16.8	74.8
2025-08-02T01:05	10	0	0.1	0	0	389	0.2	388	389	16.8	74.3
2025-08-02T01:06	10	0	0.1	0	0	389	0.2	388	389	16.8	74.3
2025-08-02T01:07	10	0	0.1	0	0	389	0.3	389	390	16.8	74.1
2025-08-02T01:08	10	0	0.1	0	0	389	0.3	389	390	16.9	73.9
2025-08-02T01:09	10	0	0.2	0	1	389	0.2	389	390	16.8	74.1
2025-08-02T01:10	10	0	0.1	0	0	389	0.2	389	389	16.8	74.3
2025-08-02T01:11	10	0	0.1	0	0	389	0.2	389	390	16.7	75.3
2025-08-02T01:12	10	0	0.1	0	0	389	0.2	389	390	16.7	75.8
2025-08-02T01:13	10	0	0.1	0	0	389	0.2	389	389	16.6	77.0
2025-08-02T01:14	10	0	0.1	0	0	389	0.2	388	389	16.5	77.0
2025-08-02T01:15	10	0	0.1	0	0	389	0.2	388	389	16.5	77.4
2025-08-02T01:16	10	0	0.1	0	0	389	0.2	388	389	16.5	77.8
2025-08-02T01:17	10	0	0.1	0	0	389	0.2	389	390	16.5	78.4
2025-08-02T01:18	10	0	0.1	0	0	389	0.2	389	390	16.4	78.7
2025-08-02T01:19	10	0	0.1	0	0	389	0.2	389	390	16.4	79.4
2025-08-02T01:20	10	0	0.1	0	0	389	0.3	389	390	16.3	79.6
2025-08-02T01:21	10	0	0.1	0	0	389	0.2	388	390	16.2	80.5
2025-08-02T01:22	10	0	0.1	0	0	388	0.2	388	389	16.1	80.8
2025-08-02T01:23	10	0	0.1	0	0	388	0.2	388	389	16.0	81.3
2025-08-02T01:24	10	0	0.1	0	0	388	0.2	387	388	16.0	81.4
2025-08-02T01:25	10	0	0.0	0	0	388	0.3	387	389	16.0	80.8
2025-08-02T01:26	10	0	0.1	0	0	388	0.2	387	388	16.0	81.4
2025-08-02T01:27	10	0	0.1	0	0	387	0.1	387	388	16.0	80.9
2025-08-02T01:28	10	0	0.1	0	0	387	0.3	387	388	16.0	81.0
2025-08-02T01:29	10	0	0.1	0	0	388	0.3	387	388	16.1	79.4
2025-08-02T01:30	10	0	0.1	0	0	388	0.2	387	388	16.3	79.0
2025-08-02T01:31	10	0	0.1	0	0	387	0.2	387	388	16.1	80.4
2025-08-02T01:32	10	0	0.1	0	0	387	0.3	387	388	16.0	81.6
2025-08-02T01:33	10	0	0.1	0	0	388	0.2	387	388	16.0	81.0
2025-08-02T01:34	10	0	0.1	0	0	388	0.2	387	388	16.0	80.8
2025-08-02T01:35	10	0	0.1	0	0	388	0.3	387	388	16.0	81.0
2025-08-02T01:36	10	0	0.1	0	0	388	0.2	388	389	16.1	79.7
2025-08-02T01:37	10	0	0.1	0	0	388	0.3	387	389	16.2	79.5
2025-08-02T01:38	10	0	0.1	0	0	388	0.2	388	388	16.1	81.1
2025-08-02T01:39	10	0	0.1	0	0	389	0.5	388	390	16.1	80.0
2025-08-02T01:40	10	0	0.1	0	0	389	0.3	388	389	16.4	77.4
2025-08-02T01:41	10	0	0.1	0	0	389	0.2	388	389	16.3	78.7
2025-08-02T01:42	10	0	0.1	0	0	389	0.3	389	390	16.3	78.8
2025-08-02T01:43	10	0	0.1	0	0	389	0.2	389	390	16.4	77.7
2025-08-02T01:44	10	0	0.1	0	0	390	0.3	389	390	16.5	76.9
2025-08-02T01:45	10	0	0.1	0	0	390	0.3	389	391	16.6	76.5
2025-08-02T01:46	10	0	0.1	0	0	390	0.3	390	391	16.6	76.7
2025-08-02T01:47	10	0	0.1	0	0	390	0.3	389	390	16.7	76.1
2025-08-02T01:48	10	0	0.1	0	0	390	0.3	389	391	16.6	77.2
2025-08-02T01:49	10	0	0.1	0	0	390	0.4	389	391	16.6	77.2
2025-08-02T01:50	10	0	0.1	0	0	390	0.3	390	391	16.7	76.2
2025-08-02T01:51	10	0	0.1	0	0	390	0.2	389	391	16.5	78.7
2025-08-02T01:52	10	0	0.1	0	0	390	0.3	389	391	16.4	78.6
2025-08-02T01:53	10	0	0.1	0	0	390	0.3	389	391	16.5	76.0
2025-08-02T01:54	10	0	0.1	0	0	389	0.4	388	390	16.5	76.2
2025-08-02T01:55	10	0	0.1	0	0	389	0.2	389	390	16.4	77.1
2025-08-02T01:56	10	0	0.1	0	0	388	0.3	388	389	16.3	78.0
2025-08-02T01:57	10	0	0.0	0	0	388	0.2	388	389	16.2	78.4
2025-08-02T01:58	10	0	0.1	0	0	388	0.4	387	388	16.1	79.0
2025-08-02T01:59	10	0	0.0	0	0	387	0.3	386	387	16.0	81.1
2025-08-02T02:00	10	0	0.0	0	0	387	0.3	386	387	15.9	82.4
2025-08-02T02:01	10	0	0.1	0	0	387	0.2	386	387	15.8	82.7
2025-08-02T02:02	10	0	0.1	0	0	386	0.3	386	387	15.8	82.1
2025-08-02T02:03	10	0	0.0	0	0	387	0.3	386	387	15.8	81.4
2025-08-02T02:04	10	0	0.0	0	0	387	0.3	386	387	15.8	82.1
2025-08-02T02:05	10	0	0.1	0	0	387	0.2	386	387	15.8	81.6
2025-08-02T02:06	10	0	0.0	0	0	387	0.3	386	387	15.8	82.3
2025-08-02T02:07	10	0	0.0	0	0	387	0.2	386	387	15.8	81.3
2025-08-02T02:08	10	0	0.0	0	0	386	0.2	386	387	15.8	81.9
2025-08-02T02:09	10	0	0.0	0	0	386	0.2	386	387	15.7	82.8
2025-08-02T02:10	10	0	0.1	0	0	387	0.2	386	387	15.7	82.6
2025-08-02T02:11	10	0	0.1	0	0	387	0.2	386	387	15.7	82.7
2025-08-02T02:12	10	0	0.1	0	0	386	0.2	386	387	15.7	82.4
2025-08-02T02:13	10	0	0.1	0	0	386	0.2	386	387	15.7	83.4
2025-08-02T02:14	10	0	0.1	0	0	386	0.2	386	387	15.6	83.8
2025-08-02T02:15	10	0	0.0	0	0	386	0.3	386	387	15.6	83.7
2025-08-02T02:16	10	0	0.1	0	0	386	0.2	386	387	15.6	83.4
2025-08-02T02:17	10	0	0.1	0	0	386	0.3	386	387	15.6	84.7
2025-08-02T02:18	10	0	0.1	0	0	386	0.2	386	387	15.5	84.8
2025-08-02T02:19	10	0	0.1	0	0	386	0.2	386	387	15.5	85.3
2025-08-02T02:20	10	0	0.1	0	0	386	0.2	386	387	15.5	86.2
2025-08-02T02:21	10	0	0.1	0	0	386	0.1	386	386	15.4	86.5
2025-08-02T02:22	10	0	0.1	0	0	386	0.3	385	386	15.4	86.5
2025-08-02T02:23	10	0	0.1	0	0	386	0.3	385	387	15.4	85.9
2025-08-02T02:24	10	0	0.1	0	0	386	0.2	385	386	15.4	86.1
2025-08-02T02:25	10	0	0.1	0	0	386	0.2	385	386	15.4	86.2
2025-08-02T02:26	10	0	0.1	0	0	386	0.2	385	386	15.4	86.3
2025-08-02T02:27	10	0	0.1	0	0	385	0.4	384	386	15.4	86.5
2025-08-02T02:28	10	0	0.1	0	0	385	0.2	384	385	15.3	88.4
2025-08-02T02:29	10	0	0.1	0	0	385	0.2	384	385	15.2	89.2
2025-08-02T02:30	10	0	0.1	0	0	384	0.2	384	385	15.1	89.2
2025-08-02T02:31	10	0	0.1	0	0	384	0.2	384	385	15.1	88.8
2025-08-02T02:32	10	0	0.1	0	0	384	0.3	383	384	15.2	88.3
2025-08-02T02:33	10	0	0.1	0	0	384	0.2	383	384	15.1	89.7
2025-08-02T02:34	10	0	0.1	0	0	383	0.3	383	384	15.1	89.6
2025-08-02T02:35	10	0	0.1	0	0	383	0.2	383	384	15.0	89.6
2025-08-02T02:36	10	0	0.1	0	0	383	0.2	383	384	15.1	89.0
2025-08-02T02:37	10	0	0.1	0	0	383	0.2	383	384	15.1	88.8
2025-08-02T02:38	10	0	0.1	0	0	383	0.2	383	384	15.1	89.7
2025-08-02T02:39	10	0	0.1	0	0	383	0.2	383	384	15.1	88.7
2025-08-02T02:40	10	0	0.1	0	0	383	0.3	382	384	15.1	89.2
2025-08-02T02:41	10	0	0.1	0	0	383	0.3	383	384	15.1	89.1
2025-08-02T02:42	10	0	0.1	0	0	384	0.3	383	384	15.1	88.4
2025-08-02T02:43	10	0	0.1	0	0	383	0.2	383	384	15.1	88.9
2025-08-02T02:44	10	0	0.1	0	0	384	0.2	383	384	15.1	90.0
2025-08-02T02:45	10	0	0.1	0	0	384	0.3	383	385	15.0	90.1
2025-08-02T02:46	10	0	0.1	0	0	384	0.2	384	385	15.0	89.8
2025-08-02T02:47	10	0	0.1	0	0	384	0.3	383	385	15.0	88.7
2025-08-02T02:48	10	0	0.1	0	0	385	0.2	384	385	15.1	87.6
2025-08-02T02:49	10	0	0.1	0	0	384	0.2	384	385	15.1	88.8
2025-08-02T02:50	10	0	0.1	0	0	385	0.2	384	385	15.0	89.7
2025-08-02T02:51	10	0	0.1	0	0	384	0.2	384	385	15.0	88.9
2025-08-02T02:52	10	0	0.1	0	0	385	0.3	384	385	15.0	88.8
2025-08-02T02:53	10	0	0.1	0	0	385	0.2	384	385	15.0	88.9
2025-08-02T02:54	10	0	0.1	0	0	385	0.3	384	385	15.0	89.8
2025-08-02T02:55	10	0	0.1	0	0	385	0.2	385	386	15.0	89.6
2025-08-02T02:56	10	0	0.1	0	0	385	0.3	385	386	15.0	89.4
2025-08-02T02:57	10	0	0.1	0	0	385	0.3	385	386	15.0	88.8
2025-08-02T02:58	10	0	0.1	0	0	385	0.2	385	386	15.1	88.1
2025-08-02T02:59	10	0	0.1	0	0	386	0.2	385	386	15.1	88.4
2025-08-02T03:00	10	0	0.1	0	0	385	0.2	385	386	15.1	88.2
2025-08-02T03:01	10	0	0.1	0	0	385	0.2	385	386	15.1	87.6
2025-08-02T03:02	10	0	0.1	0	0	385	0.2	385	386	15.1	88.6
2025-08-02T03:03	10	0	0.1	0	0	386	0.2	385	386	15.1	88.6
2025-08-02T03:04	10	0	0.1	0	0	385	0.2	385	386	15.1	89.0
2025-08-02T03:05	10	0	0.1	0	0	386	0.2	385	386	15.1	88.6
2025-08-02T03:06	10	0	0.1	0	0	386	0.2	385	386	15.1	88.2
2025-08-02T03:07	10	0	0.1	0	0	386	0.2	385	386	15.2	87.6
2025-08-02T03:08	10	0	0.1	0	0	386	0.2	385	386	15.1	88.8
2025-08-02T03:09	10	0	0.1	0	0	386	0.2	385	386	15.1	89.8
2025-08-02T03:10	10	0	0.1	0	0	386	0.5	385	386	15.1	89.3
2025-08-02T03:11	10	0	0.1	0	0	385	0.3	385	386	15.0	89.6
2025-08-02T03:12	10	0	0.1	0	0	385	0.2	384	385	15.0	90.4
2025-08-02T03:13	10	0	0.1	0	0	384	0.2	384	385	14.9	91.4
2025-08-02T03:14	10	0	0.1	0	0	384	0.3	384	385	14.9	90.6
2025-08-02T03:15	10	0	0.1	0	0	384	0.2	384	385	15.0	89.5
2025-08-02T03:16	10	0	0.1	0	0	384	0.2	384	385	15.1	89.0
2025-08-02T03:17	10	0	0.1	0	0	384	0.2	383	384	15.1	89.7
2025-08-02T03:18	10	0	0.1	0	0	384	0.2	383	384	15.0	89.8
2025-08-02T03:19	10	0	0.0	0	0	384	0.2	383	384	15.0	89.5
2025-08-02T03:20	10	0	0.1	0	0	384	0.2	383	384	15.1	88.2
2025-08-02T03:21	10	0	0.1	0	0	384	0.2	383	384	15.1	88.2
2025-08-02T03:22	10	0	0.0	0	0	384	0.2	383	384	15.1	87.8
2025-08-02T03:23	10	0	0.1	0	0	383	0.3	383	384	15.0	88.2
2025-08-02T03:24	10	0	0.1	0	0	383	0.2	383	384	14.9	89.7
2025-08-02T03:25	10	0	0.1	0	0	383	0.2	382	383	14.8	90.4
2025-08-02T03:26	10	0	0.1	0	0	383	0.2	382	383	14.7	91.3
2025-08-02T03:27	10	0	0.1	0	0	383	0.3	383	384	14.8	90.6
2025-08-02T03:28	10	0	0.1	0	0	383	0.3	382	384	14.8	90.4
2025-08-02T03:29	10	0	0.1	0	0	383	0.3	382	383	14.8	90.7
2025-08-02T03:30	10	0	0.1	0	0	383	0.2	382	383	14.8	90.9
2025-08-02T03:31	10	0	0.1	0	0	383	0.2	382	383	14.7	92.1
2025-08-02T03:32	10	0	0.0	0	0	383	0.2	382	383	14.6	93.2
2025-08-02T03:33	10	0	0.1	0	0	383	0.2	382	383	14.6	93.9
2025-08-02T03:34	10	0	0.1	0	0	383	0.2	382	383	14.6	94.1
2025-08-02T03:35	10	0	0.1	0	0	383	0.2	382	383	14.6	94.5
2025-08-02T03:36	10	0	0.1	0	0	383	0.2	382	383	14.6	93.6
2025-08-02T03:37	10	0	0.1	0	0	383	0.1	382	383	14.6	93.2
2025-08-02T03:38	10	0	0.1	0	0	383	0.3	382	383	14.6	93.5
2025-08-02T03:39	10	0	0.1	0	0	383	0.2	382	383	14.5	93.7
2025-08-02T03:40	10	0	0.1	0	0	383	0.2	382	383	14.5	93.5
2025-08-02T03:41	10	0	0.1	0	0	383	0.2	382	383	14.5	93.8
2025-08-02T03:42	10	0	0.1	0	0	382	0.2	382	383	14.5	93.7
2025-08-02T03:43	10	0	0.1	0	0	382	0.3	382	383	14.4	93.2
2025-08-02T03:44	10	0	0.1	0	0	383	0.2	382	383	14.5	92.3
2025-08-02T03:45	10	0	0.1	0	0	382	0.2	382	383	14.5	92.3
2025-08-02T03:46	10	0	0.1	0	0	382	0.2	382	383	14.4	92.7
2025-08-02T03:47	10	0	0.1	0	0	382	0.2	382	383	14.4	92.7
2025-08-02T03:48	10	0	0.1	0	0	382	0.3	382	383	14.4	93.3
2025-08-02T03:49	10	0	0.1	0	0	382	0.3	381	383	14.3	93.1
2025-08-02T03:50	10	0	0.1	0	0	382	0.2	381	382	14.3	92.3
2025-08-02T03:51	10	0	0.1	0	0	382	0.2	381	382	14.3	92.3
2025-08-02T03:52	10	0	0.1	0	0	381	0.2	381	382	14.3	92.3
2025-08-02T03:53	10	0	0.1	0	1	382	0.2	381	382	14.3	92.0
2025-08-02T03:54	10	0	0.1	0	0	382	0.2	381	382	14.3	92.0
2025-08-02T03:55	10	0	0.1	0	1	381	0.2	381	382	14.3	92.4
2025-08-02T03:56	10	0	0.1	0	0	382	0.2	381	382	14.3	92.1
2025-08-02T03:57	10	0	0.1	0	1	382	0.2	381	382	14.3	91.2
2025-08-02T03:58	10	0	0.1	0	0	382	0.3	381	382	14.4	91.0
2025-08-02T03:59	10	0	0.1	0	0	382	0.2	381	382	14.4	90.8
2025-08-02T04:00	10	0	0.1	0	0	381	0.2	381	382	14.3	91.5
2025-08-02T04:01	10	0	0.1	0	0	382	0.2	381	382	14.4	91.1
2025-08-02T04:02	10	0	0.1	0	1	382	0.2	381	382	14.4	90.7
2025-08-02T04:03	10	0	0.1	0	0	382	0.3	381	383	14.3	91.4
2025-08-02T04:04	10	0	0.1	0	1	382	0.3	381	382	14.3	90.8
2025-08-02T04:05	10	0	0.1	0	0	382	0.2	381	382	14.3	91.2
2025-08-02T04:06	10	0	0.1	0	0	382	0.2	381	382	14.3	91.6
2025-08-02T04:07	10	0	0.1	0	0	382	0.3	381	382	14.3	92.0
2025-08-02T04:08	10	0	0.2	0	0	382	0.2	381	382	14.3	92.3
2025-08-02T04:09	10	0	0.1	0	1	382	0.2	382	383	14.3	93.1
2025-08-02T04:10	10	0	0.2	0	1	382	0.2	382	383	14.3	91.6
2025-08-02T04:11	10	0	0.1	0	0	382	0.3	382	383	14.3	91.7
2025-08-02T04:12	10	0	0.2	0	1	382	0.2	382	383	14.3	91.7
2025-08-02T04:13	10	0	0.2	0	1	382	0.3	381	383	14.3	90.8
2025-08-02T04:14	10	0	0.2	0	0	382	0.2	381	382	14.4	89.7
2025-08-02T04:15	10	0	0.2	0	1	382	0.3	382	383	14.4	89.8
2025-08-02T04:16	10	0	0.1	0	0	382	0.3	381	383	14.3	90.4
2025-08-02T04:17	10	0	0.2	0	1	382	0.3	381	383	14.3	90.6
2025-08-02T04:18	10	0	0.1	0	1	382	0.2	381	382	14.3	90.4
2025-08-02T04:19	10	0	0.1	0	1	382	0.3	381	383	14.3	89.6
2025-08-02T04:20	10	0	0.2	0	0	382	0.3	381	383	14.3	89.8
2025-08-02T04:21	10	0	0.1	0	0	382	0.3	381	382	14.2	90.4
2025-08-02T04:22	10	0	0.2	0	1	382	0.3	381	382	14.2	90.6
2025-08-02T04:23	10	0	0.2	0	1	382	0.2	381	382	14.2	90.8
2025-08-02T04:24	10	0	0.2	0	1	382	0.3	381	383	14.2	90.6
2025-08-02T04:25	10	0	0.2	0	0	382	0.2	381	382	14.2	91.1
2025-08-02T04:26	10	0	0.2	0	1	382	0.3	381	383	14.2	91.0
2025-08-02T04:27	10	0	0.1	0	0	382	0.2	381	382	14.2	90.5
2025-08-02T04:28	10	0	0.1	0	0	382	0.2	381	382	14.2	90.7
2025-08-02T04:29	10	0	0.2	0	1	382	0.3	381	382	14.2	91.4
2025-08-02T04:30	10	0	0.1	0	0	382	0.2	381	382	14.2	90.6
2025-08-02T04:31	10	0	0.1	0	0	381	0.3	381	382	14.2	89.8
2025-08-02T04:32	10	0	0.2	0	0	381	0.3	381	382	14.2	90.0
2025-08-02T04:33	10	0	0.2	0	1	381	0.3	380	381	14.2	91.3
2025-08-02T04:34	10	0	0.2	0	1	381	0.2	381	382	14.1	93.1
2025-08-02T04:35	10	0	0.2	0	1	381	0.2	381	382	14.1	94.2
2025-08-02T04:36	10	0	0.1	0	0	381	0.3	380	382	14.0	94.4
2025-08-02T04:37	10	0	0.1	0	0	381	0.2	381	382	14.0	95.0
2025-08-02T04:38	10	0	0.2	0	0	381	0.2	381	381	14.0	95.4
2025-08-02T04:39	10	0	0.1	0	0	381	0.2	381	382	13.9	95.3
2025-08-02T04:40	10	0	0.2	0	0	381	0.2	381	382	13.9	95.1
2025-08-02T04:41	10	0	0.1	0	1	381	0.2	381	382	13.9	94.9
2025-08-02T04:42	10	0	0.1	0	0	381	0.3	380	382	13.9	95.1
2025-08-02T04:43	10	0	0.1	0	0	381	0.2	380	381	13.9	95.4
2025-08-02T04:44	10	0	0.1	0	1	381	0.3	380	382	13.9	95.4
2025-08-02T04:45	10	0	0.1	0	0	381	0.2	380	381	13.9	95.6
2025-08-02T04:46	10	0	0.1	0	1	381	0.3	380	381	13.9	96.1
2025-08-02T04:47	10	0	0.1	0	1	381	0.2	380	381	13.9	96.4
2025-08-02T04:48	10	0	0.1	0	1	381	0.2	380	381	13.8	96.4
2025-08-02T04:49	10	0	0.2	0	1	381	0.2	380	381	13.8	96.6
2025-08-02T04:50	10	0	0.1	0	1	381	0.2	380	381	13.8	96.4
2025-08-02T04:51	10	0	0.1	0	0	380	0.2	380	381	13.8	96.8
2025-08-02T04:52	10	0	0.2	0	1	380	0.2	380	381	13.8	97.2
2025-08-02T04:53	10	0	0.1	0	1	381	0.3	380	381	13.7	96.5
2025-08-02T04:54	10	0	0.1	0	1	381	0.2	380	381	13.8	94.6
2025-08-02T04:55	10	0	0.1	0	1	380	0.2	380	381	13.9	96.0
2025-08-02T04:56	10	0	0.1	0	1	381	0.2	380	381	13.9	95.5
2025-08-02T04:57	10	0	0.1	0	1	381	0.2	380	381	13.9	96.3
2025-08-02T04:58	10	0	0.1	0	1	381	0.2	380	381	13.8	96.5
2025-08-02T04:59	10	0	0.1	0	1	381	0.2	380	381	13.8	96.3
2025-08-02T05:00	10	0	0.1	0	1	381	0.2	380	381	13.8	95.8
2025-08-02T05:01	10	0	0.1	0	1	381	0.2	380	381	13.8	95.6
2025-08-02T05:02	10	1	0.1	0	1	381	0.2	380	381	13.8	94.7
2025-08-02T05:03	10	1	0.1	0	1	380	0.3	380	381	13.8	94.0
2025-08-02T05:04	10	1	0.1	1	1	380	0.2	380	381	13.8	93.7
2025-08-02T05:05	10	1	0.1	1	1	380	0.2	380	381	13.8	92.8
2025-08-02T05:06	10	1	0.1	1	1	380	0.3	380	381	13.8	93.1
2025-08-02T05:07	10	1	0.1	1	1	380	0.3	379	381	13.8	93.5
2025-08-02T05:08	10	1	0.1	1	1	380	0.2	380	381	13.8	93.5
2025-08-02T05:09	10	1	0.1	1	1	380	0.2	379	380	13.8	94.2
2025-08-02T05:10	10	2	0.2	1	2	380	0.2	380	381	13.8	94.1
2025-08-02T05:11	10	2	0.1	2	2	380	0.2	380	381	13.7	94.4
2025-08-02T05:12	10	2	0.1	2	3	380	0.2	380	381	13.7	94.5
2025-08-02T05:13	10	3	0.1	2	3	380	0.2	380	381	13.7	94.6
2025-08-02T05:14	10	3	0.1	3	3	380	0.2	380	381	13.7	94.3
2025-08-02T05:15	10	3	0.1	3	3	380	0.2	380	381	13.7	93.7
2025-08-02T05:16	10	3	0.1	3	3	380	0.3	380	381	13.8	93.2
2025-08-02T05:17	10	3	0.0	3	3	381	0.2	380	381	13.8	93.2
2025-08-02T05:18	10	3	0.1	3	3	380	0.2	380	381	13.8	93.0
2025-08-02T05:19	10	3	0.1	3	3	381	0.3	380	381	13.8	92.7
2025-08-02T05:20	10	3	0.1	3	3	380	0.2	380	381	13.9	91.6
2025-08-02T05:21	10	3	0.1	3	3	380	0.2	380	381	13.8	92.6
2025-08-02T05:22	10	3	0.1	3	3	381	0.2	380	381	13.9	92.2
2025-08-02T05:23	10	3	0.1	2	3	380	0.2	380	381	13.9	91.8
2025-08-02T05:24	10	3	0.1	2	3	380	0.2	380	381	13.9	92.2
2025-08-02T05:25	10	2	0.1	2	3	380	0.3	379	381	13.8	92.9
2025-08-02T05:26	10	2	0.1	2	2	380	0.2	380	381	13.8	93.2
2025-08-02T05:27	10	2	0.1	2	3	380	0.2	380	381	13.8	93.0
2025-08-02T05:28	10	2	0.1	2	3	380	0.3	380	381	13.8	93.5
2025-08-02T05:29	10	3	0.1	2	3	380	0.2	380	381	13.8	93.9
2025-08-02T05:30	10	3	0.1	3	3	380	0.2	380	381	13.8	94.4
2025-08-02T05:31	10	3	0.1	3	3	381	0.2	380	381	13.8	94.2
2025-08-02T05:32	10	3	0.1	3	3	381	0.2	380	381	13.8	93.1
2025-08-02T05:33	10	3	0.1	3	4	380	0.2	380	381	13.8	92.7
2025-08-02T05:34	10	4	0.1	3	4	380	0.2	380	381	13.8	92.7
2025-08-02T05:35	10	4	0.1	4	4	381	0.3	380	381	13.9	92.7
2025-08-02T05:36	10	4	0.1	4	4	380	0.3	380	381	13.8	92.6
2025-08-02T05:37	10	4	0.1	4	4	380	0.3	380	381	13.8	92.9
2025-08-02T05:38	10	4	0.1	4	4	380	0.2	380	381	13.8	93.0
2025-08-02T05:39	10	4	0.1	4	4	380	0.2	380	381	13.8	93.2
2025-08-02T05:40	10	4	0.1	4	5	380	0.2	380	381	13.8	93.2
2025-08-02T05:41	10	5	0.1	4	5	381	0.2	380	381	13.8	93.4
2025-08-02T05:42	10	5	0.2	5	5	380	0.2	380	381	13.8	93.7
2025-08-02T05:43	10	5	0.1	5	6	381	0.2	380	381	13.8	94.0
2025-08-02T05:44	10	6	0.1	5	6	381	0.2	380	381	13.8	93.5
2025-08-02T05:45	10	6	0.1	6	6	381	0.3	380	381	13.8	93.5
2025-08-02T05:46	10	6	0.1	5	6	381	0.2	380	381	13.8	93.4
2025-08-02T05:47	10	6	0.1	5	6	381	0.2	380	381	13.8	93.3
2025-08-02T05:48	10	6	0.1	5	6	381	0.2	380	381	13.9	92.9
2025-08-02T05:49	10	6	0.1	6	6	381	0.2	380	381	13.8	93.4
2025-08-02T05:50	10	6	0.1	6	6	381	0.2	380	381	13.9	93.2
2025-08-02T05:51	10	6	0.1	6	6	381	0.2	380	381	13.9	93.0
2025-08-02T05:52	10	6	0.1	6	6	381	0.2	380	381	13.9	92.8
2025-08-02T05:53	10	6	0.1	6	6	381	0.3	381	382	13.9	92.9
2025-08-02T05:54	10	6	0.1	6	7	381	0.2	381	381	13.9	92.4
2025-08-02T05:55	10	7	0.1	6	7	381	0.2	380	381	13.9	92.3
2025-08-02T05:56	10	7	0.1	7	7	381	0.2	381	381	14.0	92.1
2025-08-02T05:57	10	7	0.1	7	8	381	0.2	381	382	13.9	92.5
2025-08-02T05:58	10	8	0.2	7	8	381	0.3	381	382	14.0	92.0
2025-08-02T05:59	10	8	0.2	8	8	382	0.3	381	382	14.0	92.1
2025-08-02T06:00	10	9	0.1	8	9	382	0.2	381	382	14.0	92.7
2025-08-02T06:01	10	9	0.2	9	10	382	0.2	381	382	14.0	92.2
2025-08-02T06:02	10	10	0.2	9	10	382	0.2	382	383	14.0	92.6
2025-08-02T06:03	10	10	0.1	10	11	382	0.3	382	383	14.0	92.7
2025-08-02T06:04	10	11	0.1	10	11	383	0.2	382	383	14.0	92.6
2025-08-02T06:05	10	11	0.1	11	11	383	0.2	382	383	14.0	92.4
2025-08-02T06:06	10	11	0.1	11	11	383	0.2	382	383	14.1	91.2
2025-08-02T06:07	10	11	0.1	11	11	383	0.3	382	383	14.1	91.1
2025-08-02T06:08	10	11	0.1	11	12	383	0.2	383	384	14.1	91.0
2025-08-02T06:09	10	12	0.1	12	12	383	0.2	383	384	14.2	90.7
2025-08-02T06:10	10	12	0.1	12	12	383	0.2	383	384	14.2	91.3
2025-08-02T06:11	10	12	0.1	12	12	384	0.2	383	384	14.1	91.8
2025-08-02T06:12	10	12	0.1	12	12	384	0.2	384	384	14.1	92.2
2025-08-02T06:13	10	12	0.1	12	12	384	0.2	384	385	14.1	91.5
2025-08-02T06:14	10	12	0.1	12	12	384	0.2	384	385	14.1	91.6
2025-08-02T06:15	10	12	0.1	12	12	384	0.3	384	385	14.1	91.6
2025-08-02T06:16	10	12	0.1	12	12	384	0.2	384	385	14.1	91.5
2025-08-02T06:17	10	12	0.1	12	12	384	0.3	383	385	14.1	92.4
2025-08-02T06:18	10	12	0.2	12	13	384	0.2	384	385	14.1	92.8
2025-08-02T06:19	10	13	0.2	12	13	385	0.2	384	385	14.1	92.6
2025-08-02T06:20	10	13	0.3	13	14	385	0.2	384	385	14.1	92.3
2025-08-02T06:21	10	14	0.3	14	15	385	0.2	385	386	14.1	93.1
2025-08-02T06:22	10	15	0.3	15	16	386	0.2	385	386	14.1	93.7
2025-08-02T06:23	10	16	0.3	16	17	386	0.2	386	386	14.1	93.6
2025-08-02T06:24	10	17	0.3	17	18	386	0.3	386	387	14.1	93.3
2025-08-02T06:25	10	18	0.2	18	19	387	0.2	386	387	14.1	92.9
2025-08-02T06:26	10	19	0.2	18	19	387	0.3	387	388	14.1	93.0
2025-08-02T06:27	10	20	0.2	19	20	388	0.3	387	388	14.1	92.9
2025-08-02T06:28	10	20	0.2	20	20	388	0.2	388	388	14.2	92.5
2025-08-02T06:29	10	21	0.2	20	21	388	0.3	388	389	14.2	92.6
2025-08-02T06:30	10	21	0.1	21	21	388	0.1	388	389	14.2	90.7
2025-08-02T06:31	10	21	0.1	21	22	388	0.2	388	389	14.3	90.3
2025-08-02T06:32	10	22	0.2	22	22	389	0.4	388	389	14.3	90.6
2025-08-02T06:33	10	22	0.2	22	23	389	0.2	388	390	14.3	91.2
2025-08-02T06:34	10	23	0.3	23	24	390	0.2	389	390	14.3	91.8
2025-08-02T06:35	10	24	0.3	24	25	390	0.3	389	391	14.3	91.2
2025-08-02T06:36	10	25	0.3	25	26	390	0.3	390	391	14.4	91.9
2025-08-02T06:37	10	26	0.2	26	26	391	0.2	391	392	14.4	92.2
2025-08-02T06:38	10	27	0.2	26	27	392	0.2	391	392	14.4	92.3
2025-08-02T06:39	10	27	0.1	27	28	392	0.3	392	393	14.4	91.8
2025-08-02T06:40	10	28	0.2	27	28	392	0.3	392	393	14.5	90.3
2025-08-02T06:41	10	28	0.4	28	29	393	0.2	392	393	14.6	90.0
2025-08-02T06:42	10	30	0.4	29	30	393	0.2	393	394	14.7	89.3
2025-08-02T06:43	10	31	0.3	30	31	393	0.2	393	394	14.8	90.8
2025-08-02T06:44	10	32	0.3	31	32	394	0.2	394	395	14.8	90.6
2025-08-02T06:45	10	33	0.2	32	33	394	0.3	394	395	14.8	89.6
2025-08-02T06:46	10	34	0.3	33	34	395	0.3	394	395	14.9	88.3
2025-08-02T06:47	10	34	0.1	34	34	395	0.2	394	396	14.9	88.4
2025-08-02T06:48	10	34	0.1	34	34	395	0.2	395	396	15.0	88.5
2025-08-02T06:49	10	34	0.4	33	34	396	0.3	395	396	15.0	87.9
2025-08-02T06:50	10	33	0.2	32	33	396	0.4	395	397	15.1	86.4
2025-08-02T06:51	10	32	0.3	31	32	395	0.3	395	396	15.1	85.4
2025-08-02T06:52	10	32	0.1	31	32	396	0.3	395	396	15.1	86.7
2025-08-02T06:53	10	32	0.1	31	32	396	0.2	395	396	15.1	86.0
2025-08-02T06:54	10	32	0.2	31	32	396	0.3	395	397	15.2	87.8
2025-08-02T06:55	10	32	0.3	32	33	396	0.2	395	396	15.1	89.0
2025-08-02T06:56	10	33	0.2	33	33	396	0.2	396	396	15.1	89.8
2025-08-02T06:57	10	33	0.4	32	34	397	0.2	396	397	15.0	90.5
2025-08-02T06:58	10	32	0.2	31	33	397	0.3	396	397	15.1	89.1
2025-08-02T06:59	10	30	0.8	29	32	397	0.3	397	398	15.1	90.3
2025-08-02T07:00	10	28	0.5	27	29	397	0.4	396	398	15.1	88.3
2025-08-02T07:01	10	26	0.6	25	28	397	0.3	396	398	15.2	88.7
2025-08-02T07:02	10	24	0.7	23	26	396	0.3	395	397	15.2	87.9
2025-08-02T07:03	10	22	0.6	21	23	396	0.2	395	396	15.2	89.5
2025-08-02T07:04	10	21	0.4	20	21	395	0.6	394	396	15.1	90.7
2025-08-02T07:05	10	20	0.3	19	20	394	0.3	393	395	15.1	90.3
2025-08-02T07:06	10	19	0.2	19	20	394	0.2	393	394	15.1	91.2
2025-08-02T07:07	10	19	0.2	19	20	394	0.2	394	395	15.1	91.6
2025-08-02T07:08	10	19	0.2	19	20	394	0.4	393	395	15.0	91.2
2025-08-02T07:09	10	19	0.1	19	19	393	0.3	393	394	14.9	90.4
2025-08-02T07:10	10	19	0.1	19	19	393	0.3	392	394	15.0	91.1
2025-08-02T07:11	10	19	0.2	18	19	393	0.3	392	393	15.0	91.6
2025-08-02T07:12	10	19	0.2	18	19	393	0.3	392	393	15.0	89.8
2025-08-02T07:13	10	19	0.1	18	19	392	0.2	392	393	15.1	88.8
2025-08-02T07:14	10	19	0.1	19	19	393	0.3	392	393	15.1	88.5
2025-08-02T07:15	10	19	0.2	19	20	393	0.2	392	394	15.1	88.4
2025-08-02T07:16	10	19	0.2	19	20	393	0.2	392	393	15.1	87.8
2025-08-02T07:17	10	20	0.2	20	20	393	0.2	392	393	15.1	88.3
2025-08-02T07:18	10	20	0.1	20	21	393	0.2	393	394	15.1	88.1
2025-08-02T07:19	10	20	0.1	20	20	393	0.2	393	394	15.1	89.1
2025-08-02T07:20	10	20	0.1	20	20	393	0.3	393	394	15.2	89.2
2025-08-02T07:21	10	20	0.1	20	20	393	0.2	393	394	15.2	89.6
2025-08-02T07:22	10	20	0.1	20	20	393	0.1	393	393	15.2	90.2
2025-08-02T07:23	10	21	0.2	20	21	394	0.2	393	394	15.2	90.5
2025-08-02T07:24	10	21	0.2	21	22	394	0.3	393	395	15.2	90.3
2025-08-02T07:25	10	22	0.3	22	23	394	0.2	393	394	15.1	90.2
2025-08-02T07:26	10	24	0.4	23	25	394	0.2	393	394	15.1	89.9
2025-08-02T07:27	10	25	0.5	25	26	394	0.2	394	394	15.1	90.2
2025-08-02T07:28	10	28	0.7	26	29	394	0.3	394	395	15.1	90.4
2025-08-02T07:29	10	29	0.4	29	30	395	0.3	394	395	15.1	90.0
2025-08-02T07:30	10	31	0.6	30	32	395	0.3	394	396	15.1	90.4
2025-08-02T07:31	10	33	1.2	32	36	396	0.3	395	397	15.1	90.4
2025-08-02T07:32	10	44	4.4	37	50	397	0.8	396	399	15.2	90.6
2025-08-02T07:33	10	51	10.1	41	72	399	1.2	398	402	15.2	91.1
2025-08-02T07:34	10	44	7.6	40	65	401	0.6	400	402	15.4	91.6
2025-08-02T07:35	10	44	3.3	40	50	401	0.5	400	402	15.4	90.1
2025-08-02T07:36	10	76	26.0	48	118	404	1.6	401	407	15.5	90.0
2025-08-02T07:37	10	55	11.0	47	81	404	0.6	403	405	15.6	90.0
2025-08-02T07:38	10	70	10.3	52	91	405	0.7	403	406	15.6	90.0
2025-08-02T07:39	10	80	21.7	52	115	406	1.9	404	409	15.6	88.0
2025-08-02T07:40	10	67	7.5	53	82	408	0.7	406	409	15.7	89.1
2025-08-02T07:41	10	53	1.2	51	55	406	0.7	405	407	15.7	87.8
2025-08-02T07:42	10	63	16.8	51	112	405	0.6	405	408	15.9	88.3
2025-08-02T07:43	10	88	14.6	74	116	410	0.7	407	411	15.9	87.7
2025-08-02T07:44	10	61	12.4	47	82	410	1.8	407	412	16.1	88.7
2025-08-02T07:45	10	45	0.9	44	48	405	1.7	402	408	16.0	85.6
2025-08-02T07:46	10	50	8.4	44	84	402	0.5	401	404	15.9	83.4
2025-08-02T07:47	10	133	10.3	91	139	409	3.7	402	414	16.0	85.0
2025-08-02T07:48	10	126	7.0	107	132	414	0.5	413	415	16.1	85.1
2025-08-02T07:49	10	96	19.0	75	134	412	1.4	410	415	16.1	85.3
2025-08-02T07:50	10	132	10.3	96	137	417	1.7	413	419	16.2	86.2
2025-08-02T07:51	10	64	24.2	40	105	413	3.6	407	418	16.3	84.7
2025-08-02T07:52	10	38	2.0	35	41	406	1.5	404	409	16.2	81.9
2025-08-02T07:53	10	33	1.1	31	35	403	1.3	400	405	16.1	81.6
2025-08-02T07:54	10	30	0.5	30	31	400	1.1	398	402	16.0	81.4
2025-08-02T07:55	10	29	0.3	29	30	399	0.3	398	399	16.0	83.0
2025-08-02T07:56	10	29	0.2	29	30	398	0.4	397	399	16.0	81.3
2025-08-02T07:57	10	28	0.3	28	29	397	0.6	396	398	16.0	80.3
2025-08-02T07:58	10	27	0.4	26	28	396	0.4	395	397	16.0	81.0
2025-08-02T07:59	10	26	0.2	26	27	395	0.4	394	396	16.0	80.4
2025-08-02T08:00	10	26	0.2	26	26	395	0.4	394	395	15.9	81.7
2025-08-02T08:01	10	28	2.0	27	35	395	0.3	394	395	15.9	81.5
2025-08-02T08:02	10	108	30.4	37	132	401	5.5	393	410	15.9	81.6
2025-08-02T08:03	10	91	25.3	55	132	409	0.6	408	410	16.0	81.0
2025-08-02T08:04	10	105	23.3	68	134	411	2.8	407	414	16.2	79.8
2025-08-02T08:05	10	60	19.7	41	103	409	2.7	405	413	16.3	76.5
2025-08-02T08:06	10	75	31.2	31	112	408	1.6	405	410	16.3	73.6
2025-08-02T08:07	10	29	0.8	29	31	403	1.6	400	406	16.4	74.0
2025-08-02T08:08	10	30	0.9	29	32	400	0.4	399	401	16.4	73.8
2025-08-02T08:09	10	33	1.0	32	35	400	0.2	399	400	16.5	75.1
2025-08-02T08:10	10	42	5.2	34	50	401	0.4	400	402	16.5	76.9
2025-08-02T08:11	10	71	34.4	42	141	403	2.5	401	410	16.4	76.9
2025-08-02T08:12	10	142	1.2	136	144	414	2.8	408	418	16.5	75.8
2025-08-02T08:13	10	138	6.3	124	145	417	0.9	415	418	16.6	70.7
2025-08-02T08:14	10	49	25.6	35	127	412	4.5	405	419	16.8	68.9
2025-08-02T08:15	10	34	0.3	34	35	403	2.5	399	408	16.7	63.0
2025-08-02T08:16	10	34	0.1	34	35	399	0.6	398	400	16.6	65.1
2025-08-02T08:17	10	35	0.6	34	36	397	0.5	397	399	16.6	65.0
2025-08-02T08:18	10	58	17.0	37	81	399	2.0	397	402	16.5	66.3
2025-08-02T08:19	10	55	5.8	47	64	402	0.3	401	402	16.5	66.0
2025-08-02T08:20	10	95	38.5	48	144	404	3.2	400	410	16.5	65.6
2025-08-02T08:21	10	140	1.9	137	143	411	2.0	407	415	16.6	64.1
2025-08-02T08:22	10	136	0.5	135	137	415	0.6	414	416	16.7	64.7
2025-08-02T08:23	10	135	0.1	135	135	416	0.4	415	416	16.8	64.4
2025-08-02T08:24	10	135	0.2	134	135	418	1.4	416	420	17.0	65.9
2025-08-02T08:25	10	134	0.1	134	134	419	0.5	418	421	17.1	66.0
2025-08-02T08:26	10	134	0.1	133	134	421	0.6	420	422	17.3	66.4
2025-08-02T08:27	10	133	0.1	133	134	422	0.8	421	424	17.4	65.9
2025-08-02T08:28	10	133	0.1	133	133	425	0.5	424	426	17.6	67.5
2025-08-02T08:29	10	133	0.1	133	133	423	2.2	420	426	17.5	64.8
2025-08-02T08:30	10	133	0.1	133	133	420	0.3	420	421	17.3	64.4
2025-08-02T08:31	10	133	0.1	133	133	422	1.0	420	424	17.2	65.0
2025-08-02T08:32	10	133	0.1	133	133	425	0.5	424	426	17.5	67.0
2025-08-02T08:33	10	133	0.1	133	133	424	0.3	423	424	17.5	64.8
2025-08-02T08:34	10	133	0.1	133	134	423	0.6	422	425	17.5	63.4
2025-08-02T08:35	10	134	0.1	134	134	421	1.2	419	423	17.5	63.3
2025-08-02T08:36	10	134	0.1	134	134	421	0.3	420	421	17.5	63.6
2025-08-02T08:37	10	133	0.8	132	134	423	0.4	422	423	17.6	64.7
2025-08-02T08:38	10	134	0.1	134	135	423	0.3	423	424	17.9	66.1
2025-08-02T08:39	10	135	0.2	134	135	423	0.5	422	425	17.8	62.5
2025-08-02T08:40	10	135	0.2	135	135	425	0.4	425	426	17.7	62.4
2025-08-02T08:41	10	136	0.2	135	136	426	0.5	425	427	17.8	62.8
2025-08-02T08:42	10	136	0.7	136	138	428	1.1	426	429	17.8	62.5
2025-08-02T08:43	10	138	0.1	137	138	429	0.4	428	429	17.8	61.4
2025-08-02T08:44	10	138	0.2	137	138	429	0.3	429	430	17.8	61.5
2025-08-02T08:45	10	138	0.2	137	138	429	0.7	428	431	17.8	62.1
2025-08-02T08:46	10	138	0.2	138	139	428	1.0	426	430	17.9	63.0
2025-08-02T08:47	10	139	0.4	139	140	427	0.5	427	429	18.0	62.3
2025-08-02T08:48	10	140	0.4	140	141	428	0.8	427	429	17.6	61.9
2025-08-02T08:49	10	142	0.7	141	143	429	0.6	427	430	17.8	61.5
2025-08-02T08:50	10	144	0.4	143	145	428	0.4	427	428	17.6	59.3
2025-08-02T08:51	10	145	0.4	145	146	428	0.5	427	429	17.5	59.9
2025-08-02T08:52	10	147	0.7	146	149	428	0.5	427	428	17.6	60.1
2025-08-02T08:53	10	150	0.7	149	151	428	0.5	427	429	17.5	60.2
2025-08-02T08:54	10	141	6.7	120	151	427	1.3	424	428	17.5	60.3
2025-08-02T08:55	10	129	38.0	51	159	423	2.8	418	428	17.4	59.7
2025-08-02T08:56	10	159	0.9	158	161	428	0.8	427	430	17.4	60.2
2025-08-02T08:57	10	165	2.3	161	169	432	2.0	429	435	17.6	61.0
2025-08-02T08:58	10	173	2.8	169	178	437	1.6	434	440	17.6	60.0
2025-08-02T08:59	10	131	45.3	66	178	437	4.4	428	442	17.7	60.9
2025-08-02T09:00	10	65	0.4	64	66	424	3.7	418	431	17.8	61.6
2025-08-02T09:01	10	89	16.3	66	121	419	0.8	417	421	17.9	61.1
2025-08-02T09:02	10	85	8.2	74	100	418	0.6	417	420	17.7	60.8
2025-08-02T09:03	10	59	5.4	55	76	417	0.7	416	419	17.7	62.5
2025-08-02T09:04	10	84	37.8	55	161	416	2.3	414	423	17.8	61.6
2025-08-02T09:05	10	74	30.6	51	141	421	2.5	417	424	17.6	62.3
2025-08-02T09:06	10	50	0.3	50	51	416	0.9	414	418	17.6	61.4
2025-08-02T09:07	10	52	1.1	50	54	413	0.3	413	414	17.6	61.6
2025-08-02T09:08	10	55	0.6	54	56	413	0.2	413	414	17.5	60.1
2025-08-02T09:09	10	49	2.6	44	53	412	0.7	411	414	17.4	59.9
2025-08-02T09:10	10	42	1.1	40	44	411	0.3	410	411	17.5	61.5
2025-08-02T09:11	10	39	0.5	38	40	410	0.3	410	411	17.7	63.0
2025-08-02T09:12	10	38	0.2	38	38	408	0.8	406	410	17.6	61.2
2025-08-02T09:13	10	37	0.3	37	38	407	0.2	406	408	17.7	62.9
2025-08-02T09:14	10	36	0.4	35	37	406	0.2	406	407	17.6	61.7
2025-08-02T09:15	10	35	0.4	34	36	406	0.3	405	406	17.6	61.3
2025-08-02T09:16	10	35	0.4	34	35	405	0.2	405	406	17.6	61.4
2025-08-02T09:17	10	39	2.8	35	48	406	0.5	405	407	17.5	61.8
2025-08-02T09:18	10	146	33.4	50	167	418	8.4	404	430	17.6	62.3
2025-08-02T09:19	10	167	0.6	166	168	431	1.6	427	433	17.7	61.2
2025-08-02T09:20	10	170	0.9	168	171	434	0.9	431	435	17.7	59.5
2025-08-02T09:21	10	172	0.4	171	172	435	1.2	433	437	17.6	58.3
2025-08-02T09:22	10	164	11.5	144	173	437	1.8	433	440	17.7	58.9
2025-08-02T09:23	10	171	4.5	154	175	435	1.1	433	436	17.7	58.2
2025-08-02T09:24	10	127	29.3	82	176	433	3.4	428	437	17.7	58.4
2025-08-02T09:25	10	59	27.8	40	142	425	4.9	417	432	17.9	59.5
2025-08-02T09:26	10	40	0.3	40	41	417	2.1	413	420	17.9	59.2
2025-08-02T09:27	10	44	1.9	41	48	412	1.1	410	414	17.6	58.6
2025-08-02T09:28	10	54	3.3	48	63	411	0.3	410	412	17.6	59.4
2025-08-02T09:29	10	76	21.9	47	110	414	1.6	411	417	17.6	58.5
2025-08-02T09:30	10	42	3.0	37	47	413	0.7	411	414	17.7	59.5
2025-08-02T09:31	10	35	1.2	33	37	410	0.8	409	412	17.7	58.8
2025-08-02T09:32	10	32	0.3	32	33	409	0.8	407	410	17.6	58.9
2025-08-02T09:33	10	33	0.2	32	33	406	0.5	405	407	17.5	58.6
2025-08-02T09:34	10	33	0.2	33	34	406	0.5	405	407	17.5	58.8
2025-08-02T09:35	10	34	0.5	34	35	406	0.3	406	407	17.5	56.3
2025-08-02T09:36	10	36	0.4	35	37	407	0.4	405	407	17.5	57.3
2025-08-02T09:37	10	36	0.1	36	37	406	0.4	406	407	16.2	59.3
2025-08-02T09:38	10	35	0.6	34	36	405	0.4	404	406	17.5	59.3
2025-08-02T09:39	10	33	0.5	32	34	404	0.6	403	405	17.5	59.3
2025-08-02T09:40	10	32	0.1	32	33	403	0.4	402	404	17.5	59.3
2025-08-02T09:41	10	33	0.2	33	33	403	0.2	403	404	17.5	59.3
2025-08-02T09:42	10	33	0.5	32	33	403	0.5	402	404	17.5	59.4
2025-08-02T09:43	10	31	0.2	31	32	403	0.2	403	404	17.6	59.8
2025-08-02T09:44	10	31	0.1	30	31	404	0.2	403	404	17.7	60.3
2025-08-02T09:45	10	30	0.2	30	31	404	0.2	403	404	17.7	61.6
2025-08-02T09:46	10	32	0.6	31	33	404	0.3	404	405	17.7	62.5
2025-08-02T09:47	10	34	0.8	33	35	404	0.3	403	405	17.7	59.3
2025-08-02T09:48	10	37	1.0	35	39	405	0.5	404	406	17.6	59.6
2025-08-02T09:49	10	40	0.5	39	41	406	0.6	405	407	17.7	60.6
2025-08-02T09:50	10	40	0.2	40	41	408	0.2	407	408	17.7	57.7
2025-08-02T09:51	10	40	0.1	40	40	408	0.3	407	409	17.7	55.9
2025-08-02T09:52	10	41	0.9	40	43	408	0.2	408	409	17.7	55.7
2025-08-02T09:53	10	48	4.2	43	63	410	0.8	409	411	17.7	56.1
2025-08-02T09:54	10	164	37.4	65	185	424	9.2	408	437	17.8	58.4
2025-08-02T09:55	10	186	0.6	185	187	439	2.7	434	443	18.0	57.9
2025-08-02T09:56	10	187	0.2	187	187	443	0.9	442	445	18.3	57.0
2025-08-02T09:57	10	135	55.7	53	188	441	5.6	430	447	18.4	56.4
2025-08-02T09:58	10	51	2.0	48	55	426	3.5	421	433	18.3	56.5
2025-08-02T09:59	10	47	1.0	45	48	420	1.6	417	423	18.2	56.3
2025-08-02T10:00	10	46	1.0	45	49	417	0.7	416	419	18.2	57.0
2025-08-02T10:01	10	59	5.1	49	68	418	0.6	417	419	18.3	59.1
2025-08-02T10:02	10	114	32.5	68	169	422	3.7	418	430	18.1	56.8
2025-08-02T10:03	10	172	1.8	168	174	435	3.4	428	440	18.0	57.3
2025-08-02T10:04	10	171	0.7	167	172	440	0.6	438	441	18.1	57.8
2025-08-02T10:05	10	156	9.2	139	167	438	0.9	437	440	18.1	57.2
2025-08-02T10:06	10	167	4.3	151	170	439	0.9	438	441	18.1	56.7
2025-08-02T10:07	10	70	39.0	39	157	432	7.4	423	444	18.2	58.5
2025-08-02T10:08	10	163	20.5	87	174	434	4.3	424	439	18.3	57.4
2025-08-02T10:09	10	86	33.5	50	160	432	5.6	422	440	18.0	56.8
2025-08-02T10:10	10	43	3.6	41	59	420	2.9	416	426	18.0	56.5
2025-08-02T10:11	10	147	27.8	64	177	425	5.6	415	434	18.1	56.9
2025-08-02T10:12	10	175	4.6	159	177	439	3.0	433	443	18.2	57.8
2025-08-02T10:13	10	105	21.4	82	157	436	3.9	431	443	18.3	54.4
2025-08-02T10:14	10	62	9.3	52	80	427	3.0	424	433	18.4	53.8
2025-08-02T10:15	10	55	6.7	47	69	423	2.0	420	426	18.2	55.2
2025-08-02T10:16	10	69	13.7	53	99	421	1.1	420	424	18.1	55.7
2025-08-02T10:17	10	83	14.5	64	108	425	1.5	421	427	18.2	56.8
2025-08-02T10:18	10	82	20.4	61	130	425	1.3	423	428	18.2	56.3
2025-08-02T10:19	10	49	4.1	46	67	419	2.7	416	424	18.2	56.8
2025-08-02T10:20	10	51	16.2	39	91	416	1.5	414	419	18.2	56.7
2025-08-02T10:21	10	36	1.4	34	39	412	1.6	410	415	18.0	56.4
2025-08-02T10:22	10	34	0.2	34	35	409	1.0	407	411	17.8	56.3
2025-08-02T10:23	10	36	0.8	35	38	408	0.2	407	408	17.8	56.1
2025-08-02T10:24	10	41	2.8	38	49	408	0.4	407	409	17.8	56.1
2025-08-02T10:25	10	40	0.6	39	41	409	0.5	408	410	17.8	56.9
2025-08-02T10:26	10	41	0.2	40	41	410	0.4	410	411	17.9	57.0
2025-08-02T10:27	10	40	0.3	40	41	411	0.4	410	412	17.9	57.1
2025-08-02T10:28	10	56	30.5	41	164	412	1.5	410	418	17.9	56.0
2025-08-02T10:29	10	183	2.4	170	185	431	7.4	414	441	17.9	56.3
2025-08-02T10:30	10	184	0.4	183	185	442	2.2	438	445	18.1	56.6
2025-08-02T10:31	10	176	11.1	150	188	446	1.1	444	447	18.3	55.9
2025-08-02T10:32	10	96	26.6	62	153	438	5.5	429	447	18.5	57.0
2025-08-02T10:33	10	50	3.9	47	62	426	3.1	421	432	18.5	55.8
2025-08-02T10:34	10	51	4.0	48	58	421	1.4	419	424	18.3	54.9
2025-08-02T10:35	10	127	62.4	55	192	425	7.5	418	439	18.1	55.1
2025-08-02T10:36	10	190	0.1	190	190	443	3.2	436	447	18.2	54.9
2025-08-02T10:37	10	190	0.2	190	190	449	1.2	446	450	18.3	55.3
2025-08-02T10:38	10	188	0.8	187	189	450	1.0	447	451	18.3	55.4
2025-08-02T10:39	10	186	0.3	186	187	447	0.8	446	449	18.4	55.1
2025-08-02T10:40	10	186	0.2	186	187	451	1.2	449	453	18.7	54.8
2025-08-02T10:41	10	186	0.1	186	187	453	0.3	453	454	18.7	55.4
2025-08-02T10:42	10	187	0.6	187	188	455	0.5	453	456	18.9	56.5
2025-08-02T10:43	10	189	0.4	188	190	454	0.3	453	455	18.7	54.9
2025-08-02T10:44	10	190	0.2	189	190	454	0.5	452	455	18.5	54.3
2025-08-02T10:45	10	190	0.4	190	191	455	0.4	454	456	18.6	54.9
2025-08-02T10:46	10	181	12.9	154	192	455	1.2	453	457	18.9	56.1
2025-08-02T10:47	10	191	0.1	191	192	458	0.5	456	459	19.1	53.5
2025-08-02T10:48	10	189	3.8	178	191	458	1.0	455	459	19.0	51.2
2025-08-02T10:49	10	184	4.2	178	190	454	0.6	453	456	18.8	50.6
2025-08-02T10:50	10	191	1.0	188	192	455	0.7	454	457	18.8	50.8
2025-08-02T10:51	10	193	0.7	192	195	458	0.7	457	459	19.2	52.4
2025-08-02T10:52	10	191	12.0	172	206	457	1.1	454	458	19.0	51.2
2025-08-02T10:53	10	191	34.5	92	207	459	1.9	453	461	19.0	50.6
2025-08-02T10:54	10	99	15.2	81	142	445	5.1	439	456	18.8	49.6
2025-08-02T10:55	10	199	15.6	148	211	451	5.0	441	458	18.7	48.8
2025-08-02T10:56	10	211	4.7	197	215	459	0.9	456	460	18.9	49.1
2025-08-02T10:57	10	98	42.0	65	192	449	8.2	438	462	18.8	48.5
2025-08-02T10:58	10	66	0.7	65	68	436	2.3	433	441	18.8	48.8
2025-08-02T10:59	10	65	0.7	64	67	431	1.6	428	434	18.8	49.1
2025-08-02T11:00	10	64	0.3	63	64	427	0.7	425	428	18.7	49.7
2025-08-02T11:01	10	63	0.4	62	64	425	0.4	425	426	18.7	49.5
2025-08-02T11:02	10	61	0.6	60	62	425	0.6	424	426	18.6	49.7
2025-08-02T11:03	10	60	0.3	59	60	424	0.4	423	425	18.7	49.5
2025-08-02T11:04	10	60	0.4	59	61	425	0.3	424	425	18.7	49.7
2025-08-02T11:05	10	61	0.5	61	63	424	0.3	423	424	18.7	49.7
2025-08-02T11:06	10	64	1.2	62	67	424	0.9	422	426	18.7	50.0
2025-08-02T11:07	10	75	9.9	66	103	426	0.6	425	428	18.8	50.9
2025-08-02T11:08	10	71	6.9	68	101	427	0.6	426	428	18.9	50.6
2025-08-02T11:09	10	71	1.1	69	72	426	0.9	424	427	18.8	50.4
2025-08-02T11:10	10	67	2.8	61	70	425	0.3	424	425	18.8	51.0
2025-08-02T11:11	10	57	2.0	54	61	423	0.8	422	425	18.7	50.7
2025-08-02T11:12	10	53	0.6	52	54	422	0.2	422	423	18.7	51.1
2025-08-02T11:13	10	52	0.2	52	52	422	0.3	421	422	18.8	50.8
2025-08-02T11:14	10	51	0.2	51	52	421	0.3	421	422	18.9	51.3
2025-08-02T11:15	10	51	0.4	50	51	422	0.2	421	422	19.0	52.0
2025-08-02T11:16	10	50	0.2	49	50	421	0.2	421	422	19.0	51.1
2025-08-02T11:17	10	48	0.7	47	49	421	0.2	421	422	19.0	51.6
2025-08-02T11:18	10	46	0.8	44	47	420	0.4	420	421	19.0	53.2
2025-08-02T11:19	10	43	0.7	42	44	419	0.3	418	420	18.9	50.8
2025-08-02T11:20	10	41	0.3	40	42	419	0.2	418	419	19.0	52.9
2025-08-02T11:21	10	41	0.1	40	41	417	0.6	416	418	18.9	53.1
2025-08-02T11:22	10	41	0.3	41	42	416	0.3	415	417	18.8	52.2
2025-08-02T11:23	10	42	0.2	42	43	416	0.4	415	417	18.8	52.7
2025-08-02T11:24	10	42	0.4	41	43	415	0.6	414	416	18.7	52.9
2025-08-02T11:25	10	41	0.2	41	41	415	0.3	415	416	18.8	53.0
2025-08-02T11:26	10	40	0.2	40	41	416	0.3	415	416	18.9	54.1
2025-08-02T11:27	10	40	0.3	39	40	415	0.5	413	416	18.9	54.4
2025-08-02T11:28	10	39	0.2	39	39	414	0.2	413	414	18.7	52.5
2025-08-02T11:29	10	39	0.1	39	39	414	0.3	414	415	18.7	53.1
2025-08-02T11:30	10	39	0.1	39	40	414	0.5	413	415	18.7	52.8
2025-08-02T11:31	10	39	0.1	39	39	413	0.3	412	414	18.7	54.7
2025-08-02T11:32	10	38	0.3	38	39	412	0.5	411	413	18.7	51.8
2025-08-02T11:33	10	37	0.3	37	38	411	0.2	411	411	18.7	51.9
2025-08-02T11:34	10	36	0.4	35	37	411	0.2	410	411	18.7	51.9
2025-08-02T11:35	10	35	0.4	34	35	411	0.2	410	411	18.6	51.9
2025-08-02T11:36	10	34	0.3	33	34	411	0.3	410	411	18.6	52.0
2025-08-02T11:37	10	33	0.4	32	33	410	0.3	410	411	18.6	51.2
2025-08-02T11:38	10	31	0.3	31	32	410	0.3	409	411	18.7	51.5
2025-08-02T11:39	10	30	0.2	30	31	411	0.3	410	412	18.6	51.0
2025-08-02T11:40	10	30	0.1	30	30	411	0.3	411	412	18.6	51.5
2025-08-02T11:41	10	30	0.1	29	30	411	0.3	411	412	18.7	51.4
2025-08-02T11:42	10	29	0.1	29	30	410	0.4	409	411	18.7	51.3
2025-08-02T11:43	10	29	0.1	29	30	410	0.6	408	410	18.7	52.6
2025-08-02T11:44	10	29	0.1	29	30	407	0.7	406	409	18.2	57.0
2025-08-02T11:45	10	29	0.1	29	29	405	0.6	404	407	17.9	58.5
2025-08-02T11:46	10	29	0.2	28	29	404	0.5	403	405	17.5	60.1
2025-08-02T11:47	10	28	0.2	28	29	403	0.3	402	403	17.3	60.5
2025-08-02T11:48	10	28	0.1	28	28	402	0.3	402	403	17.2	61.1
2025-08-02T11:49	10	28	0.1	28	28	402	0.3	402	403	17.2	61.6
2025-08-02T11:50	10	28	0.1	28	28	401	0.3	401	402	17.1	62.9
2025-08-02T11:51	10	29	0.1	28	29	400	0.3	400	401	17.0	64.4
2025-08-02T11:52	10	29	0.1	29	30	400	0.3	399	400	16.9	67.5
2025-08-02T11:53	10	30	0.1	29	30	398	0.6	397	399	16.8	67.4
2025-08-02T11:54	10	30	0.1	30	30	397	0.3	396	397	16.7	67.4
2025-08-02T11:55	10	31	0.2	30	31	396	0.4	395	396	16.5	68.8
2025-08-02T11:56	10	31	0.2	31	32	395	0.3	395	396	16.5	68.7
2025-08-02T11:57	10	32	0.2	32	32	395	0.5	394	396	16.4	68.8
2025-08-02T11:58	10	33	0.4	32	34	395	0.6	394	396	16.4	69.8
2025-08-02T11:59	10	35	0.7	34	36	396	0.6	395	397	16.4	70.1
2025-08-02T12:00	10	38	0.8	36	39	396	0.3	396	397	16.4	69.5
2025-08-02T12:01	10	40	0.9	39	42	396	0.9	395	398	16.4	70.4
2025-08-02T12:02	10	43	1.0	42	45	399	0.9	397	400	16.4	71.8
2025-08-02T12:03	10	46	1.1	45	48	399	0.7	398	400	16.4	70.4
2025-08-02T12:04	10	50	0.8	48	51	401	0.7	399	402	16.4	70.1
2025-08-02T12:05	10	52	0.8	51	54	403	1.0	401	404	16.5	70.5
2025-08-02T12:06	10	54	0.3	54	55	403	0.5	402	404	16.7	67.2
2025-08-02T12:07	10	55	0.3	54	55	404	1.0	403	406	16.8	67.9
2025-08-02T12:08	10	56	0.2	55	56	406	0.4	405	407	16.9	66.0
2025-08-02T12:09	10	55	0.2	55	56	408	0.7	406	409	16.9	65.3
2025-08-02T12:10	10	55	0.1	55	55	409	0.4	408	410	17.0	67.8
2025-08-02T12:11	10	55	0.1	55	55	410	0.3	410	411	17.1	68.5
2025-08-02T12:12	10	55	0.1	54	55	411	0.2	410	411	17.0	69.3
2025-08-02T12:13	10	54	0.1	54	55	411	0.4	410	411	17.0	66.9
2025-08-02T12:14	10	54	0.1	54	55	411	0.3	410	412	17.1	66.6
2025-08-02T12:15	10	55	0.4	54	56	411	0.4	411	412	17.1	68.4
2025-08-02T12:16	10	57	1.2	56	60	412	0.2	411	412	17.1	67.5
2025-08-02T12:17	10	65	4.5	60	76	412	0.5	411	414	17.1	67.5
2025-08-02T12:18	10	114	24.4	76	141	418	3.9	413	423	17.3	69.4
2025-08-02T12:19	10	75	14.0	66	117	420	1.9	418	424	17.4	65.5
2025-08-02T12:20	10	67	0.4	66	68	417	1.0	415	419	17.5	62.3
2025-08-02T12:21	10	65	0.6	65	67	416	0.2	415	417	17.5	62.5
2025-08-02T12:22	10	64	0.2	64	65	417	0.4	416	417	17.6	63.5
2025-08-02T12:23	10	65	0.2	64	65	417	0.2	416	417	17.8	65.3
2025-08-02T12:24	10	65	0.1	65	65	417	0.3	416	418	17.7	62.7
2025-08-02T12:25	10	66	0.3	65	66	418	0.4	417	419	17.8	61.5
2025-08-02T12:26	10	66	0.1	66	66	418	0.4	417	418	17.8	60.2
2025-08-02T12:27	10	65	0.3	65	66	416	1.6	413	418	17.6	59.4
2025-08-02T12:28	10	64	0.4	63	65	413	0.5	412	414	17.5	60.1
2025-08-02T12:29	10	62	1.1	60	64	411	0.9	409	413	17.5	61.2
2025-08-02T12:30	10	58	0.8	57	60	409	0.5	408	410	17.3	59.5
2025-08-02T12:31	10	57	0.3	57	58	407	1.0	406	409	17.1	59.3
2025-08-02T12:32	10	60	1.2	58	62	406	0.4	406	407	17.0	59.2
2025-08-02T12:33	10	64	1.5	62	67	408	1.0	407	410	17.0	60.1
2025-08-02T12:34	10	70	1.4	67	72	412	1.0	409	414	17.1	59.5
2025-08-02T12:35	10	71	0.5	70	72	414	0.4	413	414	17.1	57.7
2025-08-02T12:36	10	73	0.7	72	74	414	0.2	413	414	17.1	56.4
2025-08-02T12:37	10	76	1.1	74	78	415	1.0	413	417	17.3	57.8
2025-08-02T12:38	10	82	2.8	78	86	417	1.0	416	419	17.3	57.8
2025-08-02T12:39	10	97	10.0	84	118	419	1.2	418	421	17.3	57.9
2025-08-02T12:40	10	100	13.8	83	127	423	2.0	420	426	17.4	59.6
2025-08-02T12:41	10	78	2.3	74	83	423	1.0	421	425	17.7	59.8
2025-08-02T12:42	10	72	1.3	70	74	421	0.6	420	422	17.6	56.2
2025-08-02T12:43	10	68	1.2	66	70	420	0.4	419	421	17.7	57.8
2025-08-02T12:44	10	65	0.6	64	66	420	0.4	419	420	17.8	57.6
2025-08-02T12:45	10	64	0.1	63	64	419	0.3	418	420	18.0	58.2
2025-08-02T12:46	10	64	0.1	63	64	419	0.4	418	420	18.0	56.8
2025-08-02T12:47	10	64	0.1	64	64	419	0.2	418	419	18.0	54.0
2025-08-02T12:48	10	64	0.2	64	65	419	0.2	418	419	18.0	54.9
2025-08-02T12:49	10	65	0.7	65	67	419	0.2	418	419	18.0	54.6
2025-08-02T12:50	10	68	0.5	67	69	419	0.4	418	419	17.9	54.8
2025-08-02T12:51	10	68	0.2	68	69	419	0.4	418	419	17.9	54.0
2025-08-02T12:52	10	69	0.3	68	70	419	0.4	418	420	17.9	55.1
2025-08-02T12:53	10	70	0.1	69	70	420	0.5	419	421	17.9	53.0
2025-08-02T12:54	10	70	0.1	70	70	420	0.5	419	421	18.0	54.4
2025-08-02T12:55	10	70	0.1	70	70	420	0.2	419	420	18.0	53.5
2025-08-02T12:56	10	71	0.6	70	72	421	0.3	420	421	18.0	53.2
2025-08-02T12:57	10	73	0.7	72	74	422	0.7	420	423	18.1	55.5
2025-08-02T12:58	10	74	0.2	74	75	421	0.6	420	423	18.1	51.6
2025-08-02T12:59	10	73	0.8	71	74	421	0.2	420	421	18.0	51.7
2025-08-02T13:00	10	70	0.8	68	71	421	0.4	420	422	18.0	53.1
2025-08-02T13:01	10	67	0.6	66	68	421	0.3	420	421	18.0	51.7
2025-08-02T13:02	10	66	0.4	65	66	421	0.2	420	421	18.0	52.1
2025-08-02T13:03	10	64	0.4	63	65	421	0.2	421	422	18.1	52.7
2025-08-02T13:04	10	62	0.4	62	63	420	0.4	420	421	18.1	52.1
2025-08-02T13:05	10	61	0.2	61	62	420	0.2	419	420	18.2	52.0
2025-08-02T13:06	10	61	0.2	60	61	420	0.4	419	421	18.1	52.8
2025-08-02T13:07	10	60	0.2	60	61	419	0.5	418	420	18.0	52.7
2025-08-02T13:08	10	60	0.1	60	60	419	0.2	418	419	18.0	55.9
2025-08-02T13:09	10	60	0.2	60	61	420	0.3	419	420	18.2	55.5
2025-08-02T13:10	10	61	0.4	61	62	420	0.3	419	421	18.2	57.0
2025-08-02T13:11	10	63	0.6	62	64	420	0.3	420	421	18.2	58.3
2025-08-02T13:12	10	64	0.4	64	65	420	0.2	420	421	18.1	58.4
2025-08-02T13:13	10	66	0.3	65	66	419	0.4	418	420	17.9	60.2
2025-08-02T13:14	10	67	0.7	66	68	419	0.3	418	420	17.8	61.5
2025-08-02T13:15	10	70	1.0	68	72	419	0.3	419	420	17.9	60.2
2025-08-02T13:16	10	74	1.3	72	76	421	1.0	419	423	17.9	60.3
2025-08-02T13:17	10	77	0.8	76	79	423	0.6	422	424	18.0	61.9
2025-08-02T13:18	10	79	0.3	78	79	423	1.0	420	424	18.0	61.4
2025-08-02T13:19	10	77	0.7	76	78	422	0.6	421	423	17.8	60.9
2025-08-02T13:20	10	75	0.7	74	76	420	0.6	419	422	17.7	59.7
2025-08-02T13:21	10	73	0.2	73	74	419	0.4	418	420	17.7	58.9
2025-08-02T13:22	10	74	0.5	73	75	418	0.4	417	419	17.7	57.3
2025-08-02T13:23	10	79	3.7	75	87	418	0.6	417	420	17.6	57.0
2025-08-02T13:24	10	97	5.4	87	105	421	1.5	419	424	17.7	57.1
2025-08-02T13:25	10	105	3.4	98	111	425	0.9	423	426	17.7	57.0
2025-08-02T13:26	10	112	8.7	101	125	427	1.1	425	429	17.9	57.3
2025-08-02T13:27	10	125	8.8	118	156	431	1.2	429	434	17.9	57.2
2025-08-02T13:28	10	164	7.1	154	178	437	1.9	432	440	18.0	57.8
2025-08-02T13:29	10	110	15.8	98	162	434	3.4	430	441	18.2	58.3
2025-08-02T13:30	10	101	5.5	98	116	431	0.4	430	432	18.1	57.3
2025-08-02T13:31	10	174	38.1	116	218	438	5.9	430	448	18.1	55.6
2025-08-02T13:32	10	190	26.7	130	218	447	1.1	445	449	18.1	57.1
2025-08-02T13:33	10	182	15.2	159	210	446	1.8	444	449	18.2	58.7
2025-08-02T13:34	10	157	15.4	130	176	447	2.5	442	450	18.5	58.7
2025-08-02T13:35	10	161	11.6	145	186	442	1.2	440	445	18.4	59.4
2025-08-02T13:36	10	178	5.3	167	186	447	0.8	445	448	18.6	59.3
2025-08-02T13:37	10	181	9.8	167	215	449	0.8	448	451	18.8	57.5
2025-08-02T13:38	10	174	32.5	134	227	449	2.1	445	452	18.6	55.2
2025-08-02T13:39	10	187	23.8	154	219	449	1.9	446	452	18.7	55.0
2025-08-02T13:40	10	137	9.6	122	155	447	2.4	444	451	18.9	55.4
2025-08-02T13:41	10	123	8.5	113	153	444	1.7	442	446	19.0	55.7
2025-08-02T13:42	10	100	22.2	85	158	439	4.6	433	445	19.0	54.4
2025-08-02T13:43	10	83	3.7	80	91	429	2.5	427	434	18.7	53.1
2025-08-02T13:44	10	76	3.1	71	83	426	1.6	423	428	18.5	53.5
2025-08-02T13:45	10	69	1.6	67	72	423	1.0	422	425	18.4	53.7
2025-08-02T13:46	10	78	3.3	72	85	423	1.0	422	424	18.3	53.3
2025-08-02T13:47	10	79	4.6	74	88	426	1.0	423	427	18.5	55.3
2025-08-02T13:48	10	133	32.2	78	168	433	5.9	425	441	18.7	57.0
2025-08-02T13:49	10	134	14.5	95	151	441	0.6	439	442	18.9	56.7
2025-08-02T13:50	10	100	4.5	92	108	437	1.0	435	439	19.1	55.3
2025-08-02T13:51	10	108	12.9	80	128	436	0.9	434	438	19.0	55.3
2025-08-02T13:52	10	70	3.6	67	80	431	2.4	428	436	18.9	56.2
2025-08-02T13:53	10	77	8.7	67	93	428	0.5	427	429	18.9	56.2
2025-08-02T13:54	10	66	2.7	64	76	427	1.1	425	429	18.8	57.1
2025-08-02T13:55	10	63	0.7	62	64	425	0.5	423	426	18.9	56.7
2025-08-02T13:56	10	60	0.8	59	62	423	1.2	421	425	18.8	55.1
2025-08-02T13:57	10	59	0.2	58	60	419	1.3	417	421	18.5	53.8
2025-08-02T13:58	10	60	0.9	59	62	418	0.6	417	419	18.5	55.2
2025-08-02T13:59	10	64	1.0	62	65	418	0.2	418	419	18.5	53.7
2025-08-02T14:00	10	67	0.8	65	68	419	0.6	418	420	18.4	53.5
2025-08-02T14:01	10	68	0.2	68	68	421	0.3	420	421	18.4	54.1
2025-08-02T14:02	10	67	0.4	67	68	421	0.4	420	422	18.5	54.2
2025-08-02T14:03	10	66	0.3	66	67	421	0.9	420	423	18.5	54.5
2025-08-02T14:04	10	66	0.2	65	66	422	0.2	422	423	18.6	53.7
2025-08-02T14:05	10	67	0.5	66	68	422	0.3	421	423	18.6	53.4
2025-08-02T14:06	10	69	0.5	68	69	423	0.4	422	424	18.6	53.1
2025-08-02T14:07	10	70	0.4	69	71	424	0.5	423	425	18.6	53.3
2025-08-02T14:08	10	71	0.2	71	71	425	0.3	424	426	18.6	53.4
2025-08-02T14:09	10	71	0.2	70	71	425	0.2	424	425	18.7	53.6
2025-08-02T14:10	10	71	0.2	70	71	425	0.3	424	425	18.8	54.2
2025-08-02T14:11	10	81	7.6	71	93	423	0.5	422	424	18.6	52.8
2025-08-02T14:12	10	73	2.6	70	79	424	0.3	423	424	18.5	53.5
2025-08-02T14:13	10	72	1.1	70	74	423	0.4	422	424	18.7	54.5
2025-08-02T14:14	10	77	2.6	74	84	423	0.3	422	424	18.6	53.7
2025-08-02T14:15	10	122	29.3	84	178	428	4.6	422	434	18.6	53.8
2025-08-02T14:16	10	118	23.7	86	161	432	1.7	429	434	18.6	53.1
2025-08-02T14:17	10	84	0.6	83	86	427	1.0	426	430	18.6	53.2
2025-08-02T14:18	10	92	8.0	85	118	428	0.6	427	430	18.5	53.1
2025-08-02T14:19	10	106	13.5	93	129	432	0.9	429	433	18.6	52.9
2025-08-02T14:20	10	94	2.1	92	98	432	0.6	430	433	18.6	53.7
2025-08-02T14:21	10	107	10.2	95	134	433	1.3	431	436	18.6	53.8
2025-08-02T14:22	10	169	22.7	136	205	442	4.7	434	450	18.8	54.9
2025-08-02T14:23	10	167	19.9	140	203	448	1.5	446	451	19.0	54.8
2025-08-02T14:24	10	208	3.0	202	212	451	0.9	450	454	19.2	54.8
2025-08-02T14:25	10	171	29.8	140	214	451	4.8	442	456	19.2	55.5
2025-08-02T14:26	10	116	17.2	101	156	440	3.6	433	446	19.1	54.8
2025-08-02T14:27	10	101	2.4	100	111	432	1.6	430	435	18.8	54.0
2025-08-02T14:28	10	95	5.3	88	112	430	1.6	427	432	18.9	53.8
2025-08-02T14:29	10	82	3.6	76	88	426	1.1	424	428	18.7	54.0
2025-08-02T14:30	10	72	2.5	68	76	422	1.2	421	425	18.5	53.9
2025-08-02T14:31	10	66	1.2	64	68	420	0.4	420	421	18.6	53.9
2025-08-02T14:32	10	63	0.6	62	64	419	0.8	418	421	18.5	53.9
2025-08-02T14:33	10	62	0.1	61	62	418	0.9	417	420	18.7	54.4
2025-08-02T14:34	10	61	0.2	61	62	417	0.3	417	418	18.5	53.5
2025-08-02T14:35	10	61	0.2	60	61	418	0.3	417	418	18.6	54.1
2025-08-02T14:36	10	60	0.1	60	60	417	0.5	416	418	18.6	54.0
2025-08-02T14:37	10	60	0.1	60	60	416	0.3	416	417	18.5	54.2
2025-08-02T14:38	10	60	0.1	60	61	416	0.3	416	417	18.5	54.7
2025-08-02T14:39	10	60	0.1	60	60	417	1.0	415	419	18.5	55.4
2025-08-02T14:40	10	60	0.3	59	60	418	0.4	417	419	18.6	54.8
2025-08-02T14:41	10	59	0.4	58	59	416	0.8	415	418	18.5	53.9
2025-08-02T14:42	10	57	0.4	57	58	414	0.3	413	415	18.3	53.9
2025-08-02T14:43	10	56	0.4	55	57	413	0.5	412	414	18.3	53.9
2025-08-02T14:44	10	54	0.4	54	55	413	0.5	412	414	18.1	53.6
2025-08-02T14:45	10	53	0.3	53	54	413	0.3	412	414	18.2	53.5
2025-08-02T14:46	10	52	0.3	52	53	412	0.5	412	414	18.3	53.2
2025-08-02T14:47	10	51	0.3	50	52	413	0.4	412	414	18.4	53.4
2025-08-02T14:48	10	50	0.3	49	51	413	0.7	412	415	18.4	53.6
2025-08-02T14:49	10	49	0.2	49	49	413	0.3	413	414	18.3	53.0
2025-08-02T14:50	10	48	0.2	48	49	413	0.3	413	414	18.2	53.3
2025-08-02T14:51	10	48	0.1	48	48	413	0.2	413	414	18.2	53.6
2025-08-02T14:52	10	48	0.1	47	48	413	0.3	413	414	18.3	53.2
2025-08-02T14:53	10	47	0.1	47	48	413	0.2	412	413	18.3	53.0
2025-08-02T14:54	10	47	0.1	47	47	413	0.3	412	413	18.3	53.1
2025-08-02T14:55	10	46	0.3	46	47	413	0.2	412	413	18.4	53.2
2025-08-02T14:56	10	45	0.3	45	46	413	0.4	412	414	18.4	54.2
2025-08-02T14:57	10	44	0.3	44	45	413	0.3	412	414	18.5	55.1
2025-08-02T14:58	10	43	0.4	42	44	412	0.4	411	413	18.5	55.3
2025-08-02T14:59	10	42	0.3	41	43	411	0.3	410	411	18.3	55.8
2025-08-02T15:00	10	42	0.1	41	42	411	0.2	410	411	18.4	56.6
2025-08-02T15:01	10	42	0.2	42	43	411	0.3	410	411	18.2	57.7
2025-08-02T15:02	10	43	0.4	42	44	409	0.6	408	410	17.9	58.3
2025-08-02T15:03	10	45	0.4	44	45	409	0.3	408	409	17.9	59.0
2025-08-02T15:04	10	46	0.2	45	46	409	0.3	408	410	17.8	59.3
2025-08-02T15:05	10	46	0.1	46	46	409	0.5	408	409	17.9	59.8
2025-08-02T15:06	10	46	0.1	46	46	408	0.3	408	409	17.8	59.9
2025-08-02T15:07	10	46	0.1	46	46	408	0.4	407	409	17.7	60.1
2025-08-02T15:08	10	45	0.3	44	46	409	0.6	408	410	17.8	60.7
2025-08-02T15:09	10	44	0.2	44	44	410	0.3	409	411	18.0	60.7
2025-08-02T15:10	10	43	0.1	43	44	409	0.8	408	410	17.8	59.7
2025-08-02T15:11	10	43	0.1	43	44	407	0.2	407	408	17.6	59.0
2025-08-02T15:12	10	44	0.1	43	44	408	0.4	407	408	17.7	59.6
2025-08-02T15:13	10	44	0.1	43	44	409	0.4	408	409	17.8	60.3
2025-08-02T15:14	10	44	0.1	43	44	409	0.5	408	410	17.6	59.8
2025-08-02T15:15	10	43	0.1	43	43	408	0.2	407	409	17.6	60.3
2025-08-02T15:16	10	44	0.3	43	44	407	0.2	407	408	17.4	60.5
2025-08-02T15:17	10	45	0.2	44	45	407	0.3	406	408	17.4	60.8
2025-08-02T15:18	10	45	0.1	45	45	408	0.6	407	409	17.4	61.4
2025-08-02T15:19	10	44	0.3	44	45	407	0.4	407	408	17.3	61.6
2025-08-02T15:20	10	44	0.2	43	44	407	0.4	406	408	17.3	61.8
2025-08-02T15:21	10	43	0.3	42	43	407	0.3	407	408	17.3	62.1
2025-08-02T15:22	10	42	0.3	41	42	407	0.2	407	408	17.3	62.3
2025-08-02T15:23	10	41	0.2	41	41	407	0.3	407	408	17.3	62.6
2025-08-02T15:24	10	40	0.2	40	41	408	0.4	408	409	17.5	62.6
2025-08-02T15:25	10	40	0.2	39	40	408	0.4	407	409	17.4	62.5
2025-08-02T15:26	10	39	0.2	39	40	408	0.3	407	408	17.3	62.9
2025-08-02T15:27	10	38	0.3	38	39	407	0.3	406	408	17.4	62.8
2025-08-02T15:28	10	37	0.4	36	38	407	0.3	406	408	17.3	62.8
2025-08-02T15:29	10	36	0.4	35	36	406	0.3	406	407	17.3	63.5
2025-08-02T15:30	10	34	0.4	34	35	407	0.3	406	408	17.4	63.5
2025-08-02T15:31	10	33	0.4	32	34	405	0.6	404	406	17.2	63.0
2025-08-02T15:32	10	32	0.5	31	32	404	0.4	403	405	17.1	63.1
2025-08-02T15:33	10	30	0.6	29	31	403	0.5	402	404	17.0	62.8
2025-08-02T15:34	10	28	0.5	27	29	402	0.3	401	403	17.0	62.8
2025-08-02T15:35	10	27	0.4	26	28	401	0.5	400	402	16.9	62.6
2025-08-02T15:36	10	26	0.4	25	26	401	0.2	400	401	17.0	62.8
2025-08-02T15:37	10	25	0.3	24	25	400	0.2	400	400	17.0	61.8
2025-08-02T15:38	10	24	0.2	23	24	400	0.3	399	400	17.0	62.2
2025-08-02T15:39	10	23	0.2	23	23	400	0.3	399	401	17.0	62.3
2025-08-02T15:40	10	22	0.2	22	23	399	0.2	399	400	17.0	62.5
2025-08-02T15:41	10	22	0.1	22	22	399	0.2	399	400	17.0	62.7
2025-08-02T15:42	10	22	0.2	21	22	400	0.3	399	400	17.0	63.2
2025-08-02T15:43	10	21	0.1	21	21	400	0.3	399	400	16.9	63.7
2025-08-02T15:44	10	21	0.1	21	21	400	0.2	399	400	17.0	64.1
2025-08-02T15:45	10	21	0.1	21	21	400	0.3	400	401	17.0	64.7
2025-08-02T15:46	10	21	0.1	21	21	400	0.3	400	401	16.9	65.2
2025-08-02T15:47	10	21	0.1	21	21	400	0.2	400	400	16.9	64.9
2025-08-02T15:48	10	21	0.1	21	22	400	0.3	399	401	16.8	64.3
2025-08-02T15:49	10	22	0.1	21	22	400	0.2	400	400	16.8	64.2
2025-08-02T15:50	10	22	0.1	22	22	400	0.2	399	400	16.8	64.2
2025-08-02T15:51	10	22	0.1	22	22	400	0.3	399	400	16.8	64.4
2025-08-02T15:52	10	22	0.1	22	22	400	0.3	400	401	16.9	64.1
2025-08-02T15:53	10	22	0.1	22	23	401	0.3	400	401	16.8	64.6
2025-08-02T15:54	10	23	0.1	22	23	400	0.3	399	401	16.7	64.3
2025-08-02T15:55	10	23	0.1	23	23	399	0.3	399	400	16.7	64.2
2025-08-02T15:56	10	23	0.1	23	23	400	0.2	399	400	16.7	63.7
2025-08-02T15:57	10	23	0.2	23	24	399	0.3	399	400	16.7	63.7
2025-08-02T15:58	10	24	0.1	24	24	400	0.4	399	400	16.7	64.0
2025-08-02T15:59	10	24	0.1	24	25	399	0.2	399	400	16.7	63.9
2025-08-02T16:00	10	24	0.1	24	25	400	0.3	399	400	16.7	63.8
2025-08-02T16:01	10	25	0.1	24	25	400	0.3	399	401	16.7	63.5
2025-08-02T16:02	10	25	0.1	24	25	400	0.4	399	401	16.8	63.3
2025-08-02T16:03	10	25	0.1	25	25	401	0.5	400	402	16.8	63.7
2025-08-02T16:04	10	25	0.1	24	25	402	0.2	401	402	16.8	63.0
2025-08-02T16:05	10	24	0.1	24	25	401	0.2	401	402	16.8	62.8
2025-08-02T16:06	10	24	0.2	24	24	401	0.3	400	401	16.8	62.3
2025-08-02T16:07	10	24	0.1	23	24	400	0.5	399	401	16.8	61.4
2025-08-02T16:08	10	23	0.1	23	23	400	0.2	399	400	16.8	61.3
2025-08-02T16:09	10	23	0.1	23	24	400	0.3	399	401	16.8	62.0
2025-08-02T16:10	10	23	0.1	23	24	400	0.2	400	401	16.8	62.0
2025-08-02T16:11	10	23	0.1	23	23	400	0.4	399	401	16.8	61.4
2025-08-02T16:12	10	23	0.1	23	23	400	0.3	400	401	16.8	62.1
2025-08-02T16:13	10	23	0.1	22	23	400	0.2	400	400	16.8	62.1
2025-08-02T16:14	10	22	0.1	22	23	400	0.2	399	400	16.8	61.6
2025-08-02T16:15	10	22	0.1	22	23	400	0.3	400	401	16.9	62.2
2025-08-02T16:16	10	22	0.1	22	22	400	0.4	400	401	16.9	61.5
2025-08-02T16:17	10	22	0.1	22	23	400	0.3	400	401	16.9	61.9
2025-08-02T16:18	10	23	0.1	22	23	400	0.2	399	400	16.8	61.7
2025-08-02T16:19	10	23	0.1	23	23	400	0.2	400	401	16.8	62.6
2025-08-02T16:20	10	23	0.1	23	23	401	0.3	400	402	16.8	62.3
2025-08-02T16:21	10	23	0.1	23	23	401	0.2	401	402	16.9	61.9
2025-08-02T16:22	10	23	0.1	23	23	401	0.3	400	401	16.9	61.7
2025-08-02T16:23	10	23	0.1	23	23	400	0.4	399	401	16.9	61.1
2025-08-02T16:24	10	23	0.1	23	23	400	0.2	399	400	16.9	60.7
2025-08-02T16:25	10	23	0.1	23	23	400	0.2	399	401	16.9	61.2
2025-08-02T16:26	10	23	0.1	23	23	400	0.2	399	400	16.9	61.2
2025-08-02T16:27	10	23	0.1	23	24	399	0.2	398	400	16.9	60.8
2025-08-02T16:28	10	23	0.1	23	23	400	0.2	399	400	16.9	61.0
2025-08-02T16:29	10	23	0.1	23	23	400	0.3	399	400	16.9	61.3
2025-08-02T16:30	10	23	0.1	23	23	400	0.2	399	400	16.9	61.8
2025-08-02T16:31	10	23	0.1	22	23	400	0.3	399	401	16.9	61.3
2025-08-02T16:32	10	22	0.1	22	22	400	0.2	399	400	16.9	61.3
2025-08-02T16:33	10	22	0.2	21	22	400	0.3	399	400	16.9	62.0
2025-08-02T16:34	10	21	0.2	21	22	400	0.3	400	401	16.9	61.5
2025-08-02T16:35	10	20	0.2	20	21	399	0.4	398	400	16.9	60.8
2025-08-02T16:36	10	20	0.2	19	20	399	0.2	398	399	16.9	61.5
2025-08-02T16:37	10	19	0.3	18	19	398	0.3	398	399	16.9	61.3
2025-08-02T16:38	10	18	0.3	18	18	398	0.2	398	399	16.9	61.6
2025-08-02T16:39	10	17	0.2	17	18	398	0.3	397	398	16.9	61.4
2025-08-02T16:40	10	16	0.3	16	17	398	0.2	397	398	16.9	61.3
2025-08-02T16:41	10	16	0.2	15	16	398	0.3	397	399	16.9	61.7
2025-08-02T16:42	10	15	0.2	14	15	398	0.2	398	398	16.9	62.0
2025-08-02T16:43	10	14	0.2	14	15	398	0.3	397	398	16.9	62.0
2025-08-02T16:44	10	14	0.2	13	14	398	0.2	397	398	16.9	62.2
2025-08-02T16:45	10	13	0.1	13	14	397	0.3	397	398	16.9	62.0
2025-08-02T16:46	10	13	0.1	13	13	397	0.3	396	398	16.8	62.0
2025-08-02T16:47	10	13	0.1	12	13	397	0.2	397	397	16.8	62.9
2025-08-02T16:48	10	12	0.1	12	13	397	0.2	396	397	16.8	63.3
2025-08-02T16:49	10	12	0.1	12	12	397	0.2	396	397	16.7	63.5
2025-08-02T16:50	10	12	0.1	12	12	397	0.2	397	398	16.8	63.9
2025-08-02T16:51	10	12	0.1	11	12	397	0.2	397	397	16.8	64.3
2025-08-02T16:52	10	11	0.1	11	11	397	0.2	396	397	16.8	63.7
2025-08-02T16:53	10	11	0.1	10	11	397	0.2	396	397	16.8	64.0
2025-08-02T16:54	10	10	0.1	10	11	397	0.2	396	397	16.8	64.7
2025-08-02T16:55	10	10	0.1	10	10	397	0.2	397	397	16.8	64.7
2025-08-02T16:56	10	10	0.1	10	10	397	0.2	396	397	16.8	64.6
2025-08-02T16:57	10	10	0.1	9	10	397	0.3	396	397	16.7	62.9
2025-08-02T16:58	10	9	0.1	9	9	396	0.2	395	396	16.7	63.5
2025-08-02T16:59	10	9	0.1	9	9	396	0.3	395	396	16.8	64.0
2025-08-02T17:00	10	9	0.1	9	9	395	0.2	395	396	16.7	64.2
2025-08-02T17:01	10	9	0.1	8	9	396	0.2	395	396	16.7	63.7
2025-08-02T17:02	10	8	0.1	8	9	396	0.2	395	396	16.7	64.9
2025-08-02T17:03	10	8	0.1	8	8	395	0.3	395	396	16.7	64.6
2025-08-02T17:04	10	8	0.1	8	8	395	0.2	395	396	16.6	64.2
2025-08-02T17:05	10	8	0.1	8	8	395	0.2	394	395	16.6	65.0
2025-08-02T17:06	10	8	0.1	8	8	395	0.2	394	396	16.6	64.9
2025-08-02T17:07	10	8	0.1	8	8	395	0.2	395	396	16.6	65.4
2025-08-02T17:08	10	8	0.1	8	8	395	0.2	395	396	16.6	64.8
2025-08-02T17:09	10	8	0.1	8	8	395	0.2	395	396	16.6	65.0
2025-08-02T17:10	10	8	0.1	8	9	395	0.2	395	396	16.6	65.0
2025-08-02T17:11	10	9	0.1	8	9	395	0.2	395	396	16.6	64.8
2025-08-02T17:12	10	9	0.1	9	9	395	0.2	395	396	16.6	64.9
2025-08-02T17:13	10	9	0.1	9	10	396	0.2	395	396	16.6	63.8
2025-08-02T17:14	10	10	0.2	10	11	396	0.3	395	396	16.6	63.8
2025-08-02T17:15	10	10	0.1	10	10	395	0.2	395	396	16.6	63.4
2025-08-02T17:16	10	11	0.1	10	11	395	0.2	395	396	16.6	64.0
2025-08-02T17:17	10	11	0.1	11	11	396	0.2	395	396	16.6	63.2
2025-08-02T17:18	10	11	0.2	11	12	396	0.3	395	396	16.6	63.5
2025-08-02T17:19	10	12	0.2	11	12	396	0.2	396	397	16.6	64.3
2025-08-02T17:20	10	12	0.1	12	12	396	0.2	396	397	16.6	64.4
2025-08-02T17:21	10	12	0.1	12	12	397	0.2	396	397	16.6	64.0
2025-08-02T17:22	10	12	0.1	12	12	397	0.2	396	397	16.6	65.4
2025-08-02T17:23	10	12	0.1	12	13	397	0.3	396	397	16.6	65.6
2025-08-02T17:24	10	12	0.1	12	13	396	0.2	396	397	16.6	65.6
2025-08-02T17:25	10	12	0.1	12	12	396	0.2	395	396	16.6	64.4
2025-08-02T17:26	10	12	0.1	12	12	396	0.2	395	396	16.6	64.2
2025-08-02T17:27	10	12	0.1	12	12	396	0.2	395	396	16.6	63.8
2025-08-02T17:28	10	12	0.1	11	12	396	0.2	395	396	16.6	65.2
2025-08-02T17:29	10	12	0.1	11	12	396	0.2	395	396	16.6	65.6
2025-08-02T17:30	10	11	0.1	11	12	396	0.2	395	396	16.6	66.5
2025-08-02T17:31	10	11	0.1	11	11	396	0.3	395	396	16.6	66.2
2025-08-02T17:32	10	11	0.1	11	11	395	0.2	395	396	16.6	66.4
2025-08-02T17:33	10	11	0.1	11	11	396	0.2	395	396	16.6	66.1
2025-08-02T17:34	10	12	0.1	11	12	396	0.2	395	396	16.6	65.5
2025-08-02T17:35	10	12	0.1	12	12	396	0.2	395	396	16.6	65.6
2025-08-02T17:36	10	12	0.2	12	12	395	0.2	395	396	16.6	65.0
2025-08-02T17:37	10	13	0.1	12	13	396	0.2	395	396	16.6	65.6
2025-08-02T17:38	10	13	0.1	13	13	396	0.2	396	396	16.6	65.6
2025-08-02T17:39	10	13	0.1	12	13	396	0.3	395	397	16.6	65.1
2025-08-02T17:40	10	12	0.2	12	13	396	0.2	396	397	16.6	65.8
2025-08-02T17:41	10	11	0.3	11	12	396	0.2	396	397	16.6	67.1
2025-08-02T17:42	10	11	0.3	10	11	396	0.3	395	396	16.7	65.6
2025-08-02T17:43	10	10	0.2	9	10	396	0.2	395	396	16.7	66.1
2025-08-02T17:44	10	9	0.2	9	9	395	0.3	394	396	16.7	65.4
2025-08-02T17:45	10	9	0.2	8	9	395	0.2	394	395	16.7	64.8
2025-08-02T17:46	10	8	0.1	8	8	395	0.2	394	395	16.7	64.9
2025-08-02T17:47	10	8	0.1	8	8	395	0.2	394	395	16.7	66.2
2025-08-02T17:48	10	8	0.1	7	8	395	0.2	395	395	16.6	67.4
2025-08-02T17:49	10	7	0.1	7	8	395	0.2	395	396	16.6	67.3
2025-08-02T17:50	10	7	0.1	7	8	395	0.2	395	396	16.6	66.9
2025-08-02T17:51	10	7	0.1	7	7	395	0.2	395	396	16.6	66.8
2025-08-02T17:52	10	7	0.1	7	8	395	0.2	395	395	16.6	67.8
2025-08-02T17:53	10	7	0.1	7	8	395	0.2	395	395	16.6	68.3
2025-08-02T17:54	10	7	0.1	7	7	395	0.1	394	395	16.6	67.5
2025-08-02T17:55	10	7	0.1	7	8	395	0.3	394	396	16.6	67.0
2025-08-02T17:56	10	7	0.1	7	7	395	0.2	395	396	16.6	66.7
2025-08-02T17:57	10	7	0.1	7	7	395	0.3	395	396	16.6	66.6
2025-08-02T17:58	10	7	0.1	7	7	395	0.2	394	395	16.7	65.4
2025-08-02T17:59	10	7	0.1	7	7	395	0.1	395	395	16.7	65.7
2025-08-02T18:00	10	7	0.1	7	7	395	0.2	394	395	16.7	64.7
2025-08-02T18:01	10	7	0.1	7	7	394	0.2	394	395	16.7	65.6
2025-08-02T18:02	10	7	0.1	7	7	394	0.2	394	395	16.7	66.1
2025-08-02T18:03	10	7	0.1	7	7	394	0.2	394	395	16.7	66.3
2025-08-02T18:04	10	7	0.1	7	7	394	0.2	394	395	16.6	66.6
2025-08-02T18:05	10	7	0.1	7	7	394	0.2	393	394	16.7	64.7
2025-08-02T18:06	10	7	0.2	7	8	394	0.3	393	394	16.7	65.3
2025-08-02T18:07	10	7	0.1	7	8	394	0.2	394	394	16.6	66.8
2025-08-02T18:08	10	7	0.1	7	8	394	0.2	394	394	16.6	66.9
2025-08-02T18:09	10	7	0.1	7	8	394	0.2	394	394	16.6	67.2
2025-08-02T18:10	10	7	0.1	7	7	394	0.2	394	395	16.7	65.4
2025-08-02T18:11	10	7	0.1	7	7	394	0.3	393	395	16.7	65.2
2025-08-02T18:12	10	7	0.1	7	8	394	0.2	393	395	16.7	65.3
2025-08-02T18:13	10	7	0.1	7	7	394	0.3	393	394	16.7	65.1
2025-08-02T18:14	10	7	0.1	7	7	394	0.3	393	395	16.7	64.3
2025-08-02T18:15	10	7	0.1	7	7	394	0.2	393	394	16.7	64.4
2025-08-02T18:16	10	7	0.1	7	7	394	0.2	394	394	16.7	65.7
2025-08-02T18:17	10	7	0.1	7	7	394	0.2	393	394	16.6	66.4
2025-08-02T18:18	10	7	0.1	7	7	394	0.3	393	394	16.6	66.6
2025-08-02T18:19	10	7	0.1	7	7	393	0.2	393	394	16.6	67.5
2025-08-02T18:20	10	7	0.1	7	7	393	0.2	393	394	16.6	65.8
2025-08-02T18:21	10	7	0.1	7	7	393	0.2	393	394	16.7	65.0
2025-08-02T18:22	10	7	0.1	7	7	393	0.2	393	394	16.7	64.8
2025-08-02T18:23	10	7	0.1	6	7	393	0.2	392	393	16.7	65.2
2025-08-02T18:24	10	6	0.1	6	7	393	0.2	392	393	16.8	63.7
2025-08-02T18:25	10	6	0.1	6	6	392	0.2	392	393	16.8	63.1
2025-08-02T18:26	10	6	0.1	6	6	392	0.2	392	393	16.8	63.7
2025-08-02T18:27	10	5	0.1	5	6	392	0.2	391	392	16.8	63.0
2025-08-02T18:28	10	5	0.1	5	5	392	0.2	391	392	16.8	62.5
2025-08-02T18:29	10	5	0.1	4	5	391	0.2	391	392	16.8	62.9
2025-08-02T18:30	10	4	0.1	4	5	391	0.3	390	392	16.8	63.1
2025-08-02T18:31	10	4	0.1	4	5	391	0.3	390	392	16.8	63.2
2025-08-02T18:32	10	4	0.2	4	5	391	0.3	390	392	16.7	64.2
2025-08-02T18:33	10	4	0.2	4	4	391	0.3	390	391	16.7	64.3
2025-08-02T18:34	10	4	0.1	4	4	391	0.2	390	391	16.7	64.3
2025-08-02T18:35	10	4	0.1	3	4	390	0.2	390	391	16.7	64.6
2025-08-02T18:36	10	3	0.2	3	4	390	0.2	390	391	16.6	64.9
2025-08-02T18:37	10	3	0.2	3	4	390	0.2	389	391	16.6	65.5
2025-08-02T18:38	10	3	0.1	3	4	390	0.2	389	390	16.5	66.8
2025-08-02T18:39	10	3	0.2	3	3	390	0.3	389	390	16.4	67.2
2025-08-02T18:40	10	3	0.2	3	3	389	0.3	389	390	16.4	67.7
2025-08-02T18:41	10	3	0.2	3	4	389	0.3	388	390	16.3	67.8
2025-08-02T18:42	10	3	0.2	3	4	389	0.3	388	389	16.2	68.1
2025-08-02T18:43	10	3	0.2	2	3	388	0.2	388	389	16.2	68.7
2025-08-02T18:44	10	2	0.2	2	3	388	0.3	387	389	16.1	69.3
2025-08-02T18:45	10	2	0.2	2	3	388	0.3	387	388	16.1	69.4
2025-08-02T18:46	10	2	0.2	1	2	388	0.2	387	388	16.0	70.1
2025-08-02T18:47	10	2	0.2	1	2	387	0.3	386	388	16.0	70.3
2025-08-02T18:48	10	2	0.2	1	2	387	0.2	387	387	16.0	71.1
2025-08-02T18:49	10	1	0.2	1	2	387	0.3	386	387	15.9	71.9
2025-08-02T18:50	10	1	0.2	1	2	386	0.3	386	387	15.8	73.1
2025-08-02T18:51	10	1	0.2	1	1	386	0.2	386	387	15.8	73.2
2025-08-02T18:52	10	1	0.2	1	1	386	0.3	386	387	15.8	73.2
2025-08-02T18:53	10	1	0.2	0	1	386	0.3	385	387	15.8	73.2
2025-08-02T18:54	10	1	0.2	0	1	386	0.2	385	386	15.8	73.9
2025-08-02T18:55	10	1	0.2	0	1	385	0.3	385	386	15.7	74.4
2025-08-02T18:56	10	1	0.2	0	1	385	0.3	385	386	15.7	75.3
2025-08-02T18:57	10	1	0.2	0	1	385	0.2	385	386	15.6	75.2
2025-08-02T18:58	10	0	0.1	0	1	385	0.2	385	386	15.6	75.3
2025-08-02T18:59	10	0	0.2	0	1	385	0.3	385	386	15.6	75.2
2025-08-02T19:00	10	0	0.2	0	1	385	0.3	384	386	15.6	75.1
2025-08-02T19:01	10	0	0.1	0	1	385	0.3	385	386	15.6	74.9
2025-08-02T19:02	10	0	0.1	0	1	385	0.2	385	386	15.7	74.7
2025-08-02T19:03	10	0	0.2	0	1	385	0.2	385	385	15.6	75.4
2025-08-02T19:04	10	0	0.1	0	1	385	0.2	385	386	15.6	75.0
2025-08-02T19:05	10	0	0.1	0	0	385	0.2	384	385	15.6	74.6
2025-08-02T19:06	10	0	0.1	0	1	385	0.2	384	385	15.6	75.1
2025-08-02T19:07	10	0	0.1	0	1	385	0.2	384	385	15.6	75.3
2025-08-02T19:08	10	0	0.1	0	0	385	0.3	384	385	15.5	75.8
2025-08-02T19:09	10	0	0.2	0	1	385	0.2	384	385	15.5	75.7
2025-08-02T19:10	10	0	0.1	0	0	384	0.2	384	385	15.5	76.0
2025-08-02T19:11	10	0	0.1	0	0	384	0.2	384	385	15.5	76.3
2025-08-02T19:12	10	0	0.1	0	1	384	0.2	384	385	15.4	76.8
2025-08-02T19:13	10	0	0.1	0	0	384	0.2	383	385	15.4	77.0
2025-08-02T19:14	10	0	0.1	0	0	384	0.3	383	385	15.4	76.9
2025-08-02T19:15	10	0	0.1	0	0	384	0.2	383	384	15.4	77.1
2025-08-02T19:16	10	0	0.1	0	0	384	0.2	383	384	15.4	77.1
2025-08-02T19:17	10	0	0.1	0	0	384	0.2	383	384	15.5	77.3
2025-08-02T19:18	10	0	0.1	0	0	384	0.2	383	384	15.5	77.3
2025-08-02T19:19	10	0	0.1	0	0	384	0.2	383	384	15.5	77.3
2025-08-02T19:20	10	0	0.1	0	0	384	0.2	383	384	15.5	77.4
2025-08-02T19:21	10	0	0.1	0	0	384	0.2	383	384	15.5	77.2
2025-08-02T19:22	10	0	0.1	0	0	384	0.3	383	384	15.5	77.1
2025-08-02T19:23	10	0	0.1	0	0	384	0.2	384	384	15.5	77.0
2025-08-02T19:24	10	0	0.1	0	0	384	0.3	383	384	15.5	76.9
2025-08-02T19:25	10	0	0.0	0	0	384	0.2	384	384	15.6	76.8
2025-08-02T19:26	10	0	0.1	0	0	384	0.2	383	384	15.6	76.6
2025-08-02T19:27	10	0	0.1	0	0	384	0.2	383	384	15.5	76.8
2025-08-02T19:28	10	0	0.1	0	0	384	0.2	383	384	15.6	76.5
2025-08-02T19:29	10	0	0.0	0	0	384	0.2	383	384	15.6	76.8
2025-08-02T19:30	10	0	0.1	0	0	383	0.2	383	384	15.6	77.1
2025-08-02T19:31	10	0	0.1	0	0	383	0.2	382	383	15.5	77.4
2025-08-02T19:32	10	0	0.1	0	0	383	0.3	382	384	15.5	77.5
2025-08-02T19:33	10	0	0.1	0	0	383	0.2	382	383	15.6	76.8
2025-08-02T19:34	10	0	0.1	0	0	382	0.2	382	383	15.5	76.9
2025-08-02T19:35	10	0	0.1	0	0	382	0.2	382	383	15.6	76.3
2025-08-02T19:36	10	0	0.1	0	0	382	0.3	382	383	15.6	75.6
2025-08-02T19:37	10	0	0.1	0	0	382	0.2	382	383	15.6	76.1
2025-08-02T19:38	10	0	0.1	0	0	382	0.3	382	383	15.5	77.1
2025-08-02T19:39	10	0	0.1	0	0	382	0.2	382	383	15.5	77.3
2025-08-02T19:40	10	0	0.0	0	0	382	0.2	381	382	15.5	77.3
2025-08-02T19:41	10	0	0.1	0	0	381	0.3	381	382	15.5	77.4
2025-08-02T19:42	10	0	0.1	0	0	381	0.2	381	381	15.4	77.3
2025-08-02T19:43	10	0	0.0	0	0	381	0.3	380	381	15.4	77.8
2025-08-02T19:44	10	0	0.1	0	0	380	0.2	380	381	15.4	77.7
2025-08-02T19:45	10	0	0.1	0	0	380	0.3	379	381	15.3	77.6
2025-08-02T19:46	10	0	0.0	0	0	380	0.2	379	380	15.3	77.8
2025-08-02T19:47	10	0	0.1	0	0	379	0.3	378	380	15.3	77.5
2025-08-02T19:48	10	0	0.1	0	0	379	0.2	378	379	15.3	77.6
2025-08-02T19:49	10	0	0.0	0	0	379	0.2	378	379	15.3	77.5
2025-08-02T19:50	10	0	0.0	0	0	378	0.3	377	379	15.3	77.9
2025-08-02T19:51	10	0	0.1	0	0	378	0.2	377	378	15.3	78.4
2025-08-02T19:52	10	0	0.1	0	0	377	0.2	377	377	15.2	78.0
2025-08-02T19:53	10	0	0.1	0	0	377	0.3	376	378	15.2	78.2
2025-08-02T19:54	10	0	0.0	0	0	377	0.2	376	377	15.1	78.5
2025-08-02T19:55	10	0	0.0	0	0	377	0.3	376	377	15.1	79.3
2025-08-02T19:56	10	0	0.1	0	0	377	0.2	376	377	15.1	79.4
2025-08-02T19:57	10	0	0.1	0	0	377	0.2	376	377	15.1	79.0
2025-08-02T19:58	10	0	0.1	0	0	377	0.3	376	377	15.1	79.5
2025-08-02T19:59	10	0	0.1	0	0	377	0.2	376	377	15.0	79.8
2025-08-02T20:00	10	0	0.1	0	0	377	0.2	377	377	15.0	79.6
2025-08-02T20:01	10	0	0.1	0	0	377	0.2	376	377	15.0	79.8
2025-08-02T20:02	10	0	0.1	0	0	377	0.2	376	377	15.0	79.7
2025-08-02T20:03	10	0	0.1	0	0	376	0.3	376	377	15.0	80.0
2025-08-02T20:04	10	0	0.1	0	0	377	0.3	376	377	15.0	79.8
2025-08-02T20:05	10	0	0.1	0	0	377	0.3	376	378	15.0	79.3
2025-08-02T20:06	10	0	0.1	0	0	376	0.2	376	377	15.1	78.8
2025-08-02T20:07	10	0	0.1	0	0	376	0.3	375	377	15.1	79.1
2025-08-02T20:08	10	0	0.1	0	0	376	0.3	375	376	15.1	79.0
2025-08-02T20:09	10	0	0.1	0	0	375	0.2	375	375	15.1	78.9
2025-08-02T20:10	10	0	0.1	0	0	376	0.4	375	376	15.1	78.7
2025-08-02T20:11	10	0	0.1	0	0	375	0.3	374	376	15.1	78.8
2025-08-02T20:12	10	0	0.1	0	0	375	0.2	374	375	15.0	78.9
2025-08-02T20:13	10	0	0.1	0	0	375	0.2	374	375	15.0	79.1
2025-08-02T20:14	10	0	0.0	0	0	375	0.2	374	375	15.0	79.3
2025-08-02T20:15	10	0	0.1	0	0	375	0.3	374	376	14.9	79.8
2025-08-02T20:16	10	0	0.1	0	0	374	0.3	374	375	14.9	79.9
2025-08-02T20:17	10	0	0.1	0	0	374	0.3	373	375	14.9	79.9
2025-08-02T20:18	10	0	0.1	0	0	373	0.3	372	374	14.9	80.1
2025-08-02T20:19	10	0	0.1	0	0	373	0.3	372	373	14.9	79.9
2025-08-02T20:20	10	0	0.1	0	0	372	0.3	372	373	14.9	79.9
2025-08-02T20:21	10	0	0.1	0	0	371	0.3	371	372	14.8	80.3
2025-08-02T20:22	10	0	0.1	0	0	371	0.2	371	371	14.8	80.7
2025-08-02T20:23	10	0	0.1	0	0	371	0.3	370	371	14.7	81.2
2025-08-02T20:24	10	0	0.1	0	0	371	0.2	370	372	14.7	81.5
2025-08-02T20:25	10	0	0.1	0	0	371	0.3	370	371	14.5	82.5
2025-08-02T20:26	10	0	0.1	0	0	370	0.3	370	371	14.5	82.8
2025-08-02T20:27	10	0	0.1	0	0	371	0.2	370	371	14.6	82.6
2025-08-02T20:28	10	0	0.1	0	0	370	0.3	370	371	14.5	83.4
2025-08-02T20:29	10	0	0.1	0	0	371	0.2	370	371	14.4	84.1
2025-08-02T20:30	10	0	0.1	0	0	371	0.2	370	371	14.3	84.5
2025-08-02T20:31	10	0	0.1	0	0	370	0.2	370	371	14.3	84.3
2025-08-02T20:32	10	0	0.1	0	0	371	0.3	370	371	14.4	83.8
2025-08-02T20:33	10	0	0.1	0	0	371	0.2	370	371	14.4	83.5
2025-08-02T20:34	10	0	0.1	0	0	370	0.3	369	370	14.4	83.9
2025-08-02T20:35	10	0	0.1	0	0	369	0.2	369	370	14.2	85.0
2025-08-02T20:36	10	0	0.1	0	0	369	0.3	368	369	14.1	85.5
2025-08-02T20:37	10	0	0.1	0	0	368	0.2	368	369	14.0	86.1
2025-08-02T20:38	10	0	0.1	0	0	368	0.3	367	368	14.0	86.2
2025-08-02T20:39	10	0	0.1	0	0	367	0.2	367	368	13.9	86.9
2025-08-02T20:40	10	0	0.1	0	0	367	0.2	367	368	13.8	87.4
2025-08-02T20:41	10	0	0.1	0	0	367	0.3	366	368	13.8	87.6
2025-08-02T20:42	10	0	0.1	0	0	367	0.2	366	367	13.8	87.8
2025-08-02T20:43	10	0	0.1	0	0	366	0.2	366	367	13.9	87.7
2025-08-02T20:44	10	0	0.1	0	0	366	0.2	366	367	13.8	87.7
2025-08-02T20:45	10	0	0.1	0	0	366	0.2	365	366	13.9	87.2
2025-08-02T20:46	10	0	0.1	0	0	366	0.2	365	366	13.9	86.7
2025-08-02T20:47	10	0	0.1	0	0	366	0.2	365	366	14.0	86.2
2025-08-02T20:48	10	0	0.1	0	0	366	0.2	365	366	14.0	86.0
2025-08-02T20:49	10	0	0.1	0	0	366	0.2	365	366	14.1	85.7
2025-08-02T20:50	10	0	0.1	0	0	366	0.2	365	366	14.1	85.6
2025-08-02T20:51	10	0	0.1	0	0	366	0.3	365	366	14.1	85.5
2025-08-02T20:52	10	0	0.1	0	0	366	0.3	366	367	14.1	85.5
2025-08-02T20:53	10	0	0.1	0	0	367	0.2	366	367	14.1	85.2
2025-08-02T20:54	10	0	0.1	0	0	367	0.2	366	367	14.1	85.2
2025-08-02T20:55	10	0	0.0	0	0	367	0.2	367	367	14.1	84.9
2025-08-02T20:56	10	0	0.1	0	0	367	0.3	367	368	14.1	84.7
2025-08-02T20:57	10	0	0.1	0	0	368	0.2	367	368	14.1	84.3
2025-08-02T20:58	10	0	0.0	0	0	368	0.2	367	368	14.2	83.8
2025-08-02T20:59	10	0	0.0	0	0	368	0.2	367	368	14.2	83.6
2025-08-02T21:00	10	0	0.0	0	0	367	0.3	367	368	14.2	83.8
2025-08-02T21:01	10	0	0.1	0	0	367	0.3	366	367	14.1	83.8
2025-08-02T21:02	10	0	0.1	0	0	366	0.3	366	367	14.1	84.4
2025-08-02T21:03	10	0	0.1	0	0	367	0.3	366	367	14.1	84.2
2025-08-02T21:04	10	0	0.2	0	1	366	0.4	366	367	14.1	83.8
2025-08-02T21:05	10	0	0.1	0	0	366	0.2	366	366	14.1	84.3
2025-08-02T21:06	10	0	0.1	0	0	366	0.2	366	367	14.0	84.7
2025-08-02T21:07	10	0	0.1	0	0	366	0.2	366	367	14.0	84.9
2025-08-02T21:08	10	0	0.1	0	0	366	0.3	366	367	14.0	84.4
2025-08-02T21:09	10	0	0.1	0	0	366	0.2	366	367	14.1	84.2
2025-08-02T21:10	10	0	0.1	0	0	367	0.3	366	367	14.0	84.2
2025-08-02T21:11	10	0	0.1	0	0	367	0.2	367	367	14.0	84.3
2025-08-02T21:12	10	0	0.2	0	0	367	0.2	367	368	14.1	84.0
2025-08-02T21:13	10	0	0.1	0	0	367	0.3	367	368	14.1	83.8
2025-08-02T21:14	10	0	0.2	0	0	368	0.2	367	368	14.1	83.8
2025-08-02T21:15	10	0	0.2	0	0	368	0.2	367	368	14.1	83.9
2025-08-02T21:16	10	0	0.2	0	1	368	0.3	367	368	14.1	84.0
2025-08-02T21:17	10	0	0.1	0	1	368	0.3	367	369	14.0	84.5
2025-08-02T21:18	10	0	0.1	0	0	368	0.3	367	368	13.9	85.2
2025-08-02T21:19	10	0	0.1	0	0	368	0.3	367	369	13.8	86.1
2025-08-02T21:20	10	0	0.1	0	0	368	0.2	368	368	13.7	86.5
2025-08-02T21:21	10	0	0.1	0	0	368	0.2	367	368	13.7	87.0
2025-08-02T21:22	10	0	0.1	0	0	368	0.2	368	369	13.6	87.9
2025-08-02T21:23	10	0	0.1	0	0	368	0.2	367	368	13.6	87.8
2025-08-02T21:24	10	0	0.1	0	0	368	0.2	367	368	13.7	87.6
2025-08-02T21:25	10	0	0.1	0	0	367	0.3	367	368	13.6	87.8
2025-08-02T21:26	10	0	0.2	0	1	367	0.3	366	368	13.5	88.9
2025-08-02T21:27	10	0	0.1	0	0	367	0.2	367	368	13.5	89.3
2025-08-02T21:28	10	0	0.1	0	0	367	0.3	367	368	13.5	87.9
2025-08-02T21:29	10	0	0.1	0	0	368	0.2	367	368	13.5	87.8
2025-08-02T21:30	10	0	0.1	0	0	368	0.3	367	368	13.4	87.8
2025-08-02T21:31	10	0	0.1	0	0	368	0.2	368	369	13.4	87.4
2025-08-02T21:32	10	0	0.1	0	0	368	0.3	368	369	13.5	87.0
2025-08-02T21:33	10	0	0.1	0	0	369	0.2	368	369	13.6	86.8
2025-08-02T21:34	10	0	0.0	0	0	369	0.3	368	370	13.5	87.0
2025-08-02T21:35	10	0	0.0	0	0	369	0.2	369	370	13.5	85.5
2025-08-02T21:36	10	0	0.1	0	0	369	0.3	369	370	13.5	87.0
2025-08-02T21:37	10	0	0.1	0	0	369	0.2	368	369	13.5	85.5
2025-08-02T21:38	10	0	0.1	0	0	369	0.2	368	369	13.5	87.0
2025-08-02T21:39	10	0	0.1	0	0	369	0.2	368	369	13.5	87.0
2025-08-02T21:40	10	0	0.1	0	0	369	0.3	368	369	13.5	87.0
2025-08-02T21:41	10	0	0.1	0	0	369	0.3	369	370	13.5	87.5
2025-08-02T21:42	10	0	0.0	0	0	369	0.3	369	370	13.3	88.9
2025-08-02T21:43	10	0	0.1	0	0	370	0.3	369	370	13.3	88.6
2025-08-02T21:44	10	0	0.0	0	0	371	0.3	370	371	13.3	88.6
2025-08-02T21:45	10	0	0.1	0	0	371	0.3	370	371	13.3	88.4
2025-08-02T21:46	10	0	0.1	0	0	371	0.2	371	372	13.3	88.1
2025-08-02T21:47	10	0	0.0	0	0	372	0.2	371	372	13.3	88.2
2025-08-02T21:48	10	0	0.0	0	0	372	0.3	371	372	13.3	88.2
2025-08-02T21:49	10	0	0.0	0	0	372	0.2	371	372	13.3	88.7
2025-08-02T21:50	10	0	0.0	0	0	372	0.2	372	373	13.3	88.7
2025-08-02T21:51	10	0	0.1	0	0	372	0.2	371	372	13.4	88.1
2025-08-02T21:52	10	0	0.1	0	0	372	0.2	371	372	13.4	87.8
2025-08-02T21:53	10	0	0.0	0	0	372	0.2	371	372	13.4	87.9
2025-08-02T21:54	10	0	0.0	0	0	371	0.2	371	372	13.4	88.3
2025-08-02T21:55	10	0	0.0	0	0	371	0.2	371	371	13.3	88.3
2025-08-02T21:56	10	0	0.0	0	0	371	0.3	370	372	13.3	88.3
2025-08-02T21:57	10	0	0.0	0	0	371	0.2	370	371	13.2	89.1
2025-08-02T21:58	10	0	0.0	0	0	370	0.2	370	371	13.2	88.8
2025-08-02T21:59	10	0	0.0	0	0	370	0.4	369	371	13.1	89.3
2025-08-02T22:00	10	0	0.0	0	0	369	0.3	369	370	13.0	89.9
2025-08-02T22:01	10	0	0.0	0	0	369	0.3	369	370	13.0	90.0
2025-08-02T22:02	10	0	0.1	0	0	368	0.2	368	369	13.0	90.0
2025-08-02T22:03	10	0	0.1	0	0	368	0.3	367	369	13.0	89.5
2025-08-02T22:04	10	0	0.1	0	0	368	0.2	367	368	13.1	90.6
2025-08-02T22:05	10	0	0.1	0	0	367	0.3	367	368	13.1	90.7
2025-08-02T22:06	10	0	0.1	0	0	367	0.3	366	368	13.1	90.5
2025-08-02T22:07	10	0	0.1	0	0	366	0.2	366	366	13.1	90.5
2025-08-02T22:08	10	0	0.1	0	0	365	0.3	364	366	13.1	90.0
2025-08-02T22:09	10	0	0.1	0	0	365	0.2	364	365	13.1	90.2
2025-08-02T22:10	10	0	0.1	0	0	364	0.3	364	365	13.1	89.8
2025-08-02T22:11	10	0	0.1	0	0	364	0.3	364	365	13.2	88.9
2025-08-02T22:12	10	0	0.1	0	0	365	0.3	364	366	13.2	88.4
2025-08-02T22:13	10	0	0.1	0	0	366	0.3	365	366	13.4	86.6
2025-08-02T22:14	10	0	0.1	0	0	367	0.3	366	367	13.5	85.7
2025-08-02T22:15	10	0	0.1	0	0	367	0.2	366	367	13.6	84.9
2025-08-02T22:16	10	0	0.1	0	0	366	0.2	366	367	13.6	84.7
2025-08-02T22:17	10	0	0.0	0	0	366	0.4	365	367	13.6	84.5
2025-08-02T22:18	10	0	0.1	0	0	365	0.3	365	366	13.6	84.9
2025-08-02T22:19	10	0	0.1	0	0	364	0.3	364	365	13.4	86.6
2025-08-02T22:20	10	0	0.1	0	0	364	0.4	364	365	13.2	87.9
2025-08-02T22:21	10	0	0.1	0	0	364	0.3	363	364	13.1	88.6
2025-08-02T22:22	10	0	0.1	0	0	363	0.2	363	364	13.1	88.0
2025-08-02T22:23	10	0	0.1	0	0	364	0.3	363	364	13.2	87.7
2025-08-02T22:24	10	0	0.1	0	0	364	0.2	363	364	13.4	85.0
2025-08-02T22:25	10	0	0.1	0	0	364	0.3	363	365	13.4	85.1
2025-08-02T22:26	10	0	0.1	0	0	364	0.2	363	364	13.5	85.1
2025-08-02T22:27	10	0	0.1	0	0	364	0.2	363	364	13.4	86.0
2025-08-02T22:28	10	0	0.1	0	0	364	0.2	363	364	13.3	86.2
2025-08-02T22:29	10	0	0.1	0	0	364	0.3	363	365	13.4	85.8
2025-08-02T22:30	10	0	0.1	0	0	364	0.2	363	364	13.4	85.5
2025-08-02T22:31	10	0	0.1	0	0	364	0.2	363	364	13.4	85.8
2025-08-02T22:32	10	0	0.1	0	0	363	0.5	362	364	13.3	86.6
2025-08-02T22:33	10	0	0.1	0	0	362	0.3	362	363	13.2	87.5
2025-08-02T22:34	10	0	0.1	0	0	362	0.3	361	363	13.0	89.1
2025-08-02T22:35	10	0	0.1	0	0	362	0.3	362	363	12.8	90.7
2025-08-02T22:36	10	0	0.1	0	0	362	0.2	361	362	12.6	91.4
2025-08-02T22:37	10	0	0.1	0	0	361	0.3	361	362	12.6	91.7
2025-08-02T22:38	10	0	0.1	0	0	363	0.4	362	363	12.6	91.9
2025-08-02T22:39	10	0	0.1	0	0	363	0.2	363	364	12.7	92.5
2025-08-02T22:40	10	0	0.1	0	0	364	0.4	363	364	12.6	92.9
2025-08-02T22:41	10	0	0.1	0	0	364	0.3	364	365	12.6	92.2
2025-08-02T22:42	10	0	0.1	0	0	365	0.3	364	365	12.5	92.6
2025-08-02T22:43	10	0	0.1	0	0	365	0.3	364	365	12.5	92.4
2025-08-02T22:44	10	0	0.1	0	0	364	0.3	363	364	12.5	92.3
2025-08-02T22:45	10	0	0.1	0	0	363	0.4	362	363	12.4	92.5
2025-08-02T22:46	10	0	0.1	0	0	362	0.3	361	363	12.3	93.0
2025-08-02T22:47	10	0	0.1	0	0	361	0.2	360	362	12.3	93.3
2025-08-02T22:48	10	0	0.1	0	0	361	0.2	360	361	12.3	93.2
2025-08-02T22:49	10	0	0.1	0	0	361	0.2	360	361	12.3	93.0
2025-08-02T22:50	10	0	0.1	0	0	360	0.2	360	361	12.4	92.4
2025-08-02T22:51	10	0	0.1	0	0	360	0.2	359	360	12.4	92.5
2025-08-02T22:52	10	0	0.1	0	0	360	0.2	359	361	12.4	92.4
2025-08-02T22:53	10	0	0.1	0	0	360	0.3	360	361	12.4	92.2
2025-08-02T22:54	10	0	0.1	0	0	361	0.2	360	361	12.3	92.8
2025-08-02T22:55	10	0	0.1	0	0	361	0.2	361	361	12.2	93.2
2025-08-02T22:56	10	0	0.1	0	0	361	0.3	360	361	12.2	93.4
2025-08-02T22:57	10	0	0.1	0	0	360	0.3	360	361	12.1	93.6
2025-08-02T22:58	10	0	0.1	0	0	360	0.2	360	360	12.1	93.6
2025-08-02T22:59	10	0	0.1	0	0	360	0.3	359	360	12.1	93.7
2025-08-02T23:00	10	0	0.1	0	0	359	0.2	359	359	12.1	93.8
2025-08-02T23:01	10	0	0.1	0	0	358	0.2	358	359	12.1	93.8
2025-08-02T23:02	10	0	0.1	0	0	358	0.2	358	359	12.2	93.5
2025-08-02T23:03	10	0	0.1	0	0	358	0.3	357	358	12.2	92.9
2025-08-02T23:04	10	0	0.1	0	0	358	0.2	357	358	12.3	92.7
2025-08-02T23:05	10	0	0.1	0	0	357	0.2	357	358	12.2	92.9
2025-08-02T23:06	10	0	0.1	0	0	358	0.3	357	358	12.2	93.2
2025-08-02T23:07	10	0	0.1	0	0	358	0.2	357	358	12.3	92.8
2025-08-02T23:08	10	0	0.1	0	0	358	0.2	357	358	12.2	93.0
2025-08-02T23:09	10	0	0.1	0	0	357	0.2	357	358	12.3	92.5
2025-08-02T23:10	10	0	0.1	0	0	358	0.2	357	358	12.3	92.3
2025-08-02T23:11	10	0	0.1	0	0	357	0.2	357	358	12.3	92.2
2025-08-02T23:12	10	0	0.1	0	0	357	0.2	357	358	12.3	92.1
2025-08-02T23:13	10	0	0.1	0	0	357	0.3	357	358	12.3	92.3
2025-08-02T23:14	10	0	0.1	0	0	358	0.2	357	358	12.2	92.7
2025-08-02T23:15	10	0	0.1	0	0	358	0.3	357	358	12.2	92.5
2025-08-02T23:16	10	0	0.1	0	0	358	0.2	357	358	12.2	92.3
2025-08-02T23:17	10	0	0.1	0	0	358	0.3	357	358	12.3	91.8
2025-08-02T23:18	10	0	0.1	0	0	358	0.2	357	359	12.4	91.4
2025-08-02T23:19	10	0	0.1	0	0	358	0.2	358	359	12.4	91.5
2025-08-02T23:20	10	0	0.1	0	0	359	0.2	359	359	12.2	92.1
2025-08-02T23:21	10	0	0.1	0	0	359	0.3	359	360	12.2	92.1
2025-08-02T23:22	10	0	0.0	0	0	359	0.3	359	360	12.0	92.9
2025-08-02T23:23	10	0	0.1	0	0	359	0.4	358	360	11.9	93.6
2025-08-02T23:24	10	0	0.1	0	0	359	0.3	359	360	11.8	93.7
2025-08-02T23:25	10	0	0.1	0	0	360	0.5	359	361	11.8	94.0
2025-08-02T23:26	10	0	0.1	0	0	361	0.3	361	362	11.8	94.9
2025-08-02T23:27	10	0	0.1	0	0	362	0.3	362	363	11.7	94.5
2025-08-02T23:28	10	-1	0.1	-1	0	363	0.4	362	364	11.8	94.5
2025-08-02T23:29	10	-1	0.1	-1	0	363	0.3	362	364	11.8	94.6
2025-08-02T23:30	10	-1	0.1	-1	0	363	0.4	362	364	11.9	94.3
2025-08-02T23:31	10	0	0.1	-1	0	363	0.2	363	364	12.1	92.4
2025-08-02T23:32	10	0	0.1	-1	0	363	0.2	362	363	12.2	91.0
2025-08-02T23:33	10	0	0.1	0	0	362	0.2	362	363	12.2	90.6
2025-08-02T23:34	10	0	0.1	0	0	362	0.2	362	362	12.1	91.4
2025-08-02T23:35	10	0	0.0	0	0	362	0.2	361	362	12.0	92.2
2025-08-02T23:36	10	0	0.1	0	0	362	0.2	361	362	11.9	92.3
2025-08-02T23:37	10	0	0.1	0	0	362	0.2	362	363	11.8	92.5
2025-08-02T23:38	10	0	0.1	0	0	362	0.2	362	362	11.7	92.9
2025-08-02T23:39	10	0	0.1	0	0	362	0.3	362	363	11.8	92.7
2025-08-02T23:40	10	0	0.1	0	0	363	0.2	362	363	11.8	92.6
2025-08-02T23:41	10	0	0.1	0	0	363	0.2	362	363	11.9	92.3
2025-08-02T23:42	10	0	0.1	-1	0	362	0.3	362	363	11.9	91.8
2025-08-02T23:43	10	0	0.1	-1	0	362	0.2	362	363	11.9	91.9
2025-08-02T23:44	10	0	0.1	0	0	362	0.3	361	363	11.9	92.0
2025-08-02T23:45	10	0	0.1	-1	0	362	0.2	361	362	11.7	92.6
2025-08-02T23:46	10	0	0.1	-1	0	362	0.2	361	362	11.6	93.2
2025-08-02T23:47	10	0	0.1	0	0	362	0.3	362	363	11.6	93.6
2025-08-02T23:48	10	0	0.1	-1	0	363	0.3	362	363	11.5	93.9
2025-08-02T23:49	10	0	0.1	0	0	363	0.2	362	364	11.5	94.2
2025-08-02T23:50	10	0	0.1	-1	0	363	0.3	362	364	11.6	93.7
2025-08-02T23:51	10	0	0.1	-1	0	364	0.4	363	364	11.6	93.6
2025-08-02T23:52	10	0	0.1	0	0	364	0.3	364	365	11.7	93.3
2025-08-02T23:53	10	0	0.1	0	0	364	0.2	364	365	11.8	92.9
2025-08-02T23:54	10	0	0.1	-1	0	364	0.2	364	365	11.7	93.1
2025-08-02T23:55	10	0	0.1	0	0	364	0.2	364	365	11.7	93.3
2025-08-02T23:56	10	0	0.1	0	0	365	0.2	364	365	11.6	93.4
2025-08-02T23:57	10	0	0.1	0	0	365	0.2	365	366	11.6	93.5
2025-08-02T23:58	10	0	0.1	-1	0	365	0.2	365	366	11.6	93.7
2025-08-02T23:59	10	0	0.1	-1	0	366	0.2	365	366	11.6	93.8
2025-08-03T00:00	10	0	0.1	0	0	366	0.3	365	367	11.5	94.1
2025-08-03T00:01	10	0	0.1	-1	0	366	0.4	365	367	11.5	94.4
2025-08-03T00:02	10	0	0.1	-1	0	367	0.3	366	367	11.5	94.3
2025-08-03T00:03	10	0	0.1	-1	0	367	0.2	366	367	11.4	94.5
2025-08-03T00:04	10	0	0.1	0	0	366	0.3	366	367	11.4	94.9
2025-08-03T00:05	10	0	0.1	-1	0	366	0.3	365	367	11.3	94.8
2025-08-03T00:06	10	0	0.2	-1	0	367	0.3	366	367	11.3	95.1
2025-08-03T00:07	10	0	0.1	-1	0	367	0.3	366	367	11.3	95.0
2025-08-03T00:08	10	0	0.1	0	0	367	0.2	366	367	11.3	94.9
2025-08-03T00:09	10	0	0.1	0	0	367	0.2	366	367	11.3	94.9
2025-08-03T00:10	10	0	0.1	0	0	367	0.2	366	367	11.3	95.1
2025-08-03T00:11	10	0	0.1	-1	0	367	0.3	366	367	11.4	95.0
2025-08-03T00:12	10	0	0.1	-1	0	367	0.3	366	367	11.4	94.9
2025-08-03T00:13	10	0	0.1	-1	0	367	0.3	366	367	11.5	94.8
2025-08-03T00:14	10	0	0.1	0	0	367	0.2	366	367	11.5	94.7
2025-08-03T00:15	10	0	0.1	-1	0	367	0.2	366	367	11.6	94.5
2025-08-03T00:16	10	0	0.1	-1	0	366	0.3	366	367	11.6	94.8
2025-08-03T00:17	10	0	0.1	0	0	366	0.3	365	367	11.6	94.7
2025-08-03T00:18	10	0	0.1	-1	0	366	0.3	365	366	11.6	94.2
2025-08-03T00:19	10	0	0.1	-1	0	365	0.2	365	366	11.7	94.1
2025-08-03T00:20	10	0	0.1	-1	0	365	0.3	364	365	11.7	94.1
2025-08-03T00:21	10	0	0.1	0	0	364	0.3	364	365	11.7	94.0
2025-08-03T00:22	10	0	0.1	0	0	364	0.2	364	365	11.8	93.6
2025-08-03T00:23	10	0	0.1	-1	0	364	0.3	363	364	11.8	93.5
2025-08-03T00:24	10	0	0.1	-1	0	364	0.3	363	364	11.8	93.6
2025-08-03T00:25	10	0	0.1	-1	0	363	0.3	363	364	11.7	94.1
2025-08-03T00:26	10	0	0.1	-1	0	363	0.4	362	364	11.7	94.2
2025-08-03T00:27	10	0	0.1	-1	0	362	0.3	361	363	11.7	94.2
2025-08-03T00:28	10	0	0.2	-1	0	361	0.3	361	362	11.6	94.1
2025-08-03T00:29	10	0	0.1	0	0	361	0.3	360	362	11.7	93.7
2025-08-03T00:30	10	0	0.1	-1	0	360	0.3	360	361	11.7	93.6
2025-08-03T00:31	10	0	1.2	-1	7	360	0.3	360	361	11.6	93.9
2025-08-03T00:32	10	0	0.1	0	0	360	0.2	360	361	11.7	93.6
2025-08-03T00:33	10	0	0.1	-1	0	359	0.3	359	360	11.8	93.3
2025-08-03T00:34	10	0	0.1	-1	0	359	0.3	358	360	11.7	93.5
2025-08-03T00:35	10	0	0.1	0	0	359	0.2	358	359	11.7	93.8
2025-08-03T00:36	10	0	0.1	0	0	358	0.4	358	359	11.6	94.3
2025-08-03T00:37	10	0	0.1	0	0	358	0.3	357	358	11.6	94.6
2025-08-03T00:38	10	0	0.1	0	0	357	0.3	357	358	11.4	94.8
2025-08-03T00:39	10	0	0.2	0	0	357	0.2	357	358	11.4	95.0
2025-08-03T00:40	10	0	0.1	0	0	357	0.3	356	358	11.4	94.7
2025-08-03T00:41	10	0	0.1	0	0	357	0.3	356	357	11.4	94.0
2025-08-03T00:42	10	0	0.1	0	0	356	0.2	356	356	11.4	93.8
2025-08-03T00:43	10	0	0.1	0	0	356	0.2	355	356	11.4	94.0
2025-08-03T00:44	10	0	0.1	0	0	356	0.3	355	357	11.4	94.0
2025-08-03T00:45	10	0	0.1	0	0	356	0.2	355	356	11.4	93.9
2025-08-03T00:46	10	0	0.1	0	0	356	0.2	355	356	11.4	94.0
2025-08-03T00:47	10	0	0.1	0	0	356	0.3	355	357	11.3	94.4
2025-08-03T00:48	10	0	0.1	0	0	356	0.2	355	356	11.3	95.0
2025-08-03T00:49	10	0	0.1	0	0	356	0.2	355	356	11.3	95.4
2025-08-03T00:50	10	0	0.1	0	0	356	0.2	355	356	11.3	95.6
2025-08-03T00:51	10	0	0.1	0	0	356	0.2	355	356	11.2	95.7
2025-08-03T00:52	10	0	0.1	0	0	356	0.3	355	356	11.1	95.8
2025-08-03T00:53	10	0	0.1	0	0	355	0.2	355	356	11.1	96.1
2025-08-03T00:54	10	0	0.1	-1	0	356	0.2	355	356	11.1	96.0
2025-08-03T00:55	10	0	0.1	0	0	356	0.2	355	356	11.2	95.8
2025-08-03T00:56	10	0	0.0	0	0	355	0.2	355	356	11.2	95.6
2025-08-03T00:57	10	0	0.1	0	0	355	0.2	355	356	11.2	95.3
2025-08-03T00:58	10	0	0.1	0	0	355	0.2	355	356	11.2	95.4
2025-08-03T00:59	10	0	0.1	0	0	355	0.3	354	355	11.2	95.3
2025-08-03T01:00	10	0	0.1	0	0	354	0.2	354	355	11.2	95.2
2025-08-03T01:01	10	0	0.1	0	0	355	0.2	354	355	11.3	95.2
2025-08-03T01:02	10	0	0.1	0	0	355	0.2	354	355	11.3	94.9
2025-08-03T01:03	10	0	0.1	0	0	355	0.2	354	355	11.4	94.8
2025-08-03T01:04	10	0	0.1	0	0	354	0.2	354	355	11.3	94.9
2025-08-03T01:05	10	0	0.1	0	0	354	0.3	353	354	11.2	95.1
2025-08-03T01:06	10	0	0.1	0	0	353	0.3	353	354	11.2	95.2
2025-08-03T01:07	10	0	0.1	0	0	353	0.2	353	354	11.1	95.2
2025-08-03T01:08	10	0	0.1	0	0	353	0.2	352	353	11.1	95.4
2025-08-03T01:09	10	0	0.1	0	0	353	0.2	352	353	11.0	95.6
2025-08-03T01:10	10	0	0.1	0	0	353	0.3	352	354	11.0	95.8
2025-08-03T01:11	10	0	0.1	0	0	353	0.2	353	353	11.0	95.9
2025-08-03T01:12	10	0	0.1	0	0	353	0.3	353	354	11.0	95.5
2025-08-03T01:13	10	0	0.1	0	0	353	0.2	353	354	11.1	94.9
2025-08-03T01:14	10	0	0.1	0	0	353	0.2	353	354	11.1	94.8
2025-08-03T01:15	10	0	0.1	0	0	353	0.2	353	354	11.0	94.8
2025-08-03T01:16	10	0	0.1	0	0	353	0.2	352	353	11.0	95.0
2025-08-03T01:17	10	0	0.1	0	0	352	0.2	352	353	11.0	95.0
2025-08-03T01:18	10	0	0.1	0	0	352	0.3	351	352	11.0	95.1
2025-08-03T01:19	10	0	0.1	0	0	352	0.3	351	352	10.9	95.1
2025-08-03T01:20	10	0	0.1	0	0	352	0.2	351	352	11.0	95.1
2025-08-03T01:21	10	0	0.1	0	0	352	0.2	351	352	11.0	95.2
2025-08-03T01:22	10	0	0.1	0	0	351	0.2	351	352	10.9	95.0
2025-08-03T01:23	10	0	0.1	0	0	351	0.2	351	352	10.9	95.0
2025-08-03T01:24	10	0	0.1	0	0	351	0.3	351	352	11.0	94.8
2025-08-03T01:25	10	0	0.1	0	0	352	0.2	351	352	11.0	94.6
2025-08-03T01:26	10	0	0.1	0	0	352	0.3	351	352	10.9	94.5
2025-08-03T01:27	10	0	0.1	0	0	351	0.2	351	352	10.9	94.5
2025-08-03T01:28	10	0	0.1	0	0	351	0.2	351	352	10.9	94.4
2025-08-03T01:29	10	0	0.1	0	0	352	0.3	351	353	10.9	94.6
2025-08-03T01:30	10	0	0.1	0	0	352	0.2	352	353	10.8	94.9
2025-08-03T01:31	10	0	0.1	0	0	352	0.2	352	353	10.7	95.2
2025-08-03T01:32	10	0	0.1	0	0	353	0.2	352	353	10.6	95.2
2025-08-03T01:33	10	0	0.1	0	0	353	0.2	352	353	10.5	95.4
2025-08-03T01:34	10	0	0.1	0	0	352	0.2	352	353	10.6	95.5
2025-08-03T01:35	10	0	0.1	0	0	352	0.2	352	353	10.5	95.6
2025-08-03T01:36	10	0	0.1	0	0	353	0.3	352	353	10.5	95.5
2025-08-03T01:37	10	0	0.1	0	0	353	0.3	352	354	10.6	95.6
2025-08-03T01:38	10	0	0.1	0	0	354	0.3	353	354	10.6	95.4
2025-08-03T01:39	10	0	0.1	0	0	354	0.4	353	355	10.7	95.3
2025-08-03T01:40	10	0	0.1	0	0	354	0.2	354	355	10.8	95.3
2025-08-03T01:41	10	0	0.1	0	0	355	0.3	354	355	10.8	95.2
2025-08-03T01:42	10	0	0.1	0	0	355	0.2	354	355	10.8	95.2
2025-08-03T01:43	10	0	0.1	0	0	355	0.2	354	355	10.9	95.1
2025-08-03T01:44	10	0	0.1	0	0	355	0.2	354	355	10.9	95.1
2025-08-03T01:45	10	0	0.1	0	0	354	0.2	354	355	10.8	95.0
2025-08-03T01:46	10	0	0.1	0	0	354	0.2	353	355	10.9	94.9
2025-08-03T01:47	10	0	0.1	0	0	354	0.3	353	354	10.9	95.0
2025-08-03T01:48	10	0	0.1	0	0	353	0.3	353	354	10.8	95.0
2025-08-03T01:49	10	0	0.1	0	0	353	0.3	353	354	10.9	94.9
2025-08-03T01:50	10	0	0.1	0	0	353	0.2	352	354	10.9	94.7
2025-08-03T01:51	10	0	0.1	0	0	353	0.2	353	353	10.9	94.6
2025-08-03T01:52	10	0	0.1	0	0	353	0.3	352	354	10.9	94.6
2025-08-03T01:53	10	0	0.1	-1	0	353	0.3	352	353	10.9	94.7
2025-08-03T01:54	10	0	0.1	0	0	353	0.3	352	354	10.8	94.6
2025-08-03T01:55	10	0	0.1	0	0	353	0.3	352	353	10.9	94.4
2025-08-03T01:56	10	0	0.1	0	0	353	0.2	352	353	10.9	94.3
2025-08-03T01:57	10	0	0.1	0	0	353	0.2	352	353	11.1	93.8
2025-08-03T01:58	10	0	0.1	-1	0	353	0.2	352	353	11.1	93.6
2025-08-03T01:59	10	0	0.1	0	0	353	0.2	352	353	11.1	93.4
2025-08-03T02:00	10	0	0.1	0	0	352	0.3	352	353	11.0	93.6
2025-08-03T02:01	10	0	0.1	-1	0	352	0.3	351	352	11.0	93.7
2025-08-03T02:02	10	0	0.1	0	0	351	0.2	351	352	11.0	93.8
2025-08-03T02:03	10	0	0.1	-1	0	351	0.3	350	352	11.0	93.6
2025-08-03T02:04	10	0	0.1	0	0	351	0.2	350	351	10.9	93.8
2025-08-03T02:05	10	0	0.1	0	0	351	0.3	350	351	10.9	94.0
2025-08-03T02:06	10	0	0.1	0	0	351	0.2	351	352	11.0	93.3
2025-08-03T02:07	10	0	0.1	-1	0	352	0.3	351	352	11.2	92.2
2025-08-03T02:08	10	0	0.1	-1	0	352	0.3	351	353	11.3	91.3
2025-08-03T02:09	10	0	0.1	-1	0	352	0.2	352	353	11.4	90.7
2025-08-03T02:10	10	0	0.1	-1	0	352	0.2	351	352	11.4	90.8
2025-08-03T02:11	10	0	0.1	-1	0	352	0.2	351	353	11.1	92.0
2025-08-03T02:12	10	0	0.1	0	0	353	0.4	352	353	11.2	92.0
2025-08-03T02:13	10	0	0.1	-1	0	352	0.3	352	353	11.2	91.9
2025-08-03T02:14	10	0	0.1	0	0	352	0.2	352	353	11.0	92.7
2025-08-03T02:15	10	0	0.1	-1	0	352	0.3	351	352	10.9	93.0
2025-08-03T02:16	10	0	0.1	0	0	352	0.2	351	352	10.9	93.3
2025-08-03T02:17	10	0	0.1	-1	0	351	0.2	351	352	10.9	93.4
2025-08-03T02:18	10	0	0.1	0	0	351	0.3	351	352	11.0	93.2
2025-08-03T02:19	10	0	0.1	-1	0	351	0.2	350	351	11.0	93.2
2025-08-03T02:20	10	0	0.1	-1	0	350	0.3	350	351	11.0	93.3
2025-08-03T02:21	10	0	0.1	-1	0	350	0.3	349	350	11.0	93.3
2025-08-03T02:22	10	0	0.1	-1	0	350	0.3	349	350	10.9	93.4
2025-08-03T02:23	10	0	0.1	-1	0	349	0.2	349	350	10.9	93.4
2025-08-03T02:24	10	0	0.1	0	0	349	0.2	348	349	10.8	93.7
2025-08-03T02:25	10	0	0.1	-1	0	349	0.2	348	350	10.8	93.8
2025-08-03T02:26	10	0	0.1	-1	0	349	0.2	349	350	10.7	94.1
2025-08-03T02:27	10	0	0.1	0	0	350	0.2	349	350	10.6	94.4
2025-08-03T02:28	10	0	0.1	-1	0	350	0.2	349	350	10.5	94.7
2025-08-03T02:29	10	0	0.1	0	0	349	0.3	349	350	10.4	95.2
2025-08-03T02:30	10	0	0.1	-1	0	349	0.3	348	350	10.4	95.5
2025-08-03T02:31	10	0	0.1	-1	0	348	0.3	348	349	10.3	95.8
2025-08-03T02:32	10	0	0.1	-1	0	348	0.2	348	349	10.3	96.0
2025-08-03T02:33	10	0	0.1	-1	0	348	0.2	348	349	10.2	96.1
2025-08-03T02:34	10	0	0.1	-1	0	348	0.2	348	349	10.2	96.0
2025-08-03T02:35	10	0	0.1	-1	0	348	0.2	348	349	10.2	96.5
2025-08-03T02:36	10	0	0.1	-1	0	348	0.2	348	349	10.1	96.4
2025-08-03T02:37	10	0	0.1	-1	0	348	0.2	347	349	10.0	96.5
2025-08-03T02:38	10	0	0.1	-1	0	348	0.2	347	348	10.0	95.9
2025-08-03T02:39	10	0	0.1	-1	0	348	0.2	347	348	10.1	96.0
2025-08-03T02:40	10	0	0.1	-1	0	348	0.2	347	348	10.2	96.2
2025-08-03T02:41	10	0	0.1	-1	0	348	0.3	347	348	10.2	96.4
2025-08-03T02:42	10	0	0.1	-1	0	347	0.2	347	348	10.3	96.5
2025-08-03T02:43	10	0	0.1	0	0	347	0.3	346	348	10.2	96.8
2025-08-03T02:44	10	0	0.1	0	0	347	0.2	347	347	10.2	97.0
2025-08-03T02:45	10	0	0.1	0	0	347	0.2	346	347	10.2	96.9
2025-08-03T02:46	10	0	0.1	-1	0	347	0.2	346	347	10.2	96.6
2025-08-03T02:47	10	0	0.1	-1	0	347	0.2	346	347	10.2	96.8
2025-08-03T02:48	10	0	0.1	-1	0	347	0.3	347	348	10.2	97.0
2025-08-03T02:49	10	0	0.1	-1	0	348	0.2	347	348	10.2	96.7
2025-08-03T02:50	10	0	0.1	-1	0	348	0.2	347	348	10.3	96.5
2025-08-03T02:51	10	0	0.1	-1	0	348	0.2	347	348	10.2	96.8
2025-08-03T02:52	10	0	0.1	0	0	348	0.2	347	348	10.2	96.9
2025-08-03T02:53	10	0	0.1	-1	0	347	0.2	347	348	10.2	96.9
2025-08-03T02:54	10	0	0.1	0	0	347	0.3	346	348	10.2	96.6
2025-08-03T02:55	10	0	0.1	-1	0	347	0.2	346	347	10.1	96.8
2025-08-03T02:56	10	0	0.1	-1	0	347	0.2	346	347	10.1	96.8
2025-08-03T02:57	10	0	0.1	-1	0	347	0.2	346	347	10.2	96.8
2025-08-03T02:58	10	0	0.1	-1	0	347	0.2	346	347	10.2	96.9
2025-08-03T02:59	10	0	0.1	0	0	346	0.2	346	347	10.2	96.5
2025-08-03T03:00	10	0	0.1	0	0	346	0.3	345	346	10.1	96.2
2025-08-03T03:01	10	0	0.1	0	0	346	0.2	345	346	10.1	96.3
2025-08-03T03:02	10	0	0.1	0	0	346	0.3	345	346	10.0	96.5
2025-08-03T03:03	10	0	0.1	-1	0	346	0.2	345	346	9.9	96.5
2025-08-03T03:04	10	0	0.1	-1	0	346	0.3	345	347	10.0	96.4
2025-08-03T03:05	10	0	0.1	-1	0	346	0.3	346	347	10.2	96.5
2025-08-03T03:06	10	0	0.1	-1	0	347	0.2	346	347	10.3	96.6
2025-08-03T03:07	10	0	0.1	-1	0	347	0.2	346	347	10.2	96.8
2025-08-03T03:08	10	0	0.1	-1	0	347	0.3	346	347	10.2	96.5
2025-08-03T03:09	10	0	0.1	-1	0	347	0.2	347	348	10.2	96.3
2025-08-03T03:10	10	0	0.1	-1	0	347	0.2	347	348	10.3	95.9
2025-08-03T03:11	10	0	0.1	-1	0	347	0.3	347	348	10.3	95.9
2025-08-03T03:12	10	0	0.1	-1	0	347	0.2	347	347	10.4	95.6
2025-08-03T03:13	10	0	0.1	-1	0	347	0.2	346	347	10.4	95.5
2025-08-03T03:14	10	-1	0.1	-1	0	347	0.2	346	347	10.4	95.5
2025-08-03T03:15	10	-1	0.1	-1	0	347	0.2	347	348	10.3	95.8
2025-08-03T03:16	10	-1	0.1	-1	0	348	0.2	347	348	10.3	96.0
2025-08-03T03:17	10	-1	0.1	-1	0	348	0.2	347	348	10.3	96.0
2025-08-03T03:18	10	-1	0.1	-1	0	348	0.2	347	348	10.4	95.5
2025-08-03T03:19	10	0	0.1	-1	0	348	0.2	347	348	10.4	94.9
2025-08-03T03:20	10	0	0.1	-1	0	348	0.2	347	348	10.4	94.9
2025-08-03T03:21	10	0	0.1	-1	0	348	0.2	347	348	10.2	95.3
2025-08-03T03:22	10	-1	0.1	-1	0	347	0.2	347	348	10.1	95.4
2025-08-03T03:23	10	0	0.1	-1	0	347	0.2	347	348	10.1	95.6
2025-08-03T03:24	10	0	0.1	-1	0	347	0.2	346	347	10.1	95.8
2025-08-03T03:25	10	-1	0.1	-1	0	347	0.2	346	347	10.0	96.1
2025-08-03T03:26	10	-1	0.1	-1	0	346	0.2	346	347	9.9	96.2
2025-08-03T03:27	10	0	0.1	-1	0	346	0.3	346	347	9.9	96.3
2025-08-03T03:28	10	0	0.1	-1	0	347	0.2	346	347	9.9	96.5
2025-08-03T03:29	10	-1	0.1	-1	0	347	0.3	346	347	10.0	96.6
2025-08-03T03:30	10	0	0.1	-1	0	347	0.2	347	347	10.1	96.6
2025-08-03T03:31	10	-1	0.1	-1	0	347	0.3	347	348	10.1	96.3
2025-08-03T03:32	10	-1	0.1	-1	0	348	0.2	347	348	10.1	95.8
2025-08-03T03:33	10	-1	0.1	-1	0	348	0.3	347	348	10.2	95.5
2025-08-03T03:34	10	0	0.1	-1	0	347	0.3	346	348	10.2	95.5
2025-08-03T03:35	10	0	0.1	-1	0	347	0.2	347	347	10.0	95.9
2025-08-03T03:36	10	0	0.1	-1	0	347	0.2	346	347	9.9	96.3
2025-08-03T03:37	10	-1	0.0	-1	0	346	0.2	346	347	9.9	96.4
2025-08-03T03:38	10	-1	0.0	-1	0	346	0.2	346	347	10.1	96.8
2025-08-03T03:39	10	-1	0.1	-1	0	347	0.3	346	348	10.2	96.9
2025-08-03T03:40	10	-1	0.1	-1	0	347	0.2	347	347	10.3	96.7
2025-08-03T03:41	10	-1	0.1	-1	0	347	0.2	347	348	10.3	96.7
2025-08-03T03:42	10	-1	0.1	-1	0	347	0.2	347	348	10.3	96.5
2025-08-03T03:43	10	-1	0.1	-1	0	348	0.2	347	348	10.4	96.6
2025-08-03T03:44	10	-1	0.1	-1	0	348	0.2	348	349	10.5	96.7
2025-08-03T03:45	10	-1	0.1	-1	0	349	0.2	348	349	10.5	96.5
2025-08-03T03:46	10	-1	0.1	-1	0	349	0.3	348	350	10.5	96.3
2025-08-03T03:47	10	0	0.1	-1	0	349	0.3	348	349	10.3	96.3
2025-08-03T03:48	10	0	0.1	-1	0	349	0.3	349	350	10.1	95.9
2025-08-03T03:49	10	0	0.1	-1	0	350	0.2	349	350	10.4	96.1
2025-08-03T03:50	10	-1	0.1	-1	0	350	0.2	349	350	10.6	96.3
2025-08-03T03:51	10	0	0.1	-1	0	350	0.2	349	350	10.6	95.7
2025-08-03T03:52	10	0	0.1	-1	0	349	0.3	348	350	10.6	93.9
2025-08-03T03:53	10	0	0.1	0	0	349	0.4	348	349	10.6	92.9
2025-08-03T03:54	10	0	0.1	0	0	348	0.2	348	349	10.5	93.1
2025-08-03T03:55	10	0	0.1	-1	0	348	0.3	347	349	10.5	93.0
2025-08-03T03:56	10	0	0.1	0	0	348	0.2	347	348	10.6	92.3
2025-08-03T03:57	10	0	0.1	0	0	348	0.2	348	349	10.6	92.2
2025-08-03T03:58	10	0	0.1	0	0	348	0.2	348	348	10.6	91.7
2025-08-03T03:59	10	0	0.1	0	0	348	0.3	347	348	10.6	91.8
2025-08-03T04:00	10	0	0.1	0	0	348	0.4	347	348	10.6	92.2
2025-08-03T04:01	10	0	0.1	0	0	347	0.3	346	348	10.3	93.1
2025-08-03T04:02	10	0	0.1	0	0	347	0.2	346	348	10.0	94.2
2025-08-03T04:03	10	0	0.1	0	0	348	0.3	347	348	9.9	94.8
2025-08-03T04:04	10	0	0.1	0	1	348	0.2	347	348	9.9	95.1
2025-08-03T04:05	10	0	0.1	0	1	348	0.3	347	349	9.9	95.3
2025-08-03T04:06	10	1	0.1	0	1	348	0.2	348	349	9.9	95.6
2025-08-03T04:07	10	1	0.1	0	1	348	0.2	348	349	9.9	95.6
2025-08-03T04:08	10	1	0.1	0	1	349	0.2	348	349	9.8	95.4
2025-08-03T04:09	10	1	0.1	0	1	349	0.3	349	350	9.8	95.4
2025-08-03T04:10	10	1	0.1	0	1	350	0.3	349	350	9.8	95.4
2025-08-03T04:11	10	1	0.1	1	1	350	0.2	350	350	9.9	95.8
2025-08-03T04:12	10	1	0.1	1	1	350	0.3	350	351	9.9	96.2
2025-08-03T04:13	10	1	0.1	1	1	351	0.2	350	351	9.9	96.4
2025-08-03T04:14	10	1	0.1	1	1	351	0.3	350	351	9.9	96.6
2025-08-03T04:15	10	1	0.1	1	1	350	0.2	350	351	10.0	96.7
2025-08-03T04:16	10	1	0.1	1	1	351	0.2	350	351	10.0	96.7
2025-08-03T04:17	10	1	0.1	1	1	350	0.2	350	351	10.0	96.7
2025-08-03T04:18	10	1	0.1	1	1	350	0.2	350	351	10.0	96.8
2025-08-03T04:19	10	1	0.1	1	1	350	0.2	350	351	10.0	96.8
2025-08-03T04:20	10	1	0.1	1	2	350	0.2	350	350	10.0	97.1
2025-08-03T04:21	10	1	0.1	1	2	350	0.3	350	351	10.0	96.7
2025-08-03T04:22	10	1	0.1	1	2	350	0.3	350	351	10.0	96.4
2025-08-03T04:23	10	2	0.1	1	2	351	0.3	350	351	10.0	95.9
2025-08-03T04:24	10	2	0.1	2	2	351	0.3	350	352	9.9	95.9
2025-08-03T04:25	10	2	0.1	2	2	351	0.3	351	352	9.9	96.0
2025-08-03T04:26	10	2	0.1	2	2	351	0.3	351	352	10.0	96.2
2025-08-03T04:27	10	2	0.1	2	2	351	0.2	350	351	9.9	95.7
2025-08-03T04:28	10	2	0.1	2	3	351	0.2	351	352	10.0	95.4
2025-08-03T04:29	10	3	0.1	2	3	352	0.3	351	352	10.0	94.9
2025-08-03T04:30	10	3	0.1	2	3	352	0.2	351	352	10.1	94.3
2025-08-03T04:31	10	3	0.1	3	3	351	0.2	351	352	10.1	94.6
2025-08-03T04:32	10	3	0.1	3	3	351	0.2	351	351	10.1	94.9
2025-08-03T04:33	10	3	0.1	3	3	351	0.2	351	352	10.2	95.2
2025-08-03T04:34	10	3	0.1	3	4	351	0.3	350	352	10.1	95.1
2025-08-03T04:35	10	3	0.1	3	4	351	0.2	350	351	10.1	95.3
2025-08-03T04:36	10	4	0.1	3	4	351	0.2	350	351	10.0	95.3
2025-08-03T04:37	10	4	0.1	4	4	351	0.3	351	352	9.9	95.4
2025-08-03T04:38	10	4	0.1	4	4	352	0.3	351	353	9.9	95.4
2025-08-03T04:39	10	4	0.1	4	5	352	0.2	352	353	10.0	95.4
2025-08-03T04:40	10	5	0.1	4	5	353	0.2	352	353	10.0	95.3
2025-08-03T04:41	10	5	0.1	5	5	353	0.3	353	354	10.0	94.8
2025-08-03T04:42	10	5	0.1	5	5	353	0.2	353	354	10.0	95.2
2025-08-03T04:43	10	5	0.1	5	6	354	0.2	353	354	9.9	95.3
2025-08-03T04:44	10	6	0.1	5	6	353	0.2	353	354	10.0	95.6
2025-08-03T04:45	10	6	0.1	6	6	354	0.2	353	354	10.0	95.5
2025-08-03T04:46	10	6	0.2	6	7	354	0.3	353	355	10.0	95.4
2025-08-03T04:47	10	7	0.2	6	7	354	0.2	354	355	10.0	95.4
2025-08-03T04:48	10	7	0.1	7	7	354	0.3	354	355	10.1	95.2
2025-08-03T04:49	10	7	0.1	7	7	355	0.3	354	355	10.1	95.2
2025-08-03T04:50	10	7	0.1	7	8	355	0.2	354	356	10.1	95.0
2025-08-03T04:51	10	8	0.1	7	8	355	0.2	354	355	10.0	95.0
2025-08-03T04:52	10	8	0.2	8	8	355	0.3	354	355	9.9	95.2
2025-08-03T04:53	10	8	0.1	8	8	355	0.3	354	355	9.7	95.3
2025-08-03T04:54	10	9	0.1	8	9	355	0.2	354	355	9.7	95.8
2025-08-03T04:55	10	9	0.1	9	9	355	0.2	355	356	9.7	96.1
2025-08-03T04:56	10	9	0.1	9	9	355	0.3	355	356	9.7	96.6
2025-08-03T04:57	10	9	0.1	9	10	356	0.2	355	356	9.7	96.4
2025-08-03T04:58	10	9	0.1	9	10	356	0.3	356	357	9.8	96.2
2025-08-03T04:59	10	10	0.1	9	10	356	0.2	356	357	9.8	96.3
2025-08-03T05:00	10	10	0.1	10	10	357	0.3	356	358	9.9	96.4
2025-08-03T05:01	10	10	0.1	10	10	357	0.3	357	358	9.9	95.9
2025-08-03T05:02	10	10	0.1	10	10	358	0.2	357	358	9.9	95.4
2025-08-03T05:03	10	10	0.1	10	10	358	0.3	358	359	9.9	95.3
2025-08-03T05:04	10	10	0.1	10	11	358	0.3	358	359	9.9	95.5
2025-08-03T05:05	10	11	0.1	10	11	359	0.3	358	359	9.9	95.4
2025-08-03T05:06	10	11	0.1	11	11	359	0.2	359	360	10.0	95.3
2025-08-03T05:07	10	11	0.1	11	11	359	0.2	359	360	10.0	95.2
2025-08-03T05:08	10	11	0.1	11	12	360	0.2	359	360	10.0	95.5
2025-08-03T05:09	10	11	0.1	11	12	360	0.2	359	360	10.0	95.7
2025-08-03T05:10	10	12	0.1	11	12	360	0.2	359	360	9.9	95.7
2025-08-03T05:11	10	12	0.1	12	12	360	0.2	359	360	9.9	95.9
2025-08-03T05:12	10	12	0.1	12	12	360	0.2	360	360	9.9	96.3
2025-08-03T05:13	10	12	0.1	12	13	360	0.2	359	360	9.8	96.4
2025-08-03T05:14	10	13	0.2	12	13	360	0.2	360	361	9.8	96.6
2025-08-03T05:15	10	13	0.1	13	14	360	0.2	360	361	9.8	96.8
2025-08-03T05:16	10	14	0.1	13	14	361	0.2	360	361	9.7	96.9
2025-08-03T05:17	10	14	0.1	14	14	361	0.2	360	361	9.7	97.0
2025-08-03T05:18	10	14	0.1	14	14	361	0.2	360	361	9.7	97.2
2025-08-03T05:19	10	14	0.1	14	15	361	0.2	360	362	9.7	97.3
2025-08-03T05:20	10	14	0.1	14	15	361	0.2	361	362	9.7	97.3
2025-08-03T05:21	10	15	0.1	14	15	361	0.2	361	362	9.7	97.4
2025-08-03T05:22	10	15	0.1	15	15	361	0.2	361	362	9.7	97.4
2025-08-03T05:23	10	15	0.1	15	15	362	0.2	361	362	9.7	97.4
2025-08-03T05:24	10	15	0.1	15	15	362	0.2	361	362	9.7	97.2
2025-08-03T05:25	10	15	0.1	15	15	362	0.2	362	363	9.7	97.1
2025-08-03T05:26	10	15	0.1	15	15	362	0.2	362	363	9.7	97.4
2025-08-03T05:27	10	15	0.1	15	15	362	0.2	362	363	9.7	97.6
2025-08-03T05:28	10	15	0.1	15	15	362	0.2	361	362	9.7	97.8
2025-08-03T05:29	10	16	0.2	15	16	362	0.2	362	363	9.7	97.8
2025-08-03T05:30	10	16	0.1	16	16	362	0.2	362	363	9.7	97.9
2025-08-03T05:31	10	15	0.2	15	16	362	0.2	362	363	9.7	98.1
2025-08-03T05:32	10	15	0.1	15	15	362	0.2	362	363	9.7	97.8
2025-08-03T05:33	10	15	0.1	15	15	362	0.2	362	363	9.7	97.8
2025-08-03T05:34	10	15	0.1	15	15	362	0.2	362	363	9.8	97.8
2025-08-03T05:35	10	15	0.1	14	15	362	0.2	362	363	9.8	98.1
2025-08-03T05:36	10	14	0.1	14	14	363	0.2	362	363	9.9	98.0
2025-08-03T05:37	10	14	0.1	14	14	363	0.2	362	363	9.8	97.5
2025-08-03T05:38	10	14	0.1	13	14	362	0.2	362	363	9.8	97.4
2025-08-03T05:39	10	13	0.1	13	14	362	0.3	362	363	9.8	97.5
2025-08-03T05:40	10	13	0.1	13	13	363	0.2	362	363	9.9	97.4
2025-08-03T05:41	10	13	0.1	12	13	362	0.2	362	363	9.9	97.2
2025-08-03T05:42	10	12	0.1	12	13	362	0.2	362	363	9.9	96.9
2025-08-03T05:43	10	12	0.1	12	12	362	0.2	362	363	9.9	96.8
2025-08-03T05:44	10	12	0.1	12	12	362	0.3	361	362	9.9	96.9
2025-08-03T05:45	10	12	0.1	12	13	362	0.2	361	362	9.9	96.7
2025-08-03T05:46	10	13	0.2	13	13	362	0.2	362	363	10.0	96.0
2025-08-03T05:47	10	14	0.3	13	14	362	0.2	362	363	10.0	95.9
2025-08-03T05:48	10	16	1.1	14	17	362	0.2	362	363	10.0	95.5
2025-08-03T05:49	10	15	0.4	15	16	363	0.3	362	363	10.1	95.2
2025-08-03T05:50	10	15	0.7	15	16	363	0.2	363	363	10.1	95.4
2025-08-03T05:51	10	15	0.2	15	16	363	0.2	363	364	10.1	95.1
2025-08-03T05:52	10	16	0.4	15	17	363	0.2	363	364	10.1	95.1
2025-08-03T05:53	10	16	0.3	15	16	363	0.2	363	363	10.1	95.4
2025-08-03T05:54	10	25	5.0	16	32	363	0.5	362	364	10.0	95.8
2025-08-03T05:55	10	31	3.1	26	37	365	0.6	363	366	10.1	96.0
2025-08-03T05:56	10	24	1.5	21	27	365	0.3	365	366	10.1	95.9
2025-08-03T05:57	10	34	9.2	20	45	366	0.9	364	367	10.1	95.4
2025-08-03T05:58	10	47	2.0	41	49	368	0.9	366	369	10.1	95.4
2025-08-03T05:59	10	48	0.4	47	48	369	0.4	369	370	10.2	95.3
2025-08-03T06:00	10	49	2.5	47	55	371	0.3	370	371	10.3	95.2
2025-08-03T06:01	10	58	1.5	55	60	372	0.5	371	373	10.3	94.7
2025-08-03T06:02	10	61	0.5	60	61	373	0.5	372	374	10.4	94.6
2025-08-03T06:03	10	62	0.4	61	63	374	0.3	373	375	10.4	94.3
2025-08-03T06:04	10	63	0.3	63	64	375	0.2	374	375	10.4	93.9
2025-08-03T06:05	10	63	0.7	62	64	375	0.2	374	375	10.5	93.8
2025-08-03T06:06	10	62	2.6	57	64	375	0.2	375	376	10.6	93.9
2025-08-03T06:07	10	64	0.6	63	65	376	0.2	376	377	10.6	93.9
2025-08-03T06:08	10	64	0.4	64	65	377	0.2	376	377	10.7	93.5
2025-08-03T06:09	10	66	0.5	65	67	377	0.2	376	377	10.8	93.4
2025-08-03T06:10	10	67	0.3	67	68	377	0.2	377	378	10.8	93.1
2025-08-03T06:11	10	65	1.1	63	67	377	0.2	377	378	10.8	92.9
2025-08-03T06:12	10	63	0.2	62	63	378	0.3	377	378	10.9	93.2
2025-08-03T06:13	10	64	0.7	63	65	378	0.2	377	378	11.1	92.7
2025-08-03T06:14	10	67	1.0	65	68	379	0.2	378	379	11.3	92.0
2025-08-03T06:15	10	69	0.2	68	69	379	0.2	378	380	11.5	90.7
2025-08-03T06:16	10	69	1.2	65	70	380	0.2	379	380	11.8	89.6
2025-08-03T06:17	10	63	0.8	62	65	380	0.2	379	380	12.1	88.4
2025-08-03T06:18	10	61	1.6	59	63	380	0.3	379	380	12.1	87.7
2025-08-03T06:19	10	69	2.8	62	71	381	0.5	379	381	12.2	87.0
2025-08-03T06:20	10	66	1.0	65	69	381	0.3	381	382	12.3	87.2
2025-08-03T06:21	10	65	0.4	64	66	381	0.2	381	382	12.3	86.9
2025-08-03T06:22	10	65	0.4	64	65	381	0.2	380	382	12.1	86.8
2025-08-03T06:23	10	65	0.5	64	66	381	0.2	381	382	12.6	84.9
2025-08-03T06:24	10	64	1.7	61	66	381	0.3	381	382	13.0	82.8
2025-08-03T06:25	10	64	0.4	64	65	382	0.3	381	383	12.9	84.0
2025-08-03T06:26	10	67	0.8	65	68	382	0.3	382	383	12.5	85.2
2025-08-03T06:27	10	69	0.6	68	70	383	0.2	383	384	12.3	87.5
2025-08-03T06:28	10	72	0.5	70	72	384	0.2	383	384	12.2	89.0
2025-08-03T06:29	10	72	0.8	70	72	384	0.2	384	385	12.2	88.9
2025-08-03T06:30	10	69	0.4	68	70	384	0.3	383	385	12.2	89.4
2025-08-03T06:31	10	67	0.5	67	69	385	0.3	384	385	12.2	89.3
2025-08-03T06:32	10	67	0.6	66	69	384	0.2	384	385	12.4	89.6
2025-08-03T06:33	10	71	1.0	69	72	385	0.3	384	386	12.6	88.0
2025-08-03T06:34	10	71	0.8	69	72	385	0.3	385	386	12.7	86.9
2025-08-03T06:35	10	68	0.6	67	69	385	0.5	384	386	12.5	85.6
2025-08-03T06:36	10	72	2.0	68	75	385	0.4	385	386	12.6	86.1
2025-08-03T06:37	10	75	0.9	73	76	386	0.3	385	387	12.5	87.1
2025-08-03T06:38	10	71	1.1	69	73	386	0.3	386	387	12.4	87.1
2025-08-03T06:39	10	69	0.9	68	70	386	0.4	385	387	12.4	87.4
2025-08-03T06:40	10	70	0.3	69	71	386	0.3	385	387	12.6	87.7
2025-08-03T06:41	10	71	0.3	71	72	386	0.3	386	387	12.6	87.3
2025-08-03T06:42	10	71	0.4	71	73	386	0.3	385	386	12.5	87.1
2025-08-03T06:43	10	75	1.0	73	77	386	0.2	386	386	12.4	87.7
2025-08-03T06:44	10	78	0.7	77	79	387	0.3	386	387	12.3	87.7
2025-08-03T06:45	10	79	0.2	79	79	388	0.2	387	388	12.4	87.3
2025-08-03T06:46	10	79	0.4	78	80	387	0.2	387	388	12.4	86.2
2025-08-03T06:47	10	80	0.4	80	81	388	0.5	387	389	12.5	86.4
2025-08-03T06:48	10	82	0.3	81	82	389	0.4	389	390	12.6	86.3
2025-08-03T06:49	10	83	0.3	82	83	390	0.4	390	391	12.9	86.6
2025-08-03T06:50	10	83	0.2	83	84	390	0.3	389	390	12.9	85.0
2025-08-03T06:51	10	84	0.2	84	85	391	0.6	390	392	12.9	85.7
2025-08-03T06:52	10	85	0.2	85	85	392	0.2	391	392	13.0	83.3
2025-08-03T06:53	10	86	0.2	85	86	392	0.2	391	392	13.2	82.1
2025-08-03T06:54	10	86	0.1	86	86	392	0.3	392	393	13.3	82.1
2025-08-03T06:55	10	86	0.1	86	86	392	0.4	391	393	13.1	81.5
2025-08-03T06:56	10	87	0.4	86	87	392	0.4	391	393	13.1	82.0
2025-08-03T06:57	10	87	0.1	87	88	393	0.2	392	393	13.1	82.5
2025-08-03T06:58	10	86	2.2	80	88	393	0.3	393	394	13.3	81.9
2025-08-03T06:59	10	88	0.2	88	88	394	0.3	393	395	13.4	81.1
2025-08-03T07:00	10	88	1.3	84	89	395	0.3	394	396	13.6	81.2
2025-08-03T07:01	10	90	0.2	89	90	396	0.4	395	397	13.7	82.6
2025-08-03T07:02	10	91	0.3	90	91	396	0.6	395	397	13.6	81.6
2025-08-03T07:03	10	81	12.8	61	93	395	0.9	393	396	13.3	80.7
2025-08-03T07:04	10	75	9.9	61	92	394	0.3	393	394	13.4	82.3
2025-08-03T07:05	10	92	0.5	91	93	394	0.3	393	395	13.3	83.0
2025-08-03T07:06	10	92	1.4	88	94	394	0.3	393	394	13.3	83.1
2025-08-03T07:07	10	94	0.2	93	94	395	0.3	394	396	13.4	82.8
2025-08-03T07:08	10	94	0.1	94	94	396	0.5	395	397	13.4	82.8
2025-08-03T07:09	10	95	0.2	94	95	396	0.3	395	396	13.3	82.7
2025-08-03T07:10	10	95	0.7	93	96	397	0.8	396	399	13.4	83.8
2025-08-03T07:11	10	93	0.6	91	94	398	0.8	397	399	13.6	84.2
2025-08-03T07:12	10	92	0.4	91	93	398	0.4	397	399	13.7	84.0
2025-08-03T07:13	10	93	0.5	93	94	398	0.5	397	399	13.7	82.9
2025-08-03T07:14	10	93	0.4	92	94	397	0.4	396	398	13.6	82.9
2025-08-03T07:15	10	95	1.5	92	97	397	0.3	396	398	13.4	83.0
2025-08-03T07:16	10	97	0.3	97	98	397	0.3	396	397	13.4	83.5
2025-08-03T07:17	10	98	0.2	98	98	398	0.8	397	399	13.4	83.7
2025-08-03T07:18	10	98	0.2	98	99	399	0.4	399	400	13.4	83.7
2025-08-03T07:19	10	99	0.2	99	99	400	0.4	399	401	13.6	83.7
2025-08-03T07:20	10	99	0.2	99	100	400	0.5	399	401	13.7	82.6
2025-08-03T07:21	10	100	0.2	99	100	401	0.4	401	402	14.0	82.3
2025-08-03T07:22	10	100	0.3	100	101	402	0.5	400	402	14.2	82.7
2025-08-03T07:23	10	101	0.1	100	101	401	0.6	400	402	13.9	81.0
2025-08-03T07:24	10	101	0.2	100	102	402	0.3	401	403	14.0	81.8
2025-08-03T07:25	10	101	0.2	101	102	401	0.9	400	403	14.0	81.3
2025-08-03T07:26	10	101	0.3	100	102	401	0.3	400	402	14.1	81.6
2025-08-03T07:27	10	102	0.6	101	103	402	0.5	401	403	14.3	81.7
2025-08-03T07:28	10	103	0.4	102	104	404	0.5	403	405	14.5	81.3
2025-08-03T07:29	10	104	0.8	102	105	405	0.7	404	406	14.4	81.3
2025-08-03T07:30	10	105	0.3	104	105	405	0.4	405	406	14.4	81.2
2025-08-03T07:31	10	105	1.5	101	106	406	0.4	405	406	14.4	81.0
2025-08-03T07:32	10	101	0.5	100	102	406	0.2	405	406	14.3	80.5
2025-08-03T07:33	10	105	1.7	101	107	406	0.3	405	407	14.6	81.7
2025-08-03T07:34	10	107	0.2	107	108	407	0.4	406	408	14.6	81.3
2025-08-03T07:35	10	108	0.2	107	108	405	0.6	404	407	14.2	81.0
2025-08-03T07:36	10	106	2.1	101	108	406	0.4	405	407	14.2	81.5
2025-08-03T07:37	10	106	2.5	101	109	407	0.4	406	407	14.2	81.9
2025-08-03T07:38	10	109	0.5	108	110	407	0.6	406	408	14.3	82.1
2025-08-03T07:39	10	110	0.2	110	110	406	0.5	405	407	14.1	81.2
2025-08-03T07:40	10	110	0.4	109	110	407	0.6	406	408	14.2	81.6
2025-08-03T07:41	10	109	0.4	108	109	406	1.0	404	407	14.3	80.8
2025-08-03T07:42	10	109	0.8	104	109	404	0.4	403	405	14.2	81.2
2025-08-03T07:43	10	106	3.1	100	109	405	1.1	403	406	14.1	81.3
2025-08-03T07:44	10	108	0.5	107	109	407	0.9	406	409	14.4	80.8
2025-08-03T07:45	10	106	0.4	105	107	408	0.5	407	409	14.4	80.8
2025-08-03T07:46	10	106	1.0	103	107	408	0.6	406	409	14.5	78.5
2025-08-03T07:47	10	103	2.5	99	107	406	0.8	404	407	14.5	78.0
2025-08-03T07:48	10	108	1.8	104	110	405	0.4	404	406	14.3	78.6
2025-08-03T07:49	10	109	1.5	107	112	407	1.2	405	409	14.3	78.7
2025-08-03T07:50	10	110	1.0	108	112	409	0.3	408	409	14.3	79.2
2025-08-03T07:51	10	110	3.2	105	115	409	0.3	408	410	14.4	79.1
2025-08-03T07:52	10	114	0.3	114	115	410	0.6	409	411	14.6	79.0
2025-08-03T07:53	10	116	1.2	114	118	411	0.5	410	412	14.9	78.8
2025-08-03T07:54	10	117	1.9	112	118	412	0.4	411	413	15.2	78.4
2025-08-03T07:55	10	107	1.7	104	111	412	0.6	411	413	15.3	77.3
2025-08-03T07:56	10	105	4.8	96	111	410	0.8	409	412	15.2	77.2
2025-08-03T07:57	10	95	2.7	89	98	410	0.4	409	411	15.3	77.9
2025-08-03T07:58	10	101	7.2	91	114	411	0.4	410	412	15.3	77.1
2025-08-03T07:59	10	112	5.6	102	120	412	0.9	411	414	15.4	77.2
2025-08-03T08:00	10	106	8.2	95	120	413	0.9	411	414	15.4	76.5
2025-08-03T08:01	10	111	9.7	93	123	412	0.9	410	413	15.1	76.2
2025-08-03T08:02	10	118	2.4	114	122	413	1.1	412	415	15.0	75.5
2025-08-03T08:03	10	121	0.6	120	122	415	0.3	414	415	15.4	76.3
2025-08-03T08:04	10	121	1.1	120	123	416	0.5	415	417	15.6	75.1
2025-08-03T08:05	10	123	0.2	123	124	415	0.5	414	416	15.0	73.6
2025-08-03T08:06	10	121	1.7	117	124	415	0.5	415	416	14.9	74.6
2025-08-03T08:07	10	123	2.9	115	126	417	0.3	416	417	15.2	74.4
2025-08-03T08:08	10	116	3.5	109	121	417	0.4	416	418	15.6	74.7
2025-08-03T08:09	10	112	2.6	108	116	417	0.4	416	417	15.4	74.1
2025-08-03T08:10	10	112	6.1	99	118	415	0.7	414	417	15.5	74.6
2025-08-03T08:11	10	107	3.6	101	113	413	0.9	411	415	15.4	72.8
2025-08-03T08:12	10	107	2.0	103	109	411	0.4	410	412	15.3	72.9
2025-08-03T08:13	10	105	2.6	98	108	411	0.3	410	412	15.3	73.7
2025-08-03T08:14	10	100	2.5	96	104	412	0.5	411	413	15.4	73.8
2025-08-03T08:15	10	104	2.0	100	108	413	0.9	412	414	15.5	73.2
2025-08-03T08:16	10	113	6.2	100	120	413	1.4	411	415	15.5	73.1
2025-08-03T08:17	10	116	7.2	104	126	416	0.8	415	418	15.4	72.6
2025-08-03T08:18	10	116	4.7	110	127	417	0.6	415	418	15.8	73.4
2025-08-03T08:19	10	127	2.4	119	130	418	0.6	417	419	15.6	72.6
2025-08-03T08:20	10	125	2.2	121	129	418	0.6	417	420	15.6	72.0
2025-08-03T08:21	10	125	1.1	123	126	419	0.8	417	420	15.7	72.0
2025-08-03T08:22	10	129	2.7	123	132	421	1.0	420	423	16.0	72.2
2025-08-03T08:23	10	128	0.8	126	130	422	0.6	420	423	16.0	71.6
2025-08-03T08:24	10	123	2.0	120	126	419	1.5	417	421	15.7	71.6
2025-08-03T08:25	10	123	1.6	120	126	419	1.2	417	421	15.6	72.5
2025-08-03T08:26	10	126	0.8	124	127	418	1.2	417	421	15.9	71.9
2025-08-03T08:27	10	130	1.7	127	132	417	0.4	417	419	15.5	71.7
2025-08-03T08:28	10	131	0.3	131	132	417	0.5	416	419	15.5	72.3
2025-08-03T08:29	10	132	0.2	131	132	419	1.2	417	421	15.7	72.8
2025-08-03T08:30	10	134	0.7	132	135	421	0.8	420	423	16.1	72.3
2025-08-03T08:31	10	135	0.3	134	136	423	0.8	422	424	16.3	71.3
2025-08-03T08:32	10	136	0.2	136	136	423	0.4	422	424	16.4	70.6
2025-08-03T08:33	10	137	0.2	136	137	423	0.7	422	424	15.9	70.5
2025-08-03T08:34	10	136	1.1	133	137	424	0.6	423	425	15.9	70.7
2025-08-03T08:35	10	131	2.2	128	135	424	0.7	423	425	16.1	70.4
2025-08-03T08:36	10	138	1.2	135	140	424	0.8	423	425	15.9	69.2
2025-08-03T08:37	10	132	8.5	119	141	424	0.9	423	426	16.1	69.8
2025-08-03T08:38	10	122	5.3	116	134	424	0.5	423	425	16.3	69.3
2025-08-03T08:39	10	127	3.5	121	135	424	0.5	423	426	16.3	68.7
2025-08-03T08:40	10	131	4.9	122	139	425	0.8	424	427	16.1	68.7
2025-08-03T08:41	10	142	1.1	138	143	429	1.1	427	430	16.3	69.7
2025-08-03T08:42	10	143	0.1	142	143	427	0.9	426	429	16.2	69.8
2025-08-03T08:43	10	143	0.3	142	143	425	0.8	424	428	16.1	69.2
2025-08-03T08:44	10	143	0.4	142	144	425	0.5	424	426	16.1	68.4
2025-08-03T08:45	10	138	4.3	130	143	426	0.5	425	427	16.2	68.1
2025-08-03T08:46	10	140	0.8	138	142	427	0.5	426	428	16.2	67.4
2025-08-03T08:47	10	134	2.3	129	138	427	1.0	424	428	16.4	68.3
2025-08-03T08:48	10	137	1.5	133	139	427	1.9	424	431	16.4	68.4
2025-08-03T08:49	10	141	1.5	138	143	430	0.8	428	431	16.6	68.0
2025-08-03T08:50	10	142	1.5	138	144	428	0.3	428	429	16.2	68.3
2025-08-03T08:51	10	132	12.8	106	145	427	1.1	424	428	16.5	68.7
2025-08-03T08:52	10	142	5.8	124	148	426	0.5	425	428	16.3	66.4
2025-08-03T08:53	10	132	8.6	117	145	425	1.2	423	427	16.2	67.6
2025-08-03T08:54	10	113	14.5	93	136	426	2.2	421	428	16.7	68.8
2025-08-03T08:55	10	102	3.6	95	108	422	0.9	421	424	16.7	66.8
2025-08-03T08:56	10	98	1.6	94	100	422	0.9	421	424	16.6	66.9
2025-08-03T08:57	10	106	9.7	88	115	420	0.7	419	422	16.6	65.8
2025-08-03T08:58	10	120	5.5	114	135	422	0.8	420	423	16.5	66.4
2025-08-03T08:59	10	139	3.7	133	144	423	0.5	422	424	16.5	66.0
2025-08-03T09:00	10	144	2.0	140	147	425	1.7	423	429	16.3	65.7
2025-08-03T09:01	10	138	3.8	132	146	430	0.8	429	431	16.5	66.0
2025-08-03T09:02	10	135	2.6	131	142	431	0.3	430	432	16.8	66.2
2025-08-03T09:03	10	137	3.8	133	143	432	0.4	431	433	16.8	67.7
2025-08-03T09:04	10	131	1.5	129	135	432	0.5	431	433	17.1	67.0
2025-08-03T09:05	10	137	3.2	130	140	433	0.6	432	434	17.0	66.2
2025-08-03T09:06	10	130	3.5	125	138	431	1.7	429	434	17.0	64.5
2025-08-03T09:07	10	121	4.3	114	128	429	1.1	428	431	17.0	63.9
2025-08-03T09:08	10	119	3.0	113	124	426	1.8	424	430	16.8	63.0
2025-08-03T09:09	10	122	3.1	115	126	425	0.7	423	426	16.8	62.9
2025-08-03T09:10	10	116	2.8	109	119	423	0.3	422	424	16.6	64.2
2025-08-03T09:11	10	121	4.7	113	127	425	1.0	423	426	16.6	63.8
2025-08-03T09:12	10	113	2.5	110	118	426	0.6	424	427	17.0	64.5
2025-08-03T09:13	10	111	1.9	108	114	426	0.5	425	427	17.0	64.3
2025-08-03T09:14	10	108	4.3	98	113	425	1.7	422	427	16.9	63.2
2025-08-03T09:15	10	107	3.6	97	112	423	0.7	422	424	16.8	63.9
2025-08-03T09:16	10	97	6.4	87	104	422	0.7	420	423	16.8	64.4
2025-08-03T09:17	10	85	2.5	81	90	420	0.4	419	421	16.8	64.8
2025-08-03T09:18	10	92	6.7	83	108	417	0.9	416	419	16.8	64.9
2025-08-03T09:19	10	116	2.4	111	120	423	2.4	418	426	17.0	66.2
2025-08-03T09:20	10	114	7.5	99	124	424	0.6	423	426	17.1	65.1
2025-08-03T09:21	10	132	9.1	115	143	428	2.8	424	433	16.9	64.4
2025-08-03T09:22	10	147	3.5	142	153	433	1.2	431	436	17.0	64.2
2025-08-03T09:23	10	143	6.9	124	153	436	0.4	435	437	17.1	63.9
2025-08-03T09:24	10	115	8.1	105	126	433	3.1	428	436	17.4	64.2
2025-08-03T09:25	10	106	14.4	93	135	428	0.9	426	429	17.5	63.7
2025-08-03T09:26	10	140	17.8	112	165	429	2.6	425	433	17.3	62.6
2025-08-03T09:27	10	157	10.9	124	167	435	1.2	432	437	17.2	63.7
2025-08-03T09:28	10	135	6.8	116	142	435	0.4	435	436	17.4	64.1
2025-08-03T09:29	10	100	13.1	85	132	430	3.3	426	436	17.2	63.1
2025-08-03T09:30	10	107	11.0	95	131	427	1.2	425	430	17.0	63.0
2025-08-03T09:31	10	150	12.9	122	163	435	3.0	429	439	17.3	64.6
2025-08-03T09:32	10	151	7.3	141	163	439	0.8	438	441	17.4	63.9
2025-08-03T09:33	10	116	15.5	86	140	436	3.5	429	440	17.4	64.2
2025-08-03T09:34	10	114	10.8	98	135	428	1.1	426	431	17.4	64.2
2025-08-03T09:35	10	141	3.5	134	147	430	1.6	428	433	17.4	62.0
2025-08-03T09:36	10	132	7.3	119	143	433	0.6	433	435	17.4	64.2
2025-08-03T09:37	10	139	1.3	135	141	436	1.5	434	439	17.4	64.2
2025-08-03T09:38	10	144	5.1	134	154	438	0.7	437	440	17.4	64.2
2025-08-03T09:39	10	143	9.6	122	154	438	1.2	435	440	17.4	64.2
2025-08-03T09:40	10	117	20.5	87	152	435	2.1	431	438	17.4	64.1
2025-08-03T09:41	10	93	8.2	83	110	429	1.6	426	432	17.3	63.2
2025-08-03T09:42	10	98	12.3	86	128	427	0.6	425	429	17.1	63.2
2025-08-03T09:43	10	125	14.5	110	170	431	1.9	428	437	17.2	63.4
2025-08-03T09:44	10	162	7.6	149	175	438	0.7	435	438	17.7	64.4
2025-08-03T09:45	10	129	14.4	100	152	437	1.7	433	439	17.6	64.8
2025-08-03T09:46	10	88	8.6	76	100	430	3.1	424	435	17.6	64.6
2025-08-03T09:47	10	70	3.8	64	77	422	2.3	418	426	17.3	63.9
2025-08-03T09:48	10	83	18.7	64	136	420	1.3	419	425	17.3	64.3
2025-08-03T09:49	10	143	8.1	129	157	431	3.4	423	435	17.4	64.0
2025-08-03T09:50	10	94	17.5	70	129	429	3.1	425	434	17.3	62.6
2025-08-03T09:51	10	72	6.8	62	86	424	1.1	422	426	17.3	63.9
2025-08-03T09:52	10	110	22.9	72	148	425	3.0	421	432	17.2	63.3
2025-08-03T09:53	10	150	18.8	126	175	434	3.4	430	440	17.3	63.5
2025-08-03T09:54	10	172	4.8	155	176	442	1.6	438	444	17.5	62.2
2025-08-03T09:55	10	165	9.1	138	176	444	1.2	442	446	17.8	62.3
2025-08-03T09:56	10	102	11.6	87	134	438	3.2	434	445	17.9	62.0
2025-08-03T09:57	10	92	4.2	85	102	432	1.6	430	435	17.8	61.7
2025-08-03T09:58	10	99	6.1	89	110	431	0.3	430	432	17.8	62.1
2025-08-03T09:59	10	93	8.2	79	111	428	2.7	423	432	17.7	62.4
2025-08-03T10:00	10	90	9.6	78	110	424	0.4	423	425	17.6	63.0
2025-08-03T10:01	10	136	12.2	112	151	429	3.1	425	434	17.5	63.2
2025-08-03T10:02	10	156	4.1	150	162	434	1.3	432	436	17.3	63.1
2025-08-03T10:03	10	155	8.8	135	163	437	1.0	436	440	17.5	63.1
2025-08-03T10:04	10	162	1.2	161	165	441	1.5	440	444	17.7	62.5
2025-08-03T10:05	10	167	0.8	165	168	443	0.7	442	444	17.7	61.8
2025-08-03T10:06	10	171	0.8	169	172	444	1.0	443	445	17.6	62.1
2025-08-03T10:07	10	166	5.4	153	172	446	0.5	445	447	17.7	61.8
2025-08-03T10:08	10	159	8.6	141	169	445	1.3	442	447	17.8	60.8
2025-08-03T10:09	10	152	12.0	133	170	442	0.6	441	443	17.6	60.7
2025-08-03T10:10	10	152	12.1	131	173	444	0.8	443	446	17.9	61.2
2025-08-03T10:11	10	161	8.8	142	173	446	0.8	444	447	18.1	60.5
2025-08-03T10:12	10	133	12.8	116	163	443	2.3	440	447	18.2	59.9
2025-08-03T10:13	10	132	14.3	101	150	437	1.7	433	441	17.8	59.3
2025-08-03T10:14	10	120	11.8	107	149	434	0.6	432	435	17.9	59.6
2025-08-03T10:15	10	137	14.8	108	157	436	1.6	433	439	17.8	59.6
2025-08-03T10:16	10	121	19.3	97	150	435	3.2	429	438	17.9	59.9
2025-08-03T10:17	10	93	2.2	89	99	429	0.6	428	430	17.6	60.2
2025-08-03T10:18	10	92	3.1	86	97	430	1.0	428	431	17.9	60.4
2025-08-03T10:19	10	96	2.6	91	100	429	0.6	428	430	17.8	59.9
2025-08-03T10:20	10	101	5.6	93	113	430	1.2	428	432	17.7	60.1
2025-08-03T10:21	10	112	3.8	104	118	432	0.5	431	433	18.0	59.1
2025-08-03T10:22	10	117	7.8	107	140	433	1.9	432	437	17.9	58.5
2025-08-03T10:23	10	114	8.9	104	133	435	1.2	433	437	18.0	58.1
2025-08-03T10:24	10	108	10.5	92	124	435	2.2	431	438	18.2	58.4
2025-08-03T10:25	10	116	5.6	104	126	433	0.4	432	434	17.9	58.5
2025-08-03T10:26	10	109	4.6	102	117	434	0.6	433	435	17.9	58.8
2025-08-03T10:27	10	104	6.0	95	116	433	0.8	432	434	18.1	58.8
2025-08-03T10:28	10	106	8.0	90	121	432	0.6	431	434	18.2	58.0
2025-08-03T10:29	10	125	13.4	101	143	437	1.9	433	440	18.2	58.2
2025-08-03T10:30	10	133	13.5	113	157	436	1.2	433	438	18.1	56.2
2025-08-03T10:31	10	124	20.1	87	149	439	1.7	434	441	18.4	56.3
2025-08-03T10:32	10	120	14.3	93	150	435	1.3	434	438	18.2	55.8
2025-08-03T10:33	10	122	15.3	103	156	435	1.4	433	438	18.2	56.3
2025-08-03T10:34	10	114	9.1	97	152	433	1.3	431	437	18.2	55.4
2025-08-03T10:35	10	140	16.6	121	175	437	1.1	433	439	18.0	56.9
2025-08-03T10:36	10	126	11.2	100	149	439	0.9	438	441	18.0	56.9
2025-08-03T10:37	10	138	11.6	105	154	441	1.8	438	444	18.3	57.2
2025-08-03T10:38	10	157	11.5	134	178	445	1.3	443	448	18.5	56.4
2025-08-03T10:39	10	152	16.0	123	170	445	1.3	444	448	18.6	55.2
2025-08-03T10:40	10	166	8.0	150	175	447	1.3	445	450	18.9	55.7
2025-08-03T10:41	10	117	16.8	92	148	442	3.6	437	449	18.8	54.6
2025-08-03T10:42	10	85	5.6	79	95	434	1.9	432	439	18.6	54.9
2025-08-03T10:43	10	104	10.2	89	129	434	0.8	433	436	18.5	54.1
2025-08-03T10:44	10	144	9.2	128	158	439	2.9	434	444	18.3	53.2
2025-08-03T10:45	10	161	2.9	156	164	447	1.5	443	448	18.6	52.3
2025-08-03T10:46	10	160	1.0	158	162	448	0.9	446	450	18.6	51.3
2025-08-03T10:47	10	158	2.0	155	162	447	0.8	446	448	18.6	51.4
2025-08-03T10:48	10	153	4.3	143	158	443	1.7	441	447	18.4	51.7
2025-08-03T10:49	10	159	0.8	158	160	449	1.9	446	452	18.6	52.7
2025-08-03T10:50	10	159	0.5	158	160	452	0.5	452	453	19.1	53.5
2025-08-03T10:51	10	157	1.0	155	159	451	1.6	448	453	19.1	51.5
2025-08-03T10:52	10	156	1.5	153	158	448	0.7	447	449	18.9	50.9
2025-08-03T10:53	10	160	0.6	158	161	445	1.0	444	449	18.6	49.4
2025-08-03T10:54	10	161	0.3	161	162	446	0.4	445	447	18.3	50.8
2025-08-03T10:55	10	162	0.4	161	163	449	0.7	447	450	18.8	51.1
2025-08-03T10:56	10	161	0.8	160	162	450	0.8	449	452	18.8	51.0
2025-08-03T10:57	10	162	0.6	161	164	450	0.8	448	451	19.0	49.4
2025-08-03T10:58	10	165	0.8	163	166	448	0.6	447	449	18.6	48.8
2025-08-03T10:59	10	159	2.8	154	163	448	0.8	447	449	18.6	50.6
2025-08-03T11:00	10	166	4.9	155	173	450	0.7	449	452	19.1	50.6
2025-08-03T11:01	10	150	5.8	142	162	449	1.4	447	451	18.8	50.7
2025-08-03T11:02	10	147	15.0	125	169	449	1.2	447	451	18.7	50.7
2025-08-03T11:03	10	132	3.4	125	140	447	0.4	447	448	18.7	50.0
2025-08-03T11:04	10	155	9.2	141	166	452	2.2	447	454	18.9	51.0
2025-08-03T11:05	10	125	8.0	113	140	452	0.9	450	453	19.2	53.4
2025-08-03T11:06	10	147	22.2	115	174	452	1.6	450	455	19.3	49.8
2025-08-03T11:07	10	166	10.3	147	182	454	0.9	453	456	19.4	49.0
2025-08-03T11:08	10	181	4.0	173	186	454	0.4	453	455	19.4	48.2
2025-08-03T11:09	10	176	12.5	150	186	458	1.4	455	459	19.4	49.7
2025-08-03T11:10	10	145	14.2	129	168	452	3.5	446	457	19.5	48.9
2025-08-03T11:11	10	141	9.3	131	165	447	0.9	446	450	19.2	48.9
2025-08-03T11:12	10	166	15.2	131	183	455	2.2	449	457	19.3	49.6
2025-08-03T11:13	10	127	10.4	111	142	452	1.7	450	455	19.5	49.2
2025-08-03T11:14	10	154	14.8	135	179	452	1.7	449	456	19.0	46.8
2025-08-03T11:15	10	172	5.9	161	178	457	0.6	455	458	19.1	47.3
2025-08-03T11:16	10	161	2.5	155	165	459	1.0	457	461	19.4	48.0
2025-08-03T11:17	10	167	5.1	155	174	457	0.6	455	458	19.6	47.1
2025-08-03T11:18	10	172	2.4	169	175	457	0.5	456	458	19.1	47.0
2025-08-03T11:19	10	173	1.4	171	175	458	1.3	456	460	19.4	47.8
2025-08-03T11:20	10	169	0.8	168	171	458	1.3	456	460	19.3	48.1
2025-08-03T11:21	10	165	3.0	158	168	457	0.5	455	458	19.4	47.3
2025-08-03T11:22	10	159	1.1	158	161	455	1.0	454	457	19.1	47.0
2025-08-03T11:23	10	164	1.4	160	165	457	1.3	454	459	19.0	47.7
2025-08-03T11:24	10	164	0.6	163	165	459	0.5	458	460	19.3	47.8
2025-08-03T11:25	10	163	0.6	162	164	458	0.3	458	459	19.1	47.4
2025-08-03T11:26	10	163	0.3	162	164	459	0.9	458	460	19.4	49.0
2025-08-03T11:27	10	163	0.7	162	164	460	0.8	458	461	19.5	49.8
2025-08-03T11:28	10	162	0.6	161	163	456	1.2	454	459	19.4	49.3
2025-08-03T11:29	10	164	0.2	163	164	455	0.6	453	456	19.1	47.6
2025-08-03T11:30	10	163	0.2	163	164	455	1.2	453	457	19.1	48.8
2025-08-03T11:31	10	162	0.1	162	163	456	0.7	455	457	19.2	48.3
2025-08-03T11:32	10	162	0.1	162	163	457	1.0	456	459	19.3	47.7
2025-08-03T11:33	10	162	0.1	162	163	457	0.6	456	458	19.3	47.1
2025-08-03T11:34	10	162	0.1	162	163	459	1.0	457	460	19.3	46.9
2025-08-03T11:35	10	163	0.1	162	163	459	0.6	458	460	19.1	46.4
2025-08-03T11:36	10	162	0.7	161	163	461	0.8	459	462	19.3	47.1
2025-08-03T11:37	10	161	1.2	159	163	461	1.6	457	463	19.6	47.8
2025-08-03T11:38	10	161	0.7	159	162	456	0.9	454	457	19.2	47.7
2025-08-03T11:39	10	160	1.2	158	162	457	0.6	456	458	19.4	49.5
2025-08-03T11:40	10	161	0.2	161	162	456	0.9	455	458	19.5	48.8
2025-08-03T11:41	10	161	0.2	161	162	455	0.4	454	456	19.3	49.1
2025-08-03T11:42	10	162	0.2	162	163	457	0.5	456	458	19.6	48.4
2025-08-03T11:43	10	162	0.2	162	163	459	1.2	457	461	19.8	48.8
2025-08-03T11:44	10	163	0.2	162	163	462	1.2	460	464	20.1	49.3
2025-08-03T11:45	10	163	0.2	163	164	461	1.6	457	463	19.8	47.1
2025-08-03T11:46	10	163	0.2	163	164	460	1.1	458	461	19.5	47.3
2025-08-03T11:47	10	163	0.2	163	164	461	0.4	460	462	19.4	47.7
2025-08-03T11:48	10	163	0.2	163	164	460	0.4	459	461	19.4	48.2
2025-08-03T11:49	10	163	0.3	163	164	461	0.9	459	463	19.7	47.7
2025-08-03T11:50	10	163	0.2	163	164	462	0.4	461	463	19.6	47.5
2025-08-03T11:51	10	163	0.2	163	164	462	0.4	461	463	20.1	48.5
2025-08-03T11:52	10	163	0.2	163	164	461	0.6	459	462	19.8	47.5
2025-08-03T11:53	10	163	0.2	162	163	460	0.5	459	461	19.7	47.9
2025-08-03T11:54	10	163	0.3	162	163	459	0.7	458	461	19.7	46.9
2025-08-03T11:55	10	163	0.3	162	164	459	0.4	458	460	19.7	47.7
2025-08-03T11:56	10	163	0.1	163	163	459	0.7	458	460	19.7	47.4
2025-08-03T11:57	10	163	0.1	163	163	461	0.7	459	462	19.7	47.1
2025-08-03T11:58	10	163	0.3	162	163	461	1.7	459	464	19.7	47.4
2025-08-03T11:59	10	163	0.2	163	164	464	0.7	462	465	20.0	48.1
2025-08-03T12:00	10	164	0.1	163	164	463	0.9	461	463	20.1	48.7
2025-08-03T12:01	10	164	0.1	164	164	461	0.4	460	462	20.1	50.0
2025-08-03T12:02	10	164	0.1	164	164	461	0.5	461	462	20.1	49.7
2025-08-03T12:03	10	164	0.1	164	165	462	0.3	461	462	19.9	49.8
2025-08-03T12:04	10	165	0.3	165	166	462	0.6	461	464	20.0	49.5
2025-08-03T12:05	10	166	0.2	166	167	463	0.9	462	465	19.9	49.5
2025-08-03T12:06	10	167	0.2	166	167	464	0.3	464	465	20.1	49.7
2025-08-03T12:07	10	169	0.9	167	170	467	1.2	464	468	20.2	49.7
2025-08-03T12:08	10	171	0.5	170	172	467	0.9	465	469	20.4	48.3
2025-08-03T12:09	10	173	0.7	172	175	466	0.8	464	467	20.0	48.0
2025-08-03T12:10	10	176	0.7	175	177	467	0.8	466	469	20.1	49.5
2025-08-03T12:11	10	179	1.2	177	181	466	0.5	465	467	20.1	50.1
2025-08-03T12:12	10	173	6.0	157	181	467	0.5	466	468	20.3	49.7
2025-08-03T12:13	10	146	12.7	116	160	465	2.1	460	467	20.3	49.8
2025-08-03T12:14	10	154	24.6	114	184	461	2.7	458	466	20.0	48.3
2025-08-03T12:15	10	184	1.1	182	186	469	1.9	465	472	20.3	50.5
2025-08-03T12:16	10	181	0.6	180	182	472	0.6	471	473	20.8	48.1
2025-08-03T12:17	10	180	0.4	180	181	469	0.7	468	471	20.6	46.1
2025-08-03T12:18	10	182	0.5	181	183	470	0.4	469	471	20.5	46.2
2025-08-03T12:19	10	184	0.7	183	185	471	0.4	470	472	20.5	46.8
2025-08-03T12:20	10	186	0.8	185	188	474	1.0	472	475	20.7	48.5
2025-08-03T12:21	10	189	0.9	188	191	475	0.4	474	476	21.1	47.9
2025-08-03T12:22	10	193	1.6	191	196	474	1.1	472	476	21.5	48.0
2025-08-03T12:23	10	176	27.0	120	198	475	2.2	469	477	21.2	47.9
2025-08-03T12:24	10	118	11.3	100	134	465	2.6	462	471	21.5	47.1
2025-08-03T12:25	10	186	25.0	135	211	469	4.6	461	476	21.4	47.5
2025-08-03T12:26	10	213	1.7	210	216	478	1.3	475	480	21.4	47.8
2025-08-03T12:27	10	222	3.3	217	228	477	0.9	475	478	21.0	46.4
2025-08-03T12:28	10	221	6.3	210	228	478	2.3	473	481	20.8	47.3
2025-08-03T12:29	10	206	6.8	185	214	472	0.9	470	474	20.2	48.4
2025-08-03T12:30	10	135	23.4	97	181	466	3.6	458	473	20.4	48.9
2025-08-03T12:31	10	98	2.3	95	103	453	2.6	450	460	20.2	46.5
2025-08-03T12:32	10	93	1.9	91	98	449	1.2	447	452	20.3	47.4
2025-08-03T12:33	10	95	4.6	90	104	449	0.8	447	450	20.1	48.1
2025-08-03T12:34	10	89	1.5	87	94	448	0.6	447	450	20.3	49.1
2025-08-03T12:35	10	87	0.3	86	88	447	0.3	446	447	20.5	49.5
2025-08-03T12:36	10	88	0.3	88	89	447	0.4	446	448	20.5	50.3
2025-08-03T12:37	10	94	4.4	88	101	446	0.3	445	447	20.4	50.0
2025-08-03T12:38	10	103	4.1	97	112	447	1.2	445	449	20.5	51.5
2025-08-03T12:39	10	110	14.7	97	146	446	0.7	445	448	20.5	49.9
2025-08-03T12:40	10	103	13.9	91	142	445	2.4	442	449	20.1	50.4
2025-08-03T12:41	10	90	0.9	89	92	440	1.2	439	443	20.2	50.6
2025-08-03T12:42	10	88	1.0	87	90	439	0.4	438	440	20.0	50.6
2025-08-03T12:43	10	87	0.2	86	87	440	0.5	439	440	20.2	50.4
2025-08-03T12:44	10	91	3.8	87	101	440	1.1	438	442	20.1	49.6
2025-08-03T12:45	10	96	1.8	94	101	443	1.1	441	445	20.3	49.7
2025-08-03T12:46	10	94	0.7	94	97	445	0.4	444	446	20.3	50.5
2025-08-03T12:47	10	104	11.1	95	136	444	0.7	443	447	20.5	51.2
2025-08-03T12:48	10	157	34.6	120	217	450	2.3	445	453	20.1	50.5
2025-08-03T12:49	10	158	34.0	118	215	454	5.6	448	462	20.2	51.2
2025-08-03T12:50	10	163	25.9	128	214	461	2.5	457	465	20.7	50.9
2025-08-03T12:51	10	120	3.0	116	127	454	1.8	451	458	20.8	50.1
2025-08-03T12:52	10	138	11.5	121	172	453	1.1	451	455	20.9	50.0
2025-08-03T12:53	10	151	19.4	119	181	455	1.5	452	457	20.6	50.0
2025-08-03T12:54	10	116	1.3	114	119	451	1.0	449	453	20.3	49.9
2025-08-03T12:55	10	129	6.8	118	145	452	0.9	450	454	20.3	50.0
2025-08-03T12:56	10	169	29.0	128	210	457	3.7	450	462	20.0	48.7
2025-08-03T12:57	10	127	2.1	125	135	456	1.3	455	458	20.3	49.2
2025-08-03T12:58	10	142	4.8	135	152	459	1.4	455	461	20.6	50.0
2025-08-03T12:59	10	153	14.5	135	177	460	1.9	458	463	20.6	49.8
2025-08-03T13:00	10	138	9.0	129	164	457	3.0	454	463	20.7	49.7
2025-08-03T13:01	10	180	23.6	152	222	462	2.9	455	465	20.8	49.0
2025-08-03T13:02	10	127	13.1	112	151	457	3.9	451	463	20.9	49.4
2025-08-03T13:03	10	108	2.1	105	112	450	1.1	449	453	20.4	48.2
2025-08-03T13:04	10	101	1.8	99	105	448	1.6	445	450	20.6	49.6
2025-08-03T13:05	10	98	0.5	97	99	444	0.7	443	446	20.4	49.3
2025-08-03T13:06	10	97	0.1	97	98	444	0.4	443	445	20.5	49.8
2025-08-03T13:07	10	98	0.5	97	99	444	0.3	443	445	20.7	48.8
2025-08-03T13:08	10	100	0.4	99	101	445	0.6	444	446	20.8	49.0
2025-08-03T13:09	10	103	1.1	101	105	444	1.5	441	446	20.6	48.2
2025-08-03T13:10	10	103	0.3	103	104	442	0.2	442	443	20.2	48.5
2025-08-03T13:11	10	104	1.6	102	107	443	0.2	442	444	20.1	48.3
2025-08-03T13:12	10	102	0.1	101	102	443	0.6	442	444	20.0	48.2
2025-08-03T13:13	10	104	2.8	102	111	443	0.5	442	444	20.3	48.0
2025-08-03T13:14	10	106	0.9	105	110	442	0.8	440	443	20.4	46.1
2025-08-03T13:15	10	107	1.5	105	110	440	0.6	439	441	20.2	45.8
2025-08-03T13:16	10	134	24.7	110	185	446	4.2	440	452	20.4	46.6
2025-08-03T13:17	10	120	6.8	112	136	446	0.6	445	447	20.5	46.6
2025-08-03T13:18	10	109	1.1	108	112	445	0.4	444	446	20.4	47.7
2025-08-03T13:19	10	110	1.0	108	111	445	0.3	444	446	20.4	47.7
2025-08-03T13:20	10	108	0.4	107	109	444	1.2	441	446	20.5	47.1
2025-08-03T13:21	10	107	0.6	107	109	441	0.3	440	442	20.3	46.8
2025-08-03T13:22	10	108	3.4	106	118	442	1.0	440	443	20.4	47.2
2025-08-03T13:23	10	106	0.5	105	106	442	0.3	441	443	20.4	47.5
2025-08-03T13:24	10	120	14.7	106	157	443	2.7	440	447	20.3	47.9
2025-08-03T13:25	10	116	7.0	110	133	446	1.5	445	450	20.6	49.6
2025-08-03T13:26	10	124	3.2	120	133	449	0.9	447	450	20.8	49.4
2025-08-03T13:27	10	148	25.8	125	199	452	3.4	447	457	20.7	50.0
2025-08-03T13:28	10	145	17.1	131	188	454	2.4	451	460	20.8	50.7
2025-08-03T13:29	10	115	10.4	108	158	450	4.5	445	460	20.6	51.1
2025-08-03T13:30	10	110	2.8	108	120	443	1.6	441	447	20.4	51.0
2025-08-03T13:31	10	123	4.1	118	132	445	0.5	444	446	20.4	50.3
2025-08-03T13:32	10	126	15.4	109	157	447	1.4	445	450	20.1	50.7
2025-08-03T13:33	10	107	1.0	106	109	445	1.5	442	447	20.4	51.6
2025-08-03T13:34	10	112	5.2	107	122	443	1.0	441	444	20.3	50.9
2025-08-03T13:35	10	111	1.2	108	113	442	0.9	440	443	20.4	51.0
2025-08-03T13:36	10	123	4.1	114	129	443	0.6	442	445	20.1	51.5
2025-08-03T13:37	10	118	12.3	110	148	443	1.3	442	447	20.4	51.6
2025-08-03T13:38	10	114	10.9	106	148	443	1.4	441	447	20.2	51.0
2025-08-03T13:39	10	129	34.6	98	197	446	1.9	443	450	20.3	51.2
2025-08-03T13:40	10	95	1.5	93	98	441	2.4	438	445	20.3	51.0
2025-08-03T13:41	10	95	1.7	93	100	440	0.4	439	441	20.3	51.1
2025-08-03T13:42	10	100	5.7	94	110	441	0.8	439	442	20.5	50.0
2025-08-03T13:43	10	100	3.2	95	104	438	0.7	437	440	20.2	49.6
2025-08-03T13:44	10	100	1.9	96	104	439	0.3	438	440	20.2	50.0
2025-08-03T13:45	10	99	3.2	96	105	440	1.2	438	442	20.3	50.0
2025-08-03T13:46	10	92	1.8	90	97	438	1.0	436	440	20.1	50.1
2025-08-03T13:47	10	94	4.9	90	107	437	0.5	436	438	20.1	50.0
2025-08-03T13:48	10	100	12.4	90	125	438	1.1	436	441	20.3	49.8
2025-08-03T13:49	10	129	29.6	101	188	442	4.1	439	450	20.5	49.5
2025-08-03T13:50	10	91	10.0	85	134	443	3.4	438	450	20.5	48.3
2025-08-03T13:51	10	84	0.5	84	85	439	0.5	437	439	20.2	48.8
2025-08-03T13:52	10	83	0.5	82	84	437	0.5	436	438	20.3	49.2
2025-08-03T13:53	10	81	0.5	80	82	437	0.7	436	439	20.4	49.2
2025-08-03T13:54	10	80	0.2	80	81	435	0.3	435	436	20.3	49.5
2025-08-03T13:55	10	80	0.2	80	80	436	0.5	435	437	20.5	49.7
2025-08-03T13:56	10	81	0.8	80	83	435	1.1	433	437	20.3	49.3
2025-08-03T13:57	10	101	20.3	83	138	436	2.2	434	442	20.1	49.5
2025-08-03T13:58	10	171	29.7	120	206	449	6.9	439	457	20.2	49.6
2025-08-03T13:59	10	111	14.8	101	157	450	3.4	444	456	20.5	48.9
2025-08-03T14:00	10	181	46.9	101	222	451	6.8	443	462	20.5	48.3
2025-08-03T14:01	10	216	1.8	214	220	464	2.2	459	468	20.6	46.1
2025-08-03T14:02	10	212	0.8	211	213	469	0.9	467	471	20.9	46.9
2025-08-03T14:03	10	210	0.5	209	211	468	2.2	464	471	20.7	46.5
2025-08-03T14:04	10	208	0.5	207	209	465	1.0	464	467	20.6	46.1
2025-08-03T14:05	10	206	1.0	204	208	469	1.1	468	471	20.7	46.6
2025-08-03T14:06	10	203	0.5	202	204	472	2.0	470	476	20.9	47.6
2025-08-03T14:07	10	202	0.1	202	202	472	1.5	470	476	21.3	48.0
2025-08-03T14:08	10	203	0.3	202	203	473	0.9	471	474	21.1	46.9
2025-08-03T14:09	10	204	0.7	203	205	476	1.2	474	479	21.4	46.9
2025-08-03T14:10	10	206	0.3	205	207	474	0.8	472	475	21.3	48.2
2025-08-03T14:11	10	207	0.6	207	208	474	1.1	472	476	21.1	47.9
2025-08-03T14:12	10	209	0.5	208	210	474	0.6	473	476	20.7	47.7
2025-08-03T14:13	10	211	0.3	210	211	475	0.9	474	478	20.9	47.7
2025-08-03T14:14	10	212	0.3	211	212	479	0.8	477	481	21.0	47.3
2025-08-03T14:15	10	215	2.3	212	219	481	0.8	480	483	21.5	47.7
2025-08-03T14:16	10	182	24.1	138	220	473	5.0	467	484	21.3	46.5
2025-08-03T14:17	10	203	12.9	169	216	469	0.8	468	471	20.8	47.2
2025-08-03T14:18	10	214	1.2	213	216	471	0.9	469	473	20.7	47.9
2025-08-03T14:19	10	200	21.4	153	215	476	1.5	473	478	20.8	48.0
2025-08-03T14:20	10	130	11.4	115	151	467	3.7	461	475	21.1	47.8
2025-08-03T14:21	10	117	4.6	105	124	459	3.4	454	464	21.3	46.4
2025-08-03T14:22	10	122	21.1	105	182	455	1.9	452	460	20.9	46.5
2025-08-03T14:23	10	203	9.7	184	215	466	4.2	458	474	21.0	47.5
2025-08-03T14:24	10	198	14.6	168	215	474	1.6	472	477	21.4	48.3
2025-08-03T14:25	10	103	29.3	85	193	461	8.2	448	475	21.1	47.5
2025-08-03T14:26	10	88	2.3	85	93	448	1.8	445	451	20.7	47.0
2025-08-03T14:27	10	83	2.5	79	88	444	1.4	442	447	20.6	47.4
2025-08-03T14:28	10	78	1.0	76	79	443	0.8	442	445	20.9	47.3
2025-08-03T14:29	10	76	0.6	75	77	441	0.5	441	442	20.7	47.9
2025-08-03T14:30	10	73	0.6	72	75	440	0.9	438	441	20.7	47.6
2025-08-03T14:31	10	71	0.7	70	72	439	0.3	438	440	20.7	49.0
2025-08-03T14:32	10	69	0.6	68	70	436	1.1	434	438	20.6	47.9
2025-08-03T14:33	10	68	0.4	67	68	435	0.4	434	436	20.8	48.1
2025-08-03T14:34	10	67	0.3	66	67	434	0.6	433	436	20.7	47.5
2025-08-03T14:35	10	66	0.3	65	66	436	0.8	435	437	20.7	48.3
2025-08-03T14:36	10	65	0.2	64	65	437	0.2	436	437	20.9	48.6
2025-08-03T14:37	10	64	0.2	64	65	436	0.4	435	437	20.8	49.7
2025-08-03T14:38	10	64	0.2	63	64	437	0.5	436	438	20.8	50.2
2025-08-03T14:39	10	63	0.1	63	63	437	0.4	436	438	20.9	50.7
2025-08-03T14:40	10	63	0.2	62	63	435	1.0	434	437	20.8	49.2
2025-08-03T14:41	10	62	0.1	62	62	433	0.4	432	434	20.9	49.3
2025-08-03T14:42	10	62	0.2	61	62	432	0.3	432	433	20.7	48.3
2025-08-03T14:43	10	62	0.2	61	62	431	0.6	430	433	20.5	47.3
2025-08-03T14:44	10	62	0.2	62	63	432	0.4	431	432	20.5	47.6
2025-08-03T14:45	10	63	0.3	63	64	432	0.2	431	432	20.5	48.5
2025-08-03T14:46	10	63	0.1	63	64	432	0.5	431	433	20.7	48.9
2025-08-03T14:47	10	63	0.3	62	63	432	0.4	431	433	20.7	48.7
2025-08-03T14:48	10	62	0.1	62	62	432	0.6	432	433	20.7	48.0
2025-08-03T14:49	10	62	0.1	62	62	433	0.4	431	433	20.7	46.6
2025-08-03T14:50	10	61	0.3	61	62	431	0.4	430	432	20.3	46.4
2025-08-03T14:51	10	61	0.1	61	61	432	0.8	430	433	20.4	47.7
2025-08-03T14:52	10	61	0.1	61	61	430	0.6	429	431	20.4	48.7
2025-08-03T14:53	10	61	0.2	61	62	431	0.5	430	432	20.4	48.5
2025-08-03T14:54	10	62	0.2	62	62	432	0.6	431	433	20.5	48.1
2025-08-03T14:55	10	62	0.2	61	62	433	0.3	432	434	20.6	48.8
2025-08-03T14:56	10	61	0.2	61	61	433	0.3	432	434	20.6	48.2
2025-08-03T14:57	10	60	0.2	60	61	433	0.2	432	433	20.6	48.0
2025-08-03T14:58	10	59	0.3	59	60	432	0.7	430	432	20.7	48.1
2025-08-03T14:59	10	58	0.2	58	59	430	0.3	429	430	20.5	47.1
2025-08-03T15:00	10	58	0.1	58	58	430	0.7	429	432	20.4	48.3
2025-08-03T15:01	10	58	0.1	57	58	432	0.4	431	433	20.6	48.5
2025-08-03T15:02	10	57	0.1	57	57	432	0.5	431	433	20.8	48.3
2025-08-03T15:03	10	57	0.1	57	57	430	0.3	429	431	20.7	49.0
2025-08-03T15:04	10	57	0.1	57	58	429	0.9	428	431	20.6	48.9
2025-08-03T15:05	10	57	0.1	57	57	428	0.5	427	429	20.5	49.0
2025-08-03T15:06	10	57	0.1	57	57	428	1.1	427	430	20.5	48.1
2025-08-03T15:07	10	56	0.2	56	57	427	0.3	426	427	20.3	48.7
2025-08-03T15:08	10	55	0.3	55	56	427	0.4	426	428	20.4	50.1
2025-08-03T15:09	10	54	0.3	54	55	427	0.3	427	428	20.4	50.5
2025-08-03T15:10	10	53	0.2	53	54	427	0.4	426	428	20.4	49.7
2025-08-03T15:11	10	52	0.5	51	53	426	0.5	425	427	20.4	48.3
2025-08-03T15:12	10	50	0.6	49	51	426	0.3	425	426	20.3	48.2
2025-08-03T15:13	10	49	0.4	48	49	425	0.3	425	426	20.3	49.8
2025-08-03T15:14	10	47	0.5	46	48	424	0.5	424	425	20.3	48.7
2025-08-03T15:15	10	45	0.4	45	46	424	0.3	424	425	20.3	47.5
2025-08-03T15:16	10	45	0.1	45	45	424	0.4	423	425	20.4	48.4
2025-08-03T15:17	10	46	0.8	45	48	425	0.4	424	426	20.4	48.3
2025-08-03T15:18	10	48	0.4	47	49	425	0.3	424	426	20.5	47.9
2025-08-03T15:19	10	49	0.1	49	49	425	0.4	425	426	20.5	47.4
2025-08-03T15:20	10	49	0.1	48	49	425	0.3	424	426	20.4	46.4
2025-08-03T15:21	10	49	0.1	48	49	425	0.3	425	426	20.4	46.6
2025-08-03T15:22	10	49	0.1	48	49	426	0.3	425	426	20.5	46.1
2025-08-03T15:23	10	49	0.1	48	49	426	0.3	425	426	20.6	46.8
2025-08-03T15:24	10	48	0.1	48	49	426	0.5	425	427	20.6	47.5
2025-08-03T15:25	10	48	0.1	48	48	425	0.3	424	426	20.7	48.6
2025-08-03T15:26	10	48	0.3	47	48	425	0.3	424	426	20.5	48.6
2025-08-03T15:27	10	46	0.6	45	47	424	0.3	424	425	20.4	48.9
2025-08-03T15:28	10	44	0.4	44	45	424	0.2	424	425	20.4	48.9
2025-08-03T15:29	10	44	0.1	44	44	424	0.3	423	425	20.4	49.4
2025-08-03T15:30	10	44	0.1	43	44	424	0.2	423	424	20.4	49.3
2025-08-03T15:31	10	43	0.1	43	44	424	0.4	423	425	20.5	49.0
2025-08-03T15:32	10	43	0.2	43	44	423	0.3	422	423	20.3	49.2
2025-08-03T15:33	10	43	0.1	43	43	423	0.3	423	424	20.3	49.9
2025-08-03T15:34	10	43	0.1	43	44	424	0.3	424	425	20.6	50.2
2025-08-03T15:35	10	44	0.2	44	44	424	0.3	423	425	20.5	50.3
2025-08-03T15:36	10	45	0.2	44	45	424	0.4	423	424	20.4	50.4
2025-08-03T15:37	10	45	0.1	45	45	423	0.6	422	424	20.4	50.5
2025-08-03T15:38	10	44	0.2	44	45	422	0.4	421	423	20.3	50.8
2025-08-03T15:39	10	44	0.1	44	44	422	0.2	421	422	20.2	50.9
2025-08-03T15:40	10	44	0.2	44	45	421	0.4	421	422	20.3	51.5
2025-08-03T15:41	10	45	0.2	45	45	422	0.3	421	422	20.3	51.2
2025-08-03T15:42	10	45	0.1	45	46	422	0.6	421	424	20.4	51.7
2025-08-03T15:43	10	45	0.1	45	46	422	0.4	422	423	20.4	51.2
2025-08-03T15:44	10	46	0.1	45	46	422	0.4	421	423	20.3	51.1
2025-08-03T15:45	10	46	0.1	46	46	422	0.3	421	423	20.3	51.2
2025-08-03T15:46	10	46	0.2	46	47	422	0.3	421	423	20.3	51.5
2025-08-03T15:47	10	47	0.3	47	48	422	0.3	422	423	20.3	51.2
2025-08-03T15:48	10	48	0.3	48	49	423	0.6	422	424	20.3	51.8
2025-08-03T15:49	10	49	0.3	49	50	423	0.4	422	424	20.3	51.3
2025-08-03T15:50	10	51	0.4	50	51	424	0.5	423	425	20.4	52.0
2025-08-03T15:51	10	52	0.3	51	52	424	0.2	424	424	20.4	51.5
2025-08-03T15:52	10	52	0.2	52	53	425	0.3	424	425	20.4	52.0
2025-08-03T15:53	10	53	0.1	53	53	425	0.3	425	426	20.5	51.0
2025-08-03T15:54	10	53	0.1	53	53	424	0.3	423	425	20.3	50.1
2025-08-03T15:55	10	53	0.2	53	54	423	0.3	423	424	20.2	50.7
2025-08-03T15:56	10	53	0.2	53	54	425	0.4	424	425	20.4	50.6
2025-08-03T15:57	10	54	0.2	53	55	426	0.6	424	427	20.6	50.6
2025-08-03T15:58	10	55	0.4	54	55	426	0.4	425	427	20.5	50.2
2025-08-03T15:59	10	56	0.3	55	56	425	0.3	425	426	20.5	50.2
2025-08-03T16:00	10	58	1.1	56	60	425	0.3	425	426	20.4	50.4
2025-08-03T16:01	10	61	2.0	59	66	426	0.5	425	427	20.4	51.1
2025-08-03T16:02	10	85	9.5	67	95	429	1.9	426	432	20.4	50.9
2025-08-03T16:03	10	95	3.1	91	101	433	0.8	430	434	20.4	51.3
2025-08-03T16:04	10	97	4.4	85	103	434	0.9	433	436	20.4	51.8
2025-08-03T16:05	10	71	5.1	66	84	433	1.4	430	435	20.5	52.1
2025-08-03T16:06	10	70	1.8	67	74	432	1.1	431	434	20.5	52.3
2025-08-03T16:07	10	81	5.3	74	92	433	0.5	431	434	20.8	52.3
2025-08-03T16:08	10	113	12.4	93	131	435	1.1	433	436	20.6	52.0
2025-08-03T16:09	10	129	3.0	124	132	437	0.7	435	438	20.6	52.3
2025-08-03T16:10	10	134	4.8	125	140	439	1.0	438	442	20.7	52.1
2025-08-03T16:11	10	141	1.1	138	143	443	1.7	441	446	20.5	52.4
2025-08-03T16:12	10	139	2.6	134	143	445	0.8	444	446	21.0	52.3
2025-08-03T16:13	10	140	0.8	138	141	443	0.9	441	444	20.8	50.7
2025-08-03T16:14	10	138	0.4	137	138	445	0.5	444	446	20.7	50.8
2025-08-03T16:15	10	136	0.4	135	137	446	0.8	444	447	21.0	50.6
2025-08-03T16:16	10	135	0.6	133	136	443	1.0	442	445	20.5	49.8
2025-08-03T16:17	10	131	0.9	129	133	442	0.8	440	443	20.5	50.3
2025-08-03T16:18	10	131	0.4	130	132	442	1.1	440	445	20.5	50.8
2025-08-03T16:19	10	128	1.2	126	130	442	0.5	441	443	20.7	50.9
2025-08-03T16:20	10	126	0.6	125	127	440	0.7	439	442	20.5	50.5
2025-08-03T16:21	10	124	0.8	122	125	441	0.7	440	442	20.5	52.0
2025-08-03T16:22	10	121	0.8	120	123	442	0.6	441	443	20.6	52.1
2025-08-03T16:23	10	119	0.4	118	120	443	0.5	442	444	21.0	52.3
2025-08-03T16:24	10	118	0.2	118	119	442	0.5	442	444	20.9	51.4
2025-08-03T16:25	10	118	0.2	117	118	442	1.0	440	443	20.6	50.9
2025-08-03T16:26	10	117	0.1	117	117	442	0.5	441	443	20.8	52.2
2025-08-03T16:27	10	117	0.2	117	118	444	0.5	443	445	21.3	52.3
2025-08-03T16:28	10	118	0.1	117	118	442	0.6	441	443	20.9	51.6
2025-08-03T16:29	10	118	0.1	118	118	440	0.4	440	441	20.9	51.7
2025-08-03T16:30	10	117	0.2	117	118	441	0.4	440	442	21.0	51.3
2025-08-03T16:31	10	117	0.2	117	118	441	0.5	440	441	21.0	50.8
2025-08-03T16:32	10	116	0.4	116	117	439	0.6	438	440	20.7	51.3
2025-08-03T16:33	10	115	0.4	114	115	439	0.6	437	440	20.7	51.3
2025-08-03T16:34	10	114	0.2	113	114	439	0.9	438	441	20.5	51.5
2025-08-03T16:35	10	114	0.2	113	114	440	0.4	439	441	20.6	51.8
2025-08-03T16:36	10	114	0.1	114	114	439	0.3	439	440	20.6	51.8
2025-08-03T16:37	10	114	0.2	113	114	440	0.5	439	441	21.0	51.7
2025-08-03T16:38	10	113	0.2	113	113	440	0.4	439	441	21.2	50.7
2025-08-03T16:39	10	112	0.4	111	113	441	0.8	439	442	21.0	50.4
2025-08-03T16:40	10	111	0.4	110	111	439	1.5	437	441	20.8	51.0
2025-08-03T16:41	10	108	1.6	104	110	438	0.5	437	439	20.8	51.1
2025-08-03T16:42	10	108	1.2	105	109	436	0.5	435	438	20.8	51.0
2025-08-03T16:43	10	108	0.4	107	108	436	0.4	435	436	20.6	51.0
2025-08-03T16:44	10	105	1.9	101	107	436	0.4	436	437	20.7	51.5
2025-08-03T16:45	10	103	0.9	101	105	438	0.5	437	439	20.9	51.8
2025-08-03T16:46	10	91	4.6	85	101	435	1.1	433	437	20.9	51.0
2025-08-03T16:47	10	100	2.3	96	102	435	1.0	434	437	20.9	51.3
2025-08-03T16:48	10	100	0.9	98	101	436	0.5	435	437	21.1	51.1
2025-08-03T16:49	10	96	1.0	94	98	435	0.5	434	436	20.8	50.8
2025-08-03T16:50	10	94	1.0	92	95	434	0.5	433	435	21.1	50.4
2025-08-03T16:51	10	93	0.3	92	93	431	1.1	430	434	20.6	50.5
2025-08-03T16:52	10	92	0.7	91	93	431	0.4	430	432	20.4	50.8
2025-08-03T16:53	10	82	8.8	69	92	432	0.4	431	432	20.6	50.9
2025-08-03T16:54	10	76	2.3	69	78	431	0.3	430	432	20.9	50.3
2025-08-03T16:55	10	80	0.9	78	81	430	0.3	430	431	21.1	49.8
2025-08-03T16:56	10	82	1.0	80	84	429	1.3	427	431	20.9	49.8
2025-08-03T16:57	10	80	4.8	68	85	426	0.9	425	428	20.6	50.1
2025-08-03T16:58	10	64	3.2	57	68	425	0.4	425	426	20.7	50.0
2025-08-03T16:59	10	53	0.9	52	56	423	1.4	421	425	20.6	49.4
2025-08-03T17:00	10	53	1.6	50	56	422	0.3	421	422	20.6	49.5
2025-08-03T17:01	10	47	1.9	44	52	420	0.6	419	422	20.7	49.2
2025-08-03T17:02	10	41	4.0	36	47	419	0.6	418	420	20.6	49.2
2025-08-03T17:03	10	35	2.2	32	39	417	0.3	416	418	20.6	48.8
2025-08-03T17:04	10	26	1.9	25	31	416	0.5	415	417	20.7	49.2
2025-08-03T17:05	10	28	1.0	26	29	414	0.4	413	415	20.5	49.3
2025-08-03T17:06	10	31	1.3	29	33	414	0.5	413	415	20.4	49.7
2025-08-03T17:07	10	33	2.0	31	36	414	0.2	413	414	20.5	49.9
2025-08-03T17:08	10	38	2.0	36	43	414	0.3	414	415	20.4	50.1
2025-08-03T17:09	10	45	1.2	43	47	415	0.5	414	416	20.4	50.4
2025-08-03T17:10	10	43	2.2	38	46	416	0.3	415	416	20.5	50.4
2025-08-03T17:11	10	40	3.1	36	45	415	0.2	415	415	20.5	50.4
2025-08-03T17:12	10	48	1.5	45	50	415	0.2	414	415	20.3	50.6
2025-08-03T17:13	10	47	0.6	46	50	415	0.3	414	415	20.2	50.9
2025-08-03T17:14	10	49	2.3	47	54	415	0.3	415	416	20.4	50.9
2025-08-03T17:15	10	53	1.5	52	58	416	0.3	415	417	20.4	51.0
2025-08-03T17:16	10	59	1.0	58	61	417	0.5	416	418	20.3	51.0
2025-08-03T17:17	10	50	5.8	41	58	417	0.6	415	418	20.4	51.0
2025-08-03T17:18	10	37	1.4	35	41	415	0.4	415	416	20.4	51.5
2025-08-03T17:19	10	42	2.4	37	44	415	0.3	414	415	20.4	51.7
2025-08-03T17:20	10	48	2.1	44	51	414	0.3	414	415	20.1	52.2
2025-08-03T17:21	10	53	1.2	51	55	415	0.4	414	416	20.2	52.3
2025-08-03T17:22	10	52	1.6	48	54	415	0.2	415	416	20.2	52.4
2025-08-03T17:23	10	50	2.3	46	54	415	0.3	414	416	20.1	52.7
2025-08-03T17:24	10	58	1.6	54	60	415	0.4	414	416	20.1	53.1
2025-08-03T17:25	10	60	1.2	57	62	417	0.4	416	417	20.1	53.2
2025-08-03T17:26	10	52	5.3	42	57	417	0.6	415	418	20.3	53.2
2025-08-03T17:27	10	40	2.9	35	45	415	0.7	413	416	20.1	52.9
2025-08-03T17:28	10	33	1.3	32	35	413	0.6	412	414	20.1	52.9
2025-08-03T17:29	10	28	2.8	22	32	412	0.5	411	413	20.0	53.0
2025-08-03T17:30	10	22	0.7	21	23	411	0.3	410	412	20.1	53.3
2025-08-03T17:31	10	21	0.9	20	23	410	0.2	410	411	20.2	52.9
2025-08-03T17:32	10	20	0.8	19	22	410	0.3	409	410	20.3	52.3
2025-08-03T17:33	10	24	1.0	22	25	410	0.2	409	410	20.3	52.5
2025-08-03T17:34	10	26	1.3	24	30	410	0.2	409	410	20.1	53.3
2025-08-03T17:35	10	36	2.5	30	39	410	0.6	409	411	20.0	53.5
2025-08-03T17:36	10	39	2.3	35	46	411	0.3	410	412	20.1	53.6
2025-08-03T17:37	10	32	3.7	25	36	411	0.5	409	411	20.0	53.6
2025-08-03T17:38	10	28	3.6	24	33	410	0.3	410	411	20.0	53.6
2025-08-03T17:39	10	25	2.6	22	32	410	0.2	409	411	20.1	53.7
2025-08-03T17:40	10	27	2.6	23	34	410	0.2	409	410	20.1	54.2
2025-08-03T17:41	10	33	2.5	29	38	410	0.3	409	411	20.1	54.0
2025-08-03T17:42	10	34	3.4	27	39	410	0.4	410	411	20.1	53.5
2025-08-03T17:43	10	20	2.4	19	27	409	0.6	408	410	20.1	53.8
2025-08-03T17:44	10	21	0.5	19	21	408	0.3	407	409	20.0	54.0
2025-08-03T17:45	10	18	1.0	17	21	408	0.2	407	408	19.9	54.4
2025-08-03T17:46	10	18	0.3	17	18	407	0.3	406	408	19.9	54.5
2025-08-03T17:47	10	16	0.5	15	17	406	0.3	406	407	19.9	54.8
2025-08-03T17:48	10	15	0.2	15	16	406	0.3	406	407	19.9	54.8
2025-08-03T17:49	10	17	0.6	15	17	406	0.2	405	406	19.8	54.6
2025-08-03T17:50	10	17	0.6	16	19	406	0.2	405	406	19.8	54.8
2025-08-03T17:51	10	21	0.5	19	22	406	0.3	405	406	19.8	54.8
2025-08-03T17:52	10	22	1.6	19	24	406	0.2	406	407	19.7	54.7
2025-08-03T17:53	10	16	1.2	14	19	406	0.3	405	406	19.7	55.1
2025-08-03T17:54	10	14	0.4	14	15	405	0.2	404	405	19.7	54.9
2025-08-03T17:55	10	17	0.7	15	18	405	0.2	404	405	19.8	55.2
2025-08-03T17:56	10	17	1.2	16	21	405	0.2	404	406	19.9	54.8
2025-08-03T17:57	10	26	2.0	20	29	406	0.5	404	406	19.9	55.0
2025-08-03T17:58	10	34	2.2	29	38	406	0.6	405	407	19.9	54.8
2025-08-03T17:59	10	35	3.5	27	39	407	0.4	406	408	19.9	54.9
2025-08-03T18:00	10	19	2.8	17	26	406	0.6	405	408	19.8	55.1
2025-08-03T18:01	10	22	2.6	19	27	405	0.3	405	406	19.8	55.4
2025-08-03T18:02	10	22	4.5	15	28	405	0.4	404	406	19.8	55.6
2025-08-03T18:03	10	13	0.7	12	15	404	0.4	404	405	19.7	56.0
2025-08-03T18:04	10	12	0.3	11	13	404	0.3	403	405	19.7	55.7
2025-08-03T18:05	10	11	0.2	11	12	403	0.3	403	404	19.6	56.0
2025-08-03T18:06	10	10	0.4	10	11	403	0.3	402	403	19.6	56.1
2025-08-03T18:07	10	10	0.2	10	10	402	0.3	402	403	19.6	56.2
2025-08-03T18:08	10	11	0.4	10	12	402	0.3	402	403	19.6	56.3
2025-08-03T18:09	10	12	0.3	11	12	402	0.3	401	403	19.6	56.4
2025-08-03T18:10	10	10	0.4	9	11	402	0.4	401	403	19.5	56.6
2025-08-03T18:11	10	9	0.2	9	10	402	0.3	401	402	19.5	57.3
2025-08-03T18:12	10	12	1.4	10	15	401	0.3	400	402	19.4	58.0
2025-08-03T18:13	10	15	1.0	13	16	401	0.2	400	402	19.4	58.0
2025-08-03T18:14	10	12	0.9	10	13	401	0.3	400	401	19.4	58.2
2025-08-03T18:15	10	9	0.4	8	10	401	0.2	400	401	19.4	58.5
2025-08-03T18:16	10	9	1.2	8	16	400	0.2	399	400	19.3	58.7
2025-08-03T18:17	10	8	0.1	8	8	400	0.2	399	400	19.3	59.0
2025-08-03T18:18	10	8	0.1	7	8	399	0.2	399	400	19.3	59.5
2025-08-03T18:19	10	8	0.1	7	8	399	0.2	399	400	19.3	59.5
2025-08-03T18:20	10	9	0.5	8	9	398	0.3	398	399	19.2	60.0
2025-08-03T18:21	10	10	0.7	9	12	398	0.2	398	399	19.2	60.4
2025-08-03T18:22	10	13	0.3	12	13	399	0.3	398	399	19.1	60.4
2025-08-03T18:23	10	12	0.1	12	13	399	0.3	398	400	19.1	60.4
2025-08-03T18:24	10	12	0.6	11	13	399	0.2	398	400	19.1	60.3
2025-08-03T18:25	10	10	0.2	10	11	399	0.3	398	400	19.1	60.2
2025-08-03T18:26	10	9	0.4	9	10	398	0.2	398	399	19.1	60.3
2025-08-03T18:27	10	10	0.5	9	11	398	0.2	398	399	19.1	60.3
2025-08-03T18:28	10	12	0.5	11	12	399	0.3	398	399	19.1	60.0
2025-08-03T18:29	10	12	0.2	12	13	399	0.2	398	399	19.1	59.8
2025-08-03T18:30	10	12	0.5	11	12	399	0.5	398	400	19.1	58.9
2025-08-03T18:31	10	11	0.6	10	12	399	0.3	399	399	19.1	57.9
2025-08-03T18:32	10	12	0.2	12	12	399	0.2	398	399	19.1	57.9
2025-08-03T18:33	10	12	0.1	11	12	399	0.2	398	399	19.1	57.6
2025-08-03T18:34	10	11	0.6	10	12	399	0.3	398	400	19.1	57.7
2025-08-03T18:35	10	9	0.1	9	10	399	0.3	398	399	19.1	57.1
2025-08-03T18:36	10	9	0.1	9	9	399	0.2	398	399	19.2	56.4
2025-08-03T18:37	10	8	0.4	8	9	398	0.3	398	399	19.2	56.7
2025-08-03T18:38	10	7	0.4	6	8	398	0.2	398	399	19.2	57.0
2025-08-03T18:39	10	6	0.1	6	6	398	0.3	398	399	19.2	56.8
2025-08-03T18:40	10	6	0.1	5	6	398	0.3	398	399	19.2	56.8
2025-08-03T18:41	10	6	0.1	5	6	398	0.2	397	399	19.1	56.8
2025-08-03T18:42	10	6	0.1	6	6	398	0.3	398	399	19.1	56.7
2025-08-03T18:43	10	5	0.3	5	6	398	0.3	397	398	19.1	56.6
2025-08-03T18:44	10	5	0.2	5	5	398	0.2	397	398	19.1	56.1
2025-08-03T18:45	10	4	0.3	4	5	397	0.2	397	398	19.0	56.3
2025-08-03T18:46	10	4	0.1	4	4	397	0.4	396	398	19.0	56.4
2025-08-03T18:47	10	3	0.1	3	4	396	0.3	396	397	18.9	57.1
2025-08-03T18:48	10	3	0.1	3	4	397	0.3	396	398	18.9	56.5
2025-08-03T18:49	10	3	0.1	3	3	397	0.3	396	398	19.0	55.6
2025-08-03T18:50	10	3	0.1	2	3	396	0.3	396	397	18.9	56.6
2025-08-03T18:51	10	2	0.1	2	3	396	0.3	395	397	18.9	56.2
2025-08-03T18:52	10	2	0.2	2	2	396	0.3	396	397	19.0	55.4
2025-08-03T18:53	10	1	0.1	1	2	396	0.3	396	397	19.0	55.6
2025-08-03T18:54	10	1	0.1	1	1	396	0.2	396	397	19.0	55.7
2025-08-03T18:55	10	1	0.1	1	1	396	0.3	395	397	18.9	55.8
2025-08-03T18:56	10	1	0.1	1	1	396	0.2	395	396	18.9	55.8
2025-08-03T18:57	10	1	0.1	1	1	396	0.2	395	396	18.9	56.0
2025-08-03T18:58	10	1	0.1	0	1	396	0.4	395	396	18.9	55.8
2025-08-03T18:59	10	1	0.1	0	1	395	0.3	395	396	18.8	56.3
2025-08-03T19:00	10	1	0.1	0	1	395	0.3	395	396	18.8	56.3
2025-08-03T19:01	10	0	0.1	0	1	396	0.2	395	396	18.8	56.2
2025-08-03T19:02	10	0	0.1	0	1	395	0.4	394	396	18.8	56.5
2025-08-03T19:03	10	0	0.1	0	0	395	0.4	394	396	18.8	56.3
2025-08-03T19:04	10	0	0.1	0	0	394	0.5	393	395	18.7	56.6
2025-08-03T19:05	10	0	0.1	0	1	393	0.5	392	394	18.6	57.6
2025-08-03T19:06	10	0	0.1	0	1	392	0.4	391	393	18.5	58.0
2025-08-03T19:07	10	0	0.1	0	0	391	0.2	391	392	18.4	58.7
2025-08-03T19:08	10	0	0.1	0	0	392	0.3	391	392	18.5	57.4
2025-08-03T19:09	10	0	0.1	0	0	391	0.3	391	392	18.5	57.7
2025-08-03T19:10	10	0	0.1	0	0	391	0.3	390	391	18.5	57.7
2025-08-03T19:11	10	0	0.1	0	0	391	0.3	390	391	18.4	58.0
2025-08-03T19:12	10	0	0.1	0	0	391	0.2	391	392	18.4	58.1
2025-08-03T19:13	10	0	0.1	0	0	391	0.3	390	391	18.4	58.4
2025-08-03T19:14	10	0	0.1	0	0	390	0.3	390	391	18.2	59.5
2025-08-03T19:15	10	0	0.2	0	1	389	0.3	388	390	18.0	60.9
2025-08-03T19:16	10	0	0.2	0	0	388	0.4	388	389	17.9	61.3
2025-08-03T19:17	10	0	0.2	-1	0	388	0.2	387	388	17.9	61.3
2025-08-03T19:18	10	0	0.2	0	1	387	0.2	387	388	17.9	61.8
2025-08-03T19:19	10	0	0.1	0	0	387	0.2	386	387	17.9	61.7
2025-08-03T19:20	10	0	0.1	0	0	387	0.5	386	388	17.9	61.7
2025-08-03T19:21	10	0	0.2	-1	0	387	0.2	387	387	17.9	61.9
2025-08-03T19:22	10	0	0.1	-1	0	387	0.2	386	387	17.8	62.4
2025-08-03T19:23	10	0	0.1	0	0	386	0.3	385	387	17.7	62.7
2025-08-03T19:24	10	0	0.2	0	0	385	0.2	385	385	17.7	62.1
2025-08-03T19:25	10	0	0.1	0	0	385	0.2	384	385	17.9	61.5
2025-08-03T19:26	10	0	0.1	0	0	384	0.3	384	385	17.8	61.8
2025-08-03T19:27	10	0	0.2	-1	1	384	0.2	384	385	17.8	61.9
2025-08-03T19:28	10	0	0.1	0	0	384	0.2	384	385	17.8	62.1
2025-08-03T19:29	10	0	0.1	0	0	386	0.7	384	387	17.8	61.3
2025-08-03T19:30	10	0	0.1	0	0	386	0.3	386	387	17.9	60.9
2025-08-03T19:31	10	0	0.1	0	0	386	0.5	385	387	17.9	61.1
2025-08-03T19:32	10	0	0.1	0	0	387	0.5	386	388	17.9	60.9
2025-08-03T19:33	10	0	0.1	0	0	387	0.3	386	387	17.9	61.2
2025-08-03T19:34	10	0	0.0	0	0	386	0.3	386	387	17.8	61.1
2025-08-03T19:35	10	0	0.1	0	0	387	0.2	386	387	17.8	61.1
2025-08-03T19:36	10	0	0.1	0	0	386	0.4	385	387	17.7	61.8
2025-08-03T19:37	10	0	0.1	0	0	384	0.3	384	385	17.6	62.1
2025-08-03T19:38	10	0	0.1	0	0	384	0.3	383	384	17.7	61.4
2025-08-03T19:39	10	0	0.1	0	0	384	0.3	383	384	17.8	61.1
2025-08-03T19:40	10	0	0.0	0	0	383	0.2	383	384	17.8	61.2
2025-08-03T19:41	10	0	0.0	0	0	383	0.3	383	384	17.7	62.0
2025-08-03T19:42	10	0	0.1	0	0	383	0.3	383	384	17.7	62.0
2025-08-03T19:43	10	0	0.1	0	0	383	0.3	382	383	17.5	62.9
2025-08-03T19:44	10	0	0.1	0	0	383	0.5	382	384	17.6	62.2
2025-08-03T19:45	10	0	0.1	0	0	383	0.2	383	384	17.6	62.3
2025-08-03T19:46	10	0	0.1	0	0	383	0.3	383	384	17.6	62.3
2025-08-03T19:47	10	0	0.1	0	0	383	0.3	382	383	17.6	62.1
2025-08-03T19:48	10	0	0.1	0	0	382	0.2	382	383	17.5	62.8
2025-08-03T19:49	10	0	0.1	0	0	382	0.3	381	382	17.4	63.2
2025-08-03T19:50	10	0	0.1	0	0	382	0.2	381	382	17.5	63.0
2025-08-03T19:51	10	0	0.1	0	0	382	0.2	382	382	17.5	62.8
2025-08-03T19:52	10	0	0.1	0	0	382	0.4	381	382	17.5	62.9
2025-08-03T19:53	10	0	0.1	0	0	381	0.2	381	382	17.4	63.0
2025-08-03T19:54	10	0	0.1	0	0	381	0.3	380	382	17.5	62.7
2025-08-03T19:55	10	0	0.0	0	0	381	0.2	381	382	17.4	63.2
2025-08-03T19:56	10	0	0.1	0	0	381	0.4	380	382	17.4	62.9
2025-08-03T19:57	10	0	0.1	0	0	382	0.3	381	382	17.5	62.8
2025-08-03T19:58	10	0	0.0	0	0	381	0.2	381	382	17.4	63.0
2025-08-03T19:59	10	0	0.1	0	0	382	0.3	381	382	17.4	62.9
2025-08-03T20:00	10	0	0.1	0	0	382	0.3	381	382	17.5	62.7
2025-08-03T20:01	10	0	0.1	0	0	382	0.2	382	382	17.5	62.6
2025-08-03T20:02	10	0	0.1	0	0	382	0.5	382	383	17.6	62.2
2025-08-03T20:03	10	0	0.1	0	0	383	0.3	382	384	17.6	62.3
2025-08-03T20:04	10	0	0.1	0	0	382	0.3	382	383	17.5	62.8
2025-08-03T20:05	10	0	0.1	0	0	381	0.3	381	382	17.4	63.1
2025-08-03T20:06	10	0	0.1	0	0	381	0.3	381	382	17.4	63.6
2025-08-03T20:07	10	0	0.1	0	0	381	0.2	380	381	17.3	63.9
2025-08-03T20:08	10	0	0.1	0	0	380	0.2	379	381	17.3	63.9
2025-08-03T20:09	10	0	0.1	0	0	380	0.4	380	382	17.3	64.0
2025-08-03T20:10	10	0	0.1	0	0	381	0.2	380	381	17.3	64.1
2025-08-03T20:11	10	0	0.1	0	0	380	0.2	380	381	17.2	64.7
2025-08-03T20:12	10	0	0.1	0	0	380	0.3	379	381	17.2	64.6
2025-08-03T20:13	10	0	1.0	0	7	380	0.3	379	381	17.2	64.6
2025-08-03T20:14	10	0	0.1	0	0	381	0.3	380	381	17.2	64.2
2025-08-03T20:15	10	0	0.1	0	0	380	0.4	379	381	17.3	64.1
2025-08-03T20:16	10	0	0.1	0	0	380	0.3	379	380	17.2	64.7
2025-08-03T20:17	10	0	0.1	0	0	381	0.4	380	382	17.2	64.5
2025-08-03T20:18	10	0	0.1	0	0	381	0.3	380	382	17.2	64.6
2025-08-03T20:19	10	0	0.1	0	0	380	0.2	380	381	17.2	64.7
2025-08-03T20:20	10	0	0.1	0	0	380	0.3	379	380	17.1	64.9
2025-08-03T20:21	10	0	0.1	0	0	380	0.3	379	381	17.2	64.8
2025-08-03T20:22	10	0	0.1	0	0	380	0.3	379	380	17.3	64.1
2025-08-03T20:23	10	0	0.1	0	0	379	0.4	378	380	17.1	65.8
2025-08-03T20:24	10	0	0.1	0	0	378	0.2	378	378	17.0	66.3
2025-08-03T20:25	10	0	0.1	0	0	378	0.4	377	379	17.0	66.3
2025-08-03T20:26	10	0	0.1	0	0	379	0.3	378	379	17.2	64.7
2025-08-03T20:27	10	0	0.1	0	0	378	0.2	378	379	17.4	63.9
2025-08-03T20:28	10	0	0.1	0	0	378	0.3	377	378	17.3	64.8
2025-08-03T20:29	10	0	0.1	0	0	377	0.3	377	378	17.2	65.0
2025-08-03T20:30	10	0	0.1	0	0	377	0.2	377	377	17.1	65.1
2025-08-03T20:31	10	0	0.1	0	0	377	0.2	377	378	17.2	64.7
2025-08-03T20:32	10	0	0.1	0	0	378	0.3	377	378	17.2	64.8
2025-08-03T20:33	10	0	0.1	0	0	378	0.3	377	378	17.1	65.3
2025-08-03T20:34	10	0	0.1	0	0	378	0.3	378	379	17.2	64.7
2025-08-03T20:35	10	0	0.1	0	0	378	0.3	377	379	17.2	64.9
2025-08-03T20:36	10	0	0.1	0	0	378	0.3	377	378	17.1	65.3
2025-08-03T20:37	10	0	0.1	0	0	378	0.8	377	379	17.4	63.8
2025-08-03T20:38	10	0	0.1	0	0	379	0.3	378	379	17.3	64.5
2025-08-03T20:39	10	0	0.1	0	0	378	0.2	378	379	17.3	64.3
2025-08-03T20:40	10	0	0.1	0	0	378	0.4	377	379	17.3	64.3
2025-08-03T20:41	10	0	0.0	0	0	377	0.2	377	378	17.2	65.0
2025-08-03T20:42	10	0	0.1	0	0	377	0.3	376	378	17.2	65.0
2025-08-03T20:43	10	0	0.1	0	0	376	0.2	376	377	17.2	65.0
2025-08-03T20:44	10	0	0.1	0	0	376	0.3	376	377	17.1	65.2
2025-08-03T20:45	10	0	0.1	0	0	376	0.2	376	377	17.1	65.3
2025-08-03T20:46	10	0	0.0	0	0	376	0.2	375	376	17.2	64.9
2025-08-03T20:47	10	0	0.1	0	0	376	0.2	375	376	17.1	65.4
2025-08-03T20:48	10	0	0.0	0	0	376	0.3	375	377	17.1	65.5
2025-08-03T20:49	10	0	0.1	0	0	376	0.4	375	377	17.0	66.1
2025-08-03T20:50	10	0	0.1	0	0	375	0.3	375	376	16.7	67.8
2025-08-03T20:51	10	0	0.1	0	0	375	0.2	375	376	16.3	69.8
2025-08-03T20:52	10	0	0.1	0	0	376	0.5	375	377	16.2	70.0
2025-08-03T20:53	10	0	0.1	0	0	377	0.4	376	377	16.5	68.0
2025-08-03T20:54	10	0	0.1	0	0	377	0.3	376	377	16.9	66.5
2025-08-03T20:55	10	0	0.1	0	0	376	0.2	376	376	16.8	67.2
2025-08-03T20:56	10	0	0.1	0	0	376	0.4	376	377	16.4	69.4
2025-08-03T20:57	10	0	0.1	0	0	377	0.3	376	377	16.2	70.8
2025-08-03T20:58	10	0	0.1	0	0	377	0.3	376	377	16.3	69.9
2025-08-03T20:59	10	0	0.1	0	0	376	0.3	376	377	16.2	70.2
2025-08-03T21:00	10	0	0.1	0	0	377	0.2	376	377	16.5	68.3
2025-08-03T21:01	10	0	0.1	0	0	377	0.2	376	377	16.6	67.9
2025-08-03T21:02	10	0	0.1	0	0	376	0.3	375	376	16.3	70.3
2025-08-03T21:03	10	0	0.1	0	0	376	0.2	375	377	16.0	71.2
2025-08-03T21:04	10	0	0.1	0	0	375	0.5	374	376	16.2	70.5
2025-08-03T21:05	10	0	0.1	0	0	375	0.3	374	376	16.1	70.9
2025-08-03T21:06	10	0	0.1	0	0	375	0.4	375	376	16.1	71.1
2025-08-03T21:07	10	0	0.1	0	0	375	0.3	375	376	16.1	70.7
2025-08-03T21:08	10	0	0.1	0	0	375	0.4	375	376	15.8	72.7
2025-08-03T21:09	10	0	0.1	0	0	375	0.2	375	376	15.7	73.1
2025-08-03T21:10	10	0	0.2	0	0	376	0.4	375	377	15.7	73.1
2025-08-03T21:11	10	0	0.1	0	0	376	0.3	375	377	15.8	72.4
2025-08-03T21:12	10	0	0.2	-1	0	376	0.3	376	377	15.8	72.2
2025-08-03T21:13	10	0	0.2	-1	0	376	0.2	376	377	15.9	72.0
2025-08-03T21:14	10	0	0.1	0	0	376	0.3	376	377	15.8	72.8
2025-08-03T21:15	10	0	0.1	0	0	377	0.3	376	377	15.7	73.0
2025-08-03T21:16	10	0	0.1	0	0	377	0.3	376	377	16.1	70.6
2025-08-03T21:17	10	0	0.2	0	0	376	0.4	375	377	15.9	72.0
2025-08-03T21:18	10	0	0.1	0	1	375	0.3	375	376	15.5	74.2
2025-08-03T21:19	10	0	0.1	0	0	375	0.2	375	376	15.4	74.6
2025-08-03T21:20	10	0	0.2	0	0	375	0.2	374	375	15.4	74.9
2025-08-03T21:21	10	0	0.1	0	0	375	0.2	374	375	15.3	75.6
2025-08-03T21:22	10	0	0.1	-1	0	374	0.3	374	376	15.2	76.3
2025-08-03T21:23	10	0	0.1	0	0	374	0.3	374	375	15.1	77.0
2025-08-03T21:24	10	0	0.2	-1	0	376	0.4	375	376	15.5	73.8
2025-08-03T21:25	10	0	0.1	-1	0	374	0.2	374	375	15.3	76.2
2025-08-03T21:26	10	0	0.1	0	0	374	0.3	373	375	15.2	75.7
2025-08-03T21:27	10	0	0.1	0	0	374	0.3	374	375	15.3	76.1
2025-08-03T21:28	10	0	0.1	0	0	374	0.2	373	374	15.3	75.9
2025-08-03T21:29	10	0	0.1	0	0	374	0.2	373	374	15.3	75.7
2025-08-03T21:30	10	0	0.1	0	0	373	0.2	373	374	15.4	75.5
2025-08-03T21:31	10	0	0.1	0	0	373	0.2	373	374	15.5	74.4
2025-08-03T21:32	10	0	0.1	0	0	373	0.2	372	373	15.5	74.2
2025-08-03T21:33	10	0	0.1	0	0	373	0.2	373	373	15.5	69.0
2025-08-03T21:34	10	0	0.1	0	0	373	0.3	373	374	15.5	74.2
2025-08-03T21:35	10	0	0.1	0	0	373	0.3	373	374	15.3	70.4
2025-08-03T21:36	10	0	0.0	0	0	372	0.5	371	373	15.5	74.2
2025-08-03T21:37	10	0	0.1	0	0	371	0.3	371	372	15.5	74.2
2025-08-03T21:38	10	0	0.1	0	0	371	0.3	371	372	15.5	74.2
2025-08-03T21:39	10	0	0.1	0	0	371	0.2	371	372	15.5	74.5
2025-08-03T21:40	10	0	0.1	0	0	372	0.3	371	372	15.3	75.1
2025-08-03T21:41	10	0	0.1	0	0	371	0.5	370	372	15.1	76.4
2025-08-03T21:42	10	0	0.1	0	0	373	0.5	372	374	15.6	73.6
2025-08-03T21:43	10	0	0.1	0	0	373	0.3	372	373	15.4	75.3
2025-08-03T21:44	10	0	0.1	0	0	373	0.6	372	374	15.1	77.0
2025-08-03T21:45	10	0	0.1	0	0	373	0.4	373	374	15.9	72.0
2025-08-03T21:46	10	0	0.1	0	0	373	0.4	373	374	16.3	70.1
2025-08-03T21:47	10	0	0.1	0	0	372	0.5	371	373	15.7	73.4
2025-08-03T21:48	10	0	0.0	0	0	372	0.3	371	372	15.3	76.0
2025-08-03T21:49	10	0	0.0	0	0	371	0.3	370	372	15.1	76.9
2025-08-03T21:50	10	0	0.1	0	0	370	0.5	369	371	15.0	77.8
2025-08-03T21:51	10	0	0.1	0	0	369	0.3	369	370	14.6	80.4
2025-08-03T21:52	10	0	0.1	0	0	369	0.2	369	370	14.5	80.7
2025-08-03T21:53	10	0	0.1	0	0	369	0.2	369	370	14.4	81.3
2025-08-03T21:54	10	0	0.1	0	0	369	0.2	368	369	14.4	81.3
2025-08-03T21:55	10	0	0.1	0	0	369	0.2	368	369	14.5	80.5
2025-08-03T21:56	10	0	0.1	0	0	368	0.3	367	369	14.6	79.8
2025-08-03T21:57	10	0	0.1	0	0	368	0.3	368	369	14.7	79.0
2025-08-03T21:58	10	0	0.1	0	0	368	0.2	367	368	14.8	78.6
2025-08-03T21:59	10	0	0.1	0	0	367	0.3	367	368	14.7	78.6
2025-08-03T22:00	10	0	0.1	0	0	367	0.3	366	367	14.6	79.4
2025-08-03T22:01	10	0	0.1	0	0	366	0.2	366	367	14.5	80.1
2025-08-03T22:02	10	0	0.1	0	0	366	0.3	365	367	14.4	80.5
2025-08-03T22:03	10	0	0.1	0	0	366	0.3	365	367	14.3	81.2
2025-08-03T22:04	10	0	0.1	0	0	366	0.2	366	367	14.2	81.4
2025-08-03T22:05	10	0	0.1	0	0	366	0.2	365	366	14.1	82.0
2025-08-03T22:06	10	0	0.1	0	0	366	0.3	365	367	13.9	83.2
2025-08-03T22:07	10	0	0.1	0	0	366	0.3	366	367	13.9	83.7
2025-08-03T22:08	10	0	0.1	0	0	366	0.3	366	367	13.9	83.4
2025-08-03T22:09	10	0	0.1	0	0	366	0.2	366	367	13.9	83.3
2025-08-03T22:10	10	0	0.1	0	0	366	0.3	365	367	14.0	83.4
2025-08-03T22:11	10	0	0.1	0	0	366	0.3	366	367	14.2	82.1
2025-08-03T22:12	10	0	0.1	0	0	367	0.3	366	368	14.4	80.6
2025-08-03T22:13	10	0	0.1	0	0	367	0.3	366	368	14.7	78.7
2025-08-03T22:14	10	0	0.1	0	0	366	0.3	365	367	14.8	78.5
2025-08-03T22:15	10	0	0.1	0	0	366	0.3	365	366	14.6	80.5
2025-08-03T22:16	10	0	0.1	0	0	366	0.3	365	366	14.4	81.4
2025-08-03T22:17	10	0	0.1	0	0	365	0.2	365	366	14.2	82.1
2025-08-03T22:18	10	0	0.1	0	0	366	0.3	364	366	14.2	82.0
2025-08-03T22:19	10	0	0.1	0	0	365	0.3	365	366	14.1	82.1
2025-08-03T22:20	10	0	0.1	0	0	365	0.2	365	366	14.1	81.9
2025-08-03T22:21	10	0	0.1	0	0	365	0.2	365	365	14.2	81.2
2025-08-03T22:22	10	0	0.1	0	0	365	0.2	364	365	14.1	81.2
2025-08-03T22:23	10	0	0.1	0	0	364	0.2	364	365	14.2	81.1
2025-08-03T22:24	10	0	0.1	0	0	364	0.2	364	365	14.1	81.2
2025-08-03T22:25	10	0	0.1	0	0	364	0.3	363	364	14.1	81.0
2025-08-03T22:26	10	0	0.1	0	0	364	0.2	363	364	14.0	81.6
2025-08-03T22:27	10	0	0.1	0	0	364	0.3	363	364	13.9	82.0
2025-08-03T22:28	10	0	0.1	0	0	363	0.2	363	364	13.8	82.6
2025-08-03T22:29	10	0	0.1	0	0	363	0.2	363	364	13.8	82.8
2025-08-03T22:30	10	0	0.1	0	0	363	0.3	363	364	13.9	82.6
2025-08-03T22:31	10	0	0.1	0	0	364	0.3	363	364	13.9	82.2
2025-08-03T22:32	10	0	0.1	0	0	364	0.3	363	364	14.1	81.7
2025-08-03T22:33	10	0	0.1	0	0	364	0.3	363	364	14.2	81.3
2025-08-03T22:34	10	0	0.1	0	0	363	0.3	362	364	14.0	82.3
2025-08-03T22:35	10	0	0.1	0	0	363	0.2	363	364	13.9	82.9
2025-08-03T22:36	10	0	0.1	0	0	364	0.3	363	364	13.9	83.1
2025-08-03T22:37	10	0	0.1	0	0	364	0.2	364	365	13.9	83.2
2025-08-03T22:38	10	0	0.1	0	0	365	0.3	364	366	13.9	83.6
2025-08-03T22:39	10	0	0.1	0	0	365	0.2	364	365	13.8	84.0
2025-08-03T22:40	10	0	0.1	0	0	365	0.2	364	365	13.6	84.8
2025-08-03T22:41	10	0	0.1	0	0	365	0.2	364	365	13.5	85.3
2025-08-03T22:42	10	0	0.1	0	0	364	0.2	364	365	13.4	85.5
2025-08-03T22:43	10	0	0.1	0	0	365	0.4	364	365	13.4	85.8
2025-08-03T22:44	10	0	0.1	0	0	366	0.3	365	366	13.6	85.5
2025-08-03T22:45	10	0	0.1	0	0	367	0.7	366	368	13.7	85.1
2025-08-03T22:46	10	0	0.1	0	0	367	0.2	367	368	13.7	84.6
2025-08-03T22:47	10	0	0.1	0	0	367	0.2	367	368	13.7	84.1
2025-08-03T22:48	10	0	0.1	0	0	367	0.3	367	368	13.6	84.1
2025-08-03T22:49	10	0	0.0	0	0	367	0.2	367	367	13.6	84.5
2025-08-03T22:50	10	0	0.1	0	0	367	0.2	366	367	13.6	84.5
2025-08-03T22:51	10	0	0.1	0	0	366	0.2	366	367	13.6	84.8
2025-08-03T22:52	10	0	0.1	0	0	366	0.2	365	366	13.7	84.7
2025-08-03T22:53	10	0	0.1	0	0	366	0.3	365	366	13.6	84.9
2025-08-03T22:54	10	0	0.1	0	0	365	0.3	364	366	13.5	85.3
2025-08-03T22:55	10	0	0.1	0	0	365	0.3	364	366	13.6	85.3
2025-08-03T22:56	10	0	0.1	0	0	365	0.2	365	366	13.6	85.3
2025-08-03T22:57	10	0	0.1	0	0	366	0.3	365	366	13.7	84.9
2025-08-03T22:58	10	0	0.1	0	0	366	0.3	365	366	13.6	85.0
2025-08-03T22:59	10	0	0.1	0	0	366	0.2	365	366	13.6	85.2
2025-08-03T23:00	10	0	0.1	0	0	366	0.2	366	367	13.6	85.2
2025-08-03T23:01	10	0	0.1	0	0	366	0.2	366	367	13.6	85.2
2025-08-03T23:02	10	0	0.1	0	0	367	0.2	366	367	13.6	85.2
2025-08-03T23:03	10	0	0.1	0	0	366	0.2	366	367	13.6	85.3
2025-08-03T23:04	10	0	0.1	0	0	366	0.2	366	367	13.5	85.6
2025-08-03T23:05	10	0	0.1	0	0	366	0.2	365	367	13.5	85.6
2025-08-03T23:06	10	0	0.1	0	0	366	0.4	366	367	13.6	85.4
2025-08-03T23:07	10	0	0.2	0	0	367	0.3	366	367	13.6	84.9
2025-08-03T23:08	10	0	0.2	0	0	367	0.3	367	368	13.7	84.1
2025-08-03T23:09	10	0	0.1	0	0	367	0.3	366	369	13.7	84.1
2025-08-03T23:10	10	0	0.2	0	0	367	0.3	367	368	13.6	84.4
2025-08-03T23:11	10	0	0.2	0	0	368	0.2	367	368	13.6	84.4
2025-08-03T23:12	10	0	0.1	0	0	367	0.3	366	367	13.8	83.7
2025-08-03T23:13	10	0	0.1	0	0	367	0.2	366	367	13.8	83.3
2025-08-03T23:14	10	0	0.1	0	0	366	0.3	366	367	13.8	83.2
2025-08-03T23:15	10	0	0.2	-1	0	366	0.2	365	366	13.9	83.0
2025-08-03T23:16	10	0	0.2	0	0	365	0.3	365	366	13.9	82.9
2025-08-03T23:17	10	0	0.2	-1	0	365	0.3	364	365	13.9	82.8
2025-08-03T23:18	10	0	0.1	0	0	365	0.2	364	365	13.8	82.9
2025-08-03T23:19	10	0	0.1	0	0	364	0.2	363	364	13.8	82.9
2025-08-03T23:20	10	0	0.1	0	0	364	0.2	363	364	13.8	82.8
2025-08-03T23:21	10	0	0.1	0	0	364	0.2	364	364	13.9	82.5
2025-08-03T23:22	10	0	0.1	-1	0	364	0.3	363	364	13.8	82.6
2025-08-03T23:23	10	0	0.1	0	0	364	0.3	363	364	13.8	82.9
2025-08-03T23:24	10	0	0.1	0	0	364	0.3	363	365	13.7	83.5
2025-08-03T23:25	10	0	0.1	0	0	365	0.5	363	365	13.6	84.0
2025-08-03T23:26	10	0	0.1	0	0	365	0.3	364	366	13.6	83.9
2025-08-03T23:27	10	0	0.2	0	0	365	0.3	365	366	13.7	83.4
2025-08-03T23:28	10	0	0.2	0	0	366	0.2	365	366	13.7	83.4
2025-08-03T23:29	10	0	0.1	0	0	366	0.3	365	366	13.6	83.8
2025-08-03T23:30	10	0	0.1	0	0	365	0.2	365	366	13.5	84.1
2025-08-03T23:31	10	0	0.1	0	0	365	0.2	365	366	13.5	84.8
2025-08-03T23:32	10	0	0.1	0	0	365	0.3	364	366	13.3	85.7
2025-08-03T23:33	10	0	0.0	0	0	365	0.2	365	366	13.2	86.1
2025-08-03T23:34	10	0	0.1	0	0	365	0.2	365	365	13.1	86.9
2025-08-03T23:35	10	0	0.1	0	0	365	0.2	364	365	13.0	87.2
2025-08-03T23:36	10	0	0.1	0	0	365	0.2	364	365	13.0	87.3
2025-08-03T23:37	10	0	0.1	0	0	364	0.2	364	365	13.0	87.3
2025-08-03T23:38	10	0	0.1	0	0	364	0.2	364	364	13.0	87.6
2025-08-03T23:39	10	0	0.1	0	0	364	0.2	364	365	12.9	88.2
2025-08-03T23:40	10	0	0.1	0	0	365	0.6	364	366	13.0	87.3
2025-08-03T23:41	10	0	0.1	0	0	365	0.3	364	366	13.6	83.6
2025-08-03T23:42	10	0	0.0	0	0	365	0.3	364	365	13.7	83.0
2025-08-03T23:43	10	0	0.0	0	0	364	0.2	364	365	13.7	83.2
2025-08-03T23:44	10	0	0.0	0	0	364	0.3	363	365	13.6	83.4
2025-08-03T23:45	10	0	0.0	0	0	364	0.3	363	364	13.5	84.4
2025-08-03T23:46	10	0	0.0	0	0	364	0.2	363	364	13.5	84.1
2025-08-03T23:47	10	0	0.0	0	0	363	0.3	363	364	13.6	83.5
2025-08-03T23:48	10	0	0.0	0	0	363	0.2	362	363	13.5	83.8
2025-08-03T23:49	10	0	0.0	0	0	363	0.3	362	363	13.5	83.9
2025-08-03T23:50	10	0	0.1	0	0	363	0.3	362	363	13.5	84.0
2025-08-03T23:51	10	0	0.1	0	0	362	0.5	361	363	13.5	84.3
2025-08-03T23:52	10	0	0.1	0	0	362	0.2	361	362	13.4	84.7
2025-08-03T23:53	10	0	0.1	0	0	362	0.3	361	363	13.4	84.5
2025-08-03T23:54	10	0	0.1	0	0	362	0.2	362	363	13.4	84.5
2025-08-03T23:55	10	0	0.1	0	0	362	0.3	361	363	13.1	85.3
2025-08-03T23:56	10	0	0.1	0	0	363	0.6	362	364	13.0	85.7
2025-08-03T23:57	10	0	0.1	0	0	364	0.3	363	365	13.0	85.8
2025-08-03T23:58	10	0	0.1	0	0	364	0.2	364	365	12.9	86.0
2025-08-03T23:59	10	0	0.1	0	0	364	0.4	363	364	12.9	86.2
2025-08-04T00:00	10	0	0.1	0	0	363	0.3	362	364	12.9	86.5
2025-08-04T00:01	10	0	0.1	0	0	362	0.3	361	363	12.9	86.7
2025-08-04T00:02	10	0	0.1	0	0	362	0.2	362	363	12.9	86.8
2025-08-04T00:03	10	0	0.1	0	0	363	0.3	362	363	12.9	86.4
2025-08-04T00:04	10	0	0.1	0	0	363	0.3	362	363	12.8	86.9
2025-08-04T00:05	10	0	0.1	0	0	363	0.2	362	363	12.6	87.9
2025-08-04T00:06	10	0	0.1	0	0	363	0.4	362	364	12.5	88.5
2025-08-04T00:07	10	0	0.1	0	0	363	0.3	363	364	12.5	88.9
2025-08-04T00:08	10	0	0.1	0	0	363	0.3	363	364	12.4	89.5
2025-08-04T00:09	10	0	0.1	0	0	363	0.2	363	364	12.4	89.5
2025-08-04T00:10	10	0	0.1	0	0	363	0.2	362	364	12.5	89.0
2025-08-04T00:11	10	0	0.1	0	0	363	0.3	362	364	12.4	89.2
2025-08-04T00:12	10	0	0.1	0	0	363	0.3	363	364	12.5	88.8
2025-08-04T00:13	10	0	0.1	0	0	363	0.3	363	364	12.6	88.6
2025-08-04T00:14	10	0	0.1	0	0	363	0.3	362	363	12.5	88.6
2025-08-04T00:15	10	0	0.1	0	0	363	0.2	362	363	12.3	89.1
2025-08-04T00:16	10	0	0.1	0	0	363	0.2	362	363	12.4	88.9
2025-08-04T00:17	10	0	0.1	0	0	362	0.2	362	363	12.4	88.8
2025-08-04T00:18	10	0	0.1	0	0	362	0.2	362	362	12.4	88.7
2025-08-04T00:19	10	0	0.1	0	0	362	0.2	362	363	12.6	87.9
2025-08-04T00:20	10	0	0.1	0	0	362	0.2	361	362	12.5	88.1
2025-08-04T00:21	10	0	0.1	0	0	362	0.3	361	362	12.5	87.8
2025-08-04T00:22	10	0	0.1	0	0	361	0.2	361	361	12.4	88.2
2025-08-04T00:23	10	0	0.1	0	0	360	0.2	360	361	12.3	88.8
2025-08-04T00:24	10	0	0.1	0	0	360	0.3	360	361	12.2	89.3
2025-08-04T00:25	10	0	0.1	0	0	361	0.3	360	361	12.3	89.3
2025-08-04T00:26	10	0	0.1	0	0	361	0.3	360	361	12.4	88.8
2025-08-04T00:27	10	0	0.1	0	0	361	0.3	360	361	12.6	88.0
2025-08-04T00:28	10	0	0.1	0	0	360	0.3	360	361	12.6	87.8
2025-08-04T00:29	10	0	0.1	0	0	360	0.3	360	361	12.6	87.7
2025-08-04T00:30	10	0	0.1	0	0	360	0.3	360	361	12.6	87.9
2025-08-04T00:31	10	0	0.1	0	0	360	0.2	360	361	12.6	88.1
2025-08-04T00:32	10	0	0.1	0	0	360	0.2	360	361	12.5	88.3
2025-08-04T00:33	10	0	0.1	0	0	360	0.2	360	361	12.4	88.5
2025-08-04T00:34	10	0	0.1	0	0	360	0.3	360	361	12.4	88.7
2025-08-04T00:35	10	0	0.1	0	0	360	0.2	360	361	12.4	89.1
2025-08-04T00:36	10	0	0.1	0	0	361	0.2	360	361	12.3	89.4
2025-08-04T00:37	10	0	0.1	0	0	361	0.3	360	361	12.3	89.6
2025-08-04T00:38	10	0	0.1	0	0	361	0.2	361	361	12.3	89.8
2025-08-04T00:39	10	0	0.1	0	0	361	0.2	360	361	12.3	89.7
2025-08-04T00:40	10	0	0.1	0	0	360	0.2	360	361	12.3	89.6
2025-08-04T00:41	10	0	0.1	0	0	360	0.3	359	361	12.3	89.8
2025-08-04T00:42	10	0	0.1	0	0	360	0.2	359	360	12.2	90.0
2025-08-04T00:43	10	0	0.1	0	0	359	0.3	359	360	12.1	90.2
2025-08-04T00:44	10	0	0.1	0	0	359	0.2	359	360	12.1	90.3
2025-08-04T00:45	10	0	0.1	0	0	359	0.3	359	360	12.1	90.5
2025-08-04T00:46	10	0	0.1	0	0	360	0.2	359	360	12.1	90.8
2025-08-04T00:47	10	0	0.1	0	0	360	0.2	360	360	12.1	90.8
2025-08-04T00:48	10	0	0.1	0	0	360	0.3	360	361	12.1	90.7
2025-08-04T00:49	10	0	0.1	0	0	361	0.4	360	361	12.2	90.5
2025-08-04T00:50	10	0	0.1	0	0	361	0.3	360	362	12.3	90.1
2025-08-04T00:51	10	0	0.1	0	0	361	0.3	361	362	12.2	90.1
2025-08-04T00:52	10	0	0.1	0	0	361	0.2	361	362	12.2	90.1
2025-08-04T00:53	10	0	0.1	0	0	362	0.2	361	362	12.3	89.7
2025-08-04T00:54	10	0	0.1	0	0	362	0.2	362	362	12.4	89.5
2025-08-04T00:55	10	0	0.1	0	0	362	0.3	361	362	12.3	89.6
2025-08-04T00:56	10	0	0.1	0	0	362	0.2	361	362	12.2	90.1
2025-08-04T00:57	10	0	0.0	0	0	361	0.2	361	362	12.3	90.2
2025-08-04T00:58	10	0	0.1	0	0	361	0.2	360	361	12.3	90.1
2025-08-04T00:59	10	0	0.1	0	0	361	0.2	360	361	12.4	89.8
2025-08-04T01:00	10	0	0.1	0	0	360	0.3	360	361	12.4	89.8
2025-08-04T01:01	10	0	0.1	0	0	360	0.2	359	360	12.4	89.9
2025-08-04T01:02	10	0	0.1	0	0	360	0.2	359	360	12.4	89.8
2025-08-04T01:03	10	0	0.1	0	0	359	0.3	358	360	12.3	89.8
2025-08-04T01:04	10	0	0.0	0	0	359	0.2	359	360	12.3	89.8
2025-08-04T01:05	10	0	0.1	0	0	359	0.2	359	360	12.3	89.6
2025-08-04T01:06	10	0	0.1	0	0	359	0.2	359	360	12.3	89.4
2025-08-04T01:07	10	0	0.1	0	0	359	0.2	359	360	12.4	89.0
2025-08-04T01:08	10	0	0.1	0	0	359	0.2	359	360	12.4	88.9
2025-08-04T01:09	10	0	0.1	0	0	359	0.2	359	360	12.4	88.8
2025-08-04T01:10	10	0	0.1	0	0	360	0.3	359	360	12.5	88.3
2025-08-04T01:11	10	0	0.1	0	0	360	0.2	360	360	12.6	87.8
2025-08-04T01:12	10	0	0.1	0	0	360	0.3	359	361	12.6	87.7
2025-08-04T01:13	10	0	0.1	0	0	360	0.2	359	360	12.6	87.5
2025-08-04T01:14	10	0	0.0	0	0	360	0.3	359	360	12.6	87.2
2025-08-04T01:15	10	0	0.1	0	0	360	0.2	359	360	12.7	86.8
2025-08-04T01:16	10	0	0.1	0	0	360	0.2	359	360	12.6	87.0
2025-08-04T01:17	10	0	0.1	0	0	360	0.2	359	360	12.6	87.2
2025-08-04T01:18	10	0	0.1	0	0	360	0.3	359	361	12.5	87.8
2025-08-04T01:19	10	0	0.1	0	0	360	0.2	360	361	12.4	88.2
2025-08-04T01:20	10	0	0.1	0	0	361	0.2	360	361	12.3	88.8
2025-08-04T01:21	10	0	0.1	0	0	361	0.3	360	361	12.1	89.3
2025-08-04T01:22	10	0	0.1	0	0	361	0.3	360	361	12.0	90.1
2025-08-04T01:23	10	0	0.1	0	0	361	0.2	360	361	12.0	90.8
2025-08-04T01:24	10	0	0.1	0	0	361	0.2	360	361	11.9	91.5
2025-08-04T01:25	10	0	0.1	0	0	361	0.3	360	361	11.9	91.8
2025-08-04T01:26	10	0	0.1	0	0	361	0.2	360	361	12.1	90.8
2025-08-04T01:27	10	0	0.1	0	0	360	0.2	360	361	12.2	90.3
2025-08-04T01:28	10	0	0.1	0	0	360	0.2	360	361	12.2	90.1
2025-08-04T01:29	10	0	0.1	0	0	360	0.3	359	360	12.2	90.2
2025-08-04T01:30	10	0	0.1	0	0	360	0.3	359	360	12.1	90.4
2025-08-04T01:31	10	0	0.1	0	0	359	0.3	359	360	12.1	90.7
2025-08-04T01:32	10	0	0.1	0	0	359	0.2	359	360	12.0	91.0
2025-08-04T01:33	10	0	0.1	0	0	359	0.2	359	360	12.1	90.4
2025-08-04T01:34	10	0	0.1	0	0	359	0.3	358	360	12.1	90.7
2025-08-04T01:35	10	0	0.1	0	0	359	0.2	358	359	12.0	91.2
2025-08-04T01:36	10	0	0.1	0	0	359	0.3	358	359	11.9	91.6
2025-08-04T01:37	10	0	0.1	0	0	359	0.3	358	359	11.8	92.1
2025-08-04T01:38	10	0	0.1	0	0	359	0.2	358	359	11.8	92.6
2025-08-04T01:39	10	0	0.1	0	0	359	0.2	358	360	11.8	93.1
2025-08-04T01:40	10	0	0.1	0	0	359	0.2	359	359	11.7	93.4
2025-08-04T01:41	10	0	0.1	0	0	359	0.2	359	359	11.7	93.5
2025-08-04T01:42	10	0	0.1	0	0	359	0.2	359	359	11.7	93.4
2025-08-04T01:43	10	0	0.1	0	0	359	0.2	359	360	11.7	93.0
2025-08-04T01:44	10	0	0.1	0	0	359	0.2	359	360	11.7	92.9
2025-08-04T01:45	10	0	0.1	0	0	359	0.2	359	359	11.7	92.9
2025-08-04T01:46	10	0	0.1	0	0	359	0.3	358	360	11.6	92.7
2025-08-04T01:47	10	0	0.1	0	0	360	0.3	359	360	11.6	92.6
2025-08-04T01:48	10	0	0.1	0	0	360	0.2	360	360	11.7	92.0
2025-08-04T01:49	10	0	0.1	0	0	360	0.2	359	360	11.8	91.6
2025-08-04T01:50	10	0	0.1	0	0	360	0.2	359	360	11.8	91.7
2025-08-04T01:51	10	0	0.1	0	0	359	0.2	359	360	11.7	91.8
2025-08-04T01:52	10	0	0.1	0	0	359	0.2	359	360	11.6	91.9
2025-08-04T01:53	10	0	0.1	0	0	359	0.3	359	360	11.6	91.8
2025-08-04T01:54	10	0	0.1	0	0	359	0.2	359	360	11.7	91.6
2025-08-04T01:55	10	0	0.1	0	0	360	0.4	359	361	11.8	91.2
2025-08-04T01:56	10	0	0.1	0	0	361	0.3	360	361	11.9	90.8
2025-08-04T01:57	10	0	0.1	0	0	361	0.2	361	361	11.9	90.3
2025-08-04T01:58	10	0	0.0	0	0	361	0.3	361	362	11.9	90.3
2025-08-04T01:59	10	0	0.1	0	0	361	0.3	360	362	12.0	90.1
2025-08-04T02:00	10	0	0.1	0	0	361	0.2	361	361	11.9	90.4
2025-08-04T02:01	10	0	0.1	0	0	360	0.2	360	361	11.9	90.8
2025-08-04T02:02	10	0	0.0	0	0	360	0.2	359	360	11.9	91.3
2025-08-04T02:03	10	0	0.1	0	0	360	0.2	360	361	11.7	91.9
2025-08-04T02:04	10	0	0.1	0	0	360	0.2	359	360	11.6	92.4
2025-08-04T02:05	10	0	0.1	0	0	360	0.2	360	361	11.6	92.7
2025-08-04T02:06	10	0	0.1	0	0	361	0.3	360	361	11.6	92.8
2025-08-04T02:07	10	0	0.1	0	0	361	0.2	360	361	11.6	92.8
2025-08-04T02:08	10	0	0.1	0	0	361	0.2	360	362	11.5	93.3
2025-08-04T02:09	10	0	0.1	0	0	361	0.2	360	361	11.4	93.9
2025-08-04T02:10	10	0	0.1	0	0	361	0.2	360	361	11.4	94.3
2025-08-04T02:11	10	0	0.1	0	0	360	0.2	360	361	11.4	94.4
2025-08-04T02:12	10	0	0.1	0	0	361	0.2	360	361	11.4	94.4
2025-08-04T02:13	10	0	0.1	0	0	361	0.2	360	361	11.5	93.8
2025-08-04T02:14	10	0	0.0	0	0	360	0.2	360	361	11.5	93.6
2025-08-04T02:15	10	0	0.1	0	0	361	0.2	360	361	11.4	93.6
2025-08-04T02:16	10	0	0.1	0	0	360	0.2	360	361	11.4	93.6
2025-08-04T02:17	10	0	0.0	0	0	360	0.2	359	360	11.4	93.5
2025-08-04T02:18	10	0	0.1	0	0	359	0.3	359	360	11.4	93.5
2025-08-04T02:19	10	0	0.1	0	0	359	0.4	358	360	11.4	93.4
2025-08-04T02:20	10	0	0.1	0	0	360	0.4	360	361	11.4	93.4
2025-08-04T02:21	10	0	0.1	0	0	362	0.3	361	362	11.5	93.1
2025-08-04T02:22	10	0	0.0	0	0	362	0.2	362	363	11.6	92.6
2025-08-04T02:23	10	0	0.1	0	0	362	0.2	362	363	11.6	92.7
2025-08-04T02:24	10	0	0.1	0	0	362	0.3	362	363	11.6	92.7
2025-08-04T02:25	10	0	0.1	0	0	362	0.2	362	363	11.7	92.1
2025-08-04T02:26	10	0	0.1	-1	0	362	0.2	362	363	11.9	91.2
2025-08-04T02:27	10	0	0.1	0	0	362	0.3	361	363	11.9	91.0
2025-08-04T02:28	10	0	0.1	-1	0	362	0.3	361	362	11.8	91.2
2025-08-04T02:29	10	0	0.1	0	0	361	0.2	361	362	11.8	91.1
2025-08-04T02:30	10	0	0.1	-1	0	361	0.5	360	362	11.8	91.3
2025-08-04T02:31	10	0	0.1	0	0	360	0.2	360	361	11.7	91.6
2025-08-04T02:32	10	0	0.1	0	0	360	0.3	359	360	11.7	91.4
2025-08-04T02:33	10	0	0.1	0	0	360	0.3	359	360	11.7	91.3
2025-08-04T02:34	10	0	0.1	-1	0	360	0.2	359	360	11.8	90.8
2025-08-04T02:35	10	0	0.1	-1	0	360	0.2	359	360	11.9	90.6
2025-08-04T02:36	10	0	0.1	-1	0	360	0.4	359	361	11.9	90.1
2025-08-04T02:37	10	0	0.2	0	0	360	0.2	360	361	11.9	89.9
2025-08-04T02:38	10	0	0.1	-1	0	360	0.3	360	361	11.9	90.3
2025-08-04T02:39	10	0	0.1	0	0	360	0.4	359	361	11.8	90.6
2025-08-04T02:40	10	0	0.1	0	0	360	0.3	359	360	11.7	91.1
2025-08-04T02:41	10	0	0.1	0	0	359	0.2	359	360	11.6	91.7
2025-08-04T02:42	10	0	0.1	0	0	359	0.4	357	359	11.6	91.4
2025-08-04T02:43	10	0	0.2	0	0	358	0.2	358	359	11.6	91.3
2025-08-04T02:44	10	0	0.1	0	0	358	0.3	357	358	11.7	91.2
2025-08-04T02:45	10	0	0.1	0	0	357	0.3	357	358	11.7	91.1
2025-08-04T02:46	10	0	0.1	0	0	358	0.4	357	359	11.8	90.8
2025-08-04T02:47	10	0	0.1	-1	0	358	0.3	357	358	11.9	90.1
2025-08-04T02:48	10	0	0.1	-1	0	358	0.3	357	359	11.9	89.8
2025-08-04T02:49	10	0	0.1	-1	0	357	0.3	357	358	12.0	89.7
2025-08-04T02:50	10	0	0.2	-1	1	357	0.4	356	358	12.0	89.6
2025-08-04T02:51	10	0	0.1	-1	0	358	0.4	357	358	12.2	88.8
2025-08-04T02:52	10	0	0.1	-1	0	357	0.2	357	358	12.2	88.6
2025-08-04T02:53	10	0	0.1	0	0	357	0.4	356	358	12.1	89.0
2025-08-04T02:54	10	0	0.1	-1	0	358	0.3	357	359	12.1	89.2
2025-08-04T02:55	10	0	0.1	0	0	359	0.3	358	359	12.1	89.3
2025-08-04T02:56	10	0	0.1	-1	0	359	0.3	359	360	12.1	89.3
2025-08-04T02:57	10	0	0.1	0	0	359	0.3	359	360	12.1	89.1
2025-08-04T02:58	10	0	0.1	0	0	359	0.2	359	360	12.1	89.0
2025-08-04T02:59	10	0	0.1	0	0	360	0.2	359	360	12.1	89.0
2025-08-04T03:00	10	0	0.1	0	0	359	0.3	359	360	12.1	88.9
2025-08-04T03:01	10	0	0.1	0	0	359	0.2	359	360	12.1	89.2
2025-08-04T03:02	10	0	0.1	0	0	359	0.2	359	360	12.1	89.1
2025-08-04T03:03	10	0	0.1	0	0	359	0.2	358	359	12.1	89.1
2025-08-04T03:04	10	0	0.1	0	0	359	0.2	359	360	12.1	89.0
2025-08-04T03:05	10	0	0.1	0	0	359	0.3	358	359	12.1	88.9
2025-08-04T03:06	10	0	0.1	0	0	359	0.2	359	359	12.1	89.1
2025-08-04T03:07	10	0	0.1	0	0	359	0.3	358	359	11.9	89.5
2025-08-04T03:08	10	0	0.1	0	0	359	0.4	357	359	12.0	89.6
2025-08-04T03:09	10	0	0.1	0	0	358	0.2	357	358	11.9	89.6
2025-08-04T03:10	10	0	0.2	0	1	358	0.4	358	359	11.9	89.7
2025-08-04T03:11	10	0	0.1	0	0	359	0.2	359	359	12.0	89.6
2025-08-04T03:12	10	0	0.1	0	0	359	0.2	359	360	12.0	89.7
2025-08-04T03:13	10	0	0.1	0	0	359	0.3	358	359	11.9	89.8
2025-08-04T03:14	10	0	0.1	0	0	359	0.2	358	359	11.9	89.9
2025-08-04T03:15	10	0	0.1	0	0	358	0.3	357	359	11.9	89.8
2025-08-04T03:16	10	0	0.1	0	0	358	0.2	357	358	12.0	89.7
2025-08-04T03:17	10	0	0.1	-1	0	358	0.2	357	358	12.0	89.6
2025-08-04T03:18	10	0	0.1	0	0	357	0.2	357	358	12.0	89.6
2025-08-04T03:19	10	0	0.1	0	0	357	0.2	357	358	12.0	89.4
2025-08-04T03:20	10	0	0.1	0	0	357	0.2	357	358	12.1	89.1
2025-08-04T03:21	10	0	0.1	0	0	357	0.2	357	358	12.1	89.0
2025-08-04T03:22	10	0	0.1	0	0	358	0.3	357	359	12.1	88.9
2025-08-04T03:23	10	0	0.1	0	0	359	0.2	358	360	12.1	88.8
2025-08-04T03:24	10	0	0.1	-1	0	359	0.3	359	360	12.1	88.9
2025-08-04T03:25	10	0	0.1	-1	0	359	0.2	359	360	12.1	89.0
2025-08-04T03:26	10	0	0.0	0	0	359	0.3	359	360	12.1	89.1
2025-08-04T03:27	10	0	0.1	0	0	359	0.3	358	360	12.0	89.4
2025-08-04T03:28	10	0	0.1	0	0	359	0.3	358	359	11.9	89.6
2025-08-04T03:29	10	0	0.1	0	0	359	0.2	358	359	11.9	90.0
2025-08-04T03:30	10	0	0.1	0	0	359	0.2	358	359	11.7	90.9
2025-08-04T03:31	10	0	0.1	0	0	359	0.2	358	359	11.6	91.5
2025-08-04T03:32	10	0	0.1	0	0	359	0.1	359	359	11.6	91.8
2025-08-04T03:33	10	0	0.1	-1	0	359	0.2	358	359	11.6	92.0
2025-08-04T03:34	10	0	0.1	0	0	359	0.2	358	359	11.6	92.1
2025-08-04T03:35	10	0	0.1	0	0	359	0.2	358	359	11.5	92.1
2025-08-04T03:36	10	0	0.1	0	0	358	0.3	358	359	11.5	92.3
2025-08-04T03:37	10	0	0.1	0	0	358	0.3	357	358	11.6	92.2
2025-08-04T03:38	10	0	0.1	0	0	358	0.3	357	358	11.5	92.4
2025-08-04T03:39	10	0	0.1	0	0	357	0.2	357	358	11.5	92.3
2025-08-04T03:40	10	0	0.1	0	0	357	0.2	356	357	11.6	92.0
2025-08-04T03:41	10	0	0.1	0	0	356	0.2	356	357	11.6	91.9
2025-08-04T03:42	10	0	0.1	0	0	356	0.2	356	357	11.5	92.2
2025-08-04T03:43	10	0	0.1	0	0	357	0.2	356	357	11.4	92.7
2025-08-04T03:44	10	0	0.1	0	0	357	0.2	356	357	11.3	93.0
2025-08-04T03:45	10	0	0.1	0	0	357	0.2	357	357	11.3	93.2
2025-08-04T03:46	10	0	0.1	0	0	357	0.2	357	358	11.3	93.4
2025-08-04T03:47	10	0	0.1	0	0	357	0.2	357	358	11.3	93.5
2025-08-04T03:48	10	0	0.1	0	0	357	0.2	357	358	11.3	93.5
2025-08-04T03:49	10	0	0.1	0	0	357	0.2	357	358	11.3	93.7
2025-08-04T03:50	10	0	0.1	-1	0	357	0.2	357	358	11.2	93.8
2025-08-04T03:51	10	0	0.1	0	0	357	0.2	356	357	11.2	93.8
2025-08-04T03:52	10	0	0.1	0	0	357	0.3	356	357	11.2	93.9
2025-08-04T03:53	10	0	0.1	-1	0	356	0.2	356	357	11.2	93.9
2025-08-04T03:54	10	0	0.1	0	0	356	0.2	355	356	11.2	94.0
2025-08-04T03:55	10	0	0.1	0	0	356	0.2	355	356	11.2	94.1
2025-08-04T03:56	10	0	0.1	0	0	355	0.2	355	356	11.2	94.2
2025-08-04T03:57	10	0	0.1	0	0	355	0.2	354	355	11.2	94.3
2025-08-04T03:58	10	0	0.1	0	0	355	0.3	354	355	11.2	94.2
2025-08-04T03:59	10	0	0.1	0	0	354	0.2	353	355	11.1	94.3
2025-08-04T04:00	10	0	0.1	0	0	354	0.2	354	355	11.1	94.4
2025-08-04T04:01	10	0	0.1	0	0	354	0.2	354	355	11.0	94.4
2025-08-04T04:02	10	0	0.1	0	0	354	0.2	353	354	11.0	94.5
2025-08-04T04:03	10	0	0.1	0	0	354	0.2	354	354	11.0	94.7
2025-08-04T04:04	10	0	0.1	0	0	354	0.2	353	354	11.0	94.8
2025-08-04T04:05	10	0	0.1	0	0	354	0.2	353	354	11.0	94.8
2025-08-04T04:06	10	0	0.0	0	0	354	0.2	353	354	11.1	94.6
2025-08-04T04:07	10	0	0.1	0	0	354	0.3	353	355	11.1	94.5
2025-08-04T04:08	10	0	0.1	0	0	354	0.2	354	355	11.2	94.3
2025-08-04T04:09	10	0	0.0	0	0	354	0.2	354	355	11.1	94.4
2025-08-04T04:10	10	0	0.0	0	0	355	0.3	354	356	11.1	94.3
2025-08-04T04:11	10	0	0.0	0	0	355	0.2	355	356	11.1	94.3
2025-08-04T04:12	10	0	0.0	0	0	356	0.2	355	356	11.2	94.2
2025-08-04T04:13	10	0	0.1	0	0	355	0.3	355	356	11.2	94.4
2025-08-04T04:14	10	0	0.1	0	0	355	0.3	355	356	11.1	94.6
2025-08-04T04:15	10	0	0.1	0	0	355	0.2	355	356	11.0	94.7
2025-08-04T04:16	10	0	0.1	0	0	355	0.3	355	356	11.0	94.9
2025-08-04T04:17	10	0	0.1	0	0	355	0.3	354	356	11.0	95.0
2025-08-04T04:18	10	0	0.1	0	0	354	0.2	354	355	11.0	95.5
2025-08-04T04:19	10	0	0.1	0	0	354	0.2	354	355	11.1	95.5
2025-08-04T04:20	10	0	0.1	0	0	354	0.2	354	355	11.1	95.3
2025-08-04T04:21	10	0	0.1	0	0	354	0.3	354	355	11.1	95.2
2025-08-04T04:22	10	1	0.1	0	1	354	0.3	354	355	11.0	95.1
2025-08-04T04:23	10	1	0.1	1	1	354	0.3	354	355	11.0	94.6
2025-08-04T04:24	10	1	0.1	1	1	355	0.2	355	356	11.1	94.5
2025-08-04T04:25	10	1	0.1	1	1	355	0.2	355	356	11.2	94.5
2025-08-04T04:26	10	1	0.1	1	2	356	0.3	355	356	11.3	94.0
2025-08-04T04:27	10	2	0.1	2	2	356	0.2	355	356	11.5	93.4
2025-08-04T04:28	10	2	0.1	2	2	356	0.3	355	356	11.5	92.9
2025-08-04T04:29	10	2	0.1	2	3	356	0.3	355	356	11.6	92.3
2025-08-04T04:30	10	3	0.1	3	3	356	0.2	355	356	11.5	92.2
2025-08-04T04:31	10	3	0.1	3	3	356	0.3	356	357	11.5	92.3
2025-08-04T04:32	10	3	0.1	3	4	357	0.3	356	358	11.4	92.9
2025-08-04T04:33	10	4	0.1	3	4	358	0.3	357	359	11.3	93.1
2025-08-04T04:34	10	4	0.1	4	4	358	0.2	358	359	11.3	93.3
2025-08-04T04:35	10	5	0.1	4	5	358	0.3	358	359	11.2	93.4
2025-08-04T04:36	10	5	0.2	5	5	359	0.3	358	360	11.3	93.5
2025-08-04T04:37	10	5	0.1	5	6	359	0.4	359	360	11.4	93.4
2025-08-04T04:38	10	6	0.2	5	6	359	0.3	359	360	11.5	92.6
2025-08-04T04:39	10	6	0.1	6	6	360	0.4	359	361	11.6	92.1
2025-08-04T04:40	10	7	0.1	6	7	361	0.2	360	361	11.8	91.1
2025-08-04T04:41	10	7	0.1	7	7	361	0.2	360	361	11.8	90.4
2025-08-04T04:42	10	7	0.1	7	7	361	0.3	361	362	11.8	90.2
2025-08-04T04:43	10	7	0.1	7	8	362	0.2	361	362	11.9	90.0
2025-08-04T04:44	10	8	0.1	7	8	362	0.3	362	363	11.8	90.1
2025-08-04T04:45	10	8	0.1	8	8	362	0.3	362	363	11.8	90.5
2025-08-04T04:46	10	8	0.1	8	8	363	0.4	362	364	11.6	91.0
2025-08-04T04:47	10	8	0.1	8	9	364	0.3	363	364	11.8	90.1
2025-08-04T04:48	10	9	0.1	8	9	364	0.2	363	364	11.6	90.6
2025-08-04T04:49	10	9	0.1	9	9	364	0.3	363	365	11.6	90.7
2025-08-04T04:50	10	9	0.1	9	9	365	0.4	364	366	11.8	90.2
2025-08-04T04:51	10	10	0.1	9	10	365	0.2	364	366	11.9	89.5
2025-08-04T04:52	10	10	0.2	10	10	366	0.3	365	366	11.9	89.8
2025-08-04T04:53	10	10	0.1	10	11	366	0.3	365	366	11.9	89.8
2025-08-04T04:54	10	11	0.1	11	11	366	0.3	366	367	11.9	89.8
2025-08-04T04:55	10	11	0.1	11	11	367	0.2	367	368	12.0	89.3
2025-08-04T04:56	10	11	0.1	11	12	367	0.2	367	368	12.0	89.3
2025-08-04T04:57	10	12	0.2	12	12	368	0.2	367	368	12.0	89.0
2025-08-04T04:58	10	12	0.2	12	13	368	0.2	368	369	12.0	88.7
2025-08-04T04:59	10	13	0.1	13	13	369	0.2	368	369	12.0	89.0
2025-08-04T05:00	10	13	0.1	13	13	369	0.3	368	369	12.0	89.3
2025-08-04T05:01	10	13	0.1	12	13	369	0.2	368	369	11.9	89.8
2025-08-04T05:02	10	13	0.1	12	13	369	0.2	368	369	11.9	90.1
2025-08-04T05:03	10	13	0.1	12	13	369	0.2	369	369	11.9	90.3
2025-08-04T05:04	10	13	0.2	13	14	369	0.3	369	370	11.9	90.6
2025-08-04T05:05	10	14	0.2	14	14	370	0.2	369	370	11.9	90.8
2025-08-04T05:06	10	14	0.1	14	15	370	0.3	369	370	11.9	91.4
2025-08-04T05:07	10	15	0.1	14	15	370	0.2	370	371	11.8	91.6
2025-08-04T05:08	10	15	0.3	15	16	370	0.2	370	371	11.8	91.8
2025-08-04T05:09	10	17	0.8	16	19	370	0.2	370	371	11.8	92.5
2025-08-04T05:10	10	20	0.7	19	21	371	0.2	370	371	11.7	93.1
2025-08-04T05:11	10	21	0.3	21	22	371	0.2	370	371	11.6	93.1
2025-08-04T05:12	10	22	0.2	22	22	371	0.3	371	372	11.6	93.3
2025-08-04T05:13	10	22	0.1	22	22	372	0.3	371	372	11.6	93.5
2025-08-04T05:14	10	22	0.2	22	23	372	0.2	371	372	11.6	93.8
2025-08-04T05:15	10	21	0.6	21	22	372	0.3	372	373	11.6	94.0
2025-08-04T05:16	10	21	0.3	21	22	372	0.2	372	373	11.6	93.4
2025-08-04T05:17	10	22	0.3	22	23	373	0.2	372	373	11.7	93.1
2025-08-04T05:18	10	22	0.6	21	22	373	0.3	373	374	11.7	92.9
2025-08-04T05:19	10	19	0.6	18	20	374	0.2	373	374	11.8	92.8
2025-08-04T05:20	10	18	0.5	17	18	374	0.2	373	374	11.9	92.0
2025-08-04T05:21	10	16	0.4	15	17	374	0.2	373	374	12.0	92.2
2025-08-04T05:22	10	15	0.2	14	15	373	0.3	373	374	12.0	92.1
2025-08-04T05:23	10	14	0.2	14	15	372	0.4	372	373	12.0	91.7
2025-08-04T05:24	10	14	0.1	14	15	372	0.2	372	372	11.9	92.5
2025-08-04T05:25	10	14	0.1	14	14	372	0.2	371	372	11.9	92.6
2025-08-04T05:26	10	14	0.1	14	14	371	0.3	371	372	11.9	91.5
2025-08-04T05:27	10	14	0.1	13	14	371	0.3	370	371	11.9	91.5
2025-08-04T05:28	10	14	0.1	13	14	370	0.2	370	371	11.8	91.0
2025-08-04T05:29	10	14	0.1	13	14	370	0.2	370	371	11.8	91.4
2025-08-04T05:30	10	14	0.1	13	14	370	0.2	370	371	11.8	90.9
2025-08-04T05:31	10	13	0.1	13	14	370	0.2	370	371	11.8	91.0
2025-08-04T05:32	10	13	0.1	13	14	371	0.2	370	371	11.8	91.2
2025-08-04T05:33	10	14	0.2	13	14	371	0.3	370	371	11.8	91.1
2025-08-04T05:34	10	14	0.1	14	14	371	0.2	370	371	11.9	90.5
2025-08-04T05:35	10	14	0.2	14	14	371	0.2	370	372	11.9	90.8
2025-08-04T05:36	10	14	0.2	14	15	371	0.3	370	372	11.9	90.6
2025-08-04T05:37	10	15	0.2	14	15	371	0.2	370	371	11.9	90.3
2025-08-04T05:38	10	15	0.2	15	16	371	0.3	371	372	11.9	90.6
2025-08-04T05:39	10	16	0.2	15	16	372	0.3	371	372	11.9	91.2
2025-08-04T05:40	10	16	0.2	16	17	372	0.3	371	373	11.8	91.7
2025-08-04T05:41	10	17	0.3	16	18	373	0.3	372	373	11.9	91.9
2025-08-04T05:42	10	18	0.3	17	18	373	0.4	372	374	11.9	91.7
2025-08-04T05:43	10	18	0.2	18	19	373	0.3	373	374	11.9	91.4
2025-08-04T05:44	10	19	0.3	18	19	373	0.2	373	374	11.9	91.0
2025-08-04T05:45	10	19	0.2	19	20	374	0.3	373	375	12.0	91.6
2025-08-04T05:46	10	20	0.2	20	20	375	0.3	374	375	12.0	92.1
2025-08-04T05:47	10	21	0.2	20	21	375	0.3	374	376	11.9	91.1
2025-08-04T05:48	10	21	0.1	21	21	375	0.2	375	376	12.0	91.1
2025-08-04T05:49	10	21	0.2	21	22	376	0.2	375	377	12.1	92.3
2025-08-04T05:50	10	22	0.7	21	24	376	0.3	376	377	12.1	92.3
2025-08-04T05:51	10	22	0.3	22	23	377	0.3	376	378	12.2	92.7
2025-08-04T05:52	10	23	0.2	22	23	377	0.2	377	378	12.2	93.0
2025-08-04T05:53	10	24	0.8	23	26	378	0.2	377	378	12.2	92.2
2025-08-04T05:54	10	28	0.4	27	28	378	0.3	377	379	12.3	92.1
2025-08-04T05:55	10	27	0.5	26	28	379	0.2	378	380	12.3	92.3
2025-08-04T05:56	10	27	0.7	26	29	379	0.2	379	380	12.4	93.1
2025-08-04T05:57	10	31	2.3	29	35	380	0.4	379	381	12.4	92.3
2025-08-04T05:58	10	36	1.7	33	39	381	0.4	380	382	12.5	91.4
2025-08-04T05:59	10	34	3.8	31	42	382	0.3	381	383	12.6	91.5
2025-08-04T06:00	10	34	1.7	32	38	382	0.2	382	383	12.7	92.3
2025-08-04T06:01	10	38	3.5	33	43	383	0.3	383	384	12.8	91.0
2025-08-04T06:02	10	35	1.8	33	38	383	0.3	383	384	12.8	90.9
2025-08-04T06:03	10	35	0.9	34	37	383	0.3	382	383	12.8	90.1
2025-08-04T06:04	10	35	1.2	34	38	383	0.3	383	384	12.9	90.6
2025-08-04T06:05	10	35	0.8	34	37	383	0.2	383	384	12.9	90.5
2025-08-04T06:06	10	36	0.3	36	37	384	0.2	383	384	12.9	90.8
2025-08-04T06:07	10	42	5.4	36	52	384	0.5	383	385	12.9	90.9
2025-08-04T06:08	10	40	1.4	38	42	384	0.2	384	385	13.0	90.8
2025-08-04T06:09	10	38	0.7	37	40	384	0.2	384	385	13.0	90.2
2025-08-04T06:10	10	38	0.6	37	39	385	0.2	384	385	13.1	90.6
2025-08-04T06:11	10	43	3.5	39	51	385	0.3	384	386	13.1	90.4
2025-08-04T06:12	10	39	1.3	38	42	386	0.2	385	386	13.1	89.7
2025-08-04T06:13	10	38	1.8	37	41	386	0.2	385	386	13.1	89.7
2025-08-04T06:14	10	39	2.0	37	43	386	0.3	385	387	13.1	89.3
2025-08-04T06:15	10	54	4.1	44	59	388	0.9	386	389	13.3	88.6
2025-08-04T06:16	10	59	0.5	58	60	389	0.3	388	390	13.3	87.1
2025-08-04T06:17	10	61	0.7	59	62	390	0.3	389	391	13.5	85.6
2025-08-04T06:18	10	62	0.4	62	63	391	0.3	390	391	13.6	84.3
2025-08-04T06:19	10	55	5.5	46	62	391	0.4	390	392	13.8	82.5
2025-08-04T06:20	10	45	4.4	38	52	390	0.7	389	392	14.0	82.2
2025-08-04T06:21	10	42	2.3	38	45	390	0.3	389	390	14.2	81.0
2025-08-04T06:22	10	40	1.5	38	44	390	0.4	389	391	14.1	80.3
2025-08-04T06:23	10	38	1.6	36	41	390	0.5	389	391	14.1	80.9
2025-08-04T06:24	10	41	0.9	40	43	389	0.2	389	390	14.0	82.2
2025-08-04T06:25	10	40	0.6	39	41	389	0.4	389	390	14.0	82.5
2025-08-04T06:26	10	40	0.7	38	41	389	0.3	389	390	14.0	81.9
2025-08-04T06:27	10	41	0.6	40	42	389	0.3	389	390	14.1	82.9
2025-08-04T06:28	10	38	0.4	37	39	389	0.4	388	390	14.0	84.6
2025-08-04T06:29	10	36	1.7	33	38	389	0.4	388	390	13.9	84.3
2025-08-04T06:30	10	33	0.2	32	33	389	0.2	388	389	13.9	84.7
2025-08-04T06:31	10	34	0.5	33	34	389	0.3	388	389	13.9	84.4
2025-08-04T06:32	10	33	0.2	33	34	389	0.2	388	389	14.0	84.2
2025-08-04T06:33	10	35	0.2	34	35	389	0.3	388	389	14.0	83.8
2025-08-04T06:34	10	36	0.6	35	37	389	0.2	389	390	14.1	84.7
2025-08-04T06:35	10	38	1.1	37	40	389	0.3	389	390	14.1	84.3
2025-08-04T06:36	10	42	0.9	40	43	390	0.3	390	391	14.1	83.3
2025-08-04T06:37	10	44	1.4	43	47	391	0.4	390	392	14.1	83.4
2025-08-04T06:38	10	53	3.8	47	59	392	0.6	391	393	14.2	84.7
2025-08-04T06:39	10	62	1.5	59	64	394	0.6	393	395	14.2	83.9
2025-08-04T06:40	10	60	3.1	56	64	395	0.5	394	396	14.2	84.1
2025-08-04T06:41	10	62	4.0	57	67	395	0.5	394	396	14.2	82.5
2025-08-04T06:42	10	67	1.7	63	69	396	0.4	395	397	14.3	83.4
2025-08-04T06:43	10	70	4.6	62	75	397	0.5	396	398	14.4	82.9
2025-08-04T06:44	10	59	1.5	56	62	396	0.4	396	397	14.4	82.4
2025-08-04T06:45	10	59	2.4	57	64	396	0.3	396	397	14.5	81.1
2025-08-04T06:46	10	71	4.9	62	76	398	0.8	396	399	14.6	81.6
2025-08-04T06:47	10	68	4.8	56	74	398	0.2	398	399	14.7	80.8
2025-08-04T06:48	10	60	6.9	54	71	398	0.3	397	399	14.7	83.1
2025-08-04T06:49	10	75	1.6	69	77	399	0.3	398	399	14.8	81.8
2025-08-04T06:50	10	79	0.7	77	80	400	0.3	399	400	14.7	79.8
2025-08-04T06:51	10	78	2.1	74	80	400	0.3	400	401	14.8	78.6
2025-08-04T06:52	10	75	0.5	74	76	401	0.2	400	401	14.8	79.7
2025-08-04T06:53	10	73	0.6	72	74	400	0.3	400	401	14.9	81.8
2025-08-04T06:54	10	71	2.4	66	74	401	0.3	400	401	15.1	81.6
2025-08-04T06:55	10	75	1.4	71	76	401	0.3	401	402	15.2	80.9
2025-08-04T06:56	10	73	1.6	71	76	401	0.4	400	402	15.2	81.3
2025-08-04T06:57	10	75	1.1	74	77	401	0.3	401	402	15.1	81.5
2025-08-04T06:58	10	69	5.5	62	77	401	0.4	400	402	15.1	80.1
2025-08-04T06:59	10	62	3.4	58	69	400	0.5	399	401	15.1	80.3
2025-08-04T07:00	10	68	2.1	65	72	401	0.5	400	401	15.1	80.3
2025-08-04T07:01	10	71	1.8	65	73	401	0.2	401	402	15.2	80.9
2025-08-04T07:02	10	71	2.9	65	74	402	0.2	401	402	15.2	81.3
2025-08-04T07:03	10	74	0.7	73	75	402	0.4	401	403	15.2	79.8
2025-08-04T07:04	10	71	2.7	67	74	402	0.2	402	403	15.3	80.2
2025-08-04T07:05	10	77	1.5	74	80	404	0.3	403	404	15.3	80.4
2025-08-04T07:06	10	84	1.8	80	86	404	0.5	404	405	15.4	80.2
2025-08-04T07:07	10	84	1.8	80	87	405	0.3	405	406	15.5	79.7
2025-08-04T07:08	10	81	1.4	77	82	406	0.5	405	407	15.6	80.0
2025-08-04T07:09	10	78	1.0	77	80	405	0.2	405	406	15.6	78.1
2025-08-04T07:10	10	74	2.1	71	79	405	0.3	405	406	15.7	80.1
2025-08-04T07:11	10	80	1.8	77	83	406	0.2	405	407	15.8	80.4
2025-08-04T07:12	10	76	2.0	73	80	406	0.2	406	406	15.8	77.8
2025-08-04T07:13	10	70	2.5	66	74	406	0.6	404	407	15.9	77.9
2025-08-04T07:14	10	63	2.0	60	68	403	1.1	402	406	15.7	78.2
2025-08-04T07:15	10	69	2.2	64	73	403	0.3	403	404	15.6	79.3
2025-08-04T07:16	10	73	1.7	70	75	404	0.4	403	405	15.6	79.7
2025-08-04T07:17	10	71	2.5	67	75	403	0.7	402	405	15.6	79.5
2025-08-04T07:18	10	68	1.7	64	70	404	0.5	402	405	15.6	80.3
2025-08-04T07:19	10	65	1.8	61	67	402	0.3	401	403	15.5	79.6
2025-08-04T07:20	10	70	3.2	65	74	402	0.5	402	403	15.5	79.9
2025-08-04T07:21	10	74	0.3	73	75	403	0.3	402	404	15.5	80.0
2025-08-04T07:22	10	77	1.6	74	79	403	0.5	402	404	15.5	80.4
2025-08-04T07:23	10	82	3.3	77	86	405	0.7	404	406	15.6	80.7
2025-08-04T07:24	10	87	1.5	85	90	407	0.8	406	408	15.6	80.2
2025-08-04T07:25	10	86	2.7	82	90	408	0.2	408	409	15.6	80.5
2025-08-04T07:26	10	90	1.3	87	91	409	0.5	408	410	15.8	80.1
2025-08-04T07:27	10	92	2.2	88	95	409	0.3	409	410	15.9	79.0
2025-08-04T07:28	10	91	2.4	87	94	411	0.4	409	412	15.9	79.0
2025-08-04T07:29	10	93	2.4	89	96	412	0.4	411	413	16.1	79.1
2025-08-04T07:30	10	93	3.0	88	96	413	0.4	411	413	16.1	78.6
2025-08-04T07:31	10	86	1.6	83	90	411	0.5	410	412	16.0	78.5
2025-08-04T07:32	10	86	1.9	82	90	411	0.3	410	412	16.1	77.8
2025-08-04T07:33	10	77	2.8	72	83	411	0.8	409	412	16.2	78.2
2025-08-04T07:34	10	87	6.9	77	97	410	0.6	409	412	16.1	76.8
2025-08-04T07:35	10	99	1.5	97	102	412	0.3	411	413	16.1	77.6
2025-08-04T07:36	10	98	2.2	94	102	413	0.4	412	414	16.1	77.4
2025-08-04T07:37	10	91	5.1	85	102	414	0.3	413	414	16.2	78.0
2025-08-04T07:38	10	94	4.8	85	103	414	0.3	413	415	16.3	76.7
2025-08-04T07:39	10	99	7.1	88	109	416	0.4	414	416	16.2	76.6
2025-08-04T07:40	10	99	6.7	89	110	415	0.4	414	416	16.3	76.8
2025-08-04T07:41	10	103	4.8	97	111	416	0.9	415	418	16.3	76.8
2025-08-04T07:42	10	108	3.8	101	114	419	0.5	417	420	16.4	76.2
2025-08-04T07:43	10	108	5.0	99	115	418	0.5	417	419	16.4	75.7
2025-08-04T07:44	10	97	3.6	89	103	417	1.3	415	420	16.4	74.8
2025-08-04T07:45	10	92	4.8	82	99	415	0.7	414	417	16.3	75.1
2025-08-04T07:46	10	83	7.7	71	97	414	1.1	412	416	16.2	75.2
2025-08-04T07:47	10	96	2.0	92	99	414	0.4	413	415	16.2	75.1
2025-08-04T07:48	10	99	4.9	90	106	416	0.9	414	417	16.3	74.6
2025-08-04T07:49	10	98	3.4	93	106	416	0.7	415	418	16.6	73.7
2025-08-04T07:50	10	103	3.1	95	108	416	0.4	415	417	16.5	71.7
2025-08-04T07:51	10	84	5.4	78	95	414	0.9	413	416	16.5	71.7
2025-08-04T07:52	10	85	2.9	78	89	414	0.4	413	415	16.6	72.1
2025-08-04T07:53	10	92	2.0	86	95	415	0.7	414	416	16.7	69.7
2025-08-04T07:54	10	86	5.8	78	95	416	0.9	414	417	16.7	69.7
2025-08-04T07:55	10	74	4.5	66	80	414	0.6	413	415	16.6	69.7
2025-08-04T07:56	10	76	2.1	72	79	414	0.3	413	414	16.8	70.1
2025-08-04T07:57	10	85	3.3	79	93	414	0.5	413	415	16.8	68.2
2025-08-04T07:58	10	93	7.5	76	100	416	0.9	414	417	16.8	69.0
2025-08-04T07:59	10	97	3.0	94	102	417	0.5	416	418	16.8	68.1
2025-08-04T08:00	10	94	2.6	88	97	417	0.2	416	417	16.8	68.5
2025-08-04T08:01	10	85	5.4	79	94	416	0.8	415	417	16.9	68.6
2025-08-04T08:02	10	89	2.8	82	93	416	0.7	415	417	17.0	68.9
2025-08-04T08:03	10	89	1.5	87	92	417	0.5	416	418	17.0	68.4
2025-08-04T08:04	10	89	1.6	87	93	418	0.6	417	420	17.1	68.4
2025-08-04T08:05	10	95	2.7	90	99	419	0.5	418	420	17.2	68.4
2025-08-04T08:06	10	84	3.6	78	90	417	0.6	416	419	17.3	67.5
2025-08-04T08:07	10	92	4.2	88	101	417	0.6	416	418	17.2	66.3
2025-08-04T08:08	10	88	4.4	84	100	418	0.5	417	419	17.2	66.3
2025-08-04T08:09	10	84	1.6	82	88	418	0.3	417	419	17.1	67.1
2025-08-04T08:10	10	76	4.1	71	82	417	0.4	417	418	17.2	67.3
2025-08-04T08:11	10	65	3.2	61	73	416	1.4	413	418	17.4	67.6
2025-08-04T08:12	10	61	0.5	60	62	413	0.6	411	414	17.2	66.5
2025-08-04T08:13	10	62	1.4	60	64	413	0.5	412	414	17.3	66.3
2025-08-04T08:14	10	69	4.1	64	77	414	0.9	412	415	17.3	65.2
2025-08-04T08:15	10	78	1.7	75	81	416	0.5	415	416	17.4	64.1
2025-08-04T08:16	10	79	3.0	75	84	417	0.5	416	418	17.4	63.1
2025-08-04T08:17	10	78	2.2	75	83	417	0.4	416	417	17.4	64.1
2025-08-04T08:18	10	91	4.8	83	101	419	1.2	417	421	17.5	63.6
2025-08-04T08:19	10	111	2.3	102	115	423	1.3	420	425	17.6	64.1
2025-08-04T08:20	10	105	7.7	97	119	424	0.9	423	426	17.7	64.2
2025-08-04T08:21	10	82	5.4	78	98	421	1.3	420	424	17.6	63.2
2025-08-04T08:22	10	79	2.3	74	82	420	0.2	420	421	17.6	64.1
2025-08-04T08:23	10	73	0.7	72	74	419	0.6	419	421	17.8	65.0
2025-08-04T08:24	10	86	6.5	74	94	420	1.0	419	422	18.0	65.5
2025-08-04T08:25	10	106	16.4	86	135	424	1.8	421	428	18.1	65.9
2025-08-04T08:26	10	111	11.4	83	126	428	0.6	426	429	18.2	64.8
2025-08-04T08:27	10	89	17.0	70	114	425	1.1	423	427	18.2	64.3
2025-08-04T08:28	10	101	17.6	78	125	427	1.5	425	429	18.2	61.8
2025-08-04T08:29	10	96	16.0	79	121	426	1.2	424	428	18.1	60.7
2025-08-04T08:30	10	105	8.7	86	116	426	1.3	424	429	18.1	61.8
2025-08-04T08:31	10	89	4.6	81	101	427	1.2	424	428	18.2	61.2
2025-08-04T08:32	10	81	1.6	79	85	424	0.6	423	425	18.1	60.7
2025-08-04T08:33	10	84	4.2	80	91	423	0.6	422	424	18.1	61.8
2025-08-04T08:34	10	88	1.4	85	91	423	0.4	422	424	18.0	62.1
2025-08-04T08:35	10	91	3.5	86	97	425	0.5	424	426	18.2	61.5
2025-08-04T08:36	10	102	5.3	95	110	427	0.9	425	429	18.3	62.1
2025-08-04T08:37	10	96	2.3	93	102	426	0.6	425	428	18.3	62.2
2025-08-04T08:38	10	103	5.5	96	115	427	0.4	426	428	18.2	61.5
2025-08-04T08:39	10	97	5.3	90	116	427	0.4	426	429	18.2	62.4
2025-08-04T08:40	10	110	9.8	92	124	431	1.1	428	432	18.4	62.9
2025-08-04T08:41	10	93	1.6	91	96	428	0.5	427	429	18.3	60.8
2025-08-04T08:42	10	94	1.8	91	97	427	0.3	426	427	18.2	60.2
2025-08-04T08:43	10	101	7.5	91	115	427	0.8	426	428	18.2	61.0
2025-08-04T08:44	10	96	6.7	89	112	428	0.9	426	429	18.3	60.9
2025-08-04T08:45	10	97	5.7	86	107	428	0.6	427	429	18.4	59.9
2025-08-04T08:46	10	98	4.7	86	103	429	0.7	428	431	18.6	61.3
2025-08-04T08:47	10	111	5.3	103	118	432	1.5	430	434	18.6	60.7
2025-08-04T08:48	10	97	2.8	93	104	432	0.6	431	433	18.6	59.2
2025-08-04T08:49	10	89	2.9	83	94	430	1.3	428	432	18.7	59.5
2025-08-04T08:50	10	82	0.3	82	83	427	0.8	426	428	18.6	59.4
2025-08-04T08:51	10	84	1.7	82	87	426	0.2	426	427	18.6	59.7
2025-08-04T08:52	10	92	2.8	87	96	428	0.9	426	429	18.6	59.6
2025-08-04T08:53	10	97	2.4	93	101	429	0.4	428	430	18.6	58.7
2025-08-04T08:54	10	97	1.1	95	99	430	0.2	429	430	18.5	58.4
2025-08-04T08:55	10	97	2.0	94	100	430	0.2	429	430	18.5	59.9
2025-08-04T08:56	10	93	1.5	92	96	430	0.3	429	430	18.6	61.0
2025-08-04T08:57	10	93	0.9	91	94	430	0.3	429	430	18.5	61.0
2025-08-04T08:58	10	90	1.6	88	94	430	0.4	429	431	18.6	61.5
2025-08-04T08:59	10	90	1.1	88	92	431	0.4	430	431	18.7	61.7
2025-08-04T09:00	10	96	3.5	91	100	432	0.4	431	432	18.7	60.0
2025-08-04T09:01	10	94	1.3	93	98	431	0.4	430	432	19.0	60.6
2025-08-04T09:02	10	94	3.6	90	101	431	0.4	430	432	19.0	60.5
2025-08-04T09:03	10	92	0.7	91	93	430	0.4	429	431	18.9	59.1
2025-08-04T09:04	10	97	5.2	92	106	430	0.7	429	432	18.7	59.6
2025-08-04T09:05	10	104	1.7	101	107	432	0.4	431	433	18.6	59.7
2025-08-04T09:06	10	101	5.5	95	114	432	0.5	431	433	18.6	59.5
2025-08-04T09:07	10	106	4.0	99	112	433	0.6	432	434	18.7	57.7
2025-08-04T09:08	10	101	5.5	95	110	433	0.5	432	434	18.8	56.2
2025-08-04T09:09	10	113	2.9	108	120	434	1.0	432	436	18.8	57.5
2025-08-04T09:10	10	113	7.8	96	122	436	0.4	435	437	18.9	56.9
2025-08-04T09:11	10	90	2.0	88	96	434	0.8	433	436	19.0	57.4
2025-08-04T09:12	10	93	7.6	82	104	434	1.2	431	435	19.2	58.7
2025-08-04T09:13	10	84	1.1	83	86	430	0.8	429	432	19.3	57.3
2025-08-04T09:14	10	91	6.4	84	102	430	1.0	429	433	19.0	56.6
2025-08-04T09:15	10	84	4.9	79	93	431	1.1	429	433	19.1	57.5
2025-08-04T09:16	10	78	0.7	76	79	429	0.2	429	430	19.2	56.0
2025-08-04T09:17	10	77	1.2	76	80	428	0.7	427	429	19.2	55.1
2025-08-04T09:18	10	76	1.2	75	79	427	0.4	426	428	19.1	54.0
2025-08-04T09:19	10	76	0.8	75	78	427	0.2	427	428	19.2	55.1
2025-08-04T09:20	10	86	3.9	79	94	428	0.8	427	430	19.2	54.3
2025-08-04T09:21	10	90	6.1	85	111	430	0.4	429	431	19.1	54.2
2025-08-04T09:22	10	108	3.1	104	117	433	1.1	431	435	19.1	55.2
2025-08-04T09:23	10	101	3.1	96	109	435	0.6	434	436	19.3	56.2
2025-08-04T09:24	10	97	2.0	94	100	433	0.8	431	434	19.2	55.0
2025-08-04T09:25	10	95	1.6	92	98	433	0.3	432	433	19.2	55.6
2025-08-04T09:26	10	93	1.8	91	97	433	0.3	433	434	19.3	56.0
2025-08-04T09:27	10	90	0.8	89	92	433	0.4	433	434	19.4	56.7
2025-08-04T09:28	10	89	1.4	87	93	432	0.6	431	434	19.4	56.3
2025-08-04T09:29	10	95	5.3	90	106	434	0.9	432	435	19.4	57.5
2025-08-04T09:30	10	98	4.1	94	105	434	1.2	432	436	19.4	57.9
2025-08-04T09:31	10	102	4.6	97	113	434	0.6	432	435	19.4	56.7
2025-08-04T09:32	10	103	3.6	97	108	436	1.0	434	438	19.1	53.9
2025-08-04T09:33	10	96	3.4	90	104	435	1.0	434	437	19.4	56.7
2025-08-04T09:34	10	105	7.0	95	119	435	0.8	434	437	19.1	55.8
2025-08-04T09:35	10	123	4.8	113	131	438	1.0	437	440	19.4	55.8
2025-08-04T09:36	10	126	3.8	120	134	441	0.5	439	441	19.4	56.7
2025-08-04T09:37	10	123	3.2	117	128	442	0.2	441	442	19.4	56.7
2025-08-04T09:38	10	124	2.2	118	127	442	0.4	441	443	19.4	56.4
2025-08-04T09:39	10	129	1.3	126	131	443	0.5	442	444	19.8	54.5
2025-08-04T09:40	10	116	6.3	104	127	443	0.8	441	444	19.9	54.0
2025-08-04T09:41	10	110	4.2	98	116	441	0.5	440	442	19.9	53.7
2025-08-04T09:42	10	110	7.7	96	123	440	0.6	439	442	20.0	53.7
2025-08-04T09:43	10	107	5.9	97	122	441	0.6	440	442	20.1	54.8
2025-08-04T09:44	10	125	6.0	115	139	443	1.0	441	444	20.1	54.4
2025-08-04T09:45	10	131	4.7	122	138	445	0.4	444	446	20.1	55.9
2025-08-04T09:46	10	130	4.6	118	137	446	0.4	445	447	20.2	54.4
2025-08-04T09:47	10	139	6.4	127	154	448	0.9	446	450	20.3	54.5
2025-08-04T09:48	10	139	7.1	123	149	450	0.6	449	451	20.5	54.7
2025-08-04T09:49	10	133	13.3	107	153	451	0.7	449	452	20.6	54.6
2025-08-04T09:50	10	122	14.1	105	145	446	2.0	443	451	20.5	53.7
2025-08-04T09:51	10	110	12.9	92	139	445	1.6	442	448	20.4	53.8
2025-08-04T09:52	10	123	17.1	92	148	444	1.1	442	446	20.1	52.7
2025-08-04T09:53	10	133	13.3	109	150	445	0.9	443	447	20.2	53.8
2025-08-04T09:54	10	122	10.6	101	141	446	0.6	444	447	20.2	53.3
2025-08-04T09:55	10	132	7.9	112	140	448	1.4	445	450	20.3	54.0
2025-08-04T09:56	10	133	4.2	123	141	448	1.0	446	450	20.5	53.6
2025-08-04T09:57	10	137	2.4	134	141	448	0.4	447	449	20.2	52.4
2025-08-04T09:58	10	137	3.0	131	143	449	0.3	449	450	20.2	52.4
2025-08-04T09:59	10	133	1.5	131	136	450	0.6	449	452	20.4	54.1
2025-08-04T10:00	10	137	2.1	133	140	449	0.6	448	450	20.6	52.7
2025-08-04T10:01	10	133	2.5	128	136	449	0.2	449	450	20.2	52.4
2025-08-04T10:02	10	123	1.6	121	128	449	0.7	448	450	20.3	53.9
2025-08-04T10:03	10	129	1.8	125	133	449	0.4	448	450	20.6	52.9
2025-08-04T10:04	10	135	2.3	131	139	450	0.5	449	451	20.4	52.6
2025-08-04T10:05	10	143	1.7	139	146	452	1.3	450	454	20.3	53.0
2025-08-04T10:06	10	133	5.8	122	142	454	0.5	453	454	20.2	52.2
2025-08-04T10:07	10	130	2.9	125	136	452	0.6	451	454	20.5	53.8
2025-08-04T10:08	10	130	2.6	124	134	451	0.2	451	452	20.5	52.0
2025-08-04T10:09	10	134	5.6	123	143	451	0.7	450	452	20.5	52.1
2025-08-04T10:10	10	142	2.1	136	145	452	0.6	451	453	20.5	52.1
2025-08-04T10:11	10	143	2.6	139	148	455	0.8	453	456	20.6	52.7
2025-08-04T10:12	10	147	4.5	141	155	456	0.7	455	457	20.7	52.8
2025-08-04T10:13	10	151	3.5	145	155	456	0.4	455	457	20.6	51.0
2025-08-04T10:14	10	147	3.4	141	150	456	0.5	455	457	20.4	51.6
2025-08-04T10:15	10	144	3.5	139	149	456	0.6	455	457	20.4	52.0
2025-08-04T10:16	10	146	3.6	141	151	457	1.1	455	459	20.5	52.2
2025-08-04T10:17	10	142	2.3	140	147	457	0.8	455	458	20.6	51.3
2025-08-04T10:18	10	140	1.3	137	143	455	0.3	454	456	20.5	49.8
2025-08-04T10:19	10	137	5.2	127	144	456	0.3	456	457	20.5	49.8
2025-08-04T10:20	10	140	6.4	128	148	456	0.9	455	458	20.5	50.5
2025-08-04T10:21	10	136	7.8	125	148	457	0.9	455	458	20.5	49.7
2025-08-04T10:22	10	144	2.4	136	148	458	1.0	456	459	20.8	50.4
2025-08-04T10:23	10	138	4.8	128	144	458	0.7	456	459	20.7	49.0
2025-08-04T10:24	10	134	2.1	129	137	456	0.4	456	457	20.8	48.5
2025-08-04T10:25	10	138	4.1	133	148	457	0.5	457	459	20.9	49.7
2025-08-04T10:26	10	145	3.7	136	150	458	0.4	458	459	20.9	48.6
2025-08-04T10:27	10	144	1.3	141	146	459	0.4	458	460	21.2	48.6
2025-08-04T10:28	10	141	5.6	128	148	461	0.3	460	461	21.5	48.4
2025-08-04T10:29	10	133	7.8	114	142	459	1.0	457	461	21.4	49.8
2025-08-04T10:30	10	137	1.6	133	141	459	0.8	458	460	21.4	49.5
2025-08-04T10:31	10	136	1.2	134	139	459	0.5	458	460	21.3	48.6
2025-08-04T10:32	10	142	3.3	136	146	460	0.8	459	461	21.1	48.2
2025-08-04T10:33	10	140	4.9	133	148	460	0.7	459	462	21.0	47.8
2025-08-04T10:34	10	137	0.9	136	139	460	0.4	459	461	20.9	47.7
2025-08-04T10:35	10	131	4.5	124	139	460	1.0	458	462	21.0	48.2
2025-08-04T10:36	10	130	1.9	126	133	458	0.3	457	459	21.0	47.6
2025-08-04T10:37	10	129	3.1	124	133	457	0.4	457	459	21.0	48.3
2025-08-04T10:38	10	142	6.0	133	149	460	1.4	458	462	21.2	47.3
2025-08-04T10:39	10	144	4.4	136	150	462	0.7	461	464	21.3	47.5
2025-08-04T10:40	10	152	2.7	149	157	465	1.3	463	467	21.6	48.2
2025-08-04T10:41	10	156	2.5	153	160	466	1.1	464	468	21.2	47.3
2025-08-04T10:42	10	152	2.8	148	158	465	0.6	464	467	21.1	46.8
2025-08-04T10:43	10	143	9.2	127	153	466	1.2	464	467	21.3	47.2
2025-08-04T10:44	10	142	2.5	138	150	465	1.1	464	468	21.5	47.0
2025-08-04T10:45	10	148	4.0	142	154	466	0.9	464	467	21.7	46.4
2025-08-04T10:46	10	146	7.5	124	154	466	0.9	464	468	21.7	46.0
2025-08-04T10:47	10	133	6.3	120	139	461	0.9	460	465	21.3	45.9
2025-08-04T10:48	10	129	4.1	124	139	460	0.6	459	462	21.0	46.5
2025-08-04T10:49	10	136	3.3	131	141	460	0.4	460	461	21.1	45.9
2025-08-04T10:50	10	131	5.0	123	139	461	1.0	459	462	21.3	45.7
2025-08-04T10:51	10	149	5.5	136	154	463	1.5	460	465	21.6	45.2
2025-08-04T10:52	10	148	2.3	144	153	464	0.8	462	465	21.6	43.5
2025-08-04T10:53	10	138	5.5	133	150	462	0.4	461	462	21.4	44.1
2025-08-04T10:54	10	139	6.6	129	149	464	1.3	462	466	21.5	45.0
2025-08-04T10:55	10	147	2.0	143	150	467	0.5	466	468	21.4	45.4
2025-08-04T10:56	10	146	6.6	131	153	468	0.4	467	469	21.4	45.6
2025-08-04T10:57	10	143	5.2	133	149	468	1.1	466	470	21.7	44.2
2025-08-04T10:58	10	129	14.4	105	147	467	3.2	460	470	21.8	42.2
2025-08-04T10:59	10	133	15.0	116	159	463	1.7	461	467	21.6	41.7
2025-08-04T11:00	10	160	1.5	158	163	468	0.6	466	468	21.3	44.0
2025-08-04T11:01	10	161	2.4	154	164	467	0.4	466	468	21.1	44.8
2025-08-04T11:02	10	160	2.9	155	164	468	0.4	467	469	21.2	44.8
2025-08-04T11:03	10	158	5.0	149	163	470	0.6	468	471	21.5	44.7
2025-08-04T11:04	10	150	3.9	135	154	469	0.4	468	469	21.5	43.6
2025-08-04T11:05	10	146	7.5	123	152	469	0.6	467	470	21.4	43.1
2025-08-04T11:06	10	136	2.6	126	142	467	0.4	466	468	21.6	42.9
2025-08-04T11:07	10	132	2.0	129	136	467	0.5	466	467	21.9	44.0
2025-08-04T11:08	10	128	2.5	124	133	464	1.1	463	466	22.1	42.2
2025-08-04T11:09	10	130	4.0	122	137	465	1.2	464	468	22.1	42.5
2025-08-04T11:10	10	140	2.5	134	144	467	0.8	466	468	22.1	43.3
2025-08-04T11:11	10	145	2.6	140	151	467	1.2	465	469	22.3	44.8
2025-08-04T11:12	10	139	5.6	127	145	467	0.9	466	469	22.3	43.7
2025-08-04T11:13	10	141	4.5	128	146	467	0.4	466	468	22.4	42.7
2025-08-04T11:14	10	155	4.1	147	161	469	1.1	467	471	22.0	43.0
2025-08-04T11:15	10	165	3.1	160	170	469	0.8	468	470	21.6	42.8
2025-08-04T11:16	10	162	1.9	159	165	470	0.9	469	472	21.6	43.2
2025-08-04T11:17	10	155	11.3	131	167	473	1.1	470	474	21.7	43.9
2025-08-04T11:18	10	119	5.7	114	131	468	2.2	465	472	21.8	44.6
2025-08-04T11:19	10	118	2.5	114	124	463	1.7	461	467	22.0	44.5
2025-08-04T11:20	10	127	7.1	117	137	463	0.8	461	464	21.8	43.3
2025-08-04T11:21	10	135	12.6	119	155	463	1.9	461	468	21.8	42.6
2025-08-04T11:22	10	144	5.4	136	154	468	0.4	467	469	22.0	43.9
2025-08-04T11:23	10	138	1.5	136	140	467	0.4	466	468	21.9	41.9
2025-08-04T11:24	10	161	13.8	139	182	469	2.5	466	474	21.8	41.8
2025-08-04T11:25	10	177	2.8	171	182	476	1.3	472	478	21.9	41.3
2025-08-04T11:26	10	182	1.9	180	186	480	1.2	477	481	22.1	41.4
2025-08-04T11:27	10	176	3.4	168	181	481	0.3	480	482	22.2	41.8
2025-08-04T11:28	10	163	3.5	159	169	480	0.9	478	481	22.4	41.9
2025-08-04T11:29	10	160	2.3	156	164	476	1.7	473	479	22.1	41.1
2025-08-04T11:30	10	148	10.8	131	162	474	1.3	471	475	22.1	42.5
2025-08-04T11:31	10	136	3.4	130	142	471	0.6	469	472	22.0	42.6
2025-08-04T11:32	10	136	3.3	132	143	471	0.4	469	471	22.1	41.9
2025-08-04T11:33	10	147	7.5	128	157	473	1.3	470	475	22.1	41.9
2025-08-04T11:34	10	156	1.8	152	159	474	1.1	472	476	22.2	41.5
2025-08-04T11:35	10	153	3.3	144	158	472	1.3	470	474	21.9	42.3
2025-08-04T11:36	10	127	8.9	114	143	467	2.2	464	471	21.7	42.3
2025-08-04T11:37	10	131	10.0	110	141	466	0.6	465	467	21.8	42.5
2025-08-04T11:38	10	123	9.3	109	137	467	0.6	465	468	22.0	42.5
2025-08-04T11:39	10	143	9.4	125	156	470	1.9	467	474	22.4	42.3
2025-08-04T11:40	10	152	8.0	130	160	475	1.3	472	477	22.4	42.7
2025-08-04T11:41	10	142	8.8	127	156	473	1.1	472	476	22.3	42.4
2025-08-04T11:42	10	147	8.5	123	156	476	1.1	472	477	22.7	43.6
2025-08-04T11:43	10	101	7.8	94	121	467	3.5	462	474	22.6	41.1
2025-08-04T11:44	10	99	3.6	93	104	463	0.6	461	464	22.5	41.5
2025-08-04T11:45	10	90	3.2	87	100	459	1.8	457	462	22.4	41.8
2025-08-04T11:46	10	95	7.3	90	115	458	0.7	456	460	22.5	42.8
2025-08-04T11:47	10	127	3.4	116	131	462	2.0	458	465	22.4	42.0
2025-08-04T11:48	10	133	3.7	121	137	465	1.0	463	467	22.5	42.3
2025-08-04T11:49	10	102	7.4	94	120	459	3.3	456	466	22.2	40.7
2025-08-04T11:50	10	136	14.9	106	155	460	3.6	456	467	22.0	41.0
2025-08-04T11:51	10	152	4.6	143	158	470	1.2	466	471	22.2	42.2
2025-08-04T11:52	10	124	12.3	107	147	469	1.8	466	471	22.5	42.1
2025-08-04T11:53	10	117	9.3	101	128	466	0.8	465	467	22.5	41.6
2025-08-04T11:54	10	120	2.5	117	127	466	0.7	465	467	22.6	41.3
2025-08-04T11:55	10	112	8.6	94	122	464	0.9	462	465	22.3	40.8
2025-08-04T11:56	10	98	5.5	90	106	460	1.1	459	463	22.3	41.2
2025-08-04T11:57	10	83	5.4	77	95	456	1.7	454	459	22.1	41.0
2025-08-04T11:58	10	92	9.2	83	111	455	1.1	454	458	22.2	41.3
2025-08-04T11:59	10	143	15.1	112	159	464	4.7	456	471	22.3	41.5
2025-08-04T12:00	10	157	2.0	153	160	473	1.6	469	475	22.4	42.6
2025-08-04T12:01	10	156	7.7	136	167	475	0.9	473	476	22.4	41.7
2025-08-04T12:02	10	100	11.2	89	135	467	4.2	463	476	22.5	42.1
2025-08-04T12:03	10	128	5.8	106	135	467	1.8	463	469	22.4	41.9
2025-08-04T12:04	10	130	6.2	114	138	470	0.6	468	471	22.7	43.0
2025-08-04T12:05	10	80	14.8	67	114	464	4.5	456	471	22.9	42.7
2025-08-04T12:06	10	79	8.8	67	96	455	1.0	454	458	22.8	43.0
2025-08-04T12:07	10	113	13.4	95	132	458	2.7	454	463	22.5	43.4
2025-08-04T12:08	10	125	9.4	104	137	464	0.7	462	466	22.5	43.5
2025-08-04T12:09	10	100	6.7	88	108	461	1.2	460	464	22.4	42.9
2025-08-04T12:10	10	115	11.5	101	137	460	1.1	459	463	22.4	43.3
2025-08-04T12:11	10	137	3.5	128	143	465	1.4	462	467	22.4	43.0
2025-08-04T12:12	10	163	9.6	143	180	471	3.3	466	476	22.4	42.0
2025-08-04T12:13	10	187	2.7	180	192	481	3.1	475	486	22.6	43.5
2025-08-04T12:14	10	174	9.9	159	192	483	1.8	480	485	23.0	43.7
2025-08-04T12:15	10	120	13.2	103	158	472	5.2	465	482	22.7	43.1
2025-08-04T12:16	10	113	7.2	101	126	466	2.2	462	468	22.5	42.9
2025-08-04T12:17	10	166	13.1	131	180	471	4.3	462	476	22.3	42.8
2025-08-04T12:18	10	96	20.2	75	141	465	5.1	458	474	22.2	43.0
2025-08-04T12:19	10	74	4.4	69	83	456	1.5	455	460	22.3	43.7
2025-08-04T12:20	10	109	12.1	83	122	458	2.7	454	462	22.3	42.9
2025-08-04T12:21	10	115	2.6	112	122	463	1.1	462	465	22.4	45.0
2025-08-04T12:22	10	106	19.1	80	135	462	2.1	458	465	22.5	43.0
2025-08-04T12:23	10	129	9.9	108	143	465	1.7	463	468	22.4	42.9
2025-08-04T12:24	10	118	17.3	93	141	467	1.6	464	469	22.5	43.2
2025-08-04T12:25	10	123	12.3	106	144	466	2.3	464	471	22.7	42.7
2025-08-04T12:26	10	120	19.5	86	147	470	1.9	465	472	22.7	42.5
2025-08-04T12:27	10	113	16.4	81	137	466	1.4	464	469	22.6	42.0
2025-08-04T12:28	10	112	8.6	99	122	467	0.7	465	468	22.7	43.4
2025-08-04T12:29	10	100	4.1	95	109	464	0.7	463	466	22.9	44.4
2025-08-04T12:30	10	104	3.0	95	108	463	0.4	463	464	22.9	43.6
2025-08-04T12:31	10	128	8.0	109	139	468	2.6	463	472	23.1	43.1
2025-08-04T12:32	10	114	8.1	104	132	469	1.6	466	472	22.9	42.0
2025-08-04T12:33	10	139	14.1	114	155	469	2.2	466	473	23.0	44.3
2025-08-04T12:34	10	153	12.7	132	169	475	1.4	472	478	22.9	45.7
2025-08-04T12:35	10	99	20.1	75	131	469	5.0	460	475	23.1	46.2
2025-08-04T12:36	10	68	3.9	64	76	457	3.1	452	463	22.6	45.4
2025-08-04T12:37	10	80	6.3	69	91	454	0.9	452	456	22.3	46.9
2025-08-04T12:38	10	98	6.0	90	109	458	1.7	455	461	22.5	47.9
2025-08-04T12:39	10	121	4.5	110	129	463	1.9	459	465	22.5	48.7
2025-08-04T12:40	10	100	10.2	77	114	460	2.3	456	464	22.5	47.6
2025-08-04T12:41	10	72	3.4	68	79	454	1.5	451	457	22.4	48.3
2025-08-04T12:42	10	81	4.5	73	88	453	0.7	452	454	22.4	48.3
2025-08-04T12:43	10	73	4.5	66	82	453	0.8	451	454	22.4	48.3
2025-08-04T12:44	10	56	5.4	49	68	450	1.2	448	452	22.5	49.6
2025-08-04T12:45	10	48	3.6	43	54	445	1.0	444	448	22.5	47.7
2025-08-04T12:46	10	62	3.9	55	68	446	0.6	444	447	22.4	47.7
2025-08-04T12:47	10	66	10.3	48	82	447	0.8	446	449	22.4	48.1
2025-08-04T12:48	10	44	8.3	35	61	444	2.0	441	448	22.4	47.8
2025-08-04T12:49	10	111	29.6	58	150	451	6.8	441	463	22.4	48.5
2025-08-04T12:50	10	159	3.6	149	162	468	4.6	459	475	22.6	48.8
2025-08-04T12:51	10	161	1.2	159	162	474	1.0	473	476	22.8	48.1
2025-08-04T12:52	10	161	0.5	160	162	478	1.1	476	479	23.0	47.6
2025-08-04T12:53	10	159	0.6	158	160	479	0.4	479	480	23.1	47.6
2025-08-04T12:54	10	158	0.5	157	158	479	0.3	479	480	23.0	46.8
2025-08-04T12:55	10	156	0.3	156	157	480	0.6	479	481	23.0	46.6
2025-08-04T12:56	10	156	0.2	155	156	479	0.5	478	480	22.8	47.0
2025-08-04T12:57	10	155	0.3	154	155	480	0.4	479	481	23.2	48.1
2025-08-04T12:58	10	154	0.2	154	155	478	1.3	477	481	23.1	46.9
2025-08-04T12:59	10	153	0.1	153	154	478	0.6	477	479	23.0	47.4
2025-08-04T13:00	10	153	0.1	153	153	480	0.6	479	481	23.0	47.0
2025-08-04T13:01	10	153	0.2	152	153	481	1.0	479	483	23.2	47.8
2025-08-04T13:02	10	152	0.3	151	153	478	0.9	476	480	22.9	46.9
2025-08-04T13:03	10	152	0.3	151	152	479	1.7	477	483	22.8	47.3
2025-08-04T13:04	10	151	0.2	151	151	483	0.7	482	485	23.3	48.2
2025-08-04T13:05	10	151	0.2	150	151	483	0.5	482	484	23.6	46.8
2025-08-04T13:06	10	151	0.2	150	152	483	1.5	480	485	23.5	47.0
2025-08-04T13:07	10	151	0.2	150	151	481	0.5	479	481	23.2	46.7
2025-08-04T13:08	10	150	0.3	150	151	480	0.5	479	481	23.1	46.0
2025-08-04T13:09	10	150	0.2	150	150	480	0.8	479	482	23.0	45.7
2025-08-04T13:10	10	150	0.2	149	150	480	0.4	479	481	22.9	45.7
2025-08-04T13:11	10	150	0.2	149	150	482	0.6	480	483	23.0	46.2
2025-08-04T13:12	10	150	0.1	149	150	482	0.6	481	483	23.2	47.0
2025-08-04T13:13	10	149	0.1	149	150	484	0.6	483	485	23.8	47.9
2025-08-04T13:14	10	149	0.1	149	150	482	0.6	481	484	23.6	45.3
2025-08-04T13:15	10	149	0.2	148	149	482	0.2	482	483	23.5	46.0
2025-08-04T13:16	10	149	0.1	148	149	482	0.5	482	483	23.4	45.9
2025-08-04T13:17	10	147	2.0	142	149	483	0.4	482	484	23.5	46.3
2025-08-04T13:18	10	149	0.1	148	149	484	0.5	483	485	23.8	45.8
2025-08-04T13:19	10	148	0.2	147	149	482	1.0	480	483	23.7	45.3
2025-08-04T13:20	10	146	3.1	139	149	479	0.6	478	481	23.5	45.6
2025-08-04T13:21	10	148	0.2	147	148	479	0.3	479	480	23.4	45.6
2025-08-04T13:22	10	147	0.4	146	147	479	0.4	478	480	23.2	45.8
2025-08-04T13:23	10	146	0.3	146	147	479	0.2	479	480	23.2	45.8
2025-08-04T13:24	10	146	0.1	146	147	480	0.9	479	482	23.1	45.9
2025-08-04T13:25	10	146	0.1	146	146	482	1.0	481	484	23.3	45.9
2025-08-04T13:26	10	146	0.1	146	146	485	0.6	483	486	23.8	46.0
2025-08-04T13:27	10	146	0.1	145	146	485	0.3	484	486	24.0	45.5
2025-08-04T13:28	10	146	0.1	145	146	485	0.7	483	485	23.7	45.2
2025-08-04T13:29	10	145	0.1	145	145	483	1.0	481	484	23.6	45.0
2025-08-04T13:30	10	145	0.4	144	145	481	1.2	479	483	23.7	45.6
2025-08-04T13:31	10	144	0.6	143	145	480	0.4	479	481	23.4	44.9
2025-08-04T13:32	10	144	0.1	144	144	482	0.4	481	483	23.6	45.9
2025-08-04T13:33	10	144	0.3	143	144	481	0.3	481	482	23.7	45.1
2025-08-04T13:34	10	144	0.4	143	144	483	0.8	482	485	23.7	46.2
2025-08-04T13:35	10	144	0.1	143	144	484	0.5	483	485	23.7	45.2
2025-08-04T13:36	10	143	0.2	143	144	483	0.8	481	484	24.1	45.5
2025-08-04T13:37	10	143	0.1	143	144	481	0.4	480	481	23.8	44.6
2025-08-04T13:38	10	143	0.1	143	144	482	0.6	481	484	23.6	44.6
2025-08-04T13:39	10	143	0.1	143	143	484	0.5	483	485	23.6	44.7
2025-08-04T13:40	10	143	0.1	142	143	483	0.2	482	483	23.7	45.1
2025-08-04T13:41	10	142	0.5	141	143	483	0.4	483	484	23.9	44.7
2025-08-04T13:42	10	143	0.1	142	143	484	0.2	483	484	24.0	44.0
2025-08-04T13:43	10	142	0.1	142	143	484	0.3	483	484	24.0	44.2
2025-08-04T13:44	10	142	0.7	140	143	484	0.9	482	485	23.9	44.6
2025-08-04T13:45	10	142	0.4	141	142	482	0.2	482	482	23.7	44.6
2025-08-04T13:46	10	141	0.5	140	142	482	1.4	479	483	23.7	44.7
2025-08-04T13:47	10	141	0.2	141	142	481	0.4	480	482	23.6	44.8
2025-08-04T13:48	10	141	0.1	141	141	482	0.6	481	483	23.8	44.9
2025-08-04T13:49	10	141	0.2	140	141	480	0.5	480	481	23.6	44.2
2025-08-04T13:50	10	140	0.1	140	141	480	1.0	478	482	23.6	44.6
2025-08-04T13:51	10	140	0.1	140	140	478	0.6	477	480	23.7	44.6
2025-08-04T13:52	10	140	0.1	140	140	481	1.2	479	483	23.8	44.2
2025-08-04T13:53	10	140	0.1	140	140	483	1.2	481	485	24.1	44.1
2025-08-04T13:54	10	140	0.1	139	140	482	0.3	481	482	24.1	42.8
2025-08-04T13:55	10	140	0.1	139	140	482	0.3	481	483	24.1	42.7
2025-08-04T13:56	10	139	0.1	139	140	483	0.3	482	483	24.0	43.4
2025-08-04T13:57	10	139	0.1	139	139	484	0.5	482	484	24.2	43.7
2025-08-04T13:58	10	139	0.1	139	139	483	0.4	482	484	24.4	42.5
2025-08-04T13:59	10	139	0.1	139	139	484	0.5	483	485	24.5	43.1
2025-08-04T14:00	10	139	0.1	139	139	484	0.7	483	486	24.5	44.0
2025-08-04T14:01	10	139	0.2	138	139	483	1.4	481	485	24.6	43.0
2025-08-04T14:02	10	138	0.2	138	139	481	0.4	480	482	24.2	42.9
2025-08-04T14:03	10	138	0.1	138	138	481	0.5	480	482	24.1	43.2
2025-08-04T14:04	10	138	0.2	137	138	482	0.5	481	483	24.3	43.1
2025-08-04T14:05	10	137	0.2	137	138	480	0.5	479	481	24.3	43.3
2025-08-04T14:06	10	137	0.2	136	138	481	0.6	480	482	24.3	43.0
2025-08-04T14:07	10	137	0.3	136	137	482	0.4	482	483	24.2	43.7
2025-08-04T14:08	10	136	0.2	136	137	482	0.5	481	483	24.2	44.1
2025-08-04T14:09	10	136	0.2	135	136	483	0.6	482	484	24.4	44.0
2025-08-04T14:10	10	135	0.2	135	136	482	1.1	480	484	24.5	43.5
2025-08-04T14:11	10	135	0.4	133	135	481	0.5	480	482	24.4	43.3
2025-08-04T14:12	10	134	0.9	132	135	481	0.3	481	482	24.6	42.4
2025-08-04T14:13	10	134	0.1	134	134	483	0.4	482	483	24.8	41.8
2025-08-04T14:14	10	134	0.1	134	134	484	0.3	483	484	25.0	42.4
2025-08-04T14:15	10	134	0.1	134	134	482	0.5	482	484	24.9	41.8
2025-08-04T14:16	10	133	0.1	133	134	482	0.2	481	482	24.7	41.9
2025-08-04T14:17	10	133	0.1	133	133	482	0.2	481	483	24.8	41.8
2025-08-04T14:18	10	133	0.1	133	133	482	0.2	482	482	24.9	41.4
2025-08-04T14:19	10	133	0.1	133	133	482	0.4	481	483	24.8	42.2
2025-08-04T14:20	10	132	0.1	132	133	482	0.4	481	483	24.6	42.7
2025-08-04T14:21	10	132	0.1	132	132	481	0.3	480	482	24.5	42.6
2025-08-04T14:22	10	132	0.1	131	132	481	0.2	481	482	24.6	42.6
2025-08-04T14:23	10	131	0.1	131	132	481	0.3	481	482	25.0	41.7
2025-08-04T14:24	10	131	0.1	131	131	483	0.6	482	484	25.0	42.1
2025-08-04T14:25	10	131	0.1	131	131	483	0.8	482	485	25.3	41.8
2025-08-04T14:26	10	131	0.2	130	131	481	0.7	480	483	24.9	41.8
2025-08-04T14:27	10	130	0.1	130	130	483	1.1	481	485	25.1	42.2
2025-08-04T14:28	10	130	0.2	129	130	483	0.7	482	485	25.0	41.5
2025-08-04T14:29	10	129	0.1	129	130	483	0.4	483	484	25.1	41.8
2025-08-04T14:30	10	129	0.1	129	129	485	0.7	484	487	25.4	41.3
2025-08-04T14:31	10	129	0.2	128	129	482	1.4	478	484	25.2	41.4
2025-08-04T14:32	10	129	0.2	128	129	481	0.5	480	482	25.1	41.8
2025-08-04T14:33	10	128	0.2	128	129	480	0.8	479	482	25.4	41.2
2025-08-04T14:34	10	128	0.1	127	128	481	0.5	480	482	25.2	42.0
2025-08-04T14:35	10	128	0.2	127	128	481	0.3	481	482	25.1	41.6
2025-08-04T14:36	10	127	0.1	127	128	481	0.8	480	482	25.2	41.7
2025-08-04T14:37	10	127	0.1	127	127	481	0.3	480	481	25.0	41.7
2025-08-04T14:38	10	127	0.2	126	127	480	0.6	478	481	24.9	41.3
2025-08-04T14:39	10	127	0.2	126	127	479	0.9	478	481	24.8	41.0
2025-08-04T14:40	10	126	0.1	126	126	480	0.8	479	481	24.8	41.2
2025-08-04T14:41	10	126	0.1	126	126	480	0.4	480	481	24.8	40.9
2025-08-04T14:42	10	126	0.1	125	126	481	0.3	480	482	25.0	41.8
2025-08-04T14:43	10	125	0.1	125	125	481	0.4	480	482	25.0	41.4
2025-08-04T14:44	10	125	0.1	125	125	481	0.4	480	482	25.4	41.3
2025-08-04T14:45	10	125	0.1	124	125	482	0.3	482	483	25.6	41.3
2025-08-04T14:46	10	124	0.1	124	125	483	0.4	482	484	25.8	40.9
2025-08-04T14:47	10	124	0.1	124	124	482	1.3	479	483	25.7	39.7
2025-08-04T14:48	10	124	0.2	123	124	479	0.9	477	480	25.3	40.3
2025-08-04T14:49	10	123	0.2	123	124	477	0.5	476	479	25.3	40.5
2025-08-04T14:50	10	123	0.2	123	123	478	0.4	477	479	25.4	40.6
2025-08-04T14:51	10	123	0.2	122	123	477	0.4	476	478	25.3	40.2
2025-08-04T14:52	10	122	0.1	122	122	478	0.5	477	479	25.4	40.7
2025-08-04T14:53	10	122	0.1	121	122	478	0.8	477	480	25.5	40.5
2025-08-04T14:54	10	121	0.1	121	122	479	1.3	477	482	25.3	40.5
2025-08-04T14:55	10	121	0.1	121	121	478	1.5	477	482	25.3	40.5
2025-08-04T14:56	10	121	0.1	121	121	478	0.5	477	478	25.3	40.2
2025-08-04T14:57	10	121	0.1	120	121	479	0.6	478	480	25.4	40.2
2025-08-04T14:58	10	120	0.1	120	120	476	0.4	476	478	25.2	40.5
2025-08-04T14:59	10	120	0.1	120	120	477	0.4	476	477	25.1	40.4
2025-08-04T15:00	10	120	0.1	119	120	475	0.8	474	477	25.2	40.1
2025-08-04T15:01	10	119	0.1	119	119	477	1.3	474	479	25.2	40.2
2025-08-04T15:02	10	119	0.1	119	119	478	0.4	477	479	25.4	40.0
2025-08-04T15:03	10	119	0.2	118	119	476	0.9	475	478	25.1	40.3
2025-08-04T15:04	10	118	0.2	118	118	476	1.3	474	478	25.1	40.8
2025-08-04T15:05	10	118	0.2	117	118	475	0.8	473	477	25.0	40.6
2025-08-04T15:06	10	117	0.1	117	118	473	0.7	472	475	25.0	40.8
2025-08-04T15:07	10	117	0.1	117	117	475	1.3	472	477	25.2	40.6
2025-08-04T15:08	10	117	0.1	116	117	476	0.2	476	476	25.4	40.0
2025-08-04T15:09	10	116	0.1	116	117	476	0.4	475	477	25.4	40.1
2025-08-04T15:10	10	116	0.1	116	116	477	0.5	476	478	25.6	39.7
2025-08-04T15:11	10	116	0.1	115	116	477	0.3	477	478	25.8	38.8
2025-08-04T15:12	10	115	0.2	115	116	477	0.2	477	478	25.7	39.2
2025-08-04T15:13	10	115	0.1	115	115	477	0.7	476	479	25.8	40.0
2025-08-04T15:14	10	115	0.2	114	115	477	0.7	475	478	25.9	40.0
2025-08-04T15:15	10	114	0.2	114	115	476	0.4	475	476	25.5	41.2
2025-08-04T15:16	10	114	0.2	113	114	477	0.4	476	478	25.6	42.0
2025-08-04T15:17	10	113	0.2	113	114	476	0.6	475	477	25.6	41.9
2025-08-04T15:18	10	113	0.1	113	113	475	0.3	474	476	25.5	42.3
2025-08-04T15:19	10	113	0.2	112	113	475	0.4	474	475	25.5	42.4
2025-08-04T15:20	10	112	0.1	112	113	474	0.6	473	475	25.5	42.6
2025-08-04T15:21	10	112	0.3	111	112	472	1.0	471	474	25.3	43.0
2025-08-04T15:22	10	111	0.2	111	112	473	0.8	472	475	25.1	44.0
2025-08-04T15:23	10	111	0.2	111	111	473	0.6	472	474	25.4	43.9
2025-08-04T15:24	10	111	0.3	110	111	470	0.9	469	472	25.0	44.8
2025-08-04T15:25	10	110	0.2	110	111	470	0.4	469	471	25.1	44.6
2025-08-04T15:26	10	110	0.3	109	111	470	0.3	469	471	25.2	44.5
2025-08-04T15:27	10	110	0.2	109	110	469	0.5	468	470	25.2	44.3
2025-08-04T15:28	10	109	0.3	109	110	470	0.4	469	471	25.2	44.2
2025-08-04T15:29	10	109	0.2	108	109	469	0.5	468	470	25.1	44.3
2025-08-04T15:30	10	108	0.2	108	109	470	0.4	469	471	25.1	44.2
2025-08-04T15:31	10	108	0.2	107	109	471	1.0	469	472	25.1	44.5
2025-08-04T15:32	10	108	0.2	107	108	471	0.4	470	472	25.2	45.2
2025-08-04T15:33	10	107	0.3	107	108	469	0.8	467	470	25.1	45.2
2025-08-04T15:34	10	107	0.3	106	108	468	0.3	468	469	24.9	45.0
2025-08-04T15:35	10	107	0.2	106	107	470	0.6	469	471	25.1	44.7
2025-08-04T15:36	10	106	0.3	105	107	470	0.5	469	471	25.2	45.3
2025-08-04T15:37	10	106	0.2	105	106	468	1.2	466	470	25.3	46.3
2025-08-04T15:38	10	105	0.3	105	106	466	0.5	465	467	24.9	46.8
2025-08-04T15:39	10	105	0.2	104	105	466	0.3	465	467	24.9	46.4
2025-08-04T15:40	10	104	0.3	104	106	465	0.4	464	466	24.9	46.6
2025-08-04T15:41	10	104	0.2	103	104	465	1.1	463	467	24.9	46.2
2025-08-04T15:42	10	103	0.3	103	104	468	1.0	467	470	25.1	46.1
2025-08-04T15:43	10	103	0.2	102	104	467	1.0	465	469	25.2	45.9
2025-08-04T15:44	10	103	0.2	102	104	466	0.4	465	467	25.1	46.3
2025-08-04T15:45	10	103	0.2	102	103	466	0.5	465	467	25.1	46.1
2025-08-04T15:46	10	102	0.2	102	103	466	1.2	465	468	25.1	46.3
2025-08-04T15:47	10	102	0.2	101	102	467	0.3	466	468	25.2	45.7
2025-08-04T15:48	10	101	0.3	101	102	468	0.5	467	469	25.3	45.0
2025-08-04T15:49	10	101	0.3	100	102	467	0.8	466	468	25.3	44.9
2025-08-04T15:50	10	101	0.2	100	101	466	0.5	465	467	25.1	45.1
2025-08-04T15:51	10	100	0.3	100	101	466	1.0	465	468	25.1	45.2
2025-08-04T15:52	10	100	0.2	100	100	466	1.1	464	468	25.1	44.8
2025-08-04T15:53	10	99	0.3	99	100	465	0.9	464	467	25.0	44.7
2025-08-04T15:54	10	99	0.2	99	100	467	0.4	466	468	25.3	43.9
2025-08-04T15:55	10	99	0.2	98	99	467	0.3	467	468	25.4	43.1
2025-08-04T15:56	10	98	0.2	98	99	467	0.2	467	468	25.5	42.9
2025-08-04T15:57	10	98	0.3	97	99	467	0.2	467	468	25.6	42.6
2025-08-04T15:58	10	98	0.2	97	98	467	0.2	467	468	25.8	42.0
2025-08-04T15:59	10	97	0.3	97	98	467	0.2	467	468	25.8	43.5
2025-08-04T16:00	10	97	0.3	96	97	468	0.3	467	468	25.7	45.1
2025-08-04T16:01	10	96	0.2	96	97	467	0.3	466	468	25.6	44.6
2025-08-04T16:02	10	96	0.2	95	97	467	0.3	466	468	25.6	44.2
2025-08-04T16:03	10	95	0.2	95	96	466	0.6	465	467	25.5	44.5
2025-08-04T16:04	10	95	0.3	94	96	466	0.5	465	467	25.5	45.4
2025-08-04T16:05	10	94	0.2	94	95	464	0.5	463	465	25.4	46.4
2025-08-04T16:06	10	94	0.2	93	94	464	0.4	463	465	25.4	46.7
2025-08-04T16:07	10	93	0.2	93	94	464	0.9	463	466	25.4	46.0
2025-08-04T16:08	10	93	0.3	92	93	464	0.2	463	464	25.3	46.4
2025-08-04T16:09	10	92	0.2	92	93	463	0.8	461	464	25.2	44.4
2025-08-04T16:10	10	92	0.2	91	92	462	0.3	461	463	25.1	44.7
2025-08-04T16:11	10	91	0.2	91	92	463	0.5	462	464	25.1	45.3
2025-08-04T16:12	10	91	0.2	91	91	463	0.3	462	463	25.2	45.1
2025-08-04T16:13	10	90	0.2	90	91	462	0.2	461	462	25.1	44.9
2025-08-04T16:14	10	90	0.2	90	91	462	0.5	461	463	25.2	46.1
2025-08-04T16:15	10	90	0.2	89	90	461	0.4	461	462	25.3	45.9
2025-08-04T16:16	10	89	0.1	89	89	462	0.4	461	463	25.4	46.8
2025-08-04T16:17	10	89	0.1	88	89	462	0.4	461	463	25.3	45.6
2025-08-04T16:18	10	88	0.2	88	89	462	0.2	462	462	25.3	44.8
2025-08-04T16:19	10	88	0.1	87	88	462	0.4	461	463	25.2	44.9
2025-08-04T16:20	10	87	0.1	87	88	462	0.3	462	463	25.3	45.5
2025-08-04T16:21	10	87	0.2	86	87	462	0.3	461	463	25.3	45.2
2025-08-04T16:22	10	86	0.2	86	87	460	0.9	459	462	25.3	44.9
2025-08-04T16:23	10	86	0.1	85	86	460	0.2	460	461	25.4	45.7
2025-08-04T16:24	10	85	0.1	85	86	461	0.4	460	462	25.4	45.6
2025-08-04T16:25	10	85	0.2	85	85	459	0.5	458	460	25.3	44.9
2025-08-04T16:26	10	85	0.1	84	85	460	0.6	459	461	25.4	44.9
2025-08-04T16:27	10	84	0.2	84	84	461	0.3	460	461	25.4	45.6
2025-08-04T16:28	10	84	0.2	83	84	460	0.4	459	461	25.4	45.4
2025-08-04T16:29	10	83	0.1	83	84	460	0.4	459	461	25.5	45.3
2025-08-04T16:30	10	83	0.2	82	83	460	0.8	459	461	25.7	44.4
2025-08-04T16:31	10	82	0.2	82	82	458	0.4	458	459	25.6	44.2
2025-08-04T16:32	10	82	0.2	81	82	457	0.3	457	458	25.4	44.8
2025-08-04T16:33	10	81	0.2	81	81	457	0.3	456	458	25.5	45.0
2025-08-04T16:34	10	80	0.2	80	81	457	0.4	456	458	25.4	44.5
2025-08-04T16:35	10	80	0.2	80	80	457	0.3	456	457	25.4	44.3
2025-08-04T16:36	10	79	0.2	79	80	457	0.2	456	457	25.4	44.3
2025-08-04T16:37	10	79	0.2	79	79	456	0.3	455	457	25.4	42.8
2025-08-04T16:38	10	79	0.2	78	79	457	0.6	456	458	25.5	42.2
2025-08-04T16:39	10	78	0.2	78	78	458	0.3	457	458	25.7	42.1
2025-08-04T16:40	10	78	0.2	77	78	457	0.2	457	458	25.7	42.5
2025-08-04T16:41	10	77	0.2	77	77	456	0.3	455	457	25.6	42.3
2025-08-04T16:42	10	77	0.2	76	77	456	0.4	455	457	25.7	41.7
2025-08-04T16:43	10	76	0.2	76	76	457	0.2	456	457	25.9	41.6
2025-08-04T16:44	10	76	0.2	75	76	457	0.2	456	457	25.8	42.6
2025-08-04T16:45	10	75	0.2	75	75	457	0.2	456	457	25.8	42.1
2025-08-04T16:46	10	75	0.2	74	75	456	0.3	456	457	25.7	42.5
2025-08-04T16:47	10	74	0.2	73	74	456	0.2	455	457	25.7	43.0
2025-08-04T16:48	10	73	0.2	73	74	456	0.3	455	456	25.7	41.8
2025-08-04T16:49	10	73	0.2	73	73	455	0.4	454	456	26.0	41.4
2025-08-04T16:50	10	72	0.2	72	73	455	0.2	454	455	26.1	41.0
2025-08-04T16:51	10	72	0.2	72	73	454	0.2	454	455	25.9	40.9
2025-08-04T16:52	10	71	0.2	71	72	454	0.2	454	455	25.9	41.0
2025-08-04T16:53	10	71	0.2	70	71	454	0.3	453	454	25.9	41.4
2025-08-04T16:54	10	70	0.3	70	71	453	0.4	453	454	25.8	41.8
2025-08-04T16:55	10	70	0.2	69	70	453	0.3	452	454	25.7	41.6
2025-08-04T16:56	10	69	0.2	69	70	453	0.3	453	454	25.8	41.4
2025-08-04T16:57	10	69	0.2	68	69	453	0.3	452	454	25.9	40.2
2025-08-04T16:58	10	68	0.2	68	68	453	0.3	452	453	25.9	41.3
2025-08-04T16:59	10	67	0.2	67	68	452	0.2	452	453	25.9	41.7
2025-08-04T17:00	10	67	0.2	66	67	452	0.5	451	453	25.7	43.9
2025-08-04T17:01	10	66	0.2	66	67	450	0.8	448	451	25.6	44.2
2025-08-04T17:02	10	66	0.3	65	66	448	0.3	447	449	25.3	44.3
2025-08-04T17:03	10	65	0.2	65	65	448	0.5	447	449	25.4	44.6
2025-08-04T17:04	10	64	0.2	64	65	448	0.4	447	449	25.4	45.1
2025-08-04T17:05	10	64	0.2	63	64	449	0.3	448	449	25.5	44.4
2025-08-04T17:06	10	63	0.2	63	64	448	0.4	447	449	25.4	44.0
2025-08-04T17:07	10	63	0.2	63	63	447	0.3	447	448	25.3	44.0
2025-08-04T17:08	10	62	0.2	62	63	447	0.2	447	448	25.3	44.0
2025-08-04T17:09	10	62	0.2	61	62	447	0.2	447	448	25.3	44.6
2025-08-04T17:10	10	61	0.2	61	62	447	0.4	447	448	25.4	45.1
2025-08-04T17:11	10	61	0.1	61	61	448	0.3	447	449	25.4	44.7
2025-08-04T17:12	10	60	0.2	60	60	447	0.3	446	448	25.4	44.1
2025-08-04T17:13	10	60	0.2	59	60	446	0.4	445	447	25.4	44.0
2025-08-04T17:14	10	59	0.2	59	59	445	0.2	445	446	25.4	43.8
2025-08-04T17:15	10	59	0.2	58	59	446	0.3	445	447	25.4	44.3
2025-08-04T17:16	10	58	0.2	58	58	445	0.3	444	446	25.4	43.8
2025-08-04T17:17	10	57	0.2	57	58	446	0.3	445	446	25.4	44.2
2025-08-04T17:18	10	57	0.2	56	57	446	0.3	445	446	25.4	44.1
2025-08-04T17:19	10	56	0.2	56	57	445	0.4	445	446	25.4	43.9
2025-08-04T17:20	10	56	0.2	55	56	445	0.6	444	446	25.4	44.6
2025-08-04T17:21	10	55	0.2	55	55	444	0.3	444	445	25.4	44.7
2025-08-04T17:22	10	54	0.2	54	55	445	0.3	444	445	25.4	44.4
2025-08-04T17:23	10	54	0.2	54	54	445	0.2	444	445	25.5	44.2
2025-08-04T17:24	10	53	0.2	53	54	445	0.3	444	446	25.6	43.3
2025-08-04T17:25	10	53	0.2	52	53	445	0.3	444	445	25.7	43.2
2025-08-04T17:26	10	52	0.2	52	53	445	0.2	444	445	25.8	43.3
2025-08-04T17:27	10	52	0.2	51	52	444	0.6	443	445	25.7	42.8
2025-08-04T17:28	10	51	0.2	51	52	443	0.3	442	443	25.6	43.0
2025-08-04T17:29	10	51	0.2	50	51	443	0.3	443	444	25.7	43.1
2025-08-04T17:30	10	50	0.2	50	50	443	0.3	442	443	25.7	42.9
2025-08-04T17:31	10	49	0.2	49	50	442	0.3	442	443	25.7	42.9
2025-08-04T17:32	10	49	0.2	48	49	443	0.2	442	443	25.7	43.0
2025-08-04T17:33	10	48	0.2	48	49	443	0.3	442	443	25.7	44.3
2025-08-04T17:34	10	48	0.2	47	48	442	0.6	441	443	25.5	44.1
2025-08-04T17:35	10	47	0.2	47	47	441	0.4	440	442	25.4	44.0
2025-08-04T17:36	10	46	0.2	46	47	440	0.3	439	441	25.3	44.0
2025-08-04T17:37	10	46	0.2	45	46	440	0.3	439	440	25.2	44.1
2025-08-04T17:38	10	45	0.2	45	45	440	0.3	439	440	25.3	44.2
2025-08-04T17:39	10	44	0.2	44	45	440	0.3	440	441	25.4	44.1
2025-08-04T17:40	10	44	0.2	43	44	440	0.3	439	441	25.5	44.5
2025-08-04T17:41	10	43	0.2	43	43	440	0.2	440	441	25.4	44.4
2025-08-04T17:42	10	43	0.2	42	43	440	0.5	439	440	25.4	43.8
2025-08-04T17:43	10	42	0.2	42	42	439	0.3	438	439	25.4	43.9
2025-08-04T17:44	10	41	0.2	41	42	439	0.3	438	439	25.5	44.3
2025-08-04T17:45	10	41	0.2	40	41	438	0.2	438	439	25.4	45.4
2025-08-04T17:46	10	40	0.2	40	40	438	0.2	438	439	25.4	45.1
2025-08-04T17:47	10	39	0.2	39	40	438	0.2	437	438	25.4	45.4
2025-08-04T17:48	10	39	0.2	38	39	437	0.2	437	438	25.3	43.7
2025-08-04T17:49	10	38	0.2	38	38	437	0.2	437	438	25.4	43.9
2025-08-04T17:50	10	37	0.2	37	38	437	0.3	437	438	25.5	43.7
2025-08-04T17:51	10	37	0.2	36	37	437	0.3	436	437	25.5	44.3
2025-08-04T17:52	10	36	0.2	36	36	436	0.3	436	437	25.3	45.5
2025-08-04T17:53	10	35	0.2	35	36	436	0.2	435	436	25.3	45.6
2025-08-04T17:54	10	35	0.2	34	35	435	0.3	434	436	25.2	46.6
2025-08-04T17:55	10	34	0.2	34	35	435	0.2	434	435	25.1	46.7
2025-08-04T17:56	10	34	0.2	33	34	434	0.3	434	435	25.1	45.2
2025-08-04T17:57	10	33	0.2	32	33	434	0.2	434	435	25.1	44.9
2025-08-04T17:58	10	32	0.2	32	32	434	0.2	433	434	25.1	44.4
2025-08-04T17:59	10	32	0.2	31	32	433	0.3	432	434	25.2	44.3
2025-08-04T18:00	10	31	0.2	31	31	433	0.3	432	433	25.2	44.4
2025-08-04T18:01	10	30	0.2	30	31	433	0.2	432	433	25.2	44.5
2025-08-04T18:02	10	30	0.2	29	30	433	0.3	432	433	25.3	44.3
2025-08-04T18:03	10	29	0.2	29	29	432	0.3	432	433	25.2	44.4
2025-08-04T18:04	10	28	0.2	28	29	432	0.2	432	433	25.2	44.6
2025-08-04T18:05	10	28	0.2	27	28	432	0.2	431	432	25.2	44.9
2025-08-04T18:06	10	27	0.2	27	27	432	0.4	431	432	25.2	44.9
2025-08-04T18:07	10	26	0.2	26	27	431	0.2	431	432	25.2	45.1
2025-08-04T18:08	10	26	0.2	26	26	431	0.3	430	432	25.2	45.7
2025-08-04T18:09	10	25	0.2	25	26	431	0.2	430	431	25.1	46.0
2025-08-04T18:10	10	25	0.2	24	25	430	0.4	429	431	25.1	46.3
2025-08-04T18:11	10	24	0.2	23	24	429	0.3	428	429	25.0	46.2
2025-08-04T18:12	10	23	0.2	23	24	428	0.2	428	429	24.9	46.4
2025-08-04T18:13	10	23	0.3	22	23	428	0.3	427	428	24.9	46.2
2025-08-04T18:14	10	22	0.3	22	22	427	0.2	427	428	24.9	46.6
2025-08-04T18:15	10	21	0.2	21	22	427	0.2	427	427	24.9	46.8
2025-08-04T18:16	10	21	0.2	20	21	427	0.2	426	427	24.9	46.2
2025-08-04T18:17	10	20	0.2	20	21	426	0.2	426	427	24.9	47.0
2025-08-04T18:18	10	19	0.2	19	20	426	0.2	425	427	24.9	46.9
2025-08-04T18:19	10	19	0.2	18	19	426	0.2	425	426	24.9	46.9
2025-08-04T18:20	10	18	0.2	18	19	425	0.3	424	426	24.8	47.3
2025-08-04T18:21	10	18	0.2	17	18	425	0.2	424	426	24.9	47.1
2025-08-04T18:22	10	17	0.3	17	18	425	0.2	424	425	24.8	47.0
2025-08-04T18:23	10	16	0.2	16	17	424	0.3	423	425	24.8	47.6
2025-08-04T18:24	10	16	0.2	15	16	424	0.2	423	424	24.7	48.2
2025-08-04T18:25	10	15	0.2	15	16	423	0.2	423	424	24.7	48.4
2025-08-04T18:26	10	15	0.2	14	15	423	0.2	422	423	24.7	47.9
2025-08-04T18:27	10	13	0.8	12	14	423	0.3	422	423	24.6	48.0
2025-08-04T18:28	10	13	0.2	13	14	422	0.2	422	423	24.6	48.3
2025-08-04T18:29	10	12	0.5	12	13	422	0.3	421	423	24.6	48.0
2025-08-04T18:30	10	11	0.2	11	11	421	0.3	421	422	24.6	47.8
2025-08-04T18:31	10	10	0.4	9	11	421	0.2	421	422	24.6	48.1
2025-08-04T18:32	10	10	0.3	9	10	421	0.3	420	421	24.6	48.2
2025-08-04T18:33	10	8	1.0	6	9	420	0.3	419	421	24.5	48.3
2025-08-04T18:34	10	4	0.8	3	6	419	0.3	419	420	24.6	47.8
2025-08-04T18:35	10	3	0.2	2	3	419	0.3	418	420	24.6	48.1
2025-08-04T18:36	10	2	0.1	2	3	418	0.3	418	419	24.6	48.0
2025-08-04T18:37	10	2	0.1	2	3	418	0.2	417	418	24.5	48.1
2025-08-04T18:38	10	2	0.1	2	2	417	0.3	417	418	24.5	48.5
2025-08-04T18:39	10	2	0.1	2	2	417	0.3	416	417	24.5	48.7
2025-08-04T18:40	10	2	0.1	2	2	416	0.2	415	416	24.4	49.3
2025-08-04T18:41	10	2	0.1	2	2	415	0.2	414	415	24.3	49.3
2025-08-04T18:42	10	2	0.2	2	3	415	0.2	414	415	24.3	49.4
2025-08-04T18:43	10	2	0.2	1	2	414	0.3	413	414	24.2	50.1
2025-08-04T18:44	10	2	0.2	1	2	414	0.3	413	414	24.0	51.4
2025-08-04T18:45	10	2	0.2	1	2	414	0.4	413	414	23.7	53.2
2025-08-04T18:46	10	2	0.2	1	2	413	0.3	413	414	23.6	53.5
2025-08-04T18:47	10	1	0.2	1	2	413	0.3	412	414	23.6	52.7
2025-08-04T18:48	10	1	0.1	1	1	413	0.2	412	413	23.7	52.3
2025-08-04T18:49	10	1	0.1	1	1	412	0.2	412	413	23.6	53.3
2025-08-04T18:50	10	1	0.1	1	1	412	0.2	411	412	23.4	54.6
2025-08-04T18:51	10	1	0.1	1	1	411	0.2	411	412	23.3	54.9
2025-08-04T18:52	10	1	0.1	1	1	411	0.3	411	412	23.3	54.9
2025-08-04T18:53	10	1	0.1	1	1	411	0.2	410	412	23.3	55.5
2025-08-04T18:54	10	1	0.1	1	1	411	0.2	410	411	23.3	55.6
2025-08-04T18:55	10	1	0.1	1	1	410	0.2	409	411	23.3	55.8
2025-08-04T18:56	10	1	0.1	1	1	410	0.3	409	410	23.1	56.7
2025-08-04T18:57	10	1	0.1	1	1	410	0.3	409	410	23.2	56.3
2025-08-04T18:58	10	1	0.2	0	1	409	0.3	409	410	23.2	56.5
2025-08-04T18:59	10	1	0.1	0	1	409	0.2	409	410	23.2	57.3
2025-08-04T19:00	10	1	0.1	0	1	409	0.2	409	410	23.1	57.7
2025-08-04T19:01	10	1	0.1	0	1	409	0.2	409	410	23.0	57.4
2025-08-04T19:02	10	1	0.1	0	1	409	0.4	408	410	23.0	57.4
2025-08-04T19:03	10	0	0.1	0	1	409	0.2	408	409	23.0	57.6
2025-08-04T19:04	10	1	0.1	0	1	409	0.2	408	409	22.9	58.8
2025-08-04T19:05	10	0	0.1	0	1	408	0.2	408	409	22.9	58.6
2025-08-04T19:06	10	1	0.1	0	1	408	0.3	407	408	22.8	58.7
2025-08-04T19:07	10	0	0.0	0	1	407	0.2	407	408	22.7	59.0
2025-08-04T19:08	10	0	0.0	0	1	407	0.3	406	408	22.6	59.6
2025-08-04T19:09	10	0	0.0	0	0	406	0.3	406	407	22.6	59.6
2025-08-04T19:10	10	0	0.1	0	0	406	0.2	405	406	22.5	60.0
2025-08-04T19:11	10	0	0.1	0	0	405	0.2	405	406	22.5	59.2
2025-08-04T19:12	10	0	0.1	0	1	405	0.4	404	405	22.3	60.2
2025-08-04T19:13	10	0	0.2	0	1	405	0.4	404	405	22.2	61.0
2025-08-04T19:14	10	0	0.2	0	1	404	0.3	404	405	22.0	61.2
2025-08-04T19:15	10	0	0.1	0	0	404	0.3	404	405	22.1	60.2
2025-08-04T19:16	10	0	0.2	0	1	404	0.3	404	405	22.1	60.4
2025-08-04T19:17	10	0	0.1	0	0	404	0.3	404	405	22.1	60.2
2025-08-04T19:18	10	0	0.1	0	1	405	0.4	404	406	22.2	59.1
2025-08-04T19:19	10	0	0.1	0	0	405	0.3	404	406	22.4	57.7
2025-08-04T19:20	10	0	0.1	0	0	404	0.2	404	405	22.4	57.8
2025-08-04T19:21	10	0	0.1	0	0	404	0.3	404	405	22.4	58.2
2025-08-04T19:22	10	0	0.1	0	0	405	0.3	404	405	22.3	58.2
2025-08-04T19:23	10	0	0.1	0	0	405	0.3	404	405	22.3	57.9
2025-08-04T19:24	10	0	0.1	0	0	405	0.2	404	405	22.4	57.8
2025-08-04T19:25	10	0	0.1	0	0	404	0.2	404	405	22.4	57.5
2025-08-04T19:26	10	0	0.1	0	0	404	0.3	403	405	22.5	57.1
2025-08-04T19:27	10	0	0.1	0	0	404	0.2	403	404	22.5	56.9
2025-08-04T19:28	10	0	0.1	0	0	403	0.3	402	404	22.5	56.8
2025-08-04T19:29	10	0	0.1	0	0	403	0.3	402	404	22.5	56.7
2025-08-04T19:30	10	0	0.1	0	0	402	0.3	402	403	22.4	57.3
2025-08-04T19:31	10	0	0.1	0	0	401	0.4	401	402	22.3	57.9
2025-08-04T19:32	10	0	0.1	0	0	401	0.5	400	401	22.2	58.1
2025-08-04T19:33	10	0	0.1	0	0	400	0.5	399	401	22.1	59.2
2025-08-04T19:34	10	0	0.1	0	0	398	0.5	397	399	21.9	61.4
2025-08-04T19:35	10	0	0.1	0	0	398	0.3	398	399	21.6	63.0
2025-08-04T19:36	10	0	0.1	0	0	398	0.2	398	399	21.4	63.3
2025-08-04T19:37	10	0	0.1	0	0	399	0.3	398	400	21.2	64.7
2025-08-04T19:38	10	0	0.1	0	0	399	0.3	398	399	21.2	64.3
2025-08-04T19:39	10	0	0.1	0	0	399	0.3	398	399	21.4	62.7
2025-08-04T19:40	10	0	0.1	0	0	398	0.3	397	398	21.4	64.2
2025-08-04T19:41	10	0	0.2	0	0	397	0.2	397	398	21.2	65.9
2025-08-04T19:42	10	0	0.2	0	0	398	0.3	397	398	21.1	65.7
2025-08-04T19:43	10	0	0.2	-1	0	398	0.2	397	398	21.1	65.2
2025-08-04T19:44	10	0	0.2	0	0	397	0.2	397	398	21.1	66.2
2025-08-04T19:45	10	0	0.2	0	1	397	0.3	396	398	21.0	65.3
2025-08-04T19:46	10	0	0.1	-1	0	397	0.3	397	398	21.0	65.2
2025-08-04T19:47	10	0	0.1	0	0	397	0.2	396	397	21.0	65.2
2025-08-04T19:48	10	0	0.1	0	0	397	0.3	396	397	21.0	64.8
2025-08-04T19:49	10	0	0.1	0	0	396	0.3	396	397	20.8	66.5
2025-08-04T19:50	10	0	0.1	0	0	397	0.3	396	397	20.4	68.7
2025-08-04T19:51	10	0	0.1	0	0	396	0.2	396	397	20.3	69.1
2025-08-04T19:52	10	0	0.1	0	0	396	0.3	395	397	20.1	69.6
2025-08-04T19:53	10	0	0.1	0	0	396	0.4	395	397	20.1	69.1
2025-08-04T19:54	10	0	0.1	0	0	396	0.3	395	397	20.2	67.9
2025-08-04T19:55	10	0	0.1	0	0	396	0.3	396	397	20.4	67.1
2025-08-04T19:56	10	0	0.1	0	0	396	0.4	395	397	20.4	66.6
2025-08-04T19:57	10	0	0.1	0	0	396	0.3	396	397	20.5	65.7
2025-08-04T19:58	10	0	0.1	0	0	397	0.3	396	397	20.6	64.4
2025-08-04T19:59	10	0	0.1	0	0	396	0.2	396	397	20.8	63.9
2025-08-04T20:00	10	0	0.1	0	0	396	0.3	395	396	20.9	63.0
2025-08-04T20:01	10	0	0.1	0	0	396	0.4	395	396	21.0	63.2
2025-08-04T20:02	10	0	0.1	0	0	395	0.2	395	396	20.8	64.2
2025-08-04T20:03	10	0	0.1	0	0	395	0.3	394	395	20.7	64.8
2025-08-04T20:04	10	0	0.1	0	0	395	0.2	394	395	20.6	65.8
2025-08-04T20:05	10	0	0.1	0	0	395	0.2	394	395	20.5	65.5
2025-08-04T20:06	10	0	0.1	0	0	395	0.2	394	395	20.5	65.5
2025-08-04T20:07	10	0	0.1	0	0	395	0.3	394	395	20.5	65.4
2025-08-04T20:08	10	0	0.1	0	0	395	0.2	395	395	20.6	65.1
2025-08-04T20:09	10	0	0.1	0	0	395	0.2	394	395	20.6	65.1
2025-08-04T20:10	10	0	0.1	0	0	395	0.2	394	395	20.5	65.5
2025-08-04T20:11	10	0	0.0	0	0	395	0.2	394	395	20.6	65.5
2025-08-04T20:12	10	0	0.1	0	0	395	0.2	394	395	20.6	65.0
2025-08-04T20:13	10	0	0.0	0	0	395	0.2	394	395	20.6	65.2
2025-08-04T20:14	10	0	0.1	0	0	395	0.2	394	395	20.5	66.4
2025-08-04T20:15	10	0	0.1	0	0	395	0.4	394	395	20.0	70.0
2025-08-04T20:16	10	0	0.1	0	0	395	0.3	395	396	19.6	71.3
2025-08-04T20:17	10	0	0.1	0	1	395	0.5	394	396	19.6	70.4
2025-08-04T20:18	10	0	0.1	0	0	394	0.4	394	395	19.7	69.8
2025-08-04T20:19	10	0	0.1	0	1	394	0.3	393	395	19.4	71.3
2025-08-04T20:20	10	0	0.2	0	1	394	0.2	393	394	19.3	71.6
2025-08-04T20:21	10	0	0.2	-1	1	395	0.6	393	396	19.4	71.2
2025-08-04T20:22	10	0	0.2	-1	1	395	0.5	394	396	20.0	67.4
2025-08-04T20:23	10	0	0.2	0	0	395	0.3	394	396	20.2	66.4
2025-08-04T20:24	10	0	0.1	0	0	395	0.5	394	396	20.3	66.3
2025-08-04T20:25	10	0	0.1	0	0	395	0.2	395	396	20.6	64.7
2025-08-04T20:26	10	0	0.1	0	1	395	0.2	395	396	20.6	65.3
2025-08-04T20:27	10	0	0.1	0	0	395	0.2	395	396	20.4	66.2
2025-08-04T20:28	10	0	0.1	0	0	395	0.3	395	396	20.3	66.9
2025-08-04T20:29	10	0	0.1	0	0	396	0.2	395	396	20.2	67.7
2025-08-04T20:30	10	0	0.1	0	0	396	0.3	396	397	20.2	68.0
2025-08-04T20:31	10	0	0.0	0	0	397	0.3	396	397	20.2	67.9
2025-08-04T20:32	10	0	0.0	0	0	397	0.2	397	397	20.2	67.9
2025-08-04T20:33	10	0	0.0	0	0	397	0.2	397	398	20.1	68.3
2025-08-04T20:34	10	0	0.1	0	0	397	0.4	397	398	20.1	68.6
2025-08-04T20:35	10	0	0.0	0	0	398	0.2	398	398	20.1	68.7
2025-08-04T20:36	10	0	0.1	0	0	398	0.2	397	398	20.0	69.1
2025-08-04T20:37	10	0	0.1	0	0	398	0.3	397	399	19.9	69.4
2025-08-04T20:38	10	0	0.1	0	0	399	0.3	398	399	20.0	69.1
2025-08-04T20:39	10	0	0.0	0	0	399	0.2	398	399	19.9	69.6
2025-08-04T20:40	10	0	0.1	0	0	399	0.3	399	400	19.7	70.8
2025-08-04T20:41	10	0	0.1	0	0	400	0.2	399	400	19.5	71.7
2025-08-04T20:42	10	0	0.1	0	0	400	0.4	399	400	19.5	71.6
2025-08-04T20:43	10	0	0.1	0	0	399	0.3	398	400	19.5	72.0
2025-08-04T20:44	10	0	0.1	0	0	398	0.4	398	399	19.3	72.5
2025-08-04T20:45	10	0	0.1	0	0	398	0.3	397	398	19.1	73.2
2025-08-04T20:46	10	0	0.1	0	0	397	0.3	396	398	19.2	73.2
2025-08-04T20:47	10	0	0.1	0	0	397	0.2	396	397	19.2	73.2
2025-08-04T20:48	10	0	0.1	0	0	397	0.5	396	398	19.3	72.7
2025-08-04T20:49	10	0	0.1	0	0	397	0.3	396	398	19.6	71.4
2025-08-04T20:50	10	0	0.1	0	0	396	0.2	395	397	19.6	71.2
2025-08-04T20:51	10	0	0.1	0	0	396	0.2	395	396	19.5	71.3
2025-08-04T20:52	10	0	0.1	0	0	395	0.3	394	396	19.5	71.1
2025-08-04T20:53	10	0	0.1	0	0	395	0.4	394	395	19.6	70.9
2025-08-04T20:54	10	0	0.1	0	0	394	0.2	394	395	19.5	70.9
2025-08-04T20:55	10	0	0.1	0	0	394	0.2	394	394	19.5	70.9
2025-08-04T20:56	10	0	0.1	0	0	393	0.2	393	394	19.5	71.1
2025-08-04T20:57	10	0	0.0	0	0	393	0.2	393	394	19.4	71.7
2025-08-04T20:58	10	0	0.1	0	0	393	0.3	392	393	19.4	71.9
2025-08-04T20:59	10	0	0.1	0	0	393	0.3	392	394	19.4	72.1
2025-08-04T21:00	10	0	0.0	0	0	393	0.2	393	394	19.4	72.2
2025-08-04T21:01	10	0	0.1	0	0	393	0.3	392	394	19.4	72.0
2025-08-04T21:02	10	0	0.0	0	0	393	0.3	392	394	19.5	72.0
2025-08-04T21:03	10	0	0.1	0	0	393	0.2	392	393	19.4	72.3
2025-08-04T21:04	10	0	0.0	0	0	392	0.3	392	393	19.3	72.5
2025-08-04T21:05	10	0	0.0	0	0	392	0.2	392	393	19.4	72.1
2025-08-04T21:06	10	0	0.1	0	0	392	0.2	392	393	19.4	72.1
2025-08-04T21:07	10	0	0.0	0	0	392	0.2	392	393	19.3	72.2
2025-08-04T21:08	10	0	0.0	0	0	392	0.2	392	393	19.3	72.3
2025-08-04T21:09	10	0	0.1	0	0	392	0.3	392	393	19.3	72.3
2025-08-04T21:10	10	0	0.1	0	0	392	0.3	392	393	19.2	72.5
2025-08-04T21:11	10	0	0.1	0	0	392	0.3	392	393	19.2	72.6
2025-08-04T21:12	10	0	0.1	0	0	392	0.3	392	393	19.3	72.2
2025-08-04T21:13	10	0	0.2	-1	1	392	0.3	392	393	19.3	71.6
2025-08-04T21:14	10	0	0.1	0	0	392	0.3	392	393	19.4	71.2
2025-08-04T21:15	10	0	0.2	0	0	392	0.3	391	393	19.4	70.9
2025-08-04T21:16	10	0	0.2	0	0	392	0.2	391	392	19.5	70.6
2025-08-04T21:17	10	0	0.1	0	0	392	0.2	391	393	19.5	70.2
2025-08-04T21:18	10	0	0.1	0	0	392	0.3	392	393	19.5	70.1
2025-08-04T21:19	10	0	0.2	0	0	392	0.2	391	392	19.5	70.2
2025-08-04T21:20	10	0	0.1	0	0	392	0.3	391	392	19.5	70.2
2025-08-04T21:21	10	0	0.1	0	1	391	0.3	390	392	19.4	71.1
2025-08-04T21:22	10	0	0.1	0	1	390	0.3	390	391	19.2	72.0
2025-08-04T21:23	10	0	0.1	0	0	389	0.5	388	390	19.0	73.4
2025-08-04T21:24	10	0	0.1	0	0	389	0.3	388	389	18.7	75.2
2025-08-04T21:25	10	0	0.1	0	0	388	0.2	388	389	18.6	75.6
2025-08-04T21:26	10	0	0.1	0	0	388	0.2	388	388	18.6	75.3
2025-08-04T21:27	10	0	0.1	0	0	388	0.2	388	389	18.6	75.3
2025-08-04T21:28	10	0	0.1	0	0	388	0.2	387	388	18.6	75.1
2025-08-04T21:29	10	0	0.1	0	0	388	0.2	387	388	18.6	74.2
2025-08-04T21:30	10	0	0.1	0	0	388	0.2	387	388	18.6	75.3
2025-08-04T21:31	10	0	0.1	0	0	387	0.2	387	388	18.4	72.8
2025-08-04T21:32	10	0	0.1	0	0	387	0.2	386	387	18.6	75.3
2025-08-04T21:33	10	0	0.1	0	0	387	0.2	386	387	18.6	75.3
2025-08-04T21:34	10	0	0.1	0	0	387	0.2	386	387	18.6	75.3
2025-08-04T21:35	10	0	0.1	0	0	387	0.2	386	387	18.6	75.3
2025-08-04T21:36	10	0	0.1	0	0	387	0.2	386	387	18.6	75.3
2025-08-04T21:37	10	0	0.1	0	0	387	0.2	386	387	18.5	75.5
2025-08-04T21:38	10	0	0.1	0	0	387	0.3	386	387	18.3	76.5
2025-08-04T21:39	10	0	0.1	0	0	386	0.2	386	387	18.2	77.3
2025-08-04T21:40	10	0	0.1	0	0	386	0.2	386	387	18.1	78.6
2025-08-04T21:41	10	0	0.1	0	0	386	0.2	386	387	17.9	79.9
2025-08-04T21:42	10	0	0.1	0	0	386	0.3	386	387	17.7	80.0
2025-08-04T21:43	10	0	0.1	0	0	387	0.3	386	388	17.6	80.6
2025-08-04T21:44	10	0	0.1	0	0	387	0.2	386	387	17.5	81.0
2025-08-04T21:45	10	0	0.1	0	0	386	0.4	385	387	17.5	81.0
2025-08-04T21:46	10	0	0.1	0	0	385	0.2	385	385	17.5	81.4
2025-08-04T21:47	10	0	0.1	0	0	384	0.3	384	385	17.5	81.1
2025-08-04T21:48	10	0	1.0	0	6	384	0.2	383	385	17.4	80.9
2025-08-04T21:49	10	0	0.1	0	0	384	0.3	383	384	17.3	81.2
2025-08-04T21:50	10	0	0.1	0	0	384	0.3	383	384	17.3	81.3
2025-08-04T21:51	10	0	0.1	0	0	384	0.5	383	385	17.3	81.2
2025-08-04T21:52	10	0	0.1	0	0	385	0.3	384	385	17.5	80.4
2025-08-04T21:53	10	0	0.1	0	0	385	0.5	384	386	17.5	80.3
2025-08-04T21:54	10	0	0.1	0	0	386	0.6	385	387	17.6	79.3
2025-08-04T21:55	10	0	0.1	0	0	387	0.3	387	388	17.7	78.9
2025-08-04T21:56	10	0	0.1	0	0	387	0.2	387	388	17.7	78.9
2025-08-04T21:57	10	0	0.1	0	0	387	0.4	387	388	17.7	78.8
2025-08-04T21:58	10	0	0.1	0	0	388	0.2	387	388	17.7	78.8
2025-08-04T21:59	10	0	0.1	0	0	388	0.3	388	389	17.8	78.7
2025-08-04T22:00	10	0	0.1	0	0	388	0.2	388	389	17.8	78.7
2025-08-04T22:01	10	0	0.1	0	0	388	0.4	387	389	17.7	78.8
2025-08-04T22:02	10	0	0.0	0	0	387	0.3	387	388	17.6	79.2
2025-08-04T22:03	10	0	0.1	0	0	386	0.4	385	387	17.7	79.0
2025-08-04T22:04	10	0	0.1	0	0	385	0.2	385	386	17.5	79.8
2025-08-04T22:05	10	0	0.1	0	0	385	0.3	384	385	17.5	79.9
2025-08-04T22:06	10	0	0.1	0	0	384	0.3	383	385	17.5	79.9
2025-08-04T22:07	10	0	0.1	0	0	384	0.2	384	385	17.4	80.1
2025-08-04T22:08	10	0	0.1	0	0	384	0.2	384	385	17.4	80.4
2025-08-04T22:09	10	0	0.1	0	0	384	0.3	383	385	17.3	80.6
2025-08-04T22:10	10	0	0.1	0	0	383	0.2	383	384	17.3	80.7
2025-08-04T22:11	10	0	0.1	0	0	383	0.2	383	383	17.3	80.5
2025-08-04T22:12	10	0	0.1	0	0	382	0.3	382	383	17.4	80.2
2025-08-04T22:13	10	0	0.1	0	0	382	0.3	382	383	17.3	80.3
2025-08-04T22:14	10	0	0.1	0	0	383	0.2	382	383	17.2	80.8
2025-08-04T22:15	10	0	0.1	0	0	383	0.5	382	384	17.3	80.1
2025-08-04T22:16	10	0	0.0	0	0	384	0.5	383	385	17.5	79.2
2025-08-04T22:17	10	0	0.0	0	0	385	0.3	385	386	17.6	78.5
2025-08-04T22:18	10	0	0.1	0	0	385	0.2	385	386	17.6	78.4
2025-08-04T22:19	10	0	0.0	0	0	385	0.2	385	385	17.5	78.7
2025-08-04T22:20	10	0	0.1	0	0	384	0.3	384	385	17.5	78.9
2025-08-04T22:21	10	0	0.1	0	0	383	0.3	383	384	17.5	79.1
2025-08-04T22:22	10	0	0.1	0	0	383	0.2	383	384	17.5	78.4
2025-08-04T22:23	10	0	0.1	0	1	383	0.3	382	383	17.5	78.9
2025-08-04T22:24	10	0	0.1	0	0	383	0.3	382	383	17.4	79.1
2025-08-04T22:25	10	0	0.1	0	1	383	0.3	382	383	17.4	78.9
2025-08-04T22:26	10	0	0.2	0	1	384	0.3	383	384	17.4	79.0
2025-08-04T22:27	10	0	0.2	0	1	384	0.4	383	385	17.4	78.9
2025-08-04T22:28	10	0	0.2	0	1	385	0.4	384	385	17.5	78.6
2025-08-04T22:29	10	0	0.1	0	0	385	0.3	384	386	17.5	78.9
2025-08-04T22:30	10	0	0.2	0	1	385	0.4	384	386	17.4	78.8
2025-08-04T22:31	10	0	0.2	0	0	384	0.4	384	385	17.3	79.4
2025-08-04T22:32	10	0	0.1	0	0	384	0.4	383	385	17.3	79.6
2025-08-04T22:33	10	0	0.1	0	1	383	0.3	382	384	17.4	79.1
2025-08-04T22:34	10	0	0.1	0	1	382	0.3	381	383	17.3	79.7
2025-08-04T22:35	10	0	0.1	0	0	382	0.2	382	383	17.3	79.7
2025-08-04T22:36	10	0	0.1	0	0	382	0.3	381	382	17.3	79.4
2025-08-04T22:37	10	0	0.1	0	0	381	0.2	381	382	17.2	80.2
2025-08-04T22:38	10	0	0.0	0	0	381	0.2	381	382	17.2	80.4
2025-08-04T22:39	10	0	0.1	0	1	381	0.2	381	381	17.1	81.1
2025-08-04T22:40	10	0	0.1	0	0	381	0.2	380	381	17.0	81.6
2025-08-04T22:41	10	0	0.0	0	0	381	0.3	380	382	17.0	80.9
2025-08-04T22:42	10	0	0.1	0	0	381	0.2	381	382	17.1	80.4
2025-08-04T22:43	10	0	0.1	0	0	382	0.3	381	383	17.1	80.3
2025-08-04T22:44	10	0	0.0	0	0	382	0.3	382	383	17.3	78.3
2025-08-04T22:45	10	0	0.0	0	0	382	0.2	382	383	17.3	78.9
2025-08-04T22:46	10	0	0.0	0	0	382	0.2	381	383	17.4	77.8
2025-08-04T22:47	10	0	0.0	0	0	382	0.4	382	384	17.3	78.2
2025-08-04T22:48	10	0	0.1	0	0	384	0.6	383	385	17.5	77.3
2025-08-04T22:49	10	0	0.1	0	0	386	0.5	385	387	17.5	77.2
2025-08-04T22:50	10	0	0.0	0	0	386	0.4	385	387	17.4	77.3
2025-08-04T22:51	10	0	0.1	0	0	387	0.3	386	387	17.5	77.2
2025-08-04T22:52	10	0	0.1	0	0	387	0.3	386	388	17.5	77.0
2025-08-04T22:53	10	0	1.3	0	9	388	0.3	387	388	17.5	76.9
2025-08-04T22:54	10	0	0.1	0	0	388	0.2	387	388	17.6	76.3
2025-08-04T22:55	10	0	0.1	0	0	388	0.2	388	388	17.7	76.1
2025-08-04T22:56	10	0	0.1	0	0	388	0.2	387	388	17.6	76.2
2025-08-04T22:57	10	0	0.1	0	0	388	0.3	387	389	17.7	75.8
2025-08-04T22:58	10	0	0.1	0	0	388	0.2	387	388	17.7	75.8
2025-08-04T22:59	10	0	0.1	0	0	388	0.3	387	388	17.8	75.5
2025-08-04T23:00	10	0	0.1	0	0	388	0.3	387	388	17.7	75.7
2025-08-04T23:01	10	0	0.1	0	0	388	0.3	387	388	17.8	75.5
2025-08-04T23:02	10	0	0.1	0	0	388	0.2	387	388	17.7	75.6
2025-08-04T23:03	10	0	0.1	0	0	388	0.2	388	388	17.8	75.1
2025-08-04T23:04	10	0	0.1	0	0	388	0.2	387	388	17.7	75.5
2025-08-04T23:05	10	0	0.1	0	0	387	0.3	386	388	17.6	76.0
2025-08-04T23:06	10	0	0.1	0	0	387	0.2	387	388	17.4	77.1
2025-08-04T23:07	10	0	0.0	0	0	387	0.3	386	388	17.2	78.4
2025-08-04T23:08	10	0	0.1	0	0	387	0.2	386	387	17.0	79.0
2025-08-04T23:09	10	0	0.1	0	0	387	0.2	386	387	17.1	78.8
2025-08-04T23:10	10	0	0.1	0	0	386	0.2	386	387	17.1	78.4
2025-08-04T23:11	10	0	0.1	0	0	386	0.2	386	386	17.2	78.0
2025-08-04T23:12	10	0	0.1	0	0	385	0.5	384	386	17.1	78.6
2025-08-04T23:13	10	0	0.1	0	0	384	0.3	384	385	17.1	78.8
2025-08-04T23:14	10	0	0.1	0	0	384	0.2	384	384	17.1	78.8
2025-08-04T23:15	10	0	0.1	0	0	384	0.2	383	384	17.0	79.1
2025-08-04T23:16	10	0	0.1	0	0	383	0.3	382	384	17.0	79.4
2025-08-04T23:17	10	0	0.1	0	0	384	0.3	383	384	17.0	79.2
2025-08-04T23:18	10	0	0.1	0	0	383	0.2	383	384	17.1	78.8
2025-08-04T23:19	10	0	0.1	0	0	383	0.2	383	384	17.0	79.2
2025-08-04T23:20	10	0	0.1	0	0	383	0.2	382	383	17.0	79.7
2025-08-04T23:21	10	0	0.1	0	0	382	0.3	382	383	16.9	79.9
2025-08-04T23:22	10	0	0.1	0	0	381	0.2	381	382	16.9	80.2
2025-08-04T23:23	10	0	0.1	0	0	381	0.2	381	382	16.8	80.2
2025-08-04T23:24	10	0	0.1	0	0	381	0.2	381	381	17.0	79.1
2025-08-04T23:25	10	0	0.1	0	0	380	0.4	379	381	17.1	78.2
2025-08-04T23:26	10	0	0.1	0	0	380	0.2	379	380	17.1	78.1
2025-08-04T23:27	10	0	0.1	0	0	379	0.2	379	380	17.0	78.7
2025-08-04T23:28	10	0	0.1	0	0	379	0.2	379	379	17.0	78.3
2025-08-04T23:29	10	0	0.1	0	0	379	0.4	379	380	17.2	77.4
2025-08-04T23:30	10	0	0.1	0	0	380	0.3	379	380	17.3	76.5
2025-08-04T23:31	10	0	0.1	0	0	379	0.2	379	380	17.3	76.2
2025-08-04T23:32	10	0	0.1	0	0	379	0.3	378	380	17.4	75.9
2025-08-04T23:33	10	0	0.1	0	0	379	0.2	378	379	17.4	75.7
2025-08-04T23:34	10	0	0.1	0	0	379	0.3	378	379	17.3	76.3
2025-08-04T23:35	10	0	0.1	0	0	379	0.3	378	379	17.2	76.6
2025-08-04T23:36	10	0	0.1	0	0	379	0.3	378	380	17.2	76.3
2025-08-04T23:37	10	0	0.1	0	0	380	0.4	379	381	17.4	75.3
2025-08-04T23:38	10	0	0.1	0	0	380	0.4	379	381	17.4	75.3
2025-08-04T23:39	10	0	0.1	0	0	381	0.3	381	382	17.3	76.0
2025-08-04T23:40	10	0	0.1	0	0	382	0.3	381	383	17.3	75.7
2025-08-04T23:41	10	0	0.1	0	0	382	0.3	382	383	17.5	74.8
2025-08-04T23:42	10	0	0.1	0	0	382	0.3	381	382	17.5	74.7
2025-08-04T23:43	10	0	0.1	0	0	381	0.3	380	382	17.5	74.9
2025-08-04T23:44	10	0	0.1	0	0	381	0.4	380	382	17.4	75.2
2025-08-04T23:45	10	0	0.1	0	0	380	0.3	379	380	17.2	76.3
2025-08-04T23:46	10	0	0.0	0	0	380	0.3	379	380	17.2	76.2
2025-08-04T23:47	10	0	0.1	0	0	380	0.5	379	381	17.2	76.4
2025-08-04T23:48	10	0	0.1	0	0	381	0.2	380	381	17.4	75.5
2025-08-04T23:49	10	0	0.1	0	0	381	0.2	380	381	17.2	76.3
2025-08-04T23:50	10	0	0.1	0	0	380	0.3	379	381	17.0	77.1
2025-08-04T23:51	10	0	0.1	0	0	380	0.4	380	381	17.0	77.0
2025-08-04T23:52	10	0	0.1	0	0	381	0.3	380	381	17.1	76.5
2025-08-04T23:53	10	0	0.1	0	0	381	0.3	380	382	17.1	76.6
2025-08-04T23:54	10	0	0.1	0	0	381	0.2	381	382	17.0	77.1
2025-08-04T23:55	10	0	0.0	0	0	382	0.3	381	383	16.9	77.5
2025-08-04T23:56	10	0	0.1	0	0	383	0.4	382	384	16.9	77.5
2025-08-04T23:57	10	0	0.1	0	0	383	0.3	383	384	17.0	76.7
2025-08-04T23:58	10	0	0.0	0	0	383	0.2	383	384	17.0	76.8
2025-08-04T23:59	10	0	0.1	0	0	384	0.2	383	384	17.3	74.9
2025-08-05T00:00	10	0	0.0	0	0	384	0.3	383	384	17.6	73.3
2025-08-05T00:01	10	0	0.1	0	0	383	0.6	382	384	17.5	73.3
2025-08-05T00:02	10	0	0.1	0	0	383	0.2	382	383	17.4	74.3
2025-08-05T00:03	10	0	0.1	0	0	383	0.2	382	383	17.4	73.8
2025-08-05T00:04	10	0	0.1	0	0	383	0.2	382	384	17.5	73.4
2025-08-05T00:05	10	0	0.0	0	0	383	0.3	383	384	17.5	73.2
2025-08-05T00:06	10	0	0.1	0	0	384	0.3	383	384	17.5	73.3
2025-08-05T00:07	10	0	0.0	0	0	384	0.2	383	384	17.5	73.5
2025-08-05T00:08	10	0	0.1	0	0	384	0.2	383	384	17.5	73.3
2025-08-05T00:09	10	0	0.1	0	0	384	0.2	383	384	17.5	73.6
2025-08-05T00:10	10	0	0.1	0	0	384	0.2	383	384	17.5	73.8
2025-08-05T00:11	10	0	0.1	0	0	384	0.3	384	385	17.5	73.8
2025-08-05T00:12	10	0	0.0	0	0	384	0.3	384	385	17.5	73.9
2025-08-05T00:13	10	0	0.1	0	0	385	0.3	384	385	17.5	73.9
2025-08-05T00:14	10	0	0.0	0	0	385	0.2	385	386	17.5	73.6
2025-08-05T00:15	10	0	0.0	0	0	386	0.2	385	386	17.5	73.4
2025-08-05T00:16	10	0	0.0	0	0	385	0.3	385	386	17.5	73.3
2025-08-05T00:17	10	0	0.1	0	0	385	0.3	384	385	17.5	73.6
2025-08-05T00:18	10	0	0.0	0	0	385	0.3	384	385	17.5	73.1
2025-08-05T00:19	10	0	0.1	0	0	384	0.3	384	385	17.6	72.3
2025-08-05T00:20	10	0	0.1	0	0	383	0.4	382	384	17.8	71.6
2025-08-05T00:21	10	0	0.0	0	0	383	0.2	382	383	17.7	71.8
2025-08-05T00:22	10	0	0.1	0	0	382	0.3	382	383	17.8	71.6
2025-08-05T00:23	10	0	0.1	0	0	382	0.4	381	383	17.6	72.5
2025-08-05T00:24	10	0	0.0	0	0	384	0.4	383	384	17.5	72.8
2025-08-05T00:25	10	0	0.0	0	0	383	0.3	382	384	17.6	72.6
2025-08-05T00:26	10	0	0.0	0	0	383	0.3	382	383	17.4	73.3
2025-08-05T00:27	10	0	0.1	0	0	383	0.4	382	383	17.3	73.7
2025-08-05T00:28	10	0	0.0	0	0	382	0.2	382	383	17.2	73.9
2025-08-05T00:29	10	0	0.1	0	0	382	0.3	381	382	17.2	73.9
2025-08-05T00:30	10	0	0.1	0	0	381	0.4	380	382	17.3	73.9
2025-08-05T00:31	10	0	0.1	0	0	380	0.5	379	381	17.2	74.2
2025-08-05T00:32	10	0	0.1	0	0	379	0.2	379	380	17.0	75.2
2025-08-05T00:33	10	0	0.1	0	0	379	0.5	378	380	16.8	76.2
2025-08-05T00:34	10	0	0.1	0	0	378	0.3	377	378	16.4	78.4
2025-08-05T00:35	10	0	0.1	0	0	378	0.2	377	378	16.0	80.1
2025-08-05T00:36	10	0	0.1	0	0	377	0.2	377	378	15.9	80.9
2025-08-05T00:37	10	0	0.9	0	6	377	0.2	376	377	16.0	81.1
2025-08-05T00:38	10	0	0.1	0	0	376	0.3	376	377	15.9	81.3
2025-08-05T00:39	10	0	0.1	0	0	377	0.3	376	377	15.9	82.0
2025-08-05T00:40	10	0	0.1	0	0	377	0.2	376	377	15.8	82.6
2025-08-05T00:41	10	0	0.0	0	0	376	0.2	376	377	15.7	83.2
2025-08-05T00:42	10	0	0.1	0	0	376	0.3	375	377	15.8	83.3
2025-08-05T00:43	10	0	0.1	0	0	376	0.2	376	377	15.8	82.9
2025-08-05T00:44	10	0	0.1	0	0	376	0.2	375	376	15.7	82.3
2025-08-05T00:45	10	0	0.1	0	0	376	0.2	375	376	15.7	82.2
2025-08-05T00:46	10	0	0.1	0	0	375	0.2	375	376	15.6	81.9
2025-08-05T00:47	10	0	0.1	0	0	375	0.2	374	375	15.4	83.0
2025-08-05T00:48	10	0	0.1	0	0	375	0.3	374	376	15.4	82.7
2025-08-05T00:49	10	0	0.1	0	0	376	0.3	375	376	15.5	82.6
2025-08-05T00:50	10	0	0.1	0	0	376	0.3	375	377	15.4	82.9
2025-08-05T00:51	10	0	0.2	0	1	376	0.4	375	377	15.3	83.4
2025-08-05T00:52	10	0	0.1	0	0	376	0.6	375	377	15.3	83.2
2025-08-05T00:53	10	0	0.1	0	0	377	0.3	377	378	15.4	82.7
2025-08-05T00:54	10	0	0.2	0	1	377	0.2	377	378	15.4	83.5
2025-08-05T00:55	10	0	0.1	0	0	377	0.3	376	378	15.3	84.1
2025-08-05T00:56	10	0	0.1	0	0	377	0.3	376	377	15.3	85.1
2025-08-05T00:57	10	0	0.2	0	1	377	0.3	376	378	15.3	85.5
2025-08-05T00:58	10	0	0.1	0	0	377	0.3	376	378	15.3	85.6
2025-08-05T00:59	10	0	0.1	0	1	377	0.2	376	377	15.2	85.8
2025-08-05T01:00	10	0	0.2	0	1	377	0.3	377	378	15.1	86.1
2025-08-05T01:01	10	0	0.1	0	0	377	0.3	376	377	15.1	85.9
2025-08-05T01:02	10	0	0.1	0	0	377	0.2	377	377	15.1	86.0
2025-08-05T01:03	10	0	0.2	0	0	377	0.4	377	378	15.1	86.5
2025-08-05T01:04	10	0	0.2	0	0	378	0.3	377	378	15.1	86.2
2025-08-05T01:05	10	0	0.2	0	0	378	0.3	377	379	15.1	85.4
2025-08-05T01:06	10	0	0.1	0	0	378	0.3	377	378	15.2	85.4
2025-08-05T01:07	10	0	0.1	0	0	377	0.2	377	378	15.2	85.6
2025-08-05T01:08	10	0	0.1	0	0	377	0.2	377	378	15.2	85.4
2025-08-05T01:09	10	0	0.1	0	1	377	0.3	377	378	15.2	85.6
2025-08-05T01:10	10	0	0.1	0	0	377	0.2	377	378	15.2	85.4
2025-08-05T01:11	10	0	0.1	0	1	377	0.2	376	377	15.2	85.2
2025-08-05T01:12	10	0	0.1	0	0	377	0.3	376	377	15.2	85.2
2025-08-05T01:13	10	0	0.1	0	0	377	0.3	376	377	15.2	85.3
2025-08-05T01:14	10	0	0.1	0	0	377	0.2	376	377	15.2	85.2
2025-08-05T01:15	10	0	0.1	0	1	377	0.2	376	377	15.2	85.3
2025-08-05T01:16	10	0	0.2	0	0	377	0.3	376	378	15.2	85.3
2025-08-05T01:17	10	0	0.1	0	0	377	0.3	376	378	15.4	84.3
2025-08-05T01:18	10	0	0.1	0	1	378	0.2	377	378	15.5	83.9
2025-08-05T01:19	10	0	0.1	0	1	377	0.2	377	378	15.5	83.9
2025-08-05T01:20	10	0	0.1	0	0	378	0.2	377	378	15.4	84.3
2025-08-05T01:21	10	0	0.2	0	1	378	0.2	377	378	15.4	84.4
2025-08-05T01:22	10	0	0.1	0	0	378	0.3	378	379	15.4	83.9
2025-08-05T01:23	10	0	0.1	0	0	378	0.4	377	379	15.4	83.6
2025-08-05T01:24	10	0	0.1	0	0	379	0.3	378	379	15.5	83.2
2025-08-05T01:25	10	0	0.1	0	0	379	0.4	379	380	15.5	82.6
2025-08-05T01:26	10	0	0.1	0	1	380	0.2	380	381	15.6	82.4
2025-08-05T01:27	10	0	0.1	0	0	380	0.2	380	380	15.5	82.7
2025-08-05T01:28	10	0	0.1	0	0	380	0.3	380	381	15.6	82.3
2025-08-05T01:29	10	0	0.1	0	0	379	0.3	379	380	15.6	82.0
2025-08-05T01:30	10	0	0.1	0	0	378	0.4	378	379	15.7	81.9
2025-08-05T01:31	10	0	0.1	0	0	379	0.2	378	379	15.6	82.5
2025-08-05T01:32	10	0	0.1	0	0	378	0.2	378	379	15.6	82.4
2025-08-05T01:33	10	0	0.1	0	0	378	0.3	377	379	15.6	82.2
2025-08-05T01:34	10	0	0.1	0	0	378	0.3	377	379	15.6	82.2
2025-08-05T01:35	10	0	0.1	0	0	377	0.2	377	378	15.6	82.4
2025-08-05T01:36	10	0	0.1	0	0	377	0.3	376	378	15.5	82.9
2025-08-05T01:37	10	0	0.1	0	0	377	0.3	376	377	15.4	83.4
2025-08-05T01:38	10	0	0.1	0	0	376	0.3	376	377	15.4	83.7
2025-08-05T01:39	10	0	0.1	0	0	376	0.3	375	377	15.4	83.8
2025-08-05T01:40	10	0	0.0	0	0	376	0.3	375	376	15.4	83.7
2025-08-05T01:41	10	0	0.1	0	1	375	0.5	375	377	15.4	83.7
2025-08-05T01:42	10	0	0.1	0	0	375	0.3	374	375	15.4	83.5
2025-08-05T01:43	10	0	0.0	0	0	375	0.2	374	375	15.5	83.3
2025-08-05T01:44	10	0	0.0	0	0	375	0.2	374	375	15.5	83.1
2025-08-05T01:45	10	0	0.1	0	0	374	0.3	374	375	15.5	83.2
2025-08-05T01:46	10	0	0.1	0	0	374	0.3	373	374	15.4	83.5
2025-08-05T01:47	10	0	0.0	0	0	373	0.3	373	374	15.4	83.7
2025-08-05T01:48	10	0	0.0	0	0	373	0.3	373	374	15.4	83.9
2025-08-05T01:49	10	0	0.1	0	0	373	0.2	372	373	15.3	84.4
2025-08-05T01:50	10	0	0.0	0	0	373	0.3	372	373	15.2	85.0
2025-08-05T01:51	10	0	0.0	0	0	372	0.3	372	373	15.1	85.4
2025-08-05T01:52	10	0	0.1	0	0	372	0.2	372	373	15.1	85.7
2025-08-05T01:53	10	0	0.1	0	0	372	0.3	371	373	15.1	85.6
2025-08-05T01:54	10	0	0.0	0	0	372	0.2	371	372	15.0	85.8
2025-08-05T01:55	10	0	0.1	0	0	372	0.2	372	373	15.0	86.2
2025-08-05T01:56	10	0	0.1	0	0	373	0.2	372	373	14.9	86.4
2025-08-05T01:57	10	0	0.0	0	0	373	0.3	372	373	14.9	86.6
2025-08-05T01:58	10	0	0.1	0	0	373	0.2	373	373	14.9	86.5
2025-08-05T01:59	10	0	0.0	0	0	373	0.3	372	373	14.9	86.4
2025-08-05T02:00	10	0	0.1	0	0	373	0.3	372	374	14.9	86.4
2025-08-05T02:01	10	0	0.1	0	0	373	0.2	372	374	14.9	86.4
2025-08-05T02:02	10	0	0.0	0	0	373	0.2	372	373	14.9	86.4
2025-08-05T02:03	10	0	0.5	0	4	373	0.2	373	373	14.9	86.4
2025-08-05T02:04	10	0	0.1	0	0	373	0.3	372	373	14.8	86.4
2025-08-05T02:05	10	0	0.1	0	0	372	0.3	372	373	14.7	86.5
2025-08-05T02:06	10	0	0.1	0	0	372	0.3	372	373	14.7	86.9
2025-08-05T02:07	10	0	0.1	0	0	372	0.2	372	373	14.7	86.9
2025-08-05T02:08	10	0	0.1	0	0	372	0.2	372	372	14.8	86.4
2025-08-05T02:09	10	0	0.1	0	0	372	0.2	371	372	14.8	86.6
2025-08-05T02:10	10	0	0.1	0	0	371	0.2	371	372	14.7	86.8
2025-08-05T02:11	10	0	0.1	0	0	371	0.2	371	372	14.7	86.8
2025-08-05T02:12	10	0	0.1	0	0	371	0.3	371	372	14.7	86.9
2025-08-05T02:13	10	0	0.1	0	0	372	0.3	371	373	14.8	86.5
2025-08-05T02:14	10	0	0.1	0	0	372	0.3	371	372	14.8	86.2
2025-08-05T02:15	10	0	0.1	0	0	372	0.3	371	372	14.7	86.7
2025-08-05T02:16	10	0	0.1	0	0	372	0.3	371	373	14.8	86.5
2025-08-05T02:17	10	0	0.1	0	0	373	0.3	372	373	14.8	86.3
2025-08-05T02:18	10	0	0.1	0	0	373	0.2	372	373	14.8	85.9
2025-08-05T02:19	10	0	0.1	0	0	373	0.2	372	373	14.8	86.0
2025-08-05T02:20	10	0	0.1	0	0	373	0.3	372	373	14.8	86.3
2025-08-05T02:21	10	0	0.1	0	0	373	0.2	372	373	14.6	87.0
2025-08-05T02:22	10	0	0.1	0	0	373	0.2	372	373	14.5	88.0
2025-08-05T02:23	10	0	0.0	0	0	373	0.2	372	373	14.4	88.2
2025-08-05T02:24	10	0	0.1	0	0	373	0.3	372	374	14.5	87.7
2025-08-05T02:25	10	0	0.1	0	0	374	0.3	373	374	14.5	87.7
2025-08-05T02:26	10	0	0.1	0	0	374	0.2	373	374	14.6	87.3
2025-08-05T02:27	10	0	0.1	0	0	374	0.3	373	375	14.6	87.0
2025-08-05T02:28	10	0	0.1	0	0	374	0.2	374	374	14.6	87.3
2025-08-05T02:29	10	0	0.1	0	0	373	0.4	373	374	14.5	87.8
2025-08-05T02:30	10	0	0.1	0	0	373	0.5	372	373	14.4	88.3
2025-08-05T02:31	10	0	0.1	0	0	372	0.3	371	373	14.3	88.3
2025-08-05T02:32	10	0	0.1	0	0	372	0.3	371	372	14.2	88.6
2025-08-05T02:33	10	0	0.1	0	0	372	0.3	371	373	14.2	88.8
2025-08-05T02:34	10	0	0.1	0	0	372	0.5	371	374	14.4	88.4
2025-08-05T02:35	10	0	0.1	0	0	373	0.3	372	373	14.5	87.9
2025-08-05T02:36	10	0	0.1	0	0	373	0.3	372	374	14.6	87.5
2025-08-05T02:37	10	0	0.1	0	0	373	0.4	372	373	14.6	87.1
2025-08-05T02:38	10	0	0.0	0	0	372	0.4	371	373	14.6	87.4
2025-08-05T02:39	10	0	0.1	0	0	372	0.3	371	372	14.4	88.1
2025-08-05T02:40	10	0	0.1	0	0	371	0.3	371	372	14.2	88.8
2025-08-05T02:41	10	0	0.1	0	0	372	0.3	371	372	14.3	88.4
2025-08-05T02:42	10	0	0.1	0	0	372	0.4	371	373	14.4	88.3
2025-08-05T02:43	10	0	0.1	0	0	373	0.3	372	373	14.5	87.7
2025-08-05T02:44	10	0	0.0	0	0	373	0.2	373	373	14.7	86.7
2025-08-05T02:45	10	0	0.0	0	0	373	0.3	372	373	14.7	86.6
2025-08-05T02:46	10	0	0.1	0	0	372	0.3	372	373	14.6	86.9
2025-08-05T02:47	10	0	0.1	0	0	372	0.2	372	373	14.6	86.8
2025-08-05T02:48	10	0	0.1	0	0	372	0.3	371	373	14.5	86.9
2025-08-05T02:49	10	0	0.1	0	0	372	0.3	371	373	14.5	86.9
2025-08-05T02:50	10	0	0.1	0	0	371	0.2	371	372	14.4	87.2
2025-08-05T02:51	10	0	0.1	0	0	371	0.2	371	372	14.4	87.5
2025-08-05T02:52	10	0	0.1	0	0	371	0.2	370	371	14.2	88.0
2025-08-05T02:53	10	0	0.1	0	0	370	0.2	370	371	14.3	88.1
2025-08-05T02:54	10	0	0.1	0	0	370	0.3	369	371	14.3	88.1
2025-08-05T02:55	10	0	0.1	0	0	370	0.3	370	371	14.6	86.6
2025-08-05T02:56	10	0	0.1	0	0	371	0.3	370	371	14.7	86.2
2025-08-05T02:57	10	0	0.1	0	0	371	0.3	370	371	14.6	86.3
2025-08-05T02:58	10	0	0.0	0	0	371	0.3	370	371	14.6	86.7
2025-08-05T02:59	10	0	0.1	0	0	370	0.2	369	371	14.5	86.9
2025-08-05T03:00	10	0	0.0	0	0	370	0.3	370	371	14.6	86.7
2025-08-05T03:01	10	0	0.1	0	0	370	0.2	369	370	14.6	86.4
2025-08-05T03:02	10	0	0.0	0	0	369	0.3	369	370	14.6	86.5
2025-08-05T03:03	10	0	0.1	0	0	369	0.2	369	370	14.5	86.7
2025-08-05T03:04	10	0	0.1	0	0	369	0.2	369	370	14.5	86.8
2025-08-05T03:05	10	0	0.1	0	0	369	0.2	369	370	14.4	87.1
2025-08-05T03:06	10	0	0.1	0	0	370	0.3	370	371	14.4	87.5
2025-08-05T03:07	10	0	0.1	0	0	371	0.2	370	371	14.4	87.7
2025-08-05T03:08	10	0	0.1	0	0	371	0.2	370	371	14.2	88.5
2025-08-05T03:09	10	0	0.1	0	0	371	0.3	370	371	14.1	88.9
2025-08-05T03:10	10	0	0.1	0	0	371	0.2	370	371	14.0	89.2
2025-08-05T03:11	10	0	0.1	0	0	371	0.3	370	371	14.1	88.7
2025-08-05T03:12	10	0	0.1	0	0	370	0.2	370	371	14.3	88.2
2025-08-05T03:13	10	0	0.1	0	0	371	0.4	370	371	14.3	87.9
2025-08-05T03:14	10	0	0.1	0	0	372	0.3	371	372	14.4	87.4
2025-08-05T03:15	10	0	0.0	0	0	372	0.3	371	372	14.4	86.9
2025-08-05T03:16	10	0	0.0	0	0	372	0.3	371	373	14.6	85.9
2025-08-05T03:17	10	0	0.0	0	0	372	0.2	371	372	14.7	84.9
2025-08-05T03:18	10	0	0.1	0	0	372	0.3	372	373	14.8	84.6
2025-08-05T03:19	10	0	0.1	0	0	372	0.3	371	372	14.8	84.1
2025-08-05T03:20	10	0	0.0	0	0	371	0.3	370	372	14.8	84.3
2025-08-05T03:21	10	0	0.1	0	0	371	0.3	370	371	14.6	85.0
2025-08-05T03:22	10	0	0.1	0	0	370	0.2	369	370	14.6	85.5
2025-08-05T03:23	10	0	0.0	0	0	370	0.3	369	370	14.5	85.6
2025-08-05T03:24	10	0	0.1	0	0	370	0.3	369	370	14.5	85.8
2025-08-05T03:25	10	0	0.1	0	0	370	0.3	369	370	14.5	85.6
2025-08-05T03:26	10	0	0.1	0	0	370	0.2	369	370	14.5	85.4
2025-08-05T03:27	10	0	0.0	0	0	370	0.3	370	371	14.7	84.8
2025-08-05T03:28	10	0	0.1	0	0	371	0.2	370	371	14.8	84.0
2025-08-05T03:29	10	0	0.1	0	0	371	0.2	370	371	14.9	83.6
2025-08-05T03:30	10	0	0.0	0	0	371	0.3	371	372	15.1	82.4
2025-08-05T03:31	10	0	0.0	0	0	372	0.2	371	372	15.1	82.4
2025-08-05T03:32	10	0	0.0	0	0	372	0.3	372	373	15.0	83.1
2025-08-05T03:33	10	0	0.0	0	0	373	0.2	373	373	14.9	83.4
2025-08-05T03:34	10	0	0.0	0	0	373	0.2	373	373	14.9	83.7
2025-08-05T03:35	10	0	0.1	0	0	373	0.3	372	373	14.8	83.8
2025-08-05T03:36	10	0	0.1	0	0	372	0.3	371	373	14.8	83.8
2025-08-05T03:37	10	0	0.0	0	0	372	0.2	371	372	14.9	83.3
2025-08-05T03:38	10	0	0.0	0	0	372	0.2	371	372	15.0	82.6
2025-08-05T03:39	10	0	0.0	0	0	372	0.2	372	372	15.1	82.3
2025-08-05T03:40	10	0	0.0	0	0	372	0.2	371	372	15.1	81.8
2025-08-05T03:41	10	0	0.0	0	0	372	0.2	371	372	15.1	81.9
2025-08-05T03:42	10	0	0.0	0	0	372	0.2	371	372	15.2	81.1
2025-08-05T03:43	10	0	0.0	0	0	372	0.2	372	372	15.3	80.7
2025-08-05T03:44	10	0	0.1	0	0	372	0.2	372	372	15.3	80.9
2025-08-05T03:45	10	0	0.1	0	0	372	0.3	371	373	15.2	81.1
2025-08-05T03:46	10	0	0.1	0	0	372	0.3	371	373	15.2	81.3
2025-08-05T03:47	10	0	0.0	0	0	372	0.3	371	372	15.0	82.2
2025-08-05T03:48	10	0	0.0	0	0	372	0.2	372	373	15.0	82.4
2025-08-05T03:49	10	0	0.0	0	0	372	0.2	372	372	14.9	82.9
2025-08-05T03:50	10	0	0.0	0	0	372	0.2	372	373	14.8	83.4
2025-08-05T03:51	10	0	0.1	0	0	372	0.3	371	373	14.7	83.7
2025-08-05T03:52	10	0	0.0	0	0	371	0.3	371	372	14.7	83.9
2025-08-05T03:53	10	0	0.1	0	0	370	0.3	370	371	14.6	84.4
2025-08-05T03:54	10	0	0.1	0	0	370	0.3	369	371	14.5	85.1
2025-08-05T03:55	10	0	0.1	0	0	369	0.3	369	370	14.4	85.8
2025-08-05T03:56	10	0	0.1	0	0	369	0.3	368	369	14.3	86.3
2025-08-05T03:57	10	0	0.1	0	0	368	0.2	368	369	14.3	86.7
2025-08-05T03:58	10	0	0.1	0	0	368	0.3	367	368	14.2	86.8
2025-08-05T03:59	10	0	0.1	0	0	368	0.2	367	368	14.2	87.1
2025-08-05T04:00	10	0	0.1	0	0	367	0.2	367	368	14.1	87.6
2025-08-05T04:01	10	0	0.1	0	0	367	0.3	366	368	14.1	87.9
2025-08-05T04:02	10	0	0.1	0	0	366	0.2	366	367	14.0	88.3
2025-08-05T04:03	10	0	0.1	0	0	366	0.2	366	367	13.9	88.7
2025-08-05T04:04	10	0	0.1	0	0	366	0.2	365	366	13.8	89.0
2025-08-05T04:05	10	0	0.1	0	0	366	0.2	365	366	13.8	89.0
2025-08-05T04:06	10	0	0.1	0	0	365	0.2	365	366	13.8	89.0
2025-08-05T04:07	10	0	0.1	0	0	365	0.2	364	365	13.8	89.0
2025-08-05T04:08	10	0	0.1	0	0	365	0.2	364	365	13.8	89.0
2025-08-05T04:09	10	0	0.1	0	1	365	0.2	364	365	13.7	89.4
2025-08-05T04:10	10	0	0.1	0	1	365	0.2	364	365	13.7	89.2
2025-08-05T04:11	10	0	0.1	0	1	365	0.2	364	365	13.7	89.4
2025-08-05T04:12	10	0	0.1	0	1	365	0.2	364	365	13.6	89.3
2025-08-05T04:13	10	1	0.1	0	1	365	0.3	364	365	13.7	89.0
2025-08-05T04:14	10	1	0.1	0	1	365	0.3	364	365	13.8	88.6
2025-08-05T04:15	10	0	0.1	0	1	365	0.3	364	366	14.0	87.9
2025-08-05T04:16	10	1	0.1	0	1	366	0.3	365	367	14.1	87.0
2025-08-05T04:17	10	1	0.2	0	1	366	0.3	366	367	14.2	86.7
2025-08-05T04:18	10	1	0.1	1	1	366	0.2	366	367	14.0	87.3
2025-08-05T04:19	10	1	0.2	0	1	366	0.2	365	366	13.8	88.1
2025-08-05T04:20	10	1	0.2	1	1	366	0.2	365	367	13.8	88.6
2025-08-05T04:21	10	1	0.1	1	1	366	0.2	365	366	13.7	88.9
2025-08-05T04:22	10	1	0.1	1	1	366	0.3	365	366	13.6	89.1
2025-08-05T04:23	10	1	0.1	1	1	366	0.3	365	367	13.7	89.2
2025-08-05T04:24	10	1	0.2	1	1	366	0.3	365	366	13.7	89.2
2025-08-05T04:25	10	1	0.1	1	2	366	0.3	366	367	13.6	89.3
2025-08-05T04:26	10	1	0.2	1	2	366	0.2	366	367	13.7	89.3
2025-08-05T04:27	10	1	0.1	1	2	367	0.3	367	368	13.7	89.2
2025-08-05T04:28	10	1	0.1	1	2	367	0.2	367	368	13.7	89.0
2025-08-05T04:29	10	2	0.1	1	2	368	0.2	368	368	13.6	89.0
2025-08-05T04:30	10	2	0.2	2	2	368	0.2	368	369	13.6	89.4
2025-08-05T04:31	10	3	0.3	2	3	369	0.3	368	369	13.5	89.2
2025-08-05T04:32	10	3	0.2	3	4	369	0.3	369	370	13.5	89.2
2025-08-05T04:33	10	4	0.1	4	4	370	0.3	369	370	13.5	89.4
2025-08-05T04:34	10	4	0.2	4	4	370	0.5	370	371	13.5	89.5
2025-08-05T04:35	10	4	0.2	4	5	371	0.4	370	372	13.5	89.4
2025-08-05T04:36	10	5	0.2	5	5	372	0.5	371	373	13.6	89.3
2025-08-05T04:37	10	5	0.2	5	6	373	0.4	372	374	13.7	88.7
2025-08-05T04:38	10	6	0.2	6	6	374	0.4	373	375	13.9	88.1
2025-08-05T04:39	10	6	0.2	6	7	375	0.3	374	375	14.0	87.4
2025-08-05T04:40	10	7	0.3	6	8	376	0.5	375	377	14.0	87.4
2025-08-05T04:41	10	7	0.2	7	8	377	0.2	376	377	13.9	87.7
2025-08-05T04:42	10	8	0.2	8	8	377	0.2	377	378	13.9	87.8
2025-08-05T04:43	10	8	0.2	8	9	378	0.3	377	379	13.9	87.9
2025-08-05T04:44	10	8	0.6	7	9	378	0.2	378	379	14.0	87.4
2025-08-05T04:45	10	5	0.7	4	7	379	0.2	379	379	14.2	86.2
2025-08-05T04:46	10	4	0.2	4	5	379	0.3	379	380	14.2	85.8
2025-08-05T04:47	10	5	0.4	4	5	380	0.3	379	380	14.3	85.5
2025-08-05T04:48	10	4	0.2	4	4	380	0.4	379	381	14.4	84.5
2025-08-05T04:49	10	4	0.1	4	4	380	0.3	379	381	14.4	84.8
2025-08-05T04:50	10	4	0.1	4	4	380	0.3	379	380	14.3	85.5
2025-08-05T04:51	10	4	0.2	4	5	380	0.3	379	380	14.2	85.9
2025-08-05T04:52	10	4	0.2	4	5	380	0.2	379	380	14.2	86.2
2025-08-05T04:53	10	4	0.2	4	5	380	0.3	379	381	14.2	86.1
2025-08-05T04:54	10	4	0.2	4	5	380	0.3	379	381	14.1	86.7
2025-08-05T04:55	10	5	0.2	4	5	380	0.2	380	381	14.1	86.9
2025-08-05T04:56	10	5	0.2	4	5	380	0.3	380	381	14.1	86.9
2025-08-05T04:57	10	5	0.2	4	5	380	0.2	380	381	14.1	87.2
2025-08-05T04:58	10	5	0.2	4	5	381	0.3	380	381	14.0	88.0
2025-08-05T04:59	10	5	0.2	4	5	381	0.3	380	381	14.0	88.0
2025-08-05T05:00	10	5	0.2	5	5	381	0.3	380	382	14.0	88.4
2025-08-05T05:01	10	5	0.2	5	5	381	0.3	381	382	14.0	88.4
2025-08-05T05:02	10	5	0.2	5	6	382	0.3	381	382	14.0	88.4
2025-08-05T05:03	10	5	0.2	5	6	382	0.3	381	383	14.1	87.7
2025-08-05T05:04	10	5	0.1	5	6	382	0.3	381	383	14.1	88.0
2025-08-05T05:05	10	6	0.2	5	6	382	0.2	382	383	14.1	88.0
2025-08-05T05:06	10	6	0.2	6	6	383	0.2	382	383	14.2	87.7
2025-08-05T05:07	10	6	0.1	6	6	383	0.3	383	384	14.3	87.5
2025-08-05T05:08	10	6	0.2	6	7	383	0.3	383	384	14.4	85.8
2025-08-05T05:09	10	6	0.1	6	7	383	0.3	383	384	14.5	85.0
2025-08-05T05:10	10	7	0.1	6	7	383	0.2	383	384	14.5	85.3
2025-08-05T05:11	10	7	0.1	6	7	383	0.2	383	384	14.5	85.2
2025-08-05T05:12	10	7	0.1	7	7	383	0.2	383	384	14.5	84.7
2025-08-05T05:13	10	7	0.1	7	7	384	0.2	383	384	14.6	84.5
2025-08-05T05:14	10	7	0.1	7	8	384	0.2	384	385	14.6	83.7
2025-08-05T05:15	10	7	0.1	7	8	384	0.2	384	384	14.7	83.2
2025-08-05T05:16	10	8	0.2	7	8	384	0.2	384	385	14.7	83.0
2025-08-05T05:17	10	8	0.1	7	8	384	0.3	384	385	14.7	83.0
2025-08-05T05:18	10	8	0.1	8	8	384	0.3	384	385	14.7	83.3
2025-08-05T05:19	10	8	0.1	8	8	384	0.2	384	385	14.7	83.8
2025-08-05T05:20	10	8	0.1	8	8	384	0.2	384	385	14.7	83.6
2025-08-05T05:21	10	8	0.1	8	9	385	0.2	384	385	14.7	83.5
2025-08-05T05:22	10	9	0.1	8	9	385	0.2	384	385	14.7	83.6
2025-08-05T05:23	10	9	0.1	8	9	385	0.2	384	385	14.7	83.6
2025-08-05T05:24	10	9	0.1	8	9	385	0.3	384	385	14.7	83.6
2025-08-05T05:25	10	9	0.1	9	9	385	0.2	385	386	14.7	83.6
2025-08-05T05:26	10	9	0.1	9	9	385	0.4	384	386	14.7	83.3
2025-08-05T05:27	10	9	0.1	9	9	386	0.2	385	386	14.8	83.2
2025-08-05T05:28	10	9	0.1	9	10	386	0.2	385	386	14.7	83.9
2025-08-05T05:29	10	10	0.1	9	10	386	0.2	385	387	14.7	83.7
2025-08-05T05:30	10	10	0.1	9	10	386	0.3	385	387	14.7	83.1
2025-08-05T05:31	10	10	0.1	10	10	386	0.2	386	387	14.8	82.6
2025-08-05T05:32	10	10	0.1	10	10	386	0.2	386	387	14.8	82.6
2025-08-05T05:33	10	10	0.1	10	10	387	0.2	386	387	14.9	81.8
2025-08-05T05:34	10	11	0.1	10	11	387	0.2	387	388	15.0	81.5
2025-08-05T05:35	10	11	0.1	11	11	387	0.2	387	388	15.0	81.4
2025-08-05T05:36	10	11	0.1	11	11	387	0.3	387	388	15.0	81.4
2025-08-05T05:37	10	11	0.1	11	12	388	0.2	387	388	15.1	80.8
2025-08-05T05:38	10	12	0.1	11	12	388	0.2	387	388	15.2	80.1
2025-08-05T05:39	10	12	0.1	12	12	388	0.2	388	388	15.1	80.8
2025-08-05T05:40	10	12	0.1	12	12	388	0.2	388	389	15.1	83.4
2025-08-05T05:41	10	12	0.1	12	13	389	0.2	388	389	14.9	84.8
2025-08-05T05:42	10	13	0.1	13	13	389	0.2	388	389	14.9	85.9
2025-08-05T05:43	10	13	0.1	13	13	389	0.2	388	389	14.9	85.4
2025-08-05T05:44	10	13	0.1	13	13	389	0.2	388	390	14.9	84.6
2025-08-05T05:45	10	13	0.2	13	14	389	0.3	389	390	15.1	82.1
2025-08-05T05:46	10	13	0.1	13	14	390	0.3	389	391	15.2	81.6
2025-08-05T05:47	10	14	0.1	14	14	390	0.2	390	391	15.4	80.3
2025-08-05T05:48	10	14	0.1	14	14	390	0.2	390	391	15.5	79.2
2025-08-05T05:49	10	14	0.1	14	15	390	0.2	389	390	15.6	78.7
2025-08-05T05:50	10	15	0.1	15	15	390	0.3	390	391	15.6	79.0
2025-08-05T05:51	10	15	0.1	15	15	390	0.2	390	391	15.6	79.3
2025-08-05T05:52	10	15	0.1	15	16	390	0.2	390	391	15.5	80.5
2025-08-05T05:53	10	16	0.1	16	16	391	0.2	390	391	15.5	80.5
2025-08-05T05:54	10	16	0.1	16	16	391	0.2	390	391	15.6	79.7
2025-08-05T05:55	10	16	0.2	16	17	391	0.2	390	392	15.6	79.4
2025-08-05T05:56	10	17	0.1	16	17	391	0.3	391	392	15.7	79.1
2025-08-05T05:57	10	17	0.1	17	17	392	0.2	391	392	15.6	79.6
2025-08-05T05:58	10	17	0.1	17	17	392	0.2	391	392	15.6	80.1
2025-08-05T05:59	10	18	0.1	17	18	392	0.3	391	393	15.6	79.1
2025-08-05T06:00	10	18	0.1	18	18	392	0.3	391	392	15.6	78.9
2025-08-05T06:01	10	18	0.1	18	18	392	0.2	392	393	15.7	78.7
2025-08-05T06:02	10	18	0.1	18	19	392	0.2	392	393	15.7	79.0
2025-08-05T06:03	10	19	0.4	18	21	392	0.3	391	392	15.6	78.8
2025-08-05T06:04	10	19	0.1	19	19	392	0.2	391	392	15.6	79.1
2025-08-05T06:05	10	19	0.1	19	20	392	0.2	391	392	15.6	79.1
2025-08-05T06:06	10	20	0.1	19	20	392	0.3	392	393	15.6	79.2
2025-08-05T06:07	10	20	0.1	20	20	392	0.2	392	393	15.6	79.5
2025-08-05T06:08	10	20	0.1	20	20	393	0.3	392	393	15.5	79.6
2025-08-05T06:09	10	21	0.1	20	21	393	0.3	392	393	15.5	79.8
2025-08-05T06:10	10	21	0.1	21	21	393	0.3	392	393	15.5	79.9
2025-08-05T06:11	10	21	0.1	21	22	393	0.2	392	393	15.5	79.9
2025-08-05T06:12	10	22	0.1	22	22	393	0.3	392	393	15.5	79.5
2025-08-05T06:13	10	22	0.1	22	22	393	0.3	392	394	15.5	80.0
2025-08-05T06:14	10	22	0.1	22	22	393	0.2	393	394	15.6	79.8
2025-08-05T06:15	10	22	0.1	22	22	394	0.3	393	394	15.6	79.9
2025-08-05T06:16	10	22	0.1	22	22	394	0.3	394	395	15.6	80.0
2025-08-05T06:17	10	23	0.1	22	23	394	0.2	393	395	15.6	79.8
2025-08-05T06:18	10	23	0.1	23	23	394	0.2	393	394	15.6	80.3
2025-08-05T06:19	10	23	0.1	23	23	394	0.3	394	395	15.6	80.7
2025-08-05T06:20	10	23	0.1	23	23	395	0.2	395	395	15.6	80.6
2025-08-05T06:21	10	24	0.1	23	24	395	0.3	394	396	15.6	80.0
2025-08-05T06:22	10	24	0.1	24	24	396	0.3	395	396	15.6	80.9
2025-08-05T06:23	10	24	0.1	24	25	396	0.2	396	397	15.7	80.8
2025-08-05T06:24	10	25	0.1	24	25	397	0.3	396	397	15.7	80.2
2025-08-05T06:25	10	25	0.2	25	25	397	0.3	397	398	15.8	80.0
2025-08-05T06:26	10	26	0.2	25	26	397	0.2	397	398	15.9	79.1
2025-08-05T06:27	10	26	0.2	26	26	398	0.2	397	398	16.0	78.8
2025-08-05T06:28	10	27	0.2	26	27	398	0.3	397	399	16.1	77.4
2025-08-05T06:29	10	27	0.2	27	27	398	0.3	397	398	16.1	76.2
2025-08-05T06:30	10	28	0.2	27	28	398	0.2	398	399	16.1	77.0
2025-08-05T06:31	10	28	0.2	28	29	398	0.2	398	399	16.1	77.5
2025-08-05T06:32	10	29	0.1	28	29	399	0.4	398	400	16.1	77.8
2025-08-05T06:33	10	29	0.1	29	29	400	0.3	399	400	16.2	78.1
2025-08-05T06:34	10	29	0.1	29	30	400	0.3	399	401	16.2	78.0
2025-08-05T06:35	10	29	0.1	29	29	400	0.2	399	400	16.2	78.5
2025-08-05T06:36	10	29	0.1	29	29	400	0.3	399	400	16.2	77.3
2025-08-05T06:37	10	29	0.2	28	29	400	0.2	400	400	16.2	77.4
2025-08-05T06:38	10	28	0.1	28	28	401	0.3	400	401	16.2	77.9
2025-08-05T06:39	10	28	0.2	27	28	401	0.3	400	401	16.2	78.6
2025-08-05T06:40	10	27	0.2	27	28	400	0.2	400	401	16.3	77.7
2025-08-05T06:41	10	27	0.2	26	27	400	0.2	400	401	16.3	77.4
2025-08-05T06:42	10	26	0.2	25	26	400	0.3	399	401	16.3	78.1
2025-08-05T06:43	10	25	0.3	25	26	399	0.4	399	400	16.3	78.0
2025-08-05T06:44	10	24	0.2	24	25	399	0.3	398	399	16.3	78.4
2025-08-05T06:45	10	24	0.2	23	24	399	0.2	398	399	16.3	78.0
2025-08-05T06:46	10	23	0.1	23	23	399	0.2	398	399	16.3	78.3
2025-08-05T06:47	10	23	0.1	23	23	399	0.2	398	399	16.4	78.6
2025-08-05T06:48	10	23	0.1	23	23	399	0.3	398	399	16.4	79.4
2025-08-05T06:49	10	23	0.1	23	23	399	0.3	398	399	16.4	78.7
2025-08-05T06:50	10	23	0.1	23	23	398	0.2	398	399	16.4	78.3
2025-08-05T06:51	10	23	0.1	23	23	398	0.2	398	399	16.5	78.8
2025-08-05T06:52	10	23	0.1	23	23	399	0.3	398	399	16.5	79.1
2025-08-05T06:53	10	23	0.1	23	23	398	0.3	397	398	16.5	78.8
2025-08-05T06:54	10	23	0.3	23	24	398	0.2	397	398	16.5	79.4
2025-08-05T06:55	10	25	0.5	24	26	398	0.3	398	399	16.5	80.3
2025-08-05T06:56	10	27	1.1	25	30	399	0.3	398	400	16.5	80.4
2025-08-05T06:57	10	54	26.2	31	106	402	2.4	399	408	16.6	79.9
2025-08-05T06:58	10	98	8.8	77	106	410	1.9	406	412	16.8	77.8
2025-08-05T06:59	10	46	12.6	33	75	409	1.9	406	412	17.1	79.3
2025-08-05T07:00	10	69	20.7	37	95	408	1.7	406	411	17.0	78.2
2025-08-05T07:01	10	97	6.5	80	101	411	1.1	409	413	16.9	77.6
2025-08-05T07:02	10	99	0.3	98	99	414	0.6	413	415	16.9	77.5
2025-08-05T07:03	10	98	0.1	98	98	415	0.2	414	416	17.0	78.2
2025-08-05T07:04	10	98	0.1	98	98	416	0.3	415	416	17.0	78.3
2025-08-05T07:05	10	99	0.2	98	99	416	0.8	415	418	17.1	78.4
2025-08-05T07:06	10	100	0.6	99	101	418	0.4	417	419	17.3	78.3
2025-08-05T07:07	10	103	1.2	101	105	420	0.5	419	421	17.4	77.3
2025-08-05T07:08	10	108	1.6	105	111	421	0.4	420	422	17.5	75.2
2025-08-05T07:09	10	113	1.8	111	117	424	0.9	422	425	17.9	72.6
2025-08-05T07:10	10	119	1.7	116	122	427	0.9	425	428	18.2	71.1
2025-08-05T07:11	10	120	4.8	111	124	429	0.5	427	430	18.2	73.2
2025-08-05T07:12	10	113	5.2	98	119	429	0.3	428	429	18.3	72.6
2025-08-05T07:13	10	72	10.6	60	97	425	2.8	420	429	18.4	72.3
2025-08-05T07:14	10	56	2.5	52	60	420	1.2	419	423	18.4	73.3
2025-08-05T07:15	10	60	4.5	53	74	419	0.4	419	420	18.3	74.3
2025-08-05T07:16	10	84	5.5	75	93	423	1.1	420	424	18.4	73.5
2025-08-05T07:17	10	70	6.4	57	77	422	0.9	420	424	18.5	72.6
2025-08-05T07:18	10	50	3.9	43	56	419	1.5	416	422	18.6	69.9
2025-08-05T07:19	10	38	3.3	33	46	415	1.5	413	418	18.6	69.9
2025-08-05T07:20	10	31	1.2	29	34	413	0.9	411	414	18.6	70.9
2025-08-05T07:21	10	29	0.5	28	30	411	0.8	409	412	18.5	71.1
2025-08-05T07:22	10	27	0.4	26	28	409	0.6	408	410	18.5	70.6
2025-08-05T07:23	10	28	1.0	27	31	409	0.3	408	409	18.5	70.3
2025-08-05T07:24	10	60	27.6	31	104	412	3.4	408	419	18.6	70.8
2025-08-05T07:25	10	86	27.9	41	118	420	1.8	417	423	18.6	70.4
2025-08-05T07:26	10	85	25.1	46	117	421	2.8	417	426	18.6	70.3
2025-08-05T07:27	10	119	0.5	117	119	428	1.8	424	430	18.6	70.7
2025-08-05T07:28	10	109	10.3	88	120	430	0.8	428	431	18.7	70.4
2025-08-05T07:29	10	118	2.3	113	127	431	0.6	430	432	18.9	69.0
2025-08-05T07:30	10	119	1.0	117	121	433	0.5	432	434	19.0	68.3
2025-08-05T07:31	10	123	2.8	118	127	435	0.6	434	436	19.1	68.2
2025-08-05T07:32	10	129	1.6	126	132	436	0.4	435	437	19.2	68.0
2025-08-05T07:33	10	134	1.6	132	137	438	0.6	437	439	19.4	67.6
2025-08-05T07:34	10	118	8.4	106	134	438	0.9	437	440	19.8	66.2
2025-08-05T07:35	10	103	9.4	90	123	437	0.7	436	438	20.2	64.9
2025-08-05T07:36	10	116	10.4	100	137	439	1.1	437	442	20.2	66.0
2025-08-05T07:37	10	125	16.0	100	149	440	1.5	438	443	20.1	66.4
2025-08-05T07:38	10	135	10.8	118	153	444	0.6	443	445	20.1	65.6
2025-08-05T07:39	10	110	17.0	86	144	442	2.2	438	445	20.0	66.9
2025-08-05T07:40	10	98	5.3	87	106	438	0.6	437	439	20.3	65.1
2025-08-05T07:41	10	90	1.7	86	94	437	0.5	436	438	20.4	65.8
2025-08-05T07:42	10	92	3.4	87	101	437	0.6	436	438	20.1	66.6
2025-08-05T07:43	10	86	2.3	82	90	437	0.5	435	437	20.0	67.6
2025-08-05T07:44	10	85	3.6	81	92	436	0.4	436	438	20.0	68.4
2025-08-05T07:45	10	90	2.8	86	95	436	0.4	435	437	20.0	67.1
2025-08-05T07:46	10	86	1.9	83	91	435	0.3	434	436	19.9	66.3
2025-08-05T07:47	10	89	3.1	84	94	436	0.5	435	436	19.8	66.2
2025-08-05T07:48	10	89	4.4	85	100	437	0.4	436	437	19.8	67.0
2025-08-05T07:49	10	97	3.7	91	103	438	0.5	437	439	19.9	66.7
2025-08-05T07:50	10	99	4.8	94	112	439	0.6	438	441	20.0	66.9
2025-08-05T07:51	10	100	6.7	92	114	440	0.7	439	442	20.0	66.1
2025-08-05T07:52	10	110	10.0	88	125	443	0.7	441	444	20.2	67.0
2025-08-05T07:53	10	82	2.0	78	87	440	1.3	438	443	20.5	66.3
2025-08-05T07:54	10	80	1.4	78	83	439	0.4	438	439	20.6	64.8
2025-08-05T07:55	10	86	7.8	79	106	439	0.7	438	440	20.6	62.4
2025-08-05T07:56	10	83	2.1	80	88	439	0.3	438	440	20.6	61.4
2025-08-05T07:57	10	83	2.4	80	88	439	0.6	438	440	20.6	62.1
2025-08-05T07:58	10	86	9.6	77	109	439	0.8	437	440	20.5	62.2
2025-08-05T07:59	10	79	2.2	77	85	438	0.2	437	438	20.6	62.4
2025-08-05T08:00	10	80	1.8	77	83	438	0.4	438	439	20.8	63.8
2025-08-05T08:01	10	81	1.6	79	84	439	0.3	438	439	20.9	64.0
2025-08-05T08:02	10	85	5.1	79	99	440	0.7	439	441	21.0	64.2
2025-08-05T08:03	10	79	2.7	76	87	439	1.0	438	441	21.1	63.7
2025-08-05T08:04	10	79	2.4	76	85	438	0.2	438	439	21.0	62.4
2025-08-05T08:05	10	74	4.6	68	84	439	0.7	437	440	21.0	62.5
2025-08-05T08:06	10	67	0.9	66	69	437	0.6	435	438	21.0	60.0
2025-08-05T08:07	10	66	0.8	64	67	435	0.3	435	436	21.1	60.0
2025-08-05T08:08	10	64	0.3	63	65	435	0.3	434	436	21.3	59.8
2025-08-05T08:09	10	68	1.8	65	69	436	0.3	435	436	21.3	60.2
2025-08-05T08:10	10	70	0.6	69	71	437	0.3	436	437	21.2	60.3
2025-08-05T08:11	10	72	0.5	71	73	437	0.3	436	438	21.2	60.6
2025-08-05T08:12	10	74	0.6	73	75	438	0.5	437	439	21.2	60.4
2025-08-05T08:13	10	72	0.9	70	73	438	0.3	437	439	21.2	61.2
2025-08-05T08:14	10	70	0.7	68	71	438	0.3	437	439	21.2	61.3
2025-08-05T08:15	10	67	1.0	65	68	437	0.8	435	438	21.2	59.3
2025-08-05T08:16	10	66	0.6	65	67	436	0.3	436	437	21.2	58.7
2025-08-05T08:17	10	70	1.6	67	72	438	0.5	437	438	21.3	59.5
2025-08-05T08:18	10	74	0.8	72	75	438	0.3	437	439	21.3	60.2
2025-08-05T08:19	10	75	0.2	74	75	438	0.3	437	439	21.3	61.8
2025-08-05T08:20	10	74	0.2	74	75	439	0.7	438	440	21.2	62.5
2025-08-05T08:21	10	74	0.5	73	75	441	0.3	440	441	21.3	61.2
2025-08-05T08:22	10	74	1.7	72	78	440	0.4	439	441	21.2	59.7
2025-08-05T08:23	10	71	0.5	70	72	440	0.5	439	441	21.3	59.9
2025-08-05T08:24	10	71	0.1	70	71	440	0.3	439	440	21.4	59.5
2025-08-05T08:25	10	71	0.2	71	72	439	0.6	438	441	21.4	60.8
2025-08-05T08:26	10	72	0.6	72	73	439	0.2	438	439	21.2	60.7
2025-08-05T08:27	10	75	2.0	73	80	440	0.8	438	441	21.2	61.0
2025-08-05T08:28	10	74	0.3	74	75	441	0.2	440	441	21.2	60.2
2025-08-05T08:29	10	74	0.5	73	75	441	0.2	440	441	21.3	60.1
2025-08-05T08:30	10	71	1.1	70	74	441	0.3	441	442	21.4	60.4
2025-08-05T08:31	10	68	0.7	67	70	441	0.5	440	441	21.4	60.5
2025-08-05T08:32	10	66	0.7	65	67	440	0.5	439	441	21.6	60.0
2025-08-05T08:33	10	64	0.6	63	65	440	0.5	439	441	21.8	59.5
2025-08-05T08:34	10	62	0.6	61	63	438	0.4	438	439	21.7	57.7
2025-08-05T08:35	10	60	0.3	60	61	437	0.6	436	438	21.6	58.5
2025-08-05T08:36	10	60	0.3	59	60	437	0.4	436	437	21.5	58.7
2025-08-05T08:37	10	59	0.2	59	59	436	0.2	435	436	21.6	58.5
2025-08-05T08:38	10	61	1.0	59	63	437	0.5	436	438	21.6	58.8
2025-08-05T08:39	10	64	0.5	63	65	439	0.3	438	439	21.7	58.1
2025-08-05T08:40	10	67	1.7	64	70	438	0.3	438	439	21.7	58.1
2025-08-05T08:41	10	82	8.8	70	94	442	2.3	439	445	21.6	58.9
2025-08-05T08:42	10	81	2.2	78	85	444	0.2	444	445	21.7	57.9
2025-08-05T08:43	10	75	3.6	70	81	444	0.4	443	444	21.7	58.0
2025-08-05T08:44	10	67	1.6	65	70	442	0.5	441	443	21.7	57.8
2025-08-05T08:45	10	62	1.6	59	65	441	0.8	439	442	21.6	57.6
2025-08-05T08:46	10	57	1.5	55	60	439	0.3	439	440	21.7	57.7
2025-08-05T08:47	10	55	0.3	54	55	439	0.3	438	439	21.8	58.3
2025-08-05T08:48	10	59	3.6	55	69	440	0.5	439	441	21.9	57.9
2025-08-05T08:49	10	75	4.7	67	82	443	1.5	441	445	22.1	57.8
2025-08-05T08:50	10	95	15.9	71	121	447	2.5	443	451	22.1	57.8
2025-08-05T08:51	10	120	36.0	71	173	451	4.9	446	461	22.0	58.2
2025-08-05T08:52	10	166	18.2	132	189	463	4.0	457	470	22.1	58.2
2025-08-05T08:53	10	82	19.0	68	148	458	6.2	450	470	22.1	57.7
2025-08-05T08:54	10	135	47.2	69	190	457	7.1	449	468	22.3	57.5
2025-08-05T08:55	10	147	35.6	94	188	465	3.2	460	470	22.6	56.2
2025-08-05T08:56	10	157	18.2	121	184	470	1.9	466	472	22.8	55.9
2025-08-05T08:57	10	131	31.5	85	172	469	3.8	464	473	23.1	55.8
2025-08-05T08:58	10	84	16.3	69	120	460	3.9	453	466	23.1	55.8
2025-08-05T08:59	10	80	6.1	70	90	452	1.2	450	455	22.9	54.9
2025-08-05T09:00	10	77	13.2	65	115	450	1.9	448	454	22.8	55.3
2025-08-05T09:01	10	62	7.0	55	78	447	1.5	445	451	22.7	55.2
2025-08-05T09:02	10	47	2.9	44	58	443	2.3	439	448	22.7	56.0
2025-08-05T09:03	10	47	3.1	44	53	440	0.9	439	442	22.6	56.4
2025-08-05T09:04	10	153	30.4	49	179	453	8.6	437	464	22.6	56.0
2025-08-05T09:05	10	160	1.8	154	162	466	2.4	462	470	22.7	56.2
2025-08-05T09:06	10	113	48.0	40	161	465	6.5	454	472	23.0	55.8
2025-08-05T09:07	10	150	8.8	128	157	466	2.8	461	471	23.1	54.7
2025-08-05T09:08	10	154	0.5	153	155	470	0.9	468	471	23.0	54.1
2025-08-05T09:09	10	152	0.3	152	153	472	0.4	471	472	23.0	54.3
2025-08-05T09:10	10	151	0.4	151	152	473	0.8	472	475	23.1	54.5
2025-08-05T09:11	10	150	0.3	149	151	474	0.7	473	475	23.4	54.3
2025-08-05T09:12	10	149	0.1	149	150	473	0.6	472	474	23.5	53.9
2025-08-05T09:13	10	147	5.4	128	149	475	0.8	474	477	23.6	55.0
2025-08-05T09:14	10	148	2.2	135	149	476	0.9	474	478	23.9	54.9
2025-08-05T09:15	10	147	0.3	147	148	479	0.5	478	480	24.3	53.8
2025-08-05T09:16	10	147	0.2	146	148	478	0.5	477	479	24.1	52.1
2025-08-05T09:17	10	146	0.3	146	147	477	0.8	476	479	23.8	52.6
2025-08-05T09:18	10	145	1.6	140	147	478	0.4	477	479	23.9	53.5
2025-08-05T09:19	10	145	0.3	145	146	477	0.6	476	478	24.2	52.3
2025-08-05T09:20	10	145	0.2	144	145	477	0.8	476	479	23.9	52.3
2025-08-05T09:21	10	144	0.9	142	145	476	0.3	476	477	23.7	53.0
2025-08-05T09:22	10	143	0.2	143	144	479	0.8	477	480	24.0	53.4
2025-08-05T09:23	10	143	0.1	143	143	480	0.8	478	482	24.4	52.6
2025-08-05T09:24	10	143	0.2	143	144	478	0.8	476	479	24.2	51.2
2025-08-05T09:25	10	143	0.1	143	143	475	1.6	474	479	24.4	49.8
2025-08-05T09:26	10	143	0.1	143	144	476	0.9	475	478	24.0	49.8
2025-08-05T09:27	10	143	0.1	143	143	478	0.9	476	480	24.2	50.0
2025-08-05T09:28	10	143	0.1	143	143	477	0.6	475	478	24.2	50.0
2025-08-05T09:29	10	142	0.2	142	143	476	0.6	475	478	24.3	50.3
2025-08-05T09:30	10	142	0.1	142	142	478	0.4	477	479	24.3	48.6
2025-08-05T09:31	10	142	0.1	142	142	477	1.0	476	479	24.3	50.3
2025-08-05T09:32	10	142	0.1	142	142	478	0.7	477	479	24.3	50.3
2025-08-05T09:33	10	142	0.1	142	142	481	1.3	479	483	24.3	50.3
2025-08-05T09:34	10	142	0.1	142	142	480	0.8	479	481	24.3	50.3
2025-08-05T09:35	10	142	0.1	142	143	481	0.8	479	482	24.3	50.3
2025-08-05T09:36	10	142	0.1	142	143	483	0.6	482	484	24.4	50.5
2025-08-05T09:37	10	143	0.1	142	143	483	1.1	481	484	25.1	49.8
2025-08-05T09:38	10	143	0.1	143	143	483	0.7	481	484	25.1	49.4
2025-08-05T09:39	10	143	0.1	143	143	484	0.6	482	485	25.0	49.5
2025-08-05T09:40	10	143	0.1	143	143	484	0.4	483	484	24.8	49.7
2025-08-05T09:41	10	143	0.1	143	143	483	0.5	482	484	24.8	49.5
2025-08-05T09:42	10	143	0.2	143	144	483	0.4	482	484	24.7	49.9
2025-08-05T09:43	10	144	0.2	144	144	484	0.7	483	485	24.6	50.6
2025-08-05T09:44	10	144	0.2	144	145	483	0.5	483	485	24.4	51.2
2025-08-05T09:45	10	145	0.1	145	145	484	0.2	484	485	24.5	51.3
2025-08-05T09:46	10	145	0.1	145	145	486	0.9	485	487	24.8	52.1
2025-08-05T09:47	10	145	0.1	145	145	487	0.4	487	488	25.1	50.8
2025-08-05T09:48	10	145	0.1	145	146	489	0.8	487	490	25.3	51.1
2025-08-05T09:49	10	145	0.1	145	146	488	0.5	486	488	25.3	49.2
2025-08-05T09:50	10	145	0.1	145	146	488	0.6	487	489	25.3	48.7
2025-08-05T09:51	10	145	0.1	145	146	490	0.4	489	490	25.3	49.7
2025-08-05T09:52	10	145	0.1	145	146	490	0.6	489	491	25.2	50.7
2025-08-05T09:53	10	145	0.1	145	146	487	1.7	485	491	25.2	50.2
2025-08-05T09:54	10	145	0.2	145	146	485	0.8	484	486	24.8	50.1
2025-08-05T09:55	10	145	0.1	145	145	486	1.2	485	489	24.9	50.1
2025-08-05T09:56	10	145	0.1	145	145	490	0.7	488	491	25.3	50.3
2025-08-05T09:57	10	145	0.2	145	145	491	0.6	490	492	25.5	50.2
2025-08-05T09:58	10	145	0.1	145	146	490	0.9	489	492	25.6	49.4
2025-08-05T09:59	10	146	0.1	146	146	489	1.3	488	492	25.4	49.7
2025-08-05T10:00	10	146	0.1	146	146	489	0.5	488	491	25.3	48.7
2025-08-05T10:01	10	146	0.2	146	146	491	0.7	489	492	25.4	48.7
2025-08-05T10:02	10	146	0.1	146	147	493	0.3	492	493	25.5	48.5
2025-08-05T10:03	10	146	0.1	146	147	494	0.4	493	495	25.6	48.4
2025-08-05T10:04	10	147	0.1	146	147	493	0.4	492	494	25.5	48.2
2025-08-05T10:05	10	147	0.1	146	147	493	0.3	493	494	25.6	48.4
2025-08-05T10:06	10	147	0.1	147	147	493	0.3	493	494	25.6	48.8
2025-08-05T10:07	10	147	0.1	147	147	493	1.0	491	495	25.6	49.0
2025-08-05T10:08	10	147	0.1	147	147	494	1.2	491	496	25.6	49.6
2025-08-05T10:09	10	147	0.2	147	148	491	0.8	489	492	25.3	50.1
2025-08-05T10:10	10	147	0.1	147	148	493	0.6	492	494	25.4	50.4
2025-08-05T10:11	10	147	0.4	146	148	492	0.6	491	493	25.5	50.1
2025-08-05T10:12	10	147	0.8	145	148	492	1.5	490	495	25.8	49.0
2025-08-05T10:13	10	147	0.1	147	148	492	0.6	491	493	25.4	49.2
2025-08-05T10:14	10	148	0.2	147	148	493	0.4	492	494	25.5	48.8
2025-08-05T10:15	10	148	0.2	147	148	493	0.3	492	494	25.4	48.6
2025-08-05T10:16	10	148	0.2	148	149	494	0.5	493	495	25.6	48.6
2025-08-05T10:17	10	148	0.1	148	149	494	0.3	493	495	25.7	48.4
2025-08-05T10:18	10	149	0.1	148	149	496	0.6	495	497	25.9	49.0
2025-08-05T10:19	10	149	0.2	148	149	495	0.9	493	496	25.9	49.1
2025-08-05T10:20	10	148	0.1	148	148	493	0.8	491	494	26.0	48.4
2025-08-05T10:21	10	148	0.1	148	149	494	1.1	492	496	25.9	48.5
2025-08-05T10:22	10	149	0.1	149	149	493	1.1	492	495	25.7	48.5
2025-08-05T10:23	10	149	0.1	149	149	493	1.1	490	495	26.0	48.1
2025-08-05T10:24	10	149	0.1	149	150	490	0.7	489	491	25.8	46.7
2025-08-05T10:25	10	150	0.1	150	150	490	0.8	489	492	25.5	47.0
2025-08-05T10:26	10	150	0.1	150	150	495	1.4	492	497	25.8	47.2
2025-08-05T10:27	10	150	0.2	150	151	496	0.8	495	497	25.8	46.9
2025-08-05T10:28	10	151	0.1	151	151	496	0.6	495	497	25.7	46.9
2025-08-05T10:29	10	151	0.1	151	151	498	1.0	497	500	26.0	47.4
2025-08-05T10:30	10	151	0.2	151	152	501	0.6	499	502	26.2	47.1
2025-08-05T10:31	10	152	0.2	151	152	501	0.5	501	502	26.4	46.8
2025-08-05T10:32	10	153	0.4	152	153	496	2.6	494	503	26.4	46.7
2025-08-05T10:33	10	155	0.9	154	157	496	0.9	495	498	26.2	45.8
2025-08-05T10:34	10	159	1.5	156	161	500	1.0	498	502	26.1	45.2
2025-08-05T10:35	10	161	4.4	152	166	502	1.0	499	503	26.3	45.5
2025-08-05T10:36	10	165	4.2	150	167	504	0.5	503	505	26.5	44.6
2025-08-05T10:37	10	163	1.5	159	166	506	0.9	504	507	26.8	43.5
2025-08-05T10:38	10	164	0.2	164	165	507	0.6	506	508	26.8	42.8
2025-08-05T10:39	10	162	1.4	159	165	508	0.6	506	509	27.4	43.5
2025-08-05T10:40	10	163	1.0	162	165	507	1.6	504	509	26.9	41.3
2025-08-05T10:41	10	161	0.6	160	162	505	0.6	504	506	26.7	42.5
2025-08-05T10:42	10	159	0.4	159	160	503	1.1	501	505	26.6	44.4
2025-08-05T10:43	10	159	0.2	159	159	506	1.5	503	508	26.8	45.8
2025-08-05T10:44	10	159	0.4	159	160	504	1.7	500	506	26.9	43.9
2025-08-05T10:45	10	160	0.6	159	161	499	1.8	496	502	26.9	40.5
2025-08-05T10:46	10	162	0.4	161	163	498	1.7	496	501	27.3	40.1
2025-08-05T10:47	10	163	0.3	162	163	499	1.6	495	501	27.4	39.1
2025-08-05T10:48	10	164	0.3	163	164	495	1.0	493	497	27.0	38.7
2025-08-05T10:49	10	165	0.4	164	166	500	2.3	496	503	27.0	38.9
2025-08-05T10:50	10	166	0.3	165	167	497	2.8	494	502	26.9	39.1
2025-08-05T10:51	10	168	0.8	167	169	496	0.6	495	497	26.8	38.8
2025-08-05T10:52	10	171	1.2	169	173	498	1.3	496	501	26.9	39.4
2025-08-05T10:53	10	176	1.5	173	178	498	0.5	497	499	27.0	39.3
2025-08-05T10:54	10	182	1.9	178	185	500	1.0	498	502	26.9	39.4
2025-08-05T10:55	10	189	2.1	185	194	505	1.6	501	507	27.3	39.5
2025-08-05T10:56	10	160	37.4	95	198	503	3.9	494	509	27.1	38.6
2025-08-05T10:57	10	157	42.9	98	203	498	5.2	492	506	27.1	39.0
2025-08-05T10:58	10	109	29.8	81	194	493	7.4	483	506	26.9	39.2
2025-08-05T10:59	10	94	15.3	75	130	485	1.0	483	487	26.8	39.7
2025-08-05T11:00	10	149	39.9	72	205	492	5.7	481	500	26.9	39.6
2025-08-05T11:01	10	105	38.3	69	178	486	3.1	481	492	27.2	39.7
2025-08-05T11:02	10	163	22.5	129	195	496	3.7	490	505	27.1	39.8
2025-08-05T11:03	10	189	1.6	181	191	507	1.5	503	509	27.5	39.3
2025-08-05T11:04	10	193	1.0	191	194	508	2.1	504	512	27.5	39.3
2025-08-05T11:05	10	196	1.0	194	198	507	2.2	504	513	27.1	39.2
2025-08-05T11:06	10	190	19.9	91	201	515	1.5	512	518	27.0	39.6
2025-08-05T11:07	10	62	4.5	58	79	494	10.0	480	516	27.5	39.5
2025-08-05T11:08	10	61	1.3	59	63	478	2.2	475	483	27.0	39.7
2025-08-05T11:09	10	65	1.8	62	67	476	0.3	475	477	27.0	40.2
2025-08-05T11:10	10	74	4.2	68	84	476	0.7	475	477	27.1	40.4
2025-08-05T11:11	10	97	14.5	77	133	481	2.4	476	483	27.4	40.3
2025-08-05T11:12	10	81	4.1	77	93	476	1.6	474	480	27.2	39.6
2025-08-05T11:13	10	75	2.2	72	78	473	1.4	471	475	27.1	39.8
2025-08-05T11:14	10	106	24.6	77	196	475	2.9	471	484	27.1	39.9
2025-08-05T11:15	10	150	25.4	116	199	487	3.0	483	493	27.0	39.1
2025-08-05T11:16	10	124	12.4	86	151	487	1.9	482	490	27.1	39.2
2025-08-05T11:17	10	64	7.4	58	91	475	4.0	471	484	27.1	38.5
2025-08-05T11:18	10	141	40.1	81	203	483	7.5	472	492	26.9	38.8
2025-08-05T11:19	10	142	33.1	94	199	495	3.0	489	499	27.2	39.6
2025-08-05T11:20	10	185	11.7	135	194	501	3.7	492	506	27.3	39.5
2025-08-05T11:21	10	95	47.6	52	190	493	10.5	478	508	27.0	40.0
2025-08-05T11:22	10	58	9.8	50	88	477	3.1	473	482	26.9	40.1
2025-08-05T11:23	10	167	16.7	96	180	490	7.8	472	499	27.1	39.7
2025-08-05T11:24	10	164	2.4	159	170	500	1.0	497	501	27.2	39.7
2025-08-05T11:25	10	166	0.3	165	166	503	2.2	499	506	27.5	39.5
2025-08-05T11:26	10	168	2.1	158	171	504	0.6	503	505	27.8	38.0
2025-08-05T11:27	10	141	47.2	46	177	499	3.9	491	505	27.6	38.0
2025-08-05T11:28	10	134	28.8	79	176	496	2.5	492	503	27.4	38.4
2025-08-05T11:29	10	180	2.5	173	183	504	3.7	498	509	27.3	38.9
2025-08-05T11:30	10	173	18.4	126	188	504	2.2	501	508	27.5	38.4
2025-08-05T11:31	10	141	56.6	58	192	505	6.5	490	512	27.1	38.5
2025-08-05T11:32	10	119	42.1	59	178	498	5.7	489	506	27.2	39.1
2025-08-05T11:33	10	50	2.6	47	58	483	6.6	474	497	27.3	39.3
2025-08-05T11:34	10	47	1.1	46	53	472	1.7	470	476	26.9	40.0
2025-08-05T11:35	10	50	6.0	47	72	471	1.0	470	473	26.9	40.5
2025-08-05T11:36	10	49	1.9	47	52	470	0.3	469	470	27.0	40.8
2025-08-05T11:37	10	56	3.9	53	67	471	1.0	468	472	27.1	40.7
2025-08-05T11:38	10	53	0.3	53	54	470	0.3	469	470	27.2	42.9
2025-08-05T11:39	10	52	0.8	51	53	467	1.1	465	469	27.1	44.1
2025-08-05T11:40	10	50	0.5	49	51	466	0.3	465	466	26.9	44.6
2025-08-05T11:41	10	49	0.2	48	49	463	1.0	462	465	26.9	43.6
2025-08-05T11:42	10	49	0.5	48	50	460	0.8	459	462	26.6	41.5
2025-08-05T11:43	10	65	16.6	50	119	461	2.5	459	468	26.7	42.0
2025-08-05T11:44	10	92	13.4	75	120	470	2.4	466	474	26.8	41.9
2025-08-05T11:45	10	89	22.0	65	131	473	2.1	471	479	26.7	41.2
2025-08-05T11:46	10	56	9.3	50	104	470	3.6	465	478	26.8	41.4
2025-08-05T11:47	10	49	0.6	48	51	464	1.0	462	466	26.9	41.5
2025-08-05T11:48	10	48	0.5	47	49	460	1.1	458	462	26.9	41.1
2025-08-05T11:49	10	55	18.7	47	136	458	1.1	456	462	26.7	41.0
2025-08-05T11:50	10	185	9.3	144	193	478	8.4	459	489	26.5	41.2
2025-08-05T11:51	10	178	13.3	142	188	487	0.6	486	490	26.6	41.1
2025-08-05T11:52	10	185	0.4	185	186	496	3.1	488	499	26.6	41.0
2025-08-05T11:53	10	161	34.5	74	187	494	3.0	486	498	26.7	41.3
2025-08-05T11:54	10	108	44.8	67	193	484	3.1	478	489	26.9	40.8
2025-08-05T11:55	10	80	39.8	48	174	476	3.0	471	482	27.0	40.3
2025-08-05T11:56	10	47	0.8	45	49	467	3.2	462	473	27.0	40.4
2025-08-05T11:57	10	45	0.7	43	46	462	1.1	459	464	26.7	41.3
2025-08-05T11:58	10	44	0.6	44	45	459	0.5	458	460	26.5	41.5
2025-08-05T11:59	10	44	0.6	43	45	458	0.2	458	459	26.5	42.0
2025-08-05T12:00	10	43	0.1	43	44	458	0.3	457	459	26.6	42.0
2025-08-05T12:01	10	43	0.2	43	44	457	0.9	456	459	26.7	41.6
2025-08-05T12:02	10	46	2.2	43	51	456	0.6	455	458	26.6	41.3
2025-08-05T12:03	10	146	44.8	51	189	472	9.5	455	487	26.6	41.2
2025-08-05T12:04	10	96	56.9	36	187	479	7.9	465	488	26.6	40.5
2025-08-05T12:05	10	33	2.1	30	37	462	3.5	457	469	26.6	40.7
2025-08-05T12:06	10	30	0.5	30	32	456	0.7	455	458	26.6	41.1
2025-08-05T12:07	10	103	66.5	32	181	464	10.4	454	482	26.9	41.0
2025-08-05T12:08	10	126	37.3	68	181	479	2.8	474	484	26.9	40.9
2025-08-05T12:09	10	160	23.4	77	177	483	6.0	472	491	27.0	40.7
2025-08-05T12:10	10	169	1.5	167	172	492	1.3	489	494	27.0	40.7
2025-08-05T12:11	10	166	0.8	164	167	492	1.2	490	495	26.9	40.8
2025-08-05T12:12	10	163	0.5	163	164	494	0.8	493	495	27.0	41.0
2025-08-05T12:13	10	162	0.2	162	163	494	1.2	492	496	27.2	40.5
2025-08-05T12:14	10	162	0.2	161	162	495	1.6	492	497	26.9	40.5
2025-08-05T12:15	10	162	0.4	162	163	498	0.8	497	500	27.1	40.7
2025-08-05T12:16	10	164	1.0	163	167	499	0.5	498	500	27.3	40.3
2025-08-05T12:17	10	168	1.6	164	172	500	1.3	498	503	27.4	40.0
2025-08-05T12:18	10	135	28.8	96	173	492	5.5	484	500	27.2	40.3
2025-08-05T12:19	10	144	38.9	38	177	492	3.9	481	498	27.5	40.0
2025-08-05T12:20	10	34	1.3	32	38	472	5.7	464	485	26.9	40.9
2025-08-05T12:21	10	34	0.9	33	36	463	1.8	461	467	26.8	41.1
2025-08-05T12:22	10	40	2.2	36	44	462	0.5	461	462	27.0	40.9
2025-08-05T12:23	10	110	42.8	44	179	471	8.4	460	481	27.0	40.9
2025-08-05T12:24	10	115	43.0	60	187	476	3.7	472	486	26.9	40.8
2025-08-05T12:25	10	186	0.7	185	187	491	4.7	483	498	26.8	40.5
2025-08-05T12:26	10	176	9.8	155	185	500	1.7	497	502	27.0	40.5
2025-08-05T12:27	10	177	5.0	158	180	501	1.6	499	504	27.3	40.2
2025-08-05T12:28	10	181	1.1	179	184	503	0.9	501	504	27.1	40.3
2025-08-05T12:29	10	132	59.4	39	185	496	7.7	480	503	26.8	40.7
2025-08-05T12:30	10	42	3.7	39	50	476	3.5	471	484	26.9	40.9
2025-08-05T12:31	10	44	2.6	40	48	468	2.2	465	472	26.9	41.0
2025-08-05T12:32	10	41	2.3	37	47	462	1.9	460	466	26.9	41.0
2025-08-05T12:33	10	32	2.2	29	37	459	1.2	457	462	26.8	41.0
2025-08-05T12:34	10	31	0.9	29	32	457	0.9	455	458	26.8	41.0
2025-08-05T12:35	10	69	44.0	33	172	459	5.1	455	474	26.8	41.0
2025-08-05T12:36	10	154	31.5	49	173	478	4.0	469	484	27.0	40.5
2025-08-05T12:37	10	98	38.5	42	158	473	2.9	469	478	26.8	40.6
2025-08-05T12:38	10	165	1.0	161	166	485	4.5	475	491	27.0	40.5
2025-08-05T12:39	10	166	0.5	165	167	492	2.0	489	496	27.0	40.6
2025-08-05T12:40	10	166	0.6	165	167	495	1.2	493	498	27.3	40.3
2025-08-05T12:41	10	164	0.3	164	165	498	1.2	496	501	27.5	39.7
2025-08-05T12:42	10	164	0.1	163	164	499	1.2	498	502	27.5	39.6
2025-08-05T12:43	10	163	0.2	163	164	503	1.5	501	506	27.6	39.9
2025-08-05T12:44	10	164	0.2	163	164	500	1.2	499	504	27.8	39.4
2025-08-05T12:45	10	163	0.4	162	164	498	1.7	494	500	27.5	39.6
2025-08-05T12:46	10	161	0.6	160	162	496	1.1	495	499	27.5	39.3
2025-08-05T12:47	10	160	0.3	159	160	499	1.2	497	502	27.3	39.4
2025-08-05T12:48	10	159	0.5	158	159	500	1.0	497	502	27.5	39.9
2025-08-05T12:49	10	157	0.5	156	158	498	0.7	497	500	27.5	39.7
2025-08-05T12:50	10	156	0.3	155	156	499	0.7	498	501	27.8	39.0
2025-08-05T12:51	10	155	0.2	155	156	501	0.9	499	503	27.6	39.1
2025-08-05T12:52	10	154	0.2	154	155	501	1.9	498	504	27.7	39.3
2025-08-05T12:53	10	155	0.2	154	155	502	1.8	499	505	27.8	39.5
2025-08-05T12:54	10	154	2.0	147	155	503	2.2	499	506	27.9	39.0
2025-08-05T12:55	10	155	0.2	155	156	500	0.9	498	502	27.8	39.2
2025-08-05T12:56	10	155	0.2	154	155	501	0.6	500	502	27.7	39.3
2025-08-05T12:57	10	154	0.2	154	155	502	1.7	499	505	27.6	39.5
2025-08-05T12:58	10	153	0.2	153	154	499	3.1	494	505	27.6	39.6
2025-08-05T12:59	10	153	0.2	153	153	497	1.2	494	499	27.2	39.7
2025-08-05T13:00	10	152	0.1	152	153	498	1.1	495	500	27.3	40.0
2025-08-05T13:01	10	153	0.1	153	153	496	1.4	494	499	27.1	40.3
2025-08-05T13:02	10	154	0.7	152	155	502	1.3	499	504	27.6	40.0
2025-08-05T13:03	10	156	0.8	155	158	501	1.4	499	503	27.6	39.6
2025-08-05T13:04	10	160	1.4	158	163	500	1.3	499	504	27.6	39.6
2025-08-05T13:05	10	159	16.5	91	167	505	1.2	501	507	27.8	39.4
2025-08-05T13:06	10	65	16.7	49	112	490	6.8	480	504	28.1	39.0
2025-08-05T13:07	10	56	21.9	46	140	476	2.6	472	482	27.7	39.6
2025-08-05T13:08	10	177	14.1	138	186	492	8.2	475	503	27.7	39.7
2025-08-05T13:09	10	189	2.2	185	193	505	1.6	500	506	27.8	39.1
2025-08-05T13:10	10	175	24.7	107	198	502	2.4	498	506	27.7	39.3
2025-08-05T13:11	10	94	9.3	82	113	486	6.1	478	501	27.1	39.5
2025-08-05T13:12	10	83	2.5	81	91	479	0.9	478	481	27.3	39.7
2025-08-05T13:13	10	102	12.2	91	136	482	1.2	479	484	27.5	39.2
2025-08-05T13:14	10	117	16.9	94	152	488	2.5	483	492	28.0	38.2
2025-08-05T13:15	10	138	19.1	114	177	489	2.8	484	493	27.6	38.5
2025-08-05T13:16	10	129	5.9	123	144	487	1.2	485	490	27.2	39.9
2025-08-05T13:17	10	161	17.4	129	204	493	2.9	489	499	27.3	40.6
2025-08-05T13:18	10	141	21.1	122	212	495	1.3	494	499	27.5	41.6
2025-08-05T13:19	10	128	12.8	109	158	490	3.4	487	496	27.5	41.3
2025-08-05T13:20	10	156	13.4	132	187	490	1.4	487	493	27.2	41.7
2025-08-05T13:21	10	199	3.1	189	204	500	4.3	491	505	27.2	41.8
2025-08-05T13:22	10	193	3.2	185	198	507	1.2	503	509	27.8	41.2
2025-08-05T13:23	10	176	38.5	88	203	504	5.6	495	510	27.6	41.2
2025-08-05T13:24	10	161	36.6	86	204	499	4.5	487	506	27.6	40.7
2025-08-05T13:25	10	87	10.4	81	125	484	2.8	480	491	27.6	40.2
2025-08-05T13:26	10	146	39.2	92	209	488	6.7	480	500	27.6	40.2
2025-08-05T13:27	10	159	39.6	107	212	500	2.4	497	505	27.8	40.2
2025-08-05T13:28	10	120	25.0	96	188	491	6.5	483	504	27.6	39.6
2025-08-05T13:29	10	162	38.6	105	207	490	5.4	484	500	27.2	40.1
2025-08-05T13:30	10	172	22.1	107	199	498	1.9	494	501	27.5	40.0
2025-08-05T13:31	10	178	26.6	113	198	501	2.1	497	504	27.2	40.5
2025-08-05T13:32	10	187	5.4	169	196	506	2.7	502	511	27.5	40.7
2025-08-05T13:33	10	181	1.0	180	184	507	1.4	505	509	27.7	40.5
2025-08-05T13:34	10	127	43.2	60	180	503	4.5	493	510	27.8	40.3
2025-08-05T13:35	10	128	37.5	60	164	492	1.7	489	495	27.6	40.3
2025-08-05T13:36	10	143	22.3	91	168	490	2.4	484	495	27.1	40.5
2025-08-05T13:37	10	146	30.1	83	170	486	2.5	481	490	27.0	40.7
2025-08-05T13:38	10	167	1.1	166	169	491	1.2	488	492	27.0	40.0
2025-08-05T13:39	10	158	11.8	126	169	491	1.2	489	494	27.0	40.1
2025-08-05T13:40	10	160	8.0	142	170	494	2.0	490	497	27.4	39.8
2025-08-05T13:41	10	169	1.1	164	170	496	0.9	494	497	27.4	39.3
2025-08-05T13:42	10	169	0.2	168	169	493	1.2	491	495	27.1	39.3
2025-08-05T13:43	10	170	2.9	155	173	494	1.4	493	498	27.1	39.8
2025-08-05T13:44	10	154	21.6	98	181	494	2.4	487	497	27.0	40.4
2025-08-05T13:45	10	140	35.9	87	187	489	2.6	485	493	26.6	41.2
2025-08-05T13:46	10	154	23.6	116	195	490	2.7	485	495	26.8	41.0
2025-08-05T13:47	10	188	12.5	154	197	497	2.1	494	501	26.9	40.7
2025-08-05T13:48	10	121	40.3	90	199	490	7.9	481	502	26.8	40.1
2025-08-05T13:49	10	185	22.1	124	202	494	6.6	482	502	27.0	39.9
2025-08-05T13:50	10	187	13.7	156	203	500	1.2	498	502	27.2	39.3
2025-08-05T13:51	10	188	18.3	143	203	500	1.8	497	503	27.2	39.1
2025-08-05T13:52	10	115	31.4	86	174	493	4.7	486	499	27.4	38.9
2025-08-05T13:53	10	128	24.9	88	165	487	2.3	482	490	27.0	38.9
2025-08-05T13:54	10	97	17.0	83	152	482	2.4	479	489	26.8	39.1
2025-08-05T13:55	10	110	14.6	91	146	480	1.2	478	482	26.9	39.1
2025-08-05T13:56	10	83	3.4	78	95	475	2.7	471	482	26.7	39.5
2025-08-05T13:57	10	98	30.0	76	171	475	3.7	471	481	26.7	39.5
2025-08-05T13:58	10	77	2.4	74	82	474	1.1	472	476	26.8	39.7
2025-08-05T13:59	10	74	2.5	72	81	471	0.6	470	472	26.7	40.5
2025-08-05T14:00	10	83	15.2	73	127	472	1.9	470	476	26.8	40.9
2025-08-05T14:01	10	109	21.9	85	156	477	1.6	474	479	26.9	41.0
2025-08-05T14:02	10	137	30.7	87	202	484	4.2	475	489	26.9	41.3
2025-08-05T14:03	10	127	21.8	92	171	485	1.6	483	488	26.9	41.5
2025-08-05T14:04	10	136	36.7	84	179	485	4.0	479	491	27.1	41.1
2025-08-05T14:05	10	114	27.7	80	166	484	4.4	475	491	26.8	41.2
2025-08-05T14:06	10	87	10.9	77	110	476	1.3	474	479	27.0	40.8
2025-08-05T14:07	10	118	23.1	89	172	479	3.1	475	485	26.9	40.4
2025-08-05T14:08	10	98	32.0	65	157	482	3.7	475	487	27.0	40.2
2025-08-05T14:09	10	70	5.3	64	81	474	1.3	471	476	27.0	40.5
2025-08-05T14:10	10	108	39.1	70	181	473	4.2	469	481	26.8	39.5
2025-08-05T14:11	10	134	43.5	71	188	483	2.7	479	488	26.8	39.2
2025-08-05T14:12	10	70	2.5	68	76	475	2.3	472	480	27.1	38.7
2025-08-05T14:13	10	87	14.2	71	123	473	0.9	472	475	27.0	38.8
2025-08-05T14:14	10	131	34.7	82	176	475	4.6	469	484	26.6	38.8
2025-08-05T14:15	10	150	29.0	97	188	483	4.0	477	489	26.6	39.1
2025-08-05T14:16	10	152	19.4	119	179	486	1.3	484	490	26.8	39.0
2025-08-05T14:17	10	117	25.1	79	176	485	4.8	477	492	27.0	38.4
2025-08-05T14:18	10	77	5.6	71	90	475	1.9	472	479	26.9	38.4
2025-08-05T14:19	10	78	12.8	65	114	470	2.3	466	473	26.6	38.9
2025-08-05T14:20	10	65	1.0	64	68	465	0.8	464	467	26.6	38.9
2025-08-05T14:21	10	66	0.4	65	66	464	0.4	463	465	26.7	38.7
2025-08-05T14:22	10	64	0.9	64	67	463	0.6	463	465	26.7	38.2
2025-08-05T14:23	10	64	1.2	63	68	463	0.3	463	464	26.6	38.0
2025-08-05T14:24	10	64	0.4	64	65	462	0.4	462	464	26.6	38.2
2025-08-05T14:25	10	66	0.6	65	67	463	0.7	462	464	26.6	38.2
2025-08-05T14:26	10	69	1.5	67	73	464	1.3	461	466	26.7	38.4
2025-08-05T14:27	10	81	12.0	70	111	468	2.0	464	470	26.8	38.2
2025-08-05T14:28	10	108	38.0	75	178	473	4.8	467	481	26.9	38.0
2025-08-05T14:29	10	81	4.6	76	95	470	1.1	468	472	26.8	38.0
2025-08-05T14:30	10	71	2.4	68	75	467	1.1	465	469	26.7	38.1
2025-08-05T14:31	10	65	1.7	62	68	464	1.4	461	466	26.4	38.6
2025-08-05T14:32	10	61	0.9	59	63	461	0.6	460	462	26.3	39.1
2025-08-05T14:33	10	58	1.0	56	59	460	0.5	459	461	26.5	39.0
2025-08-05T14:34	10	53	1.2	51	56	458	1.0	456	460	26.4	39.2
2025-08-05T14:35	10	50	1.0	48	52	456	0.5	455	457	26.2	39.6
2025-08-05T14:36	10	48	0.2	47	49	455	0.4	455	456	26.3	39.9
2025-08-05T14:37	10	48	0.1	48	48	455	0.4	454	455	26.2	39.7
2025-08-05T14:38	10	47	0.5	46	48	455	0.4	454	456	26.2	40.0
2025-08-05T14:39	10	45	0.6	44	46	455	0.5	454	455	26.3	40.2
2025-08-05T14:40	10	43	0.5	42	44	453	0.5	452	454	26.3	40.5
2025-08-05T14:41	10	42	0.2	42	43	453	0.3	453	454	26.2	40.7
2025-08-05T14:42	10	44	0.9	43	46	452	0.7	451	454	26.2	40.5
2025-08-05T14:43	10	49	1.7	46	52	453	0.6	452	454	26.1	41.1
2025-08-05T14:44	10	56	2.9	52	61	454	0.5	453	455	26.1	41.1
2025-08-05T14:45	10	138	31.5	61	169	466	7.5	452	474	26.0	41.2
2025-08-05T14:46	10	156	14.0	122	167	477	2.6	472	481	26.1	41.2
2025-08-05T14:47	10	159	2.7	154	164	483	1.7	479	486	26.3	41.0
2025-08-05T14:48	10	150	3.6	138	154	484	0.7	483	485	26.3	40.9
2025-08-05T14:49	10	137	17.2	98	150	483	1.9	479	486	26.7	40.9
2025-08-05T14:50	10	116	26.4	75	152	478	3.5	472	483	26.6	40.8
2025-08-05T14:51	10	117	25.3	65	150	473	1.2	469	475	26.2	40.8
2025-08-05T14:52	10	53	22.6	36	106	464	4.9	457	471	26.1	40.9
2025-08-05T14:53	10	37	0.2	36	37	457	1.5	455	459	26.1	41.4
2025-08-05T14:54	10	38	0.7	37	40	455	1.0	453	456	26.2	41.2
2025-08-05T14:55	10	71	28.2	40	132	457	4.3	452	462	26.0	41.4
2025-08-05T14:56	10	141	17.1	77	150	471	6.3	459	479	26.1	42.0
2025-08-05T14:57	10	118	37.1	53	152	477	3.0	470	481	26.4	42.6
2025-08-05T14:58	10	47	6.0	41	61	466	3.4	460	472	26.5	42.8
2025-08-05T14:59	10	40	0.7	39	42	459	1.1	457	462	26.4	43.0
2025-08-05T15:00	10	40	0.7	39	41	455	1.6	453	457	26.1	43.9
2025-08-05T15:01	10	46	6.3	41	64	454	0.7	453	456	26.0	44.3
2025-08-05T15:02	10	40	0.5	39	41	452	0.8	451	453	25.8	44.8
2025-08-05T15:03	10	39	0.3	39	40	452	0.4	451	452	25.9	45.0
2025-08-05T15:04	10	38	0.2	38	39	451	0.4	450	452	26.0	44.7
2025-08-05T15:05	10	72	34.8	38	129	453	3.8	449	460	25.9	45.1
2025-08-05T15:06	10	78	24.5	45	119	458	1.1	457	460	25.9	45.2
2025-08-05T15:07	10	64	20.2	44	105	459	1.5	456	462	26.0	45.1
2025-08-05T15:08	10	46	4.3	43	59	454	0.5	454	456	25.9	45.1
2025-08-05T15:09	10	67	23.2	47	118	455	2.2	452	460	25.8	45.3
2025-08-05T15:10	10	55	10.3	43	78	456	1.9	453	459	25.8	45.3
2025-08-05T15:11	10	41	2.4	38	49	452	1.5	450	455	25.8	45.3
2025-08-05T15:12	10	38	0.7	37	39	449	0.4	449	450	25.5	45.5
2025-08-05T15:13	10	36	0.3	36	37	449	0.6	448	450	25.6	45.6
2025-08-05T15:14	10	36	0.1	36	36	448	0.7	447	449	25.6	45.7
2025-08-05T15:15	10	36	0.1	36	36	447	0.3	446	448	25.4	46.1
2025-08-05T15:16	10	36	0.1	35	36	447	0.3	446	447	25.5	46.3
2025-08-05T15:17	10	36	0.3	36	37	446	0.2	446	447	25.4	46.5
2025-08-05T15:18	10	36	0.1	36	37	447	0.3	446	447	25.3	46.5
2025-08-05T15:19	10	36	0.2	36	36	447	0.5	446	448	25.4	46.6
2025-08-05T15:20	10	36	0.2	35	36	447	0.6	446	448	25.4	46.5
2025-08-05T15:21	10	35	0.3	34	35	446	0.4	445	446	25.2	46.4
2025-08-05T15:22	10	34	0.2	34	34	445	0.4	445	446	25.1	46.5
2025-08-05T15:23	10	34	0.2	34	34	445	0.3	444	446	25.1	46.4
2025-08-05T15:24	10	35	0.4	34	35	445	0.2	444	445	25.1	46.2
2025-08-05T15:25	10	36	0.5	35	37	446	0.5	444	446	25.2	46.3
2025-08-05T15:26	10	38	0.6	37	39	446	0.5	445	447	25.1	46.1
2025-08-05T15:27	10	40	0.3	39	40	446	0.2	446	447	25.2	46.3
2025-08-05T15:28	10	41	0.4	40	41	447	0.4	446	447	25.2	46.0
2025-08-05T15:29	10	42	0.8	41	44	447	0.4	447	448	25.1	46.1
2025-08-05T15:30	10	45	1.0	44	47	448	0.6	446	449	25.1	46.3
2025-08-05T15:31	10	48	0.7	47	49	449	0.2	448	449	25.2	46.0
2025-08-05T15:32	10	50	0.2	49	50	449	0.5	448	450	25.2	46.3
2025-08-05T15:33	10	49	0.3	49	50	450	0.5	449	450	25.2	46.3
2025-08-05T15:34	10	48	0.5	47	49	450	0.5	449	451	25.2	46.4
2025-08-05T15:35	10	46	0.5	45	47	449	1.0	447	451	25.2	46.3
2025-08-05T15:36	10	45	0.1	45	46	447	0.3	446	448	25.0	46.7
2025-08-05T15:37	10	45	0.1	45	46	447	0.3	447	448	25.0	47.1
2025-08-05T15:38	10	46	0.4	46	47	448	0.3	447	449	25.1	47.2
2025-08-05T15:39	10	47	0.2	47	47	448	0.2	447	448	25.0	47.3
2025-08-05T15:40	10	47	0.2	47	47	448	0.4	448	449	25.1	47.4
2025-08-05T15:41	10	47	0.3	47	48	450	0.6	448	451	25.2	47.2
2025-08-05T15:42	10	48	0.3	48	49	449	0.6	448	450	25.2	47.2
2025-08-05T15:43	10	48	0.7	46	49	449	0.3	448	449	25.1	47.6
2025-08-05T15:44	10	45	0.5	45	46	448	0.4	447	449	25.1	47.7
2025-08-05T15:45	10	43	1.1	42	46	448	0.2	447	448	25.1	47.9
2025-08-05T15:46	10	42	0.4	42	43	448	0.4	447	448	25.1	48.0
2025-08-05T15:47	10	52	8.0	43	69	447	0.7	446	449	25.0	49.4
2025-08-05T15:48	10	53	2.5	49	58	448	0.5	447	449	25.0	50.0
2025-08-05T15:49	10	67	9.2	54	88	450	0.8	448	451	25.1	49.9
2025-08-05T15:50	10	53	11.5	43	78	451	1.1	449	453	25.0	50.2
2025-08-05T15:51	10	47	3.1	43	54	448	0.8	446	449	24.8	50.7
2025-08-05T15:52	10	58	8.4	46	75	448	0.8	446	449	24.7	51.2
2025-08-05T15:53	10	114	8.8	82	123	454	3.4	447	459	24.8	51.1
2025-08-05T15:54	10	112	8.6	90	120	459	1.0	458	461	24.8	50.4
2025-08-05T15:55	10	56	26.9	35	108	457	4.2	450	462	24.9	50.3
2025-08-05T15:56	10	34	1.1	32	36	449	1.3	447	452	24.8	50.6
2025-08-05T15:57	10	31	0.5	30	32	446	1.1	444	448	24.7	50.8
2025-08-05T15:58	10	30	0.4	29	31	444	0.4	443	445	24.6	51.5
2025-08-05T15:59	10	29	0.2	29	30	444	0.3	443	444	24.7	51.5
2025-08-05T16:00	10	31	1.4	29	35	443	0.4	442	444	24.7	51.6
2025-08-05T16:01	10	32	1.7	30	36	443	0.4	443	444	24.8	51.9
2025-08-05T16:02	10	33	3.6	31	50	443	0.4	442	444	24.8	52.0
2025-08-05T16:03	10	40	7.6	35	61	445	0.4	444	446	24.9	51.6
2025-08-05T16:04	10	51	20.9	35	90	445	2.3	443	451	24.8	51.3
2025-08-05T16:05	10	60	9.1	44	83	450	1.1	449	453	24.9	51.6
2025-08-05T16:06	10	99	5.0	87	107	454	0.9	451	456	24.9	50.6
2025-08-05T16:07	10	105	0.6	102	105	458	1.8	455	461	24.9	50.9
2025-08-05T16:08	10	107	0.8	105	108	462	0.9	460	463	25.1	50.4
2025-08-05T16:09	10	110	1.3	108	112	463	0.8	461	464	25.0	50.5
2025-08-05T16:10	10	113	1.5	111	116	463	1.1	461	465	25.1	50.1
2025-08-05T16:11	10	106	7.0	90	114	466	1.0	464	468	25.0	50.3
2025-08-05T16:12	10	88	17.1	59	110	466	1.4	464	468	25.2	50.3
2025-08-05T16:13	10	92	20.8	56	116	465	1.3	463	467	25.6	49.3
2025-08-05T16:14	10	100	15.7	74	115	466	2.1	464	470	25.5	49.3
2025-08-05T16:15	10	112	0.9	111	114	469	0.4	469	470	25.7	49.1
2025-08-05T16:16	10	109	1.0	108	111	467	1.5	464	470	25.6	49.0
2025-08-05T16:17	10	107	0.4	106	108	462	0.8	461	465	25.0	49.1
2025-08-05T16:18	10	103	6.5	86	107	465	0.9	463	466	25.3	49.1
2025-08-05T16:19	10	105	0.6	104	106	463	0.5	462	464	25.3	49.1
2025-08-05T16:20	10	103	0.3	103	104	463	0.9	461	465	25.5	48.6
2025-08-05T16:21	10	103	0.3	102	103	459	0.9	458	462	25.0	48.8
2025-08-05T16:22	10	102	0.2	102	102	459	0.4	458	460	24.9	49.2
2025-08-05T16:23	10	101	0.3	101	102	460	0.9	458	461	25.0	49.2
2025-08-05T16:24	10	100	0.1	100	101	459	1.2	457	461	25.1	48.8
2025-08-05T16:25	10	101	0.2	100	101	459	0.8	458	460	25.0	49.0
2025-08-05T16:26	10	101	0.1	101	101	463	1.6	460	465	25.4	48.7
2025-08-05T16:27	10	100	0.1	100	100	465	0.4	464	466	25.7	48.0
2025-08-05T16:28	10	100	1.9	95	102	463	1.3	461	466	25.4	48.0
2025-08-05T16:29	10	80	25.5	41	104	459	2.7	453	461	25.5	47.8
2025-08-05T16:30	10	38	1.2	37	41	451	1.7	449	455	25.0	47.9
2025-08-05T16:31	10	37	0.1	37	38	448	0.8	447	450	25.0	47.3
2025-08-05T16:32	10	38	0.1	37	38	448	0.8	447	450	25.0	48.3
2025-08-05T16:33	10	37	0.5	36	37	448	0.4	447	449	25.0	49.1
2025-08-05T16:34	10	35	0.6	34	36	446	0.6	445	447	24.8	49.5
2025-08-05T16:35	10	33	0.6	32	34	445	0.4	444	446	24.7	49.9
2025-08-05T16:36	10	31	0.4	31	32	445	0.4	444	446	24.8	49.7
2025-08-05T16:37	10	30	0.1	30	31	444	0.2	444	445	24.7	49.6
2025-08-05T16:38	10	30	0.1	30	30	443	0.5	442	444	24.7	49.2
2025-08-05T16:39	10	30	0.2	30	31	443	0.3	442	443	24.6	49.5
2025-08-05T16:40	10	31	0.1	31	31	443	0.3	442	444	24.6	49.3
2025-08-05T16:41	10	30	0.2	30	31	443	0.3	442	443	24.6	49.3
2025-08-05T16:42	10	30	0.4	29	30	443	0.2	442	443	24.6	49.3
2025-08-05T16:43	10	28	0.6	27	29	443	0.3	443	444	24.7	49.4
2025-08-05T16:44	10	26	0.5	25	27	443	0.3	442	443	24.8	49.0
2025-08-05T16:45	10	24	0.3	24	25	442	0.3	441	442	24.7	48.9
2025-08-05T16:46	10	23	0.2	23	24	441	0.2	440	442	24.7	48.6
2025-08-05T16:47	10	24	0.4	23	24	440	0.2	439	441	24.6	48.6
2025-08-05T16:48	10	27	1.3	25	30	441	0.3	440	441	24.7	48.5
2025-08-05T16:49	10	33	5.8	27	45	441	0.4	440	442	24.6	48.1
2025-08-05T16:50	10	29	3.0	26	35	440	0.6	439	441	24.5	48.0
2025-08-05T16:51	10	26	0.6	25	28	440	0.3	439	440	24.4	48.2
2025-08-05T16:52	10	26	0.1	25	26	440	0.2	439	440	24.5	47.7
2025-08-05T16:53	10	26	0.1	26	26	439	0.2	439	440	24.4	47.9
2025-08-05T16:54	10	26	0.1	26	26	439	0.3	438	440	24.4	48.0
2025-08-05T16:55	10	25	0.3	25	26	439	0.4	439	440	24.5	48.1
2025-08-05T16:56	10	25	0.3	24	25	439	0.3	439	440	24.5	47.9
2025-08-05T16:57	10	24	0.2	24	24	439	0.3	439	440	24.5	47.9
2025-08-05T16:58	10	23	0.2	23	24	439	0.3	438	440	24.5	47.6
2025-08-05T16:59	10	23	0.3	22	24	439	0.2	438	440	24.6	47.8
2025-08-05T17:00	10	22	0.2	22	23	439	0.2	439	440	24.7	47.9
2025-08-05T17:01	10	22	0.3	21	22	438	0.8	437	439	24.4	48.6
2025-08-05T17:02	10	21	0.4	20	22	437	0.4	436	438	24.3	49.1
2025-08-05T17:03	10	20	0.2	20	21	437	0.2	437	438	24.4	49.0
2025-08-05T17:04	10	22	2.2	20	29	437	0.3	437	438	24.4	49.1
2025-08-05T17:05	10	26	3.7	20	32	438	0.3	437	439	24.4	49.2
2025-08-05T17:06	10	22	2.0	20	26	438	0.2	437	438	24.4	49.0
2025-08-05T17:07	10	21	0.4	20	22	437	0.2	436	437	24.1	49.4
2025-08-05T17:08	10	21	0.8	20	24	437	0.2	436	437	24.2	49.5
2025-08-05T17:09	10	33	6.7	22	42	437	0.6	436	438	24.2	49.4
2025-08-05T17:10	10	44	6.9	34	55	439	0.7	437	440	24.3	48.6
2025-08-05T17:11	10	52	3.5	47	57	440	0.6	439	441	24.3	48.3
2025-08-05T17:12	10	53	3.6	47	59	441	0.3	440	442	24.3	48.6
2025-08-05T17:13	10	57	4.0	51	61	440	0.4	440	441	24.2	48.7
2025-08-05T17:14	10	61	0.1	61	61	441	0.4	441	442	24.2	49.2
2025-08-05T17:15	10	39	12.6	24	61	440	1.3	438	442	24.2	49.5
2025-08-05T17:16	10	46	6.8	35	54	439	0.8	438	440	24.1	49.7
2025-08-05T17:17	10	50	2.7	45	53	439	0.2	439	440	23.9	49.8
2025-08-05T17:18	10	57	1.7	52	59	439	0.3	439	440	23.9	50.4
2025-08-05T17:19	10	59	0.2	59	59	441	0.7	440	442	24.0	50.4
2025-08-05T17:20	10	59	0.2	59	59	441	0.3	440	442	24.0	50.3
2025-08-05T17:21	10	59	0.1	58	59	441	0.6	440	442	24.1	50.2
2025-08-05T17:22	10	59	0.1	58	59	441	0.4	440	442	24.1	50.3
2025-08-05T17:23	10	59	0.1	59	59	441	0.5	440	442	24.0	50.2
2025-08-05T17:24	10	59	0.2	59	60	440	0.2	440	440	23.9	49.9
2025-08-05T17:25	10	60	0.1	59	60	440	0.3	440	441	23.9	50.2
2025-08-05T17:26	10	60	0.1	60	60	441	0.3	440	441	24.0	50.4
2025-08-05T17:27	10	60	0.1	60	60	441	0.4	440	441	24.0	50.9
2025-08-05T17:28	10	59	0.3	58	60	441	0.5	440	442	23.9	51.2
2025-08-05T17:29	10	58	0.1	58	59	442	0.3	441	442	24.1	50.7
2025-08-05T17:30	10	59	0.1	58	59	441	0.3	441	442	23.9	50.5
2025-08-05T17:31	10	59	0.1	58	59	441	0.3	440	442	23.8	50.6
2025-08-05T17:32	10	59	0.1	59	59	442	0.3	441	442	23.8	51.4
2025-08-05T17:33	10	58	0.3	58	59	442	0.5	441	443	23.9	51.4
2025-08-05T17:34	10	57	0.5	56	58	442	0.5	441	443	24.1	50.9
2025-08-05T17:35	10	56	0.2	56	57	440	0.8	439	442	23.9	50.2
2025-08-05T17:36	10	56	0.2	55	56	439	0.5	438	440	23.7	50.4
2025-08-05T17:37	10	55	0.3	54	55	439	0.2	439	440	23.6	51.0
2025-08-05T17:38	10	53	0.4	53	54	440	0.3	439	440	23.8	51.0
2025-08-05T17:39	10	52	0.3	52	53	441	0.5	440	441	23.9	51.3
2025-08-05T17:40	10	51	0.2	51	52	441	0.3	441	442	24.0	50.4
2025-08-05T17:41	10	51	0.1	51	51	440	0.5	439	441	23.9	50.8
2025-08-05T17:42	10	51	0.2	50	51	439	0.2	439	439	23.8	51.3
2025-08-05T17:43	10	50	0.2	50	50	439	0.3	439	440	23.9	51.1
2025-08-05T17:44	10	49	0.3	49	50	440	0.3	440	441	24.0	51.0
2025-08-05T17:45	10	48	0.3	47	49	440	0.3	440	441	24.0	51.4
2025-08-05T17:46	10	47	0.3	47	48	440	0.3	439	440	24.0	51.5
2025-08-05T17:47	10	46	0.3	45	47	439	0.5	438	440	24.0	51.3
2025-08-05T17:48	10	45	0.3	45	46	438	0.8	436	439	24.0	51.1
2025-08-05T17:49	10	44	0.2	44	45	437	0.4	436	437	23.6	51.4
2025-08-05T17:50	10	43	0.3	43	44	436	0.3	435	437	23.6	51.8
2025-08-05T17:51	10	42	0.5	41	43	435	0.3	435	436	23.5	52.3
2025-08-05T17:52	10	40	0.5	39	41	435	0.2	435	436	23.6	52.3
2025-08-05T17:53	10	39	0.4	38	39	435	0.3	434	436	23.7	52.2
2025-08-05T17:54	10	37	0.4	36	38	434	0.7	432	435	23.6	52.1
2025-08-05T17:55	10	36	0.4	35	37	432	0.3	432	433	23.4	52.4
2025-08-05T17:56	10	35	0.4	34	35	432	0.3	431	433	23.4	52.5
2025-08-05T17:57	10	30	4.4	20	34	431	0.3	431	432	23.5	52.1
2025-08-05T17:58	10	17	2.7	14	25	430	0.5	429	432	23.5	52.4
2025-08-05T17:59	10	21	5.0	14	28	429	0.5	428	430	23.4	52.6
2025-08-05T18:00	10	14	0.9	13	17	428	0.3	428	429	23.4	52.7
2025-08-05T18:01	10	26	4.2	17	30	428	0.5	427	429	23.3	52.9
2025-08-05T18:02	10	28	1.1	26	30	429	0.2	428	429	23.3	52.8
2025-08-05T18:03	10	29	0.2	28	29	429	0.3	428	429	23.3	52.8
2025-08-05T18:04	10	29	0.2	29	29	429	0.3	428	429	23.3	53.0
2025-08-05T18:05	10	28	0.4	28	29	429	0.2	428	429	23.3	52.7
2025-08-05T18:06	10	28	0.2	28	28	429	0.2	428	429	23.3	53.0
2025-08-05T18:07	10	28	0.2	27	28	429	0.2	428	430	23.3	53.0
2025-08-05T18:08	10	27	0.2	27	28	429	0.2	428	429	23.3	53.0
2025-08-05T18:09	10	26	0.9	22	27	429	0.3	428	429	23.3	53.4
2025-08-05T18:10	10	17	2.0	14	22	428	0.4	427	429	23.2	53.8
2025-08-05T18:11	10	19	1.5	16	22	428	0.3	427	428	23.1	53.8
2025-08-05T18:12	10	16	1.8	14	20	427	0.3	427	428	23.2	53.8
2025-08-05T18:13	10	22	0.5	20	22	427	0.2	427	427	23.2	53.9
2025-08-05T18:14	10	22	0.2	22	22	427	0.3	426	428	23.1	54.0
2025-08-05T18:15	10	21	0.3	21	22	427	0.2	427	428	23.2	54.1
2025-08-05T18:16	10	20	0.4	19	21	427	0.2	426	427	23.0	54.3
2025-08-05T18:17	10	20	0.3	19	20	426	0.3	426	427	22.9	54.4
2025-08-05T18:18	10	19	0.2	18	19	426	0.3	425	427	22.9	54.7
2025-08-05T18:19	10	18	0.3	17	19	426	0.3	425	427	22.9	54.8
2025-08-05T18:20	10	17	0.3	17	18	426	0.2	425	426	22.9	55.0
2025-08-05T18:21	10	17	0.2	16	17	426	0.2	425	426	22.9	55.2
2025-08-05T18:22	10	16	0.2	16	16	425	0.3	425	426	22.9	55.2
2025-08-05T18:23	10	15	0.2	15	16	425	0.3	424	425	22.8	55.6
2025-08-05T18:24	10	15	0.4	14	15	424	0.2	424	425	22.7	55.9
2025-08-05T18:25	10	12	0.9	11	14	424	0.3	424	425	22.8	55.8
2025-08-05T18:26	10	10	0.7	9	11	423	0.2	423	424	22.8	55.6
2025-08-05T18:27	10	8	0.2	7	9	423	0.3	422	424	22.7	55.7
2025-08-05T18:28	10	7	0.1	7	8	422	0.2	422	423	22.8	55.8
2025-08-05T18:29	10	7	0.2	7	7	422	0.2	421	423	22.8	55.9
2025-08-05T18:30	10	7	0.1	6	7	422	0.2	421	422	22.8	55.5
2025-08-05T18:31	10	6	0.1	6	6	422	0.2	421	422	22.8	55.3
2025-08-05T18:32	10	6	0.1	6	6	422	0.3	421	423	22.8	55.1
2025-08-05T18:33	10	6	0.1	5	6	422	0.2	421	422	22.8	55.3
2025-08-05T18:34	10	5	0.1	5	6	421	0.2	421	422	22.7	55.5
2025-08-05T18:35	10	5	0.1	5	5	421	0.2	421	422	22.7	55.7
2025-08-05T18:36	10	5	0.1	4	5	421	0.3	420	421	22.7	56.0
2025-08-05T18:37	10	4	0.1	4	5	420	0.3	419	420	22.7	56.0
2025-08-05T18:38	10	4	0.1	4	4	419	0.3	419	420	22.6	56.0
2025-08-05T18:39	10	4	0.1	4	4	419	0.2	418	419	22.5	55.9
2025-08-05T18:40	10	3	0.1	3	4	418	0.2	418	419	22.5	56.2
2025-08-05T18:41	10	3	0.1	3	3	418	0.2	418	419	22.5	56.1
2025-08-05T18:42	10	3	0.1	3	3	418	0.3	418	419	22.5	56.2
2025-08-05T18:43	10	3	0.1	3	3	418	0.2	417	418	22.5	56.1
2025-08-05T18:44	10	3	0.1	3	3	417	0.2	417	418	22.5	56.3
2025-08-05T18:45	10	3	0.1	3	3	417	0.2	416	417	22.5	56.3
2025-08-05T18:46	10	3	0.1	2	3	417	0.3	416	418	22.5	56.5
2025-08-05T18:47	10	2	0.1	2	3	417	0.2	416	418	22.4	56.3
2025-08-05T18:48	10	2	0.1	2	3	417	0.2	416	417	22.4	56.1
2025-08-05T18:49	10	2	0.1	2	3	417	0.3	416	417	22.4	56.3
2025-08-05T18:50	10	2	0.2	2	3	416	0.4	415	417	22.4	56.6
2025-08-05T18:51	10	2	0.1	2	2	415	0.3	415	416	22.3	56.8
2025-08-05T18:52	10	2	0.2	1	2	414	0.2	414	415	22.3	56.8
2025-08-05T18:53	10	1	0.2	1	2	414	0.2	413	414	22.3	56.8
2025-08-05T18:54	10	1	0.2	1	2	413	0.3	413	414	22.3	57.0
2025-08-05T18:55	10	1	0.2	1	2	413	0.3	412	414	22.2	56.8
2025-08-05T18:56	10	1	0.2	1	1	414	0.4	413	414	22.2	56.0
2025-08-05T18:57	10	1	0.2	0	1	414	0.3	413	415	22.3	55.9
2025-08-05T18:58	10	1	0.2	0	1	414	0.4	414	415	22.1	56.4
2025-08-05T18:59	10	1	0.2	0	2	414	0.3	414	415	22.2	56.0
2025-08-05T19:00	10	1	0.2	0	1	414	0.3	414	415	22.2	56.1
2025-08-05T19:01	10	1	0.2	0	1	414	0.3	414	415	22.1	56.2
2025-08-05T19:02	10	0	0.2	0	1	413	0.5	412	414	22.1	56.7
2025-08-05T19:03	10	0	0.2	0	1	412	0.3	412	413	22.0	58.5
2025-08-05T19:04	10	0	0.1	0	1	412	0.3	412	413	21.8	60.4
2025-08-05T19:05	10	0	0.1	0	1	412	0.2	412	413	21.7	60.8
2025-08-05T19:06	10	0	0.1	0	1	412	0.2	411	412	21.6	61.3
2025-08-05T19:07	10	0	0.1	0	1	412	0.2	412	413	21.5	61.6
2025-08-05T19:08	10	0	0.1	0	0	412	0.3	411	412	21.6	61.0
2025-08-05T19:09	10	0	0.1	0	0	411	0.3	410	412	21.5	61.8
2025-08-05T19:10	10	0	0.0	0	0	411	0.3	410	411	21.4	62.7
2025-08-05T19:11	10	0	0.1	0	0	410	0.3	410	411	21.3	63.3
2025-08-05T19:12	10	0	0.1	0	0	411	0.2	410	411	21.3	63.7
2025-08-05T19:13	10	0	0.1	0	0	410	0.2	410	411	21.3	63.3
2025-08-05T19:14	10	0	0.1	0	0	410	0.3	409	411	21.3	63.4
2025-08-05T19:15	10	0	0.1	0	0	409	0.2	409	410	21.2	63.9
2025-08-05T19:16	10	0	0.1	0	0	409	0.2	408	409	21.2	64.0
2025-08-05T19:17	10	0	0.1	0	0	408	0.3	407	409	21.1	64.1
2025-08-05T19:18	10	0	0.1	0	0	408	0.2	407	408	21.2	63.7
2025-08-05T19:19	10	0	0.1	0	0	407	0.3	407	408	21.2	63.5
2025-08-05T19:20	10	0	0.0	0	0	407	0.2	406	407	21.2	63.1
2025-08-05T19:21	10	0	0.1	0	0	407	0.3	407	408	21.3	62.6
2025-08-05T19:22	10	0	0.1	0	0	407	0.2	407	408	21.3	62.5
2025-08-05T19:23	10	0	0.1	0	0	407	0.3	406	407	21.3	62.8
2025-08-05T19:24	10	0	0.1	0	0	406	0.3	405	407	21.2	63.0
2025-08-05T19:25	10	0	0.1	0	0	406	0.3	406	407	21.3	62.5
2025-08-05T19:26	10	0	0.1	0	0	407	0.2	406	407	21.4	62.2
2025-08-05T19:27	10	0	0.0	0	0	407	0.2	406	407	21.3	62.1
2025-08-05T19:28	10	0	0.1	0	0	407	0.4	406	408	21.3	61.4
2025-08-05T19:29	10	0	0.1	0	0	407	0.2	406	407	21.2	62.5
2025-08-05T19:30	10	0	0.1	0	0	407	0.4	406	408	21.1	62.7
2025-08-05T19:31	10	0	0.1	0	0	408	0.4	407	409	21.2	62.2
2025-08-05T19:32	10	0	0.1	0	0	408	0.4	408	409	21.1	62.2
2025-08-05T19:33	10	0	0.1	0	0	409	0.3	408	409	21.0	61.9
2025-08-05T19:34	10	0	0.1	0	0	408	0.2	408	409	21.0	61.8
2025-08-05T19:35	10	0	0.1	0	0	408	0.3	407	408	20.9	61.9
2025-08-05T19:36	10	0	0.1	0	0	408	0.3	407	409	20.9	61.4
2025-08-05T19:37	10	0	0.1	0	0	408	0.3	407	409	20.8	61.6
2025-08-05T19:38	10	0	0.1	0	0	408	0.2	408	409	20.9	60.4
2025-08-05T19:39	10	0	0.1	0	0	408	0.2	408	409	20.9	61.0
2025-08-05T19:40	10	0	0.1	0	0	408	0.2	408	408	20.8	61.3
2025-08-05T19:41	10	0	0.1	0	0	408	0.2	407	408	20.8	61.0
2025-08-05T19:42	10	0	0.1	0	0	408	0.4	407	409	20.7	61.3
2025-08-05T19:43	10	0	0.1	0	0	407	0.3	406	408	20.6	61.4
2025-08-05T19:44	10	0	0.1	0	0	407	0.2	406	407	20.7	60.6
2025-08-05T19:45	10	0	0.1	0	1	407	0.3	406	407	20.7	59.7
2025-08-05T19:46	10	0	0.1	0	0	406	0.4	405	407	20.6	59.6
2025-08-05T19:47	10	0	0.1	0	0	406	0.3	405	407	20.6	59.1
2025-08-05T19:48	10	0	0.1	0	0	406	0.4	405	407	20.6	59.2
2025-08-05T19:49	10	0	0.0	0	0	405	0.4	404	406	20.6	59.3
2025-08-05T19:50	10	0	0.1	0	0	405	0.3	404	406	20.5	59.4
2025-08-05T19:51	10	0	0.1	0	0	405	0.5	404	406	20.6	57.8
2025-08-05T19:52	10	0	0.1	0	0	405	0.4	404	406	20.6	57.8
2025-08-05T19:53	10	0	0.1	0	0	405	0.3	405	406	20.6	56.8
2025-08-05T19:54	10	0	0.1	0	0	404	0.4	403	405	20.5	58.0
2025-08-05T19:55	10	0	0.0	0	0	403	0.3	403	404	20.4	58.0
2025-08-05T19:56	10	0	0.0	0	0	403	0.3	402	404	20.5	56.9
2025-08-05T19:57	10	0	0.0	0	0	403	0.3	402	404	20.4	57.2
2025-08-05T19:58	10	0	0.1	0	0	403	0.2	403	404	20.4	57.1
2025-08-05T19:59	10	0	0.1	0	0	403	0.2	403	404	20.4	56.7
2025-08-05T20:00	10	0	0.1	0	0	403	0.5	402	404	20.3	57.2
2025-08-05T20:01	10	0	0.1	0	1	402	0.3	401	402	20.2	57.3
2025-08-05T20:02	10	0	0.2	0	1	402	0.2	401	402	20.2	57.3
2025-08-05T20:03	10	0	0.2	0	1	401	0.2	400	402	20.1	57.1
2025-08-05T20:04	10	0	0.2	0	0	400	0.3	400	401	20.2	57.0
2025-08-05T20:05	10	0	0.2	-1	1	399	0.3	398	400	20.1	57.3
2025-08-05T20:06	10	0	0.2	0	0	398	0.4	398	400	20.1	57.0
2025-08-05T20:07	10	0	0.2	-1	0	399	0.3	398	399	20.0	57.0
2025-08-05T20:08	10	0	0.2	-1	0	399	0.3	399	400	20.1	56.2
2025-08-05T20:09	10	0	0.2	0	0	399	0.3	398	400	20.1	56.6
2025-08-05T20:10	10	0	0.1	0	0	398	0.2	398	399	20.0	56.5
2025-08-05T20:11	10	0	0.1	0	0	397	0.4	396	398	20.0	56.8
2025-08-05T20:12	10	0	0.1	0	0	396	0.3	395	397	20.0	56.9
2025-08-05T20:13	10	0	0.1	0	0	396	0.4	395	397	19.9	57.4
2025-08-05T20:14	10	0	0.1	0	0	398	0.6	396	399	20.0	56.3
2025-08-05T20:15	10	0	0.1	0	0	398	0.3	397	398	20.1	56.6
2025-08-05T20:16	10	0	0.1	0	0	397	0.4	396	398	20.0	57.3
2025-08-05T20:17	10	0	0.1	0	0	397	0.3	396	398	20.0	57.5
2025-08-05T20:18	10	0	0.1	0	0	397	0.3	396	398	20.0	57.7
2025-08-05T20:19	10	0	0.1	0	0	398	0.7	396	399	20.0	57.0
2025-08-05T20:20	10	0	0.1	0	0	398	0.3	398	399	20.1	55.8
2025-08-05T20:21	10	0	0.1	0	0	398	0.3	397	398	20.0	56.4
2025-08-05T20:22	10	0	0.1	0	0	397	0.3	396	397	19.9	57.5
2025-08-05T20:23	10	0	0.1	0	0	396	0.3	395	397	19.8	59.0
2025-08-05T20:24	10	0	0.1	0	0	396	0.4	395	397	19.7	59.0
2025-08-05T20:25	10	0	0.1	0	0	397	0.3	396	398	19.9	57.9
2025-08-05T20:26	10	0	0.1	0	0	398	0.3	397	398	19.8	57.8
2025-08-05T20:27	10	0	0.1	0	0	398	0.5	396	398	19.8	57.9
2025-08-05T20:28	10	0	0.1	0	0	397	0.2	396	397	19.7	58.2
2025-08-05T20:29	10	0	0.0	0	0	396	0.5	396	397	19.7	58.0
2025-08-05T20:30	10	0	0.1	0	0	397	0.2	396	397	19.8	57.9
2025-08-05T20:31	10	0	0.1	0	0	396	0.3	395	397	19.8	58.5
2025-08-05T20:32	10	0	0.1	0	0	396	0.3	396	397	19.7	58.5
2025-08-05T20:33	10	0	0.1	0	0	396	0.5	395	397	19.8	58.0
2025-08-05T20:34	10	0	0.1	0	0	395	0.3	394	396	19.7	58.9
2025-08-05T20:35	10	0	0.1	0	0	394	0.2	394	395	19.6	59.3
2025-08-05T20:36	10	0	0.1	0	0	394	0.3	394	395	19.5	59.7
2025-08-05T20:37	10	0	0.1	0	0	394	0.3	393	394	19.4	60.0
2025-08-05T20:38	10	0	0.1	0	0	396	1.2	393	397	19.7	57.6
2025-08-05T20:39	10	0	0.1	0	0	398	0.4	397	398	19.9	56.3
2025-08-05T20:40	10	0	0.1	0	0	397	0.4	397	398	19.9	57.1
2025-08-05T20:41	10	0	0.1	0	0	398	0.9	397	400	19.7	57.7
2025-08-05T20:42	10	0	0.1	0	0	399	0.3	398	399	19.7	57.4
2025-08-05T20:43	10	0	0.1	0	0	398	0.4	398	399	19.8	56.7
2025-08-05T20:44	10	0	0.1	0	0	397	0.6	396	398	19.6	58.4
2025-08-05T20:45	10	0	0.1	0	0	397	0.3	396	397	19.4	59.0
2025-08-05T20:46	10	0	0.1	0	0	397	0.5	396	398	19.6	57.8
2025-08-05T20:47	10	0	0.1	0	0	398	0.7	397	399	19.7	56.9
2025-08-05T20:48	10	0	0.1	0	0	398	0.7	397	399	19.7	56.9
2025-08-05T20:49	10	0	0.1	0	0	398	0.5	397	399	19.5	57.4
2025-08-05T20:50	10	0	0.1	0	0	398	0.3	397	398	19.6	56.6
2025-08-05T20:51	10	0	0.1	0	0	397	0.5	396	398	19.6	57.1
2025-08-05T20:52	10	0	0.1	0	0	396	0.5	395	396	19.6	57.1
2025-08-05T20:53	10	0	0.1	0	0	395	0.2	394	395	19.5	57.6
2025-08-05T20:54	10	0	0.1	0	0	395	0.5	393	396	19.5	58.1
2025-08-05T20:55	10	0	0.1	0	0	394	0.3	393	394	19.3	59.2
2025-08-05T20:56	10	0	0.1	0	0	393	0.3	393	394	19.2	59.0
2025-08-05T20:57	10	0	0.1	0	0	393	0.3	392	393	19.2	59.5
2025-08-05T20:58	10	0	0.1	-1	0	392	0.2	392	393	19.2	59.3
2025-08-05T20:59	10	0	0.1	0	0	392	0.5	391	394	19.2	58.6
2025-08-05T21:00	10	0	0.1	0	0	393	0.3	392	394	19.4	56.0
2025-08-05T21:01	10	0	0.1	0	0	392	0.5	391	393	19.4	57.9
2025-08-05T21:02	10	0	0.1	0	0	390	0.3	390	391	19.2	58.4
2025-08-05T21:03	10	0	0.1	0	0	390	0.3	389	391	19.2	58.5
2025-08-05T21:04	10	0	0.1	0	0	389	0.4	388	389	19.1	59.0
2025-08-05T21:05	10	0	0.1	0	0	388	0.2	388	389	19.1	59.5
2025-08-05T21:06	10	0	0.1	0	0	388	0.6	386	389	19.0	59.6
2025-08-05T21:07	10	0	0.1	0	0	387	0.3	386	387	18.9	60.1
2025-08-05T21:08	10	0	0.1	0	0	387	0.4	386	388	18.7	61.4
2025-08-05T21:09	10	0	0.1	0	0	387	0.2	387	388	18.7	60.3
2025-08-05T21:10	10	0	0.1	0	0	387	0.3	386	387	18.8	60.4
2025-08-05T21:11	10	0	0.1	0	0	387	0.2	386	387	18.9	59.9
2025-08-05T21:12	10	0	0.1	0	0	387	0.3	386	387	18.9	59.5
2025-08-05T21:13	10	0	0.1	0	0	387	0.3	386	388	18.9	60.0
2025-08-05T21:14	10	0	0.1	0	0	387	0.3	386	387	18.8	60.6
2025-08-05T21:15	10	0	0.1	0	0	388	0.2	387	388	18.8	60.7
2025-08-05T21:16	10	0	0.1	0	0	388	0.2	387	388	18.8	60.4
2025-08-05T21:17	10	0	0.1	0	0	388	0.3	387	389	18.9	60.1
2025-08-05T21:18	10	0	0.1	0	0	389	0.2	388	389	18.8	60.4
2025-08-05T21:19	10	0	0.1	0	0	388	0.3	387	389	18.8	60.6
2025-08-05T21:20	10	0	0.1	0	0	387	0.4	387	388	18.7	61.1
2025-08-05T21:21	10	0	0.1	0	0	386	0.3	386	387	18.6	61.7
2025-08-05T21:22	10	0	0.1	0	0	386	0.3	385	387	18.5	61.8
2025-08-05T21:23	10	0	0.1	0	0	386	0.2	385	386	18.5	61.3
2025-08-05T21:24	10	0	0.1	0	0	385	0.2	385	386	18.6	59.8
2025-08-05T21:25	10	0	0.1	0	0	385	0.2	385	386	18.8	58.8
2025-08-05T21:26	10	0	0.1	0	0	385	0.2	384	385	18.9	58.4
2025-08-05T21:27	10	0	0.1	0	0	385	0.2	384	385	18.7	59.2
2025-08-05T21:28	10	0	0.1	0	0	385	0.3	384	386	18.7	59.3
2025-08-05T21:29	10	0	0.1	0	0	385	0.3	385	386	18.2	59.3
2025-08-05T21:30	10	0	0.1	0	0	386	0.4	385	387	18.7	59.3
2025-08-05T21:31	10	0	0.1	0	0	385	0.2	385	386	18.7	59.3
2025-08-05T21:32	10	0	0.1	0	0	386	1.2	384	388	18.7	59.3
2025-08-05T21:33	10	0	0.1	-1	0	387	0.4	387	388	18.7	59.3
2025-08-05T21:34	10	0	0.1	0	0	387	0.3	386	387	18.7	59.3
2025-08-05T21:35	10	0	0.1	0	0	386	0.3	386	387	18.9	57.4
2025-08-05T21:36	10	0	0.2	0	1	386	0.5	385	387	19.3	54.2
2025-08-05T21:37	10	0	0.2	0	1	385	0.4	384	386	19.1	55.6
2025-08-05T21:38	10	0	0.2	0	1	385	0.4	384	386	19.0	56.3
2025-08-05T21:39	10	0	0.2	0	0	385	0.4	385	386	18.7	57.7
2025-08-05T21:40	10	0	0.2	0	0	385	0.5	384	386	18.8	56.4
2025-08-05T21:41	10	0	0.1	0	0	386	0.3	385	386	18.9	55.7
2025-08-05T21:42	10	0	0.2	-1	0	385	0.4	384	386	18.8	56.1
2025-08-05T21:43	10	0	0.1	0	0	385	0.3	384	386	18.8	56.4
2025-08-05T21:44	10	0	0.1	0	0	384	0.4	384	385	18.8	55.9
2025-08-05T21:45	10	0	0.2	0	0	384	0.3	383	385	18.7	57.0
2025-08-05T21:46	10	0	0.2	-1	0	384	0.3	383	385	18.9	55.6
2025-08-05T21:47	10	0	0.1	0	0	384	0.3	383	384	18.9	55.7
2025-08-05T21:48	10	0	0.1	0	0	383	0.4	382	384	18.8	55.4
2025-08-05T21:49	10	0	0.1	0	0	383	0.3	382	383	18.8	56.0
2025-08-05T21:50	10	0	0.2	-1	0	383	0.4	382	384	18.6	57.2
2025-08-05T21:51	10	0	0.1	0	0	383	0.5	382	384	18.6	56.1
2025-08-05T21:52	10	0	0.1	0	0	384	0.4	383	385	18.8	55.3
2025-08-05T21:53	10	0	0.1	0	0	383	0.5	382	384	18.7	56.1
2025-08-05T21:54	10	0	0.2	-1	0	383	0.5	383	385	18.7	54.9
2025-08-05T21:55	10	0	0.1	0	0	384	0.3	384	385	18.8	55.0
2025-08-05T21:56	10	0	0.2	0	1	385	0.6	384	386	18.9	53.9
2025-08-05T21:57	10	0	0.1	0	0	386	0.3	385	386	18.8	54.4
2025-08-05T21:58	10	0	0.2	0	1	386	0.2	385	386	18.6	55.3
2025-08-05T21:59	10	0	0.1	0	0	385	0.2	384	385	18.7	55.0
2025-08-05T22:00	10	0	0.1	0	0	386	0.4	385	386	18.7	54.8
2025-08-05T22:01	10	0	0.0	0	0	387	0.8	386	388	18.7	54.7
2025-08-05T22:02	10	0	0.1	0	0	388	0.4	387	389	18.9	54.0
2025-08-05T22:03	10	0	0.1	0	0	388	0.3	388	389	18.7	54.8
2025-08-05T22:04	10	0	0.1	0	0	388	0.3	388	389	18.7	54.5
2025-08-05T22:05	10	0	0.1	0	0	389	0.9	388	391	18.8	53.9
2025-08-05T22:06	10	0	0.0	0	0	390	0.3	389	391	18.9	53.7
2025-08-05T22:07	10	0	0.0	0	0	391	0.3	390	391	19.0	52.8
2025-08-05T22:08	10	0	0.1	0	0	391	0.4	390	392	19.1	52.0
2025-08-05T22:09	10	0	0.1	0	0	391	0.4	391	392	19.0	52.6
2025-08-05T22:10	10	0	0.1	0	0	392	0.3	391	392	19.0	52.4
2025-08-05T22:11	10	0	0.1	0	0	391	0.5	390	392	18.9	53.3
2025-08-05T22:12	10	0	0.0	0	0	391	0.6	390	392	18.8	53.3
2025-08-05T22:13	10	0	0.1	0	0	392	0.3	391	393	18.9	52.9
2025-08-05T22:14	10	0	0.1	0	0	392	0.5	392	393	18.9	53.0
2025-08-05T22:15	10	0	0.1	0	0	393	0.4	392	394	18.9	53.0
2025-08-05T22:16	10	0	0.1	0	0	393	0.2	392	393	18.8	53.3
2025-08-05T22:17	10	0	0.1	0	0	393	0.2	392	393	18.9	53.1
2025-08-05T22:18	10	0	0.0	0	0	392	0.5	391	393	18.8	53.7
2025-08-05T22:19	10	0	0.1	0	0	391	0.3	390	391	18.7	53.8
2025-08-05T22:20	10	0	0.1	0	0	391	0.3	390	392	18.7	53.8
2025-08-05T22:21	10	0	0.1	0	0	391	0.3	390	391	18.7	53.7
2025-08-05T22:22	10	0	0.1	0	0	391	0.4	390	392	18.7	53.9
2025-08-05T22:23	10	0	0.1	0	0	391	0.5	390	392	18.6	54.6
2025-08-05T22:24	10	0	0.0	0	0	391	0.3	390	391	18.4	56.5
2025-08-05T22:25	10	0	0.1	0	0	390	0.3	390	391	18.3	56.3
2025-08-05T22:26	10	0	0.1	0	0	391	0.3	390	391	18.2	57.3
2025-08-05T22:27	10	0	0.1	0	0	391	0.3	390	391	18.1	57.3
2025-08-05T22:28	10	0	0.1	0	0	391	0.2	390	391	18.1	58.1
2025-08-05T22:29	10	0	0.1	0	0	390	0.3	390	391	17.9	59.5
2025-08-05T22:30	10	0	0.1	0	0	391	0.5	390	392	18.0	57.8
2025-08-05T22:31	10	0	0.1	0	0	392	0.3	391	392	18.2	56.7
2025-08-05T22:32	10	0	0.1	0	0	391	0.4	390	392	18.1	57.4
2025-08-05T22:33	10	0	0.1	0	0	391	0.4	390	391	18.1	57.5
2025-08-05T22:34	10	0	0.1	0	0	390	0.3	390	391	18.2	56.8
2025-08-05T22:35	10	0	0.1	0	0	390	0.2	389	390	18.2	56.4
2025-08-05T22:36	10	0	0.1	0	0	390	0.2	389	390	18.2	56.4
2025-08-05T22:37	10	0	0.1	0	0	389	0.2	389	390	18.3	56.3
2025-08-05T22:38	10	0	0.1	0	0	389	0.2	389	390	18.2	56.9
2025-08-05T22:39	10	0	0.1	0	0	389	0.2	388	389	18.4	55.7
2025-08-05T22:40	10	0	0.1	0	0	389	0.3	388	389	18.4	55.5
2025-08-05T22:41	10	0	0.1	0	0	388	0.4	387	389	18.4	55.8
2025-08-05T22:42	10	0	0.0	0	0	387	0.3	387	388	18.3	56.1
2025-08-05T22:43	10	0	0.1	0	0	387	0.3	386	387	18.3	56.1
2025-08-05T22:44	10	0	0.1	0	0	386	0.5	385	387	18.3	56.1
2025-08-05T22:45	10	0	0.1	0	0	385	0.3	384	386	18.2	56.8
2025-08-05T22:46	10	0	0.1	0	0	384	0.3	384	385	18.1	57.2
2025-08-05T22:47	10	0	0.1	0	0	384	0.2	384	385	18.1	57.0
2025-08-05T22:48	10	0	0.1	0	0	384	0.3	383	384	18.1	56.9
2025-08-05T22:49	10	0	0.1	0	0	384	0.4	383	385	18.1	57.0
2025-08-05T22:50	10	0	0.1	0	0	386	0.6	384	386	18.1	57.1
2025-08-05T22:51	10	0	0.1	0	0	386	0.3	386	387	18.2	56.7
2025-08-05T22:52	10	0	0.1	0	0	386	0.3	386	387	18.2	56.7
2025-08-05T22:53	10	0	0.1	0	0	387	0.3	386	387	18.1	57.2
2025-08-05T22:54	10	0	0.1	0	0	387	0.2	386	387	18.2	57.1
2025-08-05T22:55	10	0	0.1	0	0	387	0.2	386	387	18.2	57.2
2025-08-05T22:56	10	0	0.1	0	0	387	0.3	386	387	18.1	57.5
2025-08-05T22:57	10	0	0.1	0	0	386	0.5	384	387	18.0	58.0
2025-08-05T22:58	10	0	0.1	0	0	385	0.4	384	386	18.0	58.4
2025-08-05T22:59	10	0	0.1	0	0	385	0.3	385	386	18.1	58.0
2025-08-05T23:00	10	0	0.1	0	0	386	0.4	385	386	18.0	58.2
2025-08-05T23:01	10	0	0.1	0	0	385	0.3	385	386	18.0	58.3
2025-08-05T23:02	10	0	0.1	0	0	385	0.3	385	386	17.9	58.8
2025-08-05T23:03	10	0	0.1	0	0	385	0.3	384	385	17.9	58.8
2025-08-05T23:04	10	0	0.1	0	0	384	0.3	383	384	17.8	59.3
2025-08-05T23:05	10	0	0.1	0	0	384	0.2	383	384	17.8	59.7
2025-08-05T23:06	10	0	0.1	0	0	383	0.3	383	384	17.8	59.8
2025-08-05T23:07	10	0	0.1	0	0	383	0.3	382	384	17.8	59.4
2025-08-05T23:08	10	0	0.1	-1	0	383	0.2	383	384	17.8	59.5
2025-08-05T23:09	10	0	0.1	0	0	383	0.3	382	383	17.8	59.5
2025-08-05T23:10	10	0	0.1	0	0	382	0.3	382	383	17.8	59.7
2025-08-05T23:11	10	0	0.1	0	0	382	0.3	381	382	17.8	59.3
2025-08-05T23:12	10	0	0.1	0	0	381	0.3	381	382	17.8	59.3
2025-08-05T23:13	10	0	0.1	0	0	381	0.4	380	381	17.7	59.7
2025-08-05T23:14	10	0	0.1	0	0	380	0.3	379	380	17.7	59.9
2025-08-05T23:15	10	0	0.1	0	0	379	0.3	378	380	17.7	59.8
2025-08-05T23:16	10	0	0.1	0	0	378	0.4	377	379	17.7	59.9
2025-08-05T23:17	10	0	0.1	0	0	378	0.2	377	378	17.7	59.9
2025-08-05T23:18	10	0	0.1	0	0	377	0.2	376	377	17.7	59.9
2025-08-05T23:19	10	0	0.1	0	0	377	0.3	376	377	17.7	59.8
2025-08-05T23:20	10	0	0.1	0	0	377	0.5	376	378	17.6	59.9
2025-08-05T23:21	10	0	0.1	0	0	378	0.4	378	379	17.7	59.4
2025-08-05T23:22	10	0	0.1	0	0	378	0.4	377	379	17.7	59.8
2025-08-05T23:23	10	0	0.1	0	0	378	0.3	377	379	17.6	60.3
2025-08-05T23:24	10	0	0.1	0	0	378	0.6	377	380	17.6	60.0
2025-08-05T23:25	10	0	0.1	0	0	379	0.4	378	380	17.5	60.4
2025-08-05T23:26	10	0	0.1	0	0	378	0.3	377	378	17.5	60.7
2025-08-05T23:27	10	0	0.1	0	0	377	0.3	376	378	17.4	60.9
2025-08-05T23:28	10	0	0.1	0	0	376	0.3	376	377	17.5	60.7
2025-08-05T23:29	10	0	0.1	0	0	376	0.2	376	377	17.4	61.2
2025-08-05T23:30	10	0	0.1	0	0	376	0.2	376	377	17.4	60.7
2025-08-05T23:31	10	0	0.1	0	0	376	0.5	376	378	17.4	60.9
2025-08-05T23:32	10	0	0.1	0	0	378	0.3	377	379	17.3	61.3
2025-08-05T23:33	10	0	0.1	0	0	377	0.3	377	378	17.4	61.0
2025-08-05T23:34	10	0	0.1	0	0	379	0.7	378	380	17.6	60.3
2025-08-05T23:35	10	0	0.1	0	0	381	0.3	380	381	17.6	60.4
2025-08-05T23:36	10	0	0.1	0	0	381	0.2	380	381	17.5	60.7
2025-08-05T23:37	10	0	0.1	0	0	381	0.2	380	381	17.5	60.9
2025-08-05T23:38	10	0	0.1	0	0	381	0.3	380	381	17.4	61.2
2025-08-05T23:39	10	0	0.1	0	0	381	0.2	380	381	17.4	61.5
2025-08-05T23:40	10	0	0.1	0	0	381	0.4	380	381	17.3	62.1
2025-08-05T23:41	10	0	0.1	0	0	381	0.3	380	381	17.1	63.1
2025-08-05T23:42	10	0	0.1	0	0	380	0.2	380	381	17.0	63.3
2025-08-05T23:43	10	0	0.1	0	0	380	0.2	379	380	17.0	63.2
2025-08-05T23:44	10	0	0.1	0	0	379	0.3	378	380	17.0	63.5
2025-08-05T23:45	10	0	0.1	0	0	378	0.3	378	379	17.0	63.7
2025-08-05T23:46	10	0	0.1	0	0	378	0.3	378	379	16.9	64.2
2025-08-05T23:47	10	0	0.1	0	0	378	0.4	377	379	16.9	64.5
2025-08-05T23:48	10	0	0.1	0	0	378	0.5	377	379	16.9	64.2
2025-08-05T23:49	10	0	0.1	0	0	379	0.2	378	379	17.0	63.4
2025-08-05T23:50	10	0	0.1	0	0	379	0.2	378	379	17.0	63.2
2025-08-05T23:51	10	0	0.1	0	0	379	0.3	379	380	17.0	63.3
2025-08-05T23:52	10	0	0.8	0	5	380	0.3	379	380	17.0	63.0
2025-08-05T23:53	10	0	0.1	0	0	380	0.3	379	380	17.1	62.5
2025-08-05T23:54	10	0	0.1	0	0	380	0.2	379	380	17.1	62.2
2025-08-05T23:55	10	0	0.1	0	0	380	0.2	379	380	16.9	64.2
2025-08-05T23:56	10	0	0.1	0	0	379	0.2	379	380	16.4	65.8
2025-08-05T23:57	10	0	0.1	0	0	379	0.3	378	380	16.2	66.9
2025-08-05T23:58	10	0	0.1	0	0	379	0.2	378	379	16.0	68.6
2025-08-05T23:59	10	0	0.1	0	0	379	0.2	378	379	16.1	67.7
2025-08-06T00:00	10	0	0.1	0	0	378	0.2	378	379	16.1	68.5
2025-08-06T00:01	10	0	0.1	0	0	379	0.6	378	380	15.9	70.1
2025-08-06T00:02	10	0	0.1	0	0	380	0.3	379	380	16.2	67.2
2025-08-06T00:03	10	0	0.1	0	0	380	0.4	379	381	16.3	66.6
2025-08-06T00:04	10	0	0.1	0	0	380	0.4	380	381	16.1	67.8
2025-08-06T00:05	10	0	0.1	0	0	381	0.2	380	381	16.2	67.1
2025-08-06T00:06	10	0	0.1	0	0	380	0.3	380	381	16.1	67.6
2025-08-06T00:07	10	0	0.1	0	0	381	0.3	380	381	16.2	66.9
2025-08-06T00:08	10	0	0.0	0	0	380	0.2	380	381	15.9	68.9
2025-08-06T00:09	10	0	0.1	0	0	380	0.2	380	381	16.0	67.5
2025-08-06T00:10	10	0	0.1	0	0	380	0.2	379	380	15.9	68.9
2025-08-06T00:11	10	0	0.1	0	0	380	0.2	379	380	15.8	69.1
2025-08-06T00:12	10	0	0.1	0	0	379	0.3	379	380	15.7	70.1
2025-08-06T00:13	10	0	0.1	0	0	379	0.2	378	379	15.6	71.0
2025-08-06T00:14	10	0	0.1	0	0	379	0.4	378	379	16.0	68.0
2025-08-06T00:15	10	0	0.1	0	0	379	0.2	378	379	16.4	65.9
2025-08-06T00:16	10	0	0.1	0	0	378	0.2	377	378	16.4	66.0
2025-08-06T00:17	10	0	0.1	0	0	378	0.4	377	379	16.4	65.3
2025-08-06T00:18	10	0	0.1	0	0	378	0.2	377	378	16.6	64.1
2025-08-06T00:19	10	0	0.1	0	0	377	0.4	376	378	16.7	64.3
2025-08-06T00:20	10	0	0.1	0	0	376	0.7	375	377	16.4	66.2
2025-08-06T00:21	10	0	0.1	0	0	375	0.5	374	376	16.0	69.7
2025-08-06T00:22	10	0	0.1	0	1	374	0.3	374	375	15.5	72.2
2025-08-06T00:23	10	0	0.1	0	0	374	0.2	374	375	15.7	70.6
2025-08-06T00:24	10	0	0.1	0	0	374	0.3	374	375	15.6	72.1
2025-08-06T00:25	10	0	0.1	-1	0	374	0.2	373	374	15.6	71.6
2025-08-06T00:26	10	0	0.1	0	0	374	0.3	373	374	15.6	71.3
2025-08-06T00:27	10	0	0.1	-1	0	374	0.4	373	375	15.7	70.7
2025-08-06T00:28	10	0	0.1	-1	0	373	0.2	373	374	15.4	73.5
2025-08-06T00:29	10	0	0.2	-1	0	373	0.2	372	374	15.3	73.6
2025-08-06T00:30	10	0	0.1	0	0	373	0.2	372	374	15.4	72.8
2025-08-06T00:31	10	0	0.2	-1	0	373	0.3	372	373	15.6	71.2
2025-08-06T00:32	10	0	0.2	-1	0	372	0.2	371	373	15.0	75.8
2025-08-06T00:33	10	0	0.1	0	0	371	0.3	370	372	14.8	76.7
2025-08-06T00:34	10	0	0.2	-1	0	371	0.3	370	371	14.8	77.3
2025-08-06T00:35	10	0	0.2	-1	0	370	0.2	370	371	14.7	78.1
2025-08-06T00:36	10	0	0.1	-1	0	370	0.2	369	370	14.5	79.2
2025-08-06T00:37	10	0	0.2	-1	0	369	0.3	369	370	14.4	79.6
2025-08-06T00:38	10	0	0.1	-1	0	369	0.2	368	369	14.4	79.8
2025-08-06T00:39	10	0	0.2	-1	0	368	0.2	368	369	14.4	79.7
2025-08-06T00:40	10	0	0.1	-1	0	368	0.2	367	368	14.4	79.4
2025-08-06T00:41	10	0	0.1	0	0	368	0.2	367	368	14.4	79.1
2025-08-06T00:42	10	0	0.1	0	0	367	0.3	367	368	14.4	79.2
2025-08-06T00:43	10	0	0.1	-1	0	367	0.3	366	368	14.5	78.4
2025-08-06T00:44	10	0	0.1	-1	0	368	0.3	367	368	14.9	75.4
2025-08-06T00:45	10	0	0.1	0	0	368	0.3	367	368	15.3	73.0
2025-08-06T00:46	10	0	0.1	0	0	368	0.3	367	368	15.4	72.7
2025-08-06T00:47	10	0	0.1	0	0	368	0.3	367	368	15.4	72.6
2025-08-06T00:48	10	0	0.0	0	0	367	0.2	367	368	15.3	73.4
2025-08-06T00:49	10	0	0.1	0	0	367	0.2	367	368	15.4	72.5
2025-08-06T00:50	10	0	0.0	0	0	367	0.2	367	368	15.4	72.3
2025-08-06T00:51	10	0	0.0	0	0	368	0.4	367	369	15.4	71.6
2025-08-06T00:52	10	0	0.0	0	0	368	0.3	367	368	15.7	69.5
2025-08-06T00:53	10	0	0.0	0	0	368	0.2	367	368	15.9	68.8
2025-08-06T00:54	10	0	0.0	0	0	368	0.3	367	368	15.8	69.2
2025-08-06T00:55	10	0	0.0	0	0	368	0.2	367	368	15.9	68.7
2025-08-06T00:56	10	0	0.1	0	0	368	0.3	367	368	15.9	68.5
2025-08-06T00:57	10	0	0.0	0	0	368	0.2	367	368	15.9	68.7
2025-08-06T00:58	10	0	0.0	0	0	368	0.3	367	368	15.8	69.9
2025-08-06T00:59	10	0	0.0	0	0	369	0.3	368	369	15.6	70.9
2025-08-06T01:00	10	0	0.0	0	0	369	0.2	369	370	15.6	70.4
2025-08-06T01:01	10	0	0.1	0	0	370	0.2	369	370	15.7	70.1
2025-08-06T01:02	10	0	0.0	0	0	370	0.3	369	370	15.7	69.8
2025-08-06T01:03	10	0	0.1	0	0	370	0.2	370	371	15.8	69.5
2025-08-06T01:04	10	0	0.0	0	0	371	0.3	370	371	15.8	69.1
2025-08-06T01:05	10	0	0.0	0	0	371	0.2	370	371	15.8	68.9
2025-08-06T01:06	10	0	0.0	0	0	371	0.2	370	371	15.9	68.6
2025-08-06T01:07	10	0	0.1	0	0	371	0.3	371	372	15.9	68.4
2025-08-06T01:08	10	0	0.1	0	0	371	0.2	371	372	15.9	68.8
2025-08-06T01:09	10	0	0.0	0	0	371	0.2	371	372	15.8	68.9
2025-08-06T01:10	10	0	0.1	0	0	371	0.2	371	371	15.8	68.5
2025-08-06T01:11	10	0	0.1	0	0	371	0.2	371	372	15.9	68.1
2025-08-06T01:12	10	0	0.1	0	0	371	0.2	371	372	15.9	68.2
2025-08-06T01:13	10	0	0.1	0	0	371	0.3	371	372	15.9	68.2
2025-08-06T01:14	10	0	0.1	0	0	371	0.3	370	372	15.9	68.1
2025-08-06T01:15	10	0	0.1	0	0	371	0.2	370	372	15.9	67.9
2025-08-06T01:16	10	0	0.1	0	0	372	0.5	371	373	15.9	68.1
2025-08-06T01:17	10	0	0.1	0	0	373	0.2	372	374	15.9	68.0
2025-08-06T01:18	10	0	0.1	0	0	373	0.2	373	374	15.9	68.4
2025-08-06T01:19	10	0	0.1	0	0	373	0.3	373	374	15.9	68.4
2025-08-06T01:20	10	0	0.1	0	0	373	0.2	373	373	15.9	68.7
2025-08-06T01:21	10	0	0.1	0	0	373	0.3	372	374	15.9	68.7
2025-08-06T01:22	10	0	0.1	0	0	373	0.3	372	373	15.9	68.6
2025-08-06T01:23	10	0	0.1	0	0	372	0.3	372	373	15.9	68.6
2025-08-06T01:24	10	0	0.1	0	0	372	0.2	372	373	15.9	68.7
2025-08-06T01:25	10	0	0.1	0	0	372	0.3	371	372	15.9	68.9
2025-08-06T01:26	10	0	0.1	0	0	371	0.2	370	371	15.8	69.3
2025-08-06T01:27	10	0	0.1	0	0	370	0.2	370	371	15.8	69.5
2025-08-06T01:28	10	0	0.1	0	0	370	0.3	369	371	15.8	69.7
2025-08-06T01:29	10	0	0.1	0	0	370	0.3	369	370	15.7	69.9
2025-08-06T01:30	10	0	0.1	0	0	369	0.3	369	370	15.7	70.0
2025-08-06T01:31	10	0	0.1	0	0	369	0.3	368	369	15.7	70.3
2025-08-06T01:32	10	0	0.1	0	0	368	0.3	368	369	15.6	70.5
2025-08-06T01:33	10	0	0.1	0	0	368	0.2	368	369	15.6	70.7
2025-08-06T01:34	10	0	0.1	0	0	368	0.2	367	368	15.6	70.9
2025-08-06T01:35	10	0	0.1	0	0	368	0.2	367	368	15.6	71.0
2025-08-06T01:36	10	0	0.1	0	0	367	0.3	367	368	15.6	70.9
2025-08-06T01:37	10	0	0.1	0	0	367	0.2	367	368	15.5	71.1
2025-08-06T01:38	10	0	0.1	0	0	367	0.2	366	367	15.5	71.2
2025-08-06T01:39	10	0	0.1	0	0	366	0.3	366	367	15.5	71.1
2025-08-06T01:40	10	0	0.1	-1	0	366	0.2	366	367	15.5	71.1
2025-08-06T01:41	10	0	0.1	-1	0	366	0.3	365	366	15.5	71.4
2025-08-06T01:42	10	0	0.1	0	0	366	0.2	365	366	15.5	70.6
2025-08-06T01:43	10	0	0.1	-1	0	366	0.3	365	367	15.5	71.3
2025-08-06T01:44	10	0	0.1	-1	0	366	0.2	366	367	15.4	71.2
2025-08-06T01:45	10	0	0.1	-1	0	366	0.2	365	366	15.4	71.2
2025-08-06T01:46	10	0	0.1	-1	0	366	0.2	365	366	15.5	70.5
2025-08-06T01:47	10	0	0.1	0	0	366	0.2	366	366	15.5	70.8
2025-08-06T01:48	10	0	0.1	-1	0	366	0.2	365	366	15.5	70.3
2025-08-06T01:49	10	0	0.1	-1	0	366	0.2	366	367	15.5	70.2
2025-08-06T01:50	10	0	0.1	0	0	367	0.2	366	367	15.4	70.4
2025-08-06T01:51	10	0	0.1	0	0	367	0.2	366	367	15.3	70.9
2025-08-06T01:52	10	0	0.1	0	0	367	0.3	366	367	15.3	70.9
2025-08-06T01:53	10	0	0.1	0	0	367	0.3	366	367	15.3	70.7
2025-08-06T01:54	10	0	0.1	0	0	367	0.2	367	368	15.2	70.7
2025-08-06T01:55	10	0	0.1	0	0	367	0.3	366	367	15.2	70.5
2025-08-06T01:56	10	0	0.1	0	0	367	0.3	366	368	15.2	70.3
2025-08-06T01:57	10	0	0.1	0	0	367	0.3	366	367	15.3	69.5
2025-08-06T01:58	10	0	0.1	0	0	367	0.3	366	367	15.3	70.3
2025-08-06T01:59	10	0	0.1	0	0	366	0.3	365	366	15.2	70.2
2025-08-06T02:00	10	0	0.1	0	0	365	0.3	365	366	15.2	70.4
2025-08-06T02:01	10	0	0.1	0	0	364	0.3	364	365	15.1	71.5
2025-08-06T02:02	10	0	0.1	0	0	364	0.5	363	365	15.0	72.6
2025-08-06T02:03	10	0	0.1	0	0	363	0.3	363	364	14.9	72.7
2025-08-06T02:04	10	0	0.1	0	0	363	0.4	362	364	14.8	73.1
2025-08-06T02:05	10	0	0.1	0	0	364	0.4	363	364	15.1	70.0
2025-08-06T02:06	10	0	0.1	0	0	363	0.3	362	363	15.2	69.0
2025-08-06T02:07	10	0	0.1	0	0	363	0.3	362	363	15.3	68.5
2025-08-06T02:08	10	0	0.1	0	0	363	0.3	362	364	15.4	67.5
2025-08-06T02:09	10	0	0.1	0	0	363	0.2	362	363	15.4	66.8
2025-08-06T02:10	10	0	0.1	0	0	362	0.3	362	363	15.5	66.7
2025-08-06T02:11	10	0	0.1	0	0	363	0.2	362	363	15.5	67.1
2025-08-06T02:12	10	0	0.1	0	0	363	0.2	362	363	15.4	67.1
2025-08-06T02:13	10	0	0.1	0	0	363	0.2	362	363	15.5	66.6
2025-08-06T02:14	10	0	0.1	0	0	363	0.2	362	363	15.4	66.7
2025-08-06T02:15	10	0	0.1	0	0	363	0.3	362	363	15.5	66.7
2025-08-06T02:16	10	0	0.1	0	0	363	0.2	362	363	15.4	67.0
2025-08-06T02:17	10	0	0.1	0	0	362	0.2	362	363	15.4	67.2
2025-08-06T02:18	10	0	0.1	0	0	363	0.2	362	363	15.4	67.2
2025-08-06T02:19	10	0	0.1	0	0	362	0.2	361	363	15.3	67.8
2025-08-06T02:20	10	0	0.1	0	0	362	0.3	361	362	15.3	67.5
2025-08-06T02:21	10	0	0.1	0	0	362	0.2	362	362	15.3	67.5
2025-08-06T02:22	10	0	0.1	0	0	362	0.3	361	363	15.4	66.9
2025-08-06T02:23	10	0	0.1	0	0	362	0.2	362	362	15.4	66.9
2025-08-06T02:24	10	0	0.1	0	0	362	0.3	362	363	15.4	67.0
2025-08-06T02:25	10	0	0.1	0	0	362	0.3	362	363	15.4	67.1
2025-08-06T02:26	10	0	0.1	0	0	363	0.2	362	363	15.4	67.2
2025-08-06T02:27	10	0	0.1	0	0	363	0.3	363	364	15.5	67.1
2025-08-06T02:28	10	0	0.1	0	0	363	0.2	363	364	15.6	66.9
2025-08-06T02:29	10	0	0.1	0	0	364	0.3	363	365	15.6	66.9
2025-08-06T02:30	10	0	0.1	0	0	365	0.4	364	366	15.7	66.7
2025-08-06T02:31	10	0	0.1	0	0	365	0.3	365	366	15.7	66.7
2025-08-06T02:32	10	0	0.1	0	0	366	0.2	366	367	15.7	66.8
2025-08-06T02:33	10	0	0.1	0	0	366	0.2	366	366	15.7	66.9
2025-08-06T02:34	10	0	0.1	0	0	366	0.3	366	367	15.7	67.0
2025-08-06T02:35	10	0	0.1	0	0	367	0.3	367	368	15.7	67.0
2025-08-06T02:36	10	0	0.1	0	0	367	0.3	367	368	15.6	66.9
2025-08-06T02:37	10	0	0.1	0	0	367	0.3	367	368	15.6	67.2
2025-08-06T02:38	10	0	0.1	0	0	368	0.3	367	369	15.7	67.0
2025-08-06T02:39	10	0	0.1	0	0	368	0.2	367	368	15.7	67.3
2025-08-06T02:40	10	0	0.1	0	0	367	0.3	367	368	15.6	67.6
2025-08-06T02:41	10	0	0.0	0	0	367	0.3	367	368	15.5	68.1
2025-08-06T02:42	10	0	0.1	0	0	368	0.2	367	368	15.5	68.3
2025-08-06T02:43	10	0	0.1	0	0	367	0.3	367	368	15.5	68.6
2025-08-06T02:44	10	0	0.1	0	0	368	0.3	367	368	15.5	68.7
2025-08-06T02:45	10	0	0.1	0	0	369	0.3	368	369	15.5	69.0
2025-08-06T02:46	10	0	0.1	0	0	369	0.3	368	369	15.4	69.4
2025-08-06T02:47	10	0	0.1	0	0	369	0.4	368	370	15.4	69.6
2025-08-06T02:48	10	0	0.1	0	0	370	0.4	369	371	15.3	69.8
2025-08-06T02:49	10	0	0.1	0	0	369	0.3	369	370	15.3	70.0
2025-08-06T02:50	10	0	0.1	0	0	369	0.4	369	370	15.2	70.4
2025-08-06T02:51	10	0	0.1	0	0	370	0.4	369	371	15.1	70.8
2025-08-06T02:52	10	0	0.1	0	0	370	0.3	369	370	15.1	70.7
2025-08-06T02:53	10	0	0.0	0	0	370	0.4	369	371	15.1	70.6
2025-08-06T02:54	10	0	0.1	0	0	370	0.3	370	371	15.1	70.5
2025-08-06T02:55	10	0	0.1	0	0	370	0.4	369	371	15.1	70.5
2025-08-06T02:56	10	0	0.1	0	0	370	0.3	370	371	15.1	70.5
2025-08-06T02:57	10	0	0.1	0	0	371	0.5	370	372	15.2	69.5
2025-08-06T02:58	10	0	0.1	0	0	372	0.4	371	372	15.2	69.8
2025-08-06T02:59	10	0	0.1	0	0	372	0.2	371	372	15.1	70.2
2025-08-06T03:00	10	0	0.1	0	0	371	0.4	370	372	15.1	70.4
2025-08-06T03:01	10	0	0.1	0	0	370	0.2	369	370	14.9	70.9
2025-08-06T03:02	10	0	0.1	0	0	371	0.4	370	371	15.1	69.9
2025-08-06T03:03	10	0	0.1	0	0	370	0.3	370	371	15.1	70.0
2025-08-06T03:04	10	0	0.1	0	0	371	0.3	370	372	15.1	69.6
2025-08-06T03:05	10	0	0.1	0	0	371	0.3	371	372	15.2	69.2
2025-08-06T03:06	10	0	0.1	0	0	371	0.3	371	372	15.2	69.1
2025-08-06T03:07	10	0	0.0	0	0	371	0.3	370	372	15.3	68.5
2025-08-06T03:08	10	0	0.1	0	0	371	0.3	371	372	15.2	69.2
2025-08-06T03:09	10	0	0.1	0	0	371	0.2	371	372	15.3	68.7
2025-08-06T03:10	10	0	0.1	0	0	372	0.3	371	372	15.2	68.9
2025-08-06T03:11	10	0	0.1	0	0	371	0.3	370	372	15.1	69.3
2025-08-06T03:12	10	0	0.0	0	0	371	0.2	371	372	15.1	69.3
2025-08-06T03:13	10	0	0.1	0	0	370	0.2	370	371	15.2	69.1
2025-08-06T03:14	10	0	0.0	0	0	370	0.3	370	371	15.1	69.5
2025-08-06T03:15	10	0	0.1	0	0	370	0.2	369	370	15.1	69.6
2025-08-06T03:16	10	0	0.1	0	0	370	0.2	369	370	15.0	69.8
2025-08-06T03:17	10	0	0.1	0	0	369	0.2	369	370	15.0	69.9
2025-08-06T03:18	10	0	0.1	0	0	370	0.3	369	370	15.0	69.8
2025-08-06T03:19	10	0	0.1	0	1	369	0.3	369	370	14.9	70.4
2025-08-06T03:20	10	0	0.1	0	0	368	0.6	367	369	14.8	71.1
2025-08-06T03:21	10	0	0.1	0	0	368	0.3	367	368	14.6	71.7
2025-08-06T03:22	10	0	0.1	0	0	367	0.3	367	368	14.5	72.6
2025-08-06T03:23	10	0	0.2	0	1	367	0.3	366	368	14.6	71.9
2025-08-06T03:24	10	0	0.2	-1	1	367	0.4	366	368	14.6	72.0
2025-08-06T03:25	10	0	0.1	0	0	366	0.2	366	367	14.6	71.9
2025-08-06T03:26	10	0	0.1	0	0	366	0.4	366	367	14.7	71.6
2025-08-06T03:27	10	0	0.1	0	0	367	0.3	366	368	14.7	71.6
2025-08-06T03:28	10	0	0.1	0	0	367	0.2	366	368	14.7	71.3
2025-08-06T03:29	10	0	0.2	0	0	368	0.6	367	369	14.8	70.8
2025-08-06T03:30	10	0	0.1	0	0	369	0.4	368	370	14.9	70.4
2025-08-06T03:31	10	0	0.2	-1	0	370	0.3	370	371	14.9	70.3
2025-08-06T03:32	10	0	0.1	-1	0	370	0.2	370	371	14.9	70.3
2025-08-06T03:33	10	0	0.1	0	0	370	0.3	370	371	14.9	70.4
2025-08-06T03:34	10	0	0.2	-1	0	370	0.3	369	370	14.9	70.5
2025-08-06T03:35	10	0	0.1	0	0	370	0.5	369	371	14.9	70.2
2025-08-06T03:36	10	0	0.2	0	0	370	0.3	369	371	14.8	70.8
2025-08-06T03:37	10	0	0.2	-1	0	370	0.7	369	371	14.9	70.5
2025-08-06T03:38	10	0	0.1	-1	0	370	0.3	370	371	14.8	70.7
2025-08-06T03:39	10	0	0.2	0	0	370	0.3	369	370	14.8	70.6
2025-08-06T03:40	10	0	0.1	0	0	370	0.3	369	370	14.8	71.1
2025-08-06T03:41	10	0	0.1	-1	0	369	0.3	369	370	14.7	71.2
2025-08-06T03:42	10	0	0.1	0	0	370	0.3	369	370	14.7	71.2
2025-08-06T03:43	10	0	0.1	0	0	370	0.3	369	370	14.7	71.1
2025-08-06T03:44	10	0	0.1	-1	0	369	0.3	368	370	14.7	71.3
2025-08-06T03:45	10	0	0.1	0	0	369	0.3	368	369	14.7	71.4
2025-08-06T03:46	10	0	0.1	0	0	369	0.3	368	369	14.7	71.2
2025-08-06T03:47	10	0	0.1	0	0	369	0.2	369	370	14.7	71.3
2025-08-06T03:48	10	0	0.2	-1	0	370	0.3	369	370	14.7	71.4
2025-08-06T03:49	10	0	0.1	0	0	369	0.3	369	370	14.7	71.3
2025-08-06T03:50	10	0	0.1	0	0	369	0.5	368	370	14.7	71.4
2025-08-06T03:51	10	0	0.1	0	0	369	0.2	369	370	14.7	71.1
2025-08-06T03:52	10	0	0.1	0	0	368	0.4	368	369	14.7	71.4
2025-08-06T03:53	10	0	0.2	0	0	368	0.4	367	369	14.6	71.7
2025-08-06T03:54	10	0	0.1	0	0	367	0.4	367	368	14.5	72.0
2025-08-06T03:55	10	0	0.2	0	0	367	0.4	366	368	14.5	72.0
2025-08-06T03:56	10	0	0.1	0	0	366	0.4	365	367	14.5	72.1
2025-08-06T03:57	10	0	0.1	0	0	365	0.2	365	366	14.5	71.9
2025-08-06T03:58	10	0	0.2	0	1	366	0.3	365	367	14.6	71.7
2025-08-06T03:59	10	0	0.1	0	0	366	0.3	366	367	14.6	71.4
2025-08-06T04:00	10	0	0.1	0	0	366	0.3	366	367	14.6	71.3
2025-08-06T04:01	10	0	0.1	0	0	366	0.3	365	367	14.7	71.0
2025-08-06T04:02	10	0	0.1	0	0	367	0.4	366	367	14.7	71.0
2025-08-06T04:03	10	0	0.1	0	0	367	0.5	367	368	14.7	71.2
2025-08-06T04:04	10	0	0.1	0	1	369	0.4	368	369	14.7	71.0
2025-08-06T04:05	10	0	0.1	0	1	369	0.4	368	370	14.8	70.4
2025-08-06T04:06	10	0	0.1	0	1	370	0.3	369	371	14.8	70.3
2025-08-06T04:07	10	0	0.2	0	1	370	0.4	370	371	14.8	70.4
2025-08-06T04:08	10	0	0.1	0	1	371	0.3	370	372	14.9	69.9
2025-08-06T04:09	10	0	0.1	0	1	371	0.3	371	372	14.8	70.2
2025-08-06T04:10	10	0	0.1	0	1	371	0.3	371	372	14.8	70.3
2025-08-06T04:11	10	0	0.1	0	0	371	0.3	370	371	14.8	70.1
2025-08-06T04:12	10	0	0.2	0	1	371	0.3	370	372	14.8	70.3
2025-08-06T04:13	10	0	0.1	0	1	371	0.3	371	372	14.7	70.5
2025-08-06T04:14	10	0	0.2	0	1	371	0.2	370	371	14.7	70.8
2025-08-06T04:15	10	0	0.1	0	1	371	0.4	371	372	14.7	70.7
2025-08-06T04:16	10	0	0.1	0	1	372	0.2	372	373	14.8	70.2
2025-08-06T04:17	10	0	0.1	0	1	372	0.2	372	373	14.7	70.4
2025-08-06T04:18	10	1	0.1	0	1	371	0.6	370	373	14.6	71.4
2025-08-06T04:19	10	1	0.1	1	1	370	0.4	369	371	14.3	73.0
2025-08-06T04:20	10	1	0.2	0	1	369	0.4	368	370	14.0	74.8
2025-08-06T04:21	10	1	0.2	0	1	369	0.4	368	370	13.7	76.1
2025-08-06T04:22	10	1	0.2	0	1	368	0.3	368	369	13.8	76.0
2025-08-06T04:23	10	1	0.2	0	1	367	0.3	367	368	13.6	76.5
2025-08-06T04:24	10	1	0.1	1	1	367	0.4	366	368	13.3	78.3
2025-08-06T04:25	10	1	0.2	1	1	366	0.3	366	367	13.2	78.9
2025-08-06T04:26	10	1	0.1	1	1	366	0.3	365	366	13.1	79.3
2025-08-06T04:27	10	1	0.2	1	2	366	0.3	365	366	13.1	79.1
2025-08-06T04:28	10	1	0.1	1	1	366	0.6	365	367	13.4	77.4
2025-08-06T04:29	10	1	0.1	1	2	366	0.6	365	367	13.5	77.3
2025-08-06T04:30	10	2	0.2	1	2	367	0.7	365	368	13.5	76.9
2025-08-06T04:31	10	2	0.2	2	3	367	0.3	366	368	13.7	75.8
2025-08-06T04:32	10	2	0.2	2	3	368	0.5	367	369	13.8	75.2
2025-08-06T04:33	10	3	0.2	2	3	369	0.4	368	370	13.9	74.7
2025-08-06T04:34	10	3	0.1	3	3	370	0.5	369	371	13.9	75.1
2025-08-06T04:35	10	4	0.1	3	4	371	0.3	371	372	14.1	73.7
2025-08-06T04:36	10	4	0.1	4	4	372	0.5	371	373	14.3	72.7
2025-08-06T04:37	10	4	0.2	4	4	373	0.4	372	374	14.4	72.2
2025-08-06T04:38	10	5	0.1	4	5	373	0.3	372	373	14.3	72.7
2025-08-06T04:39	10	5	0.1	5	5	373	0.2	372	373	14.3	73.1
2025-08-06T04:40	10	5	0.1	5	5	373	0.2	372	373	14.3	72.8
2025-08-06T04:41	10	5	0.1	4	5	373	0.2	372	373	14.2	73.4
2025-08-06T04:42	10	5	0.1	4	5	373	0.3	372	374	14.1	74.0
2025-08-06T04:43	10	5	0.1	5	5	373	0.2	373	373	14.1	74.5
2025-08-06T04:44	10	5	0.1	5	5	372	0.3	372	373	14.0	74.9
2025-08-06T04:45	10	5	0.1	5	5	373	0.2	372	373	14.0	74.9
2025-08-06T04:46	10	6	0.1	5	6	372	0.2	372	373	14.0	75.3
2025-08-06T04:47	10	6	0.1	6	6	372	0.2	371	373	13.9	75.3
2025-08-06T04:48	10	6	0.2	6	7	372	0.1	372	373	13.9	75.3
2025-08-06T04:49	10	7	0.2	7	7	372	0.3	372	373	13.9	75.4
2025-08-06T04:50	10	7	0.1	7	7	372	0.2	371	373	13.9	76.0
2025-08-06T04:51	10	7	0.1	7	7	372	0.2	371	372	13.8	76.7
2025-08-06T04:52	10	8	0.2	7	8	372	0.2	372	373	13.9	76.1
2025-08-06T04:53	10	8	0.2	8	8	372	0.2	372	373	13.9	75.9
2025-08-06T04:54	10	9	0.3	8	9	372	0.2	372	372	13.8	76.2
2025-08-06T04:55	10	10	0.3	9	10	372	0.3	371	373	13.9	76.0
2025-08-06T04:56	10	11	0.3	10	11	372	0.1	372	373	13.9	76.2
2025-08-06T04:57	10	12	0.2	11	12	372	0.3	372	373	13.8	76.3
2025-08-06T04:58	10	13	0.3	12	13	373	0.2	372	373	13.9	75.9
2025-08-06T04:59	10	14	0.5	13	15	373	0.3	372	374	13.9	76.3
2025-08-06T05:00	10	15	0.5	15	16	373	0.3	373	374	13.9	75.8
2025-08-06T05:01	10	17	0.4	16	17	374	0.3	373	374	13.9	75.6
2025-08-06T05:02	10	18	0.3	17	18	374	0.3	374	375	14.0	75.2
2025-08-06T05:03	10	19	0.2	18	19	375	0.2	374	375	14.0	75.1
2025-08-06T05:04	10	20	0.4	19	21	375	0.3	374	376	14.0	75.3
2025-08-06T05:05	10	21	0.4	21	22	375	0.2	375	376	14.0	75.6
2025-08-06T05:06	10	22	0.3	22	23	375	0.2	375	376	14.0	75.2
2025-08-06T05:07	10	23	0.2	23	24	376	0.3	375	377	14.0	75.2
2025-08-06T05:08	10	24	0.3	23	24	376	0.2	376	377	14.0	74.6
2025-08-06T05:09	10	25	0.2	24	25	376	0.3	376	377	14.0	74.8
2025-08-06T05:10	10	25	0.2	25	25	377	0.2	376	377	14.0	74.6
2025-08-06T05:11	10	25	0.3	24	26	377	0.3	376	378	14.0	75.5
2025-08-06T05:12	10	24	0.1	24	25	378	0.3	377	378	14.1	74.5
2025-08-06T05:13	10	25	0.3	25	26	377	0.2	377	378	14.1	73.9
2025-08-06T05:14	10	26	0.1	25	26	378	0.2	377	378	14.2	73.2
2025-08-06T05:15	10	25	0.2	25	25	378	0.2	378	379	14.3	73.1
2025-08-06T05:16	10	25	0.3	24	25	379	0.3	378	379	14.3	72.9
2025-08-06T05:17	10	23	0.3	23	24	378	0.2	378	379	14.3	72.6
2025-08-06T05:18	10	23	0.1	23	24	379	0.2	378	379	14.4	72.2
2025-08-06T05:19	10	23	0.1	23	23	379	0.2	378	379	14.4	72.1
2025-08-06T05:20	10	23	0.1	23	23	379	0.2	379	380	14.4	72.4
2025-08-06T05:21	10	22	0.6	21	23	379	0.2	379	380	14.4	72.6
2025-08-06T05:22	10	21	0.3	21	22	379	0.3	379	380	14.4	72.1
2025-08-06T05:23	10	20	0.3	20	21	379	0.2	379	380	14.4	72.7
2025-08-06T05:24	10	19	0.5	18	20	379	0.2	379	380	14.4	73.3
2025-08-06T05:25	10	19	0.3	18	20	380	0.2	379	380	14.4	73.2
2025-08-06T05:26	10	20	0.2	20	20	380	0.3	379	381	14.4	73.1
2025-08-06T05:27	10	19	0.5	18	20	380	0.2	380	381	14.5	73.2
2025-08-06T05:28	10	18	0.3	17	18	380	0.3	380	381	14.4	73.6
2025-08-06T05:29	10	17	0.2	16	17	380	0.2	379	381	14.5	72.9
2025-08-06T05:30	10	16	0.2	16	17	379	0.2	379	380	14.5	73.1
2025-08-06T05:31	10	16	0.1	16	16	380	0.2	379	380	14.5	74.1
2025-08-06T05:32	10	16	0.1	15	16	380	0.2	380	380	14.5	74.3
2025-08-06T05:33	10	15	0.1	15	15	380	0.2	379	380	14.5	74.3
2025-08-06T05:34	10	15	0.1	15	15	380	0.2	379	380	14.5	73.3
2025-08-06T05:35	10	15	0.1	15	15	380	0.2	380	380	14.6	73.5
2025-08-06T05:36	10	15	0.1	15	15	380	0.2	380	381	14.6	73.6
2025-08-06T05:37	10	15	0.1	14	15	380	0.2	380	381	14.6	73.2
2025-08-06T05:38	10	14	0.1	14	15	380	0.3	379	381	14.6	73.4
2025-08-06T05:39	10	14	0.1	14	15	380	0.2	380	381	14.6	74.0
2025-08-06T05:40	10	14	0.1	14	14	380	0.2	380	381	14.6	73.7
2025-08-06T05:41	10	14	0.1	13	14	380	0.3	380	381	14.6	72.9
2025-08-06T05:42	10	13	0.1	13	14	380	0.2	380	381	14.6	73.0
2025-08-06T05:43	10	13	0.1	13	13	380	0.3	380	381	14.6	72.6
2025-08-06T05:44	10	13	0.1	13	13	380	0.2	380	381	14.7	72.4
2025-08-06T05:45	10	13	0.1	12	13	380	0.3	380	381	14.7	71.6
2025-08-06T05:46	10	13	0.1	12	13	380	0.2	380	381	14.7	71.6
2025-08-06T05:47	10	13	0.1	12	13	380	0.2	380	381	14.7	72.2
2025-08-06T05:48	10	13	0.1	12	13	380	0.2	380	381	14.7	71.9
2025-08-06T05:49	10	13	0.1	12	13	381	0.2	380	381	14.7	72.3
2025-08-06T05:50	10	13	0.1	13	13	381	0.2	380	381	14.7	71.9
2025-08-06T05:51	10	13	0.2	13	14	381	0.2	380	381	14.7	71.8
2025-08-06T05:52	10	14	0.2	13	14	381	0.3	380	381	14.7	70.6
2025-08-06T05:53	10	15	0.2	14	15	381	0.3	380	381	14.8	70.1
2025-08-06T05:54	10	15	0.3	15	16	381	0.2	380	381	14.8	69.7
2025-08-06T05:55	10	16	0.2	16	16	381	0.2	381	382	14.9	69.2
2025-08-06T05:56	10	17	0.2	16	17	382	0.2	381	382	14.9	68.9
2025-08-06T05:57	10	17	0.1	17	17	382	0.3	381	382	14.8	69.7
2025-08-06T05:58	10	17	0.1	16	17	382	0.3	381	383	14.8	69.8
2025-08-06T05:59	10	17	0.2	17	17	382	0.2	382	383	14.8	69.2
2025-08-06T06:00	10	17	0.1	16	17	382	0.2	382	383	14.8	69.7
2025-08-06T06:01	10	17	0.2	16	17	382	0.2	382	383	14.8	70.0
2025-08-06T06:02	10	17	0.2	16	17	382	0.2	382	383	14.8	70.3
2025-08-06T06:03	10	17	0.2	16	17	383	0.2	382	383	14.8	69.9
2025-08-06T06:04	10	17	0.2	16	17	382	0.2	382	383	14.8	70.4
2025-08-06T06:05	10	17	0.1	16	17	383	0.2	382	383	14.8	71.0
2025-08-06T06:06	10	17	0.1	16	17	383	0.3	382	384	14.8	70.8
2025-08-06T06:07	10	17	0.2	17	17	383	0.2	382	383	14.8	70.9
2025-08-06T06:08	10	17	0.1	17	18	383	0.2	383	383	14.8	70.8
2025-08-06T06:09	10	18	0.2	17	18	383	0.2	382	383	14.7	71.2
2025-08-06T06:10	10	18	0.2	18	19	383	0.2	383	384	14.7	71.5
2025-08-06T06:11	10	18	0.2	18	19	384	0.2	383	384	14.7	71.9
2025-08-06T06:12	10	18	0.2	18	19	384	0.2	383	384	14.8	71.7
2025-08-06T06:13	10	19	0.2	18	19	384	0.4	383	384	14.9	71.2
2025-08-06T06:14	10	19	0.2	19	19	384	0.3	383	384	14.9	71.6
2025-08-06T06:15	10	19	0.2	19	20	384	0.2	383	385	14.8	72.1
2025-08-06T06:16	10	19	0.2	19	20	384	0.3	383	384	14.8	72.3
2025-08-06T06:17	10	20	0.2	19	20	384	0.4	383	385	14.8	72.7
2025-08-06T06:18	10	20	0.2	20	21	384	0.3	384	385	14.8	71.8
2025-08-06T06:19	10	21	0.2	20	21	385	0.2	384	385	14.8	72.4
2025-08-06T06:20	10	21	0.2	20	22	385	0.2	384	385	14.8	72.2
2025-08-06T06:21	10	22	0.3	21	23	385	0.2	384	386	14.8	72.8
2025-08-06T06:22	10	22	0.3	22	23	385	0.3	384	385	14.7	73.4
2025-08-06T06:23	10	23	0.2	22	24	385	0.3	385	386	14.7	73.2
2025-08-06T06:24	10	23	0.2	23	24	386	0.2	385	386	14.8	72.9
2025-08-06T06:25	10	23	0.2	23	24	386	0.2	386	386	14.8	72.3
2025-08-06T06:26	10	24	0.2	24	25	386	0.2	385	386	14.8	71.5
2025-08-06T06:27	10	24	0.1	24	24	386	0.3	385	386	14.9	71.5
2025-08-06T06:28	10	24	0.2	24	25	386	0.3	386	387	14.9	71.7
2025-08-06T06:29	10	25	0.1	24	25	387	0.3	386	388	14.9	71.0
2025-08-06T06:30	10	25	0.2	24	25	386	0.4	386	387	14.9	70.7
2025-08-06T06:31	10	24	0.2	24	25	386	0.3	386	387	14.9	71.1
2025-08-06T06:32	10	24	0.3	23	24	386	0.3	385	387	15.0	70.1
2025-08-06T06:33	10	23	0.3	22	24	386	0.2	385	386	15.0	70.7
2025-08-06T06:34	10	22	0.3	21	23	386	0.5	385	386	15.0	70.6
2025-08-06T06:35	10	21	0.3	21	22	385	0.3	384	386	15.0	70.1
2025-08-06T06:36	10	20	0.3	20	21	384	0.4	384	385	15.0	70.3
2025-08-06T06:37	10	20	0.2	19	20	385	0.3	384	385	15.0	70.7
2025-08-06T06:38	10	19	0.2	19	20	384	0.3	384	385	15.0	70.5
2025-08-06T06:39	10	19	0.2	19	20	384	0.3	384	385	15.0	69.9
2025-08-06T06:40	10	19	0.2	19	20	384	0.3	384	385	15.0	70.5
2025-08-06T06:41	10	20	0.2	19	20	384	0.3	383	385	15.0	70.4
2025-08-06T06:42	10	20	0.3	20	21	384	0.3	384	385	15.0	69.7
2025-08-06T06:43	10	21	0.3	21	22	384	0.2	384	385	15.0	70.1
2025-08-06T06:44	10	22	0.3	22	23	385	0.3	384	385	15.0	70.5
2025-08-06T06:45	10	23	0.2	23	24	385	0.2	385	386	14.9	70.6
2025-08-06T06:46	10	24	0.1	23	24	385	0.2	385	386	14.9	70.5
2025-08-06T06:47	10	23	0.2	23	24	385	0.2	384	385	15.0	70.1
2025-08-06T06:48	10	23	0.2	23	23	385	0.2	385	386	14.9	70.2
2025-08-06T06:49	10	23	0.1	23	23	385	0.2	384	385	15.0	70.2
2025-08-06T06:50	10	23	0.1	23	23	385	0.2	385	385	15.0	70.7
2025-08-06T06:51	10	23	0.3	23	24	385	0.2	385	386	15.0	70.7
2025-08-06T06:52	10	25	0.4	24	25	385	0.3	385	386	15.0	70.8
2025-08-06T06:53	10	26	0.6	25	28	386	0.3	385	386	15.0	70.7
2025-08-06T06:54	10	29	0.7	28	30	386	0.4	385	387	15.0	70.4
2025-08-06T06:55	10	31	0.6	30	32	387	0.5	387	388	15.0	70.4
2025-08-06T06:56	10	33	0.5	32	33	388	0.3	387	388	15.0	70.3
2025-08-06T06:57	10	34	0.5	33	35	389	0.3	388	389	15.0	71.0
2025-08-06T06:58	10	36	0.5	35	37	389	0.3	389	390	15.0	70.8
2025-08-06T06:59	10	38	0.6	37	39	390	0.4	390	391	15.0	70.9
2025-08-06T07:00	10	40	0.9	39	42	390	0.2	390	391	15.0	70.3
2025-08-06T07:01	10	44	1.1	42	46	391	0.3	390	391	15.1	70.7
2025-08-06T07:02	10	47	0.7	46	48	392	0.4	391	393	15.1	70.6
2025-08-06T07:03	10	47	0.3	46	47	393	0.4	392	394	15.1	71.0
2025-08-06T07:04	10	49	1.1	47	51	395	0.4	394	395	15.2	70.9
2025-08-06T07:05	10	52	1.0	50	54	395	0.3	394	396	15.2	70.6
2025-08-06T07:06	10	56	0.8	54	57	396	0.3	395	396	15.2	70.4
2025-08-06T07:07	10	58	0.6	56	59	396	0.4	395	396	15.2	70.2
2025-08-06T07:08	10	60	1.0	58	61	397	0.6	396	398	15.3	70.5
2025-08-06T07:09	10	60	1.1	58	61	398	0.3	398	399	15.3	69.9
2025-08-06T07:10	10	62	1.3	59	64	399	0.6	398	400	15.4	70.0
2025-08-06T07:11	10	59	3.7	53	64	399	0.3	398	400	15.4	70.0
2025-08-06T07:12	10	57	6.2	52	70	399	0.2	398	399	15.5	70.0
2025-08-06T07:13	10	66	5.7	53	71	399	0.3	398	400	15.4	70.0
2025-08-06T07:14	10	46	2.6	42	53	398	0.6	397	399	15.6	70.4
2025-08-06T07:15	10	47	3.7	42	53	396	0.6	395	398	15.5	70.0
2025-08-06T07:16	10	52	1.1	49	53	396	0.2	395	397	15.4	70.1
2025-08-06T07:17	10	46	2.8	42	50	396	0.2	396	396	15.4	70.3
2025-08-06T07:18	10	38	2.8	33	42	395	0.6	394	396	15.5	71.0
2025-08-06T07:19	10	33	0.2	32	33	394	1.0	392	395	15.4	70.2
2025-08-06T07:20	10	33	0.4	33	34	392	0.2	392	393	15.4	70.4
2025-08-06T07:21	10	35	0.4	34	35	393	0.3	392	393	15.4	70.6
2025-08-06T07:22	10	36	0.3	35	36	393	0.3	392	393	15.4	70.6
2025-08-06T07:23	10	36	0.2	36	37	393	0.2	392	393	15.4	70.2
2025-08-06T07:24	10	37	0.2	37	38	393	0.2	392	393	15.4	70.1
2025-08-06T07:25	10	38	0.3	38	39	393	0.3	392	394	15.4	70.3
2025-08-06T07:26	10	39	0.7	38	44	393	0.2	393	394	15.4	70.5
2025-08-06T07:27	10	40	0.3	40	41	394	0.3	393	394	15.4	70.6
2025-08-06T07:28	10	41	0.2	41	42	394	0.2	394	394	15.3	70.3
2025-08-06T07:29	10	42	0.2	41	42	394	0.2	394	395	15.4	70.7
2025-08-06T07:30	10	42	0.1	42	42	394	0.3	394	395	15.4	70.7
2025-08-06T07:31	10	42	0.1	42	42	395	0.3	395	396	15.4	70.6
2025-08-06T07:32	10	42	0.1	42	42	395	0.5	394	396	15.4	70.6
2025-08-06T07:33	10	42	0.1	42	42	394	0.3	393	395	15.4	70.3
2025-08-06T07:34	10	42	0.1	42	42	395	0.3	394	395	15.4	70.4
2025-08-06T07:35	10	42	0.1	42	42	395	0.2	395	396	15.4	70.5
2025-08-06T07:36	10	41	0.1	41	42	395	0.2	395	396	15.4	70.5
2025-08-06T07:37	10	41	0.1	41	41	395	0.3	394	395	15.4	70.4
2025-08-06T07:38	10	41	0.2	40	41	395	0.2	395	396	15.4	70.9
2025-08-06T07:39	10	40	0.2	40	40	395	0.3	395	396	15.4	70.5
2025-08-06T07:40	10	39	0.2	39	40	395	0.2	395	396	15.5	71.2
2025-08-06T07:41	10	39	0.2	38	39	395	0.3	394	395	15.4	70.5
2025-08-06T07:42	10	38	0.1	38	39	394	0.3	393	394	15.4	70.4
2025-08-06T07:43	10	38	0.1	38	39	394	0.3	394	395	15.4	70.7
2025-08-06T07:44	10	38	0.1	38	39	395	0.2	394	396	15.4	70.8
2025-08-06T07:45	10	39	0.1	38	39	395	0.3	394	395	15.5	70.4
2025-08-06T07:46	10	39	0.1	38	39	395	0.3	394	395	15.5	70.5
2025-08-06T07:47	10	39	0.1	39	39	395	0.4	394	396	15.5	70.8
2025-08-06T07:48	10	39	0.2	39	40	396	0.4	395	397	15.5	70.2
2025-08-06T07:49	10	40	0.3	40	41	395	0.3	395	396	15.5	70.4
2025-08-06T07:50	10	42	0.5	41	43	396	0.3	395	397	15.6	70.6
2025-08-06T07:51	10	44	0.7	43	45	397	0.4	396	397	15.6	70.3
2025-08-06T07:52	10	46	0.8	45	48	398	0.4	397	398	15.6	70.8
2025-08-06T07:53	10	49	1.1	48	52	399	0.8	398	400	15.6	70.5
2025-08-06T07:54	10	55	1.3	52	57	401	0.4	400	402	15.7	70.2
2025-08-06T07:55	10	56	0.6	56	58	403	0.5	402	404	15.7	70.6
2025-08-06T07:56	10	58	0.2	57	58	403	0.3	402	404	15.8	70.1
2025-08-06T07:57	10	61	2.1	58	65	404	0.5	403	405	15.7	69.6
2025-08-06T07:58	10	70	2.1	65	74	405	0.6	404	406	15.8	70.0
2025-08-06T07:59	10	74	0.8	71	75	407	0.9	406	409	15.9	69.7
2025-08-06T08:00	10	68	1.6	66	71	409	0.6	408	410	16.0	69.7
2025-08-06T08:01	10	70	1.6	65	72	406	0.9	404	408	15.9	68.8
2025-08-06T08:02	10	61	0.9	60	64	404	0.8	403	405	15.9	68.0
2025-08-06T08:03	10	67	6.0	61	78	404	0.5	402	404	15.9	68.1
2025-08-06T08:04	10	80	0.6	78	81	405	0.8	403	406	15.8	67.8
2025-08-06T08:05	10	79	1.7	76	82	407	0.8	405	408	15.9	68.0
2025-08-06T08:06	10	79	3.1	73	85	408	0.5	407	409	16.0	67.6
2025-08-06T08:07	10	72	1.4	70	74	407	0.3	406	408	16.0	67.7
2025-08-06T08:08	10	78	2.5	74	81	409	0.7	408	410	16.1	67.8
2025-08-06T08:09	10	86	3.5	81	90	410	0.4	409	410	16.1	67.4
2025-08-06T08:10	10	93	1.5	89	95	411	1.1	410	413	16.1	67.6
2025-08-06T08:11	10	101	2.6	94	104	414	0.7	413	415	16.1	67.0
2025-08-06T08:12	10	91	7.6	73	100	413	0.9	411	414	16.2	67.1
2025-08-06T08:13	10	72	2.7	69	79	411	0.4	410	412	16.3	67.0
2025-08-06T08:14	10	84	2.4	79	87	411	0.4	410	412	16.4	66.9
2025-08-06T08:15	10	77	6.2	67	87	411	1.5	409	414	16.3	66.7
2025-08-06T08:16	10	68	2.6	66	76	409	0.4	409	410	16.2	67.1
2025-08-06T08:17	10	79	1.7	76	82	411	0.9	410	413	16.4	66.8
2025-08-06T08:18	10	82	0.8	81	84	413	0.3	413	414	16.4	67.1
2025-08-06T08:19	10	79	1.9	77	82	412	1.0	410	414	16.4	66.8
2025-08-06T08:20	10	76	2.9	67	79	410	0.6	409	411	16.3	66.5
2025-08-06T08:21	10	63	2.2	60	67	408	0.8	406	409	16.3	66.3
2025-08-06T08:22	10	75	4.1	67	80	407	0.6	406	408	16.1	66.1
2025-08-06T08:23	10	85	2.7	80	88	409	1.6	406	411	16.4	66.5
2025-08-06T08:24	10	89	0.8	87	90	413	1.0	411	414	16.5	66.1
2025-08-06T08:25	10	94	2.7	90	97	414	0.5	412	414	16.4	65.8
2025-08-06T08:26	10	94	0.9	93	97	413	0.3	413	414	16.4	66.0
2025-08-06T08:27	10	97	1.1	94	98	414	0.7	413	415	16.4	66.1
2025-08-06T08:28	10	100	1.5	98	102	415	0.8	414	417	16.5	66.2
2025-08-06T08:29	10	100	1.5	98	102	417	0.6	416	419	16.6	66.0
2025-08-06T08:30	10	95	1.1	94	98	416	1.0	414	418	16.4	65.5
2025-08-06T08:31	10	96	1.0	95	98	417	1.1	415	419	16.6	66.3
2025-08-06T08:32	10	94	3.6	89	99	419	0.4	418	420	16.8	66.1
2025-08-06T08:33	10	86	2.3	82	89	416	0.8	415	418	16.5	65.2
2025-08-06T08:34	10	79	4.6	72	84	415	0.6	413	416	16.5	65.5
2025-08-06T08:35	10	70	5.0	63	78	413	0.7	412	415	16.6	65.8
2025-08-06T08:36	10	78	4.7	71	85	414	1.0	413	416	16.7	65.5
2025-08-06T08:37	10	104	8.2	86	116	420	2.7	415	424	16.8	65.7
2025-08-06T08:38	10	118	3.2	114	129	423	0.4	422	424	17.0	65.4
2025-08-06T08:39	10	139	3.3	130	144	426	1.5	424	429	17.0	64.7
2025-08-06T08:40	10	151	3.2	144	155	429	1.5	427	433	16.9	64.5
2025-08-06T08:41	10	157	1.2	154	158	436	1.7	433	439	17.4	65.0
2025-08-06T08:42	10	160	2.4	155	163	439	0.4	438	441	17.4	63.8
2025-08-06T08:43	10	154	1.8	148	156	438	1.7	435	441	17.2	63.7
2025-08-06T08:44	10	144	3.8	137	149	436	1.1	435	438	17.3	63.6
2025-08-06T08:45	10	127	6.0	117	137	432	3.9	426	437	17.1	63.3
2025-08-06T08:46	10	107	3.6	103	117	426	0.9	424	428	16.9	63.7
2025-08-06T08:47	10	107	3.7	102	112	425	0.9	423	426	17.0	64.0
2025-08-06T08:48	10	109	3.2	106	114	427	0.6	426	428	17.3	64.5
2025-08-06T08:49	10	111	1.3	108	113	427	1.1	425	429	17.4	63.7
2025-08-06T08:50	10	102	3.3	97	108	424	0.6	423	425	16.8	63.9
2025-08-06T08:51	10	97	0.9	96	99	425	0.3	424	425	16.8	64.7
2025-08-06T08:52	10	97	0.9	96	99	422	0.7	421	424	16.8	64.6
2025-08-06T08:53	10	104	2.7	98	107	422	0.4	421	422	16.6	64.5
2025-08-06T08:54	10	104	3.7	96	107	422	0.3	422	423	16.7	64.8
2025-08-06T08:55	10	95	1.9	92	98	421	1.3	418	423	16.9	64.1
2025-08-06T08:56	10	92	4.2	85	98	419	0.5	418	420	17.0	63.9
2025-08-06T08:57	10	83	1.1	81	85	420	0.4	419	421	17.1	63.9
2025-08-06T08:58	10	85	1.2	83	87	421	0.8	420	423	17.3	64.5
2025-08-06T08:59	10	85	1.5	82	87	420	0.7	419	422	17.2	63.6
2025-08-06T09:00	10	81	0.7	80	83	419	0.5	418	420	17.0	63.8
2025-08-06T09:01	10	76	2.1	73	80	418	0.3	418	419	17.0	64.3
2025-08-06T09:02	10	81	3.1	74	85	420	0.6	419	421	17.2	63.6
2025-08-06T09:03	10	76	1.5	74	78	418	0.3	418	419	17.1	63.5
2025-08-06T09:04	10	79	1.4	77	82	417	0.7	416	419	16.9	62.9
2025-08-06T09:05	10	87	2.8	82	92	418	0.6	416	419	16.9	63.3
2025-08-06T09:06	10	100	3.2	93	108	420	0.8	418	421	16.9	63.0
2025-08-06T09:07	10	117	5.9	109	126	424	2.3	420	427	16.9	63.1
2025-08-06T09:08	10	132	8.9	116	146	429	1.7	426	433	16.9	62.9
2025-08-06T09:09	10	143	3.1	133	146	434	1.2	431	437	17.1	63.3
2025-08-06T09:10	10	135	6.6	123	146	437	0.5	436	438	17.4	62.9
2025-08-06T09:11	10	139	4.3	133	147	436	0.5	435	437	17.2	62.6
2025-08-06T09:12	10	129	5.4	121	140	436	1.2	434	438	17.3	62.6
2025-08-06T09:13	10	108	9.0	93	121	432	2.1	428	436	17.3	62.4
2025-08-06T09:14	10	101	5.0	92	109	429	0.5	428	430	17.3	62.6
2025-08-06T09:15	10	81	8.2	67	99	425	2.4	421	429	17.1	62.6
2025-08-06T09:16	10	73	7.5	66	88	422	0.6	420	423	17.1	63.0
2025-08-06T09:17	10	87	5.8	81	103	422	0.9	420	423	17.2	62.7
2025-08-06T09:18	10	113	5.9	103	122	424	1.3	421	426	17.1	62.6
2025-08-06T09:19	10	126	9.0	104	142	429	2.7	424	433	17.1	62.9
2025-08-06T09:20	10	141	8.4	124	150	435	1.9	431	439	17.3	62.3
2025-08-06T09:21	10	147	6.8	132	154	440	1.7	438	443	17.6	62.2
2025-08-06T09:22	10	150	6.6	139	158	442	1.8	439	445	17.8	62.5
2025-08-06T09:23	10	157	0.7	155	158	446	0.8	445	448	17.7	62.0
2025-08-06T09:24	10	157	1.1	153	159	449	0.9	447	450	18.0	62.0
2025-08-06T09:25	10	126	20.8	83	153	446	3.4	440	451	18.2	61.8
2025-08-06T09:26	10	113	15.1	83	139	440	0.5	439	442	18.2	61.6
2025-08-06T09:27	10	142	3.1	134	146	441	1.4	439	443	18.2	61.5
2025-08-06T09:28	10	118	7.1	110	134	440	2.5	436	444	18.2	61.5
2025-08-06T09:29	10	113	2.3	109	118	438	0.4	437	439	18.2	59.4
2025-08-06T09:30	10	111	1.8	107	113	437	0.6	436	438	18.2	61.5
2025-08-06T09:31	10	128	11.6	114	151	437	1.9	435	442	18.2	61.5
2025-08-06T09:32	10	156	1.2	152	157	446	2.7	441	450	18.2	61.5
2025-08-06T09:33	10	156	0.2	155	156	451	0.9	449	453	18.2	61.5
2025-08-06T09:34	10	155	0.1	155	156	452	1.2	450	453	18.4	61.5
2025-08-06T09:35	10	156	0.4	155	156	450	1.3	448	452	18.2	60.6
2025-08-06T09:36	10	152	3.4	140	156	449	0.9	447	451	17.9	61.6
2025-08-06T09:37	10	148	10.0	129	156	449	1.6	447	452	18.0	61.8
2025-08-06T09:38	10	156	0.2	156	157	451	0.7	449	452	18.0	61.9
2025-08-06T09:39	10	151	3.4	146	157	450	1.0	448	451	18.0	61.9
2025-08-06T09:40	10	152	8.6	127	158	451	0.9	450	453	18.2	62.0
2025-08-06T09:41	10	130	5.9	118	138	448	2.0	445	452	17.9	61.7
2025-08-06T09:42	10	148	4.6	137	154	448	1.1	446	450	17.9	62.2
2025-08-06T09:43	10	158	7.6	139	163	452	2.5	448	456	17.8	62.0
2025-08-06T09:44	10	163	1.5	159	164	455	1.4	452	457	18.0	61.7
2025-08-06T09:45	10	148	9.1	134	158	452	1.7	449	455	18.3	61.8
2025-08-06T09:46	10	130	6.6	112	138	448	2.0	444	451	18.2	61.0
2025-08-06T09:47	10	153	19.3	113	170	451	4.6	444	457	18.4	61.0
2025-08-06T09:48	10	152	13.2	133	170	453	2.6	449	456	18.2	60.6
2025-08-06T09:49	10	170	4.6	156	174	453	2.0	451	457	18.0	61.0
2025-08-06T09:50	10	171	3.9	165	176	457	0.6	456	459	18.5	60.7
2025-08-06T09:51	10	177	4.0	166	180	460	1.5	458	462	18.4	60.8
2025-08-06T09:52	10	178	4.7	167	184	459	0.8	458	461	18.5	60.1
2025-08-06T09:53	10	166	8.0	154	182	455	2.4	452	460	18.4	60.7
2025-08-06T09:54	10	171	10.2	147	185	457	1.7	453	459	18.2	61.1
2025-08-06T09:55	10	156	13.8	129	183	456	0.8	454	458	18.3	60.7
2025-08-06T09:56	10	134	11.9	115	154	453	1.5	451	455	18.5	60.3
2025-08-06T09:57	10	144	12.8	124	171	455	1.6	451	457	19.1	60.6
2025-08-06T09:58	10	127	6.5	117	143	453	1.2	452	457	18.7	60.1
2025-08-06T09:59	10	128	7.6	117	147	453	0.4	452	454	18.7	60.7
2025-08-06T10:00	10	124	11.5	106	144	454	1.3	451	456	18.6	59.9
2025-08-06T10:01	10	106	5.1	102	120	451	1.2	449	453	18.7	60.4
2025-08-06T10:02	10	104	3.3	97	109	450	0.6	450	452	19.1	61.1
2025-08-06T10:03	10	114	7.9	103	132	448	1.9	446	451	19.1	59.8
2025-08-06T10:04	10	116	6.9	104	132	445	0.9	443	447	18.6	59.9
2025-08-06T10:05	10	135	16.1	108	156	445	2.0	442	448	18.4	60.3
2025-08-06T10:06	10	131	8.0	117	144	450	1.7	447	453	18.5	60.8
2025-08-06T10:07	10	115	4.4	107	122	449	1.5	448	452	18.8	59.9
2025-08-06T10:08	10	113	5.6	107	128	447	1.0	445	449	18.8	59.6
2025-08-06T10:09	10	125	6.6	117	138	450	1.1	447	452	18.8	60.1
2025-08-06T10:10	10	129	8.3	115	142	449	1.4	447	453	18.9	59.8
2025-08-06T10:11	10	140	12.2	123	163	450	1.3	448	453	19.0	59.8
2025-08-06T10:12	10	165	2.3	161	170	455	1.5	452	458	18.9	59.8
2025-08-06T10:13	10	169	2.9	163	175	459	0.7	457	461	18.9	60.2
2025-08-06T10:14	10	170	3.4	165	175	463	1.1	461	465	19.1	59.9
2025-08-06T10:15	10	174	4.9	166	183	461	1.1	459	463	18.8	59.5
2025-08-06T10:16	10	168	5.9	159	182	461	0.5	460	462	18.9	59.6
2025-08-06T10:17	10	163	9.4	149	178	462	1.2	459	464	19.1	59.1
2025-08-06T10:18	10	146	10.4	129	166	456	2.5	452	460	18.9	59.1
2025-08-06T10:19	10	133	5.1	125	140	452	2.2	449	456	19.1	58.7
2025-08-06T10:20	10	144	4.3	136	151	452	0.9	451	453	19.0	59.5
2025-08-06T10:21	10	160	5.6	147	169	457	2.2	453	460	19.0	59.7
2025-08-06T10:22	10	144	7.9	133	157	458	1.3	456	461	18.8	59.6
2025-08-06T10:23	10	151	4.9	142	161	458	0.7	457	460	19.1	59.8
2025-08-06T10:24	10	155	6.5	147	169	458	1.7	457	462	18.8	59.7
2025-08-06T10:25	10	149	5.7	138	161	464	0.6	462	465	19.3	59.9
2025-08-06T10:26	10	148	2.5	143	155	459	3.2	456	465	19.1	59.3
2025-08-06T10:27	10	153	4.8	143	163	459	1.1	457	460	19.2	59.4
2025-08-06T10:28	10	138	9.1	120	148	455	2.7	449	460	19.2	59.0
2025-08-06T10:29	10	113	3.8	109	122	447	2.1	445	451	18.9	59.7
2025-08-06T10:30	10	115	3.0	110	121	448	0.6	446	449	19.1	59.6
2025-08-06T10:31	10	115	4.5	108	127	446	1.2	445	449	19.2	59.6
2025-08-06T10:32	10	155	22.6	115	185	452	2.9	448	456	19.5	59.1
2025-08-06T10:33	10	136	13.1	123	180	452	1.2	450	455	19.1	60.1
2025-08-06T10:34	10	130	10.2	116	148	453	0.8	452	456	18.9	60.5
2025-08-06T10:35	10	106	16.8	88	136	452	3.2	448	457	19.5	59.6
2025-08-06T10:36	10	97	4.1	89	104	449	0.6	448	451	19.9	59.1
2025-08-06T10:37	10	103	3.9	98	111	448	0.6	447	449	19.8	59.1
2025-08-06T10:38	10	106	5.9	96	115	449	1.2	447	451	19.6	59.6
2025-08-06T10:39	10	125	4.8	113	135	451	1.0	450	453	19.7	59.5
2025-08-06T10:40	10	158	10.1	139	178	455	1.9	452	459	19.4	59.1
2025-08-06T10:41	10	171	7.9	157	182	460	0.9	458	461	19.1	60.0
2025-08-06T10:42	10	159	4.3	152	165	460	1.3	457	461	19.3	59.8
2025-08-06T10:43	10	160	2.7	154	165	457	0.8	456	459	19.2	60.0
2025-08-06T10:44	10	148	2.6	145	155	458	1.0	457	460	19.4	59.8
2025-08-06T10:45	10	138	4.0	134	149	461	0.7	460	462	19.9	59.6
2025-08-06T10:46	10	144	2.5	139	148	459	1.4	457	462	19.9	59.2
2025-08-06T10:47	10	131	5.5	122	142	456	1.7	452	458	19.5	59.3
2025-08-06T10:48	10	112	5.9	103	123	451	1.8	448	453	19.6	59.5
2025-08-06T10:49	10	121	2.8	111	124	451	1.7	448	454	19.4	59.6
2025-08-06T10:50	10	122	3.2	111	125	454	0.9	452	456	19.7	59.4
2025-08-06T10:51	10	117	10.3	102	130	451	1.5	449	454	19.4	59.4
2025-08-06T10:52	10	121	6.7	108	131	451	1.2	449	453	19.6	59.1
2025-08-06T10:53	10	132	4.8	121	138	453	1.3	450	455	19.9	59.0
2025-08-06T10:54	10	148	4.4	136	152	458	2.0	454	462	20.3	59.3
2025-08-06T10:55	10	153	5.3	141	159	458	0.7	457	460	19.7	58.5
2025-08-06T10:56	10	149	6.3	141	157	459	2.2	457	464	19.5	59.4
2025-08-06T10:57	10	147	10.8	126	161	465	1.1	462	466	19.8	59.4
2025-08-06T10:58	10	148	4.9	139	158	466	0.8	464	468	20.1	59.1
2025-08-06T10:59	10	142	11.6	114	161	467	1.2	464	469	20.4	59.0
2025-08-06T11:00	10	137	9.6	114	148	464	0.6	463	465	20.1	58.7
2025-08-06T11:01	10	132	4.7	122	140	461	1.1	460	464	20.1	59.1
2025-08-06T11:02	10	136	12.6	115	155	459	1.2	457	462	20.0	58.8
2025-08-06T11:03	10	146	5.4	134	154	462	1.7	459	465	19.8	59.0
2025-08-06T11:04	10	132	7.4	119	144	464	1.4	460	465	19.9	58.9
2025-08-06T11:05	10	135	8.0	116	152	460	0.6	459	462	20.1	58.5
2025-08-06T11:06	10	122	15.0	100	155	457	1.5	455	460	19.9	59.1
2025-08-06T11:07	10	144	26.2	103	188	458	2.5	453	462	20.0	59.2
2025-08-06T11:08	10	129	12.8	110	151	459	0.7	458	461	20.4	58.6
2025-08-06T11:09	10	140	10.4	120	161	458	1.2	456	460	20.2	58.7
2025-08-06T11:10	10	154	7.3	142	165	463	2.1	459	467	20.4	58.6
2025-08-06T11:11	10	173	5.3	164	180	467	1.5	466	470	20.1	58.9
2025-08-06T11:12	10	177	1.9	172	179	469	1.5	467	472	20.0	59.2
2025-08-06T11:13	10	167	2.7	159	171	468	0.4	467	469	19.8	59.3
2025-08-06T11:14	10	134	17.1	103	159	469	2.3	463	472	20.3	59.8
2025-08-06T11:15	10	99	7.3	89	115	459	2.3	456	464	20.4	58.7
2025-08-06T11:16	10	106	7.5	91	118	456	1.2	454	458	20.3	58.8
2025-08-06T11:17	10	135	17.1	111	161	460	3.0	456	466	20.5	59.1
2025-08-06T11:18	10	158	9.5	145	176	468	1.7	465	471	20.8	58.0
2025-08-06T11:19	10	145	5.1	138	158	467	0.6	466	468	20.8	58.0
2025-08-06T11:20	10	165	7.6	154	178	469	1.5	467	472	20.6	58.0
2025-08-06T11:21	10	169	5.5	160	179	471	0.5	470	472	20.6	57.9
2025-08-06T11:22	10	143	12.1	129	168	469	2.3	467	473	20.2	58.2
2025-08-06T11:23	10	141	12.6	122	162	465	1.1	462	467	20.4	58.5
2025-08-06T11:24	10	130	20.5	101	157	463	1.6	460	465	19.9	59.0
2025-08-06T11:25	10	129	7.3	108	143	462	1.4	460	465	20.3	59.2
2025-08-06T11:26	10	130	6.9	119	144	465	0.7	463	466	20.9	58.8
2025-08-06T11:27	10	130	13.1	112	151	466	2.3	462	469	21.0	57.6
2025-08-06T11:28	10	125	5.8	113	138	464	0.8	462	465	20.6	58.6
2025-08-06T11:29	10	114	9.0	97	130	461	1.2	459	464	21.0	58.1
2025-08-06T11:30	10	108	15.9	83	131	459	2.3	455	462	20.8	58.0
2025-08-06T11:31	10	125	10.3	108	141	457	0.9	455	458	20.4	57.8
2025-08-06T11:32	10	127	8.7	110	141	455	1.0	453	457	20.4	58.0
2025-08-06T11:33	10	127	6.7	114	135	453	1.1	451	455	20.0	58.6
2025-08-06T11:34	10	158	16.5	122	181	460	3.7	454	468	20.2	59.1
2025-08-06T11:35	10	155	15.0	127	182	467	0.4	466	468	20.5	58.5
2025-08-06T11:36	10	121	5.5	113	136	460	3.3	456	468	20.6	57.8
2025-08-06T11:37	10	141	4.5	135	152	460	0.5	459	461	20.4	57.9
2025-08-06T11:38	10	154	17.2	131	181	462	2.7	459	469	20.2	58.6
2025-08-06T11:39	10	177	4.9	166	183	470	1.1	468	472	20.4	58.4
2025-08-06T11:40	10	148	10.2	128	165	470	1.6	466	472	20.4	58.7
2025-08-06T11:41	10	120	7.0	103	128	460	3.9	455	467	20.2	58.4
2025-08-06T11:42	10	119	7.5	111	130	460	1.0	457	461	20.2	59.2
2025-08-06T11:43	10	112	4.4	105	119	457	1.2	455	460	20.4	58.5
2025-08-06T11:44	10	124	4.2	117	130	457	2.2	454	460	20.1	59.0
2025-08-06T11:45	10	122	3.5	115	127	459	0.6	457	460	20.4	58.5
2025-08-06T11:46	10	114	2.3	108	117	456	1.0	454	458	20.5	58.1
2025-08-06T11:47	10	124	9.0	101	134	459	1.0	457	461	20.9	57.5
2025-08-06T11:48	10	134	15.0	99	148	456	0.9	455	458	20.5	58.0
2025-08-06T11:49	10	135	15.2	108	151	457	1.1	455	459	20.4	58.8
2025-08-06T11:50	10	125	8.2	110	136	453	1.1	451	456	20.2	58.8
2025-08-06T11:51	10	106	7.9	96	117	449	1.7	446	452	20.2	58.9
2025-08-06T11:52	10	122	11.7	99	138	450	2.7	446	455	20.3	58.8
2025-08-06T11:53	10	145	6.2	138	154	455	1.0	453	458	20.3	58.9
2025-08-06T11:54	10	165	5.5	154	171	461	2.5	457	466	20.2	59.0
2025-08-06T11:55	10	162	10.7	138	175	466	0.8	464	467	20.3	58.8
2025-08-06T11:56	10	136	16.3	99	166	462	2.4	457	465	20.6	58.2
2025-08-06T11:57	10	123	16.3	93	144	457	1.2	454	458	20.9	57.9
2025-08-06T11:58	10	112	8.0	100	130	457	0.8	455	458	20.6	58.4
2025-08-06T11:59	10	131	26.7	96	170	458	4.0	453	466	20.7	58.3
2025-08-06T12:00	10	147	13.9	129	168	467	1.4	465	470	21.0	58.0
2025-08-06T12:01	10	154	6.0	136	161	464	1.2	461	466	20.8	58.0
2025-08-06T12:02	10	158	13.8	130	172	462	1.3	459	464	20.5	58.6
2025-08-06T12:03	10	106	24.1	86	156	460	3.2	456	465	20.7	58.3
2025-08-06T12:04	10	103	18.7	84	159	454	1.8	451	457	21.1	57.8
2025-08-06T12:05	10	150	4.3	143	161	459	2.8	455	463	20.6	58.3
2025-08-06T12:06	10	144	18.1	112	167	465	1.3	463	467	20.7	58.3
2025-08-06T12:07	10	139	15.0	107	157	462	1.1	460	463	20.9	58.0
2025-08-06T12:08	10	134	10.8	112	155	461	0.8	460	463	20.6	58.4
2025-08-06T12:09	10	150	20.3	119	180	463	2.6	460	467	20.8	58.0
2025-08-06T12:10	10	184	6.8	158	192	470	1.8	465	473	20.8	58.0
2025-08-06T12:11	10	169	6.9	156	184	473	1.1	470	474	21.0	57.8
2025-08-06T12:12	10	160	13.9	132	177	471	1.2	468	474	21.2	57.0
2025-08-06T12:13	10	145	26.5	109	185	469	2.0	467	473	21.2	57.1
2025-08-06T12:14	10	144	25.2	107	181	468	4.1	461	473	21.2	57.4
2025-08-06T12:15	10	147	11.0	119	162	467	1.9	463	470	21.1	57.3
2025-08-06T12:16	10	139	29.9	97	180	466	3.5	461	474	21.2	57.4
2025-08-06T12:17	10	156	18.9	119	180	476	2.0	472	478	21.5	56.7
2025-08-06T12:18	10	166	11.6	137	180	477	2.5	473	480	21.5	57.3
2025-08-06T12:19	10	172	2.6	167	177	481	1.2	479	483	21.7	56.5
2025-08-06T12:20	10	180	1.3	177	182	481	1.5	478	483	21.8	56.3
2025-08-06T12:21	10	180	2.0	175	182	480	0.9	479	482	21.4	56.1
2025-08-06T12:22	10	175	1.5	172	178	482	0.9	480	483	21.7	56.8
2025-08-06T12:23	10	180	0.7	178	181	481	0.7	480	483	21.6	56.0
2025-08-06T12:24	10	180	2.9	170	184	483	1.5	481	486	21.8	56.0
2025-08-06T12:25	10	162	4.8	154	169	481	2.7	477	485	22.1	55.7
2025-08-06T12:26	10	160	7.7	147	173	477	1.7	474	480	21.9	55.5
2025-08-06T12:27	10	178	4.5	166	184	479	1.2	476	480	21.5	55.8
2025-08-06T12:28	10	173	3.7	163	180	479	1.1	477	481	21.6	56.0
2025-08-06T12:29	10	138	17.0	114	171	477	3.1	473	482	21.5	55.8
2025-08-06T12:30	10	141	5.1	131	152	475	0.5	473	475	21.6	55.9
2025-08-06T12:31	10	145	4.3	137	152	471	1.3	468	473	21.7	55.6
2025-08-06T12:32	10	157	2.8	148	160	476	1.8	473	478	22.3	55.2
2025-08-06T12:33	10	156	3.1	148	160	476	0.8	474	478	22.3	55.1
2025-08-06T12:34	10	130	8.5	118	147	475	1.6	472	478	22.4	54.7
2025-08-06T12:35	10	119	3.9	114	129	467	2.6	463	473	21.9	54.9
2025-08-06T12:36	10	135	5.4	124	144	466	0.9	464	467	22.0	54.7
2025-08-06T12:37	10	134	4.9	125	144	466	1.2	464	468	21.9	55.2
2025-08-06T12:38	10	108	12.3	88	128	465	2.2	461	467	22.0	55.1
2025-08-06T12:39	10	102	5.6	90	110	462	0.9	461	464	21.9	55.6
2025-08-06T12:40	10	107	6.6	97	125	459	1.1	458	462	21.9	55.4
2025-08-06T12:41	10	121	8.4	108	133	459	1.5	457	463	21.7	55.5
2025-08-06T12:42	10	124	13.3	103	146	463	1.8	461	466	21.9	55.6
2025-08-06T12:43	10	143	15.0	114	158	465	2.1	462	468	21.6	56.1
2025-08-06T12:44	10	139	8.0	124	151	465	1.3	463	467	21.3	56.4
2025-08-06T12:45	10	128	6.6	118	139	466	0.5	465	467	21.5	56.7
2025-08-06T12:46	10	120	7.1	110	134	467	1.3	465	469	21.8	56.7
2025-08-06T12:47	10	154	9.8	133	166	473	3.2	468	477	22.3	55.5
2025-08-06T12:48	10	146	10.0	136	164	471	3.5	466	476	21.9	55.3
2025-08-06T12:49	10	126	7.6	119	143	466	2.4	462	469	21.6	56.0
2025-08-06T12:50	10	138	11.8	118	158	466	2.4	463	470	21.6	56.5
2025-08-06T12:51	10	147	22.2	106	169	470	1.6	467	473	21.9	55.8
2025-08-06T12:52	10	120	10.1	107	137	467	0.8	465	468	22.0	55.3
2025-08-06T12:53	10	119	10.2	109	144	463	2.2	459	466	21.9	55.2
2025-08-06T12:54	10	104	3.8	96	109	460	1.0	457	461	22.0	55.6
2025-08-06T12:55	10	94	1.2	92	96	457	0.4	457	458	22.0	55.6
2025-08-06T12:56	10	96	1.3	94	99	456	1.4	454	458	22.1	54.6
2025-08-06T12:57	10	92	2.3	89	99	456	0.4	456	457	22.0	55.3
2025-08-06T12:58	10	88	1.1	86	89	455	0.4	455	456	22.1	55.2
2025-08-06T12:59	10	85	0.9	84	86	453	1.5	451	455	22.0	54.8
2025-08-06T13:00	10	87	5.0	83	100	451	0.5	450	453	22.0	54.8
2025-08-06T13:01	10	97	2.1	93	100	452	0.8	451	454	22.0	54.8
2025-08-06T13:02	10	103	5.8	93	110	452	1.2	450	454	21.8	55.4
2025-08-06T13:03	10	95	2.6	91	100	451	0.9	450	453	21.8	56.0
2025-08-06T13:04	10	92	1.9	90	97	449	0.8	448	451	21.5	55.8
2025-08-06T13:05	10	105	7.5	93	116	451	2.1	448	455	21.5	56.4
2025-08-06T13:06	10	99	9.0	90	116	455	0.6	454	456	21.8	56.6
2025-08-06T13:07	10	90	3.3	87	99	451	1.0	450	454	22.0	55.8
2025-08-06T13:08	10	104	7.3	97	119	452	1.0	450	454	21.8	55.9
2025-08-06T13:09	10	148	20.7	116	186	459	5.2	451	468	21.8	56.2
2025-08-06T13:10	10	175	3.5	167	183	469	2.1	466	473	21.7	55.9
2025-08-06T13:11	10	166	5.7	155	174	472	1.1	471	475	22.0	55.6
2025-08-06T13:12	10	162	4.7	150	170	472	1.7	469	475	22.1	54.6
2025-08-06T13:13	10	129	18.1	103	162	467	3.3	462	471	21.9	54.8
2025-08-06T13:14	10	118	10.5	100	133	463	1.5	461	465	22.1	54.7
2025-08-06T13:15	10	136	14.3	107	152	464	2.6	461	469	22.1	54.6
2025-08-06T13:16	10	149	5.3	135	158	470	1.2	468	472	22.2	54.6
2025-08-06T13:17	10	163	14.7	145	185	473	2.7	469	478	22.4	53.9
2025-08-06T13:18	10	173	11.8	151	189	473	1.8	469	477	22.5	53.7
2025-08-06T13:19	10	178	7.3	167	190	477	1.8	475	481	22.6	53.7
2025-08-06T13:20	10	173	11.5	156	189	484	1.4	481	486	23.4	52.7
2025-08-06T13:21	10	167	4.8	159	176	478	1.8	476	482	22.8	52.5
2025-08-06T13:22	10	120	15.5	105	159	470	4.5	464	478	22.5	53.5
2025-08-06T13:23	10	112	3.7	104	119	464	1.1	461	466	22.1	54.4
2025-08-06T13:24	10	98	1.9	95	103	459	1.3	456	462	22.2	54.4
2025-08-06T13:25	10	106	9.7	96	123	458	2.0	456	463	22.1	54.7
2025-08-06T13:26	10	140	9.8	123	156	466	1.8	462	469	22.3	54.6
2025-08-06T13:27	10	144	7.1	129	155	470	0.6	469	471	22.4	54.5
2025-08-06T13:28	10	149	8.5	134	167	473	1.3	470	475	22.3	54.9
2025-08-06T13:29	10	132	4.6	125	139	471	1.6	469	474	22.1	54.9
2025-08-06T13:30	10	135	10.8	123	156	470	0.7	469	472	22.3	55.0
2025-08-06T13:31	10	173	7.2	154	186	475	3.7	470	482	22.3	54.9
2025-08-06T13:32	10	175	10.1	154	186	481	2.0	477	483	22.4	54.9
2025-08-06T13:33	10	144	14.9	123	169	474	4.1	466	479	22.5	54.2
2025-08-06T13:34	10	127	7.1	116	138	466	1.1	464	468	22.1	54.4
2025-08-06T13:35	10	121	10.5	103	146	463	1.5	461	466	22.0	54.5
2025-08-06T13:36	10	125	5.6	117	143	465	1.4	463	468	21.9	54.8
2025-08-06T13:37	10	118	4.8	111	129	466	2.9	462	469	22.7	53.8
2025-08-06T13:38	10	129	13.1	106	153	464	0.8	463	466	22.3	54.5
2025-08-06T13:39	10	129	11.6	109	150	467	1.1	466	470	22.6	54.5
2025-08-06T13:40	10	130	10.0	101	142	466	0.6	464	467	22.2	54.0
2025-08-06T13:41	10	107	12.1	92	130	465	1.6	460	467	22.6	53.9
2025-08-06T13:42	10	106	6.6	95	121	461	0.3	460	461	22.2	54.0
2025-08-06T13:43	10	138	22.4	107	172	465	3.5	461	472	22.3	54.0
2025-08-06T13:44	10	182	8.4	169	196	474	2.2	469	476	22.3	53.8
2025-08-06T13:45	10	156	25.0	113	195	476	1.7	473	478	22.2	54.2
2025-08-06T13:46	10	171	16.6	123	192	475	1.6	472	477	22.7	53.3
2025-08-06T13:47	10	188	8.1	170	205	478	1.6	476	482	22.6	53.1
2025-08-06T13:48	10	178	15.7	157	207	479	2.6	476	483	22.6	53.2
2025-08-06T13:49	10	167	11.0	148	188	480	1.1	477	482	22.8	53.2
2025-08-06T13:50	10	177	15.9	149	203	478	0.6	477	480	23.0	52.7
2025-08-06T13:51	10	161	22.8	115	196	478	2.4	471	481	22.7	53.2
2025-08-06T13:52	10	115	9.3	104	132	471	1.8	466	474	22.7	53.6
2025-08-06T13:53	10	128	21.4	104	160	472	4.0	466	477	22.7	54.0
2025-08-06T13:54	10	109	9.2	102	132	470	2.5	467	474	23.0	53.7
2025-08-06T13:55	10	118	11.6	104	139	468	3.0	463	472	22.7	53.9
2025-08-06T13:56	10	106	1.5	103	109	462	0.6	461	464	22.5	54.4
2025-08-06T13:57	10	104	3.0	100	110	464	0.8	463	466	22.7	54.3
2025-08-06T13:58	10	100	0.9	99	102	462	0.9	461	464	22.7	53.4
2025-08-06T13:59	10	106	6.0	100	119	462	0.9	461	464	22.5	53.9
2025-08-06T14:00	10	115	8.9	106	133	467	1.1	464	468	22.5	54.3
2025-08-06T14:01	10	124	13.2	107	149	468	1.5	467	471	22.6	54.2
2025-08-06T14:02	10	143	14.7	123	169	470	0.8	468	472	22.6	54.1
2025-08-06T14:03	10	130	20.2	109	179	469	2.0	466	473	22.6	54.2
2025-08-06T14:04	10	123	13.6	109	169	469	2.5	465	472	22.7	54.3
2025-08-06T14:05	10	121	4.8	113	129	466	0.8	465	468	22.6	53.9
2025-08-06T14:06	10	106	2.7	102	117	467	0.7	465	468	22.6	54.5
2025-08-06T14:07	10	114	9.4	103	136	468	1.3	466	470	22.9	54.4
2025-08-06T14:08	10	111	4.5	106	122	467	0.5	466	468	23.0	53.8
2025-08-06T14:09	10	121	14.7	105	155	465	1.1	463	467	22.8	53.5
2025-08-06T14:10	10	115	3.9	108	123	463	1.1	461	465	22.5	53.8
2025-08-06T14:11	10	119	13.4	104	142	465	2.1	461	468	22.7	54.2
2025-08-06T14:12	10	114	11.0	104	144	465	2.0	462	468	22.9	53.4
2025-08-06T14:13	10	110	7.8	102	137	462	0.8	461	465	22.8	53.8
2025-08-06T14:14	10	123	12.8	106	151	462	2.2	458	466	22.7	53.3
2025-08-06T14:15	10	98	3.7	95	112	458	0.8	456	459	22.5	53.7
2025-08-06T14:16	10	95	1.5	93	99	458	1.0	455	460	22.8	53.3
2025-08-06T14:17	10	96	1.6	93	99	456	0.5	456	457	22.7	53.4
2025-08-06T14:18	10	97	2.6	95	104	456	0.8	455	458	22.5	53.9
2025-08-06T14:19	10	106	9.7	97	131	457	1.3	454	459	22.5	54.0
2025-08-06T14:20	10	101	1.4	98	106	458	0.9	456	460	22.6	54.1
2025-08-06T14:21	10	109	2.0	105	112	461	0.6	459	462	22.9	54.0
2025-08-06T14:22	10	108	3.4	102	114	462	0.8	461	464	22.9	54.3
2025-08-06T14:23	10	110	5.6	104	127	461	0.5	460	462	22.7	53.7
2025-08-06T14:24	10	117	5.3	109	128	461	1.0	460	464	22.4	54.2
2025-08-06T14:25	10	124	5.6	113	133	465	1.2	463	468	22.7	54.6
2025-08-06T14:26	10	120	12.1	103	140	468	1.6	465	470	23.0	54.5
2025-08-06T14:27	10	113	6.7	105	128	466	1.0	464	468	23.1	53.4
2025-08-06T14:28	10	109	3.9	105	117	465	1.1	464	467	23.0	53.6
2025-08-06T14:29	10	120	8.0	109	137	463	1.2	462	466	22.8	54.3
2025-08-06T14:30	10	105	5.1	100	117	462	1.6	459	465	22.9	54.1
2025-08-06T14:31	10	108	5.8	101	121	459	0.5	458	460	22.6	54.2
2025-08-06T14:32	10	125	18.7	102	159	463	1.6	459	465	22.5	54.5
2025-08-06T14:33	10	127	12.8	110	150	466	1.5	464	468	22.8	54.0
2025-08-06T14:34	10	119	15.3	105	156	462	2.3	459	465	22.5	53.8
2025-08-06T14:35	10	110	3.6	103	117	460	0.5	459	461	22.5	53.9
2025-08-06T14:36	10	119	22.9	99	173	461	1.1	460	465	22.6	53.6
2025-08-06T14:37	10	150	21.5	109	177	466	1.1	463	468	22.5	53.8
2025-08-06T14:38	10	170	16.4	118	184	470	2.8	464	474	22.5	54.1
2025-08-06T14:39	10	179	1.9	175	182	476	1.6	473	479	22.7	54.2
2025-08-06T14:40	10	170	3.6	160	175	477	1.6	475	480	22.9	53.4
2025-08-06T14:41	10	130	17.8	104	165	469	4.7	462	477	22.5	53.9
2025-08-06T14:42	10	132	10.7	116	154	466	1.5	462	468	22.4	54.0
2025-08-06T14:43	10	113	3.9	106	123	460	1.3	459	463	22.4	54.0
2025-08-06T14:44	10	107	12.7	85	123	459	1.4	456	461	22.7	53.3
2025-08-06T14:45	10	85	2.7	82	92	455	0.9	454	457	22.7	53.3
2025-08-06T14:46	10	86	4.0	81	95	454	0.6	453	455	22.7	53.5
2025-08-06T14:47	10	86	3.5	81	92	453	1.1	451	454	22.7	53.5
2025-08-06T14:48	10	81	4.9	75	91	451	0.7	450	452	22.5	54.0
2025-08-06T14:49	10	76	2.1	74	82	450	0.3	450	451	22.5	54.1
2025-08-06T14:50	10	76	2.3	73	83	450	0.3	449	450	22.4	54.3
2025-08-06T14:51	10	79	12.1	69	102	448	1.1	446	449	22.2	54.5
2025-08-06T14:52	10	71	4.2	67	81	446	0.4	445	447	22.3	54.8
2025-08-06T14:53	10	67	0.4	66	68	445	0.5	444	446	22.1	54.7
2025-08-06T14:54	10	74	6.6	67	87	445	0.9	444	447	22.1	54.7
2025-08-06T14:55	10	71	3.9	68	83	446	0.7	444	447	22.2	54.5
2025-08-06T14:56	10	72	2.2	68	76	446	0.6	444	446	22.2	54.3
2025-08-06T14:57	10	77	7.0	72	98	446	0.8	445	448	22.2	54.5
2025-08-06T14:58	10	98	4.2	91	105	450	1.1	447	451	22.3	54.1
2025-08-06T14:59	10	99	6.3	90	112	450	0.8	449	452	22.2	54.1
2025-08-06T15:00	10	107	5.3	96	113	453	0.9	451	455	22.4	53.9
2025-08-06T15:01	10	87	5.1	79	96	451	1.3	449	453	22.4	53.7
2025-08-06T15:02	10	88	6.9	69	93	452	1.0	450	453	22.6	53.8
2025-08-06T15:03	10	67	0.6	66	69	449	1.6	447	453	22.7	53.5
2025-08-06T15:04	10	69	1.5	66	71	448	0.8	446	449	22.6	53.8
2025-08-06T15:05	10	69	1.1	68	71	449	0.3	448	449	22.7	53.9
2025-08-06T15:06	10	71	1.2	69	74	449	0.4	448	449	22.7	53.9
2025-08-06T15:07	10	67	2.0	65	70	447	0.7	446	448	22.5	54.3
2025-08-06T15:08	10	66	2.0	65	71	446	0.4	445	447	22.4	54.3
2025-08-06T15:09	10	76	1.8	71	78	447	0.6	446	448	22.3	54.3
2025-08-06T15:10	10	72	2.8	67	75	446	0.4	445	447	22.2	54.6
2025-08-06T15:11	10	75	2.5	69	79	446	0.5	445	447	22.2	54.3
2025-08-06T15:12	10	78	3.2	74	84	447	0.5	446	448	22.2	54.3
2025-08-06T15:13	10	99	11.7	78	114	450	2.8	446	454	22.3	54.4
2025-08-06T15:14	10	87	13.7	71	105	452	2.0	448	454	22.5	54.4
2025-08-06T15:15	10	86	11.4	74	108	451	1.3	449	453	22.7	54.6
2025-08-06T15:16	10	78	11.5	67	98	451	1.2	449	453	22.8	53.9
2025-08-06T15:17	10	66	2.6	63	73	449	0.6	448	450	22.8	53.9
2025-08-06T15:18	10	64	2.5	60	70	448	0.6	447	449	22.8	54.2
2025-08-06T15:19	10	59	0.6	58	60	445	2.2	442	448	22.6	53.7
2025-08-06T15:20	10	57	0.3	57	58	442	0.4	441	443	22.2	53.8
2025-08-06T15:21	10	57	0.5	56	58	441	0.3	441	442	22.2	53.8
2025-08-06T15:22	10	60	2.9	56	64	441	0.4	440	441	22.2	54.0
2025-08-06T15:23	10	57	1.1	56	59	440	0.5	440	442	22.2	54.6
2025-08-06T15:24	10	57	2.1	56	62	441	0.5	441	443	22.3	54.8
2025-08-06T15:25	10	70	14.9	57	93	443	1.3	442	446	22.5	54.2
2025-08-06T15:26	10	76	6.8	68	85	445	0.5	444	446	22.4	53.7
2025-08-06T15:27	10	66	1.6	61	69	444	0.3	443	445	22.5	53.8
2025-08-06T15:28	10	59	0.8	57	61	441	0.8	440	444	22.4	53.5
2025-08-06T15:29	10	55	1.2	53	57	439	0.8	438	441	22.3	53.6
2025-08-06T15:30	10	52	0.4	52	53	438	0.4	437	439	22.3	53.8
2025-08-06T15:31	10	52	0.6	51	53	440	0.4	439	440	22.5	53.8
2025-08-06T15:32	10	50	0.5	49	51	439	0.2	439	440	22.5	53.7
2025-08-06T15:33	10	48	0.5	47	49	438	1.1	437	440	22.4	53.7
2025-08-06T15:34	10	47	0.2	46	47	437	0.2	436	437	22.4	54.0
2025-08-06T15:35	10	46	0.1	46	46	437	0.5	436	438	22.3	53.8
2025-08-06T15:36	10	46	0.2	45	46	437	0.3	436	437	22.3	54.2
2025-08-06T15:37	10	46	0.3	46	46	437	0.3	436	438	22.3	54.3
2025-08-06T15:38	10	46	0.2	46	47	436	0.3	436	437	22.4	54.3
2025-08-06T15:39	10	46	0.4	46	47	436	0.3	435	437	22.3	54.0
2025-08-06T15:40	10	45	0.2	45	46	435	0.4	434	435	22.2	54.1
2025-08-06T15:41	10	46	1.0	45	48	434	0.2	433	434	22.1	54.0
2025-08-06T15:42	10	50	1.2	48	51	434	0.3	433	435	22.1	54.2
2025-08-06T15:43	10	48	1.5	47	51	434	0.4	433	434	22.1	54.0
2025-08-06T15:44	10	47	0.1	47	48	433	0.2	433	434	22.0	54.0
2025-08-06T15:45	10	48	0.5	47	49	434	0.2	433	434	22.0	54.2
2025-08-06T15:46	10	52	1.4	49	54	434	0.5	433	435	22.0	54.2
2025-08-06T15:47	10	54	0.3	53	55	435	0.4	434	436	22.0	54.3
2025-08-06T15:48	10	54	0.8	53	55	435	0.3	434	435	22.0	54.3
2025-08-06T15:49	10	54	1.1	53	55	435	0.4	435	436	22.0	54.7
2025-08-06T15:50	10	55	0.5	54	56	436	0.2	435	436	22.0	54.6
2025-08-06T15:51	10	52	0.9	51	54	436	0.4	435	437	22.0	55.0
2025-08-06T15:52	10	50	0.3	50	51	437	0.4	436	438	22.1	55.1
2025-08-06T15:53	10	50	0.2	50	51	437	0.9	435	438	22.1	54.7
2025-08-06T15:54	10	50	0.2	50	50	435	0.2	435	436	22.0	54.7
2025-08-06T15:55	10	50	0.2	50	51	435	0.3	434	436	22.0	54.6
2025-08-06T15:56	10	51	0.7	50	52	436	0.4	435	437	22.1	54.8
2025-08-06T15:57	10	54	1.0	52	57	436	0.6	435	437	22.0	54.8
2025-08-06T15:58	10	69	5.9	58	76	438	1.4	436	441	22.2	55.2
2025-08-06T15:59	10	75	4.3	69	81	441	0.6	440	442	22.2	54.5
2025-08-06T16:00	10	68	2.6	64	72	439	0.8	438	441	22.1	54.4
2025-08-06T16:01	10	65	1.4	63	67	438	0.4	437	439	22.1	54.6
2025-08-06T16:02	10	65	1.8	63	68	439	0.4	438	440	22.2	54.4
2025-08-06T16:03	10	60	1.5	58	63	439	0.3	439	440	22.3	54.7
2025-08-06T16:04	10	67	2.0	63	69	441	0.6	439	442	22.5	54.7
2025-08-06T16:05	10	70	1.5	67	72	442	0.4	441	442	22.5	54.3
2025-08-06T16:06	10	69	1.0	67	71	441	0.6	439	441	22.3	54.3
2025-08-06T16:07	10	72	1.0	70	74	440	0.3	439	440	22.2	54.7
2025-08-06T16:08	10	72	1.0	70	73	440	0.4	439	441	22.2	54.8
2025-08-06T16:09	10	68	2.3	63	71	439	0.9	437	441	22.1	54.8
2025-08-06T16:10	10	62	0.7	60	63	437	0.6	436	438	22.1	54.9
2025-08-06T16:11	10	55	2.4	51	60	436	0.5	435	437	22.0	55.1
2025-08-06T16:12	10	48	1.2	47	51	435	0.5	434	436	22.1	55.1
2025-08-06T16:13	10	46	0.5	45	47	434	0.5	433	435	22.1	55.1
2025-08-06T16:14	10	44	0.3	44	45	433	0.4	432	434	22.0	55.0
2025-08-06T16:15	10	43	0.5	42	44	432	0.3	431	433	22.0	55.3
2025-08-06T16:16	10	42	0.3	41	42	432	0.3	431	432	22.0	55.2
2025-08-06T16:17	10	42	0.3	41	43	433	0.3	432	433	22.1	55.5
2025-08-06T16:18	10	47	2.3	43	50	432	0.2	431	432	22.0	55.1
2025-08-06T16:19	10	53	0.9	51	55	432	0.5	432	433	22.0	55.2
2025-08-06T16:20	10	54	0.5	54	55	433	0.4	432	433	22.0	55.3
2025-08-06T16:21	10	53	2.1	48	55	433	0.4	432	434	22.0	55.3
2025-08-06T16:22	10	51	6.0	45	62	432	0.4	431	433	22.0	55.3
2025-08-06T16:23	10	60	3.3	54	64	433	0.4	432	434	22.0	55.3
2025-08-06T16:24	10	71	5.0	64	78	436	1.2	434	438	22.1	55.5
2025-08-06T16:25	10	79	1.5	77	81	439	1.1	437	440	22.2	55.4
2025-08-06T16:26	10	65	15.0	40	82	437	1.8	433	439	22.1	55.6
2025-08-06T16:27	10	38	0.7	37	40	433	1.2	431	435	22.0	55.7
2025-08-06T16:28	10	37	0.2	37	37	431	0.4	430	432	22.0	55.9
2025-08-06T16:29	10	37	0.1	37	37	430	0.2	430	431	22.0	56.0
2025-08-06T16:30	10	37	0.2	37	37	431	0.2	430	431	22.0	56.2
2025-08-06T16:31	10	37	0.3	37	38	430	0.3	429	431	22.0	56.1
2025-08-06T16:32	10	37	0.5	36	38	429	0.2	429	430	21.8	55.8
2025-08-06T16:33	10	36	0.1	36	36	429	0.2	428	429	21.8	56.2
2025-08-06T16:34	10	36	0.1	35	36	429	0.3	428	429	21.8	56.1
2025-08-06T16:35	10	35	0.1	35	36	428	0.3	428	429	21.8	56.0
2025-08-06T16:36	10	35	0.2	35	36	429	0.3	429	430	21.8	55.8
2025-08-06T16:37	10	35	0.1	35	35	428	0.2	428	429	21.8	56.0
2025-08-06T16:38	10	34	0.1	34	35	429	0.2	428	429	21.8	56.3
2025-08-06T16:39	10	34	0.1	34	34	428	0.3	427	428	21.8	56.2
2025-08-06T16:40	10	34	0.1	34	35	428	0.3	427	428	21.8	56.1
2025-08-06T16:41	10	35	0.7	35	37	427	0.2	427	428	21.8	56.1
2025-08-06T16:42	10	42	3.3	37	47	428	0.4	427	428	21.8	56.2
2025-08-06T16:43	10	44	1.3	43	47	428	0.2	428	429	21.8	56.5
2025-08-06T16:44	10	49	2.7	44	53	428	0.5	427	429	21.8	56.7
2025-08-06T16:45	10	49	3.2	45	56	429	0.2	429	430	21.8	56.7
2025-08-06T16:46	10	69	7.0	56	78	431	1.4	429	434	21.8	56.7
2025-08-06T16:47	10	79	0.4	78	79	435	1.2	433	437	21.9	57.0
2025-08-06T16:48	10	80	0.6	79	81	436	0.3	435	436	21.9	56.4
2025-08-06T16:49	10	80	0.7	79	81	436	0.3	436	437	22.0	56.5
2025-08-06T16:50	10	80	0.5	78	81	436	0.3	436	437	22.0	56.0
2025-08-06T16:51	10	65	6.5	56	78	435	1.0	434	437	22.0	56.1
2025-08-06T16:52	10	69	2.2	64	72	434	0.4	433	435	22.0	56.0
2025-08-06T16:53	10	66	7.0	58	78	435	0.4	434	436	22.0	56.3
2025-08-06T16:54	10	80	0.8	78	81	436	0.7	435	438	22.0	55.8
2025-08-06T16:55	10	81	1.1	78	81	438	0.6	437	439	22.0	56.2
2025-08-06T16:56	10	73	2.8	65	77	439	0.3	438	439	22.2	56.5
2025-08-06T16:57	10	58	2.5	53	65	438	1.0	435	439	22.3	56.2
2025-08-06T16:58	10	43	3.3	40	53	433	1.5	431	436	22.1	55.4
2025-08-06T16:59	10	41	1.7	39	45	431	0.5	430	432	21.9	55.9
2025-08-06T17:00	10	42	2.4	39	45	431	0.4	430	431	21.9	56.3
2025-08-06T17:01	10	42	3.7	36	47	431	0.4	430	431	21.9	56.7
2025-08-06T17:02	10	37	1.0	35	38	430	0.3	429	431	21.9	56.5
2025-08-06T17:03	10	32	1.2	31	35	429	0.5	428	430	22.0	56.7
2025-08-06T17:04	10	30	0.4	29	31	428	0.5	427	430	21.9	56.9
2025-08-06T17:05	10	29	0.3	28	30	428	0.2	427	428	21.9	56.9
2025-08-06T17:06	10	28	0.3	27	28	427	0.3	426	427	21.9	56.9
2025-08-06T17:07	10	27	0.3	26	27	426	0.3	426	427	21.9	57.7
2025-08-06T17:08	10	26	0.2	26	26	425	0.4	425	426	21.9	57.3
2025-08-06T17:09	10	25	0.2	25	26	425	0.3	424	426	21.8	56.9
2025-08-06T17:10	10	25	0.2	24	25	424	0.2	424	425	21.8	57.4
2025-08-06T17:11	10	25	0.2	24	25	424	0.2	424	425	21.8	57.6
2025-08-06T17:12	10	24	0.2	24	25	424	0.3	423	424	21.8	57.0
2025-08-06T17:13	10	25	0.3	25	26	423	0.2	422	423	21.7	56.3
2025-08-06T17:14	10	25	1.2	23	26	422	0.4	421	423	21.6	56.7
2025-08-06T17:15	10	23	0.4	23	24	421	0.2	421	422	21.6	57.1
2025-08-06T17:16	10	23	0.4	22	23	421	0.3	421	422	21.6	57.3
2025-08-06T17:17	10	22	0.6	22	23	421	0.2	420	421	21.6	56.8
2025-08-06T17:18	10	22	0.1	22	22	421	0.2	420	421	21.6	57.1
2025-08-06T17:19	10	22	0.1	21	22	420	0.2	420	421	21.6	57.1
2025-08-06T17:20	10	22	0.1	21	22	420	0.2	419	420	21.6	57.1
2025-08-06T17:21	10	21	0.1	21	22	420	0.2	419	420	21.6	57.1
2025-08-06T17:22	10	21	0.2	21	21	420	0.3	419	420	21.6	57.2
2025-08-06T17:23	10	21	0.2	20	21	419	0.3	419	420	21.6	57.0
2025-08-06T17:24	10	20	0.2	20	20	419	0.2	418	419	21.6	56.7
2025-08-06T17:25	10	19	0.2	19	20	419	0.3	418	419	21.5	56.5
2025-08-06T17:26	10	19	0.2	18	19	418	0.2	418	418	21.5	56.8
2025-08-06T17:27	10	18	0.1	18	18	418	0.3	417	418	21.5	56.8
2025-08-06T17:28	10	18	0.2	17	18	418	0.2	417	418	21.4	56.9
2025-08-06T17:29	10	17	0.1	17	17	417	0.2	417	418	21.4	57.0
2025-08-06T17:30	10	17	0.1	17	17	417	0.2	416	417	21.4	57.5
2025-08-06T17:31	10	16	0.2	16	17	416	0.2	416	417	21.4	57.5
2025-08-06T17:32	10	16	0.2	16	16	416	0.2	415	416	21.4	57.7
2025-08-06T17:33	10	16	0.1	15	16	416	0.2	415	416	21.3	57.6
2025-08-06T17:34	10	15	0.1	15	16	416	0.2	415	416	21.3	57.8
2025-08-06T17:35	10	15	0.1	15	15	416	0.2	415	416	21.3	57.6
2025-08-06T17:36	10	15	0.1	15	15	415	0.2	415	415	21.3	58.0
2025-08-06T17:37	10	15	0.1	15	15	415	0.2	414	415	21.3	58.1
2025-08-06T17:38	10	15	0.1	15	15	415	0.2	414	415	21.3	58.0
2025-08-06T17:39	10	15	0.1	14	15	415	0.2	414	416	21.3	58.1
2025-08-06T17:40	10	14	0.1	14	15	415	0.3	414	415	21.3	57.9
2025-08-06T17:41	10	14	0.1	14	14	414	0.3	414	415	21.2	58.3
2025-08-06T17:42	10	14	0.1	13	14	414	0.2	414	415	21.2	57.8
2025-08-06T17:43	10	13	0.1	13	14	414	0.2	413	414	21.2	58.1
2025-08-06T17:44	10	13	0.1	13	14	414	0.2	413	414	21.2	58.3
2025-08-06T17:45	10	14	0.1	13	14	413	0.2	413	414	21.1	58.5
2025-08-06T17:46	10	14	0.4	14	15	414	0.3	413	414	21.2	58.3
2025-08-06T17:47	10	21	3.7	15	27	414	0.6	413	415	21.2	58.3
2025-08-06T17:48	10	30	0.9	28	31	415	0.5	414	416	21.2	58.4
2025-08-06T17:49	10	32	0.4	31	32	416	0.4	415	417	21.2	58.6
2025-08-06T17:50	10	32	0.1	32	32	416	0.2	416	417	21.2	58.5
2025-08-06T17:51	10	32	0.1	31	32	417	0.3	416	417	21.2	58.2
2025-08-06T17:52	10	32	0.1	31	32	417	0.2	416	417	21.2	58.3
2025-08-06T17:53	10	32	0.1	32	32	416	0.2	416	417	21.1	58.5
2025-08-06T17:54	10	32	0.1	32	32	417	0.3	416	418	21.1	58.6
2025-08-06T17:55	10	32	0.2	32	33	417	0.3	416	417	21.1	58.8
2025-08-06T17:56	10	32	0.1	32	32	417	0.3	416	417	21.1	58.0
2025-08-06T17:57	10	32	0.1	31	32	417	0.2	416	417	21.2	58.1
2025-08-06T17:58	10	31	0.2	31	32	417	0.3	416	418	21.1	58.1
2025-08-06T17:59	10	31	0.1	31	31	417	0.2	416	417	21.2	57.9
2025-08-06T18:00	10	31	0.1	30	31	417	0.2	416	417	21.2	58.0
2025-08-06T18:01	10	30	0.1	30	31	417	0.2	416	417	21.1	58.3
2025-08-06T18:02	10	30	0.1	30	30	416	0.2	416	417	21.1	58.1
2025-08-06T18:03	10	30	0.2	29	30	416	0.3	415	417	21.1	58.1
2025-08-06T18:04	10	29	0.2	28	29	416	0.2	416	417	21.1	58.1
2025-08-06T18:05	10	28	0.3	28	29	415	0.3	415	416	21.1	58.3
2025-08-06T18:06	10	27	0.3	27	28	415	0.2	415	416	21.1	58.0
2025-08-06T18:07	10	26	0.4	25	27	415	0.4	414	416	21.1	58.3
2025-08-06T18:08	10	25	0.3	24	26	414	0.3	414	415	21.1	58.3
2025-08-06T18:09	10	24	0.4	23	24	414	0.3	413	414	21.1	58.2
2025-08-06T18:10	10	23	0.3	22	23	413	0.3	413	414	21.1	57.9
2025-08-06T18:11	10	22	0.3	21	22	413	0.3	412	414	21.1	58.0
2025-08-06T18:12	10	21	0.2	20	21	412	0.3	412	413	21.1	58.1
2025-08-06T18:13	10	20	0.2	19	21	412	0.2	411	412	21.0	58.6
2025-08-06T18:14	10	19	0.2	19	20	411	0.3	410	412	21.0	58.8
2025-08-06T18:15	10	19	0.2	18	19	410	0.3	410	411	21.0	58.6
2025-08-06T18:16	10	18	0.2	18	19	410	0.2	410	411	21.0	59.0
2025-08-06T18:17	10	18	0.2	17	18	410	0.3	409	410	20.9	59.1
2025-08-06T18:18	10	17	0.2	16	17	409	0.3	409	410	20.9	59.0
2025-08-06T18:19	10	16	0.2	16	17	409	0.2	408	409	20.9	59.0
2025-08-06T18:20	10	16	0.1	15	16	408	0.3	408	409	20.9	59.4
2025-08-06T18:21	10	15	0.2	15	16	408	0.2	407	408	20.8	59.4
2025-08-06T18:22	10	15	0.2	14	15	408	0.3	407	408	20.8	59.4
2025-08-06T18:23	10	14	0.2	14	14	408	0.3	407	408	20.9	59.2
2025-08-06T18:24	10	14	0.1	13	14	407	0.2	407	408	20.8	59.5
2025-08-06T18:25	10	13	0.2	13	14	407	0.3	407	408	20.9	59.3
2025-08-06T18:26	10	13	0.2	12	13	407	0.2	406	407	20.8	59.6
2025-08-06T18:27	10	12	0.2	12	13	406	0.4	405	407	20.8	60.0
2025-08-06T18:28	10	12	0.2	11	12	406	0.2	405	406	20.7	60.5
2025-08-06T18:29	10	11	0.2	11	11	405	0.3	404	406	20.6	60.7
2025-08-06T18:30	10	10	0.2	10	11	405	0.3	405	406	20.7	60.4
2025-08-06T18:31	10	10	0.2	10	10	405	0.2	404	405	20.7	60.6
2025-08-06T18:32	10	9	0.2	9	10	404	0.4	403	405	20.7	60.4
2025-08-06T18:33	10	9	0.2	8	9	403	0.2	403	404	20.7	60.5
2025-08-06T18:34	10	8	0.1	8	9	403	0.3	402	403	20.6	60.8
2025-08-06T18:35	10	8	0.1	8	8	403	0.2	402	403	20.6	61.1
2025-08-06T18:36	10	8	0.1	7	8	402	0.2	402	403	20.6	61.1
2025-08-06T18:37	10	7	0.1	7	8	402	0.3	401	402	20.6	61.2
2025-08-06T18:38	10	7	0.2	6	7	401	0.3	400	402	20.5	61.3
2025-08-06T18:39	10	6	0.2	6	7	401	0.2	400	401	20.5	61.2
2025-08-06T18:40	10	5	0.2	5	6	401	0.2	400	401	20.5	61.0
2025-08-06T18:41	10	5	0.2	4	5	401	0.2	400	401	20.5	61.6
2025-08-06T18:42	10	4	0.1	4	5	400	0.3	400	401	20.5	61.3
2025-08-06T18:43	10	4	0.1	4	4	400	0.3	399	401	20.5	61.0
2025-08-06T18:44	10	4	0.2	4	4	400	0.3	399	400	20.5	61.1
2025-08-06T18:45	10	3	0.1	3	4	399	0.2	398	399	20.4	61.6
2025-08-06T18:46	10	3	0.1	3	3	399	0.4	398	400	20.4	61.0
2025-08-06T18:47	10	3	0.1	3	3	399	0.3	399	400	20.4	61.2
2025-08-06T18:48	10	3	0.1	2	3	399	0.2	399	400	20.3	61.2
2025-08-06T18:49	10	2	0.1	2	3	399	0.2	398	399	20.4	61.0
2025-08-06T18:50	10	2	0.1	2	2	398	0.2	398	399	20.4	60.9
2025-08-06T18:51	10	2	0.1	2	2	398	0.2	398	399	20.4	60.9
2025-08-06T18:52	10	2	0.1	2	2	398	0.3	397	399	20.3	61.1
2025-08-06T18:53	10	2	0.1	1	2	397	0.3	397	398	20.3	61.4
2025-08-06T18:54	10	1	0.1	1	2	397	0.3	396	397	20.2	61.2
2025-08-06T18:55	10	1	0.1	1	1	397	0.4	396	398	20.3	61.0
2025-08-06T18:56	10	1	0.1	1	1	397	0.4	396	398	20.3	60.7
2025-08-06T18:57	10	1	0.1	1	1	397	0.3	396	398	20.3	61.0
2025-08-06T18:58	10	1	0.1	1	1	396	0.3	396	397	20.3	60.9
2025-08-06T18:59	10	1	0.1	0	1	396	0.4	395	396	20.2	61.3
2025-08-06T19:00	10	0	0.1	0	1	395	0.3	394	396	20.2	61.2
2025-08-06T19:01	10	0	0.1	0	1	394	0.3	394	395	20.2	61.5
2025-08-06T19:02	10	0	0.1	0	0	393	0.2	393	394	20.1	61.8
2025-08-06T19:03	10	0	0.1	0	0	393	0.2	393	394	20.0	62.0
2025-08-06T19:04	10	0	0.1	0	0	393	0.2	392	393	20.1	61.3
2025-08-06T19:05	10	0	0.1	0	1	393	0.3	393	394	20.2	61.1
2025-08-06T19:06	10	0	0.1	0	0	393	0.3	392	393	20.1	61.4
2025-08-06T19:07	10	0	0.1	0	0	392	0.2	392	393	20.1	61.2
2025-08-06T19:08	10	0	0.1	0	0	392	0.2	391	392	20.1	61.6
2025-08-06T19:09	10	0	0.1	0	0	391	0.2	391	392	20.0	61.6
2025-08-06T19:10	10	0	0.1	0	0	390	0.4	390	391	20.0	62.0
2025-08-06T19:11	10	0	0.1	0	0	390	0.3	390	391	19.9	62.3
2025-08-06T19:12	10	0	0.2	0	0	390	0.3	389	391	19.8	63.0
2025-08-06T19:13	10	0	0.2	0	0	389	0.2	389	390	19.7	63.3
2025-08-06T19:14	10	0	0.2	0	1	389	0.3	388	389	19.7	63.8
2025-08-06T19:15	10	0	0.2	0	0	389	0.3	388	389	19.5	64.8
2025-08-06T19:16	10	0	0.2	0	1	389	0.3	388	390	19.5	65.1
2025-08-06T19:17	10	0	0.1	0	0	389	0.4	388	389	19.4	65.7
2025-08-06T19:18	10	0	0.1	0	0	389	0.3	388	389	19.4	66.7
2025-08-06T19:19	10	0	0.2	0	0	389	0.2	388	389	19.4	65.8
2025-08-06T19:20	10	0	0.1	0	0	388	0.3	387	389	19.5	65.6
2025-08-06T19:21	10	0	0.1	0	0	388	0.3	387	388	19.4	65.6
2025-08-06T19:22	10	0	0.1	0	0	387	0.2	387	388	19.4	65.7
2025-08-06T19:23	10	0	0.1	0	0	387	0.2	387	388	19.3	66.4
2025-08-06T19:24	10	0	0.1	0	0	387	0.3	386	387	19.2	67.1
2025-08-06T19:25	10	0	0.1	0	0	387	0.3	386	387	19.3	66.3
2025-08-06T19:26	10	0	0.1	0	0	386	0.2	386	387	19.3	66.5
2025-08-06T19:27	10	0	0.1	0	0	386	0.2	386	387	19.3	66.0
2025-08-06T19:28	10	0	0.1	0	0	386	0.2	385	386	19.3	66.0
2025-08-06T19:29	10	0	0.1	0	0	386	0.3	385	386	19.2	66.0
2025-08-06T19:30	10	0	0.1	0	0	385	0.2	385	386	19.3	65.8
2025-08-06T19:31	10	0	0.1	0	0	385	0.3	385	386	19.2	65.7
2025-08-06T19:32	10	0	0.1	0	0	385	0.3	384	386	19.2	66.0
2025-08-06T19:33	10	0	0.1	0	0	385	0.2	384	385	19.2	65.4
2025-08-06T19:34	10	0	0.1	0	0	385	0.2	384	385	19.2	65.1
2025-08-06T19:35	10	0	0.1	0	0	385	0.2	384	385	19.2	65.1
2025-08-06T19:36	10	0	0.1	0	0	384	0.2	384	385	19.2	65.1
2025-08-06T19:37	10	0	0.1	0	0	384	0.2	384	385	19.2	65.3
2025-08-06T19:38	10	0	0.1	0	0	384	0.5	383	385	19.2	65.3
2025-08-06T19:39	10	0	0.1	0	0	384	0.3	383	385	19.1	65.5
2025-08-06T19:40	10	0	0.1	0	0	384	0.3	384	385	19.1	65.5
2025-08-06T19:41	10	0	0.1	0	0	384	0.2	383	384	19.0	65.8
2025-08-06T19:42	10	0	0.1	0	0	383	0.2	383	384	19.0	65.6
2025-08-06T19:43	10	0	0.1	0	0	383	0.2	383	384	19.1	65.4
2025-08-06T19:44	10	0	0.1	0	0	383	0.3	383	384	19.1	65.2
2025-08-06T19:45	10	0	0.1	0	0	383	0.3	382	384	19.1	65.4
2025-08-06T19:46	10	0	0.1	0	0	383	0.3	382	383	19.1	65.4
2025-08-06T19:47	10	0	0.1	0	0	383	0.2	382	383	19.0	66.6
2025-08-06T19:48	10	0	0.1	0	0	383	0.2	382	383	19.0	65.8
2025-08-06T19:49	10	0	0.1	0	0	383	0.2	382	383	19.1	65.6
2025-08-06T19:50	10	0	0.1	0	0	382	0.3	382	383	19.0	66.3
2025-08-06T19:51	10	0	0.1	0	0	382	0.3	381	383	18.8	67.7
2025-08-06T19:52	10	0	0.1	0	0	382	0.4	381	383	18.8	67.1
2025-08-06T19:53	10	0	0.1	0	0	382	0.3	381	383	18.9	66.0
2025-08-06T19:54	10	0	0.1	0	0	382	0.3	381	382	19.0	65.5
2025-08-06T19:55	10	0	0.1	0	0	382	0.4	381	383	18.9	66.4
2025-08-06T19:56	10	0	0.1	0	0	382	0.5	381	383	18.9	66.0
2025-08-06T19:57	10	0	0.1	0	0	382	0.3	381	383	18.9	65.6
2025-08-06T19:58	10	0	2.3	0	17	382	0.2	381	382	19.0	65.4
2025-08-06T19:59	10	0	0.1	0	0	382	0.3	381	383	19.0	64.8
2025-08-06T20:00	10	0	0.1	0	0	382	0.2	381	382	19.0	65.2
2025-08-06T20:01	10	0	0.1	0	0	382	0.3	381	382	19.0	65.1
2025-08-06T20:02	10	0	0.1	0	0	381	0.2	381	382	18.8	66.2
2025-08-06T20:03	10	0	0.1	0	0	381	0.4	380	382	18.8	66.3
2025-08-06T20:04	10	0	0.1	0	0	381	0.2	380	381	18.8	66.3
2025-08-06T20:05	10	0	0.1	0	0	380	0.3	380	381	18.6	66.8
2025-08-06T20:06	10	0	0.1	0	0	380	0.4	379	381	18.6	67.0
2025-08-06T20:07	10	0	0.1	0	0	379	0.3	378	380	18.5	67.6
2025-08-06T20:08	10	0	0.1	0	0	380	0.2	379	380	18.5	67.6
2025-08-06T20:09	10	0	0.1	0	0	380	0.3	379	380	18.5	67.0
2025-08-06T20:10	10	0	0.1	0	0	379	0.3	378	379	18.4	68.5
2025-08-06T20:11	10	0	0.1	0	0	379	0.2	378	379	18.2	71.1
2025-08-06T20:12	10	0	0.0	0	0	379	0.4	378	380	18.1	70.7
2025-08-06T20:13	10	0	0.1	0	0	379	0.2	379	380	18.2	69.8
2025-08-06T20:14	10	0	0.1	0	0	379	0.3	378	379	18.2	70.1
2025-08-06T20:15	10	0	0.1	0	0	379	0.2	378	379	18.1	70.3
2025-08-06T20:16	10	0	0.1	0	0	379	0.2	378	379	18.0	70.8
2025-08-06T20:17	10	0	0.1	0	0	379	0.2	378	379	18.0	71.2
2025-08-06T20:18	10	0	0.1	0	0	378	0.2	378	379	18.0	71.6
2025-08-06T20:19	10	0	0.1	0	0	378	0.2	377	379	18.0	71.1
2025-08-06T20:20	10	0	0.1	0	0	378	0.2	378	379	18.0	71.0
2025-08-06T20:21	10	0	0.0	0	0	378	0.3	377	379	18.0	71.0
2025-08-06T20:22	10	0	0.1	0	0	378	0.2	378	379	17.9	71.2
2025-08-06T20:23	10	0	0.1	0	0	378	0.2	378	379	17.9	71.2
2025-08-06T20:24	10	0	0.1	0	0	378	0.3	377	378	17.9	71.5
2025-08-06T20:25	10	0	0.1	0	0	377	0.3	377	378	17.8	71.5
2025-08-06T20:26	10	0	0.2	0	0	377	0.2	377	378	17.7	72.2
2025-08-06T20:27	10	0	0.2	0	0	377	0.2	376	378	17.7	72.3
2025-08-06T20:28	10	0	0.2	0	0	377	0.2	376	377	17.7	72.2
2025-08-06T20:29	10	0	0.2	0	0	377	0.2	376	377	17.7	72.3
2025-08-06T20:30	10	0	0.1	0	0	376	0.2	376	377	17.6	72.4
2025-08-06T20:31	10	0	0.2	0	0	376	0.3	376	377	17.5	72.8
2025-08-06T20:32	10	0	0.1	0	0	376	0.3	375	376	17.5	73.0
2025-08-06T20:33	10	0	0.1	0	0	376	0.2	375	376	17.4	73.7
2025-08-06T20:34	10	0	0.2	-1	0	376	0.3	375	377	17.3	73.8
2025-08-06T20:35	10	0	0.2	0	1	376	0.3	376	377	17.3	73.6
2025-08-06T20:36	10	0	0.1	0	0	377	0.3	376	378	17.3	73.5
2025-08-06T20:37	10	0	0.1	0	0	377	0.2	376	377	17.3	73.1
2025-08-06T20:38	10	0	0.1	-1	0	376	0.2	376	377	17.3	73.6
2025-08-06T20:39	10	0	0.1	0	0	376	0.2	376	377	17.3	73.5
2025-08-06T20:40	10	0	0.1	0	0	376	0.2	376	377	17.3	73.1
2025-08-06T20:41	10	0	0.1	0	0	376	0.2	376	377	17.4	72.9
2025-08-06T20:42	10	0	0.1	0	0	376	0.2	375	376	17.3	73.0
2025-08-06T20:43	10	0	0.1	0	0	376	0.2	375	376	17.3	73.4
2025-08-06T20:44	10	0	0.1	0	0	376	0.2	375	376	17.3	73.2
2025-08-06T20:45	10	0	0.1	0	0	376	0.3	375	376	17.4	73.1
2025-08-06T20:46	10	0	0.1	0	0	376	0.2	375	376	17.4	73.0
2025-08-06T20:47	10	0	0.1	0	0	376	0.2	376	377	17.4	72.9
2025-08-06T20:48	10	0	0.1	0	0	376	0.2	375	376	17.4	72.7
2025-08-06T20:49	10	0	0.1	0	0	376	0.2	375	376	17.3	72.8
2025-08-06T20:50	10	0	0.1	0	0	375	0.3	375	376	17.3	73.0
2025-08-06T20:51	10	0	0.1	0	0	376	0.3	375	376	17.3	72.9
2025-08-06T20:52	10	0	0.1	0	0	377	0.5	376	377	17.3	72.6
2025-08-06T20:53	10	0	0.1	0	0	377	0.3	376	378	17.4	72.2
2025-08-06T20:54	10	0	0.1	0	0	376	0.2	376	377	17.4	72.7
2025-08-06T20:55	10	0	0.1	0	0	376	0.4	375	376	17.3	72.7
2025-08-06T20:56	10	0	0.1	0	0	375	0.2	375	376	17.2	73.2
2025-08-06T20:57	10	0	0.1	0	0	375	0.2	374	376	17.1	73.6
2025-08-06T20:58	10	0	0.1	0	0	375	0.3	374	376	17.1	73.8
2025-08-06T20:59	10	0	0.1	0	0	375	0.3	374	376	17.0	74.2
2025-08-06T21:00	10	0	0.1	0	0	376	0.5	375	376	17.2	72.9
2025-08-06T21:01	10	0	0.1	0	0	376	0.3	375	377	17.4	72.1
2025-08-06T21:02	10	0	0.1	0	0	376	0.2	376	377	17.3	72.1
2025-08-06T21:03	10	0	0.0	0	0	376	0.3	376	377	17.3	72.4
2025-08-06T21:04	10	0	0.1	0	0	376	0.3	375	376	17.2	72.8
2025-08-06T21:05	10	0	0.1	0	0	376	0.4	375	377	17.1	73.2
2025-08-06T21:06	10	0	0.1	0	0	376	0.2	375	376	17.2	72.6
2025-08-06T21:07	10	0	0.1	0	0	376	0.3	375	377	17.2	72.3
2025-08-06T21:08	10	0	0.1	0	0	376	0.2	376	377	17.2	72.3
2025-08-06T21:09	10	0	0.1	0	0	376	0.3	376	377	17.2	72.2
2025-08-06T21:10	10	0	0.1	0	0	376	0.2	375	376	17.2	72.3
2025-08-06T21:11	10	0	0.1	0	0	375	0.2	375	376	17.2	72.6
2025-08-06T21:12	10	0	0.1	0	0	375	0.3	375	376	17.2	72.5
2025-08-06T21:13	10	0	0.1	0	0	375	0.2	375	376	17.3	71.9
2025-08-06T21:14	10	0	0.1	0	0	375	0.4	374	376	17.2	72.2
2025-08-06T21:15	10	0	0.1	0	0	375	0.3	374	375	16.9	74.3
2025-08-06T21:16	10	0	0.1	0	0	374	0.2	373	375	16.8	74.5
2025-08-06T21:17	10	0	0.1	0	0	374	0.3	373	375	16.9	73.9
2025-08-06T21:18	10	0	0.1	0	0	374	0.3	373	374	16.9	73.6
2025-08-06T21:19	10	0	0.1	0	0	373	0.3	373	374	16.9	74.0
2025-08-06T21:20	10	0	0.1	0	0	373	0.2	372	373	16.8	74.4
2025-08-06T21:21	10	0	0.1	0	0	372	0.4	372	373	16.8	74.6
2025-08-06T21:22	10	0	0.1	0	0	373	0.3	372	373	16.7	74.6
2025-08-06T21:23	10	0	0.1	0	0	373	0.2	373	374	16.8	73.9
2025-08-06T21:24	10	0	0.1	0	0	373	0.2	373	374	16.9	73.6
2025-08-06T21:25	10	0	0.1	0	0	373	0.2	373	374	16.9	73.7
2025-08-06T21:26	10	0	0.1	0	0	373	0.2	372	373	16.9	72.4
2025-08-06T21:27	10	0	0.1	0	0	373	0.4	372	374	16.9	73.7
2025-08-06T21:28	10	0	0.1	0	0	372	0.5	371	373	16.9	73.7
2025-08-06T21:29	10	0	0.1	0	0	372	0.2	371	372	16.6	73.7
2025-08-06T21:30	10	0	0.1	0	0	371	0.2	371	372	16.9	73.7
2025-08-06T21:31	10	0	0.1	0	0	372	0.4	370	372	16.9	73.7
2025-08-06T21:32	10	0	0.1	0	0	372	0.4	371	373	16.9	73.7
2025-08-06T21:33	10	0	0.1	0	0	372	0.2	371	372	16.7	74.6
2025-08-06T21:34	10	0	0.1	0	0	372	0.3	371	373	16.3	76.6
2025-08-06T21:35	10	0	0.1	0	0	372	0.2	372	373	16.3	76.6
2025-08-06T21:36	10	0	0.1	0	0	372	0.3	371	373	16.3	76.8
2025-08-06T21:37	10	0	0.1	0	0	372	0.2	372	373	16.3	77.1
2025-08-06T21:38	10	0	0.1	0	0	372	0.3	371	372	16.2	77.6
2025-08-06T21:39	10	0	0.1	0	0	372	0.2	371	372	16.2	78.0
2025-08-06T21:40	10	0	0.1	0	0	372	0.2	371	372	16.2	78.3
2025-08-06T21:41	10	0	0.1	0	0	372	0.2	371	372	16.2	77.8
2025-08-06T21:42	10	0	0.1	0	0	371	0.2	371	372	16.2	77.8
2025-08-06T21:43	10	0	0.1	0	0	371	0.2	370	371	16.2	78.1
2025-08-06T21:44	10	0	0.1	0	0	371	0.2	371	372	16.3	77.6
2025-08-06T21:45	10	0	0.1	0	0	371	0.2	371	372	16.3	77.2
2025-08-06T21:46	10	0	0.1	0	0	371	0.2	371	372	16.4	76.8
2025-08-06T21:47	10	0	0.1	0	0	371	0.3	370	372	16.4	76.5
2025-08-06T21:48	10	0	0.1	0	0	371	0.2	370	371	16.4	76.8
2025-08-06T21:49	10	0	0.1	0	0	371	0.2	370	371	16.3	76.9
2025-08-06T21:50	10	0	0.1	0	0	371	0.2	370	371	16.4	76.6
2025-08-06T21:51	10	0	0.1	0	0	371	0.2	370	371	16.3	77.0
2025-08-06T21:52	10	0	0.1	0	0	371	0.2	370	371	16.3	77.2
2025-08-06T21:53	10	0	0.1	0	0	370	0.3	370	371	16.3	77.4
2025-08-06T21:54	10	0	0.1	0	0	370	0.3	369	370	16.2	78.2
2025-08-06T21:55	10	0	0.1	0	0	370	0.2	369	370	16.0	79.3
2025-08-06T21:56	10	0	0.1	0	0	370	0.2	370	371	15.9	79.5
2025-08-06T21:57	10	0	0.1	0	0	370	0.2	370	371	15.9	79.2
2025-08-06T21:58	10	0	0.1	0	0	370	0.2	370	370	15.9	79.5
2025-08-06T21:59	10	0	0.1	0	0	370	0.2	369	370	15.8	80.7
2025-08-06T22:00	10	0	0.1	0	0	370	0.2	369	370	15.6	81.9
2025-08-06T22:01	10	0	0.1	0	0	370	0.3	369	370	15.5	82.3
2025-08-06T22:02	10	0	0.1	0	0	370	0.2	369	370	15.5	82.4
2025-08-06T22:03	10	0	0.1	0	0	370	0.3	369	370	15.4	82.7
2025-08-06T22:04	10	0	0.1	0	1	370	0.3	370	371	15.4	83.1
2025-08-06T22:05	10	0	0.1	0	0	371	0.3	370	371	15.4	82.4
2025-08-06T22:06	10	0	0.2	0	1	371	0.5	370	372	15.5	82.1
2025-08-06T22:07	10	0	0.1	0	0	371	0.2	371	372	15.4	82.4
2025-08-06T22:08	10	0	0.1	0	0	371	0.3	371	372	15.4	82.9
2025-08-06T22:09	10	0	0.1	0	1	371	0.2	371	372	15.2	83.4
2025-08-06T22:10	10	0	0.1	0	0	372	0.4	371	372	15.1	83.6
2025-08-06T22:11	10	0	0.2	0	1	372	0.3	371	373	15.2	83.3
2025-08-06T22:12	10	0	0.2	0	1	372	0.3	371	372	15.3	83.1
2025-08-06T22:13	10	0	0.1	0	1	372	0.3	372	373	15.3	82.8
2025-08-06T22:14	10	0	0.1	0	0	372	0.3	372	373	15.3	82.8
2025-08-06T22:15	10	0	0.1	0	0	372	0.2	372	373	15.4	82.5
2025-08-06T22:16	10	0	0.2	0	1	373	0.2	372	373	15.3	82.9
2025-08-06T22:17	10	0	0.2	0	1	373	0.3	372	373	15.3	83.0
2025-08-06T22:18	10	0	0.2	0	0	373	0.2	372	373	15.2	83.2
2025-08-06T22:19	10	0	0.1	0	0	373	0.2	372	373	15.2	83.3
2025-08-06T22:20	10	0	0.1	0	0	372	0.3	371	373	15.2	83.2
2025-08-06T22:21	10	0	0.1	0	0	373	0.3	372	374	15.2	82.7
2025-08-06T22:22	10	0	0.1	0	0	373	0.3	373	374	15.3	82.4
2025-08-06T22:23	10	0	0.1	0	0	374	0.5	373	375	15.4	81.9
2025-08-06T22:24	10	0	0.1	0	0	375	0.3	375	376	15.5	81.3
2025-08-06T22:25	10	0	0.1	0	0	375	0.2	375	376	15.4	81.8
2025-08-06T22:26	10	0	0.1	0	0	375	0.3	374	376	15.1	83.2
2025-08-06T22:27	10	0	0.1	0	0	375	0.3	374	375	15.0	84.3
2025-08-06T22:28	10	0	0.1	0	0	374	0.2	374	375	15.1	84.1
2025-08-06T22:29	10	0	0.1	0	0	374	0.2	374	375	15.2	83.1
2025-08-06T22:30	10	0	0.1	0	0	374	0.3	374	375	15.3	82.6
2025-08-06T22:31	10	0	0.0	0	0	374	0.2	374	375	15.6	81.4
2025-08-06T22:32	10	0	0.1	0	0	374	0.2	374	375	15.6	81.1
2025-08-06T22:33	10	0	0.0	0	0	374	0.3	374	375	15.6	80.9
2025-08-06T22:34	10	0	0.0	0	0	374	0.2	374	375	15.8	80.3
2025-08-06T22:35	10	0	0.8	0	6	374	0.2	374	374	15.8	80.0
2025-08-06T22:36	10	0	0.0	0	0	373	0.2	373	374	15.8	79.9
2025-08-06T22:37	10	0	0.0	0	0	373	0.2	373	374	15.8	79.8
2025-08-06T22:38	10	0	0.0	0	0	373	0.3	372	374	15.8	79.8
2025-08-06T22:39	10	0	0.1	0	0	372	0.2	372	373	15.8	80.0
2025-08-06T22:40	10	0	0.1	0	0	372	0.3	372	373	15.8	80.1
2025-08-06T22:41	10	0	0.0	0	0	372	0.2	372	373	15.7	80.5
2025-08-06T22:42	10	0	0.0	0	0	372	0.4	372	373	15.5	81.5
2025-08-06T22:43	10	0	0.1	0	0	372	0.4	372	373	15.4	82.3
2025-08-06T22:44	10	0	0.1	0	0	373	0.3	372	373	15.5	81.8
2025-08-06T22:45	10	0	0.1	0	0	373	0.3	372	373	15.6	81.5
2025-08-06T22:46	10	0	0.1	0	0	373	0.2	373	373	15.7	80.7
2025-08-06T22:47	10	0	0.0	0	0	373	0.3	372	374	15.7	80.7
2025-08-06T22:48	10	0	0.0	0	0	373	0.2	372	373	15.8	80.6
2025-08-06T22:49	10	0	0.0	0	0	373	0.2	372	373	15.7	80.9
2025-08-06T22:50	10	0	0.1	0	0	373	0.3	372	373	15.8	80.7
2025-08-06T22:51	10	0	0.0	0	0	373	0.2	372	373	15.8	80.6
2025-08-06T22:52	10	0	0.1	0	0	373	0.2	372	373	15.8	80.2
2025-08-06T22:53	10	0	0.0	0	0	373	0.3	372	374	15.9	80.0
2025-08-06T22:54	10	0	0.0	0	0	373	0.3	373	374	15.9	80.0
2025-08-06T22:55	10	0	0.0	0	0	373	0.2	373	374	15.9	80.0
2025-08-06T22:56	10	0	0.0	0	0	374	0.2	373	374	15.8	80.2
2025-08-06T22:57	10	0	0.0	0	0	374	0.2	373	374	15.9	80.1
2025-08-06T22:58	10	0	0.0	0	0	374	0.3	373	374	15.8	80.2
2025-08-06T22:59	10	0	0.1	0	0	374	0.3	373	374	15.8	80.1
2025-08-06T23:00	10	0	0.1	0	0	373	0.4	373	374	15.9	79.8
2025-08-06T23:01	10	0	0.0	0	0	373	0.3	373	374	15.8	80.4
2025-08-06T23:02	10	0	0.1	0	0	373	0.3	372	374	15.6	81.0
2025-08-06T23:03	10	0	0.1	0	0	373	0.3	373	374	15.8	80.3
2025-08-06T23:04	10	0	0.1	0	0	373	0.3	372	374	15.9	79.9
2025-08-06T23:05	10	0	0.1	0	0	372	0.3	372	373	15.8	80.4
2025-08-06T23:06	10	0	0.1	0	0	372	0.2	372	373	15.6	81.2
2025-08-06T23:07	10	0	0.1	0	0	372	0.2	372	373	15.5	81.7
2025-08-06T23:08	10	0	0.1	0	0	372	0.2	371	373	15.6	81.3
2025-08-06T23:09	10	0	0.1	0	0	372	0.3	371	373	15.6	81.4
2025-08-06T23:10	10	0	0.1	0	0	372	0.2	371	372	15.5	81.7
2025-08-06T23:11	10	0	0.1	0	0	372	0.2	371	372	15.4	82.1
2025-08-06T23:12	10	0	0.1	0	0	372	0.2	372	372	15.3	82.8
2025-08-06T23:13	10	0	0.1	0	0	372	0.2	372	373	15.2	83.4
2025-08-06T23:14	10	0	0.1	0	0	372	0.3	372	373	15.2	83.2
2025-08-06T23:15	10	0	0.1	0	0	372	0.2	372	373	15.2	83.2
2025-08-06T23:16	10	0	0.1	0	0	372	0.2	371	372	15.2	83.3
2025-08-06T23:17	10	0	0.1	0	0	372	0.3	371	373	15.1	83.7
2025-08-06T23:18	10	0	0.1	0	0	372	0.2	371	372	15.1	84.1
2025-08-06T23:19	10	0	0.1	0	0	372	0.2	371	372	15.0	84.3
2025-08-06T23:20	10	0	0.1	0	0	372	0.2	371	372	15.0	84.8
2025-08-06T23:21	10	0	0.1	0	0	371	0.3	371	372	14.9	85.1
2025-08-06T23:22	10	0	0.1	0	0	371	0.2	370	371	14.9	85.1
2025-08-06T23:23	10	0	0.1	0	0	371	0.2	370	371	14.9	85.0
2025-08-06T23:24	10	0	0.1	0	0	370	0.3	370	371	14.9	84.9
2025-08-06T23:25	10	0	0.1	0	0	370	0.2	370	371	15.0	84.1
2025-08-06T23:26	10	0	0.8	0	6	370	0.2	370	370	15.1	83.7
2025-08-06T23:27	10	0	0.1	0	0	370	0.2	370	371	15.2	83.3
2025-08-06T23:28	10	0	0.1	0	0	370	0.2	369	370	15.1	83.6
2025-08-06T23:29	10	0	0.1	0	0	370	0.2	370	370	15.0	84.1
2025-08-06T23:30	10	0	0.1	0	0	370	0.2	370	371	14.9	84.6
2025-08-06T23:31	10	0	0.7	0	5	370	0.3	370	371	14.9	84.9
2025-08-06T23:32	10	0	0.1	0	0	370	0.2	370	371	14.9	84.9
2025-08-06T23:33	10	0	0.1	0	0	370	0.2	370	371	15.0	84.8
2025-08-06T23:34	10	0	0.1	0	0	370	0.3	369	370	15.0	84.7
2025-08-06T23:35	10	0	0.1	0	0	370	0.3	369	370	14.9	85.1
2025-08-06T23:36	10	0	0.1	0	0	370	0.2	370	370	14.7	85.7
2025-08-06T23:37	10	0	0.1	0	0	370	0.2	370	371	14.7	86.1
2025-08-06T23:38	10	0	0.1	0	0	370	0.2	370	371	14.6	86.2
2025-08-06T23:39	10	0	0.1	0	0	370	0.3	369	370	14.6	86.4
2025-08-06T23:40	10	0	0.1	0	0	370	0.3	369	370	14.6	86.3
2025-08-06T23:41	10	0	0.1	0	0	370	0.3	369	370	14.5	86.4
2025-08-06T23:42	10	0	0.1	0	0	370	0.2	369	370	14.5	86.5
2025-08-06T23:43	10	0	0.1	0	0	370	0.2	370	370	14.5	86.4
2025-08-06T23:44	10	0	0.1	0	0	370	0.2	370	371	14.5	86.3
2025-08-06T23:45	10	0	0.1	0	0	371	0.3	370	371	14.5	86.4
2025-08-06T23:46	10	0	0.1	0	0	371	0.3	370	371	14.5	86.3
2025-08-06T23:47	10	0	0.1	0	0	371	0.3	370	372	14.4	86.6
2025-08-06T23:48	10	0	0.1	0	0	371	0.3	370	372	14.5	86.6
2025-08-06T23:49	10	0	0.1	0	0	371	0.3	371	372	14.6	86.2
2025-08-06T23:50	10	0	0.1	0	0	371	0.3	370	372	14.4	86.8
2025-08-06T23:51	10	0	0.1	0	0	371	0.4	370	372	14.4	87.2
2025-08-06T23:52	10	0	0.1	0	0	371	0.2	370	371	14.4	87.0
2025-08-06T23:53	10	0	0.1	0	0	371	0.4	370	372	14.2	87.6
2025-08-06T23:54	10	0	0.1	0	0	372	0.3	371	372	14.3	87.4
2025-08-06T23:55	10	0	0.1	0	0	372	0.3	371	372	14.4	87.4
2025-08-06T23:56	10	0	0.1	0	0	372	0.2	372	373	14.5	86.8
2025-08-06T23:57	10	0	0.1	0	0	372	0.3	372	373	14.7	86.1
2025-08-06T23:58	10	0	0.1	0	0	372	0.5	371	373	14.6	86.2
2025-08-06T23:59	10	0	0.1	0	0	371	0.2	371	372	14.3	87.4
2025-08-07T00:00	10	0	0.1	0	0	371	0.3	371	372	14.2	88.0
2025-08-07T00:01	10	0	0.1	0	0	371	0.3	371	372	14.3	88.1
2025-08-07T00:02	10	0	0.1	0	0	371	0.2	371	372	14.2	88.2
2025-08-07T00:03	10	0	0.1	0	0	371	0.3	371	372	14.4	87.8
2025-08-07T00:04	10	0	0.1	0	0	372	0.4	371	373	14.4	87.4
2025-08-07T00:05	10	0	0.1	0	0	373	0.3	372	373	14.4	87.4
2025-08-07T00:06	10	0	0.1	0	0	373	0.3	373	374	14.4	87.2
2025-08-07T00:07	10	0	0.1	0	0	374	0.3	373	375	14.5	86.9
2025-08-07T00:08	10	0	0.1	0	0	375	0.4	374	375	14.6	86.7
2025-08-07T00:09	10	0	0.1	0	0	375	0.3	374	375	14.6	86.6
2025-08-07T00:10	10	0	0.0	0	0	374	0.3	374	375	14.5	86.7
2025-08-07T00:11	10	0	0.1	0	0	374	0.3	373	374	14.5	86.8
2025-08-07T00:12	10	0	0.0	0	0	373	0.3	372	374	14.6	86.7
2025-08-07T00:13	10	0	0.1	0	0	372	0.5	371	373	14.6	86.8
2025-08-07T00:14	10	0	0.0	0	0	371	0.5	370	372	14.5	87.0
2025-08-07T00:15	10	0	0.1	0	0	370	0.3	370	371	14.5	87.1
2025-08-07T00:16	10	0	0.1	0	0	370	0.3	369	371	14.5	86.9
2025-08-07T00:17	10	0	0.1	0	0	370	0.3	369	370	14.5	87.0
2025-08-07T00:18	10	0	0.1	0	0	370	0.3	369	371	14.6	86.7
2025-08-07T00:19	10	0	0.1	0	0	370	0.3	369	370	14.7	86.3
2025-08-07T00:20	10	0	0.1	0	0	370	0.3	369	371	14.6	86.4
2025-08-07T00:21	10	0	0.1	0	0	370	0.3	370	371	14.6	86.4
2025-08-07T00:22	10	0	0.1	0	0	371	0.3	371	371	14.7	86.3
2025-08-07T00:23	10	0	0.1	0	0	371	0.2	371	372	14.7	86.0
2025-08-07T00:24	10	0	0.1	0	0	372	0.3	371	372	14.7	85.9
2025-08-07T00:25	10	0	0.1	0	0	372	0.2	371	372	14.8	85.7
2025-08-07T00:26	10	0	0.1	0	0	372	0.2	372	373	14.8	85.8
2025-08-07T00:27	10	0	0.1	0	0	372	0.3	372	373	14.7	86.0
2025-08-07T00:28	10	0	0.1	0	0	373	0.3	372	373	14.8	85.7
2025-08-07T00:29	10	0	0.1	0	0	373	0.3	372	373	14.8	85.6
2025-08-07T00:30	10	0	0.1	0	0	373	0.3	372	374	14.8	85.3
2025-08-07T00:31	10	0	0.1	0	0	373	0.2	373	373	14.8	85.3
2025-08-07T00:32	10	0	0.1	0	0	373	0.2	373	373	14.9	84.9
2025-08-07T00:33	10	0	0.1	0	0	373	0.3	373	374	14.9	84.8
2025-08-07T00:34	10	0	0.0	0	0	373	0.3	372	374	14.9	84.8
2025-08-07T00:35	10	0	0.1	0	0	372	0.3	372	373	14.9	84.9
2025-08-07T00:36	10	0	0.1	0	0	372	0.5	371	373	14.9	84.8
2025-08-07T00:37	10	0	0.0	0	0	371	0.2	370	371	14.8	85.1
2025-08-07T00:38	10	0	0.6	0	3	371	0.3	370	371	14.8	85.2
2025-08-07T00:39	10	0	0.1	0	0	371	0.2	370	371	14.8	85.3
2025-08-07T00:40	10	0	0.0	0	0	371	0.3	370	371	14.8	85.4
2025-08-07T00:41	10	0	0.1	0	0	372	0.5	371	373	14.7	85.6
2025-08-07T00:42	10	0	0.0	0	0	373	0.3	372	373	14.7	85.5
2025-08-07T00:43	10	0	0.1	0	0	373	0.3	372	374	14.6	86.1
2025-08-07T00:44	10	0	0.1	0	0	373	0.2	373	374	14.4	87.0
2025-08-07T00:45	10	0	0.1	0	0	373	0.2	373	374	14.3	87.4
2025-08-07T00:46	10	0	0.1	0	0	374	0.2	373	374	14.2	87.8
2025-08-07T00:47	10	0	0.1	0	0	374	0.3	373	374	14.2	88.2
2025-08-07T00:48	10	0	0.1	0	0	374	0.3	373	375	14.2	88.2
2025-08-07T00:49	10	0	0.1	0	0	374	0.3	373	374	14.2	88.1
2025-08-07T00:50	10	0	0.1	0	0	373	0.3	373	374	14.2	88.1
2025-08-07T00:51	10	0	0.1	0	0	373	0.4	372	374	14.2	88.3
2025-08-07T00:52	10	0	0.1	0	0	372	0.3	372	373	14.1	88.9
2025-08-07T00:53	10	0	0.1	0	0	372	0.2	372	373	14.1	88.7
2025-08-07T00:54	10	0	0.0	0	0	372	0.2	372	373	14.1	88.9
2025-08-07T00:55	10	0	0.1	0	0	373	0.3	372	373	14.1	89.1
2025-08-07T00:56	10	0	0.1	0	0	374	0.4	373	375	14.1	88.8
2025-08-07T00:57	10	0	0.1	0	0	375	0.5	374	376	14.2	88.1
2025-08-07T00:58	10	0	0.1	0	0	375	0.2	375	376	14.2	88.1
2025-08-07T00:59	10	0	0.0	0	0	375	0.2	374	375	14.1	88.9
2025-08-07T01:00	10	0	0.1	0	0	375	0.2	374	375	14.1	88.8
2025-08-07T01:01	10	0	0.1	0	0	375	0.2	374	375	14.1	88.9
2025-08-07T01:02	10	0	0.1	0	0	375	0.3	374	375	14.1	88.6
2025-08-07T01:03	10	0	0.1	0	0	375	0.2	374	375	14.1	88.8
2025-08-07T01:04	10	0	0.1	0	0	375	0.3	373	375	14.1	88.8
2025-08-07T01:05	10	0	0.1	0	0	374	0.2	374	375	14.1	88.6
2025-08-07T01:06	10	0	0.1	0	0	374	0.3	374	375	14.1	88.8
2025-08-07T01:07	10	0	0.1	0	0	374	0.2	374	375	14.1	88.6
2025-08-07T01:08	10	0	0.1	0	0	374	0.2	374	374	14.1	88.6
2025-08-07T01:09	10	0	0.1	0	0	374	0.3	373	375	14.1	88.4
2025-08-07T01:10	10	0	0.1	0	0	374	0.2	373	374	14.1	88.6
2025-08-07T01:11	10	0	0.1	0	0	374	0.2	373	375	14.2	88.2
2025-08-07T01:12	10	0	0.1	0	0	373	0.3	372	374	14.1	88.3
2025-08-07T01:13	10	0	0.1	0	1	372	0.3	372	373	14.1	88.4
2025-08-07T01:14	10	0	0.1	0	0	372	0.3	371	373	14.1	88.4
2025-08-07T01:15	10	0	0.1	0	0	372	0.3	371	372	14.1	88.6
2025-08-07T01:16	10	0	0.1	0	0	372	0.3	371	372	14.2	88.3
2025-08-07T01:17	10	0	0.1	0	0	371	0.3	370	372	14.1	88.4
2025-08-07T01:18	10	0	0.1	0	0	372	0.3	371	372	14.2	88.3
2025-08-07T01:19	10	0	0.1	0	0	371	0.2	371	372	14.1	88.6
2025-08-07T01:20	10	0	0.1	0	0	371	0.2	371	372	14.2	88.4
2025-08-07T01:21	10	0	0.1	0	0	371	0.4	370	372	14.2	88.3
2025-08-07T01:22	10	0	0.1	0	0	371	0.3	371	372	14.2	88.2
2025-08-07T01:23	10	0	0.2	0	0	371	0.3	371	372	14.3	88.1
2025-08-07T01:24	10	0	0.1	0	0	371	0.3	371	372	14.2	88.3
2025-08-07T01:25	10	0	0.2	0	0	371	0.2	371	372	14.2	88.3
2025-08-07T01:26	10	0	0.2	0	1	371	0.3	370	371	14.2	88.2
2025-08-07T01:27	10	0	0.2	0	0	370	0.3	370	371	14.2	88.3
2025-08-07T01:28	10	0	0.1	0	0	370	0.2	370	371	14.4	87.4
2025-08-07T01:29	10	0	0.2	0	0	370	0.3	370	371	14.3	87.4
2025-08-07T01:30	10	0	0.1	0	0	370	0.3	370	371	14.3	87.5
2025-08-07T01:31	10	0	0.2	0	0	371	0.2	370	371	14.5	86.8
2025-08-07T01:32	10	0	0.1	0	0	370	0.3	370	371	14.5	86.6
2025-08-07T01:33	10	0	0.1	0	0	370	0.3	369	371	14.5	86.5
2025-08-07T01:34	10	0	0.2	0	0	369	0.2	369	370	14.4	86.8
2025-08-07T01:35	10	0	0.1	0	0	369	0.4	368	369	14.4	86.8
2025-08-07T01:36	10	0	0.2	0	1	368	0.3	368	369	14.3	87.4
2025-08-07T01:37	10	0	0.1	0	0	368	0.3	368	369	14.2	87.8
2025-08-07T01:38	10	0	0.1	0	0	368	0.3	367	369	14.2	88.2
2025-08-07T01:39	10	0	0.1	0	1	368	0.2	367	368	14.1	88.9
2025-08-07T01:40	10	0	0.1	0	0	368	0.2	368	369	13.9	89.5
2025-08-07T01:41	10	0	0.1	0	0	368	0.3	367	369	13.9	89.9
2025-08-07T01:42	10	0	0.1	0	0	368	0.3	367	368	13.8	90.2
2025-08-07T01:43	10	0	0.1	0	0	368	0.2	367	368	13.7	90.8
2025-08-07T01:44	10	0	0.1	0	1	367	0.2	367	368	13.6	91.3
2025-08-07T01:45	10	0	0.1	0	0	367	0.3	366	368	13.6	91.6
2025-08-07T01:46	10	0	0.2	0	1	366	0.2	366	367	13.5	91.8
2025-08-07T01:47	10	0	0.1	0	0	366	0.3	365	367	13.5	91.9
2025-08-07T01:48	10	0	0.1	0	1	366	0.2	365	366	13.5	92.0
2025-08-07T01:49	10	0	0.2	0	1	365	0.3	365	366	13.4	92.1
2025-08-07T01:50	10	0	0.1	0	1	365	0.2	365	366	13.4	92.1
2025-08-07T01:51	10	0	0.1	0	0	365	0.2	365	366	13.4	92.2
2025-08-07T01:52	10	0	0.1	0	0	365	0.2	365	365	13.4	92.3
2025-08-07T01:53	10	0	0.1	0	0	365	0.2	364	365	13.4	92.2
2025-08-07T01:54	10	0	0.1	0	0	365	0.3	364	365	13.4	92.2
2025-08-07T01:55	10	0	0.1	0	0	365	0.2	364	365	13.5	92.0
2025-08-07T01:56	10	0	0.1	0	0	365	0.3	364	365	13.5	91.7
2025-08-07T01:57	10	0	0.1	0	1	365	0.2	364	365	13.5	91.6
2025-08-07T01:58	10	0	0.1	0	0	365	0.3	364	365	13.3	91.7
2025-08-07T01:59	10	0	0.1	0	0	365	0.3	365	366	13.3	92.0
2025-08-07T02:00	10	0	0.1	0	0	365	0.4	364	366	13.2	92.2
2025-08-07T02:01	10	0	0.1	0	0	366	0.5	365	367	13.3	92.1
2025-08-07T02:02	10	0	0.1	0	0	366	0.2	366	367	13.4	92.0
2025-08-07T02:03	10	0	0.1	0	0	366	0.3	365	367	13.4	91.9
2025-08-07T02:04	10	0	0.1	0	0	366	0.2	365	366	13.2	92.1
2025-08-07T02:05	10	0	0.1	0	0	366	0.3	366	367	13.3	92.1
2025-08-07T02:06	10	0	0.1	0	0	367	0.2	366	367	13.4	91.8
2025-08-07T02:07	10	0	0.0	0	0	367	0.2	366	367	13.4	91.6
2025-08-07T02:08	10	0	0.1	0	0	366	0.5	365	367	13.4	91.6
2025-08-07T02:09	10	0	0.1	0	0	366	0.3	365	367	13.4	91.6
2025-08-07T02:10	10	0	0.0	0	0	366	0.2	366	367	13.3	91.7
2025-08-07T02:11	10	0	0.0	0	0	365	0.4	364	366	13.4	91.8
2025-08-07T02:12	10	0	0.1	0	0	365	0.3	364	366	13.2	92.1
2025-08-07T02:13	10	0	0.1	0	0	365	0.2	364	365	13.3	92.3
2025-08-07T02:14	10	0	0.1	0	0	364	0.2	364	365	13.3	92.3
2025-08-07T02:15	10	0	0.1	0	0	365	0.2	364	365	13.3	92.3
2025-08-07T02:16	10	0	0.1	0	0	364	0.2	364	365	13.4	92.0
2025-08-07T02:17	10	0	0.1	0	0	364	0.3	364	365	13.4	91.9
2025-08-07T02:18	10	0	0.0	0	0	364	0.2	364	365	13.4	91.9
2025-08-07T02:19	10	0	0.0	0	0	365	0.2	364	365	13.4	91.9
2025-08-07T02:20	10	0	0.1	0	0	365	0.4	364	366	13.4	91.8
2025-08-07T02:21	10	0	0.0	0	0	365	0.2	364	366	13.5	91.7
2025-08-07T02:22	10	0	0.1	0	0	365	0.4	364	366	13.5	91.6
2025-08-07T02:23	10	0	0.0	0	0	365	0.3	364	365	13.4	91.7
2025-08-07T02:24	10	0	0.0	0	0	364	0.2	363	364	13.4	92.0
2025-08-07T02:25	10	0	0.1	0	0	364	0.2	363	364	13.3	92.2
2025-08-07T02:26	10	0	0.0	0	0	363	0.3	363	364	13.3	92.3
2025-08-07T02:27	10	0	0.0	0	0	363	0.3	362	364	13.3	92.3
2025-08-07T02:28	10	0	0.1	0	0	363	0.3	362	364	13.2	92.5
2025-08-07T02:29	10	0	0.1	0	0	363	0.2	363	363	13.2	92.6
2025-08-07T02:30	10	0	0.1	0	0	363	0.2	362	363	13.2	92.6
2025-08-07T02:31	10	0	0.1	0	0	363	0.2	362	363	13.2	92.7
2025-08-07T02:32	10	0	0.1	0	0	363	0.3	363	364	13.2	92.7
2025-08-07T02:33	10	0	0.1	0	0	363	0.2	363	364	13.2	92.7
2025-08-07T02:34	10	0	0.1	0	0	364	0.3	363	364	13.2	92.7
2025-08-07T02:35	10	0	0.0	0	0	364	0.3	363	365	13.3	92.7
2025-08-07T02:36	10	0	0.1	0	0	365	0.4	364	366	13.3	92.6
2025-08-07T02:37	10	0	0.1	0	0	365	0.3	365	366	13.4	92.0
2025-08-07T02:38	10	0	0.0	0	0	366	0.3	365	366	13.5	91.7
2025-08-07T02:39	10	0	0.0	0	0	365	0.2	365	366	13.4	91.6
2025-08-07T02:40	10	0	0.1	0	0	366	0.3	365	366	13.4	91.6
2025-08-07T02:41	10	0	0.0	0	0	366	0.2	365	366	13.5	91.7
2025-08-07T02:42	10	0	0.0	0	0	366	0.3	366	367	13.5	91.5
2025-08-07T02:43	10	0	0.0	0	0	366	0.2	366	367	13.6	91.2
2025-08-07T02:44	10	0	0.0	0	0	367	0.2	366	367	13.6	91.0
2025-08-07T02:45	10	0	0.0	0	0	367	0.3	366	367	13.6	91.1
2025-08-07T02:46	10	0	0.0	0	0	366	0.3	366	367	13.6	91.1
2025-08-07T02:47	10	0	0.0	0	0	367	0.2	366	367	13.6	91.0
2025-08-07T02:48	10	0	0.1	0	0	367	0.2	366	367	13.6	90.9
2025-08-07T02:49	10	0	0.0	0	0	367	0.2	366	367	13.5	91.2
2025-08-07T02:50	10	0	0.0	0	0	367	0.3	366	367	13.5	91.3
2025-08-07T02:51	10	0	0.1	0	0	367	0.2	366	367	13.5	91.3
2025-08-07T02:52	10	0	0.1	0	0	367	0.3	366	367	13.5	91.3
2025-08-07T02:53	10	0	0.0	0	0	366	0.2	366	367	13.5	91.2
2025-08-07T02:54	10	0	0.0	0	0	367	0.2	366	367	13.5	91.1
2025-08-07T02:55	10	0	0.0	0	0	366	0.2	366	367	13.5	91.3
2025-08-07T02:56	10	0	0.1	0	0	366	0.2	366	367	13.5	91.3
2025-08-07T02:57	10	0	0.0	0	0	366	0.2	366	367	13.5	91.3
2025-08-07T02:58	10	0	0.0	0	0	367	0.3	366	367	13.5	91.4
2025-08-07T02:59	10	0	0.1	0	0	367	0.5	366	368	13.4	91.9
2025-08-07T03:00	10	0	0.0	0	0	368	0.2	367	368	13.4	91.8
2025-08-07T03:01	10	0	0.1	0	0	368	0.2	367	369	13.3	92.3
2025-08-07T03:02	10	0	0.0	0	0	368	0.2	368	368	13.3	92.6
2025-08-07T03:03	10	0	0.0	0	0	368	0.2	368	368	13.2	92.8
2025-08-07T03:04	10	0	0.0	0	0	368	0.3	368	369	13.2	92.7
2025-08-07T03:05	10	0	0.0	0	0	367	0.2	367	368	13.2	92.9
2025-08-07T03:06	10	0	0.1	0	0	367	0.3	367	368	13.2	92.9
2025-08-07T03:07	10	0	0.0	0	0	367	0.3	367	368	13.2	92.9
2025-08-07T03:08	10	0	0.0	0	0	367	0.3	366	367	13.2	92.9
2025-08-07T03:09	10	0	0.1	0	0	366	0.4	365	367	13.2	92.8
2025-08-07T03:10	10	0	0.0	0	0	365	0.3	364	366	13.2	92.8
2025-08-07T03:11	10	0	0.1	0	0	364	0.3	364	365	13.2	92.8
2025-08-07T03:12	10	0	0.0	0	0	363	0.3	363	364	13.1	93.0
2025-08-07T03:13	10	0	0.1	0	0	363	0.2	363	364	13.0	93.3
2025-08-07T03:14	10	0	0.1	0	0	363	0.2	363	364	12.9	93.4
2025-08-07T03:15	10	0	0.1	0	0	363	0.3	363	364	12.9	93.8
2025-08-07T03:16	10	0	0.1	0	0	363	0.2	363	364	12.8	94.1
2025-08-07T03:17	10	0	0.1	0	0	363	0.3	362	364	12.8	94.2
2025-08-07T03:18	10	0	0.1	0	0	363	0.2	363	364	12.8	94.4
2025-08-07T03:19	10	0	0.1	0	0	363	0.2	363	363	12.8	94.5
2025-08-07T03:20	10	0	0.1	0	0	363	0.2	363	364	12.8	94.7
2025-08-07T03:21	10	0	0.1	0	0	363	0.2	363	363	12.8	94.7
2025-08-07T03:22	10	0	0.1	0	0	363	0.3	362	363	12.8	94.6
2025-08-07T03:23	10	0	0.1	0	0	362	0.2	361	362	12.8	94.6
2025-08-07T03:24	10	0	0.1	0	0	361	0.3	361	362	12.8	94.8
2025-08-07T03:25	10	0	0.1	0	0	361	0.3	361	362	12.8	94.9
2025-08-07T03:26	10	0	0.1	0	0	361	0.2	360	361	12.8	94.9
2025-08-07T03:27	10	0	0.1	0	0	360	0.2	360	361	12.7	94.9
2025-08-07T03:28	10	0	0.1	0	0	360	0.2	360	360	12.7	94.9
2025-08-07T03:29	10	0	0.1	0	0	360	0.3	359	360	12.7	94.9
2025-08-07T03:30	10	0	0.1	0	0	360	0.2	359	360	12.7	94.8
2025-08-07T03:31	10	0	0.1	0	0	359	0.2	359	360	12.6	94.9
2025-08-07T03:32	10	0	0.1	0	0	359	0.2	359	360	12.6	95.1
2025-08-07T03:33	10	0	0.1	0	0	359	0.2	359	360	12.6	95.0
2025-08-07T03:34	10	0	0.1	0	0	359	0.2	359	360	12.6	95.1
2025-08-07T03:35	10	0	0.1	0	0	359	0.3	359	360	12.6	95.3
2025-08-07T03:36	10	0	0.1	0	0	359	0.2	359	359	12.6	95.1
2025-08-07T03:37	10	0	0.1	0	0	359	0.2	359	360	12.6	95.1
2025-08-07T03:38	10	0	0.1	0	0	359	0.2	358	359	12.6	95.3
2025-08-07T03:39	10	0	0.1	0	0	359	0.3	358	359	12.5	95.3
2025-08-07T03:40	10	0	0.1	0	0	359	0.2	359	360	12.5	95.3
2025-08-07T03:41	10	0	0.1	0	0	360	0.3	359	360	12.6	95.1
2025-08-07T03:42	10	0	0.1	0	0	360	0.2	360	361	12.6	95.0
2025-08-07T03:43	10	0	0.1	0	0	360	0.2	359	361	12.6	95.0
2025-08-07T03:44	10	0	0.1	0	0	360	0.2	359	360	12.6	95.0
2025-08-07T03:45	10	0	0.1	0	0	360	0.2	360	360	12.6	94.9
2025-08-07T03:46	10	0	0.1	0	0	360	0.2	360	361	12.4	94.8
2025-08-07T03:47	10	0	0.1	0	0	360	0.2	360	361	12.4	95.0
2025-08-07T03:48	10	0	0.1	0	0	361	0.4	360	362	12.3	95.2
2025-08-07T03:49	10	0	0.1	0	0	361	0.2	361	362	12.4	95.2
2025-08-07T03:50	10	0	0.1	0	0	361	0.2	361	362	12.4	95.2
2025-08-07T03:51	10	0	0.1	0	0	361	0.2	361	362	12.4	94.9
2025-08-07T03:52	10	0	0.1	0	0	361	0.2	361	362	12.4	95.0
2025-08-07T03:53	10	0	0.1	0	0	361	0.3	360	362	12.4	95.0
2025-08-07T03:54	10	0	0.1	0	0	361	0.2	361	362	12.5	94.9
2025-08-07T03:55	10	0	0.1	0	0	361	0.3	361	362	12.5	94.9
2025-08-07T03:56	10	0	0.1	0	0	361	0.3	360	361	12.5	95.0
2025-08-07T03:57	10	0	0.1	0	0	361	0.2	360	361	12.5	94.9
2025-08-07T03:58	10	0	0.1	0	0	361	0.3	360	361	12.5	94.7
2025-08-07T03:59	10	0	0.1	0	0	361	0.2	360	361	12.6	94.5
2025-08-07T04:00	10	0	0.1	0	0	361	0.3	360	362	12.6	94.4
2025-08-07T04:01	10	0	0.1	0	0	362	0.3	361	362	12.6	94.1
2025-08-07T04:02	10	0	0.1	0	0	362	0.2	361	362	12.6	93.9
2025-08-07T04:03	10	0	0.1	0	0	362	0.3	361	362	12.6	93.7
2025-08-07T04:04	10	0	0.1	0	0	361	0.2	361	362	12.7	93.6
2025-08-07T04:05	10	0	0.1	0	0	361	0.3	361	362	12.7	93.6
2025-08-07T04:06	10	0	0.0	0	0	361	0.3	360	361	12.7	93.6
2025-08-07T04:07	10	0	0.1	0	0	361	0.2	360	361	12.8	93.6
2025-08-07T04:08	10	0	0.1	0	0	360	0.3	360	361	12.9	93.8
2025-08-07T04:09	10	0	0.1	0	0	360	0.2	360	361	12.9	93.7
2025-08-07T04:10	10	0	0.1	0	0	360	0.2	360	361	12.9	93.6
2025-08-07T04:11	10	0	0.1	0	0	360	0.4	360	361	12.9	93.6
2025-08-07T04:12	10	0	0.1	0	0	360	0.2	360	361	12.8	93.8
2025-08-07T04:13	10	0	0.1	0	0	361	0.3	360	361	12.7	94.1
2025-08-07T04:14	10	0	0.1	0	0	360	0.2	360	361	12.6	94.3
2025-08-07T04:15	10	0	0.1	0	0	361	0.2	360	361	12.5	94.6
2025-08-07T04:16	10	0	0.1	0	0	361	0.3	360	361	12.6	94.8
2025-08-07T04:17	10	0	0.1	0	0	360	0.2	360	361	12.5	95.1
2025-08-07T04:18	10	0	0.1	0	0	360	0.2	359	360	12.5	95.3
2025-08-07T04:19	10	0	0.1	0	1	360	0.3	359	360	12.4	95.4
2025-08-07T04:20	10	0	0.1	0	1	360	0.4	359	361	12.5	95.5
2025-08-07T04:21	10	0	0.1	0	1	360	0.3	360	361	12.6	95.2
2025-08-07T04:22	10	0	0.1	0	1	360	0.4	360	361	12.6	95.1
2025-08-07T04:23	10	1	0.1	0	1	361	0.2	361	362	12.6	95.3
2025-08-07T04:24	10	1	0.1	0	1	361	0.2	361	362	12.5	94.9
2025-08-07T04:25	10	1	0.1	0	1	361	0.3	360	361	12.4	94.9
2025-08-07T04:26	10	1	0.1	1	1	360	0.2	360	361	12.3	95.2
2025-08-07T04:27	10	1	0.1	1	1	360	0.3	360	361	12.3	95.4
2025-08-07T04:28	10	1	0.1	1	1	360	0.2	359	360	12.3	95.4
2025-08-07T04:29	10	1	0.1	1	1	360	0.2	359	361	12.4	95.0
2025-08-07T04:30	10	1	0.1	1	1	361	0.3	360	361	12.6	94.8
2025-08-07T04:31	10	1	0.1	1	2	361	0.3	360	362	12.7	94.4
2025-08-07T04:32	10	2	0.1	1	2	362	0.4	362	363	12.7	94.0
2025-08-07T04:33	10	2	0.1	1	2	363	0.5	362	364	12.8	93.7
2025-08-07T04:34	10	2	0.1	2	2	365	0.3	364	365	12.8	93.6
2025-08-07T04:35	10	2	0.1	2	2	365	0.3	365	366	12.8	93.7
2025-08-07T04:36	10	2	0.1	2	2	366	0.3	365	366	12.8	93.8
2025-08-07T04:37	10	2	0.1	2	2	366	0.4	366	367	12.9	93.7
2025-08-07T04:38	10	3	0.1	2	3	367	0.3	366	368	12.9	93.4
2025-08-07T04:39	10	3	0.1	3	3	367	0.2	366	368	13.0	93.0
2025-08-07T04:40	10	3	0.1	3	3	367	0.2	366	367	13.0	92.9
2025-08-07T04:41	10	3	0.1	3	3	366	0.3	366	367	13.0	92.9
2025-08-07T04:42	10	3	0.1	3	4	366	0.3	365	366	13.0	93.0
2025-08-07T04:43	10	4	0.3	4	5	366	0.2	365	366	13.0	93.0
2025-08-07T04:44	10	5	0.1	5	5	365	0.3	364	366	12.9	93.1
2025-08-07T04:45	10	5	0.2	5	6	365	0.2	364	365	12.9	93.2
2025-08-07T04:46	10	6	0.2	6	6	365	0.2	364	365	12.9	93.3
2025-08-07T04:47	10	6	0.2	6	6	364	0.2	364	365	12.8	93.3
2025-08-07T04:48	10	7	0.1	6	7	364	0.2	364	365	12.9	93.3
2025-08-07T04:49	10	7	0.1	7	7	364	0.2	364	365	12.9	93.4
2025-08-07T04:50	10	7	0.1	7	8	365	0.3	364	365	12.9	93.3
2025-08-07T04:51	10	8	0.1	8	8	365	0.2	364	365	12.9	93.2
2025-08-07T04:52	10	8	0.2	8	9	365	0.3	364	366	12.9	93.1
2025-08-07T04:53	10	9	0.2	8	9	365	0.2	365	366	12.9	93.3
2025-08-07T04:54	10	9	0.2	9	10	366	0.2	365	366	12.9	93.3
2025-08-07T04:55	10	10	0.1	10	10	366	0.3	365	366	12.8	93.4
2025-08-07T04:56	10	10	0.1	10	10	366	0.3	365	366	12.9	93.4
2025-08-07T04:57	10	11	0.2	10	11	367	0.2	366	367	12.9	93.3
2025-08-07T04:58	10	11	0.1	11	11	367	0.3	367	368	12.9	93.3
2025-08-07T04:59	10	12	0.2	11	12	367	0.2	366	368	12.9	93.1
2025-08-07T05:00	10	12	0.2	12	13	367	0.2	367	368	12.9	93.2
2025-08-07T05:01	10	13	0.2	13	13	367	0.2	367	368	12.9	93.2
2025-08-07T05:02	10	14	0.2	13	14	368	0.2	367	368	12.9	93.3
2025-08-07T05:03	10	14	0.1	14	14	368	0.3	367	369	12.8	93.3
2025-08-07T05:04	10	14	0.1	14	14	368	0.3	368	369	12.7	93.5
2025-08-07T05:05	10	15	0.2	14	15	369	0.2	369	369	12.8	93.6
2025-08-07T05:06	10	15	0.1	15	15	369	0.2	369	370	12.8	93.7
2025-08-07T05:07	10	15	0.1	15	15	370	0.2	369	370	12.8	93.7
2025-08-07T05:08	10	16	0.2	15	16	370	0.2	369	370	12.8	93.6
2025-08-07T05:09	10	16	0.2	16	17	370	0.3	369	371	12.8	93.5
2025-08-07T05:10	10	17	0.2	17	17	370	0.3	370	371	12.9	93.4
2025-08-07T05:11	10	18	0.2	17	18	371	0.2	370	371	12.9	93.3
2025-08-07T05:12	10	18	0.2	18	18	371	0.3	370	371	12.9	93.3
2025-08-07T05:13	10	19	0.2	18	19	371	0.2	371	372	12.9	93.1
2025-08-07T05:14	10	19	0.2	19	20	371	0.2	371	372	12.9	92.9
2025-08-07T05:15	10	20	0.1	20	20	372	0.2	371	372	12.9	92.9
2025-08-07T05:16	10	20	0.2	20	21	372	0.2	372	373	13.0	92.6
2025-08-07T05:17	10	21	0.2	21	21	372	0.2	372	373	13.0	92.3
2025-08-07T05:18	10	21	0.1	21	22	373	0.2	373	373	13.1	92.2
2025-08-07T05:19	10	22	0.2	21	22	373	0.2	373	374	13.1	92.2
2025-08-07T05:20	10	23	0.2	22	23	374	0.3	373	374	13.1	92.3
2025-08-07T05:21	10	23	0.3	23	24	374	0.3	373	375	13.1	92.3
2025-08-07T05:22	10	24	0.2	24	24	374	0.2	374	375	13.1	92.4
2025-08-07T05:23	10	25	0.2	24	25	375	0.3	374	375	13.1	92.4
2025-08-07T05:24	10	25	0.2	25	26	375	0.2	375	376	13.3	91.6
2025-08-07T05:25	10	26	0.2	25	26	375	0.2	375	376	13.5	90.9
2025-08-07T05:26	10	27	0.2	26	27	376	0.2	375	376	13.6	90.0
2025-08-07T05:27	10	27	0.3	27	28	376	0.3	376	377	13.6	89.4
2025-08-07T05:28	10	28	0.3	28	29	377	0.2	376	377	13.6	89.4
2025-08-07T05:29	10	29	0.2	29	29	377	0.2	377	378	13.6	89.9
2025-08-07T05:30	10	30	0.2	29	30	378	0.2	377	378	13.7	89.5
2025-08-07T05:31	10	30	0.2	30	31	378	0.2	378	379	13.8	89.0
2025-08-07T05:32	10	31	0.2	31	31	379	0.2	378	379	13.8	88.8
2025-08-07T05:33	10	32	0.2	31	32	379	0.3	379	380	13.9	88.4
2025-08-07T05:34	10	32	0.2	32	33	380	0.2	379	380	13.9	88.6
2025-08-07T05:35	10	33	0.2	33	34	380	0.2	379	381	14.0	88.3
2025-08-07T05:36	10	34	0.3	33	34	380	0.3	380	381	14.1	87.7
2025-08-07T05:37	10	34	0.2	34	35	381	0.2	380	381	14.1	88.4
2025-08-07T05:38	10	35	0.1	35	35	381	0.2	380	382	13.9	89.7
2025-08-07T05:39	10	35	0.1	35	36	381	0.3	381	382	13.8	90.0
2025-08-07T05:40	10	36	0.2	36	36	382	0.2	382	382	13.8	89.8
2025-08-07T05:41	10	36	0.1	36	37	382	0.2	382	383	13.9	89.1
2025-08-07T05:42	10	37	0.2	36	37	383	0.2	382	383	13.9	89.0
2025-08-07T05:43	10	37	0.2	37	38	383	0.2	383	384	13.9	90.1
2025-08-07T05:44	10	38	0.1	37	38	384	0.2	383	384	14.0	89.7
2025-08-07T05:45	10	38	0.2	38	38	384	0.2	384	385	14.0	89.6
2025-08-07T05:46	10	39	0.2	38	39	385	0.3	384	385	14.1	88.4
2025-08-07T05:47	10	39	0.2	39	40	385	0.3	385	386	14.2	87.9
2025-08-07T05:48	10	40	0.2	40	40	386	0.2	385	386	14.2	87.5
2025-08-07T05:49	10	41	0.2	40	41	386	0.3	386	387	14.3	88.1
2025-08-07T05:50	10	41	0.2	41	42	387	0.2	386	387	14.3	87.9
2025-08-07T05:51	10	42	0.2	42	42	387	0.2	387	388	14.4	87.2
2025-08-07T05:52	10	43	0.2	42	43	387	0.2	387	388	14.4	87.7
2025-08-07T05:53	10	43	0.2	43	43	387	0.2	387	388	14.3	88.4
2025-08-07T05:54	10	44	0.1	43	44	387	0.3	387	388	14.2	88.4
2025-08-07T05:55	10	44	0.2	44	45	388	0.2	387	388	14.2	88.5
2025-08-07T05:56	10	45	0.2	45	45	388	0.2	387	388	14.3	88.6
2025-08-07T05:57	10	46	0.1	45	46	389	0.2	388	389	14.4	88.2
2025-08-07T05:58	10	46	0.3	46	47	389	0.2	388	389	14.5	87.7
2025-08-07T05:59	10	47	0.2	47	47	389	0.2	389	390	14.7	87.1
2025-08-07T06:00	10	48	0.2	47	48	390	0.2	389	390	14.8	86.4
2025-08-07T06:01	10	48	0.2	48	49	390	0.3	390	391	14.9	86.3
2025-08-07T06:02	10	49	0.3	49	50	390	0.2	390	391	14.9	87.0
2025-08-07T06:03	10	50	0.2	49	50	391	0.3	390	392	14.8	86.8
2025-08-07T06:04	10	51	0.3	50	51	391	0.3	390	391	14.8	87.8
2025-08-07T06:05	10	51	0.2	51	52	391	0.2	390	391	14.8	87.2
2025-08-07T06:06	10	52	0.2	52	52	391	0.3	390	392	14.9	87.6
2025-08-07T06:07	10	53	0.2	52	53	392	0.3	391	392	14.9	88.3
2025-08-07T06:08	10	54	0.2	53	54	391	0.2	391	392	14.9	88.0
2025-08-07T06:09	10	55	0.3	54	55	392	0.3	391	393	14.9	87.2
2025-08-07T06:10	10	56	0.2	55	56	392	0.2	392	393	14.9	86.3
2025-08-07T06:11	10	56	0.2	56	57	393	0.4	392	394	15.0	87.0
2025-08-07T06:12	10	57	0.2	56	57	393	0.2	393	394	15.0	87.8
2025-08-07T06:13	10	57	0.1	57	57	394	0.3	393	395	15.0	87.4
2025-08-07T06:14	10	58	0.2	57	58	394	0.4	393	395	15.1	86.8
2025-08-07T06:15	10	58	0.2	58	59	395	0.3	394	396	15.1	86.3
2025-08-07T06:16	10	59	0.2	58	59	396	0.2	395	396	15.2	85.2
2025-08-07T06:17	10	59	0.4	58	59	396	0.3	395	397	15.4	83.9
2025-08-07T06:18	10	58	2.6	54	62	397	0.4	396	397	15.5	84.1
2025-08-07T06:19	10	62	0.1	62	62	398	0.3	397	398	15.5	83.4
2025-08-07T06:20	10	62	0.1	62	62	398	0.2	397	398	15.6	82.6
2025-08-07T06:21	10	62	0.1	62	63	397	0.3	397	398	15.6	83.0
2025-08-07T06:22	10	62	0.2	62	63	398	0.2	397	398	15.5	82.2
2025-08-07T06:23	10	63	0.2	63	63	399	0.2	398	399	15.6	83.9
2025-08-07T06:24	10	63	0.1	63	64	399	0.3	398	400	15.7	84.1
2025-08-07T06:25	10	64	0.2	64	64	400	0.3	399	400	15.8	83.7
2025-08-07T06:26	10	65	0.3	64	65	400	0.3	399	401	15.7	84.1
2025-08-07T06:27	10	65	0.2	65	66	400	0.3	399	400	15.7	84.2
2025-08-07T06:28	10	66	0.3	65	66	400	0.3	399	400	15.6	84.6
2025-08-07T06:29	10	67	0.2	66	67	401	0.3	400	401	15.7	84.4
2025-08-07T06:30	10	67	0.1	67	67	401	0.4	400	402	15.7	84.3
2025-08-07T06:31	10	68	0.3	67	68	401	0.3	400	402	15.6	84.8
2025-08-07T06:32	10	68	0.1	68	69	401	0.3	401	402	15.6	85.0
2025-08-07T06:33	10	69	0.3	69	70	402	0.2	402	403	15.6	84.8
2025-08-07T06:34	10	70	0.2	70	70	403	0.3	402	403	15.7	85.1
2025-08-07T06:35	10	71	0.2	70	71	403	0.2	402	404	15.8	83.4
2025-08-07T06:36	10	71	0.3	71	72	404	0.2	403	404	15.9	83.8
2025-08-07T06:37	10	72	0.2	72	73	404	0.3	404	405	16.0	83.0
2025-08-07T06:38	10	73	0.3	72	74	404	0.3	404	405	15.9	82.2
2025-08-07T06:39	10	74	0.7	73	78	405	0.2	404	405	15.9	82.4
2025-08-07T06:40	10	75	0.2	74	75	405	0.2	405	406	15.9	82.1
2025-08-07T06:41	10	76	0.2	75	76	406	0.2	405	406	16.0	81.4
2025-08-07T06:42	10	76	0.2	76	77	406	0.2	406	407	16.2	80.8
2025-08-07T06:43	10	77	0.3	77	78	407	0.3	406	407	16.4	79.9
2025-08-07T06:44	10	78	0.2	78	78	407	0.2	407	408	16.8	77.8
2025-08-07T06:45	10	79	0.2	78	79	408	0.2	407	408	17.0	77.1
2025-08-07T06:46	10	79	0.2	79	80	408	0.3	408	409	16.9	77.9
2025-08-07T06:47	10	80	0.2	79	80	409	0.2	408	409	16.9	77.9
2025-08-07T06:48	10	80	0.2	80	81	409	0.4	409	410	17.2	75.8
2025-08-07T06:49	10	81	0.3	81	82	410	0.2	410	411	17.3	75.2
2025-08-07T06:50	10	82	0.2	81	82	411	0.3	410	411	17.4	75.6
2025-08-07T06:51	10	82	0.2	82	83	411	0.3	410	411	17.2	76.3
2025-08-07T06:52	10	83	0.2	83	83	411	0.4	410	412	17.2	75.6
2025-08-07T06:53	10	83	0.1	83	84	412	0.2	411	413	17.2	76.6
2025-08-07T06:54	10	84	0.1	84	84	413	0.2	412	413	17.1	76.8
2025-08-07T06:55	10	84	0.1	84	84	413	0.5	412	414	17.0	76.9
2025-08-07T06:56	10	84	0.1	84	85	413	0.2	413	414	17.0	77.4
2025-08-07T06:57	10	85	0.1	84	85	414	0.4	413	415	17.1	77.9
2025-08-07T06:58	10	86	0.3	85	86	414	0.3	414	415	17.3	77.1
2025-08-07T06:59	10	86	0.2	86	87	415	0.3	414	415	17.2	76.2
2025-08-07T07:00	10	87	0.3	87	88	415	0.2	415	416	17.3	74.9
2025-08-07T07:01	10	88	0.2	88	89	416	0.3	415	416	17.3	74.9
2025-08-07T07:02	10	89	0.4	89	90	416	0.2	416	417	17.3	75.8
2025-08-07T07:03	10	90	0.2	90	91	416	0.2	416	417	17.2	75.6
2025-08-07T07:04	10	91	0.3	91	92	417	0.4	416	418	17.2	75.9
2025-08-07T07:05	10	92	0.1	92	92	418	0.2	417	419	17.3	76.2
2025-08-07T07:06	10	92	0.3	91	92	418	0.2	418	418	17.3	75.7
2025-08-07T07:07	10	92	0.5	91	93	418	0.2	418	419	17.4	75.2
2025-08-07T07:08	10	93	0.1	93	93	420	0.5	419	420	17.7	73.9
2025-08-07T07:09	10	93	0.1	93	94	420	0.6	419	421	17.8	74.2
2025-08-07T07:10	10	93	0.1	93	94	420	0.2	419	420	17.8	73.4
2025-08-07T07:11	10	94	0.1	93	94	420	0.3	419	421	17.9	73.3
2025-08-07T07:12	10	94	0.1	93	94	421	0.3	420	422	18.0	73.0
2025-08-07T07:13	10	94	0.1	94	94	422	0.4	421	422	18.1	72.6
2025-08-07T07:14	10	94	0.1	94	94	422	0.4	421	423	18.2	72.5
2025-08-07T07:15	10	95	0.3	94	95	423	0.2	422	423	18.3	73.4
2025-08-07T07:16	10	95	0.3	95	96	423	0.3	423	424	18.2	72.5
2025-08-07T07:17	10	96	0.3	96	97	424	0.4	423	425	18.3	73.7
2025-08-07T07:18	10	97	0.2	96	97	424	0.2	424	425	18.1	72.1
2025-08-07T07:19	10	97	0.2	97	98	424	0.3	423	425	18.0	72.3
2025-08-07T07:20	10	98	0.2	97	98	424	0.5	422	424	17.8	73.8
2025-08-07T07:21	10	98	0.2	98	99	423	0.3	423	424	17.6	74.4
2025-08-07T07:22	10	99	0.4	99	100	424	0.4	423	425	17.7	74.1
2025-08-07T07:23	10	100	0.2	100	101	425	0.4	424	426	17.8	73.9
2025-08-07T07:24	10	101	0.1	100	101	426	0.3	425	426	17.9	73.5
2025-08-07T07:25	10	101	0.1	100	101	426	0.3	425	427	17.9	73.5
2025-08-07T07:26	10	101	0.1	100	101	426	0.2	426	426	17.8	73.3
2025-08-07T07:27	10	101	0.1	101	101	426	0.3	426	427	17.9	73.2
2025-08-07T07:28	10	101	0.1	101	102	427	0.6	426	428	18.1	73.2
2025-08-07T07:29	10	102	0.2	101	102	428	0.2	428	429	18.2	72.4
2025-08-07T07:30	10	102	0.3	102	103	428	0.5	427	429	18.2	72.4
2025-08-07T07:31	10	103	0.4	103	104	428	0.3	428	429	18.0	72.9
2025-08-07T07:32	10	105	0.3	104	105	429	0.4	429	430	18.1	72.7
2025-08-07T07:33	10	106	0.3	105	106	431	0.4	430	431	18.3	72.7
2025-08-07T07:34	10	107	0.4	106	108	431	0.3	431	432	18.4	72.0
2025-08-07T07:35	10	108	0.4	107	109	432	0.3	431	432	18.4	71.7
2025-08-07T07:36	10	109	0.3	108	109	432	0.2	432	433	18.3	71.0
2025-08-07T07:37	10	110	0.3	109	110	433	0.3	432	434	18.2	70.9
2025-08-07T07:38	10	110	0.7	108	110	433	0.4	431	434	18.3	71.5
2025-08-07T07:39	10	110	0.2	109	110	432	0.3	432	433	18.3	70.9
2025-08-07T07:40	10	109	0.2	109	110	432	0.3	431	433	18.3	70.8
2025-08-07T07:41	10	109	0.3	108	109	433	0.4	432	434	18.4	69.9
2025-08-07T07:42	10	108	0.2	108	109	434	0.2	433	434	18.4	69.4
2025-08-07T07:43	10	108	0.1	108	108	435	0.4	434	436	18.5	69.7
2025-08-07T07:44	10	108	0.1	107	108	435	0.7	433	436	18.6	70.6
2025-08-07T07:45	10	108	0.1	108	108	434	0.6	434	436	18.6	69.1
2025-08-07T07:46	10	109	0.3	108	109	435	0.5	434	435	18.6	69.2
2025-08-07T07:47	10	110	0.3	109	110	435	0.7	434	437	18.5	69.4
2025-08-07T07:48	10	111	0.2	110	111	435	0.5	435	436	18.4	70.3
2025-08-07T07:49	10	111	0.2	111	111	436	0.5	436	437	18.8	70.2
2025-08-07T07:50	10	112	0.2	111	112	437	1.1	435	438	18.8	69.2
2025-08-07T07:51	10	112	0.2	112	112	436	0.6	435	437	18.8	69.3
2025-08-07T07:52	10	112	0.1	112	113	436	0.5	435	437	18.8	68.8
2025-08-07T07:53	10	113	0.1	112	113	436	0.8	435	438	18.6	68.7
2025-08-07T07:54	10	113	0.1	113	113	437	0.8	436	439	18.6	69.7
2025-08-07T07:55	10	113	0.1	113	113	437	1.3	435	439	18.5	68.9
2025-08-07T07:56	10	113	0.1	112	113	437	0.6	435	438	18.4	69.9
2025-08-07T07:57	10	113	0.1	112	113	435	0.8	434	437	18.4	69.7
2025-08-07T07:58	10	113	0.1	113	113	436	1.0	435	438	18.3	70.0
2025-08-07T07:59	10	113	0.1	113	113	438	0.4	437	439	18.5	69.7
2025-08-07T08:00	10	113	0.1	113	113	437	0.4	437	438	18.5	68.3
2025-08-07T08:01	10	113	0.2	113	114	439	0.5	438	440	18.6	69.2
2025-08-07T08:02	10	114	0.1	113	114	439	0.5	438	440	18.7	68.1
2025-08-07T08:03	10	114	0.2	114	114	440	0.7	438	441	18.8	68.7
2025-08-07T08:04	10	114	0.2	114	115	440	0.8	439	442	19.0	67.8
2025-08-07T08:05	10	115	0.2	114	116	441	0.5	439	442	18.8	68.2
2025-08-07T08:06	10	115	1.8	110	116	440	0.5	439	441	18.6	67.9
2025-08-07T08:07	10	116	0.2	116	116	440	0.3	440	441	18.5	67.9
2025-08-07T08:08	10	116	0.2	116	117	441	0.3	440	442	18.5	67.4
2025-08-07T08:09	10	117	0.4	116	117	442	0.7	441	443	18.7	68.2
2025-08-07T08:10	10	117	0.2	117	117	442	0.4	441	443	18.7	67.1
2025-08-07T08:11	10	117	0.2	117	118	442	0.7	441	444	18.7	67.3
2025-08-07T08:12	10	118	0.1	117	118	443	0.4	442	444	18.6	66.9
2025-08-07T08:13	10	118	0.2	118	118	443	0.7	442	445	18.7	66.9
2025-08-07T08:14	10	118	0.2	118	119	445	0.3	444	446	19.0	66.2
2025-08-07T08:15	10	119	0.2	118	119	446	0.8	444	447	19.1	65.9
2025-08-07T08:16	10	119	0.2	119	120	447	0.4	446	448	19.1	65.4
2025-08-07T08:17	10	120	0.2	120	120	447	0.3	447	448	19.3	64.5
2025-08-07T08:18	10	120	0.2	120	121	446	0.7	445	448	19.2	64.8
2025-08-07T08:19	10	121	0.2	120	121	446	0.4	446	447	19.2	65.1
2025-08-07T08:20	10	121	0.1	121	122	448	0.3	448	449	19.5	64.3
2025-08-07T08:21	10	122	0.2	122	122	449	0.4	449	450	19.7	65.0
2025-08-07T08:22	10	122	0.1	122	122	448	0.3	448	449	19.4	66.1
2025-08-07T08:23	10	122	0.1	122	123	450	0.9	449	452	19.5	67.0
2025-08-07T08:24	10	123	0.2	123	123	451	0.4	450	451	19.5	65.8
2025-08-07T08:25	10	123	0.2	123	124	453	0.9	451	454	19.8	66.2
2025-08-07T08:26	10	124	0.1	124	124	453	0.7	452	455	19.8	65.0
2025-08-07T08:27	10	124	0.1	124	124	451	0.4	451	452	19.6	65.3
2025-08-07T08:28	10	125	0.1	124	125	451	0.5	451	452	19.5	66.1
2025-08-07T08:29	10	125	0.2	125	126	452	0.3	451	453	19.4	65.7
2025-08-07T08:30	10	126	0.1	125	126	453	0.3	453	454	19.4	65.9
2025-08-07T08:31	10	126	0.2	126	126	454	0.4	453	455	19.7	65.8
2025-08-07T08:32	10	127	0.2	126	127	454	0.3	454	455	19.8	64.5
2025-08-07T08:33	10	126	2.1	120	127	454	0.7	452	455	19.7	64.5
2025-08-07T08:34	10	123	6.4	108	128	454	0.9	452	455	19.6	64.7
2025-08-07T08:35	10	122	5.8	108	127	455	0.9	453	456	19.9	64.9
2025-08-07T08:36	10	126	0.1	126	126	455	0.8	454	457	19.8	64.8
2025-08-07T08:37	10	126	0.1	126	127	455	0.4	454	456	19.8	65.4
2025-08-07T08:38	10	127	0.2	126	127	455	0.3	454	456	19.9	64.6
2025-08-07T08:39	10	127	0.1	127	127	456	0.6	455	457	19.7	64.7
2025-08-07T08:40	10	127	0.2	127	128	457	0.4	456	458	19.8	64.8
2025-08-07T08:41	10	128	0.1	127	128	457	0.6	456	458	19.7	64.7
2025-08-07T08:42	10	128	0.1	128	128	454	0.9	453	456	19.4	65.0
2025-08-07T08:43	10	128	0.1	128	128	454	0.5	453	455	19.4	65.4
2025-08-07T08:44	10	128	0.2	128	129	456	0.7	455	457	19.5	65.3
2025-08-07T08:45	10	129	0.2	129	129	457	0.4	457	458	19.6	64.8
2025-08-07T08:46	10	129	0.2	129	130	459	0.7	458	460	20.0	64.0
2025-08-07T08:47	10	130	0.1	129	130	459	0.4	459	461	20.2	63.0
2025-08-07T08:48	10	130	0.2	130	130	460	0.3	459	461	20.2	62.8
2025-08-07T08:49	10	130	0.2	130	131	460	0.6	460	462	20.4	63.2
2025-08-07T08:50	10	131	0.1	131	131	462	0.3	462	463	20.6	62.5
2025-08-07T08:51	10	131	0.2	131	131	462	0.6	461	463	20.4	62.7
2025-08-07T08:52	10	131	0.2	131	132	461	1.0	459	463	20.3	63.1
2025-08-07T08:53	10	132	0.2	132	132	459	0.5	458	460	20.1	63.0
2025-08-07T08:54	10	132	0.1	132	132	461	0.5	460	462	20.2	63.3
2025-08-07T08:55	10	132	0.1	132	132	462	1.0	460	464	20.3	63.1
2025-08-07T08:56	10	132	0.1	132	133	460	0.4	459	461	20.0	63.0
2025-08-07T08:57	10	133	0.1	132	133	461	0.2	460	461	19.9	63.4
2025-08-07T08:58	10	133	0.2	133	133	462	0.4	461	463	20.1	63.3
2025-08-07T08:59	10	133	0.1	133	133	464	1.1	462	466	20.3	63.3
2025-08-07T09:00	10	134	0.1	133	134	465	0.4	464	466	20.6	62.2
2025-08-07T09:01	10	134	0.2	133	134	465	0.5	464	466	20.5	62.0
2025-08-07T09:02	10	134	0.1	134	134	466	0.4	465	467	20.6	62.7
2025-08-07T09:03	10	134	0.2	134	135	466	0.3	465	466	20.9	62.1
2025-08-07T09:04	10	135	0.1	134	135	466	0.5	465	467	20.7	61.6
2025-08-07T09:05	10	135	0.1	135	135	466	0.5	465	468	21.0	61.6
2025-08-07T09:06	10	135	0.1	135	135	467	1.0	466	469	21.1	61.6
2025-08-07T09:07	10	135	0.1	135	136	469	0.7	467	470	21.5	60.6
2025-08-07T09:08	10	136	0.1	135	136	466	0.5	465	467	21.5	58.8
2025-08-07T09:09	10	136	0.1	136	136	467	0.2	467	468	21.3	59.8
2025-08-07T09:10	10	136	0.1	136	136	469	0.6	468	470	21.3	60.0
2025-08-07T09:11	10	136	0.1	136	137	470	0.4	470	471	21.3	61.1
2025-08-07T09:12	10	137	0.1	136	137	471	0.7	470	472	21.5	60.7
2025-08-07T09:13	10	137	0.1	137	137	469	1.1	467	470	20.9	61.0
2025-08-07T09:14	10	137	0.1	137	137	469	1.0	468	471	21.0	61.9
2025-08-07T09:15	10	137	0.1	137	137	470	0.6	469	472	21.4	61.4
2025-08-07T09:16	10	137	0.1	137	137	469	0.8	468	471	21.0	61.6
2025-08-07T09:17	10	137	0.1	137	138	468	0.3	468	469	20.9	62.4
2025-08-07T09:18	10	138	0.1	137	138	467	0.3	467	468	20.9	62.3
2025-08-07T09:19	10	138	0.1	138	138	469	0.7	468	470	21.0	62.1
2025-08-07T09:20	10	138	0.1	138	138	471	0.6	469	472	20.9	62.2
2025-08-07T09:21	10	138	0.2	138	139	470	0.6	469	471	21.1	62.3
2025-08-07T09:22	10	139	0.1	139	139	469	1.3	467	471	20.9	61.8
2025-08-07T09:23	10	139	0.1	139	139	469	0.6	468	470	20.8	62.2
2025-08-07T09:24	10	139	0.1	139	139	471	1.0	469	473	20.9	62.2
2025-08-07T09:25	10	139	0.1	139	140	473	0.6	472	474	21.0	62.1
2025-08-07T09:26	10	139	0.1	139	140	472	0.5	472	474	21.0	62.1
2025-08-07T09:27	10	140	0.2	140	140	474	0.5	473	475	21.0	62.1
2025-08-07T09:28	10	140	0.1	140	141	475	0.5	474	476	21.0	62.1
2025-08-07T09:29	10	141	0.2	140	141	476	0.3	475	477	21.0	62.1
2025-08-07T09:30	10	141	0.1	141	141	476	0.7	475	477	21.0	62.1
2025-08-07T09:31	10	141	0.1	141	141	475	0.2	475	476	21.0	62.1
2025-08-07T09:32	10	142	0.1	141	142	476	0.4	476	477	21.3	61.2
2025-08-07T09:33	10	142	0.1	142	142	478	0.7	476	479	22.0	60.2
2025-08-07T09:34	10	142	0.1	142	142	479	0.4	478	480	22.3	59.8
2025-08-07T09:35	10	142	0.1	142	143	478	1.0	477	480	22.0	59.6
2025-08-07T09:36	10	143	0.1	142	143	477	1.9	474	480	21.8	60.1
2025-08-07T09:37	10	142	0.2	142	143	476	0.6	475	477	21.6	60.4
2025-08-07T09:38	10	143	0.2	142	143	477	1.0	475	479	21.7	60.0
2025-08-07T09:39	10	143	0.2	143	143	479	0.5	478	480	21.8	60.2
2025-08-07T09:40	10	143	0.2	143	144	479	1.2	477	480	21.8	59.9
2025-08-07T09:41	10	144	0.1	143	144	476	0.6	476	478	21.7	59.8
2025-08-07T09:42	10	144	0.2	143	144	479	1.2	477	481	21.9	60.0
2025-08-07T09:43	10	144	0.2	144	144	478	1.4	476	481	21.9	60.1
2025-08-07T09:44	10	144	0.2	144	144	476	1.1	475	478	21.8	60.3
2025-08-07T09:45	10	144	0.2	144	145	476	1.0	475	479	21.5	60.4
2025-08-07T09:46	10	145	0.3	144	145	480	1.1	478	482	22.0	59.8
2025-08-07T09:47	10	145	0.2	145	145	481	0.3	480	482	22.3	58.9
2025-08-07T09:48	10	145	0.1	145	145	482	0.5	481	483	22.3	59.4
2025-08-07T09:49	10	145	0.2	144	145	482	0.8	481	484	22.3	58.6
2025-08-07T09:50	10	146	0.2	145	146	484	1.1	481	485	22.6	58.0
2025-08-07T09:51	10	146	0.3	145	147	481	0.5	481	482	22.3	58.2
2025-08-07T09:52	10	146	0.3	145	147	482	0.4	481	483	22.2	58.3
2025-08-07T09:53	10	146	0.2	146	146	483	0.5	482	484	22.4	58.0
2025-08-07T09:54	10	146	0.1	146	147	484	0.7	483	486	22.7	58.9
2025-08-07T09:55	10	146	0.2	146	147	485	0.7	484	487	23.0	57.4
2025-08-07T09:56	10	147	0.2	146	148	483	1.2	482	486	22.7	57.1
2025-08-07T09:57	10	147	0.2	147	148	483	0.3	482	484	22.5	57.4
2025-08-07T09:58	10	147	0.2	147	148	485	0.9	483	486	22.7	57.1
2025-08-07T09:59	10	147	0.2	146	148	485	1.5	483	488	22.7	57.1
2025-08-07T10:00	10	147	0.2	147	148	485	2.5	481	489	23.1	56.6
2025-08-07T10:01	10	147	0.2	147	148	483	0.8	481	484	22.7	56.6
2025-08-07T10:02	10	147	0.2	147	148	485	0.4	484	486	22.7	56.8
2025-08-07T10:03	10	148	0.2	147	148	486	0.6	484	487	22.8	56.6
2025-08-07T10:04	10	148	0.2	147	148	486	1.0	485	488	22.8	56.8
2025-08-07T10:05	10	148	0.2	147	148	487	1.2	485	489	22.8	57.2
2025-08-07T10:06	10	148	0.2	147	148	487	0.7	486	488	23.0	56.6
2025-08-07T10:07	10	147	0.2	147	148	486	0.8	485	489	22.9	56.4
2025-08-07T10:08	10	148	0.4	147	149	488	0.3	487	488	22.8	56.4
2025-08-07T10:09	10	148	0.2	148	149	488	0.4	487	489	23.0	56.0
2025-08-07T10:10	10	148	0.2	148	149	489	0.3	489	490	23.3	56.1
2025-08-07T10:11	10	149	0.3	148	149	489	0.9	488	491	23.4	55.6
2025-08-07T10:12	10	149	0.2	148	149	492	0.7	491	493	23.5	56.2
2025-08-07T10:13	10	149	0.2	148	149	491	0.5	490	492	23.6	55.1
2025-08-07T10:14	10	148	0.2	148	149	492	0.7	490	493	23.6	54.9
2025-08-07T10:15	10	149	0.3	148	150	490	0.4	490	492	23.5	54.3
2025-08-07T10:16	10	149	0.2	149	150	488	1.0	487	491	23.2	54.6
2025-08-07T10:17	10	149	0.3	148	150	490	1.1	487	492	23.3	54.6
2025-08-07T10:18	10	149	0.3	148	150	488	1.7	485	492	23.3	54.9
2025-08-07T10:19	10	149	0.2	149	150	487	1.1	485	489	23.1	55.4
2025-08-07T10:20	10	149	0.2	149	150	491	0.8	489	492	23.6	54.6
2025-08-07T10:21	10	149	0.2	149	150	493	1.0	491	495	23.8	54.1
2025-08-07T10:22	10	149	0.1	149	150	491	0.7	489	492	23.9	53.0
2025-08-07T10:23	10	150	0.3	149	150	493	1.3	491	495	23.9	53.3
2025-08-07T10:24	10	150	0.2	149	150	494	0.6	493	496	24.2	52.4
2025-08-07T10:25	10	150	0.2	150	151	493	0.9	492	495	24.1	52.5
2025-08-07T10:26	10	150	0.2	150	150	496	0.7	495	497	24.2	53.1
2025-08-07T10:27	10	150	0.2	149	151	497	0.8	494	498	24.3	52.4
2025-08-07T10:28	10	150	0.3	150	151	493	0.9	492	495	24.1	51.7
2025-08-07T10:29	10	150	0.2	150	151	494	0.4	493	495	24.0	52.5
2025-08-07T10:30	10	151	0.3	151	152	495	0.4	494	496	24.3	51.9
2025-08-07T10:31	10	151	0.3	151	152	495	0.6	495	497	24.2	52.2
2025-08-07T10:32	10	151	0.3	150	152	497	0.4	496	498	24.3	52.5
2025-08-07T10:33	10	151	0.1	150	151	498	1.1	497	500	24.6	52.1
2025-08-07T10:34	10	151	0.1	151	151	498	2.0	495	501	24.7	51.7
2025-08-07T10:35	10	151	0.2	151	152	495	0.5	494	497	24.6	51.2
2025-08-07T10:36	10	151	0.1	151	151	495	0.7	493	496	24.5	51.0
2025-08-07T10:37	10	151	0.1	151	151	497	1.0	495	498	24.3	51.4
2025-08-07T10:38	10	151	0.3	151	152	495	0.7	494	497	24.4	51.4
2025-08-07T10:39	10	151	0.2	150	151	497	0.8	496	499	24.2	52.0
2025-08-07T10:40	10	150	0.2	150	151	499	1.0	496	500	24.5	51.8
2025-08-07T10:41	10	150	0.2	150	151	493	1.0	492	496	24.1	52.1
2025-08-07T10:42	10	151	0.2	151	151	494	1.5	493	497	24.0	52.9
2025-08-07T10:43	10	150	0.7	148	151	498	0.8	497	500	24.2	52.6
2025-08-07T10:44	10	148	0.5	148	150	497	0.4	496	498	24.4	52.5
2025-08-07T10:45	10	150	0.2	150	150	499	1.5	495	501	24.9	51.5
2025-08-07T10:46	10	151	0.3	150	151	495	1.5	493	497	24.6	52.5
2025-08-07T10:47	10	151	0.3	150	151	496	1.0	494	498	24.7	52.5
2025-08-07T10:48	10	150	0.5	149	151	493	0.7	491	495	24.3	53.5
2025-08-07T10:49	10	150	0.3	150	151	491	0.9	489	492	24.1	54.1
2025-08-07T10:50	10	150	0.2	150	151	493	0.8	492	495	24.3	53.6
2025-08-07T10:51	10	151	0.3	150	151	494	1.2	492	497	24.5	53.2
2025-08-07T10:52	10	150	0.1	150	151	495	1.0	494	498	24.2	53.8
2025-08-07T10:53	10	150	0.2	150	150	494	1.1	492	496	24.6	53.6
2025-08-07T10:54	10	149	0.5	148	150	496	2.2	493	500	24.8	53.4
2025-08-07T10:55	10	150	0.6	149	151	494	2.6	491	499	24.5	54.6
2025-08-07T10:56	10	150	0.4	150	151	487	2.2	484	492	23.6	56.9
2025-08-07T10:57	10	150	0.3	150	151	489	1.7	486	492	23.7	57.1
2025-08-07T10:58	10	150	0.5	149	151	490	0.7	488	491	23.8	56.9
2025-08-07T10:59	10	151	0.3	150	152	491	0.8	489	493	23.9	56.4
2025-08-07T11:00	10	151	0.1	151	152	490	0.8	488	491	23.7	56.6
2025-08-07T11:01	10	150	0.3	150	151	490	0.8	488	491	24.0	55.8
2025-08-07T11:02	10	151	0.2	150	151	488	1.0	486	490	23.3	57.1
2025-08-07T11:03	10	151	0.8	150	153	491	1.3	488	493	23.6	56.4
2025-08-07T11:04	10	153	0.2	152	153	493	1.2	491	495	23.8	55.7
2025-08-07T11:05	10	151	0.3	151	152	492	0.7	491	493	23.8	55.9
2025-08-07T11:06	10	151	0.2	151	151	489	1.0	487	491	23.6	56.0
2025-08-07T11:07	10	152	0.5	151	153	489	1.0	487	491	23.5	56.3
2025-08-07T11:08	10	152	0.4	151	152	489	1.2	487	491	23.5	56.3
2025-08-07T11:09	10	153	0.3	152	153	492	2.2	487	495	23.6	56.4
2025-08-07T11:10	10	152	0.1	152	153	496	1.0	494	497	24.2	54.9
2025-08-07T11:11	10	153	0.3	152	153	494	1.6	491	496	24.2	54.9
2025-08-07T11:12	10	153	0.2	153	153	492	1.1	490	494	23.8	55.6
2025-08-07T11:13	10	153	0.2	153	154	497	1.9	494	500	24.1	55.6
2025-08-07T11:14	10	153	0.3	152	153	495	1.3	493	498	24.2	55.0
2025-08-07T11:15	10	153	0.3	153	154	496	1.1	494	498	24.1	54.9
2025-08-07T11:16	10	153	0.4	153	154	495	1.4	493	498	24.0	55.2
2025-08-07T11:17	10	152	0.3	152	153	494	0.5	493	495	23.9	55.6
2025-08-07T11:18	10	154	0.2	153	154	496	0.9	494	498	24.2	54.9
2025-08-07T11:19	10	154	0.2	153	154	499	1.3	496	501	24.1	55.3
2025-08-07T11:20	10	154	0.2	154	155	495	1.3	494	498	24.0	55.3
2025-08-07T11:21	10	154	0.2	154	155	493	0.8	492	496	23.6	55.8
2025-08-07T11:22	10	154	0.1	153	154	498	1.2	496	500	24.0	56.0
2025-08-07T11:23	10	154	0.2	153	154	500	0.7	498	501	24.3	54.7
2025-08-07T11:24	10	154	0.1	153	154	497	1.7	495	501	23.8	55.0
2025-08-07T11:25	10	153	0.2	153	154	499	0.5	498	500	24.2	55.0
2025-08-07T11:26	10	154	0.2	154	155	499	1.0	498	502	24.0	54.9
2025-08-07T11:27	10	154	0.2	154	155	499	1.1	497	501	23.9	54.8
2025-08-07T11:28	10	154	0.3	153	154	498	1.3	496	500	23.8	55.1
2025-08-07T11:29	10	154	0.3	154	155	501	1.0	498	502	24.2	54.8
2025-08-07T11:30	10	154	0.3	154	155	502	0.7	500	503	24.5	53.5
2025-08-07T11:31	10	154	0.2	153	154	501	0.6	499	502	24.4	53.1
2025-08-07T11:32	10	154	0.2	154	154	502	0.8	500	504	24.6	52.3
2025-08-07T11:33	10	154	0.1	154	154	500	1.0	498	502	24.4	53.6
2025-08-07T11:34	10	154	0.2	153	154	503	1.3	501	505	24.8	53.9
2025-08-07T11:35	10	154	0.2	153	154	501	1.8	498	505	24.8	52.9
2025-08-07T11:36	10	154	0.1	154	154	499	0.5	498	500	24.5	53.3
2025-08-07T11:37	10	154	0.1	154	154	502	0.7	500	503	24.4	53.2
2025-08-07T11:38	10	154	0.1	154	154	506	1.2	503	508	24.9	53.2
2025-08-07T11:39	10	154	0.2	154	155	507	0.7	505	508	25.3	52.6
2025-08-07T11:40	10	155	0.2	154	155	506	1.0	504	508	25.4	50.9
2025-08-07T11:41	10	154	0.1	154	155	505	1.0	503	507	24.8	51.0
2025-08-07T11:42	10	154	0.1	154	154	507	1.8	503	509	25.4	50.3
2025-08-07T11:43	10	154	0.2	154	155	504	0.4	503	505	24.7	50.8
2025-08-07T11:44	10	153	0.3	153	154	504	1.6	499	506	24.8	51.1
2025-08-07T11:45	10	154	0.3	153	155	501	1.6	499	504	24.8	51.3
2025-08-07T11:46	10	154	0.2	154	154	503	0.5	502	504	24.7	51.4
2025-08-07T11:47	10	154	0.1	153	154	506	1.3	504	508	24.9	51.3
2025-08-07T11:48	10	154	0.1	153	154	505	1.0	503	507	24.8	50.7
2025-08-07T11:49	10	154	0.1	154	154	506	0.5	505	507	24.8	50.9
2025-08-07T11:50	10	154	0.2	154	155	505	0.5	504	506	24.8	50.3
2025-08-07T11:51	10	155	0.1	155	155	507	0.5	506	508	24.9	50.5
2025-08-07T11:52	10	155	0.1	155	155	508	0.2	507	508	24.9	49.9
2025-08-07T11:53	10	155	0.2	154	155	509	0.8	508	510	25.0	49.9
2025-08-07T11:54	10	155	0.1	155	155	511	0.8	509	512	25.3	49.9
2025-08-07T11:55	10	155	0.4	154	155	510	1.0	508	512	25.7	50.0
2025-08-07T11:56	10	154	0.2	154	155	509	0.9	508	511	25.8	48.8
2025-08-07T11:57	10	155	0.3	154	155	508	0.5	507	509	25.6	48.6
2025-08-07T11:58	10	155	0.1	155	155	510	0.5	509	510	25.7	49.1
2025-08-07T11:59	10	155	0.1	155	155	510	0.6	509	511	25.5	48.6
2025-08-07T12:00	10	155	0.2	155	156	508	2.2	505	512	25.3	49.5
2025-08-07T12:01	10	156	0.2	155	156	508	0.7	506	509	25.0	49.8
2025-08-07T12:02	10	156	0.4	155	156	508	1.2	506	510	25.2	49.6
2025-08-07T12:03	10	156	0.2	155	156	509	0.8	507	511	25.4	49.3
2025-08-07T12:04	10	156	0.2	156	156	508	2.0	504	512	25.8	49.0
2025-08-07T12:05	10	156	0.2	155	156	507	2.0	504	509	25.8	48.2
2025-08-07T12:06	10	156	0.1	156	156	508	0.8	506	509	26.0	47.4
2025-08-07T12:07	10	156	0.2	156	157	510	0.8	509	512	26.5	45.2
2025-08-07T12:08	10	157	0.3	157	158	512	0.7	510	513	26.5	43.4
2025-08-07T12:09	10	158	0.1	157	158	515	1.1	512	517	26.7	37.5
2025-08-07T12:10	10	158	0.3	157	158	515	0.7	514	517	27.6	23.9
2025-08-07T12:11	10	159	0.2	158	159	513	3.5	508	517	28.1	22.7
2025-08-07T12:12	10	159	0.1	159	159	508	1.9	505	510	28.0	20.2
2025-08-07T12:13	10	158	0.2	158	159	509	2.1	506	513	27.8	20.1
2025-08-07T12:14	10	158	0.2	157	158	512	1.7	509	514	28.1	20.6
2025-08-07T12:15	10	158	0.1	158	158	515	2.1	511	518	28.2	20.9
2025-08-07T12:16	10	158	0.1	157	158	515	2.3	512	519	28.4	21.1
2025-08-07T12:17	10	158	0.2	157	158	511	2.5	506	514	28.3	20.5
2025-08-07T12:18	10	158	0.2	158	158	509	0.7	508	511	27.9	19.7
2025-08-07T12:19	10	158	0.4	157	158	509	0.9	507	510	28.2	20.5
2025-08-07T12:20	10	157	0.2	157	157	508	0.8	507	510	28.3	20.3
2025-08-07T12:21	10	157	0.2	157	158	507	1.1	506	511	28.0	19.6
2025-08-07T12:22	10	158	0.1	158	158	511	0.9	508	513	28.0	19.9
2025-08-07T12:23	10	157	0.2	157	158	513	0.6	512	515	28.3	19.9
2025-08-07T12:24	10	157	0.1	157	158	512	1.7	510	515	28.4	20.4
2025-08-07T12:25	10	157	0.1	157	158	511	0.8	510	513	28.7	19.7
2025-08-07T12:26	10	157	0.2	157	158	514	1.5	511	516	28.8	20.0
2025-08-07T12:27	10	157	0.1	157	157	514	1.3	512	517	28.8	19.6
2025-08-07T12:28	10	157	0.3	157	158	515	1.5	512	517	28.9	19.9
2025-08-07T12:29	10	157	0.4	156	157	514	1.0	513	516	28.9	19.8
2025-08-07T12:30	10	157	0.3	156	157	515	0.8	514	517	28.8	19.8
2025-08-07T12:31	10	157	0.3	156	157	517	1.1	515	519	28.9	19.5
2025-08-07T12:32	10	156	0.2	156	157	511	2.6	508	516	28.5	17.5
2025-08-07T12:33	10	156	0.2	156	157	509	1.3	506	511	28.4	18.6
2025-08-07T12:34	10	156	0.2	156	156	513	1.2	511	515	28.7	19.3
2025-08-07T12:35	10	156	0.1	156	156	515	1.4	513	518	28.8	19.7
2025-08-07T12:36	10	156	0.2	155	156	514	2.3	511	519	28.6	19.1
2025-08-07T12:37	10	155	0.3	154	155	516	0.8	514	517	28.4	19.5
2025-08-07T12:38	10	155	0.2	154	155	514	3.1	509	517	28.5	19.9
2025-08-07T12:39	10	155	0.2	155	155	511	1.1	509	512	28.2	19.9
2025-08-07T12:40	10	155	0.2	154	155	516	1.6	512	518	28.6	20.4
2025-08-07T12:41	10	155	0.2	155	155	515	1.6	513	518	28.8	20.2
2025-08-07T12:42	10	155	0.3	154	155	512	1.2	509	513	28.5	20.2
2025-08-07T12:43	10	154	0.2	154	155	513	0.9	512	515	28.9	20.5
2025-08-07T12:44	10	154	0.2	153	154	510	1.9	508	513	28.5	20.8
2025-08-07T12:45	10	154	0.1	153	154	513	1.5	510	515	28.8	21.5
2025-08-07T12:46	10	154	0.1	153	154	512	0.6	511	514	29.0	22.2
2025-08-07T12:47	10	153	0.3	152	154	511	1.0	509	513	28.6	21.8
2025-08-07T12:48	10	153	0.1	152	153	512	1.4	510	515	28.5	22.1
2025-08-07T12:49	10	153	0.1	153	153	512	1.0	509	514	28.6	22.2
2025-08-07T12:50	10	153	0.2	153	153	515	0.7	514	516	28.9	22.4
2025-08-07T12:51	10	153	0.1	153	153	518	1.6	515	520	28.9	23.2
2025-08-07T12:52	10	154	0.2	153	154	520	1.8	516	522	29.2	23.7
2025-08-07T12:53	10	154	0.2	153	154	515	2.6	511	519	29.0	23.6
2025-08-07T12:54	10	153	0.2	153	154	509	1.5	507	513	28.6	23.4
2025-08-07T12:55	10	153	0.2	152	153	510	0.5	508	510	28.4	23.3
2025-08-07T12:56	10	152	0.1	152	153	510	0.9	508	511	28.5	23.2
2025-08-07T12:57	10	152	0.2	152	153	511	1.2	508	513	28.6	23.3
2025-08-07T12:58	10	152	0.2	151	152	512	1.4	509	514	28.6	23.4
2025-08-07T12:59	10	152	0.2	152	152	510	2.9	505	513	28.9	23.6
2025-08-07T13:00	10	151	0.4	151	152	510	3.5	505	515	28.7	23.5
2025-08-07T13:01	10	151	0.3	150	152	512	2.2	509	516	28.9	24.1
2025-08-07T13:02	10	151	0.1	151	152	511	1.5	509	513	28.8	24.7
2025-08-07T13:03	10	151	0.1	151	152	512	1.1	510	515	28.7	24.9
2025-08-07T13:04	10	152	0.2	151	152	509	1.0	507	511	28.5	24.7
2025-08-07T13:05	10	151	0.1	151	151	507	0.8	506	509	28.3	24.9
2025-08-07T13:06	10	150	0.4	149	151	509	1.6	506	512	28.5	25.1
2025-08-07T13:07	10	149	0.1	149	150	510	0.8	508	511	28.5	25.3
2025-08-07T13:08	10	149	0.1	149	150	511	1.8	509	514	28.7	25.8
2025-08-07T13:09	10	150	0.2	149	150	513	1.0	510	514	28.9	25.8
2025-08-07T13:10	10	149	0.2	149	150	506	1.2	504	510	28.6	26.3
2025-08-07T13:11	10	149	0.1	149	149	510	2.0	507	513	28.9	26.6
2025-08-07T13:12	10	149	0.3	148	149	511	2.5	507	514	29.1	26.4
2025-08-07T13:13	10	149	0.1	149	149	508	0.8	507	510	28.6	26.7
2025-08-07T13:14	10	149	0.4	148	149	509	1.3	506	511	28.3	26.8
2025-08-07T13:15	10	148	0.2	148	148	511	1.8	508	513	28.7	26.9
2025-08-07T13:16	10	148	0.1	147	148	511	1.3	509	513	28.8	26.9
2025-08-07T13:17	10	148	0.1	147	148	511	2.2	509	515	28.9	26.5
2025-08-07T13:18	10	147	0.1	147	148	513	1.0	511	515	28.9	26.3
2025-08-07T13:19	10	148	0.2	147	148	513	2.5	508	517	29.0	26.5
2025-08-07T13:20	10	148	0.3	147	148	509	1.1	507	511	28.6	26.7
2025-08-07T13:21	10	147	0.3	146	148	509	0.8	508	511	28.7	26.5
2025-08-07T13:22	10	146	0.2	146	147	510	1.1	508	512	28.8	26.9
2025-08-07T13:23	10	146	0.2	145	146	512	1.3	509	514	29.0	27.0
2025-08-07T13:24	10	146	0.4	146	147	511	0.8	510	513	28.8	27.9
2025-08-07T13:25	10	147	0.2	146	147	512	0.7	511	514	29.2	28.1
2025-08-07T13:26	10	146	0.4	146	147	512	0.8	511	514	29.0	28.8
2025-08-07T13:27	10	146	0.2	146	147	512	0.7	510	513	28.6	29.5
2025-08-07T13:28	10	145	0.3	145	146	514	1.4	511	517	28.8	29.5
2025-08-07T13:29	10	145	0.3	145	146	516	3.3	510	521	29.1	29.4
2025-08-07T13:30	10	146	0.3	145	147	511	0.5	510	512	28.9	29.1
2025-08-07T13:31	10	145	0.3	145	146	514	2.4	509	517	28.8	29.5
2025-08-07T13:32	10	145	0.1	145	146	511	2.4	508	517	29.2	28.8
2025-08-07T13:33	10	146	0.2	145	146	512	1.3	510	514	29.1	29.0
2025-08-07T13:34	10	146	0.3	145	146	513	0.9	511	515	29.0	29.5
2025-08-07T13:35	10	145	0.3	145	146	511	0.8	510	513	29.1	29.2
2025-08-07T13:36	10	145	0.5	144	146	513	2.2	510	518	29.1	29.0
2025-08-07T13:37	10	145	0.4	144	145	515	1.5	513	518	29.6	26.7
2025-08-07T13:38	10	145	0.2	145	145	514	1.2	512	516	29.6	25.9
2025-08-07T13:39	10	145	0.2	144	146	515	0.8	513	516	29.5	27.6
2025-08-07T13:40	10	145	0.3	145	146	515	1.2	513	517	29.6	26.8
2025-08-07T13:41	10	144	0.3	144	145	513	0.6	512	514	29.5	26.0
2025-08-07T13:42	10	144	0.2	143	144	514	1.5	512	517	29.8	26.7
2025-08-07T13:43	10	143	0.1	143	144	513	1.2	511	515	29.7	23.8
2025-08-07T13:44	10	144	0.6	144	145	513	0.8	512	514	29.7	21.3
2025-08-07T13:45	10	145	0.1	145	145	509	0.9	508	512	29.5	21.2
2025-08-07T13:46	10	145	0.2	145	146	508	0.8	507	510	29.4	21.2
2025-08-07T13:47	10	144	0.5	143	145	507	0.8	506	510	29.3	21.3
2025-08-07T13:48	10	143	0.2	143	143	510	0.3	509	511	29.3	21.8
2025-08-07T13:49	10	143	0.1	143	143	511	0.8	510	513	29.5	22.4
2025-08-07T13:50	10	143	0.2	142	143	514	0.9	512	516	29.5	23.1
2025-08-07T13:51	10	143	0.1	142	143	514	1.2	513	517	29.6	23.3
2025-08-07T13:52	10	142	0.3	142	143	515	0.8	514	517	29.8	23.1
2025-08-07T13:53	10	142	0.2	141	142	513	2.0	509	515	29.6	23.1
2025-08-07T13:54	10	141	0.3	141	142	507	2.2	503	511	29.3	23.7
2025-08-07T13:55	10	141	0.1	140	141	509	0.9	508	512	29.6	24.1
2025-08-07T13:56	10	140	0.2	140	141	513	1.3	510	516	29.8	23.9
2025-08-07T13:57	10	140	0.1	140	140	511	2.4	507	515	29.6	23.5
2025-08-07T13:58	10	140	0.1	140	140	507	1.1	506	509	29.4	23.5
2025-08-07T13:59	10	140	0.2	139	140	507	1.1	506	509	29.2	23.4
2025-08-07T14:00	10	139	0.2	139	140	508	1.3	506	510	29.2	24.1
2025-08-07T14:01	10	139	0.1	138	139	511	2.0	507	514	29.5	24.2
2025-08-07T14:02	10	139	0.1	138	139	512	1.5	509	514	29.9	24.0
2025-08-07T14:03	10	138	0.2	138	139	507	1.3	506	510	29.5	23.6
2025-08-07T14:04	10	138	0.2	138	139	506	0.9	505	509	29.3	23.4
2025-08-07T14:05	10	137	0.2	137	138	509	1.0	507	511	29.6	23.4
2025-08-07T14:06	10	137	0.2	137	138	507	1.3	506	510	29.5	23.2
2025-08-07T14:07	10	137	0.1	136	137	511	1.0	509	513	29.7	23.2
2025-08-07T14:08	10	137	0.1	136	137	509	1.0	508	511	30.0	23.0
2025-08-07T14:09	10	137	0.2	136	137	510	0.6	509	511	30.1	23.1
2025-08-07T14:10	10	137	0.2	137	137	508	2.0	505	512	29.9	23.0
2025-08-07T14:11	10	137	0.1	136	137	509	1.8	506	512	29.6	22.9
2025-08-07T14:12	10	136	0.2	136	137	508	1.1	506	510	29.3	23.2
2025-08-07T14:13	10	136	0.2	136	136	507	0.5	506	508	29.3	23.7
2025-08-07T14:14	10	135	0.2	135	136	507	1.2	506	510	29.4	24.0
2025-08-07T14:15	10	135	0.3	134	135	508	1.0	507	510	29.6	23.7
2025-08-07T14:16	10	134	0.2	134	135	507	0.8	505	508	29.3	23.6
2025-08-07T14:17	10	134	0.1	134	134	508	1.6	505	510	29.3	23.8
2025-08-07T14:18	10	134	0.1	133	134	511	1.3	509	513	29.3	23.5
2025-08-07T14:19	10	134	0.1	133	134	510	3.5	504	514	29.5	23.7
2025-08-07T14:20	10	133	0.1	133	134	507	1.2	504	509	29.5	23.9
2025-08-07T14:21	10	133	0.1	133	133	507	0.8	505	509	29.4	23.7
2025-08-07T14:22	10	133	0.2	132	133	509	0.7	507	510	29.4	23.9
2025-08-07T14:23	10	132	0.1	132	132	510	0.8	509	512	29.6	23.9
2025-08-07T14:24	10	132	0.1	132	132	510	1.5	508	513	29.8	23.7
2025-08-07T14:25	10	132	0.1	132	132	512	0.4	511	513	29.7	23.8
2025-08-07T14:26	10	132	0.1	132	132	512	1.0	510	513	29.6	23.9
2025-08-07T14:27	10	132	0.1	131	132	510	1.0	508	511	29.7	23.9
2025-08-07T14:28	10	131	0.1	131	131	510	1.4	508	512	29.9	23.8
2025-08-07T14:29	10	131	0.2	131	131	508	1.0	507	510	29.5	24.2
2025-08-07T14:30	10	130	0.2	130	131	511	1.4	508	512	29.8	24.7
2025-08-07T14:31	10	130	0.1	130	130	510	1.2	508	512	30.0	24.7
2025-08-07T14:32	10	129	0.2	129	130	507	1.5	505	510	29.7	26.1
2025-08-07T14:33	10	129	0.1	129	129	507	0.6	505	508	29.4	26.9
2025-08-07T14:34	10	129	0.2	128	129	507	1.5	504	509	29.6	26.5
2025-08-07T14:35	10	128	0.1	128	129	506	0.7	505	507	29.3	26.2
2025-08-07T14:36	10	128	0.2	128	128	506	0.9	505	508	29.3	26.7
2025-08-07T14:37	10	128	0.1	127	128	509	1.0	507	511	29.5	26.5
2025-08-07T14:38	10	127	0.1	127	127	511	1.8	508	514	29.7	26.5
2025-08-07T14:39	10	127	0.2	126	127	509	2.8	506	514	29.8	25.5
2025-08-07T14:40	10	127	0.1	126	127	509	1.0	507	510	29.8	25.8
2025-08-07T14:41	10	126	0.1	126	127	507	1.3	504	509	30.0	25.6
2025-08-07T14:42	10	126	0.1	126	126	506	0.4	505	507	29.9	25.7
2025-08-07T14:43	10	126	0.1	126	126	506	0.7	504	507	29.9	25.9
2025-08-07T14:44	10	126	0.1	126	126	505	0.8	504	507	29.7	25.7
2025-08-07T14:45	10	126	0.1	126	126	507	1.3	504	509	29.7	25.0
2025-08-07T14:46	10	126	0.1	125	126	505	1.5	503	508	29.7	24.6
2025-08-07T14:47	10	125	0.3	124	126	503	0.9	502	505	29.8	24.7
2025-08-07T14:48	10	124	0.2	124	124	503	0.4	502	504	29.7	24.7
2025-08-07T14:49	10	124	0.2	124	124	504	0.5	503	505	29.7	24.8
2025-08-07T14:50	10	124	0.2	123	124	505	1.1	503	506	29.8	24.7
2025-08-07T14:51	10	123	0.2	123	124	505	0.6	503	506	29.8	24.6
2025-08-07T14:52	10	123	0.2	123	124	504	0.5	503	504	29.5	24.5
2025-08-07T14:53	10	123	0.3	122	123	505	0.5	504	506	29.6	24.6
2025-08-07T14:54	10	122	0.2	122	123	504	0.5	503	505	29.7	24.8
2025-08-07T14:55	10	122	0.2	122	123	505	0.6	504	506	29.8	24.6
2025-08-07T14:56	10	122	0.2	122	123	505	0.6	505	507	29.7	24.9
2025-08-07T14:57	10	122	0.1	122	122	506	0.7	505	508	29.9	25.1
2025-08-07T14:58	10	122	0.2	122	122	505	0.5	504	506	30.0	25.2
2025-08-07T14:59	10	122	0.2	121	122	501	1.5	498	504	29.8	25.0
2025-08-07T15:00	10	121	0.3	121	122	498	0.5	497	500	29.5	24.8
2025-08-07T15:01	10	121	0.2	120	121	503	2.0	499	506	29.5	24.9
2025-08-07T15:02	10	120	0.2	120	121	505	1.2	502	506	29.7	25.2
2025-08-07T15:03	10	120	0.2	119	120	499	1.2	497	502	29.6	25.3
2025-08-07T15:04	10	119	0.2	119	120	500	2.0	497	503	29.6	25.6
2025-08-07T15:05	10	118	0.2	118	119	500	1.0	498	502	29.7	25.6
2025-08-07T15:06	10	118	0.1	118	118	500	0.8	499	502	29.6	25.8
2025-08-07T15:07	10	118	0.1	118	118	502	0.7	501	503	29.8	25.7
2025-08-07T15:08	10	118	0.1	118	118	499	0.7	498	501	29.7	25.7
2025-08-07T15:09	10	117	0.1	117	118	501	0.9	500	503	29.8	25.7
2025-08-07T15:10	10	117	0.2	116	117	503	0.9	502	505	30.1	25.7
2025-08-07T15:11	10	116	0.1	116	116	504	1.3	500	505	30.3	25.4
2025-08-07T15:12	10	116	0.1	116	116	500	0.4	499	501	29.9	24.6
2025-08-07T15:13	10	116	0.2	115	116	500	0.7	499	501	30.0	25.2
2025-08-07T15:14	10	115	0.1	115	116	499	0.5	498	500	29.9	24.5
2025-08-07T15:15	10	115	0.2	114	115	500	1.3	498	502	30.1	24.7
2025-08-07T15:16	10	114	0.2	113	114	502	0.5	501	503	30.4	24.7
2025-08-07T15:17	10	113	0.1	113	114	502	0.9	500	504	30.3	23.0
2025-08-07T15:18	10	113	0.1	113	113	503	0.5	502	504	30.2	23.5
2025-08-07T15:19	10	113	0.2	113	113	501	1.4	499	503	30.4	23.1
2025-08-07T15:20	10	113	0.1	113	113	500	1.1	498	502	30.2	22.9
2025-08-07T15:21	10	113	0.2	112	113	499	1.3	496	500	30.0	22.9
2025-08-07T15:22	10	112	0.3	111	112	497	1.0	495	499	29.8	23.0
2025-08-07T15:23	10	111	0.1	111	111	500	1.3	498	503	30.1	23.2
2025-08-07T15:24	10	111	0.1	111	111	502	0.8	501	504	30.4	23.2
2025-08-07T15:25	10	111	0.2	110	111	500	1.6	498	503	30.5	23.4
2025-08-07T15:26	10	110	0.2	110	110	500	0.5	499	501	30.2	24.0
2025-08-07T15:27	10	110	0.2	110	110	500	0.7	499	502	30.3	24.3
2025-08-07T15:28	10	109	0.1	109	110	499	2.3	495	502	30.3	24.0
2025-08-07T15:29	10	109	0.2	109	109	497	0.4	496	497	30.2	24.6
2025-08-07T15:30	10	109	0.2	108	109	497	0.4	496	498	30.1	24.8
2025-08-07T15:31	10	108	0.1	108	109	497	0.4	496	498	30.1	24.9
2025-08-07T15:32	10	108	0.2	108	108	498	0.7	497	499	30.0	25.0
2025-08-07T15:33	10	107	0.1	107	108	499	0.4	499	500	30.2	25.3
2025-08-07T15:34	10	107	0.1	107	107	498	1.3	497	500	30.3	25.3
2025-08-07T15:35	10	107	0.1	107	107	498	0.4	497	499	30.4	25.0
2025-08-07T15:36	10	107	0.2	106	107	497	1.7	494	500	30.3	25.3
2025-08-07T15:37	10	106	0.2	106	107	493	1.2	491	496	30.3	25.6
2025-08-07T15:38	10	106	0.1	106	106	493	1.3	491	495	30.3	25.7
2025-08-07T15:39	10	105	0.3	105	106	493	1.0	491	494	30.2	25.6
2025-08-07T15:40	10	105	0.2	105	105	493	0.6	492	495	30.1	25.5
2025-08-07T15:41	10	105	0.2	104	105	493	0.5	492	494	30.2	25.6
2025-08-07T15:42	10	104	0.2	104	105	493	0.5	492	494	30.0	25.3
2025-08-07T15:43	10	104	0.1	104	104	494	0.6	493	495	29.9	25.4
2025-08-07T15:44	10	103	0.3	103	104	494	0.5	493	495	29.8	25.6
2025-08-07T15:45	10	103	0.2	102	103	494	1.0	492	495	29.9	26.1
2025-08-07T15:46	10	102	0.2	102	103	491	0.5	490	492	30.0	26.4
2025-08-07T15:47	10	102	0.1	102	102	491	0.6	490	492	30.0	26.7
2025-08-07T15:48	10	102	0.2	101	102	489	1.1	488	492	30.0	26.7
2025-08-07T15:49	10	101	0.1	101	102	492	0.5	491	493	30.2	26.5
2025-08-07T15:50	10	101	0.1	101	101	492	0.8	491	493	30.2	26.3
2025-08-07T15:51	10	101	0.2	100	101	492	0.5	492	493	30.3	26.2
2025-08-07T15:52	10	100	0.2	100	100	492	0.4	492	493	30.3	26.3
2025-08-07T15:53	10	100	0.1	100	100	490	0.9	489	493	30.2	26.0
2025-08-07T15:54	10	100	0.1	100	100	489	0.4	488	490	29.9	25.6
2025-08-07T15:55	10	99	0.2	99	100	490	0.7	489	492	29.8	25.9
2025-08-07T15:56	10	99	0.2	98	99	491	0.4	490	492	29.9	25.9
2025-08-07T15:57	10	98	0.1	98	99	492	0.4	491	493	30.1	25.9
2025-08-07T15:58	10	98	0.1	98	98	489	0.6	488	491	30.0	24.9
2025-08-07T15:59	10	98	0.1	98	98	491	0.7	489	492	30.1	25.9
2025-08-07T16:00	10	98	0.1	97	98	490	0.8	488	491	30.2	25.8
2025-08-07T16:01	10	97	0.2	97	98	489	0.9	488	491	30.2	25.9
2025-08-07T16:02	10	97	0.2	96	97	490	0.5	489	491	30.4	26.1
2025-08-07T16:03	10	96	0.2	96	96	488	0.7	487	489	30.2	25.5
2025-08-07T16:04	10	96	0.1	95	96	488	0.9	487	490	30.1	25.4
2025-08-07T16:05	10	95	0.2	95	95	486	0.5	485	487	30.0	25.6
2025-08-07T16:06	10	95	0.2	94	95	487	0.3	486	487	30.1	25.5
2025-08-07T16:07	10	94	0.2	93	94	486	0.4	485	487	30.1	25.5
2025-08-07T16:08	10	93	0.1	93	93	485	0.4	484	486	30.1	24.9
2025-08-07T16:09	10	93	0.2	92	93	486	0.9	484	487	30.0	25.0
2025-08-07T16:10	10	92	0.2	92	92	488	0.6	487	489	30.3	25.2
2025-08-07T16:11	10	92	0.1	91	92	488	1.1	486	490	30.5	25.3
2025-08-07T16:12	10	91	0.2	91	91	487	0.4	486	487	30.4	24.9
2025-08-07T16:13	10	90	0.2	90	91	486	0.3	486	487	30.5	24.8
2025-08-07T16:14	10	90	0.1	90	90	486	0.6	485	488	30.3	24.4
2025-08-07T16:15	10	89	0.2	89	90	487	0.5	486	488	30.4	24.6
2025-08-07T16:16	10	89	0.2	89	89	487	0.2	486	487	30.4	24.6
2025-08-07T16:17	10	88	0.2	88	89	484	1.9	482	487	30.3	23.8
2025-08-07T16:18	10	88	0.2	88	88	483	0.6	482	484	30.1	23.3
2025-08-07T16:19	10	88	0.1	87	88	483	0.8	482	484	30.2	23.6
2025-08-07T16:20	10	87	0.1	87	88	482	0.5	481	483	30.1	24.1
2025-08-07T16:21	10	87	0.1	87	87	481	0.2	481	482	30.0	24.7
2025-08-07T16:22	10	87	0.2	86	87	482	0.4	482	483	30.0	25.0
2025-08-07T16:23	10	86	0.2	86	86	482	0.6	481	483	30.1	24.5
2025-08-07T16:24	10	86	0.1	85	86	481	0.2	480	481	30.1	24.8
2025-08-07T16:25	10	85	0.2	85	85	481	0.5	480	482	30.1	24.8
2025-08-07T16:26	10	85	0.2	84	85	480	0.4	479	481	30.1	24.0
2025-08-07T16:27	10	84	0.2	84	85	481	0.4	479	482	30.1	24.3
2025-08-07T16:28	10	84	0.2	83	84	480	0.5	479	481	30.2	24.2
2025-08-07T16:29	10	83	0.3	83	84	479	0.2	479	480	30.1	23.4
2025-08-07T16:30	10	83	0.2	82	83	480	0.3	479	481	30.1	23.9
2025-08-07T16:31	10	82	0.2	82	83	479	0.3	478	479	30.1	23.9
2025-08-07T16:32	10	82	0.2	81	82	479	0.5	478	480	30.2	23.2
2025-08-07T16:33	10	82	0.3	81	82	479	0.7	477	480	30.2	22.7
2025-08-07T16:34	10	81	0.2	80	82	479	0.6	478	480	30.1	22.7
2025-08-07T16:35	10	81	0.3	80	81	479	0.3	479	480	30.2	23.0
2025-08-07T16:36	10	80	0.3	79	81	479	0.3	479	480	30.3	23.4
2025-08-07T16:37	10	79	0.3	79	80	479	0.3	479	480	30.3	24.3
2025-08-07T16:38	10	79	0.3	78	80	479	0.3	478	480	30.2	23.1
2025-08-07T16:39	10	78	0.2	78	79	479	0.3	478	480	30.4	23.2
2025-08-07T16:40	10	78	0.3	77	79	479	0.4	478	480	30.4	22.8
2025-08-07T16:41	10	77	0.2	77	78	478	0.9	476	479	30.3	23.5
2025-08-07T16:42	10	77	0.3	76	78	477	0.3	476	477	30.1	23.8
2025-08-07T16:43	10	76	0.3	76	77	476	0.6	475	477	30.0	22.9
2025-08-07T16:44	10	76	0.3	75	76	475	0.4	475	476	30.0	23.1
2025-08-07T16:45	10	75	0.2	75	76	475	0.3	475	476	30.0	23.7
2025-08-07T16:46	10	75	0.3	74	75	475	0.8	473	476	30.1	23.2
2025-08-07T16:47	10	74	0.3	74	76	474	0.3	473	475	30.0	23.0
2025-08-07T16:48	10	74	0.3	73	75	474	0.3	473	475	30.1	23.3
2025-08-07T16:49	10	73	0.2	73	73	474	0.3	474	475	30.1	23.3
2025-08-07T16:50	10	73	0.3	72	73	474	0.4	473	475	30.1	23.3
2025-08-07T16:51	10	72	0.3	72	73	473	0.4	473	474	30.0	23.5
2025-08-07T16:52	10	72	0.2	71	73	473	0.3	472	474	30.1	24.2
2025-08-07T16:53	10	71	0.3	71	72	472	0.4	471	473	30.0	23.3
2025-08-07T16:54	10	71	0.2	70	71	472	0.4	471	473	30.0	22.9
2025-08-07T16:55	10	70	0.2	70	71	471	0.4	470	471	29.9	22.4
2025-08-07T16:56	10	70	0.3	69	70	471	0.4	469	471	29.9	22.3
2025-08-07T16:57	10	69	0.2	69	69	469	0.4	469	470	29.9	22.1
2025-08-07T16:58	10	69	0.2	68	69	469	0.3	469	470	29.9	22.5
2025-08-07T16:59	10	68	0.2	68	68	469	0.4	468	470	29.8	22.8
2025-08-07T17:00	10	67	0.2	67	68	469	0.3	468	469	29.8	22.1
2025-08-07T17:01	10	67	0.2	66	67	468	0.2	468	469	29.8	22.3
2025-08-07T17:02	10	66	0.2	66	67	468	0.2	468	469	29.8	22.2
2025-08-07T17:03	10	66	0.2	65	66	468	0.4	467	469	29.8	22.4
2025-08-07T17:04	10	65	0.2	65	65	468	0.4	467	469	29.9	22.6
2025-08-07T17:05	10	64	0.2	64	65	468	0.2	467	468	29.9	23.0
2025-08-07T17:06	10	64	0.2	63	64	467	0.4	467	468	29.8	23.2
2025-08-07T17:07	10	63	0.2	63	64	467	0.3	466	467	29.8	23.0
2025-08-07T17:08	10	63	0.2	62	63	466	0.3	465	467	29.7	22.7
2025-08-07T17:09	10	62	0.2	61	62	465	0.4	465	466	29.7	23.6
2025-08-07T17:10	10	61	0.2	61	62	466	0.2	465	466	29.8	23.3
2025-08-07T17:11	10	61	0.1	60	61	465	0.3	465	466	29.7	23.2
2025-08-07T17:12	10	60	0.2	60	61	465	0.3	464	465	29.7	23.4
2025-08-07T17:13	10	60	0.2	59	60	465	0.2	464	465	29.7	23.3
2025-08-07T17:14	10	59	0.2	59	59	464	0.2	464	465	29.7	24.0
2025-08-07T17:15	10	58	0.2	58	59	464	0.3	463	465	29.7	24.0
2025-08-07T17:16	10	58	0.2	58	58	464	0.2	463	464	29.7	23.8
2025-08-07T17:17	10	57	0.2	57	58	464	0.4	463	465	29.7	24.0
2025-08-07T17:18	10	57	0.2	56	57	463	0.2	463	464	29.7	23.6
2025-08-07T17:19	10	56	0.2	56	57	463	0.3	462	463	29.7	23.6
2025-08-07T17:20	10	55	0.2	55	56	463	0.2	462	463	29.7	24.3
2025-08-07T17:21	10	55	0.2	54	55	462	0.4	462	463	29.6	24.5
2025-08-07T17:22	10	54	0.2	54	54	461	0.2	461	462	29.6	24.2
2025-08-07T17:23	10	54	0.2	53	54	461	0.3	460	462	29.5	24.3
2025-08-07T17:24	10	53	0.2	53	53	460	0.2	460	461	29.5	24.4
2025-08-07T17:25	10	52	0.2	52	53	460	0.3	459	460	29.5	24.6
2025-08-07T17:26	10	52	0.2	51	52	460	0.3	459	460	29.5	24.7
2025-08-07T17:27	10	51	0.2	51	51	459	0.4	458	460	29.4	25.0
2025-08-07T17:28	10	50	0.3	50	51	459	0.3	458	459	29.4	25.1
2025-08-07T17:29	10	50	0.2	49	50	458	0.3	458	459	29.4	25.3
2025-08-07T17:30	10	49	0.2	49	49	458	0.2	457	458	29.4	25.7
2025-08-07T17:31	10	48	0.1	48	49	457	0.2	457	458	29.3	25.8
2025-08-07T17:32	10	48	0.2	47	48	457	0.3	457	458	29.3	25.8
2025-08-07T17:33	10	47	0.2	47	47	457	0.2	456	457	29.3	25.8
2025-08-07T17:34	10	46	0.2	46	47	456	0.3	456	457	29.2	26.3
2025-08-07T17:35	10	46	0.2	45	46	456	0.3	455	456	29.2	25.8
2025-08-07T17:36	10	45	0.2	45	46	455	0.3	455	456	29.2	25.9
2025-08-07T17:37	10	44	0.2	44	45	455	0.2	455	455	29.2	26.0
2025-08-07T17:38	10	44	0.2	43	44	454	0.2	454	455	29.2	26.2
2025-08-07T17:39	10	43	0.2	43	43	454	0.2	453	454	29.1	26.9
2025-08-07T17:40	10	42	0.2	42	43	453	0.2	453	454	29.0	26.7
2025-08-07T17:41	10	42	0.2	41	42	453	0.2	453	453	29.1	26.5
2025-08-07T17:42	10	41	0.2	41	41	453	0.3	452	454	29.1	26.5
2025-08-07T17:43	10	40	0.2	40	41	452	0.2	452	453	29.1	26.2
2025-08-07T17:44	10	40	0.2	39	40	452	0.3	451	452	29.1	26.4
2025-08-07T17:45	10	39	0.2	39	40	451	0.2	451	452	29.0	27.1
2025-08-07T17:46	10	38	0.1	38	39	450	0.2	450	451	28.9	27.4
2025-08-07T17:47	10	38	0.1	38	38	450	0.2	450	451	29.0	27.0
2025-08-07T17:48	10	37	0.2	37	38	450	0.2	450	450	29.0	26.9
2025-08-07T17:49	10	37	0.2	36	37	449	0.2	449	450	29.0	26.7
2025-08-07T17:50	10	36	0.2	36	36	449	0.3	448	449	28.9	27.3
2025-08-07T17:51	10	35	0.2	35	36	449	0.2	448	449	28.9	27.4
2025-08-07T17:52	10	35	0.2	34	35	448	0.2	448	449	28.9	26.9
2025-08-07T17:53	10	34	0.2	33	34	448	0.2	447	448	28.9	27.0
2025-08-07T17:54	10	33	0.2	33	34	447	0.3	447	448	28.9	26.9
2025-08-07T17:55	10	33	0.2	32	33	447	0.2	446	447	29.0	26.6
2025-08-07T17:56	10	32	0.2	32	32	446	0.2	446	447	28.9	27.4
2025-08-07T17:57	10	31	0.2	31	32	446	0.3	445	446	28.9	27.3
2025-08-07T17:58	10	31	0.2	30	31	445	0.2	445	445	28.9	27.2
2025-08-07T17:59	10	30	0.2	30	30	445	0.3	444	445	28.9	27.5
2025-08-07T18:00	10	30	0.2	29	30	444	0.4	443	445	28.8	27.6
2025-08-07T18:01	10	29	0.2	29	29	444	0.3	443	444	28.8	27.4
2025-08-07T18:02	10	28	0.2	28	29	443	0.3	442	444	28.8	27.4
2025-08-07T18:03	10	28	0.2	27	28	442	0.3	442	443	28.8	27.7
2025-08-07T18:04	10	27	0.2	27	28	442	0.4	441	443	28.8	27.7
2025-08-07T18:05	10	27	0.2	26	27	441	0.3	440	442	28.7	28.0
2025-08-07T18:06	10	26	0.2	26	26	441	0.2	440	441	28.6	28.0
2025-08-07T18:07	10	25	0.2	25	26	441	0.2	440	441	28.6	28.0
2025-08-07T18:08	10	25	0.2	24	25	440	0.3	439	441	28.6	27.8
2025-08-07T18:09	10	24	0.2	24	24	439	0.2	438	439	28.6	28.2
2025-08-07T18:10	10	23	0.2	23	24	439	0.2	438	439	28.5	28.4
2025-08-07T18:11	10	23	0.2	22	23	438	0.3	437	439	28.5	28.9
2025-08-07T18:12	10	22	0.2	22	23	437	0.3	437	438	28.4	29.0
2025-08-07T18:13	10	21	0.2	21	22	437	0.3	436	438	28.5	28.3
2025-08-07T18:14	10	21	0.2	20	21	436	0.4	435	437	28.4	29.4
2025-08-07T18:15	10	20	0.2	20	21	436	0.2	435	436	28.3	29.1
2025-08-07T18:16	10	19	0.3	19	20	435	0.3	434	435	28.3	29.2
2025-08-07T18:17	10	18	0.3	18	19	435	0.3	434	436	28.3	28.5
2025-08-07T18:18	10	17	0.3	17	18	435	0.2	435	436	28.4	28.1
2025-08-07T18:19	10	17	0.2	16	18	434	0.4	433	435	28.3	28.4
2025-08-07T18:20	10	17	0.2	16	17	433	0.3	433	434	28.3	28.3
2025-08-07T18:21	10	15	0.6	14	17	433	0.3	432	434	28.2	28.6
2025-08-07T18:22	10	13	0.9	11	14	432	0.4	431	433	28.3	27.8
2025-08-07T18:23	10	11	0.2	11	12	432	0.3	431	432	28.3	28.1
2025-08-07T18:24	10	12	0.5	11	13	431	0.3	431	432	28.3	27.9
2025-08-07T18:25	10	12	0.5	11	13	431	0.3	430	431	28.3	27.8
2025-08-07T18:26	10	10	0.6	9	11	430	0.3	429	431	28.4	27.3
2025-08-07T18:27	10	9	0.5	8	10	430	0.4	429	430	28.3	28.0
2025-08-07T18:28	10	8	0.4	7	9	429	0.3	428	430	28.3	27.9
2025-08-07T18:29	10	6	0.5	6	7	429	0.3	428	430	28.3	27.8
2025-08-07T18:30	10	5	0.4	4	6	429	0.4	427	429	28.2	27.8
2025-08-07T18:31	10	5	0.5	4	7	429	0.4	428	429	28.2	28.0
2025-08-07T18:32	10	6	0.1	6	7	428	0.2	427	428	28.1	28.0
2025-08-07T18:33	10	5	0.5	4	6	428	0.3	427	428	28.1	28.2
2025-08-07T18:34	10	4	0.3	3	4	427	0.3	427	428	28.1	28.2
2025-08-07T18:35	10	3	0.2	3	4	428	0.6	427	429	27.5	32.9
2025-08-07T18:36	10	3	0.2	3	3	429	0.3	429	430	27.0	34.2
2025-08-07T18:37	10	2	0.2	2	3	431	0.9	429	432	27.5	32.6
2025-08-07T18:38	10	2	0.1	2	2	430	0.3	430	431	27.5	33.0
2025-08-07T18:39	10	2	0.1	1	2	429	0.4	428	430	27.5	33.0
2025-08-07T18:40	10	2	0.1	1	2	428	0.4	427	428	27.4	33.3
2025-08-07T18:41	10	2	0.1	1	2	426	0.5	425	427	27.4	33.5
2025-08-07T18:42	10	2	0.1	1	2	424	0.5	423	425	27.3	33.8
2025-08-07T18:43	10	1	0.1	1	2	422	0.4	422	423	27.2	34.1
2025-08-07T18:44	10	1	0.1	1	2	421	0.2	421	422	27.2	33.9
2025-08-07T18:45	10	1	0.1	1	1	421	0.2	420	421	27.2	33.9
2025-08-07T18:46	10	1	0.1	1	2	420	0.2	419	420	27.2	33.8
2025-08-07T18:47	10	1	0.1	1	1	420	0.2	419	420	27.2	33.8
2025-08-07T18:48	10	1	0.1	1	1	420	0.2	419	420	27.2	34.0
2025-08-07T18:49	10	1	0.1	1	1	419	0.2	419	420	27.3	33.2
2025-08-07T18:50	10	1	0.1	1	1	419	0.3	418	419	27.3	33.3
2025-08-07T18:51	10	1	0.1	0	1	419	0.2	418	419	27.3	32.8
2025-08-07T18:52	10	1	0.1	1	1	418	0.2	418	419	27.2	32.8
2025-08-07T18:53	10	1	0.1	0	1	417	0.4	416	418	27.2	33.3
2025-08-07T18:54	10	1	0.1	0	1	416	0.2	416	417	27.1	33.7
2025-08-07T18:55	10	1	0.1	0	1	416	0.3	415	417	26.9	34.2
2025-08-07T18:56	10	1	0.1	0	1	415	0.3	414	416	26.8	34.3
2025-08-07T18:57	10	0	0.1	0	1	415	0.4	414	415	26.8	34.2
2025-08-07T18:58	10	0	0.1	0	1	414	0.2	414	415	26.6	35.3
2025-08-07T18:59	10	0	0.1	0	0	414	0.2	413	414	26.5	35.6
2025-08-07T19:00	10	0	0.1	0	1	413	0.2	413	414	26.4	36.0
2025-08-07T19:01	10	0	0.1	0	1	413	0.2	413	414	26.3	35.9
2025-08-07T19:02	10	0	0.1	0	1	413	0.3	412	414	26.3	36.1
2025-08-07T19:03	10	0	0.2	0	1	413	0.4	413	415	26.3	35.4
2025-08-07T19:04	10	0	0.1	0	1	414	0.5	413	415	26.4	35.0
2025-08-07T19:05	10	0	0.2	0	1	414	0.3	414	415	26.4	34.8
2025-08-07T19:06	10	0	0.2	0	1	415	0.4	414	416	26.4	34.5
2025-08-07T19:07	10	0	0.2	0	1	415	0.3	415	416	26.5	34.6
2025-08-07T19:08	10	0	0.1	0	0	416	0.3	415	416	26.5	34.4
2025-08-07T19:09	10	0	0.1	0	0	416	0.2	415	416	26.5	34.2
2025-08-07T19:10	10	0	0.1	0	0	415	0.4	414	416	26.5	34.2
2025-08-07T19:11	10	0	0.1	0	0	415	0.4	414	416	26.4	34.4
2025-08-07T19:12	10	0	0.1	0	0	414	0.5	413	415	26.3	34.8
2025-08-07T19:13	10	0	0.1	0	1	413	0.5	412	414	26.1	35.9
2025-08-07T19:14	10	0	0.1	0	0	412	0.3	411	413	25.1	40.7
2025-08-07T19:15	10	0	0.1	0	0	411	0.3	411	412	24.6	41.6
2025-08-07T19:16	10	0	0.1	0	0	410	0.2	410	411	24.4	42.4
2025-08-07T19:17	10	0	0.1	0	0	410	0.4	409	410	24.3	42.2
2025-08-07T19:18	10	0	0.1	0	0	409	0.3	408	410	24.2	42.5
2025-08-07T19:19	10	0	0.1	0	0	408	0.3	407	408	24.0	43.7
2025-08-07T19:20	10	0	0.1	0	0	406	0.3	406	407	23.8	44.2
2025-08-07T19:21	10	0	0.1	-1	0	407	1.2	405	409	23.8	43.0
2025-08-07T19:22	10	0	0.2	-1	0	408	0.6	407	409	24.5	39.6
2025-08-07T19:23	10	0	0.2	-1	0	409	0.6	408	410	24.8	38.5
2025-08-07T19:24	10	0	0.1	0	0	409	0.5	408	410	25.0	37.6
2025-08-07T19:25	10	0	0.1	0	0	410	0.3	409	410	25.2	36.7
2025-08-07T19:26	10	0	0.1	0	0	409	0.3	409	410	25.2	36.5
2025-08-07T19:27	10	0	0.1	0	0	410	0.3	409	410	25.4	35.9
2025-08-07T19:28	10	0	0.1	0	0	409	0.3	409	410	25.5	35.7
2025-08-07T19:29	10	0	0.1	0	0	409	0.2	408	409	25.4	35.9
2025-08-07T19:30	10	0	0.1	0	0	408	0.3	407	409	25.4	35.7
2025-08-07T19:31	10	0	0.1	0	0	408	0.3	407	408	25.2	36.6
2025-08-07T19:32	10	0	0.1	0	0	408	0.2	407	408	24.9	37.5
2025-08-07T19:33	10	0	0.1	0	0	408	0.5	407	410	25.0	36.4
2025-08-07T19:34	10	0	0.1	0	0	408	0.4	407	409	25.2	35.9
2025-08-07T19:35	10	0	0.2	0	1	408	0.3	407	409	25.1	36.4
2025-08-07T19:36	10	0	0.2	0	1	408	0.3	407	408	25.2	35.7
2025-08-07T19:37	10	0	0.2	0	0	408	0.3	407	409	25.3	35.2
2025-08-07T19:38	10	0	0.2	-1	1	408	0.3	408	409	25.3	35.0
2025-08-07T19:39	10	0	0.1	0	0	409	0.2	408	409	25.4	34.7
2025-08-07T19:40	10	0	0.1	0	0	407	1.5	404	409	25.2	36.1
2025-08-07T19:41	10	0	0.1	0	1	405	0.4	404	406	24.0	41.8
2025-08-07T19:42	10	0	0.1	0	0	405	0.3	404	406	23.6	42.7
2025-08-07T19:43	10	0	0.1	0	0	404	0.3	404	405	23.3	44.1
2025-08-07T19:44	10	0	0.1	0	0	403	0.4	402	403	23.0	44.9
2025-08-07T19:45	10	0	0.1	0	0	401	0.5	400	402	22.8	46.5
2025-08-07T19:46	10	0	0.1	0	0	402	0.3	401	402	22.4	48.6
2025-08-07T19:47	10	0	0.1	0	0	402	0.5	401	403	22.7	46.4
2025-08-07T19:48	10	0	0.1	0	0	401	0.4	400	401	22.7	46.9
2025-08-07T19:49	10	0	0.1	0	0	401	0.3	400	401	22.7	47.3
2025-08-07T19:50	10	0	0.1	0	0	400	0.4	400	401	22.7	46.3
2025-08-07T19:51	10	0	0.1	0	0	400	0.4	399	401	22.9	44.8
2025-08-07T19:52	10	0	0.1	-1	0	400	0.3	400	401	23.0	44.9
2025-08-07T19:53	10	0	0.1	-1	0	400	0.3	399	400	22.9	45.3
2025-08-07T19:54	10	0	0.2	0	0	399	0.3	399	400	22.8	46.0
2025-08-07T19:55	10	0	0.1	-1	0	399	0.3	399	400	22.5	47.0
2025-08-07T19:56	10	0	0.1	-1	0	400	0.8	399	401	22.5	46.7
2025-08-07T19:57	10	0	0.1	0	0	401	0.5	400	402	22.7	43.9
2025-08-07T19:58	10	0	0.1	0	0	402	0.6	400	403	23.1	41.7
2025-08-07T19:59	10	0	0.1	0	0	399	1.2	398	402	23.3	43.4
2025-08-07T20:00	10	0	0.1	0	0	399	0.4	399	400	22.6	46.2
2025-08-07T20:01	10	0	0.1	0	0	399	0.3	398	400	22.5	46.2
2025-08-07T20:02	10	0	0.1	0	0	399	0.4	399	400	22.5	44.9
2025-08-07T20:03	10	0	0.1	0	0	400	0.5	399	401	22.9	43.2
2025-08-07T20:04	10	0	0.1	0	0	400	0.6	398	401	23.2	42.3
2025-08-07T20:05	10	0	0.1	0	0	399	0.5	398	400	22.7	45.8
2025-08-07T20:06	10	0	0.1	0	0	397	0.3	397	398	22.3	47.0
2025-08-07T20:07	10	0	0.1	0	0	397	0.2	396	397	22.1	48.6
2025-08-07T20:08	10	0	0.1	0	0	397	0.7	396	398	22.0	47.5
2025-08-07T20:09	10	0	0.1	0	0	397	0.3	397	398	22.4	45.0
2025-08-07T20:10	10	0	0.1	0	0	397	0.4	397	398	22.5	44.8
2025-08-07T20:11	10	0	0.1	-1	0	397	0.5	396	398	22.6	44.1
2025-08-07T20:12	10	0	0.2	-1	1	398	0.9	396	399	23.0	41.9
2025-08-07T20:13	10	0	0.2	-1	0	399	0.4	398	400	23.7	39.0
2025-08-07T20:14	10	0	0.2	0	1	398	0.6	397	399	23.7	39.7
2025-08-07T20:15	10	0	0.1	0	0	397	0.2	397	398	23.5	40.6
2025-08-07T20:16	10	0	0.1	0	0	398	0.3	397	398	23.4	40.5
2025-08-07T20:17	10	0	0.1	0	0	397	0.7	395	398	23.3	41.6
2025-08-07T20:18	10	0	0.1	0	0	395	0.7	394	397	22.7	45.2
2025-08-07T20:19	10	0	0.1	0	1	395	0.2	395	396	22.3	46.3
2025-08-07T20:20	10	0	0.1	0	0	395	0.2	395	396	22.2	46.7
2025-08-07T20:21	10	0	0.1	0	0	396	0.3	396	397	22.4	45.3
2025-08-07T20:22	10	0	0.1	0	0	396	0.3	395	397	22.5	44.4
2025-08-07T20:23	10	0	0.1	0	0	396	0.3	395	397	22.4	45.4
2025-08-07T20:24	10	0	0.1	0	0	397	0.2	396	397	22.4	44.6
2025-08-07T20:25	10	0	0.1	0	0	397	0.2	396	397	22.5	44.1
2025-08-07T20:26	10	0	0.1	0	0	397	0.4	396	398	22.7	42.9
2025-08-07T20:27	10	0	0.1	0	0	397	0.4	396	398	23.0	42.0
2025-08-07T20:28	10	0	0.1	0	0	396	0.3	396	397	22.8	43.1
2025-08-07T20:29	10	0	0.1	0	0	396	0.4	395	397	22.6	43.4
2025-08-07T20:30	10	0	0.1	0	0	396	0.3	396	397	22.6	43.6
2025-08-07T20:31	10	0	0.1	0	0	396	0.2	396	397	22.5	43.5
2025-08-07T20:32	10	0	0.1	0	0	396	0.3	395	397	22.4	43.9
2025-08-07T20:33	10	0	0.1	0	0	396	0.2	395	396	22.2	44.7
2025-08-07T20:34	10	0	0.1	0	0	396	0.3	395	396	22.0	45.1
2025-08-07T20:35	10	0	0.1	0	0	395	0.3	395	396	21.9	46.0
2025-08-07T20:36	10	0	0.1	0	0	395	0.2	394	395	21.7	46.7
2025-08-07T20:37	10	0	0.1	0	0	394	0.3	393	395	21.6	46.8
2025-08-07T20:38	10	0	0.1	0	0	394	0.2	394	395	21.5	47.1
2025-08-07T20:39	10	0	0.1	0	0	395	0.4	394	396	21.5	46.9
2025-08-07T20:40	10	0	0.1	0	0	396	0.4	395	396	21.4	47.3
2025-08-07T20:41	10	0	0.1	0	0	396	0.4	395	397	21.4	47.3
2025-08-07T20:42	10	0	0.1	0	0	395	0.5	394	396	21.4	47.5
2025-08-07T20:43	10	0	0.1	0	0	395	0.3	394	395	21.2	48.5
2025-08-07T20:44	10	0	0.1	0	0	395	0.3	394	396	21.4	47.3
2025-08-07T20:45	10	0	0.1	0	0	395	0.3	394	396	21.5	47.2
2025-08-07T20:46	10	0	0.8	0	6	395	0.3	394	395	21.3	48.3
2025-08-07T20:47	10	0	0.1	0	0	395	0.2	394	395	21.3	48.5
2025-08-07T20:48	10	0	0.1	0	0	394	0.3	393	395	21.1	49.3
2025-08-07T20:49	10	0	0.1	0	0	394	0.3	393	394	21.0	49.7
2025-08-07T20:50	10	0	0.1	0	0	393	0.2	393	394	20.9	50.4
2025-08-07T20:51	10	0	0.1	0	0	393	0.3	392	393	20.8	50.8
2025-08-07T20:52	10	0	0.1	0	0	393	0.4	392	394	20.9	50.4
2025-08-07T20:53	10	0	0.1	-1	0	393	0.5	392	394	21.0	50.1
2025-08-07T20:54	10	0	0.2	0	0	393	0.3	392	393	21.1	50.1
2025-08-07T20:55	10	0	0.1	0	0	393	0.3	392	393	21.0	50.5
2025-08-07T20:56	10	0	0.2	-1	0	393	0.3	392	394	21.0	50.5
2025-08-07T20:57	10	0	0.2	0	1	394	0.4	392	394	21.1	50.3
2025-08-07T20:58	10	0	0.2	0	0	393	0.3	392	394	21.0	51.0
2025-08-07T20:59	10	0	0.2	0	0	393	0.3	393	394	20.9	51.4
2025-08-07T21:00	10	0	0.1	0	0	393	0.2	393	393	20.9	51.3
2025-08-07T21:01	10	0	0.1	0	0	393	0.4	393	394	20.9	51.2
2025-08-07T21:02	10	0	0.2	0	0	394	0.3	394	395	21.1	50.3
2025-08-07T21:03	10	0	0.1	0	0	395	0.2	394	395	21.2	49.4
2025-08-07T21:04	10	0	0.1	0	0	394	0.2	394	395	21.3	49.2
2025-08-07T21:05	10	0	0.1	0	0	394	0.3	393	395	21.3	49.3
2025-08-07T21:06	10	0	0.1	0	0	393	0.5	392	394	21.2	49.5
2025-08-07T21:07	10	0	0.1	0	0	393	0.8	392	394	21.1	50.2
2025-08-07T21:08	10	0	0.1	0	0	395	0.6	394	396	21.5	48.7
2025-08-07T21:09	10	0	0.1	0	0	396	0.4	396	397	21.7	47.6
2025-08-07T21:10	10	0	0.1	0	0	397	0.3	396	398	21.8	47.7
2025-08-07T21:11	10	0	0.1	0	0	397	0.3	397	398	21.8	47.6
2025-08-07T21:12	10	0	0.1	0	0	398	0.3	397	398	21.7	47.7
2025-08-07T21:13	10	0	0.1	0	0	397	0.3	396	398	21.6	48.2
2025-08-07T21:14	10	0	0.1	0	0	397	0.4	396	397	21.5	48.4
2025-08-07T21:15	10	0	0.0	0	0	395	0.5	394	396	21.4	48.7
2025-08-07T21:16	10	0	0.1	0	0	395	0.4	394	396	21.5	48.1
2025-08-07T21:17	10	0	0.1	0	0	394	0.3	393	394	21.4	48.8
2025-08-07T21:18	10	0	0.1	0	0	393	0.3	392	394	21.3	48.9
2025-08-07T21:19	10	0	0.1	0	0	393	0.3	392	394	21.3	49.0
2025-08-07T21:20	10	0	0.1	0	0	393	0.3	392	394	21.4	48.5
2025-08-07T21:21	10	0	0.1	0	0	393	0.3	393	394	21.4	48.4
2025-08-07T21:22	10	0	0.1	0	0	393	0.3	392	394	21.5	48.0
2025-08-07T21:23	10	0	0.1	0	0	393	0.4	392	394	21.6	47.9
2025-08-07T21:24	10	0	0.1	0	0	392	0.2	392	393	21.5	48.0
2025-08-07T21:25	10	0	0.1	0	0	393	0.5	393	395	21.5	48.0
2025-08-07T21:26	10	0	0.1	0	0	394	0.2	393	394	21.5	48.0
2025-08-07T21:27	10	0	0.1	0	0	394	0.3	394	395	21.5	48.0
2025-08-07T21:28	10	0	0.1	0	0	394	0.2	394	395	21.5	48.0
2025-08-07T21:29	10	0	0.1	0	0	395	0.3	394	395	21.5	48.0
2025-08-07T21:30	10	0	0.1	0	0	395	0.2	395	396	21.5	48.0
2025-08-07T21:31	10	0	0.1	0	0	395	0.4	395	396	21.3	49.1
2025-08-07T21:32	10	0	0.1	0	0	396	0.3	395	397	21.1	50.2
2025-08-07T21:33	10	0	0.1	0	0	397	0.3	396	397	21.1	50.2
2025-08-07T21:34	10	0	0.1	0	0	397	0.4	396	398	21.1	50.3
2025-08-07T21:35	10	0	0.1	0	0	397	0.4	396	398	21.1	50.0
2025-08-07T21:36	10	0	0.1	0	0	396	0.3	396	397	21.0	50.0
2025-08-07T21:37	10	0	0.1	0	0	395	0.4	395	396	21.1	49.3
2025-08-07T21:38	10	0	0.1	0	0	395	0.2	395	396	21.0	50.1
2025-08-07T21:39	10	0	0.1	0	0	396	0.3	395	396	20.7	51.4
2025-08-07T21:40	10	0	0.1	0	0	397	0.3	396	397	20.7	51.8
2025-08-07T21:41	10	0	0.1	0	0	397	0.4	396	397	20.5	52.5
2025-08-07T21:42	10	0	0.1	0	0	397	0.2	396	397	20.4	53.5
2025-08-07T21:43	10	0	0.1	0	0	397	0.3	396	398	20.5	53.2
2025-08-07T21:44	10	0	0.1	0	0	397	0.4	396	398	20.3	54.0
2025-08-07T21:45	10	0	0.1	0	0	396	0.2	396	397	20.2	54.8
2025-08-07T21:46	10	0	0.1	0	0	396	0.2	395	396	20.2	54.6
2025-08-07T21:47	10	0	0.1	0	0	396	0.5	395	397	20.3	54.2
2025-08-07T21:48	10	0	0.1	0	0	396	0.3	395	396	20.4	53.8
2025-08-07T21:49	10	0	0.1	-1	0	395	0.3	394	395	20.3	54.5
2025-08-07T21:50	10	0	0.1	0	0	394	0.3	393	395	20.2	54.7
2025-08-07T21:51	10	0	0.1	0	0	393	0.3	393	394	20.2	54.8
2025-08-07T21:52	10	0	0.2	0	0	393	0.2	392	393	20.2	54.9
2025-08-07T21:53	10	0	0.1	0	0	392	0.3	392	393	20.1	55.3
2025-08-07T21:54	10	0	0.2	0	0	391	0.4	390	392	19.9	56.5
2025-08-07T21:55	10	0	0.2	0	0	391	0.3	390	391	19.7	57.3
2025-08-07T21:56	10	0	0.2	0	0	390	0.4	389	391	19.5	58.7
2025-08-07T21:57	10	0	0.2	0	1	388	0.5	387	389	19.4	59.0
2025-08-07T21:58	10	0	0.2	0	0	388	0.2	387	388	19.3	59.5
2025-08-07T21:59	10	0	0.1	-1	0	387	0.3	386	388	19.1	60.4
2025-08-07T22:00	10	0	0.2	0	0	387	0.3	386	387	18.8	61.7
2025-08-07T22:01	10	0	0.2	-1	0	387	0.3	386	387	18.6	62.6
2025-08-07T22:02	10	0	0.2	-1	0	386	0.4	385	387	18.6	61.5
2025-08-07T22:03	10	0	0.2	0	0	386	0.2	385	386	18.4	64.6
2025-08-07T22:04	10	0	0.2	-1	0	385	0.3	385	386	17.9	67.1
2025-08-07T22:05	10	0	0.2	-1	0	385	0.4	385	386	17.6	68.8
2025-08-07T22:06	10	-1	0.1	-1	0	386	0.5	385	387	17.6	68.8
2025-08-07T22:07	10	-1	0.1	-1	0	386	0.6	385	387	17.7	68.1
2025-08-07T22:08	10	-1	0.1	-1	0	386	0.3	385	386	17.9	68.0
2025-08-07T22:09	10	0	0.1	-1	0	385	0.2	385	386	17.8	68.2
2025-08-07T22:10	10	0	0.1	-1	0	385	0.3	384	385	17.9	67.9
2025-08-07T22:11	10	0	0.1	-1	0	384	0.3	383	385	18.0	67.2
2025-08-07T22:12	10	0	0.1	0	0	383	0.3	382	383	17.7	68.7
2025-08-07T22:13	10	0	0.1	0	0	382	0.2	381	382	17.6	68.9
2025-08-07T22:14	10	0	0.1	0	0	382	0.3	381	382	17.6	68.6
2025-08-07T22:15	10	0	0.1	0	0	382	0.3	381	382	18.0	65.2
2025-08-07T22:16	10	0	0.1	0	0	381	0.4	381	382	18.1	65.5
2025-08-07T22:17	10	0	0.1	0	0	382	0.4	381	383	18.3	63.0
2025-08-07T22:18	10	0	0.1	0	0	381	0.3	381	382	18.6	61.1
2025-08-07T22:19	10	0	0.1	0	0	381	0.5	380	382	18.6	61.7
2025-08-07T22:20	10	0	0.1	0	0	381	0.5	379	381	18.5	62.9
2025-08-07T22:21	10	0	0.1	0	0	381	0.6	379	382	18.8	59.7
2025-08-07T22:22	10	0	0.1	0	0	379	0.6	378	381	18.6	62.9
2025-08-07T22:23	10	0	0.1	0	0	379	0.4	378	380	18.3	63.9
2025-08-07T22:24	10	0	0.1	0	0	380	0.4	379	381	18.4	62.1
2025-08-07T22:25	10	0	0.1	0	0	380	0.3	379	380	18.5	60.9
2025-08-07T22:26	10	0	0.1	0	0	380	0.4	379	381	18.7	60.7
2025-08-07T22:27	10	0	0.1	0	0	379	0.4	378	380	18.7	61.8
2025-08-07T22:28	10	0	0.1	0	0	378	0.9	377	380	18.5	62.4
2025-08-07T22:29	10	0	0.1	0	0	379	0.6	377	379	18.4	63.8
2025-08-07T22:30	10	0	0.1	0	0	379	0.2	379	379	18.5	62.7
2025-08-07T22:31	10	0	0.1	0	0	379	0.3	379	380	18.6	61.9
2025-08-07T22:32	10	0	0.1	0	0	380	0.3	379	380	18.8	60.7
2025-08-07T22:33	10	0	0.1	0	0	381	0.6	380	382	18.9	60.3
2025-08-07T22:34	10	0	0.1	0	0	382	0.3	382	383	18.8	60.4
2025-08-07T22:35	10	0	0.0	0	0	383	0.2	383	384	18.7	60.6
2025-08-07T22:36	10	0	0.1	0	0	383	0.3	383	384	18.8	60.1
2025-08-07T22:37	10	0	0.1	0	0	383	0.4	382	384	19.1	58.7
2025-08-07T22:38	10	0	0.1	0	0	382	0.3	382	383	19.1	58.6
2025-08-07T22:39	10	0	0.1	0	0	381	0.5	380	382	19.2	58.0
2025-08-07T22:40	10	0	0.1	0	0	380	0.4	380	381	19.0	58.5
2025-08-07T22:41	10	0	0.1	0	0	380	0.3	379	381	18.9	59.3
2025-08-07T22:42	10	0	0.1	0	0	381	0.4	380	382	18.5	60.4
2025-08-07T22:43	10	0	0.1	0	0	382	0.3	381	382	18.5	60.7
2025-08-07T22:44	10	0	0.1	0	0	382	0.6	381	383	18.4	61.5
2025-08-07T22:45	10	0	0.1	0	0	381	0.3	380	382	18.3	62.6
2025-08-07T22:46	10	0	0.1	0	0	381	0.4	380	382	18.2	63.0
2025-08-07T22:47	10	0	0.1	0	0	381	0.5	380	382	18.4	62.0
2025-08-07T22:48	10	0	0.1	0	0	382	0.3	381	382	18.6	61.0
2025-08-07T22:49	10	0	0.1	0	0	381	0.3	381	382	18.6	60.7
2025-08-07T22:50	10	0	0.0	0	0	381	0.3	380	381	18.6	60.8
2025-08-07T22:51	10	0	0.1	0	0	381	0.3	380	381	18.6	61.4
2025-08-07T22:52	10	0	0.1	0	0	381	0.2	380	381	18.7	60.9
2025-08-07T22:53	10	0	0.1	0	0	380	0.3	379	381	18.7	60.9
2025-08-07T22:54	10	0	0.1	0	0	380	0.2	379	381	18.5	61.2
2025-08-07T22:55	10	0	0.1	0	0	380	0.3	379	381	18.5	61.3
2025-08-07T22:56	10	0	0.1	0	0	380	0.2	379	381	18.5	61.1
2025-08-07T22:57	10	0	0.1	0	0	381	0.3	380	381	18.6	60.9
2025-08-07T22:58	10	0	0.1	-1	0	380	0.3	380	381	18.6	60.5
2025-08-07T22:59	10	0	0.1	0	0	380	0.3	379	381	18.6	60.6
2025-08-07T23:00	10	0	0.2	-1	0	380	0.2	380	381	18.7	60.3
2025-08-07T23:01	10	0	0.1	0	0	380	0.3	379	380	18.7	60.3
2025-08-07T23:02	10	0	0.2	-1	0	379	0.3	379	380	18.7	60.3
2025-08-07T23:03	10	0	0.2	0	0	379	0.2	379	380	18.6	60.3
2025-08-07T23:04	10	0	0.1	0	0	378	0.4	377	379	18.6	60.4
2025-08-07T23:05	10	0	0.2	0	0	378	0.2	378	379	18.6	60.9
2025-08-07T23:06	10	0	0.1	0	0	379	0.3	378	379	18.7	59.9
2025-08-07T23:07	10	0	0.2	-1	0	379	0.3	378	380	18.9	59.2
2025-08-07T23:08	10	0	0.2	0	1	379	0.3	378	379	18.8	59.5
2025-08-07T23:09	10	0	0.2	0	0	378	0.4	378	379	18.7	60.4
2025-08-07T23:10	10	0	0.2	0	1	378	0.4	378	379	18.5	61.0
2025-08-07T23:11	10	0	0.2	0	0	378	0.2	377	378	18.5	61.0
2025-08-07T23:12	10	0	0.2	0	0	377	0.3	377	378	18.5	61.0
2025-08-07T23:13	10	0	0.1	0	0	377	0.3	377	378	18.5	61.1
2025-08-07T23:14	10	0	0.1	0	0	377	0.2	377	377	18.4	61.2
2025-08-07T23:15	10	0	0.2	0	1	377	0.3	376	378	18.3	61.7
2025-08-07T23:16	10	0	0.2	-1	0	377	0.4	376	377	18.2	61.9
2025-08-07T23:17	10	0	0.2	0	0	376	0.3	376	377	18.1	62.6
2025-08-07T23:18	10	0	0.1	0	0	376	0.2	376	376	18.0	62.5
2025-08-07T23:19	10	0	0.1	0	0	376	0.3	375	376	17.9	62.7
2025-08-07T23:20	10	0	0.1	0	0	376	0.2	375	376	17.8	62.8
2025-08-07T23:21	10	0	0.2	0	1	376	0.3	375	377	17.7	62.6
2025-08-07T23:22	10	0	0.1	0	0	376	0.2	376	377	17.6	63.1
2025-08-07T23:23	10	0	0.1	0	0	376	0.2	376	377	17.4	64.2
2025-08-07T23:24	10	0	0.1	0	0	376	0.3	375	376	17.2	65.4
2025-08-07T23:25	10	0	0.1	0	0	375	0.2	374	375	17.0	66.5
2025-08-07T23:26	10	0	0.1	0	0	374	0.2	374	375	17.0	67.0
2025-08-07T23:27	10	0	0.1	0	0	374	0.2	373	374	16.8	67.9
2025-08-07T23:28	10	0	0.1	0	0	374	0.2	373	374	16.7	69.1
2025-08-07T23:29	10	0	0.1	0	0	374	0.2	373	374	16.6	68.9
2025-08-07T23:30	10	0	0.1	0	0	374	0.5	373	375	16.7	68.3
2025-08-07T23:31	10	0	0.1	0	0	374	0.2	374	375	16.8	67.7
2025-08-07T23:32	10	0	0.1	0	0	374	0.2	373	374	16.8	69.0
2025-08-07T23:33	10	0	0.1	0	0	373	0.2	373	374	16.7	70.5
2025-08-07T23:34	10	0	0.1	0	0	373	0.3	373	374	16.6	70.7
2025-08-07T23:35	10	0	0.1	0	0	374	0.3	373	375	16.6	70.1
2025-08-07T23:36	10	0	0.1	0	0	375	0.4	374	375	16.7	69.8
2025-08-07T23:37	10	0	0.1	0	0	374	0.4	373	375	16.7	69.6
2025-08-07T23:38	10	0	0.1	0	0	374	0.5	373	375	16.8	68.9
2025-08-07T23:39	10	0	0.1	0	0	376	0.5	374	377	17.1	66.0
2025-08-07T23:40	10	0	0.1	0	0	377	0.3	376	377	17.6	63.2
2025-08-07T23:41	10	0	0.1	0	0	377	0.2	377	378	17.8	62.7
2025-08-07T23:42	10	0	0.1	0	0	378	0.3	377	378	17.9	62.5
2025-08-07T23:43	10	0	0.1	0	0	378	0.3	377	378	17.9	62.6
2025-08-07T23:44	10	0	0.0	0	0	377	0.3	376	378	17.9	62.6
2025-08-07T23:45	10	0	0.0	0	0	377	0.2	376	377	17.8	62.5
2025-08-07T23:46	10	0	0.1	0	0	377	0.3	376	378	17.8	62.6
2025-08-07T23:47	10	0	0.1	0	0	377	0.2	376	377	17.9	62.8
2025-08-07T23:48	10	0	0.1	0	0	376	0.4	375	377	17.9	62.9
2025-08-07T23:49	10	0	0.1	0	0	376	0.4	375	376	17.8	63.0
2025-08-07T23:50	10	0	0.0	0	0	375	0.3	375	376	17.7	63.5
2025-08-07T23:51	10	0	0.1	0	0	375	0.4	374	376	17.7	64.0
2025-08-07T23:52	10	0	0.1	0	0	374	0.7	373	376	17.6	64.3
2025-08-07T23:53	10	0	0.1	0	0	373	0.5	373	375	17.6	64.6
2025-08-07T23:54	10	0	0.1	0	0	373	0.3	372	374	17.5	64.9
2025-08-07T23:55	10	0	0.1	0	0	373	0.3	372	373	17.5	65.0
2025-08-07T23:56	10	0	0.1	0	0	373	0.2	372	373	17.4	65.2
2025-08-07T23:57	10	0	0.1	0	0	373	0.3	372	373	17.3	65.3
2025-08-07T23:58	10	0	0.1	0	0	373	0.2	373	374	17.3	65.5
2025-08-07T23:59	10	0	0.1	0	0	373	0.4	372	374	17.2	65.7
2025-08-08T00:00	10	0	0.1	0	0	374	0.3	373	374	17.2	66.0
2025-08-08T00:01	10	0	0.1	0	0	374	0.2	373	374	17.3	66.1
2025-08-08T00:02	10	0	0.1	0	0	374	0.3	373	374	17.2	65.9
2025-08-08T00:03	10	0	0.1	0	0	374	0.3	373	375	17.2	65.4
2025-08-08T00:04	10	0	0.1	0	0	374	0.4	373	375	17.3	64.8
2025-08-08T00:05	10	0	0.1	0	0	374	0.3	373	375	17.4	64.4
2025-08-08T00:06	10	0	0.1	0	0	373	0.2	373	374	17.4	64.1
2025-08-08T00:07	10	0	0.1	0	0	373	0.2	373	374	17.4	64.1
2025-08-08T00:08	10	0	0.1	0	0	373	0.2	372	373	17.4	63.8
2025-08-08T00:09	10	0	0.1	0	0	373	0.3	372	373	17.5	63.6
2025-08-08T00:10	10	0	0.1	0	0	373	0.2	372	373	17.5	63.2
2025-08-08T00:11	10	0	0.1	0	0	372	0.3	372	373	17.5	62.8
2025-08-08T00:12	10	0	0.1	0	0	372	0.2	372	373	17.5	62.6
2025-08-08T00:13	10	0	0.1	0	0	372	0.3	372	373	17.6	62.2
2025-08-08T00:14	10	0	0.1	0	0	373	0.2	373	373	17.6	62.1
2025-08-08T00:15	10	0	0.1	0	0	373	0.2	372	373	17.6	62.0
2025-08-08T00:16	10	0	0.1	0	0	373	0.2	372	373	17.6	62.2
2025-08-08T00:17	10	0	0.1	0	0	373	0.2	372	374	17.7	62.1
2025-08-08T00:18	10	0	0.1	0	0	373	0.2	372	373	17.8	61.8
2025-08-08T00:19	10	0	0.1	0	0	373	0.2	372	373	17.9	61.5
2025-08-08T00:20	10	0	0.1	0	0	373	0.2	372	373	18.0	61.2
2025-08-08T00:21	10	0	0.1	0	0	373	0.2	372	374	18.1	60.6
2025-08-08T00:22	10	0	0.1	0	0	374	0.2	373	374	18.1	60.5
2025-08-08T00:23	10	0	0.0	0	0	374	0.3	373	374	18.0	61.0
2025-08-08T00:24	10	0	0.1	0	0	373	0.4	372	374	17.9	61.6
2025-08-08T00:25	10	0	0.1	0	0	373	0.3	372	373	17.7	62.5
2025-08-08T00:26	10	0	0.1	0	0	372	0.4	371	373	17.5	63.3
2025-08-08T00:27	10	0	0.1	0	0	372	0.4	371	373	17.4	63.9
2025-08-08T00:28	10	0	0.1	0	0	371	0.5	370	372	17.1	65.4
2025-08-08T00:29	10	0	0.1	0	0	371	0.2	371	372	16.8	66.4
2025-08-08T00:30	10	0	0.1	0	0	371	0.3	371	372	16.7	66.9
2025-08-08T00:31	10	0	0.1	0	0	372	0.2	371	372	16.6	67.5
2025-08-08T00:32	10	0	0.1	0	0	372	0.3	372	373	16.6	68.3
2025-08-08T00:33	10	0	0.1	0	0	373	0.3	372	373	16.4	69.3
2025-08-08T00:34	10	0	0.1	0	0	373	0.2	372	373	16.3	70.0
2025-08-08T00:35	10	0	0.1	0	0	373	0.4	372	374	16.3	70.3
2025-08-08T00:36	10	0	0.1	0	0	373	0.3	373	374	16.3	70.2
2025-08-08T00:37	10	0	0.1	0	0	373	0.4	372	374	16.3	70.1
2025-08-08T00:38	10	0	0.1	0	0	373	0.2	372	374	16.4	69.7
2025-08-08T00:39	10	0	0.1	0	0	373	0.3	372	374	16.3	70.1
2025-08-08T00:40	10	0	0.1	0	0	373	0.3	372	374	16.2	70.9
2025-08-08T00:41	10	0	0.1	0	0	373	0.2	373	374	16.1	70.9
2025-08-08T00:42	10	0	0.1	0	0	373	0.2	372	373	16.1	70.6
2025-08-08T00:43	10	0	0.1	0	0	372	0.3	372	373	16.1	70.8
2025-08-08T00:44	10	0	0.1	0	0	372	0.2	372	373	16.1	70.9
2025-08-08T00:45	10	0	0.1	0	0	372	0.2	372	372	16.1	71.6
2025-08-08T00:46	10	0	0.1	0	0	371	0.2	371	372	16.0	71.8
2025-08-08T00:47	10	0	0.1	0	0	371	0.2	371	372	15.9	71.6
2025-08-08T00:48	10	0	0.1	0	0	372	0.5	371	373	15.8	71.1
2025-08-08T00:49	10	0	0.1	0	0	372	0.5	371	373	15.9	70.3
2025-08-08T00:50	10	0	0.1	0	0	373	0.3	372	373	16.1	69.4
2025-08-08T00:51	10	0	0.0	0	0	372	0.4	371	373	15.9	70.5
2025-08-08T00:52	10	0	0.1	0	0	373	0.3	372	373	15.9	70.7
2025-08-08T00:53	10	0	0.1	0	0	373	0.3	373	374	15.8	71.2
2025-08-08T00:54	10	0	0.1	0	0	373	0.3	373	374	15.6	72.1
2025-08-08T00:55	10	0	0.1	0	0	373	0.2	372	373	15.7	71.8
2025-08-08T00:56	10	0	0.1	0	0	372	0.3	372	373	15.6	72.2
2025-08-08T00:57	10	0	0.2	0	1	372	0.2	371	372	15.6	72.6
2025-08-08T00:58	10	0	0.1	0	0	372	0.3	371	373	15.6	72.6
2025-08-08T00:59	10	0	0.1	0	0	372	0.2	371	373	15.6	72.4
2025-08-08T01:00	10	0	0.1	0	0	372	0.3	372	373	15.7	72.1
2025-08-08T01:01	10	0	0.2	0	0	373	0.3	372	373	15.7	71.6
2025-08-08T01:02	10	0	0.1	0	0	373	0.2	372	373	15.8	71.3
2025-08-08T01:03	10	0	0.1	0	0	373	0.3	372	373	15.7	71.9
2025-08-08T01:04	10	0	0.1	0	0	372	0.2	372	373	15.5	72.6
2025-08-08T01:05	10	0	0.2	0	0	373	0.3	372	373	15.5	73.0
2025-08-08T01:06	10	0	0.1	0	0	372	0.3	372	373	15.6	72.1
2025-08-08T01:07	10	0	0.1	0	0	372	0.3	371	373	15.6	72.1
2025-08-08T01:08	10	0	0.2	0	0	372	0.3	371	372	15.7	72.4
2025-08-08T01:09	10	0	0.1	0	0	371	0.4	370	372	15.6	73.0
2025-08-08T01:10	10	0	0.1	0	0	370	0.3	370	371	15.4	74.2
2025-08-08T01:11	10	0	0.1	0	0	370	0.4	369	371	15.2	74.9
2025-08-08T01:12	10	0	0.1	0	0	370	0.2	370	371	15.4	73.6
2025-08-08T01:13	10	0	0.1	0	0	370	0.3	370	371	15.4	73.5
2025-08-08T01:14	10	0	0.1	0	0	370	0.2	370	371	15.5	72.7
2025-08-08T01:15	10	0	0.1	0	0	370	0.3	369	371	15.5	72.6
2025-08-08T01:16	10	0	0.1	0	0	369	0.2	369	370	15.4	73.1
2025-08-08T01:17	10	0	0.1	0	0	370	0.3	369	371	15.3	73.8
2025-08-08T01:18	10	0	0.1	0	0	370	0.2	369	370	15.3	73.5
2025-08-08T01:19	10	0	0.1	0	0	370	0.2	369	370	15.2	74.2
2025-08-08T01:20	10	0	0.1	0	0	369	0.3	369	370	15.2	73.9
2025-08-08T01:21	10	0	0.0	0	0	369	0.2	369	370	15.2	73.8
2025-08-08T01:22	10	0	0.1	0	0	369	0.3	368	370	15.2	73.7
2025-08-08T01:23	10	0	0.1	0	0	369	0.4	368	370	15.3	73.4
2025-08-08T01:24	10	0	0.1	0	0	370	0.2	369	370	15.3	73.7
2025-08-08T01:25	10	0	0.1	0	0	370	0.5	369	371	15.2	74.1
2025-08-08T01:26	10	0	0.1	0	0	370	0.3	370	371	15.2	74.1
2025-08-08T01:27	10	0	0.1	0	0	370	0.3	369	371	15.2	74.2
2025-08-08T01:28	10	0	0.1	0	0	370	0.2	369	370	15.1	74.9
2025-08-08T01:29	10	0	0.1	0	0	370	0.5	369	371	15.1	75.3
2025-08-08T01:30	10	0	0.1	0	0	370	0.2	370	371	15.2	74.8
2025-08-08T01:31	10	0	0.1	0	0	370	0.2	370	371	15.2	74.8
2025-08-08T01:32	10	0	0.1	0	0	370	0.2	370	371	15.1	74.9
2025-08-08T01:33	10	0	0.1	0	0	370	0.3	369	371	15.0	75.3
2025-08-08T01:34	10	0	0.1	0	0	370	0.3	369	370	15.0	75.6
2025-08-08T01:35	10	0	0.0	0	0	370	0.2	369	370	15.0	75.6
2025-08-08T01:36	10	0	0.0	0	0	370	0.2	369	370	15.0	75.4
2025-08-08T01:37	10	0	0.1	0	0	370	0.2	369	370	15.1	75.1
2025-08-08T01:38	10	0	0.0	0	0	370	0.2	369	370	15.0	75.8
2025-08-08T01:39	10	0	0.1	0	0	370	0.2	369	370	14.9	76.4
2025-08-08T01:40	10	0	0.1	0	0	370	0.3	369	371	14.8	76.7
2025-08-08T01:41	10	0	0.1	0	0	370	0.2	370	371	14.9	76.3
2025-08-08T01:42	10	0	0.1	0	0	370	0.2	370	371	15.0	76.1
2025-08-08T01:43	10	0	0.0	0	0	370	0.3	370	371	15.0	76.3
2025-08-08T01:44	10	0	0.0	0	0	370	0.2	370	371	15.0	76.3
2025-08-08T01:45	10	0	0.1	0	0	370	0.3	370	371	15.0	76.4
2025-08-08T01:46	10	0	0.1	0	0	370	0.2	370	371	14.9	77.1
2025-08-08T01:47	10	0	0.1	0	0	370	0.2	370	371	14.9	77.3
2025-08-08T01:48	10	0	0.1	0	0	370	0.3	369	370	14.8	77.9
2025-08-08T01:49	10	0	0.1	0	0	370	0.4	369	370	14.8	77.8
2025-08-08T01:50	10	0	0.1	0	0	370	0.3	369	370	15.0	76.8
2025-08-08T01:51	10	0	0.8	0	6	369	0.2	369	370	15.1	76.3
2025-08-08T01:52	10	0	0.1	0	0	369	0.3	369	370	15.4	74.5
2025-08-08T01:53	10	0	0.1	0	0	369	0.3	369	370	15.4	74.6
2025-08-08T01:54	10	0	0.1	0	0	369	0.3	368	370	15.4	74.6
2025-08-08T01:55	10	0	0.1	0	0	368	0.3	368	369	15.4	74.5
2025-08-08T01:56	10	0	0.1	0	0	368	0.3	368	369	15.3	74.8
2025-08-08T01:57	10	0	0.0	0	0	368	0.2	367	369	15.2	75.4
2025-08-08T01:58	10	0	0.1	0	0	368	0.4	368	369	15.1	76.2
2025-08-08T01:59	10	0	0.1	0	0	368	0.4	367	369	15.1	76.0
2025-08-08T02:00	10	0	0.1	0	0	368	0.3	367	368	15.0	76.8
2025-08-08T02:01	10	0	0.1	0	0	367	0.3	367	368	14.9	77.4
2025-08-08T02:02	10	0	0.1	0	0	367	0.3	366	367	14.7	78.4
2025-08-08T02:03	10	0	0.1	0	0	367	0.2	367	368	14.7	78.7
2025-08-08T02:04	10	0	0.1	0	0	367	0.2	366	367	14.7	78.9
2025-08-08T02:05	10	0	0.1	0	0	366	0.2	366	367	14.6	79.1
2025-08-08T02:06	10	0	0.1	0	0	367	0.3	366	367	14.5	79.7
2025-08-08T02:07	10	0	0.1	0	0	367	0.2	366	367	14.4	80.0
2025-08-08T02:08	10	0	0.1	0	0	367	0.2	366	367	14.4	80.2
2025-08-08T02:09	10	0	0.1	0	0	367	0.2	366	367	14.4	80.2
2025-08-08T02:10	10	0	0.1	0	0	367	0.2	366	367	14.3	80.5
2025-08-08T02:11	10	0	0.1	0	0	367	0.2	367	367	14.4	80.3
2025-08-08T02:12	10	0	0.1	0	0	367	0.2	366	367	14.4	80.1
2025-08-08T02:13	10	0	0.1	0	0	367	0.3	366	367	14.4	80.1
2025-08-08T02:14	10	0	0.1	0	0	367	0.3	366	367	14.4	80.2
2025-08-08T02:15	10	0	0.1	0	0	366	0.3	365	367	14.3	80.6
2025-08-08T02:16	10	0	0.1	0	0	366	0.3	365	366	14.2	81.3
2025-08-08T02:17	10	0	0.1	0	0	366	0.2	365	366	14.2	81.6
2025-08-08T02:18	10	0	0.1	0	0	366	0.3	365	366	14.2	81.6
2025-08-08T02:19	10	0	0.1	0	0	366	0.2	365	366	14.2	81.6
2025-08-08T02:20	10	0	0.1	0	0	366	0.4	365	367	14.2	81.6
2025-08-08T02:21	10	0	0.1	0	0	367	0.2	366	367	14.3	80.9
2025-08-08T02:22	10	0	0.1	0	0	367	0.3	366	368	14.4	80.5
2025-08-08T02:23	10	0	0.1	0	0	367	0.3	366	368	14.4	80.0
2025-08-08T02:24	10	0	0.1	0	0	367	0.2	367	368	14.5	79.5
2025-08-08T02:25	10	0	0.1	0	0	367	0.2	367	367	14.6	78.8
2025-08-08T02:26	10	0	0.1	0	0	368	0.2	367	368	14.7	78.4
2025-08-08T02:27	10	0	0.1	0	0	368	0.3	367	368	14.7	77.9
2025-08-08T02:28	10	0	0.0	0	0	367	0.3	367	368	14.7	78.0
2025-08-08T02:29	10	0	0.1	0	0	367	0.3	366	368	14.7	78.1
2025-08-08T02:30	10	0	0.1	0	0	367	0.2	367	367	14.7	77.6
2025-08-08T02:31	10	0	0.1	0	0	366	0.3	366	367	14.7	77.6
2025-08-08T02:32	10	0	0.0	0	0	366	0.3	365	366	14.7	77.8
2025-08-08T02:33	10	0	0.0	0	0	366	0.2	365	366	14.7	78.3
2025-08-08T02:34	10	0	0.1	0	0	365	0.2	365	366	14.6	78.7
2025-08-08T02:35	10	0	0.1	0	0	365	0.2	365	366	14.5	79.0
2025-08-08T02:36	10	0	0.1	0	0	365	0.2	365	366	14.5	79.2
2025-08-08T02:37	10	0	0.1	0	0	366	0.3	365	367	14.5	79.4
2025-08-08T02:38	10	0	0.1	0	0	366	0.3	365	366	14.5	79.2
2025-08-08T02:39	10	0	0.1	0	0	366	0.3	365	366	14.5	79.1
2025-08-08T02:40	10	0	0.1	0	0	365	0.2	365	366	14.5	79.1
2025-08-08T02:41	10	0	0.1	0	0	365	0.2	365	366	14.5	79.1
2025-08-08T02:42	10	0	0.1	0	0	365	0.2	364	365	14.6	79.1
2025-08-08T02:43	10	0	0.1	0	0	365	0.2	364	365	14.6	78.8
2025-08-08T02:44	10	0	0.1	0	0	365	0.2	364	365	14.7	78.7
2025-08-08T02:45	10	0	0.1	0	0	365	0.2	364	365	14.6	78.9
2025-08-08T02:46	10	0	0.1	0	0	365	0.2	364	365	14.5	79.3
2025-08-08T02:47	10	0	0.1	0	0	365	0.2	364	365	14.5	79.5
2025-08-08T02:48	10	0	0.1	0	0	365	0.2	364	365	14.4	79.8
2025-08-08T02:49	10	0	0.1	0	0	365	0.2	365	365	14.5	79.7
2025-08-08T02:50	10	0	0.1	0	0	365	0.4	365	366	14.5	79.3
2025-08-08T02:51	10	0	0.1	0	0	365	0.4	365	366	14.6	79.2
2025-08-08T02:52	10	0	0.1	0	0	365	0.2	365	365	14.5	79.6
2025-08-08T02:53	10	0	0.1	0	0	365	0.2	365	366	14.5	79.6
2025-08-08T02:54	10	0	0.1	0	0	365	0.2	365	365	14.4	79.5
2025-08-08T02:55	10	0	0.1	0	0	365	0.2	364	365	14.4	79.6
2025-08-08T02:56	10	0	0.1	0	0	365	0.2	364	365	14.4	79.8
2025-08-08T02:57	10	0	0.1	0	0	365	0.3	364	366	14.3	80.7
2025-08-08T02:58	10	0	0.1	0	0	364	0.2	364	365	14.1	81.4
2025-08-08T02:59	10	0	0.1	0	0	364	0.3	363	365	14.1	81.3
2025-08-08T03:00	10	0	0.1	0	0	364	0.3	363	364	14.1	81.2
2025-08-08T03:01	10	0	0.1	0	0	364	0.2	363	364	14.1	81.0
2025-08-08T03:02	10	0	0.1	0	0	364	0.4	363	364	14.2	80.3
2025-08-08T03:03	10	0	0.1	0	0	364	0.3	363	364	14.4	78.6
2025-08-08T03:04	10	0	0.1	0	0	364	0.4	363	365	14.6	77.6
2025-08-08T03:05	10	0	0.1	-1	0	365	0.3	364	365	14.9	75.8
2025-08-08T03:06	10	0	0.1	0	0	365	0.2	364	365	15.1	75.1
2025-08-08T03:07	10	0	0.1	0	0	366	0.3	365	366	15.1	75.2
2025-08-08T03:08	10	0	0.1	0	0	366	0.3	365	366	15.3	74.8
2025-08-08T03:09	10	0	0.1	0	0	366	0.2	366	367	15.3	74.8
2025-08-08T03:10	10	0	0.1	0	0	366	0.3	366	367	15.1	75.6
2025-08-08T03:11	10	0	0.1	0	0	366	0.3	366	367	15.1	75.8
2025-08-08T03:12	10	0	0.1	0	0	366	0.3	365	367	15.1	76.1
2025-08-08T03:13	10	0	0.1	0	0	366	0.3	365	367	15.0	76.4
2025-08-08T03:14	10	0	0.1	0	0	365	0.3	365	366	14.9	76.7
2025-08-08T03:15	10	0	0.1	0	0	366	0.4	365	367	14.9	77.0
2025-08-08T03:16	10	0	0.1	0	0	366	0.2	366	367	14.9	77.3
2025-08-08T03:17	10	0	0.1	0	0	366	0.3	366	367	14.9	77.3
2025-08-08T03:18	10	0	0.1	0	0	367	0.3	367	368	14.9	77.2
2025-08-08T03:19	10	0	0.1	0	0	368	0.2	367	368	14.9	77.3
2025-08-08T03:20	10	0	0.1	0	0	368	0.2	367	369	15.0	77.1
2025-08-08T03:21	10	0	0.1	0	0	368	0.3	368	369	14.9	77.2
2025-08-08T03:22	10	0	0.1	0	0	368	0.3	367	369	15.0	77.2
2025-08-08T03:23	10	0	0.1	0	0	368	0.2	368	369	15.0	77.1
2025-08-08T03:24	10	0	0.1	0	0	368	0.3	367	369	14.9	77.4
2025-08-08T03:25	10	0	0.1	0	0	367	0.4	366	368	14.9	77.4
2025-08-08T03:26	10	0	0.1	0	0	368	0.3	367	369	14.8	78.0
2025-08-08T03:27	10	0	0.1	0	1	369	0.3	368	369	14.8	77.9
2025-08-08T03:28	10	0	0.1	0	0	369	0.5	368	370	14.7	78.2
2025-08-08T03:29	10	0	0.1	0	0	370	0.3	369	370	14.7	78.1
2025-08-08T03:30	10	0	0.1	0	0	369	0.3	369	370	14.6	78.4
2025-08-08T03:31	10	0	0.1	0	0	370	0.3	369	370	14.8	78.0
2025-08-08T03:32	10	0	0.1	0	0	369	0.2	369	370	14.8	77.9
2025-08-08T03:33	10	0	0.1	0	0	369	0.3	368	370	14.8	77.4
2025-08-08T03:34	10	0	0.1	0	0	369	0.3	369	370	15.0	76.7
2025-08-08T03:35	10	0	0.1	0	0	369	0.3	369	370	15.0	76.4
2025-08-08T03:36	10	0	0.1	0	0	369	0.2	368	369	14.9	76.9
2025-08-08T03:37	10	0	0.2	-1	0	368	0.3	368	369	14.8	77.4
2025-08-08T03:38	10	0	0.1	0	0	368	0.3	367	369	14.9	77.2
2025-08-08T03:39	10	0	0.1	0	0	368	0.3	367	369	14.8	77.2
2025-08-08T03:40	10	0	0.1	0	0	368	0.4	366	369	14.8	77.1
2025-08-08T03:41	10	0	0.1	0	0	368	0.3	367	368	14.8	77.3
2025-08-08T03:42	10	0	0.1	0	0	368	0.3	368	369	14.7	77.2
2025-08-08T03:43	10	0	0.2	0	1	368	0.2	367	369	14.7	77.6
2025-08-08T03:44	10	0	0.1	-1	0	368	0.3	368	369	14.7	77.7
2025-08-08T03:45	10	0	0.1	0	0	369	0.3	368	369	14.7	77.8
2025-08-08T03:46	10	0	0.2	0	0	368	0.3	367	369	14.5	78.6
2025-08-08T03:47	10	0	0.1	0	1	368	0.3	367	369	14.4	79.1
2025-08-08T03:48	10	0	0.1	0	0	368	0.2	367	368	14.4	79.1
2025-08-08T03:49	10	0	0.2	0	1	368	0.2	367	368	14.4	79.2
2025-08-08T03:50	10	0	0.1	0	0	368	0.3	367	368	14.3	80.0
2025-08-08T03:51	10	0	0.2	0	1	369	0.3	368	369	14.3	80.2
2025-08-08T03:52	10	0	0.1	0	0	369	0.3	369	370	14.2	80.4
2025-08-08T03:53	10	0	0.1	0	0	369	0.2	369	370	14.2	80.2
2025-08-08T03:54	10	0	0.1	0	0	369	0.3	368	370	14.2	80.0
2025-08-08T03:55	10	0	0.1	0	0	368	0.3	368	369	14.3	79.4
2025-08-08T03:56	10	0	0.2	0	0	368	0.2	367	369	14.3	79.2
2025-08-08T03:57	10	0	0.1	0	0	369	0.5	368	370	14.3	78.7
2025-08-08T03:58	10	0	0.1	0	0	370	0.4	369	371	14.4	77.9
2025-08-08T03:59	10	0	0.1	0	0	370	0.3	369	371	14.5	77.4
2025-08-08T04:00	10	0	0.1	0	0	370	0.3	369	370	14.4	78.1
2025-08-08T04:01	10	0	0.1	0	1	370	0.2	369	370	14.5	77.7
2025-08-08T04:02	10	0	0.1	0	1	370	0.5	369	371	14.6	76.4
2025-08-08T04:03	10	0	0.1	0	0	370	0.4	369	371	14.8	76.1
2025-08-08T04:04	10	0	0.2	0	1	369	0.4	368	370	14.6	76.8
2025-08-08T04:05	10	0	0.1	0	0	368	0.3	367	369	14.8	76.3
2025-08-08T04:06	10	0	0.2	0	1	368	0.3	367	368	14.7	76.9
2025-08-08T04:07	10	0	0.2	0	1	367	0.3	366	368	14.7	77.2
2025-08-08T04:08	10	0	0.2	0	1	367	0.2	367	368	14.6	77.7
2025-08-08T04:09	10	0	0.1	0	1	367	0.2	366	367	14.8	77.2
2025-08-08T04:10	10	0	0.1	0	1	367	0.2	366	367	14.8	77.0
2025-08-08T04:11	10	0	0.1	0	1	366	0.4	365	367	14.8	77.1
2025-08-08T04:12	10	0	0.2	0	1	366	0.3	365	366	14.7	77.8
2025-08-08T04:13	10	0	0.1	0	1	366	0.3	365	366	14.5	78.8
2025-08-08T04:14	10	0	0.1	0	1	366	0.2	366	367	14.4	79.2
2025-08-08T04:15	10	0	0.1	0	1	366	0.4	365	366	14.4	79.6
2025-08-08T04:16	10	0	0.2	0	1	365	0.3	365	366	14.3	79.9
2025-08-08T04:17	10	0	0.1	0	1	366	0.3	365	366	14.3	80.3
2025-08-08T04:18	10	1	0.2	0	1	366	0.6	365	367	14.2	80.3
2025-08-08T04:19	10	1	0.1	0	1	367	0.3	366	367	14.5	78.2
2025-08-08T04:20	10	1	0.1	0	1	366	0.4	366	368	14.7	77.3
2025-08-08T04:21	10	1	0.1	1	1	367	0.3	366	367	14.4	78.8
2025-08-08T04:22	10	1	0.1	1	1	367	0.2	366	367	14.4	78.2
2025-08-08T04:23	10	1	0.1	1	1	367	0.3	366	367	14.2	78.8
2025-08-08T04:24	10	1	0.1	1	1	367	0.3	366	368	14.1	79.3
2025-08-08T04:25	10	1	0.1	1	1	367	0.2	366	367	14.1	79.2
2025-08-08T04:26	10	1	0.1	1	1	366	0.2	366	367	14.1	79.6
2025-08-08T04:27	10	1	0.1	1	1	366	0.2	366	367	14.2	79.3
2025-08-08T04:28	10	1	0.1	1	2	366	0.2	366	367	14.1	79.3
2025-08-08T04:29	10	2	0.1	1	2	366	0.2	366	366	14.1	79.5
2025-08-08T04:30	10	2	0.1	1	2	366	0.2	365	366	14.2	79.3
2025-08-08T04:31	10	2	0.1	2	2	366	0.3	365	367	14.3	78.7
2025-08-08T04:32	10	2	0.2	2	2	366	0.4	366	367	14.5	77.9
2025-08-08T04:33	10	3	0.1	2	3	367	0.3	366	368	14.6	77.6
2025-08-08T04:34	10	3	0.1	3	3	368	0.4	367	369	14.6	77.4
2025-08-08T04:35	10	3	0.1	3	3	369	0.2	368	369	14.8	76.6
2025-08-08T04:36	10	3	0.1	3	4	369	0.3	368	369	14.8	76.4
2025-08-08T04:37	10	4	0.1	3	4	369	0.3	368	370	14.9	76.3
2025-08-08T04:38	10	4	0.2	4	4	369	0.3	368	369	14.7	76.9
2025-08-08T04:39	10	4	0.1	4	4	369	0.3	369	370	14.8	76.8
2025-08-08T04:40	10	4	0.1	4	5	370	0.3	369	370	15.0	75.8
2025-08-08T04:41	10	5	0.1	5	5	370	0.4	369	371	14.9	76.6
2025-08-08T04:42	10	5	0.2	5	6	371	0.2	371	372	14.8	76.8
2025-08-08T04:43	10	6	0.1	5	6	371	0.2	370	371	14.7	77.1
2025-08-08T04:44	10	6	0.2	6	6	372	0.3	371	373	14.8	76.8
2025-08-08T04:45	10	7	0.2	6	7	372	0.3	372	373	14.9	76.3
2025-08-08T04:46	10	7	0.1	7	7	372	0.3	372	373	15.0	76.1
2025-08-08T04:47	10	7	0.1	7	8	372	0.2	372	373	15.1	75.5
2025-08-08T04:48	10	8	0.2	7	8	372	0.3	371	373	15.1	75.8
2025-08-08T04:49	10	8	0.1	8	8	372	0.3	371	372	14.9	76.5
2025-08-08T04:50	10	9	0.1	8	9	372	0.3	371	372	14.8	77.4
2025-08-08T04:51	10	9	0.1	9	9	372	0.2	372	373	14.8	77.5
2025-08-08T04:52	10	9	0.1	9	10	373	0.2	372	373	14.8	77.1
2025-08-08T04:53	10	10	0.2	9	10	373	0.3	372	373	14.9	76.5
2025-08-08T04:54	10	10	0.1	10	11	373	0.2	373	374	15.0	76.0
2025-08-08T04:55	10	11	0.2	10	11	373	0.2	373	373	15.0	76.3
2025-08-08T04:56	10	11	0.2	11	11	374	0.2	373	374	15.0	76.1
2025-08-08T04:57	10	12	0.1	11	12	374	0.2	373	374	15.1	75.7
2025-08-08T04:58	10	12	0.2	12	12	374	0.2	373	374	15.0	76.2
2025-08-08T04:59	10	13	0.2	12	13	374	0.3	374	375	15.0	76.0
2025-08-08T05:00	10	13	0.2	13	13	374	0.2	374	375	15.1	75.5
2025-08-08T05:01	10	14	0.2	13	14	374	0.2	374	375	15.0	76.2
2025-08-08T05:02	10	14	0.2	14	15	375	0.2	374	375	14.9	76.9
2025-08-08T05:03	10	15	0.2	14	15	375	0.2	374	375	14.9	77.4
2025-08-08T05:04	10	15	0.2	15	16	375	0.2	375	376	14.9	77.7
2025-08-08T05:05	10	16	0.2	15	16	375	0.2	375	376	14.9	77.8
2025-08-08T05:06	10	16	0.2	16	17	376	0.2	375	376	14.9	77.8
2025-08-08T05:07	10	17	0.2	16	18	376	0.3	375	376	14.8	77.9
2025-08-08T05:08	10	17	0.3	17	18	376	0.2	376	377	14.8	77.6
2025-08-08T05:09	10	18	0.2	18	19	377	0.3	376	377	14.9	76.7
2025-08-08T05:10	10	19	0.2	18	19	377	0.3	376	378	14.9	76.6
2025-08-08T05:11	10	19	0.2	19	20	377	0.4	376	378	14.9	76.9
2025-08-08T05:12	10	20	0.2	19	21	378	0.3	377	378	14.8	77.5
2025-08-08T05:13	10	20	0.2	20	21	378	0.2	377	378	14.8	77.9
2025-08-08T05:14	10	21	0.3	20	22	378	0.3	377	379	14.7	78.2
2025-08-08T05:15	10	22	0.3	21	22	378	0.3	378	379	14.7	78.7
2025-08-08T05:16	10	22	0.5	22	24	378	0.3	377	379	14.6	79.0
2025-08-08T05:17	10	26	0.9	23	27	379	0.4	378	379	14.6	79.1
2025-08-08T05:18	10	27	0.2	26	27	379	0.3	379	380	14.7	79.1
2025-08-08T05:19	10	25	0.7	24	26	379	0.2	379	380	14.6	79.2
2025-08-08T05:20	10	25	0.3	24	25	380	0.3	379	381	14.6	79.8
2025-08-08T05:21	10	25	0.3	25	26	380	0.3	380	381	14.6	79.9
2025-08-08T05:22	10	26	0.2	25	26	381	0.3	380	381	14.6	79.9
2025-08-08T05:23	10	26	0.2	26	27	381	0.2	380	381	14.6	79.6
2025-08-08T05:24	10	27	0.2	27	28	381	0.2	380	382	14.6	79.6
2025-08-08T05:25	10	28	0.2	27	28	382	0.3	381	382	14.7	79.7
2025-08-08T05:26	10	28	0.2	28	29	382	0.2	382	382	14.8	78.5
2025-08-08T05:27	10	29	0.2	29	29	382	0.3	382	383	14.8	78.2
2025-08-08T05:28	10	30	0.2	29	30	383	0.2	382	383	14.8	78.4
2025-08-08T05:29	10	30	0.2	30	31	383	0.2	383	384	14.8	78.2
2025-08-08T05:30	10	31	0.2	31	31	383	0.3	383	384	14.9	78.6
2025-08-08T05:31	10	31	0.2	31	32	384	0.2	383	384	14.8	79.8
2025-08-08T05:32	10	32	0.2	32	33	385	0.4	384	385	15.0	78.2
2025-08-08T05:33	10	33	0.2	32	33	385	0.2	385	386	15.1	76.8
2025-08-08T05:34	10	33	0.2	33	34	385	0.2	385	386	15.2	75.9
2025-08-08T05:35	10	34	0.1	34	34	385	0.2	385	386	15.2	76.1
2025-08-08T05:36	10	34	0.1	34	35	386	0.2	385	386	15.2	76.6
2025-08-08T05:37	10	35	0.1	34	35	386	0.3	385	387	15.2	77.1
2025-08-08T05:38	10	35	0.2	35	36	387	0.2	386	387	15.3	77.0
2025-08-08T05:39	10	36	0.1	36	36	387	0.3	387	388	15.3	76.6
2025-08-08T05:40	10	36	0.2	36	37	388	0.2	388	388	15.4	76.3
2025-08-08T05:41	10	37	0.2	36	37	388	0.2	388	389	15.4	76.1
2025-08-08T05:42	10	37	0.2	37	38	389	0.3	388	389	15.5	76.8
2025-08-08T05:43	10	38	0.1	38	38	390	0.2	389	390	15.6	77.5
2025-08-08T05:44	10	38	0.1	38	38	390	0.2	389	390	15.6	76.2
2025-08-08T05:45	10	39	0.1	38	39	390	0.2	390	391	15.6	76.4
2025-08-08T05:46	10	39	0.2	39	39	391	0.2	390	391	15.7	76.3
2025-08-08T05:47	10	40	0.2	39	40	391	0.2	390	391	15.8	76.3
2025-08-08T05:48	10	40	0.2	40	41	392	0.2	391	392	15.9	75.9
2025-08-08T05:49	10	41	0.2	41	42	392	0.2	391	392	15.9	74.1
2025-08-08T05:50	10	42	0.2	41	42	392	0.2	391	392	15.9	73.9
2025-08-08T05:51	10	42	0.2	42	43	392	0.3	392	393	16.0	72.9
2025-08-08T05:52	10	43	0.2	43	44	393	0.3	392	393	16.0	72.8
2025-08-08T05:53	10	44	0.2	44	44	394	0.2	393	394	16.1	73.3
2025-08-08T05:54	10	45	0.2	44	45	394	0.2	394	395	16.2	72.9
2025-08-08T05:55	10	45	0.2	45	46	395	0.2	395	395	16.3	72.8
2025-08-08T05:56	10	46	0.2	45	46	395	0.2	395	396	16.3	72.6
2025-08-08T05:57	10	47	0.2	46	47	396	0.3	395	396	16.5	71.7
2025-08-08T05:58	10	47	0.3	47	48	396	0.2	396	397	16.6	72.0
2025-08-08T05:59	10	48	0.3	48	49	397	0.2	396	397	16.7	71.7
2025-08-08T06:00	10	49	0.2	49	50	397	0.2	397	398	16.8	71.2
2025-08-08T06:01	10	50	0.3	49	50	398	0.2	398	399	16.9	70.0
2025-08-08T06:02	10	51	0.2	50	51	398	0.2	398	399	17.0	69.7
2025-08-08T06:03	10	52	0.3	51	52	399	0.2	398	399	17.0	70.2
2025-08-08T06:04	10	52	0.2	52	53	399	0.2	399	400	17.1	69.6
2025-08-08T06:05	10	53	0.1	52	53	400	0.2	399	400	17.2	69.4
2025-08-08T06:06	10	53	0.2	53	53	401	0.2	400	401	17.3	70.1
2025-08-08T06:07	10	53	0.1	53	54	401	0.2	401	402	17.5	69.0
2025-08-08T06:08	10	54	0.1	54	54	401	0.1	401	402	17.8	68.4
2025-08-08T06:09	10	54	0.1	54	55	402	0.2	401	402	18.3	65.3
2025-08-08T06:10	10	55	0.2	54	55	402	0.2	402	403	18.5	64.7
2025-08-08T06:11	10	55	0.2	55	56	403	0.2	402	403	18.4	65.1
2025-08-08T06:12	10	56	0.2	56	56	403	0.3	403	404	18.0	66.2
2025-08-08T06:13	10	57	0.2	56	57	404	0.2	403	404	18.0	66.7
2025-08-08T06:14	10	57	0.2	57	58	404	0.2	404	405	18.0	66.1
2025-08-08T06:15	10	58	0.2	57	58	405	0.2	405	406	18.0	66.1
2025-08-08T06:16	10	58	0.2	58	59	406	0.3	405	406	18.2	65.4
2025-08-08T06:17	10	59	0.2	58	59	406	0.3	406	407	18.3	65.9
2025-08-08T06:18	10	59	0.2	59	60	407	0.3	406	407	18.5	64.7
2025-08-08T06:19	10	60	0.2	59	60	407	0.3	406	408	18.6	64.4
2025-08-08T06:20	10	60	0.2	60	61	407	0.2	407	408	18.5	65.3
2025-08-08T06:21	10	61	0.2	61	61	408	0.2	407	408	18.3	65.0
2025-08-08T06:22	10	62	0.2	61	62	408	0.3	407	408	18.2	64.3
2025-08-08T06:23	10	62	0.2	62	62	409	0.2	408	409	18.4	63.8
2025-08-08T06:24	10	63	0.2	62	63	409	0.2	408	409	18.3	64.6
2025-08-08T06:25	10	63	0.2	63	64	409	0.2	409	410	18.3	64.7
2025-08-08T06:26	10	64	0.2	64	64	410	0.2	410	410	18.3	65.3
2025-08-08T06:27	10	65	0.2	64	65	411	0.3	410	411	18.3	66.0
2025-08-08T06:28	10	65	0.2	65	66	411	0.3	411	412	18.5	64.3
2025-08-08T06:29	10	66	0.2	66	66	412	0.2	411	412	18.5	64.4
2025-08-08T06:30	10	67	0.2	66	67	412	0.2	412	413	18.5	64.5
2025-08-08T06:31	10	67	0.1	67	67	413	0.3	412	413	18.5	65.1
2025-08-08T06:32	10	68	0.2	67	68	413	0.2	412	414	18.5	66.0
2025-08-08T06:33	10	68	0.2	68	69	414	0.2	413	414	18.5	66.1
2025-08-08T06:34	10	69	0.2	69	69	414	0.2	414	415	18.5	65.5
2025-08-08T06:35	10	69	0.2	69	70	415	0.2	414	415	18.5	66.6
2025-08-08T06:36	10	70	0.2	70	71	415	0.2	414	415	18.5	66.9
2025-08-08T06:37	10	71	0.3	71	71	415	0.2	415	416	18.5	68.2
2025-08-08T06:38	10	72	0.2	71	72	416	0.3	415	416	18.5	68.0
2025-08-08T06:39	10	72	0.2	72	73	416	0.3	415	417	18.5	68.4
2025-08-08T06:40	10	73	0.2	73	73	416	0.3	416	417	18.4	69.3
2025-08-08T06:41	10	74	0.3	73	74	417	0.3	416	417	18.3	69.3
2025-08-08T06:42	10	74	0.2	74	75	417	0.2	417	418	18.4	68.8
2025-08-08T06:43	10	75	0.2	75	76	418	0.2	417	418	18.3	68.8
2025-08-08T06:44	10	76	0.2	75	76	418	0.2	417	419	18.3	68.9
2025-08-08T06:45	10	76	0.2	76	77	418	0.2	418	419	18.4	69.1
2025-08-08T06:46	10	77	0.2	77	77	419	0.4	418	419	18.3	69.3
2025-08-08T06:47	10	77	0.2	77	78	419	0.2	419	420	18.4	69.0
2025-08-08T06:48	10	78	0.3	77	78	419	0.3	419	420	18.5	68.7
2025-08-08T06:49	10	78	0.2	78	79	420	0.2	419	420	18.5	68.5
2025-08-08T06:50	10	79	0.2	78	79	421	0.3	420	422	18.5	68.4
2025-08-08T06:51	10	79	0.3	79	80	421	0.3	420	422	18.6	68.8
2025-08-08T06:52	10	80	0.2	79	80	421	0.3	420	422	18.7	68.3
2025-08-08T06:53	10	80	0.2	80	81	422	0.3	421	422	18.6	68.1
2025-08-08T06:54	10	81	0.2	81	81	422	0.2	422	423	18.6	68.0
2025-08-08T06:55	10	81	0.1	81	82	423	0.2	422	423	18.7	68.2
2025-08-08T06:56	10	82	0.1	82	82	423	0.2	422	423	18.7	68.0
2025-08-08T06:57	10	82	0.1	82	83	423	0.3	422	423	18.7	68.1
2025-08-08T06:58	10	83	0.2	82	83	423	0.3	423	424	18.7	67.2
2025-08-08T06:59	10	83	0.2	83	84	424	0.3	423	424	18.7	67.6
2025-08-08T07:00	10	84	0.1	83	84	424	0.3	423	425	18.7	67.3
2025-08-08T07:01	10	84	0.2	84	85	424	0.2	424	425	18.7	66.7
2025-08-08T07:02	10	85	0.2	84	85	425	0.3	425	426	18.8	66.4
2025-08-08T07:03	10	85	0.2	85	86	426	0.4	425	426	18.9	66.4
2025-08-08T07:04	10	86	0.2	86	86	426	0.3	425	427	18.9	65.5
2025-08-08T07:05	10	86	0.2	86	87	427	0.4	426	428	19.0	65.6
2025-08-08T07:06	10	87	0.2	87	87	428	0.3	427	428	19.1	65.1
2025-08-08T07:07	10	87	0.2	87	88	428	0.3	427	428	19.1	64.8
2025-08-08T07:08	10	88	0.2	88	89	428	0.3	427	429	19.0	64.4
2025-08-08T07:09	10	89	0.1	88	89	429	0.2	428	429	19.1	64.5
2025-08-08T07:10	10	89	0.2	89	90	430	0.2	429	430	19.2	64.3
2025-08-08T07:11	10	90	0.2	89	90	430	0.3	430	431	19.3	64.0
2025-08-08T07:12	10	90	0.2	90	90	431	0.3	430	431	19.3	63.8
2025-08-08T07:13	10	91	0.2	90	91	431	0.3	430	432	19.5	63.3
2025-08-08T07:14	10	91	0.2	91	92	431	0.3	431	432	19.5	62.4
2025-08-08T07:15	10	92	0.2	91	92	432	0.3	431	432	19.7	63.0
2025-08-08T07:16	10	92	0.2	92	93	432	0.3	432	433	19.7	62.9
2025-08-08T07:17	10	93	0.2	92	93	433	0.3	433	434	19.7	63.2
2025-08-08T07:18	10	93	0.2	93	94	433	0.3	433	434	19.9	63.0
2025-08-08T07:19	10	94	0.2	93	94	435	0.3	434	435	19.9	62.1
2025-08-08T07:20	10	94	0.2	94	95	435	0.3	434	435	19.8	62.3
2025-08-08T07:21	10	95	0.1	95	95	435	0.4	434	436	19.8	62.2
2025-08-08T07:22	10	95	0.2	95	95	435	0.5	434	436	20.0	61.8
2025-08-08T07:23	10	96	0.2	95	96	436	0.4	435	437	19.8	61.8
2025-08-08T07:24	10	96	0.2	96	97	436	0.4	435	437	19.9	61.5
2025-08-08T07:25	10	97	0.2	96	97	436	0.5	435	437	19.8	61.7
2025-08-08T07:26	10	97	0.2	97	98	436	0.3	436	437	20.1	61.2
2025-08-08T07:27	10	97	0.2	97	98	437	0.6	436	438	20.0	61.0
2025-08-08T07:28	10	98	0.2	97	98	438	0.6	437	439	20.1	60.9
2025-08-08T07:29	10	98	0.2	98	99	438	0.4	438	439	20.1	60.6
2025-08-08T07:30	10	99	0.2	98	99	439	0.3	438	439	20.1	60.4
2025-08-08T07:31	10	99	0.2	99	100	439	0.3	438	440	20.2	60.4
2025-08-08T07:32	10	100	0.2	99	100	440	0.6	439	441	20.3	60.0
2025-08-08T07:33	10	100	0.2	100	101	441	0.5	439	441	20.2	60.0
2025-08-08T07:34	10	101	0.1	101	101	440	0.3	440	441	20.2	60.0
2025-08-08T07:35	10	101	0.2	101	102	441	0.3	441	442	20.3	59.8
2025-08-08T07:36	10	102	0.2	101	102	441	0.6	440	442	20.3	60.3
2025-08-08T07:37	10	102	0.1	102	102	441	0.4	441	442	20.4	60.1
2025-08-08T07:38	10	103	0.2	102	103	443	0.4	442	443	20.7	60.1
2025-08-08T07:39	10	103	0.2	103	103	443	0.3	443	444	20.7	59.1
2025-08-08T07:40	10	104	0.2	103	104	444	0.2	444	445	20.6	58.3
2025-08-08T07:41	10	104	0.2	104	104	444	0.3	444	445	20.6	59.0
2025-08-08T07:42	10	105	0.1	104	105	446	0.4	445	447	20.8	59.2
2025-08-08T07:43	10	105	0.1	105	105	446	0.3	445	447	20.7	59.7
2025-08-08T07:44	10	105	0.1	105	106	445	0.9	444	447	20.7	60.4
2025-08-08T07:45	10	106	0.1	105	106	444	0.4	443	445	20.4	60.6
2025-08-08T07:46	10	106	0.1	106	106	445	0.3	445	446	20.4	61.0
2025-08-08T07:47	10	106	0.1	106	106	447	0.5	446	448	20.6	60.4
2025-08-08T07:48	10	107	0.3	106	107	448	0.5	446	449	20.8	60.4
2025-08-08T07:49	10	107	0.1	107	108	447	0.5	446	448	20.9	60.5
2025-08-08T07:50	10	108	0.2	107	108	449	0.6	448	450	21.0	59.8
2025-08-08T07:51	10	108	0.2	108	108	450	0.4	449	451	21.2	59.6
2025-08-08T07:52	10	109	0.2	108	109	450	0.5	449	451	21.1	59.4
2025-08-08T07:53	10	109	0.2	109	109	451	0.5	450	452	21.2	59.4
2025-08-08T07:54	10	110	0.2	109	110	450	0.8	449	452	21.2	58.6
2025-08-08T07:55	10	110	0.2	110	111	450	0.2	450	451	21.1	58.9
2025-08-08T07:56	10	111	0.1	110	111	452	0.6	451	453	21.1	59.4
2025-08-08T07:57	10	111	0.1	110	111	453	0.3	452	453	21.1	60.2
2025-08-08T07:58	10	111	0.1	111	111	452	0.8	451	453	21.2	59.7
2025-08-08T07:59	10	111	0.1	111	112	452	0.3	451	452	21.1	59.8
2025-08-08T08:00	10	112	0.2	111	112	453	0.5	452	454	21.4	59.9
2025-08-08T08:01	10	112	0.1	112	112	454	0.4	453	455	21.6	58.3
2025-08-08T08:02	10	112	0.2	112	113	454	0.4	453	454	21.3	58.2
2025-08-08T08:03	10	113	0.1	112	113	453	0.3	452	454	21.1	58.1
2025-08-08T08:04	10	113	0.1	113	113	454	0.4	453	455	21.3	59.2
2025-08-08T08:05	10	113	0.2	113	114	454	0.3	454	455	21.2	58.5
2025-08-08T08:06	10	114	0.2	113	114	455	0.9	453	456	21.3	59.8
2025-08-08T08:07	10	114	0.1	114	114	455	0.8	454	457	21.2	60.0
2025-08-08T08:08	10	114	0.1	114	115	454	0.7	453	456	21.1	60.0
2025-08-08T08:09	10	115	0.1	114	115	455	0.9	454	457	21.1	59.8
2025-08-08T08:10	10	115	0.1	115	115	457	0.4	456	459	21.3	59.3
2025-08-08T08:11	10	115	0.1	115	116	457	0.6	456	458	21.5	58.3
2025-08-08T08:12	10	116	0.1	115	116	457	0.3	456	458	21.5	57.8
2025-08-08T08:13	10	116	0.1	116	116	458	0.5	457	459	21.5	57.9
2025-08-08T08:14	10	116	0.2	116	117	459	0.3	458	460	21.5	58.0
2025-08-08T08:15	10	117	0.2	117	117	460	0.5	460	461	21.9	58.7
2025-08-08T08:16	10	117	0.1	117	117	460	1.0	458	462	21.9	57.4
2025-08-08T08:17	10	118	0.1	117	118	459	0.4	458	460	21.5	57.9
2025-08-08T08:18	10	118	0.1	118	118	461	0.9	459	462	21.7	58.5
2025-08-08T08:19	10	118	0.1	118	118	462	0.4	462	463	22.0	57.9
2025-08-08T08:20	10	119	0.2	118	119	462	0.6	461	463	22.0	57.8
2025-08-08T08:21	10	119	0.2	119	119	463	0.6	462	464	22.0	56.9
2025-08-08T08:22	10	120	0.2	119	120	463	0.3	462	464	21.9	56.9
2025-08-08T08:23	10	120	0.2	119	120	464	0.5	463	465	22.1	57.3
2025-08-08T08:24	10	120	0.2	119	121	465	0.4	464	466	22.1	56.4
2025-08-08T08:25	10	120	0.2	120	121	465	0.4	464	466	22.3	56.0
2025-08-08T08:26	10	121	0.2	120	121	465	0.4	464	465	22.1	55.7
2025-08-08T08:27	10	121	0.2	120	121	466	0.4	465	467	22.0	56.2
2025-08-08T08:28	10	121	0.2	121	122	467	0.6	465	468	22.3	56.5
2025-08-08T08:29	10	121	0.2	121	122	466	0.6	465	468	22.4	54.7
2025-08-08T08:30	10	122	0.2	121	123	466	0.5	465	467	22.2	54.9
2025-08-08T08:31	10	122	0.2	122	123	467	0.4	466	468	22.3	55.0
2025-08-08T08:32	10	122	0.2	122	123	468	0.4	467	469	22.4	55.0
2025-08-08T08:33	10	123	0.3	122	124	468	0.3	467	469	22.4	54.5
2025-08-08T08:34	10	123	0.2	123	124	469	0.3	468	469	22.5	54.3
2025-08-08T08:35	10	124	0.1	123	124	469	0.2	468	469	22.5	53.9
2025-08-08T08:36	10	124	0.2	124	125	469	0.3	469	470	22.6	54.0
2025-08-08T08:37	10	124	0.1	124	125	471	0.4	470	471	22.7	54.0
2025-08-08T08:38	10	125	0.2	124	125	471	0.3	470	472	22.8	54.1
2025-08-08T08:39	10	125	0.1	125	125	472	0.6	471	473	23.2	54.2
2025-08-08T08:40	10	125	0.1	125	126	472	0.5	471	474	23.0	53.0
2025-08-08T08:41	10	126	0.1	125	126	472	0.5	471	472	22.8	53.2
2025-08-08T08:42	10	126	0.1	126	126	472	0.5	471	473	23.0	52.5
2025-08-08T08:43	10	126	0.1	126	126	473	0.3	472	474	23.0	52.1
2025-08-08T08:44	10	127	0.1	126	127	473	0.5	473	474	22.9	52.7
2025-08-08T08:45	10	127	0.1	127	127	474	0.5	473	475	23.0	52.4
2025-08-08T08:46	10	127	0.1	127	127	474	0.4	473	474	22.8	52.8
2025-08-08T08:47	10	127	0.1	127	128	473	0.4	473	474	22.9	52.8
2025-08-08T08:48	10	128	0.2	128	128	475	0.5	474	476	22.9	52.8
2025-08-08T08:49	10	128	0.1	128	128	475	0.7	474	477	23.1	52.5
2025-08-08T08:50	10	129	0.1	128	129	475	0.3	475	476	23.2	52.1
2025-08-08T08:51	10	129	0.1	128	129	475	0.3	474	476	23.1	52.2
2025-08-08T08:52	10	129	0.1	129	129	476	0.4	475	477	23.1	52.1
2025-08-08T08:53	10	129	0.1	129	130	477	0.6	475	478	23.2	52.0
2025-08-08T08:54	10	130	0.1	129	130	477	0.5	476	478	23.3	51.5
2025-08-08T08:55	10	130	0.2	130	130	477	0.4	476	478	23.3	51.7
2025-08-08T08:56	10	130	0.2	130	131	479	0.4	478	480	23.5	51.2
2025-08-08T08:57	10	130	0.1	130	131	480	0.4	479	481	23.7	50.9
2025-08-08T08:58	10	131	0.1	130	131	480	0.4	480	481	23.8	50.8
2025-08-08T08:59	10	131	0.1	131	131	481	0.8	480	483	23.7	51.1
2025-08-08T09:00	10	131	0.1	131	132	482	0.4	481	483	23.6	51.2
2025-08-08T09:01	10	132	0.1	131	132	481	0.6	480	483	24.0	51.6
2025-08-08T09:02	10	132	0.1	132	132	483	0.4	481	483	24.1	50.6
2025-08-08T09:03	10	132	0.1	132	133	483	0.4	482	483	24.1	50.3
2025-08-08T09:04	10	133	0.1	132	133	483	0.2	483	484	24.3	49.8
2025-08-08T09:05	10	133	0.1	132	133	483	0.4	482	484	24.1	49.8
2025-08-08T09:06	10	133	0.1	133	133	483	0.8	481	485	24.0	50.3
2025-08-08T09:07	10	133	0.1	133	134	482	0.4	481	483	23.7	50.5
2025-08-08T09:08	10	134	0.1	133	134	481	1.1	479	483	23.6	50.7
2025-08-08T09:09	10	134	0.1	134	134	482	0.8	481	483	23.8	51.0
2025-08-08T09:10	10	134	0.1	134	134	483	0.3	482	484	23.8	50.2
2025-08-08T09:11	10	134	0.1	134	134	484	0.9	482	485	23.9	50.1
2025-08-08T09:12	10	134	0.1	134	135	485	0.4	484	486	23.9	50.4
2025-08-08T09:13	10	135	0.1	134	135	485	0.3	484	486	23.8	50.0
2025-08-08T09:14	10	135	0.1	135	135	485	0.4	484	486	24.0	49.7
2025-08-08T09:15	10	135	0.1	135	135	486	0.4	485	487	24.2	49.5
2025-08-08T09:16	10	135	0.1	135	136	486	0.3	486	487	24.0	49.5
2025-08-08T09:17	10	136	0.1	135	136	486	0.9	485	488	24.1	50.2
2025-08-08T09:18	10	136	0.1	136	136	486	0.4	485	487	24.0	49.9
2025-08-08T09:19	10	136	0.1	136	136	487	0.7	486	488	24.1	49.9
2025-08-08T09:20	10	136	0.1	136	137	486	0.4	485	487	24.0	50.0
2025-08-08T09:21	10	137	0.1	136	137	486	0.3	486	487	24.0	49.7
2025-08-08T09:22	10	137	0.1	136	137	487	0.8	485	488	24.2	49.4
2025-08-08T09:23	10	137	0.1	137	137	488	1.1	486	490	24.1	49.4
2025-08-08T09:24	10	137	0.1	137	137	490	0.4	489	491	24.1	47.7
2025-08-08T09:25	10	137	0.1	137	137	491	0.3	490	491	24.1	49.4
2025-08-08T09:26	10	138	0.1	137	138	490	0.7	489	492	24.1	49.4
2025-08-08T09:27	10	138	0.1	138	138	490	0.2	490	491	24.1	49.4
2025-08-08T09:28	10	138	0.1	138	138	492	0.9	490	493	24.1	49.4
2025-08-08T09:29	10	138	0.1	138	138	491	0.9	490	493	24.1	49.4
2025-08-08T09:30	10	138	0.1	138	139	488	1.1	487	490	24.2	49.9
2025-08-08T09:31	10	138	0.2	138	139	487	0.4	487	488	24.0	50.7
2025-08-08T09:32	10	138	0.1	138	139	490	1.4	488	492	24.2	50.9
2025-08-08T09:33	10	139	0.1	138	139	490	0.4	490	491	24.5	50.5
2025-08-08T09:34	10	139	0.2	139	139	490	1.0	489	492	24.5	50.1
2025-08-08T09:35	10	139	0.2	139	140	492	0.3	492	493	24.5	49.7
2025-08-08T09:36	10	139	0.1	139	140	492	0.4	492	493	24.4	49.8
2025-08-08T09:37	10	140	0.2	139	140	493	0.4	492	494	24.7	49.2
2025-08-08T09:38	10	140	0.1	140	140	493	0.5	492	494	24.4	49.3
2025-08-08T09:39	10	140	0.1	140	141	493	0.3	492	493	24.4	49.4
2025-08-08T09:40	10	140	0.2	140	141	494	0.4	493	495	24.7	49.1
2025-08-08T09:41	10	141	0.2	140	141	495	0.5	494	496	24.7	48.6
2025-08-08T09:42	10	141	0.2	141	142	495	0.3	494	496	24.7	49.0
2025-08-08T09:43	10	141	0.2	141	141	495	0.3	494	495	24.8	48.8
2025-08-08T09:44	10	141	0.3	141	142	496	0.7	495	497	24.9	48.0
2025-08-08T09:45	10	141	0.2	141	142	497	0.3	496	498	25.0	48.5
2025-08-08T09:46	10	142	0.2	141	142	497	0.3	496	498	25.2	47.6
2025-08-08T09:47	10	142	0.2	142	142	498	0.3	496	498	25.2	47.3
2025-08-08T09:48	10	142	0.1	142	142	499	0.7	498	501	25.4	47.9
2025-08-08T09:49	10	142	0.3	142	143	499	1.1	497	501	25.5	47.7
2025-08-08T09:50	10	142	0.2	142	143	497	1.0	495	498	25.0	48.3
2025-08-08T09:51	10	143	0.3	142	143	497	1.0	495	498	24.9	48.8
2025-08-08T09:52	10	143	0.2	142	143	499	0.4	498	500	25.2	48.8
2025-08-08T09:53	10	143	0.2	142	143	498	0.6	497	499	25.4	48.3
2025-08-08T09:54	10	143	0.2	143	144	498	0.7	497	499	25.2	47.8
2025-08-08T09:55	10	143	0.2	143	143	498	0.7	497	500	25.1	48.2
2025-08-08T09:56	10	143	0.2	143	144	499	0.4	498	500	25.4	47.8
2025-08-08T09:57	10	143	0.2	143	144	500	1.0	498	501	25.8	47.2
2025-08-08T09:58	10	143	0.3	143	144	500	0.9	499	502	25.6	47.4
2025-08-08T09:59	10	143	0.2	143	144	501	0.3	501	502	25.9	47.3
2025-08-08T10:00	10	144	0.2	143	144	502	0.6	501	504	26.1	47.3
2025-08-08T10:01	10	144	0.2	143	144	503	0.3	502	503	26.0	47.0
2025-08-08T10:02	10	144	0.2	144	144	505	0.9	503	506	26.1	47.0
2025-08-08T10:03	10	144	0.2	144	144	505	0.9	503	506	26.1	46.3
2025-08-08T10:04	10	144	0.1	144	145	505	0.6	504	506	26.1	46.5
2025-08-08T10:05	10	144	0.2	144	145	505	1.5	502	506	26.1	45.7
2025-08-08T10:06	10	145	0.1	144	145	502	0.4	502	504	25.6	46.2
2025-08-08T10:07	10	145	0.1	144	145	503	0.4	503	504	25.7	46.4
2025-08-08T10:08	10	145	0.1	145	145	504	1.1	502	505	25.9	46.0
2025-08-08T10:09	10	145	0.1	145	145	503	0.5	502	504	25.7	45.9
2025-08-08T10:10	10	145	0.1	145	145	504	0.5	503	505	25.9	46.1
2025-08-08T10:11	10	145	0.1	145	145	504	0.4	503	505	25.9	45.8
2025-08-08T10:12	10	145	0.1	145	145	504	0.7	503	505	25.8	46.2
2025-08-08T10:13	10	145	0.2	145	146	505	0.3	504	505	25.9	45.7
2025-08-08T10:14	10	146	0.1	145	146	506	0.4	505	507	26.1	45.7
2025-08-08T10:15	10	146	0.1	146	146	507	0.3	506	508	26.4	45.3
2025-08-08T10:16	10	146	0.1	146	146	507	0.3	507	508	26.5	44.9
2025-08-08T10:17	10	146	0.1	146	147	507	0.4	507	508	26.6	44.6
2025-08-08T10:18	10	147	0.1	146	147	508	0.5	507	509	26.5	44.5
2025-08-08T10:19	10	147	0.1	146	147	509	0.5	508	510	26.5	44.7
2025-08-08T10:20	10	147	0.1	147	147	510	0.4	509	511	26.6	44.6
2025-08-08T10:21	10	147	0.1	147	147	509	1.9	506	511	26.7	44.3
2025-08-08T10:22	10	147	0.1	147	147	508	1.1	506	510	26.7	44.5
2025-08-08T10:23	10	147	0.1	147	147	508	0.6	507	510	26.4	44.6
2025-08-08T10:24	10	147	0.1	147	147	508	0.5	507	509	26.4	45.0
2025-08-08T10:25	10	147	0.1	147	148	509	0.4	508	509	26.4	44.7
2025-08-08T10:26	10	148	0.1	148	148	506	1.2	505	509	26.4	44.8
2025-08-08T10:27	10	148	0.1	147	148	507	1.3	505	510	26.4	45.0
2025-08-08T10:28	10	148	0.1	148	148	511	0.7	509	513	27.0	45.2
2025-08-08T10:29	10	148	0.1	148	148	510	1.0	509	513	26.9	44.3
2025-08-08T10:30	10	148	0.1	148	148	512	0.6	511	513	26.6	44.7
2025-08-08T10:31	10	148	0.1	148	148	511	1.5	509	514	26.6	44.7
2025-08-08T10:32	10	148	0.1	148	148	509	0.5	508	510	26.5	44.7
2025-08-08T10:33	10	148	0.1	148	148	509	0.3	509	510	26.7	44.6
2025-08-08T10:34	10	148	0.1	148	148	510	0.7	509	512	26.7	44.0
2025-08-08T10:35	10	148	0.1	148	148	511	0.4	510	512	26.6	44.3
2025-08-08T10:36	10	148	0.1	148	149	511	0.5	510	512	26.6	44.3
2025-08-08T10:37	10	149	0.1	148	149	513	0.8	512	514	26.8	43.9
2025-08-08T10:38	10	149	0.1	148	149	514	0.8	512	515	27.3	43.4
2025-08-08T10:39	10	149	0.1	149	149	513	0.5	512	514	27.4	42.4
2025-08-08T10:40	10	149	0.1	149	149	515	0.3	514	515	27.5	42.4
2025-08-08T10:41	10	149	0.1	149	149	515	0.4	514	516	27.5	42.7
2025-08-08T10:42	10	149	0.1	149	149	516	0.4	515	517	27.5	42.9
2025-08-08T10:43	10	149	0.1	149	149	517	0.4	516	517	27.7	42.6
2025-08-08T10:44	10	149	0.1	149	149	516	0.8	514	517	27.4	43.0
2025-08-08T10:45	10	149	0.1	149	149	514	1.1	513	516	27.1	43.6
2025-08-08T10:46	10	149	0.1	149	149	513	1.0	512	515	26.8	44.2
2025-08-08T10:47	10	149	0.1	149	149	517	0.9	515	518	27.3	44.7
2025-08-08T10:48	10	149	0.1	149	150	518	1.0	516	519	27.5	43.7
2025-08-08T10:49	10	150	0.1	149	150	517	0.3	516	518	27.3	43.8
2025-08-08T10:50	10	149	0.1	149	150	516	1.6	513	518	27.6	44.2
2025-08-08T10:51	10	150	0.1	149	150	513	0.9	512	514	27.1	44.6
2025-08-08T10:52	10	150	0.1	149	150	515	1.4	513	517	27.1	45.3
2025-08-08T10:53	10	150	0.3	149	150	517	0.5	516	518	27.4	45.5
2025-08-08T10:54	10	149	0.2	149	150	515	2.5	511	518	27.1	46.2
2025-08-08T10:55	10	149	0.1	149	149	513	1.0	512	515	26.9	46.9
2025-08-08T10:56	10	149	0.1	149	149	511	0.9	509	513	26.8	46.3
2025-08-08T10:57	10	149	0.1	149	149	511	0.6	510	513	26.8	46.3
2025-08-08T10:58	10	148	0.1	148	149	514	1.1	513	516	27.1	46.0
2025-08-08T10:59	10	149	0.2	148	149	516	0.4	515	517	27.1	45.5
2025-08-08T11:00	10	149	0.1	149	149	515	0.9	514	517	27.0	46.0
2025-08-08T11:01	10	150	0.2	149	150	516	1.3	515	519	27.1	46.3
2025-08-08T11:02	10	150	0.1	149	150	515	1.7	513	519	27.2	46.5
2025-08-08T11:03	10	149	0.1	149	150	516	0.7	514	517	27.1	46.7
2025-08-08T11:04	10	149	0.2	149	150	518	0.5	517	519	27.3	46.6
2025-08-08T11:05	10	149	0.3	149	150	519	0.8	518	521	27.9	45.8
2025-08-08T11:06	10	150	0.1	150	150	519	0.6	518	521	27.6	45.4
2025-08-08T11:07	10	150	0.2	150	150	520	0.7	519	522	27.7	44.9
2025-08-08T11:08	10	150	0.1	150	150	521	0.6	520	523	28.1	45.1
2025-08-08T11:09	10	150	0.1	150	150	520	1.8	517	523	27.8	45.0
2025-08-08T11:10	10	150	0.1	150	150	517	0.5	516	518	27.4	46.2
2025-08-08T11:11	10	150	0.1	150	151	517	1.1	515	519	27.5	45.6
2025-08-08T11:12	10	150	0.2	150	151	517	0.5	516	518	27.3	46.0
2025-08-08T11:13	10	150	0.1	150	150	518	0.4	517	519	27.3	46.0
2025-08-08T11:14	10	150	0.1	150	150	518	0.9	517	520	27.4	46.0
2025-08-08T11:15	10	150	0.1	149	150	520	0.9	519	522	27.9	45.6
2025-08-08T11:16	10	150	0.1	150	150	521	1.0	520	523	27.9	44.8
2025-08-08T11:17	10	150	0.2	150	150	519	0.7	518	521	27.6	44.8
2025-08-08T11:18	10	150	0.1	149	150	520	0.6	519	522	27.6	45.3
2025-08-08T11:19	10	150	0.1	150	150	519	0.3	519	520	27.4	45.0
2025-08-08T11:20	10	150	0.3	149	150	522	1.1	520	524	27.9	45.9
2025-08-08T11:21	10	150	0.1	150	150	523	0.7	522	524	28.2	44.0
2025-08-08T11:22	10	150	0.1	150	150	522	0.6	521	523	28.0	42.8
2025-08-08T11:23	10	150	0.1	150	151	521	0.9	520	523	27.8	43.8
2025-08-08T11:24	10	150	0.1	150	151	522	1.1	520	524	27.8	43.9
2025-08-08T11:25	10	150	0.1	150	151	521	1.2	520	523	27.8	44.6
2025-08-08T11:26	10	150	0.1	150	151	521	0.9	520	523	27.8	45.2
2025-08-08T11:27	10	150	0.1	150	151	521	0.6	520	522	27.8	45.1
2025-08-08T11:28	10	151	0.1	150	151	522	1.2	520	524	28.0	44.8
2025-08-08T11:29	10	151	0.1	150	151	521	1.2	520	524	28.0	44.3
2025-08-08T11:30	10	151	0.1	151	151	522	0.5	521	523	27.9	45.0
2025-08-08T11:31	10	151	0.2	151	151	523	0.5	522	524	27.9	44.1
2025-08-08T11:32	10	151	0.1	151	151	525	1.0	523	526	28.2	43.9
2025-08-08T11:33	10	151	0.1	151	151	525	1.2	523	527	28.5	43.5
2025-08-08T11:34	10	151	0.1	151	151	525	1.2	523	527	28.6	43.4
2025-08-08T11:35	10	151	0.1	151	151	524	0.8	523	526	28.4	43.5
2025-08-08T11:36	10	151	0.1	151	151	526	1.2	523	527	28.6	44.0
2025-08-08T11:37	10	151	0.1	151	151	523	0.5	523	525	28.1	43.5
2025-08-08T11:38	10	151	0.1	151	151	526	1.0	524	527	28.3	43.4
2025-08-08T11:39	10	151	0.1	151	151	523	1.4	519	525	28.0	42.7
2025-08-08T11:40	10	151	0.1	151	151	521	0.9	519	522	28.0	42.9
2025-08-08T11:41	10	151	0.1	151	152	523	0.6	521	524	28.2	43.3
2025-08-08T11:42	10	152	0.1	151	152	523	0.3	522	524	28.0	43.5
2025-08-08T11:43	10	152	0.1	152	152	523	0.4	522	524	28.3	43.3
2025-08-08T11:44	10	151	0.2	151	152	523	0.9	522	525	28.4	42.7
2025-08-08T11:45	10	151	0.2	151	151	523	0.5	522	524	28.6	41.7
2025-08-08T11:46	10	151	0.2	150	151	522	1.0	521	524	28.5	42.1
2025-08-08T11:47	10	151	0.2	150	151	525	0.8	523	526	28.9	42.3
2025-08-08T11:48	10	151	0.2	151	152	527	0.8	525	528	28.9	41.4
2025-08-08T11:49	10	151	0.2	150	151	525	1.0	523	527	29.0	40.5
2025-08-08T11:50	10	151	0.2	150	152	523	0.5	522	525	28.9	40.4
2025-08-08T11:51	10	151	0.2	150	151	525	0.8	523	526	29.3	38.9
2025-08-08T11:52	10	151	0.2	150	151	524	0.6	523	526	28.9	37.5
2025-08-08T11:53	10	151	0.3	150	151	527	1.3	525	529	28.8	38.0
2025-08-08T11:54	10	151	0.2	150	151	529	0.4	528	530	29.0	38.2
2025-08-08T11:55	10	151	0.3	150	152	530	2.0	527	533	29.5	39.0
2025-08-08T11:56	10	151	0.2	151	152	527	0.6	525	528	29.1	38.7
2025-08-08T11:57	10	151	0.2	151	152	524	0.8	523	526	29.3	36.3
2025-08-08T11:58	10	151	0.3	150	152	523	0.4	522	524	29.0	37.0
2025-08-08T11:59	10	151	0.2	150	151	525	1.0	523	527	29.2	37.7
2025-08-08T12:00	10	151	0.2	150	151	526	1.7	523	528	29.1	38.1
2025-08-08T12:01	10	151	0.2	150	151	526	1.7	523	529	29.5	37.5
2025-08-08T12:02	10	150	0.2	150	151	524	1.1	522	526	29.2	37.6
2025-08-08T12:03	10	151	0.2	150	151	526	1.1	524	528	29.0	38.8
2025-08-08T12:04	10	151	0.2	150	151	527	1.2	525	530	29.5	38.1
2025-08-08T12:05	10	151	0.2	151	152	525	0.5	524	526	29.5	37.2
2025-08-08T12:06	10	152	0.1	151	152	528	0.8	526	529	29.5	37.0
2025-08-08T12:07	10	151	0.2	151	152	527	1.4	525	530	29.4	37.3
2025-08-08T12:08	10	151	0.1	151	152	528	1.2	526	530	29.6	36.0
2025-08-08T12:09	10	151	0.1	151	152	531	0.6	529	532	29.6	35.9
2025-08-08T12:10	10	151	0.1	151	152	529	1.6	527	533	29.2	37.2
2025-08-08T12:11	10	152	0.2	151	152	528	0.7	527	530	29.1	36.9
2025-08-08T12:12	10	152	0.2	152	153	530	0.6	529	532	29.4	36.6
2025-08-08T12:13	10	152	0.3	152	153	528	0.8	526	530	29.4	38.2
2025-08-08T12:14	10	152	0.1	152	152	528	1.4	526	530	29.5	38.4
2025-08-08T12:15	10	151	0.2	151	152	525	2.4	521	528	29.7	37.1
2025-08-08T12:16	10	151	0.1	151	151	522	1.2	520	523	29.2	37.6
2025-08-08T12:17	10	151	0.2	151	151	524	1.8	521	528	29.0	38.5
2025-08-08T12:18	10	150	0.1	150	151	527	1.1	525	529	29.2	39.4
2025-08-08T12:19	10	150	0.1	150	151	524	1.2	523	527	29.5	37.9
2025-08-08T12:20	10	151	0.1	150	151	522	0.9	521	523	29.2	38.7
2025-08-08T12:21	10	151	0.1	150	151	523	1.1	521	525	29.2	39.1
2025-08-08T12:22	10	151	0.2	150	151	522	0.9	521	524	29.0	38.7
2025-08-08T12:23	10	150	0.1	150	151	526	1.5	523	529	29.4	38.3
2025-08-08T12:24	10	151	0.1	150	151	526	0.9	525	528	29.2	38.8
2025-08-08T12:25	10	151	0.2	150	151	529	1.1	528	532	29.4	38.8
2025-08-08T12:26	10	151	0.1	151	151	526	0.6	525	528	29.5	37.9
2025-08-08T12:27	10	151	0.1	150	151	526	1.0	523	527	29.2	38.3
2025-08-08T12:28	10	151	0.2	150	151	526	1.9	523	528	29.0	38.1
2025-08-08T12:29	10	150	0.2	150	151	529	0.9	528	531	29.2	37.3
2025-08-08T12:30	10	150	0.1	150	151	529	1.1	527	531	29.6	37.0
2025-08-08T12:31	10	150	0.1	150	151	525	0.9	523	527	29.6	36.6
2025-08-08T12:32	10	150	0.1	150	150	526	0.9	525	528	29.6	36.3
2025-08-08T12:33	10	150	0.1	150	150	526	1.3	523	528	29.7	36.5
2025-08-08T12:34	10	150	0.1	150	150	526	1.9	523	530	29.5	35.8
2025-08-08T12:35	10	150	0.1	149	150	528	0.5	527	529	30.1	33.9
2025-08-08T12:36	10	150	0.1	149	150	528	0.8	527	530	30.2	34.4
2025-08-08T12:37	10	150	0.1	150	150	528	0.5	527	529	30.2	34.0
2025-08-08T12:38	10	150	0.1	150	150	526	0.8	525	528	29.8	36.1
2025-08-08T12:39	10	150	0.1	149	150	527	1.2	525	529	29.9	36.2
2025-08-08T12:40	10	150	0.1	149	150	530	1.4	528	532	30.1	32.5
2025-08-08T12:41	10	150	0.1	150	150	527	2.9	524	531	30.4	31.2
2025-08-08T12:42	10	150	0.2	149	150	526	0.8	524	528	30.1	30.8
2025-08-08T12:43	10	149	0.1	149	149	530	1.0	527	531	30.2	30.2
2025-08-08T12:44	10	149	0.1	149	149	531	0.7	529	533	30.3	30.3
2025-08-08T12:45	10	149	0.1	149	149	531	2.0	529	534	30.5	31.7
2025-08-08T12:46	10	149	0.1	149	149	530	0.8	529	532	30.2	31.7
2025-08-08T12:47	10	149	0.1	148	149	533	1.2	531	534	30.7	31.6
2025-08-08T12:48	10	148	0.1	148	148	534	0.6	533	535	30.5	31.7
2025-08-08T12:49	10	148	0.1	148	148	532	1.0	530	534	30.6	32.6
2025-08-08T12:50	10	148	0.2	148	148	532	0.6	531	533	30.4	32.0
2025-08-08T12:51	10	148	0.1	148	148	531	1.9	527	533	30.4	31.9
2025-08-08T12:52	10	148	0.2	147	148	528	1.3	526	531	30.1	31.9
2025-08-08T12:53	10	147	0.1	147	147	534	2.3	530	537	30.4	31.8
2025-08-08T12:54	10	147	0.2	147	147	536	0.6	535	538	31.0	31.1
2025-08-08T12:55	10	147	0.1	147	147	536	0.8	534	537	30.8	31.3
2025-08-08T12:56	10	147	0.1	147	147	534	0.8	533	535	30.8	31.7
2025-08-08T12:57	10	147	0.2	147	148	533	0.6	533	535	31.0	31.9
2025-08-08T12:58	10	147	0.2	147	148	533	0.3	532	534	30.9	32.0
2025-08-08T12:59	10	148	0.3	147	148	532	1.6	530	534	31.1	24.4
2025-08-08T13:00	10	148	0.3	147	148	532	1.0	530	533	31.2	23.2
2025-08-08T13:01	10	147	0.2	147	148	531	1.1	530	534	31.3	22.9
2025-08-08T13:02	10	147	0.2	147	147	532	0.8	530	534	31.6	23.1
2025-08-08T13:03	10	147	0.2	147	148	528	1.5	526	532	31.9	22.8
2025-08-08T13:04	10	147	0.2	146	147	526	1.0	524	527	31.6	22.9
2025-08-08T13:05	10	146	0.2	146	147	525	0.3	524	526	31.3	23.0
2025-08-08T13:06	10	146	0.1	146	146	526	1.2	524	528	31.3	23.3
2025-08-08T13:07	10	146	0.1	146	146	532	2.3	527	534	31.5	23.5
2025-08-08T13:08	10	146	0.1	146	146	531	1.2	530	534	31.4	23.7
2025-08-08T13:09	10	146	0.1	146	146	533	0.9	532	535	31.6	23.7
2025-08-08T13:10	10	146	0.1	146	146	530	1.3	528	532	31.5	23.4
2025-08-08T13:11	10	146	0.1	146	146	529	0.8	526	530	31.6	23.7
2025-08-08T13:12	10	146	0.2	145	146	528	1.0	527	531	31.7	23.7
2025-08-08T13:13	10	146	0.1	145	146	530	0.7	528	531	31.8	23.2
2025-08-08T13:14	10	145	0.1	145	145	533	1.1	531	535	31.5	23.3
2025-08-08T13:15	10	145	0.1	145	145	530	1.0	528	532	31.6	23.4
2025-08-08T13:16	10	145	0.2	145	145	528	0.9	526	531	31.5	23.6
2025-08-08T13:17	10	145	0.2	145	145	527	1.0	526	529	31.6	23.6
2025-08-08T13:18	10	145	0.1	145	145	528	1.0	526	529	31.8	23.8
2025-08-08T13:19	10	144	0.2	144	145	529	1.1	527	532	31.8	24.1
2025-08-08T13:20	10	144	0.1	144	144	532	2.1	526	534	32.0	24.2
2025-08-08T13:21	10	144	0.2	144	144	528	1.9	526	532	31.8	24.5
2025-08-08T13:22	10	144	0.2	143	144	533	0.6	531	534	32.0	24.2
2025-08-08T13:23	10	144	0.1	143	144	530	1.4	527	532	32.1	24.1
2025-08-08T13:24	10	143	0.1	143	144	533	0.6	532	534	32.1	24.1
2025-08-08T13:25	10	143	0.1	143	144	532	1.7	529	534	32.2	24.1
2025-08-08T13:26	10	143	0.1	143	144	529	1.5	527	532	31.9	24.0
2025-08-08T13:27	10	143	0.2	143	144	527	0.6	526	529	31.6	24.3
2025-08-08T13:28	10	143	0.2	142	143	526	0.6	525	528	31.5	24.3
2025-08-08T13:29	10	142	0.1	142	143	530	2.2	526	533	31.5	24.3
2025-08-08T13:30	10	142	0.2	142	143	531	2.6	526	533	31.8	24.4
2025-08-08T13:31	10	142	0.1	141	142	527	0.8	525	528	31.6	24.5
2025-08-08T13:32	10	141	0.2	141	142	528	0.9	526	530	31.6	24.7
2025-08-08T13:33	10	141	0.2	141	142	528	0.7	526	529	31.6	24.6
2025-08-08T13:34	10	141	0.1	141	141	527	1.2	525	530	31.6	24.5
2025-08-08T13:35	10	141	0.1	140	141	528	1.5	525	530	31.7	24.5
2025-08-08T13:36	10	141	0.1	140	141	530	0.9	529	532	31.7	24.3
2025-08-08T13:37	10	140	0.2	140	141	531	1.0	530	533	31.6	24.1
2025-08-08T13:38	10	140	0.1	140	140	533	0.7	531	534	31.6	24.3
2025-08-08T13:39	10	140	0.1	140	140	535	0.7	532	536	31.8	24.5
2025-08-08T13:40	10	140	0.1	139	140	530	1.5	527	532	31.9	24.4
2025-08-08T13:41	10	139	0.1	139	139	528	0.6	526	529	31.8	24.4
2025-08-08T13:42	10	139	0.1	139	139	527	0.6	526	529	31.9	24.4
2025-08-08T13:43	10	139	0.1	139	139	527	0.8	525	528	31.8	24.2
2025-08-08T13:44	10	139	0.1	138	139	530	1.3	528	533	31.6	24.3
2025-08-08T13:45	10	138	0.1	138	139	530	1.3	529	533	31.7	24.4
2025-08-08T13:46	10	138	0.1	138	138	533	1.2	530	535	32.3	24.3
2025-08-08T13:47	10	138	0.1	137	138	531	0.6	530	532	32.2	24.0
2025-08-08T13:48	10	137	0.1	137	138	532	0.7	530	533	32.4	24.4
2025-08-08T13:49	10	137	0.1	137	138	528	2.2	525	532	32.1	24.6
2025-08-08T13:50	10	137	0.2	137	137	527	0.9	526	529	31.8	24.9
2025-08-08T13:51	10	137	0.1	137	137	529	1.0	527	531	31.9	25.1
2025-08-08T13:52	10	137	0.1	137	137	530	1.2	528	533	32.3	25.1
2025-08-08T13:53	10	137	0.1	136	137	531	1.7	529	534	32.6	24.6
2025-08-08T13:54	10	136	0.1	136	136	532	1.3	530	534	32.8	24.5
2025-08-08T13:55	10	136	0.1	136	136	531	1.3	529	534	32.7	24.7
2025-08-08T13:56	10	136	0.2	136	136	530	0.6	529	531	32.6	24.8
2025-08-08T13:57	10	136	0.1	136	136	531	0.5	530	532	32.6	24.7
2025-08-08T13:58	10	136	0.1	135	136	531	1.1	529	532	32.5	24.6
2025-08-08T13:59	10	135	0.2	135	136	530	1.3	528	532	32.3	24.8
2025-08-08T14:00	10	135	0.1	135	135	529	0.6	527	530	32.3	24.8
2025-08-08T14:01	10	135	0.2	134	135	526	1.2	525	529	32.0	25.1
2025-08-08T14:02	10	134	0.2	134	135	527	1.2	525	529	32.1	25.3
2025-08-08T14:03	10	134	0.3	133	135	526	1.4	524	529	31.9	25.2
2025-08-08T14:04	10	134	0.2	133	134	528	1.7	526	531	32.1	25.3
2025-08-08T14:05	10	133	0.2	133	134	529	1.3	526	531	32.2	25.1
2025-08-08T14:06	10	133	0.3	133	134	527	0.7	525	527	32.0	25.2
2025-08-08T14:07	10	133	0.3	132	133	524	0.9	522	526	31.8	25.4
2025-08-08T14:08	10	132	0.3	132	133	524	1.4	522	527	31.9	25.4
2025-08-08T14:09	10	132	0.3	131	133	527	0.6	526	528	32.3	25.1
2025-08-08T14:10	10	132	0.2	131	132	525	1.2	524	528	32.0	25.0
2025-08-08T14:11	10	132	0.2	131	132	524	1.0	522	526	32.1	25.2
2025-08-08T14:12	10	131	0.2	131	132	524	1.1	522	526	31.9	25.6
2025-08-08T14:13	10	131	0.2	131	132	524	1.1	523	526	31.7	25.5
2025-08-08T14:14	10	131	0.2	131	131	525	1.0	523	526	31.8	25.4
2025-08-08T14:15	10	131	0.1	131	131	524	0.8	523	525	32.1	24.6
2025-08-08T14:16	10	131	0.1	131	131	524	0.9	522	526	31.9	24.6
2025-08-08T14:17	10	130	0.1	130	131	526	1.5	524	529	32.1	24.6
2025-08-08T14:18	10	130	0.1	130	130	524	0.5	523	525	31.9	24.4
2025-08-08T14:19	10	130	0.1	129	130	526	0.9	525	528	31.9	24.6
2025-08-08T14:20	10	129	0.1	129	129	530	1.0	528	531	32.0	24.7
2025-08-08T14:21	10	129	0.1	129	129	529	1.3	527	532	32.3	24.6
2025-08-08T14:22	10	129	0.1	129	129	529	0.9	527	531	32.2	24.8
2025-08-08T14:23	10	129	0.1	129	129	527	2.7	524	532	32.3	24.8
2025-08-08T14:24	10	129	0.2	128	129	527	1.3	525	530	32.5	24.9
2025-08-08T14:25	10	128	0.1	128	128	529	0.7	527	530	32.6	25.8
2025-08-08T14:26	10	128	0.2	128	128	525	1.0	524	527	32.3	26.5
2025-08-08T14:27	10	128	0.2	127	128	526	1.5	524	529	32.2	26.8
2025-08-08T14:28	10	127	0.1	127	127	527	2.3	522	530	32.5	26.5
2025-08-08T14:29	10	127	0.1	127	127	523	0.6	522	524	32.4	25.4
2025-08-08T14:30	10	127	0.2	126	127	526	0.5	524	527	32.0	25.5
2025-08-08T14:31	10	126	0.1	126	126	526	0.7	525	528	32.0	25.9
2025-08-08T14:32	10	126	0.2	125	126	523	1.0	522	526	32.2	25.0
2025-08-08T14:33	10	125	0.1	125	126	523	0.9	522	525	32.3	25.0
2025-08-08T14:34	10	125	0.2	125	125	522	1.1	520	524	32.3	25.1
2025-08-08T14:35	10	125	0.1	124	125	525	0.6	523	526	32.3	25.2
2025-08-08T14:36	10	124	0.2	124	125	525	1.3	523	527	32.4	25.6
2025-08-08T14:37	10	124	0.2	124	124	524	0.4	523	525	32.3	25.7
2025-08-08T14:38	10	123	0.1	123	124	525	1.3	522	527	32.6	26.0
2025-08-08T14:39	10	123	0.2	123	124	521	0.8	520	523	32.5	26.5
2025-08-08T14:40	10	123	0.2	123	123	522	0.7	521	524	32.5	26.0
2025-08-08T14:41	10	123	0.2	122	123	524	0.8	522	525	32.5	26.9
2025-08-08T14:42	10	123	0.1	122	123	522	1.5	520	524	32.5	25.9
2025-08-08T14:43	10	122	0.2	122	123	520	0.6	519	521	32.3	24.9
2025-08-08T14:44	10	122	0.1	122	122	522	0.8	520	523	32.2	25.3
2025-08-08T14:45	10	122	0.2	121	122	521	1.6	518	523	32.6	25.2
2025-08-08T14:46	10	122	0.2	121	122	518	1.1	516	521	32.3	25.1
2025-08-08T14:47	10	121	0.2	121	121	521	0.4	520	522	32.2	25.3
2025-08-08T14:48	10	120	0.3	120	121	520	0.8	519	522	32.0	25.3
2025-08-08T14:49	10	120	0.1	120	120	522	0.7	521	523	32.0	25.3
2025-08-08T14:50	10	120	0.1	119	120	523	0.5	522	524	32.1	25.3
2025-08-08T14:51	10	119	0.2	119	120	523	0.6	522	524	32.1	25.1
2025-08-08T14:52	10	119	0.2	119	119	524	0.7	522	525	32.4	25.2
2025-08-08T14:53	10	119	0.2	118	119	523	0.7	522	525	32.6	24.7
2025-08-08T14:54	10	118	0.2	118	119	522	1.0	520	524	32.9	25.1
2025-08-08T14:55	10	118	0.3	117	118	515	2.7	513	521	32.4	26.4
2025-08-08T14:56	10	117	0.2	117	118	513	1.2	511	515	32.0	27.0
2025-08-08T14:57	10	117	0.2	117	117	513	0.3	512	513	31.8	27.3
2025-08-08T14:58	10	117	0.2	116	117	516	1.8	513	519	31.7	27.4
2025-08-08T14:59	10	116	0.1	116	116	518	1.3	516	520	32.0	27.5
2025-08-08T15:00	10	116	0.2	116	116	518	1.3	516	520	31.9	27.4
2025-08-08T15:01	10	116	0.1	115	116	518	0.8	516	520	32.1	27.0
2025-08-08T15:02	10	115	0.1	115	116	516	0.5	515	517	32.0	26.9
2025-08-08T15:03	10	115	0.2	115	115	515	0.7	514	517	31.9	27.1
2025-08-08T15:04	10	115	0.2	114	115	517	0.5	516	518	32.2	27.1
2025-08-08T15:05	10	114	0.1	114	115	516	1.6	514	519	32.2	26.6
2025-08-08T15:06	10	114	0.1	114	114	514	0.5	513	515	31.8	26.8
2025-08-08T15:07	10	114	0.2	113	114	514	0.5	513	515	31.8	26.8
2025-08-08T15:08	10	113	0.2	113	114	514	0.9	512	515	32.0	26.7
2025-08-08T15:09	10	113	0.1	112	113	514	1.1	512	516	31.8	26.8
2025-08-08T15:10	10	112	0.2	112	113	515	0.9	514	517	31.9	26.8
2025-08-08T15:11	10	112	0.1	112	112	514	0.7	513	516	31.9	26.6
2025-08-08T15:12	10	111	0.1	111	112	513	0.6	512	514	31.8	26.6
2025-08-08T15:13	10	111	0.1	111	112	514	1.0	513	516	32.0	26.5
2025-08-08T15:14	10	111	0.1	111	111	515	1.0	513	516	32.1	26.3
2025-08-08T15:15	10	111	0.2	110	111	513	0.6	512	514	32.0	26.4
2025-08-08T15:16	10	110	0.1	110	111	513	0.7	512	515	31.9	26.5
2025-08-08T15:17	10	110	0.2	110	110	513	0.7	511	514	31.8	26.5
2025-08-08T15:18	10	110	0.1	109	110	514	1.0	512	516	32.2	26.4
2025-08-08T15:19	10	109	0.1	109	109	514	1.1	512	516	32.0	26.5
2025-08-08T15:20	10	109	0.1	109	109	516	0.4	516	517	32.3	26.4
2025-08-08T15:21	10	109	0.1	109	109	515	0.4	514	516	32.3	26.6
2025-08-08T15:22	10	109	0.2	108	109	512	1.2	510	515	32.4	26.5
2025-08-08T15:23	10	109	0.2	108	109	511	0.5	511	513	32.2	26.3
2025-08-08T15:24	10	108	0.2	108	108	510	0.4	510	511	31.9	26.7
2025-08-08T15:25	10	108	0.2	107	108	513	0.6	512	514	32.0	27.0
2025-08-08T15:26	10	107	0.2	106	107	511	1.1	508	512	32.2	26.7
2025-08-08T15:27	10	106	0.1	106	107	509	0.6	508	510	31.9	26.9
2025-08-08T15:28	10	106	0.1	106	106	509	0.4	508	510	32.0	27.0
2025-08-08T15:29	10	106	0.1	106	106	509	0.4	508	510	31.9	27.0
2025-08-08T15:30	10	106	0.1	106	106	509	0.9	508	511	31.8	26.9
2025-08-08T15:31	10	105	0.4	105	106	511	0.4	510	512	32.0	26.9
2025-08-08T15:32	10	105	0.1	104	105	512	1.0	510	514	32.3	26.9
2025-08-08T15:33	10	104	0.1	104	104	511	0.8	510	513	32.5	26.7
2025-08-08T15:34	10	104	0.2	104	104	510	1.3	508	512	32.3	26.9
2025-08-08T15:35	10	104	0.1	103	104	508	0.5	507	509	32.2	27.2
2025-08-08T15:36	10	103	0.1	103	104	510	0.3	509	510	32.4	26.9
2025-08-08T15:37	10	103	0.2	103	104	509	1.3	506	510	32.3	26.6
2025-08-08T15:38	10	103	0.2	102	103	506	0.6	505	507	32.0	26.6
2025-08-08T15:39	10	102	0.3	102	103	507	0.4	506	508	32.1	26.7
2025-08-08T15:40	10	101	0.2	101	102	507	0.8	506	509	32.2	26.9
2025-08-08T15:41	10	101	0.2	100	101	507	1.0	505	508	32.3	27.1
2025-08-08T15:42	10	100	0.2	100	101	505	1.0	504	508	32.1	27.0
2025-08-08T15:43	10	100	0.2	99	100	506	0.7	505	508	32.2	27.1
2025-08-08T15:44	10	99	0.2	99	100	504	1.3	503	507	32.2	26.9
2025-08-08T15:45	10	98	0.2	98	99	504	0.5	503	505	32.2	26.9
2025-08-08T15:46	10	98	0.1	98	98	503	0.6	502	504	32.1	26.6
2025-08-08T15:47	10	98	0.2	97	98	504	1.0	502	505	32.0	27.0
2025-08-08T15:48	10	98	0.1	97	98	505	0.7	504	507	32.3	26.8
2025-08-08T15:49	10	97	0.1	97	98	506	0.7	504	507	32.4	26.5
2025-08-08T15:50	10	97	0.2	97	98	504	0.7	503	506	32.1	26.5
2025-08-08T15:51	10	97	0.3	96	97	503	0.7	502	504	32.0	26.2
2025-08-08T15:52	10	96	0.3	95	96	503	0.6	502	504	32.0	26.4
2025-08-08T15:53	10	95	0.2	95	95	503	0.6	502	504	32.1	26.2
2025-08-08T15:54	10	95	0.1	94	95	504	0.7	503	505	32.3	26.3
2025-08-08T15:55	10	94	0.2	94	95	501	0.8	500	503	32.4	26.2
2025-08-08T15:56	10	94	0.2	93	94	502	1.1	501	504	32.3	26.4
2025-08-08T15:57	10	93	0.2	93	94	504	0.6	503	505	32.3	26.4
2025-08-08T15:58	10	93	0.1	93	93	504	0.6	503	506	32.5	26.5
2025-08-08T15:59	10	93	0.1	93	93	503	0.8	502	505	32.4	26.5
2025-08-08T16:00	10	92	0.3	92	93	501	1.9	499	505	32.1	26.3
2025-08-08T16:01	10	92	0.2	91	92	499	0.6	498	500	32.1	26.5
2025-08-08T16:02	10	91	0.2	91	92	499	0.5	498	500	32.2	26.5
2025-08-08T16:03	10	91	0.2	90	91	497	0.6	496	498	31.8	26.6
2025-08-08T16:04	10	90	0.3	89	90	496	0.3	495	497	31.7	26.7
2025-08-08T16:05	10	89	0.3	89	90	497	1.0	495	499	31.7	26.8
2025-08-08T16:06	10	89	0.2	88	89	499	0.5	498	500	32.0	26.7
2025-08-08T16:07	10	89	0.2	88	89	499	0.5	498	501	32.1	26.7
2025-08-08T16:08	10	88	0.2	88	89	498	0.3	498	499	32.1	26.9
2025-08-08T16:09	10	88	0.1	88	88	499	0.3	499	500	32.0	26.9
2025-08-08T16:10	10	88	0.2	88	89	499	1.3	496	501	32.2	26.9
2025-08-08T16:11	10	88	0.2	87	89	497	0.5	496	498	31.9	27.0
2025-08-08T16:12	10	87	0.3	87	88	497	0.4	496	497	32.0	26.9
2025-08-08T16:13	10	87	0.3	86	88	498	0.8	497	499	32.0	27.1
2025-08-08T16:14	10	86	0.2	86	87	497	1.5	495	499	32.2	27.1
2025-08-08T16:15	10	86	0.2	86	86	495	0.4	494	496	31.9	27.3
2025-08-08T16:16	10	85	0.2	85	86	495	0.4	495	496	31.8	27.4
2025-08-08T16:17	10	85	0.2	84	85	495	0.6	493	496	31.8	27.4
2025-08-08T16:18	10	84	0.2	84	84	493	0.4	492	494	31.6	27.5
2025-08-08T16:19	10	84	0.2	83	84	495	1.0	493	496	31.8	27.6
2025-08-08T16:20	10	83	0.2	83	83	494	0.7	493	495	31.8	27.4
2025-08-08T16:21	10	83	0.2	82	83	493	0.4	493	494	31.7	27.5
2025-08-08T16:22	10	82	0.2	82	82	493	0.5	492	494	31.8	27.5
2025-08-08T16:23	10	81	0.2	81	82	494	0.6	493	495	31.8	27.6
2025-08-08T16:24	10	81	0.2	81	81	492	0.8	491	495	31.7	27.5
2025-08-08T16:25	10	81	0.2	80	81	493	0.3	492	493	31.7	27.7
2025-08-08T16:26	10	80	0.2	80	80	493	0.7	492	494	31.9	27.8
2025-08-08T16:27	10	80	0.2	79	80	495	0.6	493	495	32.2	27.6
2025-08-08T16:28	10	79	0.2	79	80	493	0.8	491	494	32.0	27.6
2025-08-08T16:29	10	79	0.3	78	80	492	0.3	491	492	31.8	27.8
2025-08-08T16:30	10	78	0.2	78	79	491	0.3	491	492	31.8	27.9
2025-08-08T16:31	10	78	0.2	77	78	492	0.3	491	492	31.9	27.8
2025-08-08T16:32	10	77	0.1	77	77	491	0.3	491	492	32.0	27.8
2025-08-08T16:33	10	77	0.2	76	78	490	0.7	489	491	31.7	27.9
2025-08-08T16:34	10	76	0.2	76	77	489	0.4	488	490	31.7	28.0
2025-08-08T16:35	10	76	0.2	75	76	489	0.3	488	490	31.6	27.9
2025-08-08T16:36	10	75	0.2	75	76	489	0.4	488	490	31.8	28.0
2025-08-08T16:37	10	75	0.2	74	75	489	0.4	489	490	31.8	28.0
2025-08-08T16:38	10	74	0.2	74	75	488	0.3	488	489	31.7	27.8
2025-08-08T16:39	10	74	0.3	73	75	488	0.3	487	489	31.6	27.8
2025-08-08T16:40	10	73	0.2	73	74	488	0.3	487	488	31.6	28.2
2025-08-08T16:41	10	73	0.1	72	73	488	0.3	488	489	31.7	28.2
2025-08-08T16:42	10	72	0.2	72	73	487	0.4	486	488	31.8	28.2
2025-08-08T16:43	10	72	0.2	71	72	488	0.4	487	488	31.7	28.2
2025-08-08T16:44	10	71	0.2	71	72	487	0.3	486	488	31.6	28.3
2025-08-08T16:45	10	71	0.2	70	72	488	0.3	487	488	31.7	28.5
2025-08-08T16:46	10	70	0.2	70	71	487	0.3	486	488	31.6	28.5
2025-08-08T16:47	10	70	0.2	69	70	487	0.8	485	488	31.7	28.7
2025-08-08T16:48	10	69	0.3	69	70	486	0.4	485	487	31.6	28.5
2025-08-08T16:49	10	69	0.2	69	70	486	0.3	485	487	31.6	28.6
2025-08-08T16:50	10	68	0.3	68	69	485	0.3	485	486	31.6	28.7
2025-08-08T16:51	10	68	0.4	67	69	484	0.4	483	485	31.5	29.0
2025-08-08T16:52	10	67	0.3	67	68	484	0.6	483	486	31.4	29.1
2025-08-08T16:53	10	66	0.3	66	67	484	0.3	483	485	31.6	29.1
2025-08-08T16:54	10	66	0.3	65	66	483	0.4	483	484	31.5	29.2
2025-08-08T16:55	10	65	0.3	65	66	483	0.6	482	484	31.6	29.3
2025-08-08T16:56	10	65	0.3	64	66	483	0.6	482	484	31.5	29.6
2025-08-08T16:57	10	64	0.3	64	65	484	0.3	483	484	31.6	29.7
2025-08-08T16:58	10	64	0.2	63	65	484	0.3	483	485	31.8	29.6
2025-08-08T16:59	10	63	0.2	63	64	483	0.3	482	484	31.7	29.7
2025-08-08T17:00	10	63	0.3	62	64	483	0.3	482	483	31.6	30.0
2025-08-08T17:01	10	62	0.3	62	63	482	0.7	481	483	31.2	31.1
2025-08-08T17:02	10	62	0.2	62	62	482	0.2	481	482	31.1	31.6
2025-08-08T17:03	10	61	0.3	61	62	481	0.8	479	482	31.1	31.0
2025-08-08T17:04	10	61	0.2	60	61	480	0.3	479	480	31.1	30.7
2025-08-08T17:05	10	60	0.3	59	61	479	0.3	479	480	31.1	30.5
2025-08-08T17:06	10	60	0.3	59	61	479	0.3	478	480	31.0	30.9
2025-08-08T17:07	10	59	0.2	59	59	479	0.3	478	479	31.0	31.1
2025-08-08T17:08	10	58	0.2	58	59	478	0.2	477	478	31.0	30.4
2025-08-08T17:09	10	58	0.2	57	58	477	0.4	477	478	30.9	30.4
2025-08-08T17:10	10	57	0.2	57	58	477	0.2	477	477	31.0	31.2
2025-08-08T17:11	10	57	0.2	56	57	477	0.2	476	478	31.0	31.7
2025-08-08T17:12	10	56	0.3	55	57	477	0.3	476	477	31.0	31.8
2025-08-08T17:13	10	55	0.3	55	56	476	0.3	476	477	30.9	31.7
2025-08-08T17:14	10	55	0.3	54	56	476	0.3	475	476	30.9	31.7
2025-08-08T17:15	10	54	0.3	54	55	475	0.3	474	475	30.8	31.7
2025-08-08T17:16	10	54	0.3	53	55	474	0.3	474	475	30.8	32.1
2025-08-08T17:17	10	53	0.2	53	53	474	0.2	474	475	30.8	32.2
2025-08-08T17:18	10	52	0.2	52	53	474	0.3	473	475	30.8	32.0
2025-08-08T17:19	10	52	0.3	51	52	473	0.3	472	473	30.8	31.9
2025-08-08T17:20	10	51	0.2	50	51	472	0.3	472	473	30.8	32.3
2025-08-08T17:21	10	50	0.3	49	51	472	0.2	471	472	30.7	33.0
2025-08-08T17:22	10	50	0.2	49	50	471	0.3	471	472	30.6	32.5
2025-08-08T17:23	10	49	0.2	49	50	471	0.2	470	471	30.6	32.5
2025-08-08T17:24	10	49	0.2	48	49	470	0.2	470	471	30.6	32.5
2025-08-08T17:25	10	48	0.2	48	48	470	0.2	469	471	30.6	32.8
2025-08-08T17:26	10	47	0.3	47	48	470	0.2	469	470	30.5	33.3
2025-08-08T17:27	10	47	0.2	46	47	469	0.2	469	470	30.5	33.7
2025-08-08T17:28	10	46	0.2	46	47	470	0.3	469	470	30.6	32.5
2025-08-08T17:29	10	45	0.2	45	46	469	0.2	468	469	30.6	32.9
2025-08-08T17:30	10	45	0.2	44	45	468	0.3	467	469	30.5	32.9
2025-08-08T17:31	10	44	0.2	44	45	468	0.2	467	468	30.5	33.2
2025-08-08T17:32	10	44	0.3	43	45	468	0.3	467	469	30.5	33.0
2025-08-08T17:33	10	43	0.3	43	44	467	0.4	466	468	30.5	33.3
2025-08-08T17:34	10	43	0.3	42	43	467	0.3	466	468	30.5	33.1
2025-08-08T17:35	10	42	0.3	41	42	466	0.3	465	467	30.5	33.1
2025-08-08T17:36	10	41	0.3	41	43	466	0.3	465	467	30.4	33.8
2025-08-08T17:37	10	41	0.2	40	41	465	0.2	465	466	30.4	33.5
2025-08-08T17:38	10	40	0.3	40	41	465	0.3	464	466	30.5	33.8
2025-08-08T17:39	10	40	0.4	39	41	465	0.3	464	466	30.5	33.6
2025-08-08T17:40	10	39	0.3	38	40	464	0.3	464	465	30.5	33.8
2025-08-08T17:41	10	38	0.2	38	39	464	0.2	464	465	30.4	33.9
2025-08-08T17:42	10	38	0.3	37	39	463	0.3	463	464	30.4	34.2
2025-08-08T17:43	10	37	0.3	36	38	463	0.3	462	464	30.3	34.4
2025-08-08T17:44	10	36	0.4	36	38	463	0.4	462	464	30.3	34.3
2025-08-08T17:45	10	36	0.3	35	36	462	0.2	462	463	30.3	34.3
2025-08-08T17:46	10	35	0.3	34	36	462	0.3	461	463	30.3	34.8
2025-08-08T17:47	10	34	0.3	34	35	461	0.3	461	462	30.2	35.1
2025-08-08T17:48	10	34	0.3	33	35	461	0.3	460	461	30.1	35.7
2025-08-08T17:49	10	33	0.4	32	34	460	0.3	460	461	30.1	35.1
2025-08-08T17:50	10	32	0.3	32	33	461	0.3	460	461	30.1	35.3
2025-08-08T17:51	10	32	0.3	31	33	460	0.4	459	461	30.1	35.9
2025-08-08T17:52	10	31	0.3	30	32	459	0.3	458	460	30.0	36.3
2025-08-08T17:53	10	31	0.2	30	31	459	0.2	458	459	30.0	36.1
2025-08-08T17:54	10	30	0.3	29	31	458	0.3	458	459	30.0	35.5
2025-08-08T17:55	10	29	0.3	29	30	458	0.2	458	458	30.0	36.0
2025-08-08T17:56	10	29	0.3	28	29	458	0.3	457	458	29.9	35.6
2025-08-08T17:57	10	28	0.2	27	28	458	0.2	457	458	30.0	35.6
2025-08-08T17:58	10	27	0.3	26	28	457	0.2	456	457	30.0	35.4
2025-08-08T17:59	10	26	0.3	26	28	456	0.3	456	457	30.0	35.6
2025-08-08T18:00	10	26	0.2	25	26	456	0.2	456	457	30.0	35.1
2025-08-08T18:01	10	25	0.2	25	26	456	0.3	455	456	30.0	35.1
2025-08-08T18:02	10	24	0.3	23	25	455	0.5	453	455	30.0	35.5
2025-08-08T18:03	10	23	0.2	23	24	453	0.2	453	454	29.9	36.0
2025-08-08T18:04	10	23	0.2	22	23	453	0.4	452	453	29.8	36.7
2025-08-08T18:05	10	22	0.3	22	23	452	0.2	452	453	29.7	36.7
2025-08-08T18:06	10	21	0.2	21	22	452	0.2	451	452	29.7	36.7
2025-08-08T18:07	10	21	0.2	20	21	451	0.3	450	452	29.7	36.7
2025-08-08T18:08	10	20	0.3	19	20	450	0.2	450	451	29.6	36.9
2025-08-08T18:09	10	19	0.3	19	19	450	0.2	450	451	29.6	37.2
2025-08-08T18:10	10	18	0.2	18	18	450	0.5	449	451	29.6	36.7
2025-08-08T18:11	10	17	0.3	17	18	449	0.2	449	450	29.6	36.8
2025-08-08T18:12	10	16	0.5	15	17	449	0.2	448	449	29.6	36.8
2025-08-08T18:13	10	15	0.3	14	15	448	0.2	447	448	29.6	36.2
2025-08-08T18:14	10	14	0.1	14	14	447	0.3	447	448	29.7	36.3
2025-08-08T18:15	10	15	0.3	14	15	447	0.2	446	447	29.5	36.8
2025-08-08T18:16	10	15	0.2	15	15	446	0.3	445	447	29.5	37.0
2025-08-08T18:17	10	15	0.2	14	15	445	0.4	444	446	29.5	36.9
2025-08-08T18:18	10	14	0.2	14	14	445	0.3	444	445	29.4	37.2
2025-08-08T18:19	10	13	0.2	13	14	444	0.3	443	445	29.2	38.0
2025-08-08T18:20	10	13	0.3	12	13	443	0.3	443	444	29.0	38.6
2025-08-08T18:21	10	11	0.3	11	12	443	0.3	442	443	28.9	39.2
2025-08-08T18:22	10	11	0.1	10	11	442	0.2	442	443	28.8	39.6
2025-08-08T18:23	10	10	0.1	10	10	442	0.3	441	442	28.8	39.5
2025-08-08T18:24	10	10	0.1	9	10	441	0.3	440	442	28.7	39.5
2025-08-08T18:25	10	9	0.2	9	10	440	0.4	440	441	28.7	39.6
2025-08-08T18:26	10	9	0.1	9	9	440	0.5	439	442	28.7	39.8
2025-08-08T18:27	10	9	0.3	8	9	440	0.2	439	441	28.7	39.9
2025-08-08T18:28	10	8	0.2	8	8	439	0.3	438	440	28.6	40.2
2025-08-08T18:29	10	7	0.2	7	8	438	0.3	438	439	28.5	40.8
2025-08-08T18:30	10	7	0.2	7	7	439	0.3	438	439	28.4	40.8
2025-08-08T18:31	10	7	0.2	6	7	438	0.4	437	439	28.5	40.3
2025-08-08T18:32	10	6	0.1	6	7	437	0.3	437	438	28.3	41.3
2025-08-08T18:33	10	6	0.2	5	6	438	0.4	437	439	28.3	41.1
2025-08-08T18:34	10	5	0.2	5	6	438	0.2	437	438	28.3	41.0
2025-08-08T18:35	10	5	0.2	4	5	437	0.3	437	438	28.3	41.0
2025-08-08T18:36	10	4	0.2	4	4	436	0.2	436	437	28.3	40.9
2025-08-08T18:37	10	3	0.2	3	4	436	0.3	435	437	28.4	40.7
2025-08-08T18:38	10	3	0.1	2	3	436	0.3	435	436	28.4	40.7
2025-08-08T18:39	10	2	0.1	2	2	435	0.3	434	436	28.3	41.0
2025-08-08T18:40	10	2	0.1	2	2	435	0.4	434	435	28.2	41.5
2025-08-08T18:41	10	2	0.1	2	2	434	0.4	434	435	28.2	41.1
2025-08-08T18:42	10	2	0.1	2	2	434	0.4	433	435	28.1	41.6
2025-08-08T18:43	10	2	0.1	2	2	433	0.4	432	434	28.0	41.4
2025-08-08T18:44	10	2	0.0	1	2	434	0.6	433	435	28.3	39.8
2025-08-08T18:45	10	1	0.1	1	2	434	0.3	433	435	28.4	39.6
2025-08-08T18:46	10	1	0.2	1	2	433	0.4	432	434	28.4	39.6
2025-08-08T18:47	10	1	0.2	1	2	432	0.3	432	433	28.3	39.7
2025-08-08T18:48	10	1	0.3	1	2	432	0.5	431	433	28.3	39.8
2025-08-08T18:49	10	1	0.2	1	1	433	0.4	432	433	28.4	39.2
2025-08-08T18:50	10	1	0.3	1	2	432	0.5	432	434	28.4	38.8
2025-08-08T18:51	10	1	0.1	1	1	433	0.4	432	433	28.5	38.3
2025-08-08T18:52	10	1	0.1	1	1	432	0.3	431	433	28.4	38.7
2025-08-08T18:53	10	1	0.1	1	1	433	0.3	432	433	28.5	38.5
2025-08-08T18:54	10	1	0.1	1	1	432	0.4	431	433	28.3	39.1
2025-08-08T18:55	10	1	0.1	0	1	432	0.4	431	432	28.3	39.0
2025-08-08T18:56	10	1	0.1	0	1	431	0.3	430	432	28.2	39.2
2025-08-08T18:57	10	1	0.1	0	1	431	0.6	429	432	28.1	39.8
2025-08-08T18:58	10	1	0.1	0	1	430	0.3	429	430	27.6	43.0
2025-08-08T18:59	10	0	0.1	0	1	428	0.5	428	429	27.3	44.5
2025-08-08T19:00	10	0	0.1	0	1	428	0.3	428	429	27.1	45.1
2025-08-08T19:01	10	0	0.1	0	0	428	0.2	427	428	27.2	44.6
2025-08-08T19:02	10	0	0.1	0	0	427	0.3	427	428	27.0	45.8
2025-08-08T19:03	10	0	0.1	0	0	427	0.3	426	427	26.9	46.6
2025-08-08T19:04	10	0	0.1	0	0	426	0.3	425	427	26.7	47.1
2025-08-08T19:05	10	0	0.1	0	0	426	0.2	425	426	26.7	47.3
2025-08-08T19:06	10	0	0.1	0	0	426	0.4	425	426	26.6	47.2
2025-08-08T19:07	10	0	0.1	0	0	426	0.3	425	426	26.6	47.0
2025-08-08T19:08	10	0	0.1	0	0	425	0.3	425	426	26.6	47.3
2025-08-08T19:09	10	0	0.1	0	0	425	0.2	424	425	26.4	47.8
2025-08-08T19:10	10	0	0.1	0	0	424	0.3	424	425	26.4	48.0
2025-08-08T19:11	10	0	0.1	0	0	424	0.3	424	425	26.4	47.5
2025-08-08T19:12	10	0	0.1	0	0	424	0.2	424	425	26.5	47.6
2025-08-08T19:13	10	0	0.1	0	0	424	0.4	423	425	26.4	47.5
2025-08-08T19:14	10	0	0.1	0	0	423	0.2	423	424	26.2	48.1
2025-08-08T19:15	10	0	0.1	0	0	423	0.3	423	424	26.2	48.3
2025-08-08T19:16	10	0	0.1	0	0	423	0.2	423	424	26.3	48.3
2025-08-08T19:17	10	0	0.1	0	0	423	0.2	422	423	26.3	47.9
2025-08-08T19:18	10	0	0.1	0	0	422	0.2	422	423	26.4	46.4
2025-08-08T19:19	10	0	0.2	0	1	422	0.4	422	424	26.8	43.7
2025-08-08T19:20	10	0	0.2	-1	0	422	0.3	421	423	27.0	43.4
2025-08-08T19:21	10	0	0.2	-1	0	422	0.3	421	423	27.0	43.6
2025-08-08T19:22	10	0	0.1	0	0	421	0.3	420	422	27.0	43.2
2025-08-08T19:23	10	0	0.1	0	0	421	0.2	421	422	27.0	43.6
2025-08-08T19:24	10	0	0.1	0	0	420	0.3	420	421	27.0	43.2
2025-08-08T19:25	10	0	0.1	0	0	420	0.2	420	421	26.9	43.7
2025-08-08T19:26	10	0	0.1	0	0	420	0.3	419	420	26.8	43.7
2025-08-08T19:27	10	0	0.1	0	0	419	0.2	419	420	26.7	44.0
2025-08-08T19:28	10	0	0.1	0	0	419	0.3	418	420	26.6	44.1
2025-08-08T19:29	10	0	0.1	0	0	419	0.3	419	420	26.6	43.9
2025-08-08T19:30	10	0	0.1	0	0	419	0.3	418	419	26.5	44.3
2025-08-08T19:31	10	0	0.1	0	0	419	0.4	419	420	26.5	43.8
2025-08-08T19:32	10	0	0.1	0	0	420	0.5	419	421	26.8	42.6
2025-08-08T19:33	10	0	0.1	0	0	420	0.2	419	420	26.9	42.3
2025-08-08T19:34	10	0	0.1	0	0	419	0.3	419	420	26.9	42.4
2025-08-08T19:35	10	0	0.1	0	0	419	0.4	418	420	26.8	42.8
2025-08-08T19:36	10	0	0.1	0	0	418	0.3	418	419	26.5	43.6
2025-08-08T19:37	10	0	0.1	0	0	418	0.5	417	419	26.5	43.4
2025-08-08T19:38	10	0	0.1	0	0	417	0.3	416	417	26.4	44.3
2025-08-08T19:39	10	0	0.1	0	0	418	0.6	416	418	26.4	43.6
2025-08-08T19:40	10	0	0.1	0	0	417	0.2	417	418	26.4	43.9
2025-08-08T19:41	10	0	0.1	0	0	417	0.2	417	418	26.3	43.8
2025-08-08T19:42	10	0	0.1	0	0	417	0.3	416	418	26.4	43.5
2025-08-08T19:43	10	0	0.1	0	0	417	0.3	416	417	26.4	43.6
2025-08-08T19:44	10	0	0.1	0	0	417	0.3	416	417	26.3	43.8
2025-08-08T19:45	10	0	0.1	0	0	417	0.2	417	418	26.3	43.4
2025-08-08T19:46	10	0	0.1	0	0	417	0.5	416	417	26.4	43.3
2025-08-08T19:47	10	0	0.1	0	0	416	0.3	415	416	26.0	45.4
2025-08-08T19:48	10	0	0.1	0	0	417	0.4	416	417	26.0	44.5
2025-08-08T19:49	10	0	0.1	0	0	416	0.2	416	417	26.1	44.0
2025-08-08T19:50	10	0	0.1	0	0	416	0.3	415	417	26.2	43.9
2025-08-08T19:51	10	0	0.1	0	0	415	0.3	415	416	26.0	45.0
2025-08-08T19:52	10	0	0.1	0	0	415	0.3	414	415	25.9	45.3
2025-08-08T19:53	10	0	0.1	0	0	415	0.2	414	415	25.8	45.8
2025-08-08T19:54	10	0	0.1	0	0	414	0.2	414	415	25.8	45.3
2025-08-08T19:55	10	0	0.1	-1	0	415	0.3	414	415	25.9	44.9
2025-08-08T19:56	10	0	0.2	-1	1	414	0.3	414	415	25.8	45.4
2025-08-08T19:57	10	0	0.1	0	0	414	0.4	414	415	25.8	45.0
2025-08-08T19:58	10	0	0.1	0	0	415	0.4	414	416	26.0	44.3
2025-08-08T19:59	10	0	0.2	-1	1	415	0.2	414	415	26.1	44.0
2025-08-08T20:00	10	0	0.1	0	0	414	0.3	414	415	26.0	44.4
2025-08-08T20:01	10	0	0.2	0	0	414	0.3	414	415	25.8	45.2
2025-08-08T20:02	10	0	0.2	0	0	414	0.3	414	415	25.5	46.2
2025-08-08T20:03	10	0	0.1	0	0	415	0.4	414	415	25.6	45.7
2025-08-08T20:04	10	0	0.2	-1	1	414	0.2	413	414	25.3	47.3
2025-08-08T20:05	10	0	0.2	0	1	414	0.2	414	415	25.0	48.2
2025-08-08T20:06	10	0	0.1	0	1	414	0.3	413	414	25.1	47.7
2025-08-08T20:07	10	0	0.1	0	0	413	0.3	412	414	25.1	47.3
2025-08-08T20:08	10	0	0.1	0	0	412	0.2	412	413	25.1	47.8
2025-08-08T20:09	10	0	0.1	0	0	412	0.3	412	413	25.0	47.9
2025-08-08T20:10	10	0	0.1	0	0	412	0.2	411	412	24.9	48.4
2025-08-08T20:11	10	0	0.1	0	0	412	0.2	411	412	24.9	48.7
2025-08-08T20:12	10	0	0.1	0	0	412	0.2	411	412	24.9	48.8
2025-08-08T20:13	10	0	0.1	0	0	411	0.2	411	412	24.8	49.1
2025-08-08T20:14	10	0	0.1	0	0	411	0.3	410	412	24.8	49.4
2025-08-08T20:15	10	0	0.1	0	0	411	0.2	410	411	24.6	50.0
2025-08-08T20:16	10	0	0.1	0	0	410	0.2	410	411	24.3	51.6
2025-08-08T20:17	10	0	0.1	0	0	410	0.3	410	411	24.1	52.5
2025-08-08T20:18	10	0	0.1	0	0	410	0.3	409	411	23.9	52.8
2025-08-08T20:19	10	0	0.1	0	0	410	0.3	409	411	23.8	53.2
2025-08-08T20:20	10	0	0.1	0	0	410	0.4	409	411	23.9	53.0
2025-08-08T20:21	10	0	0.1	0	0	410	0.3	409	411	24.0	52.0
2025-08-08T20:22	10	0	0.1	0	0	409	0.2	409	410	24.0	51.6
2025-08-08T20:23	10	0	0.1	0	0	409	0.2	408	409	24.0	52.0
2025-08-08T20:24	10	0	0.1	0	0	409	0.4	408	409	24.0	51.7
2025-08-08T20:25	10	0	0.1	0	0	408	0.3	408	409	24.1	50.9
2025-08-08T20:26	10	0	0.2	0	0	408	0.4	407	409	24.0	51.9
2025-08-08T20:27	10	0	0.1	0	0	409	0.5	408	410	24.1	50.6
2025-08-08T20:28	10	0	0.1	0	0	409	0.3	408	409	24.2	50.5
2025-08-08T20:29	10	0	0.1	0	0	408	0.4	407	409	23.8	53.1
2025-08-08T20:30	10	0	0.1	0	0	408	0.5	407	409	23.3	55.5
2025-08-08T20:31	10	0	0.1	0	0	409	0.3	408	409	23.3	54.7
2025-08-08T20:32	10	0	0.1	0	0	409	0.3	408	410	23.1	57.3
2025-08-08T20:33	10	0	0.1	0	0	408	0.4	408	409	22.9	59.0
2025-08-08T20:34	10	0	0.1	0	0	409	0.7	407	410	22.9	58.0
2025-08-08T20:35	10	0	0.1	0	0	409	0.5	408	410	23.4	54.7
2025-08-08T20:36	10	0	0.1	0	0	409	0.4	408	410	23.7	53.5
2025-08-08T20:37	10	0	0.1	0	0	409	0.5	408	410	23.4	56.5
2025-08-08T20:38	10	0	0.1	0	0	409	0.4	409	410	23.2	56.0
2025-08-08T20:39	10	0	0.1	0	0	409	0.3	408	410	23.2	54.6
2025-08-08T20:40	10	0	0.1	0	0	409	0.2	408	410	23.2	54.6
2025-08-08T20:41	10	0	0.1	0	0	409	0.2	408	410	23.2	55.1
2025-08-08T20:42	10	0	0.1	0	0	408	0.2	408	409	23.1	55.3
2025-08-08T20:43	10	0	0.1	0	0	408	0.3	407	408	23.0	56.1
2025-08-08T20:44	10	0	0.1	0	0	407	0.2	407	407	23.0	55.6
2025-08-08T20:45	10	0	0.1	0	0	407	0.2	406	407	23.2	54.1
2025-08-08T20:46	10	0	0.1	0	0	407	0.3	406	407	23.3	53.9
2025-08-08T20:47	10	0	0.1	0	0	406	0.2	405	406	23.3	54.0
2025-08-08T20:48	10	0	0.1	0	0	406	0.5	405	407	23.5	53.0
2025-08-08T20:49	10	0	0.2	0	0	406	0.3	405	407	23.9	51.3
2025-08-08T20:50	10	0	0.1	0	0	406	0.3	406	407	24.0	51.7
2025-08-08T20:51	10	0	0.2	0	0	407	0.2	406	407	24.1	52.1
2025-08-08T20:52	10	0	0.2	0	1	406	0.3	406	407	24.1	52.7
2025-08-08T20:53	10	0	0.2	0	0	406	0.3	405	407	24.1	53.1
2025-08-08T20:54	10	0	0.2	0	0	406	0.3	405	407	24.1	53.6
2025-08-08T20:55	10	0	0.1	0	0	406	0.3	406	407	24.0	54.0
2025-08-08T20:56	10	0	0.1	0	0	406	0.3	406	407	23.9	54.3
2025-08-08T20:57	10	0	0.1	0	0	406	0.3	406	407	23.7	55.0
2025-08-08T20:58	10	0	0.1	0	0	406	0.3	406	407	23.5	55.8
2025-08-08T20:59	10	0	0.1	0	0	407	0.3	406	408	23.5	55.7
2025-08-08T21:00	10	0	0.1	0	0	406	0.3	406	407	23.4	55.9
2025-08-08T21:01	10	0	0.1	0	0	406	0.3	405	406	23.2	56.7
2025-08-08T21:02	10	0	0.1	0	0	405	0.3	404	405	23.0	57.7
2025-08-08T21:03	10	0	0.1	0	0	404	0.3	404	405	22.9	58.4
2025-08-08T21:04	10	0	0.1	0	0	404	0.2	403	404	22.8	58.4
2025-08-08T21:05	10	0	0.1	0	0	403	0.3	403	404	22.8	58.6
2025-08-08T21:06	10	0	0.1	0	0	403	0.2	403	404	22.7	58.8
2025-08-08T21:07	10	0	0.1	0	0	404	0.5	403	405	22.7	58.6
2025-08-08T21:08	10	0	0.1	0	0	404	0.2	404	405	22.7	58.3
2025-08-08T21:09	10	0	0.1	0	0	404	0.2	403	404	22.8	58.1
2025-08-08T21:10	10	0	0.1	0	0	404	0.2	403	404	22.9	57.8
2025-08-08T21:11	10	0	0.1	0	0	404	0.3	403	405	22.8	58.0
2025-08-08T21:12	10	0	0.1	0	0	404	0.3	403	404	22.8	58.1
2025-08-08T21:13	10	0	0.1	0	0	404	0.3	403	405	22.7	57.3
2025-08-08T21:14	10	0	0.1	0	0	404	0.3	403	404	22.5	57.9
2025-08-08T21:15	10	0	0.1	0	0	404	0.3	403	404	22.4	58.4
2025-08-08T21:16	10	0	0.1	0	0	403	0.4	402	404	22.1	60.5
2025-08-08T21:17	10	0	0.1	0	0	403	0.3	403	404	21.9	61.6
2025-08-08T21:18	10	0	0.1	0	0	403	0.2	403	404	21.9	61.1
2025-08-08T21:19	10	0	0.1	0	0	403	0.3	402	403	22.0	61.1
2025-08-08T21:20	10	0	0.1	0	0	402	0.3	401	403	22.0	60.3
2025-08-08T21:21	10	0	0.1	0	0	401	0.2	401	402	21.9	61.2
2025-08-08T21:22	10	0	0.1	0	0	401	0.2	401	402	21.9	61.2
2025-08-08T21:23	10	0	0.1	0	0	401	0.2	401	401	21.9	61.2
2025-08-08T21:24	10	0	0.1	0	0	401	0.2	400	401	23.8	61.2
2025-08-08T21:25	10	0	0.1	0	0	400	0.2	400	401	21.8	60.2
2025-08-08T21:26	10	0	0.1	0	0	400	0.2	400	401	21.9	61.2
2025-08-08T21:27	10	0	0.1	0	0	400	0.3	400	400	21.9	61.2
2025-08-08T21:28	10	0	0.1	0	0	400	0.2	400	401	21.9	61.2
2025-08-08T21:29	10	0	0.1	0	0	400	0.3	400	401	21.8	61.4
2025-08-08T21:30	10	0	0.1	0	0	401	0.5	400	402	21.8	60.7
2025-08-08T21:31	10	0	0.1	0	0	402	0.5	401	402	22.1	58.6
2025-08-08T21:32	10	0	0.1	0	0	402	0.2	401	402	22.5	56.9
2025-08-08T21:33	10	0	0.0	0	0	401	0.5	400	402	22.4	58.6
2025-08-08T21:34	10	0	0.1	0	0	401	0.3	400	401	22.1	59.6
2025-08-08T21:35	10	0	0.0	0	0	400	0.3	400	401	22.1	58.9
2025-08-08T21:36	10	0	0.1	0	0	400	0.3	400	401	21.9	61.4
2025-08-08T21:37	10	0	0.1	0	0	400	0.2	399	400	21.5	63.0
2025-08-08T21:38	10	0	0.1	0	0	399	0.3	398	400	21.5	62.8
2025-08-08T21:39	10	0	0.0	0	0	399	0.3	398	400	21.5	63.2
2025-08-08T21:40	10	0	0.1	0	0	399	0.3	398	399	21.5	62.6
2025-08-08T21:41	10	0	0.1	0	0	399	0.2	398	399	21.5	62.7
2025-08-08T21:42	10	0	0.1	0	0	399	0.3	398	400	21.6	61.5
2025-08-08T21:43	10	0	0.1	0	0	399	0.2	399	400	21.8	60.6
2025-08-08T21:44	10	0	0.1	0	0	399	0.2	398	399	21.8	60.8
2025-08-08T21:45	10	0	0.1	0	1	399	0.2	399	400	21.7	60.9
2025-08-08T21:46	10	0	0.1	0	0	399	0.3	398	400	21.7	61.2
2025-08-08T21:47	10	0	0.1	0	0	398	0.3	398	399	21.6	61.7
2025-08-08T21:48	10	0	0.1	0	0	399	0.3	398	399	21.6	62.0
2025-08-08T21:49	10	0	0.2	0	1	399	0.4	398	400	21.5	62.3
2025-08-08T21:50	10	0	0.2	0	1	399	0.3	398	400	21.5	62.5
2025-08-08T21:51	10	0	0.1	0	0	399	0.3	398	400	21.5	62.5
2025-08-08T21:52	10	0	0.2	0	0	399	0.3	398	400	21.4	62.8
2025-08-08T21:53	10	0	0.2	0	1	398	0.2	398	399	21.5	62.4
2025-08-08T21:54	10	0	0.2	0	0	398	0.3	397	398	21.5	62.5
2025-08-08T21:55	10	0	0.2	0	1	398	0.2	397	398	21.4	62.9
2025-08-08T21:56	10	0	0.1	0	0	398	0.3	397	398	21.4	62.6
2025-08-08T21:57	10	0	0.2	0	1	397	0.4	396	398	21.3	63.0
2025-08-08T21:58	10	0	0.1	0	1	398	0.3	397	398	21.3	62.8
2025-08-08T21:59	10	0	0.1	0	0	397	0.2	397	398	21.3	63.0
2025-08-08T22:00	10	0	0.1	0	0	397	0.2	397	398	21.2	63.8
2025-08-08T22:01	10	0	0.1	0	0	398	0.2	397	398	21.2	64.0
2025-08-08T22:02	10	0	0.1	0	0	397	0.2	396	398	21.1	64.3
2025-08-08T22:03	10	0	0.1	0	0	397	0.5	397	398	21.1	63.8
2025-08-08T22:04	10	0	0.1	0	0	398	0.3	397	398	21.3	62.5
2025-08-08T22:05	10	0	0.1	0	0	398	0.4	397	398	21.3	62.4
2025-08-08T22:06	10	0	0.1	0	0	397	0.2	397	398	21.1	63.7
2025-08-08T22:07	10	0	0.1	0	0	397	0.2	397	398	21.1	63.8
2025-08-08T22:08	10	0	0.1	0	0	397	0.3	396	398	21.1	63.6
2025-08-08T22:09	10	0	0.1	0	0	398	0.3	397	398	21.3	63.5
2025-08-08T22:10	10	0	0.1	0	0	398	0.2	397	398	21.2	64.3
2025-08-08T22:11	10	0	0.1	0	0	398	0.3	397	398	21.1	64.8
2025-08-08T22:12	10	0	0.1	0	0	398	0.3	397	399	21.1	65.6
2025-08-08T22:13	10	0	0.1	0	0	398	0.2	397	398	21.0	66.2
2025-08-08T22:14	10	0	0.1	0	0	398	0.2	398	399	20.9	66.8
2025-08-08T22:15	10	0	0.1	0	0	398	0.2	398	399	20.8	67.4
2025-08-08T22:16	10	0	0.1	0	0	399	0.3	398	399	20.7	68.2
2025-08-08T22:17	10	0	0.1	0	0	398	0.3	397	399	20.6	68.7
2025-08-08T22:18	10	0	0.1	0	0	397	0.3	397	398	20.5	69.1
2025-08-08T22:19	10	0	0.1	0	0	397	0.3	396	398	20.4	69.6
2025-08-08T22:20	10	0	0.1	0	0	396	0.2	396	397	20.3	69.9
2025-08-08T22:21	10	0	0.1	0	0	396	0.2	396	397	20.1	70.5
2025-08-08T22:22	10	0	0.1	0	0	396	0.2	396	397	20.0	70.5
2025-08-08T22:23	10	0	0.1	0	0	396	0.3	395	397	20.0	70.9
2025-08-08T22:24	10	0	0.1	0	0	396	0.3	395	397	20.0	70.5
2025-08-08T22:25	10	0	0.1	0	0	396	0.3	396	397	20.1	69.8
2025-08-08T22:26	10	0	0.1	0	0	396	0.3	395	397	20.1	69.6
2025-08-08T22:27	10	0	0.1	0	0	396	0.3	395	396	20.1	69.7
2025-08-08T22:28	10	0	0.1	0	0	396	0.3	395	397	20.0	69.8
2025-08-08T22:29	10	0	0.1	0	0	396	0.3	395	397	20.0	69.5
2025-08-08T22:30	10	0	0.1	0	0	396	0.4	396	397	20.1	68.9
2025-08-08T22:31	10	0	0.1	0	0	397	0.3	396	397	20.3	67.5
2025-08-08T22:32	10	0	0.1	0	0	397	0.2	396	397	20.5	66.4
2025-08-08T22:33	10	0	0.1	0	0	396	0.4	395	397	20.5	66.2
2025-08-08T22:34	10	0	0.1	0	0	395	0.5	394	396	20.5	66.4
2025-08-08T22:35	10	0	0.1	0	0	394	0.3	393	394	20.4	66.9
2025-08-08T22:36	10	0	0.1	0	0	394	0.3	393	394	20.3	66.8
2025-08-08T22:37	10	0	0.1	0	0	394	0.3	393	394	20.5	65.8
2025-08-08T22:38	10	0	0.0	0	0	393	0.3	393	394	20.6	64.8
2025-08-08T22:39	10	0	0.1	0	0	394	0.3	393	394	20.8	64.1
2025-08-08T22:40	10	0	0.1	0	0	394	0.2	393	394	20.9	63.9
2025-08-08T22:41	10	0	0.1	0	0	394	0.2	394	395	21.0	63.7
2025-08-08T22:42	10	0	0.1	0	0	394	0.3	394	395	20.9	63.7
2025-08-08T22:43	10	0	0.1	0	0	394	0.4	393	395	20.9	64.2
2025-08-08T22:44	10	0	0.1	0	0	394	0.3	393	394	20.6	65.4
2025-08-08T22:45	10	0	0.1	0	0	394	0.3	393	394	20.5	66.1
2025-08-08T22:46	10	0	0.1	0	0	393	0.3	393	394	20.4	66.7
2025-08-08T22:47	10	0	0.1	0	0	393	0.2	392	393	20.3	67.3
2025-08-08T22:48	10	0	0.0	0	0	393	0.2	393	393	20.2	67.4
2025-08-08T22:49	10	0	0.0	0	0	393	0.2	392	393	20.3	67.3
2025-08-08T22:50	10	0	0.1	0	0	392	0.3	392	393	20.3	67.3
2025-08-08T22:51	10	0	0.1	0	0	392	0.2	391	393	20.3	67.5
2025-08-08T22:52	10	0	0.1	0	0	392	0.2	391	392	20.3	67.6
2025-08-08T22:53	10	0	0.1	0	0	392	0.2	391	392	20.2	68.0
2025-08-08T22:54	10	0	0.1	0	0	392	0.2	391	392	20.2	68.9
2025-08-08T22:55	10	0	0.1	0	0	392	0.3	391	392	20.1	69.4
2025-08-08T22:56	10	0	0.1	0	0	391	0.2	391	392	20.0	69.8
2025-08-08T22:57	10	0	0.1	0	0	391	0.2	391	392	20.0	70.3
2025-08-08T22:58	10	0	0.1	0	0	391	0.2	390	392	19.9	70.8
2025-08-08T22:59	10	0	0.1	0	0	392	0.4	391	392	19.8	70.9
2025-08-08T23:00	10	0	0.1	0	0	392	0.3	392	393	19.8	70.9
2025-08-08T23:01	10	0	0.1	0	0	393	0.3	392	393	19.6	71.8
2025-08-08T23:02	10	0	0.2	0	1	392	0.3	391	393	19.5	72.8
2025-08-08T23:03	10	0	0.2	0	0	392	0.3	391	392	19.4	73.0
2025-08-08T23:04	10	0	0.2	0	1	391	0.2	390	391	19.3	73.2
2025-08-08T23:05	10	0	0.2	0	1	390	0.3	390	391	19.2	73.3
2025-08-08T23:06	10	0	0.1	0	0	390	0.2	389	390	19.3	72.8
2025-08-08T23:07	10	0	0.2	0	0	390	0.2	389	391	19.3	72.5
2025-08-08T23:08	10	0	0.1	0	0	390	0.3	389	390	19.3	72.2
2025-08-08T23:09	10	0	0.1	0	1	389	0.3	388	390	19.4	72.0
2025-08-08T23:10	10	0	0.1	0	0	389	0.3	388	389	19.4	71.7
2025-08-08T23:11	10	0	0.1	0	0	388	0.3	387	389	19.5	71.6
2025-08-08T23:12	10	0	0.1	0	0	388	0.2	388	389	19.5	71.3
2025-08-08T23:13	10	0	0.1	0	0	389	0.4	388	390	19.6	71.1
2025-08-08T23:14	10	0	0.1	0	0	389	0.3	388	389	19.7	70.2
2025-08-08T23:15	10	0	0.1	0	0	390	0.4	389	390	19.6	70.7
2025-08-08T23:16	10	0	0.0	0	0	390	0.4	389	391	19.4	71.7
2025-08-08T23:17	10	0	0.0	0	0	390	0.3	390	391	19.3	72.3
2025-08-08T23:18	10	0	0.1	0	0	390	0.2	389	390	19.2	72.3
2025-08-08T23:19	10	0	0.1	0	0	390	0.2	389	390	19.1	72.6
2025-08-08T23:20	10	0	0.1	0	0	389	0.2	389	390	19.1	72.3
2025-08-08T23:21	10	0	0.0	0	0	389	0.2	389	390	19.1	72.1
2025-08-08T23:22	10	0	0.1	0	0	390	0.4	389	390	19.2	72.1
2025-08-08T23:23	10	0	0.0	0	0	390	0.3	389	391	19.2	71.9
2025-08-08T23:24	10	0	0.1	0	0	390	0.3	390	391	19.3	71.6
2025-08-08T23:25	10	0	0.1	0	0	391	0.2	390	392	19.4	71.2
2025-08-08T23:26	10	0	0.1	0	0	391	0.2	390	391	19.4	71.0
2025-08-08T23:27	10	0	0.1	0	0	391	0.3	391	392	19.5	70.7
2025-08-08T23:28	10	0	0.0	0	0	392	0.4	391	392	19.5	70.6
2025-08-08T23:29	10	0	0.1	0	0	392	0.3	392	393	19.6	69.9
2025-08-08T23:30	10	0	0.1	0	0	392	0.3	392	393	19.8	69.2
2025-08-08T23:31	10	0	0.1	0	0	392	0.3	391	393	19.9	68.8
2025-08-08T23:32	10	0	0.1	0	0	391	0.3	391	392	19.9	68.7
2025-08-08T23:33	10	0	0.1	0	0	391	0.3	390	392	19.8	68.8
2025-08-08T23:34	10	0	0.1	0	0	391	0.4	390	392	19.8	69.1
2025-08-08T23:35	10	0	0.1	0	0	390	0.3	390	391	19.7	69.3
2025-08-08T23:36	10	0	0.1	0	0	390	0.3	390	391	19.7	69.3
2025-08-08T23:37	10	0	0.1	0	0	391	0.2	390	391	19.8	68.9
2025-08-08T23:38	10	0	0.1	0	0	391	0.2	390	391	19.8	68.8
2025-08-08T23:39	10	0	0.1	0	0	391	0.2	390	392	19.8	69.2
2025-08-08T23:40	10	0	0.1	0	0	391	0.2	390	391	19.8	69.1
2025-08-08T23:41	10	0	0.1	0	0	390	0.3	390	391	19.8	68.9
2025-08-08T23:42	10	0	0.1	0	0	390	0.3	389	391	19.8	69.1
2025-08-08T23:43	10	0	0.1	0	0	390	0.4	389	390	19.8	69.0
2025-08-08T23:44	10	0	0.1	0	0	389	0.3	388	389	19.9	68.5
2025-08-08T23:45	10	0	0.1	0	0	388	0.2	388	389	20.0	67.9
2025-08-08T23:46	10	0	0.1	0	0	388	0.4	387	389	20.0	67.6
2025-08-08T23:47	10	0	0.1	0	0	388	0.3	387	389	20.0	67.8
2025-08-08T23:48	10	0	0.1	0	0	387	0.4	387	388	20.0	67.8
2025-08-08T23:49	10	0	0.1	0	0	387	0.3	387	388	19.7	69.1
2025-08-08T23:50	10	0	0.1	0	0	387	0.3	387	388	19.5	70.1
2025-08-08T23:51	10	0	0.1	0	0	389	0.6	388	390	19.5	70.1
2025-08-08T23:52	10	0	0.1	0	0	390	0.3	390	391	19.4	70.8
2025-08-08T23:53	10	0	0.1	0	0	390	0.2	389	390	19.4	70.2
2025-08-08T23:54	10	0	0.1	0	0	389	0.3	388	390	19.4	70.8
2025-08-08T23:55	10	0	0.1	0	0	389	0.4	388	390	19.2	71.5
2025-08-08T23:56	10	0	0.1	0	0	388	0.4	387	389	19.3	71.0
2025-08-08T23:57	10	0	0.1	0	0	387	0.2	387	388	19.3	71.0
2025-08-08T23:58	10	0	0.1	0	0	387	0.2	387	388	19.3	71.2
2025-08-08T23:59	10	0	0.1	0	0	387	0.2	386	387	19.3	71.1
2025-08-09T00:00	10	0	0.1	0	0	387	0.3	387	388	19.2	71.3
2025-08-09T00:01	10	0	0.1	0	0	387	0.2	387	388	19.2	71.7
2025-08-09T00:02	10	0	0.1	0	0	387	0.5	386	388	19.0	73.1
2025-08-09T00:03	10	0	0.1	0	0	386	0.2	385	386	18.6	74.9
2025-08-09T00:04	10	0	0.1	0	0	386	0.3	385	386	18.4	75.7
2025-08-09T00:05	10	0	0.1	0	0	385	0.3	385	386	18.4	75.9
2025-08-09T00:06	10	0	0.1	0	0	385	0.2	385	385	18.3	76.2
2025-08-09T00:07	10	0	0.1	0	0	384	0.3	384	385	18.2	76.4
2025-08-09T00:08	10	0	0.1	0	0	384	0.2	383	384	18.1	76.8
2025-08-09T00:09	10	0	0.1	0	0	383	0.2	383	384	18.0	76.9
2025-08-09T00:10	10	0	0.1	0	0	383	0.2	383	384	18.0	77.1
2025-08-09T00:11	10	0	0.1	0	0	383	0.2	382	383	18.0	77.3
2025-08-09T00:12	10	0	0.1	0	0	383	0.2	382	383	18.0	77.5
2025-08-09T00:13	10	0	0.1	0	0	383	0.2	382	383	17.9	77.7
2025-08-09T00:14	10	0	0.1	0	0	383	0.2	382	383	17.9	78.1
2025-08-09T00:15	10	0	0.1	0	0	383	0.4	382	384	17.8	78.2
2025-08-09T00:16	10	0	0.1	0	0	383	0.5	382	384	17.9	77.9
2025-08-09T00:17	10	0	0.1	0	0	384	0.4	383	384	17.9	77.9
2025-08-09T00:18	10	0	0.1	0	0	384	0.3	383	385	18.0	78.0
2025-08-09T00:19	10	0	0.1	0	0	384	0.2	383	384	18.0	77.7
2025-08-09T00:20	10	0	0.0	0	0	384	0.2	384	385	18.0	77.7
2025-08-09T00:21	10	0	0.1	0	0	384	0.2	384	385	18.0	77.5
2025-08-09T00:22	10	0	0.1	0	0	384	0.3	383	385	18.0	77.4
2025-08-09T00:23	10	0	0.1	0	0	384	0.2	383	384	18.1	76.7
2025-08-09T00:24	10	0	0.0	0	0	384	0.2	383	384	18.2	76.4
2025-08-09T00:25	10	0	0.0	0	0	383	0.2	383	384	18.2	76.1
2025-08-09T00:26	10	0	0.1	0	0	383	0.2	383	384	18.3	75.2
2025-08-09T00:27	10	0	0.0	0	0	383	0.3	383	384	18.4	74.9
2025-08-09T00:28	10	0	0.1	0	0	383	0.3	383	384	18.4	74.5
2025-08-09T00:29	10	0	0.1	0	0	383	0.4	382	383	18.3	75.3
2025-08-09T00:30	10	0	0.1	0	0	383	0.3	382	383	18.1	76.5
2025-08-09T00:31	10	0	0.1	0	0	383	0.3	382	383	18.0	76.7
2025-08-09T00:32	10	0	0.1	0	0	383	0.2	382	383	18.1	76.3
2025-08-09T00:33	10	0	0.1	0	0	382	0.4	382	383	18.1	76.4
2025-08-09T00:34	10	0	0.1	0	0	383	0.4	382	384	18.2	76.7
2025-08-09T00:35	10	0	0.1	0	0	384	0.6	383	385	18.3	76.2
2025-08-09T00:36	10	0	0.1	0	0	384	0.6	383	385	18.4	76.2
2025-08-09T00:37	10	0	0.1	0	1	384	0.4	383	385	18.1	77.0
2025-08-09T00:38	10	0	0.1	0	0	384	0.3	384	385	18.2	76.7
2025-08-09T00:39	10	0	0.1	0	1	384	0.3	383	385	18.1	77.3
2025-08-09T00:40	10	0	0.2	0	1	385	0.3	384	386	18.1	77.3
2025-08-09T00:41	10	0	0.1	0	1	385	0.3	385	386	18.2	76.6
2025-08-09T00:42	10	0	0.2	0	1	385	0.5	384	386	18.2	76.4
2025-08-09T00:43	10	0	0.2	0	1	384	0.3	383	385	18.0	77.3
2025-08-09T00:44	10	0	0.2	0	1	384	0.3	383	385	18.0	77.1
2025-08-09T00:45	10	0	0.2	0	1	384	0.3	383	385	18.1	77.2
2025-08-09T00:46	10	0	0.2	0	1	384	0.3	384	385	18.1	77.2
2025-08-09T00:47	10	0	0.1	0	0	384	0.3	384	385	18.0	77.6
2025-08-09T00:48	10	0	0.2	0	1	385	0.3	384	386	17.9	77.8
2025-08-09T00:49	10	0	0.2	0	1	385	0.4	384	386	18.0	77.3
2025-08-09T00:50	10	0	0.2	0	1	386	0.3	385	386	18.0	76.8
2025-08-09T00:51	10	0	0.1	0	1	386	0.4	385	387	18.0	77.2
2025-08-09T00:52	10	0	0.1	0	0	386	0.3	385	387	18.0	77.0
2025-08-09T00:53	10	0	0.2	0	1	386	0.3	385	386	18.0	77.2
2025-08-09T00:54	10	0	0.2	0	1	386	0.2	385	386	17.9	77.4
2025-08-09T00:55	10	0	0.1	0	0	385	0.3	385	386	18.0	77.1
2025-08-09T00:56	10	0	0.1	0	0	386	0.3	385	386	18.0	76.9
2025-08-09T00:57	10	0	0.2	0	1	385	0.3	385	386	18.0	77.1
2025-08-09T00:58	10	0	0.1	0	0	386	0.4	385	387	18.0	76.8
2025-08-09T00:59	10	0	0.1	0	0	387	0.4	386	388	18.1	76.5
2025-08-09T01:00	10	0	0.1	0	0	389	0.3	388	389	18.3	75.8
2025-08-09T01:01	10	0	0.1	0	0	389	0.2	388	389	18.2	76.2
2025-08-09T01:02	10	0	0.1	0	0	389	0.3	388	389	18.1	76.3
2025-08-09T01:03	10	0	0.1	0	0	389	0.2	388	389	18.2	75.9
2025-08-09T01:04	10	0	0.1	0	0	388	0.2	388	389	18.2	76.0
2025-08-09T01:05	10	0	0.1	0	0	388	0.3	387	388	18.2	75.8
2025-08-09T01:06	10	0	0.1	0	0	387	0.2	387	388	18.3	75.5
2025-08-09T01:07	10	0	0.1	0	0	388	0.3	387	388	18.3	75.7
2025-08-09T01:08	10	0	0.1	0	0	388	0.2	388	389	18.2	76.2
2025-08-09T01:09	10	0	0.1	0	0	389	0.2	388	389	18.1	76.3
2025-08-09T01:10	10	0	0.1	0	0	389	0.2	388	389	18.1	76.5
2025-08-09T01:11	10	0	0.0	0	0	388	0.6	387	389	18.1	76.9
2025-08-09T01:12	10	0	0.0	0	0	386	0.5	385	387	17.8	78.2
2025-08-09T01:13	10	0	0.0	0	0	386	0.2	386	387	17.6	79.3
2025-08-09T01:14	10	0	0.0	0	0	386	0.3	386	387	17.5	79.6
2025-08-09T01:15	10	0	0.0	0	0	386	0.2	386	386	17.6	79.3
2025-08-09T01:16	10	0	0.1	0	0	385	0.6	384	386	17.6	79.3
2025-08-09T01:17	10	0	0.1	0	0	384	0.4	383	385	17.3	80.4
2025-08-09T01:18	10	0	0.1	0	0	383	0.2	383	384	17.1	81.5
2025-08-09T01:19	10	0	0.1	0	0	383	0.3	383	384	17.0	81.8
2025-08-09T01:20	10	0	0.1	0	0	384	0.3	383	384	17.0	82.2
2025-08-09T01:21	10	0	0.1	0	0	384	0.3	383	385	17.0	82.4
2025-08-09T01:22	10	0	0.1	0	0	384	0.3	383	384	17.0	82.3
2025-08-09T01:23	10	0	0.1	0	0	384	0.2	383	384	17.0	82.2
2025-08-09T01:24	10	0	0.1	0	0	383	0.3	383	384	17.0	82.1
2025-08-09T01:25	10	0	0.1	0	0	384	0.4	383	385	17.0	82.1
2025-08-09T01:26	10	0	0.1	0	0	385	0.5	384	385	17.1	81.5
2025-08-09T01:27	10	0	0.1	0	0	385	0.3	384	386	17.4	80.0
2025-08-09T01:28	10	0	0.1	0	0	384	0.3	384	385	17.3	80.3
2025-08-09T01:29	10	0	0.1	0	0	384	0.3	383	385	17.1	81.0
2025-08-09T01:30	10	0	0.1	0	0	385	0.3	384	385	17.5	78.9
2025-08-09T01:31	10	0	0.0	0	0	384	0.2	384	385	17.8	77.6
2025-08-09T01:32	10	0	0.1	0	0	384	0.3	383	384	17.8	77.6
2025-08-09T01:33	10	0	0.1	0	0	384	0.3	383	384	17.8	77.5
2025-08-09T01:34	10	0	0.1	0	0	382	0.6	382	384	17.7	77.9
2025-08-09T01:35	10	0	0.1	0	0	382	0.2	382	383	17.4	79.1
2025-08-09T01:36	10	0	0.1	0	0	383	0.2	382	383	17.4	79.1
2025-08-09T01:37	10	0	0.1	0	0	383	0.3	382	383	17.6	78.4
2025-08-09T01:38	10	0	0.1	0	0	383	0.4	382	384	17.7	78.1
2025-08-09T01:39	10	0	0.1	0	0	385	0.4	384	385	17.8	77.5
2025-08-09T01:40	10	0	0.1	0	0	386	0.3	385	386	17.8	77.8
2025-08-09T01:41	10	0	0.1	0	0	385	0.3	385	386	17.6	78.4
2025-08-09T01:42	10	0	0.1	0	0	384	0.4	383	385	17.4	79.8
2025-08-09T01:43	10	0	0.1	0	0	383	0.4	382	384	17.3	79.9
2025-08-09T01:44	10	0	0.1	0	0	383	0.3	382	383	17.2	80.5
2025-08-09T01:45	10	0	0.1	0	0	382	0.2	381	382	17.1	81.0
2025-08-09T01:46	10	0	0.1	0	0	382	0.2	381	382	17.0	81.9
2025-08-09T01:47	10	0	0.1	0	0	382	0.2	381	382	16.9	81.8
2025-08-09T01:48	10	0	0.1	0	0	382	0.2	381	382	16.9	82.1
2025-08-09T01:49	10	0	0.1	0	0	381	0.3	381	382	16.8	82.6
2025-08-09T01:50	10	0	0.1	0	0	381	0.2	381	382	16.8	82.5
2025-08-09T01:51	10	0	0.1	0	0	381	0.2	381	382	16.8	82.8
2025-08-09T01:52	10	0	0.1	0	0	382	0.3	381	382	16.8	82.7
2025-08-09T01:53	10	0	0.1	0	0	382	0.3	381	383	16.8	82.5
2025-08-09T01:54	10	0	0.1	0	0	381	0.2	380	382	16.7	82.8
2025-08-09T01:55	10	0	0.1	0	0	381	0.2	380	381	16.7	82.9
2025-08-09T01:56	10	0	0.1	0	0	381	0.3	380	381	16.8	82.6
2025-08-09T01:57	10	0	0.1	0	0	381	0.2	380	381	16.9	82.0
2025-08-09T01:58	10	0	0.1	0	0	381	0.3	380	381	16.9	82.1
2025-08-09T01:59	10	0	0.1	0	0	380	0.2	380	381	16.9	82.2
2025-08-09T02:00	10	0	0.1	0	0	380	0.3	379	381	16.9	82.2
2025-08-09T02:01	10	0	0.1	0	0	380	0.3	380	381	16.9	82.1
2025-08-09T02:02	10	0	0.1	0	0	381	0.3	380	381	17.0	81.8
2025-08-09T02:03	10	0	0.1	0	0	381	0.3	380	381	17.0	81.6
2025-08-09T02:04	10	0	0.1	0	0	381	0.2	381	382	17.0	81.5
2025-08-09T02:05	10	0	0.1	0	0	381	0.2	380	382	17.0	81.4
2025-08-09T02:06	10	0	0.1	0	0	381	0.3	380	381	17.0	81.6
2025-08-09T02:07	10	0	0.1	0	0	380	0.2	380	381	17.0	81.7
2025-08-09T02:08	10	0	0.1	0	0	380	0.2	380	381	17.0	81.2
2025-08-09T02:09	10	0	0.1	0	0	380	0.3	379	380	17.0	81.0
2025-08-09T02:10	10	0	0.1	0	0	380	0.2	379	380	17.0	81.3
2025-08-09T02:11	10	0	0.1	0	0	379	0.3	379	380	17.0	81.8
2025-08-09T02:12	10	0	0.1	0	0	379	0.3	378	380	16.9	82.3
2025-08-09T02:13	10	0	0.1	0	0	379	0.3	378	379	16.8	82.7
2025-08-09T02:14	10	0	0.1	0	0	378	0.2	378	379	16.7	83.1
2025-08-09T02:15	10	0	0.1	0	0	378	0.2	378	379	16.7	82.6
2025-08-09T02:16	10	0	0.1	0	0	378	0.2	377	378	16.7	82.5
2025-08-09T02:17	10	0	0.1	0	0	378	0.2	377	378	16.5	82.9
2025-08-09T02:18	10	0	0.1	0	0	378	0.3	377	378	16.5	83.3
2025-08-09T02:19	10	0	0.1	0	0	378	0.3	377	378	16.5	83.1
2025-08-09T02:20	10	0	0.1	0	0	378	0.3	377	378	16.4	83.3
2025-08-09T02:21	10	0	0.1	0	0	377	0.2	377	378	16.4	83.1
2025-08-09T02:22	10	0	0.1	0	0	377	0.2	377	378	16.5	83.0
2025-08-09T02:23	10	0	0.1	0	0	377	0.2	377	378	16.5	82.5
2025-08-09T02:24	10	0	0.1	0	0	377	0.3	377	378	16.6	82.0
2025-08-09T02:25	10	0	0.1	0	0	378	0.4	377	379	16.7	81.9
2025-08-09T02:26	10	0	0.1	0	0	378	0.2	377	378	16.6	82.1
2025-08-09T02:27	10	0	0.1	0	0	378	0.2	377	379	16.6	82.3
2025-08-09T02:28	10	0	0.1	0	0	378	0.3	377	378	16.5	82.7
2025-08-09T02:29	10	0	0.1	0	0	378	0.2	377	379	16.4	83.1
2025-08-09T02:30	10	0	0.1	0	0	378	0.2	377	378	16.3	83.7
2025-08-09T02:31	10	0	0.1	0	0	377	0.3	377	378	16.2	84.3
2025-08-09T02:32	10	0	0.1	0	0	377	0.3	376	378	16.1	84.6
2025-08-09T02:33	10	0	0.1	0	0	377	0.3	377	378	16.2	84.7
2025-08-09T02:34	10	0	0.1	0	0	377	0.2	377	378	16.2	84.8
2025-08-09T02:35	10	0	0.1	0	0	377	0.2	376	377	16.0	85.4
2025-08-09T02:36	10	0	0.1	0	0	377	0.2	376	377	16.0	85.7
2025-08-09T02:37	10	0	0.1	0	0	377	0.2	376	377	15.9	86.1
2025-08-09T02:38	10	0	0.1	0	0	376	0.2	376	377	15.9	86.0
2025-08-09T02:39	10	0	0.1	0	0	376	0.2	376	377	16.0	85.9
2025-08-09T02:40	10	0	0.1	0	0	376	0.2	376	377	16.0	85.9
2025-08-09T02:41	10	0	0.1	0	0	376	0.3	375	377	16.0	85.8
2025-08-09T02:42	10	0	0.1	0	0	376	0.2	375	376	16.0	85.8
2025-08-09T02:43	10	0	0.1	0	0	376	0.3	375	377	15.9	85.9
2025-08-09T02:44	10	0	0.1	0	0	376	0.2	376	377	16.0	85.7
2025-08-09T02:45	10	0	0.1	0	0	376	0.2	376	377	16.0	85.5
2025-08-09T02:46	10	0	0.1	0	0	376	0.2	376	377	16.0	85.5
2025-08-09T02:47	10	0	0.1	0	0	377	0.2	376	377	16.1	85.2
2025-08-09T02:48	10	0	0.1	0	0	377	0.2	376	377	16.2	84.8
2025-08-09T02:49	10	0	0.0	0	0	377	0.3	377	378	16.3	84.4
2025-08-09T02:50	10	0	0.1	0	0	378	0.2	377	378	16.3	84.1
2025-08-09T02:51	10	0	0.1	0	0	377	0.2	377	378	16.3	84.2
2025-08-09T02:52	10	0	0.1	0	0	378	0.2	377	378	16.3	84.1
2025-08-09T02:53	10	0	0.1	0	0	377	0.2	377	378	16.3	84.2
2025-08-09T02:54	10	0	0.1	0	0	377	0.3	376	377	16.3	84.3
2025-08-09T02:55	10	0	0.1	0	0	376	0.2	375	377	16.3	84.4
2025-08-09T02:56	10	0	0.1	0	0	376	0.3	376	377	16.3	84.6
2025-08-09T02:57	10	0	0.1	0	0	377	0.3	376	377	16.4	84.2
2025-08-09T02:58	10	0	0.1	0	0	377	0.4	376	378	16.4	84.0
2025-08-09T02:59	10	0	0.1	0	0	378	0.3	377	378	16.4	83.9
2025-08-09T03:00	10	0	0.1	0	0	378	0.4	377	379	16.5	83.8
2025-08-09T03:01	10	0	0.1	0	0	377	0.3	377	378	16.4	83.8
2025-08-09T03:02	10	0	0.1	0	0	377	0.3	376	378	16.4	84.2
2025-08-09T03:03	10	0	0.1	0	0	377	0.3	376	377	16.3	84.5
2025-08-09T03:04	10	0	0.1	0	0	376	0.2	376	377	16.2	84.8
2025-08-09T03:05	10	0	0.2	0	1	376	0.3	376	377	16.2	85.1
2025-08-09T03:06	10	0	0.1	0	1	376	0.2	376	377	16.1	85.3
2025-08-09T03:07	10	0	0.1	0	0	376	0.3	376	377	16.1	85.5
2025-08-09T03:08	10	0	0.1	0	0	376	0.2	376	377	16.1	85.3
2025-08-09T03:09	10	0	0.1	0	0	376	0.2	375	376	16.2	85.0
2025-08-09T03:10	10	0	0.1	0	0	376	0.3	375	377	16.2	85.0
2025-08-09T03:11	10	0	0.1	0	0	376	0.2	375	376	16.2	84.9
2025-08-09T03:12	10	0	0.1	0	0	376	0.2	375	376	16.3	84.6
2025-08-09T03:13	10	0	0.1	0	0	376	0.3	376	377	16.3	84.3
2025-08-09T03:14	10	0	0.2	0	0	376	0.3	375	377	16.3	84.4
2025-08-09T03:15	10	0	0.1	0	0	376	0.3	375	376	16.2	84.8
2025-08-09T03:16	10	0	0.2	0	1	376	0.2	375	376	16.1	85.2
2025-08-09T03:17	10	0	0.1	0	0	376	0.3	375	376	16.1	85.3
2025-08-09T03:18	10	0	0.2	0	0	376	0.3	375	376	16.1	85.6
2025-08-09T03:19	10	0	0.2	0	1	376	0.2	375	376	16.1	85.6
2025-08-09T03:20	10	0	0.2	0	1	376	0.2	375	377	16.0	85.7
2025-08-09T03:21	10	0	0.1	0	0	377	0.3	376	378	16.1	85.3
2025-08-09T03:22	10	0	0.1	0	0	377	0.3	376	377	16.2	84.9
2025-08-09T03:23	10	0	0.1	0	0	377	0.3	376	378	16.1	85.0
2025-08-09T03:24	10	0	0.2	0	1	377	0.3	376	377	16.1	85.3
2025-08-09T03:25	10	0	0.1	0	0	376	0.2	376	377	15.9	86.1
2025-08-09T03:26	10	0	0.1	0	1	377	0.2	376	377	15.9	86.3
2025-08-09T03:27	10	0	0.1	0	0	377	0.3	376	377	15.8	86.6
2025-08-09T03:28	10	0	0.2	0	1	377	0.2	376	377	15.7	86.9
2025-08-09T03:29	10	0	0.2	0	1	377	0.4	376	378	15.7	86.9
2025-08-09T03:30	10	0	0.1	0	0	377	0.2	377	378	15.7	87.0
2025-08-09T03:31	10	0	0.1	0	0	378	0.3	377	378	15.7	86.9
2025-08-09T03:32	10	0	0.1	0	0	378	0.2	378	379	15.8	86.6
2025-08-09T03:33	10	0	0.1	0	0	378	0.2	377	378	15.9	86.1
2025-08-09T03:34	10	0	0.1	0	1	378	0.4	377	379	15.9	85.7
2025-08-09T03:35	10	0	0.1	0	0	379	0.3	378	379	16.1	84.8
2025-08-09T03:36	10	0	0.1	0	0	378	0.2	378	378	16.2	84.1
2025-08-09T03:37	10	0	0.1	0	0	378	0.4	377	378	16.3	84.0
2025-08-09T03:38	10	0	0.1	0	0	377	0.3	377	378	16.2	84.3
2025-08-09T03:39	10	0	0.1	0	0	377	0.2	377	378	16.2	84.3
2025-08-09T03:40	10	0	0.1	0	0	377	0.3	376	377	16.3	83.7
2025-08-09T03:41	10	0	0.1	0	0	377	0.3	376	377	16.3	83.6
2025-08-09T03:42	10	0	0.1	0	0	376	0.2	376	377	16.3	83.6
2025-08-09T03:43	10	0	0.1	0	0	376	0.2	376	377	16.3	83.3
2025-08-09T03:44	10	0	0.1	0	0	376	0.2	376	377	16.1	84.2
2025-08-09T03:45	10	0	0.0	0	0	376	0.2	376	377	16.0	84.9
2025-08-09T03:46	10	0	0.0	0	0	377	0.2	376	377	16.0	84.9
2025-08-09T03:47	10	0	0.1	0	0	377	0.4	376	378	16.0	84.3
2025-08-09T03:48	10	0	0.1	0	0	377	0.2	377	377	16.1	83.6
2025-08-09T03:49	10	0	0.1	0	0	377	0.2	376	378	16.3	83.1
2025-08-09T03:50	10	0	0.1	0	0	377	0.2	377	378	16.2	83.4
2025-08-09T03:51	10	0	0.0	0	0	377	0.2	376	378	16.2	83.6
2025-08-09T03:52	10	0	0.1	0	0	377	0.2	376	377	16.2	83.8
2025-08-09T03:53	10	0	0.1	0	0	376	0.4	376	377	16.1	84.2
2025-08-09T03:54	10	0	0.1	0	0	377	0.3	376	378	16.0	84.7
2025-08-09T03:55	10	0	0.1	0	0	377	0.2	376	377	16.0	85.0
2025-08-09T03:56	10	0	0.1	0	0	377	0.2	376	377	16.0	85.2
2025-08-09T03:57	10	0	0.0	0	0	377	0.3	376	377	16.0	84.8
2025-08-09T03:58	10	0	0.1	0	0	377	0.2	376	377	16.1	84.5
2025-08-09T03:59	10	0	0.1	0	0	377	0.2	376	377	16.1	84.6
2025-08-09T04:00	10	0	0.1	0	0	376	0.2	376	377	16.1	84.6
2025-08-09T04:01	10	0	0.1	0	0	376	0.3	376	377	16.1	84.7
2025-08-09T04:02	10	0	0.1	0	0	376	0.3	375	377	16.0	84.8
2025-08-09T04:03	10	0	0.1	0	0	376	0.3	375	376	16.0	85.1
2025-08-09T04:04	10	0	0.1	0	0	376	0.2	375	376	16.0	85.1
2025-08-09T04:05	10	0	0.1	0	0	376	0.2	376	377	16.0	84.9
2025-08-09T04:06	10	0	0.1	0	0	376	0.2	376	377	16.0	84.7
2025-08-09T04:07	10	0	0.1	0	1	376	0.2	375	376	16.0	84.9
2025-08-09T04:08	10	0	0.1	0	1	376	0.3	375	376	16.0	84.9
2025-08-09T04:09	10	1	0.1	0	1	375	0.2	375	376	15.9	85.1
2025-08-09T04:10	10	1	0.1	0	1	376	0.2	375	376	15.9	85.0
2025-08-09T04:11	10	1	0.1	1	1	375	0.2	375	376	16.0	84.8
2025-08-09T04:12	10	1	0.1	1	1	375	0.2	375	376	15.9	85.0
2025-08-09T04:13	10	1	0.1	1	1	376	0.2	375	376	15.9	85.1
2025-08-09T04:14	10	1	0.1	1	1	376	0.2	375	376	15.8	85.2
2025-08-09T04:15	10	1	0.1	1	1	375	0.2	375	376	15.8	85.3
2025-08-09T04:16	10	1	0.1	1	1	375	0.2	374	375	15.7	85.7
2025-08-09T04:17	10	1	0.1	1	1	374	0.3	374	375	15.6	86.1
2025-08-09T04:18	10	1	0.1	1	1	374	0.2	374	375	15.6	86.5
2025-08-09T04:19	10	1	0.1	1	1	374	0.2	374	375	15.5	86.8
2025-08-09T04:20	10	1	0.1	1	1	374	0.3	374	375	15.4	87.0
2025-08-09T04:21	10	1	0.1	1	1	375	0.4	374	375	15.5	87.1
2025-08-09T04:22	10	1	0.1	1	2	375	0.3	374	376	15.5	86.9
2025-08-09T04:23	10	1	0.1	1	2	375	0.2	375	376	15.5	86.9
2025-08-09T04:24	10	1	0.1	1	2	376	0.3	375	377	15.4	87.4
2025-08-09T04:25	10	2	0.1	1	2	376	0.3	375	376	15.4	87.6
2025-08-09T04:26	10	2	0.1	2	2	376	0.3	376	377	15.4	87.7
2025-08-09T04:27	10	2	0.1	2	2	376	0.2	375	376	15.4	87.6
2025-08-09T04:28	10	2	0.1	2	2	376	0.3	375	376	15.4	87.7
2025-08-09T04:29	10	2	0.1	2	2	376	0.3	375	377	15.4	87.6
2025-08-09T04:30	10	2	0.1	2	2	376	0.3	376	377	15.5	87.3
2025-08-09T04:31	10	2	0.1	2	3	377	0.2	376	377	15.5	86.8
2025-08-09T04:32	10	3	0.1	2	3	377	0.2	376	377	15.5	86.7
2025-08-09T04:33	10	3	0.1	3	3	377	0.3	376	378	15.5	86.6
2025-08-09T04:34	10	3	0.1	3	3	378	0.3	377	378	15.6	86.3
2025-08-09T04:35	10	3	0.1	3	3	378	0.5	378	379	15.7	85.8
2025-08-09T04:36	10	3	0.1	3	4	379	0.2	378	379	15.9	85.1
2025-08-09T04:37	10	4	0.1	3	4	379	0.3	379	380	15.9	84.8
2025-08-09T04:38	10	4	0.1	4	4	379	0.2	379	380	16.0	84.3
2025-08-09T04:39	10	4	0.1	4	4	380	0.2	379	380	16.0	84.2
2025-08-09T04:40	10	4	0.1	4	5	380	0.2	380	380	16.0	84.0
2025-08-09T04:41	10	5	0.1	4	5	380	0.2	380	381	16.1	83.8
2025-08-09T04:42	10	5	0.1	5	5	380	0.3	380	381	16.1	83.7
2025-08-09T04:43	10	5	0.1	5	5	381	0.2	380	381	16.1	83.5
2025-08-09T04:44	10	6	0.1	5	6	381	0.2	380	381	16.1	83.9
2025-08-09T04:45	10	6	0.1	6	6	381	0.3	380	382	16.1	84.0
2025-08-09T04:46	10	6	0.1	6	7	381	0.2	380	381	16.0	84.2
2025-08-09T04:47	10	7	0.1	6	7	380	0.2	380	381	16.0	84.3
2025-08-09T04:48	10	7	0.1	7	7	380	0.2	380	381	16.0	84.3
2025-08-09T04:49	10	7	0.1	7	8	380	0.2	380	381	16.0	84.3
2025-08-09T04:50	10	8	0.1	7	8	380	0.3	380	381	16.0	84.4
2025-08-09T04:51	10	8	0.1	8	8	380	0.2	380	381	16.0	84.5
2025-08-09T04:52	10	8	0.1	8	9	380	0.2	380	381	16.0	84.4
2025-08-09T04:53	10	9	0.2	8	9	381	0.2	380	381	16.0	84.4
2025-08-09T04:54	10	9	0.1	9	9	381	0.3	380	381	16.0	84.8
2025-08-09T04:55	10	10	0.2	9	10	381	0.3	381	382	15.9	85.0
2025-08-09T04:56	10	10	0.2	10	10	382	0.2	381	382	16.1	84.5
2025-08-09T04:57	10	11	0.2	10	11	382	0.2	381	383	16.1	84.3
2025-08-09T04:58	10	11	0.1	11	11	382	0.2	382	383	16.1	84.3
2025-08-09T04:59	10	11	0.2	11	12	382	0.3	381	383	16.1	84.4
2025-08-09T05:00	10	12	0.1	12	12	383	0.2	382	383	16.0	84.7
2025-08-09T05:01	10	12	0.2	12	13	383	0.3	382	383	15.9	85.0
2025-08-09T05:02	10	13	0.1	13	13	383	0.2	383	384	15.9	85.4
2025-08-09T05:03	10	13	0.2	13	14	384	0.2	383	384	15.8	85.8
2025-08-09T05:04	10	14	0.2	14	14	384	0.2	383	384	15.8	86.0
2025-08-09T05:05	10	14	0.1	14	15	384	0.2	383	385	15.8	85.9
2025-08-09T05:06	10	15	0.2	15	15	384	0.3	384	385	15.8	85.9
2025-08-09T05:07	10	15	0.1	15	16	385	0.3	384	385	15.8	86.0
2025-08-09T05:08	10	16	0.2	16	16	385	0.3	384	386	15.9	85.8
2025-08-09T05:09	10	17	0.1	16	17	386	0.2	385	386	15.9	85.4
2025-08-09T05:10	10	17	0.2	17	17	386	0.2	385	386	15.9	85.3
2025-08-09T05:11	10	17	0.2	17	18	386	0.3	385	386	15.9	85.7
2025-08-09T05:12	10	18	0.2	18	18	387	0.3	386	387	15.9	85.8
2025-08-09T05:13	10	19	0.2	18	19	387	0.2	386	387	15.9	85.7
2025-08-09T05:14	10	19	0.2	19	19	387	0.3	386	388	15.9	85.6
2025-08-09T05:15	10	20	0.2	19	20	388	0.2	387	388	15.9	85.6
2025-08-09T05:16	10	20	0.4	20	21	388	0.2	387	388	15.9	85.7
2025-08-09T05:17	10	22	0.6	21	23	388	0.2	388	389	15.9	86.0
2025-08-09T05:18	10	22	0.5	22	23	389	0.4	388	389	16.0	85.6
2025-08-09T05:19	10	22	0.3	21	22	389	0.2	389	390	16.2	84.9
2025-08-09T05:20	10	22	0.2	22	23	390	0.4	389	391	16.3	84.3
2025-08-09T05:21	10	23	0.2	23	23	390	0.3	390	391	16.4	83.6
2025-08-09T05:22	10	24	0.2	23	24	391	0.4	390	392	16.5	83.6
2025-08-09T05:23	10	24	0.2	24	24	392	0.2	391	392	16.6	82.9
2025-08-09T05:24	10	24	0.2	24	25	392	0.3	391	392	16.6	82.9
2025-08-09T05:25	10	25	0.2	25	25	393	0.2	392	393	16.7	81.7
2025-08-09T05:26	10	26	0.2	25	26	393	0.2	393	393	16.8	81.5
2025-08-09T05:27	10	26	0.2	26	27	393	0.2	393	394	16.8	81.8
2025-08-09T05:28	10	27	0.1	27	27	394	0.2	393	394	16.8	82.0
2025-08-09T05:29	10	27	0.2	27	28	394	0.3	394	395	16.9	81.8
2025-08-09T05:30	10	28	0.3	28	29	395	0.2	394	395	16.9	81.9
2025-08-09T05:31	10	29	0.1	29	29	395	0.2	395	396	16.9	82.1
2025-08-09T05:32	10	29	0.1	29	29	395	0.2	395	396	17.0	81.3
2025-08-09T05:33	10	29	0.3	29	30	395	0.2	395	396	17.1	81.3
2025-08-09T05:34	10	30	0.2	30	31	396	0.2	395	396	17.1	81.5
2025-08-09T05:35	10	31	0.2	31	31	396	0.2	395	396	17.1	81.7
2025-08-09T05:36	10	32	0.2	31	32	396	0.2	396	397	17.1	81.5
2025-08-09T05:37	10	32	0.1	32	32	396	0.2	396	396	17.1	81.5
2025-08-09T05:38	10	32	0.1	32	33	396	0.2	396	397	17.0	81.4
2025-08-09T05:39	10	33	0.1	32	33	397	0.2	396	397	17.0	82.3
2025-08-09T05:40	10	33	0.2	33	34	397	0.3	397	398	17.0	81.0
2025-08-09T05:41	10	33	0.3	33	34	398	0.2	397	398	17.1	81.3
2025-08-09T05:42	10	33	0.3	32	34	398	0.2	397	399	17.2	80.7
2025-08-09T05:43	10	34	0.5	33	35	398	0.3	397	399	17.2	80.5
2025-08-09T05:44	10	35	0.2	35	36	399	0.2	398	399	17.3	81.0
2025-08-09T05:45	10	36	0.3	35	36	399	0.3	398	400	17.4	80.1
2025-08-09T05:46	10	34	0.6	33	35	399	0.3	398	400	17.4	80.4
2025-08-09T05:47	10	33	0.3	32	34	400	0.2	399	400	17.4	80.3
2025-08-09T05:48	10	31	0.7	30	32	400	0.3	399	400	17.5	80.6
2025-08-09T05:49	10	32	1.5	30	35	400	0.3	399	400	17.5	81.0
2025-08-09T05:50	10	37	0.9	35	38	401	0.4	400	401	17.4	81.3
2025-08-09T05:51	10	38	0.4	38	39	401	0.3	401	402	17.5	79.2
2025-08-09T05:52	10	39	0.2	39	40	402	0.3	401	402	17.6	78.8
2025-08-09T05:53	10	40	0.3	40	41	402	0.3	402	403	17.7	78.9
2025-08-09T05:54	10	41	0.2	41	41	403	0.2	403	404	17.8	77.8
2025-08-09T05:55	10	42	0.2	41	42	404	0.3	403	404	17.9	77.2
2025-08-09T05:56	10	42	0.2	42	43	404	0.3	404	405	18.0	77.9
2025-08-09T05:57	10	43	0.3	43	44	405	0.2	405	405	18.0	77.6
2025-08-09T05:58	10	44	0.2	44	44	405	0.3	405	406	18.0	77.7
2025-08-09T05:59	10	45	0.2	44	45	405	0.2	405	406	18.0	78.2
2025-08-09T06:00	10	46	0.2	45	46	405	0.2	405	406	18.0	78.0
2025-08-09T06:01	10	46	0.2	46	47	406	0.2	405	406	18.0	77.9
2025-08-09T06:02	10	47	0.3	46	47	406	0.3	406	407	18.1	78.1
2025-08-09T06:03	10	48	0.2	47	48	407	0.2	407	408	18.2	78.5
2025-08-09T06:04	10	48	0.2	48	48	408	0.2	407	408	18.2	77.8
2025-08-09T06:05	10	49	0.1	48	49	408	0.2	408	409	18.3	77.9
2025-08-09T06:06	10	49	0.1	49	49	408	0.2	408	409	18.3	76.1
2025-08-09T06:07	10	49	0.1	49	50	409	0.3	408	409	18.4	76.3
2025-08-09T06:08	10	50	0.2	49	50	409	0.2	408	410	18.4	77.3
2025-08-09T06:09	10	50	0.2	50	51	409	0.3	409	410	18.4	76.8
2025-08-09T06:10	10	51	0.2	50	51	408	0.5	407	409	18.4	77.2
2025-08-09T06:11	10	51	0.2	51	52	408	0.3	407	409	18.2	78.1
2025-08-09T06:12	10	52	0.2	52	52	408	0.3	407	408	18.1	78.8
2025-08-09T06:13	10	53	0.2	52	53	409	0.3	408	409	18.1	79.1
2025-08-09T06:14	10	53	0.2	53	54	409	0.3	408	410	18.2	79.0
2025-08-09T06:15	10	54	0.2	53	54	410	0.3	409	410	18.2	79.3
2025-08-09T06:16	10	54	0.2	54	55	410	0.4	409	411	18.3	77.7
2025-08-09T06:17	10	55	0.2	55	55	409	0.2	409	410	18.3	76.9
2025-08-09T06:18	10	56	0.2	55	56	410	0.2	409	410	18.4	76.3
2025-08-09T06:19	10	56	0.2	56	57	410	0.4	409	411	18.5	75.0
2025-08-09T06:20	10	57	0.2	56	57	411	0.3	410	412	18.6	74.6
2025-08-09T06:21	10	57	0.2	57	58	412	0.4	411	413	18.6	75.2
2025-08-09T06:22	10	58	0.2	57	58	413	0.2	412	413	18.8	74.8
2025-08-09T06:23	10	58	0.2	58	59	413	0.3	412	414	18.8	74.0
2025-08-09T06:24	10	59	0.2	59	59	414	0.3	413	414	18.9	74.4
2025-08-09T06:25	10	60	0.2	59	60	414	0.3	413	415	18.9	73.7
2025-08-09T06:26	10	60	0.2	60	61	414	0.3	413	415	18.9	73.2
2025-08-09T06:27	10	61	0.2	61	61	415	0.3	414	416	19.0	72.9
2025-08-09T06:28	10	62	0.2	61	62	415	0.2	414	415	19.0	72.5
2025-08-09T06:29	10	62	0.1	62	62	415	0.3	415	416	19.0	72.8
2025-08-09T06:30	10	63	0.2	62	63	416	0.3	415	417	19.0	73.4
2025-08-09T06:31	10	63	0.2	63	64	416	0.2	416	417	19.1	73.2
2025-08-09T06:32	10	64	0.2	64	65	417	0.3	416	418	19.1	73.2
2025-08-09T06:33	10	65	0.3	64	65	418	0.2	417	418	19.2	73.3
2025-08-09T06:34	10	65	0.3	65	66	418	0.3	417	419	19.3	72.8
2025-08-09T06:35	10	66	0.2	65	66	418	0.3	418	419	19.3	72.8
2025-08-09T06:36	10	66	0.3	66	67	419	0.4	419	420	19.4	72.3
2025-08-09T06:37	10	67	0.3	66	68	420	0.4	418	421	19.5	72.7
2025-08-09T06:38	10	68	0.2	67	68	420	0.3	420	421	19.5	72.2
2025-08-09T06:39	10	68	0.2	68	69	421	0.3	420	421	19.5	72.4
2025-08-09T06:40	10	69	0.3	68	69	422	0.3	421	422	19.6	72.1
2025-08-09T06:41	10	70	0.3	69	70	422	0.3	422	423	19.7	72.0
2025-08-09T06:42	10	70	0.2	70	71	423	0.2	423	424	19.7	72.3
2025-08-09T06:43	10	71	0.2	71	72	424	0.5	423	425	19.8	71.9
2025-08-09T06:44	10	72	0.2	71	72	425	0.2	425	426	19.9	72.3
2025-08-09T06:45	10	73	0.2	72	73	426	0.3	425	427	20.0	71.9
2025-08-09T06:46	10	73	0.2	73	73	426	0.3	425	427	20.1	71.2
2025-08-09T06:47	10	74	0.1	73	74	427	0.2	426	427	20.2	70.8
2025-08-09T06:48	10	74	0.2	74	75	427	0.3	427	428	20.2	70.0
2025-08-09T06:49	10	75	0.2	74	75	428	0.3	427	428	20.3	69.9
2025-08-09T06:50	10	75	0.2	75	76	428	0.3	428	429	20.3	69.9
2025-08-09T06:51	10	76	0.2	75	76	429	0.2	429	430	20.4	70.2
2025-08-09T06:52	10	76	0.2	76	76	430	0.2	429	430	20.5	69.6
2025-08-09T06:53	10	77	0.2	76	77	431	0.3	430	431	20.6	69.4
2025-08-09T06:54	10	77	0.2	77	78	432	0.2	431	432	20.7	69.9
2025-08-09T06:55	10	78	0.2	77	78	432	0.3	432	433	20.7	69.4
2025-08-09T06:56	10	78	0.2	78	79	433	0.2	432	433	20.8	69.2
2025-08-09T06:57	10	79	0.2	78	79	433	0.2	433	433	20.8	68.6
2025-08-09T06:58	10	79	0.1	79	79	434	0.2	433	434	20.9	68.5
2025-08-09T06:59	10	80	0.1	79	80	434	0.2	434	434	21.1	69.2
2025-08-09T07:00	10	80	0.1	80	80	435	0.3	434	435	21.2	68.3
2025-08-09T07:01	10	81	0.2	80	81	435	0.2	435	436	21.2	68.4
2025-08-09T07:02	10	81	0.2	81	81	436	0.3	435	436	21.2	68.6
2025-08-09T07:03	10	82	0.1	81	82	436	0.2	436	437	21.3	68.5
2025-08-09T07:04	10	82	0.2	82	83	437	0.3	436	437	21.3	67.9
2025-08-09T07:05	10	83	0.2	82	83	437	0.3	436	437	21.3	67.4
2025-08-09T07:06	10	83	0.2	83	84	437	0.2	437	438	21.4	66.5
2025-08-09T07:07	10	84	0.2	84	84	438	0.2	438	438	21.5	65.9
2025-08-09T07:08	10	84	0.2	84	85	439	0.4	439	440	21.6	66.4
2025-08-09T07:09	10	85	0.2	85	85	440	0.3	439	440	21.6	66.4
2025-08-09T07:10	10	86	0.2	85	86	440	0.2	439	440	21.5	66.4
2025-08-09T07:11	10	86	0.1	86	86	440	0.2	440	441	21.5	66.3
2025-08-09T07:12	10	87	0.3	86	87	440	0.4	439	441	21.5	66.0
2025-08-09T07:13	10	87	0.2	87	88	440	0.2	440	441	21.4	65.8
2025-08-09T07:14	10	88	0.2	87	88	441	0.3	440	442	21.4	66.4
2025-08-09T07:15	10	88	0.2	88	89	442	0.4	441	443	21.4	66.4
2025-08-09T07:16	10	89	0.2	88	89	442	0.4	441	443	21.3	67.4
2025-08-09T07:17	10	89	0.2	89	89	442	0.2	441	442	21.1	67.8
2025-08-09T07:18	10	90	0.2	89	90	441	0.3	441	442	21.1	67.6
2025-08-09T07:19	10	90	0.1	90	90	442	0.3	441	443	21.2	67.0
2025-08-09T07:20	10	90	0.2	90	91	443	0.2	442	443	21.3	67.1
2025-08-09T07:21	10	91	0.2	90	91	443	0.3	442	444	21.3	67.2
2025-08-09T07:22	10	91	0.2	91	92	444	0.4	443	445	21.3	67.2
2025-08-09T07:23	10	92	0.2	91	92	445	0.4	444	446	21.4	66.9
2025-08-09T07:24	10	92	0.2	92	93	446	0.5	445	447	21.5	66.6
2025-08-09T07:25	10	93	0.2	92	93	446	0.5	445	447	21.6	66.3
2025-08-09T07:26	10	93	0.2	93	94	447	0.3	446	447	21.7	65.8
2025-08-09T07:27	10	94	0.1	94	94	447	0.3	446	447	21.6	65.7
2025-08-09T07:28	10	94	0.2	94	95	447	0.2	446	447	21.5	65.9
2025-08-09T07:29	10	95	0.2	95	95	447	0.4	447	448	21.7	65.2
2025-08-09T07:30	10	95	0.2	95	96	447	0.3	447	448	21.7	65.0
2025-08-09T07:31	10	96	0.1	96	96	448	0.3	448	449	21.6	64.9
2025-08-09T07:32	10	96	0.2	96	96	449	0.4	448	450	21.8	64.9
2025-08-09T07:33	10	97	0.2	96	97	449	0.4	448	450	21.8	64.3
2025-08-09T07:34	10	97	0.1	97	97	450	0.4	449	450	21.9	64.4
2025-08-09T07:35	10	97	0.2	97	98	451	0.3	450	452	22.1	63.7
2025-08-09T07:36	10	98	0.1	98	98	450	0.3	450	451	22.0	63.1
2025-08-09T07:37	10	98	0.1	98	99	450	0.3	449	451	21.9	63.6
2025-08-09T07:38	10	99	0.2	98	99	451	0.5	451	452	22.0	63.4
2025-08-09T07:39	10	99	0.2	99	99	453	0.6	452	454	22.1	63.5
2025-08-09T07:40	10	99	0.1	99	100	454	0.3	453	454	22.3	63.0
2025-08-09T07:41	10	100	0.2	100	101	454	0.2	454	455	22.4	62.8
2025-08-09T07:42	10	101	0.2	100	101	455	0.3	455	456	22.7	62.7
2025-08-09T07:43	10	101	0.2	101	101	456	0.3	455	457	22.5	62.3
2025-08-09T07:44	10	101	0.1	101	102	456	0.4	455	456	22.5	62.5
2025-08-09T07:45	10	102	0.1	102	102	455	0.3	455	456	22.5	61.8
2025-08-09T07:46	10	102	0.2	102	103	456	0.3	455	456	22.4	62.3
2025-08-09T07:47	10	103	0.2	102	103	457	0.4	456	457	22.5	62.0
2025-08-09T07:48	10	103	0.1	103	104	457	0.3	457	458	22.7	60.9
2025-08-09T07:49	10	104	0.2	103	104	458	0.3	457	459	22.8	60.8
2025-08-09T07:50	10	104	0.2	104	105	459	0.2	458	460	22.9	60.3
2025-08-09T07:51	10	105	0.2	104	105	459	0.4	459	460	22.7	60.2
2025-08-09T07:52	10	105	0.3	104	106	460	0.2	459	460	22.7	59.9
2025-08-09T07:53	10	105	0.2	105	106	460	0.3	459	460	22.9	59.5
2025-08-09T07:54	10	106	0.2	105	106	460	0.3	460	461	23.1	59.8
2025-08-09T07:55	10	106	0.2	106	107	461	0.3	461	462	23.2	59.6
2025-08-09T07:56	10	107	0.1	106	107	463	0.4	462	463	23.3	59.0
2025-08-09T07:57	10	107	0.2	107	107	462	0.3	462	463	23.1	59.1
2025-08-09T07:58	10	107	0.2	107	108	462	0.4	461	462	23.2	59.3
2025-08-09T07:59	10	108	0.1	108	108	463	0.3	462	463	23.2	58.2
2025-08-09T08:00	10	108	0.2	108	109	463	0.2	462	463	23.1	57.9
2025-08-09T08:01	10	109	0.1	109	109	464	0.4	463	464	23.3	57.7
2025-08-09T08:02	10	109	0.1	109	109	465	0.6	464	466	23.4	57.9
2025-08-09T08:03	10	109	0.2	109	110	466	0.3	466	467	23.6	57.1
2025-08-09T08:04	10	110	0.2	109	110	466	0.2	466	467	23.6	57.1
2025-08-09T08:05	10	110	0.1	110	110	467	0.2	466	467	23.5	56.9
2025-08-09T08:06	10	110	0.1	110	111	467	0.5	466	468	23.6	56.8
2025-08-09T08:07	10	111	0.2	110	111	468	0.6	467	469	23.6	56.8
2025-08-09T08:08	10	111	0.1	111	111	467	0.3	467	468	23.5	57.3
2025-08-09T08:09	10	111	0.1	111	112	469	0.3	468	470	23.7	57.2
2025-08-09T08:10	10	112	0.1	112	112	469	0.6	467	470	24.0	56.3
2025-08-09T08:11	10	112	0.1	112	112	467	0.7	466	468	23.7	56.0
2025-08-09T08:12	10	112	0.2	112	113	467	0.6	466	468	23.4	56.5
2025-08-09T08:13	10	113	0.2	112	113	467	0.3	466	468	23.3	56.3
2025-08-09T08:14	10	113	0.1	113	113	468	0.4	468	469	23.5	56.2
2025-08-09T08:15	10	113	0.1	113	114	469	0.3	468	470	23.5	55.8
2025-08-09T08:16	10	114	0.1	113	114	471	0.5	470	472	23.8	55.6
2025-08-09T08:17	10	114	0.2	114	114	470	0.6	469	471	23.8	54.9
2025-08-09T08:18	10	114	0.1	114	115	471	0.5	470	472	23.7	55.2
2025-08-09T08:19	10	115	0.1	115	115	471	0.6	469	472	23.7	55.1
2025-08-09T08:20	10	115	0.1	115	115	470	0.4	470	471	23.7	54.7
2025-08-09T08:21	10	115	0.1	115	116	472	0.4	470	472	23.8	54.3
2025-08-09T08:22	10	116	0.1	115	116	472	0.5	471	473	23.8	54.2
2025-08-09T08:23	10	116	0.2	116	117	472	0.4	471	473	23.8	54.4
2025-08-09T08:24	10	117	0.1	116	117	473	0.5	472	474	23.9	53.9
2025-08-09T08:25	10	117	0.2	117	117	474	0.3	473	474	24.0	54.0
2025-08-09T08:26	10	117	0.1	117	118	474	0.5	473	475	23.9	54.5
2025-08-09T08:27	10	118	0.1	118	118	473	0.3	473	474	23.9	54.5
2025-08-09T08:28	10	118	0.1	118	118	475	0.9	473	477	24.1	54.2
2025-08-09T08:29	10	118	0.1	118	118	477	0.6	476	478	24.5	53.6
2025-08-09T08:30	10	119	0.1	118	119	477	0.4	476	477	24.2	53.1
2025-08-09T08:31	10	119	0.2	119	120	477	0.4	476	478	24.3	53.4
2025-08-09T08:32	10	119	0.2	119	120	478	0.4	477	479	24.6	53.0
2025-08-09T08:33	10	120	0.2	120	121	478	0.4	477	478	24.7	53.0
2025-08-09T08:34	10	120	0.3	120	121	478	0.5	477	478	24.5	54.0
2025-08-09T08:35	10	120	0.2	120	121	479	0.6	478	480	24.7	55.0
2025-08-09T08:36	10	121	0.2	120	121	479	0.5	478	480	24.3	54.7
2025-08-09T08:37	10	121	0.2	121	121	478	0.3	478	479	24.2	55.3
2025-08-09T08:38	10	121	0.2	121	122	478	0.5	477	479	24.1	55.7
2025-08-09T08:39	10	121	0.2	121	122	479	0.6	478	481	24.4	55.6
2025-08-09T08:40	10	122	0.2	121	122	480	0.5	479	481	24.3	55.3
2025-08-09T08:41	10	122	0.2	121	122	481	0.3	480	481	24.3	55.5
2025-08-09T08:42	10	122	0.1	122	122	483	0.4	482	483	24.6	54.8
2025-08-09T08:43	10	123	0.1	122	123	481	1.7	478	484	24.5	54.4
2025-08-09T08:44	10	123	0.1	123	123	480	0.6	479	482	24.3	55.4
2025-08-09T08:45	10	123	0.1	123	123	481	1.0	479	483	24.4	55.7
2025-08-09T08:46	10	123	0.1	123	124	480	0.6	479	482	24.2	55.7
2025-08-09T08:47	10	124	0.1	124	124	482	0.3	481	483	24.3	55.7
2025-08-09T08:48	10	124	0.1	124	124	483	0.8	482	485	24.5	55.3
2025-08-09T08:49	10	124	0.1	124	125	482	0.4	482	483	24.6	55.3
2025-08-09T08:50	10	125	0.1	124	125	481	0.7	480	482	24.4	55.4
2025-08-09T08:51	10	125	0.1	125	125	482	0.3	481	483	24.3	55.2
2025-08-09T08:52	10	125	0.1	125	125	483	0.9	482	485	24.3	55.3
2025-08-09T08:53	10	125	0.1	125	126	485	0.4	484	486	24.5	54.9
2025-08-09T08:54	10	126	0.1	126	126	485	0.4	484	486	24.4	55.1
2025-08-09T08:55	10	126	0.1	126	126	485	0.5	484	486	24.5	55.5
2025-08-09T08:56	10	126	0.1	126	127	485	0.5	484	487	24.6	55.2
2025-08-09T08:57	10	127	0.2	126	127	485	0.6	484	487	24.7	55.1
2025-08-09T08:58	10	127	0.1	127	127	484	0.4	484	485	24.3	55.7
2025-08-09T08:59	10	127	0.1	127	127	485	0.6	484	487	24.3	55.9
2025-08-09T09:00	10	128	0.1	127	128	485	0.3	484	485	24.3	55.8
2025-08-09T09:01	10	128	0.1	128	128	486	0.9	484	488	24.6	55.3
2025-08-09T09:02	10	128	0.1	128	128	486	0.6	485	487	24.4	55.1
2025-08-09T09:03	10	129	0.2	128	129	487	0.5	486	488	24.3	55.3
2025-08-09T09:04	10	129	0.2	128	129	489	0.8	488	491	24.6	55.2
2025-08-09T09:05	10	129	0.1	129	129	490	0.2	489	490	24.9	54.3
2025-08-09T09:06	10	129	0.2	129	130	490	0.4	489	491	25.1	53.3
2025-08-09T09:07	10	130	0.1	129	130	490	0.4	489	491	25.1	53.4
2025-08-09T09:08	10	130	0.1	130	130	492	0.6	490	493	25.3	53.8
2025-08-09T09:09	10	130	0.1	130	131	490	0.8	489	492	25.0	53.6
2025-08-09T09:10	10	131	0.1	130	131	491	0.4	490	492	25.1	53.5
2025-08-09T09:11	10	131	0.1	131	131	490	0.4	490	491	25.1	53.1
2025-08-09T09:12	10	131	0.2	131	132	491	0.4	490	492	25.0	53.3
2025-08-09T09:13	10	131	0.2	131	132	491	0.2	491	492	24.9	53.5
2025-08-09T09:14	10	131	0.1	131	132	492	0.6	491	494	25.2	53.3
2025-08-09T09:15	10	132	0.2	131	132	494	0.6	493	495	25.4	53.1
2025-08-09T09:16	10	132	0.1	132	132	492	1.1	490	494	25.3	53.0
2025-08-09T09:17	10	132	0.1	132	133	492	0.7	491	493	25.0	53.6
2025-08-09T09:18	10	132	0.2	132	133	493	0.3	492	494	25.1	53.4
2025-08-09T09:19	10	133	0.1	133	133	493	0.3	493	494	25.3	52.9
2025-08-09T09:20	10	133	0.1	133	133	494	0.5	493	496	25.4	52.7
2025-08-09T09:21	10	133	0.1	133	133	496	0.5	495	497	25.4	52.7
2025-08-09T09:22	10	133	0.2	133	134	498	0.6	497	499	25.4	52.7
2025-08-09T09:23	10	134	0.1	134	134	498	0.5	497	499	25.4	52.7
2025-08-09T09:24	10	134	0.1	134	134	497	1.4	494	499	25.4	52.7
2025-08-09T09:25	10	134	0.1	134	134	496	0.6	495	497	25.4	52.7
2025-08-09T09:26	10	134	0.1	134	134	498	1.1	496	500	25.4	52.7
2025-08-09T09:27	10	134	0.1	134	135	497	0.4	496	498	25.4	52.7
2025-08-09T09:28	10	135	0.1	134	135	498	0.5	497	499	25.6	52.8
2025-08-09T09:29	10	135	0.1	135	135	497	0.6	496	499	25.8	52.1
2025-08-09T09:30	10	135	0.1	135	135	500	0.3	499	501	26.1	52.3
2025-08-09T09:31	10	135	0.1	135	136	499	0.9	497	500	25.8	52.2
2025-08-09T09:32	10	135	0.1	135	136	497	0.5	496	498	25.6	53.0
2025-08-09T09:33	10	136	0.1	135	136	499	0.8	497	500	25.9	52.7
2025-08-09T09:34	10	136	0.1	135	136	499	0.4	498	500	25.9	52.6
2025-08-09T09:35	10	136	0.1	136	136	498	0.6	497	500	25.8	52.3
2025-08-09T09:36	10	136	0.1	136	137	501	0.7	499	502	25.9	52.9
2025-08-09T09:37	10	136	0.1	136	137	501	1.7	497	503	26.3	52.5
2025-08-09T09:38	10	137	0.1	137	137	497	0.8	496	499	25.7	53.3
2025-08-09T09:39	10	137	0.1	137	137	500	1.2	497	502	25.8	53.4
2025-08-09T09:40	10	137	0.1	137	137	501	0.4	501	502	26.0	52.5
2025-08-09T09:41	10	137	0.1	137	137	501	0.5	501	503	26.0	52.3
2025-08-09T09:42	10	138	0.2	137	138	503	0.5	502	504	26.0	52.4
2025-08-09T09:43	10	138	0.1	137	138	504	0.6	503	506	26.2	52.2
2025-08-09T09:44	10	138	0.1	138	138	505	0.7	503	506	26.5	52.1
2025-08-09T09:45	10	138	0.2	138	138	502	0.8	501	504	26.1	53.1
2025-08-09T09:46	10	138	0.1	138	138	504	0.6	503	505	26.3	53.0
2025-08-09T09:47	10	138	0.1	138	139	506	0.8	504	507	26.4	52.5
2025-08-09T09:48	10	138	0.1	138	139	506	0.5	505	507	26.5	52.5
2025-08-09T09:49	10	138	0.1	138	139	504	0.8	503	506	26.3	53.1
2025-08-09T09:50	10	139	0.1	138	139	504	0.3	504	505	26.4	53.0
2025-08-09T09:51	10	139	0.1	139	140	504	0.9	503	505	26.3	52.8
2025-08-09T09:52	10	139	0.1	139	140	504	0.5	503	505	26.3	52.7
2025-08-09T09:53	10	139	0.1	139	140	505	0.3	505	506	26.5	52.9
2025-08-09T09:54	10	139	0.2	139	140	505	0.4	504	506	26.6	52.4
2025-08-09T09:55	10	140	0.2	139	140	506	0.4	505	507	26.5	52.5
2025-08-09T09:56	10	140	0.1	140	140	507	1.1	506	510	26.5	52.4
2025-08-09T09:57	10	140	0.1	140	140	507	1.1	505	509	26.5	51.9
2025-08-09T09:58	10	140	0.1	140	140	506	1.0	505	508	26.4	52.1
2025-08-09T09:59	10	141	0.2	140	141	506	0.5	505	507	26.4	52.0
2025-08-09T10:00	10	141	0.1	141	141	508	0.9	507	510	26.4	52.0
2025-08-09T10:01	10	141	0.1	141	141	508	0.6	507	509	26.5	52.0
2025-08-09T10:02	10	141	0.1	141	141	509	0.7	508	510	26.6	51.8
2025-08-09T10:03	10	141	0.1	141	142	509	0.6	508	511	26.7	51.5
2025-08-09T10:04	10	142	0.1	141	142	510	0.6	509	511	27.0	50.7
2025-08-09T10:05	10	142	0.1	142	142	508	0.5	507	509	26.6	51.1
2025-08-09T10:06	10	142	0.1	142	142	509	0.8	507	510	26.6	51.4
2025-08-09T10:07	10	142	0.1	142	142	510	0.7	508	511	26.6	51.2
2025-08-09T10:08	10	142	0.1	142	143	510	0.9	509	512	27.0	50.5
2025-08-09T10:09	10	142	0.1	142	142	510	1.2	507	512	27.1	50.3
2025-08-09T10:10	10	142	0.1	142	143	509	1.1	508	511	26.8	50.8
2025-08-09T10:11	10	143	0.2	142	143	510	1.5	508	513	27.2	50.4
2025-08-09T10:12	10	143	0.1	143	143	509	1.0	507	511	26.7	50.7
2025-08-09T10:13	10	143	0.1	143	143	509	0.5	508	510	26.6	51.1
2025-08-09T10:14	10	143	0.2	143	144	510	0.7	508	511	26.6	51.0
2025-08-09T10:15	10	144	0.1	144	144	513	1.0	511	515	27.1	50.8
2025-08-09T10:16	10	144	0.1	144	144	511	1.2	510	514	26.9	50.3
2025-08-09T10:17	10	144	0.1	144	144	513	0.8	512	514	27.1	50.3
2025-08-09T10:18	10	144	0.1	144	145	512	0.6	511	513	27.0	50.2
2025-08-09T10:19	10	144	0.1	144	144	512	0.3	511	513	26.7	50.5
2025-08-09T10:20	10	144	0.1	144	144	513	0.9	511	515	26.8	50.5
2025-08-09T10:21	10	144	0.1	144	145	516	1.4	514	519	27.3	50.2
2025-08-09T10:22	10	144	0.1	144	145	516	1.9	512	519	27.4	49.4
2025-08-09T10:23	10	145	0.1	144	145	514	0.5	512	515	27.3	49.8
2025-08-09T10:24	10	145	0.1	145	145	512	0.8	511	514	27.1	49.5
2025-08-09T10:25	10	145	0.1	144	145	515	1.0	512	516	27.3	49.8
2025-08-09T10:26	10	145	0.1	145	145	514	1.0	512	516	27.1	49.7
2025-08-09T10:27	10	145	0.1	145	145	514	0.6	512	515	27.3	49.3
2025-08-09T10:28	10	145	0.1	145	146	513	0.4	513	514	27.2	49.2
2025-08-09T10:29	10	146	0.1	145	146	515	1.1	513	517	27.3	49.0
2025-08-09T10:30	10	145	0.1	145	145	517	1.1	515	520	27.6	48.5
2025-08-09T10:31	10	145	0.1	145	146	513	1.0	512	516	27.3	48.8
2025-08-09T10:32	10	145	0.1	145	146	513	0.4	512	514	27.2	49.1
2025-08-09T10:33	10	146	0.1	145	146	514	1.0	513	516	27.2	49.0
2025-08-09T10:34	10	146	0.2	145	146	517	0.5	516	518	27.3	48.7
2025-08-09T10:35	10	146	0.2	146	146	518	0.5	517	520	27.6	48.7
2025-08-09T10:36	10	146	0.1	146	146	519	1.0	518	521	27.8	48.0
2025-08-09T10:37	10	147	0.1	146	147	519	0.9	517	520	27.7	48.1
2025-08-09T10:38	10	147	0.1	147	147	519	0.9	517	520	27.6	48.2
2025-08-09T10:39	10	147	0.1	147	147	521	0.7	520	523	28.4	47.7
2025-08-09T10:40	10	147	0.1	147	147	518	0.8	517	520	28.0	47.1
2025-08-09T10:41	10	147	0.1	147	147	519	0.8	517	520	27.9	47.4
2025-08-09T10:42	10	147	0.1	147	147	518	1.5	516	521	27.9	47.6
2025-08-09T10:43	10	147	0.1	147	147	517	1.3	515	520	27.7	48.0
2025-08-09T10:44	10	147	0.1	147	148	518	1.4	515	520	27.6	47.9
2025-08-09T10:45	10	147	0.1	147	147	515	0.4	515	516	27.4	48.4
2025-08-09T10:46	10	147	0.2	147	148	516	1.5	515	519	27.4	48.7
2025-08-09T10:47	10	147	0.2	147	148	520	0.9	519	522	27.7	47.8
2025-08-09T10:48	10	147	0.1	147	148	523	0.6	521	523	28.0	47.4
2025-08-09T10:49	10	147	0.2	147	148	522	1.1	519	523	28.2	47.0
2025-08-09T10:50	10	148	0.2	147	148	519	1.0	517	521	28.0	47.0
2025-08-09T10:51	10	148	0.2	147	148	518	1.1	517	521	27.9	47.2
2025-08-09T10:52	10	148	0.1	148	148	518	0.7	516	519	28.0	47.1
2025-08-09T10:53	10	148	0.1	147	148	520	0.9	518	521	27.7	47.4
2025-08-09T10:54	10	148	0.1	148	148	522	1.3	520	524	27.9	47.3
2025-08-09T10:55	10	148	0.1	148	148	524	0.6	522	525	28.4	46.3
2025-08-09T10:56	10	148	0.1	148	149	522	0.6	521	523	28.1	46.4
2025-08-09T10:57	10	149	0.2	149	149	522	0.5	521	523	28.0	46.3
2025-08-09T10:58	10	149	0.1	149	149	523	0.5	522	524	27.9	46.6
2025-08-09T10:59	10	149	0.2	149	150	524	0.4	523	525	28.3	45.8
2025-08-09T11:00	10	149	0.1	149	150	526	0.9	524	528	28.4	45.9
2025-08-09T11:01	10	149	0.1	149	150	526	0.6	525	528	28.5	45.2
2025-08-09T11:02	10	150	0.1	149	150	526	0.2	525	527	28.5	45.3
2025-08-09T11:03	10	150	0.1	149	150	527	0.7	526	528	28.7	45.6
2025-08-09T11:04	10	150	0.1	149	150	528	0.5	527	529	29.1	45.5
2025-08-09T11:05	10	150	0.2	149	150	526	0.7	525	528	28.8	44.6
2025-08-09T11:06	10	150	0.2	149	150	525	0.7	523	526	28.4	45.5
2025-08-09T11:07	10	150	0.1	149	150	524	0.9	523	525	28.3	45.9
2025-08-09T11:08	10	150	0.2	149	150	526	0.5	525	527	28.5	45.6
2025-08-09T11:09	10	150	0.2	149	150	525	0.4	525	526	28.4	45.4
2025-08-09T11:10	10	150	0.2	149	150	528	0.6	526	529	28.5	45.5
2025-08-09T11:11	10	150	0.2	149	150	528	0.4	527	529	28.7	45.0
2025-08-09T11:12	10	150	0.1	150	150	527	0.8	526	529	28.5	45.1
2025-08-09T11:13	10	150	0.2	150	150	527	0.4	526	528	28.5	45.3
2025-08-09T11:14	10	150	0.2	150	150	528	0.6	526	529	28.6	45.0
2025-08-09T11:15	10	150	0.2	149	151	529	0.3	528	530	28.7	44.8
2025-08-09T11:16	10	150	0.2	149	150	529	0.5	528	530	28.9	44.8
2025-08-09T11:17	10	150	0.2	150	151	529	0.8	528	531	29.0	44.3
2025-08-09T11:18	10	150	0.2	150	151	530	1.1	528	531	29.0	44.3
2025-08-09T11:19	10	150	0.1	150	151	532	0.4	531	533	29.5	44.3
2025-08-09T11:20	10	150	0.2	150	151	533	0.6	531	534	29.6	43.2
2025-08-09T11:21	10	150	0.1	150	151	531	0.9	529	533	29.1	43.7
2025-08-09T11:22	10	151	0.1	150	151	529	0.6	529	531	29.1	44.0
2025-08-09T11:23	10	151	0.1	150	151	531	0.6	531	533	29.2	43.8
2025-08-09T11:24	10	150	0.1	150	151	533	0.5	532	534	29.5	43.6
2025-08-09T11:25	10	151	0.1	150	151	533	0.4	532	534	29.6	43.6
2025-08-09T11:26	10	150	0.1	150	151	534	0.4	533	535	29.7	42.9
2025-08-09T11:27	10	151	0.1	150	151	532	0.8	531	534	29.6	42.7
2025-08-09T11:28	10	151	0.1	151	151	532	0.4	531	533	29.6	42.6
2025-08-09T11:29	10	151	0.1	151	151	534	0.8	532	535	29.9	42.5
2025-08-09T11:30	10	151	0.1	151	151	532	0.8	531	534	29.6	42.6
2025-08-09T11:31	10	151	0.1	151	151	532	0.8	530	533	29.5	42.9
2025-08-09T11:32	10	151	0.1	150	151	532	2.0	530	535	29.7	42.8
2025-08-09T11:33	10	150	0.1	150	151	535	0.6	533	536	30.3	41.8
2025-08-09T11:34	10	151	0.1	150	151	533	0.6	531	534	30.0	42.1
2025-08-09T11:35	10	151	0.1	150	151	532	0.9	531	534	29.8	42.5
2025-08-09T11:36	10	151	0.1	150	151	534	0.4	533	535	29.9	42.9
2025-08-09T11:37	10	150	0.1	150	151	535	1.2	533	537	30.0	42.4
2025-08-09T11:38	10	150	0.1	150	150	533	0.8	532	535	29.8	42.3
2025-08-09T11:39	10	150	0.1	150	151	534	0.6	533	535	29.8	42.5
2025-08-09T11:40	10	150	0.1	150	151	532	1.0	531	535	29.7	42.3
2025-08-09T11:41	10	150	0.1	150	150	532	0.4	531	533	29.6	42.5
2025-08-09T11:42	10	150	0.1	150	150	534	1.1	532	536	29.9	42.2
2025-08-09T11:43	10	150	0.2	150	150	535	0.9	533	537	29.9	42.1
2025-08-09T11:44	10	150	0.1	149	150	534	0.5	533	535	30.1	41.8
2025-08-09T11:45	10	150	0.2	149	150	534	1.2	531	536	29.9	41.9
2025-08-09T11:46	10	150	0.2	149	150	533	0.8	532	534	29.8	42.1
2025-08-09T11:47	10	150	0.2	149	150	535	0.4	534	536	29.9	41.9
2025-08-09T11:48	10	150	0.1	149	150	538	1.4	536	540	30.3	41.8
2025-08-09T11:49	10	150	0.1	150	150	538	1.2	536	540	30.3	41.2
2025-08-09T11:50	10	150	0.2	150	150	536	0.4	536	537	30.2	41.3
2025-08-09T11:51	10	150	0.1	150	150	537	0.2	536	537	30.2	41.2
2025-08-09T11:52	10	150	0.1	150	150	537	1.0	536	539	30.3	41.2
2025-08-09T11:53	10	150	0.1	150	150	537	0.5	535	538	30.2	41.2
2025-08-09T11:54	10	150	0.1	150	150	537	0.6	537	539	30.3	41.2
2025-08-09T11:55	10	150	0.1	150	150	538	0.4	537	539	30.5	40.8
2025-08-09T11:56	10	150	0.1	150	150	539	0.3	538	540	30.6	40.8
2025-08-09T11:57	10	150	0.1	150	150	540	1.0	539	542	31.0	40.2
2025-08-09T11:58	10	150	0.1	150	151	541	0.4	540	541	31.2	39.5
2025-08-09T11:59	10	151	0.1	150	151	542	0.6	541	543	31.3	39.4
2025-08-09T12:00	10	151	0.1	150	151	540	1.3	538	543	31.3	39.2
2025-08-09T12:01	10	151	0.1	150	151	541	0.6	539	542	31.4	39.0
2025-08-09T12:02	10	151	0.2	150	151	539	0.8	538	541	31.2	39.0
2025-08-09T12:03	10	150	0.2	150	152	540	0.4	539	541	31.1	38.4
2025-08-09T12:04	10	151	0.2	150	151	541	0.6	540	542	31.2	38.1
2025-08-09T12:05	10	151	0.2	150	151	541	0.3	541	542	31.3	38.2
2025-08-09T12:06	10	151	0.2	151	152	542	0.5	541	543	31.3	39.2
2025-08-09T12:07	10	151	0.2	150	152	541	0.7	539	542	31.3	39.8
2025-08-09T12:08	10	151	0.2	150	151	539	0.7	538	540	31.2	39.7
2025-08-09T12:09	10	151	0.2	150	151	538	0.9	536	540	31.4	39.4
2025-08-09T12:10	10	151	0.2	151	152	540	1.0	539	543	31.2	39.7
2025-08-09T12:11	10	151	0.2	151	152	543	0.5	542	544	31.5	39.8
2025-08-09T12:12	10	151	0.2	151	152	540	1.4	537	542	31.4	38.7
2025-08-09T12:13	10	151	0.1	151	152	539	1.3	537	541	31.2	39.0
2025-08-09T12:14	10	151	0.1	151	152	542	0.5	541	543	31.2	39.0
2025-08-09T12:15	10	151	0.2	151	152	543	0.7	541	544	31.4	39.2
2025-08-09T12:16	10	151	0.1	151	151	539	1.3	537	542	31.3	39.3
2025-08-09T12:17	10	151	0.1	151	151	536	1.3	533	538	31.4	39.5
2025-08-09T12:18	10	151	0.1	151	151	535	0.6	534	536	31.0	39.8
2025-08-09T12:19	10	151	0.2	151	151	534	1.0	533	536	30.8	40.1
2025-08-09T12:20	10	151	0.1	150	151	536	1.1	534	538	30.9	39.7
2025-08-09T12:21	10	150	0.3	150	150	538	0.8	537	540	31.1	39.6
2025-08-09T12:22	10	150	0.2	150	150	541	1.2	538	542	31.3	39.5
2025-08-09T12:23	10	150	0.1	150	150	537	2.2	534	542	30.9	40.5
2025-08-09T12:24	10	150	0.2	149	150	536	1.9	533	540	30.7	40.9
2025-08-09T12:25	10	150	0.2	149	150	534	0.8	533	537	30.7	40.6
2025-08-09T12:26	10	150	0.1	150	150	536	0.9	534	538	30.7	40.3
2025-08-09T12:27	10	150	0.2	149	150	540	1.0	537	542	30.9	40.2
2025-08-09T12:28	10	149	0.3	149	150	538	2.2	536	542	31.0	40.6
2025-08-09T12:29	10	149	0.1	149	149	538	0.9	537	540	30.8	41.1
2025-08-09T12:30	10	149	0.2	149	150	541	0.8	539	542	30.9	40.9
2025-08-09T12:31	10	149	0.1	149	149	539	1.3	537	542	31.3	40.3
2025-08-09T12:32	10	149	0.1	149	150	538	0.4	537	539	30.9	40.6
2025-08-09T12:33	10	149	0.2	149	149	537	1.1	535	539	31.0	40.6
2025-08-09T12:34	10	149	0.3	149	150	540	1.1	538	542	31.4	39.9
2025-08-09T12:35	10	149	0.2	149	149	541	0.7	540	542	31.4	39.9
2025-08-09T12:36	10	149	0.1	149	149	540	0.6	539	542	31.4	39.9
2025-08-09T12:37	10	149	0.2	149	149	540	0.9	538	542	31.4	39.8
2025-08-09T12:38	10	149	0.1	149	149	540	1.4	538	542	31.3	40.3
2025-08-09T12:39	10	148	0.1	148	149	541	0.4	540	542	31.6	39.7
2025-08-09T12:40	10	148	0.2	148	149	541	0.5	541	542	31.5	39.6
2025-08-09T12:41	10	148	0.2	148	149	541	1.2	538	543	31.7	39.1
2025-08-09T12:42	10	148	0.2	148	149	537	0.9	535	539	31.3	39.3
2025-08-09T12:43	10	148	0.1	148	148	538	0.5	537	539	31.3	39.6
2025-08-09T12:44	10	148	0.2	147	148	539	1.0	537	541	31.5	39.1
2025-08-09T12:45	10	148	0.1	147	148	537	1.1	535	540	31.3	38.8
2025-08-09T12:46	10	147	0.3	147	148	538	0.5	537	539	31.2	39.0
2025-08-09T12:47	10	147	0.1	147	147	538	0.5	536	539	31.3	38.9
2025-08-09T12:48	10	147	0.1	147	147	539	1.3	537	541	31.4	39.0
2025-08-09T12:49	10	147	0.2	146	147	539	0.6	538	540	31.5	38.6
2025-08-09T12:50	10	147	0.2	146	147	539	0.8	538	541	31.4	38.8
2025-08-09T12:51	10	146	0.2	146	147	539	1.1	538	541	31.7	38.2
2025-08-09T12:52	10	146	0.2	146	147	539	1.4	537	541	32.0	37.5
2025-08-09T12:53	10	146	0.2	146	147	538	0.5	538	540	31.9	37.0
2025-08-09T12:54	10	146	0.2	146	147	540	0.5	539	541	31.7	37.0
2025-08-09T12:55	10	146	0.2	146	147	542	1.7	540	546	31.9	37.5
2025-08-09T12:56	10	146	0.1	146	146	541	1.9	539	545	32.0	37.1
2025-08-09T12:57	10	146	0.2	145	146	541	0.9	539	543	31.9	37.2
2025-08-09T12:58	10	146	0.1	145	146	543	1.5	541	545	32.2	36.4
2025-08-09T12:59	10	145	0.1	145	146	542	1.0	540	544	32.1	35.9
2025-08-09T13:00	10	146	0.1	145	146	543	0.9	542	545	32.3	35.8
2025-08-09T13:01	10	145	0.2	145	146	541	1.7	539	544	32.4	35.8
2025-08-09T13:02	10	145	0.2	145	145	540	1.1	538	541	32.2	35.9
2025-08-09T13:03	10	145	0.1	145	145	543	1.4	540	545	32.6	36.0
2025-08-09T13:04	10	145	0.1	144	145	546	0.6	544	547	32.8	35.5
2025-08-09T13:05	10	145	0.2	144	145	539	3.2	535	544	32.3	34.9
2025-08-09T13:06	10	144	0.2	144	144	538	0.9	537	540	32.1	35.6
2025-08-09T13:07	10	144	0.1	143	144	540	1.3	539	543	32.0	35.8
2025-08-09T13:08	10	144	0.1	143	144	543	0.9	541	544	32.4	34.4
2025-08-09T13:09	10	143	0.2	143	144	541	1.6	538	544	32.5	33.2
2025-08-09T13:10	10	143	0.2	143	143	539	0.8	537	541	32.1	33.4
2025-08-09T13:11	10	142	0.1	142	143	541	0.5	540	542	32.5	33.4
2025-08-09T13:12	10	142	0.2	142	143	544	1.0	542	546	32.6	33.2
2025-08-09T13:13	10	143	0.1	142	143	541	1.1	539	543	32.5	33.2
2025-08-09T13:14	10	143	0.2	142	143	542	0.8	541	544	32.5	32.9
2025-08-09T13:15	10	142	0.2	142	143	543	0.3	542	544	32.5	32.9
2025-08-09T13:16	10	142	0.1	142	143	545	0.9	543	546	32.7	33.5
2025-08-09T13:17	10	142	0.2	142	143	544	0.9	543	546	32.7	32.6
2025-08-09T13:18	10	142	0.2	142	143	542	0.9	541	544	32.8	32.1
2025-08-09T13:19	10	142	0.1	142	142	542	0.8	540	544	32.7	32.4
2025-08-09T13:20	10	142	0.1	142	142	544	0.4	543	545	32.7	32.3
2025-08-09T13:21	10	141	0.3	141	142	545	0.5	544	546	33.0	32.6
2025-08-09T13:22	10	141	0.1	141	141	545	0.5	544	546	33.3	31.7
2025-08-09T13:23	10	141	0.1	140	141	546	1.6	543	548	33.6	31.9
2025-08-09T13:24	10	141	0.1	140	141	543	0.5	542	544	33.4	32.3
2025-08-09T13:25	10	140	0.2	140	141	543	2.6	538	547	33.4	32.2
2025-08-09T13:26	10	140	0.2	140	141	537	0.9	536	539	32.6	33.1
2025-08-09T13:27	10	140	0.4	140	141	541	1.4	539	543	32.5	33.0
2025-08-09T13:28	10	139	0.2	139	140	542	0.6	541	543	32.6	32.7
2025-08-09T13:29	10	140	0.2	139	140	544	0.6	543	545	32.7	32.8
2025-08-09T13:30	10	140	0.1	139	140	544	1.1	543	546	33.1	32.9
2025-08-09T13:31	10	139	0.1	139	140	544	0.4	543	545	33.5	32.4
2025-08-09T13:32	10	140	0.2	139	140	545	0.9	544	547	33.7	32.4
2025-08-09T13:33	10	140	0.1	140	140	543	0.5	542	544	33.0	32.7
2025-08-09T13:34	10	140	0.1	139	140	543	0.6	541	544	32.8	33.0
2025-08-09T13:35	10	140	0.1	139	140	542	0.7	541	543	32.7	33.2
2025-08-09T13:36	10	139	0.2	139	140	544	0.7	542	545	32.8	33.3
2025-08-09T13:37	10	139	0.3	139	140	545	0.8	544	546	33.3	31.3
2025-08-09T13:38	10	139	0.3	138	140	544	0.8	543	546	33.9	27.7
2025-08-09T13:39	10	139	0.3	138	139	543	2.3	540	547	34.1	27.1
2025-08-09T13:40	10	138	0.2	138	139	541	1.0	538	542	33.9	27.2
2025-08-09T13:41	10	138	0.3	138	139	538	1.3	536	541	33.8	27.0
2025-08-09T13:42	10	138	0.3	137	138	540	1.3	537	542	33.8	27.1
2025-08-09T13:43	10	137	0.1	137	138	540	1.1	538	542	34.0	27.1
2025-08-09T13:44	10	137	0.2	137	138	543	1.3	541	545	34.3	26.9
2025-08-09T13:45	10	137	0.2	137	137	540	1.2	538	543	34.3	27.1
2025-08-09T13:46	10	137	0.1	136	137	541	0.8	539	542	34.6	27.1
2025-08-09T13:47	10	136	0.1	136	137	541	1.1	539	543	34.3	27.4
2025-08-09T13:48	10	136	0.2	136	137	539	1.5	537	541	34.2	27.2
2025-08-09T13:49	10	136	0.1	136	136	536	0.8	535	538	33.8	27.0
2025-08-09T13:50	10	136	0.2	135	136	540	1.8	537	543	33.8	27.1
2025-08-09T13:51	10	136	0.2	135	136	539	1.9	537	544	34.0	26.8
2025-08-09T13:52	10	136	0.1	136	136	539	1.2	537	542	34.0	27.0
2025-08-09T13:53	10	136	0.2	135	136	538	1.2	536	541	34.1	27.0
2025-08-09T13:54	10	135	0.2	135	135	541	1.3	539	544	34.4	26.9
2025-08-09T13:55	10	135	0.2	134	135	538	0.8	536	540	34.0	26.8
2025-08-09T13:56	10	134	0.1	134	134	536	1.2	534	538	34.1	26.9
2025-08-09T13:57	10	133	0.1	133	134	537	0.8	535	538	34.1	26.8
2025-08-09T13:58	10	134	0.2	134	134	537	0.8	536	538	34.0	26.7
2025-08-09T13:59	10	134	0.1	133	134	540	1.2	538	543	34.1	26.8
2025-08-09T14:00	10	133	0.1	133	134	541	1.0	540	543	34.3	27.0
2025-08-09T14:01	10	133	0.3	132	133	538	1.8	535	540	34.3	26.7
2025-08-09T14:02	10	133	0.1	132	133	539	1.7	536	541	34.1	26.7
2025-08-09T14:03	10	132	0.1	132	133	542	1.6	539	544	34.3	27.0
2025-08-09T14:04	10	132	0.2	132	133	538	2.0	534	540	34.2	27.1
2025-08-09T14:05	10	132	0.3	131	132	535	0.9	534	537	33.9	26.9
2025-08-09T14:06	10	131	0.2	131	132	540	1.5	537	542	33.9	26.9
2025-08-09T14:07	10	131	0.2	131	132	540	1.0	538	541	34.5	26.7
2025-08-09T14:08	10	131	0.3	130	132	537	0.9	536	539	34.2	26.6
2025-08-09T14:09	10	131	0.1	131	131	536	1.0	534	538	34.1	26.8
2025-08-09T14:10	10	131	0.1	131	131	536	0.5	535	537	34.2	26.7
2025-08-09T14:11	10	130	0.2	130	131	540	1.5	537	542	34.2	26.9
2025-08-09T14:12	10	130	0.1	130	131	540	0.5	539	541	34.5	26.6
2025-08-09T14:13	10	130	0.2	129	130	540	1.0	537	542	34.5	26.5
2025-08-09T14:14	10	130	0.2	129	130	538	1.3	535	539	34.5	26.8
2025-08-09T14:15	10	129	0.2	129	130	536	0.4	535	537	34.5	26.6
2025-08-09T14:16	10	129	0.1	129	129	535	1.9	532	538	34.2	26.5
2025-08-09T14:17	10	129	0.1	129	129	535	1.3	533	537	33.9	26.3
2025-08-09T14:18	10	129	0.2	128	129	536	1.3	534	538	34.0	26.7
2025-08-09T14:19	10	128	0.2	128	128	538	0.9	537	540	33.9	27.0
2025-08-09T14:20	10	128	0.2	127	128	538	0.8	536	539	34.3	26.8
2025-08-09T14:21	10	128	0.2	127	128	539	0.9	538	541	34.6	26.9
2025-08-09T14:22	10	128	0.2	127	128	537	1.2	535	539	34.5	26.4
2025-08-09T14:23	10	127	0.2	127	127	540	0.9	539	542	34.3	26.6
2025-08-09T14:24	10	127	0.2	126	127	540	1.4	538	542	34.6	26.6
2025-08-09T14:25	10	126	0.1	126	127	538	0.6	537	540	34.7	26.5
2025-08-09T14:26	10	126	0.3	125	127	539	0.4	538	540	34.7	26.0
2025-08-09T14:27	10	126	0.2	125	126	541	1.3	539	543	34.8	26.4
2025-08-09T14:28	10	125	0.1	125	126	541	1.1	539	543	35.1	26.3
2025-08-09T14:29	10	125	0.2	125	126	536	2.7	532	540	34.7	26.1
2025-08-09T14:30	10	125	0.3	124	125	535	1.0	533	537	34.5	26.3
2025-08-09T14:31	10	124	0.2	124	125	532	1.0	530	534	34.4	25.7
2025-08-09T14:32	10	124	0.1	123	124	535	1.5	533	538	34.4	26.0
2025-08-09T14:33	10	123	0.1	123	124	535	0.5	534	537	34.5	25.3
2025-08-09T14:34	10	123	0.1	123	123	538	1.4	535	540	34.8	25.5
2025-08-09T14:35	10	123	0.2	123	123	539	0.5	538	540	34.9	26.0
2025-08-09T14:36	10	123	0.1	123	123	540	0.9	539	542	35.1	26.0
2025-08-09T14:37	10	123	0.1	123	123	538	2.8	533	543	35.0	25.5
2025-08-09T14:38	10	123	0.1	123	123	535	0.9	533	537	34.6	25.2
2025-08-09T14:39	10	122	0.2	122	123	535	1.4	533	538	34.5	25.8
2025-08-09T14:40	10	122	0.2	121	122	536	1.2	534	538	34.3	25.9
2025-08-09T14:41	10	121	0.1	121	122	539	1.2	537	541	34.5	25.9
2025-08-09T14:42	10	122	0.1	121	122	536	1.2	534	540	34.7	25.5
2025-08-09T14:43	10	121	0.2	121	122	532	1.1	530	535	34.6	25.3
2025-08-09T14:44	10	121	0.1	121	121	532	0.9	530	534	34.4	25.8
2025-08-09T14:45	10	121	0.3	120	121	530	1.2	528	533	34.4	26.1
2025-08-09T14:46	10	120	0.2	120	121	530	1.0	529	532	34.4	26.0
2025-08-09T14:47	10	120	0.1	120	120	528	0.9	527	530	34.4	26.0
2025-08-09T14:48	10	120	0.1	119	120	528	1.1	527	530	34.2	25.9
2025-08-09T14:49	10	119	0.2	118	119	531	1.2	528	532	34.3	26.0
2025-08-09T14:50	10	119	0.1	118	119	532	0.6	531	533	34.6	25.8
2025-08-09T14:51	10	118	0.2	118	119	533	0.5	531	534	34.7	25.6
2025-08-09T14:52	10	118	0.1	117	118	531	0.9	530	533	34.3	25.4
2025-08-09T14:53	10	118	0.1	117	118	534	1.0	532	536	34.3	25.5
2025-08-09T14:54	10	118	0.3	117	118	535	0.3	534	536	34.5	25.7
2025-08-09T14:55	10	117	0.2	116	117	533	2.1	529	536	34.7	25.9
2025-08-09T14:56	10	117	0.1	116	117	530	0.6	529	532	34.4	25.7
2025-08-09T14:57	10	117	0.2	116	117	530	1.2	528	532	34.4	25.8
2025-08-09T14:58	10	116	0.3	116	117	530	1.5	529	533	34.3	26.0
2025-08-09T14:59	10	116	0.2	115	116	531	1.0	529	532	34.5	26.0
2025-08-09T15:00	10	115	0.2	115	116	530	0.6	529	532	34.5	26.1
2025-08-09T15:01	10	115	0.2	115	115	529	1.0	527	530	34.6	25.8
2025-08-09T15:02	10	115	0.3	114	115	529	0.9	527	530	34.5	25.6
2025-08-09T15:03	10	114	0.1	114	115	530	1.4	528	532	34.5	25.6
2025-08-09T15:04	10	114	0.3	113	115	531	0.8	529	532	34.7	25.7
2025-08-09T15:05	10	113	0.1	113	114	529	0.6	528	530	34.8	25.3
2025-08-09T15:06	10	114	0.2	113	114	531	1.3	528	533	34.7	25.5
2025-08-09T15:07	10	114	0.5	113	114	530	0.3	529	530	34.6	25.5
2025-08-09T15:08	10	112	0.3	112	113	530	0.8	528	531	34.8	25.7
2025-08-09T15:09	10	112	0.2	112	113	528	0.4	527	529	34.6	25.3
2025-08-09T15:10	10	112	0.1	112	112	527	0.5	526	528	34.6	25.2
2025-08-09T15:11	10	112	0.3	111	112	527	0.7	526	529	34.5	24.7
2025-08-09T15:12	10	111	0.4	110	112	528	0.2	527	528	34.5	24.9
2025-08-09T15:13	10	110	0.3	109	111	527	0.7	526	529	34.7	25.1
2025-08-09T15:14	10	109	0.1	109	110	525	0.8	523	526	34.6	25.2
2025-08-09T15:15	10	109	0.4	108	109	523	1.5	521	526	34.4	25.2
2025-08-09T15:16	10	108	0.1	108	109	523	0.4	522	524	34.4	25.1
2025-08-09T15:17	10	108	0.1	108	108	526	1.0	524	528	34.7	25.4
2025-08-09T15:18	10	108	0.1	108	108	527	1.0	525	528	34.8	24.8
2025-08-09T15:19	10	108	0.2	107	108	527	1.6	525	529	34.8	24.7
2025-08-09T15:20	10	107	0.2	107	108	530	0.9	528	532	35.0	24.3
2025-08-09T15:21	10	107	0.2	106	107	528	0.6	527	529	34.8	24.9
2025-08-09T15:22	10	107	0.3	106	107	527	0.6	526	528	35.0	25.5
2025-08-09T15:23	10	106	0.3	105	107	527	1.1	525	528	35.2	25.4
2025-08-09T15:24	10	105	0.1	105	106	527	1.0	525	528	34.8	25.1
2025-08-09T15:25	10	105	0.2	104	105	525	1.0	524	528	34.7	25.4
2025-08-09T15:26	10	104	0.2	104	105	524	1.0	522	525	34.6	24.9
2025-08-09T15:27	10	104	0.2	103	104	525	0.4	524	526	34.6	25.2
2025-08-09T15:28	10	103	0.2	103	104	527	0.6	525	528	34.8	25.7
2025-08-09T15:29	10	103	0.2	103	103	526	0.7	525	528	34.9	25.2
2025-08-09T15:30	10	103	0.2	102	103	526	0.5	525	527	34.9	25.4
2025-08-09T15:31	10	102	0.2	102	103	526	0.5	525	527	34.8	25.1
2025-08-09T15:32	10	102	0.2	101	102	526	0.5	525	527	34.7	25.1
2025-08-09T15:33	10	102	0.4	101	102	527	0.4	526	527	34.9	25.3
2025-08-09T15:34	10	101	0.2	100	102	526	0.6	525	527	34.9	25.4
2025-08-09T15:35	10	101	0.2	100	101	525	0.8	523	527	34.9	25.2
2025-08-09T15:36	10	100	0.3	100	101	523	0.6	522	524	34.9	24.9
2025-08-09T15:37	10	100	0.3	99	101	521	1.3	519	524	34.7	24.9
2025-08-09T15:38	10	100	0.3	99	101	521	0.6	520	522	34.7	25.1
2025-08-09T15:39	10	99	0.2	99	100	522	0.4	520	522	34.9	24.6
2025-08-09T15:40	10	99	0.3	98	100	521	0.8	520	523	34.7	24.7
2025-08-09T15:41	10	98	0.3	97	99	520	0.4	519	521	34.7	25.1
2025-08-09T15:42	10	97	0.3	97	98	520	0.5	519	521	34.6	24.9
2025-08-09T15:43	10	97	0.2	96	97	518	0.6	517	519	34.6	24.4
2025-08-09T15:44	10	97	0.3	96	97	517	0.3	516	518	34.5	24.0
2025-08-09T15:45	10	96	0.3	96	97	518	0.7	517	520	34.6	24.8
2025-08-09T15:46	10	96	0.3	95	96	519	0.7	517	520	34.8	24.5
2025-08-09T15:47	10	95	0.2	95	96	519	0.5	518	520	34.8	24.4
2025-08-09T15:48	10	95	0.1	95	95	520	1.0	519	522	34.9	24.4
2025-08-09T15:49	10	95	0.1	94	95	519	1.7	516	521	34.8	24.6
2025-08-09T15:50	10	94	0.2	94	95	517	0.9	515	519	34.6	24.8
2025-08-09T15:51	10	94	0.2	93	94	517	0.6	516	519	34.7	24.9
2025-08-09T15:52	10	93	0.1	93	94	518	1.0	517	520	34.6	24.8
2025-08-09T15:53	10	93	0.2	92	93	517	0.4	517	518	34.6	25.2
2025-08-09T15:54	10	92	0.2	92	93	518	0.4	517	519	34.7	24.8
2025-08-09T15:55	10	91	0.2	91	92	518	0.7	517	520	34.8	24.5
2025-08-09T15:56	10	91	0.1	91	91	517	0.6	516	518	34.9	23.8
2025-08-09T15:57	10	90	0.2	90	91	517	0.5	516	518	34.8	24.0
2025-08-09T15:58	10	90	0.3	89	90	517	0.4	516	518	34.8	23.9
2025-08-09T15:59	10	89	0.2	89	89	517	0.2	516	517	34.9	24.3
2025-08-09T16:00	10	89	0.1	88	89	517	0.8	516	519	34.8	24.2
2025-08-09T16:01	10	89	0.2	88	89	517	0.3	517	519	34.8	24.5
2025-08-09T16:02	10	88	0.2	88	88	516	1.1	514	518	34.9	24.6
2025-08-09T16:03	10	88	0.2	87	88	515	0.5	513	516	34.9	24.6
2025-08-09T16:04	10	87	0.1	87	87	514	0.7	513	516	34.9	24.7
2025-08-09T16:05	10	86	0.2	86	87	514	0.9	512	516	34.9	24.0
2025-08-09T16:06	10	86	0.2	86	86	512	0.5	511	513	34.7	23.7
2025-08-09T16:07	10	86	0.1	86	86	512	0.5	511	513	34.7	23.9
2025-08-09T16:08	10	85	0.1	85	86	513	0.6	512	515	34.8	24.3
2025-08-09T16:09	10	85	0.1	85	85	513	1.3	511	515	34.9	24.3
2025-08-09T16:10	10	85	0.2	85	85	511	0.4	510	512	34.6	24.2
2025-08-09T16:11	10	84	0.2	84	85	511	0.9	509	512	34.6	24.1
2025-08-09T16:12	10	84	0.2	83	84	509	0.6	508	510	34.5	24.5
2025-08-09T16:13	10	83	0.2	83	84	508	0.5	508	509	34.3	24.9
2025-08-09T16:14	10	83	0.2	82	83	508	0.5	508	510	34.4	25.0
2025-08-09T16:15	10	82	0.2	82	83	508	0.3	508	509	34.4	24.9
2025-08-09T16:16	10	82	0.1	81	82	509	0.6	508	510	34.5	24.5
2025-08-09T16:17	10	81	0.2	81	81	510	0.8	508	511	34.6	24.1
2025-08-09T16:18	10	80	0.3	79	80	509	0.5	508	510	34.7	24.6
2025-08-09T16:19	10	79	0.2	79	80	508	0.6	508	510	34.7	24.2
2025-08-09T16:20	10	79	0.2	79	79	509	0.5	508	510	34.7	24.6
2025-08-09T16:21	10	78	0.2	78	79	508	0.7	507	509	34.6	24.5
2025-08-09T16:22	10	78	0.1	78	78	509	0.2	509	510	34.6	24.8
2025-08-09T16:23	10	78	0.1	77	78	508	0.3	508	509	34.6	24.7
2025-08-09T16:24	10	77	0.2	77	77	508	0.3	508	509	34.7	24.8
2025-08-09T16:25	10	77	0.2	76	77	507	0.8	506	509	34.6	24.8
2025-08-09T16:26	10	76	0.3	75	76	506	0.5	505	507	34.5	24.8
2025-08-09T16:27	10	75	0.2	75	76	505	0.4	504	506	34.6	24.7
2025-08-09T16:28	10	75	0.2	74	75	505	0.3	504	506	34.6	24.2
2025-08-09T16:29	10	74	0.2	74	74	504	0.3	504	505	34.6	23.9
2025-08-09T16:30	10	73	0.1	73	74	505	0.3	504	505	34.5	23.8
2025-08-09T16:31	10	73	0.2	73	73	503	0.5	503	504	34.5	24.1
2025-08-09T16:32	10	73	0.1	72	73	504	0.4	503	505	34.5	24.4
2025-08-09T16:33	10	72	0.2	72	73	504	0.4	503	505	34.5	24.5
2025-08-09T16:34	10	72	0.1	72	72	505	0.5	504	506	34.6	25.0
2025-08-09T16:35	10	71	0.2	71	72	504	0.7	503	506	34.6	25.1
2025-08-09T16:36	10	71	0.2	71	71	504	0.4	503	504	34.7	25.3
2025-08-09T16:37	10	70	0.1	70	71	504	0.7	502	504	34.7	24.7
2025-08-09T16:38	10	70	0.2	69	70	502	0.3	502	503	34.5	24.8
2025-08-09T16:39	10	69	0.2	69	70	502	0.4	501	503	34.5	24.9
2025-08-09T16:40	10	69	0.2	68	69	502	0.3	501	502	34.5	24.9
2025-08-09T16:41	10	68	0.2	68	68	501	0.2	501	502	34.4	24.7
2025-08-09T16:42	10	68	0.2	67	68	501	0.4	500	502	34.4	25.1
2025-08-09T16:43	10	67	0.2	67	67	500	0.5	499	501	34.4	24.3
2025-08-09T16:44	10	66	0.2	66	67	499	0.4	498	500	34.3	24.6
2025-08-09T16:45	10	66	0.2	65	66	499	0.2	499	500	34.5	24.8
2025-08-09T16:46	10	65	0.3	65	66	499	0.3	499	500	34.5	24.7
2025-08-09T16:47	10	65	0.2	64	65	499	0.3	499	500	34.5	24.6
2025-08-09T16:48	10	64	0.1	64	64	500	0.4	499	501	34.5	25.0
2025-08-09T16:49	10	64	0.2	63	64	498	0.4	497	499	34.5	24.8
2025-08-09T16:50	10	63	0.3	63	64	497	0.2	497	498	34.4	24.7
2025-08-09T16:51	10	62	0.3	62	63	497	0.5	496	498	34.3	24.7
2025-08-09T16:52	10	62	0.2	61	62	496	0.3	496	497	34.4	24.9
2025-08-09T16:53	10	61	0.1	61	61	496	0.3	496	497	34.4	25.1
2025-08-09T16:54	10	60	0.2	60	61	496	0.3	496	497	34.4	24.3
2025-08-09T16:55	10	60	0.2	59	60	496	0.4	495	497	34.3	24.4
2025-08-09T16:56	10	59	0.2	59	60	495	0.3	495	496	34.3	24.8
2025-08-09T16:57	10	59	0.2	58	59	495	0.3	494	496	34.3	25.3
2025-08-09T16:58	10	58	0.2	58	58	495	0.2	494	495	34.2	25.5
2025-08-09T16:59	10	57	0.2	57	58	494	0.5	493	495	34.2	25.5
2025-08-09T17:00	10	56	0.2	56	57	494	0.4	493	494	34.2	26.0
2025-08-09T17:01	10	56	0.2	55	56	494	0.3	493	495	34.2	26.3
2025-08-09T17:02	10	55	0.2	54	55	494	0.3	493	494	34.2	26.2
2025-08-09T17:03	10	54	0.2	54	55	493	0.2	492	494	34.1	26.2
2025-08-09T17:04	10	54	0.2	53	54	492	0.4	491	493	34.1	25.9
2025-08-09T17:05	10	53	0.2	53	53	492	0.2	491	492	34.0	25.6
2025-08-09T17:06	10	52	0.2	52	53	492	0.2	491	492	34.1	26.3
2025-08-09T17:07	10	52	0.2	51	52	491	0.3	491	492	34.1	26.3
2025-08-09T17:08	10	51	0.2	51	52	491	0.5	490	492	34.2	26.2
2025-08-09T17:09	10	51	0.2	50	51	490	0.2	490	491	34.1	25.9
2025-08-09T17:10	10	50	0.2	50	50	490	0.3	489	491	34.1	26.3
2025-08-09T17:11	10	49	0.2	49	50	489	0.2	489	490	34.0	26.5
2025-08-09T17:12	10	49	0.2	48	49	489	0.3	488	490	34.0	26.4
2025-08-09T17:13	10	48	0.2	48	48	489	0.2	488	489	34.0	26.4
2025-08-09T17:14	10	48	0.2	47	48	488	0.2	488	489	33.9	26.7
2025-08-09T17:15	10	47	0.2	47	47	488	0.3	487	488	33.9	26.7
2025-08-09T17:16	10	46	0.2	46	47	487	0.2	487	488	33.9	26.7
2025-08-09T17:17	10	46	0.2	45	46	487	0.3	486	488	33.9	26.8
2025-08-09T17:18	10	45	0.2	45	45	487	0.2	486	487	33.9	26.8
2025-08-09T17:19	10	44	0.2	44	45	486	0.2	486	487	33.9	26.9
2025-08-09T17:20	10	44	0.2	44	44	486	0.2	485	486	33.8	27.0
2025-08-09T17:21	10	43	0.2	43	44	486	0.3	485	486	33.8	27.1
2025-08-09T17:22	10	43	0.2	43	43	485	0.2	485	486	33.8	27.1
2025-08-09T17:23	10	42	0.2	42	43	485	0.2	484	485	33.7	27.0
2025-08-09T17:24	10	42	0.2	41	42	485	0.2	484	485	33.7	27.4
2025-08-09T17:25	10	41	0.3	40	42	484	0.2	484	485	33.7	27.6
2025-08-09T17:26	10	40	0.2	40	41	484	0.3	483	484	33.7	27.8
2025-08-09T17:27	10	40	0.2	39	40	483	0.2	483	484	33.6	28.3
2025-08-09T17:28	10	39	0.2	39	39	483	0.3	482	484	33.5	28.7
2025-08-09T17:29	10	38	0.3	38	39	482	0.2	482	483	33.5	29.1
2025-08-09T17:30	10	37	0.3	37	38	482	0.3	482	483	33.4	29.7
2025-08-09T17:31	10	37	0.3	36	37	481	0.4	481	482	33.2	30.3
2025-08-09T17:32	10	36	0.2	36	37	481	0.3	480	481	33.1	30.5
2025-08-09T17:33	10	36	0.3	35	36	480	0.3	479	481	33.0	30.7
2025-08-09T17:34	10	35	0.3	34	36	480	0.2	479	480	32.9	31.0
2025-08-09T17:35	10	35	0.2	34	35	479	0.2	479	480	32.9	31.3
2025-08-09T17:36	10	34	0.3	33	35	478	0.3	478	479	32.8	31.5
2025-08-09T17:37	10	33	0.3	33	34	478	0.3	477	479	32.8	31.6
2025-08-09T17:38	10	33	0.3	32	34	477	0.3	477	478	32.7	31.9
2025-08-09T17:39	10	32	0.4	31	33	477	0.2	476	477	32.7	31.9
2025-08-09T17:40	10	31	0.4	30	32	476	0.3	476	477	32.6	31.9
2025-08-09T17:41	10	30	0.4	29	31	476	0.3	475	477	32.6	32.2
2025-08-09T17:42	10	29	0.4	28	30	475	0.3	475	476	32.5	32.4
2025-08-09T17:43	10	28	0.3	28	29	475	0.3	474	475	32.5	32.5
2025-08-09T17:44	10	28	0.3	27	29	474	0.2	474	475	32.5	32.7
2025-08-09T17:45	10	27	0.3	27	28	473	0.2	473	474	32.4	32.9
2025-08-09T17:46	10	27	0.2	26	28	473	0.3	472	474	32.3	33.2
2025-08-09T17:47	10	27	0.3	26	27	473	0.3	472	473	32.3	33.2
2025-08-09T17:48	10	26	0.2	26	27	472	0.3	471	473	32.2	33.3
2025-08-09T17:49	10	26	0.3	25	27	472	0.2	472	473	32.2	33.3
2025-08-09T17:50	10	25	0.2	25	25	472	0.2	471	472	32.2	33.5
2025-08-09T17:51	10	24	0.3	24	25	471	0.2	471	472	32.1	33.7
2025-08-09T17:52	10	24	0.1	24	24	471	0.2	470	471	32.1	33.9
2025-08-09T17:53	10	24	0.2	23	24	470	0.3	469	471	32.1	34.0
2025-08-09T17:54	10	23	0.2	23	23	469	0.2	469	470	32.0	34.2
2025-08-09T17:55	10	23	0.1	22	23	469	0.2	468	469	32.0	34.3
2025-08-09T17:56	10	22	0.2	22	23	469	0.3	468	469	32.0	34.2
2025-08-09T17:57	10	22	0.1	22	22	468	0.3	468	469	31.9	34.5
2025-08-09T17:58	10	21	0.2	21	22	468	0.3	467	468	31.9	34.6
2025-08-09T17:59	10	21	0.2	20	21	467	0.2	466	468	31.9	34.8
2025-08-09T18:00	10	20	0.2	19	20	467	0.3	466	467	31.8	34.6
2025-08-09T18:01	10	19	0.2	19	19	467	0.2	466	467	31.8	34.8
2025-08-09T18:02	10	18	0.2	18	19	466	0.2	466	466	31.7	34.8
2025-08-09T18:03	10	18	0.2	17	18	466	0.2	465	466	31.7	34.8
2025-08-09T18:04	10	17	0.2	17	18	465	0.3	464	465	31.7	34.9
2025-08-09T18:05	10	17	0.2	16	17	464	0.2	464	465	31.6	34.9
2025-08-09T18:06	10	16	0.2	16	17	464	0.2	463	464	31.6	35.0
2025-08-09T18:07	10	16	0.2	15	16	464	0.3	463	464	31.5	35.0
2025-08-09T18:08	10	15	0.2	14	15	463	0.2	462	463	31.5	34.9
2025-08-09T18:09	10	14	0.2	14	15	463	0.4	462	463	31.5	34.8
2025-08-09T18:10	10	14	0.2	13	14	463	0.3	462	463	31.5	35.1
2025-08-09T18:11	10	13	0.2	13	14	462	0.3	461	463	31.4	35.5
2025-08-09T18:12	10	13	0.2	12	13	461	0.4	460	461	31.4	35.6
2025-08-09T18:13	10	12	0.2	12	12	459	0.4	458	460	31.4	35.8
2025-08-09T18:14	10	12	0.2	11	12	459	0.3	458	459	31.3	35.5
2025-08-09T18:15	10	11	0.3	10	11	458	0.2	458	459	31.3	35.7
2025-08-09T18:16	10	9	0.4	9	10	458	0.2	458	459	31.3	35.4
2025-08-09T18:17	10	8	0.4	7	9	459	0.3	458	459	31.2	35.5
2025-08-09T18:18	10	7	0.2	6	8	458	0.5	457	458	31.2	35.8
2025-08-09T18:19	10	6	0.2	6	7	456	0.3	456	457	31.1	35.8
2025-08-09T18:20	10	6	0.1	6	6	455	0.2	455	456	31.2	35.7
2025-08-09T18:21	10	6	0.1	6	6	454	0.5	453	455	31.1	35.8
2025-08-09T18:22	10	6	0.1	6	6	453	0.3	453	454	31.1	35.8
2025-08-09T18:23	10	6	0.1	6	6	452	0.2	452	453	31.1	35.8
2025-08-09T18:24	10	6	0.1	5	6	453	0.4	452	454	31.1	35.4
2025-08-09T18:25	10	5	0.1	5	5	453	0.2	453	453	31.2	35.0
2025-08-09T18:26	10	5	0.1	5	5	452	0.4	451	453	31.2	35.3
2025-08-09T18:27	10	5	0.1	4	5	451	0.5	450	452	31.0	35.6
2025-08-09T18:28	10	4	0.1	4	5	451	0.3	450	451	31.0	35.9
2025-08-09T18:29	10	4	0.2	4	5	450	0.3	450	451	30.9	36.2
2025-08-09T18:30	10	4	0.2	4	5	450	0.4	449	450	30.7	37.0
2025-08-09T18:31	10	4	0.3	4	5	449	0.4	448	450	30.6	37.4
2025-08-09T18:32	10	4	0.2	3	4	448	0.3	447	448	30.5	37.9
2025-08-09T18:33	10	4	0.2	3	4	448	0.3	447	449	30.4	37.7
2025-08-09T18:34	10	4	0.3	3	4	448	0.5	447	449	30.4	37.9
2025-08-09T18:35	10	3	0.1	3	4	448	0.4	448	449	30.4	37.4
2025-08-09T18:36	10	3	0.2	3	4	448	0.3	447	448	30.5	37.5
2025-08-09T18:37	10	3	0.2	3	4	448	0.4	447	449	30.5	37.2
2025-08-09T18:38	10	3	0.1	2	3	447	0.3	446	448	30.7	36.7
2025-08-09T18:39	10	3	0.1	2	3	446	0.5	445	447	30.4	38.2
2025-08-09T18:40	10	2	0.1	2	3	446	0.4	445	446	30.2	38.3
2025-08-09T18:41	10	2	0.1	2	2	446	0.4	444	446	30.3	37.5
2025-08-09T18:42	10	2	0.1	2	2	446	0.5	445	446	30.4	37.1
2025-08-09T18:43	10	2	0.1	2	2	445	0.4	444	446	30.4	37.1
2025-08-09T18:44	10	2	0.1	1	2	444	0.5	443	446	30.3	37.9
2025-08-09T18:45	10	1	0.1	1	2	444	0.2	444	445	30.4	37.0
2025-08-09T18:46	10	1	0.1	1	1	444	0.5	442	444	30.4	37.2
2025-08-09T18:47	10	1	0.1	1	2	442	0.3	442	443	30.4	37.1
2025-08-09T18:48	10	1	0.1	1	1	441	0.3	441	442	30.3	37.8
2025-08-09T18:49	10	1	0.1	1	1	441	0.4	441	442	30.2	37.9
2025-08-09T18:50	10	1	0.1	1	1	442	0.3	441	443	30.2	37.6
2025-08-09T18:51	10	1	0.1	1	1	442	0.3	441	442	30.3	37.1
2025-08-09T18:52	10	1	0.1	0	1	441	0.2	441	442	30.2	38.2
2025-08-09T18:53	10	1	0.1	0	1	441	0.4	440	442	29.9	39.5
2025-08-09T18:54	10	1	0.1	1	1	441	0.3	440	441	29.6	40.6
2025-08-09T18:55	10	1	0.1	0	1	440	0.3	439	441	29.5	40.8
2025-08-09T18:56	10	1	0.1	0	1	440	0.4	439	441	29.6	39.8
2025-08-09T18:57	10	0	0.1	0	1	440	0.3	440	441	30.0	38.3
2025-08-09T18:58	10	0	0.1	0	1	441	0.5	439	442	30.2	37.1
2025-08-09T18:59	10	0	0.1	0	1	441	0.4	440	442	30.1	38.0
2025-08-09T19:00	10	0	0.1	0	1	441	0.3	440	441	30.0	38.3
2025-08-09T19:01	10	0	0.1	0	1	440	0.5	439	442	30.0	38.8
2025-08-09T19:02	10	0	0.0	0	0	441	0.3	440	442	30.2	39.1
2025-08-09T19:03	10	0	0.1	0	0	441	0.2	441	441	30.3	38.7
2025-08-09T19:04	10	0	0.1	0	1	440	0.3	440	441	30.3	38.8
2025-08-09T19:05	10	0	0.1	0	0	440	0.2	439	440	30.3	38.9
2025-08-09T19:06	10	0	0.1	0	0	440	0.6	438	440	30.1	39.1
2025-08-09T19:07	10	0	0.1	0	1	440	0.4	439	441	29.8	39.9
2025-08-09T19:08	10	0	0.3	0	1	440	0.6	438	441	29.8	40.0
2025-08-09T19:09	10	0	0.2	0	1	439	0.3	439	440	29.7	40.3
2025-08-09T19:10	10	0	0.2	0	1	439	0.5	438	440	29.6	40.7
2025-08-09T19:11	10	0	0.3	0	1	439	0.4	438	440	29.4	41.4
2025-08-09T19:12	10	0	0.2	0	1	438	0.4	437	438	29.1	42.5
2025-08-09T19:13	10	0	0.1	0	0	437	0.4	437	438	28.8	42.7
2025-08-09T19:14	10	0	0.1	0	0	437	0.4	437	438	28.8	43.0
2025-08-09T19:15	10	0	0.1	0	0	437	0.3	436	438	28.6	43.5
2025-08-09T19:16	10	0	0.1	0	0	437	0.3	436	438	28.6	43.3
2025-08-09T19:17	10	0	0.1	0	0	437	0.4	435	437	28.5	42.7
2025-08-09T19:18	10	0	0.1	0	0	437	0.3	436	437	28.5	42.8
2025-08-09T19:19	10	0	0.1	0	0	436	0.2	436	437	28.4	43.1
2025-08-09T19:20	10	0	0.1	0	0	436	0.3	435	436	28.3	43.6
2025-08-09T19:21	10	0	0.1	0	0	435	0.2	435	436	28.0	44.6
2025-08-09T19:22	10	0	0.1	0	0	435	0.3	435	436	28.1	44.5
2025-08-09T19:23	10	0	0.1	0	0	435	0.2	435	436	28.2	44.5
2025-08-09T19:24	10	0	0.1	0	0	434	0.3	434	435	28.1	44.6
2025-08-09T19:25	10	0	0.1	0	0	434	0.3	434	435	28.1	44.3
2025-08-09T19:26	10	0	0.1	0	0	434	0.3	433	435	28.1	44.3
2025-08-09T19:27	10	0	0.1	0	0	433	0.2	433	434	28.1	44.5
2025-08-09T19:28	10	0	0.1	0	0	432	0.4	432	433	28.0	44.6
2025-08-09T19:29	10	0	0.1	0	0	432	0.3	432	433	28.0	44.7
2025-08-09T19:30	10	0	0.1	0	0	432	0.3	432	433	28.0	44.8
2025-08-09T19:31	10	0	0.1	0	0	432	0.3	431	432	27.9	45.3
2025-08-09T19:32	10	0	0.1	0	0	432	0.5	431	433	27.8	46.0
2025-08-09T19:33	10	0	0.1	0	0	432	0.2	432	433	27.7	46.2
2025-08-09T19:34	10	0	0.1	0	0	432	0.4	431	433	27.7	46.3
2025-08-09T19:35	10	0	0.1	0	0	432	0.2	432	433	27.8	46.1
2025-08-09T19:36	10	0	0.1	0	0	432	0.2	432	433	27.8	46.4
2025-08-09T19:37	10	0	0.1	0	0	432	0.3	431	433	27.9	46.3
2025-08-09T19:38	10	0	0.1	0	0	432	0.3	431	433	28.0	46.4
2025-08-09T19:39	10	0	0.1	0	0	432	0.3	432	433	28.1	46.3
2025-08-09T19:40	10	0	0.1	0	0	431	0.4	431	432	28.2	46.1
2025-08-09T19:41	10	0	0.1	0	0	431	0.2	430	431	27.9	46.8
2025-08-09T19:42	10	0	0.1	0	0	431	0.3	430	432	27.8	47.2
2025-08-09T19:43	10	0	0.1	0	0	432	0.3	431	432	28.1	46.9
2025-08-09T19:44	10	0	0.2	0	1	431	0.3	431	432	28.1	46.9
2025-08-09T19:45	10	0	0.2	0	1	430	0.6	429	431	27.8	47.5
2025-08-09T19:46	10	0	0.2	-1	1	430	0.2	429	430	27.4	48.6
2025-08-09T19:47	10	0	0.2	0	1	430	0.3	430	431	27.3	49.2
2025-08-09T19:48	10	0	0.2	0	1	430	0.3	430	431	27.3	49.2
2025-08-09T19:49	10	0	0.2	0	1	431	1.0	429	432	27.4	49.1
2025-08-09T19:50	10	0	0.2	-1	1	432	0.5	431	433	27.9	48.0
2025-08-09T19:51	10	0	0.1	0	0	433	0.4	432	433	28.2	47.2
2025-08-09T19:52	10	0	0.1	0	0	432	0.3	431	433	28.0	47.5
2025-08-09T19:53	10	0	0.0	0	0	432	0.6	431	433	27.9	48.0
2025-08-09T19:54	10	0	0.1	0	0	431	0.8	429	432	27.8	48.5
2025-08-09T19:55	10	0	0.1	0	0	431	0.8	429	432	27.4	49.7
2025-08-09T19:56	10	0	0.1	0	0	431	0.2	431	431	27.7	48.6
2025-08-09T19:57	10	0	0.1	0	0	431	0.3	431	432	27.8	48.5
2025-08-09T19:58	10	0	0.1	0	0	431	0.2	431	432	27.6	49.1
2025-08-09T19:59	10	0	0.1	0	0	430	0.3	430	431	27.6	49.1
2025-08-09T20:00	10	0	0.1	0	0	430	0.4	430	431	27.6	49.2
2025-08-09T20:01	10	0	0.1	0	0	431	0.3	430	431	27.7	48.8
2025-08-09T20:02	10	0	0.1	0	0	429	1.2	427	431	27.5	49.8
2025-08-09T20:03	10	0	0.1	0	0	428	0.5	427	429	27.0	51.3
2025-08-09T20:04	10	0	0.1	0	0	426	1.0	425	428	27.1	51.1
2025-08-09T20:05	10	0	0.1	0	0	427	0.5	426	428	27.2	50.6
2025-08-09T20:06	10	0	0.1	0	0	426	0.8	424	427	27.1	51.2
2025-08-09T20:07	10	0	0.1	0	0	423	0.4	423	424	26.5	53.8
2025-08-09T20:08	10	0	0.1	0	0	423	0.3	422	424	26.0	56.0
2025-08-09T20:09	10	0	0.1	0	0	424	0.5	423	425	25.7	56.6
2025-08-09T20:10	10	0	0.1	0	0	424	0.4	423	425	26.0	55.3
2025-08-09T20:11	10	0	0.1	-1	0	424	0.5	423	425	26.1	54.9
2025-08-09T20:12	10	0	0.1	-1	0	423	0.3	423	424	26.0	54.9
2025-08-09T20:13	10	0	0.1	0	0	423	0.3	422	423	25.8	56.2
2025-08-09T20:14	10	0	0.1	0	0	423	0.5	422	423	25.7	56.5
2025-08-09T20:15	10	0	0.1	-1	0	423	0.5	422	424	25.7	56.0
2025-08-09T20:16	10	0	0.1	0	0	424	0.6	422	425	25.9	54.8
2025-08-09T20:17	10	0	0.1	0	0	425	0.5	424	426	26.0	54.3
2025-08-09T20:18	10	0	0.1	0	0	425	0.2	424	425	26.1	54.2
2025-08-09T20:19	10	0	0.1	0	0	423	0.5	422	424	25.9	54.8
2025-08-09T20:20	10	0	0.1	0	0	422	0.2	422	423	25.8	55.2
2025-08-09T20:21	10	0	0.1	0	0	423	0.6	422	424	25.8	55.2
2025-08-09T20:22	10	0	0.1	0	0	424	0.3	423	425	25.7	55.7
2025-08-09T20:23	10	0	0.1	0	0	423	0.7	422	425	25.5	56.5
2025-08-09T20:24	10	0	0.1	0	0	422	0.3	421	422	25.1	58.3
2025-08-09T20:25	10	0	0.1	0	0	421	0.3	420	421	25.2	57.6
2025-08-09T20:26	10	0	0.1	0	0	420	0.4	419	420	25.0	58.3
2025-08-09T20:27	10	0	0.1	0	0	419	0.2	418	419	24.7	60.0
2025-08-09T20:28	10	0	0.1	0	0	418	0.3	418	419	24.6	60.2
2025-08-09T20:29	10	0	0.1	0	0	419	0.6	418	420	24.7	59.5
2025-08-09T20:30	10	0	0.1	0	0	420	1.2	418	422	25.2	57.0
2025-08-09T20:31	10	0	0.1	0	0	421	0.5	420	422	25.9	53.1
2025-08-09T20:32	10	0	0.1	0	0	421	0.3	420	422	26.2	52.3
2025-08-09T20:33	10	0	0.2	0	1	420	0.6	419	421	26.1	52.7
2025-08-09T20:34	10	0	0.2	0	0	420	0.4	419	421	25.9	53.8
2025-08-09T20:35	10	0	0.2	0	1	420	0.5	419	421	26.1	52.3
2025-08-09T20:36	10	0	0.2	0	1	419	0.4	419	420	25.9	54.2
2025-08-09T20:37	10	0	0.2	0	1	419	0.3	418	420	25.8	53.9
2025-08-09T20:38	10	0	0.2	-1	0	419	0.3	419	420	25.8	54.1
2025-08-09T20:39	10	0	0.2	0	1	421	0.7	419	422	25.8	53.9
2025-08-09T20:40	10	0	0.1	0	0	421	0.3	420	421	26.1	52.1
2025-08-09T20:41	10	0	0.2	0	1	421	0.4	420	421	26.0	53.0
2025-08-09T20:42	10	0	0.2	0	0	421	0.4	420	422	26.0	52.5
2025-08-09T20:43	10	0	0.1	0	0	420	0.5	419	421	25.9	53.3
2025-08-09T20:44	10	0	0.1	0	0	419	0.5	418	419	25.6	55.0
2025-08-09T20:45	10	0	0.1	0	0	418	0.3	417	419	25.1	57.3
2025-08-09T20:46	10	0	0.1	0	0	418	0.3	417	419	24.9	58.1
2025-08-09T20:47	10	0	0.1	0	0	419	0.5	418	420	24.9	57.9
2025-08-09T20:48	10	0	0.1	0	0	419	0.7	418	420	24.7	58.7
2025-08-09T20:49	10	0	0.1	0	0	419	0.4	418	420	25.1	56.1
2025-08-09T20:50	10	0	0.1	0	0	419	0.5	418	420	25.5	54.5
2025-08-09T20:51	10	0	0.1	0	0	419	0.3	418	419	25.6	54.2
2025-08-09T20:52	10	0	0.1	0	0	417	0.7	416	419	25.4	55.9
2025-08-09T20:53	10	0	0.1	0	0	417	0.3	417	418	25.0	57.9
2025-08-09T20:54	10	0	0.1	0	0	418	0.2	417	418	24.9	57.5
2025-08-09T20:55	10	0	0.1	0	0	417	0.3	416	418	24.9	57.4
2025-08-09T20:56	10	0	0.1	0	0	417	0.3	417	418	24.9	57.2
2025-08-09T20:57	10	0	0.1	0	0	418	0.4	417	419	25.0	56.5
2025-08-09T20:58	10	0	0.1	0	0	418	0.6	417	419	25.2	55.5
2025-08-09T20:59	10	0	0.1	0	0	417	0.2	416	418	25.4	55.1
2025-08-09T21:00	10	0	0.1	0	0	416	0.8	415	418	25.1	56.5
2025-08-09T21:01	10	0	0.1	0	0	415	0.3	415	416	24.6	58.4
2025-08-09T21:02	10	0	0.1	0	0	415	0.3	415	416	24.6	58.3
2025-08-09T21:03	10	0	0.1	0	0	415	0.3	414	416	24.6	58.2
2025-08-09T21:04	10	0	0.1	0	0	415	0.4	414	416	24.8	57.2
2025-08-09T21:05	10	0	0.1	0	0	415	0.5	414	416	24.9	57.3
2025-08-09T21:06	10	0	0.1	0	0	414	0.4	414	415	24.8	57.3
2025-08-09T21:07	10	0	0.1	0	0	415	0.3	414	415	24.7	57.7
2025-08-09T21:08	10	0	0.1	0	0	415	0.3	414	416	24.7	58.0
2025-08-09T21:09	10	0	0.1	0	0	415	0.2	414	415	24.4	59.1
2025-08-09T21:10	10	0	0.1	0	0	415	0.4	415	416	24.4	59.3
2025-08-09T21:11	10	0	0.1	0	0	416	0.3	415	416	24.5	58.7
2025-08-09T21:12	10	0	0.1	0	0	416	0.2	415	416	24.6	58.2
2025-08-09T21:13	10	0	0.1	0	0	416	0.3	415	417	24.6	57.8
2025-08-09T21:14	10	0	0.1	0	0	416	0.3	415	417	24.8	57.1
2025-08-09T21:15	10	0	0.1	0	0	416	0.3	415	417	24.9	56.5
2025-08-09T21:16	10	0	0.1	0	0	416	0.3	415	416	24.9	56.9
2025-08-09T21:17	10	0	0.1	0	0	416	0.4	415	417	24.7	57.6
2025-08-09T21:18	10	0	0.1	0	0	416	0.4	415	416	24.7	57.8
2025-08-09T21:19	10	0	0.1	0	0	415	0.3	414	416	24.5	57.5
2025-08-09T21:20	10	0	0.1	0	0	414	0.4	413	415	23.7	58.5
2025-08-09T21:21	10	0	0.1	0	0	414	0.2	413	414	24.0	53.6
2025-08-09T21:22	10	0	0.1	0	0	414	0.3	413	415	24.2	55.6
2025-08-09T21:23	10	0	0.1	0	0	415	0.4	414	415	24.3	57.5
2025-08-09T21:24	10	0	0.1	0	0	415	0.2	414	415	24.5	58.5
2025-08-09T21:25	10	0	0.1	0	0	414	0.2	414	415	24.5	58.5
2025-08-09T21:26	10	0	0.1	0	0	414	0.3	413	414	24.5	58.5
2025-08-09T21:27	10	0	0.1	0	1	414	0.4	413	414	24.5	58.3
2025-08-09T21:28	10	0	0.2	0	1	413	0.3	412	414	24.2	59.5
2025-08-09T21:29	10	0	0.1	0	0	413	0.2	413	414	24.0	60.1
2025-08-09T21:30	10	0	0.1	0	0	413	0.3	413	414	24.1	60.0
2025-08-09T21:31	10	0	0.1	0	0	413	0.6	412	415	23.9	60.8
2025-08-09T21:32	10	0	0.1	0	0	414	0.4	413	415	24.1	59.8
2025-08-09T21:33	10	0	0.2	0	0	414	0.2	413	414	24.1	60.0
2025-08-09T21:34	10	0	0.2	0	0	413	0.3	413	414	23.9	60.8
2025-08-09T21:35	10	0	0.2	0	1	413	0.4	412	414	23.8	61.2
2025-08-09T21:36	10	0	0.2	0	0	412	0.3	412	413	23.8	61.3
2025-08-09T21:37	10	0	0.2	0	0	412	0.3	411	412	23.7	61.4
2025-08-09T21:38	10	0	0.1	0	0	413	0.5	411	414	23.8	60.8
2025-08-09T21:39	10	0	0.1	0	0	413	0.3	412	413	24.0	59.9
2025-08-09T21:40	10	0	0.1	0	1	413	0.3	412	413	24.0	59.8
2025-08-09T21:41	10	0	0.1	0	0	412	0.3	412	413	24.0	60.1
2025-08-09T21:42	10	0	0.1	0	0	413	0.3	412	413	23.9	60.7
2025-08-09T21:43	10	0	0.1	0	0	412	0.2	412	413	23.8	61.1
2025-08-09T21:44	10	0	0.1	0	0	412	0.2	412	413	23.8	61.1
2025-08-09T21:45	10	0	0.1	0	0	412	0.2	411	412	23.6	61.7
2025-08-09T21:46	10	0	0.1	0	0	412	0.2	411	412	23.7	61.4
2025-08-09T21:47	10	0	0.9	0	6	412	0.2	411	412	23.7	61.2
2025-08-09T21:48	10	0	0.1	0	0	411	0.4	411	412	23.6	62.1
2025-08-09T21:49	10	0	0.1	0	0	412	0.3	411	412	23.5	62.4
2025-08-09T21:50	10	0	0.1	0	0	412	0.4	411	413	23.6	62.1
2025-08-09T21:51	10	0	0.1	0	0	412	0.3	411	413	23.6	62.2
2025-08-09T21:52	10	0	0.1	0	0	413	0.4	412	414	23.5	62.6
2025-08-09T21:53	10	0	0.1	0	0	413	0.3	412	414	23.8	60.6
2025-08-09T21:54	10	0	0.1	0	0	413	0.3	412	413	23.9	60.2
2025-08-09T21:55	10	0	0.1	0	0	412	0.5	410	412	23.8	61.0
2025-08-09T21:56	10	0	0.1	0	0	411	0.3	410	411	23.8	60.9
2025-08-09T21:57	10	0	0.1	0	0	410	0.3	410	411	23.8	60.6
2025-08-09T21:58	10	0	0.1	0	0	411	0.3	410	411	23.7	61.0
2025-08-09T21:59	10	0	0.1	0	0	411	0.4	410	412	23.7	61.1
2025-08-09T22:00	10	0	0.1	0	0	412	0.2	411	412	23.7	61.0
2025-08-09T22:01	10	0	0.1	0	0	412	0.3	412	413	23.6	61.7
2025-08-09T22:02	10	0	0.1	0	0	412	0.3	411	412	23.5	62.3
2025-08-09T22:03	10	0	0.1	0	0	411	0.2	411	412	23.3	63.2
2025-08-09T22:04	10	0	0.1	0	0	411	0.2	410	411	23.3	62.8
2025-08-09T22:05	10	0	0.1	0	0	411	0.3	410	412	23.3	62.8
2025-08-09T22:06	10	0	0.1	0	0	411	0.3	410	412	23.4	62.2
2025-08-09T22:07	10	0	0.1	0	0	411	0.2	410	411	23.4	62.0
2025-08-09T22:08	10	0	0.1	0	0	411	0.2	411	412	23.5	61.8
2025-08-09T22:09	10	0	0.1	0	0	411	0.2	410	411	23.4	62.2
2025-08-09T22:10	10	0	0.1	0	0	411	0.4	410	412	23.4	61.9
2025-08-09T22:11	10	0	0.1	0	0	412	0.3	411	413	23.8	60.1
2025-08-09T22:12	10	0	0.1	0	0	412	0.3	411	412	24.0	59.0
2025-08-09T22:13	10	0	0.1	0	0	411	0.5	410	412	24.1	58.2
2025-08-09T22:14	10	0	0.1	0	0	411	0.6	409	412	24.2	57.8
2025-08-09T22:15	10	0	0.1	0	0	411	0.5	410	412	24.2	57.9
2025-08-09T22:16	10	0	0.1	0	0	411	0.8	410	412	24.3	57.2
2025-08-09T22:17	10	0	0.1	0	0	411	0.5	410	412	24.6	55.9
2025-08-09T22:18	10	0	0.1	0	0	412	0.3	411	413	24.8	55.0
2025-08-09T22:19	10	0	0.1	0	0	411	0.7	410	413	24.8	55.4
2025-08-09T22:20	10	0	0.1	0	0	412	0.4	411	413	24.9	54.8
2025-08-09T22:21	10	0	0.1	0	0	411	2.6	407	414	25.1	54.0
2025-08-09T22:22	10	0	0.1	0	0	410	0.9	408	411	24.0	59.1
2025-08-09T22:23	10	0	0.1	0	0	409	0.9	407	411	23.9	59.6
2025-08-09T22:24	10	0	0.1	0	0	410	0.5	409	411	23.7	60.0
2025-08-09T22:25	10	0	0.1	0	0	410	0.3	409	411	23.6	60.3
2025-08-09T22:26	10	0	0.1	0	0	409	0.3	409	410	23.5	60.9
2025-08-09T22:27	10	0	0.1	0	0	410	0.3	409	410	23.4	61.4
2025-08-09T22:28	10	0	0.1	0	0	409	0.2	409	410	23.2	62.6
2025-08-09T22:29	10	0	0.1	0	0	409	0.4	409	410	23.1	62.5
2025-08-09T22:30	10	0	0.1	0	0	409	0.5	408	410	23.2	62.1
2025-08-09T22:31	10	0	0.1	0	0	408	0.3	408	408	23.1	63.1
2025-08-09T22:32	10	0	0.1	0	0	408	0.3	407	408	23.0	63.5
2025-08-09T22:33	10	0	0.1	0	0	408	0.3	407	408	22.8	64.4
2025-08-09T22:34	10	0	0.1	0	0	409	0.3	408	409	23.0	63.3
2025-08-09T22:35	10	0	0.1	0	0	409	0.3	408	409	23.0	63.3
2025-08-09T22:36	10	0	0.1	0	0	409	0.5	408	411	23.0	63.5
2025-08-09T22:37	10	0	0.1	0	0	410	0.3	409	411	23.2	62.8
2025-08-09T22:38	10	0	0.1	0	0	409	0.3	409	410	23.4	62.1
2025-08-09T22:39	10	0	0.1	0	0	409	0.3	408	409	23.4	62.3
2025-08-09T22:40	10	0	0.1	0	0	408	0.3	407	409	23.2	62.9
2025-08-09T22:41	10	0	0.1	0	0	408	0.2	408	409	23.1	63.4
2025-08-09T22:42	10	0	0.1	0	0	408	0.3	407	408	23.1	63.2
2025-08-09T22:43	10	0	0.1	0	0	408	0.2	407	408	23.2	62.3
2025-08-09T22:44	10	0	0.1	0	0	407	0.3	406	408	23.2	62.3
2025-08-09T22:45	10	0	0.1	0	0	406	0.4	405	407	22.9	63.5
2025-08-09T22:46	10	0	0.1	0	0	406	0.5	405	407	22.5	65.7
2025-08-09T22:47	10	0	0.1	0	0	406	0.4	405	407	22.1	67.8
2025-08-09T22:48	10	0	0.2	0	1	406	0.3	405	406	21.8	69.7
2025-08-09T22:49	10	0	0.2	0	0	406	0.3	405	406	21.8	69.7
2025-08-09T22:50	10	0	0.2	0	1	406	0.3	405	406	21.9	69.6
2025-08-09T22:51	10	0	0.1	0	0	405	0.3	404	406	21.8	69.8
2025-08-09T22:52	10	0	0.2	0	0	405	0.3	404	406	21.8	70.2
2025-08-09T22:53	10	0	0.2	-1	0	404	0.3	404	405	21.7	70.5
2025-08-09T22:54	10	0	0.2	0	1	403	0.3	403	404	21.6	71.1
2025-08-09T22:55	10	0	0.2	0	0	404	0.4	403	404	21.6	71.1
2025-08-09T22:56	10	0	0.2	0	0	404	0.2	403	404	21.6	70.8
2025-08-09T22:57	10	0	0.1	0	0	404	0.3	403	404	21.7	70.3
2025-08-09T22:58	10	0	0.2	0	0	404	0.5	403	405	21.8	69.9
2025-08-09T22:59	10	0	0.1	0	0	406	1.4	404	408	22.3	66.8
2025-08-09T23:00	10	0	0.2	0	0	408	1.0	406	409	22.6	65.5
2025-08-09T23:01	10	0	0.1	0	0	410	0.5	409	411	23.2	62.2
2025-08-09T23:02	10	0	0.1	0	0	409	0.4	408	410	23.5	60.7
2025-08-09T23:03	10	0	0.1	0	0	408	1.0	405	409	23.5	60.8
2025-08-09T23:04	10	0	0.1	0	1	405	0.4	404	406	22.9	64.7
2025-08-09T23:05	10	0	0.1	0	1	405	0.5	404	406	22.5	66.1
2025-08-09T23:06	10	0	0.1	0	0	404	0.3	403	404	22.2	67.4
2025-08-09T23:07	10	0	0.1	0	0	404	0.5	403	405	22.1	67.8
2025-08-09T23:08	10	0	0.1	0	0	405	0.3	404	405	22.4	66.5
2025-08-09T23:09	10	0	0.1	0	0	404	0.3	403	404	22.5	66.2
2025-08-09T23:10	10	0	0.1	0	0	404	0.3	403	404	22.3	67.0
2025-08-09T23:11	10	0	0.1	0	0	404	0.3	403	404	22.3	67.1
2025-08-09T23:12	10	0	0.1	0	0	404	0.3	403	404	22.2	67.4
2025-08-09T23:13	10	0	0.1	0	0	404	0.2	403	404	22.2	67.2
2025-08-09T23:14	10	0	0.1	0	0	404	0.3	403	404	22.2	67.0
2025-08-09T23:15	10	0	0.1	0	0	404	0.2	403	405	22.4	66.3
2025-08-09T23:16	10	0	0.1	0	0	403	0.4	403	404	22.5	65.6
2025-08-09T23:17	10	0	0.1	0	0	403	0.3	402	404	22.5	65.4
2025-08-09T23:18	10	0	0.1	0	0	403	0.3	402	403	22.5	65.8
2025-08-09T23:19	10	0	0.1	0	0	403	0.2	403	403	22.4	66.2
2025-08-09T23:20	10	0	0.1	0	0	403	0.2	403	404	22.4	66.2
2025-08-09T23:21	10	0	0.1	0	0	403	0.2	403	404	22.4	66.2
2025-08-09T23:22	10	0	0.1	0	0	404	0.6	403	405	22.4	66.0
2025-08-09T23:23	10	0	0.1	0	0	405	0.3	404	405	22.5	64.8
2025-08-09T23:24	10	0	0.1	0	0	404	0.3	404	405	22.6	65.1
2025-08-09T23:25	10	0	0.1	0	0	404	0.2	403	404	22.5	65.3
2025-08-09T23:26	10	0	0.1	0	0	404	0.3	403	404	22.5	65.1
2025-08-09T23:27	10	0	0.0	0	0	403	0.4	402	404	22.4	65.6
2025-08-09T23:28	10	0	0.1	0	0	403	0.3	402	404	22.3	66.3
2025-08-09T23:29	10	0	0.1	0	0	402	0.3	402	403	22.2	66.6
2025-08-09T23:30	10	1	1.7	0	13	402	0.3	401	403	22.2	66.5
2025-08-09T23:31	10	0	0.1	0	0	402	0.2	401	402	22.2	66.4
2025-08-09T23:32	10	0	0.0	0	0	401	0.3	400	401	22.1	66.9
2025-08-09T23:33	10	0	0.1	0	0	402	0.5	401	403	21.9	67.9
2025-08-09T23:34	10	0	0.1	0	0	403	0.4	402	404	21.9	67.8
2025-08-09T23:35	10	0	0.1	0	0	403	0.3	403	404	22.1	66.7
2025-08-09T23:36	10	0	0.1	0	0	402	0.6	401	403	22.1	66.8
2025-08-09T23:37	10	0	0.1	0	0	402	0.3	401	403	21.8	67.8
2025-08-09T23:38	10	0	0.1	0	0	403	0.5	402	404	22.1	66.2
2025-08-09T23:39	10	0	0.1	0	0	404	0.3	403	404	22.4	65.3
2025-08-09T23:40	10	0	0.1	0	0	404	0.3	403	404	22.3	65.7
2025-08-09T23:41	10	0	0.1	0	0	403	0.8	401	404	22.0	67.1
2025-08-09T23:42	10	0	0.1	0	0	402	0.4	401	403	21.6	68.9
2025-08-09T23:43	10	0	0.1	0	0	401	0.2	400	401	21.5	69.7
2025-08-09T23:44	10	0	0.1	0	0	401	0.3	400	401	21.4	69.6
2025-08-09T23:45	10	0	0.1	0	0	401	0.4	400	402	21.4	69.7
2025-08-09T23:46	10	0	0.1	0	0	401	0.5	400	402	21.4	69.4
2025-08-09T23:47	10	0	0.1	0	0	400	0.3	399	401	21.4	69.4
2025-08-09T23:48	10	0	0.1	0	0	399	0.3	399	400	21.3	69.7
2025-08-09T23:49	10	0	0.1	0	0	399	0.2	398	399	21.2	70.4
2025-08-09T23:50	10	0	0.1	0	0	399	0.3	398	400	21.2	70.4
2025-08-09T23:51	10	0	0.1	0	0	399	0.4	399	400	21.2	70.1
2025-08-09T23:52	10	0	0.1	0	0	400	0.4	399	401	21.3	69.5
2025-08-09T23:53	10	0	0.1	0	0	399	0.8	398	400	21.4	69.3
2025-08-09T23:54	10	0	0.1	0	0	398	0.2	397	398	21.1	70.8
2025-08-09T23:55	10	0	0.1	0	0	398	0.4	397	399	21.0	71.6
2025-08-09T23:56	10	0	0.1	0	0	398	0.4	398	399	21.1	70.3
2025-08-09T23:57	10	0	0.1	0	0	399	0.4	398	400	21.3	68.8
2025-08-09T23:58	10	0	0.1	0	0	399	0.2	398	400	21.5	68.2
2025-08-09T23:59	10	0	0.1	0	0	399	0.2	398	400	21.6	67.2
2025-08-10T00:00	10	0	0.1	0	0	398	0.4	397	399	21.7	67.4
2025-08-10T00:01	10	0	0.1	0	0	397	0.3	397	398	21.4	68.7
2025-08-10T00:02	10	0	0.1	0	0	397	0.2	397	398	21.2	69.7
2025-08-10T00:03	10	0	0.1	0	0	397	0.3	397	398	21.2	70.1
2025-08-10T00:04	10	0	0.1	0	0	397	0.3	396	398	21.2	70.1
2025-08-10T00:05	10	0	0.1	0	0	398	0.5	397	399	21.1	70.3
2025-08-10T00:06	10	0	0.1	0	0	399	0.3	398	399	21.1	70.1
2025-08-10T00:07	10	0	0.1	0	0	399	0.3	398	399	20.9	71.0
2025-08-10T00:08	10	0	0.1	0	0	398	0.2	398	399	20.7	71.8
2025-08-10T00:09	10	0	0.1	0	0	398	0.3	398	399	20.7	72.2
2025-08-10T00:10	10	0	0.1	0	0	398	0.3	397	398	20.7	71.9
2025-08-10T00:11	10	0	0.1	0	0	397	0.3	397	398	20.7	71.9
2025-08-10T00:12	10	0	0.1	0	0	397	0.2	396	397	20.7	71.7
2025-08-10T00:13	10	0	0.1	0	0	398	0.3	397	398	20.8	71.2
2025-08-10T00:14	10	0	0.1	0	0	399	0.3	398	399	20.8	70.6
2025-08-10T00:15	10	0	0.1	0	0	400	0.5	399	401	20.8	70.4
2025-08-10T00:16	10	0	0.1	0	0	401	0.4	400	401	20.9	70.1
2025-08-10T00:17	10	0	0.0	0	0	401	0.4	400	401	20.9	70.2
2025-08-10T00:18	10	0	0.1	0	0	400	0.3	399	401	20.7	71.2
2025-08-10T00:19	10	0	0.1	0	0	400	0.3	400	401	20.7	70.8
2025-08-10T00:20	10	0	0.1	0	0	401	0.4	400	402	20.9	69.6
2025-08-10T00:21	10	0	0.0	0	0	402	0.2	401	402	21.1	69.1
2025-08-10T00:22	10	0	0.0	0	0	402	0.3	401	402	21.1	69.4
2025-08-10T00:23	10	0	0.1	0	0	402	0.3	402	403	21.1	69.7
2025-08-10T00:24	10	0	0.1	0	0	402	0.3	401	403	21.0	69.9
2025-08-10T00:25	10	0	0.0	0	0	401	0.4	401	402	21.0	70.1
2025-08-10T00:26	10	0	0.1	0	0	401	0.3	400	402	21.0	70.2
2025-08-10T00:27	10	0	0.0	0	0	400	0.2	400	401	21.1	70.0
2025-08-10T00:28	10	0	0.1	0	0	400	0.2	400	400	21.2	69.5
2025-08-10T00:29	10	0	0.1	0	0	400	0.3	399	400	21.2	69.6
2025-08-10T00:30	10	0	0.1	0	0	400	0.3	399	400	21.2	69.7
2025-08-10T00:31	10	0	0.1	0	0	400	0.2	399	400	21.1	70.0
2025-08-10T00:32	10	0	0.1	0	1	400	0.3	400	401	21.1	70.0
2025-08-10T00:33	10	0	0.2	0	1	401	0.3	400	402	21.2	69.8
2025-08-10T00:34	10	0	0.1	0	0	401	0.3	400	402	21.2	69.7
2025-08-10T00:35	10	0	0.1	0	1	401	0.3	401	402	21.1	69.9
2025-08-10T00:36	10	0	0.1	0	0	401	0.3	400	402	21.0	70.3
2025-08-10T00:37	10	0	0.2	0	1	400	0.4	399	401	20.8	71.7
2025-08-10T00:38	10	0	0.1	0	1	400	0.2	400	400	20.6	72.2
2025-08-10T00:39	10	0	0.1	0	1	401	0.3	400	401	20.7	71.6
2025-08-10T00:40	10	0	0.1	0	0	401	0.2	400	401	20.7	71.4
2025-08-10T00:41	10	0	0.2	0	1	400	0.3	399	401	20.6	72.2
2025-08-10T00:42	10	0	0.1	0	0	400	0.4	399	401	20.5	72.3
2025-08-10T00:43	10	0	0.1	0	0	400	0.3	399	400	20.4	72.6
2025-08-10T00:44	10	0	0.2	0	1	400	0.3	399	400	20.4	72.9
2025-08-10T00:45	10	0	0.2	0	0	399	0.3	399	400	20.3	72.8
2025-08-10T00:46	10	0	0.2	0	0	399	0.4	398	400	20.3	72.9
2025-08-10T00:47	10	0	0.2	0	0	399	0.2	398	399	20.1	73.7
2025-08-10T00:48	10	0	0.2	0	1	399	0.3	398	400	20.0	74.2
2025-08-10T00:49	10	0	0.2	0	1	399	0.4	398	400	20.1	73.8
2025-08-10T00:50	10	0	0.2	0	0	400	0.4	399	401	20.3	72.7
2025-08-10T00:51	10	0	0.2	0	0	400	0.5	399	401	20.5	71.7
2025-08-10T00:52	10	0	0.1	0	0	400	0.4	399	401	20.6	71.0
2025-08-10T00:53	10	0	0.1	0	1	400	0.3	400	401	20.5	71.4
2025-08-10T00:54	10	0	0.1	0	0	400	0.3	399	400	20.5	71.5
2025-08-10T00:55	10	0	0.1	0	0	400	0.4	400	401	20.5	71.3
2025-08-10T00:56	10	0	0.1	0	0	401	0.3	400	401	20.6	70.7
2025-08-10T00:57	10	0	0.1	0	0	400	0.3	399	401	20.8	69.9
2025-08-10T00:58	10	0	0.1	0	0	400	0.3	399	400	20.7	70.3
2025-08-10T00:59	10	0	0.1	0	0	399	0.3	399	400	20.6	70.7
2025-08-10T01:00	10	0	0.1	0	1	399	0.4	398	400	20.3	72.0
2025-08-10T01:01	10	0	0.1	0	0	399	0.2	398	399	20.0	73.6
2025-08-10T01:02	10	0	0.1	0	0	399	0.3	399	400	19.9	74.3
2025-08-10T01:03	10	0	0.1	0	0	398	0.3	398	399	19.8	74.5
2025-08-10T01:04	10	0	0.1	0	0	399	0.4	398	400	19.8	74.9
2025-08-10T01:05	10	0	0.1	0	0	400	0.5	399	400	20.0	73.8
2025-08-10T01:06	10	0	0.1	0	0	400	0.3	399	400	20.2	72.6
2025-08-10T01:07	10	0	0.1	0	0	398	0.4	398	399	20.1	73.0
2025-08-10T01:08	10	0	0.1	0	0	397	0.4	397	398	20.1	73.0
2025-08-10T01:09	10	0	0.1	0	0	397	0.3	397	398	20.1	73.1
2025-08-10T01:10	10	0	0.1	0	0	397	0.3	397	398	20.0	73.9
2025-08-10T01:11	10	0	0.1	0	0	397	0.3	396	398	19.9	74.1
2025-08-10T01:12	10	0	0.0	0	0	397	0.3	396	398	19.8	74.6
2025-08-10T01:13	10	0	0.0	0	0	398	0.4	397	399	19.8	74.5
2025-08-10T01:14	10	0	0.1	0	0	398	0.4	398	399	19.7	75.0
2025-08-10T01:15	10	0	0.1	0	0	398	0.4	397	398	19.6	75.0
2025-08-10T01:16	10	0	0.1	0	0	397	0.3	396	397	19.6	75.3
2025-08-10T01:17	10	0	0.1	0	0	397	0.3	396	397	19.6	75.2
2025-08-10T01:18	10	0	0.1	0	0	396	0.4	396	397	19.6	75.0
2025-08-10T01:19	10	0	0.1	0	0	396	0.4	395	397	19.5	75.3
2025-08-10T01:20	10	0	0.1	0	0	397	0.2	397	397	19.7	73.9
2025-08-10T01:21	10	0	0.1	0	0	396	0.5	395	397	19.5	75.5
2025-08-10T01:22	10	0	0.1	0	0	396	0.3	395	396	19.3	76.3
2025-08-10T01:23	10	0	0.1	0	0	395	0.3	395	396	19.4	75.7
2025-08-10T01:24	10	0	0.1	0	0	396	0.5	395	396	19.6	74.6
2025-08-10T01:25	10	0	0.1	0	0	397	0.8	396	398	20.0	72.7
2025-08-10T01:26	10	0	0.0	0	0	399	0.4	398	400	20.2	71.6
2025-08-10T01:27	10	0	0.1	0	0	400	0.5	398	401	20.3	71.2
2025-08-10T01:28	10	0	0.1	0	0	400	0.4	399	401	20.2	71.5
2025-08-10T01:29	10	0	0.1	0	0	400	0.3	399	401	20.1	72.0
2025-08-10T01:30	10	0	0.1	0	0	400	0.3	399	400	20.3	71.2
2025-08-10T01:31	10	0	0.1	0	0	398	0.9	397	400	19.9	73.3
2025-08-10T01:32	10	0	0.1	0	0	397	0.6	396	398	19.3	76.1
2025-08-10T01:33	10	0	0.1	0	0	396	0.3	395	397	19.4	75.5
2025-08-10T01:34	10	0	0.1	0	0	395	0.4	395	396	19.5	75.6
2025-08-10T01:35	10	0	0.1	0	0	396	0.4	395	396	19.5	74.8
2025-08-10T01:36	10	0	0.1	0	0	396	0.3	395	396	19.7	73.9
2025-08-10T01:37	10	0	0.1	0	0	396	0.2	395	396	19.6	74.6
2025-08-10T01:38	10	0	0.1	0	0	396	0.3	395	396	19.6	74.5
2025-08-10T01:39	10	0	0.1	0	0	396	0.2	395	396	19.6	74.6
2025-08-10T01:40	10	0	0.1	0	0	396	0.2	395	396	19.4	75.8
2025-08-10T01:41	10	0	0.1	0	0	396	0.2	396	396	19.1	77.3
2025-08-10T01:42	10	0	0.1	0	0	396	0.4	395	397	19.1	77.4
2025-08-10T01:43	10	0	0.1	0	0	396	0.2	396	397	19.3	76.5
2025-08-10T01:44	10	0	0.1	0	0	396	0.2	395	396	19.3	76.6
2025-08-10T01:45	10	0	0.1	0	0	395	0.2	395	395	19.2	76.8
2025-08-10T01:46	10	0	0.1	0	0	395	0.2	394	395	19.2	76.5
2025-08-10T01:47	10	0	0.1	0	0	395	0.3	394	395	19.4	75.5
2025-08-10T01:48	10	0	0.1	0	0	394	0.2	394	395	19.5	74.8
2025-08-10T01:49	10	0	0.1	0	0	394	0.3	394	394	19.6	74.7
2025-08-10T01:50	10	0	0.1	0	0	394	0.2	393	394	19.4	75.5
2025-08-10T01:51	10	0	0.1	0	0	393	0.3	393	394	19.4	75.8
2025-08-10T01:52	10	0	0.1	0	0	393	0.4	392	394	19.3	76.4
2025-08-10T01:53	10	0	0.1	0	0	393	0.2	392	393	19.2	76.9
2025-08-10T01:54	10	0	0.1	0	0	392	0.3	391	393	19.1	77.7
2025-08-10T01:55	10	0	0.1	0	0	392	0.3	391	393	19.0	78.4
2025-08-10T01:56	10	0	0.1	0	0	392	0.3	392	393	18.9	78.4
2025-08-10T01:57	10	0	0.1	0	0	393	0.5	392	394	19.0	77.8
2025-08-10T01:58	10	0	0.1	0	0	394	0.4	393	395	19.0	77.6
2025-08-10T01:59	10	0	0.1	0	0	394	0.3	394	395	19.0	77.5
2025-08-10T02:00	10	0	0.1	0	0	395	0.3	394	395	19.1	77.2
2025-08-10T02:01	10	0	0.1	0	0	394	0.3	394	395	19.0	77.4
2025-08-10T02:02	10	0	0.1	0	0	393	0.2	393	394	19.0	77.8
2025-08-10T02:03	10	0	0.1	0	0	393	0.2	393	393	19.0	77.7
2025-08-10T02:04	10	0	0.1	0	0	393	0.2	392	393	19.1	77.3
2025-08-10T02:05	10	0	0.1	0	0	392	0.3	392	393	19.1	77.0
2025-08-10T02:06	10	0	0.0	0	0	392	0.2	392	393	19.3	76.1
2025-08-10T02:07	10	0	0.1	0	0	392	0.3	391	393	19.3	76.1
2025-08-10T02:08	10	0	0.0	0	0	392	0.2	392	392	19.3	76.3
2025-08-10T02:09	10	0	0.0	0	0	392	0.2	391	392	19.3	76.3
2025-08-10T02:10	10	0	0.0	0	0	392	0.2	391	392	19.2	76.7
2025-08-10T02:11	10	0	0.1	0	0	391	0.2	391	392	19.2	76.9
2025-08-10T02:12	10	0	0.0	0	0	391	0.3	390	391	19.1	77.4
2025-08-10T02:13	10	0	0.1	0	0	391	0.2	390	391	19.0	77.6
2025-08-10T02:14	10	0	0.1	0	0	391	0.2	390	391	19.0	77.4
2025-08-10T02:15	10	0	0.1	0	0	391	0.2	390	391	19.0	77.1
2025-08-10T02:16	10	0	0.0	0	0	391	0.2	390	391	19.0	77.3
2025-08-10T02:17	10	0	0.0	0	0	391	0.3	390	392	18.9	77.8
2025-08-10T02:18	10	0	0.0	0	0	391	0.2	391	391	18.9	78.0
2025-08-10T02:19	10	0	0.1	0	0	391	0.3	390	391	18.9	78.2
2025-08-10T02:20	10	0	0.1	0	0	391	0.2	390	391	18.8	78.6
2025-08-10T02:21	10	0	0.1	0	0	391	0.2	390	391	18.7	78.8
2025-08-10T02:22	10	0	0.1	0	0	391	0.3	390	391	18.7	79.1
2025-08-10T02:23	10	0	0.1	0	0	391	0.2	391	392	18.8	78.9
2025-08-10T02:24	10	0	0.0	0	0	391	0.2	391	392	18.8	78.9
2025-08-10T02:25	10	0	0.1	0	0	391	0.2	390	391	18.7	79.3
2025-08-10T02:26	10	0	0.1	0	0	391	0.3	391	392	18.7	78.7
2025-08-10T02:27	10	0	0.1	0	0	392	0.3	391	392	18.8	78.5
2025-08-10T02:28	10	0	0.0	0	0	392	0.6	391	394	18.9	78.5
2025-08-10T02:29	10	0	0.0	0	0	394	0.3	393	395	19.1	76.6
2025-08-10T02:30	10	0	0.1	0	0	394	0.2	393	394	19.3	75.3
2025-08-10T02:31	10	0	0.1	0	0	394	0.4	393	394	19.3	75.6
2025-08-10T02:32	10	0	0.1	0	0	393	0.5	392	394	19.1	76.1
2025-08-10T02:33	10	0	0.1	0	0	392	0.5	391	393	18.9	77.8
2025-08-10T02:34	10	0	0.1	0	0	391	0.2	391	392	18.8	78.1
2025-08-10T02:35	10	0	0.0	0	0	391	0.3	391	392	18.8	77.7
2025-08-10T02:36	10	0	0.0	0	0	391	0.3	391	392	18.9	77.4
2025-08-10T02:37	10	0	0.0	0	0	391	0.2	391	392	18.8	77.4
2025-08-10T02:38	10	0	0.0	0	0	391	0.2	391	392	18.8	77.3
2025-08-10T02:39	10	0	0.0	0	0	391	0.2	391	392	18.7	77.8
2025-08-10T02:40	10	0	0.1	0	0	391	0.3	390	392	18.6	78.3
2025-08-10T02:41	10	0	0.1	0	0	391	0.3	390	392	18.5	78.6
2025-08-10T02:42	10	0	0.1	0	0	391	0.2	390	391	18.5	78.8
2025-08-10T02:43	10	0	0.1	0	0	390	0.2	389	391	18.5	79.0
2025-08-10T02:44	10	0	0.1	0	0	390	0.2	390	391	18.5	79.1
2025-08-10T02:45	10	0	0.1	0	0	391	0.2	390	391	18.5	78.9
2025-08-10T02:46	10	0	0.1	0	0	390	0.2	390	391	18.5	78.6
2025-08-10T02:47	10	0	0.1	0	0	390	0.2	390	391	18.6	78.3
2025-08-10T02:48	10	0	0.1	0	0	390	0.3	389	390	18.6	78.2
2025-08-10T02:49	10	0	0.1	0	0	389	0.2	389	390	18.5	78.6
2025-08-10T02:50	10	0	0.1	0	0	388	0.5	388	389	18.5	79.0
2025-08-10T02:51	10	0	0.1	0	0	388	0.3	387	389	18.4	79.7
2025-08-10T02:52	10	0	0.1	0	0	388	0.2	387	388	18.3	80.1
2025-08-10T02:53	10	0	0.1	0	0	388	0.2	387	388	18.3	80.3
2025-08-10T02:54	10	0	0.1	0	0	388	0.3	387	388	18.2	80.5
2025-08-10T02:55	10	0	0.2	0	0	387	0.3	387	388	18.1	81.0
2025-08-10T02:56	10	0	0.1	0	0	387	0.3	387	388	18.1	81.6
2025-08-10T02:57	10	0	0.1	0	0	388	0.5	387	389	18.0	82.1
2025-08-10T02:58	10	0	0.1	0	0	388	0.2	388	389	18.0	82.0
2025-08-10T02:59	10	0	0.1	0	0	388	0.4	387	389	18.1	81.7
2025-08-10T03:00	10	0	0.1	0	0	389	0.3	388	389	18.3	80.8
2025-08-10T03:01	10	0	0.1	0	0	389	0.3	388	390	18.4	80.2
2025-08-10T03:02	10	0	0.2	0	1	390	0.3	389	390	18.4	80.3
2025-08-10T03:03	10	0	0.1	0	1	390	0.3	389	390	18.5	80.0
2025-08-10T03:04	10	0	0.2	0	1	389	0.3	388	389	18.4	80.1
2025-08-10T03:05	10	0	0.1	0	1	389	0.2	388	389	18.5	80.1
2025-08-10T03:06	10	0	0.2	0	1	388	0.5	387	389	18.5	79.8
2025-08-10T03:07	10	0	0.2	0	1	388	0.3	387	388	18.4	80.6
2025-08-10T03:08	10	0	0.2	0	1	388	0.2	387	388	18.1	81.8
2025-08-10T03:09	10	0	0.1	0	1	388	0.3	387	388	18.2	81.4
2025-08-10T03:10	10	0	0.1	0	0	387	0.4	387	388	18.3	80.9
2025-08-10T03:11	10	0	0.1	0	0	387	0.2	387	388	18.3	80.8
2025-08-10T03:12	10	0	0.2	0	1	387	0.3	387	388	18.5	79.8
2025-08-10T03:13	10	0	0.1	0	1	387	0.2	387	388	18.5	79.4
2025-08-10T03:14	10	0	0.0	0	0	387	0.2	387	388	18.5	79.6
2025-08-10T03:15	10	0	0.0	0	0	387	0.3	387	388	18.5	79.3
2025-08-10T03:16	10	0	0.1	0	0	387	0.3	386	387	18.5	79.4
2025-08-10T03:17	10	0	0.1	0	0	387	0.2	386	387	18.4	80.2
2025-08-10T03:18	10	0	0.1	0	0	386	0.2	386	387	18.3	80.6
2025-08-10T03:19	10	0	0.1	0	0	386	0.2	386	387	18.2	81.0
2025-08-10T03:20	10	0	0.1	0	0	386	0.2	385	387	18.1	81.5
2025-08-10T03:21	10	0	0.1	0	0	386	0.2	386	387	18.0	82.0
2025-08-10T03:22	10	0	0.1	0	0	386	0.2	385	386	17.9	82.4
2025-08-10T03:23	10	0	0.1	0	1	386	0.3	385	386	17.8	82.8
2025-08-10T03:24	10	0	0.1	0	0	386	0.3	385	386	17.9	82.4
2025-08-10T03:25	10	0	0.1	0	0	386	0.2	385	386	17.9	82.4
2025-08-10T03:26	10	0	0.1	0	0	386	0.2	386	386	17.9	82.3
2025-08-10T03:27	10	0	0.1	0	0	386	0.3	385	387	17.9	82.3
2025-08-10T03:28	10	0	0.1	0	0	386	0.2	386	387	17.9	82.4
2025-08-10T03:29	10	0	0.1	0	0	386	0.3	385	386	17.9	82.7
2025-08-10T03:30	10	0	0.1	0	0	386	0.2	385	386	17.9	82.8
2025-08-10T03:31	10	0	0.1	0	0	386	0.2	385	386	17.9	82.8
2025-08-10T03:32	10	0	0.0	0	0	386	0.3	385	387	18.0	82.2
2025-08-10T03:33	10	0	0.0	0	0	386	0.5	385	387	18.1	81.8
2025-08-10T03:34	10	0	0.0	0	0	387	0.3	386	387	18.2	81.0
2025-08-10T03:35	10	0	0.0	0	0	387	0.2	386	387	18.2	80.9
2025-08-10T03:36	10	0	0.0	0	0	388	0.6	386	389	18.3	80.6
2025-08-10T03:37	10	0	0.1	0	0	388	0.3	387	388	18.4	80.0
2025-08-10T03:38	10	0	0.1	0	0	388	0.3	387	388	18.3	80.9
2025-08-10T03:39	10	0	0.1	0	0	388	0.2	388	389	18.5	79.0
2025-08-10T03:40	10	0	0.1	0	0	388	0.4	386	388	18.6	78.9
2025-08-10T03:41	10	0	0.1	0	0	387	0.3	386	387	18.4	80.2
2025-08-10T03:42	10	0	0.0	0	0	387	0.3	386	387	18.4	80.4
2025-08-10T03:43	10	0	0.0	0	0	387	0.3	386	387	18.1	82.2
2025-08-10T03:44	10	0	0.0	0	0	387	0.3	387	388	18.0	82.4
2025-08-10T03:45	10	0	0.0	0	0	387	0.4	387	388	18.2	81.4
2025-08-10T03:46	10	0	0.1	0	0	388	0.4	388	389	18.6	78.4
2025-08-10T03:47	10	0	0.1	0	0	389	0.3	388	389	18.8	77.4
2025-08-10T03:48	10	0	0.0	0	0	388	0.3	387	389	18.8	77.7
2025-08-10T03:49	10	0	0.1	0	0	388	0.3	387	389	18.6	78.9
2025-08-10T03:50	10	0	0.1	0	0	387	0.3	386	388	18.4	79.4
2025-08-10T03:51	10	0	0.0	0	0	387	0.3	386	387	18.4	79.2
2025-08-10T03:52	10	0	0.1	0	0	386	0.2	386	387	18.4	79.2
2025-08-10T03:53	10	0	0.1	0	0	386	0.3	385	386	18.3	79.6
2025-08-10T03:54	10	0	0.1	0	0	386	0.3	385	386	18.2	80.3
2025-08-10T03:55	10	0	0.1	0	0	386	0.2	385	386	18.2	80.9
2025-08-10T03:56	10	0	0.1	0	0	385	0.2	384	386	18.1	81.0
2025-08-10T03:57	10	0	0.1	0	0	385	0.2	385	386	18.1	81.1
2025-08-10T03:58	10	0	0.1	0	0	386	0.3	385	387	18.2	80.6
2025-08-10T03:59	10	0	0.1	0	0	386	0.3	386	387	18.2	80.3
2025-08-10T04:00	10	0	0.0	0	0	386	0.3	385	387	18.2	80.5
2025-08-10T04:01	10	0	0.0	0	0	386	0.2	385	386	18.1	80.7
2025-08-10T04:02	10	0	0.1	0	0	386	0.2	386	387	18.1	80.8
2025-08-10T04:03	10	0	0.0	0	0	386	0.2	386	387	18.0	80.9
2025-08-10T04:04	10	0	0.0	0	0	386	0.2	385	386	18.1	81.0
2025-08-10T04:05	10	0	0.1	0	0	386	0.2	385	386	18.0	81.3
2025-08-10T04:06	10	0	0.1	0	0	386	0.2	386	387	18.0	81.7
2025-08-10T04:07	10	0	0.0	0	0	387	0.3	386	387	18.0	81.7
2025-08-10T04:08	10	0	0.1	0	0	387	0.3	386	388	18.0	81.6
2025-08-10T04:09	10	0	0.1	0	0	387	0.3	386	388	18.0	81.5
2025-08-10T04:10	10	0	0.1	0	0	387	0.2	386	387	18.0	81.5
2025-08-10T04:11	10	0	0.1	0	0	387	0.2	386	387	18.0	81.6
2025-08-10T04:12	10	0	0.1	0	0	387	0.2	386	388	18.0	81.6
2025-08-10T04:13	10	0	0.1	0	0	387	0.2	386	387	18.0	81.7
2025-08-10T04:14	10	0	0.1	0	0	387	0.4	386	388	18.1	81.3
2025-08-10T04:15	10	0	0.1	0	0	388	0.2	387	388	18.1	80.8
2025-08-10T04:16	10	0	0.1	0	1	388	0.2	387	388	18.2	80.3
2025-08-10T04:17	10	0	0.1	0	1	388	0.3	387	388	18.2	80.4
2025-08-10T04:18	10	0	0.1	0	1	389	0.4	388	389	18.2	80.2
2025-08-10T04:19	10	0	0.1	0	1	388	0.5	387	389	18.5	78.4
2025-08-10T04:20	10	1	0.1	0	1	389	0.3	388	390	18.5	78.8
2025-08-10T04:21	10	1	0.1	0	1	389	0.2	389	390	18.4	79.1
2025-08-10T04:22	10	1	0.1	1	1	388	0.4	388	389	18.3	79.6
2025-08-10T04:23	10	1	0.1	1	1	388	0.3	387	388	18.1	80.6
2025-08-10T04:24	10	1	0.1	1	1	388	0.3	387	388	18.1	81.1
2025-08-10T04:25	10	1	0.1	1	1	387	0.3	387	388	18.0	81.4
2025-08-10T04:26	10	1	0.1	1	1	387	0.5	386	388	17.9	82.0
2025-08-10T04:27	10	1	0.1	1	1	386	0.2	385	386	17.8	82.7
2025-08-10T04:28	10	1	0.1	1	1	386	0.4	385	386	17.6	83.5
2025-08-10T04:29	10	1	0.1	1	2	386	0.6	385	387	17.4	84.1
2025-08-10T04:30	10	1	0.1	1	2	387	0.5	386	388	17.7	82.8
2025-08-10T04:31	10	1	0.1	1	2	387	0.3	387	388	18.1	81.0
2025-08-10T04:32	10	2	0.1	2	2	388	0.4	387	389	18.1	80.7
2025-08-10T04:33	10	2	0.1	2	2	389	0.4	388	390	18.2	80.7
2025-08-10T04:34	10	2	0.1	2	2	389	0.2	389	390	18.1	80.7
2025-08-10T04:35	10	2	0.1	2	3	390	0.3	389	390	18.0	81.2
2025-08-10T04:36	10	2	0.1	2	3	390	0.2	389	390	18.1	81.2
2025-08-10T04:37	10	3	0.1	2	3	390	0.2	389	391	18.1	81.1
2025-08-10T04:38	10	3	0.1	3	3	390	0.2	390	390	18.1	81.3
2025-08-10T04:39	10	3	0.1	3	3	390	0.4	389	390	18.0	81.4
2025-08-10T04:40	10	3	0.1	3	4	390	0.5	389	391	18.0	81.6
2025-08-10T04:41	10	3	0.1	3	4	390	0.3	390	391	18.2	80.2
2025-08-10T04:42	10	4	0.1	3	4	391	0.2	390	391	18.3	80.0
2025-08-10T04:43	10	4	0.1	4	4	391	0.3	390	392	18.3	79.7
2025-08-10T04:44	10	4	0.1	4	4	391	0.3	390	391	18.3	79.5
2025-08-10T04:45	10	4	0.2	4	5	391	0.3	390	391	18.4	79.1
2025-08-10T04:46	10	5	0.1	4	5	391	0.3	390	391	18.4	79.2
2025-08-10T04:47	10	5	0.1	5	5	391	0.2	390	391	18.4	79.1
2025-08-10T04:48	10	5	0.1	5	5	391	0.3	391	392	18.4	79.0
2025-08-10T04:49	10	5	0.2	5	6	391	0.2	391	392	18.4	79.0
2025-08-10T04:50	10	6	0.1	6	6	392	0.3	391	392	18.4	79.0
2025-08-10T04:51	10	6	0.1	6	6	392	0.2	391	392	18.4	79.2
2025-08-10T04:52	10	6	0.2	6	7	392	0.2	391	392	18.4	79.1
2025-08-10T04:53	10	7	0.2	7	7	392	0.3	392	393	18.5	78.5
2025-08-10T04:54	10	7	0.2	7	8	393	0.2	392	393	18.6	77.9
2025-08-10T04:55	10	8	0.1	7	8	393	0.2	392	393	18.6	77.7
2025-08-10T04:56	10	8	0.1	8	8	393	0.3	392	394	18.7	77.6
2025-08-10T04:57	10	8	0.2	8	9	393	0.2	392	393	18.5	78.3
2025-08-10T04:58	10	9	0.2	9	9	393	0.4	393	394	18.5	78.6
2025-08-10T04:59	10	9	0.1	9	10	393	0.2	393	394	18.5	78.7
2025-08-10T05:00	10	10	0.2	9	10	394	0.2	393	394	18.4	78.9
2025-08-10T05:01	10	10	0.2	10	10	393	0.3	393	394	18.4	79.3
2025-08-10T05:02	10	10	0.1	10	11	393	0.3	392	394	18.3	79.7
2025-08-10T05:03	10	11	0.2	10	11	393	0.2	393	394	18.3	80.2
2025-08-10T05:04	10	11	0.1	11	12	393	0.3	392	393	18.2	80.8
2025-08-10T05:05	10	12	0.1	11	12	393	0.3	393	394	18.1	81.2
2025-08-10T05:06	10	12	0.2	12	13	394	0.3	393	394	18.0	81.4
2025-08-10T05:07	10	13	0.2	12	13	394	0.3	393	395	18.0	81.5
2025-08-10T05:08	10	13	0.2	13	14	394	0.2	394	395	18.0	81.5
2025-08-10T05:09	10	14	0.2	13	14	395	0.3	394	396	18.0	81.7
2025-08-10T05:10	10	14	0.2	14	15	395	0.2	394	395	18.0	81.8
2025-08-10T05:11	10	15	0.2	14	15	395	0.2	395	396	18.1	81.7
2025-08-10T05:12	10	15	0.2	15	16	395	0.2	395	396	18.0	81.9
2025-08-10T05:13	10	16	0.2	16	16	396	0.3	395	396	18.0	82.0
2025-08-10T05:14	10	16	0.2	16	17	396	0.3	395	397	18.0	82.0
2025-08-10T05:15	10	17	0.1	17	17	396	0.3	395	397	18.0	81.9
2025-08-10T05:16	10	17	0.1	17	18	397	0.2	396	397	18.0	81.7
2025-08-10T05:17	10	18	0.2	17	18	397	0.3	396	397	18.0	81.9
2025-08-10T05:18	10	18	0.2	18	19	397	0.2	397	398	18.0	81.8
2025-08-10T05:19	10	19	0.2	18	19	397	0.3	397	398	18.0	81.7
2025-08-10T05:20	10	20	0.2	19	20	398	0.2	397	398	18.0	81.5
2025-08-10T05:21	10	20	0.2	20	20	398	0.3	397	399	18.0	81.6
2025-08-10T05:22	10	21	0.2	20	21	398	0.2	398	399	18.1	81.3
2025-08-10T05:23	10	21	0.2	21	22	399	0.3	398	400	18.3	80.5
2025-08-10T05:24	10	22	0.2	21	22	399	0.2	399	400	18.4	79.6
2025-08-10T05:25	10	22	0.2	22	23	399	0.2	399	400	18.5	79.3
2025-08-10T05:26	10	23	0.2	23	23	400	0.3	399	400	18.5	79.0
2025-08-10T05:27	10	23	0.2	23	24	400	0.2	400	401	18.7	78.5
2025-08-10T05:28	10	24	0.2	24	25	401	0.3	400	401	18.6	78.9
2025-08-10T05:29	10	25	0.2	24	25	401	0.3	400	402	18.5	79.2
2025-08-10T05:30	10	25	0.2	25	26	401	0.3	401	402	18.6	78.7
2025-08-10T05:31	10	26	0.2	26	26	402	0.2	401	402	18.6	78.6
2025-08-10T05:32	10	27	0.2	26	27	402	0.3	402	403	18.7	78.7
2025-08-10T05:33	10	27	0.2	27	28	403	0.3	402	403	18.7	79.7
2025-08-10T05:34	10	28	0.2	28	28	403	0.2	402	403	18.7	80.3
2025-08-10T05:35	10	29	0.3	28	29	403	0.2	403	404	18.6	80.7
2025-08-10T05:36	10	29	0.2	29	30	403	0.2	403	404	18.6	80.4
2025-08-10T05:37	10	30	0.2	30	31	403	0.3	403	404	18.6	80.8
2025-08-10T05:38	10	31	0.2	30	31	404	0.2	403	404	18.6	82.1
2025-08-10T05:39	10	31	0.1	31	32	404	0.2	404	404	18.5	81.8
2025-08-10T05:40	10	32	0.2	32	32	404	0.2	404	405	18.5	81.5
2025-08-10T05:41	10	32	0.2	32	33	405	0.2	404	405	18.5	82.1
2025-08-10T05:42	10	33	0.2	33	33	405	0.2	405	406	18.5	81.2
2025-08-10T05:43	10	34	0.2	33	34	406	0.2	405	406	18.5	80.8
2025-08-10T05:44	10	34	0.1	34	34	406	0.3	405	407	18.6	80.6
2025-08-10T05:45	10	35	0.2	34	35	406	0.2	406	407	18.6	80.5
2025-08-10T05:46	10	35	0.2	35	36	407	0.3	406	407	18.7	80.0
2025-08-10T05:47	10	36	0.2	35	36	407	0.2	407	407	18.8	80.0
2025-08-10T05:48	10	36	0.2	36	37	407	0.2	407	408	18.9	79.4
2025-08-10T05:49	10	37	0.2	36	37	407	0.2	407	408	18.9	79.2
2025-08-10T05:50	10	38	0.2	37	38	408	0.2	407	408	19.0	79.3
2025-08-10T05:51	10	38	0.2	38	39	409	0.2	408	409	19.0	79.7
2025-08-10T05:52	10	39	0.2	38	39	409	0.2	408	410	19.0	79.6
2025-08-10T05:53	10	40	0.2	39	40	410	0.2	409	410	19.1	79.6
2025-08-10T05:54	10	40	0.2	40	41	410	0.2	410	411	19.1	77.9
2025-08-10T05:55	10	41	0.2	40	41	411	0.2	410	411	19.2	77.7
2025-08-10T05:56	10	42	0.3	41	42	411	0.2	411	412	19.2	77.4
2025-08-10T05:57	10	42	0.3	42	43	412	0.2	411	412	19.3	76.9
2025-08-10T05:58	10	43	0.3	43	44	412	0.2	412	413	19.4	76.4
2025-08-10T05:59	10	44	0.3	44	45	412	0.3	412	413	19.5	75.9
2025-08-10T06:00	10	45	0.3	44	46	413	0.4	413	414	19.7	74.8
2025-08-10T06:01	10	46	0.3	45	47	414	0.3	414	415	19.9	74.8
2025-08-10T06:02	10	46	0.2	46	47	415	0.3	414	416	20.0	74.1
2025-08-10T06:03	10	47	0.3	47	48	415	0.4	414	416	19.9	74.8
2025-08-10T06:04	10	48	0.2	47	48	416	0.4	414	417	20.0	73.5
2025-08-10T06:05	10	48	0.2	48	49	417	0.2	416	417	20.1	73.4
2025-08-10T06:06	10	49	0.1	49	49	417	0.3	417	418	20.0	73.8
2025-08-10T06:07	10	49	0.1	49	50	417	0.2	417	418	20.0	73.6
2025-08-10T06:08	10	50	0.1	49	50	417	0.4	416	418	20.0	73.5
2025-08-10T06:09	10	50	0.1	50	50	417	0.2	417	418	19.9	74.2
2025-08-10T06:10	10	51	0.2	50	51	418	0.2	417	418	19.9	73.5
2025-08-10T06:11	10	51	0.2	51	51	418	0.2	418	419	20.0	73.2
2025-08-10T06:12	10	51	0.1	51	52	419	0.3	419	420	20.0	73.7
2025-08-10T06:13	10	52	0.1	52	52	420	0.2	419	420	20.2	73.8
2025-08-10T06:14	10	53	0.3	52	53	420	0.2	420	420	20.1	72.1
2025-08-10T06:15	10	53	0.2	53	54	420	0.3	420	421	20.2	72.0
2025-08-10T06:16	10	54	0.2	54	54	421	0.3	420	422	20.3	73.1
2025-08-10T06:17	10	54	0.1	54	55	421	0.2	420	421	20.2	73.0
2025-08-10T06:18	10	55	0.2	55	55	421	0.2	421	422	20.2	73.2
2025-08-10T06:19	10	55	0.2	55	56	422	0.2	421	422	20.2	73.3
2025-08-10T06:20	10	56	0.2	56	56	422	0.2	422	423	20.2	73.0
2025-08-10T06:21	10	57	0.2	56	57	423	0.3	422	423	20.3	72.7
2025-08-10T06:22	10	57	0.2	57	58	423	0.3	423	424	20.5	72.5
2025-08-10T06:23	10	58	0.2	57	58	424	0.2	424	425	20.5	72.3
2025-08-10T06:24	10	58	0.2	58	59	424	0.3	424	425	20.6	71.6
2025-08-10T06:25	10	59	0.2	59	59	424	0.2	424	425	20.6	70.1
2025-08-10T06:26	10	60	0.2	59	60	425	0.3	424	425	20.7	70.7
2025-08-10T06:27	10	60	0.2	60	61	426	0.2	425	426	20.8	70.9
2025-08-10T06:28	10	61	0.2	60	61	427	0.3	426	427	20.9	70.3
2025-08-10T06:29	10	61	0.2	61	62	427	0.2	427	428	21.1	69.3
2025-08-10T06:30	10	62	0.3	62	63	428	0.3	427	429	21.1	68.4
2025-08-10T06:31	10	63	0.2	62	63	429	0.3	428	429	21.1	68.7
2025-08-10T06:32	10	63	0.2	63	64	429	0.3	428	430	21.2	68.2
2025-08-10T06:33	10	64	0.2	64	65	429	0.4	428	430	21.4	69.1
2025-08-10T06:34	10	65	0.2	64	65	429	0.3	428	430	21.4	69.9
2025-08-10T06:35	10	65	0.2	65	66	429	0.3	429	430	21.3	70.9
2025-08-10T06:36	10	66	0.2	66	66	430	0.2	429	431	21.3	71.7
2025-08-10T06:37	10	67	0.2	66	67	430	0.2	430	431	21.3	71.3
2025-08-10T06:38	10	67	0.2	67	68	431	0.2	430	431	21.3	70.3
2025-08-10T06:39	10	68	0.2	68	68	431	0.3	431	432	21.3	70.9
2025-08-10T06:40	10	69	0.2	68	69	432	0.2	431	432	21.3	69.8
2025-08-10T06:41	10	69	0.2	69	70	433	0.3	432	433	21.4	69.9
2025-08-10T06:42	10	70	0.2	70	70	434	0.2	433	434	21.5	70.2
2025-08-10T06:43	10	71	0.2	70	71	434	0.4	433	434	21.6	69.6
2025-08-10T06:44	10	71	0.2	71	72	435	0.2	434	435	21.7	69.3
2025-08-10T06:45	10	72	0.2	72	72	434	0.3	433	434	21.6	68.0
2025-08-10T06:46	10	72	0.2	72	73	434	0.4	433	435	21.6	68.2
2025-08-10T06:47	10	73	0.3	72	74	435	0.4	434	436	21.6	68.7
2025-08-10T06:48	10	73	0.2	73	74	435	0.3	434	435	21.7	67.9
2025-08-10T06:49	10	74	0.3	73	74	435	0.3	435	436	21.7	67.9
2025-08-10T06:50	10	74	0.2	74	75	436	0.2	435	437	21.8	68.1
2025-08-10T06:51	10	75	0.2	74	75	437	0.3	436	437	21.8	67.6
2025-08-10T06:52	10	75	0.2	75	76	438	0.5	436	439	21.9	68.4
2025-08-10T06:53	10	76	0.3	75	76	438	0.4	437	439	22.0	66.4
2025-08-10T06:54	10	76	0.2	76	77	439	0.2	438	439	22.2	66.6
2025-08-10T06:55	10	77	0.1	77	77	439	0.2	439	440	22.3	66.7
2025-08-10T06:56	10	77	0.2	77	78	440	0.3	440	441	22.3	67.3
2025-08-10T06:57	10	78	0.1	77	78	441	0.2	441	442	22.4	67.9
2025-08-10T06:58	10	78	0.2	78	78	441	0.3	440	442	22.3	66.6
2025-08-10T06:59	10	79	0.2	78	79	442	0.3	441	442	22.4	66.8
2025-08-10T07:00	10	79	0.2	79	80	443	0.3	442	443	22.6	66.1
2025-08-10T07:01	10	80	0.2	79	80	443	0.5	442	444	22.6	65.8
2025-08-10T07:02	10	81	0.2	80	81	443	0.2	442	444	22.3	65.6
2025-08-10T07:03	10	81	0.2	81	81	443	0.4	442	444	22.3	65.6
2025-08-10T07:04	10	82	0.2	81	82	443	0.3	442	443	22.2	66.1
2025-08-10T07:05	10	82	0.2	82	83	443	0.5	442	444	22.2	66.5
2025-08-10T07:06	10	83	0.2	82	83	444	0.2	443	444	22.1	66.4
2025-08-10T07:07	10	83	0.2	83	84	444	0.5	443	445	22.2	65.8
2025-08-10T07:08	10	84	0.2	84	84	444	0.3	443	444	22.0	66.0
2025-08-10T07:09	10	84	0.2	84	85	444	0.4	443	446	22.1	66.4
2025-08-10T07:10	10	85	0.2	84	85	445	0.3	444	446	22.2	66.4
2025-08-10T07:11	10	85	0.2	85	86	445	0.3	444	446	22.2	66.0
2025-08-10T07:12	10	86	0.2	85	86	446	0.3	446	447	22.3	66.2
2025-08-10T07:13	10	86	0.2	86	87	447	0.4	447	448	22.4	66.0
2025-08-10T07:14	10	87	0.2	87	87	447	0.6	446	448	22.4	66.0
2025-08-10T07:15	10	88	0.2	87	88	447	0.3	446	448	22.3	66.0
2025-08-10T07:16	10	88	0.2	88	89	448	0.4	447	449	22.3	66.0
2025-08-10T07:17	10	89	0.1	88	89	449	0.4	448	449	22.4	66.1
2025-08-10T07:18	10	89	0.2	89	89	450	0.3	449	450	22.5	66.1
2025-08-10T07:19	10	90	0.1	89	90	450	0.2	449	450	22.8	64.3
2025-08-10T07:20	10	90	0.2	90	91	451	0.3	450	451	23.0	63.4
2025-08-10T07:21	10	91	0.2	90	91	452	0.3	451	452	23.1	63.5
2025-08-10T07:22	10	91	0.2	91	92	453	0.4	452	454	23.2	63.7
2025-08-10T07:23	10	92	0.1	91	92	453	0.2	452	454	23.2	63.8
2025-08-10T07:24	10	92	0.2	92	93	453	0.3	453	454	23.0	64.8
2025-08-10T07:25	10	93	0.2	93	93	454	0.7	453	455	23.1	64.8
2025-08-10T07:26	10	93	0.2	93	94	454	0.4	453	455	22.9	65.3
2025-08-10T07:27	10	94	0.2	94	94	453	0.6	452	454	23.0	65.2
2025-08-10T07:28	10	94	0.2	94	94	453	0.3	452	453	22.9	65.6
2025-08-10T07:29	10	95	0.2	94	95	453	0.4	452	454	22.7	65.9
2025-08-10T07:30	10	95	0.2	94	95	452	0.4	451	453	22.5	66.8
2025-08-10T07:31	10	95	0.3	95	96	452	0.5	451	453	22.5	66.9
2025-08-10T07:32	10	96	0.2	95	96	454	0.5	452	455	22.7	66.4
2025-08-10T07:33	10	96	0.2	96	96	454	0.5	453	455	22.8	65.8
2025-08-10T07:34	10	96	0.2	96	97	453	0.6	452	455	22.6	66.4
2025-08-10T07:35	10	97	0.3	96	98	454	0.6	453	456	22.9	66.0
2025-08-10T07:36	10	98	0.2	97	98	454	0.4	453	455	22.7	66.3
2025-08-10T07:37	10	98	0.2	98	98	455	0.4	455	456	22.8	65.8
2025-08-10T07:38	10	99	0.2	98	99	456	0.3	456	457	22.7	66.2
2025-08-10T07:39	10	99	0.2	99	99	458	0.7	456	459	23.0	66.2
2025-08-10T07:40	10	100	0.1	99	100	456	0.9	454	458	22.9	66.2
2025-08-10T07:41	10	100	0.1	100	100	455	1.0	454	457	22.7	67.1
2025-08-10T07:42	10	100	0.1	100	100	455	0.7	453	456	22.8	67.0
2025-08-10T07:43	10	101	0.1	100	101	457	0.4	456	458	23.0	66.4
2025-08-10T07:44	10	101	0.1	101	101	456	0.4	455	457	22.7	66.8
2025-08-10T07:45	10	101	0.1	101	102	457	0.8	456	458	22.7	67.0
2025-08-10T07:46	10	102	0.2	102	102	457	0.7	456	459	22.8	66.9
2025-08-10T07:47	10	102	0.2	102	103	456	0.4	455	457	22.6	67.6
2025-08-10T07:48	10	103	0.1	103	103	457	0.4	456	457	22.6	67.5
2025-08-10T07:49	10	103	0.1	103	103	458	0.4	457	458	22.6	67.1
2025-08-10T07:50	10	103	0.2	103	104	459	1.0	457	461	22.9	66.8
2025-08-10T07:51	10	104	0.1	104	104	460	0.3	459	461	23.1	66.3
2025-08-10T07:52	10	104	0.2	104	105	460	0.5	459	461	23.0	66.8
2025-08-10T07:53	10	105	0.1	105	105	461	1.1	459	463	22.9	67.3
2025-08-10T07:54	10	105	0.2	105	106	461	0.8	460	463	23.0	66.2
2025-08-10T07:55	10	106	0.2	106	106	463	0.8	461	464	23.0	66.6
2025-08-10T07:56	10	106	0.2	106	107	464	0.9	463	465	23.2	66.4
2025-08-10T07:57	10	107	0.2	106	107	466	0.4	465	467	23.5	66.1
2025-08-10T07:58	10	107	0.2	107	108	466	0.7	464	467	23.5	65.4
2025-08-10T07:59	10	108	0.2	107	108	466	1.4	463	468	23.4	65.1
2025-08-10T08:00	10	108	0.2	108	109	464	0.3	464	465	23.2	65.7
2025-08-10T08:01	10	109	0.1	108	109	466	0.5	465	467	23.3	66.0
2025-08-10T08:02	10	109	0.2	109	110	466	0.9	465	468	23.4	65.4
2025-08-10T08:03	10	110	0.1	109	110	465	0.7	464	467	23.2	64.9
2025-08-10T08:04	10	110	0.1	110	110	467	0.3	466	467	23.4	65.4
2025-08-10T08:05	10	111	0.1	110	111	468	0.5	467	469	23.6	65.1
2025-08-10T08:06	10	111	0.1	111	111	468	0.6	467	470	23.6	64.0
2025-08-10T08:07	10	111	0.2	111	112	470	0.5	468	471	23.7	64.4
2025-08-10T08:08	10	111	0.2	111	112	469	0.6	468	471	23.6	64.4
2025-08-10T08:09	10	112	0.1	112	112	470	0.8	469	471	23.7	64.4
2025-08-10T08:10	10	112	0.2	112	112	470	0.5	470	471	23.9	63.3
2025-08-10T08:11	10	112	0.2	112	113	471	0.6	470	472	23.7	63.8
2025-08-10T08:12	10	113	0.1	113	113	472	0.5	470	473	23.9	63.3
2025-08-10T08:13	10	113	0.1	113	113	472	0.9	469	473	23.8	63.2
2025-08-10T08:14	10	113	0.1	113	114	470	0.3	469	471	23.6	63.7
2025-08-10T08:15	10	114	0.1	113	114	470	0.3	469	471	23.5	64.2
2025-08-10T08:16	10	114	0.1	113	114	470	1.0	468	472	23.7	63.9
2025-08-10T08:17	10	114	0.2	114	114	472	1.2	470	474	23.7	64.4
2025-08-10T08:18	10	114	0.1	114	115	472	0.4	471	473	23.6	64.2
2025-08-10T08:19	10	115	0.2	115	115	473	0.3	473	474	23.7	64.0
2025-08-10T08:20	10	115	0.2	115	116	475	0.8	473	476	23.9	63.6
2025-08-10T08:21	10	116	0.1	115	116	475	0.4	475	476	23.9	63.1
2025-08-10T08:22	10	116	0.1	116	116	477	0.8	475	478	24.3	61.8
2025-08-10T08:23	10	116	0.1	116	116	474	0.5	474	476	24.1	61.8
2025-08-10T08:24	10	116	0.1	116	116	476	0.7	475	477	24.1	62.3
2025-08-10T08:25	10	116	0.2	116	117	476	0.3	475	477	24.2	60.9
2025-08-10T08:26	10	116	0.1	116	117	478	0.5	476	478	24.5	60.0
2025-08-10T08:27	10	117	0.1	117	117	477	1.1	475	480	24.8	59.2
2025-08-10T08:28	10	117	0.1	117	117	479	0.5	478	480	25.0	58.7
2025-08-10T08:29	10	117	0.2	117	118	477	1.4	476	480	24.5	58.4
2025-08-10T08:30	10	118	0.1	118	118	477	0.4	476	478	24.2	58.8
2025-08-10T08:31	10	118	0.1	118	118	478	0.5	477	479	24.3	58.8
2025-08-10T08:32	10	119	0.2	118	119	478	1.1	476	479	24.6	57.4
2025-08-10T08:33	10	119	0.1	119	119	477	0.5	476	478	24.5	56.9
2025-08-10T08:34	10	119	0.2	119	120	480	0.9	478	481	24.7	56.5
2025-08-10T08:35	10	120	0.1	120	120	479	1.1	477	481	24.8	56.3
2025-08-10T08:36	10	120	0.1	120	120	479	0.6	478	481	24.7	56.0
2025-08-10T08:37	10	120	0.1	120	121	481	1.0	479	483	24.7	55.5
2025-08-10T08:38	10	121	0.2	120	121	483	0.5	482	483	25.0	55.0
2025-08-10T08:39	10	121	0.1	121	121	482	0.9	481	484	25.1	54.7
2025-08-10T08:40	10	122	0.1	121	122	482	0.6	481	484	25.2	54.6
2025-08-10T08:41	10	122	0.1	122	122	485	1.2	483	487	25.4	54.4
2025-08-10T08:42	10	122	0.1	122	122	485	0.4	484	486	25.5	54.3
2025-08-10T08:43	10	123	0.1	122	123	486	0.4	485	487	25.4	54.7
2025-08-10T08:44	10	123	0.1	123	123	483	1.6	481	486	25.2	54.7
2025-08-10T08:45	10	123	0.2	123	124	484	0.6	483	486	25.1	55.2
2025-08-10T08:46	10	123	0.1	123	124	486	0.6	485	488	25.6	54.8
2025-08-10T08:47	10	124	0.1	123	124	489	1.3	486	491	25.8	53.9
2025-08-10T08:48	10	124	0.1	124	124	486	2.0	484	491	25.4	54.6
2025-08-10T08:49	10	124	0.1	124	124	485	0.5	484	486	25.3	55.0
2025-08-10T08:50	10	124	0.2	124	125	486	0.4	485	487	25.8	54.1
2025-08-10T08:51	10	124	0.2	124	125	485	1.1	483	487	25.8	53.8
2025-08-10T08:52	10	125	0.2	124	125	485	0.6	484	487	25.6	53.7
2025-08-10T08:53	10	125	0.2	125	126	486	1.2	483	488	25.6	54.1
2025-08-10T08:54	10	126	0.2	125	126	485	0.6	484	486	25.7	53.8
2025-08-10T08:55	10	126	0.1	126	126	487	0.7	485	488	25.5	54.3
2025-08-10T08:56	10	126	0.2	126	127	489	1.8	487	493	25.6	54.5
2025-08-10T08:57	10	126	0.1	126	127	488	2.6	485	493	25.7	54.6
2025-08-10T08:58	10	127	0.1	126	127	487	1.2	485	489	25.5	55.1
2025-08-10T08:59	10	127	0.1	126	127	489	0.9	487	490	25.5	55.2
2025-08-10T09:00	10	127	0.2	127	127	490	0.9	488	491	25.8	54.9
2025-08-10T09:01	10	127	0.2	127	128	491	1.5	488	493	25.4	55.4
2025-08-10T09:02	10	128	0.2	127	128	495	0.9	493	496	25.9	55.2
2025-08-10T09:03	10	128	0.2	128	129	492	0.5	491	493	26.1	53.9
2025-08-10T09:04	10	128	0.2	128	129	493	1.7	490	496	25.9	54.3
2025-08-10T09:05	10	129	0.2	128	129	496	0.6	494	497	26.1	53.8
2025-08-10T09:06	10	129	0.2	129	130	493	1.9	490	496	26.4	53.1
2025-08-10T09:07	10	129	0.2	129	130	489	1.1	488	491	25.9	53.7
2025-08-10T09:08	10	129	0.2	129	130	491	1.7	488	494	25.7	54.1
2025-08-10T09:09	10	130	0.2	129	131	495	1.1	493	497	26.0	54.1
2025-08-10T09:10	10	130	0.2	129	130	496	2.1	492	498	26.3	53.7
2025-08-10T09:11	10	130	0.2	130	131	491	1.1	490	493	26.1	54.2
2025-08-10T09:12	10	130	0.2	130	131	492	1.0	491	495	26.0	54.5
2025-08-10T09:13	10	130	0.2	130	131	494	1.0	492	496	26.1	54.1
2025-08-10T09:14	10	131	0.2	130	132	494	0.5	493	496	25.9	54.2
2025-08-10T09:15	10	131	0.2	131	132	498	1.0	496	499	26.0	54.5
2025-08-10T09:16	10	131	0.2	131	132	496	0.8	493	498	26.4	53.7
2025-08-10T09:17	10	132	0.2	131	132	492	0.7	491	494	25.9	54.0
2025-08-10T09:18	10	132	0.2	131	132	494	0.8	492	496	25.8	54.5
2025-08-10T09:19	10	132	0.2	131	132	495	0.5	495	497	25.8	52.6
2025-08-10T09:20	10	132	0.2	131	133	497	1.0	495	498	25.8	52.6
2025-08-10T09:21	10	132	0.2	132	133	499	0.6	498	501	25.8	54.4
2025-08-10T09:22	10	132	0.2	132	133	497	0.6	496	498	25.8	54.4
2025-08-10T09:23	10	133	0.2	132	133	498	1.3	496	500	25.8	54.4
2025-08-10T09:24	10	133	0.2	132	134	499	0.5	498	500	25.8	54.4
2025-08-10T09:25	10	133	0.2	133	134	497	1.3	495	500	25.8	54.4
2025-08-10T09:26	10	133	0.2	133	134	498	0.6	496	499	26.7	53.2
2025-08-10T09:27	10	134	0.2	133	134	502	1.8	499	504	27.0	52.6
2025-08-10T09:28	10	134	0.2	134	135	505	0.3	504	505	27.1	52.5
2025-08-10T09:29	10	135	0.1	134	135	504	0.6	503	505	27.0	52.2
2025-08-10T09:30	10	135	0.3	134	136	502	0.6	501	503	26.8	52.5
2025-08-10T09:31	10	135	0.1	135	135	502	2.2	498	505	27.0	52.2
2025-08-10T09:32	10	135	0.1	135	136	497	0.6	496	498	26.3	53.3
2025-08-10T09:33	10	135	0.1	135	136	501	1.9	498	503	26.8	52.9
2025-08-10T09:34	10	136	0.1	135	136	502	0.9	500	503	26.9	52.5
2025-08-10T09:35	10	136	0.1	136	136	505	1.3	502	507	27.0	52.7
2025-08-10T09:36	10	136	0.1	136	136	501	0.9	500	504	26.6	52.7
2025-08-10T09:37	10	136	0.2	136	137	505	1.0	503	506	26.9	52.1
2025-08-10T09:38	10	137	0.1	137	137	506	0.6	505	507	26.9	52.2
2025-08-10T09:39	10	137	0.1	137	137	504	0.6	503	506	26.6	52.7
2025-08-10T09:40	10	137	0.1	137	138	505	1.1	504	508	26.7	53.1
2025-08-10T09:41	10	137	0.1	137	138	507	1.1	505	508	26.8	53.1
2025-08-10T09:42	10	138	0.1	137	138	507	0.5	506	508	26.8	52.7
2025-08-10T09:43	10	138	0.1	137	138	505	1.6	502	507	27.1	52.1
2025-08-10T09:44	10	138	0.1	138	138	504	0.5	503	505	27.3	51.7
2025-08-10T09:45	10	138	0.1	138	138	502	0.9	501	505	26.8	52.1
2025-08-10T09:46	10	138	0.1	138	139	506	0.9	503	507	26.8	52.6
2025-08-10T09:47	10	139	0.1	138	139	508	1.0	506	510	26.8	52.6
2025-08-10T09:48	10	139	0.1	138	139	509	0.6	508	510	26.9	52.0
2025-08-10T09:49	10	139	0.1	139	139	511	0.6	510	512	27.0	52.1
2025-08-10T09:50	10	139	0.1	139	139	510	0.9	508	512	27.5	51.7
2025-08-10T09:51	10	139	0.1	139	139	509	0.6	508	511	27.1	52.0
2025-08-10T09:52	10	140	0.1	139	140	507	1.2	506	510	26.9	52.7
2025-08-10T09:53	10	140	0.1	139	140	505	0.9	503	507	26.8	52.9
2025-08-10T09:54	10	140	0.1	140	140	508	1.1	505	510	27.0	52.7
2025-08-10T09:55	10	140	0.1	140	140	508	0.8	506	509	26.9	52.2
2025-08-10T09:56	10	140	0.1	140	140	508	0.8	507	509	27.1	52.2
2025-08-10T09:57	10	141	0.2	140	141	511	1.9	508	513	27.1	52.4
2025-08-10T09:58	10	141	0.1	141	141	512	0.8	510	513	27.2	52.2
2025-08-10T09:59	10	141	0.1	141	141	514	0.7	512	515	27.6	51.8
2025-08-10T10:00	10	141	0.1	141	141	513	1.8	510	516	27.6	51.0
2025-08-10T10:01	10	141	0.1	141	141	510	1.2	508	512	27.1	51.3
2025-08-10T10:02	10	141	0.1	141	141	511	1.1	509	513	27.0	51.7
2025-08-10T10:03	10	141	0.1	141	141	514	0.9	512	516	27.4	51.5
2025-08-10T10:04	10	141	0.2	141	142	514	0.8	512	515	27.8	50.4
2025-08-10T10:05	10	142	0.1	142	142	516	1.1	514	517	27.7	50.1
2025-08-10T10:06	10	142	0.2	142	142	514	1.3	512	517	27.6	50.1
2025-08-10T10:07	10	142	0.1	142	143	511	0.8	510	513	27.0	50.4
2025-08-10T10:08	10	142	0.1	142	142	513	0.6	511	515	27.2	51.0
2025-08-10T10:09	10	142	0.1	142	142	511	1.0	509	513	27.1	50.8
2025-08-10T10:10	10	142	0.2	142	143	511	0.9	510	513	27.3	51.1
2025-08-10T10:11	10	143	0.2	142	143	509	1.3	507	511	27.2	50.2
2025-08-10T10:12	10	143	0.1	143	143	509	1.2	507	511	27.2	49.0
2025-08-10T10:13	10	143	0.1	143	143	510	1.6	508	513	27.4	48.5
2025-08-10T10:14	10	143	0.1	143	143	509	0.9	508	511	27.3	48.8
2025-08-10T10:15	10	143	0.1	143	143	510	1.3	508	513	27.2	49.7
2025-08-10T10:16	10	143	0.2	143	143	511	1.1	509	513	27.0	50.8
2025-08-10T10:17	10	143	0.1	143	143	514	2.3	511	518	27.3	51.1
2025-08-10T10:18	10	143	0.2	143	144	516	2.1	512	518	28.0	50.0
2025-08-10T10:19	10	144	0.1	144	144	514	1.6	511	516	27.5	50.3
2025-08-10T10:20	10	144	0.1	144	144	512	0.7	511	513	27.3	50.3
2025-08-10T10:21	10	144	0.1	144	144	514	2.0	512	518	27.4	50.1
2025-08-10T10:22	10	144	0.1	144	144	515	1.9	512	518	27.5	49.6
2025-08-10T10:23	10	144	0.1	144	144	514	1.6	512	517	27.1	50.7
2025-08-10T10:24	10	144	0.1	144	144	515	0.6	513	516	27.8	49.4
2025-08-10T10:25	10	144	0.2	144	145	514	0.6	513	516	27.7	49.1
2025-08-10T10:26	10	145	0.1	144	145	512	1.1	510	515	27.4	47.4
2025-08-10T10:27	10	145	0.1	144	145	515	1.7	512	518	27.2	47.1
2025-08-10T10:28	10	144	0.1	144	145	516	2.3	514	520	27.5	48.1
2025-08-10T10:29	10	145	0.1	144	145	517	2.2	513	520	27.7	48.9
2025-08-10T10:30	10	145	0.1	144	145	517	1.4	513	519	27.4	50.0
2025-08-10T10:31	10	145	0.2	145	145	520	1.1	519	522	27.7	49.9
2025-08-10T10:32	10	145	0.1	145	145	515	2.4	512	519	27.5	49.1
2025-08-10T10:33	10	145	0.1	145	145	512	1.5	509	514	27.5	48.3
2025-08-10T10:34	10	145	0.1	145	145	513	1.2	510	515	27.8	46.6
2025-08-10T10:35	10	145	0.1	145	145	514	1.4	511	516	27.8	46.6
2025-08-10T10:36	10	145	0.1	145	146	513	1.1	511	515	27.6	46.5
2025-08-10T10:37	10	146	0.1	145	146	513	1.9	511	517	27.4	46.3
2025-08-10T10:38	10	146	0.1	146	146	512	1.4	511	516	27.5	43.8
2025-08-10T10:39	10	146	0.1	146	146	514	1.0	513	516	27.5	44.6
2025-08-10T10:40	10	146	0.1	146	146	516	2.1	512	520	27.5	45.3
2025-08-10T10:41	10	147	0.2	146	147	518	1.2	516	521	28.1	43.7
2025-08-10T10:42	10	147	0.1	147	147	519	2.1	516	522	28.0	42.0
2025-08-10T10:43	10	147	0.1	147	147	519	1.0	517	520	27.7	42.7
2025-08-10T10:44	10	147	0.1	147	148	518	0.5	517	519	27.8	43.8
2025-08-10T10:45	10	147	0.1	147	148	518	0.8	516	519	27.8	44.4
2025-08-10T10:46	10	147	0.1	147	148	520	0.5	519	521	27.7	45.2
2025-08-10T10:47	10	148	0.1	147	148	521	0.8	520	523	27.5	45.6
2025-08-10T10:48	10	148	0.1	148	148	523	0.8	522	525	27.7	45.0
2025-08-10T10:49	10	148	0.1	148	148	524	0.8	522	526	27.9	45.0
2025-08-10T10:50	10	148	0.1	148	148	522	0.9	520	524	28.3	42.8
2025-08-10T10:51	10	148	0.1	148	148	518	0.9	517	521	28.0	41.1
2025-08-10T10:52	10	148	0.1	148	149	520	0.9	519	522	27.9	43.0
2025-08-10T10:53	10	148	0.1	148	149	520	0.5	519	521	28.2	43.1
2025-08-10T10:54	10	148	0.1	148	149	521	1.3	519	524	28.1	42.7
2025-08-10T10:55	10	148	0.1	148	148	521	1.0	519	524	28.0	43.4
2025-08-10T10:56	10	148	0.1	148	148	523	1.1	521	525	28.0	44.8
2025-08-10T10:57	10	148	0.1	148	149	524	1.0	520	525	28.2	45.0
2025-08-10T10:58	10	149	0.2	148	149	519	2.0	516	522	27.8	45.9
2025-08-10T10:59	10	149	0.1	148	149	520	1.5	517	522	28.1	46.3
2025-08-10T11:00	10	149	0.1	149	149	524	1.1	521	526	28.6	45.3
2025-08-10T11:01	10	149	0.1	148	149	527	0.7	525	528	28.6	44.5
2025-08-10T11:02	10	149	0.1	148	149	524	0.6	523	526	28.0	44.8
2025-08-10T11:03	10	149	0.1	148	149	525	0.9	522	526	28.1	44.9
2025-08-10T11:04	10	149	0.1	148	149	525	1.8	522	528	28.3	44.5
2025-08-10T11:05	10	149	0.1	149	149	525	0.6	523	526	28.4	43.0
2025-08-10T11:06	10	149	0.1	149	149	523	1.7	521	526	28.6	42.5
2025-08-10T11:07	10	149	0.1	149	149	526	1.4	523	528	29.1	42.2
2025-08-10T11:08	10	149	0.1	149	150	524	1.2	522	526	28.8	43.7
2025-08-10T11:09	10	150	0.1	149	150	525	0.8	523	527	28.2	44.7
2025-08-10T11:10	10	150	0.2	149	150	527	1.9	523	530	28.5	44.3
2025-08-10T11:11	10	150	0.1	150	150	523	1.0	522	525	28.5	44.4
2025-08-10T11:12	10	150	0.1	150	150	526	1.7	522	528	28.2	44.9
2025-08-10T11:13	10	150	0.1	150	150	526	0.7	525	528	28.1	44.4
2025-08-10T11:14	10	150	0.1	150	150	530	1.7	527	533	28.5	45.3
2025-08-10T11:15	10	150	0.1	149	150	529	2.1	525	532	28.8	43.4
2025-08-10T11:16	10	150	0.1	149	150	526	1.2	523	528	28.7	43.3
2025-08-10T11:17	10	150	0.1	149	150	527	1.3	525	529	28.9	44.0
2025-08-10T11:18	10	150	0.1	149	150	527	1.8	525	531	29.2	43.4
2025-08-10T11:19	10	150	0.1	150	150	528	0.4	527	529	28.9	43.8
2025-08-10T11:20	10	150	0.1	150	150	530	1.3	528	532	29.1	44.0
2025-08-10T11:21	10	150	0.1	150	150	529	1.7	526	531	29.2	43.1
2025-08-10T11:22	10	150	0.1	150	151	526	1.5	523	529	28.5	43.5
2025-08-10T11:23	10	150	0.1	150	151	524	0.4	523	525	28.4	43.5
2025-08-10T11:24	10	150	0.2	150	150	524	1.2	522	526	28.6	43.1
2025-08-10T11:25	10	150	0.1	150	150	526	1.9	522	529	28.4	43.3
2025-08-10T11:26	10	150	0.1	150	150	528	0.5	527	529	28.5	42.8
2025-08-10T11:27	10	150	0.1	149	150	528	0.5	527	529	28.8	42.6
2025-08-10T11:28	10	150	0.1	150	150	525	1.5	523	528	28.6	43.2
2025-08-10T11:29	10	150	0.1	150	150	524	0.7	523	526	28.4	43.5
2025-08-10T11:30	10	150	0.1	149	150	528	1.6	525	531	28.3	43.3
2025-08-10T11:31	10	150	0.1	150	150	530	1.4	527	532	28.9	43.4
2025-08-10T11:32	10	150	0.1	150	150	527	1.1	525	529	28.6	43.0
2025-08-10T11:33	10	150	0.1	150	150	528	0.6	526	529	28.6	43.1
2025-08-10T11:34	10	150	0.1	150	150	528	1.4	526	530	29.4	43.1
2025-08-10T11:35	10	150	0.1	150	150	531	1.0	529	532	29.2	42.8
2025-08-10T11:36	10	150	0.1	150	151	530	0.4	529	530	28.9	43.3
2025-08-10T11:37	10	150	0.1	150	151	529	0.6	528	531	29.2	42.5
2025-08-10T11:38	10	151	0.1	150	151	528	0.8	527	530	29.0	42.5
2025-08-10T11:39	10	151	0.1	150	151	529	0.4	528	530	28.9	42.3
2025-08-10T11:40	10	150	0.1	150	151	531	0.9	529	533	29.1	42.5
2025-08-10T11:41	10	151	0.1	150	151	530	1.3	528	532	29.1	41.9
2025-08-10T11:42	10	150	0.1	150	151	531	1.8	528	534	29.2	42.2
2025-08-10T11:43	10	150	0.1	150	151	531	2.6	527	534	29.3	41.5
2025-08-10T11:44	10	150	0.1	150	151	529	1.1	527	531	28.6	42.0
2025-08-10T11:45	10	150	0.1	150	150	533	2.1	530	536	28.9	42.2
2025-08-10T11:46	10	150	0.1	150	151	536	1.0	533	537	29.4	41.7
2025-08-10T11:47	10	151	0.1	150	151	532	3.7	526	537	29.3	41.0
2025-08-10T11:48	10	151	0.1	150	151	527	0.5	526	528	28.9	41.1
2025-08-10T11:49	10	151	0.2	150	151	530	0.5	529	532	28.9	41.1
2025-08-10T11:50	10	150	0.2	150	151	533	0.8	532	535	29.5	40.8
2025-08-10T11:51	10	150	0.2	150	151	530	1.6	528	534	29.4	41.0
2025-08-10T11:52	10	150	0.2	150	151	531	1.1	529	533	29.3	41.5
2025-08-10T11:53	10	151	0.2	150	151	531	1.3	529	533	29.2	41.4
2025-08-10T11:54	10	151	0.2	151	151	531	1.6	529	534	29.0	41.4
2025-08-10T11:55	10	151	0.2	150	151	534	0.7	533	536	29.0	41.6
2025-08-10T11:56	10	151	0.2	151	152	533	0.9	532	536	29.0	41.5
2025-08-10T11:57	10	152	0.2	151	152	535	0.6	533	536	29.3	41.3
2025-08-10T11:58	10	152	0.2	151	152	535	0.6	533	535	29.2	40.9
2025-08-10T11:59	10	152	0.2	151	152	533	1.6	531	536	28.9	40.7
2025-08-10T12:00	10	152	0.2	151	152	534	0.4	533	535	28.8	41.0
2025-08-10T12:01	10	152	0.1	152	152	535	0.6	534	537	29.0	41.3
2025-08-10T12:02	10	152	0.1	151	152	533	2.0	530	536	29.1	41.1
2025-08-10T12:03	10	151	0.1	151	152	532	0.9	530	533	29.2	40.8
2025-08-10T12:04	10	151	0.1	151	152	527	1.2	526	530	29.1	40.4
2025-08-10T12:05	10	151	0.1	151	151	528	1.7	526	531	28.9	40.7
2025-08-10T12:06	10	151	0.1	151	151	533	1.6	530	535	29.6	39.8
2025-08-10T12:07	10	151	0.1	151	152	535	0.7	534	536	29.7	39.8
2025-08-10T12:08	10	152	0.1	151	152	534	0.8	533	536	29.4	39.4
2025-08-10T12:09	10	152	0.1	152	152	533	0.5	533	534	29.2	39.3
2025-08-10T12:10	10	152	0.1	152	152	533	0.7	533	536	29.1	38.6
2025-08-10T12:11	10	152	0.1	151	152	537	0.8	535	538	29.5	38.6
2025-08-10T12:12	10	151	0.2	151	152	537	0.5	536	538	29.3	38.1
2025-08-10T12:13	10	151	0.1	151	152	537	0.4	537	538	29.3	39.0
2025-08-10T12:14	10	151	0.1	151	152	539	1.0	535	540	29.9	38.7
2025-08-10T12:15	10	152	0.1	151	152	531	1.3	529	536	29.0	39.3
2025-08-10T12:16	10	151	0.1	151	151	533	1.9	529	537	29.2	39.4
2025-08-10T12:17	10	151	0.1	151	151	532	1.7	530	536	29.0	38.8
2025-08-10T12:18	10	151	0.2	151	151	537	1.0	535	539	29.3	38.8
2025-08-10T12:19	10	151	0.2	151	151	539	1.0	538	541	29.7	38.4
2025-08-10T12:20	10	151	0.1	151	151	538	0.4	537	539	30.0	37.7
2025-08-10T12:21	10	151	0.1	151	151	535	2.0	531	537	29.8	37.2
2025-08-10T12:22	10	151	0.1	151	152	532	0.6	531	533	29.3	37.8
2025-08-10T12:23	10	151	0.2	151	151	532	1.0	530	533	29.3	38.1
2025-08-10T12:24	10	151	0.1	150	151	533	0.9	532	535	29.2	38.5
2025-08-10T12:25	10	150	0.1	150	151	533	2.0	530	536	29.5	37.3
2025-08-10T12:26	10	150	0.1	150	150	534	1.7	531	536	29.5	37.7
2025-08-10T12:27	10	150	0.1	150	151	535	2.3	532	538	29.5	37.3
2025-08-10T12:28	10	150	0.1	150	150	536	1.1	534	538	29.9	37.2
2025-08-10T12:29	10	150	0.1	150	150	534	0.6	533	536	29.5	37.8
2025-08-10T12:30	10	150	0.1	150	150	536	1.1	534	538	29.3	38.2
2025-08-10T12:31	10	150	0.1	150	150	538	1.2	537	541	29.9	38.1
2025-08-10T12:32	10	150	0.1	150	150	537	0.7	536	539	30.0	38.1
2025-08-10T12:33	10	150	0.2	149	150	536	0.5	535	537	29.5	38.7
2025-08-10T12:34	10	149	0.1	149	149	538	1.2	536	540	29.9	38.4
2025-08-10T12:35	10	149	0.1	149	149	538	2.1	534	540	30.1	37.6
2025-08-10T12:36	10	149	0.2	148	149	532	1.3	530	534	29.9	37.5
2025-08-10T12:37	10	148	0.2	148	149	532	0.8	530	533	29.6	37.9
2025-08-10T12:38	10	148	0.2	148	148	532	1.4	529	534	29.5	38.1
2025-08-10T12:39	10	148	0.1	147	148	531	0.7	530	533	29.2	38.8
2025-08-10T12:40	10	147	0.1	147	148	535	1.0	533	537	29.6	39.0
2025-08-10T12:41	10	147	0.1	147	147	534	0.4	533	535	30.0	38.3
2025-08-10T12:42	10	147	0.1	147	147	536	0.6	535	537	30.2	38.3
2025-08-10T12:43	10	147	0.1	147	147	534	0.8	533	536	30.3	38.4
2025-08-10T12:44	10	147	0.1	147	147	529	2.7	526	534	29.6	38.5
2025-08-10T12:45	10	147	0.1	147	148	530	1.3	528	533	29.2	39.2
2025-08-10T12:46	10	147	0.1	147	147	532	0.8	530	534	29.4	39.0
2025-08-10T12:47	10	147	0.2	147	147	534	0.9	532	535	29.3	39.0
2025-08-10T12:48	10	147	0.2	147	148	537	1.4	535	539	29.5	38.7
2025-08-10T12:49	10	147	0.2	147	148	540	1.3	538	542	29.9	38.8
2025-08-10T12:50	10	147	0.3	147	148	540	1.4	538	542	30.5	38.2
2025-08-10T12:51	10	148	0.2	147	149	539	1.8	536	541	30.1	37.9
2025-08-10T12:52	10	147	0.2	147	148	538	0.9	536	540	30.2	39.0
2025-08-10T12:53	10	147	0.2	147	148	533	2.5	530	537	30.1	39.0
2025-08-10T12:54	10	147	0.2	146	147	532	2.5	527	536	29.8	39.5
2025-08-10T12:55	10	146	0.2	146	147	527	1.0	525	529	29.4	39.8
2025-08-10T12:56	10	146	0.1	146	146	531	2.0	527	533	29.2	40.0
2025-08-10T12:57	10	146	0.1	145	146	535	2.0	532	538	29.9	39.5
2025-08-10T12:58	10	146	0.1	145	146	531	1.2	529	534	29.9	39.1
2025-08-10T12:59	10	146	0.1	145	146	535	0.9	534	537	30.3	38.7
2025-08-10T13:00	10	146	0.1	146	146	536	0.4	535	537	29.9	38.9
2025-08-10T13:01	10	146	0.1	146	146	533	2.2	530	537	29.8	39.3
2025-08-10T13:02	10	146	0.1	146	146	533	0.7	532	534	29.8	39.0
2025-08-10T13:03	10	146	0.1	145	146	533	0.7	532	535	29.5	39.3
2025-08-10T13:04	10	145	0.2	145	146	533	1.1	531	535	29.3	39.5
2025-08-10T13:05	10	145	0.1	145	145	537	0.5	535	538	29.5	39.7
2025-08-10T13:06	10	145	0.1	144	145	538	0.6	536	539	29.9	39.4
2025-08-10T13:07	10	145	0.1	144	145	538	1.3	533	539	30.2	39.0
2025-08-10T13:08	10	144	0.1	144	145	533	1.6	531	535	30.1	39.3
2025-08-10T13:09	10	144	0.1	144	145	535	0.9	533	536	30.3	39.0
2025-08-10T13:10	10	144	0.2	144	144	531	1.1	529	533	29.9	39.2
2025-08-10T13:11	10	143	0.3	143	144	532	0.9	531	534	29.9	39.8
2025-08-10T13:12	10	143	0.2	142	143	528	2.2	525	533	30.0	39.6
2025-08-10T13:13	10	142	0.1	142	142	529	1.7	525	531	29.8	39.9
2025-08-10T13:14	10	142	0.1	142	142	532	0.9	531	534	29.9	39.9
2025-08-10T13:15	10	142	0.1	141	142	532	2.3	528	535	30.3	39.3
2025-08-10T13:16	10	142	0.2	141	142	530	1.5	527	533	30.4	39.1
2025-08-10T13:17	10	142	0.1	142	142	528	0.6	527	530	30.1	39.3
2025-08-10T13:18	10	142	0.1	141	142	528	1.4	526	531	30.1	39.5
2025-08-10T13:19	10	142	0.1	141	142	528	1.7	525	530	29.6	40.3
2025-08-10T13:20	10	142	0.1	141	142	530	0.5	529	530	29.7	40.2
2025-08-10T13:21	10	141	0.1	141	142	530	1.6	528	533	29.8	39.8
2025-08-10T13:22	10	141	0.1	141	141	534	1.1	532	536	30.0	39.7
2025-08-10T13:23	10	141	0.1	141	141	532	0.7	531	534	30.1	39.2
2025-08-10T13:24	10	141	0.1	141	141	531	0.6	531	533	29.8	39.6
2025-08-10T13:25	10	141	0.2	141	141	533	0.5	533	535	29.8	39.8
2025-08-10T13:26	10	141	0.1	141	141	535	0.6	533	536	29.7	39.8
2025-08-10T13:27	10	140	0.1	140	141	534	0.7	532	535	29.8	39.9
2025-08-10T13:28	10	140	0.1	140	140	534	1.4	532	537	30.1	39.5
2025-08-10T13:29	10	140	0.1	140	140	532	2.8	528	537	30.3	39.4
2025-08-10T13:30	10	140	0.1	140	140	526	1.4	524	528	29.9	39.8
2025-08-10T13:31	10	140	0.1	139	140	531	1.0	528	532	30.1	39.9
2025-08-10T13:32	10	139	0.1	139	140	529	0.8	528	531	30.1	39.3
2025-08-10T13:33	10	139	0.1	139	139	529	1.8	526	533	30.2	39.3
2025-08-10T13:34	10	139	0.1	139	139	525	0.9	524	527	29.8	39.8
2025-08-10T13:35	10	138	0.1	138	139	526	0.5	525	527	29.5	40.3
2025-08-10T13:36	10	138	0.1	138	138	529	1.0	526	530	29.5	40.4
2025-08-10T13:37	10	138	0.1	138	138	533	1.3	530	535	29.9	39.9
2025-08-10T13:38	10	138	0.1	137	138	531	1.1	529	534	30.4	39.3
2025-08-10T13:39	10	138	0.1	138	138	532	0.8	531	534	30.2	39.3
2025-08-10T13:40	10	138	0.1	138	138	533	0.8	531	534	30.4	39.3
2025-08-10T13:41	10	138	0.1	137	138	531	1.0	529	533	30.0	39.5
2025-08-10T13:42	10	137	0.1	137	138	533	0.7	532	535	30.2	39.3
2025-08-10T13:43	10	137	0.1	137	137	535	0.7	534	536	30.4	39.2
2025-08-10T13:44	10	137	0.1	137	137	535	0.8	534	537	30.5	39.2
2025-08-10T13:45	10	137	0.1	137	137	531	2.6	528	537	30.1	39.0
2025-08-10T13:46	10	137	0.2	137	137	530	1.2	527	532	30.0	39.4
2025-08-10T13:47	10	136	0.1	136	137	528	1.7	525	531	30.2	39.3
2025-08-10T13:48	10	136	0.2	136	136	529	1.2	528	532	30.4	38.8
2025-08-10T13:49	10	136	0.2	135	136	532	1.0	530	534	30.5	39.0
2025-08-10T13:50	10	135	0.2	135	135	528	2.4	525	533	30.3	38.5
2025-08-10T13:51	10	135	0.2	135	135	526	0.5	525	527	30.1	39.0
2025-08-10T13:52	10	135	0.1	134	135	526	0.4	524	526	29.9	39.5
2025-08-10T13:53	10	134	0.1	134	135	529	1.9	526	532	29.9	39.9
2025-08-10T13:54	10	134	0.2	134	135	530	0.5	529	531	30.4	39.8
2025-08-10T13:55	10	134	0.2	134	134	528	1.1	526	530	30.4	38.9
2025-08-10T13:56	10	133	0.3	133	134	525	1.2	523	528	30.0	39.2
2025-08-10T13:57	10	133	0.2	133	134	528	0.5	527	530	30.1	39.0
2025-08-10T13:58	10	133	0.2	132	133	530	0.9	528	531	30.1	39.2
2025-08-10T13:59	10	133	0.2	132	133	530	1.1	529	532	30.2	38.8
2025-08-10T14:00	10	133	0.2	132	133	531	0.5	530	532	30.3	38.7
2025-08-10T14:01	10	132	0.2	132	133	532	0.7	531	533	30.4	39.0
2025-08-10T14:02	10	132	0.3	132	133	533	0.6	532	534	30.6	38.7
2025-08-10T14:03	10	132	0.3	131	133	533	0.8	531	534	31.2	38.4
2025-08-10T14:04	10	132	0.3	131	133	532	1.6	529	534	31.2	37.8
2025-08-10T14:05	10	131	0.3	131	132	528	1.2	526	530	30.6	38.2
2025-08-10T14:06	10	131	0.2	130	131	529	1.2	527	531	30.9	38.1
2025-08-10T14:07	10	130	0.2	130	131	527	0.8	525	528	30.7	38.1
2025-08-10T14:08	10	130	0.2	129	130	524	1.6	521	526	30.3	38.4
2025-08-10T14:09	10	129	0.1	129	130	523	1.3	522	526	30.2	38.8
2025-08-10T14:10	10	129	0.1	129	129	523	0.4	522	524	30.2	38.8
2025-08-10T14:11	10	129	0.1	129	129	523	0.6	522	525	30.0	39.0
2025-08-10T14:12	10	129	0.1	129	129	525	1.0	522	526	30.0	39.0
2025-08-10T14:13	10	129	0.1	128	129	524	0.5	523	525	30.4	38.3
2025-08-10T14:14	10	129	0.1	129	129	525	1.6	523	528	30.1	38.8
2025-08-10T14:15	10	129	0.1	128	129	527	1.0	526	529	30.0	38.9
2025-08-10T14:16	10	129	0.1	128	129	529	0.8	527	530	30.3	39.0
2025-08-10T14:17	10	129	0.1	128	129	526	1.2	525	529	30.5	39.2
2025-08-10T14:18	10	128	0.1	128	129	527	0.7	525	528	30.5	39.2
2025-08-10T14:19	10	128	0.2	127	128	525	1.7	522	527	30.7	38.8
2025-08-10T14:20	10	127	0.2	127	128	520	1.1	518	522	30.3	39.1
2025-08-10T14:21	10	127	0.2	126	127	519	0.5	518	520	30.3	39.4
2025-08-10T14:22	10	126	0.1	126	126	520	1.7	518	524	30.2	39.8
2025-08-10T14:23	10	126	0.1	126	126	522	0.7	521	524	30.7	39.0
2025-08-10T14:24	10	126	0.1	126	126	524	1.4	522	527	30.5	39.4
2025-08-10T14:25	10	126	0.1	126	126	522	1.9	520	526	30.5	39.1
2025-08-10T14:26	10	126	0.2	125	126	524	1.4	520	526	30.6	39.0
2025-08-10T14:27	10	125	0.2	125	125	522	0.7	521	524	30.2	39.1
2025-08-10T14:28	10	125	0.1	124	125	523	0.8	522	525	30.3	39.0
2025-08-10T14:29	10	125	0.1	124	125	524	1.0	522	526	30.4	39.5
2025-08-10T14:30	10	124	0.1	124	125	522	1.3	520	524	30.6	39.0
2025-08-10T14:31	10	124	0.1	124	124	519	1.1	517	521	30.4	38.8
2025-08-10T14:32	10	124	0.2	123	124	522	0.9	520	524	30.2	39.0
2025-08-10T14:33	10	123	0.2	123	124	523	1.6	519	524	30.3	39.1
2025-08-10T14:34	10	123	0.1	122	123	519	1.1	517	521	30.5	38.9
2025-08-10T14:35	10	122	0.1	122	123	518	0.9	516	520	30.2	39.1
2025-08-10T14:36	10	122	0.1	122	122	521	1.1	518	522	30.3	39.3
2025-08-10T14:37	10	122	0.1	122	122	522	0.6	520	523	30.3	39.4
2025-08-10T14:38	10	122	0.1	122	122	522	1.3	520	523	30.6	39.0
2025-08-10T14:39	10	122	0.1	122	122	519	0.7	518	521	30.6	38.6
2025-08-10T14:40	10	122	0.1	121	122	521	0.8	519	522	30.2	39.0
2025-08-10T14:41	10	121	0.1	121	122	523	1.0	521	524	30.7	39.1
2025-08-10T14:42	10	121	0.1	121	121	520	0.5	519	522	30.7	38.4
2025-08-10T14:43	10	121	0.1	121	121	521	0.5	521	522	30.9	38.5
2025-08-10T14:44	10	121	0.1	120	121	521	1.2	519	523	30.9	38.5
2025-08-10T14:45	10	120	0.1	120	121	516	1.7	514	520	30.6	39.0
2025-08-10T14:46	10	120	0.2	120	120	517	1.2	515	519	30.2	39.8
2025-08-10T14:47	10	119	0.2	119	120	516	0.4	515	517	30.4	39.8
2025-08-10T14:48	10	119	0.2	118	119	514	1.1	512	517	30.3	39.9
2025-08-10T14:49	10	118	0.2	118	118	516	0.8	514	517	30.3	39.9
2025-08-10T14:50	10	118	0.2	117	118	518	1.5	515	520	30.4	39.7
2025-08-10T14:51	10	117	0.1	117	117	520	1.0	518	522	30.6	39.6
2025-08-10T14:52	10	117	0.1	117	117	519	1.9	515	522	30.8	39.2
2025-08-10T14:53	10	117	0.1	116	117	514	1.0	512	516	30.3	39.5
2025-08-10T14:54	10	116	0.1	116	117	515	0.8	514	516	30.5	39.4
2025-08-10T14:55	10	116	0.1	116	116	517	0.7	516	518	30.6	39.1
2025-08-10T14:56	10	116	0.1	116	116	520	0.8	518	521	30.5	39.2
2025-08-10T14:57	10	116	0.1	116	116	522	1.1	520	524	30.5	39.3
2025-08-10T14:58	10	116	0.1	115	116	520	2.5	516	524	30.7	38.8
2025-08-10T14:59	10	115	0.2	115	116	517	1.2	515	519	30.6	39.2
2025-08-10T15:00	10	115	0.1	115	115	518	1.2	517	520	30.8	39.1
2025-08-10T15:01	10	114	0.2	114	115	518	0.5	517	519	30.9	39.3
2025-08-10T15:02	10	114	0.1	114	114	514	1.1	513	518	30.7	39.3
2025-08-10T15:03	10	114	0.1	114	114	514	1.4	512	516	30.8	39.0
2025-08-10T15:04	10	113	0.2	113	114	513	1.2	512	516	30.3	39.5
2025-08-10T15:05	10	113	0.2	113	113	517	1.2	515	519	31.0	39.1
2025-08-10T15:06	10	113	0.1	112	113	514	0.9	512	516	30.8	39.4
2025-08-10T15:07	10	112	0.2	112	113	512	0.5	511	513	30.6	39.6
2025-08-10T15:08	10	112	0.2	111	112	512	0.5	511	513	30.5	39.8
2025-08-10T15:09	10	111	0.1	111	112	514	0.7	512	515	30.5	39.5
2025-08-10T15:10	10	111	0.1	111	112	517	0.7	515	518	30.7	39.6
2025-08-10T15:11	10	111	0.2	111	112	515	0.5	514	516	30.6	39.2
2025-08-10T15:12	10	111	0.1	110	111	516	0.6	516	518	30.8	39.1
2025-08-10T15:13	10	110	0.2	110	111	516	0.4	515	516	30.7	39.3
2025-08-10T15:14	10	110	0.2	109	110	512	2.5	509	517	30.7	38.8
2025-08-10T15:15	10	109	0.1	109	110	513	0.9	512	515	30.4	38.5
2025-08-10T15:16	10	109	0.1	109	109	514	0.5	513	515	30.4	38.8
2025-08-10T15:17	10	109	0.2	109	109	513	0.4	512	514	30.7	38.6
2025-08-10T15:18	10	109	0.2	108	109	513	1.2	511	515	30.7	38.7
2025-08-10T15:19	10	108	0.1	108	108	512	0.9	511	514	30.9	39.0
2025-08-10T15:20	10	108	0.1	108	108	510	1.9	507	514	30.8	39.2
2025-08-10T15:21	10	108	0.2	107	108	508	0.6	507	509	30.4	40.0
2025-08-10T15:22	10	107	0.2	107	107	508	0.9	507	510	30.4	40.1
2025-08-10T15:23	10	106	0.2	106	107	510	0.8	508	511	30.8	39.5
2025-08-10T15:24	10	106	0.2	106	106	508	1.1	506	510	30.4	39.7
2025-08-10T15:25	10	106	0.1	105	106	509	0.9	508	511	30.4	39.8
2025-08-10T15:26	10	105	0.1	105	105	508	0.6	506	509	30.5	39.4
2025-08-10T15:27	10	105	0.2	104	105	508	0.6	507	509	30.5	38.8
2025-08-10T15:28	10	104	0.2	104	105	506	0.4	506	507	30.4	38.3
2025-08-10T15:29	10	104	0.2	104	104	507	0.4	505	507	30.4	38.5
2025-08-10T15:30	10	104	0.2	103	104	508	0.9	506	509	30.4	38.8
2025-08-10T15:31	10	103	0.1	103	103	508	0.4	507	509	30.6	38.1
2025-08-10T15:32	10	103	0.2	103	103	509	0.7	508	511	30.6	38.0
2025-08-10T15:33	10	102	0.1	102	103	511	1.3	508	513	31.0	38.0
2025-08-10T15:34	10	102	0.1	102	102	510	0.8	509	512	31.4	37.0
2025-08-10T15:35	10	102	0.1	102	102	507	0.7	506	509	31.0	36.8
2025-08-10T15:36	10	102	0.1	101	102	508	0.8	506	509	30.9	36.8
2025-08-10T15:37	10	101	0.2	101	102	506	0.3	506	507	30.5	37.3
2025-08-10T15:38	10	101	0.2	101	101	507	1.3	504	509	30.6	37.7
2025-08-10T15:39	10	100	0.3	100	101	505	0.3	504	506	30.4	37.7
2025-08-10T15:40	10	100	0.2	99	100	506	0.8	504	507	30.7	37.5
2025-08-10T15:41	10	99	0.2	99	100	505	0.4	504	506	30.8	37.1
2025-08-10T15:42	10	99	0.1	99	99	505	0.8	504	507	30.9	37.0
2025-08-10T15:43	10	99	0.1	98	99	507	0.6	506	508	31.0	37.2
2025-08-10T15:44	10	98	0.1	98	99	506	0.6	505	507	30.9	37.0
2025-08-10T15:45	10	98	0.2	98	98	507	0.7	506	508	30.8	37.1
2025-08-10T15:46	10	98	0.2	97	98	505	1.1	503	508	30.7	36.5
2025-08-10T15:47	10	97	0.1	97	98	506	0.7	505	507	31.1	36.5
2025-08-10T15:48	10	97	0.2	96	97	504	0.8	503	506	30.8	36.5
2025-08-10T15:49	10	96	0.2	96	97	503	0.9	501	504	30.8	36.5
2025-08-10T15:50	10	96	0.2	95	96	503	0.8	501	504	30.7	36.8
2025-08-10T15:51	10	95	0.2	95	95	502	0.3	501	503	30.7	37.1
2025-08-10T15:52	10	95	0.1	94	95	502	0.6	501	503	30.7	37.4
2025-08-10T15:53	10	95	0.2	94	95	503	0.4	502	504	30.8	37.6
2025-08-10T15:54	10	94	0.2	94	95	503	0.3	503	504	30.9	37.4
2025-08-10T15:55	10	94	0.2	93	94	503	0.6	501	504	30.9	37.4
2025-08-10T15:56	10	94	0.1	93	94	501	1.1	499	503	30.8	37.3
2025-08-10T15:57	10	93	0.2	93	93	500	0.6	499	501	30.7	37.2
2025-08-10T15:58	10	93	0.2	92	93	502	1.3	499	504	30.7	37.4
2025-08-10T15:59	10	92	0.1	92	92	502	0.3	501	502	30.6	36.6
2025-08-10T16:00	10	92	0.2	92	92	503	1.0	501	504	30.8	37.0
2025-08-10T16:01	10	91	0.2	91	92	502	1.6	499	504	30.9	37.3
2025-08-10T16:02	10	91	0.2	91	91	501	0.4	500	501	30.8	38.0
2025-08-10T16:03	10	90	0.2	90	91	498	0.9	496	500	30.6	38.1
2025-08-10T16:04	10	90	0.2	89	90	497	0.3	496	498	30.3	38.2
2025-08-10T16:05	10	89	0.2	89	90	498	0.5	497	499	30.4	38.5
2025-08-10T16:06	10	89	0.2	88	89	498	1.1	497	501	30.5	38.3
2025-08-10T16:07	10	88	0.1	88	89	499	0.3	499	500	30.7	38.1
2025-08-10T16:08	10	88	0.1	88	88	499	0.4	498	500	30.8	38.0
2025-08-10T16:09	10	88	0.2	87	88	496	0.5	496	498	30.6	38.3
2025-08-10T16:10	10	87	0.2	87	87	494	1.0	493	496	30.5	38.3
2025-08-10T16:11	10	86	0.3	86	87	493	0.6	492	494	30.3	38.5
2025-08-10T16:12	10	86	0.2	85	86	496	0.6	494	497	30.5	38.4
2025-08-10T16:13	10	85	0.2	85	86	496	0.4	496	497	30.6	38.0
2025-08-10T16:14	10	85	0.1	85	85	497	0.3	496	497	30.8	38.5
2025-08-10T16:15	10	84	0.2	84	85	496	0.8	494	497	30.8	38.8
2025-08-10T16:16	10	84	0.2	83	84	493	1.0	492	495	30.4	39.1
2025-08-10T16:17	10	83	0.2	83	84	494	0.4	493	495	30.3	39.0
2025-08-10T16:18	10	83	0.2	82	83	494	0.4	493	495	30.4	38.9
2025-08-10T16:19	10	82	0.2	82	83	491	0.8	490	494	30.3	39.5
2025-08-10T16:20	10	82	0.2	81	82	491	0.5	490	492	30.2	39.8
2025-08-10T16:21	10	81	0.1	81	81	491	0.3	491	492	30.4	39.8
2025-08-10T16:22	10	81	0.2	80	81	492	0.4	491	493	30.2	39.9
2025-08-10T16:23	10	80	0.2	80	81	492	0.6	491	493	30.4	40.0
2025-08-10T16:24	10	80	0.2	80	80	493	0.5	491	494	30.5	39.8
2025-08-10T16:25	10	79	0.2	79	80	491	0.5	490	492	30.4	39.6
2025-08-10T16:26	10	79	0.2	78	79	489	0.6	488	491	30.3	39.8
2025-08-10T16:27	10	78	0.2	78	78	488	0.3	487	489	30.2	40.2
2025-08-10T16:28	10	77	0.2	77	78	487	0.3	487	488	30.2	40.3
2025-08-10T16:29	10	77	0.2	77	77	489	0.5	488	489	30.3	40.5
2025-08-10T16:30	10	76	0.1	76	77	489	0.3	488	490	30.3	40.9
2025-08-10T16:31	10	76	0.2	76	76	488	0.5	487	489	30.3	41.3
2025-08-10T16:32	10	75	0.2	75	76	487	0.4	486	488	30.2	41.7
2025-08-10T16:33	10	75	0.2	75	75	486	0.8	484	487	30.1	41.8
2025-08-10T16:34	10	75	0.2	74	75	485	0.5	484	487	30.1	41.9
2025-08-10T16:35	10	74	0.2	73	75	484	1.5	482	487	29.9	42.4
2025-08-10T16:36	10	73	0.2	73	74	484	0.8	482	485	29.8	42.7
2025-08-10T16:37	10	73	0.2	72	73	486	0.4	485	486	30.1	42.7
2025-08-10T16:38	10	72	0.2	72	73	484	1.1	481	486	29.9	42.5
2025-08-10T16:39	10	72	0.2	71	72	483	0.5	482	483	29.8	42.8
2025-08-10T16:40	10	71	0.2	70	71	482	0.4	481	483	29.7	43.0
2025-08-10T16:41	10	70	0.2	70	71	482	0.4	481	482	29.8	43.1
2025-08-10T16:42	10	70	0.2	69	70	482	0.4	481	483	29.9	43.0
2025-08-10T16:43	10	69	0.2	69	70	481	0.4	481	482	29.8	43.1
2025-08-10T16:44	10	69	0.2	68	69	480	0.6	479	481	29.6	43.2
2025-08-10T16:45	10	68	0.2	68	69	480	0.2	479	480	29.6	43.4
2025-08-10T16:46	10	67	0.2	67	68	480	0.4	479	481	29.7	43.4
2025-08-10T16:47	10	67	0.2	67	67	480	0.3	480	481	29.7	43.4
2025-08-10T16:48	10	66	0.1	66	67	481	0.4	480	481	29.7	43.3
2025-08-10T16:49	10	66	0.2	66	66	479	0.7	479	481	29.6	43.3
2025-08-10T16:50	10	66	0.2	65	66	478	0.3	477	479	29.5	43.3
2025-08-10T16:51	10	65	0.2	65	65	478	0.3	477	478	29.4	43.3
2025-08-10T16:52	10	64	0.2	64	65	477	0.3	477	478	29.4	43.5
2025-08-10T16:53	10	64	0.2	64	64	478	0.4	477	479	29.4	43.5
2025-08-10T16:54	10	63	0.2	63	64	477	0.2	476	477	29.4	43.3
2025-08-10T16:55	10	63	0.1	62	63	477	0.4	476	477	29.4	43.2
2025-08-10T16:56	10	62	0.2	62	63	475	0.4	475	477	29.3	43.4
2025-08-10T16:57	10	62	0.2	61	62	475	0.3	474	476	29.3	43.4
2025-08-10T16:58	10	61	0.2	61	61	475	0.4	474	476	29.3	43.4
2025-08-10T16:59	10	60	0.2	60	61	474	0.3	473	475	29.2	43.6
2025-08-10T17:00	10	60	0.2	60	60	473	0.4	472	474	29.1	43.7
2025-08-10T17:01	10	59	0.1	59	60	474	0.4	473	475	29.2	43.6
2025-08-10T17:02	10	59	0.2	58	59	473	0.4	472	474	29.2	43.3
2025-08-10T17:03	10	58	0.2	58	59	473	0.3	472	473	29.2	43.2
2025-08-10T17:04	10	58	0.1	57	58	472	0.3	471	473	29.1	43.4
2025-08-10T17:05	10	57	0.2	57	58	471	0.3	471	472	29.1	43.5
2025-08-10T17:06	10	57	0.2	56	57	472	0.2	471	472	29.2	43.6
2025-08-10T17:07	10	56	0.1	56	56	472	0.2	472	472	29.1	43.9
2025-08-10T17:08	10	56	0.2	55	56	473	0.3	472	473	29.1	44.3
2025-08-10T17:09	10	55	0.2	55	56	472	0.2	472	473	29.2	44.4
2025-08-10T17:10	10	55	0.2	54	55	471	0.5	471	473	29.1	44.3
2025-08-10T17:11	10	54	0.2	54	54	471	0.2	470	471	29.1	44.2
2025-08-10T17:12	10	54	0.2	53	54	470	0.3	470	471	29.0	44.1
2025-08-10T17:13	10	53	0.2	53	53	470	0.3	469	470	29.0	43.8
2025-08-10T17:14	10	52	0.2	52	53	469	0.2	468	469	28.9	43.8
2025-08-10T17:15	10	52	0.2	51	52	469	0.2	468	469	28.9	43.9
2025-08-10T17:16	10	51	0.2	51	52	468	0.4	467	469	28.9	43.9
2025-08-10T17:17	10	51	0.3	50	51	468	0.3	467	469	28.9	43.9
2025-08-10T17:18	10	50	0.3	49	51	468	0.2	467	469	28.9	44.4
2025-08-10T17:19	10	50	0.3	49	50	468	0.2	468	469	28.9	44.3
2025-08-10T17:20	10	49	0.3	48	50	468	0.2	468	469	29.0	44.2
2025-08-10T17:21	10	48	0.3	48	49	468	0.4	467	469	29.0	44.2
2025-08-10T17:22	10	48	0.3	47	49	467	0.3	466	468	28.9	44.0
2025-08-10T17:23	10	47	0.3	47	48	466	0.3	466	467	28.9	43.9
2025-08-10T17:24	10	47	0.3	46	47	466	0.3	465	467	28.9	43.9
2025-08-10T17:25	10	46	0.2	46	46	466	0.2	465	466	28.9	43.7
2025-08-10T17:26	10	46	0.3	45	46	465	0.2	465	466	28.8	43.8
2025-08-10T17:27	10	45	0.2	45	45	465	0.2	465	466	28.8	44.0
2025-08-10T17:28	10	44	0.2	44	45	465	0.3	464	466	28.8	44.3
2025-08-10T17:29	10	44	0.2	43	44	464	0.4	464	465	28.8	44.5
2025-08-10T17:30	10	43	0.3	43	44	464	0.3	464	465	28.7	44.8
2025-08-10T17:31	10	42	0.3	42	43	464	0.3	463	464	28.7	45.2
2025-08-10T17:32	10	42	0.3	41	42	463	0.3	462	464	28.6	45.6
2025-08-10T17:33	10	41	0.3	40	42	463	0.3	462	463	28.6	45.8
2025-08-10T17:34	10	41	0.3	40	41	462	0.2	462	463	28.5	46.3
2025-08-10T17:35	10	40	0.2	40	40	462	0.2	461	462	28.5	46.5
2025-08-10T17:36	10	39	0.2	39	40	462	0.3	461	462	28.5	46.8
2025-08-10T17:37	10	39	0.2	38	39	461	0.2	460	461	28.5	46.6
2025-08-10T17:38	10	38	0.2	38	39	461	0.2	460	461	28.4	46.6
2025-08-10T17:39	10	37	0.2	37	38	460	0.2	459	460	28.3	46.8
2025-08-10T17:40	10	37	0.2	36	37	460	0.2	459	460	28.3	46.8
2025-08-10T17:41	10	36	0.2	36	36	459	0.2	458	460	28.3	46.4
2025-08-10T17:42	10	35	0.2	35	36	459	0.2	458	459	28.2	46.3
2025-08-10T17:43	10	35	0.2	34	35	458	0.3	458	459	28.2	46.2
2025-08-10T17:44	10	34	0.2	34	34	458	0.2	457	458	28.2	46.2
2025-08-10T17:45	10	33	0.2	33	34	457	0.3	457	458	28.2	46.3
2025-08-10T17:46	10	33	0.2	32	33	457	0.2	457	458	28.1	46.5
2025-08-10T17:47	10	32	0.2	32	33	456	0.2	456	457	28.1	46.5
2025-08-10T17:48	10	31	0.2	31	32	456	0.2	455	456	28.0	46.5
2025-08-10T17:49	10	31	0.2	30	31	456	0.3	455	456	28.0	46.1
2025-08-10T17:50	10	30	0.2	30	30	455	0.3	455	456	28.0	46.1
2025-08-10T17:51	10	29	0.2	29	30	455	0.3	454	455	28.0	46.1
2025-08-10T17:52	10	29	0.2	29	29	455	0.2	454	455	27.9	46.2
2025-08-10T17:53	10	28	0.2	28	29	454	0.3	454	455	27.9	46.1
2025-08-10T17:54	10	27	0.2	27	28	454	0.2	453	454	27.9	46.3
2025-08-10T17:55	10	27	0.2	26	27	453	0.3	452	454	27.8	46.6
2025-08-10T17:56	10	26	0.2	26	26	453	0.2	452	453	27.8	46.7
2025-08-10T17:57	10	26	0.2	25	26	452	0.4	452	453	27.8	46.6
2025-08-10T17:58	10	25	0.2	24	25	452	0.2	451	452	27.8	46.6
2025-08-10T17:59	10	24	0.2	24	25	451	0.2	451	452	27.7	46.8
2025-08-10T18:00	10	24	0.2	23	24	451	0.2	450	451	27.7	47.0
2025-08-10T18:01	10	23	0.2	23	23	451	0.3	450	451	27.7	46.8
2025-08-10T18:02	10	22	0.3	22	23	450	0.3	450	451	27.6	47.0
2025-08-10T18:03	10	22	0.2	21	22	450	0.3	449	450	27.6	47.5
2025-08-10T18:04	10	21	0.2	21	22	449	0.3	448	450	27.6	47.3
2025-08-10T18:05	10	21	0.2	20	21	449	0.3	448	449	27.5	47.2
2025-08-10T18:06	10	20	0.2	20	20	449	0.3	448	450	27.5	47.0
2025-08-10T18:07	10	19	0.2	19	20	448	0.3	448	449	27.5	47.0
2025-08-10T18:08	10	19	0.2	18	19	448	0.3	447	448	27.4	47.2
2025-08-10T18:09	10	18	0.2	18	18	448	0.3	447	448	27.4	47.3
2025-08-10T18:10	10	17	0.2	17	18	448	0.3	447	448	27.4	47.1
2025-08-10T18:11	10	17	0.2	16	17	447	0.4	446	448	27.4	47.1
2025-08-10T18:12	10	16	0.2	16	17	447	0.6	446	448	27.4	46.8
2025-08-10T18:13	10	15	0.2	15	16	447	0.3	447	448	27.4	46.4
2025-08-10T18:14	10	15	0.2	14	15	447	0.4	446	448	27.3	46.7
2025-08-10T18:15	10	14	0.2	14	15	446	0.3	445	447	27.3	46.6
2025-08-10T18:16	10	13	0.2	13	14	445	0.2	445	446	27.2	47.0
2025-08-10T18:17	10	13	0.2	12	13	445	0.3	445	446	27.2	46.7
2025-08-10T18:18	10	12	0.2	12	12	445	0.3	444	446	27.3	46.3
2025-08-10T18:19	10	12	0.2	11	12	445	0.3	444	446	27.2	46.7
2025-08-10T18:20	10	11	0.2	10	11	444	0.3	444	445	27.1	47.0
2025-08-10T18:21	10	10	0.2	10	11	444	0.2	444	445	27.1	46.4
2025-08-10T18:22	10	10	0.2	9	10	443	0.4	442	444	27.1	46.5
2025-08-10T18:23	10	9	0.2	9	9	443	0.3	442	444	27.1	46.1
2025-08-10T18:24	10	8	0.2	8	9	443	0.4	442	444	27.1	45.8
2025-08-10T18:25	10	8	0.2	8	8	443	0.2	442	443	27.0	46.1
2025-08-10T18:26	10	7	0.2	7	8	442	0.3	442	443	27.1	45.5
2025-08-10T18:27	10	7	0.2	6	7	442	0.6	441	443	26.9	46.1
2025-08-10T18:28	10	6	0.2	6	6	442	0.4	441	442	26.9	45.8
2025-08-10T18:29	10	5	0.2	5	6	442	0.4	441	442	26.9	45.6
2025-08-10T18:30	10	5	0.2	5	5	441	0.7	440	442	26.9	45.7
2025-08-10T18:31	10	4	0.2	4	5	441	0.3	440	441	26.9	45.6
2025-08-10T18:32	10	4	0.3	3	4	440	0.5	439	440	26.9	45.8
2025-08-10T18:33	10	3	0.3	2	3	440	0.4	439	441	26.7	46.2
2025-08-10T18:34	10	2	0.3	2	4	439	0.3	438	440	26.6	46.5
2025-08-10T18:35	10	2	0.2	1	3	439	0.3	438	439	26.7	46.2
2025-08-10T18:36	10	2	0.2	2	3	438	0.3	437	438	26.7	46.3
2025-08-10T18:37	10	2	0.2	1	3	438	0.3	437	439	26.7	46.3
2025-08-10T18:38	10	2	0.2	1	2	437	0.5	436	438	26.6	46.5
2025-08-10T18:39	10	2	0.1	2	2	436	0.3	435	437	26.6	46.6
2025-08-10T18:40	10	2	0.1	1	2	436	0.3	436	437	26.5	46.7
2025-08-10T18:41	10	2	0.1	1	2	436	0.3	435	436	26.4	47.0
2025-08-10T18:42	10	1	0.2	1	2	435	0.3	434	435	26.4	47.0
2025-08-10T18:43	10	1	0.1	1	2	434	0.3	434	435	26.4	47.2
2025-08-10T18:44	10	1	0.1	1	1	433	0.3	433	434	26.3	47.3
2025-08-10T18:45	10	1	0.1	1	1	433	0.4	433	434	26.3	47.5
2025-08-10T18:46	10	1	0.1	1	1	433	0.3	432	434	26.4	47.1
2025-08-10T18:47	10	1	0.1	1	1	433	0.3	432	433	26.3	47.3
2025-08-10T18:48	10	1	0.1	1	1	433	0.7	432	435	26.3	47.4
2025-08-10T18:49	10	1	0.1	1	1	434	0.3	434	435	26.4	47.2
2025-08-10T18:50	10	1	0.1	1	1	434	0.3	433	434	26.3	47.3
2025-08-10T18:51	10	1	0.1	1	1	433	0.3	432	433	26.3	47.5
2025-08-10T18:52	10	1	0.1	0	1	432	0.4	431	433	26.2	47.7
2025-08-10T18:53	10	1	0.1	1	1	431	0.3	431	432	26.1	47.9
2025-08-10T18:54	10	1	0.1	0	1	431	0.3	430	431	26.0	48.4
2025-08-10T18:55	10	1	0.1	0	1	430	0.3	430	431	26.0	48.3
2025-08-10T18:56	10	1	0.1	0	1	429	0.4	429	430	26.0	48.5
2025-08-10T18:57	10	1	0.1	0	1	429	0.2	428	429	26.0	48.6
2025-08-10T18:58	10	1	0.1	0	1	428	0.3	428	429	25.9	48.9
2025-08-10T18:59	10	0	0.2	0	1	429	0.3	428	429	25.9	48.8
2025-08-10T19:00	10	0	0.1	0	1	428	0.3	428	429	25.9	48.8
2025-08-10T19:01	10	0	0.1	0	1	429	0.6	428	430	25.9	48.8
2025-08-10T19:02	10	0	0.1	0	1	429	0.4	428	430	25.9	48.7
2025-08-10T19:03	10	0	0.1	0	0	428	0.2	428	429	25.8	49.0
2025-08-10T19:04	10	0	0.1	0	0	428	0.3	427	428	25.8	49.0
2025-08-10T19:05	10	0	0.1	0	0	427	0.2	427	428	25.8	49.0
2025-08-10T19:06	10	0	0.1	0	0	427	0.4	426	428	25.8	49.0
2025-08-10T19:07	10	0	0.1	0	0	426	0.3	426	427	25.7	49.2
2025-08-10T19:08	10	0	0.0	0	0	427	0.3	426	428	25.7	49.3
2025-08-10T19:09	10	0	0.1	0	1	426	0.3	426	427	25.6	49.3
2025-08-10T19:10	10	0	0.1	0	0	426	0.4	425	427	25.6	49.4
2025-08-10T19:11	10	0	0.1	0	1	425	0.2	425	426	25.6	49.4
2025-08-10T19:12	10	0	0.1	0	1	425	0.3	424	425	25.5	49.5
2025-08-10T19:13	10	0	0.1	0	1	424	0.3	424	425	25.5	49.8
2025-08-10T19:14	10	0	0.1	0	0	424	0.4	423	425	25.4	49.7
2025-08-10T19:15	10	0	0.2	0	0	424	0.2	424	425	25.4	49.9
2025-08-10T19:16	10	0	0.2	0	1	424	0.4	423	425	25.4	49.8
2025-08-10T19:17	10	0	0.2	0	1	422	0.2	422	423	25.3	50.0
2025-08-10T19:18	10	0	0.2	0	1	422	0.4	421	422	25.3	49.9
2025-08-10T19:19	10	0	0.1	0	0	422	0.5	421	423	25.3	50.0
2025-08-10T19:20	10	0	0.1	0	0	422	0.4	421	423	25.2	50.0
2025-08-10T19:21	10	0	0.1	0	0	421	0.3	420	421	25.1	50.3
2025-08-10T19:22	10	0	0.1	0	0	420	0.4	420	421	25.2	49.9
2025-08-10T19:23	10	0	0.1	0	0	421	0.2	420	421	25.1	50.2
2025-08-10T19:24	10	0	0.1	0	0	420	0.3	420	421	25.1	50.0
2025-08-10T19:25	10	0	0.1	0	0	420	0.3	419	421	25.1	49.8
2025-08-10T19:26	10	0	0.1	0	0	420	0.3	419	421	25.1	49.8
2025-08-10T19:27	10	0	0.1	0	0	420	0.2	420	421	25.1	49.7
2025-08-10T19:28	10	0	0.1	0	0	420	0.3	420	421	25.0	50.0
2025-08-10T19:29	10	0	0.1	0	0	420	0.2	420	421	25.0	50.0
2025-08-10T19:30	10	0	0.1	0	0	419	0.3	419	420	25.0	50.3
2025-08-10T19:31	10	0	0.1	0	0	419	0.2	419	420	24.9	50.4
2025-08-10T19:32	10	0	0.1	0	0	419	0.3	418	420	25.0	49.8
2025-08-10T19:33	10	0	0.1	0	0	419	0.2	419	419	25.0	50.2
2025-08-10T19:34	10	0	0.1	0	0	419	0.3	418	420	24.9	50.2
2025-08-10T19:35	10	0	0.1	0	0	419	0.3	418	419	24.9	50.3
2025-08-10T19:36	10	0	0.1	0	0	418	0.4	417	419	24.9	50.3
2025-08-10T19:37	10	0	0.1	0	0	417	0.4	416	418	24.8	50.6
2025-08-10T19:38	10	0	0.1	0	0	416	0.5	415	417	24.8	51.0
2025-08-10T19:39	10	0	0.1	0	0	415	0.3	414	416	24.5	51.9
2025-08-10T19:40	10	0	0.1	0	0	415	0.3	414	415	24.5	52.3
2025-08-10T19:41	10	0	0.1	0	0	414	0.3	413	415	24.5	52.0
2025-08-10T19:42	10	0	0.1	0	0	414	0.2	413	414	24.4	52.4
2025-08-10T19:43	10	0	0.1	0	0	413	0.2	412	414	24.3	52.9
2025-08-10T19:44	10	0	0.1	0	0	413	0.2	413	414	24.3	52.4
2025-08-10T19:45	10	0	0.1	0	0	413	0.4	413	414	24.4	52.0
2025-08-10T19:46	10	0	0.1	0	0	413	0.4	412	414	24.5	51.5
2025-08-10T19:47	10	0	0.1	0	0	413	0.3	412	413	24.5	51.4
2025-08-10T19:48	10	0	0.1	0	0	413	0.3	412	413	24.5	51.2
2025-08-10T19:49	10	0	0.1	0	0	413	0.2	413	413	24.5	51.0
2025-08-10T19:50	10	0	0.1	0	0	413	0.2	412	413	24.5	50.9
2025-08-10T19:51	10	0	0.1	0	0	413	0.4	412	413	24.4	51.1
2025-08-10T19:52	10	0	0.1	0	0	412	0.3	412	413	24.4	51.4
2025-08-10T19:53	10	0	0.1	0	0	412	0.4	411	413	24.3	51.9
2025-08-10T19:54	10	0	0.1	0	0	411	0.3	411	412	24.1	52.7
2025-08-10T19:55	10	0	0.1	0	0	411	0.3	411	412	24.0	53.5
2025-08-10T19:56	10	0	0.1	0	0	411	0.3	410	412	24.0	52.8
2025-08-10T19:57	10	0	0.1	0	0	410	0.3	410	411	24.0	53.7
2025-08-10T19:58	10	0	0.1	0	0	410	0.2	410	411	23.9	53.8
2025-08-10T19:59	10	0	0.1	0	0	410	0.2	410	410	23.9	53.6
2025-08-10T20:00	10	0	0.1	0	0	410	0.4	409	411	24.0	52.2
2025-08-10T20:01	10	0	0.1	0	0	410	0.3	409	410	24.0	52.9
2025-08-10T20:02	10	0	0.1	0	0	410	0.4	409	410	23.9	53.8
2025-08-10T20:03	10	0	0.2	-1	0	410	0.4	409	411	23.9	52.5
2025-08-10T20:04	10	0	0.1	0	0	410	0.3	409	411	24.1	51.3
2025-08-10T20:05	10	0	0.2	0	1	410	0.2	409	410	24.2	50.6
2025-08-10T20:06	10	0	0.1	0	1	410	0.2	409	410	24.2	50.8
2025-08-10T20:07	10	0	0.2	0	0	409	0.3	408	410	24.1	51.0
2025-08-10T20:08	10	0	0.2	0	1	409	0.4	408	410	24.1	50.7
2025-08-10T20:09	10	0	0.2	0	0	409	0.4	408	410	24.0	50.8
2025-08-10T20:10	10	0	0.2	0	1	409	0.3	408	410	24.0	50.8
2025-08-10T20:11	10	0	0.2	0	1	408	0.4	408	409	23.9	51.2
2025-08-10T20:12	10	0	0.2	0	0	409	0.3	408	409	23.7	52.2
2025-08-10T20:13	10	0	0.2	0	1	408	0.3	408	409	23.7	52.1
2025-08-10T20:14	10	0	0.2	-1	0	409	0.3	408	409	23.9	50.1
2025-08-10T20:15	10	0	0.1	0	0	408	0.5	407	408	23.8	51.4
2025-08-10T20:16	10	0	0.1	0	1	408	0.4	407	409	23.5	53.5
2025-08-10T20:17	10	0	0.1	0	0	408	0.2	408	409	23.7	51.0
2025-08-10T20:18	10	0	0.1	0	0	408	0.3	407	409	23.8	50.7
2025-08-10T20:19	10	0	0.1	0	0	407	0.3	407	408	23.7	51.6
2025-08-10T20:20	10	0	0.1	0	0	408	0.4	407	409	23.5	52.9
2025-08-10T20:21	10	0	0.1	0	0	407	0.2	407	408	23.6	51.2
2025-08-10T20:22	10	0	0.1	0	0	407	0.3	406	408	23.5	51.9
2025-08-10T20:23	10	0	0.1	0	0	407	0.6	406	408	23.3	53.6
2025-08-10T20:24	10	0	0.1	0	0	406	0.3	406	407	23.2	54.2
2025-08-10T20:25	10	0	0.1	0	0	407	0.6	406	408	23.2	52.4
2025-08-10T20:26	10	0	0.1	0	0	407	0.3	406	408	23.4	51.5
2025-08-10T20:27	10	0	0.1	0	0	406	0.3	406	407	23.3	52.4
2025-08-10T20:28	10	0	0.1	0	0	406	0.3	405	406	23.2	53.7
2025-08-10T20:29	10	0	0.1	0	0	406	0.3	405	406	23.1	54.0
2025-08-10T20:30	10	0	0.1	0	0	406	0.3	406	407	23.2	52.0
2025-08-10T20:31	10	0	0.1	0	0	406	0.2	406	407	23.2	53.1
2025-08-10T20:32	10	0	0.1	0	0	406	0.2	406	407	23.1	54.0
2025-08-10T20:33	10	0	0.1	0	0	406	0.2	405	406	23.1	54.0
2025-08-10T20:34	10	0	0.1	0	0	406	0.2	405	407	23.0	55.1
2025-08-10T20:35	10	0	0.1	0	0	406	0.3	405	406	23.0	54.2
2025-08-10T20:36	10	0	0.1	0	0	405	0.3	405	406	23.0	54.5
2025-08-10T20:37	10	0	0.1	0	0	405	0.2	404	405	22.9	55.8
2025-08-10T20:38	10	0	0.1	0	0	405	0.3	404	406	22.8	55.0
2025-08-10T20:39	10	0	0.1	0	0	405	0.4	404	406	23.0	52.7
2025-08-10T20:40	10	0	0.1	0	0	404	0.3	403	405	23.2	52.1
2025-08-10T20:41	10	0	0.1	0	0	405	0.4	404	406	23.1	53.0
2025-08-10T20:42	10	0	0.1	0	0	405	0.2	404	405	23.2	51.7
2025-08-10T20:43	10	0	0.1	0	0	405	0.4	404	406	23.3	51.0
2025-08-10T20:44	10	0	0.1	0	0	405	0.4	404	406	23.4	50.7
2025-08-10T20:45	10	0	0.1	0	0	405	0.3	404	406	23.5	50.6
2025-08-10T20:46	10	0	0.1	0	0	404	0.3	403	405	23.4	51.3
2025-08-10T20:47	10	0	0.1	0	0	403	0.2	403	404	23.1	52.6
2025-08-10T20:48	10	0	0.1	0	0	403	0.3	403	404	23.0	54.6
2025-08-10T20:49	10	0	0.1	0	0	404	0.3	403	404	22.8	54.8
2025-08-10T20:50	10	0	0.1	0	0	404	0.2	403	404	22.8	53.7
2025-08-10T20:51	10	0	0.1	0	0	404	0.2	403	404	22.9	53.4
2025-08-10T20:52	10	0	0.1	0	0	404	0.2	403	404	23.0	53.5
2025-08-10T20:53	10	0	0.1	0	0	403	0.2	403	404	23.0	54.0
2025-08-10T20:54	10	0	0.1	0	0	403	0.3	402	404	22.8	54.8
2025-08-10T20:55	10	0	0.1	0	0	403	0.2	402	404	22.8	55.4
2025-08-10T20:56	10	0	0.1	0	0	402	0.7	401	403	22.9	55.1
2025-08-10T20:57	10	0	0.1	0	0	402	0.2	401	402	22.5	56.4
2025-08-10T20:58	10	0	0.1	0	0	402	0.3	401	403	22.5	56.0
2025-08-10T20:59	10	0	0.1	0	0	402	0.2	402	403	22.5	55.7
2025-08-10T21:00	10	0	0.1	0	0	402	0.2	402	403	22.6	55.6
2025-08-10T21:01	10	0	0.1	0	0	402	0.3	402	403	22.7	55.8
2025-08-10T21:02	10	0	0.1	0	0	402	0.2	402	403	22.7	55.7
2025-08-10T21:03	10	0	0.1	0	0	402	0.3	401	403	22.8	55.5
2025-08-10T21:04	10	0	0.1	0	0	402	0.3	402	403	22.9	55.3
2025-08-10T21:05	10	0	0.1	0	0	402	0.3	401	403	22.8	55.6
2025-08-10T21:06	10	0	0.2	-1	0	401	0.2	401	402	22.6	56.1
2025-08-10T21:07	10	0	0.1	0	0	401	0.2	401	402	22.6	56.3
2025-08-10T21:08	10	0	0.1	0	0	401	0.3	401	402	22.5	56.7
2025-08-10T21:09	10	0	0.2	0	1	401	0.2	401	402	22.6	56.8
2025-08-10T21:10	10	0	0.2	0	0	401	0.3	400	402	22.7	57.0
2025-08-10T21:11	10	0	0.2	0	0	401	0.3	401	402	22.7	57.0
2025-08-10T21:12	10	0	0.2	0	0	401	0.3	400	402	22.7	57.3
2025-08-10T21:13	10	0	0.2	0	0	401	0.3	400	401	22.6	57.7
2025-08-10T21:14	10	0	0.2	0	0	400	0.2	400	401	22.4	58.3
2025-08-10T21:15	10	0	0.2	-1	0	400	0.3	399	401	22.4	58.7
2025-08-10T21:16	10	0	0.2	0	1	400	0.3	400	401	22.5	58.8
2025-08-10T21:17	10	0	0.2	0	1	400	0.3	399	401	22.4	58.9
2025-08-10T21:18	10	0	0.2	-1	0	400	0.3	399	401	22.4	58.9
2025-08-10T21:19	10	0	0.2	0	0	401	0.2	400	401	22.4	58.9
2025-08-10T21:20	10	0	0.1	0	0	401	0.2	400	401	22.4	58.9
2025-08-10T21:21	10	0	0.1	0	0	401	0.2	400	401	22.4	58.9
2025-08-10T21:22	10	0	0.1	0	0	401	0.4	400	401	22.4	58.9
2025-08-10T21:23	10	0	0.1	0	0	400	0.2	400	400	22.4	58.9
2025-08-10T21:24	10	0	0.1	0	0	400	0.2	400	401	22.4	58.9
2025-08-10T21:25	10	0	0.1	0	0	400	0.3	400	401	22.3	59.7
2025-08-10T21:26	10	0	0.1	0	0	400	0.3	400	401	22.1	60.5
2025-08-10T21:27	10	0	0.1	0	0	400	0.3	399	400	22.2	60.5
2025-08-10T21:28	10	0	0.1	0	0	400	0.3	399	400	22.2	60.5
2025-08-10T21:29	10	0	0.1	0	0	400	0.3	399	400	22.2	60.5
2025-08-10T21:30	10	0	0.1	0	0	400	0.4	399	400	22.3	60.2
2025-08-10T21:31	10	0	0.1	0	0	399	0.2	399	400	22.2	60.6
2025-08-10T21:32	10	0	0.1	0	0	400	0.3	399	400	22.1	60.9
2025-08-10T21:33	10	0	0.1	0	0	399	0.2	399	400	22.2	60.6
2025-08-10T21:34	10	0	0.1	0	0	400	0.2	399	400	22.2	60.7
2025-08-10T21:35	10	0	0.1	0	0	399	0.2	398	400	22.2	60.7
2025-08-10T21:36	10	0	0.1	0	0	398	0.2	398	399	22.1	60.9
2025-08-10T21:37	10	0	0.1	0	0	399	0.2	398	399	22.0	61.3
2025-08-10T21:38	10	0	0.1	0	0	399	0.3	398	399	22.0	61.4
2025-08-10T21:39	10	0	0.1	0	0	398	0.2	398	399	22.2	60.9
2025-08-10T21:40	10	0	0.1	0	0	399	0.2	399	400	22.2	60.6
2025-08-10T21:41	10	0	0.1	0	0	399	0.2	398	399	22.3	60.6
2025-08-10T21:42	10	0	0.1	0	0	399	0.5	398	400	22.3	60.0
2025-08-10T21:43	10	0	0.1	0	0	400	0.2	400	401	22.3	60.2
2025-08-10T21:44	10	0	0.1	0	0	400	0.2	399	400	22.3	60.7
2025-08-10T21:45	10	0	0.1	0	0	400	0.2	399	400	22.2	60.9
2025-08-10T21:46	10	0	0.1	0	0	400	0.3	399	400	22.3	60.4
2025-08-10T21:47	10	0	0.1	0	0	400	0.2	399	400	22.3	60.4
2025-08-10T21:48	10	0	0.1	0	0	400	0.3	399	401	22.2	60.7
2025-08-10T21:49	10	0	0.1	0	0	400	0.2	400	401	22.2	60.9
2025-08-10T21:50	10	0	0.1	0	0	400	0.3	399	401	22.2	60.9
2025-08-10T21:51	10	0	0.1	0	0	400	0.2	400	400	22.2	61.0
2025-08-10T21:52	10	0	0.1	0	0	400	0.2	400	401	22.2	60.9
2025-08-10T21:53	10	0	0.1	0	0	401	0.5	400	402	22.3	60.8
2025-08-10T21:54	10	0	0.1	0	0	401	0.4	400	402	22.2	61.3
2025-08-10T21:55	10	0	0.1	0	0	400	0.3	400	401	22.2	61.4
2025-08-10T21:56	10	0	0.1	0	0	400	0.2	399	400	22.1	61.7
2025-08-10T21:57	10	0	0.1	0	0	400	0.4	399	400	22.1	61.8
2025-08-10T21:58	10	0	0.1	0	0	400	0.3	399	400	22.2	61.3
2025-08-10T21:59	10	0	0.1	0	0	399	0.4	398	400	22.0	62.0
2025-08-10T22:00	10	0	0.1	0	0	399	0.2	398	399	22.0	61.8
2025-08-10T22:01	10	0	0.1	0	0	399	0.2	398	399	22.0	62.1
2025-08-10T22:02	10	0	0.1	0	0	398	0.3	398	399	22.0	61.9
2025-08-10T22:03	10	0	0.1	0	0	398	0.3	397	399	22.0	62.2
2025-08-10T22:04	10	0	0.1	0	0	398	0.3	397	398	21.9	62.3
2025-08-10T22:05	10	0	0.1	0	0	399	0.5	398	400	22.0	60.8
2025-08-10T22:06	10	0	0.1	0	0	400	0.2	399	400	22.0	61.4
2025-08-10T22:07	10	0	0.1	0	0	400	0.3	399	400	21.9	61.9
2025-08-10T22:08	10	0	0.1	0	0	400	0.2	399	400	21.9	61.9
2025-08-10T22:09	10	0	0.1	0	0	399	0.3	399	400	21.8	62.0
2025-08-10T22:10	10	0	0.1	0	0	400	0.3	399	401	21.8	62.3
2025-08-10T22:11	10	0	0.1	0	0	400	0.3	399	400	21.8	61.8
2025-08-10T22:12	10	0	0.1	0	0	400	0.3	399	401	21.9	61.6
2025-08-10T22:13	10	0	0.1	0	0	400	0.2	400	401	21.8	62.1
2025-08-10T22:14	10	0	0.1	0	0	400	0.4	399	401	21.7	62.2
2025-08-10T22:15	10	0	0.1	0	0	399	0.3	399	400	21.7	62.4
2025-08-10T22:16	10	0	0.1	0	0	399	0.3	398	399	21.6	62.7
2025-08-10T22:17	10	0	0.1	0	0	398	0.3	398	399	21.5	63.1
2025-08-10T22:18	10	0	0.1	0	0	398	0.3	397	398	21.5	63.2
2025-08-10T22:19	10	0	0.1	0	0	398	0.2	397	398	21.5	63.1
2025-08-10T22:20	10	0	0.1	0	0	399	0.5	398	399	21.8	61.1
2025-08-10T22:21	10	0	0.1	0	0	400	0.3	399	400	21.7	61.8
2025-08-10T22:22	10	0	0.1	0	0	401	1.1	399	402	21.7	61.5
2025-08-10T22:23	10	0	0.1	0	0	403	0.7	402	404	21.8	60.6
2025-08-10T22:24	10	0	0.1	0	0	403	0.5	402	404	21.9	60.0
2025-08-10T22:25	10	0	0.1	0	0	402	0.2	402	403	21.8	60.7
2025-08-10T22:26	10	0	0.1	0	0	402	0.3	402	403	21.7	60.9
2025-08-10T22:27	10	0	0.1	0	0	402	0.3	402	403	21.7	60.5
2025-08-10T22:28	10	0	0.1	0	0	401	0.3	401	402	21.6	61.1
2025-08-10T22:29	10	0	0.1	0	0	401	0.6	400	403	21.6	60.8
2025-08-10T22:30	10	0	0.1	0	0	403	0.3	402	403	21.6	60.8
2025-08-10T22:31	10	0	0.1	0	0	402	0.3	402	403	21.6	60.8
2025-08-10T22:32	10	0	0.1	0	0	402	0.3	401	402	21.6	60.8
2025-08-10T22:33	10	0	0.1	0	0	401	0.3	400	401	21.5	61.5
2025-08-10T22:34	10	0	0.1	0	0	400	0.3	399	401	21.5	61.0
2025-08-10T22:35	10	0	0.1	0	0	399	0.4	398	400	21.5	61.1
2025-08-10T22:36	10	0	0.1	0	0	398	0.3	398	399	21.5	61.6
2025-08-10T22:37	10	0	0.1	0	0	398	0.2	398	398	21.4	61.8
2025-08-10T22:38	10	0	0.1	0	0	397	0.3	397	398	21.4	62.1
2025-08-10T22:39	10	0	0.1	0	0	397	0.3	396	397	21.4	62.0
2025-08-10T22:40	10	0	0.1	0	0	396	0.4	395	397	21.3	62.5
2025-08-10T22:41	10	0	0.1	0	0	396	0.2	396	397	21.2	62.8
2025-08-10T22:42	10	0	0.1	0	0	396	0.2	396	397	21.1	63.2
2025-08-10T22:43	10	0	0.1	0	0	396	0.2	395	397	21.1	63.3
2025-08-10T22:44	10	0	0.1	0	0	396	0.3	395	396	21.1	63.0
2025-08-10T22:45	10	0	0.1	0	0	396	0.2	395	397	21.2	62.5
2025-08-10T22:46	10	0	0.1	0	0	395	0.3	395	396	21.1	62.6
2025-08-10T22:47	10	0	0.1	0	0	395	0.3	395	396	21.1	62.6
2025-08-10T22:48	10	0	0.1	0	0	396	0.3	395	396	21.2	62.0
2025-08-10T22:49	10	0	0.1	0	0	396	0.6	395	397	21.2	61.7
2025-08-10T22:50	10	0	0.1	0	0	397	0.3	396	397	21.3	61.9
2025-08-10T22:51	10	0	0.2	-1	1	396	0.3	396	397	21.2	61.9
2025-08-10T22:52	10	0	0.2	0	0	396	0.2	395	396	21.2	62.1
2025-08-10T22:53	10	0	0.2	0	0	396	0.2	395	397	21.1	62.4
2025-08-10T22:54	10	0	0.2	0	0	396	0.2	395	396	21.2	62.0
2025-08-10T22:55	10	0	0.2	-1	1	395	0.3	394	396	21.2	62.3
2025-08-10T22:56	10	0	0.2	0	0	395	0.3	394	396	21.1	62.5
2025-08-10T22:57	10	0	0.2	0	0	396	0.3	395	396	21.2	61.3
2025-08-10T22:58	10	0	0.1	0	0	396	0.4	395	397	21.1	61.7
2025-08-10T22:59	10	0	0.2	0	0	396	0.3	395	396	21.1	61.5
2025-08-10T23:00	10	0	0.2	0	1	396	0.3	395	396	21.1	61.4
2025-08-10T23:01	10	0	0.1	0	0	395	0.2	395	396	21.1	61.4
2025-08-10T23:02	10	0	0.1	0	0	395	0.2	395	396	21.1	61.6
2025-08-10T23:03	10	0	0.2	0	0	395	0.3	394	396	21.1	61.3
2025-08-10T23:04	10	0	0.1	0	0	396	0.4	395	396	21.1	60.8
2025-08-10T23:05	10	0	0.1	0	0	396	0.2	396	396	21.1	60.6
2025-08-10T23:06	10	0	0.1	0	0	396	0.6	395	397	21.2	60.0
2025-08-10T23:07	10	0	0.1	0	0	397	0.3	396	397	21.1	60.2
2025-08-10T23:08	10	0	0.1	0	1	397	0.5	396	398	21.1	60.1
2025-08-10T23:09	10	0	0.1	0	0	398	0.2	397	398	21.1	59.9
2025-08-10T23:10	10	0	0.1	0	0	397	0.3	397	398	21.1	60.0
2025-08-10T23:11	10	0	0.1	0	0	397	0.2	397	398	21.1	59.9
2025-08-10T23:12	10	0	0.1	0	0	397	0.2	396	397	21.0	60.1
2025-08-10T23:13	10	0	0.1	0	0	396	0.3	396	397	21.0	60.1
2025-08-10T23:14	10	0	0.1	0	0	396	0.2	396	397	20.9	60.3
2025-08-10T23:15	10	0	0.1	0	0	396	0.3	396	397	20.9	60.3
2025-08-10T23:16	10	0	0.1	0	0	396	0.2	395	396	20.9	60.4
2025-08-10T23:17	10	0	0.1	0	0	395	0.2	395	396	20.9	60.2
2025-08-10T23:18	10	0	0.1	0	0	395	0.2	395	396	20.8	60.5
2025-08-10T23:19	10	0	0.1	0	0	395	0.2	394	395	20.9	60.2
2025-08-10T23:20	10	0	0.1	0	0	395	0.3	394	395	20.8	60.5
2025-08-10T23:21	10	0	0.1	0	0	395	0.2	394	395	20.8	60.5
2025-08-10T23:22	10	0	0.1	0	0	394	0.3	394	395	20.8	60.5
2025-08-10T23:23	10	0	0.1	0	0	394	0.3	394	395	20.8	60.1
2025-08-10T23:24	10	0	0.1	0	0	395	0.3	394	395	20.8	60.0
2025-08-10T23:25	10	0	0.1	0	0	395	0.3	394	395	20.8	60.0
2025-08-10T23:26	10	0	0.1	0	0	396	0.6	394	397	21.0	59.1
2025-08-10T23:27	10	0	0.1	0	0	396	0.2	396	397	21.0	59.3
2025-08-10T23:28	10	0	0.1	0	0	396	0.2	396	397	21.0	59.3
2025-08-10T23:29	10	0	0.1	0	0	396	0.3	396	397	21.0	59.1
2025-08-10T23:30	10	0	0.0	0	0	396	0.2	396	397	21.0	59.2
2025-08-10T23:31	10	0	0.0	0	0	396	0.3	395	397	21.0	59.1
2025-08-10T23:32	10	0	0.1	0	0	396	0.2	396	397	20.9	59.4
2025-08-10T23:33	10	0	0.1	0	0	396	0.2	396	397	20.9	59.5
2025-08-10T23:34	10	0	0.1	0	0	397	0.3	396	397	20.9	59.5
2025-08-10T23:35	10	0	0.1	0	0	397	0.3	396	397	20.9	59.4
2025-08-10T23:36	10	0	0.0	0	0	397	0.2	396	397	20.9	59.6
2025-08-10T23:37	10	0	0.0	0	0	397	0.2	397	398	20.8	59.7
2025-08-10T23:38	10	0	0.1	0	0	397	0.2	397	397	20.9	59.5
2025-08-10T23:39	10	0	0.1	0	0	397	0.2	397	398	20.9	59.5
2025-08-10T23:40	10	0	0.1	0	0	397	0.2	397	398	20.9	59.4
2025-08-10T23:41	10	0	0.1	0	0	397	0.3	396	398	20.9	59.4
2025-08-10T23:42	10	0	0.1	0	0	397	0.2	397	398	20.9	59.5
2025-08-10T23:43	10	0	0.0	0	0	397	0.3	397	398	20.8	59.8
2025-08-10T23:44	10	0	0.1	0	0	397	0.4	396	398	20.8	59.8
2025-08-10T23:45	10	0	0.1	0	0	397	0.2	396	397	20.8	59.9
2025-08-10T23:46	10	0	0.1	0	0	397	0.4	396	397	20.8	59.9
2025-08-10T23:47	10	0	0.1	0	0	397	0.2	396	397	20.8	60.0
2025-08-10T23:48	10	0	0.1	0	0	397	0.3	396	397	20.7	60.2
2025-08-10T23:49	10	0	0.1	0	0	397	0.2	397	398	20.8	59.9
2025-08-10T23:50	10	0	0.1	0	0	397	0.3	396	398	20.8	60.1
2025-08-10T23:51	10	0	0.1	0	0	398	0.3	397	398	20.8	60.1
2025-08-10T23:52	10	0	0.1	0	0	397	0.2	397	398	20.7	60.2
2025-08-10T23:53	10	0	0.1	0	0	397	0.2	397	398	20.8	60.1
2025-08-10T23:54	10	0	0.1	0	0	397	0.3	396	398	20.8	59.9
2025-08-10T23:55	10	0	0.1	0	0	397	0.2	396	397	20.8	60.1
2025-08-10T23:56	10	0	0.1	0	0	397	0.3	396	397	20.8	59.9
2025-08-10T23:57	10	0	0.1	0	0	397	0.3	396	397	20.7	60.3
2025-08-10T23:58	10	0	0.1	0	0	396	0.2	396	397	20.6	60.6
2025-08-10T23:59	10	0	0.1	0	0	397	0.2	396	397	20.6	60.9
2025-08-11T00:00	10	0	0.1	0	0	397	0.3	396	397	20.6	60.7
2025-08-11T00:01	10	0	0.1	0	0	396	0.2	396	397	20.6	60.9
2025-08-11T00:02	10	0	0.1	0	0	395	0.3	395	396	20.5	61.2
2025-08-11T00:03	10	0	0.1	0	0	395	0.3	395	396	20.5	61.2
2025-08-11T00:04	10	0	0.1	0	0	395	0.2	394	395	20.5	61.5
2025-08-11T00:05	10	0	0.1	0	0	395	0.2	395	396	20.4	61.5
2025-08-11T00:06	10	0	0.1	0	0	395	0.2	394	395	20.4	61.6
2025-08-11T00:07	10	0	0.1	0	0	395	0.2	394	395	20.3	61.9
2025-08-11T00:08	10	0	0.1	0	0	394	0.2	394	395	20.4	61.6
2025-08-11T00:09	10	0	0.1	0	0	394	0.2	394	395	20.3	62.0
2025-08-11T00:10	10	0	0.1	0	0	394	0.3	394	395	20.3	62.1
2025-08-11T00:11	10	0	0.1	0	0	394	0.2	394	395	20.3	62.0
2025-08-11T00:12	10	0	0.1	0	0	394	0.2	394	395	20.3	62.2
2025-08-11T00:13	10	0	0.1	0	0	394	0.2	393	394	20.3	62.1
2025-08-11T00:14	10	0	0.1	0	0	393	0.3	392	394	20.2	62.5
2025-08-11T00:15	10	0	0.1	0	0	392	0.2	392	393	20.1	63.2
2025-08-11T00:16	10	0	0.1	0	0	392	0.3	392	393	20.0	63.6
2025-08-11T00:17	10	0	0.1	0	0	392	0.3	391	393	19.9	63.9
2025-08-11T00:18	10	0	0.1	0	0	392	0.2	391	392	20.0	63.6
2025-08-11T00:19	10	0	0.1	0	0	391	0.3	390	391	19.9	64.1
2025-08-11T00:20	10	0	0.1	0	0	391	0.2	390	391	19.9	64.2
2025-08-11T00:21	10	0	0.1	0	0	391	0.2	390	391	19.8	64.4
2025-08-11T00:22	10	0	0.1	0	0	390	0.2	390	391	19.8	64.7
2025-08-11T00:23	10	0	0.1	0	0	390	0.2	389	390	19.7	65.1
2025-08-11T00:24	10	0	0.1	0	0	390	0.3	389	390	19.7	65.2
2025-08-11T00:25	10	0	0.1	0	0	390	0.3	389	390	19.6	65.3
2025-08-11T00:26	10	0	0.1	0	0	390	0.3	389	391	19.6	65.2
2025-08-11T00:27	10	0	0.1	0	0	390	0.3	389	390	19.6	65.3
2025-08-11T00:28	10	0	0.1	0	0	390	0.2	389	390	19.6	65.5
2025-08-11T00:29	10	0	0.1	0	0	390	0.2	389	390	19.6	65.3
2025-08-11T00:30	10	0	0.1	0	0	389	0.2	389	390	19.6	65.4
2025-08-11T00:31	10	0	0.1	0	0	389	0.3	389	390	19.5	66.2
2025-08-11T00:32	10	0	0.1	0	0	389	0.3	389	390	19.4	66.5
2025-08-11T00:33	10	0	0.1	0	0	389	0.3	389	390	19.5	65.7
2025-08-11T00:34	10	0	0.1	0	0	389	0.2	389	390	19.5	65.8
2025-08-11T00:35	10	0	0.1	0	0	389	0.2	389	390	19.6	65.5
2025-08-11T00:36	10	0	0.1	0	0	389	0.3	389	390	19.6	65.3
2025-08-11T00:37	10	0	0.1	0	0	389	0.3	388	390	19.6	65.4
2025-08-11T00:38	10	0	0.1	0	0	390	0.4	388	390	19.7	65.0
2025-08-11T00:39	10	0	0.1	0	0	389	0.3	389	390	19.7	65.2
2025-08-11T00:40	10	0	0.1	0	0	390	0.2	389	390	19.6	65.1
2025-08-11T00:41	10	0	0.1	0	0	390	0.4	389	390	19.8	64.6
2025-08-11T00:42	10	0	0.1	0	0	390	0.3	389	391	19.8	64.4
2025-08-11T00:43	10	0	0.1	0	0	390	0.3	389	390	19.7	64.9
2025-08-11T00:44	10	0	0.1	0	0	390	0.4	389	390	19.8	64.4
2025-08-11T00:45	10	0	0.1	0	0	389	0.2	389	390	19.7	64.8
2025-08-11T00:46	10	0	0.1	0	0	389	0.2	389	390	19.8	64.5
2025-08-11T00:47	10	0	0.1	0	0	389	0.3	389	390	19.8	64.3
2025-08-11T00:48	10	0	0.1	0	0	389	0.2	389	390	19.7	64.8
2025-08-11T00:49	10	0	0.1	0	0	390	0.4	389	390	19.8	64.4
2025-08-11T00:50	10	0	0.1	0	0	390	0.2	390	391	20.0	63.7
2025-08-11T00:51	10	0	0.1	0	0	390	0.2	390	391	19.8	64.3
2025-08-11T00:52	10	0	0.0	0	0	390	0.3	389	390	19.7	64.8
2025-08-11T00:53	10	0	0.1	0	0	389	0.3	389	390	19.6	65.1
2025-08-11T00:54	10	0	0.1	0	0	389	0.3	388	390	19.8	64.4
2025-08-11T00:55	10	0	0.1	0	0	389	0.2	389	390	19.8	64.5
2025-08-11T00:56	10	0	0.1	0	0	389	0.3	389	390	19.7	64.8
2025-08-11T00:57	10	0	0.1	0	0	389	0.3	388	389	19.6	65.0
2025-08-11T00:58	10	0	0.1	0	0	389	0.3	388	390	19.6	64.9
2025-08-11T00:59	10	0	0.1	0	0	390	0.3	389	391	19.6	65.0
2025-08-11T01:00	10	0	0.1	0	0	390	0.2	389	390	19.6	65.1
2025-08-11T01:01	10	0	0.1	0	0	389	0.3	389	390	19.5	65.5
2025-08-11T01:02	10	0	0.1	0	0	389	0.2	389	390	19.5	65.3
2025-08-11T01:03	10	0	0.1	0	0	389	0.3	388	390	19.6	64.9
2025-08-11T01:04	10	0	0.1	0	0	389	0.3	388	389	19.6	65.2
2025-08-11T01:05	10	0	0.1	0	0	389	0.3	388	389	19.6	65.3
2025-08-11T01:06	10	0	0.1	0	0	388	0.2	388	389	19.5	65.6
2025-08-11T01:07	10	0	0.0	0	0	388	0.3	388	389	19.5	65.5
2025-08-11T01:08	10	0	0.1	0	0	388	0.2	388	389	19.4	66.0
2025-08-11T01:09	10	0	0.1	0	0	388	0.3	387	389	19.4	65.9
2025-08-11T01:10	10	0	0.1	0	0	388	0.2	388	389	19.4	66.0
2025-08-11T01:11	10	0	0.1	0	0	388	0.4	387	389	19.4	66.1
2025-08-11T01:12	10	0	0.1	0	0	388	0.4	387	389	19.3	66.3
2025-08-11T01:13	10	0	0.1	0	0	388	0.4	387	389	19.4	66.0
2025-08-11T01:14	10	0	0.1	0	0	389	0.3	389	389	19.4	66.2
2025-08-11T01:15	10	0	0.1	0	0	389	0.2	389	390	19.4	66.0
2025-08-11T01:16	10	0	0.1	0	0	389	0.4	388	390	19.4	66.1
2025-08-11T01:17	10	0	0.1	0	0	389	0.3	388	390	19.4	66.1
2025-08-11T01:18	10	0	0.1	0	0	389	0.2	388	389	19.5	65.6
2025-08-11T01:19	10	0	0.0	0	0	389	0.6	388	390	19.4	65.8
2025-08-11T01:20	10	0	0.1	0	0	390	0.3	389	390	19.5	65.5
2025-08-11T01:21	10	0	0.1	0	0	390	0.2	389	390	19.5	65.4
2025-08-11T01:22	10	0	0.1	0	0	389	0.4	389	390	19.5	65.7
2025-08-11T01:23	10	0	0.0	0	0	389	0.2	389	390	19.4	65.8
2025-08-11T01:24	10	0	0.0	0	0	389	0.3	388	390	19.5	65.7
2025-08-11T01:25	10	0	0.1	0	0	389	0.2	388	389	19.3	66.2
2025-08-11T01:26	10	0	0.1	0	0	388	0.3	387	389	19.3	66.7
2025-08-11T01:27	10	0	0.1	0	0	388	0.3	388	389	19.3	66.4
2025-08-11T01:28	10	0	0.1	0	0	388	0.3	387	389	19.3	66.3
2025-08-11T01:29	10	0	0.1	0	0	388	0.3	387	388	19.2	66.8
2025-08-11T01:30	10	0	0.1	0	0	389	0.2	388	389	19.3	66.5
2025-08-11T01:31	10	0	0.1	0	0	389	0.3	388	390	19.4	66.0
2025-08-11T01:32	10	0	0.1	0	0	389	0.2	388	389	19.3	66.2
2025-08-11T01:33	10	0	0.1	0	0	388	0.3	387	389	19.3	66.2
2025-08-11T01:34	10	0	0.1	0	0	388	0.3	387	389	19.2	67.0
2025-08-11T01:35	10	0	0.1	0	0	388	0.3	387	388	19.2	66.5
2025-08-11T01:36	10	0	0.1	0	0	387	0.3	387	388	19.4	66.1
2025-08-11T01:37	10	0	0.1	0	0	387	0.3	387	388	19.3	66.3
2025-08-11T01:38	10	0	0.1	0	0	387	0.2	387	388	19.2	67.0
2025-08-11T01:39	10	0	0.1	0	0	387	0.3	386	387	19.2	67.1
2025-08-11T01:40	10	0	0.2	-1	0	386	0.5	385	387	19.1	67.2
2025-08-11T01:41	10	0	0.1	0	0	386	0.5	386	387	19.1	67.5
2025-08-11T01:42	10	0	0.1	0	0	386	0.3	386	387	19.1	67.3
2025-08-11T01:43	10	0	0.1	0	0	387	0.4	386	387	19.1	67.6
2025-08-11T01:44	10	0	0.1	0	0	386	0.3	386	387	18.9	68.3
2025-08-11T01:45	10	0	0.1	0	0	386	0.4	385	387	18.9	68.3
2025-08-11T01:46	10	0	0.2	0	0	386	0.5	385	387	18.8	68.9
2025-08-11T01:47	10	0	0.2	0	1	386	0.3	385	387	18.9	68.7
2025-08-11T01:48	10	0	0.1	0	0	385	0.3	384	386	18.9	68.8
2025-08-11T01:49	10	0	0.2	0	0	385	0.3	384	385	18.7	69.8
2025-08-11T01:50	10	0	0.1	0	0	385	0.3	385	386	18.6	70.3
2025-08-11T01:51	10	0	0.1	0	0	385	0.2	385	386	18.7	69.5
2025-08-11T01:52	10	0	0.1	0	0	385	0.3	384	386	18.6	70.3
2025-08-11T01:53	10	0	0.1	0	0	385	0.3	384	386	18.6	70.0
2025-08-11T01:54	10	0	0.2	0	1	385	0.3	384	386	18.7	69.4
2025-08-11T01:55	10	0	0.2	0	0	385	0.4	384	385	18.7	69.8
2025-08-11T01:56	10	0	0.1	0	0	385	0.4	384	386	18.6	70.0
2025-08-11T01:57	10	0	0.1	0	0	385	0.4	384	385	18.6	69.8
2025-08-11T01:58	10	0	0.2	0	0	383	0.5	383	385	18.5	71.0
2025-08-11T01:59	10	0	0.2	0	0	384	0.3	383	384	18.2	72.1
2025-08-11T02:00	10	0	0.2	-1	1	384	0.3	383	384	18.3	72.0
2025-08-11T02:01	10	0	0.1	-1	0	383	0.2	383	384	18.2	72.1
2025-08-11T02:02	10	0	0.1	0	0	383	0.3	382	383	18.2	72.5
2025-08-11T02:03	10	0	0.1	0	0	383	0.2	382	383	18.0	73.0
2025-08-11T02:04	10	0	0.1	0	0	383	0.2	382	383	18.0	73.4
2025-08-11T02:05	10	0	0.1	0	0	382	0.3	382	383	17.9	73.7
2025-08-11T02:06	10	0	0.2	0	1	383	0.2	382	383	17.8	74.3
2025-08-11T02:07	10	0	0.2	0	1	383	0.2	382	383	17.7	74.7
2025-08-11T02:08	10	0	0.2	0	1	382	0.3	381	383	17.6	74.8
2025-08-11T02:09	10	0	0.1	0	0	382	0.3	382	383	17.6	75.1
2025-08-11T02:10	10	0	0.1	0	0	382	0.2	382	383	17.6	74.6
2025-08-11T02:11	10	0	0.1	0	0	382	0.3	382	383	17.6	74.7
2025-08-11T02:12	10	0	0.1	0	0	383	0.2	382	383	17.7	74.2
2025-08-11T02:13	10	0	0.1	0	0	382	0.3	381	383	17.8	73.9
2025-08-11T02:14	10	0	0.1	0	0	382	0.4	381	383	17.7	74.3
2025-08-11T02:15	10	0	0.1	0	0	382	0.2	382	383	17.7	74.4
2025-08-11T02:16	10	0	0.0	0	0	383	0.2	382	383	17.6	74.4
2025-08-11T02:17	10	0	0.1	0	0	383	0.2	382	383	17.6	74.5
2025-08-11T02:18	10	0	0.0	0	0	382	0.2	382	383	17.6	74.6
2025-08-11T02:19	10	0	0.1	0	0	382	0.2	382	382	17.4	76.4
2025-08-11T02:20	10	0	0.1	0	0	382	0.2	382	383	17.3	77.1
2025-08-11T02:21	10	0	0.1	0	0	383	0.2	382	383	17.4	76.4
2025-08-11T02:22	10	0	0.1	0	0	383	0.3	382	383	17.4	76.4
2025-08-11T02:23	10	0	0.1	0	0	383	0.2	382	383	17.4	76.4
2025-08-11T02:24	10	0	0.1	0	0	383	0.2	382	383	17.4	76.5
2025-08-11T02:25	10	0	0.1	0	0	383	0.2	382	383	17.3	76.3
2025-08-11T02:26	10	0	0.1	0	0	382	0.3	381	383	17.3	76.2
2025-08-11T02:27	10	0	0.1	0	0	382	0.2	381	382	17.2	77.1
2025-08-11T02:28	10	0	0.1	0	0	382	0.3	381	383	17.1	78.0
2025-08-11T02:29	10	0	0.1	0	0	382	0.3	382	383	17.2	76.7
2025-08-11T02:30	10	0	0.1	0	0	382	0.3	381	383	17.3	76.1
2025-08-11T02:31	10	0	0.1	0	0	382	0.2	381	382	17.3	76.4
2025-08-11T02:32	10	0	0.1	0	0	382	0.3	381	383	17.3	76.9
2025-08-11T02:33	10	0	0.1	0	0	382	0.2	381	382	17.4	75.9
2025-08-11T02:34	10	0	0.1	0	0	381	0.2	381	382	17.5	75.6
2025-08-11T02:35	10	0	0.1	0	0	381	0.2	380	381	17.3	76.4
2025-08-11T02:36	10	0	0.0	0	0	381	0.2	380	382	17.3	76.3
2025-08-11T02:37	10	0	0.1	0	0	381	0.2	381	382	17.4	75.6
2025-08-11T02:38	10	0	0.1	0	0	381	0.2	381	382	17.5	75.0
2025-08-11T02:39	10	0	0.1	0	0	381	0.3	380	382	17.6	74.9
2025-08-11T02:40	10	0	0.1	0	0	380	0.3	379	381	17.4	76.0
2025-08-11T02:41	10	0	0.1	0	0	381	0.4	380	382	17.2	77.1
2025-08-11T02:42	10	0	0.1	0	0	381	0.3	380	381	17.4	76.1
2025-08-11T02:43	10	0	0.0	0	0	381	0.2	380	381	17.4	76.6
2025-08-11T02:44	10	0	0.1	0	0	381	0.4	380	382	17.3	77.1
2025-08-11T02:45	10	0	0.1	0	0	382	0.3	381	382	17.5	75.9
2025-08-11T02:46	10	0	0.1	0	0	382	0.2	381	382	17.6	75.0
2025-08-11T02:47	10	0	0.1	0	0	382	0.2	381	382	17.6	74.7
2025-08-11T02:48	10	0	0.1	0	0	381	0.3	381	382	17.5	75.2
2025-08-11T02:49	10	0	0.1	0	0	381	0.3	381	382	17.5	75.6
2025-08-11T02:50	10	0	0.0	0	0	382	0.2	381	382	17.5	75.1
2025-08-11T02:51	10	0	0.1	0	0	382	0.2	381	382	17.7	74.4
2025-08-11T02:52	10	0	0.1	0	0	382	0.2	381	382	17.6	74.8
2025-08-11T02:53	10	0	0.1	0	0	382	0.3	382	383	17.5	75.5
2025-08-11T02:54	10	0	0.1	0	0	382	0.3	382	383	17.4	76.0
2025-08-11T02:55	10	0	0.1	0	0	382	0.3	381	383	17.5	75.7
2025-08-11T02:56	10	0	0.1	0	0	382	0.4	381	383	17.5	75.4
2025-08-11T02:57	10	0	0.1	0	0	383	0.3	382	383	17.7	74.5
2025-08-11T02:58	10	0	0.1	0	0	382	0.2	382	383	17.7	74.1
2025-08-11T02:59	10	0	0.1	0	0	382	0.2	382	383	17.9	73.1
2025-08-11T03:00	10	0	0.1	0	0	382	0.3	382	383	17.9	73.4
2025-08-11T03:01	10	0	0.1	0	0	382	0.3	381	383	17.7	74.4
2025-08-11T03:02	10	0	0.1	0	0	382	0.3	382	383	17.7	74.3
2025-08-11T03:03	10	0	0.1	0	0	382	0.2	382	383	17.8	73.7
2025-08-11T03:04	10	0	0.1	0	0	382	0.2	382	383	17.8	73.8
2025-08-11T03:05	10	0	0.1	0	0	383	0.3	382	383	17.7	74.1
2025-08-11T03:06	10	0	0.1	0	0	383	0.2	382	383	17.6	75.0
2025-08-11T03:07	10	0	0.1	0	0	383	0.3	382	383	17.6	74.4
2025-08-11T03:08	10	0	0.1	0	0	383	0.3	382	383	17.7	74.2
2025-08-11T03:09	10	0	0.1	0	0	383	0.3	382	384	17.8	73.8
2025-08-11T03:10	10	0	0.1	0	0	383	0.2	382	383	17.9	72.9
2025-08-11T03:11	10	0	0.1	0	0	383	0.3	382	384	17.9	72.6
2025-08-11T03:12	10	0	0.1	0	0	382	0.4	381	383	17.8	73.9
2025-08-11T03:13	10	0	0.1	0	0	382	0.2	382	383	17.6	74.7
2025-08-11T03:14	10	0	0.1	0	0	382	0.2	381	382	17.6	74.5
2025-08-11T03:15	10	0	0.1	0	0	382	0.2	381	382	17.7	74.2
2025-08-11T03:16	10	0	0.1	0	0	381	0.3	381	382	17.8	73.3
2025-08-11T03:17	10	0	0.1	0	0	381	0.4	380	382	17.8	73.4
2025-08-11T03:18	10	0	0.1	0	0	380	0.3	380	381	17.6	74.8
2025-08-11T03:19	10	0	0.1	0	0	380	0.3	379	381	17.4	75.4
2025-08-11T03:20	10	0	0.1	0	0	380	0.3	380	381	17.5	74.7
2025-08-11T03:21	10	0	0.1	0	0	380	0.3	379	380	17.6	74.4
2025-08-11T03:22	10	0	0.1	0	0	379	0.2	379	380	17.5	75.1
2025-08-11T03:23	10	0	0.1	0	0	379	0.3	378	380	17.3	76.1
2025-08-11T03:24	10	0	0.1	0	0	379	0.3	379	380	17.3	76.4
2025-08-11T03:25	10	0	0.1	0	0	379	0.3	378	380	17.3	76.1
2025-08-11T03:26	10	0	0.1	0	0	379	0.3	379	380	17.4	75.4
2025-08-11T03:27	10	0	0.1	0	0	379	0.2	379	380	17.4	75.5
2025-08-11T03:28	10	0	0.1	0	0	379	0.4	378	380	17.5	75.4
2025-08-11T03:29	10	0	0.1	0	0	379	0.2	378	379	17.2	77.1
2025-08-11T03:30	10	0	0.1	0	0	379	0.2	378	379	17.0	78.3
2025-08-11T03:31	10	0	0.1	0	0	379	0.3	378	379	16.9	79.1
2025-08-11T03:32	10	0	0.1	0	0	379	0.2	378	379	16.8	79.6
2025-08-11T03:33	10	0	0.1	0	0	379	0.4	378	379	16.8	79.6
2025-08-11T03:34	10	0	0.1	0	0	379	0.2	379	380	16.9	78.3
2025-08-11T03:35	10	0	0.1	0	0	379	0.3	379	380	17.1	77.3
2025-08-11T03:36	10	0	0.1	0	0	380	0.2	379	380	17.2	76.6
2025-08-11T03:37	10	0	0.1	0	0	380	0.4	379	381	17.2	76.6
2025-08-11T03:38	10	0	0.1	0	0	380	0.2	380	381	17.3	76.2
2025-08-11T03:39	10	0	0.1	0	0	380	0.2	380	381	17.3	76.2
2025-08-11T03:40	10	0	0.1	0	0	380	0.2	379	380	17.2	76.7
2025-08-11T03:41	10	0	0.1	0	0	380	0.3	379	380	17.3	76.6
2025-08-11T03:42	10	0	0.1	0	0	379	0.3	379	380	17.2	77.4
2025-08-11T03:43	10	0	0.1	0	0	379	0.2	379	380	17.1	78.2
2025-08-11T03:44	10	0	0.1	0	0	379	0.2	378	379	17.1	78.1
2025-08-11T03:45	10	0	0.1	0	0	379	0.2	378	379	17.1	78.0
2025-08-11T03:46	10	0	0.1	0	0	379	0.3	379	380	17.1	77.7
2025-08-11T03:47	10	0	0.1	0	0	379	0.3	378	380	17.1	77.1
2025-08-11T03:48	10	0	0.1	0	0	379	0.3	379	380	17.2	76.5
2025-08-11T03:49	10	0	0.0	0	0	380	0.3	379	380	17.3	76.0
2025-08-11T03:50	10	0	0.1	0	0	380	0.3	379	380	17.4	75.4
2025-08-11T03:51	10	0	0.1	0	0	380	0.2	379	380	17.4	75.6
2025-08-11T03:52	10	0	0.1	0	0	380	0.2	380	381	17.3	76.0
2025-08-11T03:53	10	0	0.1	0	0	380	0.3	379	381	17.3	76.4
2025-08-11T03:54	10	0	0.0	0	0	380	0.3	379	380	17.2	76.9
2025-08-11T03:55	10	0	0.1	0	0	380	0.3	379	380	17.1	77.0
2025-08-11T03:56	10	0	0.1	0	0	380	0.2	379	380	17.1	77.1
2025-08-11T03:57	10	0	0.1	0	0	379	0.2	379	380	17.1	77.8
2025-08-11T03:58	10	0	0.1	0	0	379	0.2	379	380	17.0	78.4
2025-08-11T03:59	10	0	0.0	0	0	380	0.2	379	380	16.9	78.6
2025-08-11T04:00	10	0	0.1	0	0	380	0.2	379	380	16.9	78.6
2025-08-11T04:01	10	0	0.1	0	0	379	0.2	379	380	16.9	78.6
2025-08-11T04:02	10	0	0.1	0	0	379	0.2	379	380	16.9	78.8
2025-08-11T04:03	10	0	0.0	0	0	379	0.2	378	379	16.8	79.1
2025-08-11T04:04	10	0	0.1	0	0	379	0.2	378	379	16.8	79.0
2025-08-11T04:05	10	0	0.0	0	0	379	0.2	378	380	16.8	78.9
2025-08-11T04:06	10	0	0.1	0	0	379	0.2	378	379	16.8	79.0
2025-08-11T04:07	10	0	0.0	0	0	379	0.2	378	379	16.8	79.1
2025-08-11T04:08	10	0	0.0	0	0	378	0.2	378	379	16.7	79.3
2025-08-11T04:09	10	0	0.0	0	0	378	0.2	378	379	16.8	79.3
2025-08-11T04:10	10	0	0.0	0	0	379	0.3	378	379	16.7	79.4
2025-08-11T04:11	10	0	0.0	0	0	379	0.2	378	379	16.7	79.6
2025-08-11T04:12	10	0	0.0	0	0	379	0.2	378	379	16.7	79.7
2025-08-11T04:13	10	0	0.1	0	0	379	0.2	379	379	16.7	79.8
2025-08-11T04:14	10	0	0.1	0	0	379	0.2	379	379	16.7	79.9
2025-08-11T04:15	10	0	0.1	0	1	378	0.2	378	379	16.6	80.4
2025-08-11T04:16	10	0	0.1	0	1	379	0.2	378	379	16.5	81.7
2025-08-11T04:17	10	0	0.1	0	0	379	0.4	378	380	16.5	81.2
2025-08-11T04:18	10	0	0.1	0	1	379	0.3	379	380	16.5	80.8
2025-08-11T04:19	10	0	0.1	0	1	380	0.2	380	380	16.5	80.7
2025-08-11T04:20	10	1	0.1	0	1	380	0.3	379	381	16.6	79.8
2025-08-11T04:21	10	1	0.1	0	1	380	0.2	380	381	16.7	79.8
2025-08-11T04:22	10	1	0.1	0	1	380	0.2	379	380	16.5	80.9
2025-08-11T04:23	10	1	0.1	1	1	379	0.3	379	380	16.3	82.0
2025-08-11T04:24	10	1	0.1	1	1	379	0.2	378	379	16.3	82.1
2025-08-11T04:25	10	1	0.1	1	1	379	0.3	378	380	16.2	82.5
2025-08-11T04:26	10	1	0.1	1	1	379	0.2	378	379	16.3	82.3
2025-08-11T04:27	10	1	0.1	1	1	379	0.2	378	379	16.4	81.3
2025-08-11T04:28	10	1	0.1	1	1	379	0.2	378	379	16.4	81.0
2025-08-11T04:29	10	1	0.1	1	1	378	0.2	378	379	16.5	80.7
2025-08-11T04:30	10	1	0.1	1	1	379	0.3	378	379	16.4	80.9
2025-08-11T04:31	10	1	0.1	1	1	379	0.2	378	379	16.4	81.3
2025-08-11T04:32	10	1	0.1	1	2	378	0.2	378	379	16.4	81.3
2025-08-11T04:33	10	1	0.1	1	2	379	0.2	378	379	16.4	81.0
2025-08-11T04:34	10	2	0.1	1	2	379	0.2	379	379	16.4	80.8
2025-08-11T04:35	10	2	0.1	2	2	379	0.2	378	379	16.5	80.7
2025-08-11T04:36	10	2	0.1	2	2	379	0.2	379	380	16.5	80.4
2025-08-11T04:37	10	2	0.1	2	2	380	0.3	379	380	16.6	80.2
2025-08-11T04:38	10	2	0.1	2	3	380	0.2	380	380	16.6	80.2
2025-08-11T04:39	10	2	0.2	2	3	380	0.3	380	381	16.6	80.1
2025-08-11T04:40	10	3	0.2	2	3	381	0.2	380	381	16.7	79.5
2025-08-11T04:41	10	3	0.1	3	3	381	0.2	380	381	16.8	79.2
2025-08-11T04:42	10	3	0.1	3	3	381	0.3	380	381	16.8	79.0
2025-08-11T04:43	10	3	0.2	3	4	381	0.3	380	382	16.9	78.7
2025-08-11T04:44	10	4	0.1	3	4	381	0.2	381	382	16.9	78.6
2025-08-11T04:45	10	4	0.2	4	5	381	0.2	380	381	16.9	78.8
2025-08-11T04:46	10	4	0.2	4	5	381	0.3	380	382	16.9	78.9
2025-08-11T04:47	10	5	0.2	4	5	381	0.2	381	382	16.9	78.7
2025-08-11T04:48	10	5	0.2	4	5	381	0.2	381	382	16.9	78.8
2025-08-11T04:49	10	5	0.2	5	6	381	0.3	380	382	16.8	79.4
2025-08-11T04:50	10	6	0.2	5	6	381	0.2	381	382	16.6	80.4
2025-08-11T04:51	10	6	0.2	6	6	381	0.2	381	382	16.5	81.4
2025-08-11T04:52	10	6	0.2	6	7	382	0.2	381	382	16.3	82.1
2025-08-11T04:53	10	7	0.2	6	7	382	0.2	381	382	16.3	82.5
2025-08-11T04:54	10	7	0.2	7	8	382	0.3	381	383	16.3	82.6
2025-08-11T04:55	10	8	0.2	7	8	382	0.4	382	383	16.3	82.2
2025-08-11T04:56	10	8	0.2	8	8	383	0.3	382	383	16.3	82.4
2025-08-11T04:57	10	8	0.2	8	9	383	0.3	382	384	16.3	82.1
2025-08-11T04:58	10	9	0.2	8	10	383	0.3	383	384	16.3	82.3
2025-08-11T04:59	10	9	0.3	9	10	384	0.3	383	384	16.3	82.3
2025-08-11T05:00	10	10	0.2	9	10	384	0.3	384	385	16.3	82.3
2025-08-11T05:01	10	10	0.2	10	11	384	0.2	384	385	16.3	82.5
2025-08-11T05:02	10	11	0.2	10	11	385	0.2	384	385	16.3	82.5
2025-08-11T05:03	10	11	0.3	11	12	385	0.3	384	386	16.3	82.5
2025-08-11T05:04	10	12	0.2	11	12	385	0.3	385	386	16.3	82.6
2025-08-11T05:05	10	12	0.2	12	13	386	0.3	385	386	16.2	82.8
2025-08-11T05:06	10	13	0.2	12	13	386	0.2	385	386	16.2	83.0
2025-08-11T05:07	10	13	0.2	13	14	386	0.3	385	387	16.2	82.9
2025-08-11T05:08	10	13	0.3	13	14	386	0.4	385	387	16.2	83.0
2025-08-11T05:09	10	14	0.2	14	15	387	0.2	386	387	16.3	82.8
2025-08-11T05:10	10	15	0.2	14	15	387	0.2	387	388	16.4	82.5
2025-08-11T05:11	10	15	0.3	14	16	387	0.2	387	388	16.4	82.3
2025-08-11T05:12	10	16	0.2	15	16	388	0.2	387	388	16.4	82.2
2025-08-11T05:13	10	17	0.8	16	19	388	0.4	387	389	16.3	82.5
2025-08-11T05:14	10	19	0.2	19	19	388	0.3	388	389	16.3	82.4
2025-08-11T05:15	10	18	0.3	17	19	389	0.3	388	390	16.4	82.3
2025-08-11T05:16	10	18	0.2	17	18	389	0.2	389	390	16.4	82.2
2025-08-11T05:17	10	18	0.2	17	18	390	0.2	389	390	16.5	81.9
2025-08-11T05:18	10	18	0.2	18	19	390	0.2	389	390	16.5	81.7
2025-08-11T05:19	10	19	0.2	18	19	390	0.2	390	391	16.6	81.6
2025-08-11T05:20	10	19	0.2	19	20	391	0.2	390	391	16.5	81.8
2025-08-11T05:21	10	20	0.3	19	21	391	0.3	390	392	16.6	81.3
2025-08-11T05:22	10	20	0.2	20	21	392	0.3	391	392	16.8	80.6
2025-08-11T05:23	10	21	0.2	20	21	392	0.2	392	393	16.9	79.6
2025-08-11T05:24	10	21	0.2	21	22	393	0.3	392	393	17.0	79.0
2025-08-11T05:25	10	22	0.2	21	22	393	0.2	393	394	17.0	78.8
2025-08-11T05:26	10	23	0.2	22	23	394	0.2	393	394	17.1	78.5
2025-08-11T05:27	10	23	0.2	23	23	394	0.2	394	395	17.1	78.7
2025-08-11T05:28	10	24	0.2	23	24	395	0.2	394	395	17.1	78.8
2025-08-11T05:29	10	24	0.2	24	25	395	0.2	394	396	17.1	79.4
2025-08-11T05:30	10	25	0.2	25	25	395	0.2	395	396	17.2	79.0
2025-08-11T05:31	10	26	0.2	25	26	395	0.2	395	396	17.2	78.5
2025-08-11T05:32	10	26	0.2	26	27	396	0.2	395	396	17.2	78.9
2025-08-11T05:33	10	27	0.2	27	27	396	0.3	395	397	17.1	79.1
2025-08-11T05:34	10	27	0.2	27	28	396	0.3	396	397	17.3	78.2
2025-08-11T05:35	10	28	0.2	28	28	397	0.3	396	397	17.4	77.6
2025-08-11T05:36	10	29	0.2	28	29	397	0.2	397	397	17.5	77.8
2025-08-11T05:37	10	29	0.2	29	30	397	0.2	397	398	17.4	78.2
2025-08-11T05:38	10	30	0.2	30	30	398	0.3	397	399	17.5	77.2
2025-08-11T05:39	10	30	0.2	30	31	399	0.2	398	399	17.5	76.9
2025-08-11T05:40	10	31	0.2	31	31	399	0.2	398	399	17.5	77.8
2025-08-11T05:41	10	31	0.2	31	32	399	0.3	399	400	17.5	76.8
2025-08-11T05:42	10	32	0.2	32	32	400	0.3	399	401	17.7	76.2
2025-08-11T05:43	10	32	0.2	32	33	401	0.2	400	401	17.7	76.6
2025-08-11T05:44	10	33	0.2	33	33	401	0.2	401	402	17.8	76.5
2025-08-11T05:45	10	33	0.2	33	34	402	0.2	401	402	17.8	75.7
2025-08-11T05:46	10	34	0.2	33	34	402	0.2	401	403	17.9	75.4
2025-08-11T05:47	10	34	0.2	34	35	402	0.2	402	403	17.9	75.4
2025-08-11T05:48	10	35	0.2	35	35	403	0.2	402	403	17.9	75.8
2025-08-11T05:49	10	35	0.2	35	36	403	0.2	402	403	17.9	76.3
2025-08-11T05:50	10	36	0.2	35	36	403	0.2	403	404	18.0	76.1
2025-08-11T05:51	10	36	0.2	36	37	404	0.2	403	404	18.0	75.0
2025-08-11T05:52	10	37	0.2	37	37	404	0.3	403	404	18.1	75.4
2025-08-11T05:53	10	38	0.2	37	38	404	0.2	404	405	18.1	75.2
2025-08-11T05:54	10	38	0.2	38	39	405	0.2	404	405	18.1	74.3
2025-08-11T05:55	10	39	0.2	39	40	405	0.2	404	405	18.2	74.1
2025-08-11T05:56	10	40	0.2	40	40	405	0.2	405	406	18.2	74.6
2025-08-11T05:57	10	41	0.2	40	41	405	0.2	405	406	18.2	74.5
2025-08-11T05:58	10	41	0.2	41	42	406	0.3	405	407	18.2	75.0
2025-08-11T05:59	10	42	0.2	41	42	406	0.2	406	407	18.3	73.9
2025-08-11T06:00	10	43	0.2	42	43	407	0.2	406	407	18.3	73.8
2025-08-11T06:01	10	43	0.2	43	44	407	0.3	407	408	18.3	75.3
2025-08-11T06:02	10	44	0.2	44	44	408	0.3	407	408	18.2	76.1
2025-08-11T06:03	10	45	0.2	44	45	408	0.2	407	408	18.2	75.7
2025-08-11T06:04	10	45	0.2	45	45	407	0.3	407	408	18.2	75.7
2025-08-11T06:05	10	46	0.2	45	46	407	0.2	407	408	18.1	74.5
2025-08-11T06:06	10	46	0.1	46	46	407	0.2	407	408	18.2	74.9
2025-08-11T06:07	10	46	0.2	46	47	408	0.2	407	408	18.1	74.3
2025-08-11T06:08	10	47	0.2	47	47	408	0.2	408	409	18.1	74.8
2025-08-11T06:09	10	48	0.2	47	48	409	0.3	408	409	18.2	74.1
2025-08-11T06:10	10	48	0.2	48	48	410	0.2	409	410	18.2	75.0
2025-08-11T06:11	10	49	0.2	48	49	410	0.2	409	410	18.2	75.3
2025-08-11T06:12	10	49	0.2	49	49	410	0.2	409	410	18.3	73.3
2025-08-11T06:13	10	50	0.2	49	50	410	0.2	410	411	18.3	74.2
2025-08-11T06:14	10	50	0.2	50	51	410	0.5	409	411	18.3	73.2
2025-08-11T06:15	10	51	0.2	51	51	412	0.4	411	412	18.4	73.7
2025-08-11T06:16	10	52	0.2	51	52	412	0.3	412	413	18.5	73.3
2025-08-11T06:17	10	52	0.2	52	52	413	0.4	412	413	18.5	73.4
2025-08-11T06:18	10	53	0.1	53	53	413	0.3	412	413	18.5	73.0
2025-08-11T06:19	10	53	0.1	53	54	413	0.2	412	413	18.4	73.8
2025-08-11T06:20	10	54	0.2	54	55	413	0.2	412	413	18.3	72.8
2025-08-11T06:21	10	55	0.2	54	55	414	0.2	413	414	18.4	72.9
2025-08-11T06:22	10	55	0.2	55	56	414	0.3	414	415	18.4	72.8
2025-08-11T06:23	10	56	0.2	56	56	415	0.3	414	416	18.5	72.9
2025-08-11T06:24	10	57	0.2	56	57	416	0.3	415	416	18.5	71.9
2025-08-11T06:25	10	57	0.2	57	58	416	0.2	416	416	18.6	72.2
2025-08-11T06:26	10	58	0.3	57	59	417	0.2	416	417	18.7	71.6
2025-08-11T06:27	10	58	0.2	58	59	417	0.2	416	417	18.9	71.1
2025-08-11T06:28	10	59	0.2	59	60	417	0.3	417	418	19.2	70.5
2025-08-11T06:29	10	60	0.3	59	61	418	0.3	417	419	19.2	70.1
2025-08-11T06:30	10	60	0.3	60	61	419	0.2	418	419	19.3	70.2
2025-08-11T06:31	10	61	0.3	60	61	419	0.3	418	420	19.5	70.0
2025-08-11T06:32	10	62	0.2	61	62	419	0.3	418	419	19.4	69.3
2025-08-11T06:33	10	62	0.2	62	63	419	0.2	419	420	19.3	69.1
2025-08-11T06:34	10	63	0.2	62	63	420	0.3	419	420	19.3	69.8
2025-08-11T06:35	10	63	0.2	63	64	420	0.2	420	420	19.4	69.9
2025-08-11T06:36	10	64	0.2	64	64	421	0.2	420	421	19.4	69.5
2025-08-11T06:37	10	64	0.2	64	65	421	0.2	420	421	19.3	69.1
2025-08-11T06:38	10	65	0.2	65	65	421	0.2	421	422	19.3	69.0
2025-08-11T06:39	10	66	0.2	65	66	422	0.2	421	422	19.5	68.7
2025-08-11T06:40	10	66	0.2	66	67	423	0.4	422	424	19.7	68.5
2025-08-11T06:41	10	67	0.1	67	67	423	0.3	423	424	19.6	69.0
2025-08-11T06:42	10	68	0.2	67	68	423	0.2	422	423	19.6	68.7
2025-08-11T06:43	10	68	0.2	68	69	423	0.3	423	424	19.5	69.2
2025-08-11T06:44	10	69	0.2	69	69	424	0.2	423	424	19.4	69.5
2025-08-11T06:45	10	70	0.2	69	70	425	0.5	424	426	19.4	69.4
2025-08-11T06:46	10	70	0.2	70	71	425	0.5	424	426	19.4	69.9
2025-08-11T06:47	10	71	0.2	71	71	424	0.3	424	425	19.4	69.3
2025-08-11T06:48	10	72	0.2	71	72	425	0.3	425	426	19.4	69.1
2025-08-11T06:49	10	72	0.2	72	73	425	0.3	425	426	19.4	68.3
2025-08-11T06:50	10	73	0.2	73	73	426	0.3	425	427	19.4	68.3
2025-08-11T06:51	10	73	0.2	73	74	426	0.4	426	427	19.5	68.5
2025-08-11T06:52	10	73	0.1	73	74	427	0.3	426	428	19.5	69.0
2025-08-11T06:53	10	74	0.2	73	74	427	0.3	427	428	19.5	68.7
2025-08-11T06:54	10	74	0.2	74	74	427	0.3	427	428	19.5	68.7
2025-08-11T06:55	10	75	0.1	74	75	428	0.3	427	429	19.5	68.8
2025-08-11T06:56	10	75	0.1	75	75	429	0.3	428	430	19.5	69.1
2025-08-11T06:57	10	75	0.1	75	76	429	0.5	428	430	19.5	68.5
2025-08-11T06:58	10	76	0.2	76	76	429	0.3	428	430	19.5	68.3
2025-08-11T06:59	10	76	0.2	76	77	430	0.2	429	430	19.5	68.2
2025-08-11T07:00	10	77	0.2	77	77	430	0.4	429	431	19.6	67.5
2025-08-11T07:01	10	77	0.1	77	78	430	0.2	430	431	19.6	67.4
2025-08-11T07:02	10	78	0.2	78	78	431	0.2	430	431	19.6	67.4
2025-08-11T07:03	10	78	0.2	78	79	432	0.5	431	432	19.6	67.4
2025-08-11T07:04	10	79	0.2	78	79	432	0.3	431	433	19.7	67.1
2025-08-11T07:05	10	79	0.2	79	80	433	0.4	433	434	19.8	67.1
2025-08-11T07:06	10	80	0.2	80	80	433	0.4	433	434	19.8	66.8
2025-08-11T07:07	10	81	0.2	80	81	433	0.1	433	434	19.7	66.8
2025-08-11T07:08	10	81	0.2	81	82	434	0.3	433	435	19.8	66.2
2025-08-11T07:09	10	82	0.2	81	82	434	0.3	434	435	19.9	66.6
2025-08-11T07:10	10	82	0.2	82	83	435	0.2	435	435	19.9	66.6
2025-08-11T07:11	10	83	0.3	82	84	435	0.2	435	436	19.8	66.3
2025-08-11T07:12	10	83	0.2	83	84	435	0.3	435	436	19.8	66.2
2025-08-11T07:13	10	84	0.2	83	84	436	0.3	435	437	19.9	65.8
2025-08-11T07:14	10	84	0.2	84	85	436	0.4	436	437	20.0	65.8
2025-08-11T07:15	10	85	0.2	85	85	438	0.3	437	438	20.0	65.5
2025-08-11T07:16	10	85	0.2	85	86	438	0.3	438	439	20.2	65.6
2025-08-11T07:17	10	86	0.2	86	86	438	0.5	437	439	20.1	64.6
2025-08-11T07:18	10	86	0.1	86	87	439	0.3	438	439	20.0	64.6
2025-08-11T07:19	10	87	0.2	87	87	439	0.3	438	440	20.1	64.7
2025-08-11T07:20	10	87	0.1	87	88	440	0.3	439	440	20.1	64.4
2025-08-11T07:21	10	88	0.1	87	88	440	0.3	439	441	20.2	64.3
2025-08-11T07:22	10	88	0.2	88	89	441	0.2	440	441	20.2	64.0
2025-08-11T07:23	10	89	0.2	88	89	441	0.3	441	442	20.2	65.1
2025-08-11T07:24	10	89	0.2	89	90	441	0.3	440	442	20.1	66.2
2025-08-11T07:25	10	90	0.2	90	90	441	0.3	441	442	20.2	65.9
2025-08-11T07:26	10	90	0.2	90	91	443	0.6	442	444	20.4	65.5
2025-08-11T07:27	10	91	0.1	90	91	444	0.2	443	444	20.6	65.0
2025-08-11T07:28	10	91	0.2	91	92	444	0.4	443	445	20.7	63.8
2025-08-11T07:29	10	92	0.2	91	92	444	0.3	443	444	20.8	63.0
2025-08-11T07:30	10	92	0.2	92	93	445	0.3	444	445	20.9	62.9
2025-08-11T07:31	10	93	0.1	92	93	445	0.2	445	446	20.6	63.7
2025-08-11T07:32	10	93	0.2	93	94	445	0.3	445	446	20.5	64.3
2025-08-11T07:33	10	94	0.1	94	94	446	0.2	446	447	20.5	64.1
2025-08-11T07:34	10	94	0.1	94	94	447	0.7	446	449	20.8	63.8
2025-08-11T07:35	10	95	0.2	94	95	448	0.5	447	449	20.9	63.1
2025-08-11T07:36	10	95	0.2	95	95	447	0.6	446	448	20.6	63.8
2025-08-11T07:37	10	95	0.1	95	96	447	0.3	446	447	20.5	64.1
2025-08-11T07:38	10	96	0.2	96	96	448	0.3	447	448	20.5	64.3
2025-08-11T07:39	10	96	0.1	96	97	449	0.4	448	450	20.6	64.2
2025-08-11T07:40	10	97	0.2	97	97	449	0.5	448	450	20.7	63.6
2025-08-11T07:41	10	97	0.2	97	98	450	0.3	449	451	20.9	63.4
2025-08-11T07:42	10	98	0.2	97	98	451	0.5	450	452	21.0	63.2
2025-08-11T07:43	10	98	0.2	98	99	451	0.7	449	452	21.0	63.2
2025-08-11T07:44	10	99	0.1	99	99	450	0.5	449	451	21.0	63.4
2025-08-11T07:45	10	99	0.2	99	100	449	0.3	449	450	20.8	63.3
2025-08-11T07:46	10	100	0.2	99	100	450	0.4	450	451	20.8	63.5
2025-08-11T07:47	10	100	0.2	100	100	452	0.5	451	453	21.1	63.5
2025-08-11T07:48	10	100	0.1	100	101	453	0.3	452	453	21.2	62.0
2025-08-11T07:49	10	101	0.2	101	101	454	0.4	453	454	21.4	61.4
2025-08-11T07:50	10	101	0.1	101	102	454	0.2	453	454	21.3	61.4
2025-08-11T07:51	10	102	0.1	101	102	455	0.6	454	456	21.3	62.1
2025-08-11T07:52	10	102	0.1	102	102	455	0.8	454	456	21.0	62.2
2025-08-11T07:53	10	102	0.1	102	103	454	0.4	454	455	21.0	62.8
2025-08-11T07:54	10	103	0.1	102	103	454	0.6	453	455	21.0	62.6
2025-08-11T07:55	10	103	0.1	103	103	453	0.5	452	455	20.8	63.2
2025-08-11T07:56	10	103	0.1	103	104	454	0.5	453	455	20.9	63.2
2025-08-11T07:57	10	104	0.1	103	104	455	0.3	454	455	20.8	63.2
2025-08-11T07:58	10	104	0.1	104	104	456	0.8	455	458	21.3	63.0
2025-08-11T07:59	10	104	0.2	104	105	458	0.4	457	458	21.3	62.0
2025-08-11T08:00	10	105	0.2	104	105	458	0.5	457	459	21.3	62.5
2025-08-11T08:01	10	105	0.2	105	106	457	1.0	456	459	21.4	62.2
2025-08-11T08:02	10	106	0.2	105	106	459	0.9	457	460	21.3	62.3
2025-08-11T08:03	10	106	0.2	106	107	460	0.8	458	461	21.4	61.8
2025-08-11T08:04	10	107	0.2	106	107	458	1.1	457	460	21.2	61.7
2025-08-11T08:05	10	107	0.3	106	108	459	0.3	458	460	21.1	62.4
2025-08-11T08:06	10	107	0.2	107	108	460	0.7	459	462	21.3	62.2
2025-08-11T08:07	10	108	0.2	107	108	459	0.4	459	460	21.2	62.1
2025-08-11T08:08	10	108	0.1	108	108	461	0.8	460	462	21.5	62.0
2025-08-11T08:09	10	108	0.2	108	109	461	0.9	459	462	21.4	61.8
2025-08-11T08:10	10	109	0.1	109	109	459	0.8	458	461	21.1	62.1
2025-08-11T08:11	10	109	0.1	109	109	462	1.0	460	464	21.4	62.0
2025-08-11T08:12	10	109	0.2	109	110	462	1.1	460	464	21.6	61.5
2025-08-11T08:13	10	110	0.1	110	110	461	0.8	460	463	21.2	62.2
2025-08-11T08:14	10	110	0.1	110	110	462	1.0	461	464	21.2	62.4
2025-08-11T08:15	10	110	0.1	110	111	461	0.6	460	463	21.1	62.8
2025-08-11T08:16	10	111	0.1	111	111	463	0.6	462	464	21.2	62.7
2025-08-11T08:17	10	111	0.2	111	111	465	0.6	463	466	21.6	62.1
2025-08-11T08:18	10	112	0.1	111	112	466	0.5	466	467	21.9	61.0
2025-08-11T08:19	10	112	0.1	112	112	466	0.3	466	467	21.8	61.2
2025-08-11T08:20	10	112	0.2	112	113	466	1.0	463	468	21.9	61.3
2025-08-11T08:21	10	113	0.1	113	113	465	0.6	463	466	21.7	62.1
2025-08-11T08:22	10	113	0.1	113	113	466	0.4	465	467	21.8	62.0
2025-08-11T08:23	10	113	0.1	113	113	467	0.5	466	468	22.0	61.7
2025-08-11T08:24	10	114	0.1	113	114	467	0.5	466	468	22.4	60.9
2025-08-11T08:25	10	114	0.1	114	114	468	0.4	467	468	22.1	60.8
2025-08-11T08:26	10	114	0.1	114	115	467	0.6	466	468	21.6	61.8
2025-08-11T08:27	10	115	0.1	114	115	468	1.0	466	470	21.7	62.1
2025-08-11T08:28	10	115	0.1	115	115	467	1.2	465	469	21.9	61.7
2025-08-11T08:29	10	115	0.1	115	115	468	0.8	467	470	21.8	62.0
2025-08-11T08:30	10	116	0.1	115	116	468	0.4	467	469	21.8	61.9
2025-08-11T08:31	10	116	0.1	116	116	470	0.4	469	471	21.8	62.0
2025-08-11T08:32	10	116	0.2	116	117	471	0.9	470	473	22.1	61.5
2025-08-11T08:33	10	117	0.1	116	117	472	1.2	469	474	22.3	60.6
2025-08-11T08:34	10	117	0.1	117	117	470	0.4	469	471	22.1	60.3
2025-08-11T08:35	10	118	0.1	117	118	473	1.0	471	475	22.4	60.6
2025-08-11T08:36	10	118	0.2	118	118	473	0.7	472	475	22.6	59.9
2025-08-11T08:37	10	118	0.2	118	119	473	0.3	472	474	22.4	60.0
2025-08-11T08:38	10	119	0.1	118	119	474	0.3	473	474	22.5	60.4
2025-08-11T08:39	10	119	0.1	119	119	476	0.9	474	477	22.7	59.9
2025-08-11T08:40	10	119	0.1	119	120	474	0.9	473	477	22.6	59.5
2025-08-11T08:41	10	120	0.1	119	120	475	0.3	475	476	22.4	60.1
2025-08-11T08:42	10	120	0.1	119	120	477	0.8	475	478	22.5	60.0
2025-08-11T08:43	10	120	0.1	120	120	476	0.5	475	477	22.5	59.7
2025-08-11T08:44	10	120	0.1	120	121	475	0.8	474	477	22.4	59.8
2025-08-11T08:45	10	121	0.1	120	121	473	1.3	472	476	22.2	60.3
2025-08-11T08:46	10	121	0.1	120	121	475	0.8	473	476	22.0	60.7
2025-08-11T08:47	10	121	0.2	121	122	476	0.4	475	476	22.3	60.2
2025-08-11T08:48	10	122	0.1	121	122	475	0.4	474	476	22.1	60.3
2025-08-11T08:49	10	122	0.2	122	122	478	1.1	475	479	22.5	60.0
2025-08-11T08:50	10	122	0.2	122	123	478	0.3	477	478	22.4	59.8
2025-08-11T08:51	10	123	0.2	122	123	479	0.5	478	480	22.4	59.7
2025-08-11T08:52	10	123	0.2	123	123	480	0.4	480	481	22.7	58.9
2025-08-11T08:53	10	123	0.2	123	124	479	0.4	479	480	22.6	58.9
2025-08-11T08:54	10	124	0.2	123	124	479	0.5	478	480	22.7	59.2
2025-08-11T08:55	10	124	0.1	124	124	480	1.4	478	482	23.3	59.2
2025-08-11T08:56	10	124	0.1	124	124	480	1.0	479	482	23.0	58.6
2025-08-11T08:57	10	124	0.2	124	125	480	0.7	479	481	22.6	59.5
2025-08-11T08:58	10	125	0.1	124	125	480	0.4	480	481	22.8	59.0
2025-08-11T08:59	10	125	0.1	125	125	482	0.4	481	483	22.8	59.2
2025-08-11T09:00	10	125	0.2	125	126	481	1.6	479	483	22.7	58.9
2025-08-11T09:01	10	125	0.2	125	126	481	1.0	479	483	22.7	58.9
2025-08-11T09:02	10	126	0.2	125	126	483	0.3	482	484	23.1	58.4
2025-08-11T09:03	10	126	0.3	126	127	484	1.3	483	487	23.1	57.5
2025-08-11T09:04	10	127	0.1	126	127	483	1.9	481	487	23.2	57.1
2025-08-11T09:05	10	127	0.1	127	127	482	0.7	480	482	23.0	57.6
2025-08-11T09:06	10	127	0.1	127	127	479	0.6	478	481	22.6	58.3
2025-08-11T09:07	10	127	0.1	127	128	481	0.6	479	481	22.6	58.3
2025-08-11T09:08	10	127	0.1	127	128	479	0.4	478	480	22.4	58.6
2025-08-11T09:09	10	128	0.1	127	128	481	1.0	479	483	22.9	58.0
2025-08-11T09:10	10	128	0.2	127	128	483	0.8	482	484	23.1	57.4
2025-08-11T09:11	10	128	0.2	128	129	486	0.8	484	487	23.0	57.3
2025-08-11T09:12	10	129	0.2	128	129	485	0.5	485	487	23.0	57.1
2025-08-11T09:13	10	129	0.1	129	129	486	0.5	485	487	23.0	57.3
2025-08-11T09:14	10	129	0.1	129	130	484	0.3	483	485	22.9	57.6
2025-08-11T09:15	10	129	0.1	129	130	484	0.3	483	485	23.0	57.5
2025-08-11T09:16	10	130	0.1	129	130	484	0.8	483	486	22.9	56.4
2025-08-11T09:17	10	130	0.1	130	130	484	0.8	483	486	23.0	57.4
2025-08-11T09:18	10	130	0.1	130	130	486	1.0	485	488	23.0	57.4
2025-08-11T09:19	10	130	0.1	130	131	486	1.1	485	489	23.0	57.4
2025-08-11T09:20	10	131	0.1	130	131	488	1.0	486	490	23.0	57.4
2025-08-11T09:21	10	131	0.1	131	131	488	1.1	486	491	23.0	57.4
2025-08-11T09:22	10	131	0.1	131	131	486	1.3	485	489	23.0	57.4
2025-08-11T09:23	10	131	0.1	131	132	489	0.3	488	489	23.0	57.4
2025-08-11T09:24	10	132	0.2	131	132	490	0.6	489	491	23.4	57.0
2025-08-11T09:25	10	132	0.1	132	132	491	0.5	490	493	23.7	56.9
2025-08-11T09:26	10	132	0.1	132	132	490	1.2	489	493	23.7	56.5
2025-08-11T09:27	10	133	0.2	132	133	491	0.4	490	492	23.5	56.7
2025-08-11T09:28	10	133	0.1	133	133	493	0.8	491	494	23.6	56.8
2025-08-11T09:29	10	133	0.1	133	133	493	0.5	492	494	23.9	56.1
2025-08-11T09:30	10	133	0.1	133	134	494	0.6	493	496	24.0	55.7
2025-08-11T09:31	10	134	0.1	133	134	496	0.8	493	497	24.3	54.8
2025-08-11T09:32	10	134	0.1	134	134	492	0.9	490	494	23.8	55.4
2025-08-11T09:33	10	134	0.1	134	134	489	0.5	488	490	23.3	56.5
2025-08-11T09:34	10	134	0.1	134	134	491	0.3	490	491	23.2	57.0
2025-08-11T09:35	10	134	0.1	134	134	492	0.8	491	494	23.2	56.9
2025-08-11T09:36	10	135	0.2	134	135	494	0.4	493	495	23.4	56.5
2025-08-11T09:37	10	135	0.2	135	135	495	0.3	494	495	23.8	55.1
2025-08-11T09:38	10	135	0.1	135	135	496	0.6	495	497	24.0	55.0
2025-08-11T09:39	10	135	0.1	135	136	496	1.2	494	498	24.1	55.3
2025-08-11T09:40	10	135	0.1	135	136	494	1.8	491	498	24.2	55.3
2025-08-11T09:41	10	136	0.1	135	136	495	0.9	494	497	23.9	56.1
2025-08-11T09:42	10	136	0.1	135	136	497	0.7	496	499	24.0	55.7
2025-08-11T09:43	10	136	0.1	136	136	498	0.6	497	499	24.2	55.7
2025-08-11T09:44	10	136	0.1	136	136	496	2.0	493	499	24.1	55.4
2025-08-11T09:45	10	136	0.1	136	136	496	1.2	494	498	23.8	55.8
2025-08-11T09:46	10	136	0.1	136	137	499	0.6	498	500	24.0	55.7
2025-08-11T09:47	10	137	0.1	136	137	500	0.5	499	501	24.2	55.4
2025-08-11T09:48	10	137	0.1	137	137	502	0.3	501	502	24.7	54.4
2025-08-11T09:49	10	137	0.1	137	137	498	1.3	497	502	24.6	54.3
2025-08-11T09:50	10	137	0.1	137	137	497	2.0	493	500	24.3	54.7
2025-08-11T09:51	10	137	0.1	137	137	496	0.6	494	497	24.1	55.3
2025-08-11T09:52	10	137	0.1	137	137	498	0.6	496	499	24.3	55.1
2025-08-11T09:53	10	137	0.1	137	138	496	0.9	495	498	23.9	55.7
2025-08-11T09:54	10	138	0.1	137	138	499	1.4	496	501	23.9	56.1
2025-08-11T09:55	10	138	0.2	138	138	500	1.1	499	502	24.4	55.7
2025-08-11T09:56	10	138	0.1	138	138	500	0.5	499	501	24.3	55.3
2025-08-11T09:57	10	138	0.1	138	138	501	0.5	499	501	24.5	54.7
2025-08-11T09:58	10	138	0.1	138	139	499	1.1	498	502	24.4	54.7
2025-08-11T09:59	10	139	0.2	138	139	502	1.0	501	505	24.8	54.0
2025-08-11T10:00	10	139	0.1	139	139	500	1.2	497	503	24.7	54.1
2025-08-11T10:01	10	139	0.1	139	140	499	1.1	498	502	24.3	54.9
2025-08-11T10:02	10	139	0.1	139	139	502	0.6	501	503	24.7	54.5
2025-08-11T10:03	10	139	0.1	139	140	502	0.5	501	503	24.5	54.1
2025-08-11T10:04	10	140	0.1	139	140	503	1.3	500	504	24.4	54.6
2025-08-11T10:05	10	140	0.1	140	140	501	0.5	500	502	24.0	55.0
2025-08-11T10:06	10	140	0.1	140	140	504	1.3	501	505	24.3	54.9
2025-08-11T10:07	10	140	0.1	140	141	505	0.9	502	506	24.4	54.3
2025-08-11T10:08	10	141	0.1	140	141	503	1.0	501	505	24.4	54.4
2025-08-11T10:09	10	141	0.1	140	141	503	1.1	501	505	24.4	54.9
2025-08-11T10:10	10	141	0.1	141	141	502	1.2	500	504	24.3	54.6
2025-08-11T10:11	10	141	0.1	141	141	505	0.8	503	506	24.5	54.4
2025-08-11T10:12	10	141	0.1	141	141	502	1.1	500	505	24.6	54.0
2025-08-11T10:13	10	141	0.1	141	141	500	1.7	498	504	24.6	54.4
2025-08-11T10:14	10	141	0.1	141	141	499	1.0	497	501	24.5	54.7
2025-08-11T10:15	10	141	0.1	141	141	503	0.8	501	505	24.5	54.9
2025-08-11T10:16	10	142	0.1	141	142	505	0.8	502	506	24.6	54.8
2025-08-11T10:17	10	142	0.1	142	142	503	0.6	502	504	24.6	54.6
2025-08-11T10:18	10	142	0.1	142	142	505	1.2	503	507	24.9	54.2
2025-08-11T10:19	10	142	0.1	142	142	505	0.8	504	507	25.0	53.8
2025-08-11T10:20	10	142	0.1	142	142	505	0.4	504	506	24.6	54.4
2025-08-11T10:21	10	142	0.1	142	143	507	1.6	505	510	24.7	54.6
2025-08-11T10:22	10	143	0.1	143	143	509	0.8	508	510	24.9	54.0
2025-08-11T10:23	10	143	0.1	143	143	510	0.6	509	511	25.1	53.6
2025-08-11T10:24	10	143	0.1	143	143	511	0.5	510	512	25.2	53.4
2025-08-11T10:25	10	143	0.1	143	143	512	0.8	510	514	25.5	53.4
2025-08-11T10:26	10	143	0.2	143	143	509	0.8	508	511	25.4	53.3
2025-08-11T10:27	10	143	0.1	143	143	510	1.0	508	512	25.4	53.5
2025-08-11T10:28	10	143	0.1	143	143	509	1.5	507	512	25.3	53.1
2025-08-11T10:29	10	143	0.1	143	143	507	1.1	505	509	24.9	53.9
2025-08-11T10:30	10	143	0.1	143	143	508	0.9	507	510	24.8	54.5
2025-08-11T10:31	10	143	0.1	143	143	509	1.5	507	512	25.0	54.1
2025-08-11T10:32	10	143	0.1	143	143	510	0.9	508	511	25.0	54.3
2025-08-11T10:33	10	143	0.1	143	143	508	0.9	507	510	25.1	53.8
2025-08-11T10:34	10	143	0.1	143	144	508	0.9	507	510	25.0	54.2
2025-08-11T10:35	10	143	0.1	143	144	507	0.8	505	509	25.1	53.9
2025-08-11T10:36	10	144	0.2	143	144	505	0.9	504	508	25.0	54.0
2025-08-11T10:37	10	143	0.2	143	144	504	0.9	502	505	24.8	54.4
2025-08-11T10:38	10	143	0.1	143	143	506	0.8	504	507	25.3	53.6
2025-08-11T10:39	10	143	0.1	143	143	507	1.3	505	509	25.3	53.5
2025-08-11T10:40	10	144	0.2	143	144	509	2.5	506	513	25.1	54.1
2025-08-11T10:41	10	144	0.1	144	144	509	1.2	508	513	25.2	53.7
2025-08-11T10:42	10	144	0.1	144	145	512	0.5	511	513	25.1	54.0
2025-08-11T10:43	10	145	0.1	144	145	512	1.6	510	514	25.1	54.2
2025-08-11T10:44	10	145	0.1	145	145	509	1.2	507	512	24.9	54.5
2025-08-11T10:45	10	145	0.1	145	145	509	1.1	507	511	25.0	54.3
2025-08-11T10:46	10	145	0.1	144	145	508	1.0	507	511	25.3	53.7
2025-08-11T10:47	10	145	0.1	145	145	509	2.1	506	512	25.6	52.8
2025-08-11T10:48	10	145	0.1	145	145	507	0.6	506	509	25.0	54.1
2025-08-11T10:49	10	145	0.1	145	145	509	0.5	508	511	25.1	54.1
2025-08-11T10:50	10	145	0.1	145	146	511	1.2	509	513	25.3	53.8
2025-08-11T10:51	10	145	0.1	145	146	512	1.1	509	514	25.4	53.6
2025-08-11T10:52	10	146	0.2	145	146	513	2.3	509	517	25.8	53.0
2025-08-11T10:53	10	146	0.1	146	146	515	1.9	512	518	26.2	51.9
2025-08-11T10:54	10	146	0.1	146	146	512	0.7	511	514	25.7	52.7
2025-08-11T10:55	10	146	0.1	146	146	514	1.5	512	517	25.6	53.1
2025-08-11T10:56	10	146	0.1	146	146	518	1.0	516	519	25.7	52.8
2025-08-11T10:57	10	146	0.1	146	147	517	0.5	516	518	25.7	52.8
2025-08-11T10:58	10	146	0.1	146	147	517	0.4	517	519	25.8	52.9
2025-08-11T10:59	10	146	0.1	146	147	517	1.6	514	520	25.9	52.5
2025-08-11T11:00	10	147	0.1	146	147	513	0.9	512	515	25.5	53.1
2025-08-11T11:01	10	147	0.1	146	147	516	1.0	515	518	25.7	52.7
2025-08-11T11:02	10	147	0.1	146	147	519	0.9	517	520	25.9	52.4
2025-08-11T11:03	10	147	0.1	146	147	518	0.4	517	519	25.7	52.7
2025-08-11T11:04	10	147	0.1	146	147	518	1.2	517	520	26.0	52.1
2025-08-11T11:05	10	147	0.1	146	147	517	1.5	514	519	25.8	52.7
2025-08-11T11:06	10	146	0.1	146	146	516	0.8	515	518	26.0	52.6
2025-08-11T11:07	10	146	0.1	146	147	518	0.5	517	519	26.4	52.0
2025-08-11T11:08	10	147	0.1	146	147	518	0.5	517	519	26.3	52.0
2025-08-11T11:09	10	147	0.1	146	147	516	0.7	515	518	26.6	51.0
2025-08-11T11:10	10	146	0.1	146	147	518	1.1	516	520	26.1	51.7
2025-08-11T11:11	10	147	0.1	146	147	521	0.6	519	522	26.3	52.1
2025-08-11T11:12	10	147	0.1	146	147	520	1.5	518	523	26.5	51.3
2025-08-11T11:13	10	147	0.1	146	147	520	1.1	518	522	26.2	51.8
2025-08-11T11:14	10	147	0.1	147	147	518	0.7	517	520	26.0	52.2
2025-08-11T11:15	10	147	0.1	147	147	518	2.7	514	521	26.3	52.0
2025-08-11T11:16	10	147	0.2	146	147	514	1.0	513	516	26.1	52.2
2025-08-11T11:17	10	147	0.2	147	148	518	1.1	517	521	26.1	52.4
2025-08-11T11:18	10	147	0.2	146	147	520	0.9	518	521	26.2	52.2
2025-08-11T11:19	10	147	0.2	147	148	519	1.5	517	522	26.1	52.0
2025-08-11T11:20	10	147	0.2	147	148	519	0.5	518	520	25.9	52.4
2025-08-11T11:21	10	147	0.2	147	148	521	1.3	519	523	26.1	52.2
2025-08-11T11:22	10	147	0.1	147	148	522	1.0	520	524	26.3	51.8
2025-08-11T11:23	10	147	0.2	147	148	518	0.8	516	520	26.2	51.9
2025-08-11T11:24	10	147	0.2	147	148	517	0.8	516	519	26.2	51.9
2025-08-11T11:25	10	147	0.2	147	148	514	2.0	510	517	26.0	52.2
2025-08-11T11:26	10	147	0.2	147	148	515	2.1	511	518	26.1	52.2
2025-08-11T11:27	10	147	0.2	147	148	518	0.9	517	520	26.4	51.5
2025-08-11T11:28	10	147	0.2	147	148	519	1.6	517	522	25.9	52.5
2025-08-11T11:29	10	147	0.2	147	148	522	1.7	519	524	26.3	52.1
2025-08-11T11:30	10	148	0.2	147	148	518	0.6	517	519	26.1	52.3
2025-08-11T11:31	10	148	0.1	148	148	520	0.9	519	522	26.4	52.0
2025-08-11T11:32	10	148	0.1	148	148	519	1.6	517	522	26.2	52.2
2025-08-11T11:33	10	148	0.1	148	148	522	1.0	521	525	26.5	51.8
2025-08-11T11:34	10	148	0.2	148	148	524	1.3	521	526	26.6	51.1
2025-08-11T11:35	10	148	0.2	148	149	523	0.8	521	524	27.0	50.9
2025-08-11T11:36	10	148	0.1	148	148	523	0.8	522	524	26.7	50.6
2025-08-11T11:37	10	148	0.1	148	148	523	0.4	523	524	26.6	51.0
2025-08-11T11:38	10	151	0.1	151	151	526	1.2	524	528	26.8	51.1
2025-08-11T11:39	10	148	0.1	148	149	521	2.6	517	525	26.8	50.5
2025-08-11T11:40	10	148	0.1	148	148	519	1.6	517	521	26.5	51.2
2025-08-11T11:41	10	148	0.1	148	148	520	2.0	517	523	26.6	51.1
2025-08-11T11:42	10	148	0.1	148	148	522	1.5	520	524	26.7	51.1
2025-08-11T11:43	10	148	0.1	148	148	522	1.4	520	524	26.9	50.6
2025-08-11T11:44	10	148	0.1	148	148	522	0.5	522	523	27.1	50.2
2025-08-11T11:45	10	149	0.1	148	149	524	0.8	522	525	26.8	50.6
2025-08-11T11:46	10	151	0.1	151	151	527	1.9	523	529	27.2	49.8
2025-08-11T11:47	10	149	0.1	149	149	523	1.6	520	527	26.9	50.3
2025-08-11T11:48	10	149	0.1	148	149	521	1.6	518	524	26.9	50.5
2025-08-11T11:49	10	149	0.1	148	149	520	1.6	517	522	26.5	51.1
2025-08-11T11:50	10	148	0.1	148	149	524	0.7	522	526	26.5	51.4
2025-08-11T11:51	10	149	0.1	148	149	525	0.9	524	527	26.6	51.3
2025-08-11T11:52	10	149	0.1	148	149	524	0.9	523	526	26.8	50.8
2025-08-11T11:53	10	149	0.1	148	149	526	1.6	522	528	27.3	49.9
2025-08-11T11:54	10	149	0.1	149	149	521	1.1	519	523	27.0	50.1
2025-08-11T11:55	10	149	0.1	149	149	525	1.1	523	527	26.8	50.5
2025-08-11T11:56	10	151	0.1	151	152	528	0.7	527	529	27.0	50.2
2025-08-11T11:57	10	152	0.1	151	152	529	1.7	524	532	27.8	48.6
2025-08-11T11:58	10	149	0.1	149	149	524	1.0	523	526	27.6	49.0
2025-08-11T11:59	10	149	0.1	149	149	525	1.6	523	528	27.3	49.5
2025-08-11T12:00	10	151	0.1	151	152	528	1.5	525	530	27.7	49.3
2025-08-11T12:01	10	149	0.1	149	149	523	1.2	521	525	27.3	49.8
2025-08-11T12:02	10	149	0.1	149	149	524	0.5	523	525	27.3	49.9
2025-08-11T12:03	10	149	0.1	149	149	526	1.4	524	529	27.3	50.0
2025-08-11T12:04	10	151	0.1	151	152	530	0.8	528	532	27.9	49.1
2025-08-11T12:05	10	149	0.1	149	149	528	1.3	527	531	27.9	49.0
2025-08-11T12:06	10	149	0.1	149	149	527	1.0	525	529	27.7	49.4
2025-08-11T12:07	10	149	0.1	149	149	526	0.7	525	527	28.0	48.8
2025-08-11T12:08	10	149	0.1	149	149	524	1.6	522	526	27.3	49.5
2025-08-11T12:09	10	149	0.1	149	149	524	1.3	521	526	27.3	49.8
2025-08-11T12:10	10	149	0.1	148	149	522	0.7	521	524	27.0	50.2
2025-08-11T12:11	10	149	0.1	149	149	523	1.2	522	526	27.1	50.3
2025-08-11T12:12	10	149	0.1	148	149	525	0.7	524	527	27.2	50.0
2025-08-11T12:13	10	149	0.1	148	149	528	1.4	526	531	27.6	49.1
2025-08-11T12:14	10	149	0.2	148	149	529	1.7	526	531	27.5	49.6
2025-08-11T12:15	10	149	0.1	149	149	528	2.4	523	531	27.9	48.7
2025-08-11T12:16	10	149	0.1	149	149	524	0.4	523	525	27.4	49.8
2025-08-11T12:17	10	149	0.1	149	149	524	1.1	523	527	27.3	50.1
2025-08-11T12:18	10	149	0.1	149	149	527	0.6	526	529	27.5	49.3
2025-08-11T12:19	10	149	0.1	149	149	530	1.4	528	533	27.7	49.3
2025-08-11T12:20	10	149	0.1	149	149	531	1.3	529	533	28.2	48.4
2025-08-11T12:21	10	149	0.1	149	149	531	0.9	530	533	27.8	48.7
2025-08-11T12:22	10	149	0.1	149	149	532	0.8	531	534	28.0	49.0
2025-08-11T12:23	10	149	0.1	149	149	532	0.8	530	533	28.1	48.4
2025-08-11T12:24	10	149	0.1	149	149	529	1.0	528	531	27.8	48.7
2025-08-11T12:25	10	149	0.1	149	149	528	0.6	527	529	27.6	49.1
2025-08-11T12:26	10	149	0.1	149	149	530	1.2	528	532	27.7	49.0
2025-08-11T12:27	10	148	0.1	148	149	531	0.9	529	532	28.2	48.1
2025-08-11T12:28	10	148	0.1	148	149	527	1.9	525	532	27.7	48.6
2025-08-11T12:29	10	148	0.1	148	148	531	2.2	527	534	28.0	48.7
2025-08-11T12:30	10	148	0.2	147	148	532	0.3	532	533	28.4	47.7
2025-08-11T12:31	10	148	0.2	147	148	532	0.8	531	534	28.1	48.1
2025-08-11T12:32	10	147	0.2	147	148	532	1.3	530	534	28.3	48.2
2025-08-11T12:33	10	147	0.2	147	148	533	0.5	532	534	28.7	47.9
2025-08-11T12:34	10	147	0.2	147	147	530	2.4	527	534	28.2	48.0
2025-08-11T12:35	10	147	0.3	146	147	531	0.7	529	532	28.1	48.5
2025-08-11T12:36	10	146	0.2	146	147	531	0.8	529	532	28.5	47.8
2025-08-11T12:37	10	146	0.2	145	146	530	0.6	528	531	29.1	46.7
2025-08-11T12:38	10	146	0.1	146	146	528	0.8	526	530	28.5	47.6
2025-08-11T12:39	10	146	0.2	145	146	526	0.6	525	527	28.1	48.4
2025-08-11T12:40	10	145	0.1	145	146	530	1.0	528	532	28.5	47.8
2025-08-11T12:41	10	145	0.1	145	146	529	0.9	528	531	28.0	48.3
2025-08-11T12:42	10	145	0.2	145	145	530	1.0	529	532	28.2	48.2
2025-08-11T12:43	10	145	0.1	145	145	530	1.5	528	533	28.4	48.0
2025-08-11T12:44	10	145	0.1	144	145	532	0.9	530	534	28.5	47.8
2025-08-11T12:45	10	145	0.1	144	145	528	1.3	526	530	28.2	48.2
2025-08-11T12:46	10	144	0.1	144	144	530	0.6	528	531	28.7	47.4
2025-08-11T12:47	10	144	0.1	144	144	529	0.6	528	530	28.4	47.3
2025-08-11T12:48	10	144	0.1	144	144	530	0.6	529	531	28.0	47.8
2025-08-11T12:49	10	144	0.1	144	144	531	0.7	530	532	28.3	47.6
2025-08-11T12:50	10	144	0.1	143	144	533	0.6	532	534	28.6	47.7
2025-08-11T12:51	10	143	0.2	143	144	534	0.6	533	535	29.0	47.1
2025-08-11T12:52	10	143	0.2	143	144	535	0.4	534	536	29.2	46.6
2025-08-11T12:53	10	143	0.1	143	143	531	1.2	529	534	28.5	47.1
2025-08-11T12:54	10	143	0.2	142	143	528	0.5	527	530	28.3	47.8
2025-08-11T12:55	10	143	0.2	142	143	527	0.9	525	529	28.6	47.2
2025-08-11T12:56	10	142	0.2	142	143	528	1.6	525	531	28.5	47.7
2025-08-11T12:57	10	142	0.1	142	142	530	1.5	526	532	28.8	47.0
2025-08-11T12:58	10	142	0.1	142	142	528	0.4	527	529	28.4	47.5
2025-08-11T12:59	10	142	0.1	142	142	529	2.2	525	532	28.7	47.1
2025-08-11T13:00	10	142	0.1	141	142	525	1.1	523	527	28.4	47.8
2025-08-11T13:01	10	142	0.1	141	142	527	2.7	523	531	28.5	47.7
2025-08-11T13:02	10	141	0.1	141	142	528	0.9	526	530	28.6	47.5
2025-08-11T13:03	10	141	0.1	141	142	526	0.6	526	528	28.4	47.6
2025-08-11T13:04	10	142	0.1	141	142	529	1.1	527	531	28.3	47.8
2025-08-11T13:05	10	141	0.1	141	142	532	1.0	530	533	28.8	47.7
2025-08-11T13:06	10	141	0.1	141	141	528	1.0	526	530	28.8	47.6
2025-08-11T13:07	10	141	0.1	141	141	528	1.7	526	532	29.1	46.9
2025-08-11T13:08	10	141	0.1	141	141	530	1.7	527	533	28.9	46.9
2025-08-11T13:09	10	141	0.1	140	141	532	1.0	530	534	29.4	46.5
2025-08-11T13:10	10	141	0.1	140	141	532	0.8	530	533	29.5	45.8
2025-08-11T13:11	10	140	0.2	140	141	527	1.3	526	531	28.9	46.4
2025-08-11T13:12	10	140	0.1	140	140	529	0.8	527	530	28.9	46.6
2025-08-11T13:13	10	140	0.1	140	140	530	1.1	528	531	29.0	47.2
2025-08-11T13:14	10	140	0.2	139	140	532	0.9	531	534	29.5	47.0
2025-08-11T13:15	10	140	0.2	139	140	533	1.6	530	534	29.6	45.9
2025-08-11T13:16	10	140	0.3	139	140	528	0.7	527	531	29.0	46.6
2025-08-11T13:17	10	139	0.2	139	140	528	0.8	527	529	29.0	46.9
2025-08-11T13:18	10	140	0.2	139	140	529	0.5	528	530	29.0	46.9
2025-08-11T13:19	10	139	0.2	139	140	531	0.7	530	532	29.0	46.7
2025-08-11T13:20	10	139	0.2	139	140	527	2.5	524	532	29.0	46.6
2025-08-11T13:21	10	139	0.3	138	140	523	1.9	521	526	28.9	46.7
2025-08-11T13:22	10	138	0.2	138	139	525	2.2	522	529	28.7	47.1
2025-08-11T13:23	10	138	0.1	138	138	529	1.0	527	531	29.0	47.0
2025-08-11T13:24	10	138	0.1	138	138	529	1.5	527	532	29.2	46.7
2025-08-11T13:25	10	138	0.1	138	138	527	1.8	525	531	29.0	46.5
2025-08-11T13:26	10	138	0.1	138	138	526	0.4	525	527	29.1	46.2
2025-08-11T13:27	10	138	0.1	138	138	527	0.6	526	528	28.9	46.6
2025-08-11T13:28	10	138	0.1	137	138	526	2.7	522	530	29.1	46.2
2025-08-11T13:29	10	138	0.1	137	138	524	1.3	521	525	29.2	46.4
2025-08-11T13:30	10	137	0.1	137	138	527	2.0	525	531	29.2	46.6
2025-08-11T13:31	10	137	0.1	137	137	532	0.8	530	534	29.8	45.8
2025-08-11T13:32	10	137	0.1	137	137	528	2.7	524	532	29.3	46.1
2025-08-11T13:33	10	137	0.2	137	137	528	1.3	525	530	29.4	46.8
2025-08-11T13:34	10	136	0.1	136	137	527	0.7	526	529	29.6	45.9
2025-08-11T13:35	10	136	0.1	136	136	528	0.6	527	529	29.2	46.4
2025-08-11T13:36	10	136	0.1	136	136	529	0.8	527	530	29.2	46.5
2025-08-11T13:37	10	136	0.1	136	136	528	1.0	526	530	29.3	46.4
2025-08-11T13:38	10	136	0.1	135	136	526	0.9	525	528	29.2	46.2
2025-08-11T13:39	10	136	0.1	135	136	527	1.3	525	529	29.0	46.6
2025-08-11T13:40	10	135	0.2	135	136	528	1.5	525	530	29.1	46.3
2025-08-11T13:41	10	135	0.2	134	135	528	0.9	526	529	29.3	45.9
2025-08-11T13:42	10	134	0.1	134	135	528	1.1	527	531	29.4	45.9
2025-08-11T13:43	10	134	0.1	134	134	525	1.7	522	528	29.3	46.1
2025-08-11T13:44	10	134	0.1	134	134	524	1.2	521	526	29.3	46.3
2025-08-11T13:45	10	134	0.1	133	134	526	1.0	524	527	29.4	46.3
2025-08-11T13:46	10	134	0.1	133	134	528	1.0	526	530	29.7	46.0
2025-08-11T13:47	10	133	0.1	133	134	529	0.8	528	531	29.7	45.3
2025-08-11T13:48	10	133	0.3	132	133	528	0.9	526	529	29.6	45.1
2025-08-11T13:49	10	132	0.2	132	133	522	1.9	520	527	29.2	45.0
2025-08-11T13:50	10	132	0.1	132	132	521	1.0	519	523	28.9	45.3
2025-08-11T13:51	10	132	0.2	131	132	522	1.2	520	524	29.1	45.3
2025-08-11T13:52	10	131	0.2	131	132	524	1.0	522	525	29.3	45.2
2025-08-11T13:53	10	131	0.1	131	131	522	1.0	520	524	29.1	45.4
2025-08-11T13:54	10	131	0.1	131	131	525	2.0	522	527	29.3	45.7
2025-08-11T13:55	10	131	0.1	131	131	522	1.5	519	525	29.2	45.8
2025-08-11T13:56	10	131	0.1	130	131	523	1.9	520	526	29.0	46.2
2025-08-11T13:57	10	130	0.1	130	131	524	1.8	521	526	29.3	45.5
2025-08-11T13:58	10	130	0.1	130	130	521	1.0	519	524	29.4	45.2
2025-08-11T13:59	10	130	0.1	130	130	521	0.6	520	522	29.2	45.7
2025-08-11T14:00	10	130	0.1	129	130	522	1.1	520	525	29.1	45.8
2025-08-11T14:01	10	129	0.1	129	130	524	0.9	522	525	29.2	45.6
2025-08-11T14:02	10	129	0.1	129	130	524	1.9	521	527	29.3	45.5
2025-08-11T14:03	10	129	0.1	129	129	524	1.1	522	525	29.6	44.8
2025-08-11T14:04	10	129	0.1	128	129	520	1.4	518	522	29.5	45.4
2025-08-11T14:05	10	129	0.1	128	129	520	1.4	518	522	29.4	45.7
2025-08-11T14:06	10	128	0.1	128	129	524	0.9	522	526	29.3	45.9
2025-08-11T14:07	10	128	0.1	128	128	524	1.2	522	526	29.6	45.4
2025-08-11T14:08	10	128	0.1	128	128	525	0.8	524	527	29.4	45.6
2025-08-11T14:09	10	128	0.1	128	128	524	3.2	519	527	29.5	45.3
2025-08-11T14:10	10	128	0.1	128	128	523	1.5	520	525	29.2	45.8
2025-08-11T14:11	10	127	0.2	127	128	524	1.7	520	526	29.7	45.3
2025-08-11T14:12	10	127	0.1	127	127	521	1.1	519	523	29.6	45.5
2025-08-11T14:13	10	127	0.2	126	127	523	1.0	522	526	29.5	45.7
2025-08-11T14:14	10	126	0.1	126	126	527	0.9	525	528	29.7	45.8
2025-08-11T14:15	10	126	0.1	126	127	525	1.8	523	528	30.0	44.8
2025-08-11T14:16	10	126	0.1	126	126	525	1.1	523	527	29.9	44.7
2025-08-11T14:17	10	126	0.1	125	126	523	2.2	519	526	29.9	44.6
2025-08-11T14:18	10	126	0.1	125	126	521	1.1	519	523	29.5	45.4
2025-08-11T14:19	10	125	0.1	125	126	520	2.1	517	523	29.6	45.2
2025-08-11T14:20	10	125	0.2	125	125	517	0.6	516	518	29.2	46.0
2025-08-11T14:21	10	124	0.1	124	125	521	1.3	518	523	29.4	45.7
2025-08-11T14:22	10	124	0.2	124	124	517	0.9	516	519	29.6	45.3
2025-08-11T14:23	10	124	0.1	123	124	520	0.9	519	522	29.5	45.7
2025-08-11T14:24	10	123	0.1	123	123	520	0.9	518	522	29.7	45.5
2025-08-11T14:25	10	123	0.1	123	123	523	1.1	521	525	30.1	45.0
2025-08-11T14:26	10	123	0.2	123	123	519	1.6	517	524	29.9	44.7
2025-08-11T14:27	10	123	0.2	122	123	518	1.0	517	520	29.6	45.1
2025-08-11T14:28	10	122	0.2	121	122	521	1.3	518	523	29.8	44.9
2025-08-11T14:29	10	121	0.1	121	122	521	1.1	519	523	30.1	44.4
2025-08-11T14:30	10	121	0.1	121	121	518	2.3	515	522	29.9	45.0
2025-08-11T14:31	10	121	0.2	121	122	518	0.5	517	519	29.5	45.7
2025-08-11T14:32	10	121	0.2	120	121	517	0.4	517	518	29.5	45.6
2025-08-11T14:33	10	120	0.1	120	121	522	2.6	518	526	30.1	45.1
2025-08-11T14:34	10	120	0.1	120	121	523	1.8	520	525	30.3	44.4
2025-08-11T14:35	10	120	0.1	120	121	522	0.6	521	523	30.2	44.9
2025-08-11T14:36	10	120	0.1	119	120	522	0.6	520	523	30.2	44.9
2025-08-11T14:37	10	119	0.2	119	120	522	1.2	520	524	30.1	45.1
2025-08-11T14:38	10	119	0.1	119	119	523	1.0	521	524	29.8	45.3
2025-08-11T14:39	10	119	0.2	118	119	524	1.0	521	525	30.2	45.1
2025-08-11T14:40	10	118	0.2	118	119	523	1.5	519	525	30.6	44.9
2025-08-11T14:41	10	118	0.2	118	119	520	0.3	519	521	30.2	45.3
2025-08-11T14:42	10	118	0.2	117	118	522	0.8	520	524	30.3	45.1
2025-08-11T14:43	10	117	0.3	117	118	523	0.9	521	524	30.5	45.2
2025-08-11T14:44	10	117	0.2	117	118	522	0.5	521	523	30.5	44.8
2025-08-11T14:45	10	117	0.4	116	117	520	1.3	517	522	30.4	45.0
2025-08-11T14:46	10	116	0.5	115	117	517	1.2	514	519	30.1	45.2
2025-08-11T14:47	10	115	0.3	114	116	515	0.6	514	517	29.8	45.7
2025-08-11T14:48	10	114	0.3	114	115	515	0.9	513	517	29.8	45.6
2025-08-11T14:49	10	114	0.2	113	114	516	1.0	514	518	30.1	45.4
2025-08-11T14:50	10	113	0.2	113	114	514	0.9	513	516	30.0	45.5
2025-08-11T14:51	10	113	0.2	113	114	514	0.8	513	516	29.9	46.0
2025-08-11T14:52	10	113	0.2	112	113	515	1.1	513	516	30.1	45.8
2025-08-11T14:53	10	112	0.2	112	113	515	0.9	514	518	30.0	46.1
2025-08-11T14:54	10	112	0.2	112	113	518	1.1	515	519	30.4	45.4
2025-08-11T14:55	10	112	0.2	112	113	517	1.5	514	519	30.2	45.7
2025-08-11T14:56	10	112	0.2	111	113	513	0.6	512	514	30.0	45.7
2025-08-11T14:57	10	112	0.2	111	112	511	1.0	510	513	29.6	46.4
2025-08-11T14:58	10	111	0.1	111	112	514	1.2	512	516	29.6	46.5
2025-08-11T14:59	10	111	0.2	111	111	515	0.6	514	516	30.1	45.7
2025-08-11T15:00	10	110	0.2	110	111	512	1.2	509	515	30.2	45.4
2025-08-11T15:01	10	110	0.2	110	110	511	0.9	509	512	29.9	45.8
2025-08-11T15:02	10	109	0.2	109	110	512	0.8	511	513	29.9	45.8
2025-08-11T15:03	10	109	0.2	109	109	512	0.8	511	514	30.0	45.6
2025-08-11T15:04	10	109	0.1	108	109	515	0.6	514	516	30.2	45.3
2025-08-11T15:05	10	108	0.1	108	108	512	1.7	510	516	30.2	45.0
2025-08-11T15:06	10	108	0.1	108	108	510	0.6	508	511	29.9	45.5
2025-08-11T15:07	10	108	0.2	107	108	510	0.4	509	511	29.8	45.4
2025-08-11T15:08	10	107	0.2	107	108	512	0.5	511	513	30.0	45.3
2025-08-11T15:09	10	107	0.1	106	107	511	0.4	511	512	29.8	45.7
2025-08-11T15:10	10	106	0.2	106	107	512	0.6	511	513	30.0	45.7
2025-08-11T15:11	10	106	0.2	106	107	512	0.4	511	513	29.9	45.6
2025-08-11T15:12	10	106	0.2	105	106	512	0.7	510	513	30.1	45.7
2025-08-11T15:13	10	106	0.2	105	106	510	1.9	506	513	30.1	45.6
2025-08-11T15:14	10	105	0.2	105	106	509	1.5	506	512	29.8	46.0
2025-08-11T15:15	10	105	0.2	105	105	511	0.8	509	512	30.1	45.8
2025-08-11T15:16	10	105	0.2	104	105	511	0.8	509	513	30.4	45.3
2025-08-11T15:17	10	104	0.2	103	104	512	0.8	511	514	30.6	45.3
2025-08-11T15:18	10	104	0.1	103	104	513	0.6	512	514	30.8	45.1
2025-08-11T15:19	10	104	0.1	103	104	509	1.0	508	512	30.3	45.3
2025-08-11T15:20	10	103	0.3	103	104	509	0.9	507	510	30.2	45.9
2025-08-11T15:21	10	102	0.1	102	103	507	0.8	506	509	30.3	45.7
2025-08-11T15:22	10	102	0.2	102	103	509	1.2	507	511	30.3	45.5
2025-08-11T15:23	10	102	0.2	101	103	507	1.5	506	510	30.0	45.7
2025-08-11T15:24	10	101	0.2	101	102	508	1.4	505	511	29.9	46.1
2025-08-11T15:25	10	101	0.2	101	101	509	0.9	508	511	30.1	45.5
2025-08-11T15:26	10	101	0.1	100	101	509	0.7	508	510	30.1	45.6
2025-08-11T15:27	10	100	0.1	100	100	505	1.2	503	508	30.2	45.8
2025-08-11T15:28	10	100	0.2	99	100	506	0.4	505	506	30.1	46.1
2025-08-11T15:29	10	99	0.1	98	99	507	0.7	505	508	30.2	45.7
2025-08-11T15:30	10	98	0.1	98	99	506	0.8	504	507	30.2	45.8
2025-08-11T15:31	10	98	0.1	98	98	506	1.2	505	509	30.1	46.3
2025-08-11T15:32	10	98	0.1	98	98	508	0.6	506	509	30.4	45.8
2025-08-11T15:33	10	98	0.1	97	98	506	0.5	505	508	30.2	46.2
2025-08-11T15:34	10	97	0.1	97	97	506	1.7	503	508	30.1	46.2
2025-08-11T15:35	10	97	0.1	97	97	505	1.2	503	507	29.8	46.7
2025-08-11T15:36	10	96	0.2	96	97	508	0.9	507	509	30.2	46.3
2025-08-11T15:37	10	96	0.2	95	96	505	0.9	504	508	30.4	45.6
2025-08-11T15:38	10	95	0.2	95	95	505	1.1	504	507	30.3	46.0
2025-08-11T15:39	10	94	0.2	94	95	506	0.5	505	507	30.3	45.7
2025-08-11T15:40	10	94	0.2	94	94	503	1.0	502	506	30.2	46.1
2025-08-11T15:41	10	93	0.2	93	94	502	0.9	501	504	30.1	46.4
2025-08-11T15:42	10	93	0.1	93	93	503	1.1	501	505	30.0	46.5
2025-08-11T15:43	10	93	0.1	92	93	503	0.6	503	505	30.0	46.4
2025-08-11T15:44	10	92	0.1	92	92	504	1.4	501	506	30.5	45.9
2025-08-11T15:45	10	92	0.1	92	92	501	0.5	500	502	30.3	46.2
2025-08-11T15:46	10	92	0.1	91	92	502	0.4	501	503	30.2	46.2
2025-08-11T15:47	10	91	0.2	91	92	500	0.8	499	501	29.9	46.7
2025-08-11T15:48	10	91	0.2	90	91	502	1.3	499	504	30.0	46.9
2025-08-11T15:49	10	90	0.2	90	91	502	0.5	501	503	30.2	46.5
2025-08-11T15:50	10	90	0.2	89	90	502	1.1	499	503	30.2	46.4
2025-08-11T15:51	10	89	0.2	89	89	498	1.1	497	500	30.0	46.4
2025-08-11T15:52	10	89	0.1	88	89	499	0.8	497	500	30.1	46.4
2025-08-11T15:53	10	88	0.2	88	88	498	0.4	497	499	30.1	46.2
2025-08-11T15:54	10	88	0.2	87	88	497	0.9	496	498	29.8	46.6
2025-08-11T15:55	10	87	0.2	87	87	498	1.3	496	500	30.0	46.6
2025-08-11T15:56	10	87	0.1	86	87	498	0.8	496	499	29.9	46.5
2025-08-11T15:57	10	86	0.1	86	86	497	0.5	496	498	29.9	46.6
2025-08-11T15:58	10	86	0.2	85	86	496	0.7	495	497	30.0	46.2
2025-08-11T15:59	10	85	0.1	85	85	496	0.3	495	497	30.0	46.2
2025-08-11T16:00	10	85	0.2	84	85	495	0.6	494	496	29.9	46.3
2025-08-11T16:01	10	84	0.1	84	84	497	0.9	495	498	30.2	46.0
2025-08-11T16:02	10	84	0.1	84	84	499	0.3	498	499	30.5	45.7
2025-08-11T16:03	10	84	0.1	84	84	499	0.4	498	500	30.3	46.0
2025-08-11T16:04	10	84	0.1	83	84	500	0.5	499	501	30.3	45.8
2025-08-11T16:05	10	83	0.1	83	84	501	0.5	500	502	30.5	45.9
2025-08-11T16:06	10	83	0.1	82	83	500	0.6	499	502	30.5	45.6
2025-08-11T16:07	10	82	0.2	82	83	499	0.7	497	500	30.5	45.0
2025-08-11T16:08	10	82	0.2	81	82	497	0.6	495	498	30.3	45.1
2025-08-11T16:09	10	81	0.2	81	82	496	1.1	494	498	30.1	45.2
2025-08-11T16:10	10	81	0.2	80	81	495	0.5	494	496	30.1	45.5
2025-08-11T16:11	10	80	0.2	80	81	494	0.3	494	495	30.1	45.2
2025-08-11T16:12	10	80	0.2	79	80	493	0.9	491	495	30.0	45.0
2025-08-11T16:13	10	79	0.2	79	80	493	0.9	491	494	29.9	45.4
2025-08-11T16:14	10	78	0.1	78	79	493	0.6	492	494	30.0	45.4
2025-08-11T16:15	10	78	0.2	78	78	492	0.4	492	493	29.9	45.7
2025-08-11T16:16	10	77	0.1	77	78	493	0.4	492	493	30.0	45.5
2025-08-11T16:17	10	77	0.1	77	77	492	0.3	491	492	29.9	45.3
2025-08-11T16:18	10	76	0.2	76	77	491	0.4	490	492	29.9	45.2
2025-08-11T16:19	10	76	0.2	75	76	490	0.2	490	491	29.8	45.1
2025-08-11T16:20	10	75	0.2	75	76	491	0.4	490	492	29.8	44.9
2025-08-11T16:21	10	75	0.1	75	75	491	0.8	489	492	29.9	44.8
2025-08-11T16:22	10	75	0.1	74	75	490	0.5	489	491	30.0	44.8
2025-08-11T16:23	10	74	0.2	74	74	492	0.5	491	493	30.3	44.6
2025-08-11T16:24	10	74	0.1	74	74	492	0.3	492	493	30.2	44.4
2025-08-11T16:25	10	73	0.2	73	74	491	0.4	490	492	30.1	44.8
2025-08-11T16:26	10	73	0.2	73	73	492	0.6	491	493	30.2	44.8
2025-08-11T16:27	10	72	0.2	72	73	490	0.8	489	492	30.1	44.5
2025-08-11T16:28	10	72	0.2	72	72	490	0.2	490	491	30.1	44.6
2025-08-11T16:29	10	71	0.2	71	72	489	0.6	488	490	30.0	44.4
2025-08-11T16:30	10	71	0.2	71	71	490	0.5	489	491	30.2	44.3
2025-08-11T16:31	10	70	0.2	70	71	490	0.3	489	491	30.3	44.5
2025-08-11T16:32	10	70	0.1	69	70	487	0.7	486	490	30.0	44.1
2025-08-11T16:33	10	69	0.2	69	70	487	0.4	486	488	30.0	44.3
2025-08-11T16:34	10	69	0.2	69	69	489	0.4	488	490	30.1	44.3
2025-08-11T16:35	10	68	0.2	68	69	487	0.5	487	489	30.1	44.2
2025-08-11T16:36	10	68	0.2	67	68	488	0.4	487	489	30.1	44.2
2025-08-11T16:37	10	67	0.1	67	67	488	0.3	487	488	30.1	44.1
2025-08-11T16:38	10	67	0.2	66	67	488	0.3	488	489	30.3	44.5
2025-08-11T16:39	10	66	0.2	66	67	487	0.7	485	489	30.1	43.9
2025-08-11T16:40	10	66	0.2	65	66	485	0.5	484	486	30.0	44.1
2025-08-11T16:41	10	65	0.2	65	65	484	0.4	483	485	30.0	43.9
2025-08-11T16:42	10	65	0.2	64	65	485	0.4	484	486	30.0	44.0
2025-08-11T16:43	10	64	0.2	64	64	485	0.6	484	486	30.0	44.0
2025-08-11T16:44	10	64	0.2	63	64	483	0.4	482	484	30.0	44.0
2025-08-11T16:45	10	63	0.2	62	63	484	0.5	483	485	30.0	44.2
2025-08-11T16:46	10	62	0.2	62	63	485	0.3	484	485	30.1	44.3
2025-08-11T16:47	10	62	0.2	61	62	485	0.4	484	486	30.1	44.3
2025-08-11T16:48	10	61	0.1	61	62	485	0.3	484	486	30.1	44.7
2025-08-11T16:49	10	61	0.2	60	61	484	0.5	483	485	30.1	44.4
2025-08-11T16:50	10	60	0.2	60	61	484	0.5	482	484	30.1	44.5
2025-08-11T16:51	10	60	0.2	59	60	483	0.3	482	483	30.0	44.3
2025-08-11T16:52	10	59	0.2	59	59	482	0.4	481	482	30.0	44.1
2025-08-11T16:53	10	58	0.2	58	59	481	0.3	481	482	30.0	44.2
2025-08-11T16:54	10	58	0.1	58	58	481	0.3	481	482	30.0	44.2
2025-08-11T16:55	10	57	0.2	57	58	482	0.3	481	482	30.0	44.4
2025-08-11T16:56	10	57	0.2	56	57	481	0.3	481	482	30.0	44.5
2025-08-11T16:57	10	56	0.2	56	57	481	0.3	480	481	29.9	44.6
2025-08-11T16:58	10	56	0.2	55	56	481	0.3	480	481	30.0	44.5
2025-08-11T16:59	10	55	0.2	55	56	481	0.2	480	481	30.0	44.6
2025-08-11T17:00	10	55	0.2	54	55	479	0.5	478	480	29.8	44.6
2025-08-11T17:01	10	54	0.2	54	55	478	0.3	478	479	29.8	44.7
2025-08-11T17:02	10	54	0.2	53	54	478	0.2	478	479	29.7	44.5
2025-08-11T17:03	10	53	0.2	53	53	477	0.2	477	478	29.6	44.6
2025-08-11T17:04	10	52	0.2	52	53	477	0.3	476	478	29.7	44.6
2025-08-11T17:05	10	52	0.2	51	52	477	0.3	476	477	29.7	44.7
2025-08-11T17:06	10	51	0.2	51	51	477	0.4	476	477	29.7	44.7
2025-08-11T17:07	10	50	0.2	50	51	475	0.4	474	476	29.6	44.6
2025-08-11T17:08	10	50	0.3	49	50	474	0.2	474	475	29.5	44.6
2025-08-11T17:09	10	49	0.2	49	49	475	0.3	474	476	29.6	44.5
2025-08-11T17:10	10	48	0.2	48	49	474	0.2	474	475	29.6	44.4
2025-08-11T17:11	10	48	0.2	47	48	474	0.3	473	475	29.5	44.4
2025-08-11T17:12	10	47	0.2	47	48	474	0.3	473	474	29.6	44.5
2025-08-11T17:13	10	47	0.2	46	47	474	0.2	473	474	29.6	44.5
2025-08-11T17:14	10	46	0.1	46	46	474	0.2	473	474	29.6	44.6
2025-08-11T17:15	10	46	0.2	45	46	473	0.2	472	473	29.5	45.0
2025-08-11T17:16	10	45	0.2	45	46	473	0.3	472	473	29.6	45.1
2025-08-11T17:17	10	44	0.2	44	45	473	0.2	472	473	29.5	45.3
2025-08-11T17:18	10	44	0.2	43	44	472	0.2	471	472	29.5	45.4
2025-08-11T17:19	10	43	0.2	43	44	472	0.3	471	472	29.5	45.5
2025-08-11T17:20	10	43	0.2	42	43	472	0.2	471	472	29.5	45.6
2025-08-11T17:21	10	42	0.2	41	42	471	0.3	470	471	29.5	45.6
2025-08-11T17:22	10	41	0.2	41	42	471	0.2	470	471	29.5	45.6
2025-08-11T17:23	10	41	0.2	40	41	470	0.3	470	471	29.5	45.5
2025-08-11T17:24	10	40	0.1	40	40	470	0.2	470	471	29.5	45.6
2025-08-11T17:25	10	40	0.2	39	40	470	0.3	469	470	29.5	45.8
2025-08-11T17:26	10	39	0.2	39	39	470	0.3	469	470	29.4	45.8
2025-08-11T17:27	10	39	0.2	38	39	469	0.2	468	470	29.4	45.9
2025-08-11T17:28	10	38	0.2	38	39	469	0.2	468	469	29.4	45.7
2025-08-11T17:29	10	38	0.2	37	38	468	0.3	468	469	29.4	45.8
2025-08-11T17:30	10	37	0.3	37	38	468	0.3	467	468	29.4	45.6
2025-08-11T17:31	10	36	0.2	36	37	468	0.4	467	468	29.4	45.7
2025-08-11T17:32	10	36	0.2	35	36	467	0.3	467	468	29.3	45.9
2025-08-11T17:33	10	35	0.2	35	35	467	0.3	466	467	29.3	45.9
2025-08-11T17:34	10	35	0.2	34	35	466	0.3	466	467	29.3	46.0
2025-08-11T17:35	10	34	0.2	33	34	466	0.2	465	466	29.2	46.0
2025-08-11T17:36	10	33	0.4	33	34	466	0.3	465	466	29.2	46.1
2025-08-11T17:37	10	33	0.2	32	33	465	0.3	465	466	29.2	46.3
2025-08-11T17:38	10	32	0.3	32	33	465	0.3	464	465	29.1	46.4
2025-08-11T17:39	10	31	0.3	31	32	465	0.3	464	465	29.1	46.3
2025-08-11T17:40	10	31	0.2	30	31	464	0.2	464	465	29.1	46.5
2025-08-11T17:41	10	30	0.3	30	31	464	0.4	463	465	29.1	46.7
2025-08-11T17:42	10	30	0.3	29	31	464	0.2	463	464	29.1	47.0
2025-08-11T17:43	10	29	0.3	29	30	463	0.3	462	464	29.0	47.3
2025-08-11T17:44	10	29	0.2	28	29	463	0.4	462	464	29.0	47.4
2025-08-11T17:45	10	28	0.3	28	29	463	0.3	462	463	29.0	47.5
2025-08-11T17:46	10	28	0.2	27	29	462	0.3	462	463	29.0	47.9
2025-08-11T17:47	10	27	0.2	27	28	462	0.3	461	463	29.0	47.8
2025-08-11T17:48	10	27	0.2	26	27	462	0.3	461	463	29.0	47.8
2025-08-11T17:49	10	26	0.3	25	27	461	0.3	461	462	29.0	47.7
2025-08-11T17:50	10	26	0.2	25	27	462	0.3	461	462	29.0	47.9
2025-08-11T17:51	10	25	0.2	24	25	461	0.2	460	461	28.9	48.5
2025-08-11T17:52	10	24	0.3	24	25	460	0.4	459	461	28.8	48.6
2025-08-11T17:53	10	24	0.2	24	24	460	0.3	459	461	28.8	48.3
2025-08-11T17:54	10	23	0.2	23	24	460	0.2	459	460	28.9	48.0
2025-08-11T17:55	10	23	0.2	22	23	460	0.3	459	460	28.9	48.1
2025-08-11T17:56	10	22	0.2	22	22	459	0.2	459	459	28.8	48.2
2025-08-11T17:57	10	22	0.2	21	22	459	0.3	458	459	28.8	48.0
2025-08-11T17:58	10	21	0.2	21	21	459	0.5	458	460	28.8	48.3
2025-08-11T17:59	10	20	0.2	20	21	458	0.3	457	459	28.7	48.6
2025-08-11T18:00	10	20	0.2	20	20	457	0.3	457	458	28.6	48.8
2025-08-11T18:01	10	19	0.2	19	20	457	0.2	457	458	28.6	48.8
2025-08-11T18:02	10	19	0.1	18	19	457	0.3	456	457	28.6	48.9
2025-08-11T18:03	10	18	0.2	18	19	456	0.3	455	456	28.5	49.2
2025-08-11T18:04	10	18	0.2	17	18	455	0.3	455	455	28.4	49.6
2025-08-11T18:05	10	17	0.2	17	18	455	0.3	454	455	28.4	49.8
2025-08-11T18:06	10	17	0.2	16	17	455	0.2	454	455	28.4	49.6
2025-08-11T18:07	10	16	0.2	16	16	455	0.2	454	455	28.4	49.4
2025-08-11T18:08	10	15	0.2	15	16	454	0.3	453	455	28.4	49.4
2025-08-11T18:09	10	15	0.2	15	15	454	0.2	453	454	28.4	49.5
2025-08-11T18:10	10	14	0.2	14	15	454	0.2	453	454	28.4	49.5
2025-08-11T18:11	10	14	0.2	13	14	453	0.3	453	454	28.4	49.5
2025-08-11T18:12	10	13	0.2	13	14	453	0.3	453	454	28.4	49.4
2025-08-11T18:13	10	13	0.2	12	13	453	0.3	453	454	28.3	49.5
2025-08-11T18:14	10	12	0.2	12	13	453	0.3	452	454	28.3	49.6
2025-08-11T18:15	10	12	0.2	11	12	452	0.2	452	453	28.3	49.9
2025-08-11T18:16	10	11	0.2	11	12	452	0.4	451	453	28.2	50.2
2025-08-11T18:17	10	11	0.2	10	11	452	0.5	451	453	28.2	50.3
2025-08-11T18:18	10	10	0.2	10	11	451	0.4	450	451	28.1	50.7
2025-08-11T18:19	10	10	0.2	9	10	451	0.3	450	451	28.1	50.8
2025-08-11T18:20	10	9	0.2	9	9	450	0.3	450	451	28.1	50.7
2025-08-11T18:21	10	9	0.1	8	9	450	0.2	450	451	28.1	50.8
2025-08-11T18:22	10	8	0.2	8	8	450	0.3	450	451	28.1	50.8
2025-08-11T18:23	10	8	0.2	7	8	450	0.5	449	451	28.0	51.0
2025-08-11T18:24	10	7	0.2	7	7	449	0.3	448	450	28.0	51.3
2025-08-11T18:25	10	7	0.2	6	7	449	0.3	448	449	27.9	51.5
2025-08-11T18:26	10	6	0.1	6	6	448	0.4	448	449	27.9	51.8
2025-08-11T18:27	10	6	0.1	6	6	448	0.3	447	448	27.8	51.9
2025-08-11T18:28	10	5	0.1	5	6	448	0.4	447	448	27.8	52.0
2025-08-11T18:29	10	5	0.1	5	5	448	0.2	447	448	27.8	52.0
2025-08-11T18:30	10	4	0.2	4	5	447	0.5	446	448	27.7	52.4
2025-08-11T18:31	10	4	0.2	3	4	446	0.3	445	447	27.7	52.5
2025-08-11T18:32	10	3	0.2	3	4	446	0.4	446	448	27.7	52.7
2025-08-11T18:33	10	3	0.1	3	3	447	0.2	446	447	27.7	52.6
2025-08-11T18:34	10	3	0.1	3	3	447	0.3	446	447	27.7	52.9
2025-08-11T18:35	10	3	0.1	2	3	446	0.2	446	447	27.6	52.9
2025-08-11T18:36	10	3	0.1	2	3	446	0.4	445	447	27.7	52.8
2025-08-11T18:37	10	2	0.1	2	3	445	0.2	444	445	27.6	53.1
2025-08-11T18:38	10	2	0.2	2	3	444	0.3	444	445	27.6	53.4
2025-08-11T18:39	10	2	0.2	2	3	444	0.5	442	445	27.5	53.5
2025-08-11T18:40	10	2	0.2	1	3	444	0.3	443	445	27.5	53.7
2025-08-11T18:41	10	2	0.2	2	3	443	0.3	443	444	27.4	54.0
2025-08-11T18:42	10	2	0.2	1	2	444	0.5	442	445	27.4	54.0
2025-08-11T18:43	10	2	0.2	1	2	444	0.4	443	445	27.4	54.1
2025-08-11T18:44	10	2	0.1	1	2	443	0.3	443	444	27.4	54.2
2025-08-11T18:45	10	1	0.1	1	2	444	0.4	443	445	27.3	54.5
2025-08-11T18:46	10	1	0.1	1	2	444	0.2	443	444	27.3	54.4
2025-08-11T18:47	10	1	0.1	1	1	444	0.2	443	444	27.3	54.7
2025-08-11T18:48	10	1	0.1	1	1	443	0.3	442	444	27.3	54.7
2025-08-11T18:49	10	1	0.1	1	1	442	0.5	441	443	27.2	55.0
2025-08-11T18:50	10	1	0.1	1	1	441	0.3	440	441	27.2	55.2
2025-08-11T18:51	10	1	0.1	1	1	441	0.3	440	441	27.2	55.2
2025-08-11T18:52	10	1	0.1	0	1	440	0.2	440	441	27.1	55.4
2025-08-11T18:53	10	1	0.1	0	1	441	0.4	440	442	27.1	55.5
2025-08-11T18:54	10	1	0.1	0	1	441	0.2	440	441	27.0	55.8
2025-08-11T18:55	10	0	0.1	0	1	441	0.2	441	442	27.0	56.4
2025-08-11T18:56	10	0	0.1	0	1	440	0.3	440	441	26.9	56.8
2025-08-11T18:57	10	0	0.1	0	1	440	0.3	439	440	26.9	56.7
2025-08-11T18:58	10	0	0.1	0	1	439	0.2	439	440	26.9	56.6
2025-08-11T18:59	10	0	0.2	0	1	439	0.3	438	440	26.9	56.8
2025-08-11T19:00	10	0	0.1	0	1	439	0.3	438	439	26.8	57.1
2025-08-11T19:01	10	0	0.1	0	0	439	0.2	438	440	26.8	57.3
2025-08-11T19:02	10	0	0.1	0	0	438	0.3	438	439	26.7	57.6
2025-08-11T19:03	10	0	0.1	0	1	438	0.4	437	438	26.7	57.9
2025-08-11T19:04	10	0	0.1	0	1	436	0.3	436	437	26.6	58.2
2025-08-11T19:05	10	0	0.1	0	0	436	0.4	435	436	26.6	58.3
2025-08-11T19:06	10	0	0.1	0	0	435	0.4	435	436	26.6	58.4
2025-08-11T19:07	10	0	0.1	0	1	435	0.3	435	436	26.5	58.8
2025-08-11T19:08	10	0	0.1	0	0	435	0.2	434	435	26.4	59.2
2025-08-11T19:09	10	0	0.1	0	0	433	0.4	433	434	26.3	59.3
2025-08-11T19:10	10	0	0.1	0	0	433	0.3	432	433	26.3	59.4
2025-08-11T19:11	10	0	0.1	0	0	432	0.2	432	433	26.3	59.6
2025-08-11T19:12	10	0	0.1	0	0	432	0.2	431	432	26.3	59.7
2025-08-11T19:13	10	0	0.1	0	0	431	0.3	430	431	26.3	59.8
2025-08-11T19:14	10	0	0.1	0	0	431	0.4	430	432	26.2	59.9
2025-08-11T19:15	10	0	0.1	0	0	431	0.3	430	431	26.2	59.9
2025-08-11T19:16	10	0	0.1	0	0	431	0.3	430	431	26.1	60.4
2025-08-11T19:17	10	0	0.1	0	0	430	0.3	430	431	26.1	60.4
2025-08-11T19:18	10	0	0.1	0	0	430	0.2	429	430	26.2	60.2
2025-08-11T19:19	10	0	0.1	0	0	429	0.2	429	430	26.1	60.3
2025-08-11T19:20	10	0	0.1	0	0	429	0.2	429	430	26.0	60.6
2025-08-11T19:21	10	0	0.1	0	0	429	0.2	428	430	26.0	60.7
2025-08-11T19:22	10	0	0.1	0	0	428	0.3	427	429	26.0	60.9
2025-08-11T19:23	10	0	0.1	-1	0	428	0.2	428	428	25.9	61.1
2025-08-11T19:24	10	0	0.2	0	1	428	0.2	427	429	26.0	60.7
2025-08-11T19:25	10	0	0.1	0	1	427	0.3	427	428	26.0	60.8
2025-08-11T19:26	10	0	0.2	0	1	427	0.4	426	428	26.0	60.8
2025-08-11T19:27	10	0	0.2	-1	1	426	0.3	426	427	25.9	61.2
2025-08-11T19:28	10	0	0.2	0	1	426	0.3	425	427	25.8	61.3
2025-08-11T19:29	10	0	0.2	0	1	426	0.3	425	427	25.8	61.5
2025-08-11T19:30	10	0	0.9	0	6	426	0.3	425	426	25.8	61.3
2025-08-11T19:31	10	0	0.2	0	1	426	0.3	425	426	25.8	61.3
2025-08-11T19:32	10	0	0.2	0	0	426	0.3	425	426	25.8	61.2
2025-08-11T19:33	10	0	0.1	0	0	426	0.3	425	426	25.8	61.1
2025-08-11T19:34	10	0	0.1	0	0	425	0.2	424	426	25.8	61.0
2025-08-11T19:35	10	0	0.1	0	0	425	0.4	424	425	25.7	61.3
2025-08-11T19:36	10	0	0.1	0	0	425	0.2	424	425	25.7	61.0
2025-08-11T19:37	10	0	0.1	0	0	424	0.3	424	425	25.8	61.0
2025-08-11T19:38	10	0	0.1	0	0	424	0.4	423	425	25.6	61.7
2025-08-11T19:39	10	0	0.1	0	0	424	0.3	423	425	25.6	61.4
2025-08-11T19:40	10	0	0.1	0	0	424	0.2	423	424	25.7	61.2
2025-08-11T19:41	10	0	0.1	0	0	424	0.3	423	424	25.6	61.3
2025-08-11T19:42	10	0	0.1	0	0	423	0.2	423	424	25.6	61.5
2025-08-11T19:43	10	0	0.1	0	0	424	0.2	423	424	25.6	61.4
2025-08-11T19:44	10	0	0.1	0	0	423	0.2	423	424	25.6	61.3
2025-08-11T19:45	10	0	0.1	0	0	423	0.2	423	424	25.7	61.1
2025-08-11T19:46	10	0	0.1	0	0	423	0.2	423	424	25.8	60.7
2025-08-11T19:47	10	0	0.1	0	0	424	0.5	422	425	25.9	60.2
2025-08-11T19:48	10	0	0.1	0	0	424	0.3	423	424	25.9	60.4
2025-08-11T19:49	10	0	0.1	0	0	424	0.2	423	424	25.8	60.5
2025-08-11T19:50	10	0	0.1	0	0	424	0.3	423	424	25.8	60.4
2025-08-11T19:51	10	0	0.1	0	0	423	0.4	422	424	25.7	60.8
2025-08-11T19:52	10	0	0.1	0	0	423	0.3	422	423	25.6	61.1
2025-08-11T19:53	10	0	0.1	0	0	423	0.2	422	423	25.8	60.5
2025-08-11T19:54	10	0	0.1	0	0	423	0.2	423	424	25.8	60.3
2025-08-11T19:55	10	0	0.1	0	0	423	0.2	423	424	25.8	60.3
2025-08-11T19:56	10	0	0.1	0	0	423	0.2	422	423	25.8	60.3
2025-08-11T19:57	10	0	0.1	0	0	423	0.3	422	423	25.9	60.2
2025-08-11T19:58	10	0	0.1	0	0	423	0.3	422	424	25.8	60.5
2025-08-11T19:59	10	0	0.1	0	0	423	0.3	423	424	25.8	60.5
2025-08-11T20:00	10	0	0.1	0	0	424	0.2	423	424	25.9	60.1
2025-08-11T20:01	10	0	0.1	0	0	424	0.2	424	424	25.9	60.0
2025-08-11T20:02	10	0	0.1	0	0	425	0.5	424	426	25.8	60.1
2025-08-11T20:03	10	0	0.1	0	0	425	0.3	424	426	25.8	60.3
2025-08-11T20:04	10	0	0.1	0	0	425	0.3	424	426	25.8	60.4
2025-08-11T20:05	10	0	0.1	0	0	424	0.3	424	425	25.8	60.4
2025-08-11T20:06	10	0	0.1	0	0	423	0.4	422	424	25.7	61.0
2025-08-11T20:07	10	0	0.1	0	0	423	0.3	422	423	25.6	61.4
2025-08-11T20:08	10	0	0.1	0	0	422	0.4	421	423	25.5	61.6
2025-08-11T20:09	10	0	0.1	0	0	422	0.2	421	422	25.4	61.9
2025-08-11T20:10	10	0	0.1	0	0	422	0.3	421	422	25.5	61.8
2025-08-11T20:11	10	0	0.1	0	0	422	0.3	421	422	25.5	61.8
2025-08-11T20:12	10	0	0.1	0	0	421	0.2	420	421	25.5	61.8
2025-08-11T20:13	10	0	0.1	0	0	420	0.5	419	421	25.5	62.2
2025-08-11T20:14	10	0	0.1	0	0	420	0.3	419	420	25.2	63.2
2025-08-11T20:15	10	0	0.1	0	0	420	0.3	419	421	25.0	63.8
2025-08-11T20:16	10	0	0.1	0	0	420	0.3	419	420	25.0	64.3
2025-08-11T20:17	10	0	0.1	0	0	420	0.2	419	420	24.9	64.6
2025-08-11T20:18	10	0	0.1	0	0	420	0.2	419	420	24.8	64.5
2025-08-11T20:19	10	0	0.1	0	0	419	0.2	418	419	24.8	64.7
2025-08-11T20:20	10	0	0.1	0	0	419	0.3	419	420	24.8	64.3
2025-08-11T20:21	10	0	0.1	0	0	419	0.3	418	419	24.8	63.8
2025-08-11T20:22	10	0	0.1	0	0	418	0.3	418	419	24.8	63.6
2025-08-11T20:23	10	0	0.1	0	0	419	0.2	418	419	24.7	63.8
2025-08-11T20:24	10	0	0.1	0	0	419	0.3	418	420	24.7	64.0
2025-08-11T20:25	10	0	0.1	0	0	419	0.3	419	420	24.7	63.6
2025-08-11T20:26	10	0	0.1	0	0	420	0.3	419	420	24.8	63.1
2025-08-11T20:27	10	0	0.1	0	0	420	0.5	419	421	24.8	63.1
2025-08-11T20:28	10	0	0.1	0	0	421	0.3	420	421	24.8	62.7
2025-08-11T20:29	10	0	0.2	0	1	421	0.2	421	421	24.7	63.1
2025-08-11T20:30	10	0	0.2	0	1	421	0.2	420	421	24.7	63.0
2025-08-11T20:31	10	0	0.2	0	1	420	0.2	420	421	24.8	63.1
2025-08-11T20:32	10	0	0.2	0	1	420	0.3	419	421	24.7	63.0
2025-08-11T20:33	10	0	0.2	0	1	419	0.5	418	420	24.7	63.0
2025-08-11T20:34	10	0	0.2	0	1	418	0.5	417	419	24.5	64.3
2025-08-11T20:35	10	0	0.1	0	1	417	0.2	417	418	24.2	65.5
2025-08-11T20:36	10	0	0.2	0	0	417	0.6	416	418	24.2	65.0
2025-08-11T20:37	10	0	0.2	0	0	418	0.3	417	419	24.5	63.9
2025-08-11T20:38	10	0	0.1	0	0	417	0.2	417	418	24.5	64.0
2025-08-11T20:39	10	0	0.2	-1	0	417	0.3	416	418	24.6	63.7
2025-08-11T20:40	10	0	0.1	0	0	417	0.3	416	418	24.7	63.6
2025-08-11T20:41	10	0	0.2	0	1	417	0.2	416	417	24.6	63.9
2025-08-11T20:42	10	0	0.1	0	0	416	0.3	416	417	24.5	63.9
2025-08-11T20:43	10	0	0.1	0	0	416	0.3	416	417	24.5	64.1
2025-08-11T20:44	10	0	0.1	0	0	417	0.2	416	417	24.4	64.1
2025-08-11T20:45	10	0	0.1	0	0	417	0.4	416	417	24.5	63.9
2025-08-11T20:46	10	0	0.1	0	0	416	0.2	416	416	24.3	64.8
2025-08-11T20:47	10	0	0.1	0	0	416	0.2	416	416	24.3	64.6
2025-08-11T20:48	10	0	0.1	0	0	416	0.2	416	416	24.3	64.3
2025-08-11T20:49	10	0	0.1	0	0	415	0.3	415	416	24.3	64.6
2025-08-11T20:50	10	0	0.1	0	0	415	0.2	414	415	24.2	64.8
2025-08-11T20:51	10	0	0.1	0	0	414	0.4	413	415	24.1	65.5
2025-08-11T20:52	10	0	0.1	0	0	414	0.3	413	415	23.9	66.9
2025-08-11T20:53	10	0	0.1	0	0	415	0.2	414	415	23.9	66.3
2025-08-11T20:54	10	0	0.1	0	0	415	0.3	414	416	24.0	65.4
2025-08-11T20:55	10	0	0.1	0	0	414	0.2	414	415	24.0	65.4
2025-08-11T20:56	10	0	0.1	0	0	414	0.3	413	414	24.0	65.6
2025-08-11T20:57	10	0	0.1	0	0	414	0.2	413	414	24.0	66.1
2025-08-11T20:58	10	0	0.1	0	0	414	0.3	413	414	24.0	65.2
2025-08-11T20:59	10	0	0.1	0	0	413	0.2	413	414	24.0	65.4
2025-08-11T21:00	10	0	0.1	0	0	413	0.3	413	414	24.0	66.1
2025-08-11T21:01	10	0	0.1	0	0	413	0.2	412	413	23.8	67.1
2025-08-11T21:02	10	0	0.1	0	0	413	0.4	413	414	23.8	66.6
2025-08-11T21:03	10	0	0.1	0	0	414	0.2	413	414	23.9	66.4
2025-08-11T21:04	10	0	0.1	0	0	413	0.5	412	414	23.7	67.3
2025-08-11T21:05	10	0	0.1	0	0	413	0.3	412	414	23.6	67.5
2025-08-11T21:06	10	0	0.1	0	0	413	0.3	413	414	23.7	67.2
2025-08-11T21:07	10	0	0.1	0	0	413	0.2	413	414	23.6	67.2
2025-08-11T21:08	10	0	0.1	0	0	413	0.3	412	414	23.7	67.1
2025-08-11T21:09	10	0	0.1	0	0	412	0.3	411	413	23.6	67.3
2025-08-11T21:10	10	0	0.1	0	0	411	0.2	411	412	23.5	68.1
2025-08-11T21:11	10	0	0.1	0	0	411	0.2	411	412	23.5	68.3
2025-08-11T21:12	10	0	0.1	0	0	412	0.3	411	413	23.5	67.8
2025-08-11T21:13	10	0	0.1	0	0	412	0.2	411	412	23.6	67.0
2025-08-11T21:14	10	0	0.1	0	0	412	0.2	411	413	23.6	67.2
2025-08-11T21:15	10	0	0.1	0	0	412	0.2	411	412	23.5	66.1
2025-08-11T21:16	10	0	0.1	0	0	411	0.4	410	412	23.7	67.2
2025-08-11T21:17	10	0	0.1	0	0	411	0.3	411	412	23.6	67.2
2025-08-11T21:18	10	0	0.1	0	0	412	0.4	411	413	23.7	67.2
2025-08-11T21:19	10	0	0.1	0	0	413	0.2	412	413	23.7	66.2
2025-08-11T21:20	10	0	0.1	0	0	412	0.3	412	413	23.7	67.2
2025-08-11T21:21	10	0	0.1	0	0	411	0.7	410	412	23.7	67.2
2025-08-11T21:22	10	0	0.1	0	0	411	0.2	410	411	23.7	67.2
2025-08-11T21:23	10	0	0.1	0	0	410	0.3	410	411	22.8	71.6
2025-08-11T21:24	10	0	0.1	0	0	411	0.3	410	411	22.9	70.7
2025-08-11T21:25	10	0	0.1	0	0	411	0.3	410	411	23.1	70.0
2025-08-11T21:26	10	0	0.1	0	0	411	0.3	410	411	23.2	69.5
2025-08-11T21:27	10	0	0.1	0	0	411	0.3	410	411	23.2	69.4
2025-08-11T21:28	10	0	0.1	0	0	410	0.2	410	411	23.2	69.2
2025-08-11T21:29	10	0	0.1	0	0	410	0.3	410	411	23.2	69.6
2025-08-11T21:30	10	0	0.1	0	0	411	1.0	409	412	23.3	69.0
2025-08-11T21:31	10	0	0.1	0	0	410	0.9	409	412	23.0	71.0
2025-08-11T21:32	10	0	0.1	0	0	411	0.3	410	412	23.0	71.0
2025-08-11T21:33	10	0	0.1	0	0	412	0.4	411	413	22.8	72.2
2025-08-11T21:34	10	0	0.1	0	0	413	0.2	412	413	22.9	71.1
2025-08-11T21:35	10	0	0.1	0	0	412	0.4	411	413	23.1	69.7
2025-08-11T21:36	10	0	0.1	0	0	413	0.7	411	414	23.2	69.1
2025-08-11T21:37	10	0	0.1	0	0	412	0.6	411	413	23.3	68.6
2025-08-11T21:38	10	0	0.1	0	0	411	0.5	410	412	23.3	68.9
2025-08-11T21:39	10	0	0.0	0	0	412	0.3	411	412	23.3	68.4
2025-08-11T21:40	10	0	0.1	0	0	411	0.3	411	412	23.4	68.1
2025-08-11T21:41	10	0	0.1	0	0	411	0.4	410	411	23.3	68.2
2025-08-11T21:42	10	0	0.1	0	0	410	0.3	409	411	23.2	68.8
2025-08-11T21:43	10	0	0.1	0	0	410	0.3	409	410	23.2	69.0
2025-08-11T21:44	10	0	0.1	0	0	408	0.5	407	410	23.1	70.0
2025-08-11T21:45	10	0	0.0	0	0	410	0.4	409	410	23.0	69.5
2025-08-11T21:46	10	0	0.0	0	0	409	0.3	409	410	23.2	68.9
2025-08-11T21:47	10	0	0.0	0	0	410	0.6	409	411	23.3	68.2
2025-08-11T21:48	10	0	0.1	0	0	410	0.4	409	411	23.4	67.4
2025-08-11T21:49	10	0	0.0	0	0	410	0.3	409	410	23.5	67.4
2025-08-11T21:50	10	0	0.1	0	0	409	0.5	408	410	23.4	67.6
2025-08-11T21:51	10	0	0.1	0	0	408	0.2	408	409	23.3	68.6
2025-08-11T21:52	10	0	0.1	0	0	409	0.2	408	409	23.1	69.4
2025-08-11T21:53	10	0	0.1	0	1	408	0.4	407	409	23.0	70.3
2025-08-11T21:54	10	0	0.1	0	0	408	0.3	407	409	22.8	71.6
2025-08-11T21:55	10	0	0.1	0	0	409	0.4	408	409	22.8	70.4
2025-08-11T21:56	10	0	0.1	0	0	408	0.4	408	409	22.9	70.1
2025-08-11T21:57	10	0	0.1	0	0	408	0.3	407	409	22.8	70.8
2025-08-11T21:58	10	0	0.2	0	1	407	0.2	406	408	22.7	71.5
2025-08-11T21:59	10	0	0.2	0	1	407	0.4	406	407	22.5	72.3
2025-08-11T22:00	10	0	0.2	0	1	407	0.2	406	407	22.5	72.4
2025-08-11T22:01	10	0	0.2	0	1	407	0.3	406	408	22.4	72.5
2025-08-11T22:02	10	0	0.2	0	0	406	0.5	406	407	22.5	72.3
2025-08-11T22:03	10	0	0.2	0	0	406	0.4	405	407	22.3	73.2
2025-08-11T22:04	10	0	0.2	0	1	406	0.3	405	407	22.3	73.0
2025-08-11T22:05	10	0	0.2	0	1	406	0.2	406	407	22.4	72.6
2025-08-11T22:06	10	0	0.1	-1	0	406	0.2	406	407	22.3	72.8
2025-08-11T22:07	10	0	0.1	0	0	406	0.2	405	406	22.2	73.6
2025-08-11T22:08	10	0	0.2	0	1	405	0.2	405	406	22.0	74.4
2025-08-11T22:09	10	0	0.2	0	0	405	0.3	404	406	21.9	75.0
2025-08-11T22:10	10	0	0.1	0	0	405	0.2	405	406	21.9	74.9
2025-08-11T22:11	10	0	0.1	0	0	405	0.3	404	406	21.8	75.1
2025-08-11T22:12	10	0	0.1	0	0	405	0.2	405	406	21.8	75.7
2025-08-11T22:13	10	0	0.1	0	0	405	0.3	404	405	21.8	75.7
2025-08-11T22:14	10	0	0.1	0	0	405	0.3	404	405	21.8	75.7
2025-08-11T22:15	10	0	0.1	0	0	405	0.3	404	405	21.8	75.7
2025-08-11T22:16	10	0	0.1	0	0	405	0.2	404	405	21.6	76.3
2025-08-11T22:17	10	0	0.1	0	0	405	0.3	404	405	21.7	76.3
2025-08-11T22:18	10	0	0.1	0	0	405	0.3	404	405	21.8	75.2
2025-08-11T22:19	10	0	0.1	0	0	404	0.2	404	404	21.8	75.3
2025-08-11T22:20	10	0	0.1	0	0	404	0.2	403	404	21.6	76.5
2025-08-11T22:21	10	0	0.1	0	0	404	0.2	403	404	21.6	76.8
2025-08-11T22:22	10	0	0.1	0	0	404	0.3	403	404	21.6	75.9
2025-08-11T22:23	10	0	0.1	0	0	404	0.2	403	404	21.7	75.3
2025-08-11T22:24	10	0	0.1	0	0	404	0.2	403	404	21.8	75.0
2025-08-11T22:25	10	0	0.1	0	0	404	0.3	404	405	21.9	74.7
2025-08-11T22:26	10	0	0.1	0	0	404	0.2	404	405	21.9	74.4
2025-08-11T22:27	10	0	0.1	0	0	404	0.2	403	404	22.0	74.2
2025-08-11T22:28	10	0	0.0	0	0	404	0.2	403	404	22.0	74.1
2025-08-11T22:29	10	0	0.0	0	0	404	0.2	403	404	21.9	74.4
2025-08-11T22:30	10	0	0.1	0	0	403	0.2	403	404	21.9	74.5
2025-08-11T22:31	10	0	0.0	0	0	403	0.2	402	403	21.8	74.9
2025-08-11T22:32	10	0	0.1	0	0	403	0.2	403	404	21.8	74.8
2025-08-11T22:33	10	0	0.1	0	0	403	0.2	402	403	21.8	75.3
2025-08-11T22:34	10	0	0.1	0	0	403	0.3	402	403	21.7	76.4
2025-08-11T22:35	10	0	0.1	0	0	403	0.2	402	403	21.6	76.8
2025-08-11T22:36	10	0	0.1	0	0	402	0.2	402	403	21.5	77.0
2025-08-11T22:37	10	0	0.1	0	0	403	0.2	402	403	21.4	77.8
2025-08-11T22:38	10	0	0.1	0	0	403	0.3	402	404	21.4	78.4
2025-08-11T22:39	10	0	0.1	0	0	404	0.2	403	404	21.3	78.3
2025-08-11T22:40	10	0	0.1	0	0	403	0.3	402	404	21.3	78.7
2025-08-11T22:41	10	0	0.1	0	0	403	0.2	402	403	21.1	80.6
2025-08-11T22:42	10	0	0.1	0	0	403	0.2	402	403	21.0	80.4
2025-08-11T22:43	10	0	0.1	0	0	403	0.3	402	403	21.0	79.6
2025-08-11T22:44	10	0	0.1	0	0	402	0.2	402	403	21.2	78.7
2025-08-11T22:45	10	0	0.1	0	0	401	0.2	401	402	21.2	78.7
2025-08-11T22:46	10	0	0.1	0	0	401	0.2	400	401	21.1	78.8
2025-08-11T22:47	10	0	0.1	0	0	401	0.2	400	401	21.0	78.9
2025-08-11T22:48	10	0	0.1	0	0	401	0.3	400	401	21.0	79.1
2025-08-11T22:49	10	0	0.1	0	0	401	0.3	401	402	21.0	79.3
2025-08-11T22:50	10	0	0.1	0	0	401	0.2	401	402	21.1	78.9
2025-08-11T22:51	10	0	0.1	0	0	401	0.3	400	401	21.1	78.9
2025-08-11T22:52	10	0	0.1	0	0	401	0.3	400	401	21.0	79.0
2025-08-11T22:53	10	0	0.1	0	0	401	0.2	400	401	21.1	78.4
2025-08-11T22:54	10	0	0.1	0	0	401	0.3	400	402	21.1	78.5
2025-08-11T22:55	10	0	0.1	0	0	401	0.3	401	402	21.2	77.8
2025-08-11T22:56	10	0	0.1	0	0	402	0.2	401	402	21.5	76.8
2025-08-11T22:57	10	0	0.1	0	0	402	0.2	401	403	21.5	76.2
2025-08-11T22:58	10	0	0.1	0	0	402	0.3	401	402	21.5	76.3
2025-08-11T22:59	10	0	0.1	0	0	401	0.2	401	402	21.5	76.3
2025-08-11T23:00	10	0	0.1	0	0	402	0.2	401	402	21.5	76.3
2025-08-11T23:01	10	0	0.1	0	0	401	0.3	400	401	21.4	76.6
2025-08-11T23:02	10	0	0.1	0	0	400	0.4	400	401	21.3	77.2
2025-08-11T23:03	10	0	0.1	0	0	400	0.2	400	401	21.1	78.1
2025-08-11T23:04	10	0	0.1	0	0	400	0.2	399	400	21.0	78.6
2025-08-11T23:05	10	0	0.1	0	0	399	0.2	399	400	20.9	78.9
2025-08-11T23:06	10	0	0.1	0	0	400	0.2	399	400	21.0	78.9
2025-08-11T23:07	10	0	0.1	0	0	400	0.4	399	401	21.0	78.6
2025-08-11T23:08	10	0	0.1	0	0	400	0.2	400	401	21.1	78.4
2025-08-11T23:09	10	0	0.1	0	0	400	0.3	400	401	21.0	78.9
2025-08-11T23:10	10	0	0.1	0	0	400	0.3	400	401	20.9	79.6
2025-08-11T23:11	10	0	0.1	0	0	401	0.3	400	401	20.8	80.0
2025-08-11T23:12	10	0	0.1	0	0	401	0.2	400	402	20.8	79.8
2025-08-11T23:13	10	0	0.1	0	0	401	0.4	401	402	20.8	79.7
2025-08-11T23:14	10	0	0.1	0	0	402	0.4	401	402	20.9	79.5
2025-08-11T23:15	10	0	0.1	0	0	402	0.2	402	402	20.9	79.4
2025-08-11T23:16	10	0	0.1	0	0	402	0.3	401	402	20.9	79.4
2025-08-11T23:17	10	0	0.1	0	0	402	0.5	401	403	21.0	78.8
2025-08-11T23:18	10	0	0.1	0	0	403	0.2	402	403	21.2	78.2
2025-08-11T23:19	10	0	0.1	0	0	402	0.3	402	403	21.2	77.9
2025-08-11T23:20	10	0	0.1	0	0	402	0.3	402	403	21.1	78.3
2025-08-11T23:21	10	0	0.1	0	0	402	0.2	401	402	21.1	78.5
2025-08-11T23:22	10	0	0.1	0	0	402	0.2	401	402	21.2	78.1
2025-08-11T23:23	10	0	0.1	0	0	402	0.2	401	402	21.3	77.5
2025-08-11T23:24	10	0	0.0	0	0	401	0.2	401	402	21.4	77.3
2025-08-11T23:25	10	0	0.1	0	0	401	0.3	401	402	21.4	77.3
2025-08-11T23:26	10	0	0.1	0	0	401	0.2	400	401	21.3	77.4
2025-08-11T23:27	10	0	0.1	0	0	401	0.3	401	402	21.4	77.4
2025-08-11T23:28	10	0	0.1	0	0	401	0.2	400	402	21.3	77.5
2025-08-11T23:29	10	0	0.1	0	0	401	0.3	400	402	21.3	77.7
2025-08-11T23:30	10	0	0.1	0	0	402	0.4	401	402	21.3	77.7
2025-08-11T23:31	10	0	0.1	0	0	402	0.2	402	402	21.4	77.5
2025-08-11T23:32	10	0	0.1	0	0	403	0.2	402	403	21.4	77.5
2025-08-11T23:33	10	0	0.0	0	0	402	0.3	402	403	21.4	77.5
2025-08-11T23:34	10	0	0.1	0	0	402	0.3	401	402	21.2	78.3
2025-08-11T23:35	10	0	0.1	0	0	401	0.2	401	402	21.1	79.0
2025-08-11T23:36	10	0	0.1	0	0	402	0.2	401	403	21.1	78.9
2025-08-11T23:37	10	0	0.1	0	0	402	0.2	402	403	21.1	78.8
2025-08-11T23:38	10	0	0.1	0	0	402	0.2	402	403	21.1	78.5
2025-08-11T23:39	10	0	0.1	0	0	402	0.3	401	403	21.2	78.2
2025-08-11T23:40	10	0	0.1	0	0	402	0.3	401	402	21.2	78.3
2025-08-11T23:41	10	0	0.1	0	0	402	0.2	401	402	21.2	78.3
2025-08-11T23:42	10	0	0.1	0	0	401	0.2	401	402	21.2	78.3
2025-08-11T23:43	10	0	0.2	0	0	401	0.3	401	402	21.1	78.5
2025-08-11T23:44	10	0	0.2	0	1	401	0.3	400	401	21.1	78.8
2025-08-11T23:45	10	0	0.2	0	0	399	0.8	398	401	21.0	79.2
2025-08-11T23:46	10	0	0.2	0	1	398	0.4	398	399	20.9	79.7
2025-08-11T23:47	10	0	0.2	0	1	398	0.3	398	399	20.8	80.1
2025-08-11T23:48	10	0	0.2	0	1	398	0.4	397	399	20.6	80.9
2025-08-11T23:49	10	0	0.2	0	1	398	0.3	398	399	20.5	81.8
2025-08-11T23:50	10	0	0.2	0	1	398	0.3	398	399	20.4	81.7
2025-08-11T23:51	10	0	0.2	0	0	399	0.3	398	399	20.4	82.0
2025-08-11T23:52	10	0	0.2	0	0	399	0.2	398	399	20.4	82.2
2025-08-11T23:53	10	0	0.2	0	1	399	0.2	398	399	20.3	82.4
2025-08-11T23:54	10	0	0.2	0	0	399	0.3	398	399	20.2	82.9
2025-08-11T23:55	10	0	0.2	0	0	399	0.3	398	400	20.0	83.7
2025-08-11T23:56	10	0	0.2	0	1	399	0.3	399	400	20.0	84.2
2025-08-11T23:57	10	0	0.2	0	1	399	0.4	398	400	20.0	84.3
2025-08-11T23:58	10	0	0.2	-1	1	399	0.3	399	400	20.0	84.0
2025-08-11T23:59	10	0	0.1	0	0	399	0.2	399	400	20.1	83.3
2025-08-12T00:00	10	0	0.2	0	0	399	0.2	399	400	20.1	83.2
2025-08-12T00:01	10	0	0.1	0	0	399	0.3	399	400	20.1	83.4
2025-08-12T00:02	10	0	0.1	0	0	399	0.3	399	400	19.9	83.8
2025-08-12T00:03	10	0	0.1	0	1	400	0.6	399	401	19.8	83.9
2025-08-12T00:04	10	0	0.1	0	0	401	0.5	400	402	19.8	84.1
2025-08-12T00:05	10	0	0.1	0	1	400	0.2	400	401	19.8	84.3
2025-08-12T00:06	10	0	0.1	0	0	401	0.3	400	401	19.7	84.5
2025-08-12T00:07	10	0	0.1	0	1	401	0.3	401	402	19.8	84.6
2025-08-12T00:08	10	0	0.1	0	0	401	0.4	401	402	19.9	84.0
2025-08-12T00:09	10	0	0.1	0	0	401	0.3	400	402	20.1	82.8
2025-08-12T00:10	10	0	0.1	0	0	400	0.3	399	401	20.1	82.6
2025-08-12T00:11	10	0	0.1	0	0	400	0.3	399	401	20.1	82.7
2025-08-12T00:12	10	0	0.1	0	0	400	0.3	399	400	20.3	82.0
2025-08-12T00:13	10	0	0.1	0	0	400	0.2	400	400	20.4	81.5
2025-08-12T00:14	10	0	0.1	0	0	400	0.2	400	401	20.5	81.0
2025-08-12T00:15	10	0	0.1	0	0	400	0.2	399	400	20.5	80.8
2025-08-12T00:16	10	0	0.1	0	0	400	0.2	399	400	20.6	80.5
2025-08-12T00:17	10	0	0.1	0	0	400	0.3	399	401	20.7	80.4
2025-08-12T00:18	10	0	0.1	0	0	400	0.2	400	401	20.7	80.4
2025-08-12T00:19	10	0	0.1	0	0	400	0.3	400	401	20.7	80.2
2025-08-12T00:20	10	0	0.1	0	0	400	0.2	400	401	20.7	80.2
2025-08-12T00:21	10	0	0.1	0	0	401	0.3	400	401	20.7	80.1
2025-08-12T00:22	10	0	0.0	0	0	400	0.3	400	401	20.7	80.3
2025-08-12T00:23	10	0	0.1	0	0	401	0.2	400	401	20.7	80.3
2025-08-12T00:24	10	0	0.1	0	0	400	0.2	400	401	20.6	80.5
2025-08-12T00:25	10	0	0.1	0	0	401	0.3	400	401	20.5	80.8
2025-08-12T00:26	10	0	0.1	0	0	402	0.4	401	403	20.5	81.2
2025-08-12T00:27	10	0	0.1	0	0	402	0.2	402	403	20.4	81.4
2025-08-12T00:28	10	0	0.0	0	0	402	0.2	402	403	20.4	81.7
2025-08-12T00:29	10	0	0.0	0	0	403	0.3	402	403	20.4	81.8
2025-08-12T00:30	10	0	0.1	0	0	402	0.2	402	403	20.4	82.0
2025-08-12T00:31	10	0	0.1	0	0	402	0.3	401	403	20.3	82.4
2025-08-12T00:32	10	0	0.1	0	0	402	0.2	401	402	20.2	82.6
2025-08-12T00:33	10	0	0.1	0	0	401	0.3	401	402	20.2	82.7
2025-08-12T00:34	10	0	0.1	0	0	401	0.3	400	402	20.2	82.7
2025-08-12T00:35	10	0	0.1	0	0	401	0.3	400	401	20.1	82.9
2025-08-12T00:36	10	0	0.1	0	0	400	0.6	399	401	20.1	83.2
2025-08-12T00:37	10	0	0.1	0	0	399	0.3	398	400	20.0	83.7
2025-08-12T00:38	10	0	0.1	0	0	398	0.2	398	399	19.9	84.0
2025-08-12T00:39	10	0	0.1	0	0	398	0.3	398	399	20.0	84.0
2025-08-12T00:40	10	0	0.1	0	0	398	0.4	398	399	20.0	83.9
2025-08-12T00:41	10	0	0.1	0	0	399	0.2	398	399	20.1	82.9
2025-08-12T00:42	10	0	0.1	0	0	399	0.2	399	399	20.1	82.8
2025-08-12T00:43	10	0	0.1	0	0	399	0.2	399	399	20.0	83.0
2025-08-12T00:44	10	0	0.1	0	0	400	0.3	399	400	20.1	82.7
2025-08-12T00:45	10	0	0.1	0	0	399	0.3	399	400	20.1	82.4
2025-08-12T00:46	10	0	0.1	0	0	400	0.4	399	401	20.1	82.2
2025-08-12T00:47	10	0	0.1	0	0	400	0.3	400	401	20.2	82.0
2025-08-12T00:48	10	0	0.1	0	0	400	0.3	400	401	20.2	81.8
2025-08-12T00:49	10	0	0.1	0	0	401	0.3	400	402	20.4	81.2
2025-08-12T00:50	10	0	0.1	0	0	401	0.3	401	402	20.4	81.0
2025-08-12T00:51	10	0	0.1	0	0	402	0.3	401	402	20.4	81.0
2025-08-12T00:52	10	0	0.1	0	1	402	0.3	401	403	20.4	81.2
2025-08-12T00:53	10	0	0.1	0	0	402	0.2	401	402	20.3	81.6
2025-08-12T00:54	10	0	0.1	0	0	402	0.3	402	403	20.1	82.3
2025-08-12T00:55	10	0	0.1	0	0	402	0.3	402	403	20.0	83.0
2025-08-12T00:56	10	0	0.1	0	0	403	0.3	402	403	19.9	83.2
2025-08-12T00:57	10	0	0.1	0	0	402	0.2	402	403	20.0	83.2
2025-08-12T00:58	10	0	0.1	0	0	403	0.3	402	403	19.8	83.8
2025-08-12T00:59	10	0	0.1	0	0	402	0.3	402	403	19.8	83.8
2025-08-12T01:00	10	0	0.1	0	0	402	0.3	401	402	19.8	83.8
2025-08-12T01:01	10	0	0.1	0	0	402	0.3	401	402	19.8	83.9
2025-08-12T01:02	10	0	0.1	0	0	401	0.3	401	402	19.7	84.3
2025-08-12T01:03	10	0	0.1	0	0	402	0.3	401	402	19.7	84.3
2025-08-12T01:04	10	0	0.1	0	0	401	0.2	400	401	19.7	84.4
2025-08-12T01:05	10	0	1.3	0	9	401	0.2	400	401	19.6	84.8
2025-08-12T01:06	10	0	0.1	0	0	400	0.4	399	401	19.5	85.2
2025-08-12T01:07	10	0	0.1	0	0	399	0.4	398	400	19.3	86.0
2025-08-12T01:08	10	0	0.1	0	0	398	0.3	397	398	19.2	86.5
2025-08-12T01:09	10	0	0.1	0	0	397	0.3	397	398	19.1	86.9
2025-08-12T01:10	10	0	0.1	0	0	397	0.3	396	398	19.2	86.8
2025-08-12T01:11	10	0	0.1	0	0	396	0.2	396	397	19.1	87.0
2025-08-12T01:12	10	0	0.1	0	0	397	0.5	396	398	19.1	87.1
2025-08-12T01:13	10	0	0.1	0	0	398	0.4	397	399	19.2	86.9
2025-08-12T01:14	10	0	0.1	0	0	398	0.4	397	399	19.2	86.6
2025-08-12T01:15	10	0	0.1	0	0	399	0.3	398	400	19.2	86.6
2025-08-12T01:16	10	0	0.1	0	0	399	0.2	398	400	19.2	86.7
2025-08-12T01:17	10	0	0.1	0	0	399	0.2	398	399	19.1	86.8
2025-08-12T01:18	10	0	0.1	0	0	399	0.3	398	399	19.1	86.9
2025-08-12T01:19	10	0	0.1	0	0	399	0.3	398	399	19.1	86.9
2025-08-12T01:20	10	0	0.1	0	0	398	0.4	397	399	19.1	86.8
2025-08-12T01:21	10	0	0.1	0	0	397	0.3	397	398	19.1	87.1
2025-08-12T01:22	10	0	0.1	0	0	398	0.3	397	398	19.1	87.2
2025-08-12T01:23	10	0	0.1	0	0	398	0.3	397	398	19.1	87.1
2025-08-12T01:24	10	0	0.1	0	0	397	0.2	397	398	19.2	87.0
2025-08-12T01:25	10	0	0.1	0	0	398	0.4	397	398	19.3	86.5
2025-08-12T01:26	10	0	0.1	0	0	397	0.2	397	398	19.4	85.8
2025-08-12T01:27	10	0	0.1	0	0	398	0.3	397	399	19.4	85.8
2025-08-12T01:28	10	0	0.1	0	0	398	0.3	397	399	19.5	85.4
2025-08-12T01:29	10	0	0.1	0	0	399	0.4	398	400	19.6	84.8
2025-08-12T01:30	10	0	0.1	0	0	399	0.3	398	400	19.7	84.2
2025-08-12T01:31	10	0	0.1	0	0	398	0.3	397	399	19.6	84.6
2025-08-12T01:32	10	0	0.1	0	0	398	0.4	397	398	19.5	85.4
2025-08-12T01:33	10	0	0.1	0	0	397	0.4	396	398	19.4	85.8
2025-08-12T01:34	10	0	0.1	0	0	396	0.3	396	397	19.3	86.1
2025-08-12T01:35	10	0	0.1	0	0	397	0.4	396	397	19.2	86.5
2025-08-12T01:36	10	0	0.1	0	0	395	0.5	394	396	19.1	86.9
2025-08-12T01:37	10	0	0.0	0	0	394	0.4	393	395	19.0	87.3
2025-08-12T01:38	10	0	0.0	0	0	394	0.3	393	394	18.9	87.8
2025-08-12T01:39	10	0	0.1	0	0	393	0.2	392	393	19.0	87.7
2025-08-12T01:40	10	0	0.1	0	0	393	0.3	392	393	19.0	87.6
2025-08-12T01:41	10	0	0.1	0	0	393	0.5	392	394	19.0	87.5
2025-08-12T01:42	10	0	0.0	0	0	394	0.6	393	396	19.1	87.1
2025-08-12T01:43	10	0	0.1	0	0	396	0.3	395	396	19.2	86.7
2025-08-12T01:44	10	0	0.0	0	0	397	0.4	396	398	19.2	86.8
2025-08-12T01:45	10	0	0.0	0	0	397	0.3	397	398	19.3	86.3
2025-08-12T01:46	10	0	0.1	0	0	398	0.2	397	398	19.2	86.6
2025-08-12T01:47	10	0	0.1	0	0	398	0.2	397	398	19.2	86.6
2025-08-12T01:48	10	0	0.1	0	0	398	0.2	398	398	19.2	86.5
2025-08-12T01:49	10	0	0.1	0	0	398	0.2	397	398	19.2	86.6
2025-08-12T01:50	10	0	0.1	0	0	398	0.2	398	399	19.2	86.7
2025-08-12T01:51	10	0	0.1	0	0	398	0.3	397	398	19.2	86.7
2025-08-12T01:52	10	0	0.1	0	1	398	0.3	397	399	19.2	86.7
2025-08-12T01:53	10	0	0.1	0	1	398	0.3	397	399	19.2	86.7
2025-08-12T01:54	10	0	0.1	0	0	399	0.2	398	399	19.2	86.5
2025-08-12T01:55	10	0	0.1	0	0	399	0.2	398	399	19.3	86.2
2025-08-12T01:56	10	0	0.1	0	0	399	0.2	398	399	19.2	86.3
2025-08-12T01:57	10	0	0.1	0	0	399	0.3	398	399	19.1	86.6
2025-08-12T01:58	10	0	0.1	0	0	399	0.2	398	399	19.1	86.9
2025-08-12T01:59	10	0	0.1	0	0	399	0.2	398	399	19.1	86.9
2025-08-12T02:00	10	0	0.1	0	0	399	0.3	399	400	19.1	86.8
2025-08-12T02:01	10	0	0.1	0	1	399	0.2	398	399	19.1	86.9
2025-08-12T02:02	10	0	0.1	0	1	399	0.2	398	399	19.1	86.9
2025-08-12T02:03	10	0	0.1	0	0	398	0.2	398	399	19.0	87.0
2025-08-12T02:04	10	0	0.1	0	0	399	0.3	398	399	19.1	87.0
2025-08-12T02:05	10	0	0.0	0	0	399	0.3	398	400	19.1	86.9
2025-08-12T02:06	10	0	0.1	0	0	399	0.2	399	400	19.1	86.8
2025-08-12T02:07	10	0	0.1	0	1	400	0.3	399	401	19.2	86.3
2025-08-12T02:08	10	0	0.2	0	1	400	0.2	399	400	19.3	85.7
2025-08-12T02:09	10	0	0.1	0	0	400	0.3	399	400	19.3	85.6
2025-08-12T02:10	10	0	0.1	0	0	400	0.3	399	400	19.4	85.0
2025-08-12T02:11	10	0	0.1	0	0	400	0.3	399	400	19.6	84.1
2025-08-12T02:12	10	0	0.1	0	0	400	0.2	399	400	19.6	84.1
2025-08-12T02:13	10	0	0.1	0	0	399	0.5	398	400	19.5	84.6
2025-08-12T02:14	10	0	0.1	0	0	398	0.3	398	399	19.4	84.8
2025-08-12T02:15	10	0	0.1	0	0	398	0.3	397	399	19.4	84.9
2025-08-12T02:16	10	0	0.1	0	0	397	0.6	396	398	19.5	84.6
2025-08-12T02:17	10	0	0.1	0	0	397	0.3	396	397	19.3	85.6
2025-08-12T02:18	10	0	0.1	0	0	397	0.2	396	397	19.4	84.9
2025-08-12T02:19	10	0	0.1	0	0	397	0.4	396	398	19.6	84.3
2025-08-12T02:20	10	0	0.1	0	0	397	0.4	397	398	19.5	84.4
2025-08-12T02:21	10	0	0.1	0	1	398	0.3	397	398	19.3	85.4
2025-08-12T02:22	10	0	0.1	0	0	396	0.6	395	398	19.2	86.0
2025-08-12T02:23	10	0	0.2	0	0	396	0.3	395	397	19.0	86.8
2025-08-12T02:24	10	0	0.1	0	0	396	0.3	395	397	19.0	86.9
2025-08-12T02:25	10	0	0.2	0	1	396	0.4	395	397	19.0	86.8
2025-08-12T02:26	10	0	0.2	0	0	395	0.4	394	396	18.9	87.2
2025-08-12T02:27	10	0	0.2	0	1	394	0.3	394	395	18.8	87.4
2025-08-12T02:28	10	0	0.2	0	0	394	0.3	393	394	18.7	87.8
2025-08-12T02:29	10	0	0.2	0	0	394	0.3	393	394	18.9	87.4
2025-08-12T02:30	10	0	0.2	-1	0	395	0.5	393	395	19.0	86.8
2025-08-12T02:31	10	0	0.2	0	0	395	0.2	395	396	19.0	86.6
2025-08-12T02:32	10	0	0.2	-1	1	395	0.3	395	396	19.0	86.6
2025-08-12T02:33	10	0	0.8	0	6	395	0.3	395	396	19.0	86.6
2025-08-12T02:34	10	0	0.2	0	0	395	0.2	395	396	19.0	86.9
2025-08-12T02:35	10	0	0.2	-1	0	395	0.5	394	397	18.9	87.2
2025-08-12T02:36	10	0	0.2	0	1	396	0.3	395	396	18.9	87.6
2025-08-12T02:37	10	0	0.1	0	0	396	0.2	396	397	18.8	88.0
2025-08-12T02:38	10	0	0.1	0	0	396	0.2	395	397	18.7	88.2
2025-08-12T02:39	10	0	0.2	0	1	396	0.2	395	396	18.8	88.2
2025-08-12T02:40	10	0	0.1	0	0	396	0.4	395	397	18.9	87.7
2025-08-12T02:41	10	0	0.2	0	0	395	0.3	394	395	18.8	87.9
2025-08-12T02:42	10	0	0.2	0	1	395	0.3	394	396	18.8	88.2
2025-08-12T02:43	10	0	0.1	0	0	395	0.3	394	396	18.8	88.3
2025-08-12T02:44	10	0	0.2	0	1	395	0.4	394	396	18.7	88.4
2025-08-12T02:45	10	0	0.2	0	1	394	0.2	394	395	18.7	88.6
2025-08-12T02:46	10	0	0.2	0	0	394	0.4	393	395	18.7	88.7
2025-08-12T02:47	10	0	0.1	0	0	394	0.3	393	394	18.6	89.1
2025-08-12T02:48	10	0	0.2	0	1	394	0.3	393	394	18.6	89.2
2025-08-12T02:49	10	0	0.2	0	0	393	0.3	393	394	18.6	89.0
2025-08-12T02:50	10	0	0.1	0	0	393	0.3	393	394	18.6	88.9
2025-08-12T02:51	10	0	0.1	0	0	394	0.6	393	395	18.6	88.7
2025-08-12T02:52	10	0	0.1	0	0	395	0.3	394	396	18.6	88.8
2025-08-12T02:53	10	0	0.1	0	0	395	0.4	394	396	18.5	89.3
2025-08-12T02:54	10	0	0.1	0	0	396	0.4	395	397	18.6	88.9
2025-08-12T02:55	10	0	0.1	0	0	397	0.2	396	397	18.7	88.5
2025-08-12T02:56	10	0	0.1	0	0	397	0.2	396	397	18.8	88.1
2025-08-12T02:57	10	0	0.1	0	0	397	0.2	396	397	18.7	88.2
2025-08-12T02:58	10	0	0.0	0	0	396	0.4	395	397	18.7	88.5
2025-08-12T02:59	10	0	0.0	0	0	396	0.3	395	396	18.4	89.5
2025-08-12T03:00	10	0	0.1	0	0	396	0.2	396	396	18.4	89.9
2025-08-12T03:01	10	0	0.1	0	0	396	0.2	395	396	18.4	89.8
2025-08-12T03:02	10	0	0.1	0	0	396	0.3	395	396	18.4	89.8
2025-08-12T03:03	10	0	0.1	0	0	395	0.3	395	396	18.5	89.6
2025-08-12T03:04	10	0	0.1	0	0	395	0.3	394	395	18.4	89.8
2025-08-12T03:05	10	0	0.1	0	0	394	0.3	394	395	18.5	89.5
2025-08-12T03:06	10	0	0.1	0	0	394	0.3	393	394	18.4	89.6
2025-08-12T03:07	10	0	0.1	0	1	393	0.3	393	394	18.4	89.8
2025-08-12T03:08	10	0	0.1	0	0	394	0.3	393	394	18.3	90.0
2025-08-12T03:09	10	0	0.1	0	0	394	0.2	393	394	18.3	90.2
2025-08-12T03:10	10	0	0.1	0	0	393	0.2	393	394	18.2	90.4
2025-08-12T03:11	10	0	0.1	0	0	393	0.2	393	394	18.3	90.4
2025-08-12T03:12	10	0	0.1	0	0	394	0.2	393	394	18.3	90.2
2025-08-12T03:13	10	0	0.1	0	0	393	0.3	392	394	18.3	90.4
2025-08-12T03:14	10	0	0.1	0	0	394	0.3	393	394	18.2	90.6
2025-08-12T03:15	10	0	0.1	0	0	393	0.3	392	394	18.2	90.8
2025-08-12T03:16	10	0	0.1	0	0	392	0.3	392	393	18.2	91.0
2025-08-12T03:17	10	0	0.1	0	0	392	0.3	391	392	18.1	91.1
2025-08-12T03:18	10	0	0.1	0	0	392	0.4	391	393	18.1	91.0
2025-08-12T03:19	10	0	0.1	0	0	391	0.2	391	392	18.1	91.2
2025-08-12T03:20	10	0	0.1	0	0	392	0.3	391	392	18.0	91.2
2025-08-12T03:21	10	0	0.1	0	0	392	0.2	391	392	18.1	91.3
2025-08-12T03:22	10	0	0.1	0	0	392	0.3	392	393	18.1	91.2
2025-08-12T03:23	10	0	0.1	0	0	392	0.2	392	393	18.1	91.1
2025-08-12T03:24	10	0	0.1	0	0	392	0.3	392	393	18.1	91.1
2025-08-12T03:25	10	0	0.1	0	0	393	0.4	392	394	18.1	91.0
2025-08-12T03:26	10	0	0.1	0	0	393	0.3	393	394	18.1	90.9
2025-08-12T03:27	10	0	0.1	0	0	394	0.3	393	394	18.1	91.0
2025-08-12T03:28	10	0	0.1	0	0	394	0.2	393	394	18.1	91.0
2025-08-12T03:29	10	0	0.1	0	0	394	0.2	394	395	18.1	91.0
2025-08-12T03:30	10	0	0.1	0	0	394	0.3	394	395	18.1	91.0
2025-08-12T03:31	10	0	0.1	0	0	394	0.3	394	395	18.0	91.2
2025-08-12T03:32	10	0	0.0	0	0	394	0.2	394	395	18.1	91.1
2025-08-12T03:33	10	0	0.1	0	0	394	0.3	394	395	18.1	91.1
2025-08-12T03:34	10	0	0.1	0	0	394	0.3	394	395	18.1	91.0
2025-08-12T03:35	10	0	0.1	0	0	395	0.4	394	396	18.1	90.8
2025-08-12T03:36	10	0	0.1	0	0	395	0.3	395	396	18.2	90.6
2025-08-12T03:37	10	0	0.1	0	0	396	0.2	395	396	18.2	90.5
2025-08-12T03:38	10	0	0.0	0	0	396	0.2	396	397	18.3	90.2
2025-08-12T03:39	10	0	0.0	0	0	396	0.2	396	397	18.3	90.1
2025-08-12T03:40	10	0	0.1	0	0	396	0.2	396	397	18.3	90.0
2025-08-12T03:41	10	0	0.1	0	0	396	0.2	396	397	18.3	90.2
2025-08-12T03:42	10	0	0.1	0	0	396	0.3	396	397	18.3	90.1
2025-08-12T03:43	10	0	0.1	0	0	397	0.2	396	397	18.3	90.0
2025-08-12T03:44	10	0	0.1	0	0	396	0.3	396	397	18.3	90.0
2025-08-12T03:45	10	0	0.1	0	0	396	0.2	396	397	18.3	90.1
2025-08-12T03:46	10	0	0.1	0	0	396	0.2	395	397	18.3	89.9
2025-08-12T03:47	10	0	0.0	0	0	396	0.3	395	397	18.4	89.8
2025-08-12T03:48	10	0	0.1	0	0	396	0.3	395	396	18.4	89.7
2025-08-12T03:49	10	0	0.1	0	0	395	0.2	395	395	18.2	90.3
2025-08-12T03:50	10	0	0.1	0	0	395	0.2	395	396	18.3	90.2
2025-08-12T03:51	10	0	0.1	0	0	395	0.3	395	396	18.4	89.9
2025-08-12T03:52	10	0	0.1	0	0	395	0.3	394	395	18.3	89.9
2025-08-12T03:53	10	0	0.1	0	0	395	0.3	394	395	18.3	90.0
2025-08-12T03:54	10	0	0.1	0	0	394	0.2	394	395	18.2	90.3
2025-08-12T03:55	10	0	0.1	0	0	394	0.3	393	394	18.2	90.3
2025-08-12T03:56	10	0	0.1	0	0	393	0.3	392	394	18.2	90.4
2025-08-12T03:57	10	0	0.1	0	0	392	0.4	391	393	18.0	90.8
2025-08-12T03:58	10	0	0.1	0	0	391	0.3	391	392	17.9	91.4
2025-08-12T03:59	10	0	0.1	0	0	391	0.2	390	391	17.8	91.7
2025-08-12T04:00	10	0	0.1	0	0	391	0.3	390	391	17.8	91.8
2025-08-12T04:01	10	0	0.1	0	0	390	0.3	389	391	17.7	91.9
2025-08-12T04:02	10	0	0.1	0	0	390	0.2	389	390	17.6	92.2
2025-08-12T04:03	10	0	0.1	0	0	390	0.3	389	390	17.6	92.3
2025-08-12T04:04	10	0	0.1	0	0	389	0.3	389	390	17.6	92.4
2025-08-12T04:05	10	0	0.1	0	0	389	0.2	388	389	17.6	92.5
2025-08-12T04:06	10	0	0.1	0	0	389	0.2	388	389	17.6	92.5
2025-08-12T04:07	10	0	0.1	0	0	389	0.2	388	389	17.6	92.3
2025-08-12T04:08	10	0	0.1	0	0	389	0.2	389	390	17.7	92.0
2025-08-12T04:09	10	0	0.1	0	0	389	0.2	388	389	17.8	91.7
2025-08-12T04:10	10	0	0.1	0	0	389	0.2	388	389	17.8	91.3
2025-08-12T04:11	10	0	0.1	0	0	389	0.3	388	390	17.9	91.4
2025-08-12T04:12	10	0	0.1	0	0	389	0.3	388	390	17.9	91.4
2025-08-12T04:13	10	0	0.1	0	0	389	0.2	388	389	17.9	91.4
2025-08-12T04:14	10	0	0.1	0	0	389	0.2	388	389	17.9	91.4
2025-08-12T04:15	10	0	0.1	0	0	388	0.2	388	389	17.9	91.5
2025-08-12T04:16	10	0	0.1	0	0	389	0.2	388	389	17.9	91.6
2025-08-12T04:17	10	0	0.1	0	0	388	0.2	388	389	17.8	91.7
2025-08-12T04:18	10	0	0.1	0	0	389	0.2	388	389	17.8	91.8
2025-08-12T04:19	10	0	0.1	0	0	389	0.2	388	389	17.7	92.0
2025-08-12T04:20	10	0	0.1	0	1	389	0.2	388	389	17.7	92.2
2025-08-12T04:21	10	0	0.1	0	1	389	0.3	388	389	17.6	92.4
2025-08-12T04:22	10	0	0.1	0	1	389	0.3	388	389	17.5	92.5
2025-08-12T04:23	10	0	0.1	0	1	388	0.2	388	389	17.5	92.7
2025-08-12T04:24	10	1	0.1	0	1	388	0.3	387	389	17.4	92.9
2025-08-12T04:25	10	1	0.1	0	1	387	0.2	387	388	17.3	92.9
2025-08-12T04:26	10	1	0.1	0	1	387	0.3	387	388	17.3	93.3
2025-08-12T04:27	10	1	0.1	0	1	387	0.3	387	388	17.3	93.7
2025-08-12T04:28	10	1	0.1	1	1	388	0.3	387	388	17.3	93.9
2025-08-12T04:29	10	1	0.1	1	1	388	0.3	388	389	17.3	93.6
2025-08-12T04:30	10	1	0.1	1	1	388	0.3	388	389	17.3	93.0
2025-08-12T04:31	10	1	0.1	1	1	388	0.2	388	389	17.4	93.1
2025-08-12T04:32	10	1	0.1	1	1	388	0.3	388	389	17.3	92.9
2025-08-12T04:33	10	1	0.1	1	2	388	0.3	388	389	17.4	92.7
2025-08-12T04:34	10	1	0.1	1	2	388	0.3	388	389	17.4	92.6
2025-08-12T04:35	10	2	0.1	1	2	388	0.3	388	389	17.4	92.6
2025-08-12T04:36	10	2	0.1	2	2	388	0.2	387	388	17.4	92.6
2025-08-12T04:37	10	2	0.1	2	2	388	0.3	387	389	17.4	92.8
2025-08-12T04:38	10	2	0.1	2	2	388	0.2	388	389	17.5	92.8
2025-08-12T04:39	10	2	0.1	2	3	388	0.2	387	388	17.4	92.8
2025-08-12T04:40	10	3	0.1	2	3	387	0.2	387	388	17.4	92.8
2025-08-12T04:41	10	3	0.1	3	3	388	0.3	387	388	17.4	92.9
2025-08-12T04:42	10	3	0.1	3	3	388	0.2	387	388	17.4	93.0
2025-08-12T04:43	10	3	0.1	3	3	388	0.4	387	389	17.5	92.9
2025-08-12T04:44	10	3	0.1	3	4	389	0.3	388	389	17.5	92.8
2025-08-12T04:45	10	4	0.1	4	4	389	0.2	389	389	17.5	92.6
2025-08-12T04:46	10	4	0.1	4	4	389	0.2	389	390	17.5	92.7
2025-08-12T04:47	10	4	0.1	4	5	390	0.3	389	390	17.6	92.7
2025-08-12T04:48	10	5	0.1	4	5	390	0.3	390	391	17.6	92.6
2025-08-12T04:49	10	5	0.1	5	5	391	0.3	390	392	17.6	92.5
2025-08-12T04:50	10	5	0.1	5	6	391	0.3	391	392	17.6	92.5
2025-08-12T04:51	10	6	0.2	5	6	391	0.2	391	392	17.6	92.3
2025-08-12T04:52	10	6	0.1	6	6	392	0.2	391	392	17.6	92.2
2025-08-12T04:53	10	6	0.1	6	7	392	0.2	391	392	17.6	92.2
2025-08-12T04:54	10	7	0.1	7	7	392	0.3	391	392	17.6	92.1
2025-08-12T04:55	10	7	0.2	7	7	392	0.3	391	393	17.7	92.1
2025-08-12T04:56	10	8	0.2	7	8	392	0.2	392	393	17.7	92.0
2025-08-12T04:57	10	8	0.1	8	8	392	0.2	391	393	17.7	92.0
2025-08-12T04:58	10	8	0.1	8	9	392	0.3	392	393	17.6	92.0
2025-08-12T04:59	10	9	0.2	9	9	393	0.2	392	394	17.7	91.9
2025-08-12T05:00	10	9	0.2	9	10	393	0.2	392	393	17.7	91.8
2025-08-12T05:01	10	10	0.2	9	10	393	0.2	393	394	17.8	91.7
2025-08-12T05:02	10	10	0.2	10	11	393	0.2	393	394	17.8	91.7
2025-08-12T05:03	10	11	0.2	11	11	394	0.2	393	394	17.7	91.7
2025-08-12T05:04	10	11	0.1	11	12	394	0.2	393	394	17.7	91.9
2025-08-12T05:05	10	12	0.1	12	12	394	0.2	393	394	17.6	92.1
2025-08-12T05:06	10	12	0.1	12	13	394	0.3	393	394	17.6	92.2
2025-08-12T05:07	10	13	0.2	12	13	394	0.3	394	395	17.7	92.1
2025-08-12T05:08	10	13	0.2	13	14	395	0.2	394	395	17.7	92.0
2025-08-12T05:09	10	14	0.1	14	14	395	0.2	395	396	17.7	91.8
2025-08-12T05:10	10	14	0.2	14	15	396	0.2	395	396	17.7	91.9
2025-08-12T05:11	10	15	0.2	15	15	396	0.3	396	397	17.7	92.0
2025-08-12T05:12	10	16	0.4	15	16	397	0.2	396	397	17.7	92.0
2025-08-12T05:13	10	18	0.8	16	19	397	0.2	396	398	17.7	91.9
2025-08-12T05:14	10	19	0.2	19	20	397	0.2	397	398	17.8	91.8
2025-08-12T05:15	10	18	0.5	17	19	397	0.2	397	398	17.8	91.7
2025-08-12T05:16	10	17	0.1	17	18	398	0.2	397	398	17.8	91.6
2025-08-12T05:17	10	18	0.1	18	18	398	0.2	397	398	17.8	91.5
2025-08-12T05:18	10	18	0.1	18	19	398	0.3	398	399	17.8	91.5
2025-08-12T05:19	10	19	0.2	19	19	398	0.2	398	399	17.8	91.3
2025-08-12T05:20	10	19	0.2	19	20	399	0.2	398	400	17.9	91.1
2025-08-12T05:21	10	20	0.2	20	20	399	0.3	399	400	17.9	91.0
2025-08-12T05:22	10	21	0.2	20	21	400	0.3	399	400	17.9	90.8
2025-08-12T05:23	10	21	0.2	21	22	400	0.2	399	400	17.9	90.8
2025-08-12T05:24	10	22	0.2	21	22	400	0.2	400	401	17.9	90.8
2025-08-12T05:25	10	23	0.2	22	23	400	0.2	400	401	17.9	90.6
2025-08-12T05:26	10	23	0.2	23	24	401	0.2	400	402	17.9	90.5
2025-08-12T05:27	10	24	0.2	24	24	401	0.2	401	401	18.0	90.2
2025-08-12T05:28	10	24	0.2	24	25	402	0.2	401	402	18.0	90.0
2025-08-12T05:29	10	25	0.2	25	25	402	0.2	401	402	18.0	90.0
2025-08-12T05:30	10	25	0.2	25	26	402	0.2	402	403	18.1	89.8
2025-08-12T05:31	10	26	0.2	25	26	403	0.3	402	403	18.1	90.0
2025-08-12T05:32	10	27	0.2	26	27	403	0.3	402	404	18.1	89.8
2025-08-12T05:33	10	27	0.2	27	28	404	0.2	403	404	18.2	89.8
2025-08-12T05:34	10	28	0.2	27	28	404	0.2	403	404	18.3	89.7
2025-08-12T05:35	10	28	0.2	28	29	404	0.2	404	405	18.3	89.6
2025-08-12T05:36	10	29	0.2	28	29	404	0.3	404	405	18.3	89.2
2025-08-12T05:37	10	30	0.2	29	30	405	0.3	404	406	18.4	89.3
2025-08-12T05:38	10	30	0.2	30	31	405	0.2	405	406	18.4	89.2
2025-08-12T05:39	10	31	0.2	30	31	406	0.2	405	406	18.5	89.0
2025-08-12T05:40	10	31	0.2	31	32	406	0.3	405	406	18.5	88.8
2025-08-12T05:41	10	32	0.2	32	32	406	0.2	406	407	18.5	89.2
2025-08-12T05:42	10	32	0.2	32	33	406	0.3	406	407	18.5	88.7
2025-08-12T05:43	10	33	0.2	32	33	407	0.2	406	407	18.5	88.5
2025-08-12T05:44	10	33	0.2	33	34	407	0.2	406	407	18.5	88.4
2025-08-12T05:45	10	34	0.1	33	34	407	0.2	406	408	18.6	88.5
2025-08-12T05:46	10	34	0.1	34	34	408	0.3	407	408	18.6	88.6
2025-08-12T05:47	10	35	0.2	34	35	408	0.2	408	408	18.7	88.3
2025-08-12T05:48	10	35	0.2	35	35	408	0.3	407	409	18.7	88.4
2025-08-12T05:49	10	36	0.2	35	36	409	0.2	408	409	18.7	88.4
2025-08-12T05:50	10	36	0.2	36	36	409	0.2	408	409	18.8	88.0
2025-08-12T05:51	10	37	0.2	36	37	409	0.2	409	409	18.8	87.3
2025-08-12T05:52	10	37	0.2	37	37	410	0.2	409	410	18.9	87.0
2025-08-12T05:53	10	38	0.2	37	38	410	0.3	409	411	19.0	86.3
2025-08-12T05:54	10	38	0.2	38	38	410	0.3	410	411	19.0	86.5
2025-08-12T05:55	10	39	0.2	38	39	411	0.2	411	412	19.1	86.1
2025-08-12T05:56	10	39	0.2	39	40	412	0.2	411	412	19.1	85.5
2025-08-12T05:57	10	40	0.2	40	40	412	0.2	412	412	19.2	85.3
2025-08-12T05:58	10	41	0.2	40	41	413	0.3	412	413	19.2	85.4
2025-08-12T05:59	10	41	0.2	41	41	413	0.3	413	414	19.3	85.4
2025-08-12T06:00	10	42	0.3	41	42	414	0.3	413	414	19.4	84.7
2025-08-12T06:01	10	43	0.2	42	43	414	0.3	414	415	19.5	84.0
2025-08-12T06:02	10	43	0.2	43	44	415	0.2	415	416	19.6	84.1
2025-08-12T06:03	10	44	0.2	43	44	416	0.2	415	416	19.6	84.6
2025-08-12T06:04	10	44	0.3	44	45	417	0.3	416	417	19.6	84.8
2025-08-12T06:05	10	45	0.2	44	45	417	0.2	416	417	19.7	84.2
2025-08-12T06:06	10	45	0.2	45	46	417	0.3	417	418	19.9	83.2
2025-08-12T06:07	10	46	0.3	45	47	418	0.2	417	418	19.9	82.4
2025-08-12T06:08	10	46	0.2	46	47	418	0.3	417	419	19.9	81.8
2025-08-12T06:09	10	47	0.2	46	47	418	0.2	418	419	20.0	81.9
2025-08-12T06:10	10	47	0.2	47	48	418	0.2	417	419	20.0	81.7
2025-08-12T06:11	10	48	0.3	48	49	418	0.2	418	419	20.0	82.2
2025-08-12T06:12	10	49	0.2	48	49	418	0.4	417	419	20.0	82.2
2025-08-12T06:13	10	50	0.3	49	50	418	0.4	418	419	20.0	82.6
2025-08-12T06:14	10	50	0.2	50	51	419	0.2	419	420	20.1	83.1
2025-08-12T06:15	10	51	0.2	50	51	419	0.3	418	420	20.1	82.3
2025-08-12T06:16	10	51	0.2	51	52	420	0.3	419	421	20.2	82.9
2025-08-12T06:17	10	52	0.2	52	53	421	0.2	421	422	20.3	82.9
2025-08-12T06:18	10	53	0.2	52	53	421	0.2	420	421	20.3	81.8
2025-08-12T06:19	10	53	0.2	53	54	421	0.2	421	422	20.3	81.3
2025-08-12T06:20	10	54	0.2	54	54	421	0.2	421	422	20.3	81.4
2025-08-12T06:21	10	54	0.2	54	55	422	0.2	422	422	20.4	81.1
2025-08-12T06:22	10	55	0.2	55	55	423	0.3	422	423	20.3	81.0
2025-08-12T06:23	10	55	0.2	55	56	423	0.3	423	424	20.4	81.1
2025-08-12T06:24	10	56	0.1	56	56	424	0.3	423	424	20.4	82.1
2025-08-12T06:25	10	56	0.3	56	57	424	0.2	424	425	20.5	81.0
2025-08-12T06:26	10	57	0.2	57	57	425	0.2	425	425	20.5	80.8
2025-08-12T06:27	10	58	0.2	57	58	425	0.2	425	426	20.6	80.4
2025-08-12T06:28	10	58	0.2	58	59	426	0.3	425	426	20.7	80.2
2025-08-12T06:29	10	59	0.2	58	59	426	0.3	426	427	20.7	79.9
2025-08-12T06:30	10	59	0.2	59	60	426	0.4	425	427	20.7	79.8
2025-08-12T06:31	10	60	0.2	60	60	427	0.4	426	427	20.8	80.5
2025-08-12T06:32	10	60	0.2	60	61	426	0.2	425	427	20.7	81.1
2025-08-12T06:33	10	61	0.2	61	61	427	0.2	426	427	20.6	81.0
2025-08-12T06:34	10	61	0.2	61	62	427	0.4	426	428	20.5	81.6
2025-08-12T06:35	10	62	0.2	61	62	428	0.4	426	428	20.6	81.2
2025-08-12T06:36	10	62	0.2	62	63	428	0.2	427	428	20.7	80.3
2025-08-12T06:37	10	63	0.2	62	63	428	0.3	428	429	20.7	80.9
2025-08-12T06:38	10	63	0.2	63	64	429	0.2	428	429	20.8	81.0
2025-08-12T06:39	10	64	0.1	64	64	429	0.2	429	429	20.7	81.2
2025-08-12T06:40	10	64	0.2	64	65	429	0.3	428	429	20.7	80.9
2025-08-12T06:41	10	65	0.1	65	65	429	0.2	428	429	20.7	80.7
2025-08-12T06:42	10	65	0.2	65	66	429	0.2	429	430	20.7	80.6
2025-08-12T06:43	10	66	0.2	66	66	430	0.3	429	431	20.8	80.0
2025-08-12T06:44	10	67	0.3	66	67	430	0.2	430	431	20.8	80.1
2025-08-12T06:45	10	68	0.2	67	68	431	0.4	431	432	20.8	80.3
2025-08-12T06:46	10	67	0.2	67	68	432	0.2	431	432	20.9	80.2
2025-08-12T06:47	10	68	0.2	68	69	432	0.5	431	433	21.0	79.6
2025-08-12T06:48	10	69	0.3	68	70	433	0.2	433	434	21.1	79.5
2025-08-12T06:49	10	70	0.3	69	71	434	0.3	433	434	21.2	78.6
2025-08-12T06:50	10	71	0.2	70	71	434	0.3	433	434	21.2	78.8
2025-08-12T06:51	10	71	0.2	71	72	434	0.5	434	435	21.3	78.3
2025-08-12T06:52	10	72	0.2	71	72	435	0.3	434	436	21.4	78.0
2025-08-12T06:53	10	72	0.2	72	73	436	0.3	435	436	21.7	77.0
2025-08-12T06:54	10	72	0.2	72	73	437	0.4	436	437	21.8	76.5
2025-08-12T06:55	10	73	0.3	72	73	437	0.3	436	438	21.9	76.6
2025-08-12T06:56	10	73	0.2	73	74	437	0.2	437	437	21.9	75.4
2025-08-12T06:57	10	72	0.5	71	73	437	0.3	437	438	21.8	74.8
2025-08-12T06:58	10	74	0.4	73	75	438	0.2	437	438	21.9	74.5
2025-08-12T06:59	10	75	0.1	75	75	439	0.4	438	440	22.1	74.7
2025-08-12T07:00	10	75	0.2	75	76	440	0.3	439	441	22.2	74.4
2025-08-12T07:01	10	76	0.2	75	76	441	0.3	440	441	22.2	74.9
2025-08-12T07:02	10	76	0.1	76	76	441	0.3	440	441	22.1	75.2
2025-08-12T07:03	10	77	0.3	76	77	441	0.2	441	441	22.1	74.7
2025-08-12T07:04	10	77	0.2	77	77	442	0.2	441	442	22.3	73.7
2025-08-12T07:05	10	78	0.1	77	78	442	0.2	442	443	22.5	73.2
2025-08-12T07:06	10	78	0.1	78	78	443	0.4	442	444	22.6	73.3
2025-08-12T07:07	10	78	0.2	78	79	444	0.2	443	444	22.5	74.1
2025-08-12T07:08	10	79	0.3	79	80	444	0.2	443	444	22.3	74.3
2025-08-12T07:09	10	80	0.2	80	80	444	0.2	444	445	22.3	74.3
2025-08-12T07:10	10	80	0.1	80	81	444	0.5	444	445	22.3	74.2
2025-08-12T07:11	10	81	0.2	80	81	444	0.4	443	445	22.4	73.7
2025-08-12T07:12	10	81	0.1	81	82	445	0.3	444	446	22.4	73.3
2025-08-12T07:13	10	82	0.3	81	82	445	0.3	444	446	22.4	74.4
2025-08-12T07:14	10	82	0.2	81	82	446	0.4	445	447	22.4	74.3
2025-08-12T07:15	10	83	0.3	82	83	446	0.3	446	447	22.2	74.2
2025-08-12T07:16	10	83	0.2	83	83	447	0.2	446	447	22.2	74.8
2025-08-12T07:17	10	84	0.2	83	84	447	0.3	446	447	22.2	74.9
2025-08-12T07:18	10	84	0.1	84	84	447	0.3	446	447	22.1	75.2
2025-08-12T07:19	10	84	0.1	84	84	448	0.4	447	449	22.3	75.1
2025-08-12T07:20	10	84	0.1	84	84	448	0.3	447	449	22.4	74.5
2025-08-12T07:21	10	84	0.2	84	85	449	0.3	448	450	22.5	73.6
2025-08-12T07:22	10	85	0.2	85	85	449	0.3	448	449	22.5	73.5
2025-08-12T07:23	10	85	0.3	85	86	449	0.3	448	449	22.5	73.1
2025-08-12T07:24	10	86	0.1	86	86	449	0.3	449	450	22.6	72.7
2025-08-12T07:25	10	86	0.1	86	87	450	0.3	449	451	22.7	72.1
2025-08-12T07:26	10	87	0.1	86	87	451	0.3	451	452	22.8	72.1
2025-08-12T07:27	10	87	0.2	87	88	452	0.3	451	453	22.8	72.0
2025-08-12T07:28	10	88	0.2	87	88	452	0.4	451	453	22.6	72.4
2025-08-12T07:29	10	88	0.1	88	88	452	0.4	451	453	22.6	72.5
2025-08-12T07:30	10	89	0.2	88	89	453	0.3	452	454	22.7	72.0
2025-08-12T07:31	10	89	0.3	88	90	453	0.4	452	454	22.7	71.4
2025-08-12T07:32	10	90	0.2	89	90	454	0.4	454	455	22.8	71.3
2025-08-12T07:33	10	90	0.3	89	90	455	0.3	454	456	22.8	71.0
2025-08-12T07:34	10	90	0.2	90	91	455	0.3	454	456	22.9	70.9
2025-08-12T07:35	10	90	0.2	90	91	455	0.5	455	456	23.0	70.7
2025-08-12T07:36	10	91	0.1	90	91	456	0.3	455	456	23.0	70.4
2025-08-12T07:37	10	91	0.1	91	91	456	0.3	455	456	23.0	70.2
2025-08-12T07:38	10	91	0.2	91	92	456	0.3	456	457	23.1	69.5
2025-08-12T07:39	10	91	0.1	91	92	457	0.3	456	458	23.3	69.6
2025-08-12T07:40	10	92	0.1	91	92	458	0.4	457	459	23.6	68.5
2025-08-12T07:41	10	92	0.1	92	92	458	0.3	458	459	23.5	68.4
2025-08-12T07:42	10	92	0.3	92	93	459	0.3	458	460	23.4	68.6
2025-08-12T07:43	10	93	0.2	92	93	459	0.4	458	460	23.3	68.4
2025-08-12T07:44	10	93	0.1	93	94	460	0.3	459	460	23.3	68.0
2025-08-12T07:45	10	94	0.1	93	94	460	0.3	459	460	23.3	67.8
2025-08-12T07:46	10	94	0.2	94	94	460	0.3	459	461	23.3	67.5
2025-08-12T07:47	10	94	0.1	94	95	460	0.2	460	461	23.3	67.2
2025-08-12T07:48	10	95	0.2	95	95	461	0.4	459	461	23.3	67.1
2025-08-12T07:49	10	95	0.1	95	95	461	0.3	460	461	23.3	67.0
2025-08-12T07:50	10	95	0.2	95	96	462	0.4	461	462	23.5	67.1
2025-08-12T07:51	10	96	0.1	95	96	463	0.4	462	463	23.7	66.4
2025-08-12T07:52	10	96	0.2	96	97	464	0.3	463	464	23.5	66.2
2025-08-12T07:53	10	97	0.2	96	97	463	0.3	463	464	23.4	66.3
2025-08-12T07:54	10	97	0.2	97	98	464	0.2	464	465	23.5	66.2
2025-08-12T07:55	10	98	0.2	97	98	465	0.3	464	466	23.8	64.7
2025-08-12T07:56	10	98	0.2	98	99	465	0.3	464	466	23.7	64.3
2025-08-12T07:57	10	99	0.2	98	99	465	0.5	464	466	23.8	64.2
2025-08-12T07:58	10	99	0.1	99	100	466	0.3	465	467	23.8	64.6
2025-08-12T07:59	10	99	0.1	99	100	466	0.4	465	467	23.9	64.2
2025-08-12T08:00	10	100	0.2	100	100	467	0.3	466	468	24.0	64.2
2025-08-12T08:01	10	100	0.2	100	101	467	0.3	467	468	24.1	63.4
2025-08-12T08:02	10	101	0.2	101	101	468	0.3	467	468	24.2	63.2
2025-08-12T08:03	10	101	0.1	101	102	468	0.3	468	469	24.4	62.6
2025-08-12T08:04	10	102	0.1	101	102	469	0.4	468	470	24.3	63.9
2025-08-12T08:05	10	102	0.1	102	102	470	0.4	469	471	24.3	63.8
2025-08-12T08:06	10	102	0.1	102	102	470	0.4	469	470	24.5	63.0
2025-08-12T08:07	10	103	0.1	102	103	470	0.4	469	471	24.5	62.3
2025-08-12T08:08	10	103	0.2	103	104	472	0.6	470	473	24.5	63.1
2025-08-12T08:09	10	103	0.1	103	104	473	0.4	472	473	24.3	63.6
2025-08-12T08:10	10	104	0.1	104	104	472	0.6	471	473	24.1	64.1
2025-08-12T08:11	10	104	0.1	104	105	472	0.2	472	472	24.2	64.6
2025-08-12T08:12	10	105	0.1	104	105	473	0.3	472	474	24.3	64.5
2025-08-12T08:13	10	105	0.1	104	105	474	0.7	473	476	24.5	64.0
2025-08-12T08:14	10	105	0.2	105	106	475	0.6	474	477	24.7	63.3
2025-08-12T08:15	10	106	0.2	105	106	475	0.3	474	475	24.5	63.3
2025-08-12T08:16	10	106	0.2	106	107	475	0.7	474	476	24.3	63.7
2025-08-12T08:17	10	107	0.2	106	107	474	0.4	474	475	24.3	63.6
2025-08-12T08:18	10	107	0.2	106	108	476	0.3	475	476	24.5	63.1
2025-08-12T08:19	10	107	0.3	106	108	476	0.3	476	477	24.4	63.1
2025-08-12T08:20	10	107	0.1	107	108	476	0.3	476	477	24.4	62.8
2025-08-12T08:21	10	108	0.2	107	108	477	0.4	476	478	24.7	61.8
2025-08-12T08:22	10	108	0.2	108	108	478	0.5	477	479	24.9	61.6
2025-08-12T08:23	10	109	0.2	108	109	478	0.2	478	479	24.8	61.5
2025-08-12T08:24	10	109	0.1	108	109	479	0.6	477	480	24.9	61.5
2025-08-12T08:25	10	109	0.1	109	109	479	0.4	478	480	24.7	61.8
2025-08-12T08:26	10	110	0.3	109	110	478	0.6	478	479	24.5	62.2
2025-08-12T08:27	10	110	0.1	110	110	479	0.5	478	480	24.5	62.2
2025-08-12T08:28	10	110	0.2	110	111	479	0.4	479	480	24.6	62.8
2025-08-12T08:29	10	111	0.1	111	111	479	0.7	478	480	24.6	63.0
2025-08-12T08:30	10	111	0.1	111	111	479	0.3	478	479	24.5	63.1
2025-08-12T08:31	10	111	0.1	111	111	480	0.7	479	481	24.6	63.0
2025-08-12T08:32	10	111	0.1	111	112	481	0.6	480	482	24.9	61.9
2025-08-12T08:33	10	112	0.1	112	112	482	0.4	481	483	25.0	61.2
2025-08-12T08:34	10	112	0.2	112	112	482	0.3	481	483	24.9	61.2
2025-08-12T08:35	10	112	0.2	112	113	483	0.2	482	483	24.9	61.4
2025-08-12T08:36	10	113	0.2	113	113	483	0.4	482	484	24.9	61.4
2025-08-12T08:37	10	113	0.1	113	113	484	0.3	483	484	25.1	60.9
2025-08-12T08:38	10	113	0.1	113	114	484	0.4	483	485	25.1	61.1
2025-08-12T08:39	10	114	0.1	114	114	484	0.3	484	485	25.0	61.3
2025-08-12T08:40	10	114	0.1	114	114	484	0.6	483	486	25.0	61.3
2025-08-12T08:41	10	114	0.1	114	115	484	0.2	484	485	25.0	61.3
2025-08-12T08:42	10	115	0.1	114	115	485	0.3	484	485	25.0	61.1
2025-08-12T08:43	10	115	0.1	114	115	484	0.6	484	486	25.0	61.4
2025-08-12T08:44	10	115	0.1	115	115	485	0.6	484	486	25.1	61.0
2025-08-12T08:45	10	115	0.2	115	116	486	0.6	485	487	25.1	61.1
2025-08-12T08:46	10	116	0.1	115	116	487	0.4	486	488	25.3	60.6
2025-08-12T08:47	10	116	0.2	116	117	488	0.8	486	490	25.4	60.4
2025-08-12T08:48	10	116	0.1	116	117	489	0.5	488	490	25.3	60.4
2025-08-12T08:49	10	117	0.2	116	117	489	0.3	488	490	25.1	60.9
2025-08-12T08:50	10	117	0.2	117	117	489	0.3	489	490	25.3	61.0
2025-08-12T08:51	10	118	0.2	117	118	488	0.4	487	489	25.3	60.8
2025-08-12T08:52	10	118	0.2	117	118	489	0.6	488	490	25.5	59.9
2025-08-12T08:53	10	118	0.1	118	118	491	0.7	490	493	25.8	60.0
2025-08-12T08:54	10	118	0.2	118	119	493	0.3	492	494	25.9	59.2
2025-08-12T08:55	10	119	0.2	119	119	492	1.6	489	494	25.8	59.4
2025-08-12T08:56	10	119	0.1	119	119	489	0.8	488	491	25.4	60.0
2025-08-12T08:57	10	119	0.1	119	120	489	1.0	488	491	25.3	60.7
2025-08-12T08:58	10	120	0.1	119	120	489	0.8	488	491	25.4	60.1
2025-08-12T08:59	10	120	0.1	120	120	491	0.5	490	492	25.3	60.6
2025-08-12T09:00	10	120	0.1	120	120	493	0.6	491	494	25.5	60.5
2025-08-12T09:01	10	120	0.1	120	121	490	0.7	489	492	25.3	60.5
2025-08-12T09:02	10	121	0.1	121	121	491	0.6	489	492	25.2	60.9
2025-08-12T09:03	10	121	0.1	121	121	492	0.5	491	493	25.3	60.7
2025-08-12T09:04	10	121	0.1	121	121	492	0.5	491	494	25.4	60.7
2025-08-12T09:05	10	121	0.1	121	122	494	0.4	493	494	25.5	60.3
2025-08-12T09:06	10	122	0.1	121	122	495	1.0	493	496	25.6	60.3
2025-08-12T09:07	10	122	0.1	122	122	494	0.6	493	495	25.5	60.1
2025-08-12T09:08	10	122	0.1	122	122	494	0.4	493	495	25.5	60.6
2025-08-12T09:09	10	122	0.2	122	123	496	0.8	495	498	25.9	60.0
2025-08-12T09:10	10	123	0.2	122	123	496	1.0	494	497	25.8	59.6
2025-08-12T09:11	10	123	0.1	123	124	496	0.8	494	497	25.7	60.1
2025-08-12T09:12	10	124	0.1	123	124	496	0.3	495	497	25.7	59.7
2025-08-12T09:13	10	124	0.2	124	124	496	0.6	495	497	25.6	60.0
2025-08-12T09:14	10	124	0.1	124	125	496	0.3	496	497	25.6	60.2
2025-08-12T09:15	10	125	0.1	124	125	499	0.6	497	500	26.5	60.2
2025-08-12T09:16	10	125	0.2	125	125	499	0.2	498	499	25.6	60.2
2025-08-12T09:17	10	125	0.2	125	126	499	0.3	498	500	25.6	60.2
2025-08-12T09:18	10	126	0.1	126	126	499	0.6	498	500	25.5	59.2
2025-08-12T09:19	10	126	0.1	126	126	499	0.4	498	500	25.6	60.2
2025-08-12T09:20	10	126	0.1	126	126	497	0.6	496	498	25.6	60.2
2025-08-12T09:21	10	126	0.1	126	126	501	1.2	499	502	25.6	60.1
2025-08-12T09:22	10	126	0.1	126	127	500	0.6	500	502	26.2	58.5
2025-08-12T09:23	10	127	0.1	127	127	500	0.5	500	502	26.1	58.8
2025-08-12T09:24	10	127	0.1	127	127	502	0.7	501	504	26.3	58.6
2025-08-12T09:25	10	127	0.1	127	128	501	1.2	499	504	26.2	58.3
2025-08-12T09:26	10	128	0.1	127	128	499	0.5	498	500	25.8	59.3
2025-08-12T09:27	10	128	0.1	127	128	498	0.6	497	500	25.7	59.8
2025-08-12T09:28	10	128	0.1	127	128	500	0.4	499	501	25.8	59.5
2025-08-12T09:29	10	128	0.2	128	129	503	1.3	501	505	26.1	59.0
2025-08-12T09:30	10	129	0.3	128	129	503	0.4	503	505	26.2	58.6
2025-08-12T09:31	10	129	0.1	129	129	505	1.2	503	507	26.4	58.6
2025-08-12T09:32	10	129	0.2	129	130	506	0.7	505	507	26.8	57.5
2025-08-12T09:33	10	130	0.1	129	130	505	0.4	505	506	27.0	56.7
2025-08-12T09:34	10	130	0.2	129	130	505	0.7	503	506	26.9	57.0
2025-08-12T09:35	10	130	0.1	130	131	502	0.8	501	505	26.3	58.1
2025-08-12T09:36	10	130	0.2	130	131	503	0.9	502	505	26.5	58.0
2025-08-12T09:37	10	130	0.2	130	131	504	1.2	502	506	26.5	57.7
2025-08-12T09:38	10	131	0.2	130	131	506	1.0	503	508	26.8	57.9
2025-08-12T09:39	10	131	0.1	131	131	507	0.6	506	508	27.0	56.7
2025-08-12T09:40	10	131	0.1	131	131	507	0.9	505	509	26.9	56.9
2025-08-12T09:41	10	131	0.1	131	132	505	0.6	504	506	26.4	57.7
2025-08-12T09:42	10	132	0.1	131	132	506	0.4	506	507	26.4	57.8
2025-08-12T09:43	10	132	0.1	131	132	507	0.3	506	507	26.3	57.9
2025-08-12T09:44	10	132	0.3	131	133	509	1.2	507	511	26.6	57.8
2025-08-12T09:45	10	132	0.2	132	133	508	0.5	507	509	26.5	57.3
2025-08-12T09:46	10	132	0.2	132	133	510	1.0	508	511	26.8	57.3
2025-08-12T09:47	10	132	0.3	132	133	509	0.6	508	511	26.6	57.3
2025-08-12T09:48	10	133	0.2	132	133	509	0.4	509	510	26.7	57.1
2025-08-12T09:49	10	133	0.2	132	133	509	0.5	509	510	26.6	57.2
2025-08-12T09:50	10	133	0.2	133	133	511	0.3	510	512	27.0	56.7
2025-08-12T09:51	10	133	0.2	133	134	512	0.9	510	513	27.3	55.9
2025-08-12T09:52	10	133	0.2	133	134	513	0.8	512	515	27.6	55.2
2025-08-12T09:53	10	133	0.2	133	134	513	0.4	512	513	27.6	54.8
2025-08-12T09:54	10	134	0.3	133	135	513	0.6	512	515	27.7	54.4
2025-08-12T09:55	10	134	0.2	134	135	513	0.4	512	514	27.6	54.5
2025-08-12T09:56	10	134	0.2	134	135	515	0.8	513	516	27.5	55.2
2025-08-12T09:57	10	134	0.2	134	135	514	0.4	513	515	27.5	54.9
2025-08-12T09:58	10	135	0.3	134	136	515	0.4	514	515	27.3	55.5
2025-08-12T09:59	10	135	0.3	135	136	515	0.5	514	516	27.3	55.4
2025-08-12T10:00	10	135	0.2	135	136	515	0.5	514	516	27.1	55.7
2025-08-12T10:01	10	135	0.3	135	136	515	0.4	513	515	27.2	55.7
2025-08-12T10:02	10	136	0.2	135	136	515	0.4	514	516	27.2	55.7
2025-08-12T10:03	10	136	0.2	135	136	515	0.5	514	516	27.2	55.5
2025-08-12T10:04	10	136	0.2	136	137	517	0.4	516	518	27.3	55.4
2025-08-12T10:05	10	136	0.1	136	137	517	0.3	516	518	27.3	55.5
2025-08-12T10:06	10	136	0.2	136	137	517	0.6	516	518	27.4	55.2
2025-08-12T10:07	10	136	0.2	136	137	517	0.4	516	518	27.5	55.1
2025-08-12T10:08	10	137	0.2	136	137	518	1.2	516	520	27.6	55.0
2025-08-12T10:09	10	137	0.1	137	137	517	0.6	516	518	27.3	55.6
2025-08-12T10:10	10	137	0.1	137	137	515	0.7	514	516	27.2	55.9
2025-08-12T10:11	10	137	0.1	137	138	516	0.7	514	517	27.1	55.9
2025-08-12T10:12	10	137	0.1	137	138	517	0.4	516	518	27.3	56.0
2025-08-12T10:13	10	137	0.1	137	137	518	0.5	517	520	27.6	55.5
2025-08-12T10:14	10	137	0.1	137	137	517	1.4	515	519	27.6	55.1
2025-08-12T10:15	10	138	0.1	137	138	515	0.3	515	516	27.4	55.5
2025-08-12T10:16	10	138	0.1	137	138	518	0.6	516	519	27.5	55.2
2025-08-12T10:17	10	138	0.1	138	138	519	1.5	517	522	27.6	55.1
2025-08-12T10:18	10	138	0.1	138	138	520	0.5	518	521	27.7	54.5
2025-08-12T10:19	10	138	0.1	138	139	518	0.8	517	521	27.5	55.0
2025-08-12T10:20	10	139	0.1	138	139	521	0.6	520	522	27.8	54.5
2025-08-12T10:21	10	139	0.1	138	139	522	0.3	522	523	28.1	54.1
2025-08-12T10:22	10	139	0.1	139	139	522	1.1	519	523	28.1	53.6
2025-08-12T10:23	10	139	0.1	139	139	521	1.3	519	523	27.8	54.3
2025-08-12T10:24	10	139	0.1	139	139	523	1.2	520	525	28.2	53.7
2025-08-12T10:25	10	139	0.1	139	139	519	0.9	518	521	28.2	53.6
2025-08-12T10:26	10	139	0.1	139	139	519	0.7	518	521	28.0	53.7
2025-08-12T10:27	10	139	0.1	139	139	521	0.9	519	523	27.8	54.4
2025-08-12T10:28	10	139	0.1	139	140	522	0.6	522	524	28.1	53.7
2025-08-12T10:29	10	140	0.2	140	140	524	0.6	523	525	28.3	53.2
2025-08-12T10:30	10	140	0.1	140	140	525	0.4	524	526	28.5	53.0
2025-08-12T10:31	10	140	0.2	140	140	526	0.4	525	527	28.9	52.3
2025-08-12T10:32	10	140	0.1	140	141	526	0.6	524	527	28.8	52.3
2025-08-12T10:33	10	141	0.1	140	141	523	0.5	522	525	28.4	52.8
2025-08-12T10:34	10	141	0.1	141	141	525	0.7	523	526	28.2	53.2
2025-08-12T10:35	10	141	0.2	141	141	525	0.7	524	526	28.3	53.1
2025-08-12T10:36	10	141	0.1	141	141	525	0.7	524	527	28.4	52.8
2025-08-12T10:37	10	141	0.1	141	142	527	0.7	525	528	28.9	52.5
2025-08-12T10:38	10	141	0.2	141	141	521	1.7	519	525	28.5	52.9
2025-08-12T10:39	10	141	0.1	141	141	521	0.7	519	522	28.0	54.1
2025-08-12T10:40	10	141	0.1	141	141	522	0.7	521	523	28.1	54.1
2025-08-12T10:41	10	141	0.1	141	141	525	0.8	523	525	28.0	54.4
2025-08-12T10:42	10	141	0.1	141	141	525	0.5	524	526	28.2	54.1
2025-08-12T10:43	10	141	0.1	141	142	523	0.7	522	525	28.1	54.1
2025-08-12T10:44	10	142	0.1	142	142	525	1.0	523	526	28.2	53.9
2025-08-12T10:45	10	142	0.1	142	142	528	1.6	526	531	28.6	53.6
2025-08-12T10:46	10	142	0.1	142	142	530	0.5	529	531	29.2	52.5
2025-08-12T10:47	10	142	0.1	142	142	529	0.8	527	530	29.0	53.0
2025-08-12T10:48	10	142	0.1	142	142	527	1.1	525	529	28.7	53.8
2025-08-12T10:49	10	142	0.1	142	142	528	1.5	525	530	28.8	53.9
2025-08-12T10:50	10	142	0.1	142	142	530	0.8	529	531	29.1	53.2
2025-08-12T10:51	10	142	0.1	142	142	531	1.0	528	532	29.3	52.9
2025-08-12T10:52	10	142	0.1	142	142	528	1.0	526	529	28.9	52.9
2025-08-12T10:53	10	142	0.1	142	142	529	1.0	527	531	29.1	52.8
2025-08-12T10:54	10	142	0.1	142	143	529	1.1	527	531	29.0	52.7
2025-08-12T10:55	10	143	0.1	142	143	530	0.6	529	532	28.9	52.6
2025-08-12T10:56	10	142	0.1	142	143	531	1.5	527	533	29.4	51.9
2025-08-12T10:57	10	143	0.1	143	143	528	0.8	527	529	28.9	52.4
2025-08-12T10:58	10	143	0.1	143	143	528	1.3	527	531	28.8	52.8
2025-08-12T10:59	10	143	0.1	143	143	528	1.2	527	530	28.8	52.2
2025-08-12T11:00	10	143	0.2	143	144	530	1.0	528	533	29.0	52.3
2025-08-12T11:01	10	144	0.1	143	144	533	1.0	532	535	29.4	51.8
2025-08-12T11:02	10	144	0.1	144	144	532	2.2	529	535	29.4	51.2
2025-08-12T11:03	10	144	0.1	144	144	529	0.9	528	532	28.8	52.3
2025-08-12T11:04	10	144	0.1	144	144	532	1.1	530	534	29.6	51.0
2025-08-12T11:05	10	144	0.1	144	144	529	0.9	528	532	29.1	51.4
2025-08-12T11:06	10	144	0.1	144	144	532	0.7	530	533	29.1	51.4
2025-08-12T11:07	10	144	0.1	144	144	531	0.8	530	533	29.2	51.5
2025-08-12T11:08	10	144	0.1	143	144	531	0.7	530	533	29.0	51.9
2025-08-12T11:09	10	143	0.1	143	144	529	1.0	528	531	29.0	52.1
2025-08-12T11:10	10	144	0.1	143	144	532	1.0	531	535	29.2	51.9
2025-08-12T11:11	10	144	0.2	143	144	532	0.5	531	533	29.1	51.6
2025-08-12T11:12	10	144	0.1	144	145	533	0.5	531	533	29.0	52.3
2025-08-12T11:13	10	144	0.1	144	144	533	1.3	531	535	29.3	51.8
2025-08-12T11:14	10	144	0.2	144	145	536	0.8	534	537	29.4	51.0
2025-08-12T11:15	10	144	0.2	144	145	538	0.6	536	539	29.7	50.6
2025-08-12T11:16	10	145	0.1	144	145	539	0.6	537	540	30.1	50.5
2025-08-12T11:17	10	145	0.1	144	145	536	0.6	534	537	29.7	51.2
2025-08-12T11:18	10	145	0.1	145	145	536	0.9	534	538	29.7	51.0
2025-08-12T11:19	10	145	0.2	145	146	537	0.9	536	539	30.2	49.5
2025-08-12T11:20	10	145	0.1	145	146	535	2.0	532	538	30.0	49.4
2025-08-12T11:21	10	145	0.1	145	145	532	1.2	530	535	29.5	51.3
2025-08-12T11:22	10	145	0.1	144	145	533	0.7	531	535	29.8	50.9
2025-08-12T11:23	10	145	0.1	144	145	531	1.1	530	534	29.5	51.3
2025-08-12T11:24	10	145	0.1	144	145	533	0.5	532	534	29.4	51.3
2025-08-12T11:25	10	145	0.1	144	145	533	0.9	531	535	29.3	51.5
2025-08-12T11:26	10	144	0.2	144	145	533	0.7	532	534	29.5	50.9
2025-08-12T11:27	10	145	0.1	144	145	535	1.2	533	537	29.5	50.8
2025-08-12T11:28	10	145	0.1	145	145	536	1.7	533	539	29.6	50.3
2025-08-12T11:29	10	145	0.2	144	145	538	0.9	537	540	29.9	49.6
2025-08-12T11:30	10	145	0.2	144	145	538	1.1	537	541	29.9	49.4
2025-08-12T11:31	10	145	0.1	145	145	541	0.8	539	542	30.2	49.4
2025-08-12T11:32	10	145	0.2	145	146	539	1.0	537	541	30.0	50.1
2025-08-12T11:33	10	146	0.1	145	146	540	1.1	538	543	30.3	49.7
2025-08-12T11:34	10	146	0.2	145	146	538	2.2	535	542	30.1	49.7
2025-08-12T11:35	10	146	0.2	146	147	538	1.3	536	540	29.8	50.8
2025-08-12T11:36	10	146	0.1	146	146	538	1.1	536	540	29.8	51.0
2025-08-12T11:37	10	146	0.2	146	146	537	0.8	536	538	29.7	51.1
2025-08-12T11:38	10	145	0.2	145	146	538	1.7	535	541	29.8	51.0
2025-08-12T11:39	10	145	0.1	145	146	537	1.2	535	539	29.7	50.9
2025-08-12T11:40	10	145	0.1	145	146	540	0.9	539	542	30.0	50.4
2025-08-12T11:41	10	146	0.2	145	146	540	1.5	538	543	30.0	49.9
2025-08-12T11:42	10	146	0.1	146	146	540	1.6	538	544	30.1	49.9
2025-08-12T11:43	10	146	0.2	145	146	542	1.0	540	544	30.6	48.9
2025-08-12T11:44	10	145	0.2	145	146	542	0.6	540	543	30.6	48.5
2025-08-12T11:45	10	146	0.1	146	146	541	0.6	540	543	30.5	48.9
2025-08-12T11:46	10	146	0.1	146	146	542	0.8	541	543	30.5	48.5
2025-08-12T11:47	10	146	0.1	145	146	544	0.9	542	546	30.6	48.5
2025-08-12T11:48	10	145	0.1	145	146	542	1.0	541	545	30.8	48.0
2025-08-12T11:49	10	145	0.1	145	146	543	0.5	542	544	30.9	47.6
2025-08-12T11:50	10	145	0.1	145	146	544	0.7	543	545	30.9	47.6
2025-08-12T11:51	10	145	0.1	145	146	544	0.5	543	546	30.6	47.9
2025-08-12T11:52	10	145	0.1	145	146	544	1.2	542	546	30.8	47.5
2025-08-12T11:53	10	145	0.1	145	146	542	0.5	541	544	30.9	47.2
2025-08-12T11:54	10	145	0.1	145	145	545	0.6	544	546	30.9	47.4
2025-08-12T11:55	10	145	0.1	145	145	543	2.2	540	547	30.9	46.9
2025-08-12T11:56	10	145	0.1	145	146	541	0.4	540	542	30.7	47.1
2025-08-12T11:57	10	145	0.1	145	146	542	0.7	541	543	30.7	47.0
2025-08-12T11:58	10	145	0.2	144	145	542	0.9	540	544	30.7	47.5
2025-08-12T11:59	10	145	0.2	144	145	545	1.1	543	547	31.1	47.0
2025-08-12T12:00	10	145	0.2	145	146	545	0.6	545	547	30.9	46.7
2025-08-12T12:01	10	145	0.1	144	145	545	0.3	545	546	31.0	46.7
2025-08-12T12:02	10	145	0.2	144	145	545	1.1	544	547	31.1	46.1
2025-08-12T12:03	10	145	0.1	145	146	546	0.4	545	546	31.0	46.8
2025-08-12T12:04	10	145	0.2	145	145	543	1.3	541	546	30.9	47.4
2025-08-12T12:05	10	145	0.2	144	145	542	0.5	541	543	30.8	47.5
2025-08-12T12:06	10	144	0.2	144	145	544	0.7	542	544	30.8	47.2
2025-08-12T12:07	10	144	0.2	144	145	540	1.4	537	542	30.7	47.0
2025-08-12T12:08	10	144	0.1	143	144	541	0.5	540	542	30.8	46.9
2025-08-12T12:09	10	144	0.1	143	144	543	0.3	542	543	30.7	47.3
2025-08-12T12:10	10	144	0.1	143	144	542	1.6	539	545	31.0	46.8
2025-08-12T12:11	10	143	0.2	143	144	543	1.9	540	547	31.0	47.3
2025-08-12T12:12	10	143	0.1	143	143	543	1.9	540	547	31.2	46.7
2025-08-12T12:13	10	143	0.1	143	143	544	1.2	541	546	31.2	47.5
2025-08-12T12:14	10	143	0.1	143	143	547	1.0	545	549	31.7	46.2
2025-08-12T12:15	10	143	0.1	143	143	544	0.5	544	546	31.6	46.1
2025-08-12T12:16	10	143	0.1	143	143	543	0.5	542	544	31.3	46.6
2025-08-12T12:17	10	143	0.1	143	143	545	0.7	544	546	31.3	46.7
2025-08-12T12:18	10	143	0.1	143	144	545	0.9	544	546	31.3	46.8
2025-08-12T12:19	10	144	0.1	143	144	545	1.4	543	548	31.5	45.6
2025-08-12T12:20	10	144	0.2	143	144	547	1.2	545	549	31.6	45.5
2025-08-12T12:21	10	144	0.2	143	144	546	2.0	543	549	31.7	44.5
2025-08-12T12:22	10	144	0.1	143	144	544	0.7	543	547	31.5	44.7
2025-08-12T12:23	10	143	0.2	143	144	543	1.2	541	545	31.2	45.2
2025-08-12T12:24	10	143	0.1	143	144	544	1.5	542	546	31.4	45.0
2025-08-12T12:25	10	143	0.1	143	143	545	1.1	544	548	31.4	45.0
2025-08-12T12:26	10	143	0.1	143	144	546	0.3	545	546	31.4	44.7
2025-08-12T12:27	10	143	0.1	143	144	544	2.5	539	548	31.4	44.9
2025-08-12T12:28	10	143	0.2	143	144	543	1.6	540	545	31.2	45.2
2025-08-12T12:29	10	143	0.1	143	143	546	0.4	545	547	31.3	45.0
2025-08-12T12:30	10	143	0.2	142	143	547	0.4	546	548	31.4	44.6
2025-08-12T12:31	10	142	0.1	142	143	549	0.6	547	550	31.6	44.8
2025-08-12T12:32	10	142	0.1	142	143	549	0.9	547	550	32.0	44.3
2025-08-12T12:33	10	142	0.1	142	143	548	0.5	547	549	32.0	44.3
2025-08-12T12:34	10	142	0.1	142	142	550	0.5	549	551	32.4	44.0
2025-08-12T12:35	10	142	0.1	142	142	547	3.1	543	551	32.2	44.0
2025-08-12T12:36	10	142	0.1	142	142	546	0.6	545	547	31.8	44.7
2025-08-12T12:37	10	142	0.2	141	142	544	0.4	543	545	31.7	44.7
2025-08-12T12:38	10	142	0.1	142	142	546	0.9	545	547	32.0	43.9
2025-08-12T12:39	10	142	0.2	141	142	548	0.5	547	549	32.0	44.4
2025-08-12T12:40	10	141	0.2	140	141	549	0.8	547	551	32.1	45.1
2025-08-12T12:41	10	142	0.2	141	142	548	0.3	547	548	32.0	45.0
2025-08-12T12:42	10	141	0.2	141	142	550	0.6	548	551	32.3	44.7
2025-08-12T12:43	10	142	0.2	141	142	549	0.6	548	550	32.2	45.0
2025-08-12T12:44	10	141	0.3	141	142	549	0.6	548	550	32.4	45.5
2025-08-12T12:45	10	141	0.2	141	142	549	1.1	547	551	32.5	44.7
2025-08-12T12:46	10	141	0.2	140	141	548	0.8	546	550	32.2	44.3
2025-08-12T12:47	10	141	0.1	140	141	548	0.5	547	549	32.2	43.7
2025-08-12T12:48	10	140	0.2	140	141	548	0.6	547	550	32.3	43.1
2025-08-12T12:49	10	140	0.2	140	141	547	0.2	547	548	32.2	40.8
2025-08-12T12:50	10	140	0.1	140	140	548	1.0	546	550	32.3	41.0
2025-08-12T12:51	10	140	0.1	140	140	551	0.5	550	552	32.5	42.6
2025-08-12T12:52	10	140	0.1	140	140	549	2.2	547	553	32.6	42.7
2025-08-12T12:53	10	140	0.1	139	140	548	1.0	546	550	32.5	42.4
2025-08-12T12:54	10	139	0.1	139	140	548	0.7	547	549	32.3	43.1
2025-08-12T12:55	10	139	0.1	139	139	548	0.8	546	550	32.3	43.3
2025-08-12T12:56	10	139	0.1	139	139	549	0.7	548	551	32.4	43.2
2025-08-12T12:57	10	139	0.1	139	139	549	0.8	548	551	32.3	43.8
2025-08-12T12:58	10	139	0.1	139	139	550	0.8	548	551	32.5	43.9
2025-08-12T12:59	10	139	0.1	138	139	550	1.0	549	552	32.8	43.5
2025-08-12T13:00	10	139	0.1	139	139	549	0.3	548	549	32.7	42.0
2025-08-12T13:01	10	139	0.1	139	139	550	0.8	549	552	32.6	42.7
2025-08-12T13:02	10	139	0.2	139	139	550	0.6	549	552	33.0	42.7
2025-08-12T13:03	10	139	0.1	138	139	551	0.8	550	553	33.2	39.8
2025-08-12T13:04	10	138	0.4	137	139	550	0.9	548	552	33.3	38.6
2025-08-12T13:05	10	138	0.2	137	138	549	0.3	548	550	33.3	38.9
2025-08-12T13:06	10	138	0.2	137	138	549	0.6	548	550	33.4	38.8
2025-08-12T13:07	10	138	0.1	138	139	549	1.0	548	551	32.9	39.0
2025-08-12T13:08	10	138	0.2	137	138	550	0.6	549	551	32.8	39.4
2025-08-12T13:09	10	138	0.1	137	138	551	1.5	549	555	33.0	38.1
2025-08-12T13:10	10	137	0.1	137	138	550	1.5	548	554	33.5	35.8
2025-08-12T13:11	10	137	0.2	137	138	549	0.8	548	551	33.1	34.3
2025-08-12T13:12	10	137	0.2	137	138	552	1.3	549	553	33.3	33.9
2025-08-12T13:13	10	137	0.1	137	137	550	1.2	549	553	33.2	33.7
2025-08-12T13:14	10	137	0.1	137	137	549	1.6	546	551	33.0	35.8
2025-08-12T13:15	10	137	0.1	136	137	550	1.4	547	551	33.0	35.6
2025-08-12T13:16	10	136	0.1	136	137	548	1.4	547	552	33.0	39.0
2025-08-12T13:17	10	136	0.1	136	137	547	0.5	546	548	32.9	40.4
2025-08-12T13:18	10	136	0.2	136	137	550	1.2	548	552	33.0	40.0
2025-08-12T13:19	10	136	0.2	136	137	551	0.5	550	552	33.6	39.7
2025-08-12T13:20	10	136	0.2	136	137	552	1.2	551	554	33.7	39.7
2025-08-12T13:21	10	136	0.3	136	137	551	1.0	550	553	33.3	40.5
2025-08-12T13:22	10	136	0.3	136	137	552	0.6	551	553	33.3	39.4
2025-08-12T13:23	10	136	0.3	135	137	553	1.3	550	555	33.7	38.1
2025-08-12T13:24	10	136	0.4	135	137	549	0.6	548	551	33.4	36.8
2025-08-12T13:25	10	135	0.2	135	136	551	1.0	550	553	33.4	35.9
2025-08-12T13:26	10	135	0.1	135	136	553	0.8	551	554	33.7	35.2
2025-08-12T13:27	10	135	0.1	135	135	553	0.7	552	555	33.7	37.3
2025-08-12T13:28	10	135	0.2	135	135	552	0.8	551	554	33.9	31.8
2025-08-12T13:29	10	135	0.1	134	135	553	0.2	553	554	34.0	31.7
2025-08-12T13:30	10	135	0.1	135	135	554	0.4	553	555	34.2	32.0
2025-08-12T13:31	10	134	0.1	134	135	555	0.6	554	557	34.5	31.8
2025-08-12T13:32	10	134	0.1	134	134	555	0.5	555	557	34.7	32.4
2025-08-12T13:33	10	134	0.1	134	134	549	2.3	547	555	33.9	36.3
2025-08-12T13:34	10	134	0.2	134	134	549	0.9	548	551	33.7	35.6
2025-08-12T13:35	10	133	0.2	133	134	552	0.5	551	553	34.0	36.1
2025-08-12T13:36	10	133	0.1	133	133	551	1.3	549	553	34.0	34.7
2025-08-12T13:37	10	133	0.1	133	133	553	0.6	551	554	34.0	34.7
2025-08-12T13:38	10	133	0.1	132	133	553	0.4	552	554	34.1	34.4
2025-08-12T13:39	10	133	0.1	132	133	554	0.5	553	555	34.3	34.9
2025-08-12T13:40	10	132	0.2	132	133	552	0.9	551	554	34.1	35.6
2025-08-12T13:41	10	132	0.2	132	132	551	1.2	550	554	34.0	35.8
2025-08-12T13:42	10	132	0.1	131	132	554	0.7	553	555	34.3	35.3
2025-08-12T13:43	10	131	0.1	131	132	554	1.9	551	556	34.4	34.8
2025-08-12T13:44	10	131	0.2	131	131	552	0.9	551	554	34.4	33.0
2025-08-12T13:45	10	131	0.1	131	131	551	1.0	550	553	34.5	29.8
2025-08-12T13:46	10	130	0.2	130	131	553	0.4	552	554	34.7	29.3
2025-08-12T13:47	10	130	0.1	130	130	554	0.6	553	555	34.8	29.3
2025-08-12T13:48	10	130	0.2	129	130	551	1.2	549	554	34.5	32.6
2025-08-12T13:49	10	129	0.1	129	129	551	0.5	550	552	34.2	34.7
2025-08-12T13:50	10	129	0.1	129	129	550	1.2	547	552	34.2	36.2
2025-08-12T13:51	10	129	0.1	129	129	547	1.1	545	549	34.2	36.0
2025-08-12T13:52	10	129	0.1	129	129	548	2.1	545	552	33.8	36.7
2025-08-12T13:53	10	129	0.1	129	129	552	1.1	551	554	34.1	36.5
2025-08-12T13:54	10	129	0.1	129	129	553	0.5	552	554	34.5	35.8
2025-08-12T13:55	10	129	0.1	129	129	553	1.0	551	555	34.3	36.1
2025-08-12T13:56	10	129	0.1	128	129	552	1.0	550	554	34.5	35.4
2025-08-12T13:57	10	129	0.1	128	129	550	0.6	549	551	34.3	35.0
2025-08-12T13:58	10	129	0.2	128	129	550	1.4	546	552	34.5	34.6
2025-08-12T13:59	10	128	0.2	127	128	546	1.2	544	548	33.8	35.2
2025-08-12T14:00	10	128	0.2	127	128	547	0.5	546	548	33.8	35.2
2025-08-12T14:01	10	128	0.2	127	129	548	0.5	547	549	33.7	34.7
2025-08-12T14:02	10	127	0.2	127	128	550	0.6	549	551	34.1	33.2
2025-08-12T14:03	10	127	0.2	127	128	551	0.9	549	553	34.1	32.1
2025-08-12T14:04	10	127	0.3	126	128	551	0.8	550	552	34.4	33.9
2025-08-12T14:05	10	126	0.2	126	127	551	1.0	549	553	34.5	35.0
2025-08-12T14:06	10	126	0.3	126	127	546	4.1	541	553	33.8	38.0
2025-08-12T14:07	10	126	0.3	125	126	542	1.2	541	546	33.4	39.9
2025-08-12T14:08	10	125	0.3	125	126	544	1.4	541	546	33.9	39.3
2025-08-12T14:09	10	125	0.3	124	125	543	1.7	541	546	33.4	40.0
2025-08-12T14:10	10	124	0.2	123	124	541	2.2	538	545	33.3	39.5
2025-08-12T14:11	10	123	0.3	123	124	540	0.9	539	542	33.3	39.3
2025-08-12T14:12	10	123	0.1	123	123	541	1.2	539	543	33.2	38.9
2025-08-12T14:13	10	123	0.1	122	123	542	1.1	540	544	33.4	37.7
2025-08-12T14:14	10	122	0.1	122	123	544	1.7	541	546	33.6	38.2
2025-08-12T14:15	10	122	0.1	122	122	544	0.6	543	545	33.7	38.5
2025-08-12T14:16	10	122	0.1	122	123	543	0.5	542	545	33.7	38.7
2025-08-12T14:17	10	122	0.1	122	122	543	0.6	542	545	33.7	39.2
2025-08-12T14:18	10	122	0.1	121	122	543	0.9	541	544	33.9	38.5
2025-08-12T14:19	10	122	0.1	121	122	542	0.4	541	543	33.5	38.9
2025-08-12T14:20	10	121	0.2	121	122	542	0.7	540	543	33.5	38.9
2025-08-12T14:21	10	121	0.1	120	121	540	1.0	539	542	33.5	39.7
2025-08-12T14:22	10	121	0.2	120	121	538	1.2	536	541	33.3	39.6
2025-08-12T14:23	10	120	0.2	120	120	540	1.7	537	543	33.4	40.3
2025-08-12T14:24	10	120	0.2	119	120	539	1.7	537	543	33.4	40.2
2025-08-12T14:25	10	119	0.1	119	120	539	1.2	537	541	33.7	40.4
2025-08-12T14:26	10	119	0.2	119	120	539	0.8	538	541	33.9	40.1
2025-08-12T14:27	10	119	0.1	119	120	540	1.9	536	542	33.8	40.0
2025-08-12T14:28	10	119	0.3	119	120	538	1.4	535	540	33.5	40.4
2025-08-12T14:29	10	119	0.2	118	119	536	1.0	535	539	33.4	40.0
2025-08-12T14:30	10	118	0.2	118	119	537	1.2	535	540	33.5	40.2
2025-08-12T14:31	10	118	0.1	117	118	539	1.4	536	541	33.6	40.3
2025-08-12T14:32	10	118	0.1	117	118	540	1.5	538	543	33.7	40.4
2025-08-12T14:33	10	117	0.1	117	118	540	2.5	536	544	34.0	39.8
2025-08-12T14:34	10	117	0.2	117	118	537	0.6	536	538	33.7	40.3
2025-08-12T14:35	10	117	0.1	117	117	537	1.2	535	539	33.5	40.5
2025-08-12T14:36	10	116	0.3	116	117	539	1.0	536	540	33.7	40.2
2025-08-12T14:37	10	116	0.1	116	116	537	0.5	537	539	33.5	40.4
2025-08-12T14:38	10	115	0.3	114	116	537	0.8	536	538	33.4	40.1
2025-08-12T14:39	10	114	0.1	114	114	535	1.5	531	537	33.4	39.6
2025-08-12T14:40	10	114	0.1	114	114	534	0.9	532	536	33.3	39.8
2025-08-12T14:41	10	114	0.1	114	114	538	1.8	535	541	33.5	40.2
2025-08-12T14:42	10	113	0.3	113	114	539	1.6	536	541	34.1	39.3
2025-08-12T14:43	10	113	0.3	112	113	533	1.3	532	537	33.5	39.9
2025-08-12T14:44	10	113	0.3	112	113	532	0.9	531	535	33.2	40.4
2025-08-12T14:45	10	113	0.2	113	114	533	0.7	532	535	33.4	39.9
2025-08-12T14:46	10	113	0.1	113	114	535	1.3	533	537	33.5	39.5
2025-08-12T14:47	10	113	0.1	113	114	535	0.6	533	535	33.5	39.8
2025-08-12T14:48	10	113	0.1	113	114	536	0.7	535	537	33.5	39.3
2025-08-12T14:49	10	113	0.1	113	113	536	0.9	535	538	33.4	39.2
2025-08-12T14:50	10	113	0.1	113	113	538	0.9	536	539	33.6	39.0
2025-08-12T14:51	10	113	0.1	113	113	538	1.4	536	540	33.7	38.7
2025-08-12T14:52	10	113	0.1	113	113	537	1.5	534	538	33.5	39.1
2025-08-12T14:53	10	112	0.2	112	113	534	0.3	533	534	33.3	39.5
2025-08-12T14:54	10	112	0.1	112	112	536	0.9	534	537	33.5	39.3
2025-08-12T14:55	10	112	0.1	112	112	537	1.0	535	538	33.9	38.6
2025-08-12T14:56	10	111	0.1	111	112	538	1.0	536	539	34.0	38.9
2025-08-12T14:57	10	111	0.2	111	112	535	0.9	534	537	33.6	39.6
2025-08-12T14:58	10	111	0.1	110	111	534	0.4	533	535	33.8	39.3
2025-08-12T14:59	10	110	0.1	110	111	535	0.7	533	536	33.8	38.9
2025-08-12T15:00	10	110	0.1	110	110	535	0.6	534	536	33.7	38.8
2025-08-12T15:01	10	110	0.1	109	110	536	1.4	533	538	34.1	38.3
2025-08-12T15:02	10	109	0.2	109	110	535	1.0	533	536	33.9	38.4
2025-08-12T15:03	10	109	0.1	109	109	534	1.2	532	536	34.0	37.9
2025-08-12T15:04	10	109	0.1	109	109	533	0.8	532	535	33.9	37.9
2025-08-12T15:05	10	109	0.2	108	109	535	0.4	534	535	33.9	37.8
2025-08-12T15:06	10	108	0.3	107	108	535	0.9	533	536	34.0	39.2
2025-08-12T15:07	10	107	0.3	107	107	530	1.8	528	534	33.4	40.7
2025-08-12T15:08	10	106	0.3	106	107	530	0.8	528	531	33.3	41.1
2025-08-12T15:09	10	105	0.5	104	106	529	0.8	528	531	33.4	40.2
2025-08-12T15:10	10	104	0.2	104	104	529	0.9	528	531	33.6	39.7
2025-08-12T15:11	10	104	0.1	104	104	527	0.7	526	529	33.3	39.9
2025-08-12T15:12	10	104	0.2	103	104	528	1.2	526	530	33.3	39.9
2025-08-12T15:13	10	103	0.2	103	103	530	1.1	528	532	33.4	39.9
2025-08-12T15:14	10	102	0.2	102	103	529	1.1	528	531	33.4	38.4
2025-08-12T15:15	10	102	0.2	102	102	529	0.7	528	531	33.4	39.5
2025-08-12T15:16	10	102	0.1	102	102	529	0.6	529	531	33.6	39.2
2025-08-12T15:17	10	102	0.1	101	102	529	0.8	527	530	33.8	39.1
2025-08-12T15:18	10	101	0.1	101	102	529	0.6	528	530	33.6	39.3
2025-08-12T15:19	10	101	0.1	101	101	529	0.4	528	530	33.5	39.6
2025-08-12T15:20	10	101	0.2	100	101	529	0.5	527	530	33.4	41.3
2025-08-12T15:21	10	100	0.3	100	100	528	0.8	527	530	33.5	41.3
2025-08-12T15:22	10	100	0.1	99	100	529	1.0	527	531	33.9	40.1
2025-08-12T15:23	10	100	0.1	99	100	527	0.9	525	528	33.7	39.8
2025-08-12T15:24	10	99	0.2	99	100	527	0.7	525	528	33.6	39.8
2025-08-12T15:25	10	99	0.2	99	99	527	0.7	526	529	33.7	39.1
2025-08-12T15:26	10	99	0.2	98	99	527	0.7	525	528	33.9	39.1
2025-08-12T15:27	10	98	0.2	98	99	528	0.4	527	529	34.1	38.8
2025-08-12T15:28	10	98	0.1	97	98	528	0.6	527	529	34.1	38.7
2025-08-12T15:29	10	97	0.2	97	98	526	0.5	525	527	34.0	38.5
2025-08-12T15:30	10	97	0.1	97	97	527	0.3	527	528	34.1	38.2
2025-08-12T15:31	10	97	0.3	96	97	527	1.0	526	529	34.1	38.5
2025-08-12T15:32	10	96	0.2	95	96	526	0.5	525	527	33.9	38.7
2025-08-12T15:33	10	95	0.2	95	96	525	0.2	525	526	33.8	37.9
2025-08-12T15:34	10	95	0.2	94	95	527	0.7	526	528	33.8	38.5
2025-08-12T15:35	10	94	0.1	94	95	527	0.5	526	528	34.2	38.1
2025-08-12T15:36	10	94	0.2	94	94	526	0.3	525	526	33.8	38.3
2025-08-12T15:37	10	93	0.3	93	94	525	0.2	525	526	33.8	38.7
2025-08-12T15:38	10	93	0.1	92	93	525	0.4	524	526	33.8	39.0
2025-08-12T15:39	10	92	0.1	92	93	524	0.5	523	525	33.7	38.7
2025-08-12T15:40	10	92	0.1	92	92	525	0.5	524	526	33.7	39.3
2025-08-12T15:41	10	92	0.1	91	92	524	0.3	524	525	33.7	37.8
2025-08-12T15:42	10	92	0.1	91	92	524	0.3	524	525	33.8	38.1
2025-08-12T15:43	10	91	0.1	91	92	524	0.3	523	525	33.9	37.6
2025-08-12T15:44	10	91	0.2	91	91	523	0.7	522	525	33.9	38.6
2025-08-12T15:45	10	90	0.3	90	91	522	0.5	521	523	33.8	38.5
2025-08-12T15:46	10	90	0.2	89	90	522	0.6	521	523	33.7	38.5
2025-08-12T15:47	10	89	0.3	88	89	521	0.3	520	522	33.6	38.5
2025-08-12T15:48	10	88	0.2	88	88	523	0.4	522	523	33.7	38.7
2025-08-12T15:49	10	88	0.1	87	88	522	0.5	521	523	33.8	38.8
2025-08-12T15:50	10	87	0.2	87	88	520	0.6	519	521	33.9	38.2
2025-08-12T15:51	10	87	0.2	86	87	520	0.3	519	520	33.8	38.3
2025-08-12T15:52	10	86	0.2	86	87	521	0.5	520	522	33.9	38.5
2025-08-12T15:53	10	86	0.2	86	86	522	0.2	521	522	34.1	38.4
2025-08-12T15:54	10	86	0.2	85	86	520	0.8	519	521	34.0	38.3
2025-08-12T15:55	10	85	0.2	85	86	519	0.5	518	520	34.0	37.9
2025-08-12T15:56	10	85	0.1	85	85	521	0.6	519	522	34.1	38.2
2025-08-12T15:57	10	85	0.1	84	85	519	0.4	519	520	34.0	38.3
2025-08-12T15:58	10	84	0.3	84	85	518	0.7	517	520	33.7	38.4
2025-08-12T15:59	10	83	0.2	83	84	517	0.5	516	518	33.6	38.8
2025-08-12T16:00	10	83	0.1	83	83	517	0.7	516	519	33.6	39.0
2025-08-12T16:01	10	83	0.1	83	83	518	0.5	517	519	33.7	38.7
2025-08-12T16:02	10	82	0.2	82	83	518	0.5	517	520	33.7	38.7
2025-08-12T16:03	10	82	0.2	82	82	519	0.3	519	520	33.9	38.7
2025-08-12T16:04	10	81	0.2	81	82	519	0.3	518	520	34.0	38.4
2025-08-12T16:05	10	81	0.1	81	81	519	0.5	518	520	34.0	38.5
2025-08-12T16:06	10	81	0.2	80	81	517	0.8	515	518	34.0	38.7
2025-08-12T16:07	10	80	0.1	80	80	515	0.6	514	516	33.9	37.9
2025-08-12T16:08	10	79	0.3	79	80	515	0.3	514	515	33.8	37.6
2025-08-12T16:09	10	79	0.1	79	79	515	0.4	515	516	33.9	37.8
2025-08-12T16:10	10	79	0.2	78	79	515	0.8	514	517	33.9	37.7
2025-08-12T16:11	10	78	0.3	77	79	514	0.2	513	514	33.9	37.1
2025-08-12T16:12	10	77	0.2	77	78	515	0.3	514	515	34.0	37.1
2025-08-12T16:13	10	76	0.3	76	77	515	0.3	514	515	33.9	37.0
2025-08-12T16:14	10	76	0.2	75	76	515	0.2	514	515	34.0	37.4
2025-08-12T16:15	10	75	0.2	75	75	514	0.4	514	515	34.1	37.3
2025-08-12T16:16	10	75	0.1	74	75	514	0.3	514	515	34.1	37.0
2025-08-12T16:17	10	74	0.1	74	75	513	0.4	513	514	34.0	38.2
2025-08-12T16:18	10	74	0.3	73	74	512	0.8	511	513	34.0	38.4
2025-08-12T16:19	10	73	0.2	73	74	512	0.2	511	512	33.9	38.1
2025-08-12T16:20	10	73	0.3	72	74	511	0.6	511	513	33.9	38.5
2025-08-12T16:21	10	72	0.3	71	73	511	0.5	510	512	33.9	38.2
2025-08-12T16:22	10	72	0.3	71	73	510	0.3	509	511	33.8	37.8
2025-08-12T16:23	10	71	0.2	71	72	510	0.4	509	511	33.8	38.2
2025-08-12T16:24	10	71	0.4	70	71	509	0.4	508	510	33.8	37.6
2025-08-12T16:25	10	70	0.3	69	71	509	0.3	508	510	33.8	37.2
2025-08-12T16:26	10	69	0.3	69	70	509	0.3	508	509	33.8	37.1
2025-08-12T16:27	10	69	0.3	68	69	509	0.3	508	509	33.8	37.1
2025-08-12T16:28	10	68	0.3	68	69	508	0.3	507	509	33.9	36.9
2025-08-12T16:29	10	67	0.3	67	68	508	0.2	508	509	33.9	36.7
2025-08-12T16:30	10	67	0.3	66	68	508	0.6	507	509	33.9	36.5
2025-08-12T16:31	10	66	0.3	66	67	506	0.4	505	507	33.9	37.3
2025-08-12T16:32	10	65	0.3	65	66	506	0.3	505	506	33.7	38.3
2025-08-12T16:33	10	65	0.3	64	65	506	0.2	505	506	33.7	38.8
2025-08-12T16:34	10	64	0.2	63	65	505	0.3	505	506	33.7	38.9
2025-08-12T16:35	10	63	0.2	63	64	505	0.2	504	505	33.7	39.0
2025-08-12T16:36	10	63	0.2	62	63	506	0.2	505	506	33.8	39.0
2025-08-12T16:37	10	62	0.2	62	62	505	0.3	504	506	33.8	38.2
2025-08-12T16:38	10	61	0.2	61	62	504	0.3	503	504	33.7	37.8
2025-08-12T16:39	10	61	0.2	60	61	504	0.2	503	504	33.7	38.5
2025-08-12T16:40	10	60	0.2	60	61	503	0.3	503	504	33.8	38.7
2025-08-12T16:41	10	60	0.2	60	60	503	0.3	503	504	33.8	39.1
2025-08-12T16:42	10	60	0.1	59	60	503	0.4	502	504	33.8	38.8
2025-08-12T16:43	10	59	0.2	59	60	502	0.2	502	502	33.7	38.1
2025-08-12T16:44	10	59	0.2	58	59	502	0.2	502	503	33.8	38.2
2025-08-12T16:45	10	58	0.3	58	59	502	0.3	502	503	33.9	38.1
2025-08-12T16:46	10	57	0.1	57	58	502	0.3	501	503	33.8	38.3
2025-08-12T16:47	10	57	0.2	56	58	502	0.4	501	503	33.9	38.2
2025-08-12T16:48	10	56	0.2	56	57	501	0.2	501	502	33.9	38.8
2025-08-12T16:49	10	56	0.3	55	56	501	0.4	500	502	33.7	39.6
2025-08-12T16:50	10	55	0.2	55	55	500	0.3	500	501	33.7	39.8
2025-08-12T16:51	10	55	0.2	54	55	500	0.4	499	501	33.8	39.6
2025-08-12T16:52	10	54	0.2	53	54	500	0.3	499	501	33.7	39.3
2025-08-12T16:53	10	54	0.3	53	54	500	0.2	499	500	33.8	38.7
2025-08-12T16:54	10	53	0.3	53	54	499	0.4	499	501	33.8	39.1
2025-08-12T16:55	10	52	0.3	52	53	498	0.3	498	499	33.8	39.4
2025-08-12T16:56	10	52	0.3	51	52	499	0.3	498	499	33.8	39.4
2025-08-12T16:57	10	51	0.3	51	52	497	0.4	497	498	33.7	39.4
2025-08-12T16:58	10	51	0.2	50	51	497	0.2	497	498	33.7	39.6
2025-08-12T16:59	10	50	0.3	49	51	497	0.4	496	498	33.7	39.7
2025-08-12T17:00	10	50	0.4	49	50	496	0.4	495	497	33.6	39.2
2025-08-12T17:01	10	49	0.4	48	50	496	0.3	495	497	33.6	39.2
2025-08-12T17:02	10	48	0.3	48	49	495	0.3	495	496	33.6	39.0
2025-08-12T17:03	10	48	0.3	47	48	495	0.6	493	496	33.6	38.8
2025-08-12T17:04	10	47	0.3	47	48	495	0.3	494	495	33.6	38.9
2025-08-12T17:05	10	47	0.2	46	47	495	0.3	494	495	33.6	39.0
2025-08-12T17:06	10	46	0.3	46	47	494	0.4	493	495	33.6	38.7
2025-08-12T17:07	10	46	0.2	45	46	493	0.3	493	494	33.5	38.5
2025-08-12T17:08	10	45	0.2	44	45	493	0.2	493	493	33.5	38.3
2025-08-12T17:09	10	45	0.2	44	45	493	0.2	492	493	33.5	38.6
2025-08-12T17:10	10	44	0.3	43	45	493	0.3	492	493	33.6	38.4
2025-08-12T17:11	10	44	0.3	43	44	492	0.2	492	493	33.6	38.5
2025-08-12T17:12	10	43	0.3	43	44	492	0.3	492	493	33.6	39.1
2025-08-12T17:13	10	42	0.2	42	43	492	0.3	491	492	33.5	38.8
2025-08-12T17:14	10	42	0.2	41	42	491	0.2	490	491	33.5	39.3
2025-08-12T17:15	10	41	0.2	41	42	491	0.3	490	491	33.4	39.9
2025-08-12T17:16	10	41	0.3	40	41	490	0.2	490	491	33.4	39.9
2025-08-12T17:17	10	40	0.1	40	40	490	0.2	489	490	33.4	40.3
2025-08-12T17:18	10	40	0.1	39	40	489	0.2	489	490	33.4	40.2
2025-08-12T17:19	10	39	0.2	39	39	489	0.3	488	490	33.3	40.4
2025-08-12T17:20	10	38	0.2	38	39	489	0.3	488	489	33.3	40.7
2025-08-12T17:21	10	38	0.2	37	38	488	0.2	487	488	33.2	40.2
2025-08-12T17:22	10	37	0.2	37	38	488	0.2	487	488	33.2	40.4
2025-08-12T17:23	10	37	0.1	37	37	487	0.4	486	488	33.2	40.8
2025-08-12T17:24	10	37	0.1	36	37	486	0.2	486	487	33.0	40.8
2025-08-12T17:25	10	36	0.2	36	36	486	0.3	485	486	33.0	40.7
2025-08-12T17:26	10	36	0.1	35	36	485	0.2	485	486	33.0	40.3
2025-08-12T17:27	10	35	0.1	35	36	485	0.3	484	485	32.9	40.2
2025-08-12T17:28	10	35	0.2	35	35	484	0.2	484	484	32.9	40.1
2025-08-12T17:29	10	34	0.3	34	35	483	0.2	483	484	32.8	39.7
2025-08-12T17:30	10	34	0.2	33	34	483	0.2	483	484	32.8	39.7
2025-08-12T17:31	10	33	0.2	33	34	483	0.3	482	483	32.8	38.9
2025-08-12T17:32	10	32	0.2	32	33	482	0.2	481	482	32.8	38.4
2025-08-12T17:33	10	32	0.2	31	32	481	0.2	481	482	32.8	37.8
2025-08-12T17:34	10	31	0.2	30	31	481	0.2	481	482	32.8	37.6
2025-08-12T17:35	10	31	0.2	30	31	480	0.2	480	481	32.8	37.7
2025-08-12T17:36	10	30	0.2	30	31	480	0.2	480	481	32.7	37.4
2025-08-12T17:37	10	30	0.2	29	30	480	0.2	479	480	32.7	37.3
2025-08-12T17:38	10	29	0.1	29	29	479	0.2	479	480	32.6	37.7
2025-08-12T17:39	10	29	0.2	28	29	479	0.2	478	479	32.6	37.0
2025-08-12T17:40	10	28	0.2	28	29	478	0.2	478	479	32.6	36.3
2025-08-12T17:41	10	28	0.2	27	28	478	0.3	477	479	32.6	36.1
2025-08-12T17:42	10	27	0.3	26	27	477	0.3	477	478	32.7	35.8
2025-08-12T17:43	10	26	0.2	26	27	477	0.2	476	477	32.6	36.3
2025-08-12T17:44	10	26	0.2	25	26	476	0.3	475	477	32.6	36.6
2025-08-12T17:45	10	25	0.2	25	26	475	0.3	475	476	32.5	37.0
2025-08-12T17:46	10	25	0.2	24	25	475	0.3	474	476	32.5	36.4
2025-08-12T17:47	10	24	0.2	24	24	475	0.3	474	475	32.5	36.8
2025-08-12T17:48	10	24	0.2	23	24	474	0.4	473	475	32.4	37.6
2025-08-12T17:49	10	23	0.2	23	23	473	0.2	472	473	32.4	37.8
2025-08-12T17:50	10	22	0.2	22	23	473	0.3	472	473	32.4	37.9
2025-08-12T17:51	10	22	0.3	21	23	472	0.3	471	473	32.3	38.0
2025-08-12T17:52	10	21	0.3	21	22	471	0.3	471	472	32.3	37.5
2025-08-12T17:53	10	21	0.3	20	22	471	0.3	470	472	32.3	37.2
2025-08-12T17:54	10	20	0.3	19	21	471	0.4	470	471	32.3	37.2
2025-08-12T17:55	10	20	0.2	19	20	470	0.2	469	470	32.2	37.8
2025-08-12T17:56	10	19	0.3	19	20	469	0.3	469	470	32.2	37.9
2025-08-12T17:57	10	19	0.3	18	19	468	0.4	467	469	32.0	39.0
2025-08-12T17:58	10	18	0.3	17	19	468	0.3	467	469	32.0	38.8
2025-08-12T17:59	10	18	0.2	17	18	468	0.3	466	468	32.1	37.5
2025-08-12T18:00	10	17	0.3	17	18	467	0.2	466	467	32.0	38.4
2025-08-12T18:01	10	16	0.2	16	17	467	0.3	466	467	32.0	37.7
2025-08-12T18:02	10	16	0.2	15	16	467	0.2	466	467	31.9	37.4
2025-08-12T18:03	10	15	0.1	15	16	466	0.2	466	467	32.0	36.5
2025-08-12T18:04	10	15	0.2	14	15	465	0.3	465	466	32.0	37.8
2025-08-12T18:05	10	14	0.2	14	15	465	0.2	464	465	31.9	37.4
2025-08-12T18:06	10	14	0.2	13	14	464	0.2	463	465	31.9	37.9
2025-08-12T18:07	10	13	0.2	13	14	463	0.2	463	464	31.9	37.7
2025-08-12T18:08	10	13	0.1	13	13	463	0.3	462	464	31.8	37.8
2025-08-12T18:09	10	12	0.1	12	13	463	0.2	462	463	31.8	37.6
2025-08-12T18:10	10	12	0.2	12	12	462	0.2	462	463	31.8	37.1
2025-08-12T18:11	10	11	0.2	11	12	462	0.2	462	463	31.9	36.2
2025-08-12T18:12	10	11	0.2	11	11	462	0.2	461	462	31.8	36.6
2025-08-12T18:13	10	10	0.2	10	11	461	0.3	460	461	31.7	37.1
2025-08-12T18:14	10	10	0.1	10	10	460	0.3	459	461	31.7	37.2
2025-08-12T18:15	10	9	0.2	9	10	459	0.3	459	460	31.7	37.3
2025-08-12T18:16	10	9	0.1	9	9	459	0.2	458	459	31.7	37.5
2025-08-12T18:17	10	9	0.1	8	9	458	0.2	458	459	31.7	37.7
2025-08-12T18:18	10	8	0.2	8	9	458	0.2	457	458	31.7	37.9
2025-08-12T18:19	10	8	0.2	7	8	457	0.3	456	458	31.6	38.1
2025-08-12T18:20	10	7	0.2	7	8	456	0.2	456	457	31.6	38.5
2025-08-12T18:21	10	7	0.2	7	7	456	0.3	455	456	31.5	39.0
2025-08-12T18:22	10	7	0.2	6	7	455	0.3	455	456	31.5	39.2
2025-08-12T18:23	10	6	0.2	6	6	455	0.3	454	455	31.4	39.3
2025-08-12T18:24	10	6	0.2	5	6	453	0.3	453	454	31.4	39.6
2025-08-12T18:25	10	5	0.1	5	6	453	0.3	452	453	31.3	40.0
2025-08-12T18:26	10	5	0.1	5	5	453	0.2	452	453	31.3	40.1
2025-08-12T18:27	10	5	0.1	5	5	453	0.2	452	453	31.3	40.2
2025-08-12T18:28	10	5	0.1	4	5	452	0.3	451	453	31.1	40.5
2025-08-12T18:29	10	4	0.1	4	4	451	0.2	451	452	31.1	40.7
2025-08-12T18:30	10	4	0.1	3	4	451	0.3	450	452	31.1	40.6
2025-08-12T18:31	10	4	0.1	3	4	451	0.3	450	451	31.1	40.6
2025-08-12T18:32	10	3	0.1	3	4	450	0.2	450	451	31.0	40.9
2025-08-12T18:33	10	3	0.1	3	3	450	0.2	449	450	31.0	40.9
2025-08-12T18:34	10	3	0.1	3	3	450	0.2	449	450	30.9	41.2
2025-08-12T18:35	10	3	0.1	2	3	449	0.3	448	449	30.9	41.6
2025-08-12T18:36	10	2	0.1	2	3	448	0.2	448	449	30.9	41.3
2025-08-12T18:37	10	2	0.2	2	3	449	0.3	448	449	30.9	41.7
2025-08-12T18:38	10	2	0.2	2	2	449	0.2	448	449	30.9	41.1
2025-08-12T18:39	10	2	0.2	2	2	448	0.3	448	449	30.9	40.6
2025-08-12T18:40	10	2	0.3	1	2	448	0.2	448	449	30.9	41.2
2025-08-12T18:41	10	2	0.2	1	2	448	0.3	447	448	30.9	41.1
2025-08-12T18:42	10	1	0.2	1	2	447	0.3	446	448	30.9	41.4
2025-08-12T18:43	10	1	0.2	1	2	447	0.3	446	448	30.8	41.8
2025-08-12T18:44	10	1	0.3	1	2	446	0.2	446	447	30.8	41.9
2025-08-12T18:45	10	1	0.2	1	1	446	0.2	446	446	30.6	42.8
2025-08-12T18:46	10	1	0.1	1	1	446	0.2	445	446	30.5	42.7
2025-08-12T18:47	10	1	0.2	0	1	446	0.3	445	446	30.5	42.6
2025-08-12T18:48	10	1	0.1	0	1	445	0.2	445	446	30.4	42.9
2025-08-12T18:49	10	1	0.1	0	1	445	0.2	445	446	30.4	42.6
2025-08-12T18:50	10	1	0.1	0	1	444	0.4	444	445	30.3	42.8
2025-08-12T18:51	10	0	0.1	0	1	444	0.2	443	444	30.3	42.6
2025-08-12T18:52	10	0	0.1	0	1	443	0.3	443	444	30.3	42.7
2025-08-12T18:53	10	0	0.1	0	1	443	0.3	442	443	30.3	42.3
2025-08-12T18:54	10	0	0.1	0	1	442	0.5	441	443	30.3	42.9
2025-08-12T18:55	10	0	0.1	0	1	441	0.3	440	441	30.1	43.5
2025-08-12T18:56	10	0	0.1	0	1	440	0.3	439	440	30.0	43.6
2025-08-12T18:57	10	0	0.1	0	1	439	0.4	438	440	30.0	44.2
2025-08-12T18:58	10	0	0.1	0	1	437	0.6	436	439	29.8	47.1
2025-08-12T18:59	10	0	0.2	0	1	436	0.3	436	437	29.2	49.8
2025-08-12T19:00	10	0	0.1	0	1	436	0.2	436	437	28.7	50.3
2025-08-12T19:01	10	0	0.1	0	0	437	0.4	436	438	28.5	51.7
2025-08-12T19:02	10	0	0.1	0	0	437	0.4	436	438	28.4	52.5
2025-08-12T19:03	10	0	0.1	0	0	437	0.6	436	439	28.5	49.7
2025-08-12T19:04	10	0	0.1	0	0	437	0.3	436	438	28.8	48.5
2025-08-12T19:05	10	0	0.1	0	0	438	0.4	437	438	28.9	47.5
2025-08-12T19:06	10	0	0.1	0	0	438	0.4	437	438	29.1	45.6
2025-08-12T19:07	10	0	0.1	0	0	436	0.4	435	438	29.0	48.3
2025-08-12T19:08	10	0	0.1	0	0	435	0.5	434	436	28.0	53.5
2025-08-12T19:09	10	0	0.1	0	0	434	0.5	433	435	27.8	53.5
2025-08-12T19:10	10	0	0.1	0	0	435	0.7	434	436	27.8	51.6
2025-08-12T19:11	10	0	0.1	0	0	435	0.4	434	436	28.2	49.4
2025-08-12T19:12	10	0	0.1	0	0	435	0.2	434	435	28.3	49.6
2025-08-12T19:13	10	0	0.1	0	0	434	0.2	433	434	28.2	50.5
2025-08-12T19:14	10	0	0.1	0	0	433	0.4	432	434	28.0	51.5
2025-08-12T19:15	10	0	0.2	-1	1	432	0.3	432	433	27.8	52.6
2025-08-12T19:16	10	0	0.2	0	1	431	0.3	431	432	27.6	52.5
2025-08-12T19:17	10	0	0.2	-1	1	431	0.4	430	432	27.5	53.6
2025-08-12T19:18	10	0	0.2	0	0	432	0.8	430	434	27.5	53.7
2025-08-12T19:19	10	0	0.2	-1	0	433	0.5	432	433	27.5	52.8
2025-08-12T19:20	10	0	0.2	-1	0	432	0.3	432	433	27.5	51.8
2025-08-12T19:21	10	0	0.2	-1	1	432	0.3	432	433	27.7	51.7
2025-08-12T19:22	10	0	0.2	-1	0	433	0.2	432	433	27.8	52.6
2025-08-12T19:23	10	0	0.1	0	0	433	0.3	432	433	27.8	52.1
2025-08-12T19:24	10	0	0.1	0	0	432	0.2	432	433	27.8	51.5
2025-08-12T19:25	10	0	0.1	0	0	432	0.2	432	433	27.8	50.8
2025-08-12T19:26	10	0	0.1	0	0	432	0.3	432	433	27.9	48.7
2025-08-12T19:27	10	0	0.1	0	0	431	0.3	431	432	27.8	49.1
2025-08-12T19:28	10	0	0.1	0	0	431	0.2	430	431	27.8	49.1
2025-08-12T19:29	10	0	0.1	0	1	431	0.4	430	431	27.9	48.2
2025-08-12T19:30	10	0	0.1	0	0	431	0.3	430	432	28.1	47.6
2025-08-12T19:31	10	0	0.1	0	0	431	0.2	430	431	28.1	47.6
2025-08-12T19:32	10	0	0.1	0	0	431	0.4	431	432	28.2	47.5
2025-08-12T19:33	10	0	0.1	0	0	432	0.3	431	432	28.2	47.5
2025-08-12T19:34	10	0	0.1	0	0	432	0.3	431	432	28.3	47.3
2025-08-12T19:35	10	0	0.1	0	0	432	0.2	432	433	28.3	47.2
2025-08-12T19:36	10	0	0.1	0	0	432	0.2	432	433	28.4	47.0
2025-08-12T19:37	10	0	0.1	0	0	432	0.4	431	433	28.3	47.5
2025-08-12T19:38	10	0	0.1	0	1	432	0.2	431	432	28.2	47.5
2025-08-12T19:39	10	0	0.1	0	0	432	0.3	431	433	28.4	47.3
2025-08-12T19:40	10	0	0.1	0	1	432	0.3	431	433	28.4	47.3
2025-08-12T19:41	10	0	0.1	0	0	432	0.4	431	432	28.0	48.9
2025-08-12T19:42	10	0	0.1	0	1	432	0.2	432	433	27.9	49.1
2025-08-12T19:43	10	0	0.1	0	0	432	0.3	432	433	28.0	48.5
2025-08-12T19:44	10	0	0.1	0	0	432	0.4	432	433	28.0	48.9
2025-08-12T19:45	10	0	0.1	0	0	432	0.2	432	433	28.0	48.8
2025-08-12T19:46	10	0	0.1	0	0	432	0.3	432	433	28.0	48.7
2025-08-12T19:47	10	0	0.1	0	0	432	0.3	431	433	28.0	49.2
2025-08-12T19:48	10	0	0.1	0	0	432	0.2	431	432	27.7	50.6
2025-08-12T19:49	10	0	0.1	0	0	431	0.3	430	432	27.6	50.3
2025-08-12T19:50	10	0	0.1	0	0	430	0.5	429	431	27.6	51.1
2025-08-12T19:51	10	0	0.1	0	0	429	0.3	429	430	27.3	53.3
2025-08-12T19:52	10	0	0.1	0	0	429	0.2	429	430	27.1	54.3
2025-08-12T19:53	10	0	0.1	0	0	429	0.3	428	430	27.1	53.1
2025-08-12T19:54	10	0	0.1	0	0	429	0.2	428	429	27.2	52.0
2025-08-12T19:55	10	0	0.1	0	0	428	0.3	428	429	27.2	52.4
2025-08-12T19:56	10	0	0.2	0	1	427	0.5	426	428	27.1	53.3
2025-08-12T19:57	10	0	0.2	0	1	426	0.4	425	427	26.7	56.4
2025-08-12T19:58	10	0	0.2	0	1	426	0.3	426	427	26.3	58.0
2025-08-12T19:59	10	0	0.2	0	1	426	0.3	425	427	26.2	58.2
2025-08-12T20:00	10	0	0.2	0	0	426	0.2	425	426	26.1	58.2
2025-08-12T20:01	10	0	0.1	0	0	426	0.2	425	426	26.1	58.2
2025-08-12T20:02	10	0	0.1	0	0	425	0.4	425	426	26.0	58.6
2025-08-12T20:03	10	0	0.1	0	0	425	0.2	425	426	26.0	58.3
2025-08-12T20:04	10	0	0.1	0	1	424	0.3	424	425	25.9	59.0
2025-08-12T20:05	10	0	0.2	0	1	424	0.2	424	425	25.9	58.9
2025-08-12T20:06	10	0	0.1	0	0	424	0.3	424	425	25.8	59.0
2025-08-12T20:07	10	0	0.1	0	0	425	0.3	424	425	25.8	59.4
2025-08-12T20:08	10	0	0.1	0	0	425	0.4	424	426	25.9	58.8
2025-08-12T20:09	10	0	0.1	0	0	425	0.3	425	426	26.0	58.2
2025-08-12T20:10	10	0	0.1	0	0	425	0.3	424	426	26.2	57.5
2025-08-12T20:11	10	0	0.1	0	0	424	0.2	424	425	26.2	57.6
2025-08-12T20:12	10	0	0.1	0	0	424	0.3	423	425	26.1	58.3
2025-08-12T20:13	10	0	0.1	0	0	424	0.4	423	424	25.9	58.9
2025-08-12T20:14	10	0	0.1	0	0	423	0.4	422	424	25.8	59.7
2025-08-12T20:15	10	0	0.1	0	0	423	0.3	422	424	25.6	60.1
2025-08-12T20:16	10	0	0.1	0	0	423	0.2	423	424	25.7	59.8
2025-08-12T20:17	10	0	0.1	0	0	423	0.3	422	423	25.8	59.0
2025-08-12T20:18	10	0	0.1	0	0	423	0.3	422	424	26.1	57.2
2025-08-12T20:19	10	0	0.1	0	0	423	0.8	421	424	26.4	55.6
2025-08-12T20:20	10	0	0.1	0	0	422	0.6	421	423	26.3	56.5
2025-08-12T20:21	10	0	0.1	0	0	422	0.4	421	422	26.2	57.6
2025-08-12T20:22	10	0	0.1	0	0	422	0.3	421	423	26.0	58.4
2025-08-12T20:23	10	0	0.1	0	0	422	0.3	421	423	25.9	58.2
2025-08-12T20:24	10	0	0.1	0	0	422	0.2	422	423	26.0	58.1
2025-08-12T20:25	10	0	0.1	0	0	422	0.3	421	423	25.9	58.4
2025-08-12T20:26	10	0	0.1	0	0	423	0.6	422	424	26.0	57.7
2025-08-12T20:27	10	0	0.1	0	0	423	0.2	423	424	26.1	57.1
2025-08-12T20:28	10	0	0.1	0	0	423	0.4	422	424	26.0	58.0
2025-08-12T20:29	10	0	0.0	0	0	423	0.3	423	424	26.0	57.9
2025-08-12T20:30	10	0	0.1	0	0	422	0.5	421	423	25.8	58.9
2025-08-12T20:31	10	0	0.1	0	0	423	0.2	423	424	25.8	58.8
2025-08-12T20:32	10	0	0.1	0	0	423	0.5	422	424	25.6	59.7
2025-08-12T20:33	10	0	0.1	0	0	422	0.3	422	423	25.3	61.4
2025-08-12T20:34	10	0	0.1	0	0	423	0.5	422	424	25.3	61.2
2025-08-12T20:35	10	0	0.1	0	0	422	0.2	422	423	25.5	60.2
2025-08-12T20:36	10	0	0.1	0	0	422	0.2	422	422	25.5	60.4
2025-08-12T20:37	10	0	0.1	0	0	422	0.3	422	423	25.5	60.7
2025-08-12T20:38	10	0	0.1	0	0	422	0.2	422	423	25.6	60.0
2025-08-12T20:39	10	0	0.1	0	0	422	0.2	421	422	25.6	59.6
2025-08-12T20:40	10	0	0.1	0	0	422	0.2	421	422	25.7	59.4
2025-08-12T20:41	10	0	0.1	0	0	422	0.2	421	422	25.7	59.4
2025-08-12T20:42	10	0	0.2	0	1	421	0.5	420	422	25.6	60.0
2025-08-12T20:43	10	0	0.2	0	1	421	0.6	420	422	25.5	60.8
2025-08-12T20:44	10	0	0.2	0	1	421	0.4	420	421	25.3	62.0
2025-08-12T20:45	10	0	0.2	0	1	420	0.3	419	421	25.2	62.1
2025-08-12T20:46	10	0	0.1	0	1	420	0.2	419	420	25.1	62.1
2025-08-12T20:47	10	0	0.2	0	1	420	0.3	419	421	25.0	62.8
2025-08-12T20:48	10	0	0.2	0	1	420	0.3	420	421	25.0	62.8
2025-08-12T20:49	10	0	0.1	0	0	420	0.2	420	421	25.1	62.3
2025-08-12T20:50	10	0	0.1	0	0	420	0.2	420	421	25.2	62.0
2025-08-12T20:51	10	0	0.1	0	0	421	0.2	420	421	25.4	61.6
2025-08-12T20:52	10	0	0.1	0	0	421	0.2	420	421	25.4	61.4
2025-08-12T20:53	10	0	0.0	0	0	421	0.3	420	421	25.3	61.9
2025-08-12T20:54	10	0	0.1	0	0	421	0.4	420	421	25.2	62.0
2025-08-12T20:55	10	0	0.1	0	0	420	0.4	419	421	25.1	62.2
2025-08-12T20:56	10	0	0.1	0	0	420	0.8	418	422	25.0	62.7
2025-08-12T20:57	10	0	0.1	0	0	421	0.3	420	422	25.1	62.2
2025-08-12T20:58	10	0	0.1	0	0	420	0.5	420	422	25.2	61.6
2025-08-12T20:59	10	0	0.1	0	0	420	0.3	419	421	25.0	62.3
2025-08-12T21:00	10	0	0.1	0	0	419	0.5	418	420	25.0	62.2
2025-08-12T21:01	10	0	0.1	0	0	419	0.2	418	419	24.9	62.8
2025-08-12T21:02	10	0	0.1	0	0	418	0.2	418	419	25.0	62.7
2025-08-12T21:03	10	0	0.1	0	0	418	0.3	418	419	24.9	62.6
2025-08-12T21:04	10	0	0.1	0	0	417	0.2	417	418	24.9	62.8
2025-08-12T21:05	10	0	0.1	0	0	418	0.3	417	418	24.8	63.2
2025-08-12T21:06	10	0	0.1	0	0	418	0.3	417	418	24.8	63.1
2025-08-12T21:07	10	0	0.1	0	0	417	0.2	417	418	24.8	63.2
2025-08-12T21:08	10	0	0.1	0	0	418	0.3	417	418	24.8	63.3
2025-08-12T21:09	10	0	0.1	0	0	418	0.4	417	419	24.9	62.6
2025-08-12T21:10	10	0	0.1	0	0	419	0.3	419	420	25.2	61.8
2025-08-12T21:11	10	0	0.1	0	0	419	0.3	418	420	25.3	61.4
2025-08-12T21:12	10	0	0.1	0	0	419	0.3	418	420	25.3	61.1
2025-08-12T21:13	10	0	0.1	0	0	419	0.2	418	419	25.3	61.0
2025-08-12T21:14	10	0	0.1	0	1	419	0.3	418	419	25.3	59.0
2025-08-12T21:15	10	0	0.1	0	0	418	0.2	418	419	25.3	61.0
2025-08-12T21:16	10	0	0.1	0	1	418	0.2	418	418	25.1	59.0
2025-08-12T21:17	10	0	0.1	0	0	418	0.3	417	418	25.3	61.0
2025-08-12T21:18	10	0	0.1	0	1	418	0.4	417	418	25.3	61.0
2025-08-12T21:19	10	0	0.1	0	0	417	0.3	416	417	25.3	61.0
2025-08-12T21:20	10	0	0.1	0	0	417	0.3	416	417	25.3	61.2
2025-08-12T21:21	10	0	0.1	0	0	417	0.2	416	417	25.0	62.5
2025-08-12T21:22	10	0	0.1	0	0	416	0.2	416	417	24.9	63.3
2025-08-12T21:23	10	0	0.1	0	0	416	0.3	416	417	24.7	64.0
2025-08-12T21:24	10	0	0.1	0	0	416	0.2	416	417	24.6	64.8
2025-08-12T21:25	10	0	0.1	0	0	416	0.4	416	417	24.5	65.4
2025-08-12T21:26	10	0	0.1	0	0	417	0.2	416	417	24.4	65.8
2025-08-12T21:27	10	0	0.1	0	0	416	0.2	416	417	24.2	66.5
2025-08-12T21:28	10	0	0.1	0	0	416	0.2	416	417	24.1	66.8
2025-08-12T21:29	10	0	0.1	0	0	416	0.3	416	417	24.1	66.8
2025-08-12T21:30	10	0	0.1	0	0	416	0.4	415	417	24.2	66.5
2025-08-12T21:31	10	0	0.1	0	0	416	0.3	415	416	24.1	66.9
2025-08-12T21:32	10	0	0.1	0	0	416	0.5	415	418	24.0	66.9
2025-08-12T21:33	10	0	0.1	0	0	417	0.7	416	418	24.6	64.0
2025-08-12T21:34	10	0	0.1	0	0	416	0.2	415	417	24.5	65.2
2025-08-12T21:35	10	0	0.0	0	0	416	0.3	416	417	24.4	65.4
2025-08-12T21:36	10	0	0.1	0	0	416	0.4	415	417	24.3	65.5
2025-08-12T21:37	10	0	0.1	0	1	416	0.4	416	417	23.8	67.7
2025-08-12T21:38	10	0	0.1	0	0	417	0.2	416	417	23.9	67.6
2025-08-12T21:39	10	0	0.1	0	1	417	0.2	416	417	24.1	66.4
2025-08-12T21:40	10	0	0.1	0	0	416	0.3	415	417	24.1	66.5
2025-08-12T21:41	10	0	0.1	0	1	416	0.3	415	416	24.1	66.1
2025-08-12T21:42	10	0	0.2	0	1	416	0.5	415	417	24.1	66.5
2025-08-12T21:43	10	0	0.2	0	1	416	0.3	415	416	24.1	65.9
2025-08-12T21:44	10	0	0.2	0	1	416	0.3	416	417	24.2	65.6
2025-08-12T21:45	10	0	0.1	0	0	416	0.2	415	416	24.2	65.4
2025-08-12T21:46	10	0	0.2	0	1	415	0.5	414	416	24.2	66.3
2025-08-12T21:47	10	0	0.2	0	1	415	0.3	415	416	24.1	67.2
2025-08-12T21:48	10	0	0.1	0	1	415	0.2	415	416	24.0	66.9
2025-08-12T21:49	10	0	0.2	0	1	415	0.4	414	416	24.0	67.3
2025-08-12T21:50	10	0	0.1	0	1	414	0.5	413	415	24.0	67.2
2025-08-12T21:51	10	0	0.2	0	1	413	0.6	412	414	24.0	67.5
2025-08-12T21:52	10	0	0.1	0	1	413	0.3	412	413	23.9	67.9
2025-08-12T21:53	10	0	0.1	0	1	412	0.4	411	413	23.8	68.3
2025-08-12T21:54	10	0	0.1	0	0	411	0.3	410	412	23.6	69.1
2025-08-12T21:55	10	0	0.1	0	1	411	0.2	411	412	23.3	70.1
2025-08-12T21:56	10	0	0.1	0	0	411	0.3	410	411	23.2	70.5
2025-08-12T21:57	10	0	0.1	0	1	411	0.3	410	411	23.2	70.8
2025-08-12T21:58	10	0	0.1	0	0	411	0.3	410	412	23.2	70.3
2025-08-12T21:59	10	0	0.1	0	0	411	0.2	410	411	23.3	70.1
2025-08-12T22:00	10	0	0.1	0	0	410	0.3	410	411	23.2	70.1
2025-08-12T22:01	10	0	0.1	0	0	411	0.4	410	411	23.2	69.9
2025-08-12T22:02	10	0	0.1	0	0	410	0.3	410	411	23.4	68.2
2025-08-12T22:03	10	0	0.1	0	0	410	0.3	409	411	23.4	69.2
2025-08-12T22:04	10	0	0.1	0	0	411	0.5	410	411	23.4	69.6
2025-08-12T22:05	10	0	0.1	0	0	410	0.2	410	411	23.5	69.0
2025-08-12T22:06	10	0	0.1	0	0	410	0.5	409	411	23.4	69.4
2025-08-12T22:07	10	0	0.1	0	0	410	0.2	409	410	23.2	70.5
2025-08-12T22:08	10	0	0.1	0	0	410	0.3	409	410	23.3	70.1
2025-08-12T22:09	10	0	0.0	0	0	410	0.3	409	411	23.4	69.8
2025-08-12T22:10	10	0	0.1	0	0	410	0.2	410	410	23.4	69.6
2025-08-12T22:11	10	0	0.1	0	0	410	0.3	409	410	23.5	69.3
2025-08-12T22:12	10	0	0.0	0	0	409	0.3	409	410	23.5	69.6
2025-08-12T22:13	10	0	0.1	0	0	409	0.2	409	410	23.4	69.9
2025-08-12T22:14	10	0	0.0	0	0	409	0.4	408	410	23.3	69.9
2025-08-12T22:15	10	0	0.1	0	0	409	0.3	409	410	23.4	69.5
2025-08-12T22:16	10	0	0.1	0	0	409	0.3	408	410	23.4	69.4
2025-08-12T22:17	10	0	0.1	0	0	408	0.3	408	409	23.4	69.7
2025-08-12T22:18	10	0	0.1	0	0	408	0.3	407	408	23.2	70.6
2025-08-12T22:19	10	0	0.1	0	0	408	0.2	408	409	23.1	70.8
2025-08-12T22:20	10	0	0.1	0	0	408	0.3	407	409	23.2	70.7
2025-08-12T22:21	10	0	0.1	0	0	408	0.3	407	409	23.2	69.8
2025-08-12T22:22	10	0	0.1	0	0	408	0.4	407	408	23.0	71.2
2025-08-12T22:23	10	0	0.1	0	0	407	0.2	407	408	22.8	72.6
2025-08-12T22:24	10	0	0.1	0	0	407	0.2	407	408	22.7	73.2
2025-08-12T22:25	10	0	0.1	0	0	407	0.3	407	408	22.5	74.2
2025-08-12T22:26	10	0	0.1	0	1	408	0.4	407	408	22.5	73.8
2025-08-12T22:27	10	0	0.1	0	0	408	0.5	407	409	22.4	73.7
2025-08-12T22:28	10	0	0.1	0	0	408	0.2	407	408	22.5	73.3
2025-08-12T22:29	10	0	0.1	0	0	408	0.3	407	408	22.5	73.6
2025-08-12T22:30	10	0	0.1	0	0	408	0.3	407	408	22.5	73.4
2025-08-12T22:31	10	0	0.1	0	0	408	0.4	407	408	22.5	73.2
2025-08-12T22:32	10	0	0.1	0	0	407	0.3	407	408	22.6	72.7
2025-08-12T22:33	10	0	0.1	0	0	407	0.3	407	408	22.7	71.7
2025-08-12T22:34	10	0	0.1	0	0	407	0.3	406	407	22.8	71.2
2025-08-12T22:35	10	0	0.1	0	0	407	0.2	407	408	22.9	70.0
2025-08-12T22:36	10	0	0.0	0	0	407	0.4	406	408	23.1	69.1
2025-08-12T22:37	10	0	0.1	0	0	407	0.2	406	407	23.0	69.8
2025-08-12T22:38	10	0	0.1	0	0	407	0.3	406	407	22.9	70.4
2025-08-12T22:39	10	0	0.1	0	0	406	0.3	406	407	22.8	70.8
2025-08-12T22:40	10	0	0.1	0	0	406	0.2	406	406	22.7	71.1
2025-08-12T22:41	10	0	0.0	0	0	406	0.4	405	406	22.5	71.8
2025-08-12T22:42	10	0	0.1	0	0	405	0.3	405	406	22.3	73.3
2025-08-12T22:43	10	0	0.1	0	0	406	0.3	405	407	22.2	73.1
2025-08-12T22:44	10	0	0.1	0	0	406	0.4	406	407	22.2	72.6
2025-08-12T22:45	10	0	0.1	0	0	407	0.3	406	408	22.2	72.8
2025-08-12T22:46	10	0	0.1	0	0	407	0.2	406	407	22.2	73.2
2025-08-12T22:47	10	0	0.0	0	0	407	0.2	407	408	22.2	72.6
2025-08-12T22:48	10	0	0.1	0	0	406	0.3	406	407	22.1	73.2
2025-08-12T22:49	10	0	0.1	0	0	406	0.2	406	407	22.0	73.7
2025-08-12T22:50	10	0	0.1	0	0	406	0.2	405	406	21.9	74.1
2025-08-12T22:51	10	0	0.1	0	0	406	0.3	405	407	21.8	74.1
2025-08-12T22:52	10	0	0.1	0	0	406	0.2	405	406	21.9	73.9
2025-08-12T22:53	10	0	0.1	0	0	406	0.2	405	406	21.8	73.9
2025-08-12T22:54	10	0	0.1	0	0	405	0.2	405	406	21.9	73.6
2025-08-12T22:55	10	0	0.1	0	1	405	0.3	404	406	21.9	73.8
2025-08-12T22:56	10	0	0.1	0	0	405	0.4	405	406	22.0	73.1
2025-08-12T22:57	10	0	0.1	0	0	406	0.3	405	406	22.2	71.6
2025-08-12T22:58	10	0	0.1	0	1	406	0.3	405	406	22.4	70.2
2025-08-12T22:59	10	0	0.1	0	0	405	0.6	404	406	22.4	70.4
2025-08-12T23:00	10	0	0.1	0	1	404	0.4	404	405	22.2	71.7
2025-08-12T23:01	10	0	0.1	0	1	405	0.3	404	405	22.0	72.0
2025-08-12T23:02	10	0	0.1	0	0	405	0.3	404	405	22.3	70.5
2025-08-12T23:03	10	0	0.1	0	1	405	0.3	404	405	22.2	71.4
2025-08-12T23:04	10	0	0.2	0	1	405	0.4	404	406	22.3	71.2
2025-08-12T23:05	10	0	0.2	0	1	405	0.2	404	406	22.4	70.9
2025-08-12T23:06	10	0	0.2	0	0	405	0.3	405	406	22.5	71.0
2025-08-12T23:07	10	0	0.2	0	1	405	0.3	404	406	22.4	71.2
2025-08-12T23:08	10	0	0.1	0	0	405	0.3	404	405	22.4	71.7
2025-08-12T23:09	10	0	0.1	0	1	404	0.2	404	405	22.2	72.2
2025-08-12T23:10	10	0	0.1	0	0	404	0.2	403	405	22.2	72.5
2025-08-12T23:11	10	0	0.1	0	0	404	0.2	403	404	22.1	73.0
2025-08-12T23:12	10	0	0.1	0	0	404	0.3	403	405	22.1	73.1
2025-08-12T23:13	10	0	0.1	0	0	405	0.2	404	405	22.0	73.2
2025-08-12T23:14	10	0	0.1	0	0	405	0.3	405	406	21.9	72.7
2025-08-12T23:15	10	0	0.1	0	0	405	0.2	405	406	21.9	72.6
2025-08-12T23:16	10	0	0.1	0	0	405	0.3	405	406	21.9	72.6
2025-08-12T23:17	10	0	0.1	0	0	405	0.2	404	405	21.8	72.8
2025-08-12T23:18	10	0	0.1	0	0	405	0.3	404	406	21.8	72.7
2025-08-12T23:19	10	0	0.1	0	0	405	0.2	405	406	21.8	72.6
2025-08-12T23:20	10	0	0.1	0	0	406	0.3	405	406	21.8	72.5
2025-08-12T23:21	10	0	0.0	0	0	406	0.2	406	407	21.8	72.2
2025-08-12T23:22	10	0	0.1	0	0	406	0.3	405	407	22.0	71.2
2025-08-12T23:23	10	0	0.0	0	0	405	0.3	404	406	21.9	71.3
2025-08-12T23:24	10	0	0.0	0	0	405	0.3	404	405	22.0	70.9
2025-08-12T23:25	10	0	0.0	0	0	404	0.4	403	405	22.0	71.0
2025-08-12T23:26	10	0	0.0	0	0	403	0.2	403	404	21.9	71.2
2025-08-12T23:27	10	0	0.0	0	0	403	0.3	402	404	21.9	71.2
2025-08-12T23:28	10	0	0.0	0	0	403	0.2	402	403	21.9	70.2
2025-08-12T23:29	10	0	0.1	0	0	403	0.3	403	404	22.0	68.0
2025-08-12T23:30	10	0	0.0	0	0	404	0.2	403	404	22.3	66.0
2025-08-12T23:31	10	0	0.1	0	0	403	0.5	402	404	22.3	66.0
2025-08-12T23:32	10	0	0.0	0	0	402	0.4	401	403	22.1	67.9
2025-08-12T23:33	10	0	0.0	0	0	402	0.4	402	403	22.0	69.9
2025-08-12T23:34	10	0	0.1	0	0	401	0.6	400	402	21.8	71.6
2025-08-12T23:35	10	0	0.0	0	0	401	0.4	400	401	21.6	73.7
2025-08-12T23:36	10	0	0.1	0	0	401	0.3	400	402	21.5	73.3
2025-08-12T23:37	10	0	0.1	0	0	401	0.3	401	402	21.5	71.6
2025-08-12T23:38	10	0	0.1	0	0	402	0.3	401	402	21.6	70.4
2025-08-12T23:39	10	0	0.1	0	0	402	0.2	401	402	21.7	69.5
2025-08-12T23:40	10	0	0.1	0	0	401	0.3	401	402	21.7	70.1
2025-08-12T23:41	10	0	0.1	0	0	402	0.2	401	402	21.6	69.6
2025-08-12T23:42	10	0	0.1	0	0	402	0.2	401	402	21.6	69.4
2025-08-12T23:43	10	0	0.1	0	0	401	0.2	401	402	21.5	69.5
2025-08-12T23:44	10	0	0.1	0	0	401	0.2	400	401	21.5	69.7
2025-08-12T23:45	10	0	0.1	0	0	401	0.3	400	401	21.5	70.9
2025-08-12T23:46	10	0	0.1	0	0	401	0.3	400	401	21.5	72.6
2025-08-12T23:47	10	0	0.1	0	0	400	0.2	400	401	21.5	72.2
2025-08-12T23:48	10	0	0.1	0	0	400	0.3	400	401	21.4	72.7
2025-08-12T23:49	10	0	0.1	0	0	400	0.2	400	401	21.4	73.2
2025-08-12T23:50	10	0	0.1	0	0	400	0.2	400	401	21.3	73.6
2025-08-12T23:51	10	0	0.1	0	0	400	0.2	400	400	21.2	74.3
2025-08-12T23:52	10	0	0.1	0	0	400	0.3	400	401	21.2	74.4
2025-08-12T23:53	10	0	0.1	0	0	400	0.3	399	401	21.2	74.6
2025-08-12T23:54	10	0	0.1	0	0	400	0.2	400	400	21.1	74.6
2025-08-12T23:55	10	0	0.1	0	0	400	0.2	399	400	21.0	74.2
2025-08-12T23:56	10	0	0.1	0	0	400	0.2	400	401	20.9	74.3
2025-08-12T23:57	10	0	0.1	0	0	400	0.3	400	401	20.9	74.1
2025-08-12T23:58	10	0	0.1	0	0	400	0.2	400	401	20.8	73.1
2025-08-12T23:59	10	0	0.1	0	0	400	0.3	399	401	20.9	73.1
2025-08-13T00:00	10	0	0.1	0	0	401	0.3	400	401	20.9	73.3
2025-08-13T00:01	10	0	0.1	0	0	401	0.2	400	401	20.9	73.6
2025-08-13T00:02	10	0	0.1	0	0	401	0.2	400	401	20.8	73.9
2025-08-13T00:03	10	0	0.1	0	0	400	0.2	400	401	20.8	74.3
2025-08-13T00:04	10	0	0.1	0	0	400	0.3	399	401	20.8	74.5
2025-08-13T00:05	10	0	0.1	0	0	400	0.2	400	401	20.8	74.8
2025-08-13T00:06	10	0	0.1	0	0	400	0.3	399	401	20.8	74.4
2025-08-13T00:07	10	0	0.1	0	0	400	0.3	399	400	20.8	74.6
2025-08-13T00:08	10	0	0.1	0	0	400	0.3	399	400	20.7	75.6
2025-08-13T00:09	10	0	0.1	0	0	400	0.2	399	400	20.6	76.0
2025-08-13T00:10	10	0	0.1	0	0	400	0.3	399	400	20.6	75.6
2025-08-13T00:11	10	0	0.1	0	0	399	0.2	399	400	20.6	75.1
2025-08-13T00:12	10	0	0.1	0	0	399	0.3	398	400	20.6	74.3
2025-08-13T00:13	10	0	0.0	0	0	399	0.2	399	400	20.7	73.2
2025-08-13T00:14	10	0	0.1	0	0	399	0.3	399	400	20.7	72.6
2025-08-13T00:15	10	0	0.0	0	0	399	0.2	399	400	20.9	71.2
2025-08-13T00:16	10	0	0.0	0	0	399	0.2	399	400	20.9	71.2
2025-08-13T00:17	10	0	0.1	0	0	399	0.2	399	400	21.0	70.6
2025-08-13T00:18	10	0	0.1	0	0	399	0.3	399	400	21.1	70.3
2025-08-13T00:19	10	0	0.1	0	0	399	0.3	399	401	21.2	69.8
2025-08-13T00:20	10	0	0.1	0	0	399	0.2	399	400	21.2	70.0
2025-08-13T00:21	10	0	0.1	0	0	399	0.3	399	400	21.1	70.3
2025-08-13T00:22	10	0	0.1	0	0	400	0.3	399	401	21.1	69.2
2025-08-13T00:23	10	0	0.1	0	0	399	0.4	398	400	21.3	68.3
2025-08-13T00:24	10	0	0.1	0	0	399	0.3	398	399	21.2	69.2
2025-08-13T00:25	10	0	0.1	0	0	398	0.3	398	399	21.2	69.3
2025-08-13T00:26	10	0	0.1	0	0	399	0.4	398	400	21.2	68.7
2025-08-13T00:27	10	0	0.0	0	0	399	0.3	399	400	21.4	68.0
2025-08-13T00:28	10	0	0.1	0	0	399	0.2	399	399	21.3	68.0
2025-08-13T00:29	10	0	0.1	0	0	399	0.3	398	400	21.4	66.4
2025-08-13T00:30	10	0	0.1	0	0	399	0.2	398	399	21.4	67.9
2025-08-13T00:31	10	0	0.1	0	0	399	0.4	398	399	21.4	67.7
2025-08-13T00:32	10	0	0.1	0	0	399	0.3	398	399	21.4	68.1
2025-08-13T00:33	10	0	0.1	0	0	399	0.2	398	399	21.4	67.2
2025-08-13T00:34	10	0	0.1	0	0	398	0.3	397	399	21.5	67.1
2025-08-13T00:35	10	0	0.1	0	0	397	0.4	397	398	21.3	68.6
2025-08-13T00:36	10	0	0.1	0	1	397	0.2	397	398	21.0	70.3
2025-08-13T00:37	10	0	0.1	0	0	398	0.3	397	398	20.8	71.4
2025-08-13T00:38	10	0	0.1	0	0	398	0.5	397	399	20.8	70.8
2025-08-13T00:39	10	0	0.1	0	0	398	0.3	397	399	20.9	70.3
2025-08-13T00:40	10	0	0.1	0	0	397	0.3	397	398	20.8	70.6
2025-08-13T00:41	10	0	0.1	0	0	397	0.3	396	398	20.6	72.2
2025-08-13T00:42	10	0	0.1	0	0	398	0.2	397	398	20.5	72.5
2025-08-13T00:43	10	0	0.2	0	1	398	0.2	397	398	20.4	73.0
2025-08-13T00:44	10	0	0.1	0	0	398	0.2	397	398	20.4	73.5
2025-08-13T00:45	10	0	0.1	0	0	398	0.2	397	398	20.4	73.7
2025-08-13T00:46	10	0	0.1	0	0	398	0.3	397	398	20.4	73.2
2025-08-13T00:47	10	0	0.1	0	0	398	0.3	398	399	20.5	72.9
2025-08-13T00:48	10	0	0.1	0	0	399	0.3	398	399	20.6	72.7
2025-08-13T00:49	10	0	0.2	0	0	399	0.3	398	399	20.6	72.2
2025-08-13T00:50	10	0	0.1	0	0	399	0.3	398	399	20.7	71.5
2025-08-13T00:51	10	0	0.1	0	0	399	0.2	398	399	20.5	72.3
2025-08-13T00:52	10	0	0.1	0	0	399	0.3	398	399	20.5	72.3
2025-08-13T00:53	10	0	0.1	0	0	399	0.3	398	399	20.6	72.1
2025-08-13T00:54	10	0	0.2	0	0	398	0.5	397	399	20.5	71.9
2025-08-13T00:55	10	0	0.2	0	1	397	0.3	397	398	20.4	72.3
2025-08-13T00:56	10	0	0.2	-1	1	398	0.3	398	399	20.6	71.2
2025-08-13T00:57	10	0	0.2	0	1	398	0.3	397	398	20.7	70.3
2025-08-13T00:58	10	0	0.2	0	0	396	0.4	396	397	20.7	70.6
2025-08-13T00:59	10	0	0.1	0	0	398	0.2	397	398	21.0	68.0
2025-08-13T01:00	10	0	0.2	0	0	397	0.4	396	398	21.1	68.1
2025-08-13T01:01	10	0	0.1	0	0	396	0.3	396	397	20.9	69.7
2025-08-13T01:02	10	0	0.2	0	0	396	0.3	395	397	20.8	70.5
2025-08-13T01:03	10	0	0.2	0	1	396	0.2	395	396	20.7	70.7
2025-08-13T01:04	10	0	0.1	0	0	396	0.3	395	396	20.7	70.7
2025-08-13T01:05	10	0	0.1	0	0	395	0.2	395	396	20.6	70.6
2025-08-13T01:06	10	0	0.1	0	0	395	0.2	395	396	20.6	70.8
2025-08-13T01:07	10	0	0.1	0	0	396	0.3	396	397	20.6	70.3
2025-08-13T01:08	10	0	0.1	0	0	396	0.2	396	397	20.7	70.1
2025-08-13T01:09	10	0	0.1	0	0	396	0.3	395	396	20.6	70.5
2025-08-13T01:10	10	0	0.1	0	0	396	0.3	395	397	20.5	70.5
2025-08-13T01:11	10	0	0.1	0	0	396	0.3	395	396	20.5	70.7
2025-08-13T01:12	10	0	0.1	0	0	395	0.2	395	396	20.5	71.0
2025-08-13T01:13	10	0	0.1	0	0	395	0.2	395	396	20.4	70.9
2025-08-13T01:14	10	0	0.1	0	0	396	0.3	395	396	20.4	70.8
2025-08-13T01:15	10	0	0.1	0	0	396	0.2	395	396	20.5	70.2
2025-08-13T01:16	10	0	0.1	0	0	395	0.2	395	396	20.6	69.2
2025-08-13T01:17	10	0	0.0	0	0	395	0.2	395	396	20.6	69.8
2025-08-13T01:18	10	0	0.1	0	0	395	0.3	394	395	20.4	70.7
2025-08-13T01:19	10	0	0.1	0	0	395	0.2	394	395	20.4	71.3
2025-08-13T01:20	10	0	0.1	0	0	395	0.3	394	395	20.3	71.7
2025-08-13T01:21	10	0	0.1	0	0	395	0.2	394	395	20.3	71.7
2025-08-13T01:22	10	0	0.1	0	0	395	0.2	394	395	20.3	71.3
2025-08-13T01:23	10	0	0.1	0	0	395	0.2	394	395	20.2	71.5
2025-08-13T01:24	10	0	0.1	0	0	395	0.2	394	395	20.1	71.7
2025-08-13T01:25	10	0	0.1	0	0	394	0.3	393	395	20.0	71.5
2025-08-13T01:26	10	0	0.1	0	0	394	0.3	394	395	20.0	71.4
2025-08-13T01:27	10	0	0.1	0	0	394	0.3	393	395	19.9	71.4
2025-08-13T01:28	10	0	0.1	0	0	394	0.3	393	394	19.9	71.6
2025-08-13T01:29	10	0	0.1	0	0	393	0.2	393	394	19.8	72.1
2025-08-13T01:30	10	0	0.1	0	0	393	0.3	393	394	19.7	72.4
2025-08-13T01:31	10	0	0.1	0	0	394	0.3	393	394	19.9	72.4
2025-08-13T01:32	10	0	0.1	0	0	394	0.2	393	395	20.0	71.9
2025-08-13T01:33	10	0	0.1	0	0	394	0.2	394	395	20.0	71.9
2025-08-13T01:34	10	0	0.1	0	0	394	0.2	393	395	19.9	71.9
2025-08-13T01:35	10	0	0.1	0	0	394	0.2	393	394	19.8	72.5
2025-08-13T01:36	10	0	0.1	0	0	395	0.3	394	395	19.8	73.0
2025-08-13T01:37	10	0	0.1	0	0	395	0.3	394	395	19.9	72.6
2025-08-13T01:38	10	0	0.1	0	0	396	0.4	395	397	19.8	72.9
2025-08-13T01:39	10	0	0.1	0	0	396	0.2	395	396	19.9	73.1
2025-08-13T01:40	10	0	0.1	0	0	396	0.2	396	396	20.0	72.0
2025-08-13T01:41	10	0	0.0	0	0	396	0.2	396	397	20.0	71.8
2025-08-13T01:42	10	0	0.0	0	0	396	0.3	395	397	20.0	72.2
2025-08-13T01:43	10	0	0.0	0	0	396	0.3	396	397	20.1	71.3
2025-08-13T01:44	10	0	0.1	0	0	396	0.2	396	397	20.2	70.7
2025-08-13T01:45	10	0	0.1	0	0	396	0.3	395	397	20.2	70.8
2025-08-13T01:46	10	0	0.1	0	0	396	0.2	395	396	20.1	71.1
2025-08-13T01:47	10	0	0.1	0	0	396	0.2	395	396	20.2	70.2
2025-08-13T01:48	10	0	0.1	0	0	395	0.3	395	396	20.2	70.1
2025-08-13T01:49	10	0	0.1	0	0	395	0.2	395	396	20.1	69.8
2025-08-13T01:50	10	0	0.1	0	0	395	0.3	394	395	20.1	69.9
2025-08-13T01:51	10	0	0.1	0	0	394	0.2	394	395	20.0	70.0
2025-08-13T01:52	10	0	0.0	0	0	395	0.2	394	395	20.0	69.9
2025-08-13T01:53	10	0	0.1	0	0	394	0.2	394	395	20.1	69.6
2025-08-13T01:54	10	0	0.0	0	0	394	0.3	393	395	20.0	70.3
2025-08-13T01:55	10	0	0.1	0	0	393	0.3	392	394	20.0	70.6
2025-08-13T01:56	10	0	0.1	0	0	393	0.3	392	393	19.8	71.3
2025-08-13T01:57	10	0	0.1	0	0	392	0.2	392	393	19.7	71.2
2025-08-13T01:58	10	0	0.1	0	0	392	0.2	392	393	19.7	70.8
2025-08-13T01:59	10	0	0.1	0	0	392	0.3	391	393	19.7	71.8
2025-08-13T02:00	10	0	0.1	0	0	392	0.2	391	392	19.5	72.9
2025-08-13T02:01	10	0	0.1	0	0	392	0.3	391	393	19.4	74.0
2025-08-13T02:02	10	0	0.1	0	0	393	0.5	392	394	19.3	74.5
2025-08-13T02:03	10	0	0.1	0	0	394	0.3	394	395	19.4	74.3
2025-08-13T02:04	10	0	0.1	0	0	394	0.2	394	395	19.6	72.6
2025-08-13T02:05	10	0	0.1	0	0	394	0.3	393	394	19.7	72.3
2025-08-13T02:06	10	0	0.1	0	0	393	0.2	393	394	19.6	72.2
2025-08-13T02:07	10	0	0.1	0	0	393	0.2	392	394	19.6	73.1
2025-08-13T02:08	10	0	0.1	0	0	393	0.2	392	393	19.6	72.8
2025-08-13T02:09	10	0	0.1	0	0	392	0.2	392	393	19.5	72.6
2025-08-13T02:10	10	0	0.1	0	0	392	0.3	391	393	19.5	72.8
2025-08-13T02:11	10	0	0.1	0	0	393	0.3	392	393	19.4	73.1
2025-08-13T02:12	10	0	0.1	0	0	393	0.2	392	393	19.3	73.4
2025-08-13T02:13	10	0	0.1	0	0	392	0.3	392	393	19.3	73.8
2025-08-13T02:14	10	0	0.1	0	0	392	0.2	391	393	19.1	74.4
2025-08-13T02:15	10	0	0.1	0	0	391	0.3	391	392	19.0	74.9
2025-08-13T02:16	10	0	0.1	0	0	391	0.3	390	391	19.0	74.9
2025-08-13T02:17	10	0	0.1	0	0	391	0.3	390	391	18.9	75.4
2025-08-13T02:18	10	0	0.1	0	0	390	0.2	390	391	18.9	75.3
2025-08-13T02:19	10	0	0.1	0	0	390	0.3	390	391	19.0	75.0
2025-08-13T02:20	10	0	0.1	0	0	390	0.2	390	391	19.0	74.9
2025-08-13T02:21	10	0	0.1	0	0	390	0.2	390	391	18.9	75.1
2025-08-13T02:22	10	0	0.1	0	0	391	0.2	390	391	18.9	75.2
2025-08-13T02:23	10	0	0.1	0	0	391	0.2	390	391	19.0	74.7
2025-08-13T02:24	10	0	0.1	0	0	390	0.2	390	391	19.1	74.0
2025-08-13T02:25	10	0	0.1	0	0	390	0.2	390	391	19.1	73.7
2025-08-13T02:26	10	0	0.1	0	0	390	0.2	390	391	19.1	73.7
2025-08-13T02:27	10	0	0.1	0	0	390	0.3	390	391	19.0	74.3
2025-08-13T02:28	10	0	0.1	0	0	391	0.3	390	391	18.9	74.8
2025-08-13T02:29	10	0	0.1	0	0	391	0.3	391	392	18.9	74.9
2025-08-13T02:30	10	0	0.1	0	0	392	0.3	391	392	18.9	74.8
2025-08-13T02:31	10	0	0.0	0	0	392	0.3	392	393	19.0	74.5
2025-08-13T02:32	10	0	0.1	0	0	392	0.3	391	392	19.1	74.2
2025-08-13T02:33	10	0	0.1	0	0	392	0.2	391	392	19.1	73.7
2025-08-13T02:34	10	0	0.1	0	0	391	0.3	391	392	19.0	73.9
2025-08-13T02:35	10	0	0.1	0	0	391	0.2	390	391	18.9	74.4
2025-08-13T02:36	10	0	0.1	0	0	391	0.2	390	391	19.0	73.7
2025-08-13T02:37	10	0	0.0	0	0	391	0.3	391	392	19.1	72.4
2025-08-13T02:38	10	0	0.1	0	0	391	0.2	390	391	19.1	72.8
2025-08-13T02:39	10	0	0.1	0	0	391	0.3	390	391	19.1	73.1
2025-08-13T02:40	10	0	0.0	0	0	391	0.2	390	391	19.2	72.6
2025-08-13T02:41	10	0	0.1	0	0	391	0.4	390	392	19.2	72.7
2025-08-13T02:42	10	0	0.1	0	0	391	0.2	391	392	19.3	72.4
2025-08-13T02:43	10	0	0.1	0	0	391	0.3	390	392	19.2	72.6
2025-08-13T02:44	10	0	0.1	0	0	390	0.2	390	391	19.1	73.2
2025-08-13T02:45	10	0	0.1	0	0	390	0.2	390	391	19.0	73.6
2025-08-13T02:46	10	0	0.1	0	0	390	0.2	390	391	19.0	73.7
2025-08-13T02:47	10	0	0.0	0	0	390	0.2	390	391	19.0	73.5
2025-08-13T02:48	10	0	0.1	0	0	390	0.2	389	390	19.0	73.4
2025-08-13T02:49	10	0	0.0	0	0	389	0.3	389	390	18.9	74.1
2025-08-13T02:50	10	0	0.0	0	0	389	0.2	389	390	18.9	73.9
2025-08-13T02:51	10	0	0.1	0	0	389	0.3	388	389	18.9	74.0
2025-08-13T02:52	10	0	0.1	0	0	388	0.2	388	389	18.9	74.0
2025-08-13T02:53	10	0	0.1	0	0	389	0.3	388	389	18.8	74.1
2025-08-13T02:54	10	0	0.1	0	0	389	0.2	388	389	18.8	74.0
2025-08-13T02:55	10	0	0.0	0	0	389	0.3	388	389	18.8	74.0
2025-08-13T02:56	10	0	0.1	0	0	389	0.2	389	389	18.8	74.2
2025-08-13T02:57	10	0	0.1	0	0	389	0.3	388	390	18.8	74.4
2025-08-13T02:58	10	0	0.1	0	0	389	0.1	389	389	18.7	74.5
2025-08-13T02:59	10	0	0.1	0	0	389	0.2	389	390	18.6	75.2
2025-08-13T03:00	10	0	0.1	0	0	389	0.2	388	389	18.5	75.6
2025-08-13T03:01	10	0	0.0	0	0	389	0.2	388	389	18.5	75.5
2025-08-13T03:02	10	0	0.1	0	0	388	0.2	388	389	18.6	75.0
2025-08-13T03:03	10	0	0.1	0	0	388	0.2	388	389	18.7	74.5
2025-08-13T03:04	10	0	0.1	0	0	388	0.2	387	388	18.7	74.6
2025-08-13T03:05	10	0	0.1	0	0	388	0.2	387	388	18.6	74.8
2025-08-13T03:06	10	0	0.1	0	0	388	0.2	387	388	18.6	74.6
2025-08-13T03:07	10	0	0.1	0	0	388	0.2	387	388	18.7	74.4
2025-08-13T03:08	10	0	0.1	0	0	388	0.2	387	388	18.7	74.0
2025-08-13T03:09	10	0	0.1	0	0	388	0.2	387	388	18.8	73.8
2025-08-13T03:10	10	0	0.1	0	0	388	0.2	387	388	18.8	73.8
2025-08-13T03:11	10	0	0.2	-1	0	387	0.2	387	388	18.8	73.9
2025-08-13T03:12	10	0	0.1	0	0	387	0.2	387	388	18.8	74.0
2025-08-13T03:13	10	0	0.1	0	0	387	0.2	387	388	18.7	74.2
2025-08-13T03:14	10	0	0.1	0	0	388	0.3	386	388	18.7	74.3
2025-08-13T03:15	10	0	0.1	0	0	388	0.2	387	388	18.8	73.8
2025-08-13T03:16	10	0	0.1	0	0	388	0.3	387	389	18.8	73.7
2025-08-13T03:17	10	0	0.1	0	0	388	0.2	387	388	18.8	74.1
2025-08-13T03:18	10	0	0.1	-1	0	387	0.2	387	388	18.7	74.4
2025-08-13T03:19	10	0	0.1	0	0	387	0.3	386	388	18.6	74.9
2025-08-13T03:20	10	0	0.1	0	0	387	0.3	386	388	18.5	75.7
2025-08-13T03:21	10	0	0.1	0	0	387	0.3	387	388	18.3	76.3
2025-08-13T03:22	10	0	0.1	0	0	388	0.3	387	388	18.3	76.0
2025-08-13T03:23	10	0	0.1	0	0	388	0.2	387	389	18.4	75.1
2025-08-13T03:24	10	0	0.2	0	1	388	0.3	387	389	18.4	74.6
2025-08-13T03:25	10	0	0.1	0	0	388	0.4	387	389	18.2	76.2
2025-08-13T03:26	10	0	0.1	0	0	387	0.3	387	388	18.1	76.7
2025-08-13T03:27	10	0	0.2	0	0	387	0.3	386	388	18.2	76.3
2025-08-13T03:28	10	0	0.2	0	1	387	0.3	387	388	18.2	76.1
2025-08-13T03:29	10	0	0.2	0	1	387	0.3	386	388	18.3	75.9
2025-08-13T03:30	10	0	0.2	0	0	387	0.3	386	388	18.3	75.5
2025-08-13T03:31	10	0	0.2	0	0	387	0.3	386	388	18.4	75.1
2025-08-13T03:32	10	0	0.1	0	0	388	0.4	387	388	18.5	74.3
2025-08-13T03:33	10	0	0.2	0	1	389	0.3	388	389	18.5	73.7
2025-08-13T03:34	10	0	0.2	0	1	389	0.3	388	389	18.5	73.5
2025-08-13T03:35	10	0	0.1	0	0	389	0.3	388	390	18.6	72.8
2025-08-13T03:36	10	0	0.1	0	0	389	0.2	389	390	18.7	72.0
2025-08-13T03:37	10	0	0.1	0	0	389	0.2	389	390	18.8	72.2
2025-08-13T03:38	10	0	0.1	0	0	389	0.3	389	390	18.7	72.5
2025-08-13T03:39	10	0	0.1	0	0	389	0.3	388	390	18.7	72.4
2025-08-13T03:40	10	0	0.1	0	1	389	0.2	389	390	18.7	72.7
2025-08-13T03:41	10	0	0.1	0	0	389	0.2	389	390	18.7	72.3
2025-08-13T03:42	10	0	0.1	0	0	389	0.2	388	390	18.8	71.0
2025-08-13T03:43	10	0	0.1	0	0	389	0.2	389	390	18.8	71.3
2025-08-13T03:44	10	0	0.1	0	0	389	0.2	389	390	18.8	70.4
2025-08-13T03:45	10	0	0.1	0	0	390	0.3	389	390	19.0	67.4
2025-08-13T03:46	10	0	0.1	0	0	390	0.4	389	391	19.3	65.9
2025-08-13T03:47	10	0	0.1	0	0	390	0.2	390	390	19.5	65.0
2025-08-13T03:48	10	0	0.1	0	0	390	0.4	389	390	19.4	66.3
2025-08-13T03:49	10	0	0.1	0	0	389	0.5	388	390	19.2	68.0
2025-08-13T03:50	10	0	0.1	0	0	388	0.5	387	389	18.9	70.9
2025-08-13T03:51	10	0	0.1	0	0	387	0.4	386	388	18.6	72.5
2025-08-13T03:52	10	0	0.1	0	0	387	0.3	386	387	18.5	73.6
2025-08-13T03:53	10	0	0.1	0	0	387	0.2	387	388	18.4	73.9
2025-08-13T03:54	10	0	0.1	0	0	387	0.2	387	388	18.4	74.0
2025-08-13T03:55	10	0	0.1	0	0	387	0.3	386	388	18.5	73.8
2025-08-13T03:56	10	0	0.1	0	0	387	0.2	386	387	18.4	74.2
2025-08-13T03:57	10	0	0.1	0	0	387	0.2	386	387	18.4	74.8
2025-08-13T03:58	10	0	0.1	0	0	387	0.3	386	387	18.3	75.3
2025-08-13T03:59	10	0	0.1	0	0	387	0.2	386	387	18.2	75.6
2025-08-13T04:00	10	0	0.1	0	0	386	0.2	386	387	18.2	75.8
2025-08-13T04:01	10	0	0.1	0	0	386	0.3	386	387	18.1	76.5
2025-08-13T04:02	10	0	0.1	0	0	388	0.6	386	388	18.0	77.2
2025-08-13T04:03	10	0	0.1	0	0	389	0.4	388	389	18.1	76.6
2025-08-13T04:04	10	0	0.0	0	0	388	0.2	388	389	18.1	76.9
2025-08-13T04:05	10	0	0.1	0	0	388	0.2	387	388	18.0	77.1
2025-08-13T04:06	10	0	0.1	0	0	387	0.2	387	388	17.9	77.4
2025-08-13T04:07	10	0	0.0	0	0	387	0.3	386	387	17.8	77.2
2025-08-13T04:08	10	0	0.1	0	0	387	0.2	386	387	17.8	77.1
2025-08-13T04:09	10	0	0.0	0	0	386	0.2	386	387	17.8	77.4
2025-08-13T04:10	10	0	0.1	0	0	386	0.3	386	387	17.8	77.7
2025-08-13T04:11	10	0	0.1	0	0	386	0.2	386	387	17.9	77.2
2025-08-13T04:12	10	0	0.1	0	0	386	0.2	386	387	18.0	76.8
2025-08-13T04:13	10	0	0.1	0	0	387	0.2	386	387	18.0	76.4
2025-08-13T04:14	10	0	0.1	0	0	387	0.3	386	388	18.0	75.9
2025-08-13T04:15	10	0	0.0	0	0	387	0.2	387	387	18.1	74.6
2025-08-13T04:16	10	0	0.0	0	0	387	0.2	387	388	18.0	74.7
2025-08-13T04:17	10	0	0.1	0	0	387	0.2	386	387	18.0	75.0
2025-08-13T04:18	10	0	0.1	0	0	388	0.3	387	388	17.9	75.0
2025-08-13T04:19	10	0	0.1	0	0	388	0.3	387	389	17.9	75.2
2025-08-13T04:20	10	0	0.1	0	0	388	0.4	388	389	17.9	74.9
2025-08-13T04:21	10	0	0.1	0	0	389	0.3	388	389	18.0	74.0
2025-08-13T04:22	10	0	0.1	0	0	389	0.3	388	389	18.0	74.4
2025-08-13T04:23	10	0	0.1	0	0	388	0.3	387	389	17.9	75.3
2025-08-13T04:24	10	0	0.1	0	0	388	0.3	388	389	17.9	75.3
2025-08-13T04:25	10	0	0.1	0	0	389	0.3	388	389	17.9	75.3
2025-08-13T04:26	10	0	0.1	0	1	389	0.2	388	389	18.1	74.3
2025-08-13T04:27	10	0	0.1	0	1	389	0.2	388	390	18.3	73.6
2025-08-13T04:28	10	1	0.1	0	1	389	0.3	388	390	18.3	73.4
2025-08-13T04:29	10	1	0.1	1	1	388	0.3	388	389	18.3	73.9
2025-08-13T04:30	10	1	0.1	1	1	389	0.4	388	390	18.2	74.4
2025-08-13T04:31	10	1	0.1	1	1	390	0.4	389	391	18.3	74.0
2025-08-13T04:32	10	1	0.1	1	1	391	0.3	390	391	18.4	73.6
2025-08-13T04:33	10	1	0.1	1	1	391	0.2	391	391	18.4	73.5
2025-08-13T04:34	10	1	0.1	1	2	392	0.3	391	392	18.5	72.7
2025-08-13T04:35	10	1	0.1	1	2	392	0.3	392	393	18.6	72.4
2025-08-13T04:36	10	2	0.1	1	2	393	0.3	392	393	18.8	71.2
2025-08-13T04:37	10	2	0.1	2	2	394	0.2	393	394	19.0	70.2
2025-08-13T04:38	10	2	0.1	2	2	394	0.3	393	394	19.1	69.2
2025-08-13T04:39	10	2	0.1	2	3	394	0.3	393	394	19.1	69.1
2025-08-13T04:40	10	3	0.1	2	3	393	0.3	393	394	19.0	70.1
2025-08-13T04:41	10	3	0.1	2	3	393	0.4	392	394	18.6	72.0
2025-08-13T04:42	10	3	0.1	3	3	393	0.3	392	393	18.5	72.6
2025-08-13T04:43	10	3	0.1	3	3	392	0.3	391	393	18.4	72.9
2025-08-13T04:44	10	3	0.1	3	3	392	0.3	392	393	18.4	73.2
2025-08-13T04:45	10	3	0.1	3	4	392	0.3	391	392	18.3	73.5
2025-08-13T04:46	10	4	0.1	3	4	392	0.3	391	393	18.2	73.8
2025-08-13T04:47	10	4	0.1	4	4	391	0.3	391	392	18.2	74.2
2025-08-13T04:48	10	4	0.1	4	4	391	0.2	391	392	18.1	74.5
2025-08-13T04:49	10	4	0.1	4	5	391	0.3	391	392	18.1	74.4
2025-08-13T04:50	10	5	0.1	4	5	391	0.2	391	392	18.2	73.8
2025-08-13T04:51	10	5	0.1	5	5	392	0.2	391	392	18.2	74.1
2025-08-13T04:52	10	5	0.1	5	5	392	0.2	391	392	18.1	74.6
2025-08-13T04:53	10	5	0.1	5	6	391	0.2	391	392	18.1	74.8
2025-08-13T04:54	10	6	0.1	6	6	391	0.3	391	392	17.9	75.5
2025-08-13T04:55	10	6	0.1	6	6	392	0.2	392	392	17.9	75.9
2025-08-13T04:56	10	6	0.1	6	7	392	0.3	392	393	17.8	75.4
2025-08-13T04:57	10	7	0.2	6	7	393	0.2	392	393	17.9	74.6
2025-08-13T04:58	10	7	0.1	7	7	393	0.4	392	394	17.9	74.2
2025-08-13T04:59	10	7	0.2	7	8	393	0.3	393	394	18.0	74.3
2025-08-13T05:00	10	8	0.1	7	8	394	0.3	393	395	18.0	73.9
2025-08-13T05:01	10	8	0.2	8	8	394	0.3	393	395	18.0	74.0
2025-08-13T05:02	10	8	0.2	8	9	395	0.3	394	395	18.1	74.4
2025-08-13T05:03	10	9	0.1	8	9	395	0.2	394	395	18.1	74.1
2025-08-13T05:04	10	9	0.2	9	9	395	0.4	394	396	18.2	73.9
2025-08-13T05:05	10	9	0.2	9	10	395	0.3	394	396	18.2	73.8
2025-08-13T05:06	10	10	0.2	9	10	395	0.2	394	396	18.3	73.3
2025-08-13T05:07	10	10	0.2	10	11	395	0.2	395	396	18.3	73.6
2025-08-13T05:08	10	11	0.1	10	11	395	0.2	395	396	18.2	74.2
2025-08-13T05:09	10	11	0.1	11	11	395	0.3	395	396	18.2	74.1
2025-08-13T05:10	10	12	0.2	11	12	395	0.2	395	396	18.1	74.2
2025-08-13T05:11	10	12	0.2	11	12	395	0.2	395	396	18.1	74.1
2025-08-13T05:12	10	12	0.2	12	13	396	0.2	395	396	18.1	74.6
2025-08-13T05:13	10	13	0.2	12	13	396	0.2	395	396	18.1	74.4
2025-08-13T05:14	10	13	0.2	13	13	396	0.3	395	396	18.1	74.9
2025-08-13T05:15	10	13	0.2	13	14	396	0.3	395	396	18.0	75.8
2025-08-13T05:16	10	14	0.2	14	14	396	0.3	396	397	18.0	76.2
2025-08-13T05:17	10	14	0.2	14	15	397	0.2	396	397	18.0	75.0
2025-08-13T05:18	10	15	0.2	15	15	397	0.2	396	397	18.0	75.1
2025-08-13T05:19	10	15	0.1	15	16	397	0.3	397	398	18.0	75.0
2025-08-13T05:20	10	16	0.2	15	16	397	0.3	397	398	18.1	74.6
2025-08-13T05:21	10	16	0.2	16	17	398	0.2	397	398	18.1	74.4
2025-08-13T05:22	10	17	0.2	16	17	398	0.2	398	398	18.1	74.7
2025-08-13T05:23	10	17	0.2	17	18	398	0.2	398	399	18.1	74.8
2025-08-13T05:24	10	18	0.2	18	18	399	0.2	398	399	18.1	74.8
2025-08-13T05:25	10	18	0.2	18	19	399	0.3	398	400	18.1	73.7
2025-08-13T05:26	10	19	0.2	19	19	400	0.2	399	400	18.2	73.1
2025-08-13T05:27	10	19	0.1	19	20	400	0.3	399	401	18.2	73.2
2025-08-13T05:28	10	20	0.2	20	20	400	0.2	400	401	18.3	72.5
2025-08-13T05:29	10	20	0.2	20	21	400	0.2	400	401	18.3	72.9
2025-08-13T05:30	10	21	0.2	20	21	400	0.2	400	401	18.3	72.8
2025-08-13T05:31	10	21	0.2	21	22	401	0.2	400	401	18.4	72.3
2025-08-13T05:32	10	22	0.2	22	22	401	0.2	400	401	18.4	72.1
2025-08-13T05:33	10	23	0.2	22	23	401	0.3	400	402	18.4	72.4
2025-08-13T05:34	10	23	0.2	23	23	401	0.2	400	402	18.4	72.8
2025-08-13T05:35	10	24	0.2	23	24	401	0.2	401	402	18.4	72.4
2025-08-13T05:36	10	24	0.2	24	24	402	0.3	401	402	18.4	71.6
2025-08-13T05:37	10	25	0.2	24	25	402	0.3	402	403	18.5	71.3
2025-08-13T05:38	10	25	0.2	25	25	403	0.3	402	404	18.6	71.4
2025-08-13T05:39	10	26	0.2	25	26	404	0.3	403	404	18.6	71.6
2025-08-13T05:40	10	26	0.1	26	26	404	0.2	404	405	18.7	71.4
2025-08-13T05:41	10	27	0.2	26	27	405	0.3	404	406	18.7	72.6
2025-08-13T05:42	10	27	0.2	27	27	406	0.2	405	406	18.8	71.8
2025-08-13T05:43	10	28	0.2	27	28	406	0.2	405	406	18.8	70.4
2025-08-13T05:44	10	28	0.2	28	28	406	0.2	405	406	18.9	69.8
2025-08-13T05:45	10	29	0.2	28	29	406	0.2	405	406	18.9	69.9
2025-08-13T05:46	10	29	0.1	29	29	406	0.2	406	406	19.0	69.2
2025-08-13T05:47	10	30	0.2	29	30	406	0.2	406	407	19.0	68.8
2025-08-13T05:48	10	30	0.1	30	30	406	0.2	406	407	19.0	68.6
2025-08-13T05:49	10	31	0.2	30	31	407	0.2	407	407	19.0	68.5
2025-08-13T05:50	10	31	0.1	31	31	408	0.3	407	408	19.1	69.0
2025-08-13T05:51	10	31	0.1	31	32	408	0.2	408	408	19.1	68.0
2025-08-13T05:52	10	32	0.1	32	32	408	0.2	408	409	19.1	68.4
2025-08-13T05:53	10	32	0.2	32	33	409	0.2	408	409	19.2	68.6
2025-08-13T05:54	10	33	0.2	33	33	409	0.3	409	410	19.2	68.4
2025-08-13T05:55	10	34	0.2	33	34	410	0.2	409	410	19.3	67.7
2025-08-13T05:56	10	34	0.2	34	34	410	0.2	410	410	19.5	67.5
2025-08-13T05:57	10	35	0.2	34	35	411	0.2	410	411	19.5	67.7
2025-08-13T05:58	10	35	0.2	35	36	411	0.2	410	411	19.5	68.9
2025-08-13T05:59	10	36	0.2	36	36	411	0.2	411	412	19.6	68.4
2025-08-13T06:00	10	37	0.1	36	37	411	0.2	411	412	19.6	68.2
2025-08-13T06:01	10	37	0.2	37	37	412	0.2	411	412	19.6	70.0
2025-08-13T06:02	10	38	0.2	37	38	412	0.2	412	413	19.6	70.5
2025-08-13T06:03	10	38	0.1	38	38	412	0.2	412	413	19.5	71.3
2025-08-13T06:04	10	38	0.2	38	39	413	0.2	413	413	19.5	71.1
2025-08-13T06:05	10	39	0.1	39	39	413	0.2	413	414	19.6	71.8
2025-08-13T06:06	10	39	0.2	39	40	414	0.3	413	414	19.6	73.1
2025-08-13T06:07	10	40	0.1	40	40	414	0.2	414	415	19.7	72.1
2025-08-13T06:08	10	40	0.2	40	41	415	0.3	414	415	19.8	72.9
2025-08-13T06:09	10	41	0.2	40	41	416	0.2	415	416	19.8	73.4
2025-08-13T06:10	10	41	0.2	41	42	416	0.2	415	416	19.8	69.3
2025-08-13T06:11	10	42	0.1	42	42	416	0.2	415	416	19.8	68.5
2025-08-13T06:12	10	42	0.2	42	43	416	0.2	416	417	19.9	69.2
2025-08-13T06:13	10	43	0.2	43	44	417	0.2	416	417	19.9	69.3
2025-08-13T06:14	10	43	0.2	43	44	417	0.3	416	417	20.0	68.3
2025-08-13T06:15	10	44	0.2	44	45	417	0.2	416	417	20.0	67.3
2025-08-13T06:16	10	44	0.2	44	45	417	0.3	417	418	20.0	65.8
2025-08-13T06:17	10	45	0.3	44	45	418	0.3	417	419	20.1	65.6
2025-08-13T06:18	10	45	0.2	45	46	418	0.3	417	419	20.2	65.6
2025-08-13T06:19	10	46	0.1	46	46	418	0.3	417	419	20.2	65.0
2025-08-13T06:20	10	46	0.2	46	47	418	0.3	418	419	20.2	66.6
2025-08-13T06:21	10	47	0.1	47	47	418	0.4	417	419	20.1	66.9
2025-08-13T06:22	10	47	0.2	47	48	418	0.2	418	418	20.0	67.1
2025-08-13T06:23	10	48	0.2	48	48	418	0.3	417	418	20.0	67.6
2025-08-13T06:24	10	48	0.2	48	49	418	0.2	417	418	19.9	68.0
2025-08-13T06:25	10	49	0.2	49	49	418	0.2	418	419	19.9	68.1
2025-08-13T06:26	10	50	0.2	49	50	419	0.4	418	419	19.9	67.9
2025-08-13T06:27	10	50	0.2	50	51	420	0.4	419	421	20.0	67.8
2025-08-13T06:28	10	51	0.2	51	51	421	0.3	420	421	20.0	68.2
2025-08-13T06:29	10	52	0.2	51	52	421	0.2	421	422	20.1	67.8
2025-08-13T06:30	10	52	0.1	52	53	422	0.3	421	423	20.2	67.6
2025-08-13T06:31	10	53	0.2	52	53	423	0.3	422	423	20.3	67.6
2025-08-13T06:32	10	54	0.2	53	54	424	0.3	423	424	20.4	67.5
2025-08-13T06:33	10	54	0.2	54	55	424	0.3	424	425	20.4	67.1
2025-08-13T06:34	10	55	0.2	55	55	424	0.2	424	425	20.4	66.8
2025-08-13T06:35	10	56	0.2	55	56	424	0.3	423	425	20.4	66.1
2025-08-13T06:36	10	56	0.2	56	57	425	0.3	424	425	20.5	66.3
2025-08-13T06:37	10	57	0.2	57	57	425	0.2	424	425	20.5	66.2
2025-08-13T06:38	10	57	0.2	57	58	425	0.4	424	426	20.5	66.4
2025-08-13T06:39	10	58	0.2	57	58	426	0.3	425	426	20.6	66.0
2025-08-13T06:40	10	58	0.2	58	59	426	0.3	425	427	20.6	66.2
2025-08-13T06:41	10	59	0.2	59	59	427	0.3	426	427	20.6	66.5
2025-08-13T06:42	10	60	0.2	59	60	427	0.3	427	428	20.6	67.2
2025-08-13T06:43	10	60	0.2	60	61	428	0.3	427	428	20.6	66.4
2025-08-13T06:44	10	61	0.2	61	61	428	0.3	427	428	20.6	65.5
2025-08-13T06:45	10	61	0.2	61	62	429	0.2	428	429	20.7	64.8
2025-08-13T06:46	10	62	0.1	62	62	429	0.3	429	430	20.7	64.5
2025-08-13T06:47	10	62	0.2	62	63	430	0.2	429	431	20.9	65.1
2025-08-13T06:48	10	63	0.2	63	63	430	0.2	430	431	20.9	65.1
2025-08-13T06:49	10	63	0.1	63	64	430	0.3	430	431	20.9	65.4
2025-08-13T06:50	10	64	0.2	64	64	431	0.5	430	432	21.0	65.6
2025-08-13T06:51	10	64	0.2	64	65	432	0.5	431	433	21.2	65.7
2025-08-13T06:52	10	65	0.2	65	65	433	0.3	432	434	21.2	64.4
2025-08-13T06:53	10	66	0.2	65	66	433	0.3	432	433	21.3	63.0
2025-08-13T06:54	10	66	0.2	66	67	433	0.4	432	434	21.4	62.5
2025-08-13T06:55	10	67	0.2	67	67	433	0.4	433	435	21.3	62.4
2025-08-13T06:56	10	67	0.2	67	68	434	0.3	433	435	21.4	62.8
2025-08-13T06:57	10	68	0.2	68	68	435	0.4	434	436	21.5	62.1
2025-08-13T06:58	10	68	0.2	68	69	436	0.2	435	436	21.6	61.6
2025-08-13T06:59	10	69	0.2	69	70	436	0.3	436	437	21.7	59.9
2025-08-13T07:00	10	70	0.2	69	70	438	0.5	437	438	21.8	59.1
2025-08-13T07:01	10	70	0.3	69	71	439	0.3	438	439	22.0	60.2
2025-08-13T07:02	10	71	0.3	70	72	439	0.3	439	440	22.1	58.9
2025-08-13T07:03	10	71	0.2	71	72	439	0.7	438	441	22.0	57.3
2025-08-13T07:04	10	72	0.2	72	72	439	0.3	439	440	22.0	56.9
2025-08-13T07:05	10	73	0.2	72	73	440	0.2	439	440	22.1	56.2
2025-08-13T07:06	10	73	0.2	73	73	441	0.3	440	441	22.2	57.2
2025-08-13T07:07	10	74	0.2	73	74	442	0.3	441	442	22.4	56.7
2025-08-13T07:08	10	74	0.1	74	74	443	0.2	442	443	22.5	55.5
2025-08-13T07:09	10	74	0.1	74	75	443	0.3	442	443	22.6	56.5
2025-08-13T07:10	10	75	0.2	75	75	444	0.3	443	444	22.7	57.2
2025-08-13T07:11	10	76	0.2	75	76	444	0.2	444	444	22.7	57.6
2025-08-13T07:12	10	76	0.1	76	76	445	0.3	444	445	22.9	56.9
2025-08-13T07:13	10	76	0.1	76	77	445	0.3	444	446	22.8	55.9
2025-08-13T07:14	10	77	0.2	77	77	445	0.3	445	446	22.9	55.3
2025-08-13T07:15	10	77	0.1	77	78	446	0.2	446	447	23.0	54.7
2025-08-13T07:16	10	78	0.2	78	78	447	0.2	446	447	23.0	54.9
2025-08-13T07:17	10	78	0.1	78	79	447	0.2	446	447	22.9	55.3
2025-08-13T07:18	10	79	0.1	78	79	447	0.2	447	448	23.0	53.7
2025-08-13T07:19	10	79	0.2	79	79	448	0.4	447	449	23.0	54.6
2025-08-13T07:20	10	79	0.1	79	80	448	0.4	447	449	23.0	54.1
2025-08-13T07:21	10	80	0.2	80	80	449	0.2	448	449	23.1	53.1
2025-08-13T07:22	10	81	0.2	80	81	450	0.4	449	450	23.1	53.1
2025-08-13T07:23	10	81	0.2	81	81	450	0.3	449	450	23.0	53.1
2025-08-13T07:24	10	81	0.2	81	81	450	0.3	450	451	23.1	53.3
2025-08-13T07:25	10	82	0.1	81	82	451	0.2	450	451	23.1	52.6
2025-08-13T07:26	10	82	0.2	82	83	451	0.3	451	452	23.1	52.3
2025-08-13T07:27	10	83	0.2	82	83	452	0.3	452	453	23.2	52.2
2025-08-13T07:28	10	83	0.1	83	83	453	0.3	452	453	23.3	52.7
2025-08-13T07:29	10	84	0.2	83	84	454	0.3	453	455	23.5	52.3
2025-08-13T07:30	10	84	0.1	84	84	455	0.2	455	455	23.6	52.3
2025-08-13T07:31	10	84	0.2	84	85	455	0.3	454	456	23.6	51.3
2025-08-13T07:32	10	85	0.2	85	86	455	0.3	454	456	23.5	50.2
2025-08-13T07:33	10	86	0.1	85	86	456	0.5	455	457	23.6	51.3
2025-08-13T07:34	10	86	0.1	86	86	457	0.3	457	458	23.6	50.9
2025-08-13T07:35	10	86	0.1	86	87	458	0.2	457	458	23.7	50.9
2025-08-13T07:36	10	86	0.2	86	87	458	0.3	457	459	23.8	50.1
2025-08-13T07:37	10	87	0.2	86	87	458	0.2	457	459	23.8	50.0
2025-08-13T07:38	10	87	0.2	87	88	458	0.3	458	459	23.8	49.7
2025-08-13T07:39	10	87	0.2	87	88	459	0.3	458	460	23.9	49.4
2025-08-13T07:40	10	88	0.2	87	88	460	0.3	459	461	24.1	49.0
2025-08-13T07:41	10	88	0.2	87	88	460	0.5	459	461	24.1	49.9
2025-08-13T07:42	10	88	0.2	88	89	460	0.3	459	460	24.0	50.1
2025-08-13T07:43	10	89	0.2	88	89	461	0.2	460	461	24.0	50.5
2025-08-13T07:44	10	89	0.2	88	89	461	0.3	460	461	24.1	50.0
2025-08-13T07:45	10	89	0.2	89	90	461	0.3	461	462	24.3	49.6
2025-08-13T07:46	10	90	0.2	90	90	463	0.3	462	463	24.5	49.7
2025-08-13T07:47	10	91	0.2	90	91	464	0.3	463	464	24.4	49.4
2025-08-13T07:48	10	91	0.3	91	92	464	0.3	463	464	24.2	49.5
2025-08-13T07:49	10	92	0.2	92	92	465	0.2	464	465	24.3	49.3
2025-08-13T07:50	10	93	0.2	92	93	466	0.3	465	466	24.5	49.5
2025-08-13T07:51	10	93	0.1	93	93	467	0.3	466	467	24.6	48.9
2025-08-13T07:52	10	94	0.3	93	94	467	0.2	466	467	24.8	48.2
2025-08-13T07:53	10	94	0.2	94	95	467	0.3	467	468	24.9	48.1
2025-08-13T07:54	10	95	0.2	94	95	468	0.2	467	469	25.0	47.9
2025-08-13T07:55	10	95	0.2	95	95	469	0.2	468	469	25.0	47.7
2025-08-13T07:56	10	96	0.1	95	96	470	0.2	469	470	25.2	47.4
2025-08-13T07:57	10	96	0.2	96	96	471	0.3	470	471	25.2	47.2
2025-08-13T07:58	10	96	0.2	96	97	471	0.3	471	472	25.2	48.7
2025-08-13T07:59	10	97	0.1	96	97	472	0.3	471	473	25.3	47.8
2025-08-13T08:00	10	97	0.2	97	97	472	0.3	472	473	25.0	47.9
2025-08-13T08:01	10	98	0.2	97	98	473	0.3	472	473	25.1	48.5
2025-08-13T08:02	10	98	0.1	98	98	473	0.4	473	474	25.4	48.4
2025-08-13T08:03	10	98	0.1	98	99	474	0.3	473	475	25.7	48.7
2025-08-13T08:04	10	99	0.1	99	99	474	0.4	474	476	25.4	49.2
2025-08-13T08:05	10	99	0.1	99	99	474	0.5	473	475	25.3	49.5
2025-08-13T08:06	10	100	0.2	99	100	474	0.2	474	475	25.3	49.2
2025-08-13T08:07	10	100	0.2	100	100	475	0.3	474	476	25.4	50.0
2025-08-13T08:08	10	100	0.1	100	101	477	0.6	476	478	25.5	50.3
2025-08-13T08:09	10	101	0.1	100	101	477	0.3	477	478	25.6	50.2
2025-08-13T08:10	10	101	0.1	101	101	478	0.3	477	478	25.6	49.1
2025-08-13T08:11	10	101	0.2	101	102	478	0.3	478	479	25.7	48.9
2025-08-13T08:12	10	102	0.2	101	102	479	0.5	478	480	25.8	49.5
2025-08-13T08:13	10	102	0.2	102	103	479	0.4	479	480	26.0	48.4
2025-08-13T08:14	10	102	0.2	102	103	480	0.3	479	480	26.1	49.8
2025-08-13T08:15	10	103	0.2	102	103	481	0.5	480	482	26.1	48.1
2025-08-13T08:16	10	103	0.2	103	104	482	0.4	481	482	26.2	49.2
2025-08-13T08:17	10	104	0.1	104	104	483	0.3	482	483	26.3	47.9
2025-08-13T08:18	10	104	0.1	104	104	480	0.7	480	482	26.1	47.7
2025-08-13T08:19	10	104	0.1	104	104	481	0.3	480	481	25.8	47.9
2025-08-13T08:20	10	105	0.2	104	105	482	0.5	481	483	25.8	47.8
2025-08-13T08:21	10	105	0.1	105	105	482	0.4	482	484	25.9	47.7
2025-08-13T08:22	10	105	0.1	105	106	482	0.3	482	483	25.8	47.4
2025-08-13T08:23	10	106	0.2	105	106	484	0.5	483	485	25.9	47.0
2025-08-13T08:24	10	106	0.1	106	106	485	0.5	484	486	26.0	46.4
2025-08-13T08:25	10	106	0.2	106	106	486	0.5	484	486	26.3	46.5
2025-08-13T08:26	10	107	0.1	106	107	485	0.4	484	485	26.3	46.2
2025-08-13T08:27	10	107	0.2	106	107	485	0.5	485	487	26.1	46.9
2025-08-13T08:28	10	107	0.1	107	107	486	0.4	485	487	26.2	46.6
2025-08-13T08:29	10	107	0.2	107	108	487	0.3	486	487	26.4	45.6
2025-08-13T08:30	10	108	0.2	107	108	487	0.3	487	488	26.6	45.1
2025-08-13T08:31	10	108	0.1	108	109	488	0.7	487	490	26.7	45.0
2025-08-13T08:32	10	109	0.2	108	109	489	0.2	489	490	26.7	44.6
2025-08-13T08:33	10	109	0.2	108	109	488	0.5	487	490	26.6	44.0
2025-08-13T08:34	10	109	0.2	109	110	488	0.4	487	489	26.4	44.1
2025-08-13T08:35	10	109	0.1	109	110	489	0.5	488	491	26.8	44.3
2025-08-13T08:36	10	110	0.1	109	110	488	0.4	487	489	26.5	44.3
2025-08-13T08:37	10	110	0.1	110	110	488	0.4	488	489	26.5	45.3
2025-08-13T08:38	10	110	0.1	110	110	487	0.9	485	489	26.2	45.1
2025-08-13T08:39	10	110	0.2	110	111	488	0.7	486	489	26.0	45.6
2025-08-13T08:40	10	111	0.2	110	111	489	0.5	489	490	26.1	45.7
2025-08-13T08:41	10	111	0.3	111	112	490	0.7	489	492	26.2	45.8
2025-08-13T08:42	10	112	0.2	112	113	492	0.6	491	493	26.8	45.5
2025-08-13T08:43	10	113	0.2	112	113	491	1.0	490	493	26.6	45.1
2025-08-13T08:44	10	113	0.2	113	114	491	0.4	490	492	26.5	44.8
2025-08-13T08:45	10	114	0.1	113	114	491	0.4	490	492	26.3	45.0
2025-08-13T08:46	10	114	0.2	114	114	491	0.4	490	492	26.3	45.0
2025-08-13T08:47	10	115	0.1	114	115	491	0.5	490	492	26.3	44.8
2025-08-13T08:48	10	115	0.1	115	115	493	1.0	492	495	26.6	44.7
2025-08-13T08:49	10	115	0.1	115	116	494	0.3	494	495	26.6	43.6
2025-08-13T08:50	10	116	0.2	115	116	496	1.1	494	497	26.6	43.7
2025-08-13T08:51	10	116	0.1	116	116	496	0.4	496	497	26.8	43.5
2025-08-13T08:52	10	116	0.2	116	116	496	0.6	495	497	26.8	43.3
2025-08-13T08:53	10	117	0.1	116	117	496	0.4	495	496	26.5	43.5
2025-08-13T08:54	10	117	0.1	117	117	496	0.4	495	497	26.5	44.1
2025-08-13T08:55	10	117	0.1	117	117	495	0.5	495	497	26.5	44.5
2025-08-13T08:56	10	117	0.2	117	118	497	0.7	496	499	26.6	44.5
2025-08-13T08:57	10	118	0.1	117	118	495	0.9	494	497	26.4	45.3
2025-08-13T08:58	10	118	0.1	117	118	496	0.4	495	497	26.4	45.8
2025-08-13T08:59	10	118	0.1	118	118	495	0.4	494	496	26.5	45.8
2025-08-13T09:00	10	118	0.2	118	119	497	0.6	495	498	26.6	45.5
2025-08-13T09:01	10	119	0.2	118	119	496	0.9	495	498	26.4	45.3
2025-08-13T09:02	10	119	0.2	119	120	497	1.0	495	499	26.6	45.4
2025-08-13T09:03	10	119	0.2	119	120	495	0.5	494	496	26.4	45.5
2025-08-13T09:04	10	119	0.2	119	120	495	0.5	494	496	26.3	44.8
2025-08-13T09:05	10	120	0.3	119	121	496	0.4	495	497	26.4	45.0
2025-08-13T09:06	10	120	0.2	120	120	498	1.1	496	500	26.5	45.0
2025-08-13T09:07	10	120	0.2	120	121	501	1.2	499	503	26.9	44.8
2025-08-13T09:08	10	121	0.3	120	121	501	0.8	499	502	27.1	44.2
2025-08-13T09:09	10	121	0.2	121	121	499	0.5	498	500	26.6	44.5
2025-08-13T09:10	10	121	0.3	120	122	500	0.6	499	501	26.8	44.4
2025-08-13T09:11	10	121	0.3	121	122	502	1.1	500	504	26.9	44.2
2025-08-13T09:12	10	122	0.3	121	123	503	0.8	501	504	27.1	44.0
2025-08-13T09:13	10	122	0.2	122	123	502	0.4	501	503	27.1	44.0
2025-08-13T09:14	10	123	0.2	122	123	504	0.6	503	505	26.5	42.4
2025-08-13T09:15	10	123	0.2	123	124	502	0.9	500	505	27.1	44.0
2025-08-13T09:16	10	123	0.2	123	124	501	0.5	500	502	27.1	44.0
2025-08-13T09:17	10	123	0.2	123	124	504	0.8	502	505	27.1	44.0
2025-08-13T09:18	10	123	0.2	122	124	504	0.5	503	505	27.1	44.0
2025-08-13T09:19	10	123	0.2	122	123	504	0.4	504	505	27.1	44.0
2025-08-13T09:20	10	123	0.2	123	124	505	0.8	503	506	27.2	43.8
2025-08-13T09:21	10	123	0.2	122	123	503	0.7	502	505	27.1	43.3
2025-08-13T09:22	10	124	0.2	123	124	505	0.9	503	507	27.1	43.3
2025-08-13T09:23	10	124	0.2	123	124	504	0.8	503	505	27.3	42.8
2025-08-13T09:24	10	124	0.2	123	124	503	0.7	502	504	27.2	42.5
2025-08-13T09:25	10	124	0.2	124	125	504	0.6	503	506	27.3	42.7
2025-08-13T09:26	10	125	0.3	124	125	505	0.9	503	507	27.1	42.8
2025-08-13T09:27	10	125	0.3	125	126	507	0.7	506	509	27.4	42.9
2025-08-13T09:28	10	126	0.2	125	126	508	0.6	507	509	27.4	42.9
2025-08-13T09:29	10	126	0.3	125	127	508	0.6	506	509	27.5	42.6
2025-08-13T09:30	10	126	0.2	126	127	506	0.6	505	507	27.3	42.3
2025-08-13T09:31	10	127	0.2	126	127	508	1.0	507	511	27.4	42.3
2025-08-13T09:32	10	127	0.2	126	127	510	0.7	508	511	27.6	41.5
2025-08-13T09:33	10	127	0.2	127	128	509	0.4	508	510	27.5	41.8
2025-08-13T09:34	10	128	0.2	127	128	508	0.7	507	510	27.5	41.9
2025-08-13T09:35	10	128	0.2	127	128	509	1.4	507	511	27.7	41.8
2025-08-13T09:36	10	128	0.2	128	129	510	0.4	509	511	27.6	41.2
2025-08-13T09:37	10	129	0.2	128	129	510	0.4	509	510	27.6	40.7
2025-08-13T09:38	10	129	0.1	129	129	512	0.8	510	513	27.8	41.3
2025-08-13T09:39	10	129	0.1	129	129	514	1.4	512	516	28.2	41.2
2025-08-13T09:40	10	129	0.1	129	129	514	1.2	512	516	28.3	40.7
2025-08-13T09:41	10	129	0.1	129	129	511	1.0	510	513	27.9	40.9
2025-08-13T09:42	10	129	0.1	129	129	512	0.7	510	513	27.8	41.3
2025-08-13T09:43	10	129	0.1	129	129	512	1.1	511	514	27.6	42.0
2025-08-13T09:44	10	129	0.1	129	129	514	1.2	512	516	28.0	40.7
2025-08-13T09:45	10	129	0.1	128	129	513	0.8	512	515	27.8	40.8
2025-08-13T09:46	10	129	0.2	128	129	513	1.8	511	516	28.0	40.0
2025-08-13T09:47	10	129	0.1	129	129	512	1.0	511	514	27.8	40.5
2025-08-13T09:48	10	130	0.2	129	130	512	0.4	512	514	27.8	40.4
2025-08-13T09:49	10	130	0.2	130	131	515	0.8	513	517	28.1	39.8
2025-08-13T09:50	10	131	0.2	131	131	517	0.8	515	518	28.2	38.8
2025-08-13T09:51	10	131	0.2	131	132	517	0.4	516	518	28.2	38.8
2025-08-13T09:52	10	132	0.1	131	132	515	0.6	514	516	28.1	40.2
2025-08-13T09:53	10	132	0.1	132	132	516	1.0	515	518	28.3	40.7
2025-08-13T09:54	10	132	0.1	132	132	516	0.6	514	517	28.0	40.3
2025-08-13T09:55	10	132	0.1	131	132	517	0.9	515	518	28.1	40.5
2025-08-13T09:56	10	131	0.1	131	132	517	0.5	516	518	28.1	39.4
2025-08-13T09:57	10	132	0.2	131	132	518	0.8	517	520	28.2	39.6
2025-08-13T09:58	10	132	0.2	132	132	520	0.5	518	520	28.6	39.6
2025-08-13T09:59	10	132	0.1	132	133	519	0.4	518	520	28.7	39.0
2025-08-13T10:00	10	133	0.3	132	133	520	0.5	519	521	28.7	38.8
2025-08-13T10:01	10	133	0.2	133	134	520	2.2	517	523	28.7	39.0
2025-08-13T10:02	10	134	0.1	133	134	519	0.4	518	519	28.3	39.4
2025-08-13T10:03	10	134	0.1	134	134	521	0.8	519	522	28.5	39.8
2025-08-13T10:04	10	134	0.1	133	134	519	1.7	516	522	28.5	39.7
2025-08-13T10:05	10	134	0.1	133	134	517	0.6	516	519	28.4	39.5
2025-08-13T10:06	10	134	0.2	133	134	520	1.7	518	523	28.7	39.6
2025-08-13T10:07	10	134	0.2	134	134	521	0.8	520	522	28.8	39.1
2025-08-13T10:08	10	134	0.1	134	134	521	0.6	520	522	28.5	39.4
2025-08-13T10:09	10	134	0.2	134	135	522	0.5	521	522	28.5	39.0
2025-08-13T10:10	10	135	0.1	134	135	523	1.5	520	525	28.8	39.1
2025-08-13T10:11	10	135	0.3	134	135	521	0.4	520	521	28.6	39.4
2025-08-13T10:12	10	135	0.1	135	135	521	1.0	520	524	28.5	38.8
2025-08-13T10:13	10	135	0.1	135	135	524	0.4	523	525	28.6	38.8
2025-08-13T10:14	10	135	0.2	135	136	525	0.9	523	526	28.8	39.1
2025-08-13T10:15	10	136	0.2	135	136	527	0.6	525	528	29.3	39.6
2025-08-13T10:16	10	136	0.1	135	136	525	1.2	523	528	29.6	38.5
2025-08-13T10:17	10	136	0.1	136	137	524	0.8	522	525	29.2	38.1
2025-08-13T10:18	10	136	0.1	136	137	525	1.7	522	528	29.2	37.7
2025-08-13T10:19	10	137	0.1	136	137	525	1.3	523	527	29.3	37.2
2025-08-13T10:20	10	137	0.2	136	137	526	0.7	525	527	29.3	36.3
2025-08-13T10:21	10	137	0.1	137	137	526	0.3	525	527	29.2	35.8
2025-08-13T10:22	10	137	0.1	137	138	528	0.9	526	529	29.2	37.3
2025-08-13T10:23	10	138	0.2	137	138	528	0.6	527	529	29.2	36.3
2025-08-13T10:24	10	138	0.1	138	138	528	0.4	527	529	29.1	35.2
2025-08-13T10:25	10	138	0.1	138	138	529	0.5	528	530	29.2	36.9
2025-08-13T10:26	10	138	0.1	138	138	530	0.3	530	531	29.3	39.0
2025-08-13T10:27	10	138	0.2	137	138	529	1.0	528	531	29.4	39.1
2025-08-13T10:28	10	138	0.1	138	138	527	2.1	524	531	29.4	38.1
2025-08-13T10:29	10	138	0.1	138	138	526	0.8	525	528	29.2	38.0
2025-08-13T10:30	10	138	0.1	138	139	529	0.8	527	530	29.1	38.5
2025-08-13T10:31	10	138	0.1	138	139	529	0.5	528	530	29.1	38.0
2025-08-13T10:32	10	138	0.1	138	139	531	0.6	530	532	29.5	37.8
2025-08-13T10:33	10	139	0.2	138	139	531	0.8	530	532	29.3	37.1
2025-08-13T10:34	10	139	0.1	139	139	533	0.4	532	534	29.9	36.9
2025-08-13T10:35	10	139	0.1	139	139	532	0.8	531	534	29.6	36.9
2025-08-13T10:36	10	139	0.1	139	139	531	0.4	530	532	29.5	38.5
2025-08-13T10:37	10	139	0.1	139	139	533	0.6	532	534	30.0	38.5
2025-08-13T10:38	10	139	0.1	139	139	533	0.3	532	534	29.9	38.4
2025-08-13T10:39	10	139	0.1	139	139	534	0.5	531	534	30.0	38.1
2025-08-13T10:40	10	139	0.1	139	139	529	1.0	527	532	29.4	38.0
2025-08-13T10:41	10	139	0.2	139	139	529	0.4	528	530	29.3	39.0
2025-08-13T10:42	10	139	0.2	139	140	532	1.0	530	534	29.4	39.0
2025-08-13T10:43	10	140	0.2	139	140	532	0.5	532	533	29.5	39.0
2025-08-13T10:44	10	140	0.2	139	140	534	0.9	533	536	29.8	39.2
2025-08-13T10:45	10	140	0.1	140	140	535	0.7	534	537	30.1	37.9
2025-08-13T10:46	10	141	0.3	140	141	535	0.2	534	535	30.0	37.3
2025-08-13T10:47	10	141	0.1	141	141	536	0.8	535	537	30.1	37.3
2025-08-13T10:48	10	141	0.1	141	142	535	0.8	534	537	30.1	36.7
2025-08-13T10:49	10	141	0.1	141	142	536	1.0	535	538	30.0	37.0
2025-08-13T10:50	10	141	0.1	141	141	537	1.5	535	539	30.0	37.0
2025-08-13T10:51	10	141	0.1	141	141	534	0.9	533	536	29.9	37.2
2025-08-13T10:52	10	141	0.1	141	141	536	1.2	534	538	30.0	37.1
2025-08-13T10:53	10	141	0.1	141	141	534	2.3	529	536	30.3	35.9
2025-08-13T10:54	10	141	0.1	141	142	532	1.3	530	535	29.7	36.3
2025-08-13T10:55	10	141	0.1	141	142	535	0.6	534	536	30.0	36.5
2025-08-13T10:56	10	141	0.1	141	141	535	0.6	534	536	29.8	37.0
2025-08-13T10:57	10	141	0.1	141	142	536	0.8	534	537	29.9	37.2
2025-08-13T10:58	10	142	0.1	141	142	538	1.0	536	539	30.0	37.0
2025-08-13T10:59	10	142	0.1	141	142	538	1.0	537	540	30.3	36.7
2025-08-13T11:00	10	142	0.1	141	142	536	0.9	535	539	30.1	36.6
2025-08-13T11:01	10	142	0.1	141	142	538	1.3	535	539	30.1	36.6
2025-08-13T11:02	10	142	0.1	141	142	539	0.6	538	540	30.8	35.6
2025-08-13T11:03	10	142	0.1	141	142	539	1.7	535	542	30.7	35.7
2025-08-13T11:04	10	142	0.2	141	142	534	0.9	533	536	30.0	36.4
2025-08-13T11:05	10	141	0.1	141	141	534	1.1	532	536	30.1	36.5
2025-08-13T11:06	10	141	0.1	141	141	537	0.6	535	538	30.3	36.1
2025-08-13T11:07	10	141	0.1	141	141	535	0.9	534	537	30.0	36.2
2025-08-13T11:08	10	141	0.1	141	142	536	1.0	534	538	30.0	36.0
2025-08-13T11:09	10	142	0.1	141	142	537	0.4	536	538	30.1	35.9
2025-08-13T11:10	10	142	0.1	141	142	537	1.0	535	538	30.3	36.0
2025-08-13T11:11	10	142	0.2	141	142	537	1.0	535	539	30.3	35.7
2025-08-13T11:12	10	141	0.2	141	142	536	1.1	534	538	30.5	35.6
2025-08-13T11:13	10	142	0.1	142	142	539	0.8	538	540	30.5	35.3
2025-08-13T11:14	10	142	0.2	142	142	537	1.0	535	539	30.2	35.5
2025-08-13T11:15	10	142	0.1	142	142	539	1.0	536	540	30.2	35.5
2025-08-13T11:16	10	142	0.2	142	142	542	0.9	540	543	30.9	35.6
2025-08-13T11:17	10	142	0.2	142	143	541	1.2	538	543	30.8	35.2
2025-08-13T11:18	10	142	0.2	141	142	541	0.6	540	542	30.7	35.6
2025-08-13T11:19	10	142	0.1	142	142	540	0.6	539	541	30.6	35.9
2025-08-13T11:20	10	142	0.2	142	142	541	0.9	539	543	30.7	36.1
2025-08-13T11:21	10	142	0.1	142	142	540	0.7	539	541	30.5	36.4
2025-08-13T11:22	10	142	0.1	142	142	543	0.8	541	544	30.7	37.0
2025-08-13T11:23	10	142	0.2	142	143	539	0.8	538	541	30.5	36.9
2025-08-13T11:24	10	142	0.2	142	143	542	0.9	540	543	30.9	36.7
2025-08-13T11:25	10	142	0.2	142	143	541	0.7	539	542	30.8	36.1
2025-08-13T11:26	10	142	0.2	142	143	543	0.8	541	545	30.8	37.0
2025-08-13T11:27	10	142	0.3	142	143	540	1.9	538	545	30.9	37.7
2025-08-13T11:28	10	142	0.3	141	143	540	1.0	538	542	30.5	38.2
2025-08-13T11:29	10	142	0.2	142	143	540	1.2	539	543	30.6	38.0
2025-08-13T11:30	10	142	0.3	141	143	541	0.8	540	543	30.4	38.0
2025-08-13T11:31	10	142	0.2	142	143	543	0.5	542	544	31.1	37.1
2025-08-13T11:32	10	142	0.2	142	143	539	2.4	536	544	31.0	36.2
2025-08-13T11:33	10	142	0.2	142	143	540	1.3	538	543	30.8	36.5
2025-08-13T11:34	10	143	0.2	142	143	539	1.2	537	543	30.6	37.0
2025-08-13T11:35	10	143	0.2	142	143	538	1.1	537	541	30.5	37.4
2025-08-13T11:36	10	143	0.2	142	143	541	0.5	540	543	30.5	37.3
2025-08-13T11:37	10	143	0.3	142	143	540	0.6	538	541	30.7	37.3
2025-08-13T11:38	10	143	0.2	142	143	542	0.9	540	543	30.6	37.3
2025-08-13T11:39	10	143	0.2	142	143	541	2.1	538	545	31.0	36.1
2025-08-13T11:40	10	143	0.1	143	144	541	1.4	539	544	30.9	35.8
2025-08-13T11:41	10	143	0.1	143	144	540	1.0	538	541	30.9	35.7
2025-08-13T11:42	10	143	0.2	143	144	545	1.3	542	547	31.2	35.6
2025-08-13T11:43	10	144	0.1	143	144	544	1.4	542	547	31.2	35.5
2025-08-13T11:44	10	143	0.2	143	144	547	0.4	546	548	31.2	35.4
2025-08-13T11:45	10	143	0.1	143	143	546	1.2	544	548	31.1	35.6
2025-08-13T11:46	10	143	0.1	143	144	546	0.9	544	548	31.4	35.6
2025-08-13T11:47	10	143	0.1	143	143	543	0.5	542	544	31.5	35.1
2025-08-13T11:48	10	143	0.1	143	143	542	0.4	542	543	31.5	34.7
2025-08-13T11:49	10	142	0.1	142	143	545	1.5	543	547	31.6	35.0
2025-08-13T11:50	10	142	0.1	142	143	545	0.4	544	545	31.8	34.3
2025-08-13T11:51	10	143	0.1	142	143	547	0.9	545	548	31.6	34.4
2025-08-13T11:52	10	143	0.1	142	143	547	1.4	544	549	31.7	34.4
2025-08-13T11:53	10	142	0.2	142	143	544	1.5	540	546	31.6	34.3
2025-08-13T11:54	10	142	0.1	142	142	544	1.1	541	545	31.3	34.4
2025-08-13T11:55	10	142	0.2	142	142	542	1.0	541	545	31.3	34.3
2025-08-13T11:56	10	142	0.2	142	142	542	0.9	541	544	31.4	34.0
2025-08-13T11:57	10	143	0.3	142	143	546	0.9	544	548	31.6	33.9
2025-08-13T11:58	10	142	0.2	142	143	545	1.2	543	548	31.5	33.7
2025-08-13T11:59	10	142	0.1	142	142	546	0.9	544	548	31.7	33.4
2025-08-13T12:00	10	142	0.1	142	142	545	0.8	544	547	32.0	33.1
2025-08-13T12:01	10	142	0.1	142	142	545	0.8	544	546	31.5	33.4
2025-08-13T12:02	10	142	0.1	142	142	547	0.3	546	548	31.7	33.6
2025-08-13T12:03	10	142	0.2	142	142	548	1.1	545	550	32.1	33.3
2025-08-13T12:04	10	142	0.1	142	143	544	1.1	542	546	31.7	33.8
2025-08-13T12:05	10	142	0.1	142	142	544	0.9	543	546	31.8	33.9
2025-08-13T12:06	10	142	0.1	142	143	544	0.9	543	546	31.9	33.8
2025-08-13T12:07	10	142	0.1	142	142	547	1.1	545	549	32.2	33.4
2025-08-13T12:08	10	142	0.1	142	142	546	1.3	543	548	32.3	33.1
2025-08-13T12:09	10	142	0.2	142	142	547	0.6	545	547	32.0	33.3
2025-08-13T12:10	10	142	0.1	142	143	548	1.0	547	550	32.0	33.7
2025-08-13T12:11	10	142	0.2	142	142	551	0.7	549	552	32.3	33.6
2025-08-13T12:12	10	142	0.2	142	143	548	0.6	547	550	32.4	33.0
2025-08-13T12:13	10	142	0.2	142	143	548	0.7	547	550	32.3	33.3
2025-08-13T12:14	10	142	0.1	142	143	548	0.5	546	549	32.5	33.4
2025-08-13T12:15	10	142	0.2	142	143	548	1.4	546	551	32.5	33.3
2025-08-13T12:16	10	143	0.2	142	143	551	0.6	550	552	32.5	33.5
2025-08-13T12:17	10	143	0.1	142	143	549	2.5	545	552	32.5	33.6
2025-08-13T12:18	10	143	0.2	142	143	548	1.2	546	550	32.3	33.9
2025-08-13T12:19	10	142	0.2	142	143	549	0.7	548	550	32.4	33.8
2025-08-13T12:20	10	142	0.1	142	142	550	0.5	549	552	32.5	33.8
2025-08-13T12:21	10	142	0.2	141	142	552	0.6	550	553	33.0	33.5
2025-08-13T12:22	10	142	0.2	141	142	551	1.1	549	553	33.1	32.8
2025-08-13T12:23	10	142	0.1	142	142	550	0.9	549	552	32.8	32.6
2025-08-13T12:24	10	142	0.1	142	142	552	0.6	551	553	32.6	32.5
2025-08-13T12:25	10	142	0.2	142	142	551	1.4	548	553	33.1	32.5
2025-08-13T12:26	10	142	0.1	142	142	545	1.8	543	549	32.4	33.0
2025-08-13T12:27	10	142	0.1	142	142	547	1.6	545	550	32.1	33.5
2025-08-13T12:28	10	142	0.1	142	142	552	1.6	550	555	32.5	33.5
2025-08-13T12:29	10	142	0.2	141	142	552	2.1	549	555	32.9	33.1
2025-08-13T12:30	10	142	0.2	141	142	551	0.6	550	552	32.9	32.9
2025-08-13T12:31	10	141	0.2	141	142	551	1.8	548	554	32.8	32.5
2025-08-13T12:32	10	141	0.3	141	142	550	0.9	549	552	32.9	32.5
2025-08-13T12:33	10	141	0.2	140	142	550	2.9	546	554	33.1	32.5
2025-08-13T12:34	10	141	0.2	140	141	545	2.3	542	550	32.6	34.2
2025-08-13T12:35	10	140	0.2	140	141	545	1.0	543	547	32.6	34.3
2025-08-13T12:36	10	140	0.2	140	141	545	0.7	544	546	32.8	34.3
2025-08-13T12:37	10	140	0.3	140	141	545	0.7	544	546	32.5	34.7
2025-08-13T12:38	10	140	0.3	140	142	545	0.9	544	547	32.4	35.0
2025-08-13T12:39	10	140	0.3	140	141	549	1.7	547	552	32.6	34.9
2025-08-13T12:40	10	140	0.2	140	141	554	1.0	552	555	32.9	34.7
2025-08-13T12:41	10	140	0.2	140	141	554	0.7	553	555	33.4	34.0
2025-08-13T12:42	10	141	0.1	140	141	552	2.6	549	556	32.9	33.7
2025-08-13T12:43	10	141	0.2	140	141	552	1.3	550	555	32.7	34.3
2025-08-13T12:44	10	140	0.3	140	141	554	1.2	552	556	33.4	33.6
2025-08-13T12:45	10	139	0.2	139	140	553	2.0	548	555	33.6	33.0
2025-08-13T12:46	10	139	0.3	138	139	546	1.3	544	549	32.9	32.9
2025-08-13T12:47	10	138	0.2	138	139	550	1.4	547	551	32.9	33.2
2025-08-13T12:48	10	138	0.2	138	139	551	1.3	548	553	33.1	32.4
2025-08-13T12:49	10	138	0.1	138	138	549	0.8	548	551	32.9	33.0
2025-08-13T12:50	10	137	0.2	137	138	550	0.7	549	551	33.2	33.1
2025-08-13T12:51	10	137	0.2	136	137	546	3.0	543	551	32.8	32.9
2025-08-13T12:52	10	136	0.2	136	136	545	0.6	544	546	32.8	32.9
2025-08-13T12:53	10	136	0.1	136	136	546	1.2	544	548	32.8	32.6
2025-08-13T12:54	10	137	0.2	136	137	547	0.4	546	548	33.2	32.1
2025-08-13T12:55	10	137	0.2	137	137	548	1.0	546	549	33.5	31.7
2025-08-13T12:56	10	136	0.2	136	137	548	0.7	546	549	33.2	32.1
2025-08-13T12:57	10	137	0.3	137	138	545	1.4	544	548	33.2	31.9
2025-08-13T12:58	10	138	0.1	137	138	544	1.3	542	547	32.8	31.9
2025-08-13T12:59	10	137	0.2	137	138	551	2.4	547	555	33.3	32.1
2025-08-13T13:00	10	137	0.1	137	137	554	1.7	550	556	33.8	30.9
2025-08-13T13:01	10	137	0.1	137	137	548	1.3	546	550	33.3	30.8
2025-08-13T13:02	10	137	0.3	136	137	549	1.1	546	550	33.6	30.9
2025-08-13T13:03	10	136	0.1	136	137	552	1.1	550	554	33.6	30.9
2025-08-13T13:04	10	136	0.2	136	137	551	0.9	550	554	33.7	30.7
2025-08-13T13:05	10	136	0.2	136	136	552	0.6	551	553	33.9	30.7
2025-08-13T13:06	10	136	0.2	136	137	551	1.2	549	554	33.9	30.8
2025-08-13T13:07	10	136	0.1	136	136	554	1.0	551	556	34.0	30.2
2025-08-13T13:08	10	136	0.2	136	136	554	0.5	553	556	34.0	29.9
2025-08-13T13:09	10	136	0.2	136	136	553	1.6	551	556	33.9	30.1
2025-08-13T13:10	10	136	0.1	136	137	550	1.2	548	552	33.5	30.3
2025-08-13T13:11	10	136	0.1	136	137	550	0.8	548	551	33.3	30.3
2025-08-13T13:12	10	136	0.3	135	136	548	3.7	543	552	33.3	30.7
2025-08-13T13:13	10	135	0.1	135	135	546	1.2	544	548	33.4	31.1
2025-08-13T13:14	10	135	0.2	135	135	546	0.5	545	548	33.1	31.4
2025-08-13T13:15	10	135	0.1	134	135	551	2.2	546	554	33.5	31.1
2025-08-13T13:16	10	134	0.2	134	135	547	2.1	544	551	33.5	30.5
2025-08-13T13:17	10	134	0.2	133	134	545	1.5	544	549	33.2	31.0
2025-08-13T13:18	10	134	0.1	133	134	547	1.0	546	549	33.3	31.2
2025-08-13T13:19	10	133	0.1	133	134	552	1.5	549	554	33.6	31.1
2025-08-13T13:20	10	133	0.1	133	133	552	1.7	548	555	34.3	29.6
2025-08-13T13:21	10	133	0.1	133	133	548	0.7	546	549	34.2	29.5
2025-08-13T13:22	10	133	0.1	133	134	551	0.9	549	553	33.7	30.6
2025-08-13T13:23	10	133	0.2	133	134	553	1.5	550	555	34.1	30.4
2025-08-13T13:24	10	133	0.2	133	133	551	1.1	549	553	33.7	30.5
2025-08-13T13:25	10	132	0.2	132	133	550	1.0	548	552	33.7	30.9
2025-08-13T13:26	10	132	0.2	131	132	552	1.5	549	554	33.9	30.8
2025-08-13T13:27	10	132	0.2	131	132	552	1.2	550	554	34.5	29.0
2025-08-13T13:28	10	132	0.1	131	132	551	0.8	549	552	34.1	28.9
2025-08-13T13:29	10	132	0.2	132	133	553	0.7	552	554	34.1	29.4
2025-08-13T13:30	10	132	0.1	132	132	554	0.4	553	555	34.4	30.0
2025-08-13T13:31	10	132	0.2	132	133	553	0.9	551	554	34.5	28.7
2025-08-13T13:32	10	132	0.2	131	132	554	0.9	553	556	34.5	29.1
2025-08-13T13:33	10	131	0.2	131	132	555	0.9	554	557	34.6	29.6
2025-08-13T13:34	10	131	0.2	130	131	553	0.7	552	554	34.5	30.0
2025-08-13T13:35	10	131	0.3	130	131	551	2.1	548	554	34.5	30.2
2025-08-13T13:36	10	130	0.3	130	131	549	1.5	547	552	34.0	29.6
2025-08-13T13:37	10	130	0.4	129	130	548	1.6	545	551	34.3	28.3
2025-08-13T13:38	10	129	0.4	128	130	544	0.5	543	546	34.5	24.4
2025-08-13T13:39	10	129	0.2	129	130	545	1.4	543	547	34.5	24.1
2025-08-13T13:40	10	129	0.2	129	130	549	0.5	547	550	34.4	21.8
2025-08-13T13:41	10	129	0.3	129	130	551	0.8	549	553	34.3	23.8
2025-08-13T13:42	10	129	0.3	128	130	550	2.0	547	553	34.0	28.8
2025-08-13T13:43	10	128	0.3	127	129	548	1.1	547	550	34.2	30.3
2025-08-13T13:44	10	128	0.2	127	128	549	0.8	547	550	34.6	29.6
2025-08-13T13:45	10	128	0.2	128	128	548	0.5	547	549	34.2	29.2
2025-08-13T13:46	10	128	0.2	127	128	552	1.6	548	554	34.7	29.4
2025-08-13T13:47	10	128	0.3	128	129	550	1.4	548	553	34.8	23.3
2025-08-13T13:48	10	128	0.3	127	128	552	1.0	550	553	34.5	23.4
2025-08-13T13:49	10	127	0.3	126	128	550	1.4	547	553	34.2	27.8
2025-08-13T13:50	10	126	0.1	126	127	550	1.0	548	551	34.6	29.1
2025-08-13T13:51	10	127	0.1	126	127	548	0.4	547	548	34.8	27.0
2025-08-13T13:52	10	126	0.1	126	127	548	0.5	547	549	34.5	24.4
2025-08-13T13:53	10	126	0.3	125	126	550	0.8	549	553	34.5	25.3
2025-08-13T13:54	10	125	0.1	125	125	550	2.6	547	553	34.7	25.2
2025-08-13T13:55	10	125	0.2	125	126	548	1.3	545	550	34.5	24.6
2025-08-13T13:56	10	126	0.1	125	126	547	1.2	545	549	34.7	24.2
2025-08-13T13:57	10	126	0.1	125	126	550	1.2	548	552	34.8	24.3
2025-08-13T13:58	10	125	0.2	125	126	546	1.1	545	549	34.6	24.1
2025-08-13T13:59	10	125	0.1	125	126	545	1.2	543	547	34.3	24.1
2025-08-13T14:00	10	125	0.2	124	125	547	1.0	545	550	34.3	25.0
2025-08-13T14:01	10	124	0.1	124	124	550	0.4	549	551	34.7	24.5
2025-08-13T14:02	10	124	0.2	123	124	549	0.8	548	550	34.6	24.0
2025-08-13T14:03	10	123	0.1	123	124	548	1.0	547	550	34.5	24.0
2025-08-13T14:04	10	123	0.1	123	123	550	0.4	549	551	34.6	24.1
2025-08-13T14:05	10	123	0.2	122	123	549	0.8	548	551	34.6	24.6
2025-08-13T14:06	10	122	0.1	122	123	549	1.1	547	551	34.9	24.7
2025-08-13T14:07	10	122	0.1	122	122	546	1.1	544	547	35.0	24.1
2025-08-13T14:08	10	122	0.3	121	122	545	1.3	542	546	34.8	23.4
2025-08-13T14:09	10	121	0.1	121	122	543	0.6	542	544	34.6	22.0
2025-08-13T14:10	10	121	0.2	121	122	543	0.5	542	544	34.7	21.9
2025-08-13T14:11	10	121	0.2	120	121	545	1.0	542	546	34.7	21.3
2025-08-13T14:12	10	121	0.2	120	121	544	0.6	542	545	34.8	20.5
2025-08-13T14:13	10	120	0.2	120	121	546	1.2	543	548	34.9	20.3
2025-08-13T14:14	10	120	0.2	119	120	541	0.9	540	543	34.6	19.8
2025-08-13T14:15	10	120	0.1	119	120	542	0.7	541	543	34.4	19.8
2025-08-13T14:16	10	120	0.1	119	120	543	0.5	543	545	34.5	19.9
2025-08-13T14:17	10	120	0.1	119	120	548	1.8	545	551	34.9	20.3
2025-08-13T14:18	10	120	0.2	119	120	548	1.0	545	549	35.0	19.8
2025-08-13T14:19	10	119	0.2	119	120	546	0.3	545	546	34.7	19.6
2025-08-13T14:20	10	119	0.1	119	119	547	0.4	546	548	34.7	19.9
2025-08-13T14:21	10	119	0.1	118	119	546	1.7	544	549	34.9	19.9
2025-08-13T14:22	10	118	0.1	118	119	543	0.6	542	544	34.9	20.0
2025-08-13T14:23	10	118	0.1	118	118	544	1.1	542	546	35.0	20.3
2025-08-13T14:24	10	118	0.1	118	118	541	1.1	540	544	35.1	20.4
2025-08-13T14:25	10	118	0.1	118	118	539	0.8	537	541	35.0	20.3
2025-08-13T14:26	10	118	0.1	117	118	539	0.6	538	541	34.9	20.5
2025-08-13T14:27	10	118	0.1	117	118	540	1.2	539	543	34.9	20.5
2025-08-13T14:28	10	117	0.2	117	118	541	1.0	539	543	35.0	20.5
2025-08-13T14:29	10	117	0.1	117	117	537	0.7	536	539	34.6	20.4
2025-08-13T14:30	10	116	0.3	116	117	537	0.8	535	539	34.6	20.2
2025-08-13T14:31	10	115	0.3	115	116	537	1.3	535	539	34.6	20.6
2025-08-13T14:32	10	115	0.3	114	115	536	0.6	535	537	34.6	20.8
2025-08-13T14:33	10	114	0.2	114	114	537	0.9	536	539	34.7	20.5
2025-08-13T14:34	10	114	0.1	114	115	539	0.6	538	541	34.7	20.5
2025-08-13T14:35	10	115	0.1	114	115	541	1.0	540	543	34.7	20.9
2025-08-13T14:36	10	114	0.1	114	115	540	1.5	538	542	34.8	20.7
2025-08-13T14:37	10	114	0.3	113	114	538	0.8	537	540	34.6	20.5
2025-08-13T14:38	10	113	0.2	113	114	540	0.4	539	541	34.8	20.8
2025-08-13T14:39	10	113	0.2	112	113	540	0.8	538	541	34.9	20.6
2025-08-13T14:40	10	113	0.1	112	113	540	1.0	538	541	34.8	20.4
2025-08-13T14:41	10	112	0.2	112	113	540	0.8	538	541	34.6	20.3
2025-08-13T14:42	10	112	0.2	111	113	541	1.0	539	542	34.8	20.6
2025-08-13T14:43	10	112	0.2	111	112	539	1.5	535	540	34.9	20.9
2025-08-13T14:44	10	112	0.2	111	112	536	0.3	536	537	34.7	20.5
2025-08-13T14:45	10	111	0.2	111	112	537	0.6	535	537	34.7	20.8
2025-08-13T14:46	10	111	0.2	110	111	534	0.6	533	536	34.5	20.5
2025-08-13T14:47	10	111	0.2	110	112	536	0.6	535	537	34.5	20.6
2025-08-13T14:48	10	110	0.1	110	111	535	0.8	534	537	34.6	20.9
2025-08-13T14:49	10	110	0.2	110	110	539	2.0	536	542	34.9	21.1
2025-08-13T14:50	10	110	0.2	110	111	541	0.6	540	542	35.0	21.2
2025-08-13T14:51	10	110	0.2	109	110	537	1.3	535	540	34.8	20.8
2025-08-13T14:52	10	109	0.3	109	111	535	1.2	533	537	34.8	20.8
2025-08-13T14:53	10	109	0.4	108	110	531	1.0	529	534	34.7	20.4
2025-08-13T14:54	10	108	0.3	108	109	531	0.8	529	532	34.5	20.0
2025-08-13T14:55	10	108	0.2	107	108	532	0.6	531	533	34.5	20.0
2025-08-13T14:56	10	107	0.3	107	108	535	0.8	533	537	34.8	20.5
2025-08-13T14:57	10	107	0.3	106	107	534	1.2	532	537	34.8	20.1
2025-08-13T14:58	10	106	0.2	106	107	532	0.4	531	533	34.6	20.2
2025-08-13T14:59	10	106	0.2	105	107	533	1.0	531	535	34.8	20.7
2025-08-13T15:00	10	106	0.3	105	107	534	0.4	533	535	34.7	20.6
2025-08-13T15:01	10	105	0.3	105	106	533	0.6	531	534	34.7	20.9
2025-08-13T15:02	10	105	0.4	104	106	530	0.4	529	531	34.6	21.8
2025-08-13T15:03	10	104	0.2	103	104	532	0.9	530	534	34.7	21.6
2025-08-13T15:04	10	103	0.2	103	104	534	0.6	533	535	34.8	21.5
2025-08-13T15:05	10	103	0.1	103	104	534	1.2	531	535	34.9	22.0
2025-08-13T15:06	10	103	0.1	103	104	532	0.7	531	534	34.9	22.4
2025-08-13T15:07	10	103	0.1	103	104	532	1.0	531	534	35.1	21.9
2025-08-13T15:08	10	103	0.2	102	103	531	0.9	529	532	35.0	21.7
2025-08-13T15:09	10	102	0.2	102	103	528	0.7	527	530	34.8	21.0
2025-08-13T15:10	10	102	0.2	101	102	529	0.5	528	530	34.6	21.5
2025-08-13T15:11	10	101	0.1	101	101	530	0.5	528	531	34.8	21.8
2025-08-13T15:12	10	101	0.2	100	101	530	0.5	529	531	34.8	21.7
2025-08-13T15:13	10	100	0.1	100	100	531	1.0	529	533	34.9	21.9
2025-08-13T15:14	10	100	0.1	100	100	531	0.4	530	532	34.9	21.7
2025-08-13T15:15	10	100	0.1	100	100	530	0.8	528	531	34.9	21.8
2025-08-13T15:16	10	100	0.2	99	100	527	0.6	526	528	34.7	21.2
2025-08-13T15:17	10	99	0.1	99	99	527	1.0	526	529	34.7	21.3
2025-08-13T15:18	10	99	0.2	98	99	526	0.4	525	527	34.6	21.0
2025-08-13T15:19	10	98	0.2	98	99	526	0.4	525	527	34.5	21.3
2025-08-13T15:20	10	98	0.1	98	98	527	0.3	526	528	34.7	21.6
2025-08-13T15:21	10	97	0.1	97	98	527	0.5	526	528	34.7	21.7
2025-08-13T15:22	10	97	0.1	97	97	525	1.3	523	527	34.7	21.5
2025-08-13T15:23	10	96	0.2	96	97	523	0.3	522	524	34.4	21.1
2025-08-13T15:24	10	96	0.1	96	96	524	0.6	523	525	34.4	21.3
2025-08-13T15:25	10	96	0.2	95	96	524	0.3	524	525	34.5	21.4
2025-08-13T15:26	10	95	0.1	95	95	526	0.5	524	526	34.6	21.7
2025-08-13T15:27	10	95	0.1	95	95	527	0.5	526	528	34.9	22.0
2025-08-13T15:28	10	95	0.2	94	95	525	0.7	525	527	34.7	21.0
2025-08-13T15:29	10	94	0.1	94	94	526	0.3	526	527	34.8	21.4
2025-08-13T15:30	10	94	0.1	94	94	524	1.2	522	526	34.9	21.3
2025-08-13T15:31	10	94	0.2	93	94	523	0.5	522	524	34.6	20.6
2025-08-13T15:32	10	93	0.2	93	93	521	0.8	520	523	34.6	20.9
2025-08-13T15:33	10	93	0.1	92	93	521	0.4	520	522	34.7	20.8
2025-08-13T15:34	10	92	0.2	92	93	521	0.5	521	523	34.6	20.6
2025-08-13T15:35	10	92	0.1	92	92	520	0.7	519	522	34.5	20.2
2025-08-13T15:36	10	92	0.1	92	92	522	0.8	520	523	34.6	20.6
2025-08-13T15:37	10	91	0.1	91	92	521	0.7	520	523	34.4	20.4
2025-08-13T15:38	10	91	0.1	91	91	522	0.6	521	523	34.5	20.8
2025-08-13T15:39	10	91	0.2	90	91	521	0.9	519	523	34.6	20.9
2025-08-13T15:40	10	90	0.1	90	90	519	0.8	518	521	34.7	21.2
2025-08-13T15:41	10	90	0.1	89	90	521	0.9	519	523	34.8	21.0
2025-08-13T15:42	10	89	0.1	89	90	520	0.3	520	521	34.6	20.9
2025-08-13T15:43	10	89	0.2	89	89	519	0.6	518	520	34.5	20.8
2025-08-13T15:44	10	89	0.1	88	89	520	0.7	518	521	34.4	20.8
2025-08-13T15:45	10	88	0.2	88	88	520	0.7	519	521	34.5	20.9
2025-08-13T15:46	10	88	0.2	87	88	519	0.8	517	520	34.5	21.1
2025-08-13T15:47	10	87	0.2	87	88	519	0.9	517	520	34.6	21.1
2025-08-13T15:48	10	86	0.3	86	87	518	0.6	516	519	34.5	21.0
2025-08-13T15:49	10	86	0.1	86	86	518	0.4	518	519	34.5	21.4
2025-08-13T15:50	10	85	0.2	85	86	518	0.4	517	519	34.6	21.4
2025-08-13T15:51	10	85	0.2	85	85	517	0.3	517	518	34.5	21.4
2025-08-13T15:52	10	84	0.2	84	85	517	0.6	516	518	34.5	21.0
2025-08-13T15:53	10	84	0.1	84	84	517	0.4	516	518	34.5	21.2
2025-08-13T15:54	10	84	0.1	83	84	517	0.6	516	518	34.5	21.0
2025-08-13T15:55	10	83	0.2	83	83	516	0.3	516	517	34.5	21.3
2025-08-13T15:56	10	82	0.2	82	83	514	1.0	512	516	34.4	21.2
2025-08-13T15:57	10	82	0.2	81	82	513	0.5	512	514	34.3	21.4
2025-08-13T15:58	10	81	0.2	81	82	512	0.3	512	513	34.3	21.5
2025-08-13T15:59	10	81	0.1	80	81	513	0.3	512	514	34.3	22.0
2025-08-13T16:00	10	80	0.2	80	80	512	0.5	511	513	34.2	21.7
2025-08-13T16:01	10	80	0.2	79	80	513	0.6	511	514	34.3	22.1
2025-08-13T16:02	10	79	0.2	79	79	513	0.6	512	514	34.3	22.0
2025-08-13T16:03	10	79	0.1	78	79	513	0.3	512	513	34.3	22.0
2025-08-13T16:04	10	78	0.2	78	78	512	0.2	511	512	34.2	22.0
2025-08-13T16:05	10	78	0.2	77	78	511	0.3	510	512	34.2	22.0
2025-08-13T16:06	10	77	0.1	77	77	512	0.3	511	512	34.3	22.5
2025-08-13T16:07	10	76	0.1	76	77	511	0.3	511	512	34.3	22.6
2025-08-13T16:08	10	76	0.2	76	76	512	0.4	512	513	34.3	22.6
2025-08-13T16:09	10	76	0.1	75	76	511	0.9	509	512	34.2	22.2
2025-08-13T16:10	10	75	0.2	75	76	509	0.2	508	509	34.2	22.5
2025-08-13T16:11	10	75	0.2	74	75	508	0.3	508	509	34.2	22.7
2025-08-13T16:12	10	74	0.1	74	74	509	0.5	508	510	34.2	22.7
2025-08-13T16:13	10	74	0.1	74	74	510	0.3	509	511	34.2	23.1
2025-08-13T16:14	10	74	0.1	73	74	511	0.5	509	511	34.3	23.2
2025-08-13T16:15	10	73	0.1	73	73	511	0.3	510	511	34.3	23.1
2025-08-13T16:16	10	73	0.2	72	73	510	0.5	509	511	34.3	23.5
2025-08-13T16:17	10	72	0.2	72	73	509	0.3	508	509	34.3	22.6
2025-08-13T16:18	10	72	0.1	72	72	507	0.8	506	509	34.2	22.6
2025-08-13T16:19	10	71	0.2	71	72	507	0.4	506	507	34.2	22.6
2025-08-13T16:20	10	71	0.2	71	71	506	0.2	506	507	34.1	22.8
2025-08-13T16:21	10	70	0.2	70	71	506	0.3	506	507	34.1	23.2
2025-08-13T16:22	10	70	0.1	70	70	507	0.7	506	508	34.2	23.4
2025-08-13T16:23	10	69	0.1	69	70	506	0.6	505	508	34.2	23.7
2025-08-13T16:24	10	69	0.1	69	69	506	0.6	505	507	34.1	23.6
2025-08-13T16:25	10	69	0.2	68	69	507	0.2	507	508	34.2	24.0
2025-08-13T16:26	10	68	0.2	68	68	507	0.3	507	508	34.2	23.8
2025-08-13T16:27	10	68	0.2	67	68	506	0.5	505	507	34.1	23.4
2025-08-13T16:28	10	67	0.2	67	67	505	0.3	504	505	34.1	23.3
2025-08-13T16:29	10	66	0.1	66	67	504	0.3	504	505	34.1	23.6
2025-08-13T16:30	10	66	0.2	66	66	505	0.4	504	506	34.1	24.1
2025-08-13T16:31	10	66	0.1	65	66	505	0.5	504	506	34.1	24.1
2025-08-13T16:32	10	65	0.2	65	65	502	0.6	501	504	34.0	23.1
2025-08-13T16:33	10	64	0.2	64	65	502	0.2	501	502	34.0	23.5
2025-08-13T16:34	10	64	0.2	63	64	502	0.2	501	502	34.0	23.2
2025-08-13T16:35	10	63	0.2	63	64	501	0.4	500	502	33.9	23.4
2025-08-13T16:36	10	63	0.2	62	63	500	0.2	500	501	33.9	23.3
2025-08-13T16:37	10	62	0.2	62	62	500	0.3	499	501	33.9	23.7
2025-08-13T16:38	10	61	0.2	61	62	500	0.2	499	501	33.9	23.7
2025-08-13T16:39	10	61	0.2	61	61	500	0.2	500	501	33.9	23.8
2025-08-13T16:40	10	60	0.2	60	61	499	0.3	499	500	33.9	23.7
2025-08-13T16:41	10	60	0.2	59	60	499	0.3	498	500	33.8	23.9
2025-08-13T16:42	10	59	0.2	59	60	498	0.3	498	499	33.8	23.9
2025-08-13T16:43	10	59	0.1	58	59	498	0.2	497	498	33.8	23.8
2025-08-13T16:44	10	58	0.2	58	59	498	0.3	497	498	33.8	23.6
2025-08-13T16:45	10	57	0.2	57	58	497	0.3	496	497	33.8	23.5
2025-08-13T16:46	10	57	0.2	56	57	496	0.2	495	496	33.8	23.6
2025-08-13T16:47	10	56	0.2	56	56	496	0.2	495	496	33.7	23.8
2025-08-13T16:48	10	55	0.2	55	56	496	0.2	496	497	33.7	23.8
2025-08-13T16:49	10	55	0.2	54	55	495	0.2	495	496	33.7	23.7
2025-08-13T16:50	10	54	0.1	54	55	495	0.3	495	496	33.7	23.9
2025-08-13T16:51	10	54	0.2	53	54	494	0.2	494	495	33.7	23.9
2025-08-13T16:52	10	53	0.2	53	53	494	0.2	493	494	33.7	23.9
2025-08-13T16:53	10	53	0.2	52	53	494	0.2	493	494	33.6	24.0
2025-08-13T16:54	10	52	0.2	52	52	493	0.2	493	494	33.6	24.4
2025-08-13T16:55	10	52	0.1	51	52	493	0.2	493	494	33.6	24.3
2025-08-13T16:56	10	51	0.2	51	51	492	0.2	492	493	33.6	24.2
2025-08-13T16:57	10	50	0.2	50	51	492	0.2	492	493	33.5	24.4
2025-08-13T16:58	10	50	0.1	50	50	492	0.1	492	492	33.5	24.1
2025-08-13T16:59	10	49	0.1	49	50	491	0.2	491	492	33.5	24.2
2025-08-13T17:00	10	49	0.1	49	49	491	0.2	490	491	33.5	24.4
2025-08-13T17:01	10	49	0.1	48	49	491	0.2	490	491	33.5	24.8
2025-08-13T17:02	10	48	0.2	48	49	490	0.2	490	491	33.4	24.6
2025-08-13T17:03	10	48	0.2	47	48	490	0.3	490	491	33.5	24.3
2025-08-13T17:04	10	47	0.2	47	48	490	0.2	489	490	33.5	24.6
2025-08-13T17:05	10	47	0.1	46	47	490	0.3	489	490	33.4	24.9
2025-08-13T17:06	10	46	0.2	46	47	489	0.2	488	489	33.4	25.1
2025-08-13T17:07	10	46	0.2	45	46	489	0.3	488	490	33.3	25.4
2025-08-13T17:08	10	45	0.2	45	45	488	0.3	488	489	33.3	25.9
2025-08-13T17:09	10	44	0.2	44	45	488	0.2	487	488	33.3	25.6
2025-08-13T17:10	10	44	0.3	43	44	487	0.3	487	488	33.2	25.4
2025-08-13T17:11	10	43	0.3	42	43	486	0.2	486	487	33.2	25.4
2025-08-13T17:12	10	42	0.3	42	43	486	0.2	486	486	33.2	25.0
2025-08-13T17:13	10	42	0.2	41	42	486	0.3	485	486	33.2	25.4
2025-08-13T17:14	10	41	0.2	41	42	485	0.3	484	486	33.1	25.5
2025-08-13T17:15	10	40	0.2	40	41	484	0.3	484	485	33.1	25.5
2025-08-13T17:16	10	40	0.2	39	40	484	0.3	483	484	33.1	25.3
2025-08-13T17:17	10	39	0.2	39	40	483	0.3	483	484	33.1	25.5
2025-08-13T17:18	10	39	0.2	38	39	483	0.3	482	484	33.0	25.7
2025-08-13T17:19	10	38	0.3	37	38	483	0.3	482	483	33.1	25.0
2025-08-13T17:20	10	37	0.2	37	38	482	0.2	482	482	33.1	25.2
2025-08-13T17:21	10	37	0.2	36	38	482	0.2	481	483	33.1	25.1
2025-08-13T17:22	10	36	0.2	36	37	481	0.3	481	482	33.0	25.4
2025-08-13T17:23	10	36	0.3	35	36	481	0.3	480	481	32.9	25.8
2025-08-13T17:24	10	35	0.2	35	36	480	0.3	479	481	32.8	26.3
2025-08-13T17:25	10	34	0.3	34	35	480	0.2	479	480	32.8	26.4
2025-08-13T17:26	10	34	0.3	33	35	479	0.3	479	480	32.7	26.3
2025-08-13T17:27	10	33	0.4	32	34	479	0.4	478	480	32.8	26.3
2025-08-13T17:28	10	33	0.3	32	33	479	0.3	478	479	32.7	26.3
2025-08-13T17:29	10	32	0.3	31	33	478	0.3	477	479	32.7	26.4
2025-08-13T17:30	10	31	0.3	31	32	478	0.3	477	478	32.7	26.5
2025-08-13T17:31	10	31	0.2	30	31	477	0.3	476	478	32.6	26.6
2025-08-13T17:32	10	30	0.2	30	31	477	0.3	476	477	32.7	26.5
2025-08-13T17:33	10	29	0.2	29	30	476	0.2	476	477	32.7	26.3
2025-08-13T17:34	10	29	0.2	28	29	476	0.4	475	477	32.7	26.3
2025-08-13T17:35	10	28	0.2	28	29	475	0.5	474	476	32.6	26.6
2025-08-13T17:36	10	28	0.2	27	28	475	0.2	474	475	32.5	26.8
2025-08-13T17:37	10	27	0.2	27	27	474	0.2	473	475	32.5	27.0
2025-08-13T17:38	10	26	0.2	26	27	474	0.4	472	474	32.5	26.9
2025-08-13T17:39	10	26	0.2	25	26	474	0.4	473	475	32.5	27.0
2025-08-13T17:40	10	25	0.2	25	25	473	0.4	472	474	32.4	27.4
2025-08-13T17:41	10	24	0.2	24	25	472	0.4	472	473	32.4	26.9
2025-08-13T17:42	10	24	0.2	23	24	473	0.4	472	473	32.4	27.1
2025-08-13T17:43	10	23	0.2	23	24	472	0.3	471	472	32.3	27.4
2025-08-13T17:44	10	23	0.2	22	23	471	0.4	470	472	32.2	27.7
2025-08-13T17:45	10	22	0.2	22	22	470	0.3	469	471	32.2	27.8
2025-08-13T17:46	10	22	0.2	21	22	470	0.3	469	471	32.2	27.7
2025-08-13T17:47	10	21	0.2	21	21	470	0.3	469	470	32.1	27.6
2025-08-13T17:48	10	20	0.2	20	21	469	0.5	468	470	32.2	27.6
2025-08-13T17:49	10	20	0.2	19	20	468	0.3	467	468	32.1	27.8
2025-08-13T17:50	10	19	0.2	19	20	467	0.4	466	468	32.0	28.0
2025-08-13T17:51	10	19	0.2	18	19	467	0.2	466	467	32.0	28.1
2025-08-13T17:52	10	18	0.2	18	18	466	0.3	465	467	31.9	28.1
2025-08-13T17:53	10	18	0.2	17	18	466	0.4	464	466	31.9	28.2
2025-08-13T17:54	10	17	0.2	17	17	465	0.3	464	466	31.8	28.5
2025-08-13T17:55	10	16	0.2	16	17	464	0.2	464	465	31.8	28.5
2025-08-13T17:56	10	16	0.2	16	16	464	0.3	464	465	31.8	28.3
2025-08-13T17:57	10	15	0.2	15	16	463	0.3	463	464	31.8	28.2
2025-08-13T17:58	10	15	0.2	14	15	462	0.3	462	463	31.7	28.4
2025-08-13T17:59	10	14	0.2	14	15	461	0.5	460	462	31.6	28.8
2025-08-13T18:00	10	14	0.2	13	14	460	0.3	459	461	31.6	28.7
2025-08-13T18:01	10	13	0.1	13	13	459	0.3	459	460	31.5	28.9
2025-08-13T18:02	10	12	0.2	12	13	459	0.3	458	459	31.5	28.8
2025-08-13T18:03	10	12	0.2	11	12	458	0.2	457	458	31.5	28.9
2025-08-13T18:04	10	11	0.2	11	12	457	0.4	456	458	31.4	29.0
2025-08-13T18:05	10	11	0.1	11	11	457	0.3	456	457	31.3	29.2
2025-08-13T18:06	10	11	0.2	10	11	456	0.3	455	457	31.3	29.2
2025-08-13T18:07	10	10	0.1	10	10	455	0.3	455	456	31.3	29.1
2025-08-13T18:08	10	10	0.1	9	10	455	0.2	455	455	31.3	29.1
2025-08-13T18:09	10	9	0.2	9	10	455	0.3	454	455	31.3	28.9
2025-08-13T18:10	10	9	0.2	9	9	454	0.2	454	455	31.3	29.1
2025-08-13T18:11	10	8	0.1	8	9	454	0.3	454	455	31.3	29.1
2025-08-13T18:12	10	8	0.1	8	8	454	0.4	453	455	31.3	29.1
2025-08-13T18:13	10	8	0.1	7	8	454	0.3	453	455	31.3	28.9
2025-08-13T18:14	10	7	0.2	7	8	454	0.2	453	454	31.3	28.9
2025-08-13T18:15	10	7	0.1	7	7	453	0.4	452	454	31.4	28.7
2025-08-13T18:16	10	6	0.1	6	7	453	0.3	453	454	31.4	28.8
2025-08-13T18:17	10	6	0.1	6	6	453	0.3	452	453	31.3	28.7
2025-08-13T18:18	10	6	0.1	6	6	453	0.2	452	453	31.4	28.5
2025-08-13T18:19	10	6	0.2	5	6	452	0.4	451	453	31.3	28.9
2025-08-13T18:20	10	5	0.2	5	6	452	0.2	451	452	31.3	28.9
2025-08-13T18:21	10	5	0.2	4	5	452	0.6	451	453	31.2	29.0
2025-08-13T18:22	10	5	0.2	4	5	452	0.3	451	452	31.2	29.1
2025-08-13T18:23	10	4	0.2	4	5	451	0.3	450	452	31.1	29.1
2025-08-13T18:24	10	4	0.3	3	4	451	0.4	450	451	31.1	29.2
2025-08-13T18:25	10	4	0.3	3	4	450	0.4	449	451	31.0	29.5
2025-08-13T18:26	10	3	0.3	2	4	449	0.4	448	450	31.0	29.7
2025-08-13T18:27	10	3	0.2	2	4	447	0.4	447	448	30.8	30.3
2025-08-13T18:28	10	2	0.2	2	3	446	0.5	445	447	30.8	30.2
2025-08-13T18:29	10	2	0.2	1	2	445	0.4	444	446	30.6	30.7
2025-08-13T18:30	10	2	0.2	1	2	444	0.3	443	444	30.5	30.9
2025-08-13T18:31	10	1	0.1	1	2	444	0.3	443	444	30.6	30.5
2025-08-13T18:32	10	1	0.1	1	1	443	0.3	442	444	30.6	30.7
2025-08-13T18:33	10	1	0.1	1	1	442	0.3	442	443	30.5	30.9
2025-08-13T18:34	10	1	0.1	1	1	441	0.6	441	443	30.5	30.9
2025-08-13T18:35	10	1	0.1	1	1	440	0.4	440	441	30.4	31.3
2025-08-13T18:36	10	1	0.1	1	1	440	0.2	439	440	30.3	31.6
2025-08-13T18:37	10	1	0.1	1	1	439	0.3	439	440	30.2	31.6
2025-08-13T18:38	10	1	0.1	1	1	439	0.4	439	440	30.3	31.3
2025-08-13T18:39	10	1	0.1	1	1	439	0.3	438	439	30.3	31.6
2025-08-13T18:40	10	1	0.1	0	1	438	0.5	437	439	30.1	32.0
2025-08-13T18:41	10	1	0.1	0	1	437	0.5	436	439	30.1	32.1
2025-08-13T18:42	10	1	0.1	0	1	437	0.3	436	437	29.8	32.8
2025-08-13T18:43	10	0	0.1	0	1	437	0.5	436	438	30.0	32.0
2025-08-13T18:44	10	0	0.1	0	1	436	0.3	436	437	30.0	32.0
2025-08-13T18:45	10	0	0.1	0	1	436	0.3	435	437	30.0	32.0
2025-08-13T18:46	10	0	0.1	0	1	436	0.4	435	437	29.8	32.7
2025-08-13T18:47	10	0	0.1	0	1	436	0.3	435	437	30.0	31.9
2025-08-13T18:48	10	0	0.1	0	0	436	0.3	436	437	30.0	31.9
2025-08-13T18:49	10	0	0.1	0	0	436	0.5	434	437	30.0	31.9
2025-08-13T18:50	10	0	0.1	0	0	435	0.5	434	436	30.0	31.8
2025-08-13T18:51	10	0	0.1	0	0	436	0.4	435	436	30.0	31.9
2025-08-13T18:52	10	0	0.1	0	0	436	0.3	435	436	30.1	31.3
2025-08-13T18:53	10	0	0.1	0	0	435	0.5	434	436	30.3	31.0
2025-08-13T18:54	10	0	0.1	0	0	435	0.3	434	436	30.0	31.8
2025-08-13T18:55	10	0	0.1	0	1	434	0.3	434	435	30.0	31.8
2025-08-13T18:56	10	0	0.1	0	0	434	0.4	433	435	29.9	31.7
2025-08-13T18:57	10	0	0.2	0	1	432	0.6	431	434	29.7	33.1
2025-08-13T18:58	10	0	0.2	0	1	433	0.4	432	434	28.9	35.8
2025-08-13T18:59	10	0	0.2	0	1	432	0.5	431	433	28.6	36.9
2025-08-13T19:00	10	0	0.2	0	1	430	0.5	429	431	28.5	36.9
2025-08-13T19:01	10	0	0.2	-1	0	430	0.3	429	430	28.3	38.9
2025-08-13T19:02	10	0	0.2	0	1	430	0.2	429	430	28.0	39.9
2025-08-13T19:03	10	0	0.1	0	0	430	0.2	429	430	27.7	40.9
2025-08-13T19:04	10	0	0.2	0	0	429	0.7	428	431	27.7	40.0
2025-08-13T19:05	10	0	0.1	-1	0	430	0.5	429	431	28.3	37.8
2025-08-13T19:06	10	0	0.1	0	0	429	0.3	428	429	27.9	40.2
2025-08-13T19:07	10	0	0.1	0	0	429	0.2	428	429	27.5	41.5
2025-08-13T19:08	10	0	0.1	0	0	428	0.4	428	429	27.5	40.9
2025-08-13T19:09	10	0	0.1	0	0	428	0.3	428	429	27.5	40.8
2025-08-13T19:10	10	0	0.1	0	0	427	0.3	427	428	27.5	41.1
2025-08-13T19:11	10	0	0.1	0	0	427	0.3	426	428	27.5	40.7
2025-08-13T19:12	10	0	0.1	0	0	426	0.4	426	427	27.4	41.7
2025-08-13T19:13	10	0	0.1	0	0	426	0.3	425	426	27.3	42.0
2025-08-13T19:14	10	0	0.1	0	0	426	0.3	425	426	27.4	41.6
2025-08-13T19:15	10	0	0.1	0	0	425	0.3	425	426	27.3	42.3
2025-08-13T19:16	10	0	0.1	0	0	426	0.3	425	426	27.4	41.8
2025-08-13T19:17	10	0	0.1	0	0	425	0.4	425	426	27.2	43.0
2025-08-13T19:18	10	0	0.2	0	0	425	0.2	424	425	27.1	43.8
2025-08-13T19:19	10	0	0.1	0	0	425	0.3	424	426	26.9	44.2
2025-08-13T19:20	10	0	0.2	0	0	425	0.2	424	425	26.9	44.9
2025-08-13T19:21	10	0	0.1	0	0	424	0.2	424	425	26.7	45.6
2025-08-13T19:22	10	0	0.1	0	0	424	0.3	423	424	26.6	46.2
2025-08-13T19:23	10	0	0.1	0	0	423	0.2	423	424	26.5	46.9
2025-08-13T19:24	10	0	0.1	0	0	423	0.3	423	424	26.4	46.8
2025-08-13T19:25	10	0	0.1	0	0	423	0.3	423	424	26.5	46.3
2025-08-13T19:26	10	0	0.1	0	0	424	0.4	423	425	26.5	46.0
2025-08-13T19:27	10	0	0.1	0	0	423	0.3	423	424	26.4	46.8
2025-08-13T19:28	10	0	0.1	0	0	424	0.6	423	425	26.7	44.5
2025-08-13T19:29	10	0	0.1	0	0	424	0.4	424	425	26.8	44.6
2025-08-13T19:30	10	0	0.1	0	0	424	0.3	423	424	26.6	45.4
2025-08-13T19:31	10	0	0.1	0	0	424	0.3	424	425	26.5	44.9
2025-08-13T19:32	10	0	0.1	0	0	425	0.2	424	425	26.8	42.6
2025-08-13T19:33	10	0	0.2	0	1	425	0.3	424	425	27.0	41.6
2025-08-13T19:34	10	0	0.2	0	0	425	0.3	424	426	27.2	40.7
2025-08-13T19:35	10	0	0.2	0	1	425	0.3	424	426	27.3	39.9
2025-08-13T19:36	10	0	0.2	0	1	425	0.3	424	425	27.4	39.9
2025-08-13T19:37	10	0	0.2	0	1	424	0.3	424	425	27.4	39.5
2025-08-13T19:38	10	0	0.1	0	0	424	0.5	423	425	27.4	39.2
2025-08-13T19:39	10	0	0.1	0	0	424	0.4	424	425	27.7	37.9
2025-08-13T19:40	10	0	0.1	0	1	424	0.3	423	424	27.7	38.1
2025-08-13T19:41	10	0	0.1	0	0	424	0.3	423	425	27.9	37.7
2025-08-13T19:42	10	0	0.1	0	0	424	0.3	424	425	28.0	37.6
2025-08-13T19:43	10	0	0.1	0	0	424	0.5	423	425	28.1	37.0
2025-08-13T19:44	10	0	0.1	0	0	424	0.4	423	425	28.1	36.9
2025-08-13T19:45	10	0	0.1	0	0	423	0.6	422	424	28.1	36.8
2025-08-13T19:46	10	0	0.1	0	0	423	0.5	422	424	27.9	37.9
2025-08-13T19:47	10	0	0.1	0	0	423	0.4	422	424	27.7	38.1
2025-08-13T19:48	10	0	0.1	0	0	422	0.4	421	423	27.5	39.3
2025-08-13T19:49	10	0	0.1	0	0	421	0.3	421	422	27.1	41.3
2025-08-13T19:50	10	0	0.1	0	0	420	0.7	419	422	26.9	42.0
2025-08-13T19:51	10	0	0.1	0	0	421	0.3	420	421	26.8	41.8
2025-08-13T19:52	10	0	0.1	0	0	420	0.3	419	421	26.8	41.5
2025-08-13T19:53	10	0	0.1	0	0	420	0.3	419	420	26.7	42.2
2025-08-13T19:54	10	0	0.1	0	0	419	0.3	418	420	26.4	43.5
2025-08-13T19:55	10	0	0.1	0	0	419	0.2	418	419	26.2	44.0
2025-08-13T19:56	10	0	0.1	0	0	418	0.2	418	419	26.0	44.7
2025-08-13T19:57	10	0	0.1	0	0	418	0.2	417	418	25.7	46.1
2025-08-13T19:58	10	0	0.1	0	1	418	0.3	417	418	25.5	45.8
2025-08-13T19:59	10	0	0.1	0	0	418	0.3	417	418	25.6	45.2
2025-08-13T20:00	10	0	0.1	0	0	418	0.5	417	419	25.7	45.1
2025-08-13T20:01	10	0	0.1	0	0	418	0.5	417	419	25.9	44.0
2025-08-13T20:02	10	0	0.1	0	0	418	0.4	418	419	26.0	43.3
2025-08-13T20:03	10	0	0.1	0	0	419	0.3	418	419	26.1	43.3
2025-08-13T20:04	10	0	0.1	0	0	419	0.4	418	420	26.2	43.5
2025-08-13T20:05	10	0	0.1	0	0	419	0.2	419	419	26.5	44.2
2025-08-13T20:06	10	0	0.1	0	0	419	0.2	418	419	26.5	43.6
2025-08-13T20:07	10	0	0.1	0	0	419	0.3	418	419	26.6	44.0
2025-08-13T20:08	10	0	0.1	0	0	419	0.3	418	419	26.6	43.6
2025-08-13T20:09	10	0	0.1	0	0	419	0.2	418	419	26.5	43.9
2025-08-13T20:10	10	0	0.1	0	0	418	0.2	418	419	26.5	43.9
2025-08-13T20:11	10	0	0.1	0	0	418	0.4	417	418	26.5	44.0
2025-08-13T20:12	10	0	0.1	0	0	417	0.3	416	418	26.3	42.8
2025-08-13T20:13	10	0	0.1	0	0	417	0.2	416	417	26.2	43.0
2025-08-13T20:14	10	0	0.1	0	0	417	0.4	416	417	26.2	43.0
2025-08-13T20:15	10	0	0.2	0	0	416	0.4	415	417	26.0	43.7
2025-08-13T20:16	10	0	0.2	0	1	416	0.3	415	416	25.8	44.4
2025-08-13T20:17	10	0	0.2	0	1	415	0.2	415	416	25.6	44.6
2025-08-13T20:18	10	0	0.2	0	0	416	0.3	415	416	25.7	44.2
2025-08-13T20:19	10	0	0.2	0	1	416	0.3	415	416	25.8	44.0
2025-08-13T20:20	10	0	0.3	0	1	416	0.3	415	417	25.9	43.8
2025-08-13T20:21	10	0	0.2	0	0	415	0.4	414	416	26.0	43.5
2025-08-13T20:22	10	0	0.1	0	0	415	0.2	414	415	25.9	43.7
2025-08-13T20:23	10	0	0.2	0	1	415	0.3	414	415	25.7	44.1
2025-08-13T20:24	10	0	0.1	-1	0	415	0.4	415	416	25.8	43.9
2025-08-13T20:25	10	0	0.1	0	0	416	0.3	415	416	25.9	43.7
2025-08-13T20:26	10	0	0.1	0	0	416	0.3	415	417	26.0	43.7
2025-08-13T20:27	10	0	0.1	0	0	416	0.2	416	417	26.1	43.1
2025-08-13T20:28	10	0	0.1	0	0	417	0.4	416	417	26.1	43.1
2025-08-13T20:29	10	0	0.1	0	1	417	0.3	416	417	26.3	42.5
2025-08-13T20:30	10	0	0.1	0	0	417	0.2	416	417	26.2	42.6
2025-08-13T20:31	10	0	0.1	0	0	417	0.3	416	417	26.4	42.9
2025-08-13T20:32	10	0	0.1	0	0	417	0.3	416	417	26.4	42.7
2025-08-13T20:33	10	0	0.1	0	0	416	0.5	415	417	26.4	42.6
2025-08-13T20:34	10	0	0.1	0	0	416	0.4	415	417	26.1	43.2
2025-08-13T20:35	10	0	0.1	0	0	416	0.2	416	417	26.2	43.4
2025-08-13T20:36	10	0	0.1	0	0	416	0.3	416	417	26.2	43.5
2025-08-13T20:37	10	0	0.1	0	0	416	0.4	415	416	26.2	43.7
2025-08-13T20:38	10	0	0.1	0	0	415	0.4	414	415	26.0	43.3
2025-08-13T20:39	10	0	0.1	0	0	415	0.3	415	416	25.8	44.0
2025-08-13T20:40	10	0	0.1	0	0	415	0.4	414	415	25.8	43.9
2025-08-13T20:41	10	0	0.1	0	0	414	0.2	414	415	25.7	44.1
2025-08-13T20:42	10	0	0.1	0	0	414	0.2	414	415	25.6	44.1
2025-08-13T20:43	10	0	0.1	-1	0	414	0.2	414	415	25.6	44.1
2025-08-13T20:44	10	0	0.1	0	0	415	0.2	414	415	25.7	44.3
2025-08-13T20:45	10	0	0.1	0	0	415	0.2	414	415	25.8	44.4
2025-08-13T20:46	10	0	0.1	0	0	414	0.2	414	415	25.8	44.3
2025-08-13T20:47	10	0	0.1	0	0	414	0.2	414	415	25.7	44.3
2025-08-13T20:48	10	0	0.1	0	0	414	0.2	414	415	25.6	44.3
2025-08-13T20:49	10	0	0.1	0	0	414	0.2	413	414	25.6	44.7
2025-08-13T20:50	10	0	0.1	0	0	414	0.3	414	415	25.5	45.3
2025-08-13T20:51	10	0	0.1	0	0	415	0.2	414	415	25.6	45.6
2025-08-13T20:52	10	0	0.1	0	0	414	0.2	414	415	25.6	45.3
2025-08-13T20:53	10	0	0.1	0	0	414	0.3	413	415	25.5	45.6
2025-08-13T20:54	10	0	0.1	0	0	414	0.2	414	415	25.3	45.9
2025-08-13T20:55	10	0	0.1	0	0	414	0.2	414	415	25.4	45.8
2025-08-13T20:56	10	0	0.1	0	0	414	0.2	413	414	25.3	45.6
2025-08-13T20:57	10	0	0.1	0	0	414	0.3	414	415	25.3	45.7
2025-08-13T20:58	10	0	0.1	0	0	414	0.2	414	415	25.3	45.7
2025-08-13T20:59	10	0	0.1	0	0	414	0.2	414	415	25.4	45.7
2025-08-13T21:00	10	0	0.1	0	0	414	0.3	413	415	25.3	45.4
2025-08-13T21:01	10	0	0.1	0	0	414	0.3	413	414	25.2	45.7
2025-08-13T21:02	10	0	0.1	0	0	414	0.3	413	414	25.1	46.1
2025-08-13T21:03	10	0	0.1	0	0	414	0.3	413	414	25.1	46.0
2025-08-13T21:04	10	0	0.1	0	0	413	0.4	412	414	25.0	46.3
2025-08-13T21:05	10	0	0.1	0	0	413	0.3	413	414	25.0	46.4
2025-08-13T21:06	10	0	0.1	0	0	413	0.2	413	414	25.1	46.4
2025-08-13T21:07	10	0	0.1	0	0	413	0.2	412	413	25.1	46.3
2025-08-13T21:08	10	0	0.1	0	0	412	0.2	412	413	25.0	46.5
2025-08-13T21:09	10	0	0.1	0	0	413	0.2	412	413	24.9	46.9
2025-08-13T21:10	10	0	0.1	0	0	413	0.3	412	413	24.7	46.1
2025-08-13T21:11	10	0	0.1	0	0	413	0.2	412	414	24.7	46.1
2025-08-13T21:12	10	0	0.1	0	0	413	0.2	412	413	24.9	46.9
2025-08-13T21:13	10	0	0.1	0	0	412	0.2	412	413	25.0	46.9
2025-08-13T21:14	10	0	0.2	0	0	412	0.2	412	413	24.7	46.1
2025-08-13T21:15	10	0	0.1	0	0	411	0.3	411	412	25.0	46.9
2025-08-13T21:16	10	0	0.2	0	1	412	0.4	411	413	25.0	46.9
2025-08-13T21:17	10	0	0.2	0	1	412	0.3	411	412	25.0	46.9
2025-08-13T21:18	10	0	0.2	0	0	412	0.4	411	413	24.7	47.7
2025-08-13T21:19	10	0	0.2	0	1	413	0.6	411	414	24.4	48.7
2025-08-13T21:20	10	0	0.2	0	1	413	0.4	412	414	24.7	48.2
2025-08-13T21:21	10	0	0.2	0	1	413	0.2	412	413	24.8	48.1
2025-08-13T21:22	10	0	0.2	0	1	413	0.3	413	414	24.9	48.0
2025-08-13T21:23	10	0	0.2	0	0	413	0.3	413	414	25.0	47.7
2025-08-13T21:24	10	0	0.2	0	1	413	0.4	412	414	25.0	47.9
2025-08-13T21:25	10	0	0.2	0	1	413	0.3	413	414	24.9	48.4
2025-08-13T21:26	10	0	0.2	0	1	413	0.2	413	414	24.8	49.2
2025-08-13T21:27	10	0	0.1	0	1	413	0.4	413	414	24.8	49.1
2025-08-13T21:28	10	0	0.2	0	1	413	0.3	413	414	24.7	49.2
2025-08-13T21:29	10	0	0.1	0	0	413	0.2	413	414	24.8	48.8
2025-08-13T21:30	10	0	0.1	0	0	414	0.5	412	415	24.8	48.7
2025-08-13T21:31	10	0	0.1	0	0	414	0.4	413	415	25.0	48.1
2025-08-13T21:32	10	0	0.1	0	0	414	0.2	414	415	25.0	48.3
2025-08-13T21:33	10	0	0.1	0	0	414	0.2	413	414	24.8	48.8
2025-08-13T21:34	10	0	0.1	0	0	414	0.3	413	415	24.8	48.9
2025-08-13T21:35	10	0	0.1	0	0	415	0.3	414	415	24.8	48.9
2025-08-13T21:36	10	0	0.1	0	0	415	0.2	414	415	24.9	48.3
2025-08-13T21:37	10	0	0.1	0	0	415	0.3	414	415	24.9	48.4
2025-08-13T21:38	10	0	0.1	0	0	415	0.2	415	415	24.8	48.6
2025-08-13T21:39	10	0	0.1	0	0	415	0.3	414	416	24.6	49.1
2025-08-13T21:40	10	0	0.1	0	0	414	0.3	414	415	24.4	49.7
2025-08-13T21:41	10	0	0.1	0	0	414	0.3	414	415	24.1	50.6
2025-08-13T21:42	10	0	0.1	0	0	415	0.3	414	416	24.0	50.1
2025-08-13T21:43	10	0	0.1	0	0	415	0.4	415	416	23.9	50.2
2025-08-13T21:44	10	0	0.1	0	0	416	0.6	415	417	23.8	50.7
2025-08-13T21:45	10	0	0.1	0	0	417	0.3	416	417	23.9	50.3
2025-08-13T21:46	10	0	0.1	0	0	417	0.2	416	417	23.9	50.0
2025-08-13T21:47	10	0	0.1	0	0	416	0.3	415	417	23.7	50.9
2025-08-13T21:48	10	0	0.1	0	0	416	0.4	415	417	23.4	52.2
2025-08-13T21:49	10	0	0.1	0	0	417	0.4	417	418	23.5	51.7
2025-08-13T21:50	10	0	0.1	0	0	418	0.5	417	419	23.4	52.5
2025-08-13T21:51	10	0	0.1	0	0	420	0.5	419	420	23.7	51.4
2025-08-13T21:52	10	0	0.1	0	0	421	0.5	419	421	23.8	51.5
2025-08-13T21:53	10	0	0.1	0	0	421	0.4	420	422	23.9	51.1
2025-08-13T21:54	10	0	0.1	0	0	422	0.6	421	423	23.9	51.2
2025-08-13T21:55	10	0	0.1	0	0	422	0.4	421	423	23.8	52.0
2025-08-13T21:56	10	0	0.1	0	0	423	0.3	422	424	23.8	52.0
2025-08-13T21:57	10	0	0.1	0	0	423	0.5	422	425	23.8	51.9
2025-08-13T21:58	10	0	0.1	0	0	424	0.3	424	425	24.0	51.4
2025-08-13T21:59	10	0	0.1	0	0	424	0.3	423	425	23.9	51.9
2025-08-13T22:00	10	0	0.1	0	1	425	0.4	424	426	24.0	51.6
2025-08-13T22:01	10	0	0.1	0	0	425	0.3	424	425	24.1	51.3
2025-08-13T22:02	10	0	0.1	0	1	425	0.3	424	425	24.2	51.0
2025-08-13T22:03	10	0	0.1	0	0	424	0.4	424	425	24.2	51.0
2025-08-13T22:04	10	0	0.1	0	0	424	0.2	423	425	24.1	51.3
2025-08-13T22:05	10	0	0.1	0	0	424	0.3	423	424	24.1	51.5
2025-08-13T22:06	10	0	0.1	0	1	424	0.3	423	424	24.1	51.5
2025-08-13T22:07	10	0	0.1	0	1	423	0.2	423	424	24.0	51.9
2025-08-13T22:08	10	0	0.1	0	1	424	0.4	422	424	24.0	51.8
2025-08-13T22:09	10	0	0.1	0	1	424	0.4	424	425	24.1	51.6
2025-08-13T22:10	10	0	0.1	0	0	425	0.6	424	427	24.2	51.1
2025-08-13T22:11	10	0	0.1	0	1	426	0.6	425	428	24.5	50.1
2025-08-13T22:12	10	0	0.1	0	0	427	0.6	426	428	24.7	49.5
2025-08-13T22:13	10	0	0.1	0	1	427	0.3	426	428	24.5	50.0
2025-08-13T22:14	10	0	0.1	0	1	427	0.3	427	428	24.8	49.0
2025-08-13T22:15	10	0	0.1	0	1	427	0.5	427	429	24.6	49.8
2025-08-13T22:16	10	0	0.1	0	1	428	0.3	427	428	24.6	49.8
2025-08-13T22:17	10	0	0.1	0	1	428	0.2	428	429	24.6	49.9
2025-08-13T22:18	10	0	0.1	0	1	429	0.3	428	429	24.6	49.8
2025-08-13T22:19	10	0	0.1	0	1	429	0.3	428	429	24.5	50.5
2025-08-13T22:20	10	0	0.1	0	1	430	0.8	429	431	24.7	49.5
2025-08-13T22:21	10	0	0.1	0	1	431	0.4	430	432	24.9	48.9
2025-08-13T22:22	10	0	0.1	0	1	432	0.9	430	435	25.1	47.9
2025-08-13T22:23	10	0	0.1	0	1	434	0.7	433	436	25.8	45.6
2025-08-13T22:24	10	1	0.1	0	1	435	0.5	434	436	25.9	45.2
2025-08-13T22:25	10	1	0.1	1	1	435	0.6	434	436	25.9	45.3
2025-08-13T22:26	10	1	0.1	1	1	436	0.4	435	437	26.0	44.8
2025-08-13T22:27	10	1	0.1	1	1	437	0.3	436	438	26.5	43.3
2025-08-13T22:28	10	1	0.1	1	1	436	0.6	435	438	26.5	43.4
2025-08-13T22:29	10	1	0.1	1	1	436	0.3	436	437	26.4	43.6
2025-08-13T22:30	10	1	0.1	1	1	438	0.4	437	439	26.7	42.6
2025-08-13T22:31	10	1	0.1	1	1	439	0.4	437	439	26.9	42.2
2025-08-13T22:32	10	1	0.1	1	1	438	0.4	437	439	26.7	42.8
2025-08-13T22:33	10	1	0.1	1	1	439	0.6	438	440	26.9	42.2
2025-08-13T22:34	10	1	0.1	1	1	440	0.3	440	441	27.2	41.5
2025-08-13T22:35	10	1	0.1	1	1	440	0.5	439	441	27.1	41.4
2025-08-13T22:36	10	1	0.1	1	1	440	0.5	439	441	27.1	41.5
2025-08-13T22:37	10	1	0.1	1	1	439	0.4	438	440	26.9	42.0
2025-08-13T22:38	10	1	0.1	1	1	439	0.5	438	440	26.9	42.2
2025-08-13T22:39	10	1	0.1	0	1	439	0.7	438	440	26.9	42.0
2025-08-13T22:40	10	1	0.1	0	1	440	0.4	439	441	27.0	42.0
2025-08-13T22:41	10	1	0.1	0	1	439	0.4	439	441	26.8	42.3
2025-08-13T22:42	10	1	0.1	0	1	440	0.2	439	440	26.9	42.3
2025-08-13T22:43	10	0	0.1	0	1	439	0.3	438	440	26.9	42.4
2025-08-13T22:44	10	0	0.1	0	1	440	0.3	439	441	27.0	42.1
2025-08-13T22:45	10	0	0.1	0	1	441	0.3	441	442	27.1	42.0
2025-08-13T22:46	10	0	0.1	0	1	442	0.3	441	443	27.1	42.0
2025-08-13T22:47	10	0	0.1	0	1	442	0.4	442	443	27.1	42.1
2025-08-13T22:48	10	0	0.1	0	1	443	0.3	442	443	27.2	42.1
2025-08-13T22:49	10	0	0.1	0	1	443	0.4	442	444	27.1	42.3
2025-08-13T22:50	10	0	0.1	0	1	442	0.6	440	443	27.1	42.5
2025-08-13T22:51	10	0	0.1	0	1	441	0.2	441	442	26.9	43.0
2025-08-13T22:52	10	0	0.1	0	1	442	0.3	441	443	27.0	43.0
2025-08-13T22:53	10	0	0.1	0	1	443	0.4	442	443	27.0	43.4
2025-08-13T22:54	10	0	0.1	0	0	442	0.3	442	443	26.9	43.7
2025-08-13T22:55	10	0	0.1	0	0	442	0.3	442	443	26.9	43.8
2025-08-13T22:56	10	0	0.1	0	0	442	0.3	441	442	26.8	43.9
2025-08-13T22:57	10	0	0.1	0	0	442	0.3	442	443	26.9	43.8
2025-08-13T22:58	10	0	0.1	0	0	442	0.4	441	443	26.9	43.9
2025-08-13T22:59	10	0	0.1	0	0	441	0.4	440	442	26.8	44.3
2025-08-13T23:00	10	0	0.1	0	0	442	0.2	441	442	26.8	44.3
2025-08-13T23:01	10	0	0.1	0	1	442	0.2	441	442	26.8	44.6
2025-08-13T23:02	10	0	0.1	0	0	442	0.5	441	443	26.8	44.7
2025-08-13T23:03	10	0	0.1	0	0	442	0.3	441	443	26.8	44.8
2025-08-13T23:04	10	0	0.1	0	0	441	0.4	440	442	26.6	45.2
2025-08-13T23:05	10	0	0.1	0	1	441	0.2	440	441	26.6	45.5
2025-08-13T23:06	10	0	0.1	0	1	441	0.3	441	442	26.5	45.8
2025-08-13T23:07	10	0	0.1	0	0	442	0.3	441	442	26.5	46.2
2025-08-13T23:08	10	0	0.1	0	0	441	0.3	440	442	26.4	46.5
2025-08-13T23:09	10	0	0.1	0	0	440	0.3	439	441	26.3	46.8
2025-08-13T23:10	10	0	0.1	0	0	440	0.5	439	441	26.3	47.2
2025-08-13T23:11	10	0	0.1	0	0	441	0.4	440	442	26.3	47.3
2025-08-13T23:12	10	0	0.1	0	0	440	0.2	440	441	26.2	47.6
2025-08-13T23:13	10	0	0.1	0	0	440	0.4	439	441	26.1	48.0
2025-08-13T23:14	10	0	0.1	0	0	440	0.3	440	441	26.1	48.2
2025-08-13T23:15	10	0	0.1	0	0	440	0.4	440	441	26.1	48.5
2025-08-13T23:16	10	0	0.1	0	0	440	0.3	440	441	26.1	48.6
2025-08-13T23:17	10	0	0.1	0	0	440	0.4	439	441	26.0	49.0
2025-08-13T23:18	10	0	0.1	0	0	439	0.4	438	440	25.9	49.3
2025-08-13T23:19	10	0	0.1	0	0	440	0.4	439	440	25.9	49.4
2025-08-13T23:20	10	0	0.1	0	0	440	0.2	439	440	26.0	49.5
2025-08-13T23:21	10	0	0.1	0	0	440	0.3	439	440	25.9	49.8
2025-08-13T23:22	10	0	0.1	0	0	440	0.3	439	441	25.9	49.6
2025-08-13T23:23	10	0	0.1	0	0	440	0.3	440	441	25.9	49.6
2025-08-13T23:24	10	0	0.1	0	0	440	0.3	440	441	25.9	49.7
2025-08-13T23:25	10	0	0.1	0	0	440	0.3	439	440	25.8	50.2
2025-08-13T23:26	10	0	0.1	0	0	439	0.2	438	440	25.8	50.5
2025-08-13T23:27	10	0	0.1	0	0	439	0.2	438	439	25.8	50.4
2025-08-13T23:28	10	0	0.1	0	0	439	0.2	438	439	25.8	50.4
2025-08-13T23:29	10	0	0.1	0	0	438	0.3	438	439	25.7	50.5
2025-08-13T23:30	10	0	0.1	0	0	439	0.4	438	439	25.8	50.5
2025-08-13T23:31	10	0	0.1	0	0	439	0.3	438	439	25.8	50.5
2025-08-13T23:32	10	0	0.1	0	1	438	0.4	437	439	25.7	50.9
2025-08-13T23:33	10	0	0.1	0	0	438	0.4	437	438	25.6	51.2
2025-08-13T23:34	10	0	0.1	0	0	437	0.3	437	438	25.6	51.4
2025-08-13T23:35	10	0	0.1	0	0	437	0.2	436	437	25.5	51.7
2025-08-13T23:36	10	0	0.1	0	0	437	0.2	436	437	25.5	51.9
2025-08-13T23:37	10	0	0.1	0	0	437	0.3	436	437	25.5	51.9
2025-08-13T23:38	10	0	0.1	0	0	437	0.4	436	438	25.5	52.0
2025-08-13T23:39	10	0	0.1	0	0	436	0.2	435	436	25.4	52.4
2025-08-13T23:40	10	0	0.1	0	0	435	0.4	434	436	25.3	52.6
2025-08-13T23:41	10	0	0.1	0	0	435	0.3	434	436	25.3	52.7
2025-08-13T23:42	10	0	0.1	0	0	435	0.3	435	436	25.4	52.3
2025-08-13T23:43	10	0	0.1	0	0	435	0.3	435	436	25.4	52.4
2025-08-13T23:44	10	0	0.1	0	0	435	0.2	434	436	25.4	52.3
2025-08-13T23:45	10	0	0.1	0	0	435	0.3	434	435	25.4	52.5
2025-08-13T23:46	10	0	0.1	0	0	435	0.3	434	436	25.4	52.3
2025-08-13T23:47	10	0	0.1	0	0	435	0.2	434	435	25.4	52.3
2025-08-13T23:48	10	0	0.1	0	0	435	0.2	434	435	25.4	52.5
2025-08-13T23:49	10	0	0.1	0	0	435	0.3	434	435	25.4	52.3
2025-08-13T23:50	10	0	0.1	0	0	435	0.3	434	435	25.4	52.2
2025-08-13T23:51	10	0	0.1	0	0	435	0.3	434	435	25.3	52.5
2025-08-13T23:52	10	0	0.1	0	0	434	0.3	433	435	25.3	52.6
2025-08-13T23:53	10	0	0.1	0	1	434	0.3	433	434	25.3	52.7
2025-08-13T23:54	10	0	0.1	0	1	433	0.3	433	434	25.3	52.8
2025-08-13T23:55	10	0	0.1	0	0	433	0.2	432	433	25.2	53.0
2025-08-13T23:56	10	0	0.1	0	0	433	0.2	432	434	25.2	52.9
2025-08-13T23:57	10	0	0.1	0	0	433	0.4	432	434	25.2	52.8
2025-08-13T23:58	10	0	0.1	0	1	434	0.5	433	435	25.3	52.7
2025-08-13T23:59	10	0	0.1	0	1	434	0.2	434	435	25.3	52.5
2025-08-14T00:00	10	0	0.1	0	0	434	0.3	433	435	25.3	52.8
2025-08-14T00:01	10	0	0.1	0	0	434	0.2	433	434	25.3	52.7
2025-08-14T00:02	10	0	0.1	0	0	433	0.3	432	433	25.1	53.3
2025-08-14T00:03	10	0	0.1	0	1	433	0.2	432	433	25.1	53.1
2025-08-14T00:04	10	0	0.1	0	0	433	0.3	432	433	25.1	53.1
2025-08-14T00:05	10	0	0.1	0	0	433	0.2	432	433	25.1	53.0
2025-08-14T00:06	10	0	0.1	0	0	433	0.3	432	433	25.1	52.9
2025-08-14T00:07	10	0	0.1	0	0	433	0.2	432	433	25.1	52.7
2025-08-14T00:08	10	0	0.1	0	0	433	0.3	432	433	25.1	52.3
2025-08-14T00:09	10	0	0.1	0	0	432	0.2	432	433	25.1	52.3
2025-08-14T00:10	10	0	0.1	0	0	432	0.2	432	433	25.1	52.5
2025-08-14T00:11	10	0	0.1	0	0	432	0.3	432	433	25.1	52.3
2025-08-14T00:12	10	0	0.1	0	0	433	0.7	432	434	25.1	52.1
2025-08-14T00:13	10	0	0.1	0	1	433	0.3	433	434	25.1	52.0
2025-08-14T00:14	10	0	0.1	0	0	433	0.4	432	433	25.1	51.9
2025-08-14T00:15	10	0	0.1	0	1	433	0.3	432	433	25.1	51.7
2025-08-14T00:16	10	0	0.1	0	0	432	0.3	431	433	25.1	51.9
2025-08-14T00:17	10	0	0.1	0	0	433	0.3	432	433	25.1	51.8
2025-08-14T00:18	10	0	0.1	0	0	432	0.2	431	432	25.0	52.0
2025-08-14T00:19	10	0	0.0	0	0	432	0.2	431	432	25.0	52.0
2025-08-14T00:20	10	0	0.1	0	0	431	0.5	430	432	24.9	52.3
2025-08-14T00:21	10	0	0.0	0	0	430	0.3	430	431	24.9	52.4
2025-08-14T00:22	10	0	0.1	0	0	431	0.2	430	431	24.9	52.3
2025-08-14T00:23	10	0	0.1	0	0	431	0.2	430	431	24.9	52.2
2025-08-14T00:24	10	0	0.1	0	0	431	0.4	430	432	24.9	52.1
2025-08-14T00:25	10	0	0.1	0	0	431	0.3	430	432	24.9	52.3
2025-08-14T00:26	10	0	0.1	0	0	431	0.3	430	432	24.9	52.1
2025-08-14T00:27	10	0	0.1	0	0	432	0.4	431	432	24.9	51.9
2025-08-14T00:28	10	0	0.1	0	0	432	0.2	431	432	24.9	52.0
2025-08-14T00:29	10	0	0.1	0	0	431	0.3	431	432	24.8	52.3
2025-08-14T00:30	10	0	0.1	0	1	431	0.2	430	431	24.8	52.6
2025-08-14T00:31	10	0	0.1	0	0	431	0.3	430	431	24.8	52.7
2025-08-14T00:32	10	0	0.1	0	0	431	0.3	430	432	24.8	52.9
2025-08-14T00:33	10	0	0.1	0	0	431	0.4	431	432	24.7	53.5
2025-08-14T00:34	10	0	0.1	0	0	431	0.3	430	431	24.7	54.0
2025-08-14T00:35	10	0	0.1	0	0	431	0.3	430	431	24.6	54.5
2025-08-14T00:36	10	0	0.1	0	0	431	0.5	430	432	24.6	54.7
2025-08-14T00:37	10	0	0.1	0	0	431	0.2	431	431	24.6	54.7
2025-08-14T00:38	10	0	0.1	0	0	430	0.3	430	431	24.6	55.2
2025-08-14T00:39	10	0	0.1	0	0	430	0.2	430	431	24.5	55.7
2025-08-14T00:40	10	0	0.1	0	0	430	0.5	429	431	24.5	56.1
2025-08-14T00:41	10	0	0.0	0	0	430	0.4	429	431	24.4	56.5
2025-08-14T00:42	10	0	0.1	0	0	430	0.3	430	431	24.4	56.5
2025-08-14T00:43	10	0	0.1	0	0	430	0.2	430	431	24.4	56.5
2025-08-14T00:44	10	0	0.1	0	0	430	0.3	429	431	24.4	56.6
2025-08-14T00:45	10	0	0.1	0	0	430	0.3	430	431	24.4	56.5
2025-08-14T00:46	10	0	0.1	0	0	430	0.3	430	431	24.3	56.8
2025-08-14T00:47	10	0	0.1	0	0	430	0.2	429	430	24.3	56.9
2025-08-14T00:48	10	0	0.0	0	0	430	0.3	429	430	24.3	57.0
2025-08-14T00:49	10	0	0.1	0	0	430	0.2	429	430	24.3	57.3
2025-08-14T00:50	10	0	0.0	0	0	429	0.4	429	430	24.2	57.6
2025-08-14T00:51	10	0	0.0	0	0	429	0.2	428	429	24.1	57.9
2025-08-14T00:52	10	0	0.0	0	0	429	0.3	428	430	24.1	57.9
2025-08-14T00:53	10	0	0.0	0	0	428	0.3	427	429	24.0	58.3
2025-08-14T00:54	10	0	0.0	0	0	428	0.2	427	429	24.0	58.5
2025-08-14T00:55	10	0	0.1	0	0	428	0.3	427	428	24.0	58.6
2025-08-14T00:56	10	0	0.0	0	0	428	0.5	427	429	24.0	58.5
2025-08-14T00:57	10	0	0.1	0	1	428	0.3	427	428	24.0	58.2
2025-08-14T00:58	10	0	0.1	0	0	428	0.3	427	428	24.0	58.2
2025-08-14T00:59	10	0	0.1	0	0	428	0.3	427	428	24.0	58.2
2025-08-14T01:00	10	0	0.0	0	0	428	0.3	428	429	24.0	58.3
2025-08-14T01:01	10	0	0.1	0	0	428	0.2	428	429	24.0	58.5
2025-08-14T01:02	10	0	0.0	0	0	428	0.3	427	428	23.9	58.6
2025-08-14T01:03	10	0	0.0	0	0	428	0.3	427	429	24.0	58.5
2025-08-14T01:04	10	0	0.0	0	0	429	0.4	428	430	24.0	58.2
2025-08-14T01:05	10	0	0.1	0	0	428	0.2	428	429	24.0	58.4
2025-08-14T01:06	10	0	0.1	0	0	428	0.2	428	428	23.9	58.4
2025-08-14T01:07	10	0	0.1	0	0	428	0.3	427	429	23.9	58.5
2025-08-14T01:08	10	0	0.1	0	1	428	0.3	427	428	23.9	58.4
2025-08-14T01:09	10	0	0.1	0	0	427	0.2	427	428	23.9	58.5
2025-08-14T01:10	10	0	0.1	0	0	427	0.2	427	428	23.9	58.3
2025-08-14T01:11	10	0	0.1	0	0	427	0.3	427	428	23.9	58.2
2025-08-14T01:12	10	0	0.1	0	0	428	0.2	427	428	24.0	58.0
2025-08-14T01:13	10	0	0.1	0	0	427	0.2	427	428	23.9	58.3
2025-08-14T01:14	10	0	0.1	0	0	428	0.3	427	428	23.9	57.9
2025-08-14T01:15	10	0	0.1	0	0	427	0.2	427	428	24.0	57.7
2025-08-14T01:16	10	0	0.1	0	1	427	0.3	427	428	23.9	58.0
2025-08-14T01:17	10	0	0.1	0	0	428	0.3	427	429	23.9	57.9
2025-08-14T01:18	10	0	0.1	0	0	427	0.2	427	428	23.9	58.0
2025-08-14T01:19	10	0	0.1	0	0	427	0.2	427	428	23.9	57.8
2025-08-14T01:20	10	0	0.1	0	0	428	0.2	427	428	23.9	57.8
2025-08-14T01:21	10	0	0.1	0	0	428	0.2	427	428	24.0	57.6
2025-08-14T01:22	10	0	0.1	0	0	428	0.2	427	428	24.0	57.6
2025-08-14T01:23	10	0	0.1	0	0	428	0.3	427	428	24.0	57.5
2025-08-14T01:24	10	0	0.1	0	1	428	0.3	427	429	23.9	57.7
2025-08-14T01:25	10	0	0.1	0	1	428	0.3	427	428	23.9	57.5
2025-08-14T01:26	10	0	0.1	0	1	427	0.2	427	428	24.0	57.4
2025-08-14T01:27	10	0	0.1	0	1	426	0.3	426	427	23.9	57.6
2025-08-14T01:28	10	0	0.1	0	0	426	0.2	426	427	23.9	57.6
2025-08-14T01:29	10	0	0.2	0	1	426	0.3	426	427	23.9	57.7
2025-08-14T01:30	10	0	0.1	0	0	426	0.3	426	427	23.9	57.6
2025-08-14T01:31	10	0	0.1	0	0	426	0.2	426	427	23.9	57.7
2025-08-14T01:32	10	0	0.2	0	1	426	0.3	425	427	23.8	57.9
2025-08-14T01:33	10	0	0.2	0	1	426	0.3	425	427	23.8	57.7
2025-08-14T01:34	10	0	0.2	0	1	426	0.4	425	427	23.9	57.4
2025-08-14T01:35	10	0	0.2	0	1	426	0.3	425	426	23.9	57.3
2025-08-14T01:36	10	0	0.2	0	1	425	0.3	424	426	23.8	57.5
2025-08-14T01:37	10	0	0.2	0	1	425	0.2	425	426	23.9	57.4
2025-08-14T01:38	10	0	0.2	0	1	425	0.3	425	426	23.9	57.2
2025-08-14T01:39	10	0	0.2	0	1	425	0.3	425	426	23.9	57.3
2025-08-14T01:40	10	0	0.1	0	1	425	0.3	424	425	23.8	57.7
2025-08-14T01:41	10	0	0.2	0	1	426	0.4	425	426	23.7	57.7
2025-08-14T01:42	10	0	0.2	0	1	425	0.3	424	426	23.7	57.8
2025-08-14T01:43	10	0	0.2	0	1	426	0.2	425	426	23.8	57.5
2025-08-14T01:44	10	0	0.2	0	1	426	0.3	425	426	23.8	57.5
2025-08-14T01:45	10	0	0.1	0	1	425	0.4	424	426	23.8	57.2
2025-08-14T01:46	10	0	0.2	0	1	426	0.3	425	427	23.9	56.9
2025-08-14T01:47	10	0	0.2	0	1	426	0.3	425	426	23.9	56.9
2025-08-14T01:48	10	0	0.1	0	1	425	0.2	425	426	23.8	57.2
2025-08-14T01:49	10	0	0.1	0	1	426	0.3	425	426	23.8	57.1
2025-08-14T01:50	10	0	0.2	0	1	426	0.4	425	427	23.8	57.1
2025-08-14T01:51	10	0	0.3	0	1	426	0.3	425	427	23.8	57.4
2025-08-14T01:52	10	0	0.2	0	1	426	0.4	425	427	23.8	57.1
2025-08-14T01:53	10	0	0.2	0	1	426	0.3	425	426	23.8	57.3
2025-08-14T01:54	10	0	0.2	0	1	426	0.4	425	427	23.8	57.0
2025-08-14T01:55	10	0	0.2	0	1	426	0.4	425	427	23.8	57.3
2025-08-14T01:56	10	0	0.2	0	1	425	0.3	425	426	23.7	57.5
2025-08-14T01:57	10	0	0.2	0	1	425	0.3	425	426	23.8	57.4
2025-08-14T01:58	10	0	0.2	0	1	425	0.4	424	426	23.8	57.3
2025-08-14T01:59	10	0	0.2	0	1	425	0.4	424	426	23.8	57.3
2025-08-14T02:00	10	0	0.2	0	1	425	0.2	424	426	23.8	57.5
2025-08-14T02:01	10	0	0.2	0	1	424	0.5	423	424	23.7	57.8
2025-08-14T02:02	10	0	0.1	0	1	423	0.3	422	423	23.5	58.6
2025-08-14T02:03	10	0	0.1	0	1	422	0.2	422	423	23.5	58.5
2025-08-14T02:04	10	0	0.1	0	1	422	0.2	422	423	23.5	58.5
2025-08-14T02:05	10	0	0.2	0	1	423	0.2	422	423	23.6	58.0
2025-08-14T02:06	10	0	0.2	0	1	423	0.3	422	424	23.6	58.2
2025-08-14T02:07	10	0	0.1	0	1	422	0.2	422	423	23.5	58.4
2025-08-14T02:08	10	0	0.1	0	1	422	0.3	422	423	23.6	57.9
2025-08-14T02:09	10	0	0.1	0	1	422	0.3	422	423	23.6	57.6
2025-08-14T02:10	10	0	0.1	0	1	422	0.3	421	423	23.6	57.5
2025-08-14T02:11	10	0	0.1	0	0	422	0.4	421	423	23.6	57.3
2025-08-14T02:12	10	0	0.1	0	1	422	0.2	422	423	23.6	57.0
2025-08-14T02:13	10	0	0.1	0	0	422	0.3	421	423	23.7	56.8
2025-08-14T02:14	10	0	0.0	0	0	423	0.6	422	424	23.8	56.0
2025-08-14T02:15	10	0	0.1	0	0	423	0.2	423	424	24.0	55.0
2025-08-14T02:16	10	0	0.1	0	0	423	0.2	423	424	23.9	55.7
2025-08-14T02:17	10	0	0.1	0	1	423	0.4	423	424	23.8	56.1
2025-08-14T02:18	10	0	0.1	0	1	423	0.4	423	424	23.8	56.1
2025-08-14T02:19	10	0	0.1	0	1	423	0.3	422	424	23.7	56.6
2025-08-14T02:20	10	0	0.1	0	0	422	0.3	422	423	23.5	57.2
2025-08-14T02:21	10	0	0.1	0	0	422	0.3	422	423	23.4	57.8
2025-08-14T02:22	10	0	0.1	0	0	422	0.3	422	423	23.4	57.9
2025-08-14T02:23	10	0	0.0	0	0	423	0.2	422	423	23.4	57.8
2025-08-14T02:24	10	0	0.1	0	0	422	0.2	422	423	23.4	57.7
2025-08-14T02:25	10	0	0.1	0	0	421	0.3	421	422	23.4	57.8
2025-08-14T02:26	10	0	0.0	0	0	421	0.3	421	422	23.4	57.8
2025-08-14T02:27	10	0	0.1	0	0	421	0.2	420	421	23.4	57.6
2025-08-14T02:28	10	0	0.0	0	0	421	0.3	420	422	23.4	57.9
2025-08-14T02:29	10	0	0.0	0	0	421	0.2	421	422	23.3	58.4
2025-08-14T02:30	10	0	0.1	0	0	421	0.2	421	422	23.2	59.4
2025-08-14T02:31	10	0	0.0	0	0	421	0.2	420	421	23.0	61.2
2025-08-14T02:32	10	0	0.1	0	0	421	0.2	420	421	22.8	62.7
2025-08-14T02:33	10	0	0.1	0	0	421	0.3	420	421	22.7	63.7
2025-08-14T02:34	10	0	0.1	0	0	420	0.3	419	421	22.6	64.2
2025-08-14T02:35	10	0	0.1	0	0	420	0.2	420	420	22.5	64.8
2025-08-14T02:36	10	0	0.1	0	0	420	0.2	419	420	22.4	65.5
2025-08-14T02:37	10	0	0.1	0	0	420	0.3	419	420	22.3	66.4
2025-08-14T02:38	10	0	0.1	0	0	420	0.2	419	420	22.2	67.0
2025-08-14T02:39	10	0	0.1	0	0	419	0.2	419	420	22.1	67.7
2025-08-14T02:40	10	0	0.1	0	0	419	0.3	419	420	22.1	68.1
2025-08-14T02:41	10	0	0.1	0	0	419	0.2	419	420	22.0	68.4
2025-08-14T02:42	10	0	0.1	0	0	419	0.2	418	419	22.0	68.7
2025-08-14T02:43	10	0	0.1	0	0	419	0.3	418	419	22.0	68.9
2025-08-14T02:44	10	0	0.1	0	0	419	0.2	418	419	21.9	69.0
2025-08-14T02:45	10	0	0.1	0	0	419	0.3	418	420	21.9	69.2
2025-08-14T02:46	10	0	0.1	0	0	418	0.2	418	419	21.9	69.2
2025-08-14T02:47	10	0	0.1	0	0	418	0.3	417	419	21.9	69.4
2025-08-14T02:48	10	0	0.1	0	0	418	0.2	418	419	21.9	69.3
2025-08-14T02:49	10	0	0.1	0	0	418	0.2	418	419	21.9	69.0
2025-08-14T02:50	10	0	0.1	0	0	418	0.2	417	419	21.9	69.1
2025-08-14T02:51	10	0	0.1	0	0	418	0.2	418	419	22.0	68.6
2025-08-14T02:52	10	0	0.0	0	0	418	0.3	417	418	22.0	68.5
2025-08-14T02:53	10	0	0.0	0	0	418	0.2	417	418	22.0	68.0
2025-08-14T02:54	10	0	0.1	0	0	418	0.2	418	418	22.1	67.8
2025-08-14T02:55	10	0	0.1	0	0	418	0.3	417	418	22.0	68.0
2025-08-14T02:56	10	0	0.0	0	0	418	0.2	417	418	22.0	67.8
2025-08-14T02:57	10	0	0.1	0	0	418	0.3	417	418	22.1	67.1
2025-08-14T02:58	10	0	0.1	0	0	418	0.2	418	419	22.2	66.1
2025-08-14T02:59	10	0	0.1	0	0	418	0.2	417	419	22.3	65.8
2025-08-14T03:00	10	0	0.1	0	0	418	0.3	418	419	22.4	64.3
2025-08-14T03:01	10	0	0.1	0	0	419	0.2	419	419	22.5	63.5
2025-08-14T03:02	10	0	0.1	0	0	419	0.3	419	420	22.6	62.8
2025-08-14T03:03	10	0	0.1	0	0	420	0.2	419	420	22.6	62.2
2025-08-14T03:04	10	0	0.1	0	0	420	0.3	420	421	22.9	61.0
2025-08-14T03:05	10	0	0.1	0	1	421	0.3	420	421	22.9	61.0
2025-08-14T03:06	10	0	0.1	0	0	421	0.4	420	421	22.9	60.9
2025-08-14T03:07	10	0	0.1	0	0	421	0.3	420	421	22.9	60.7
2025-08-14T03:08	10	0	0.1	0	0	421	0.3	420	422	23.0	60.5
2025-08-14T03:09	10	0	0.1	0	0	420	0.4	419	421	22.9	61.0
2025-08-14T03:10	10	0	0.1	0	1	419	0.4	419	420	22.8	61.7
2025-08-14T03:11	10	0	0.1	0	0	419	0.3	419	420	22.7	62.2
2025-08-14T03:12	10	0	0.1	0	0	419	0.3	419	420	22.8	61.7
2025-08-14T03:13	10	0	0.1	0	0	419	0.2	419	420	22.8	61.6
2025-08-14T03:14	10	0	0.1	0	0	419	0.3	418	420	22.8	61.5
2025-08-14T03:15	10	0	0.1	0	1	419	0.3	418	419	22.8	61.7
2025-08-14T03:16	10	0	0.1	0	0	418	0.4	417	419	22.8	61.9
2025-08-14T03:17	10	0	0.1	0	0	417	0.3	417	418	22.7	62.1
2025-08-14T03:18	10	0	0.1	0	0	417	0.3	417	418	22.8	61.3
2025-08-14T03:19	10	0	0.1	0	1	417	0.4	416	418	22.8	61.2
2025-08-14T03:20	10	0	0.1	0	0	416	0.4	415	417	22.8	61.4
2025-08-14T03:21	10	0	0.1	0	0	415	0.2	414	416	22.8	61.4
2025-08-14T03:22	10	0	0.1	0	0	415	0.4	414	416	22.7	61.9
2025-08-14T03:23	10	0	0.1	0	0	414	0.5	413	415	22.4	63.8
2025-08-14T03:24	10	0	0.1	0	0	412	0.5	412	413	22.3	64.5
2025-08-14T03:25	10	0	0.1	0	0	412	0.7	411	414	22.3	64.7
2025-08-14T03:26	10	0	0.1	0	0	413	0.4	412	413	22.3	63.9
2025-08-14T03:27	10	0	0.1	0	0	411	0.4	410	412	22.4	63.7
2025-08-14T03:28	10	0	0.1	0	0	410	0.3	409	411	22.3	63.9
2025-08-14T03:29	10	0	0.1	0	0	410	0.4	409	410	22.4	63.7
2025-08-14T03:30	10	0	0.1	0	0	409	0.2	409	410	22.3	63.7
2025-08-14T03:31	10	0	0.1	0	0	408	0.3	407	409	22.3	64.1
2025-08-14T03:32	10	0	0.1	0	0	407	0.3	406	408	22.2	64.5
2025-08-14T03:33	10	0	0.1	0	0	407	0.2	407	408	22.2	64.4
2025-08-14T03:34	10	0	0.1	0	0	408	0.3	407	409	22.2	64.6
2025-08-14T03:35	10	0	0.1	0	0	408	0.3	408	409	22.1	65.5
2025-08-14T03:36	10	0	0.1	0	0	408	0.3	407	409	22.0	66.1
2025-08-14T03:37	10	0	0.1	0	0	407	0.3	407	408	21.9	66.6
2025-08-14T03:38	10	0	0.1	0	0	407	0.2	406	407	21.9	66.6
2025-08-14T03:39	10	0	0.1	0	0	408	0.4	407	409	21.9	66.7
2025-08-14T03:40	10	0	0.1	0	0	408	0.3	407	408	21.8	67.0
2025-08-14T03:41	10	0	0.1	0	0	407	0.3	406	408	21.7	67.4
2025-08-14T03:42	10	0	0.1	0	0	407	0.2	406	407	21.6	67.8
2025-08-14T03:43	10	0	0.1	0	0	406	0.2	406	407	21.5	68.8
2025-08-14T03:44	10	0	0.1	0	0	407	0.4	406	407	21.4	68.9
2025-08-14T03:45	10	0	0.1	0	0	407	0.4	407	408	21.6	67.2
2025-08-14T03:46	10	0	0.1	0	0	407	0.3	406	408	21.9	65.5
2025-08-14T03:47	10	0	0.1	0	0	406	0.3	405	407	22.0	65.2
2025-08-14T03:48	10	0	0.1	0	0	406	0.3	405	406	22.1	65.2
2025-08-14T03:49	10	0	0.1	0	0	405	0.3	405	406	22.0	65.6
2025-08-14T03:50	10	0	0.1	0	0	405	0.2	404	405	22.0	65.4
2025-08-14T03:51	10	0	0.1	0	0	405	0.3	404	406	22.1	64.7
2025-08-14T03:52	10	0	0.1	0	0	406	0.3	405	406	22.2	64.4
2025-08-14T03:53	10	0	0.1	0	0	406	0.2	405	406	22.2	64.6
2025-08-14T03:54	10	0	0.1	0	0	406	0.2	405	407	22.1	65.0
2025-08-14T03:55	10	0	0.0	0	0	406	0.3	405	406	22.1	65.3
2025-08-14T03:56	10	0	0.1	0	0	405	0.3	405	406	22.0	65.7
2025-08-14T03:57	10	0	0.0	0	0	406	0.3	405	406	22.0	65.5
2025-08-14T03:58	10	0	0.1	0	0	405	0.4	404	406	21.8	66.6
2025-08-14T03:59	10	0	0.1	0	0	405	0.2	405	406	21.7	67.1
2025-08-14T04:00	10	0	0.1	0	0	405	0.3	404	405	21.6	67.3
2025-08-14T04:01	10	0	0.1	0	0	404	0.3	404	405	21.6	67.6
2025-08-14T04:02	10	0	0.1	0	0	404	0.3	403	404	21.5	68.1
2025-08-14T04:03	10	0	0.0	0	0	404	0.2	403	404	21.4	68.7
2025-08-14T04:04	10	0	0.1	0	0	404	0.2	403	404	21.3	68.9
2025-08-14T04:05	10	0	0.1	0	0	404	0.2	403	404	21.3	69.4
2025-08-14T04:06	10	0	0.1	0	0	403	0.3	402	404	21.1	70.2
2025-08-14T04:07	10	0	0.1	0	0	403	0.2	402	403	21.2	69.8
2025-08-14T04:08	10	0	0.1	0	0	403	0.2	402	403	21.2	70.1
2025-08-14T04:09	10	0	0.1	0	0	402	0.4	402	403	21.2	69.9
2025-08-14T04:10	10	0	0.1	0	0	403	0.3	402	404	21.4	68.0
2025-08-14T04:11	10	0	0.1	0	0	403	0.3	402	404	21.7	65.8
2025-08-14T04:12	10	0	0.1	0	0	402	0.3	402	403	21.6	67.5
2025-08-14T04:13	10	0	0.1	0	0	401	0.6	400	403	21.4	68.5
2025-08-14T04:14	10	0	0.1	0	0	401	0.2	401	402	21.3	68.7
2025-08-14T04:15	10	0	0.1	0	0	401	0.3	401	402	21.3	68.5
2025-08-14T04:16	10	0	0.1	0	0	401	0.3	401	402	21.4	67.3
2025-08-14T04:17	10	0	0.1	0	0	401	0.2	401	402	21.5	66.7
2025-08-14T04:18	10	0	0.1	0	0	401	0.2	400	401	21.6	66.1
2025-08-14T04:19	10	0	0.1	0	0	401	0.3	401	402	21.7	65.3
2025-08-14T04:20	10	0	0.1	0	0	401	0.3	400	401	21.9	64.5
2025-08-14T04:21	10	0	0.1	0	1	401	0.3	400	401	22.0	63.9
2025-08-14T04:22	10	1	0.1	0	1	401	0.3	400	401	22.0	63.9
2025-08-14T04:23	10	1	0.1	0	1	401	0.3	400	402	22.0	63.6
2025-08-14T04:24	10	1	0.1	0	1	402	0.9	400	404	22.2	62.4
2025-08-14T04:25	10	1	0.1	1	1	405	1.2	404	408	22.6	60.1
2025-08-14T04:26	10	1	0.1	1	1	408	0.4	407	409	22.7	59.8
2025-08-14T04:27	10	1	0.1	1	1	408	0.5	407	409	22.7	59.9
2025-08-14T04:28	10	1	0.1	1	1	405	1.4	403	408	22.4	61.5
2025-08-14T04:29	10	1	0.1	1	2	403	1.0	401	405	21.8	64.8
2025-08-14T04:30	10	1	0.1	1	2	403	0.5	402	404	21.6	66.0
2025-08-14T04:31	10	1	0.1	1	2	403	0.3	402	404	21.8	64.6
2025-08-14T04:32	10	1	0.1	1	2	402	0.3	402	403	21.8	64.5
2025-08-14T04:33	10	2	0.1	1	2	402	0.3	401	402	21.8	64.8
2025-08-14T04:34	10	2	0.1	1	2	402	0.2	401	402	21.7	64.8
2025-08-14T04:35	10	2	0.1	2	2	402	0.2	401	402	21.8	64.7
2025-08-14T04:36	10	2	0.1	2	2	402	0.2	401	402	21.8	64.6
2025-08-14T04:37	10	2	0.1	2	2	401	0.2	401	402	21.7	64.8
2025-08-14T04:38	10	3	0.1	2	3	401	0.2	401	402	21.7	64.9
2025-08-14T04:39	10	3	0.1	3	3	401	0.2	401	402	21.7	65.0
2025-08-14T04:40	10	3	0.1	3	3	402	0.2	401	402	21.6	65.3
2025-08-14T04:41	10	3	0.1	3	3	402	0.3	402	403	21.6	65.6
2025-08-14T04:42	10	3	0.1	3	4	403	0.3	402	404	21.5	66.0
2025-08-14T04:43	10	4	0.1	3	4	404	0.3	403	404	21.6	65.3
2025-08-14T04:44	10	4	0.2	3	4	404	0.3	404	405	21.7	65.0
2025-08-14T04:45	10	4	0.1	4	5	405	0.6	404	406	21.5	66.1
2025-08-14T04:46	10	4	0.2	4	5	406	0.4	406	407	21.5	65.7
2025-08-14T04:47	10	5	0.2	4	5	406	0.3	406	407	21.7	65.2
2025-08-14T04:48	10	5	0.2	4	5	407	0.3	406	407	21.5	65.8
2025-08-14T04:49	10	5	0.3	5	6	406	0.3	406	407	21.1	67.6
2025-08-14T04:50	10	5	0.2	5	6	406	0.4	405	407	21.0	68.2
2025-08-14T04:51	10	6	0.1	5	6	406	0.4	405	406	21.0	68.3
2025-08-14T04:52	10	6	0.2	6	6	406	0.5	405	407	21.1	67.9
2025-08-14T04:53	10	6	0.2	6	7	407	0.4	406	408	21.2	67.5
2025-08-14T04:54	10	6	0.2	6	7	408	0.4	406	408	21.4	66.4
2025-08-14T04:55	10	7	0.2	6	7	408	0.5	407	409	21.4	66.8
2025-08-14T04:56	10	7	0.2	7	8	406	0.5	406	408	21.2	68.0
2025-08-14T04:57	10	8	0.1	7	8	405	0.3	405	406	21.0	69.1
2025-08-14T04:58	10	8	0.1	8	8	405	0.2	404	405	20.8	69.9
2025-08-14T04:59	10	8	0.1	8	8	405	0.4	404	406	20.7	70.3
2025-08-14T05:00	10	9	0.3	8	9	406	0.2	405	406	20.7	70.3
2025-08-14T05:01	10	9	0.2	8	9	406	0.3	405	406	20.7	70.6
2025-08-14T05:02	10	9	0.2	9	10	406	0.3	405	407	20.9	68.9
2025-08-14T05:03	10	9	0.2	9	10	406	0.2	405	406	21.0	69.6
2025-08-14T05:04	10	10	0.2	9	10	405	0.2	405	406	20.8	70.7
2025-08-14T05:05	10	10	0.1	10	11	406	0.2	405	406	20.7	71.0
2025-08-14T05:06	10	11	0.1	10	11	406	0.3	405	406	20.8	70.3
2025-08-14T05:07	10	11	0.1	11	11	406	0.3	406	406	20.8	70.3
2025-08-14T05:08	10	11	0.1	11	12	406	0.3	406	407	20.9	69.8
2025-08-14T05:09	10	12	0.1	12	12	406	0.2	406	407	20.9	69.6
2025-08-14T05:10	10	12	0.1	12	13	406	0.2	406	407	20.9	70.3
2025-08-14T05:11	10	13	0.1	12	13	406	0.2	406	407	20.8	70.8
2025-08-14T05:12	10	13	0.1	13	13	406	0.3	405	407	20.8	71.0
2025-08-14T05:13	10	14	0.2	13	14	407	0.2	406	407	20.8	70.8
2025-08-14T05:14	10	14	0.1	14	14	406	0.3	406	407	20.6	72.4
2025-08-14T05:15	10	15	0.2	14	15	407	0.4	406	408	20.2	75.5
2025-08-14T05:16	10	15	0.2	15	15	407	0.2	407	408	20.0	78.1
2025-08-14T05:17	10	16	0.2	15	16	408	0.3	407	408	19.9	78.8
2025-08-14T05:18	10	16	0.1	16	16	408	0.2	407	408	19.8	79.2
2025-08-14T05:19	10	16	0.2	16	17	408	0.2	407	408	19.8	79.3
2025-08-14T05:20	10	17	0.2	16	17	408	0.2	408	409	19.8	79.6
2025-08-14T05:21	10	17	0.2	17	18	408	0.3	408	409	19.8	79.8
2025-08-14T05:22	10	18	0.2	17	18	408	0.3	408	409	19.8	79.9
2025-08-14T05:23	10	18	0.2	18	19	409	0.3	408	409	19.8	79.8
2025-08-14T05:24	10	19	0.2	18	19	409	0.2	408	409	19.8	79.6
2025-08-14T05:25	10	19	0.2	19	20	409	0.3	408	410	19.9	79.4
2025-08-14T05:26	10	20	0.2	19	20	409	0.3	409	410	19.9	78.6
2025-08-14T05:27	10	20	0.2	20	21	410	0.3	409	411	20.0	78.6
2025-08-14T05:28	10	21	0.2	20	21	410	0.2	410	411	20.0	78.6
2025-08-14T05:29	10	21	0.2	21	22	410	0.3	410	411	20.0	78.6
2025-08-14T05:30	10	22	0.2	21	22	411	0.3	410	411	20.1	78.3
2025-08-14T05:31	10	22	0.2	22	23	411	0.2	410	412	20.1	78.1
2025-08-14T05:32	10	23	0.2	22	23	411	0.3	411	412	20.2	77.9
2025-08-14T05:33	10	24	0.2	23	24	412	0.3	411	412	20.3	77.2
2025-08-14T05:34	10	24	0.2	24	24	412	0.2	411	412	20.5	76.4
2025-08-14T05:35	10	25	0.2	24	25	412	0.2	412	413	20.5	76.2
2025-08-14T05:36	10	25	0.3	25	26	413	0.2	412	413	20.5	76.6
2025-08-14T05:37	10	26	0.2	25	26	413	0.3	412	414	20.5	76.1
2025-08-14T05:38	10	26	0.2	26	27	414	0.2	413	414	20.6	75.5
2025-08-14T05:39	10	27	0.2	26	27	414	0.3	413	415	20.7	74.8
2025-08-14T05:40	10	28	0.3	27	28	414	0.3	414	415	20.7	75.5
2025-08-14T05:41	10	28	0.2	28	29	415	0.3	414	416	20.7	75.2
2025-08-14T05:42	10	29	0.3	28	29	415	0.3	415	416	20.8	74.8
2025-08-14T05:43	10	29	0.3	29	30	416	0.3	415	417	20.8	74.1
2025-08-14T05:44	10	30	0.2	30	30	416	0.3	415	417	20.8	73.9
2025-08-14T05:45	10	30	0.2	30	31	416	0.2	416	417	20.8	74.4
2025-08-14T05:46	10	31	0.2	30	32	416	0.2	416	417	20.7	74.3
2025-08-14T05:47	10	31	0.2	31	32	417	0.2	416	417	20.7	74.8
2025-08-14T05:48	10	32	0.2	31	32	417	0.3	416	418	20.7	74.3
2025-08-14T05:49	10	32	0.2	32	33	418	0.2	417	418	20.7	74.0
2025-08-14T05:50	10	33	0.2	33	33	418	0.2	417	418	20.8	73.8
2025-08-14T05:51	10	33	0.2	33	34	418	0.3	417	419	20.8	74.3
2025-08-14T05:52	10	34	0.2	33	34	418	0.2	418	419	20.8	74.4
2025-08-14T05:53	10	34	0.2	34	35	419	0.4	418	419	20.8	73.8
2025-08-14T05:54	10	35	0.2	34	35	419	0.3	418	419	20.8	73.3
2025-08-14T05:55	10	35	0.2	35	36	420	0.2	419	420	20.9	72.6
2025-08-14T05:56	10	36	0.2	36	37	420	0.3	419	421	20.9	72.3
2025-08-14T05:57	10	37	0.2	36	37	420	0.2	420	421	20.9	72.5
2025-08-14T05:58	10	38	0.3	37	38	420	0.3	420	421	20.9	72.9
2025-08-14T05:59	10	38	0.3	38	39	421	0.3	420	421	20.9	72.8
2025-08-14T06:00	10	39	0.2	38	39	421	0.2	421	422	21.0	72.9
2025-08-14T06:01	10	39	0.3	39	40	422	0.3	421	423	21.1	73.0
2025-08-14T06:02	10	40	0.2	39	40	422	0.2	421	422	21.0	72.7
2025-08-14T06:03	10	40	0.2	40	41	422	0.2	422	423	21.0	72.8
2025-08-14T06:04	10	41	0.2	40	41	422	0.2	422	423	21.0	72.4
2025-08-14T06:05	10	42	0.2	41	42	423	0.3	422	424	21.0	72.0
2025-08-14T06:06	10	42	0.2	41	43	424	0.3	423	424	21.0	71.7
2025-08-14T06:07	10	43	0.2	42	43	424	0.2	424	425	21.1	71.9
2025-08-14T06:08	10	43	0.2	43	44	425	0.3	424	425	21.2	72.0
2025-08-14T06:09	10	44	0.2	43	44	425	0.2	424	425	21.2	71.4
2025-08-14T06:10	10	44	0.2	44	45	425	0.2	425	426	21.2	71.4
2025-08-14T06:11	10	45	0.2	44	45	426	0.2	425	426	21.3	70.3
2025-08-14T06:12	10	45	0.2	45	46	426	0.2	426	427	21.4	69.7
2025-08-14T06:13	10	46	0.2	45	46	426	0.3	426	427	21.4	69.3
2025-08-14T06:14	10	46	0.2	46	47	427	0.4	426	428	21.4	69.0
2025-08-14T06:15	10	47	0.2	47	47	428	0.3	427	429	21.5	69.0
2025-08-14T06:16	10	48	0.2	47	48	428	0.2	428	429	21.6	67.9
2025-08-14T06:17	10	48	0.2	48	49	429	0.3	428	430	21.7	67.9
2025-08-14T06:18	10	49	0.2	49	49	430	0.3	429	430	21.7	67.8
2025-08-14T06:19	10	49	0.2	49	50	430	0.2	430	431	21.9	67.8
2025-08-14T06:20	10	50	0.2	50	51	431	0.2	430	431	22.0	67.2
2025-08-14T06:21	10	51	0.2	50	51	432	0.4	431	433	22.0	67.0
2025-08-14T06:22	10	51	0.2	51	52	432	0.3	432	433	22.2	66.7
2025-08-14T06:23	10	52	0.2	51	52	433	0.2	432	433	22.3	65.7
2025-08-14T06:24	10	52	0.2	52	53	434	0.3	433	434	22.4	65.7
2025-08-14T06:25	10	53	0.2	53	53	434	0.3	434	435	22.5	64.8
2025-08-14T06:26	10	54	0.2	53	54	435	0.3	434	435	22.4	63.8
2025-08-14T06:27	10	54	0.2	54	55	436	0.3	435	436	22.5	64.1
2025-08-14T06:28	10	55	0.2	54	55	436	0.2	435	436	22.6	63.9
2025-08-14T06:29	10	55	0.1	55	56	437	0.2	436	437	22.7	63.7
2025-08-14T06:30	10	56	0.2	55	56	437	0.3	436	438	22.7	63.5
2025-08-14T06:31	10	56	0.2	56	57	437	0.3	437	438	22.7	63.7
2025-08-14T06:32	10	57	0.2	57	57	438	0.3	437	439	22.8	63.4
2025-08-14T06:33	10	58	0.2	57	58	438	0.2	438	439	22.8	63.4
2025-08-14T06:34	10	58	0.2	58	59	439	0.2	438	439	22.7	63.7
2025-08-14T06:35	10	59	0.2	58	59	439	0.3	438	439	22.7	64.0
2025-08-14T06:36	10	59	0.2	59	60	439	0.3	438	439	22.7	64.3
2025-08-14T06:37	10	60	0.2	60	60	439	0.3	439	440	22.8	64.1
2025-08-14T06:38	10	60	0.2	60	61	440	0.3	440	441	22.8	64.5
2025-08-14T06:39	10	61	0.2	61	61	440	0.4	439	441	22.7	64.6
2025-08-14T06:40	10	62	0.2	61	62	440	0.3	439	441	22.6	64.8
2025-08-14T06:41	10	62	0.2	62	62	441	0.4	440	441	22.7	64.6
2025-08-14T06:42	10	63	0.2	62	63	441	0.5	440	442	22.8	64.6
2025-08-14T06:43	10	63	0.2	63	64	443	0.3	442	444	23.0	64.4
2025-08-14T06:44	10	64	0.2	64	64	443	0.3	443	444	23.2	63.8
2025-08-14T06:45	10	65	0.2	64	65	444	0.3	443	444	23.2	63.3
2025-08-14T06:46	10	65	0.2	65	66	444	0.4	443	445	23.2	63.3
2025-08-14T06:47	10	66	0.2	65	66	444	0.4	444	445	23.0	63.4
2025-08-14T06:48	10	66	0.2	66	67	445	0.4	444	446	23.0	63.2
2025-08-14T06:49	10	67	0.2	66	67	445	0.4	445	446	23.2	63.6
2025-08-14T06:50	10	67	0.1	67	68	445	0.3	444	446	23.2	62.8
2025-08-14T06:51	10	68	0.2	68	68	445	0.5	444	446	23.0	63.5
2025-08-14T06:52	10	68	0.1	68	69	446	0.3	445	447	22.9	64.2
2025-08-14T06:53	10	69	0.2	69	69	446	0.2	446	447	23.0	64.0
2025-08-14T06:54	10	69	0.2	69	70	446	0.3	446	447	23.0	63.7
2025-08-14T06:55	10	70	0.2	70	70	447	0.3	446	448	23.0	63.7
2025-08-14T06:56	10	70	0.2	70	71	448	0.5	447	449	23.1	63.7
2025-08-14T06:57	10	71	0.2	71	71	448	0.4	447	449	23.3	63.5
2025-08-14T06:58	10	71	0.1	71	72	449	0.4	448	449	23.3	63.5
2025-08-14T06:59	10	72	0.2	71	72	448	0.5	447	449	23.3	63.1
2025-08-14T07:00	10	72	0.2	72	73	449	0.4	448	450	23.2	63.1
2025-08-14T07:01	10	73	0.2	73	73	450	0.4	449	451	23.2	63.3
2025-08-14T07:02	10	73	0.3	73	74	450	0.4	449	451	23.1	63.5
2025-08-14T07:03	10	74	0.2	74	75	449	0.3	449	450	23.0	63.4
2025-08-14T07:04	10	74	0.2	74	75	450	0.4	449	451	23.2	63.5
2025-08-14T07:05	10	75	0.3	74	76	450	0.5	449	451	23.2	62.7
2025-08-14T07:06	10	75	0.2	75	76	450	0.6	449	451	23.2	62.8
2025-08-14T07:07	10	76	0.2	75	76	451	0.3	450	452	23.3	62.7
2025-08-14T07:08	10	76	0.3	76	77	452	0.3	451	452	23.4	62.4
2025-08-14T07:09	10	77	0.2	76	78	453	0.6	451	454	23.4	62.0
2025-08-14T07:10	10	77	0.2	77	78	454	0.3	453	454	23.5	61.6
2025-08-14T07:11	10	78	0.2	78	79	454	0.4	453	455	23.6	60.9
2025-08-14T07:12	10	79	0.2	78	79	455	0.6	454	456	23.7	60.7
2025-08-14T07:13	10	79	0.2	79	80	455	0.4	454	456	23.8	60.2
2025-08-14T07:14	10	80	0.2	79	80	456	0.4	455	457	23.8	59.8
2025-08-14T07:15	10	80	0.2	80	81	456	0.3	456	457	23.9	59.6
2025-08-14T07:16	10	81	0.2	81	81	458	0.4	457	459	23.9	60.4
2025-08-14T07:17	10	81	0.1	81	82	458	0.6	457	459	23.8	59.7
2025-08-14T07:18	10	82	0.2	81	82	458	0.4	457	458	23.8	59.7
2025-08-14T07:19	10	82	0.1	82	82	458	0.4	457	459	23.8	59.7
2025-08-14T07:20	10	83	0.1	82	83	458	0.5	457	460	23.7	60.0
2025-08-14T07:21	10	83	0.2	83	83	460	0.5	459	461	23.9	60.0
2025-08-14T07:22	10	83	0.2	83	84	461	0.5	461	462	24.3	59.7
2025-08-14T07:23	10	84	0.2	84	84	461	0.4	460	462	24.0	59.3
2025-08-14T07:24	10	85	0.2	84	85	462	0.4	461	462	24.1	59.3
2025-08-14T07:25	10	85	0.2	85	85	461	0.3	460	462	24.1	59.3
2025-08-14T07:26	10	86	0.2	85	86	461	0.3	460	462	23.9	59.4
2025-08-14T07:27	10	86	0.1	86	86	462	0.3	461	462	24.0	59.5
2025-08-14T07:28	10	87	0.2	86	87	462	0.3	461	463	24.1	58.8
2025-08-14T07:29	10	87	0.3	87	88	463	0.3	463	464	24.0	58.8
2025-08-14T07:30	10	88	0.2	87	88	464	0.5	463	465	24.2	58.5
2025-08-14T07:31	10	88	0.2	88	89	466	0.8	465	467	24.4	58.4
2025-08-14T07:32	10	89	0.2	88	89	467	0.2	466	468	24.7	57.8
2025-08-14T07:33	10	89	0.2	89	89	466	0.5	465	467	24.7	56.8
2025-08-14T07:34	10	90	0.2	89	90	467	0.7	466	469	24.9	57.0
2025-08-14T07:35	10	90	0.2	90	90	468	0.5	467	469	24.7	56.7
2025-08-14T07:36	10	90	0.1	90	91	468	0.2	467	468	24.5	56.7
2025-08-14T07:37	10	91	0.1	91	91	468	0.9	466	469	24.8	56.6
2025-08-14T07:38	10	91	0.2	91	92	468	0.7	467	470	24.8	56.0
2025-08-14T07:39	10	92	0.2	91	92	469	0.3	468	470	24.6	56.0
2025-08-14T07:40	10	92	0.2	92	93	470	0.4	469	470	24.6	56.3
2025-08-14T07:41	10	93	0.2	92	93	470	0.3	469	470	24.7	56.2
2025-08-14T07:42	10	93	0.2	93	94	470	0.4	470	471	24.9	55.9
2025-08-14T07:43	10	94	0.1	94	94	472	0.4	471	473	25.3	55.2
2025-08-14T07:44	10	94	0.1	94	94	472	0.5	471	473	25.0	54.9
2025-08-14T07:45	10	95	0.2	94	95	471	0.3	471	472	25.0	55.4
2025-08-14T07:46	10	95	0.2	95	96	473	0.5	472	474	25.0	55.5
2025-08-14T07:47	10	96	0.1	96	96	473	1.1	472	475	25.1	55.3
2025-08-14T07:48	10	96	0.1	96	97	473	0.8	471	474	25.1	54.8
2025-08-14T07:49	10	97	0.1	96	97	472	0.4	472	473	25.3	54.3
2025-08-14T07:50	10	97	0.2	96	97	473	0.3	473	474	25.3	53.8
2025-08-14T07:51	10	97	0.3	97	98	474	0.3	473	475	25.1	54.3
2025-08-14T07:52	10	98	0.2	97	98	474	0.3	474	475	25.1	54.5
2025-08-14T07:53	10	98	0.2	97	99	475	0.2	475	475	25.1	54.8
2025-08-14T07:54	10	98	0.3	98	99	476	0.4	475	477	25.1	55.3
2025-08-14T07:55	10	99	0.2	98	99	477	0.5	476	478	25.1	55.8
2025-08-14T07:56	10	99	0.2	99	100	477	0.2	476	477	25.2	55.2
2025-08-14T07:57	10	100	0.2	99	100	478	0.6	477	479	25.4	55.3
2025-08-14T07:58	10	100	0.2	100	101	478	0.4	477	479	25.4	54.4
2025-08-14T07:59	10	101	0.1	100	101	479	0.5	478	480	25.3	54.7
2025-08-14T08:00	10	101	0.2	101	101	480	0.3	479	481	25.4	54.4
2025-08-14T08:01	10	102	0.1	101	102	480	0.4	479	480	25.4	54.1
2025-08-14T08:02	10	102	0.1	102	102	480	0.3	480	481	25.5	53.6
2025-08-14T08:03	10	102	0.1	102	102	480	0.5	479	481	25.4	53.5
2025-08-14T08:04	10	102	0.1	102	103	481	0.3	481	482	25.5	53.6
2025-08-14T08:05	10	103	0.1	102	103	483	0.8	482	484	25.8	53.1
2025-08-14T08:06	10	103	0.2	103	103	484	0.3	483	485	26.0	52.4
2025-08-14T08:07	10	104	0.1	103	104	483	1.0	482	485	25.9	50.9
2025-08-14T08:08	10	104	0.2	104	104	483	1.1	481	485	25.7	51.1
2025-08-14T08:09	10	105	0.1	104	105	483	0.5	482	484	25.9	50.7
2025-08-14T08:10	10	105	0.1	105	105	484	0.5	483	485	26.0	49.7
2025-08-14T08:11	10	105	0.1	105	105	484	0.5	483	485	25.9	50.2
2025-08-14T08:12	10	105	0.1	105	106	484	0.7	483	486	26.0	50.2
2025-08-14T08:13	10	106	0.1	105	106	484	0.5	483	485	25.6	51.0
2025-08-14T08:14	10	106	0.2	106	106	486	0.8	484	487	25.7	50.6
2025-08-14T08:15	10	106	0.1	106	106	484	0.4	483	485	25.5	49.8
2025-08-14T08:16	10	107	0.2	106	107	485	0.6	484	486	25.6	50.0
2025-08-14T08:17	10	107	0.2	107	108	487	0.9	486	489	25.7	50.3
2025-08-14T08:18	10	107	0.2	107	108	487	0.5	486	488	25.7	50.0
2025-08-14T08:19	10	108	0.1	107	108	488	0.4	487	489	26.0	50.0
2025-08-14T08:20	10	108	0.1	107	108	488	0.7	487	489	25.9	49.7
2025-08-14T08:21	10	108	0.1	108	108	488	0.5	487	489	25.8	50.0
2025-08-14T08:22	10	108	0.2	108	109	489	1.1	487	491	26.0	50.1
2025-08-14T08:23	10	109	0.2	109	109	490	0.3	490	491	26.0	49.1
2025-08-14T08:24	10	109	0.1	109	109	488	0.6	487	489	26.0	48.6
2025-08-14T08:25	10	110	0.2	109	110	489	0.4	488	489	25.7	48.7
2025-08-14T08:26	10	110	0.1	110	110	489	0.5	488	491	25.9	48.4
2025-08-14T08:27	10	110	0.1	110	110	489	0.6	489	491	26.1	47.7
2025-08-14T08:28	10	110	0.1	110	111	490	0.8	488	491	26.1	47.3
2025-08-14T08:29	10	111	0.1	110	111	489	0.7	488	491	26.0	48.1
2025-08-14T08:30	10	111	0.1	111	111	491	1.3	490	494	26.2	48.4
2025-08-14T08:31	10	111	0.2	111	112	493	0.3	493	494	26.5	47.2
2025-08-14T08:32	10	112	0.2	112	112	493	0.5	492	494	26.4	46.1
2025-08-14T08:33	10	112	0.2	112	113	493	0.5	492	493	26.4	46.2
2025-08-14T08:34	10	113	0.1	113	113	494	0.7	493	495	26.5	46.4
2025-08-14T08:35	10	113	0.1	113	113	493	0.7	491	494	26.2	46.5
2025-08-14T08:36	10	113	0.1	113	114	492	0.6	491	493	26.0	46.9
2025-08-14T08:37	10	114	0.1	114	114	494	0.4	493	495	26.0	46.8
2025-08-14T08:38	10	114	0.2	114	114	494	0.3	494	495	26.1	46.0
2025-08-14T08:39	10	115	0.2	114	115	495	0.4	495	496	26.4	45.5
2025-08-14T08:40	10	115	0.2	115	115	496	0.6	495	497	26.5	45.3
2025-08-14T08:41	10	115	0.2	115	116	498	0.4	497	498	26.3	45.2
2025-08-14T08:42	10	116	0.1	116	116	498	0.3	498	499	26.5	45.2
2025-08-14T08:43	10	116	0.1	116	116	496	1.5	494	499	26.3	45.6
2025-08-14T08:44	10	116	0.1	116	117	494	0.5	493	496	26.1	45.7
2025-08-14T08:45	10	117	0.1	116	117	495	0.7	494	497	26.1	45.8
2025-08-14T08:46	10	117	0.1	117	117	498	0.9	496	500	26.3	45.9
2025-08-14T08:47	10	117	0.1	117	118	500	0.6	499	501	26.6	45.1
2025-08-14T08:48	10	118	0.2	117	118	500	0.6	499	502	26.5	45.0
2025-08-14T08:49	10	118	0.2	118	119	502	0.4	501	502	26.7	44.6
2025-08-14T08:50	10	118	0.2	118	119	501	1.4	498	503	26.7	43.9
2025-08-14T08:51	10	119	0.2	118	119	500	0.5	499	501	26.4	44.3
2025-08-14T08:52	10	119	0.2	119	119	501	0.6	500	503	26.8	44.3
2025-08-14T08:53	10	119	0.2	119	120	502	0.5	501	503	26.8	43.5
2025-08-14T08:54	10	119	0.2	119	120	504	0.5	503	505	27.0	43.4
2025-08-14T08:55	10	120	0.2	119	120	503	0.9	501	505	27.0	44.0
2025-08-14T08:56	10	120	0.2	119	120	503	1.5	500	505	27.3	45.3
2025-08-14T08:57	10	120	0.2	120	121	502	0.6	501	503	26.7	46.7
2025-08-14T08:58	10	120	0.2	120	121	503	0.5	502	504	26.8	47.0
2025-08-14T08:59	10	120	0.2	120	121	503	0.5	501	503	26.5	47.3
2025-08-14T09:00	10	121	0.2	120	121	502	0.4	501	503	26.5	47.2
2025-08-14T09:01	10	121	0.1	121	121	504	0.5	502	505	26.7	46.6
2025-08-14T09:02	10	121	0.2	121	122	504	0.6	502	505	26.8	46.3
2025-08-14T09:03	10	122	0.1	121	122	501	0.9	500	503	26.4	46.2
2025-08-14T09:04	10	122	0.1	122	122	502	0.8	501	504	26.5	46.0
2025-08-14T09:05	10	122	0.1	122	122	504	0.3	504	505	26.6	45.9
2025-08-14T09:06	10	122	0.1	122	123	505	0.3	504	505	26.6	46.1
2025-08-14T09:07	10	123	0.2	122	123	505	0.5	504	506	26.5	46.5
2025-08-14T09:08	10	123	0.1	123	123	503	0.7	502	505	26.4	46.5
2025-08-14T09:09	10	123	0.1	123	124	505	0.8	503	506	26.4	46.4
2025-08-14T09:10	10	124	0.1	123	124	507	1.0	505	509	26.4	46.4
2025-08-14T09:11	10	124	0.1	124	124	506	1.2	504	508	26.4	44.8
2025-08-14T09:12	10	124	0.1	124	124	506	0.6	505	507	25.9	44.8
2025-08-14T09:13	10	124	0.2	124	125	507	0.5	506	508	26.4	44.8
2025-08-14T09:14	10	125	0.1	125	125	509	0.6	508	510	26.4	46.4
2025-08-14T09:15	10	125	0.1	125	125	509	0.4	508	510	26.4	46.4
2025-08-14T09:16	10	125	0.1	125	126	510	0.9	509	511	26.4	46.4
2025-08-14T09:17	10	126	0.1	125	126	512	0.6	510	513	27.0	45.5
2025-08-14T09:18	10	126	0.1	126	126	511	1.7	508	513	27.6	44.5
2025-08-14T09:19	10	126	0.1	126	126	506	1.3	505	509	26.9	45.4
2025-08-14T09:20	10	126	0.1	126	126	509	1.2	507	511	26.8	46.0
2025-08-14T09:21	10	126	0.1	126	127	510	1.1	508	512	27.0	45.9
2025-08-14T09:22	10	127	0.1	126	127	509	0.4	508	510	26.9	45.8
2025-08-14T09:23	10	127	0.1	127	127	510	0.3	509	510	26.9	45.8
2025-08-14T09:24	10	127	0.2	127	127	509	0.2	509	510	27.0	45.5
2025-08-14T09:25	10	127	0.1	127	128	510	0.7	509	512	27.1	45.3
2025-08-14T09:26	10	128	0.1	127	128	511	0.5	511	512	27.1	45.0
2025-08-14T09:27	10	128	0.1	128	128	513	0.6	512	514	27.3	45.2
2025-08-14T09:28	10	128	0.1	128	129	514	0.4	512	514	27.6	44.3
2025-08-14T09:29	10	128	0.1	128	129	515	0.5	514	516	27.8	43.8
2025-08-14T09:30	10	129	0.1	128	129	515	0.8	514	516	28.0	43.7
2025-08-14T09:31	10	129	0.1	128	129	516	0.6	515	518	28.0	43.5
2025-08-14T09:32	10	129	0.1	129	129	514	1.0	513	516	27.7	43.6
2025-08-14T09:33	10	129	0.1	129	129	513	0.7	512	514	27.7	43.7
2025-08-14T09:34	10	129	0.1	129	130	511	0.7	510	513	27.3	44.4
2025-08-14T09:35	10	130	0.1	129	130	513	1.1	511	514	27.1	44.8
2025-08-14T09:36	10	130	0.1	130	130	514	0.3	514	515	27.2	44.8
2025-08-14T09:37	10	130	0.2	130	130	515	0.9	514	517	27.3	44.7
2025-08-14T09:38	10	130	0.1	130	130	516	0.5	514	516	27.5	44.2
2025-08-14T09:39	10	130	0.1	130	131	515	0.8	514	517	27.5	44.3
2025-08-14T09:40	10	131	0.2	130	131	516	1.4	513	518	27.9	44.1
2025-08-14T09:41	10	131	0.1	131	131	513	0.7	512	514	27.6	44.8
2025-08-14T09:42	10	131	0.1	131	131	515	1.0	513	517	27.9	44.8
2025-08-14T09:43	10	131	0.1	131	131	515	0.7	514	517	27.9	44.6
2025-08-14T09:44	10	131	0.2	131	132	516	0.7	515	518	27.5	44.8
2025-08-14T09:45	10	132	0.2	131	132	517	0.6	516	519	27.5	45.0
2025-08-14T09:46	10	132	0.1	132	132	517	0.5	516	518	27.5	44.8
2025-08-14T09:47	10	132	0.1	132	133	518	0.4	518	519	27.8	44.1
2025-08-14T09:48	10	133	0.1	132	133	519	0.6	518	520	27.7	44.0
2025-08-14T09:49	10	133	0.1	132	133	518	0.9	516	520	27.6	44.5
2025-08-14T09:50	10	133	0.1	133	133	517	0.5	516	518	27.5	44.8
2025-08-14T09:51	10	133	0.1	133	133	518	1.2	516	520	27.4	44.7
2025-08-14T09:52	10	133	0.1	133	134	520	1.1	517	521	27.6	44.4
2025-08-14T09:53	10	134	0.2	133	134	516	0.8	515	518	27.3	44.6
2025-08-14T09:54	10	134	0.2	133	134	517	0.4	516	518	27.3	44.8
2025-08-14T09:55	10	134	0.1	134	134	520	0.6	518	521	27.6	44.3
2025-08-14T09:56	10	134	0.2	134	134	520	0.3	520	521	27.6	44.1
2025-08-14T09:57	10	134	0.2	134	135	522	0.8	521	523	27.9	43.5
2025-08-14T09:58	10	135	0.1	134	135	521	0.4	520	522	27.6	43.8
2025-08-14T09:59	10	135	0.1	135	135	521	0.3	520	521	27.6	43.8
2025-08-14T10:00	10	135	0.2	135	135	522	0.6	521	524	27.8	43.6
2025-08-14T10:01	10	135	0.1	135	136	522	0.6	521	524	28.0	42.8
2025-08-14T10:02	10	135	0.1	135	136	525	0.8	523	526	28.1	42.9
2025-08-14T10:03	10	136	0.1	135	136	520	1.1	519	523	27.8	43.0
2025-08-14T10:04	10	136	0.1	135	136	522	1.2	520	524	28.0	42.9
2025-08-14T10:05	10	136	0.1	135	136	524	0.9	523	526	28.2	42.6
2025-08-14T10:06	10	135	0.2	135	136	523	1.6	521	526	28.7	42.5
2025-08-14T10:07	10	136	0.2	136	136	526	0.8	525	528	28.7	42.3
2025-08-14T10:08	10	136	0.1	136	136	525	1.2	523	527	28.6	41.9
2025-08-14T10:09	10	136	0.2	136	137	525	1.1	524	527	28.4	41.9
2025-08-14T10:10	10	137	0.1	136	137	527	0.5	526	528	28.7	41.9
2025-08-14T10:11	10	137	0.1	136	137	523	2.1	521	529	28.5	41.8
2025-08-14T10:12	10	137	0.1	136	137	523	0.4	522	524	28.2	42.3
2025-08-14T10:13	10	137	0.1	137	137	524	0.8	522	525	28.0	43.1
2025-08-14T10:14	10	137	0.1	137	137	524	1.0	522	526	28.0	43.4
2025-08-14T10:15	10	137	0.1	137	137	527	0.7	526	528	28.5	42.6
2025-08-14T10:16	10	137	0.2	137	138	527	0.7	526	529	28.5	42.4
2025-08-14T10:17	10	137	0.1	137	138	526	1.1	524	528	28.6	42.2
2025-08-14T10:18	10	138	0.1	137	138	526	1.5	523	528	28.1	42.8
2025-08-14T10:19	10	138	0.1	137	138	528	0.9	526	529	28.5	42.5
2025-08-14T10:20	10	138	0.1	137	138	529	1.1	526	530	28.7	42.3
2025-08-14T10:21	10	138	0.1	137	138	527	0.9	525	529	28.3	42.1
2025-08-14T10:22	10	138	0.1	137	138	528	1.2	526	530	28.4	42.3
2025-08-14T10:23	10	138	0.2	138	138	528	1.0	526	530	29.0	41.2
2025-08-14T10:24	10	138	0.2	138	139	526	0.4	525	527	28.4	41.5
2025-08-14T10:25	10	139	0.1	138	139	528	0.5	527	529	28.3	41.8
2025-08-14T10:26	10	139	0.2	138	139	530	1.0	528	532	28.5	41.8
2025-08-14T10:27	10	139	0.1	139	139	530	1.5	527	532	28.5	42.1
2025-08-14T10:28	10	139	0.1	139	139	530	0.5	529	531	28.8	41.5
2025-08-14T10:29	10	139	0.1	139	140	529	0.9	528	532	28.4	41.3
2025-08-14T10:30	10	139	0.2	139	140	530	0.6	529	531	28.5	41.0
2025-08-14T10:31	10	140	0.1	139	140	532	0.5	530	533	28.6	41.1
2025-08-14T10:32	10	140	0.1	139	140	533	0.7	532	534	28.9	41.3
2025-08-14T10:33	10	140	0.2	139	140	534	0.8	533	535	29.0	39.6
2025-08-14T10:34	10	140	0.1	140	140	534	0.5	533	535	29.1	39.4
2025-08-14T10:35	10	140	0.1	140	140	530	1.1	528	533	28.6	39.8
2025-08-14T10:36	10	140	0.1	140	140	528	1.4	526	530	28.5	40.4
2025-08-14T10:37	10	140	0.1	140	140	527	0.4	526	528	28.3	40.4
2025-08-14T10:38	10	140	0.1	140	140	530	0.6	528	531	28.4	41.0
2025-08-14T10:39	10	140	0.1	140	141	531	0.5	530	532	28.7	40.3
2025-08-14T10:40	10	140	0.1	140	141	533	0.8	531	534	28.8	40.1
2025-08-14T10:41	10	141	0.1	140	141	534	0.4	534	535	28.9	40.5
2025-08-14T10:42	10	141	0.1	141	141	533	0.9	532	535	29.2	40.2
2025-08-14T10:43	10	141	0.1	141	141	530	1.2	528	532	28.8	40.7
2025-08-14T10:44	10	141	0.1	141	141	531	1.6	528	534	28.6	40.8
2025-08-14T10:45	10	141	0.1	141	141	533	0.8	532	535	28.7	39.7
2025-08-14T10:46	10	141	0.1	141	141	530	1.9	527	533	28.8	40.3
2025-08-14T10:47	10	141	0.1	141	141	529	0.8	528	531	29.0	40.2
2025-08-14T10:48	10	141	0.1	141	141	530	0.5	529	531	28.8	40.3
2025-08-14T10:49	10	141	0.1	141	141	531	2.1	528	534	29.3	40.0
2025-08-14T10:50	10	141	0.1	141	141	530	0.9	529	531	29.0	40.3
2025-08-14T10:51	10	141	0.1	141	141	529	1.2	527	532	28.9	40.5
2025-08-14T10:52	10	141	0.1	141	141	531	1.0	529	533	28.8	40.4
2025-08-14T10:53	10	142	0.1	141	142	531	0.6	530	532	28.5	40.3
2025-08-14T10:54	10	142	0.1	142	142	532	0.7	531	534	28.4	40.4
2025-08-14T10:55	10	142	0.1	141	142	532	0.9	531	534	28.7	40.5
2025-08-14T10:56	10	142	0.1	141	142	533	1.6	530	536	28.9	40.6
2025-08-14T10:57	10	142	0.1	142	142	533	1.3	531	535	29.1	40.6
2025-08-14T10:58	10	142	0.1	142	142	535	0.5	534	536	29.0	40.6
2025-08-14T10:59	10	143	0.1	142	143	535	1.4	532	537	28.9	41.0
2025-08-14T11:00	10	142	0.1	142	143	534	1.1	532	536	28.9	40.6
2025-08-14T11:01	10	142	0.1	142	143	534	1.0	533	537	28.8	40.9
2025-08-14T11:02	10	142	0.1	142	143	538	1.0	537	541	29.2	40.9
2025-08-14T11:03	10	142	0.1	142	143	541	0.7	540	542	29.8	40.4
2025-08-14T11:04	10	142	0.1	142	143	541	1.1	538	542	29.9	40.1
2025-08-14T11:05	10	143	0.1	142	143	538	1.0	536	540	29.8	40.1
2025-08-14T11:06	10	143	0.1	142	143	537	0.8	536	539	29.5	40.2
2025-08-14T11:07	10	142	0.1	142	143	538	1.7	535	541	29.8	39.8
2025-08-14T11:08	10	142	0.1	142	143	538	1.3	536	540	30.1	39.5
2025-08-14T11:09	10	142	0.1	142	143	537	1.7	534	540	29.9	38.5
2025-08-14T11:10	10	143	0.1	142	143	539	0.5	537	540	29.7	38.8
2025-08-14T11:11	10	143	0.1	143	143	538	0.8	536	539	29.5	39.0
2025-08-14T11:12	10	143	0.1	143	143	536	0.9	535	538	29.5	39.5
2025-08-14T11:13	10	143	0.1	143	143	537	1.1	534	538	29.6	39.5
2025-08-14T11:14	10	143	0.1	143	143	535	2.0	532	539	29.2	39.7
2025-08-14T11:15	10	143	0.1	143	143	539	1.8	534	541	29.5	39.5
2025-08-14T11:16	10	143	0.1	143	143	535	0.5	534	536	29.7	38.4
2025-08-14T11:17	10	143	0.1	143	143	534	2.3	530	537	29.4	38.1
2025-08-14T11:18	10	143	0.1	143	143	535	2.2	531	538	29.5	37.9
2025-08-14T11:19	10	143	0.1	143	143	536	1.0	534	538	29.7	37.1
2025-08-14T11:20	10	143	0.1	143	143	534	1.2	533	537	29.7	37.9
2025-08-14T11:21	10	143	0.1	143	144	537	0.8	536	539	30.0	37.7
2025-08-14T11:22	10	144	0.1	143	144	536	1.0	534	538	29.9	37.5
2025-08-14T11:23	10	144	0.1	143	144	536	1.0	534	537	29.6	37.7
2025-08-14T11:24	10	144	0.1	144	144	534	0.9	533	536	29.2	38.7
2025-08-14T11:25	10	144	0.1	144	144	537	0.5	536	538	29.2	38.3
2025-08-14T11:26	10	144	0.1	144	144	538	1.5	536	540	29.5	37.9
2025-08-14T11:27	10	144	0.1	144	144	541	0.7	539	543	29.6	36.5
2025-08-14T11:28	10	144	0.1	144	144	542	1.3	539	544	29.8	36.4
2025-08-14T11:29	10	144	0.1	144	144	540	0.9	537	541	29.7	35.9
2025-08-14T11:30	10	144	0.1	144	144	539	1.1	537	541	29.8	36.0
2025-08-14T11:31	10	144	0.1	144	144	540	0.6	539	541	29.5	36.3
2025-08-14T11:32	10	144	0.1	144	145	544	1.1	541	545	29.9	36.1
2025-08-14T11:33	10	144	0.1	144	145	539	4.0	534	546	30.1	34.7
2025-08-14T11:34	10	144	0.1	144	145	537	0.8	535	538	29.9	35.5
2025-08-14T11:35	10	144	0.1	144	144	536	0.9	535	538	30.0	35.7
2025-08-14T11:36	10	144	0.1	144	144	539	2.7	535	543	30.0	35.8
2025-08-14T11:37	10	144	0.1	144	144	544	1.0	542	546	30.6	34.8
2025-08-14T11:38	10	144	0.1	144	145	544	0.6	543	546	30.9	33.9
2025-08-14T11:39	10	144	0.1	144	145	545	0.8	543	546	30.5	35.0
2025-08-14T11:40	10	144	0.1	144	145	545	0.6	544	547	30.5	35.2
2025-08-14T11:41	10	145	0.1	144	145	547	1.5	544	549	30.6	35.1
2025-08-14T11:42	10	145	0.1	145	145	545	2.4	541	549	30.8	34.1
2025-08-14T11:43	10	145	0.1	145	145	542	0.5	541	543	30.3	34.4
2025-08-14T11:44	10	145	0.1	144	145	543	0.7	542	544	30.5	34.8
2025-08-14T11:45	10	145	0.1	144	145	540	1.5	538	543	30.5	34.2
2025-08-14T11:46	10	145	0.1	144	145	544	1.2	542	546	30.1	34.3
2025-08-14T11:47	10	145	0.1	144	145	547	1.0	544	548	30.6	33.9
2025-08-14T11:48	10	145	0.1	144	145	541	1.2	539	544	30.3	34.4
2025-08-14T11:49	10	144	0.1	144	145	542	1.5	540	545	30.0	35.0
2025-08-14T11:50	10	144	0.1	144	144	545	1.3	543	547	30.2	35.8
2025-08-14T11:51	10	144	0.1	144	144	540	2.9	537	544	30.2	36.3
2025-08-14T11:52	10	144	0.1	144	144	539	1.8	537	542	30.4	36.4
2025-08-14T11:53	10	144	0.2	144	145	539	0.5	538	541	30.3	36.0
2025-08-14T11:54	10	144	0.2	144	145	540	0.8	539	542	30.4	35.4
2025-08-14T11:55	10	144	0.1	144	144	541	1.8	539	544	30.3	34.8
2025-08-14T11:56	10	144	0.1	144	145	544	1.1	542	546	30.4	35.3
2025-08-14T11:57	10	144	0.2	144	145	544	1.5	542	547	30.2	35.6
2025-08-14T11:58	10	144	0.2	144	144	547	0.6	546	549	30.4	36.1
2025-08-14T11:59	10	144	0.3	144	145	549	1.3	546	551	30.8	35.3
2025-08-14T12:00	10	144	0.2	144	145	548	0.8	546	549	30.5	33.4
2025-08-14T12:01	10	144	0.2	144	145	546	3.1	539	548	30.6	34.3
2025-08-14T12:02	10	144	0.2	144	145	542	1.0	539	544	30.5	35.0
2025-08-14T12:03	10	144	0.1	144	144	541	1.1	538	543	30.3	35.2
2025-08-14T12:04	10	144	0.1	143	144	542	0.9	539	543	30.3	34.9
2025-08-14T12:05	10	144	0.2	143	144	540	2.6	536	543	30.6	34.3
2025-08-14T12:06	10	144	0.2	144	145	538	0.6	537	540	30.3	34.2
2025-08-14T12:07	10	144	0.1	144	144	541	1.7	538	544	30.5	33.6
2025-08-14T12:08	10	144	0.1	144	144	545	1.9	542	548	30.5	33.7
2025-08-14T12:09	10	144	0.1	144	144	546	2.4	542	549	30.6	34.0
2025-08-14T12:10	10	144	0.1	144	144	544	1.0	542	545	30.5	34.2
2025-08-14T12:11	10	144	0.1	144	144	544	1.5	543	548	30.7	34.0
2025-08-14T12:12	10	144	0.1	144	144	547	1.5	544	549	31.2	33.1
2025-08-14T12:13	10	144	0.1	144	144	545	0.9	543	546	30.9	33.8
2025-08-14T12:14	10	144	0.1	144	144	543	0.9	541	544	30.6	34.4
2025-08-14T12:15	10	144	0.1	144	144	543	0.4	542	544	30.6	34.7
2025-08-14T12:16	10	144	0.1	144	144	547	1.3	544	549	30.8	34.6
2025-08-14T12:17	10	144	0.1	144	144	548	1.1	546	550	30.7	34.4
2025-08-14T12:18	10	144	0.1	144	144	549	0.8	547	550	30.7	34.5
2025-08-14T12:19	10	144	0.1	144	144	543	1.6	541	547	30.6	34.9
2025-08-14T12:20	10	144	0.1	144	144	545	1.1	543	547	30.8	34.8
2025-08-14T12:21	10	144	0.1	144	144	543	0.8	542	544	30.8	34.8
2025-08-14T12:22	10	144	0.1	144	144	545	0.9	544	547	30.8	34.7
2025-08-14T12:23	10	144	0.1	144	144	544	0.9	543	546	30.7	34.6
2025-08-14T12:24	10	144	0.1	143	144	544	1.2	542	546	30.7	34.9
2025-08-14T12:25	10	143	0.1	143	144	543	0.6	542	544	30.6	35.2
2025-08-14T12:26	10	143	0.1	143	143	545	1.8	542	549	30.7	35.5
2025-08-14T12:27	10	143	0.1	143	143	548	1.2	545	550	31.1	34.5
2025-08-14T12:28	10	143	0.1	143	143	546	0.6	545	548	30.9	34.1
2025-08-14T12:29	10	143	0.1	142	143	549	0.9	547	551	31.2	34.2
2025-08-14T12:30	10	143	0.1	142	143	549	0.6	547	550	31.0	34.4
2025-08-14T12:31	10	143	0.1	142	143	550	1.0	549	552	31.3	34.7
2025-08-14T12:32	10	143	0.1	143	143	550	0.7	549	552	31.5	34.0
2025-08-14T12:33	10	143	0.2	142	143	548	4.4	540	553	31.5	34.5
2025-08-14T12:34	10	142	0.1	142	143	541	0.6	540	543	30.9	34.8
2025-08-14T12:35	10	142	0.1	142	142	543	1.5	540	545	30.8	34.5
2025-08-14T12:36	10	142	0.1	142	142	546	1.1	544	548	30.9	34.3
2025-08-14T12:37	10	142	0.1	141	142	549	0.8	547	550	31.0	34.3
2025-08-14T12:38	10	142	0.1	141	142	548	1.8	544	550	31.3	34.3
2025-08-14T12:39	10	141	0.1	141	142	545	2.0	542	547	31.1	33.5
2025-08-14T12:40	10	141	0.1	141	141	544	0.6	543	545	30.9	33.1
2025-08-14T12:41	10	141	0.1	141	141	547	1.7	545	550	31.3	32.7
2025-08-14T12:42	10	141	0.1	141	141	548	0.5	547	550	31.4	32.2
2025-08-14T12:43	10	141	0.1	141	141	550	1.9	547	553	31.4	32.9
2025-08-14T12:44	10	141	0.1	141	141	548	1.8	545	552	31.7	32.2
2025-08-14T12:45	10	141	0.1	141	141	544	0.8	542	546	31.4	32.2
2025-08-14T12:46	10	141	0.1	141	141	544	1.0	542	545	31.2	31.3
2025-08-14T12:47	10	141	0.1	141	141	545	2.7	541	550	31.0	31.6
2025-08-14T12:48	10	141	0.1	141	141	548	1.0	547	550	31.6	31.5
2025-08-14T12:49	10	141	0.1	140	141	546	1.1	544	548	31.5	31.0
2025-08-14T12:50	10	140	0.1	140	141	545	1.1	543	547	31.3	31.0
2025-08-14T12:51	10	140	0.1	140	140	544	0.7	542	545	31.2	30.7
2025-08-14T12:52	10	140	0.2	139	140	544	1.1	542	545	31.1	31.2
2025-08-14T12:53	10	140	0.1	139	140	545	1.8	542	547	31.3	31.4
2025-08-14T12:54	10	139	0.2	139	140	542	0.6	541	543	31.1	31.4
2025-08-14T12:55	10	139	0.2	139	140	541	2.2	538	545	31.5	31.4
2025-08-14T12:56	10	139	0.2	139	140	543	1.4	540	545	31.7	31.6
2025-08-14T12:57	10	139	0.2	139	140	543	1.0	541	545	31.4	31.8
2025-08-14T12:58	10	139	0.3	139	140	545	1.4	543	547	31.2	32.0
2025-08-14T12:59	10	139	0.2	139	140	549	0.9	547	550	31.2	32.3
2025-08-14T13:00	10	139	0.3	138	139	548	2.0	544	551	31.4	32.3
2025-08-14T13:01	10	139	0.2	138	139	545	1.6	543	549	31.2	32.1
2025-08-14T13:02	10	139	0.2	138	139	550	0.8	549	552	31.7	32.0
2025-08-14T13:03	10	138	0.2	138	139	551	1.3	549	553	32.3	31.8
2025-08-14T13:04	10	138	0.2	138	139	545	2.0	542	550	31.9	31.2
2025-08-14T13:05	10	138	0.2	137	138	547	1.3	544	549	31.8	31.2
2025-08-14T13:06	10	138	0.2	137	139	551	0.9	549	553	32.3	30.8
2025-08-14T13:07	10	138	0.2	137	138	549	2.3	544	552	32.2	30.2
2025-08-14T13:08	10	138	0.2	137	138	544	0.6	542	545	31.6	30.6
2025-08-14T13:09	10	137	0.1	137	138	547	1.3	544	549	31.9	30.5
2025-08-14T13:10	10	137	0.2	137	138	544	1.3	542	547	31.8	29.6
2025-08-14T13:11	10	137	0.1	137	137	543	1.3	541	546	31.8	29.6
2025-08-14T13:12	10	137	0.1	136	137	547	0.9	545	549	32.3	29.2
2025-08-14T13:13	10	137	0.1	136	137	549	0.9	548	551	32.8	28.9
2025-08-14T13:14	10	136	0.0	136	137	547	2.4	544	551	32.6	29.6
2025-08-14T13:15	10	136	0.1	136	137	545	2.4	541	549	32.0	29.1
2025-08-14T13:16	10	136	0.2	136	137	540	1.5	537	542	31.6	29.1
2025-08-14T13:17	10	136	0.1	136	136	543	2.7	539	546	31.5	29.9
2025-08-14T13:18	10	136	0.1	136	136	545	0.7	544	546	31.5	30.1
2025-08-14T13:19	10	136	0.1	135	136	548	1.0	545	549	31.8	30.3
2025-08-14T13:20	10	135	0.1	135	136	546	2.7	542	549	31.8	30.3
2025-08-14T13:21	10	135	0.1	135	136	541	0.7	540	543	31.7	30.1
2025-08-14T13:22	10	135	0.1	135	135	544	1.8	541	547	32.0	30.0
2025-08-14T13:23	10	135	0.1	135	135	545	0.6	544	547	32.4	29.3
2025-08-14T13:24	10	135	0.1	135	135	544	0.9	542	545	31.9	29.0
2025-08-14T13:25	10	135	0.1	134	135	545	1.1	543	547	31.9	29.2
2025-08-14T13:26	10	134	0.2	134	135	545	2.0	540	548	32.2	29.3
2025-08-14T13:27	10	134	0.1	134	134	542	1.6	539	545	31.7	29.8
2025-08-14T13:28	10	134	0.2	133	134	547	1.8	545	550	31.9	30.1
2025-08-14T13:29	10	134	0.1	133	134	548	1.0	544	549	32.3	29.6
2025-08-14T13:30	10	133	0.1	133	134	544	1.0	542	546	32.1	29.4
2025-08-14T13:31	10	133	0.1	133	134	540	2.9	536	546	32.1	29.4
2025-08-14T13:32	10	133	0.1	133	133	539	0.9	538	541	31.8	29.4
2025-08-14T13:33	10	133	0.1	132	133	540	0.9	539	542	31.8	29.5
2025-08-14T13:34	10	132	0.2	132	132	538	0.9	536	540	31.8	29.3
2025-08-14T13:35	10	132	0.1	132	132	541	0.9	539	543	32.3	28.8
2025-08-14T13:36	10	132	0.1	132	132	545	1.7	542	548	32.4	28.9
2025-08-14T13:37	10	132	0.1	132	132	547	0.5	546	548	33.0	28.9
2025-08-14T13:38	10	132	0.1	132	132	545	1.1	544	548	32.6	28.6
2025-08-14T13:39	10	132	0.1	132	132	548	1.8	545	551	32.8	28.8
2025-08-14T13:40	10	132	0.1	132	132	548	1.5	545	550	32.8	28.2
2025-08-14T13:41	10	132	0.1	132	132	543	1.1	541	545	32.9	28.5
2025-08-14T13:42	10	132	0.2	131	132	544	0.9	542	545	32.7	28.4
2025-08-14T13:43	10	131	0.2	131	132	544	1.0	542	546	32.6	28.7
2025-08-14T13:44	10	131	0.2	131	131	543	0.9	541	545	32.4	28.7
2025-08-14T13:45	10	131	0.2	130	131	542	1.2	540	544	32.3	28.4
2025-08-14T13:46	10	130	0.2	130	130	544	1.3	542	546	32.3	29.0
2025-08-14T13:47	10	130	0.2	129	130	544	1.0	543	546	32.1	29.8
2025-08-14T13:48	10	130	0.1	130	130	544	1.0	543	547	32.5	29.7
2025-08-14T13:49	10	130	0.1	129	130	544	0.4	543	544	32.0	28.7
2025-08-14T13:50	10	130	0.1	129	130	546	0.9	544	548	32.1	29.1
2025-08-14T13:51	10	129	0.1	129	130	543	1.8	541	548	32.0	29.0
2025-08-14T13:52	10	129	0.2	129	129	542	0.9	541	544	32.0	29.4
2025-08-14T13:53	10	128	0.1	128	129	543	0.7	541	544	32.5	28.9
2025-08-14T13:54	10	128	0.1	128	128	541	0.8	540	543	32.6	29.8
2025-08-14T13:55	10	128	0.2	128	128	541	1.0	539	543	32.7	30.3
2025-08-14T13:56	10	127	0.2	127	128	540	0.8	539	542	32.6	30.3
2025-08-14T13:57	10	127	0.1	127	127	542	0.4	541	543	32.5	30.6
2025-08-14T13:58	10	127	0.2	126	127	543	1.4	540	545	32.5	31.2
2025-08-14T13:59	10	126	0.2	126	127	541	0.7	539	542	32.5	31.3
2025-08-14T14:00	10	126	0.1	126	126	545	1.4	542	547	33.1	31.3
2025-08-14T14:01	10	126	0.1	126	126	545	0.9	543	547	33.0	30.3
2025-08-14T14:02	10	126	0.1	126	126	542	0.5	540	543	32.8	30.9
2025-08-14T14:03	10	126	0.2	125	126	539	2.0	536	542	32.4	31.0
2025-08-14T14:04	10	125	0.1	125	126	539	1.1	537	542	32.0	31.3
2025-08-14T14:05	10	125	0.1	125	125	543	0.6	542	544	32.3	31.4
2025-08-14T14:06	10	125	0.1	125	125	542	1.2	541	545	32.5	30.5
2025-08-14T14:07	10	125	0.1	124	125	543	1.1	541	544	32.6	30.2
2025-08-14T14:08	10	125	0.1	124	125	543	1.3	541	545	33.1	29.4
2025-08-14T14:09	10	124	0.2	124	125	539	0.5	538	540	32.7	30.0
2025-08-14T14:10	10	124	0.2	124	125	541	0.9	540	543	32.9	30.3
2025-08-14T14:11	10	124	0.2	124	125	538	2.0	535	541	32.6	29.8
2025-08-14T14:12	10	124	0.3	123	125	537	0.8	535	538	32.3	30.1
2025-08-14T14:13	10	124	0.2	123	124	536	0.6	535	537	32.2	30.0
2025-08-14T14:14	10	123	0.2	123	124	539	1.0	537	541	32.1	30.3
2025-08-14T14:15	10	123	0.1	123	123	541	0.9	539	542	32.6	30.3
2025-08-14T14:16	10	123	0.2	122	123	539	1.6	536	541	32.6	30.2
2025-08-14T14:17	10	122	0.2	122	123	538	0.8	536	539	32.3	29.1
2025-08-14T14:18	10	122	0.3	121	123	540	0.6	539	541	32.4	29.5
2025-08-14T14:19	10	122	0.3	121	123	540	0.8	539	542	32.4	29.9
2025-08-14T14:20	10	122	0.2	121	122	541	0.4	540	542	32.6	30.3
2025-08-14T14:21	10	121	0.2	121	122	541	0.5	539	541	32.7	30.7
2025-08-14T14:22	10	121	0.2	121	122	536	1.7	534	539	32.7	30.5
2025-08-14T14:23	10	121	0.2	120	121	534	1.3	532	537	32.2	30.9
2025-08-14T14:24	10	120	0.2	120	121	539	1.6	537	541	32.3	31.3
2025-08-14T14:25	10	120	0.2	120	121	537	1.0	536	540	32.3	30.5
2025-08-14T14:26	10	120	0.1	120	120	536	1.0	534	538	32.4	29.7
2025-08-14T14:27	10	120	0.1	119	120	535	1.2	534	538	32.5	29.5
2025-08-14T14:28	10	119	0.2	119	120	534	0.8	532	535	32.1	29.5
2025-08-14T14:29	10	119	0.2	118	119	532	0.7	531	533	32.1	30.1
2025-08-14T14:30	10	118	0.2	118	119	532	1.0	530	535	32.2	30.2
2025-08-14T14:31	10	118	0.1	118	118	537	0.9	534	538	32.5	28.9
2025-08-14T14:32	10	118	0.1	117	118	538	1.0	536	540	32.9	28.5
2025-08-14T14:33	10	117	0.1	117	118	535	1.2	532	538	32.8	30.9
2025-08-14T14:34	10	117	0.1	117	117	532	0.6	531	533	32.4	30.9
2025-08-14T14:35	10	117	0.2	116	117	534	0.9	532	536	32.3	31.1
2025-08-14T14:36	10	117	0.1	116	117	535	1.0	533	537	32.5	30.5
2025-08-14T14:37	10	117	0.1	116	117	534	0.8	533	536	32.5	29.5
2025-08-14T14:38	10	116	0.1	116	117	535	0.5	534	536	32.4	29.9
2025-08-14T14:39	10	116	0.1	116	116	538	1.2	536	540	32.6	30.1
2025-08-14T14:40	10	116	0.2	115	116	534	1.8	532	538	32.5	29.9
2025-08-14T14:41	10	115	0.2	115	116	532	1.3	529	534	32.1	30.9
2025-08-14T14:42	10	114	0.2	114	115	532	1.9	529	536	32.3	31.1
2025-08-14T14:43	10	114	0.1	114	114	534	0.6	532	535	32.6	31.0
2025-08-14T14:44	10	114	0.1	114	114	536	1.0	534	537	32.6	31.1
2025-08-14T14:45	10	113	0.1	113	114	533	1.5	531	536	32.6	29.9
2025-08-14T14:46	10	113	0.1	113	114	533	1.5	530	535	32.8	30.9
2025-08-14T14:47	10	113	0.1	113	114	534	0.4	533	534	32.9	31.0
2025-08-14T14:48	10	113	0.1	113	114	533	1.2	531	535	32.8	30.3
2025-08-14T14:49	10	113	0.2	113	113	532	0.4	531	533	32.5	30.7
2025-08-14T14:50	10	113	0.1	112	113	533	0.4	532	533	32.7	31.1
2025-08-14T14:51	10	112	0.1	112	113	532	0.7	531	533	32.9	29.4
2025-08-14T14:52	10	112	0.1	112	112	535	1.3	533	537	33.1	29.8
2025-08-14T14:53	10	112	0.1	111	112	536	0.8	534	537	33.2	29.8
2025-08-14T14:54	10	111	0.1	111	112	534	1.2	532	536	33.2	29.7
2025-08-14T14:55	10	111	0.1	111	111	529	1.2	528	533	32.8	29.8
2025-08-14T14:56	10	111	0.1	110	111	532	0.9	530	533	32.8	29.8
2025-08-14T14:57	10	110	0.1	110	111	535	0.6	533	536	33.0	30.2
2025-08-14T14:58	10	110	0.1	110	110	531	1.3	530	534	33.1	30.2
2025-08-14T14:59	10	110	0.2	109	110	531	0.8	529	532	32.8	29.5
2025-08-14T15:00	10	109	0.2	109	110	531	0.4	529	532	32.4	28.3
2025-08-14T15:01	10	109	0.1	109	109	530	0.6	529	532	32.4	29.8
2025-08-14T15:02	10	108	0.2	108	109	531	0.6	529	532	32.6	30.6
2025-08-14T15:03	10	108	0.1	108	108	529	0.5	528	531	32.7	30.3
2025-08-14T15:04	10	108	0.2	107	108	531	0.9	530	533	32.7	30.0
2025-08-14T15:05	10	107	0.2	107	107	531	0.5	530	533	33.0	30.6
2025-08-14T15:06	10	107	0.1	106	107	530	1.8	527	533	33.1	29.9
2025-08-14T15:07	10	106	0.2	106	107	527	1.1	525	529	32.7	29.8
2025-08-14T15:08	10	106	0.2	105	106	527	1.1	525	529	32.5	29.8
2025-08-14T15:09	10	105	0.2	105	106	526	1.1	525	528	32.5	29.9
2025-08-14T15:10	10	105	0.1	105	105	528	0.6	527	529	32.4	29.8
2025-08-14T15:11	10	104	0.2	104	105	525	0.4	525	526	32.7	29.0
2025-08-14T15:12	10	104	0.2	103	104	525	0.5	524	527	32.7	28.5
2025-08-14T15:13	10	103	0.1	103	104	528	0.7	526	529	32.9	28.3
2025-08-14T15:14	10	103	0.2	103	103	524	1.5	522	527	32.8	27.8
2025-08-14T15:15	10	103	0.2	102	103	523	1.1	521	525	32.6	27.8
2025-08-14T15:16	10	102	0.2	102	102	522	1.1	521	525	32.9	28.0
2025-08-14T15:17	10	102	0.2	101	102	523	0.4	522	523	32.8	28.2
2025-08-14T15:18	10	101	0.2	101	101	522	0.9	521	524	32.8	28.4
2025-08-14T15:19	10	101	0.1	101	101	524	0.6	523	525	33.0	28.1
2025-08-14T15:20	10	100	0.2	100	101	522	1.2	519	523	32.8	27.8
2025-08-14T15:21	10	100	0.2	99	100	521	1.2	519	523	32.9	27.8
2025-08-14T15:22	10	99	0.2	99	100	523	1.0	521	524	32.8	28.0
2025-08-14T15:23	10	99	0.1	98	99	526	0.6	524	526	33.0	28.4
2025-08-14T15:24	10	99	0.1	98	99	525	1.3	523	527	33.1	28.4
2025-08-14T15:25	10	98	0.2	98	99	523	0.9	522	525	32.9	28.8
2025-08-14T15:26	10	98	0.2	97	98	522	0.6	521	523	32.8	29.1
2025-08-14T15:27	10	97	0.2	97	98	522	0.8	521	524	32.5	28.9
2025-08-14T15:28	10	97	0.1	97	97	523	0.8	521	524	32.5	28.9
2025-08-14T15:29	10	97	0.2	96	97	522	0.8	521	523	32.7	28.8
2025-08-14T15:30	10	96	0.3	95	96	520	1.8	517	522	32.8	29.0
2025-08-14T15:31	10	95	0.3	95	96	516	0.8	515	518	32.6	29.2
2025-08-14T15:32	10	95	0.2	94	95	518	0.5	517	519	32.7	28.8
2025-08-14T15:33	10	94	0.1	94	94	519	0.6	518	521	32.8	28.9
2025-08-14T15:34	10	94	0.2	93	94	517	0.8	516	519	32.6	29.1
2025-08-14T15:35	10	93	0.2	93	94	516	0.3	515	517	32.4	29.1
2025-08-14T15:36	10	93	0.2	92	93	517	0.8	516	518	32.4	29.4
2025-08-14T15:37	10	92	0.2	92	93	518	0.7	517	519	32.6	29.6
2025-08-14T15:38	10	92	0.2	91	92	517	0.8	515	518	32.7	29.5
2025-08-14T15:39	10	91	0.2	91	92	516	0.6	515	518	32.5	29.5
2025-08-14T15:40	10	91	0.2	90	91	518	0.3	517	518	32.6	29.6
2025-08-14T15:41	10	90	0.2	90	91	518	0.4	517	519	32.8	30.0
2025-08-14T15:42	10	90	0.2	90	90	518	0.4	517	519	32.9	29.5
2025-08-14T15:43	10	90	0.2	89	90	518	0.9	516	519	32.8	29.6
2025-08-14T15:44	10	89	0.2	89	89	516	0.7	515	517	32.6	29.7
2025-08-14T15:45	10	89	0.2	88	89	514	0.4	514	515	32.7	29.6
2025-08-14T15:46	10	88	0.2	88	88	515	0.3	514	515	32.7	29.8
2025-08-14T15:47	10	88	0.2	87	88	514	0.5	513	515	32.5	29.9
2025-08-14T15:48	10	87	0.2	87	87	515	1.1	513	517	32.5	30.1
2025-08-14T15:49	10	87	0.2	86	87	516	0.3	516	517	32.9	30.3
2025-08-14T15:50	10	86	0.2	86	87	515	0.6	514	517	32.8	29.9
2025-08-14T15:51	10	86	0.1	86	86	515	0.6	514	516	32.7	30.1
2025-08-14T15:52	10	86	0.2	85	86	513	0.6	512	515	32.6	29.2
2025-08-14T15:53	10	85	0.2	84	85	514	0.4	513	515	32.5	29.3
2025-08-14T15:54	10	84	0.2	84	85	515	0.3	514	515	32.5	29.1
2025-08-14T15:55	10	84	0.2	84	84	516	0.5	515	516	32.5	29.6
2025-08-14T15:56	10	83	0.1	83	84	516	0.3	515	517	32.8	30.0
2025-08-14T15:57	10	83	0.2	83	84	516	0.4	515	517	32.9	30.4
2025-08-14T15:58	10	82	0.2	82	83	515	0.4	514	516	33.0	30.2
2025-08-14T15:59	10	82	0.1	82	82	514	0.8	513	516	32.9	30.2
2025-08-14T16:00	10	82	0.1	81	82	515	0.7	513	516	33.0	30.1
2025-08-14T16:01	10	81	0.2	81	82	511	1.7	509	514	32.7	29.7
2025-08-14T16:02	10	81	0.2	80	81	510	0.5	509	511	32.6	29.9
2025-08-14T16:03	10	80	0.2	80	81	509	0.6	508	510	32.5	29.6
2025-08-14T16:04	10	80	0.2	79	80	509	0.4	508	510	32.6	29.9
2025-08-14T16:05	10	79	0.2	78	79	509	0.4	508	510	32.6	29.9
2025-08-14T16:06	10	78	0.2	78	79	508	0.8	507	509	32.6	30.0
2025-08-14T16:07	10	78	0.2	77	78	509	0.5	508	510	32.6	30.2
2025-08-14T16:08	10	77	0.2	76	77	506	0.8	505	508	32.5	30.4
2025-08-14T16:09	10	76	0.2	76	77	506	0.3	505	507	32.4	30.4
2025-08-14T16:10	10	76	0.1	75	76	507	0.6	506	508	32.6	30.5
2025-08-14T16:11	10	75	0.2	75	76	507	0.3	507	508	32.5	30.3
2025-08-14T16:12	10	75	0.2	74	75	506	0.6	505	507	32.5	30.6
2025-08-14T16:13	10	74	0.2	74	75	505	0.7	504	506	32.3	30.3
2025-08-14T16:14	10	74	0.1	73	74	506	0.5	505	507	32.3	30.5
2025-08-14T16:15	10	73	0.1	73	74	505	0.5	504	506	32.3	30.7
2025-08-14T16:16	10	73	0.1	73	73	507	0.5	505	508	32.4	30.9
2025-08-14T16:17	10	73	0.2	72	73	505	0.4	505	506	32.5	31.4
2025-08-14T16:18	10	72	0.2	72	73	505	0.5	504	506	32.6	31.5
2025-08-14T16:19	10	71	0.3	71	72	503	0.4	503	504	32.6	31.4
2025-08-14T16:20	10	71	0.2	70	71	505	0.4	504	506	32.8	31.4
2025-08-14T16:21	10	70	0.2	70	71	505	0.4	504	505	32.7	30.8
2025-08-14T16:22	10	70	0.1	70	70	505	0.2	505	505	32.7	31.1
2025-08-14T16:23	10	69	0.2	69	70	503	1.3	501	506	32.6	31.3
2025-08-14T16:24	10	69	0.2	68	69	502	0.3	501	502	32.4	31.7
2025-08-14T16:25	10	68	0.2	68	69	502	0.4	501	503	32.4	31.5
2025-08-14T16:26	10	68	0.2	67	68	501	0.4	501	502	32.4	31.5
2025-08-14T16:27	10	67	0.2	66	67	501	0.3	500	501	32.4	31.3
2025-08-14T16:28	10	66	0.2	66	67	500	0.3	499	501	32.5	31.0
2025-08-14T16:29	10	66	0.2	65	66	501	0.3	500	501	32.5	30.7
2025-08-14T16:30	10	65	0.2	65	66	501	0.3	500	501	32.5	30.8
2025-08-14T16:31	10	65	0.1	65	65	501	0.5	500	502	32.5	31.2
2025-08-14T16:32	10	64	0.2	64	65	500	0.3	500	501	32.4	31.3
2025-08-14T16:33	10	64	0.2	63	64	500	0.5	500	502	32.4	31.3
2025-08-14T16:34	10	63	0.1	63	63	500	0.6	499	501	32.5	31.5
2025-08-14T16:35	10	63	0.2	62	63	499	0.3	498	499	32.4	31.4
2025-08-14T16:36	10	62	0.2	62	62	498	0.5	497	499	32.4	31.2
2025-08-14T16:37	10	62	0.2	61	62	498	0.2	498	499	32.4	31.6
2025-08-14T16:38	10	61	0.2	61	61	498	0.3	498	499	32.4	31.3
2025-08-14T16:39	10	61	0.2	60	61	498	0.3	497	499	32.4	31.4
2025-08-14T16:40	10	60	0.2	60	60	497	0.4	496	498	32.3	31.5
2025-08-14T16:41	10	59	0.2	59	60	497	0.4	496	498	32.4	32.0
2025-08-14T16:42	10	59	0.2	58	59	497	0.5	496	498	32.4	31.9
2025-08-14T16:43	10	58	0.2	58	59	495	0.4	494	496	32.3	32.2
2025-08-14T16:44	10	57	0.2	57	58	495	0.4	494	496	32.4	32.3
2025-08-14T16:45	10	57	0.2	56	57	495	0.3	494	496	32.3	32.7
2025-08-14T16:46	10	56	0.2	56	57	495	0.3	494	496	32.3	32.9
2025-08-14T16:47	10	55	0.2	55	56	493	0.5	492	494	32.1	32.7
2025-08-14T16:48	10	55	0.2	54	55	493	0.3	493	494	32.2	33.4
2025-08-14T16:49	10	54	0.2	54	55	493	0.4	491	493	32.1	33.1
2025-08-14T16:50	10	54	0.2	53	54	491	0.5	490	492	32.1	32.9
2025-08-14T16:51	10	53	0.2	53	53	490	0.2	490	491	32.0	33.0
2025-08-14T16:52	10	52	0.2	52	53	491	0.2	490	491	32.0	32.8
2025-08-14T16:53	10	52	0.1	52	52	490	0.2	490	490	32.0	32.7
2025-08-14T16:54	10	52	0.2	51	52	491	0.3	490	491	32.0	33.0
2025-08-14T16:55	10	51	0.1	51	51	490	0.3	489	491	32.0	33.0
2025-08-14T16:56	10	51	0.2	50	51	490	0.3	489	490	32.0	33.0
2025-08-14T16:57	10	50	0.2	50	50	490	0.2	489	490	32.0	33.0
2025-08-14T16:58	10	49	0.1	49	50	489	0.3	489	490	32.0	33.3
2025-08-14T16:59	10	49	0.2	48	49	489	0.3	488	489	32.0	33.0
2025-08-14T17:00	10	48	0.2	48	49	488	0.2	488	489	32.0	33.2
2025-08-14T17:01	10	48	0.2	47	48	488	0.5	487	488	32.0	32.8
2025-08-14T17:02	10	47	0.2	47	47	487	0.2	487	488	31.9	32.7
2025-08-14T17:03	10	47	0.2	46	47	487	0.3	487	488	32.0	33.1
2025-08-14T17:04	10	46	0.2	46	46	487	0.3	486	487	32.0	33.3
2025-08-14T17:05	10	45	0.2	45	46	486	0.3	485	487	31.9	33.8
2025-08-14T17:06	10	45	0.2	45	45	486	0.3	485	486	31.9	34.0
2025-08-14T17:07	10	44	0.2	44	45	485	0.2	485	486	31.9	34.0
2025-08-14T17:08	10	44	0.2	43	44	485	0.3	484	485	31.8	33.9
2025-08-14T17:09	10	43	0.2	43	44	485	0.2	484	485	31.8	34.1
2025-08-14T17:10	10	43	0.2	42	43	484	0.3	483	484	31.7	34.0
2025-08-14T17:11	10	42	0.3	42	43	483	0.5	482	484	31.7	34.3
2025-08-14T17:12	10	41	0.3	41	42	482	0.2	482	483	31.6	34.5
2025-08-14T17:13	10	41	0.2	40	41	482	0.3	482	483	31.6	34.8
2025-08-14T17:14	10	40	0.2	40	40	482	0.2	482	483	31.6	34.9
2025-08-14T17:15	10	40	0.2	39	40	482	0.2	482	483	31.6	35.4
2025-08-14T17:16	10	39	0.2	39	39	482	0.2	482	483	31.6	35.7
2025-08-14T17:17	10	39	0.2	38	39	481	0.4	481	482	31.5	35.8
2025-08-14T17:18	10	38	0.3	37	38	481	0.2	480	481	31.5	35.2
2025-08-14T17:19	10	37	0.2	37	38	480	0.3	479	481	31.5	35.3
2025-08-14T17:20	10	37	0.2	36	37	480	0.2	479	481	31.5	35.6
2025-08-14T17:21	10	36	0.2	36	37	479	0.2	479	480	31.4	35.9
2025-08-14T17:22	10	36	0.2	35	36	479	0.3	479	480	31.4	35.5
2025-08-14T17:23	10	35	0.2	35	36	479	0.3	478	479	31.4	35.9
2025-08-14T17:24	10	35	0.2	34	35	479	0.3	478	479	31.4	36.3
2025-08-14T17:25	10	34	0.2	34	34	478	0.2	477	479	31.3	36.7
2025-08-14T17:26	10	33	0.2	33	34	478	0.3	477	478	31.3	36.8
2025-08-14T17:27	10	33	0.2	33	33	477	0.2	476	477	31.3	37.0
2025-08-14T17:28	10	32	0.2	32	33	477	0.3	476	477	31.3	36.8
2025-08-14T17:29	10	32	0.2	31	32	476	0.2	476	477	31.3	36.7
2025-08-14T17:30	10	31	0.2	31	32	476	0.2	475	476	31.3	36.6
2025-08-14T17:31	10	31	0.2	31	31	476	0.2	475	476	31.3	36.6
2025-08-14T17:32	10	30	0.2	30	31	475	0.3	475	476	31.2	36.5
2025-08-14T17:33	10	30	0.1	30	30	475	0.2	474	475	31.2	36.8
2025-08-14T17:34	10	29	0.2	29	30	475	0.3	474	475	31.2	36.7
2025-08-14T17:35	10	29	0.2	28	29	474	0.2	474	475	31.1	36.7
2025-08-14T17:36	10	28	0.2	28	29	474	0.2	473	474	31.2	36.6
2025-08-14T17:37	10	28	0.2	27	28	473	0.2	473	474	31.1	36.8
2025-08-14T17:38	10	27	0.2	27	27	473	0.2	473	474	31.1	36.8
2025-08-14T17:39	10	27	0.2	26	27	472	0.2	472	473	31.0	37.1
2025-08-14T17:40	10	26	0.1	26	26	472	0.3	471	473	31.0	37.5
2025-08-14T17:41	10	26	0.2	25	26	472	0.2	471	472	30.9	37.7
2025-08-14T17:42	10	25	0.2	25	26	471	0.3	471	472	30.9	37.9
2025-08-14T17:43	10	25	0.2	24	25	471	0.3	471	472	30.9	37.7
2025-08-14T17:44	10	24	0.2	24	25	471	0.2	470	472	30.9	37.3
2025-08-14T17:45	10	24	0.2	23	24	470	0.2	470	471	30.9	37.5
2025-08-14T17:46	10	23	0.2	23	23	470	0.2	470	471	30.9	37.3
2025-08-14T17:47	10	23	0.2	22	23	470	0.3	469	471	30.9	37.1
2025-08-14T17:48	10	22	0.2	22	22	470	0.3	469	470	30.9	37.2
2025-08-14T17:49	10	22	0.2	21	22	469	0.3	468	470	30.8	37.7
2025-08-14T17:50	10	21	0.1	21	21	469	0.3	468	470	30.8	37.1
2025-08-14T17:51	10	21	0.2	20	21	469	0.2	468	469	30.9	36.9
2025-08-14T17:52	10	20	0.2	20	20	468	0.2	468	469	30.8	37.2
2025-08-14T17:53	10	20	0.2	19	20	468	0.3	467	468	30.7	37.4
2025-08-14T17:54	10	19	0.2	19	20	467	0.2	467	468	30.7	37.4
2025-08-14T17:55	10	19	0.2	18	19	467	0.2	466	467	30.7	37.8
2025-08-14T17:56	10	18	0.1	18	19	466	0.3	466	467	30.6	38.0
2025-08-14T17:57	10	18	0.1	18	18	466	0.2	465	466	30.6	38.3
2025-08-14T17:58	10	18	0.2	17	18	465	0.2	465	466	30.6	38.1
2025-08-14T17:59	10	17	0.2	17	17	465	0.2	464	465	30.6	38.0
2025-08-14T18:00	10	17	0.2	16	17	464	0.2	464	465	30.5	38.3
2025-08-14T18:01	10	16	0.2	16	17	464	0.3	463	465	30.5	38.5
2025-08-14T18:02	10	16	0.3	16	17	463	0.3	463	464	30.4	38.7
2025-08-14T18:03	10	16	0.3	15	17	463	0.3	462	463	30.4	38.8
2025-08-14T18:04	10	15	0.3	15	16	462	0.3	462	463	30.4	38.8
2025-08-14T18:05	10	15	0.3	14	15	462	0.2	462	463	30.5	38.4
2025-08-14T18:06	10	14	0.2	14	15	462	0.2	461	462	30.4	38.7
2025-08-14T18:07	10	14	0.2	13	15	461	0.2	461	462	30.4	39.1
2025-08-14T18:08	10	13	0.3	13	14	460	0.3	460	462	30.3	39.2
2025-08-14T18:09	10	13	0.2	12	13	460	0.2	459	460	30.3	39.4
2025-08-14T18:10	10	12	0.2	12	13	460	0.2	459	460	30.2	39.4
2025-08-14T18:11	10	12	0.2	12	12	459	0.2	459	460	30.2	39.5
2025-08-14T18:12	10	11	0.2	11	12	459	0.2	458	459	30.2	39.4
2025-08-14T18:13	10	11	0.2	11	11	458	0.2	458	459	30.2	39.5
2025-08-14T18:14	10	11	0.2	10	11	458	0.2	457	458	30.2	39.3
2025-08-14T18:15	10	10	0.2	10	11	458	0.2	457	458	30.2	39.3
2025-08-14T18:16	10	10	0.2	9	10	457	0.3	457	458	30.3	38.9
2025-08-14T18:17	10	9	0.1	9	9	457	0.3	457	458	30.3	39.2
2025-08-14T18:18	10	9	0.1	8	9	457	0.3	456	457	30.2	39.2
2025-08-14T18:19	10	8	0.1	8	9	457	0.3	457	458	30.3	38.9
2025-08-14T18:20	10	8	0.1	8	8	457	0.2	457	458	30.3	38.9
2025-08-14T18:21	10	8	0.2	7	8	457	0.4	457	459	30.3	39.0
2025-08-14T18:22	10	7	0.2	7	7	458	0.2	457	458	30.3	38.9
2025-08-14T18:23	10	7	0.1	7	7	457	0.2	457	458	30.3	39.4
2025-08-14T18:24	10	6	0.2	6	7	457	0.2	457	458	30.3	39.8
2025-08-14T18:25	10	6	0.2	6	7	456	0.3	456	457	30.2	40.2
2025-08-14T18:26	10	6	0.2	5	6	455	0.4	454	456	30.2	40.3
2025-08-14T18:27	10	5	0.2	5	6	454	0.3	453	454	30.2	40.2
2025-08-14T18:28	10	5	0.1	5	5	453	0.3	453	454	30.2	40.3
2025-08-14T18:29	10	5	0.2	4	5	453	0.4	452	453	30.1	40.8
2025-08-14T18:30	10	4	0.1	4	5	452	0.3	452	453	30.1	41.0
2025-08-14T18:31	10	4	0.2	4	4	451	0.3	451	452	30.1	41.3
2025-08-14T18:32	10	4	0.1	4	4	451	0.2	451	452	30.1	41.5
2025-08-14T18:33	10	4	0.1	3	4	450	0.3	449	451	30.0	41.7
2025-08-14T18:34	10	3	0.1	3	4	450	0.2	449	450	30.0	41.9
2025-08-14T18:35	10	3	0.1	3	4	450	0.5	449	451	30.0	41.8
2025-08-14T18:36	10	3	0.1	3	3	451	0.5	450	452	30.0	42.0
2025-08-14T18:37	10	3	0.1	2	3	451	0.3	451	452	30.0	42.1
2025-08-14T18:38	10	3	0.1	2	3	450	0.3	450	451	29.8	42.5
2025-08-14T18:39	10	2	0.1	2	3	449	0.4	449	450	29.8	42.7
2025-08-14T18:40	10	2	0.1	2	2	449	0.2	448	449	29.7	42.9
2025-08-14T18:41	10	2	0.1	2	2	448	0.3	447	449	29.7	43.1
2025-08-14T18:42	10	2	0.1	2	2	447	0.3	446	447	29.6	43.2
2025-08-14T18:43	10	2	0.1	2	2	446	0.5	445	447	29.6	43.6
2025-08-14T18:44	10	2	0.1	1	2	445	0.2	444	446	29.4	44.2
2025-08-14T18:45	10	1	0.1	1	2	445	0.2	444	445	29.3	44.2
2025-08-14T18:46	10	1	0.2	1	2	444	0.3	444	445	29.3	44.1
2025-08-14T18:47	10	1	0.1	1	1	444	0.2	443	444	29.3	43.7
2025-08-14T18:48	10	1	0.2	0	2	443	0.4	442	444	29.3	43.7
2025-08-14T18:49	10	1	0.2	0	1	443	0.3	442	443	29.2	43.5
2025-08-14T18:50	10	1	0.2	0	2	442	0.3	441	443	29.1	43.7
2025-08-14T18:51	10	1	0.2	0	1	441	0.3	441	442	28.7	45.6
2025-08-14T18:52	10	0	0.2	0	1	442	0.2	441	442	28.8	43.8
2025-08-14T18:53	10	0	0.1	0	1	441	0.2	440	441	28.9	43.3
2025-08-14T18:54	10	0	0.1	0	0	440	0.2	440	441	28.9	43.8
2025-08-14T18:55	10	0	0.1	0	1	441	0.3	440	441	28.8	44.0
2025-08-14T18:56	10	0	0.1	0	0	441	0.2	440	441	28.8	43.5
2025-08-14T18:57	10	0	0.1	0	0	440	0.3	440	441	28.8	43.4
2025-08-14T18:58	10	0	0.1	0	0	440	0.2	440	441	28.9	43.1
2025-08-14T18:59	10	0	0.1	0	0	440	0.2	440	441	28.9	43.0
2025-08-14T19:00	10	0	0.1	0	0	439	0.2	439	440	28.9	43.3
2025-08-14T19:01	10	0	0.1	0	0	439	0.3	438	440	28.8	43.5
2025-08-14T19:02	10	0	0.1	0	0	438	0.3	438	439	28.5	44.8
2025-08-14T19:03	10	0	0.1	0	0	439	0.3	438	439	28.5	44.3
2025-08-14T19:04	10	0	0.1	0	0	438	0.2	438	439	28.4	45.2
2025-08-14T19:05	10	0	0.1	0	0	437	0.3	437	438	28.3	45.2
2025-08-14T19:06	10	0	0.1	0	0	438	0.2	437	438	28.2	46.0
2025-08-14T19:07	10	0	0.1	0	0	439	0.5	437	440	28.2	45.4
2025-08-14T19:08	10	0	0.1	0	0	439	0.3	438	439	28.4	44.8
2025-08-14T19:09	10	0	0.1	0	0	439	0.3	438	439	28.3	44.7
2025-08-14T19:10	10	0	0.1	0	0	438	0.2	438	439	28.3	44.9
2025-08-14T19:11	10	0	0.1	0	0	438	0.2	438	439	28.1	45.5
2025-08-14T19:12	10	0	0.1	0	0	438	0.4	437	439	28.0	45.8
2025-08-14T19:13	10	0	0.1	0	0	438	0.3	437	438	27.9	46.4
2025-08-14T19:14	10	0	0.1	0	0	438	0.3	437	438	27.9	46.5
2025-08-14T19:15	10	0	0.1	0	0	437	0.3	436	438	27.8	46.8
2025-08-14T19:16	10	0	0.1	0	0	437	0.2	436	437	27.6	47.2
2025-08-14T19:17	10	0	0.1	0	0	436	0.3	435	437	27.5	48.0
2025-08-14T19:18	10	0	0.1	0	0	436	0.2	435	436	27.4	48.5
2025-08-14T19:19	10	0	0.1	0	0	435	0.2	435	436	27.3	48.9
2025-08-14T19:20	10	0	0.1	0	0	435	0.2	434	435	27.3	49.1
2025-08-14T19:21	10	0	0.1	0	0	435	0.2	434	435	27.2	49.4
2025-08-14T19:22	10	0	0.1	0	0	434	0.2	434	435	27.2	49.2
2025-08-14T19:23	10	0	0.1	0	0	434	0.2	434	434	27.3	48.5
2025-08-14T19:24	10	0	0.1	0	0	434	0.3	433	435	27.3	48.8
2025-08-14T19:25	10	0	0.1	0	0	434	0.3	433	434	27.1	49.7
2025-08-14T19:26	10	0	0.1	0	0	433	0.2	433	434	27.0	49.7
2025-08-14T19:27	10	0	0.1	0	0	433	0.3	432	433	27.0	49.2
2025-08-14T19:28	10	0	0.1	0	0	433	0.2	432	433	27.2	47.7
2025-08-14T19:29	10	0	0.2	0	1	432	0.3	431	433	27.4	47.2
2025-08-14T19:30	10	0	0.1	0	0	432	0.2	432	433	27.5	46.4
2025-08-14T19:31	10	0	0.2	0	1	432	0.3	431	433	27.5	46.5
2025-08-14T19:32	10	0	0.2	0	1	432	0.2	431	432	27.6	46.3
2025-08-14T19:33	10	0	0.1	0	0	432	0.2	432	432	27.8	45.3
2025-08-14T19:34	10	0	0.2	0	1	432	0.3	431	432	27.9	45.0
2025-08-14T19:35	10	0	0.1	0	1	432	0.3	431	432	27.8	45.1
2025-08-14T19:36	10	0	0.1	0	0	431	0.3	431	432	27.8	45.3
2025-08-14T19:37	10	0	0.1	0	0	431	0.3	430	432	27.9	44.8
2025-08-14T19:38	10	0	0.1	0	0	431	0.3	430	431	27.7	45.9
2025-08-14T19:39	10	0	0.1	0	0	430	0.5	429	431	27.5	46.9
2025-08-14T19:40	10	0	0.1	0	0	430	0.2	429	430	27.3	48.1
2025-08-14T19:41	10	0	0.1	0	0	430	0.2	429	430	27.2	48.0
2025-08-14T19:42	10	0	0.1	0	0	429	0.3	429	430	27.1	48.6
2025-08-14T19:43	10	0	0.1	0	0	429	0.3	428	429	26.9	49.4
2025-08-14T19:44	10	0	0.1	0	0	429	0.3	428	429	26.7	50.7
2025-08-14T19:45	10	0	0.1	0	0	429	0.2	428	429	26.6	50.6
2025-08-14T19:46	10	0	0.1	0	0	428	0.3	428	429	26.7	50.3
2025-08-14T19:47	10	0	0.1	0	0	428	0.2	427	429	26.5	51.1
2025-08-14T19:48	10	0	0.1	0	0	428	0.4	427	429	26.5	50.9
2025-08-14T19:49	10	0	0.1	0	0	428	0.3	427	428	26.6	50.3
2025-08-14T19:50	10	0	0.1	0	0	427	0.3	427	428	26.5	50.7
2025-08-14T19:51	10	0	0.1	0	0	427	0.5	426	428	26.4	51.1
2025-08-14T19:52	10	0	0.1	0	0	427	0.3	427	428	26.5	50.5
2025-08-14T19:53	10	0	0.1	0	0	427	0.4	426	428	26.6	50.6
2025-08-14T19:54	10	0	0.1	0	0	427	0.3	426	427	26.5	50.9
2025-08-14T19:55	10	0	0.1	0	0	427	0.2	426	427	26.6	50.3
2025-08-14T19:56	10	0	0.1	0	0	427	0.3	426	427	26.6	50.3
2025-08-14T19:57	10	0	0.1	0	0	427	0.3	426	427	26.7	50.2
2025-08-14T19:58	10	0	0.1	0	0	427	0.2	426	427	26.6	50.4
2025-08-14T19:59	10	0	0.1	0	0	427	0.2	426	428	26.5	50.8
2025-08-14T20:00	10	0	0.1	0	0	427	0.2	427	428	26.6	50.6
2025-08-14T20:01	10	0	0.1	0	0	427	0.5	427	428	26.6	50.8
2025-08-14T20:02	10	0	0.1	0	0	428	0.3	427	429	26.8	49.8
2025-08-14T20:03	10	0	0.1	0	0	428	0.3	427	429	26.9	49.3
2025-08-14T20:04	10	0	0.1	0	0	428	0.3	427	429	26.9	49.9
2025-08-14T20:05	10	0	0.0	0	0	427	0.4	427	428	26.9	49.8
2025-08-14T20:06	10	0	0.0	0	0	428	0.6	426	429	27.0	49.0
2025-08-14T20:07	10	0	0.1	0	0	428	0.3	427	428	27.0	49.3
2025-08-14T20:08	10	0	0.0	0	0	428	0.5	427	429	26.9	49.6
2025-08-14T20:09	10	0	0.1	0	0	428	0.2	428	428	27.1	49.1
2025-08-14T20:10	10	0	0.0	0	0	427	0.5	427	428	27.1	49.2
2025-08-14T20:11	10	0	0.1	0	0	427	0.3	426	428	26.9	49.8
2025-08-14T20:12	10	0	0.0	0	0	426	0.3	426	427	26.8	49.9
2025-08-14T20:13	10	0	0.0	0	0	427	0.3	426	427	26.7	50.3
2025-08-14T20:14	10	0	0.1	0	0	426	0.3	426	427	26.6	50.7
2025-08-14T20:15	10	0	0.1	0	0	427	0.2	426	427	26.5	50.9
2025-08-14T20:16	10	0	0.1	0	0	427	0.2	426	427	26.5	51.1
2025-08-14T20:17	10	0	0.1	0	0	427	0.2	427	428	26.5	51.2
2025-08-14T20:18	10	0	0.1	0	1	427	0.2	427	428	26.5	51.1
2025-08-14T20:19	10	0	0.2	0	1	428	0.5	427	429	26.6	50.7
2025-08-14T20:20	10	0	0.2	0	1	428	0.6	426	429	26.7	50.3
2025-08-14T20:21	10	0	0.2	0	1	427	0.3	426	427	26.5	51.2
2025-08-14T20:22	10	0	0.2	-1	1	428	0.4	426	428	26.3	51.8
2025-08-14T20:23	10	0	0.2	0	1	428	0.2	427	428	26.2	52.5
2025-08-14T20:24	10	0	0.2	0	1	428	0.2	427	428	26.0	53.4
2025-08-14T20:25	10	0	0.1	0	0	428	0.3	427	428	25.9	53.8
2025-08-14T20:26	10	0	0.2	0	1	427	0.2	427	428	25.6	55.8
2025-08-14T20:27	10	0	0.1	0	0	427	0.3	426	428	25.4	56.2
2025-08-14T20:28	10	0	0.1	0	0	427	0.2	426	427	25.5	55.2
2025-08-14T20:29	10	0	0.1	0	0	426	0.2	425	426	25.5	55.0
2025-08-14T20:30	10	0	0.1	0	0	427	0.4	426	428	25.5	54.8
2025-08-14T20:31	10	0	0.1	0	0	427	0.3	427	428	25.6	53.4
2025-08-14T20:32	10	0	0.1	0	0	428	0.5	427	429	25.6	53.1
2025-08-14T20:33	10	0	0.1	0	0	428	0.2	427	428	25.9	51.7
2025-08-14T20:34	10	0	0.1	0	0	428	0.2	428	429	26.0	51.1
2025-08-14T20:35	10	0	0.1	0	0	428	0.3	428	429	26.0	51.5
2025-08-14T20:36	10	0	0.1	0	0	427	0.4	426	428	25.9	52.3
2025-08-14T20:37	10	0	0.0	0	0	427	0.3	426	427	25.8	52.2
2025-08-14T20:38	10	0	0.1	0	0	426	0.2	426	427	26.0	51.0
2025-08-14T20:39	10	0	0.1	0	0	426	0.3	425	426	26.0	50.8
2025-08-14T20:40	10	0	0.1	0	0	426	0.3	425	426	26.1	50.1
2025-08-14T20:41	10	0	0.0	0	0	425	0.5	424	426	26.1	50.6
2025-08-14T20:42	10	0	0.1	0	0	424	0.3	423	425	25.9	51.3
2025-08-14T20:43	10	0	0.1	0	0	423	0.3	422	424	25.9	50.8
2025-08-14T20:44	10	0	0.1	0	0	423	0.4	422	424	26.0	49.7
2025-08-14T20:45	10	0	0.1	0	0	423	0.3	423	424	26.3	44.8
2025-08-14T20:46	10	0	0.1	0	0	423	0.3	422	423	26.5	44.7
2025-08-14T20:47	10	0	0.1	0	0	423	0.3	422	423	26.5	44.6
2025-08-14T20:48	10	0	0.1	0	0	423	0.4	422	423	26.6	44.2
2025-08-14T20:49	10	0	0.1	0	0	422	0.3	421	423	26.5	45.0
2025-08-14T20:50	10	0	0.1	0	0	423	0.3	422	423	26.6	43.9
2025-08-14T20:51	10	0	0.1	0	0	423	0.3	422	423	26.6	43.5
2025-08-14T20:52	10	0	0.1	0	0	423	0.3	422	424	26.7	42.8
2025-08-14T20:53	10	0	0.1	0	0	424	0.4	423	425	26.6	43.2
2025-08-14T20:54	10	0	0.1	0	0	424	0.2	423	424	26.7	42.2
2025-08-14T20:55	10	0	0.2	0	0	424	0.5	423	425	26.6	43.6
2025-08-14T20:56	10	0	0.1	0	0	424	0.2	423	424	26.5	44.2
2025-08-14T20:57	10	0	0.1	0	0	423	0.4	423	424	26.4	44.7
2025-08-14T20:58	10	0	0.1	0	0	422	0.7	421	423	25.9	48.9
2025-08-14T20:59	10	0	0.1	0	0	422	0.5	421	423	25.7	50.0
2025-08-14T21:00	10	0	0.1	0	0	422	0.6	421	423	25.4	52.3
2025-08-14T21:01	10	0	0.1	0	0	421	0.3	421	422	25.1	54.3
2025-08-14T21:02	10	0	0.1	0	0	422	0.3	421	422	25.4	53.0
2025-08-14T21:03	10	0	0.1	0	0	421	0.5	420	421	25.5	52.5
2025-08-14T21:04	10	0	0.1	0	0	419	0.2	419	420	25.3	54.0
2025-08-14T21:05	10	0	0.1	0	0	419	0.3	418	419	25.4	52.8
2025-08-14T21:06	10	0	0.1	0	0	418	0.4	417	419	25.3	53.4
2025-08-14T21:07	10	0	0.1	0	0	418	0.3	417	419	25.2	53.5
2025-08-14T21:08	10	0	0.1	0	0	418	0.3	417	419	25.1	53.0
2025-08-14T21:09	10	0	0.1	0	0	418	0.3	417	418	25.1	53.0
2025-08-14T21:10	10	0	0.1	0	0	416	0.7	415	417	25.1	53.0
2025-08-14T21:11	10	0	0.1	0	0	416	0.3	415	417	25.1	51.2
2025-08-14T21:12	10	0	0.1	0	0	416	0.2	416	416	24.9	52.1
2025-08-14T21:13	10	0	0.1	0	0	416	0.2	415	416	25.1	53.0
2025-08-14T21:14	10	0	0.1	0	0	416	0.2	415	416	25.1	53.0
2025-08-14T21:15	10	0	0.1	0	0	415	0.2	415	416	25.1	53.0
2025-08-14T21:16	10	0	0.1	0	0	416	0.3	415	416	24.9	54.0
2025-08-14T21:17	10	0	0.1	0	0	416	0.4	415	416	24.7	54.7
2025-08-14T21:18	10	0	0.1	0	0	416	0.2	415	416	24.8	54.5
2025-08-14T21:19	10	0	0.1	0	0	415	0.2	415	415	24.8	54.0
2025-08-14T21:20	10	0	0.1	0	0	415	0.2	414	415	24.8	54.3
2025-08-14T21:21	10	0	0.1	0	0	415	0.2	415	415	24.7	55.0
2025-08-14T21:22	10	0	0.1	0	0	415	0.2	415	415	24.6	55.5
2025-08-14T21:23	10	0	0.1	0	0	415	0.2	414	415	24.4	55.9
2025-08-14T21:24	10	0	0.1	0	0	415	0.2	414	415	24.4	56.4
2025-08-14T21:25	10	0	0.1	0	0	415	0.2	415	415	24.4	56.5
2025-08-14T21:26	10	0	0.1	0	0	415	0.3	414	415	24.3	56.6
2025-08-14T21:27	10	0	0.1	0	0	415	0.3	414	416	24.1	56.8
2025-08-14T21:28	10	0	0.1	0	0	415	0.2	415	416	24.1	56.6
2025-08-14T21:29	10	0	0.2	-1	1	415	0.3	414	415	24.0	57.3
2025-08-14T21:30	10	0	0.1	0	0	415	0.2	414	415	23.9	57.0
2025-08-14T21:31	10	0	0.2	0	0	415	0.4	414	417	24.0	56.3
2025-08-14T21:32	10	0	0.2	0	0	415	0.3	415	416	24.0	57.3
2025-08-14T21:33	10	0	0.2	0	0	416	0.4	415	417	24.0	57.2
2025-08-14T21:34	10	0	0.2	-1	1	416	0.3	415	417	24.2	55.9
2025-08-14T21:35	10	0	0.2	-1	1	416	0.6	415	417	24.4	52.2
2025-08-14T21:36	10	0	0.2	0	0	416	0.2	416	416	24.5	51.9
2025-08-14T21:37	10	0	0.2	-1	0	415	0.3	415	416	24.6	49.7
2025-08-14T21:38	10	0	0.2	0	1	415	0.2	414	415	24.7	49.6
2025-08-14T21:39	10	0	0.1	0	0	414	0.7	411	415	24.7	50.0
2025-08-14T21:40	10	0	0.1	0	0	412	0.3	411	412	24.2	56.0
2025-08-14T21:41	10	0	0.1	0	0	413	0.3	412	413	23.6	57.1
2025-08-14T21:42	10	0	0.1	0	0	413	0.4	412	414	23.8	53.7
2025-08-14T21:43	10	0	0.1	0	0	414	0.5	413	415	24.1	50.0
2025-08-14T21:44	10	0	0.1	0	0	413	0.3	413	414	24.5	47.6
2025-08-14T21:45	10	0	0.1	0	0	414	0.2	413	414	24.6	46.7
2025-08-14T21:46	10	0	0.1	0	0	413	0.3	412	414	24.7	47.3
2025-08-14T21:47	10	0	0.1	0	0	412	0.5	411	413	24.4	48.9
2025-08-14T21:48	10	0	0.1	0	1	413	0.3	412	413	24.0	51.1
2025-08-14T21:49	10	0	0.1	0	0	412	0.2	412	413	24.0	52.2
2025-08-14T21:50	10	0	0.1	0	0	412	0.2	412	413	24.0	51.2
2025-08-14T21:51	10	0	0.1	0	0	412	0.3	411	413	23.8	52.5
2025-08-14T21:52	10	0	0.1	0	0	412	0.2	411	412	23.6	53.3
2025-08-14T21:53	10	0	0.1	0	0	412	0.4	411	413	23.6	52.0
2025-08-14T21:54	10	0	0.1	0	0	412	0.5	411	413	23.9	49.8
2025-08-14T21:55	10	0	0.1	0	0	412	0.4	411	413	24.4	48.7
2025-08-14T21:56	10	0	0.1	0	0	411	1.0	409	413	24.3	48.8
2025-08-14T21:57	10	0	0.1	0	0	410	0.3	409	411	23.4	53.5
2025-08-14T21:58	10	0	0.1	0	0	411	0.3	410	412	23.3	52.7
2025-08-14T21:59	10	0	0.1	0	0	411	0.4	410	412	23.4	51.9
2025-08-14T22:00	10	0	0.1	0	0	410	0.4	409	411	23.7	49.9
2025-08-14T22:01	10	0	0.1	0	0	410	0.5	409	411	23.7	50.0
2025-08-14T22:02	10	0	0.1	0	0	410	0.3	409	410	23.6	51.0
2025-08-14T22:03	10	0	0.1	0	0	410	0.4	410	411	23.4	51.1
2025-08-14T22:04	10	0	0.1	0	0	412	0.6	411	413	23.2	53.5
2025-08-14T22:05	10	0	0.1	0	0	413	0.4	412	414	22.9	56.4
2025-08-14T22:06	10	0	0.1	0	0	415	0.3	414	416	22.9	58.3
2025-08-14T22:07	10	0	0.1	0	0	416	0.5	415	417	23.0	58.3
2025-08-14T22:08	10	0	0.1	0	0	417	0.3	416	417	23.2	57.5
2025-08-14T22:09	10	0	0.1	0	0	416	0.2	416	417	23.2	56.2
2025-08-14T22:10	10	0	0.1	0	0	417	0.4	416	418	23.4	54.4
2025-08-14T22:11	10	0	0.1	0	0	416	0.4	415	417	23.4	53.7
2025-08-14T22:12	10	0	0.1	0	0	416	0.3	415	416	23.4	54.3
2025-08-14T22:13	10	0	0.1	0	0	416	0.2	415	416	23.4	54.8
2025-08-14T22:14	10	0	0.1	0	0	415	0.3	414	416	23.4	54.8
2025-08-14T22:15	10	0	0.1	0	0	415	0.4	414	415	23.3	54.9
2025-08-14T22:16	10	0	0.1	0	0	414	0.4	413	415	23.1	55.8
2025-08-14T22:17	10	0	0.1	0	0	414	0.3	413	415	23.0	56.2
2025-08-14T22:18	10	0	0.1	0	0	413	0.2	413	414	22.9	56.4
2025-08-14T22:19	10	0	0.1	0	0	414	0.2	413	414	22.8	56.9
2025-08-14T22:20	10	0	0.1	0	0	414	0.3	413	415	22.8	57.4
2025-08-14T22:21	10	0	0.1	0	0	414	0.2	413	414	22.8	57.7
2025-08-14T22:22	10	0	0.1	0	0	414	0.2	413	414	22.8	58.0
2025-08-14T22:23	10	0	0.1	0	0	414	0.3	413	415	22.8	58.0
2025-08-14T22:24	10	0	0.1	0	0	413	0.5	412	414	22.7	58.3
2025-08-14T22:25	10	0	0.1	0	0	412	0.3	412	413	22.6	58.6
2025-08-14T22:26	10	0	0.1	0	0	413	0.3	412	413	22.7	57.9
2025-08-14T22:27	10	0	0.1	0	0	412	0.3	412	413	22.7	57.4
2025-08-14T22:28	10	0	0.1	0	0	412	0.3	412	413	23.0	55.5
2025-08-14T22:29	10	0	0.1	0	0	412	0.3	412	413	23.0	55.6
2025-08-14T22:30	10	0	0.1	0	0	412	0.3	411	412	22.9	55.4
2025-08-14T22:31	10	0	0.1	0	0	412	0.4	411	413	23.0	54.6
2025-08-14T22:32	10	0	0.1	0	0	412	0.3	412	413	23.2	53.0
2025-08-14T22:33	10	0	0.0	0	0	412	0.3	411	413	23.2	53.1
2025-08-14T22:34	10	0	0.1	0	0	413	0.3	412	413	23.3	52.2
2025-08-14T22:35	10	0	0.1	0	0	413	0.3	412	413	23.2	53.0
2025-08-14T22:36	10	0	0.1	0	0	413	0.3	412	414	23.3	52.7
2025-08-14T22:37	10	0	0.1	0	0	413	0.4	412	414	23.2	53.1
2025-08-14T22:38	10	0	0.1	0	1	413	0.4	412	413	23.1	54.1
2025-08-14T22:39	10	0	0.1	0	0	413	0.2	412	413	22.9	55.1
2025-08-14T22:40	10	0	0.1	0	1	413	0.2	413	414	22.9	54.6
2025-08-14T22:41	10	0	0.1	0	1	413	0.3	412	414	22.8	55.2
2025-08-14T22:42	10	0	0.2	0	1	414	0.4	413	415	22.8	54.6
2025-08-14T22:43	10	0	0.1	0	1	414	0.3	413	415	22.9	54.6
2025-08-14T22:44	10	0	0.2	0	1	415	0.4	414	416	22.9	53.8
2025-08-14T22:45	10	0	0.2	0	1	415	0.3	414	416	22.9	54.0
2025-08-14T22:46	10	0	0.2	0	1	415	0.3	415	416	22.9	53.9
2025-08-14T22:47	10	0	0.3	0	1	415	0.3	414	416	23.0	52.6
2025-08-14T22:48	10	0	0.2	0	1	416	0.3	415	417	23.2	51.8
2025-08-14T22:49	10	0	0.2	0	1	416	0.4	415	417	23.4	50.9
2025-08-14T22:50	10	0	0.2	0	1	416	0.3	416	417	23.5	50.1
2025-08-14T22:51	10	0	0.1	0	1	415	0.3	415	416	23.4	50.5
2025-08-14T22:52	10	0	0.1	0	1	415	0.2	415	416	23.5	49.9
2025-08-14T22:53	10	0	0.1	0	1	415	0.3	414	415	23.5	49.8
2025-08-14T22:54	10	0	0.1	0	1	415	0.2	415	416	23.5	50.0
2025-08-14T22:55	10	0	0.1	0	0	415	0.3	415	416	23.5	50.0
2025-08-14T22:56	10	0	0.1	0	1	415	0.2	415	416	23.4	50.4
2025-08-14T22:57	10	0	0.1	0	0	416	0.2	415	416	23.5	50.3
2025-08-14T22:58	10	0	0.1	0	0	415	0.3	414	416	23.5	49.8
2025-08-14T22:59	10	0	0.1	0	0	415	0.2	414	415	23.5	49.5
2025-08-14T23:00	10	0	0.1	0	0	415	0.2	414	415	23.6	48.7
2025-08-14T23:01	10	0	0.1	0	1	414	0.2	414	415	23.5	48.8
2025-08-14T23:02	10	0	0.1	0	1	414	0.3	413	414	23.5	48.6
2025-08-14T23:03	10	0	0.1	0	0	414	0.2	414	415	23.5	48.8
2025-08-14T23:04	10	0	0.0	0	0	415	0.2	414	415	23.5	48.6
2025-08-14T23:05	10	0	0.1	0	0	415	0.3	414	415	23.5	48.8
2025-08-14T23:06	10	0	0.0	0	0	414	0.3	413	415	23.4	48.8
2025-08-14T23:07	10	0	0.0	0	0	414	0.3	414	415	23.3	48.9
2025-08-14T23:08	10	0	0.0	0	0	414	0.2	414	415	23.5	48.2
2025-08-14T23:09	10	0	0.0	0	0	414	0.3	413	415	23.4	48.3
2025-08-14T23:10	10	0	0.0	0	0	414	0.2	414	415	23.4	48.3
2025-08-14T23:11	10	0	0.0	0	0	414	0.2	413	414	23.4	48.3
2025-08-14T23:12	10	0	0.0	0	0	413	0.4	412	414	23.5	48.0
2025-08-14T23:13	10	0	0.0	0	0	413	0.3	412	414	23.5	47.8
2025-08-14T23:14	10	0	0.1	0	0	413	0.2	413	413	23.6	47.5
2025-08-14T23:15	10	0	0.1	0	0	413	0.2	413	414	23.6	47.5
2025-08-14T23:16	10	0	0.1	0	0	413	0.3	413	414	23.6	47.5
2025-08-14T23:17	10	0	0.1	0	0	413	0.4	413	414	23.6	47.5
2025-08-14T23:18	10	0	0.1	0	0	414	0.3	413	414	23.6	47.5
2025-08-14T23:19	10	0	0.1	0	0	415	0.5	413	415	23.7	47.2
2025-08-14T23:20	10	0	0.1	0	0	415	0.2	415	416	23.8	47.0
2025-08-14T23:21	10	0	0.1	0	0	415	0.3	415	416	23.7	47.6
2025-08-14T23:22	10	0	0.1	0	0	415	0.3	414	416	23.5	48.2
2025-08-14T23:23	10	0	0.0	0	0	415	0.2	414	416	23.3	48.5
2025-08-14T23:24	10	0	0.0	0	0	415	0.5	414	416	23.5	48.1
2025-08-14T23:25	10	0	0.1	0	0	416	0.3	415	417	23.6	47.8
2025-08-14T23:26	10	0	0.1	0	0	416	0.3	415	416	23.5	48.3
2025-08-14T23:27	10	0	0.1	0	0	415	0.3	415	416	23.4	48.9
2025-08-14T23:28	10	0	0.1	0	0	415	0.2	414	415	23.1	49.8
2025-08-14T23:29	10	0	0.1	0	0	414	0.4	413	415	23.0	50.3
2025-08-14T23:30	10	0	0.1	0	0	414	0.2	414	414	23.0	51.1
2025-08-14T23:31	10	0	0.1	0	0	414	0.2	414	414	22.8	52.1
2025-08-14T23:32	10	0	0.1	0	0	414	0.2	414	415	22.8	52.5
2025-08-14T23:33	10	0	0.1	0	0	414	0.2	413	414	22.7	52.6
2025-08-14T23:34	10	0	0.1	0	0	414	0.4	413	414	22.7	52.9
2025-08-14T23:35	10	0	0.1	0	0	414	0.2	413	414	22.7	53.2
2025-08-14T23:36	10	0	0.1	0	0	413	0.2	413	414	22.6	53.3
2025-08-14T23:37	10	0	0.1	0	0	413	0.2	413	413	22.5	53.5
2025-08-14T23:38	10	0	0.1	0	0	413	0.2	412	413	22.5	53.5
2025-08-14T23:39	10	0	0.1	0	0	413	0.3	412	413	22.6	53.5
2025-08-14T23:40	10	0	0.1	0	0	412	0.2	412	412	22.5	54.1
2025-08-14T23:41	10	0	0.1	0	0	412	0.3	411	412	22.4	54.5
2025-08-14T23:42	10	0	0.1	0	0	411	0.2	411	412	22.5	54.4
2025-08-14T23:43	10	0	0.1	0	0	411	0.3	411	412	22.4	55.1
2025-08-14T23:44	10	0	0.1	0	0	411	0.3	410	411	22.3	55.7
2025-08-14T23:45	10	0	0.1	0	0	411	0.3	410	411	22.2	56.1
2025-08-14T23:46	10	0	0.1	0	0	411	0.2	410	411	22.1	56.7
2025-08-14T23:47	10	0	0.1	0	0	411	0.2	410	411	22.0	57.2
2025-08-14T23:48	10	0	0.1	0	0	410	0.3	409	411	22.0	57.3
2025-08-14T23:49	10	0	0.1	0	0	410	0.4	409	410	22.0	57.5
2025-08-14T23:50	10	0	0.1	0	0	409	0.3	409	410	22.0	57.5
2025-08-14T23:51	10	0	0.1	0	0	409	0.3	409	410	22.0	57.7
2025-08-14T23:52	10	0	0.1	0	0	409	0.2	409	410	22.0	57.7
2025-08-14T23:53	10	0	0.1	0	0	408	0.2	408	409	22.0	57.6
2025-08-14T23:54	10	0	0.1	0	0	408	0.3	407	408	21.9	58.2
2025-08-14T23:55	10	0	0.1	0	0	407	0.3	406	408	21.9	58.3
2025-08-14T23:56	10	0	0.1	0	0	407	0.2	406	407	21.9	58.4
2025-08-14T23:57	10	0	0.1	0	0	407	0.2	406	407	21.9	58.5
2025-08-14T23:58	10	0	0.1	0	0	406	0.2	406	407	21.8	59.1
2025-08-14T23:59	10	0	0.1	0	0	405	0.4	404	406	21.7	59.4
2025-08-15T00:00	10	0	0.1	0	0	404	0.2	403	405	21.6	59.8
2025-08-15T00:01	10	0	0.1	0	0	404	0.3	403	404	21.5	60.2
2025-08-15T00:02	10	0	0.1	0	0	403	0.3	402	403	21.5	60.2
2025-08-15T00:03	10	0	0.1	0	0	403	0.3	403	404	21.5	60.1
2025-08-15T00:04	10	0	0.1	0	0	404	0.2	403	404	21.6	59.9
2025-08-15T00:05	10	0	0.1	0	0	404	0.2	403	404	21.6	59.9
2025-08-15T00:06	10	0	0.1	0	0	404	0.3	403	404	21.6	60.1
2025-08-15T00:07	10	0	0.1	0	0	403	0.3	403	404	21.5	60.5
2025-08-15T00:08	10	0	0.1	0	0	404	0.2	403	404	21.5	60.4
2025-08-15T00:09	10	0	0.1	0	0	404	0.3	403	404	21.6	59.8
2025-08-15T00:10	10	0	0.1	0	0	404	0.2	403	404	21.7	59.4
2025-08-15T00:11	10	0	0.1	0	0	404	0.3	403	405	21.7	59.4
2025-08-15T00:12	10	0	0.1	0	0	404	0.2	403	404	21.7	59.6
2025-08-15T00:13	10	0	0.1	0	0	404	0.3	403	404	21.7	59.4
2025-08-15T00:14	10	0	0.1	0	0	403	0.3	403	404	21.7	59.5
2025-08-15T00:15	10	0	0.1	0	0	403	0.2	403	404	21.7	59.4
2025-08-15T00:16	10	0	0.1	0	0	403	0.3	402	404	21.8	59.1
2025-08-15T00:17	10	0	0.1	0	0	403	0.3	403	404	21.8	59.2
2025-08-15T00:18	10	0	0.1	0	0	403	0.3	403	404	21.7	59.5
2025-08-15T00:19	10	0	0.1	0	0	404	0.3	403	405	21.8	59.1
2025-08-15T00:20	10	0	0.0	0	0	404	0.2	403	405	21.9	58.5
2025-08-15T00:21	10	0	0.1	0	0	404	0.2	403	404	21.9	58.4
2025-08-15T00:22	10	0	0.0	0	0	403	0.3	403	404	21.9	58.5
2025-08-15T00:23	10	0	0.1	0	0	403	0.2	403	404	21.9	58.8
2025-08-15T00:24	10	0	0.0	0	0	403	0.3	402	404	21.8	59.1
2025-08-15T00:25	10	0	0.1	0	0	403	0.3	402	404	21.8	59.1
2025-08-15T00:26	10	0	0.1	0	0	403	0.4	403	404	21.7	59.3
2025-08-15T00:27	10	0	0.1	0	0	404	0.2	403	404	21.7	59.3
2025-08-15T00:28	10	0	0.1	0	0	403	0.3	403	404	21.8	59.0
2025-08-15T00:29	10	0	0.1	0	0	403	0.3	402	403	21.7	59.4
2025-08-15T00:30	10	0	0.0	0	0	404	0.6	403	405	21.8	58.9
2025-08-15T00:31	10	0	0.0	0	0	405	0.2	404	405	22.1	57.9
2025-08-15T00:32	10	0	0.1	0	0	404	0.2	404	405	22.2	57.5
2025-08-15T00:33	10	0	0.1	0	0	405	0.3	404	406	22.2	57.5
2025-08-15T00:34	10	0	0.1	0	0	406	0.4	405	407	22.3	57.0
2025-08-15T00:35	10	0	0.1	0	0	406	0.3	406	407	22.3	57.0
2025-08-15T00:36	10	0	0.1	0	0	406	0.3	405	406	22.2	57.5
2025-08-15T00:37	10	0	0.1	0	0	406	0.2	405	406	22.2	57.6
2025-08-15T00:38	10	0	0.1	0	0	406	0.3	405	406	22.1	57.9
2025-08-15T00:39	10	0	0.1	0	0	406	0.3	406	407	22.1	57.8
2025-08-15T00:40	10	0	0.1	0	0	406	0.3	406	407	22.3	57.3
2025-08-15T00:41	10	0	0.1	0	0	406	0.3	405	406	22.2	57.5
2025-08-15T00:42	10	0	0.1	0	0	406	0.3	405	407	22.2	57.6
2025-08-15T00:43	10	0	0.1	0	0	406	0.3	405	406	22.2	57.5
2025-08-15T00:44	10	0	0.1	0	0	406	0.4	405	406	22.4	56.4
2025-08-15T00:45	10	0	0.1	0	0	405	0.2	405	405	22.4	56.6
2025-08-15T00:46	10	0	0.1	0	0	404	0.4	403	405	22.4	56.4
2025-08-15T00:47	10	0	0.1	0	0	404	0.3	403	405	22.3	56.6
2025-08-15T00:48	10	0	0.0	0	0	404	0.2	403	404	22.3	56.7
2025-08-15T00:49	10	0	0.0	0	0	405	0.4	404	405	22.3	56.6
2025-08-15T00:50	10	0	0.1	0	0	405	0.4	405	406	22.3	56.6
2025-08-15T00:51	10	0	0.0	0	0	406	0.3	406	407	22.4	56.2
2025-08-15T00:52	10	0	0.1	0	0	406	0.3	405	406	22.2	56.8
2025-08-15T00:53	10	0	0.1	0	0	405	0.2	405	406	22.2	56.9
2025-08-15T00:54	10	0	0.0	0	0	405	0.2	404	405	22.2	56.6
2025-08-15T00:55	10	0	0.1	0	0	404	0.4	403	405	22.2	56.8
2025-08-15T00:56	10	0	0.0	0	0	404	0.3	403	405	22.1	57.1
2025-08-15T00:57	10	0	0.0	0	0	404	0.5	403	405	22.1	57.2
2025-08-15T00:58	10	0	0.1	0	0	404	0.2	403	404	22.1	56.9
2025-08-15T00:59	10	0	0.1	0	0	404	0.3	403	404	22.1	56.9
2025-08-15T01:00	10	0	0.1	0	0	404	0.2	404	405	22.1	56.8
2025-08-15T01:01	10	0	0.0	0	0	404	0.2	404	405	22.1	56.7
2025-08-15T01:02	10	0	0.1	0	0	404	0.3	404	405	22.0	56.8
2025-08-15T01:03	10	0	0.1	0	0	405	0.3	405	406	22.0	57.2
2025-08-15T01:04	10	0	0.1	0	0	405	0.4	404	405	21.9	57.5
2025-08-15T01:05	10	0	0.1	0	0	404	0.3	403	405	21.8	57.7
2025-08-15T01:06	10	0	0.1	0	0	403	0.4	402	404	21.6	58.3
2025-08-15T01:07	10	0	0.2	0	0	402	0.3	402	403	21.5	59.0
2025-08-15T01:08	10	0	0.1	0	1	402	0.3	402	403	21.5	59.2
2025-08-15T01:09	10	0	0.1	0	0	403	0.3	402	403	21.6	58.7
2025-08-15T01:10	10	0	0.2	0	0	403	0.5	403	405	21.6	58.5
2025-08-15T01:11	10	0	0.2	0	1	404	0.4	404	405	21.8	58.0
2025-08-15T01:12	10	0	0.1	0	0	404	0.3	403	405	21.8	57.9
2025-08-15T01:13	10	0	0.2	0	1	403	0.3	402	404	21.7	58.5
2025-08-15T01:14	10	0	0.1	0	0	403	0.3	402	404	21.7	58.6
2025-08-15T01:15	10	0	0.2	0	1	402	0.2	402	403	21.6	58.9
2025-08-15T01:16	10	0	0.1	0	0	402	0.2	402	403	21.6	58.7
2025-08-15T01:17	10	0	0.1	0	0	402	0.4	402	403	21.7	58.5
2025-08-15T01:18	10	0	0.2	0	0	402	0.3	401	403	21.5	59.2
2025-08-15T01:19	10	0	0.2	0	1	402	0.2	402	403	21.6	58.9
2025-08-15T01:20	10	0	0.1	0	0	403	0.4	402	404	21.5	59.1
2025-08-15T01:21	10	0	0.1	0	0	403	0.3	403	404	21.5	59.2
2025-08-15T01:22	10	0	0.1	0	0	403	0.3	402	403	21.4	59.8
2025-08-15T01:23	10	0	0.1	0	1	402	0.3	402	403	21.4	59.6
2025-08-15T01:24	10	0	0.2	0	1	402	0.3	402	403	21.3	60.1
2025-08-15T01:25	10	0	0.1	0	0	402	0.2	401	402	21.2	60.5
2025-08-15T01:26	10	0	0.1	0	0	402	0.2	402	403	21.1	60.7
2025-08-15T01:27	10	0	0.1	0	0	402	0.2	401	402	21.2	60.7
2025-08-15T01:28	10	0	0.1	0	0	402	0.2	401	402	21.2	60.8
2025-08-15T01:29	10	0	0.2	0	0	401	0.3	401	402	21.1	61.1
2025-08-15T01:30	10	0	0.2	0	1	401	0.3	400	402	21.1	61.2
2025-08-15T01:31	10	0	0.2	-1	1	400	0.2	400	401	21.0	61.4
2025-08-15T01:32	10	0	0.2	0	0	400	0.3	400	401	21.0	61.4
2025-08-15T01:33	10	0	0.1	0	0	400	0.2	399	400	21.0	61.5
2025-08-15T01:34	10	0	0.2	0	1	399	0.3	399	400	21.0	61.7
2025-08-15T01:35	10	0	0.1	0	0	399	0.3	398	399	21.0	61.8
2025-08-15T01:36	10	0	0.2	0	0	398	0.3	397	399	20.9	62.1
2025-08-15T01:37	10	0	0.1	0	0	398	0.5	397	398	20.8	62.7
2025-08-15T01:38	10	0	0.2	0	0	398	0.3	397	399	20.7	63.3
2025-08-15T01:39	10	0	0.1	0	0	397	0.3	397	398	20.6	63.5
2025-08-15T01:40	10	0	0.2	0	0	397	0.3	396	397	20.5	64.0
2025-08-15T01:41	10	0	0.1	0	0	397	0.2	396	397	20.4	64.7
2025-08-15T01:42	10	0	0.2	0	1	397	0.2	396	397	20.2	65.2
2025-08-15T01:43	10	0	0.1	0	0	396	0.2	396	397	20.1	65.5
2025-08-15T01:44	10	0	0.2	-1	0	396	0.3	395	397	20.1	65.6
2025-08-15T01:45	10	0	0.1	0	0	396	0.2	396	397	20.1	65.8
2025-08-15T01:46	10	0	0.1	0	0	396	0.2	395	396	20.0	66.0
2025-08-15T01:47	10	0	0.1	0	0	395	0.2	395	396	20.0	66.5
2025-08-15T01:48	10	0	0.1	0	0	395	0.2	394	395	19.9	67.8
2025-08-15T01:49	10	0	0.1	0	1	395	0.3	394	396	19.8	69.2
2025-08-15T01:50	10	0	0.1	0	0	395	0.3	395	396	19.7	70.5
2025-08-15T01:51	10	0	0.1	0	0	395	0.2	395	396	19.7	69.8
2025-08-15T01:52	10	0	0.1	0	0	395	0.2	395	396	19.7	69.2
2025-08-15T01:53	10	0	0.1	0	0	395	0.3	395	396	19.8	67.7
2025-08-15T01:54	10	0	0.1	0	0	395	0.2	395	396	19.9	66.9
2025-08-15T01:55	10	0	0.1	0	0	395	0.3	395	396	19.9	66.4
2025-08-15T01:56	10	0	0.1	0	0	396	0.4	395	396	20.0	65.7
2025-08-15T01:57	10	0	0.1	0	0	395	0.2	395	396	20.1	64.4
2025-08-15T01:58	10	0	0.1	0	0	395	0.3	395	396	20.1	64.9
2025-08-15T01:59	10	0	0.1	0	0	395	0.2	395	396	20.1	64.9
2025-08-15T02:00	10	0	0.0	0	0	395	0.2	395	396	20.1	64.2
2025-08-15T02:01	10	0	0.0	0	0	395	0.2	395	395	20.2	63.6
2025-08-15T02:02	10	0	0.1	0	0	395	0.3	395	396	20.3	63.3
2025-08-15T02:03	10	0	0.0	0	0	395	0.3	395	396	20.4	62.4
2025-08-15T02:04	10	0	0.0	0	0	395	0.3	395	396	20.6	61.2
2025-08-15T02:05	10	0	0.0	0	0	395	0.3	395	396	20.6	61.4
2025-08-15T02:06	10	0	0.0	0	0	395	0.2	395	396	20.5	61.6
2025-08-15T02:07	10	0	0.1	0	0	395	0.3	395	396	20.6	61.2
2025-08-15T02:08	10	0	0.0	0	0	396	0.4	395	397	20.6	61.4
2025-08-15T02:09	10	0	0.1	0	0	395	0.4	394	396	20.5	62.0
2025-08-15T02:10	10	0	0.1	0	0	395	0.2	395	395	20.4	62.6
2025-08-15T02:11	10	0	0.0	0	0	394	0.3	394	395	20.4	62.9
2025-08-15T02:12	10	0	0.0	0	0	394	0.2	393	395	20.3	63.5
2025-08-15T02:13	10	0	0.1	0	0	394	0.3	394	395	20.2	64.0
2025-08-15T02:14	10	0	0.0	0	0	395	0.3	394	395	20.1	64.9
2025-08-15T02:15	10	0	0.1	0	0	395	0.3	394	396	20.0	65.0
2025-08-15T02:16	10	0	0.1	0	0	395	0.3	394	396	20.1	63.9
2025-08-15T02:17	10	0	0.1	0	0	395	0.3	394	395	20.0	65.0
2025-08-15T02:18	10	0	0.1	0	0	395	0.3	394	396	20.0	64.2
2025-08-15T02:19	10	0	0.1	0	0	395	0.3	394	395	19.9	65.5
2025-08-15T02:20	10	0	0.1	0	0	394	0.3	394	395	20.0	64.2
2025-08-15T02:21	10	0	0.1	0	0	394	0.4	393	395	19.9	65.8
2025-08-15T02:22	10	0	0.1	0	0	394	0.4	394	395	19.8	66.3
2025-08-15T02:23	10	0	0.1	0	0	395	0.4	394	396	19.8	65.3
2025-08-15T02:24	10	0	0.1	0	0	395	0.3	394	395	19.9	64.1
2025-08-15T02:25	10	0	0.1	0	0	394	0.3	393	395	20.0	63.4
2025-08-15T02:26	10	0	0.1	0	0	394	0.3	393	394	19.9	65.0
2025-08-15T02:27	10	0	0.1	0	0	393	0.2	393	394	19.8	65.2
2025-08-15T02:28	10	0	0.1	0	0	393	0.2	392	393	19.7	65.2
2025-08-15T02:29	10	0	0.1	0	0	393	0.3	392	394	19.6	66.1
2025-08-15T02:30	10	0	0.1	0	0	393	0.3	392	394	19.8	64.2
2025-08-15T02:31	10	0	0.1	0	0	393	0.3	392	393	19.9	64.3
2025-08-15T02:32	10	0	0.1	0	0	392	0.2	392	393	19.8	66.0
2025-08-15T02:33	10	0	0.1	0	0	392	0.2	391	392	19.6	66.9
2025-08-15T02:34	10	0	0.1	0	0	391	0.2	391	392	19.6	67.4
2025-08-15T02:35	10	0	0.1	0	0	391	0.2	391	392	19.5	67.3
2025-08-15T02:36	10	0	0.1	0	0	391	0.2	391	392	19.5	67.5
2025-08-15T02:37	10	0	0.1	0	0	392	0.2	391	392	19.5	67.7
2025-08-15T02:38	10	0	0.1	0	0	391	0.2	391	392	19.4	68.1
2025-08-15T02:39	10	0	0.1	0	0	391	0.2	391	392	19.3	68.6
2025-08-15T02:40	10	0	0.1	0	0	391	0.2	391	392	19.3	68.8
2025-08-15T02:41	10	0	0.1	0	0	391	0.3	391	392	19.4	68.0
2025-08-15T02:42	10	0	0.1	0	0	391	0.2	391	392	19.5	67.3
2025-08-15T02:43	10	0	0.1	0	0	391	0.3	391	392	19.6	67.2
2025-08-15T02:44	10	0	0.1	0	0	392	0.2	391	392	19.6	66.9
2025-08-15T02:45	10	0	0.1	0	0	392	0.3	391	392	19.6	66.9
2025-08-15T02:46	10	0	0.1	0	0	392	0.3	391	392	19.6	67.0
2025-08-15T02:47	10	0	0.1	0	0	392	0.2	391	392	19.5	67.1
2025-08-15T02:48	10	0	0.1	0	0	392	0.4	391	393	19.5	67.4
2025-08-15T02:49	10	0	0.1	0	0	392	0.3	391	392	19.5	67.7
2025-08-15T02:50	10	0	0.1	0	0	392	0.2	391	393	19.5	67.5
2025-08-15T02:51	10	0	0.1	0	0	392	0.3	391	392	19.4	67.8
2025-08-15T02:52	10	0	0.1	0	0	391	0.2	391	392	19.4	67.7
2025-08-15T02:53	10	0	0.1	0	0	391	0.2	391	392	19.3	68.4
2025-08-15T02:54	10	0	0.1	0	0	391	0.3	390	392	19.1	69.9
2025-08-15T02:55	10	0	0.1	0	0	392	0.4	391	392	19.0	70.1
2025-08-15T02:56	10	0	0.1	0	0	391	0.2	391	392	19.0	70.1
2025-08-15T02:57	10	0	0.1	0	0	391	0.3	391	392	19.0	69.9
2025-08-15T02:58	10	0	0.1	0	0	391	0.2	391	392	19.1	69.0
2025-08-15T02:59	10	0	0.1	0	0	391	0.2	391	392	19.2	68.2
2025-08-15T03:00	10	0	0.1	0	0	391	0.2	391	392	19.3	67.1
2025-08-15T03:01	10	0	0.1	0	0	391	0.2	391	392	19.4	66.5
2025-08-15T03:02	10	0	0.1	0	0	391	0.3	390	392	19.5	65.7
2025-08-15T03:03	10	0	0.0	0	0	391	0.4	390	391	19.6	65.3
2025-08-15T03:04	10	0	0.1	0	0	390	0.4	389	391	19.4	67.0
2025-08-15T03:05	10	0	0.1	0	0	390	0.3	389	390	19.3	67.2
2025-08-15T03:06	10	0	0.0	0	0	389	0.3	389	390	19.1	69.8
2025-08-15T03:07	10	0	0.1	0	0	389	0.2	389	389	18.9	70.8
2025-08-15T03:08	10	0	0.1	0	0	389	0.3	388	390	18.9	70.6
2025-08-15T03:09	10	0	0.1	0	0	389	0.2	389	390	18.9	69.6
2025-08-15T03:10	10	0	0.1	0	0	389	0.3	389	390	18.9	68.8
2025-08-15T03:11	10	0	0.1	0	0	389	0.2	389	390	18.9	68.8
2025-08-15T03:12	10	0	0.1	0	0	389	0.2	389	390	19.0	68.3
2025-08-15T03:13	10	0	0.1	0	0	390	0.2	389	390	19.0	67.6
2025-08-15T03:14	10	0	0.1	0	0	390	0.2	389	390	19.1	67.4
2025-08-15T03:15	10	0	0.1	0	0	390	0.2	390	391	19.1	67.2
2025-08-15T03:16	10	0	0.1	0	0	390	0.3	390	391	19.2	66.4
2025-08-15T03:17	10	0	0.1	0	0	390	0.2	390	391	19.1	66.9
2025-08-15T03:18	10	0	0.1	0	0	390	0.2	390	391	19.0	68.3
2025-08-15T03:19	10	0	0.1	0	0	390	0.3	389	391	18.9	68.5
2025-08-15T03:20	10	0	0.1	0	0	390	0.3	389	390	18.8	68.7
2025-08-15T03:21	10	0	0.1	0	0	389	0.2	389	390	18.8	68.6
2025-08-15T03:22	10	0	0.1	0	0	389	0.2	388	389	18.8	68.7
2025-08-15T03:23	10	0	0.1	0	0	389	0.3	388	389	18.8	68.6
2025-08-15T03:24	10	0	0.1	0	0	389	0.2	388	389	18.9	67.2
2025-08-15T03:25	10	0	0.1	0	0	389	0.2	389	390	19.1	65.9
2025-08-15T03:26	10	0	0.1	0	0	390	0.3	389	390	19.2	65.2
2025-08-15T03:27	10	0	0.1	0	0	390	0.3	389	390	19.3	64.9
2025-08-15T03:28	10	0	0.1	0	0	389	0.2	389	390	19.3	65.4
2025-08-15T03:29	10	0	0.1	0	0	390	0.2	389	390	19.3	64.9
2025-08-15T03:30	10	0	0.1	0	0	390	0.2	389	390	19.3	65.8
2025-08-15T03:31	10	0	0.1	0	0	390	0.2	389	390	19.1	65.8
2025-08-15T03:32	10	0	0.1	0	0	389	0.2	389	390	19.1	66.2
2025-08-15T03:33	10	0	0.1	0	0	389	0.3	388	390	19.1	66.3
2025-08-15T03:34	10	0	0.1	0	0	389	0.3	388	389	19.1	66.4
2025-08-15T03:35	10	0	0.1	0	0	389	0.3	389	390	19.2	65.4
2025-08-15T03:36	10	0	0.1	0	0	390	0.4	389	391	19.3	64.5
2025-08-15T03:37	10	0	0.2	0	0	390	0.2	389	390	19.5	63.4
2025-08-15T03:38	10	0	0.2	-1	0	390	0.3	389	391	19.5	63.3
2025-08-15T03:39	10	0	0.1	0	0	389	0.3	389	390	19.5	63.9
2025-08-15T03:40	10	0	0.1	0	0	388	0.4	388	389	19.4	65.1
2025-08-15T03:41	10	0	0.1	0	1	388	0.2	388	389	19.1	67.2
2025-08-15T03:42	10	0	0.1	0	0	388	0.4	387	389	19.0	66.9
2025-08-15T03:43	10	0	0.2	0	1	388	0.4	387	389	19.0	67.6
2025-08-15T03:44	10	0	0.1	0	0	388	0.3	387	389	18.9	69.1
2025-08-15T03:45	10	0	0.1	0	0	388	0.3	387	388	18.8	68.7
2025-08-15T03:46	10	0	0.2	0	0	388	0.3	387	388	18.8	68.6
2025-08-15T03:47	10	0	0.1	0	0	388	0.3	388	389	18.8	68.3
2025-08-15T03:48	10	0	0.2	-1	0	388	0.2	387	389	18.9	67.6
2025-08-15T03:49	10	0	0.2	-1	0	388	0.2	387	389	19.0	66.5
2025-08-15T03:50	10	0	0.1	0	0	388	0.3	388	389	19.0	66.3
2025-08-15T03:51	10	0	0.1	0	0	388	0.3	388	389	19.0	67.6
2025-08-15T03:52	10	0	0.2	0	1	389	0.3	388	389	18.9	68.7
2025-08-15T03:53	10	0	0.1	0	0	389	0.2	388	389	18.8	69.2
2025-08-15T03:54	10	0	0.1	0	0	389	0.2	389	390	18.7	69.6
2025-08-15T03:55	10	0	0.1	0	0	389	0.2	389	389	18.7	68.7
2025-08-15T03:56	10	0	0.2	0	1	388	0.3	388	389	18.7	68.4
2025-08-15T03:57	10	0	0.1	0	0	388	0.2	388	389	18.6	68.5
2025-08-15T03:58	10	0	0.2	0	0	389	0.2	388	389	18.5	69.4
2025-08-15T03:59	10	0	0.2	0	1	389	0.3	388	389	18.5	69.3
2025-08-15T04:00	10	0	0.1	0	0	388	0.2	388	389	18.5	68.9
2025-08-15T04:01	10	0	0.2	0	0	388	0.2	387	388	18.5	69.1
2025-08-15T04:02	10	0	0.2	0	0	388	0.2	387	388	18.5	68.9
2025-08-15T04:03	10	0	0.2	0	0	388	0.4	387	388	18.6	68.1
2025-08-15T04:04	10	0	0.2	0	0	388	0.3	387	388	18.7	67.3
2025-08-15T04:05	10	0	0.1	0	0	388	0.3	388	389	18.9	66.5
2025-08-15T04:06	10	0	0.1	0	0	388	0.4	388	389	19.0	66.2
2025-08-15T04:07	10	0	0.1	0	0	388	0.2	387	388	18.8	68.2
2025-08-15T04:08	10	0	0.1	0	0	388	0.5	387	389	18.6	69.0
2025-08-15T04:09	10	0	0.1	0	0	388	0.2	387	388	18.3	70.6
2025-08-15T04:10	10	0	0.1	0	1	388	0.2	387	388	18.1	71.9
2025-08-15T04:11	10	0	0.1	0	1	388	0.2	387	388	18.0	72.5
2025-08-15T04:12	10	0	0.1	0	0	387	0.3	387	388	18.1	72.2
2025-08-15T04:13	10	0	0.1	0	0	387	0.3	387	388	18.2	71.4
2025-08-15T04:14	10	0	0.1	0	0	387	0.3	387	388	18.3	70.0
2025-08-15T04:15	10	0	0.1	0	0	387	0.2	387	388	18.4	68.6
2025-08-15T04:16	10	0	0.1	0	0	387	0.3	387	388	18.4	68.7
2025-08-15T04:17	10	0	0.1	0	0	387	0.2	387	388	18.4	69.1
2025-08-15T04:18	10	0	0.1	0	0	387	0.2	386	388	18.4	69.4
2025-08-15T04:19	10	0	0.1	0	0	387	0.2	386	388	18.4	69.2
2025-08-15T04:20	10	0	0.1	0	0	387	0.2	387	387	18.3	69.4
2025-08-15T04:21	10	0	0.1	0	0	387	0.2	386	387	18.3	69.9
2025-08-15T04:22	10	0	0.1	0	0	387	0.2	387	388	18.3	69.7
2025-08-15T04:23	10	0	0.1	0	0	387	0.3	386	388	18.3	70.3
2025-08-15T04:24	10	0	0.1	0	1	387	0.2	386	387	18.3	70.3
2025-08-15T04:25	10	0	0.1	0	1	387	0.2	386	387	18.2	70.6
2025-08-15T04:26	10	0	0.1	0	1	387	0.2	387	388	18.3	69.0
2025-08-15T04:27	10	0	0.1	0	1	388	0.3	387	389	18.5	68.1
2025-08-15T04:28	10	1	0.1	0	1	388	0.2	387	388	18.6	67.7
2025-08-15T04:29	10	1	0.1	1	1	388	0.2	387	388	18.7	68.0
2025-08-15T04:30	10	1	0.1	1	1	388	0.2	387	388	18.6	68.2
2025-08-15T04:31	10	1	0.1	1	1	388	0.2	387	388	18.5	68.7
2025-08-15T04:32	10	1	0.0	1	1	388	0.3	387	388	18.5	69.0
2025-08-15T04:33	10	1	0.1	1	1	388	0.3	387	389	18.5	69.3
2025-08-15T04:34	10	1	0.1	1	1	389	0.2	388	389	18.4	69.8
2025-08-15T04:35	10	1	0.1	1	2	389	0.2	388	389	18.4	69.9
2025-08-15T04:36	10	1	0.1	1	2	388	0.3	387	389	18.2	70.4
2025-08-15T04:37	10	2	0.1	1	2	388	0.2	387	388	18.1	71.0
2025-08-15T04:38	10	2	0.1	1	2	388	0.2	387	388	18.0	71.2
2025-08-15T04:39	10	2	0.1	2	2	388	0.2	387	388	18.0	71.2
2025-08-15T04:40	10	2	0.1	2	2	388	0.3	387	388	17.9	71.7
2025-08-15T04:41	10	2	0.1	2	2	388	0.3	387	388	18.0	71.4
2025-08-15T04:42	10	2	0.1	2	2	388	0.3	388	389	18.1	71.1
2025-08-15T04:43	10	2	0.1	2	3	388	0.2	388	389	18.1	70.8
2025-08-15T04:44	10	3	0.1	2	3	388	0.2	388	389	18.0	70.9
2025-08-15T04:45	10	3	0.1	3	3	389	0.3	388	390	17.9	71.4
2025-08-15T04:46	10	3	0.1	3	3	389	0.2	389	389	17.9	71.5
2025-08-15T04:47	10	3	0.1	3	3	390	0.3	389	390	17.8	72.1
2025-08-15T04:48	10	3	0.1	3	4	390	0.2	389	390	17.8	72.2
2025-08-15T04:49	10	4	0.1	3	4	390	0.2	389	390	17.9	71.8
2025-08-15T04:50	10	4	0.1	4	4	390	0.4	389	391	17.9	72.2
2025-08-15T04:51	10	4	0.1	4	4	390	0.2	389	390	17.8	72.9
2025-08-15T04:52	10	4	0.1	4	5	390	0.3	389	391	17.7	73.5
2025-08-15T04:53	10	5	0.1	4	5	391	0.6	390	392	17.8	72.9
2025-08-15T04:54	10	5	0.1	5	5	392	0.2	391	392	17.9	72.2
2025-08-15T04:55	10	5	0.1	5	5	392	0.3	391	393	18.0	72.1
2025-08-15T04:56	10	5	0.1	5	6	392	0.2	392	393	18.0	72.1
2025-08-15T04:57	10	6	0.1	6	6	392	0.2	392	393	17.9	72.6
2025-08-15T04:58	10	6	0.1	6	6	392	0.3	392	393	17.9	73.2
2025-08-15T04:59	10	6	0.1	6	7	392	0.2	391	393	17.8	73.8
2025-08-15T05:00	10	7	0.1	6	7	392	0.3	392	393	17.8	74.2
2025-08-15T05:01	10	7	0.2	7	7	393	0.2	392	393	17.9	73.6
2025-08-15T05:02	10	7	0.2	7	8	393	0.2	393	394	18.0	73.0
2025-08-15T05:03	10	8	0.1	7	8	393	0.4	393	394	18.0	72.9
2025-08-15T05:04	10	8	0.1	8	8	394	0.3	394	395	18.2	71.7
2025-08-15T05:05	10	8	0.2	8	9	395	0.2	394	395	18.3	71.2
2025-08-15T05:06	10	9	0.1	9	9	395	0.3	394	395	18.2	71.7
2025-08-15T05:07	10	9	0.1	9	9	394	0.2	394	395	18.1	72.2
2025-08-15T05:08	10	10	0.1	9	10	395	0.2	394	395	18.0	72.8
2025-08-15T05:09	10	10	0.1	10	10	395	0.2	394	395	18.0	72.9
2025-08-15T05:10	10	10	0.1	10	11	395	0.3	394	395	18.0	72.8
2025-08-15T05:11	10	11	0.2	10	11	395	0.3	395	396	18.0	72.9
2025-08-15T05:12	10	11	0.1	11	11	396	0.2	395	396	18.1	72.4
2025-08-15T05:13	10	12	0.1	11	12	396	0.3	396	397	18.2	71.8
2025-08-15T05:14	10	12	0.2	12	12	396	0.3	396	397	18.2	71.5
2025-08-15T05:15	10	12	0.2	12	13	396	0.2	396	397	18.2	71.7
2025-08-15T05:16	10	13	0.2	13	13	397	0.3	396	397	18.2	72.2
2025-08-15T05:17	10	13	0.2	13	14	397	0.3	396	397	18.2	72.0
2025-08-15T05:18	10	14	0.1	14	14	397	0.2	397	398	18.2	72.1
2025-08-15T05:19	10	14	0.1	14	15	397	0.2	397	398	18.2	72.2
2025-08-15T05:20	10	15	0.1	15	15	398	0.3	397	398	18.2	72.4
2025-08-15T05:21	10	15	0.2	15	16	398	0.2	398	398	18.2	72.5
2025-08-15T05:22	10	16	0.2	15	16	398	0.3	398	399	18.2	72.0
2025-08-15T05:23	10	16	0.2	16	17	399	0.3	398	400	18.3	71.1
2025-08-15T05:24	10	17	0.2	16	17	399	0.2	399	400	18.4	70.2
2025-08-15T05:25	10	17	0.2	17	18	400	0.3	399	400	18.5	69.9
2025-08-15T05:26	10	18	0.2	18	18	400	0.2	399	401	18.5	69.3
2025-08-15T05:27	10	18	0.2	18	19	400	0.3	400	401	18.6	68.4
2025-08-15T05:28	10	19	0.2	19	19	401	0.3	401	402	18.7	67.5
2025-08-15T05:29	10	20	0.2	19	20	402	0.3	401	402	18.8	66.1
2025-08-15T05:30	10	20	0.2	20	21	402	0.2	402	403	19.0	65.4
2025-08-15T05:31	10	21	0.2	20	21	402	0.2	402	403	19.0	65.3
2025-08-15T05:32	10	21	0.2	21	22	403	0.2	402	403	19.0	66.0
2025-08-15T05:33	10	22	0.2	22	22	403	0.2	403	404	18.9	68.0
2025-08-15T05:34	10	23	0.2	22	23	404	0.2	403	404	18.9	68.2
2025-08-15T05:35	10	23	0.2	23	23	404	0.2	404	405	18.9	67.6
2025-08-15T05:36	10	24	0.2	23	24	405	0.2	404	405	18.9	67.8
2025-08-15T05:37	10	24	0.2	24	25	406	0.2	405	406	19.0	67.7
2025-08-15T05:38	10	25	0.2	25	25	406	0.2	406	406	19.0	67.2
2025-08-15T05:39	10	25	0.2	25	26	406	0.2	406	407	19.0	66.7
2025-08-15T05:40	10	26	0.2	26	26	406	0.2	406	407	19.1	66.2
2025-08-15T05:41	10	27	0.2	26	27	406	0.2	406	407	19.1	66.3
2025-08-15T05:42	10	27	0.2	27	27	407	0.2	406	407	19.1	65.7
2025-08-15T05:43	10	28	0.2	27	28	407	0.2	406	407	19.1	66.5
2025-08-15T05:44	10	28	0.2	28	29	406	0.3	406	407	19.0	67.0
2025-08-15T05:45	10	29	0.2	28	29	407	0.2	406	407	19.0	67.6
2025-08-15T05:46	10	29	0.1	29	30	407	0.2	407	407	18.9	68.2
2025-08-15T05:47	10	30	0.2	29	30	407	0.3	407	408	19.0	68.2
2025-08-15T05:48	10	30	0.2	30	30	408	0.3	407	408	19.0	69.6
2025-08-15T05:49	10	31	0.2	30	31	408	0.2	408	409	19.0	69.7
2025-08-15T05:50	10	31	0.1	31	31	408	0.2	408	409	19.0	67.7
2025-08-15T05:51	10	32	0.2	31	32	409	0.2	408	409	19.1	67.3
2025-08-15T05:52	10	32	0.2	32	32	409	0.3	408	410	19.1	67.9
2025-08-15T05:53	10	33	0.2	32	33	410	0.3	409	410	19.1	67.0
2025-08-15T05:54	10	33	0.1	33	34	409	0.3	409	410	19.2	66.8
2025-08-15T05:55	10	34	0.2	33	34	410	0.3	409	411	19.3	66.5
2025-08-15T05:56	10	34	0.2	34	35	411	0.4	410	412	19.3	67.7
2025-08-15T05:57	10	35	0.2	35	35	411	0.2	411	412	19.2	69.0
2025-08-15T05:58	10	36	0.2	35	36	412	0.2	412	413	19.2	69.4
2025-08-15T05:59	10	36	0.2	36	37	413	0.2	412	413	19.2	68.8
2025-08-15T06:00	10	37	0.2	36	37	413	0.2	413	413	19.2	68.0
2025-08-15T06:01	10	37	0.2	37	38	413	0.2	412	414	19.3	67.9
2025-08-15T06:02	10	38	0.2	37	38	414	0.3	413	414	19.3	68.1
2025-08-15T06:03	10	38	0.2	38	39	414	0.3	414	415	19.4	67.6
2025-08-15T06:04	10	39	0.2	39	39	415	0.3	414	415	19.5	67.1
2025-08-15T06:05	10	40	0.2	39	40	415	0.4	415	416	19.5	67.1
2025-08-15T06:06	10	40	0.3	40	41	416	0.3	415	416	19.6	67.3
2025-08-15T06:07	10	41	0.2	40	42	416	0.3	416	417	19.6	67.3
2025-08-15T06:08	10	41	0.3	41	42	417	0.3	416	417	19.7	68.3
2025-08-15T06:09	10	42	0.2	41	43	416	0.2	416	417	19.7	67.7
2025-08-15T06:10	10	43	0.3	42	43	417	0.3	416	417	19.7	67.2
2025-08-15T06:11	10	43	0.3	43	44	418	0.3	417	418	19.7	67.7
2025-08-15T06:12	10	44	0.2	43	44	418	0.3	417	418	19.7	67.6
2025-08-15T06:13	10	44	0.3	44	45	418	0.3	418	419	19.7	67.9
2025-08-15T06:14	10	45	0.2	44	45	419	0.3	418	419	19.8	68.2
2025-08-15T06:15	10	45	0.2	45	46	419	0.2	419	420	19.8	68.2
2025-08-15T06:16	10	46	0.2	46	46	420	0.3	419	421	19.9	67.3
2025-08-15T06:17	10	47	0.2	46	47	420	0.2	420	421	19.9	67.1
2025-08-15T06:18	10	47	0.2	47	47	421	0.2	420	421	20.1	65.9
2025-08-15T06:19	10	48	0.2	47	48	421	0.2	421	422	20.2	65.8
2025-08-15T06:20	10	48	0.2	48	49	422	0.2	421	422	20.3	65.3
2025-08-15T06:21	10	49	0.2	49	49	422	0.2	422	423	20.4	64.7
2025-08-15T06:22	10	49	0.2	49	50	423	0.2	422	423	20.7	63.3
2025-08-15T06:23	10	50	0.2	50	50	424	0.2	423	424	20.8	63.3
2025-08-15T06:24	10	51	0.2	50	51	424	0.3	424	425	20.8	63.1
2025-08-15T06:25	10	51	0.2	51	52	425	0.2	424	425	21.0	62.9
2025-08-15T06:26	10	52	0.2	51	52	425	0.2	425	426	21.0	63.2
2025-08-15T06:27	10	52	0.2	52	53	425	0.3	425	426	21.1	62.1
2025-08-15T06:28	10	53	0.1	53	53	426	0.2	426	427	21.2	62.0
2025-08-15T06:29	10	53	0.2	53	54	427	0.2	426	427	21.1	62.0
2025-08-15T06:30	10	54	0.2	54	54	427	0.3	426	428	21.1	62.3
2025-08-15T06:31	10	55	0.2	54	55	428	0.3	427	428	21.1	61.4
2025-08-15T06:32	10	55	0.2	55	55	428	0.4	427	429	21.1	60.6
2025-08-15T06:33	10	56	0.2	55	56	429	0.3	428	430	21.2	61.0
2025-08-15T06:34	10	56	0.2	56	57	430	0.3	429	430	21.4	60.3
2025-08-15T06:35	10	57	0.2	56	57	430	0.3	430	431	21.4	61.2
2025-08-15T06:36	10	57	0.2	57	58	430	0.3	430	431	21.6	59.5
2025-08-15T06:37	10	58	0.2	58	58	431	0.3	430	432	21.6	60.2
2025-08-15T06:38	10	58	0.2	58	59	431	0.3	431	432	21.7	60.8
2025-08-15T06:39	10	59	0.2	59	59	432	0.2	432	433	21.6	60.4
2025-08-15T06:40	10	60	0.2	59	60	433	0.3	432	433	21.8	59.4
2025-08-15T06:41	10	60	0.2	60	60	433	0.3	433	434	22.0	59.2
2025-08-15T06:42	10	61	0.1	60	61	434	0.3	433	434	22.0	60.1
2025-08-15T06:43	10	61	0.1	61	62	434	0.2	434	435	21.9	61.2
2025-08-15T06:44	10	62	0.2	61	62	435	0.3	434	435	21.7	61.4
2025-08-15T06:45	10	62	0.2	62	63	435	0.2	434	435	21.6	61.1
2025-08-15T06:46	10	63	0.2	63	63	435	0.3	434	436	21.7	60.7
2025-08-15T06:47	10	64	0.2	63	64	436	0.5	435	437	21.9	60.3
2025-08-15T06:48	10	64	0.2	64	64	437	0.3	436	437	21.8	61.2
2025-08-15T06:49	10	65	0.2	64	65	437	0.3	436	438	21.9	60.5
2025-08-15T06:50	10	65	0.2	65	66	437	0.4	437	438	21.9	60.0
2025-08-15T06:51	10	66	0.2	66	66	438	0.2	438	438	21.9	60.3
2025-08-15T06:52	10	66	0.3	66	67	438	0.2	437	439	21.9	60.2
2025-08-15T06:53	10	67	0.2	67	67	439	0.3	438	439	21.9	59.1
2025-08-15T06:54	10	67	0.3	67	68	439	0.3	438	440	22.1	58.4
2025-08-15T06:55	10	68	0.2	67	68	439	0.3	439	440	22.2	59.0
2025-08-15T06:56	10	68	0.2	68	69	441	0.4	440	442	22.4	58.8
2025-08-15T06:57	10	69	0.2	69	69	441	0.2	441	442	22.5	58.1
2025-08-15T06:58	10	69	0.2	69	70	442	0.5	441	443	22.6	58.5
2025-08-15T06:59	10	70	0.2	70	71	443	0.2	442	443	22.3	57.0
2025-08-15T07:00	10	71	0.2	70	71	443	0.2	442	443	22.5	56.6
2025-08-15T07:01	10	71	0.2	71	71	444	0.2	443	444	22.6	56.7
2025-08-15T07:02	10	72	0.2	71	72	444	0.2	444	445	22.6	57.3
2025-08-15T07:03	10	72	0.1	72	72	445	0.3	444	446	22.4	57.2
2025-08-15T07:04	10	73	0.2	72	73	445	0.3	444	445	22.2	57.1
2025-08-15T07:05	10	73	0.2	73	74	445	0.3	444	445	22.1	57.5
2025-08-15T07:06	10	74	0.2	74	74	445	0.3	445	446	22.1	57.3
2025-08-15T07:07	10	74	0.2	74	75	446	0.4	445	446	22.3	57.2
2025-08-15T07:08	10	75	0.2	75	75	446	0.3	446	447	22.2	57.2
2025-08-15T07:09	10	75	0.2	75	76	447	0.2	446	447	22.3	57.2
2025-08-15T07:10	10	76	0.3	76	77	447	0.2	447	448	22.4	57.2
2025-08-15T07:11	10	77	0.2	76	77	448	0.4	447	449	22.4	57.1
2025-08-15T07:12	10	77	0.2	77	78	448	0.3	448	449	22.4	56.7
2025-08-15T07:13	10	78	0.2	78	78	449	0.2	448	449	22.4	56.4
2025-08-15T07:14	10	78	0.1	78	79	449	0.2	449	449	22.5	55.4
2025-08-15T07:15	10	79	0.2	79	79	450	0.3	450	451	22.5	55.5
2025-08-15T07:16	10	79	0.1	79	80	450	0.2	450	450	22.7	55.3
2025-08-15T07:17	10	80	0.2	79	80	451	0.4	450	452	22.8	54.9
2025-08-15T07:18	10	80	0.1	80	80	452	0.7	450	453	22.9	55.2
2025-08-15T07:19	10	80	0.2	80	81	452	0.6	451	453	22.8	56.1
2025-08-15T07:20	10	81	0.1	81	81	451	0.3	451	452	22.6	57.7
2025-08-15T07:21	10	81	0.2	81	82	452	0.4	451	453	22.7	57.3
2025-08-15T07:22	10	82	0.1	82	82	452	0.4	451	453	22.7	57.5
2025-08-15T07:23	10	82	0.1	82	83	452	0.2	451	452	22.6	57.0
2025-08-15T07:24	10	83	0.1	83	83	453	0.5	451	453	22.5	57.4
2025-08-15T07:25	10	83	0.2	83	84	453	0.4	453	454	22.7	57.5
2025-08-15T07:26	10	84	0.2	84	84	455	0.6	454	456	23.0	57.1
2025-08-15T07:27	10	84	0.2	84	85	455	0.6	454	456	22.9	56.4
2025-08-15T07:28	10	85	0.2	84	85	455	0.3	454	455	22.8	56.3
2025-08-15T07:29	10	85	0.2	85	86	456	0.3	455	456	22.9	55.8
2025-08-15T07:30	10	85	0.2	85	86	457	0.4	456	458	23.1	55.7
2025-08-15T07:31	10	86	0.2	85	86	457	0.4	456	458	23.2	55.7
2025-08-15T07:32	10	86	0.3	86	87	458	0.4	457	458	23.2	54.8
2025-08-15T07:33	10	87	0.2	86	87	457	0.2	457	458	23.0	54.2
2025-08-15T07:34	10	87	0.3	87	88	458	0.7	457	460	23.0	54.7
2025-08-15T07:35	10	88	0.2	87	88	460	0.3	459	461	23.3	54.7
2025-08-15T07:36	10	88	0.1	88	89	460	0.3	459	460	23.2	54.0
2025-08-15T07:37	10	89	0.2	88	89	460	0.2	459	460	23.4	53.5
2025-08-15T07:38	10	89	0.2	89	90	461	0.5	460	462	23.5	53.1
2025-08-15T07:39	10	90	0.2	89	90	462	0.2	461	462	23.6	52.8
2025-08-15T07:40	10	90	0.2	90	91	462	0.3	462	463	23.6	52.1
2025-08-15T07:41	10	91	0.1	91	91	464	0.7	462	465	23.6	51.9
2025-08-15T07:42	10	91	0.1	91	91	464	0.4	463	465	23.8	51.0
2025-08-15T07:43	10	92	0.1	91	92	464	0.3	463	465	23.9	50.5
2025-08-15T07:44	10	92	0.1	92	92	464	0.2	464	465	24.0	50.0
2025-08-15T07:45	10	92	0.2	92	93	465	0.3	464	465	24.0	49.7
2025-08-15T07:46	10	93	0.2	93	93	465	0.3	465	466	24.2	49.4
2025-08-15T07:47	10	93	0.1	93	94	465	0.3	465	466	24.3	49.5
2025-08-15T07:48	10	94	0.1	94	94	467	0.4	466	467	24.0	49.5
2025-08-15T07:49	10	94	0.1	94	94	467	0.3	466	468	24.0	49.3
2025-08-15T07:50	10	94	0.1	94	95	467	0.3	466	467	24.5	46.2
2025-08-15T07:51	10	95	0.2	94	95	467	0.2	467	468	24.4	47.4
2025-08-15T07:52	10	95	0.2	95	95	469	0.6	468	470	24.4	48.5
2025-08-15T07:53	10	96	0.1	95	96	470	0.2	470	471	24.3	49.1
2025-08-15T07:54	10	96	0.2	96	96	470	0.3	469	471	24.1	49.8
2025-08-15T07:55	10	96	0.1	96	97	470	0.2	470	471	24.1	50.1
2025-08-15T07:56	10	97	0.2	96	97	471	0.2	471	471	24.1	50.1
2025-08-15T07:57	10	97	0.2	97	98	472	0.3	471	472	24.2	49.9
2025-08-15T07:58	10	98	0.1	97	98	472	0.3	471	472	24.3	49.3
2025-08-15T07:59	10	98	0.1	98	98	472	0.3	472	473	24.3	49.3
2025-08-15T08:00	10	99	0.1	98	99	472	0.3	472	473	24.6	48.4
2025-08-15T08:01	10	99	0.1	99	99	474	0.3	473	474	24.7	48.5
2025-08-15T08:02	10	99	0.1	99	100	474	0.4	473	475	24.5	49.0
2025-08-15T08:03	10	100	0.1	100	100	474	0.3	473	474	24.6	48.8
2025-08-15T08:04	10	100	0.2	100	101	476	0.4	475	476	24.7	48.8
2025-08-15T08:05	10	101	0.1	101	101	476	0.5	476	478	24.9	47.3
2025-08-15T08:06	10	101	0.1	101	101	476	0.3	476	477	25.2	47.5
2025-08-15T08:07	10	102	0.2	101	102	477	0.3	476	478	25.1	47.2
2025-08-15T08:08	10	102	0.2	102	102	477	0.4	476	478	24.9	47.5
2025-08-15T08:09	10	102	0.2	102	103	477	0.3	476	477	25.0	47.4
2025-08-15T08:10	10	103	0.2	102	103	477	0.4	477	478	25.2	47.0
2025-08-15T08:11	10	103	0.2	102	104	479	0.4	478	479	24.8	48.4
2025-08-15T08:12	10	103	0.2	103	104	480	0.3	479	481	24.6	48.9
2025-08-15T08:13	10	103	0.1	103	104	479	0.4	478	480	24.6	49.0
2025-08-15T08:14	10	104	0.2	103	104	480	0.5	479	481	24.5	49.3
2025-08-15T08:15	10	104	0.1	104	104	480	0.9	478	481	24.6	48.9
2025-08-15T08:16	10	104	0.1	104	105	479	0.4	478	479	24.4	49.3
2025-08-15T08:17	10	105	0.1	104	105	480	0.7	479	481	24.4	49.4
2025-08-15T08:18	10	105	0.1	105	105	480	0.4	479	481	24.4	49.1
2025-08-15T08:19	10	105	0.1	105	105	480	0.8	479	482	24.5	49.0
2025-08-15T08:20	10	105	0.1	105	106	482	0.3	481	483	24.8	48.3
2025-08-15T08:21	10	106	0.2	106	106	483	0.5	482	484	24.8	48.0
2025-08-15T08:22	10	106	0.1	106	107	484	0.3	483	485	25.0	48.1
2025-08-15T08:23	10	107	0.2	107	107	484	0.3	483	485	25.0	47.1
2025-08-15T08:24	10	107	0.1	107	107	484	0.4	484	485	25.1	47.4
2025-08-15T08:25	10	108	0.2	107	108	483	0.6	483	485	24.8	47.9
2025-08-15T08:26	10	108	0.1	108	108	483	0.2	483	484	24.7	47.8
2025-08-15T08:27	10	108	0.1	108	108	484	0.3	484	485	24.7	47.8
2025-08-15T08:28	10	109	0.2	108	109	485	0.6	484	486	24.8	47.8
2025-08-15T08:29	10	109	0.1	109	109	487	0.9	485	488	25.2	47.4
2025-08-15T08:30	10	109	0.1	109	109	485	1.0	484	487	24.9	47.7
2025-08-15T08:31	10	110	0.1	109	110	486	0.7	484	487	24.9	47.9
2025-08-15T08:32	10	110	0.1	110	110	487	0.3	486	488	25.0	47.6
2025-08-15T08:33	10	110	0.2	110	111	487	0.4	486	488	25.0	47.6
2025-08-15T08:34	10	111	0.2	110	111	488	0.6	486	489	25.2	47.5
2025-08-15T08:35	10	111	0.1	111	111	488	0.8	487	490	25.3	46.9
2025-08-15T08:36	10	111	0.1	111	112	488	0.4	487	489	25.1	47.1
2025-08-15T08:37	10	112	0.1	111	112	490	0.9	488	491	25.4	47.2
2025-08-15T08:38	10	112	0.2	112	112	490	0.3	489	490	25.6	46.9
2025-08-15T08:39	10	112	0.2	112	113	490	0.4	490	491	25.5	46.9
2025-08-15T08:40	10	113	0.1	112	113	491	0.4	490	492	25.5	46.6
2025-08-15T08:41	10	113	0.1	113	113	491	0.7	490	492	25.4	46.9
2025-08-15T08:42	10	113	0.1	113	114	490	0.3	490	491	25.4	47.1
2025-08-15T08:43	10	114	0.1	113	114	491	0.5	490	492	25.2	47.5
2025-08-15T08:44	10	114	0.1	114	114	491	0.4	490	492	25.2	47.5
2025-08-15T08:45	10	114	0.1	114	115	492	0.3	491	493	25.3	47.5
2025-08-15T08:46	10	115	0.1	114	115	493	0.6	492	495	25.5	47.3
2025-08-15T08:47	10	115	0.2	115	115	493	0.4	492	494	25.3	47.7
2025-08-15T08:48	10	115	0.1	115	116	493	0.5	492	494	25.3	47.8
2025-08-15T08:49	10	116	0.1	115	116	494	0.4	493	495	25.4	47.6
2025-08-15T08:50	10	116	0.1	116	116	495	0.3	494	495	25.4	47.2
2025-08-15T08:51	10	116	0.2	116	117	496	0.3	495	496	25.6	46.9
2025-08-15T08:52	10	117	0.1	117	117	496	0.6	495	497	25.5	47.1
2025-08-15T08:53	10	117	0.1	117	117	496	0.4	496	497	25.5	47.3
2025-08-15T08:54	10	117	0.1	117	117	494	1.3	493	497	25.6	47.1
2025-08-15T08:55	10	118	0.1	117	118	496	1.3	494	498	25.6	47.4
2025-08-15T08:56	10	118	0.1	118	118	497	0.4	497	498	25.8	47.2
2025-08-15T08:57	10	118	0.2	118	119	496	1.0	494	498	25.6	46.7
2025-08-15T08:58	10	119	0.1	119	119	495	0.4	494	496	25.4	47.1
2025-08-15T08:59	10	119	0.1	119	119	497	0.6	496	498	25.4	47.2
2025-08-15T09:00	10	119	0.1	119	119	498	0.3	497	499	25.7	46.7
2025-08-15T09:01	10	119	0.2	119	120	500	0.8	498	501	26.0	46.3
2025-08-15T09:02	10	120	0.1	119	120	500	0.4	499	501	26.0	45.9
2025-08-15T09:03	10	120	0.1	120	120	498	1.2	496	500	25.8	46.2
2025-08-15T09:04	10	120	0.1	120	120	497	0.7	496	498	25.6	46.4
2025-08-15T09:05	10	120	0.1	120	121	498	0.5	497	499	25.9	45.8
2025-08-15T09:06	10	121	0.1	120	121	499	0.4	498	500	25.8	46.0
2025-08-15T09:07	10	121	0.2	121	121	501	1.2	498	503	26.0	44.4
2025-08-15T09:08	10	121	0.1	121	122	502	0.4	501	503	25.6	44.2
2025-08-15T09:09	10	121	0.2	121	122	504	0.6	503	505	26.1	45.7
2025-08-15T09:10	10	122	0.2	122	122	505	0.5	504	506	26.1	45.7
2025-08-15T09:11	10	122	0.1	122	123	505	0.7	504	506	26.1	45.7
2025-08-15T09:12	10	123	0.1	123	123	505	0.7	503	506	26.1	45.7
2025-08-15T09:13	10	123	0.1	123	123	504	0.6	503	505	26.1	45.7
2025-08-15T09:14	10	123	0.1	123	124	503	0.8	502	505	26.1	45.7
2025-08-15T09:15	10	124	0.1	123	124	504	0.8	503	506	26.0	46.2
2025-08-15T09:16	10	124	0.1	124	124	503	1.3	502	506	26.0	46.2
2025-08-15T09:17	10	124	0.2	124	125	504	0.5	503	505	26.0	46.5
2025-08-15T09:18	10	125	0.2	124	125	506	0.8	504	508	26.1	46.0
2025-08-15T09:19	10	125	0.2	125	125	506	0.5	504	506	26.1	46.1
2025-08-15T09:20	10	125	0.2	125	126	506	0.3	505	507	26.2	45.9
2025-08-15T09:21	10	125	0.3	125	126	507	0.6	506	508	26.5	45.5
2025-08-15T09:22	10	125	0.3	125	126	509	0.6	508	510	26.7	45.6
2025-08-15T09:23	10	126	0.2	125	126	508	0.4	507	509	26.6	45.6
2025-08-15T09:24	10	126	0.2	126	127	508	2.1	503	510	26.9	45.5
2025-08-15T09:25	10	126	0.2	126	127	505	1.2	503	507	26.3	46.1
2025-08-15T09:26	10	126	0.2	126	127	507	1.2	504	509	26.2	46.5
2025-08-15T09:27	10	127	0.2	126	127	505	0.4	504	506	26.0	47.0
2025-08-15T09:28	10	127	0.2	126	127	506	1.2	504	508	26.0	47.2
2025-08-15T09:29	10	127	0.2	127	127	508	0.8	507	510	26.1	47.0
2025-08-15T09:30	10	127	0.2	127	128	510	0.7	509	512	26.3	46.7
2025-08-15T09:31	10	128	0.2	127	128	510	0.3	509	510	26.3	46.6
2025-08-15T09:32	10	128	0.1	128	128	510	0.6	509	512	26.6	46.0
2025-08-15T09:33	10	128	0.2	128	129	514	1.2	512	516	27.1	45.7
2025-08-15T09:34	10	128	0.2	128	129	512	1.2	510	514	27.1	45.1
2025-08-15T09:35	10	129	0.2	128	129	513	0.6	512	514	27.3	45.0
2025-08-15T09:36	10	129	0.3	128	129	512	0.7	511	514	27.6	44.8
2025-08-15T09:37	10	129	0.2	129	129	512	0.6	511	513	27.3	45.0
2025-08-15T09:38	10	129	0.3	129	130	511	1.5	508	514	27.1	45.3
2025-08-15T09:39	10	129	0.2	129	130	511	0.4	510	512	26.6	45.9
2025-08-15T09:40	10	129	0.2	129	130	513	0.7	511	514	26.8	46.1
2025-08-15T09:41	10	130	0.2	129	130	513	0.6	511	514	26.8	46.0
2025-08-15T09:42	10	130	0.2	130	130	510	0.6	509	512	26.5	46.3
2025-08-15T09:43	10	130	0.1	130	130	512	0.6	511	513	26.5	46.4
2025-08-15T09:44	10	130	0.3	130	131	513	0.5	512	514	26.6	46.3
2025-08-15T09:45	10	131	0.2	130	131	515	0.6	514	516	26.8	46.1
2025-08-15T09:46	10	131	0.3	130	132	514	0.4	513	515	26.8	45.8
2025-08-15T09:47	10	131	0.2	131	131	517	1.4	515	520	27.2	45.8
2025-08-15T09:48	10	131	0.2	131	132	515	1.5	513	518	27.3	45.7
2025-08-15T09:49	10	132	0.2	131	132	515	0.6	514	517	27.3	45.8
2025-08-15T09:50	10	132	0.2	131	132	511	2.4	508	516	27.0	46.1
2025-08-15T09:51	10	132	0.2	132	132	513	2.2	509	516	26.8	46.6
2025-08-15T09:52	10	132	0.2	132	132	518	1.0	515	519	27.3	46.2
2025-08-15T09:53	10	132	0.2	132	133	516	0.8	514	518	27.1	46.2
2025-08-15T09:54	10	132	0.2	132	133	517	0.8	515	518	27.0	46.2
2025-08-15T09:55	10	133	0.2	132	133	519	0.6	518	520	27.1	46.2
2025-08-15T09:56	10	133	0.2	133	133	518	0.5	517	519	27.2	46.1
2025-08-15T09:57	10	133	0.2	133	134	519	0.9	517	521	27.5	45.7
2025-08-15T09:58	10	133	0.2	133	134	519	0.9	518	521	27.4	45.9
2025-08-15T09:59	10	133	0.2	133	134	520	1.0	518	522	27.3	46.2
2025-08-15T10:00	10	134	0.2	133	134	517	1.7	515	521	27.3	46.3
2025-08-15T10:01	10	134	0.2	133	134	516	0.8	515	518	27.2	46.3
2025-08-15T10:02	10	134	0.2	133	135	517	1.2	515	520	27.1	46.6
2025-08-15T10:03	10	134	0.2	133	134	520	0.8	518	522	27.3	46.5
2025-08-15T10:04	10	134	0.2	134	135	522	0.6	521	523	27.4	46.2
2025-08-15T10:05	10	134	0.1	134	135	521	1.9	519	524	27.5	46.2
2025-08-15T10:06	10	134	0.2	134	135	521	0.4	520	522	27.4	46.2
2025-08-15T10:07	10	135	0.2	134	136	522	1.3	520	524	27.6	46.1
2025-08-15T10:08	10	135	0.1	134	135	523	1.8	520	525	27.7	45.8
2025-08-15T10:09	10	135	0.1	135	135	521	0.9	520	524	27.4	46.2
2025-08-15T10:10	10	135	0.1	135	136	524	0.9	523	526	28.1	45.5
2025-08-15T10:11	10	135	0.1	135	136	524	2.2	520	526	28.2	45.1
2025-08-15T10:12	10	136	0.1	135	136	521	1.1	519	523	27.7	46.0
2025-08-15T10:13	10	136	0.1	135	136	519	0.8	518	521	27.6	46.4
2025-08-15T10:14	10	136	0.2	135	136	521	1.0	519	523	27.8	46.0
2025-08-15T10:15	10	136	0.1	136	136	519	1.4	517	522	27.9	45.9
2025-08-15T10:16	10	136	0.1	135	136	522	1.5	519	524	28.0	45.9
2025-08-15T10:17	10	136	0.1	136	136	524	1.1	522	526	27.9	45.9
2025-08-15T10:18	10	136	0.1	136	137	525	1.4	522	527	28.5	45.3
2025-08-15T10:19	10	137	0.1	137	137	523	1.8	520	525	28.2	45.5
2025-08-15T10:20	10	137	0.1	137	137	522	1.9	520	526	27.8	46.1
2025-08-15T10:21	10	137	0.1	137	138	524	1.0	521	526	27.9	46.0
2025-08-15T10:22	10	137	0.2	137	138	522	0.6	521	523	27.8	46.2
2025-08-15T10:23	10	137	0.1	137	138	521	0.5	520	523	27.6	46.6
2025-08-15T10:24	10	137	0.1	137	137	522	1.7	520	525	27.5	46.8
2025-08-15T10:25	10	137	0.1	137	138	522	2.3	520	526	27.6	46.9
2025-08-15T10:26	10	138	0.2	137	138	526	0.5	526	528	28.0	46.1
2025-08-15T10:27	10	138	0.2	138	138	528	0.5	527	529	28.4	45.3
2025-08-15T10:28	10	138	0.2	138	139	529	1.7	526	531	28.5	45.2
2025-08-15T10:29	10	139	0.2	138	139	528	1.6	526	531	28.2	45.9
2025-08-15T10:30	10	139	0.2	138	139	527	3.1	523	532	28.2	45.4
2025-08-15T10:31	10	139	0.2	138	139	525	0.5	524	526	27.8	46.3
2025-08-15T10:32	10	139	0.2	138	139	526	1.0	525	528	28.0	45.9
2025-08-15T10:33	10	139	0.2	138	139	522	1.2	520	525	28.0	45.7
2025-08-15T10:34	10	139	0.2	138	139	525	2.2	522	528	28.0	45.9
2025-08-15T10:35	10	139	0.1	138	139	528	2.3	525	533	28.3	45.4
2025-08-15T10:36	10	139	0.2	139	140	528	1.6	526	532	28.5	44.9
2025-08-15T10:37	10	139	0.2	139	140	529	1.7	527	532	28.3	45.3
2025-08-15T10:38	10	140	0.2	139	140	532	1.3	530	535	28.4	45.3
2025-08-15T10:39	10	140	0.2	139	141	534	2.5	529	537	28.9	44.6
2025-08-15T10:40	10	140	0.2	140	141	533	1.5	530	535	28.7	44.9
2025-08-15T10:41	10	140	0.1	140	140	531	2.9	526	536	29.1	43.8
2025-08-15T10:42	10	140	0.1	140	141	528	1.1	527	530	28.3	44.9
2025-08-15T10:43	10	140	0.1	140	141	532	0.9	530	533	28.4	44.9
2025-08-15T10:44	10	140	0.1	140	141	529	2.1	526	533	29.5	43.8
2025-08-15T10:45	10	140	0.2	140	141	532	1.7	529	536	29.6	43.5
2025-08-15T10:46	10	140	0.2	140	141	534	0.9	533	536	29.1	43.8
2025-08-15T10:47	10	141	0.1	140	141	534	0.7	532	535	29.2	43.6
2025-08-15T10:48	10	141	0.1	141	141	533	1.9	530	535	29.0	43.8
2025-08-15T10:49	10	141	0.1	141	141	534	1.7	531	536	28.8	44.2
2025-08-15T10:50	10	141	0.1	141	141	534	0.8	532	536	28.7	44.4
2025-08-15T10:51	10	141	0.1	141	141	534	1.2	532	535	28.7	44.5
2025-08-15T10:52	10	141	0.1	141	141	535	2.8	530	539	29.3	43.6
2025-08-15T10:53	10	141	0.1	141	141	531	1.3	529	533	29.1	43.3
2025-08-15T10:54	10	141	0.1	141	141	531	0.6	530	532	29.0	43.4
2025-08-15T10:55	10	141	0.1	141	141	531	0.9	530	533	29.0	43.3
2025-08-15T10:56	10	141	0.1	141	142	535	0.7	533	536	28.9	43.3
2025-08-15T10:57	10	141	0.1	141	142	535	1.0	533	537	29.4	42.9
2025-08-15T10:58	10	141	0.1	141	142	536	0.9	534	537	29.7	42.0
2025-08-15T10:59	10	142	0.1	141	142	536	1.0	534	538	29.7	41.8
2025-08-15T11:00	10	142	0.1	142	142	535	1.0	532	537	29.6	41.9
2025-08-15T11:01	10	142	0.1	142	142	533	0.7	532	535	29.2	42.3
2025-08-15T11:02	10	142	0.1	142	142	532	0.7	530	532	29.0	42.4
2025-08-15T11:03	10	142	0.1	142	142	533	1.7	530	535	29.2	42.4
2025-08-15T11:04	10	142	0.1	142	142	534	0.7	533	535	29.5	41.8
2025-08-15T11:05	10	142	0.1	142	142	532	0.9	531	534	29.4	41.9
2025-08-15T11:06	10	142	0.1	142	142	536	1.2	533	538	29.6	42.1
2025-08-15T11:07	10	142	0.1	142	143	533	1.7	531	537	29.2	42.2
2025-08-15T11:08	10	142	0.1	142	143	539	1.5	536	541	29.8	41.5
2025-08-15T11:09	10	143	0.1	143	143	536	0.5	536	538	29.5	41.8
2025-08-15T11:10	10	143	0.1	142	143	538	1.0	535	540	29.8	41.4
2025-08-15T11:11	10	143	0.1	143	143	535	0.5	534	536	29.5	41.5
2025-08-15T11:12	10	143	0.1	143	143	534	0.7	532	535	29.2	42.0
2025-08-15T11:13	10	143	0.1	142	143	536	1.0	533	537	29.6	41.3
2025-08-15T11:14	10	143	0.1	142	143	536	0.8	534	538	29.7	40.8
2025-08-15T11:15	10	143	0.1	143	143	534	0.6	533	536	29.3	41.5
2025-08-15T11:16	10	143	0.1	143	143	538	1.8	534	541	29.4	41.7
2025-08-15T11:17	10	143	0.1	143	143	539	0.6	537	540	29.7	41.0
2025-08-15T11:18	10	143	0.1	143	144	539	1.0	538	541	29.9	40.9
2025-08-15T11:19	10	144	0.1	143	144	541	1.1	539	543	30.2	40.7
2025-08-15T11:20	10	144	0.1	144	144	538	0.8	536	540	29.6	40.6
2025-08-15T11:21	10	144	0.1	144	144	540	0.5	539	541	29.4	41.1
2025-08-15T11:22	10	144	0.1	144	144	542	1.4	539	543	29.6	41.1
2025-08-15T11:23	10	144	0.1	143	144	540	1.5	536	543	30.0	40.2
2025-08-15T11:24	10	144	0.1	144	144	537	1.0	536	540	29.5	40.8
2025-08-15T11:25	10	144	0.1	144	144	539	1.0	537	541	29.5	41.0
2025-08-15T11:26	10	144	0.1	144	144	540	1.3	538	543	29.9	40.2
2025-08-15T11:27	10	144	0.1	144	145	538	1.1	536	541	30.0	40.2
2025-08-15T11:28	10	145	0.1	144	145	540	1.7	538	543	29.9	40.3
2025-08-15T11:29	10	145	0.1	144	145	544	0.7	543	545	29.9	40.5
2025-08-15T11:30	10	145	0.1	145	145	538	3.2	534	546	29.8	40.5
2025-08-15T11:31	10	145	0.1	145	145	535	1.3	533	538	29.9	40.3
2025-08-15T11:32	10	145	0.2	145	145	538	1.4	535	540	29.8	40.0
2025-08-15T11:33	10	145	0.1	145	145	536	0.8	535	538	29.6	40.0
2025-08-15T11:34	10	145	0.1	145	145	538	1.2	536	540	29.6	40.3
2025-08-15T11:35	10	145	0.1	145	145	541	1.2	538	544	29.7	40.2
2025-08-15T11:36	10	145	0.1	145	145	539	0.5	539	541	29.5	40.9
2025-08-15T11:37	10	145	0.1	145	146	540	0.6	539	542	30.0	40.2
2025-08-15T11:38	10	145	0.2	145	146	539	1.4	538	543	30.0	40.2
2025-08-15T11:39	10	146	0.2	145	146	542	1.5	539	544	30.5	39.6
2025-08-15T11:40	10	146	0.1	146	146	537	1.8	534	540	30.0	39.8
2025-08-15T11:41	10	146	0.1	146	146	533	1.6	531	536	29.4	40.7
2025-08-15T11:42	10	146	0.1	146	146	537	1.6	534	540	29.8	40.3
2025-08-15T11:43	10	146	0.2	146	146	542	2.0	538	546	30.0	40.1
2025-08-15T11:44	10	146	0.1	146	147	540	0.9	539	542	30.0	39.8
2025-08-15T11:45	10	146	0.2	146	147	538	1.3	536	540	30.5	39.0
2025-08-15T11:46	10	147	0.2	146	147	536	2.1	533	539	30.5	39.0
2025-08-15T11:47	10	148	0.2	147	148	539	1.8	535	542	30.0	39.8
2025-08-15T11:48	10	148	0.2	148	148	538	0.6	537	540	29.9	40.1
2025-08-15T11:49	10	148	0.1	148	149	540	0.9	538	542	29.7	40.8
2025-08-15T11:50	10	148	0.1	148	149	543	1.0	540	545	30.1	39.9
2025-08-15T11:51	10	149	0.2	148	149	541	1.8	539	544	30.3	39.1
2025-08-15T11:52	10	149	0.2	149	150	543	2.6	538	546	30.5	39.2
2025-08-15T11:53	10	150	0.1	150	150	542	3.5	538	548	30.2	40.8
2025-08-15T11:54	10	150	0.1	150	150	545	1.8	542	548	30.4	41.1
2025-08-15T11:55	10	150	0.2	150	151	546	1.4	543	549	30.4	40.8
2025-08-15T11:56	10	154	0.2	153	154	549	1.3	547	551	30.6	40.1
2025-08-15T11:57	10	151	0.2	151	152	546	2.5	542	550	30.8	37.2
2025-08-15T11:58	10	155	0.2	154	155	548	1.8	544	551	30.7	36.4
2025-08-15T11:59	10	155	0.2	155	156	548	2.0	543	551	31.3	35.7
2025-08-15T12:00	10	153	0.1	153	153	543	1.1	541	545	30.6	36.6
2025-08-15T12:01	10	153	0.1	153	153	544	1.7	542	547	30.4	37.3
2025-08-15T12:02	10	153	0.1	153	154	544	1.6	541	547	30.3	37.3
2025-08-15T12:03	10	154	0.2	153	154	548	1.1	545	549	30.7	36.5
2025-08-15T12:04	10	154	0.2	154	155	547	2.4	544	551	30.6	37.1
2025-08-15T12:05	10	158	0.2	157	158	552	1.4	550	555	31.4	36.5
2025-08-15T12:06	10	158	0.2	158	159	550	1.1	547	552	31.3	36.0
2025-08-15T12:07	10	156	0.2	156	156	548	0.8	546	549	30.8	36.3
2025-08-15T12:08	10	159	0.2	159	160	551	1.1	548	553	30.7	36.5
2025-08-15T12:09	10	160	0.2	159	160	554	0.8	553	556	30.8	36.7
2025-08-15T12:10	10	160	0.1	160	160	555	0.4	554	556	31.0	36.8
2025-08-15T12:11	10	160	0.1	160	160	555	0.8	553	556	30.6	37.7
2025-08-15T12:12	10	158	0.1	157	158	550	1.5	548	555	30.6	37.7
2025-08-15T12:13	10	158	0.2	158	158	549	1.3	547	551	30.5	37.8
2025-08-15T12:14	10	159	0.2	158	159	552	2.4	548	554	30.7	37.6
2025-08-15T12:15	10	162	0.2	161	162	552	0.6	551	553	30.7	37.7
2025-08-15T12:16	10	163	0.4	162	163	555	2.6	552	560	30.8	37.7
2025-08-15T12:17	10	164	0.3	163	164	556	2.3	553	559	30.9	36.9
2025-08-15T12:18	10	164	0.2	164	165	558	1.7	555	560	30.9	37.4
2025-08-15T12:19	10	165	0.2	164	165	555	2.2	552	559	30.9	37.5
2025-08-15T12:20	10	165	0.3	164	166	558	1.0	557	560	30.9	37.3
2025-08-15T12:21	10	165	0.2	165	166	559	0.6	558	560	30.7	37.3
2025-08-15T12:22	10	166	0.1	166	166	560	0.6	558	560	31.0	37.4
2025-08-15T12:23	10	166	0.1	166	166	556	1.8	553	558	30.7	37.5
2025-08-15T12:24	10	166	0.2	166	167	560	1.6	557	562	31.1	37.0
2025-08-15T12:25	10	167	0.1	166	167	555	1.3	553	557	31.9	35.9
2025-08-15T12:26	10	167	0.1	167	167	557	1.6	554	559	32.0	35.4
2025-08-15T12:27	10	167	0.1	167	167	559	0.8	557	561	31.8	35.5
2025-08-15T12:28	10	167	0.1	167	167	560	0.9	558	561	31.3	35.8
2025-08-15T12:29	10	167	0.1	166	167	559	0.6	558	561	31.1	36.3
2025-08-15T12:30	10	166	0.2	166	167	560	0.9	558	561	31.4	36.0
2025-08-15T12:31	10	166	0.2	166	166	561	1.1	559	563	31.8	35.6
2025-08-15T12:32	10	166	0.1	165	166	558	1.8	556	562	31.9	35.1
2025-08-15T12:33	10	165	0.1	165	166	557	1.5	552	558	31.4	35.6
2025-08-15T12:34	10	163	0.1	162	163	555	1.6	552	557	31.3	36.0
2025-08-15T12:35	10	162	0.2	162	163	549	1.4	548	553	31.0	35.9
2025-08-15T12:36	10	162	0.1	162	162	555	3.2	549	560	30.9	36.3
2025-08-15T12:37	10	165	0.2	164	165	561	1.8	559	564	31.3	36.0
2025-08-15T12:38	10	162	0.1	162	162	557	2.1	554	563	31.5	35.5
2025-08-15T12:39	10	162	0.3	161	162	551	1.4	548	555	31.6	35.4
2025-08-15T12:40	10	161	0.3	161	162	547	1.2	545	549	31.2	35.4
2025-08-15T12:41	10	160	0.3	160	161	551	2.6	547	556	31.6	35.1
2025-08-15T12:42	10	159	0.3	159	160	554	3.1	548	558	31.9	35.0
2025-08-15T12:43	10	159	0.1	158	159	554	0.5	553	555	31.4	35.2
2025-08-15T12:44	10	158	0.2	158	159	554	0.9	553	556	31.8	35.3
2025-08-15T12:45	10	158	0.2	157	158	552	1.4	551	555	32.0	34.8
2025-08-15T12:46	10	157	0.2	157	157	553	0.8	552	555	31.8	35.2
2025-08-15T12:47	10	156	0.1	156	157	553	1.3	551	556	31.4	35.4
2025-08-15T12:48	10	156	0.2	156	156	555	0.6	554	556	31.8	35.1
2025-08-15T12:49	10	155	0.2	155	156	556	0.7	554	557	31.7	34.9
2025-08-15T12:50	10	154	0.2	154	155	556	0.8	555	558	31.9	35.3
2025-08-15T12:51	10	153	0.3	153	154	554	1.7	550	557	32.6	34.9
2025-08-15T12:52	10	153	0.3	152	153	553	1.1	551	554	32.3	35.4
2025-08-15T12:53	10	153	0.1	152	153	556	1.2	554	558	32.2	35.5
2025-08-15T12:54	10	152	0.1	152	153	555	1.5	552	557	32.3	35.2
2025-08-15T12:55	10	152	0.1	152	153	552	2.1	548	555	31.8	35.3
2025-08-15T12:56	10	152	0.2	151	153	549	1.5	546	551	31.6	35.5
2025-08-15T12:57	10	151	0.2	151	152	549	1.4	546	551	31.3	36.7
2025-08-15T12:58	10	151	0.1	150	151	552	0.8	550	553	31.6	36.6
2025-08-15T12:59	10	150	0.1	150	151	555	1.5	553	558	32.1	36.3
2025-08-15T13:00	10	151	0.1	150	151	550	2.3	547	556	32.0	35.5
2025-08-15T13:01	10	151	0.2	150	151	549	0.9	547	551	31.5	35.4
2025-08-15T13:02	10	151	0.3	150	152	547	1.0	546	550	31.1	34.9
2025-08-15T13:03	10	150	0.3	150	151	548	1.5	545	551	31.2	36.2
2025-08-15T13:04	10	150	0.2	150	151	551	3.0	546	555	30.9	37.0
2025-08-15T13:05	10	150	0.2	150	150	555	0.7	553	556	31.5	36.6
2025-08-15T13:06	10	150	0.2	150	151	554	1.7	551	557	31.5	36.8
2025-08-15T13:07	10	150	0.3	149	150	553	1.2	551	555	31.8	36.5
2025-08-15T13:08	10	150	0.2	150	150	547	2.2	545	552	31.3	37.1
2025-08-15T13:09	10	149	0.2	149	150	545	1.7	542	548	31.2	36.2
2025-08-15T13:10	10	149	0.2	149	150	551	1.9	548	556	31.0	36.9
2025-08-15T13:11	10	149	0.2	149	149	552	0.9	551	555	31.5	36.8
2025-08-15T13:12	10	149	0.2	149	149	551	0.9	549	552	31.8	36.6
2025-08-15T13:13	10	149	0.2	148	149	550	1.1	549	553	31.9	36.0
2025-08-15T13:14	10	148	0.1	148	148	549	0.5	548	551	31.5	35.8
2025-08-15T13:15	10	148	0.2	147	148	552	1.3	549	554	31.9	35.6
2025-08-15T13:16	10	147	0.1	147	148	550	0.9	548	551	31.4	34.4
2025-08-15T13:17	10	147	0.1	147	147	553	1.5	551	555	31.4	34.5
2025-08-15T13:18	10	147	0.1	147	147	551	1.0	549	553	31.4	34.9
2025-08-15T13:19	10	146	0.2	146	147	548	1.5	546	551	31.3	35.9
2025-08-15T13:20	10	146	0.3	145	146	553	1.2	551	555	31.4	36.1
2025-08-15T13:21	10	145	0.1	145	145	550	2.9	546	554	31.7	35.5
2025-08-15T13:22	10	145	0.1	145	145	549	2.0	546	553	31.7	34.7
2025-08-15T13:23	10	145	0.1	144	145	551	1.3	549	553	32.0	33.8
2025-08-15T13:24	10	144	0.2	144	145	550	1.4	548	552	31.5	33.3
2025-08-15T13:25	10	144	0.2	144	144	550	1.2	549	552	31.7	33.8
2025-08-15T13:26	10	143	0.2	143	144	550	1.2	546	551	31.5	35.3
2025-08-15T13:27	10	143	0.2	143	143	545	2.1	543	551	31.3	35.5
2025-08-15T13:28	10	143	0.1	143	143	550	1.9	547	552	31.9	34.3
2025-08-15T13:29	10	143	0.1	143	143	550	0.4	549	550	31.6	34.2
2025-08-15T13:30	10	143	0.2	143	143	551	1.0	548	553	31.8	34.5
2025-08-15T13:31	10	143	0.2	143	143	551	1.2	549	553	32.1	33.2
2025-08-15T13:32	10	143	0.2	143	144	548	0.5	547	549	32.0	33.0
2025-08-15T13:33	10	144	0.2	143	144	548	1.7	545	551	31.9	32.5
2025-08-15T13:34	10	143	0.4	142	144	544	1.8	541	548	31.8	32.3
2025-08-15T13:35	10	139	3.6	132	144	542	2.2	540	547	31.3	33.5
2025-08-15T13:36	10	140	2.3	137	144	548	1.0	546	550	31.9	33.1
2025-08-15T13:37	10	141	2.0	137	144	547	2.1	543	551	32.0	32.6
2025-08-15T13:38	10	140	1.9	137	143	546	2.0	543	549	31.4	32.8
2025-08-15T13:39	10	143	2.1	140	146	551	1.5	548	553	32.1	33.0
2025-08-15T13:40	10	144	1.3	141	146	552	1.0	550	554	32.3	32.0
2025-08-15T13:41	10	138	1.3	136	141	551	1.1	548	552	32.2	31.4
2025-08-15T13:42	10	138	1.4	136	140	546	1.7	544	549	31.8	31.4
2025-08-15T13:43	10	137	1.5	135	139	547	0.7	545	548	32.0	30.9
2025-08-15T13:44	10	137	0.8	135	138	547	0.9	545	548	32.0	31.3
2025-08-15T13:45	10	134	2.5	129	137	544	0.6	543	545	31.6	32.5
2025-08-15T13:46	10	133	1.4	131	136	546	1.3	543	548	31.6	33.1
2025-08-15T13:47	10	134	1.9	131	136	545	1.3	543	547	31.5	33.7
2025-08-15T13:48	10	140	1.9	137	142	542	0.6	541	544	31.6	33.8
2025-08-15T13:49	10	143	1.1	141	145	543	1.9	540	548	31.8	33.9
2025-08-15T13:50	10	143	2.0	138	145	547	2.2	543	550	32.3	33.7
2025-08-15T13:51	10	140	2.0	137	143	549	1.8	544	551	32.0	33.7
2025-08-15T13:52	10	140	1.1	139	143	550	1.6	546	552	32.1	34.2
2025-08-15T13:53	10	143	0.4	142	143	546	1.7	543	548	31.5	34.8
2025-08-15T13:54	10	141	0.8	140	143	548	0.9	546	550	31.8	35.3
2025-08-15T13:55	10	136	1.5	134	140	545	1.0	544	548	31.8	34.8
2025-08-15T13:56	10	135	1.0	133	137	544	1.4	542	547	31.6	35.3
2025-08-15T13:57	10	132	3.4	127	137	546	2.4	541	549	31.7	35.5
2025-08-15T13:58	10	129	2.6	124	132	544	1.2	542	545	31.6	35.7
2025-08-15T13:59	10	124	0.5	124	126	546	1.3	544	549	32.0	35.5
2025-08-15T14:00	10	132	2.6	126	135	539	3.7	534	545	31.9	34.6
2025-08-15T14:01	10	130	1.6	128	133	539	1.3	537	541	31.6	35.3
2025-08-15T14:02	10	130	0.9	129	132	541	1.0	539	543	31.5	35.5
2025-08-15T14:03	10	126	2.4	122	130	544	0.9	543	546	31.7	35.2
2025-08-15T14:04	10	123	0.6	122	124	541	3.9	533	545	32.3	34.3
2025-08-15T14:05	10	124	1.1	122	125	534	0.4	534	535	31.6	34.1
2025-08-15T14:06	10	123	1.0	121	125	535	1.1	533	537	31.6	34.1
2025-08-15T14:07	10	124	1.8	121	126	536	1.5	533	538	31.4	34.2
2025-08-15T14:08	10	130	3.1	125	134	537	0.9	535	539	31.3	34.3
2025-08-15T14:09	10	130	1.0	128	132	534	0.5	533	535	31.3	34.3
2025-08-15T14:10	10	125	3.3	121	131	535	1.5	531	536	31.7	34.4
2025-08-15T14:11	10	121	2.3	118	126	532	0.9	530	534	31.8	33.8
2025-08-15T14:12	10	122	1.7	120	126	533	1.3	531	535	31.5	34.2
2025-08-15T14:13	10	120	1.4	118	122	536	1.0	534	538	31.6	34.5
2025-08-15T14:14	10	113	3.3	109	120	531	1.7	527	535	31.4	34.5
2025-08-15T14:15	10	107	2.5	103	111	530	1.0	528	531	31.2	34.9
2025-08-15T14:16	10	105	0.7	103	106	532	1.0	529	534	31.6	35.0
2025-08-15T14:17	10	103	2.4	97	105	529	0.5	528	530	31.8	34.7
2025-08-15T14:18	10	93	1.9	91	97	525	2.2	523	530	31.4	34.9
2025-08-15T14:19	10	92	0.4	91	93	524	0.2	524	525	31.4	35.1
2025-08-15T14:20	10	91	0.6	90	92	525	0.6	525	527	31.5	35.1
2025-08-15T14:21	10	95	2.0	92	99	525	2.3	521	528	31.8	35.4
2025-08-15T14:22	10	101	0.5	100	102	522	1.3	520	524	31.6	35.5
2025-08-15T14:23	10	100	1.7	98	103	524	0.4	524	525	31.8	35.1
2025-08-15T14:24	10	101	2.3	98	105	526	0.9	524	528	31.6	35.0
2025-08-15T14:25	10	101	2.3	98	104	526	0.6	526	528	31.4	34.9
2025-08-15T14:26	10	97	0.6	96	99	525	1.0	524	528	31.6	34.5
2025-08-15T14:27	10	96	1.1	95	99	524	0.8	523	526	31.6	34.5
2025-08-15T14:28	10	99	0.5	98	101	523	1.1	521	524	31.6	34.5
2025-08-15T14:29	10	101	1.0	99	103	525	1.8	522	527	31.6	35.1
2025-08-15T14:30	10	103	1.4	100	105	528	0.6	527	529	31.9	34.8
2025-08-15T14:31	10	102	1.1	100	105	526	0.5	525	527	31.9	34.8
2025-08-15T14:32	10	106	2.1	103	109	527	1.0	525	529	31.9	35.1
2025-08-15T14:33	10	112	3.3	108	121	526	0.7	525	528	31.5	35.0
2025-08-15T14:34	10	118	2.2	115	121	531	0.9	528	533	31.4	35.0
2025-08-15T14:35	10	106	4.1	100	115	529	1.3	526	531	31.5	35.3
2025-08-15T14:36	10	98	1.4	96	101	528	0.8	527	530	31.6	34.9
2025-08-15T14:37	10	101	2.0	97	106	527	1.5	525	529	31.7	34.9
2025-08-15T14:38	10	102	5.5	92	108	525	1.0	522	527	31.4	34.6
2025-08-15T14:39	10	108	1.7	105	110	527	0.8	526	528	31.5	34.5
2025-08-15T14:40	10	96	11.0	71	107	525	2.7	517	527	31.7	34.3
2025-08-15T14:41	10	69	7.3	62	89	513	2.1	511	519	31.4	34.2
2025-08-15T14:42	10	74	8.6	65	92	516	1.6	514	518	31.3	34.4
2025-08-15T14:43	10	77	3.2	68	80	516	1.5	514	519	31.5	34.7
2025-08-15T14:44	10	90	4.3	81	98	520	1.7	518	523	31.6	34.5
2025-08-15T14:45	10	82	12.7	66	101	522	1.9	519	525	31.6	35.1
2025-08-15T14:46	10	79	1.0	77	80	518	0.7	517	520	31.7	35.2
2025-08-15T14:47	10	73	3.3	68	79	517	1.3	514	519	31.8	34.8
2025-08-15T14:48	10	69	1.7	66	72	512	2.0	509	515	31.5	34.7
2025-08-15T14:49	10	60	4.0	55	66	509	1.0	507	510	31.3	35.1
2025-08-15T14:50	10	64	0.7	62	65	510	0.8	508	511	31.5	35.2
2025-08-15T14:51	10	63	2.3	58	66	510	1.1	507	511	31.5	34.6
2025-08-15T14:52	10	53	2.3	50	58	505	1.9	502	508	31.6	34.4
2025-08-15T14:53	10	48	0.7	48	50	501	0.8	500	502	31.6	35.0
2025-08-15T14:54	10	48	0.2	47	48	500	0.6	499	501	31.4	34.2
2025-08-15T14:55	10	48	0.2	47	48	499	0.3	499	500	31.3	34.6
2025-08-15T14:56	10	48	0.3	47	49	500	0.6	499	501	31.4	34.6
2025-08-15T14:57	10	49	0.4	49	50	500	0.4	499	501	31.4	34.5
2025-08-15T14:58	10	51	1.3	50	54	500	0.9	499	502	31.5	34.6
2025-08-15T14:59	10	60	4.3	54	67	503	1.1	501	505	31.6	34.5
2025-08-15T15:00	10	65	1.8	62	68	503	1.0	502	505	31.4	33.5
2025-08-15T15:01	10	64	1.1	62	66	503	0.4	502	504	31.3	33.5
2025-08-15T15:02	10	64	1.5	62	67	505	0.6	504	506	31.4	33.7
2025-08-15T15:03	10	63	6.9	61	112	505	0.8	503	506	31.3	33.8
2025-08-15T15:04	10	61	2.4	57	64	507	0.5	506	508	31.4	34.0
2025-08-15T15:05	10	54	1.5	51	57	506	0.6	504	506	31.6	34.2
2025-08-15T15:06	10	48	1.4	47	51	503	0.6	502	504	31.6	34.6
2025-08-15T15:07	10	46	0.5	45	47	500	1.1	499	502	31.6	34.7
2025-08-15T15:08	10	45	0.4	44	45	498	0.3	497	499	31.6	34.5
2025-08-15T15:09	10	43	0.4	43	44	497	0.4	497	498	31.5	34.8
2025-08-15T15:10	10	42	0.4	42	43	497	0.4	496	498	31.5	35.2
2025-08-15T15:11	10	41	0.3	41	42	497	0.3	496	497	31.4	35.0
2025-08-15T15:12	10	40	0.3	40	41	495	0.3	495	496	31.5	35.2
2025-08-15T15:13	10	40	0.2	39	40	495	0.3	494	495	31.4	34.9
2025-08-15T15:14	10	39	0.2	39	39	494	0.8	492	495	31.4	35.9
2025-08-15T15:15	10	38	0.2	38	39	492	0.3	491	493	31.3	35.5
2025-08-15T15:16	10	38	0.1	37	38	493	0.4	492	493	31.2	35.6
2025-08-15T15:17	10	38	0.1	37	38	492	0.3	491	492	31.2	35.9
2025-08-15T15:18	10	37	0.1	37	37	491	0.4	490	492	31.2	35.6
2025-08-15T15:19	10	37	0.1	37	37	491	0.2	490	492	31.2	35.7
2025-08-15T15:20	10	37	0.1	37	37	490	0.3	489	490	31.2	35.7
2025-08-15T15:21	10	37	0.1	37	37	490	0.4	489	491	31.2	35.8
2025-08-15T15:22	10	38	0.2	37	38	491	0.5	490	492	31.2	36.0
2025-08-15T15:23	10	38	0.1	38	38	491	0.3	490	491	31.1	36.0
2025-08-15T15:24	10	38	0.1	38	38	491	0.2	490	491	31.1	36.3
2025-08-15T15:25	10	38	0.1	38	38	491	0.3	490	491	31.0	36.2
2025-08-15T15:26	10	38	0.2	38	38	490	0.3	490	491	31.1	36.4
2025-08-15T15:27	10	37	0.2	37	38	490	0.2	489	490	31.1	36.5
2025-08-15T15:28	10	37	0.2	36	37	490	0.3	489	490	31.1	36.5
2025-08-15T15:29	10	36	0.3	35	36	489	0.4	489	490	31.1	36.1
2025-08-15T15:30	10	35	0.3	34	35	488	0.4	488	489	31.0	36.1
2025-08-15T15:31	10	34	0.3	33	34	487	0.3	487	488	31.0	36.3
2025-08-15T15:32	10	33	0.3	32	33	487	0.2	487	488	31.0	36.4
2025-08-15T15:33	10	31	4.3	5	32	487	0.2	487	488	31.1	36.5
2025-08-15T15:34	10	31	0.3	30	31	487	0.3	487	488	31.1	36.9
2025-08-15T15:35	10	30	0.2	29	30	487	0.3	486	488	31.1	37.0
2025-08-15T15:36	10	29	0.2	29	30	486	0.2	486	487	31.1	36.7
2025-08-15T15:37	10	29	0.2	28	29	486	0.3	485	487	31.0	36.8
2025-08-15T15:38	10	28	0.2	28	28	486	0.2	485	486	31.1	37.1
2025-08-15T15:39	10	28	0.2	27	28	485	0.4	485	486	31.1	37.2
2025-08-15T15:40	10	27	0.2	27	27	485	0.2	484	485	31.1	37.2
2025-08-15T15:41	10	27	0.1	27	27	484	0.3	483	484	31.1	37.3
2025-08-15T15:42	10	27	0.1	26	27	484	0.3	483	485	31.1	37.3
2025-08-15T15:43	10	26	0.1	26	27	483	0.2	483	484	31.1	37.2
2025-08-15T15:44	10	26	0.1	26	26	484	0.2	483	484	31.1	37.4
2025-08-15T15:45	10	26	0.1	26	26	483	0.2	483	484	31.1	37.4
2025-08-15T15:46	10	26	0.1	26	26	483	0.3	482	483	31.1	37.5
2025-08-15T15:47	10	26	0.1	25	26	482	0.3	482	483	31.0	37.5
2025-08-15T15:48	10	26	0.1	25	26	482	0.2	482	483	31.0	37.5
2025-08-15T15:49	10	25	0.1	25	26	482	0.2	482	483	31.0	37.7
2025-08-15T15:50	10	25	0.2	25	25	482	0.3	481	482	31.0	37.5
2025-08-15T15:51	10	24	0.2	24	25	481	0.2	481	482	31.0	37.9
2025-08-15T15:52	10	24	0.2	24	24	481	0.3	480	481	31.0	37.5
2025-08-15T15:53	10	23	0.2	23	24	480	0.4	479	480	30.9	37.4
2025-08-15T15:54	10	23	0.2	22	23	479	0.2	479	480	30.9	37.5
2025-08-15T15:55	10	22	0.2	22	23	479	0.3	478	479	30.8	37.8
2025-08-15T15:56	10	22	0.2	21	22	479	0.2	478	479	30.9	38.2
2025-08-15T15:57	10	21	0.2	21	21	479	0.3	478	479	30.9	38.1
2025-08-15T15:58	10	20	0.2	20	21	478	0.3	477	479	30.8	38.2
2025-08-15T15:59	10	20	0.3	19	20	478	0.3	477	478	30.8	38.1
2025-08-15T16:00	10	19	0.2	19	20	477	0.3	476	478	30.8	38.5
2025-08-15T16:01	10	18	0.2	18	19	476	0.3	476	477	30.9	38.1
2025-08-15T16:02	10	18	0.3	18	19	476	0.2	475	476	30.8	38.1
2025-08-15T16:03	10	18	0.2	17	19	476	0.3	475	476	30.8	38.3
2025-08-15T16:04	10	18	0.1	18	18	475	0.2	475	476	30.8	38.3
2025-08-15T16:05	10	18	0.1	17	18	475	0.2	475	475	30.8	38.2
2025-08-15T16:06	10	18	0.2	18	19	475	0.2	475	476	30.8	38.3
2025-08-15T16:07	10	18	0.2	18	19	475	0.3	474	476	30.7	38.8
2025-08-15T16:08	10	18	0.1	18	18	475	0.2	474	475	30.7	39.2
2025-08-15T16:09	10	18	0.1	17	18	474	0.3	474	475	30.6	39.4
2025-08-15T16:10	10	17	0.1	17	18	474	0.3	473	475	30.5	39.7
2025-08-15T16:11	10	17	0.1	17	17	474	0.2	473	475	30.5	39.9
2025-08-15T16:12	10	17	0.2	16	17	473	0.3	473	474	30.5	39.7
2025-08-15T16:13	10	16	0.1	16	17	473	0.2	472	473	30.5	39.6
2025-08-15T16:14	10	16	0.1	16	16	473	0.2	472	473	30.4	39.4
2025-08-15T16:15	10	16	0.1	16	16	472	0.2	472	473	30.5	39.5
2025-08-15T16:16	10	16	0.1	16	16	472	0.2	471	472	30.4	38.9
2025-08-15T16:17	10	16	0.1	16	16	472	0.2	471	472	30.4	39.3
2025-08-15T16:18	10	16	0.1	16	16	472	0.2	471	472	30.4	39.2
2025-08-15T16:19	10	16	0.1	16	17	472	0.2	471	472	30.4	39.3
2025-08-15T16:20	10	16	0.1	16	17	471	0.2	471	472	30.4	39.1
2025-08-15T16:21	10	16	0.1	16	16	471	0.2	470	471	30.3	39.1
2025-08-15T16:22	10	16	0.1	16	16	471	0.2	470	471	30.3	39.3
2025-08-15T16:23	10	16	0.1	16	16	470	0.2	470	471	30.3	39.0
2025-08-15T16:24	10	16	0.2	16	17	470	0.2	469	471	30.2	39.3
2025-08-15T16:25	10	17	0.3	16	18	470	0.2	469	470	30.2	39.4
2025-08-15T16:26	10	19	0.9	18	20	470	0.4	469	471	30.1	39.5
2025-08-15T16:27	10	23	2.4	20	28	470	0.5	470	472	30.1	39.4
2025-08-15T16:28	10	33	2.4	29	38	473	0.8	471	474	30.0	39.6
2025-08-15T16:29	10	44	2.5	38	50	475	1.3	473	478	30.0	39.7
2025-08-15T16:30	10	56	3.4	49	60	480	1.3	477	482	30.1	39.7
2025-08-15T16:31	10	63	1.3	60	65	481	0.4	480	482	30.1	39.5
2025-08-15T16:32	10	66	0.9	64	67	483	0.8	482	485	30.1	39.8
2025-08-15T16:33	10	65	1.1	63	67	485	0.9	484	487	30.2	39.9
2025-08-15T16:34	10	67	0.6	66	68	487	0.4	486	488	30.3	40.1
2025-08-15T16:35	10	66	0.2	66	67	487	0.4	487	488	30.3	40.3
2025-08-15T16:36	10	66	0.2	65	66	487	0.6	486	488	30.3	40.5
2025-08-15T16:37	10	65	0.2	64	65	486	0.3	485	487	30.2	40.6
2025-08-15T16:38	10	64	0.3	64	65	486	0.4	485	487	30.2	40.8
2025-08-15T16:39	10	63	0.3	63	64	485	0.2	485	486	30.2	41.0
2025-08-15T16:40	10	62	0.3	62	63	486	0.5	485	487	30.3	41.1
2025-08-15T16:41	10	61	0.2	61	62	484	0.5	484	486	30.1	41.3
2025-08-15T16:42	10	61	0.2	60	61	484	0.3	484	485	30.1	41.5
2025-08-15T16:43	10	60	0.2	60	61	485	0.4	484	485	30.2	41.5
2025-08-15T16:44	10	60	0.2	59	60	485	0.5	485	486	30.3	41.6
2025-08-15T16:45	10	59	0.2	59	59	486	0.3	486	487	30.5	41.9
2025-08-15T16:46	10	58	0.2	58	59	486	0.3	486	487	30.5	42.0
2025-08-15T16:47	10	58	0.2	57	58	486	0.7	484	487	30.5	41.5
2025-08-15T16:48	10	57	0.2	57	58	484	0.3	484	485	30.5	40.9
2025-08-15T16:49	10	57	0.2	56	57	484	0.6	483	485	30.5	41.2
2025-08-15T16:50	10	56	0.3	55	56	484	0.4	482	484	30.5	41.2
2025-08-15T16:51	10	55	0.3	54	56	483	0.3	482	483	30.4	40.8
2025-08-15T16:52	10	54	0.2	54	55	483	0.3	482	484	30.5	40.9
2025-08-15T16:53	10	54	0.2	54	54	483	0.2	482	483	30.5	41.1
2025-08-15T16:54	10	53	0.2	53	54	483	0.3	482	484	30.5	41.3
2025-08-15T16:55	10	53	0.2	52	53	482	0.5	481	483	30.5	41.1
2025-08-15T16:56	10	52	0.3	51	52	482	0.3	481	483	30.5	41.0
2025-08-15T16:57	10	51	0.3	51	52	481	0.4	481	482	30.5	41.5
2025-08-15T16:58	10	50	0.2	50	51	481	0.3	480	481	30.5	41.4
2025-08-15T16:59	10	50	0.1	50	50	481	0.3	480	481	30.5	41.4
2025-08-15T17:00	10	50	0.2	49	50	480	0.4	479	481	30.5	41.7
2025-08-15T17:01	10	49	0.2	49	50	481	0.3	480	481	30.5	41.8
2025-08-15T17:02	10	49	0.2	48	49	480	0.5	479	481	30.4	41.7
2025-08-15T17:03	10	48	0.2	48	49	480	0.2	479	481	30.5	41.8
2025-08-15T17:04	10	48	0.3	47	48	480	0.3	479	480	30.5	42.0
2025-08-15T17:05	10	47	0.2	47	47	480	0.3	479	481	30.5	41.8
2025-08-15T17:06	10	46	0.2	46	47	479	0.4	478	480	30.5	42.0
2025-08-15T17:07	10	46	0.2	45	46	479	0.2	478	479	30.5	41.8
2025-08-15T17:08	10	45	0.2	44	45	479	0.2	479	480	30.5	42.0
2025-08-15T17:09	10	44	0.2	44	45	479	0.4	478	479	30.5	42.0
2025-08-15T17:10	10	44	0.2	43	44	478	0.3	477	478	30.5	41.5
2025-08-15T17:11	10	43	0.2	43	44	478	0.2	477	478	30.5	41.8
2025-08-15T17:12	10	42	0.2	42	43	478	0.2	477	478	30.6	42.2
2025-08-15T17:13	10	42	0.2	41	42	477	0.2	477	478	30.5	42.3
2025-08-15T17:14	10	41	0.2	41	41	477	0.4	476	478	30.5	42.6
2025-08-15T17:15	10	40	0.2	40	41	477	0.2	476	477	30.5	42.6
2025-08-15T17:16	10	40	0.1	40	40	476	0.4	475	476	30.5	42.7
2025-08-15T17:17	10	39	0.2	39	40	475	0.2	475	476	30.4	42.6
2025-08-15T17:18	10	39	0.2	38	39	475	0.2	475	476	30.4	42.8
2025-08-15T17:19	10	38	0.2	38	39	475	0.3	475	476	30.4	42.8
2025-08-15T17:20	10	38	0.2	37	38	475	0.2	474	476	30.4	43.0
2025-08-15T17:21	10	37	0.2	37	38	475	0.2	474	475	30.4	43.2
2025-08-15T17:22	10	37	0.2	36	37	474	0.4	473	475	30.4	43.0
2025-08-15T17:23	10	36	0.2	35	36	473	0.3	473	474	30.4	42.7
2025-08-15T17:24	10	35	0.2	35	36	473	0.2	472	474	30.4	42.7
2025-08-15T17:25	10	35	0.2	34	35	473	0.3	472	473	30.3	42.5
2025-08-15T17:26	10	34	0.2	34	34	472	0.3	471	473	30.3	42.6
2025-08-15T17:27	10	33	0.2	33	34	472	0.2	472	473	30.3	42.7
2025-08-15T17:28	10	33	0.2	33	33	472	0.3	471	472	30.3	43.0
2025-08-15T17:29	10	32	0.2	32	33	471	0.2	471	472	30.2	43.3
2025-08-15T17:30	10	32	0.2	31	32	471	0.2	470	471	30.2	43.6
2025-08-15T17:31	10	31	0.2	31	31	470	0.3	470	471	30.2	43.9
2025-08-15T17:32	10	30	0.2	30	31	470	0.3	469	471	30.2	43.1
2025-08-15T17:33	10	30	0.2	29	30	470	0.3	469	470	30.2	43.3
2025-08-15T17:34	10	29	0.2	29	30	469	0.3	468	470	30.2	43.0
2025-08-15T17:35	10	29	0.2	28	29	469	0.4	468	470	30.2	42.9
2025-08-15T17:36	10	28	0.2	27	28	468	0.3	468	469	30.1	43.5
2025-08-15T17:37	10	27	0.2	27	28	468	0.2	467	468	30.1	42.9
2025-08-15T17:38	10	27	0.2	26	27	467	0.3	467	468	30.1	43.1
2025-08-15T17:39	10	26	0.2	25	26	467	0.3	466	467	30.1	43.3
2025-08-15T17:40	10	25	0.2	25	25	466	0.2	466	467	30.1	43.1
2025-08-15T17:41	10	25	0.2	24	25	466	0.3	465	467	30.1	42.9
2025-08-15T17:42	10	24	0.2	24	24	466	0.3	465	467	30.0	43.2
2025-08-15T17:43	10	23	0.2	23	24	465	0.2	465	466	30.0	43.3
2025-08-15T17:44	10	23	0.2	22	23	465	0.3	465	466	30.0	43.1
2025-08-15T17:45	10	22	0.2	22	23	465	0.2	464	465	30.0	43.2
2025-08-15T17:46	10	22	0.2	21	22	464	0.2	464	465	30.0	43.0
2025-08-15T17:47	10	21	0.2	21	21	464	0.3	464	465	30.0	43.0
2025-08-15T17:48	10	20	0.2	20	21	463	0.3	463	464	30.0	42.8
2025-08-15T17:49	10	20	0.2	20	20	464	0.3	463	464	30.0	42.7
2025-08-15T17:50	10	19	0.2	19	20	463	0.3	462	463	30.0	43.0
2025-08-15T17:51	10	19	0.2	18	19	462	0.2	462	463	30.0	43.1
2025-08-15T17:52	10	18	0.2	18	18	462	0.3	461	463	30.0	43.0
2025-08-15T17:53	10	17	0.2	17	18	462	0.3	462	463	30.0	42.6
2025-08-15T17:54	10	17	0.2	17	17	462	0.3	461	463	30.0	42.8
2025-08-15T17:55	10	16	0.7	14	17	461	0.5	460	462	30.0	43.1
2025-08-15T17:56	10	12	1.1	11	14	460	0.5	459	461	29.9	43.3
2025-08-15T17:57	10	12	0.6	11	13	459	0.2	459	460	29.8	43.5
2025-08-15T17:58	10	14	0.5	13	14	459	0.3	459	460	29.7	43.9
2025-08-15T17:59	10	14	0.2	14	14	459	0.3	458	459	29.7	43.9
2025-08-15T18:00	10	13	0.2	13	14	459	0.3	458	459	29.7	43.7
2025-08-15T18:01	10	13	0.1	13	13	459	0.3	458	459	29.8	43.5
2025-08-15T18:02	10	13	0.1	13	13	458	0.3	457	459	29.7	43.8
2025-08-15T18:03	10	12	0.1	12	13	457	0.4	456	458	29.7	44.0
2025-08-15T18:04	10	12	0.1	12	12	457	0.3	456	457	29.7	44.0
2025-08-15T18:05	10	12	0.1	11	12	456	0.4	455	457	29.7	44.1
2025-08-15T18:06	10	11	0.1	11	11	456	0.3	456	457	29.7	44.1
2025-08-15T18:07	10	11	0.1	11	11	456	0.3	455	456	29.6	44.4
2025-08-15T18:08	10	10	0.2	10	11	455	0.4	455	456	29.6	44.5
2025-08-15T18:09	10	10	0.1	10	10	455	0.2	454	455	29.5	44.9
2025-08-15T18:10	10	10	0.1	9	10	454	0.3	453	455	29.5	44.7
2025-08-15T18:11	10	9	0.2	9	9	454	0.2	453	454	29.5	44.8
2025-08-15T18:12	10	9	0.2	8	9	454	0.2	453	454	29.5	44.5
2025-08-15T18:13	10	8	0.2	8	8	453	0.4	453	454	29.5	44.4
2025-08-15T18:14	10	8	0.2	7	8	453	0.3	452	453	29.4	44.7
2025-08-15T18:15	10	7	0.2	7	8	452	0.2	452	453	29.4	44.7
2025-08-15T18:16	10	7	0.1	7	7	452	0.2	451	452	29.4	44.9
2025-08-15T18:17	10	7	0.1	6	7	451	0.3	451	452	29.4	45.1
2025-08-15T18:18	10	6	0.1	6	6	450	0.3	450	451	29.4	45.2
2025-08-15T18:19	10	6	0.2	6	6	450	0.2	449	451	29.3	45.5
2025-08-15T18:20	10	6	0.1	5	6	450	0.2	449	450	29.3	45.7
2025-08-15T18:21	10	5	0.1	5	5	449	0.2	448	449	29.3	45.9
2025-08-15T18:22	10	5	0.1	5	5	449	0.3	448	449	29.3	46.1
2025-08-15T18:23	10	4	0.1	4	5	448	0.3	448	449	29.1	47.4
2025-08-15T18:24	10	4	0.2	4	4	449	0.3	448	450	29.0	48.2
2025-08-15T18:25	10	4	0.2	3	4	449	0.2	449	449	28.9	48.9
2025-08-15T18:26	10	3	0.1	3	4	448	0.3	447	449	28.8	49.3
2025-08-15T18:27	10	3	0.1	3	3	447	0.3	447	448	28.8	49.6
2025-08-15T18:28	10	3	0.1	3	3	447	0.3	446	447	28.7	50.0
2025-08-15T18:29	10	3	0.2	2	3	447	0.3	446	447	28.6	50.4
2025-08-15T18:30	10	2	0.1	2	3	446	0.3	445	447	28.5	50.8
2025-08-15T18:31	10	2	0.1	2	3	446	0.3	445	446	28.5	51.2
2025-08-15T18:32	10	2	0.1	2	2	445	0.2	444	445	28.5	51.6
2025-08-15T18:33	10	2	0.1	2	2	445	0.3	444	445	28.4	51.8
2025-08-15T18:34	10	2	0.1	2	2	444	0.3	443	444	28.4	52.0
2025-08-15T18:35	10	2	0.1	1	2	444	0.5	443	445	28.3	52.7
2025-08-15T18:36	10	1	0.1	1	2	445	0.4	444	446	28.1	53.2
2025-08-15T18:37	10	1	0.1	1	2	445	0.2	445	445	28.1	53.5
2025-08-15T18:38	10	1	0.1	1	1	445	0.3	444	445	28.1	53.8
2025-08-15T18:39	10	1	0.1	1	1	444	0.3	443	444	28.0	54.0
2025-08-15T18:40	10	1	0.1	1	1	443	0.2	443	444	28.0	53.9
2025-08-15T18:41	10	1	0.1	1	1	443	0.2	443	444	28.0	53.7
2025-08-15T18:42	10	1	0.1	1	1	443	0.2	442	444	27.9	54.0
2025-08-15T18:43	10	1	0.1	1	1	443	0.2	442	443	27.9	53.9
2025-08-15T18:44	10	1	0.1	1	1	443	0.2	442	443	27.9	54.1
2025-08-15T18:45	10	1	0.1	0	1	442	0.2	442	442	27.8	54.5
2025-08-15T18:46	10	1	0.1	0	1	442	0.3	441	443	27.8	54.4
2025-08-15T18:47	10	0	0.1	0	1	442	0.2	442	442	27.8	54.5
2025-08-15T18:48	10	1	0.2	0	1	442	0.3	441	442	27.7	54.7
2025-08-15T18:49	10	0	0.1	0	1	441	0.2	441	442	27.7	54.7
2025-08-15T18:50	10	0	0.2	0	1	442	0.3	441	442	27.7	54.8
2025-08-15T18:51	10	0	0.1	0	1	441	0.2	441	442	27.7	55.0
2025-08-15T18:52	10	0	0.2	0	1	441	0.2	440	441	27.6	55.0
2025-08-15T18:53	10	0	0.2	0	1	440	0.4	439	441	27.6	55.3
2025-08-15T18:54	10	0	0.2	0	1	439	0.4	438	440	27.5	55.5
2025-08-15T18:55	10	0	0.2	0	1	437	0.6	436	439	27.3	56.4
2025-08-15T18:56	10	0	0.1	0	1	436	0.4	435	437	27.3	56.4
2025-08-15T18:57	10	0	0.2	0	1	436	0.3	435	436	27.3	56.3
2025-08-15T18:58	10	0	0.2	0	1	435	0.3	435	436	27.3	56.3
2025-08-15T18:59	10	0	0.1	0	1	435	0.2	435	436	27.2	56.4
2025-08-15T19:00	10	0	0.1	0	0	436	0.6	435	437	27.3	56.3
2025-08-15T19:01	10	0	0.1	0	0	436	0.2	436	437	27.2	56.6
2025-08-15T19:02	10	0	0.1	0	0	435	0.4	435	436	27.1	56.9
2025-08-15T19:03	10	0	0.1	0	0	435	0.3	434	436	27.1	56.8
2025-08-15T19:04	10	0	0.1	0	0	434	0.4	433	435	27.1	57.0
2025-08-15T19:05	10	0	0.1	0	0	434	0.3	433	434	27.1	56.8
2025-08-15T19:06	10	0	0.1	0	0	433	0.4	432	434	27.0	57.0
2025-08-15T19:07	10	0	0.1	0	0	433	0.3	432	434	26.9	57.4
2025-08-15T19:08	10	0	0.1	0	0	433	0.3	432	433	26.9	57.8
2025-08-15T19:09	10	0	0.1	0	0	433	0.3	432	433	26.8	57.8
2025-08-15T19:10	10	0	0.1	0	0	432	0.2	431	433	26.8	57.8
2025-08-15T19:11	10	0	0.1	0	0	432	0.3	431	432	26.8	57.8
2025-08-15T19:12	10	0	0.1	0	0	431	0.2	431	432	26.7	58.1
2025-08-15T19:13	10	0	0.1	0	0	431	0.2	430	431	26.7	58.0
2025-08-15T19:14	10	0	0.1	0	0	431	0.2	430	431	26.8	57.8
2025-08-15T19:15	10	0	0.1	0	0	430	0.3	430	431	26.8	57.7
2025-08-15T19:16	10	0	0.1	0	0	430	0.3	429	431	26.9	57.3
2025-08-15T19:17	10	0	0.1	0	0	430	0.2	430	430	26.9	57.1
2025-08-15T19:18	10	0	0.1	0	0	431	0.4	430	432	27.0	56.9
2025-08-15T19:19	10	0	0.1	0	0	431	0.4	430	432	27.0	56.9
2025-08-15T19:20	10	0	0.1	0	0	432	0.3	431	432	27.0	56.8
2025-08-15T19:21	10	0	0.1	0	0	432	0.2	432	432	27.0	57.1
2025-08-15T19:22	10	0	0.1	0	0	432	0.2	432	433	27.0	57.2
2025-08-15T19:23	10	0	0.1	0	0	432	0.2	431	432	26.9	57.4
2025-08-15T19:24	10	0	0.0	0	0	432	0.2	432	433	26.9	57.6
2025-08-15T19:25	10	0	0.1	0	0	432	0.3	431	432	26.9	57.7
2025-08-15T19:26	10	0	0.0	0	0	431	0.3	431	432	26.9	57.7
2025-08-15T19:27	10	0	0.0	0	0	431	0.2	430	431	26.9	57.7
2025-08-15T19:28	10	0	0.0	0	0	430	0.3	429	431	26.9	57.9
2025-08-15T19:29	10	0	0.1	0	0	429	0.4	429	430	26.8	58.3
2025-08-15T19:30	10	0	0.1	0	0	428	0.4	428	429	26.6	59.0
2025-08-15T19:31	10	0	0.1	0	0	428	0.2	428	429	26.5	59.5
2025-08-15T19:32	10	0	0.2	0	1	428	0.3	428	429	26.4	59.7
2025-08-15T19:33	10	0	0.2	0	1	429	0.4	428	430	26.3	60.3
2025-08-15T19:34	10	0	0.2	0	1	429	0.2	429	430	26.2	60.5
2025-08-15T19:35	10	0	0.2	0	1	429	0.3	429	430	26.3	60.3
2025-08-15T19:36	10	0	0.1	0	0	430	0.2	429	430	26.4	60.0
2025-08-15T19:37	10	0	0.2	0	1	429	0.2	429	430	26.4	59.8
2025-08-15T19:38	10	0	0.2	0	1	429	0.3	429	430	26.3	59.3
2025-08-15T19:39	10	0	0.2	0	1	429	0.3	429	430	26.2	59.4
2025-08-15T19:40	10	0	0.2	0	1	429	0.4	429	430	26.2	59.6
2025-08-15T19:41	10	0	0.2	0	0	429	0.3	428	430	26.0	59.4
2025-08-15T19:42	10	0	0.2	0	1	429	0.3	428	429	25.9	59.8
2025-08-15T19:43	10	0	0.1	0	0	428	0.3	427	429	25.8	60.2
2025-08-15T19:44	10	0	0.1	0	0	428	0.4	427	429	25.8	60.3
2025-08-15T19:45	10	0	0.1	0	0	429	0.2	428	429	26.0	60.2
2025-08-15T19:46	10	0	0.1	0	0	428	0.3	428	429	26.2	60.0
2025-08-15T19:47	10	0	0.1	0	0	428	0.3	427	428	26.2	59.8
2025-08-15T19:48	10	0	0.1	0	0	427	0.2	426	427	26.1	59.8
2025-08-15T19:49	10	0	0.1	0	0	426	0.3	426	427	26.1	60.2
2025-08-15T19:50	10	0	0.1	0	0	426	0.2	425	426	26.0	60.4
2025-08-15T19:51	10	0	0.1	0	0	426	0.2	425	426	26.0	60.5
2025-08-15T19:52	10	0	0.1	0	0	426	0.3	425	427	26.1	60.2
2025-08-15T19:53	10	0	0.1	0	0	426	0.3	425	427	26.3	59.6
2025-08-15T19:54	10	0	0.1	0	0	426	0.2	425	426	26.4	59.3
2025-08-15T19:55	10	0	0.1	0	0	426	0.3	425	426	26.1	59.9
2025-08-15T19:56	10	0	0.1	0	0	426	0.2	426	427	26.0	60.7
2025-08-15T19:57	10	0	0.1	0	0	426	0.2	426	427	25.9	61.2
2025-08-15T19:58	10	0	0.1	0	0	426	0.2	426	426	25.8	61.7
2025-08-15T19:59	10	0	0.1	0	0	426	0.3	425	426	25.7	62.0
2025-08-15T20:00	10	0	0.1	0	0	425	0.3	424	425	25.7	62.3
2025-08-15T20:01	10	0	0.1	0	0	424	0.3	423	424	25.6	62.6
2025-08-15T20:02	10	0	0.1	0	0	422	0.5	421	423	25.2	63.8
2025-08-15T20:03	10	0	0.1	0	0	423	0.5	422	423	24.9	65.0
2025-08-15T20:04	10	0	0.1	0	0	423	0.3	423	424	24.9	65.1
2025-08-15T20:05	10	0	0.1	0	0	423	0.2	422	423	25.0	64.9
2025-08-15T20:06	10	0	0.1	0	0	423	0.2	422	423	25.0	64.9
2025-08-15T20:07	10	0	0.1	0	0	422	0.2	422	423	25.0	64.8
2025-08-15T20:08	10	0	0.1	0	0	422	0.2	422	423	25.0	64.7
2025-08-15T20:09	10	0	0.1	0	0	422	0.3	421	422	25.0	64.4
2025-08-15T20:10	10	0	0.1	0	0	422	0.5	421	423	25.0	64.7
2025-08-15T20:11	10	0	0.1	0	0	422	0.3	422	423	25.0	64.6
2025-08-15T20:12	10	0	0.1	0	0	422	0.2	422	423	25.1	64.3
2025-08-15T20:13	10	0	0.1	0	0	422	0.3	421	423	25.1	64.2
2025-08-15T20:14	10	0	0.1	0	0	422	0.2	422	423	25.2	64.2
2025-08-15T20:15	10	0	0.1	0	0	422	0.3	422	423	25.2	63.9
2025-08-15T20:16	10	0	0.1	0	0	422	0.6	421	423	25.0	64.8
2025-08-15T20:17	10	0	0.1	0	0	423	0.6	422	424	24.6	66.3
2025-08-15T20:18	10	0	0.1	0	0	423	0.4	422	424	24.8	65.6
2025-08-15T20:19	10	0	0.1	0	0	424	0.3	424	425	25.0	64.8
2025-08-15T20:20	10	0	0.1	0	0	424	0.5	423	425	25.1	64.3
2025-08-15T20:21	10	0	0.1	0	0	425	0.3	424	425	25.2	63.9
2025-08-15T20:22	10	0	0.1	0	0	424	0.2	424	425	25.3	63.5
2025-08-15T20:23	10	0	0.0	0	0	423	0.2	423	424	25.3	63.4
2025-08-15T20:24	10	0	0.1	0	0	424	0.2	423	424	25.2	63.8
2025-08-15T20:25	10	0	0.1	0	0	423	0.2	423	424	25.3	63.2
2025-08-15T20:26	10	0	0.1	0	0	423	0.3	423	424	25.2	63.8
2025-08-15T20:27	10	0	0.1	0	0	423	0.3	422	423	25.0	64.3
2025-08-15T20:28	10	0	0.0	0	0	422	0.3	421	423	24.9	65.0
2025-08-15T20:29	10	0	0.1	0	0	421	0.3	421	422	24.5	66.2
2025-08-15T20:30	10	0	0.1	0	0	421	0.2	420	422	24.3	67.0
2025-08-15T20:31	10	0	0.1	0	0	421	0.2	421	422	24.3	67.5
2025-08-15T20:32	10	0	0.0	0	0	421	0.2	420	421	24.3	68.2
2025-08-15T20:33	10	0	0.1	0	0	420	0.3	420	421	24.1	69.1
2025-08-15T20:34	10	0	0.1	0	0	419	0.2	419	420	24.0	69.5
2025-08-15T20:35	10	0	0.1	0	0	420	0.2	419	420	24.1	68.7
2025-08-15T20:36	10	0	0.1	0	0	419	0.3	419	420	24.3	67.5
2025-08-15T20:37	10	0	0.1	0	0	419	0.2	419	419	24.1	69.0
2025-08-15T20:38	10	0	0.2	0	1	419	0.4	418	420	24.1	68.6
2025-08-15T20:39	10	0	0.2	0	1	419	0.4	418	420	24.3	67.0
2025-08-15T20:40	10	0	0.2	0	1	419	0.3	419	420	24.4	66.0
2025-08-15T20:41	10	0	0.2	0	1	419	0.6	418	421	24.4	65.6
2025-08-15T20:42	10	0	0.2	0	0	420	0.4	419	421	24.5	64.6
2025-08-15T20:43	10	0	0.2	0	1	420	0.4	419	421	24.6	63.8
2025-08-15T20:44	10	0	0.2	0	1	420	0.3	419	421	24.5	64.5
2025-08-15T20:45	10	0	0.2	0	1	419	0.5	418	420	24.6	64.2
2025-08-15T20:46	10	0	0.1	0	1	418	0.4	418	419	24.3	66.3
2025-08-15T20:47	10	0	0.2	0	1	418	0.3	418	419	24.1	67.6
2025-08-15T20:48	10	0	0.2	0	1	418	0.3	418	419	24.0	67.6
2025-08-15T20:49	10	0	0.2	0	1	418	0.2	417	418	24.0	67.8
2025-08-15T20:50	10	0	0.2	0	0	418	0.6	417	420	24.1	66.7
2025-08-15T20:51	10	0	0.1	0	0	419	0.3	418	419	24.5	64.8
2025-08-15T20:52	10	0	0.1	0	0	418	0.3	417	419	24.5	65.7
2025-08-15T20:53	10	0	0.1	0	0	419	0.2	418	419	24.4	66.0
2025-08-15T20:54	10	0	0.1	0	0	418	0.2	417	419	24.4	65.2
2025-08-15T20:55	10	0	0.1	0	0	419	0.3	418	420	24.7	64.3
2025-08-15T20:56	10	0	0.1	0	0	419	0.3	418	419	24.8	63.7
2025-08-15T20:57	10	0	0.1	0	0	418	0.3	417	419	24.6	64.3
2025-08-15T20:58	10	0	0.1	0	0	418	0.4	417	418	24.5	64.7
2025-08-15T20:59	10	0	0.1	0	0	417	0.3	417	418	24.4	65.1
2025-08-15T21:00	10	0	0.1	0	0	418	0.2	417	418	24.2	65.6
2025-08-15T21:01	10	0	0.1	0	0	417	0.3	417	418	24.1	65.9
2025-08-15T21:02	10	0	0.1	0	1	417	0.3	416	418	24.1	65.7
2025-08-15T21:03	10	0	0.1	0	0	417	0.2	416	417	24.0	65.9
2025-08-15T21:04	10	0	0.1	0	0	416	0.2	416	417	24.0	66.1
2025-08-15T21:05	10	0	0.1	0	0	417	0.4	416	417	24.0	66.0
2025-08-15T21:06	10	0	0.0	0	0	416	0.8	414	417	24.2	65.9
2025-08-15T21:07	10	0	0.1	0	0	415	0.4	414	416	24.2	65.9
2025-08-15T21:08	10	0	0.1	0	0	416	0.3	415	416	24.2	65.9
2025-08-15T21:09	10	0	0.1	0	0	416	0.4	415	416	24.2	65.9
2025-08-15T21:10	10	0	0.1	0	0	416	0.3	415	416	24.2	65.9
2025-08-15T21:11	10	0	0.1	0	0	416	0.3	415	416	24.2	65.9
2025-08-15T21:12	10	0	0.1	0	0	416	0.3	415	416	24.2	65.9
2025-08-15T21:13	10	0	0.1	0	0	416	0.3	415	416	24.2	65.9
2025-08-15T21:14	10	0	0.1	0	0	416	0.3	415	417	24.0	66.4
2025-08-15T21:15	10	0	0.1	0	0	416	0.3	415	417	23.8	66.6
2025-08-15T21:16	10	0	0.1	0	0	416	0.2	416	417	23.8	66.9
2025-08-15T21:17	10	0	0.1	0	0	416	0.3	416	417	23.8	67.1
2025-08-15T21:18	10	0	0.0	0	0	416	0.2	416	417	23.9	67.0
2025-08-15T21:19	10	0	0.1	0	0	416	0.2	416	417	23.8	67.2
2025-08-15T21:20	10	0	0.1	0	0	417	0.4	417	418	23.8	67.6
2025-08-15T21:21	10	0	0.1	0	0	418	0.3	417	418	23.6	68.0
2025-08-15T21:22	10	0	0.1	0	1	417	0.3	416	418	23.6	67.9
2025-08-15T21:23	10	0	0.1	0	0	417	0.2	416	417	23.6	67.6
2025-08-15T21:24	10	0	0.1	0	0	416	0.2	416	417	23.6	67.9
2025-08-15T21:25	10	0	0.1	0	0	416	0.2	415	416	23.6	67.6
2025-08-15T21:26	10	0	0.1	0	0	416	0.2	415	416	23.6	68.1
2025-08-15T21:27	10	0	0.1	0	0	416	0.3	415	416	23.6	68.1
2025-08-15T21:28	10	0	0.1	0	0	415	0.2	415	416	23.6	68.1
2025-08-15T21:29	10	0	0.1	0	0	415	0.3	415	416	23.5	68.4
2025-08-15T21:30	10	0	0.1	0	0	415	0.4	415	416	23.4	68.9
2025-08-15T21:31	10	0	0.1	0	0	416	0.3	416	417	23.3	69.3
2025-08-15T21:32	10	0	0.1	0	0	416	0.2	416	417	23.3	69.7
2025-08-15T21:33	10	0	0.1	0	0	415	0.2	415	416	23.2	70.5
2025-08-15T21:34	10	0	0.1	0	0	415	0.4	414	416	23.0	71.5
2025-08-15T21:35	10	0	0.1	0	0	416	0.3	415	417	23.0	71.5
2025-08-15T21:36	10	0	0.1	0	0	416	0.3	415	416	23.0	71.1
2025-08-15T21:37	10	0	0.1	0	0	416	0.2	416	416	23.0	71.1
2025-08-15T21:38	10	0	0.1	0	0	416	0.3	415	417	23.0	71.2
2025-08-15T21:39	10	0	0.1	0	0	416	0.5	415	418	23.0	70.8
2025-08-15T21:40	10	0	0.1	0	0	417	0.3	416	417	23.2	70.1
2025-08-15T21:41	10	0	0.0	0	0	416	0.3	416	417	23.4	69.3
2025-08-15T21:42	10	0	0.1	0	0	416	0.3	415	416	23.5	68.5
2025-08-15T21:43	10	0	0.1	0	0	415	0.3	415	416	23.4	68.8
2025-08-15T21:44	10	0	0.0	0	0	415	0.3	415	416	23.3	68.8
2025-08-15T21:45	10	0	0.1	0	0	415	0.2	414	415	23.3	68.6
2025-08-15T21:46	10	0	0.1	0	0	414	0.3	414	415	23.3	67.9
2025-08-15T21:47	10	0	0.1	0	0	414	0.3	413	414	23.4	67.7
2025-08-15T21:48	10	0	0.1	0	0	414	0.2	414	415	23.2	68.5
2025-08-15T21:49	10	0	0.1	0	0	414	0.3	414	415	23.3	67.9
2025-08-15T21:50	10	0	0.1	0	0	414	0.4	413	415	23.6	67.0
2025-08-15T21:51	10	0	0.1	0	0	413	0.5	412	414	23.5	67.2
2025-08-15T21:52	10	0	0.1	0	0	413	0.4	412	413	23.2	68.4
2025-08-15T21:53	10	0	0.1	0	0	412	0.4	412	413	23.3	68.0
2025-08-15T21:54	10	0	0.0	0	0	412	0.3	411	412	23.1	68.6
2025-08-15T21:55	10	0	0.0	0	0	411	0.3	411	412	23.1	69.1
2025-08-15T21:56	10	0	0.0	0	0	412	0.3	411	412	23.0	69.5
2025-08-15T21:57	10	0	0.0	0	0	412	0.3	411	413	23.0	69.3
2025-08-15T21:58	10	0	0.0	0	0	412	0.2	411	412	23.1	69.1
2025-08-15T21:59	10	0	0.1	0	0	412	0.2	412	413	23.2	68.8
2025-08-15T22:00	10	0	0.1	0	0	412	0.3	411	412	23.3	68.4
2025-08-15T22:01	10	0	0.1	0	0	411	0.3	411	412	23.2	68.9
2025-08-15T22:02	10	0	0.1	0	0	411	0.2	411	412	23.2	68.9
2025-08-15T22:03	10	0	0.1	0	0	411	0.2	411	412	23.3	68.9
2025-08-15T22:04	10	0	0.1	0	1	411	0.3	411	412	23.4	69.2
2025-08-15T22:05	10	0	0.1	0	0	411	0.3	410	411	23.3	69.4
2025-08-15T22:06	10	0	0.1	0	1	410	0.4	409	411	23.1	70.1
2025-08-15T22:07	10	0	0.1	0	1	411	0.6	409	412	22.9	71.1
2025-08-15T22:08	10	0	0.2	0	1	411	0.3	410	412	23.0	70.7
2025-08-15T22:09	10	0	0.2	0	0	411	0.2	410	411	22.9	70.6
2025-08-15T22:10	10	0	0.1	0	0	411	0.3	410	412	22.9	70.7
2025-08-15T22:11	10	0	0.1	0	0	411	0.3	410	411	22.7	71.6
2025-08-15T22:12	10	0	0.2	0	1	410	0.4	409	411	22.5	72.6
2025-08-15T22:13	10	0	0.1	0	0	410	0.3	409	411	22.4	73.1
2025-08-15T22:14	10	0	0.1	0	0	409	0.3	409	410	22.3	73.6
2025-08-15T22:15	10	0	0.2	0	1	410	0.3	409	410	22.4	73.3
2025-08-15T22:16	10	0	0.1	0	0	409	0.3	409	410	22.4	72.9
2025-08-15T22:17	10	0	0.1	0	0	409	0.2	409	410	22.4	72.9
2025-08-15T22:18	10	0	0.1	0	0	409	0.3	408	410	22.4	72.9
2025-08-15T22:19	10	0	0.1	0	0	409	0.2	408	409	22.3	73.2
2025-08-15T22:20	10	0	0.1	0	0	409	0.3	408	409	22.3	73.3
2025-08-15T22:21	10	0	0.1	0	1	409	0.2	408	410	22.4	72.1
2025-08-15T22:22	10	0	0.1	0	0	409	0.2	408	409	22.5	71.6
2025-08-15T22:23	10	0	0.1	0	1	409	0.2	408	409	22.5	71.7
2025-08-15T22:24	10	0	0.2	0	0	409	0.2	408	409	22.5	71.6
2025-08-15T22:25	10	0	0.1	0	1	409	0.2	408	409	22.5	71.4
2025-08-15T22:26	10	0	0.2	0	1	409	0.2	408	409	22.6	71.3
2025-08-15T22:27	10	0	0.1	0	0	409	0.3	408	409	22.5	71.3
2025-08-15T22:28	10	0	0.1	0	0	409	0.2	408	409	22.6	71.0
2025-08-15T22:29	10	0	0.1	0	0	409	0.2	409	410	22.7	70.6
2025-08-15T22:30	10	0	0.1	0	1	409	0.2	409	410	22.9	70.0
2025-08-15T22:31	10	0	0.1	0	0	409	0.3	409	410	22.9	70.1
2025-08-15T22:32	10	0	0.1	0	0	410	0.2	409	410	22.9	70.1
2025-08-15T22:33	10	0	0.1	0	0	410	0.3	409	411	22.8	70.2
2025-08-15T22:34	10	0	0.1	0	0	410	0.2	410	410	22.8	70.2
2025-08-15T22:35	10	0	0.1	0	0	410	0.4	409	411	22.7	70.6
2025-08-15T22:36	10	0	0.1	0	0	409	0.3	409	410	22.6	70.9
2025-08-15T22:37	10	0	0.0	0	0	409	0.3	409	410	22.6	71.3
2025-08-15T22:38	10	0	0.1	0	0	409	0.3	408	410	22.6	71.3
2025-08-15T22:39	10	0	0.1	0	0	409	0.1	409	409	22.4	71.9
2025-08-15T22:40	10	0	0.1	0	0	409	0.2	409	410	22.2	73.2
2025-08-15T22:41	10	0	0.1	0	0	409	0.2	409	410	22.1	73.8
2025-08-15T22:42	10	0	0.0	0	0	409	0.3	409	410	22.0	74.7
2025-08-15T22:43	10	0	0.0	0	0	410	0.3	409	410	22.1	74.0
2025-08-15T22:44	10	0	0.0	0	0	409	0.2	409	410	22.3	73.4
2025-08-15T22:45	10	0	0.0	0	0	410	0.3	409	410	22.3	73.5
2025-08-15T22:46	10	0	0.0	0	0	410	0.3	409	411	22.4	72.8
2025-08-15T22:47	10	0	0.1	0	0	411	0.4	410	412	22.7	71.7
2025-08-15T22:48	10	0	0.1	0	0	411	0.4	410	412	22.9	70.8
2025-08-15T22:49	10	0	0.1	0	0	412	0.3	411	412	22.9	70.4
2025-08-15T22:50	10	0	0.1	0	0	412	0.2	411	412	22.9	70.5
2025-08-15T22:51	10	0	0.1	0	0	412	0.2	411	412	23.0	70.1
2025-08-15T22:52	10	0	0.1	0	0	412	0.3	411	413	23.1	70.0
2025-08-15T22:53	10	0	0.1	0	0	411	0.2	410	411	22.9	70.7
2025-08-15T22:54	10	0	0.1	0	0	411	0.3	410	412	22.8	70.9
2025-08-15T22:55	10	0	0.1	0	0	411	0.3	410	411	22.6	71.8
2025-08-15T22:56	10	0	0.1	0	0	410	0.2	410	411	22.7	71.7
2025-08-15T22:57	10	0	0.1	0	0	410	0.3	410	411	22.8	71.3
2025-08-15T22:58	10	0	0.1	0	0	410	0.3	410	411	22.9	71.2
2025-08-15T22:59	10	0	0.1	0	0	410	0.2	410	411	22.9	71.5
2025-08-15T23:00	10	0	0.1	0	0	410	0.3	409	410	22.9	71.5
2025-08-15T23:01	10	0	0.1	0	0	410	0.2	409	410	22.8	71.7
2025-08-15T23:02	10	0	0.1	0	0	410	0.2	409	410	22.7	72.1
2025-08-15T23:03	10	0	0.1	0	0	410	0.3	409	410	22.6	72.4
2025-08-15T23:04	10	0	0.1	0	0	409	0.3	409	410	22.6	72.6
2025-08-15T23:05	10	0	0.1	0	0	409	0.2	408	409	22.5	72.9
2025-08-15T23:06	10	0	0.1	0	0	409	0.3	408	409	22.5	73.1
2025-08-15T23:07	10	0	0.1	0	0	408	0.3	407	408	22.4	73.4
2025-08-15T23:08	10	0	0.1	0	0	408	0.2	407	408	22.4	73.3
2025-08-15T23:09	10	0	0.1	0	0	407	0.5	406	408	22.2	73.8
2025-08-15T23:10	10	0	0.1	0	0	406	0.2	406	407	22.0	74.6
2025-08-15T23:11	10	0	0.1	0	0	405	0.3	405	406	22.0	75.2
2025-08-15T23:12	10	0	0.1	0	0	405	0.3	405	406	21.8	75.9
2025-08-15T23:13	10	0	0.1	0	0	406	0.3	405	406	21.6	76.8
2025-08-15T23:14	10	0	0.1	0	0	406	0.3	405	406	21.4	77.5
2025-08-15T23:15	10	0	0.1	0	0	406	0.2	405	406	21.5	77.6
2025-08-15T23:16	10	0	0.1	0	0	406	0.3	405	406	21.4	77.0
2025-08-15T23:17	10	0	0.1	0	0	406	0.2	405	406	21.5	76.0
2025-08-15T23:18	10	0	0.1	0	0	405	0.3	405	406	21.5	76.0
2025-08-15T23:19	10	0	0.1	0	0	405	0.3	405	406	21.6	76.0
2025-08-15T23:20	10	0	0.1	0	1	405	0.2	405	406	21.6	75.9
2025-08-15T23:21	10	0	0.1	0	0	405	0.3	405	406	21.5	76.3
2025-08-15T23:22	10	0	0.1	0	0	406	0.3	405	407	21.5	76.1
2025-08-15T23:23	10	0	0.1	0	0	406	0.3	406	407	21.5	76.4
2025-08-15T23:24	10	0	0.1	0	1	406	0.2	406	407	21.4	76.6
2025-08-15T23:25	10	0	0.1	0	0	406	0.4	405	407	21.3	76.7
2025-08-15T23:26	10	0	0.1	0	0	406	0.2	405	406	21.3	76.8
2025-08-15T23:27	10	0	0.1	0	0	406	0.2	405	406	21.2	77.0
2025-08-15T23:28	10	0	0.1	0	0	406	0.2	405	406	21.1	77.0
2025-08-15T23:29	10	0	0.1	0	0	406	0.2	405	406	21.2	76.4
2025-08-15T23:30	10	0	0.1	0	1	406	0.2	405	406	21.3	76.5
2025-08-15T23:31	10	0	0.1	0	0	405	0.3	405	406	21.3	76.9
2025-08-15T23:32	10	0	0.1	0	0	405	0.3	404	405	21.3	77.0
2025-08-15T23:33	10	0	0.0	0	0	405	0.3	404	406	21.2	77.3
2025-08-15T23:34	10	0	0.1	0	0	405	0.3	405	406	21.2	77.4
2025-08-15T23:35	10	0	0.0	0	0	405	0.2	405	406	21.2	77.3
2025-08-15T23:36	10	0	0.1	0	0	406	0.2	405	406	21.2	77.5
2025-08-15T23:37	10	0	0.1	0	0	406	0.4	405	407	21.3	77.0
2025-08-15T23:38	10	0	0.1	0	0	406	0.2	406	407	21.3	76.7
2025-08-15T23:39	10	0	0.1	0	0	406	0.2	405	406	21.4	76.7
2025-08-15T23:40	10	0	0.1	0	0	406	0.2	406	407	21.5	76.3
2025-08-15T23:41	10	0	0.1	0	0	405	0.4	405	406	21.5	76.2
2025-08-15T23:42	10	0	0.1	0	0	405	0.3	404	405	21.5	76.4
2025-08-15T23:43	10	0	0.1	0	0	405	0.2	404	405	21.4	76.8
2025-08-15T23:44	10	0	0.1	0	0	404	0.2	404	405	21.4	76.5
2025-08-15T23:45	10	0	0.1	0	0	404	0.3	403	405	21.4	76.5
2025-08-15T23:46	10	0	0.1	0	0	404	0.2	403	404	21.4	76.8
2025-08-15T23:47	10	0	0.1	0	0	403	0.5	402	404	21.3	77.5
2025-08-15T23:48	10	0	0.1	0	0	402	0.3	401	402	21.2	78.2
2025-08-15T23:49	10	0	0.1	0	0	402	0.3	401	403	21.0	79.1
2025-08-15T23:50	10	0	0.0	0	0	402	0.2	401	402	20.8	79.7
2025-08-15T23:51	10	0	0.1	0	0	402	0.2	401	402	20.8	80.1
2025-08-15T23:52	10	0	0.1	0	0	402	0.3	401	402	20.8	79.8
2025-08-15T23:53	10	0	0.1	0	0	402	0.2	401	402	20.9	79.4
2025-08-15T23:54	10	0	0.1	0	0	401	0.2	401	402	21.0	78.8
2025-08-15T23:55	10	0	0.1	0	0	401	0.2	401	402	21.1	78.1
2025-08-15T23:56	10	0	0.0	0	0	401	0.3	401	402	21.1	78.1
2025-08-15T23:57	10	0	0.0	0	0	402	0.3	401	402	21.1	78.2
2025-08-15T23:58	10	0	0.1	0	0	402	0.2	402	403	21.1	77.9
2025-08-15T23:59	10	0	0.0	0	0	402	0.2	402	403	21.2	77.8
2025-08-16T00:00	10	0	0.0	0	0	402	0.2	402	403	21.1	78.2
2025-08-16T00:01	10	0	0.0	0	0	402	0.3	401	402	20.9	78.7
2025-08-16T00:02	10	0	0.1	0	1	402	0.2	402	402	20.9	78.9
2025-08-16T00:03	10	0	0.1	0	0	402	0.3	401	403	20.9	79.1
2025-08-16T00:04	10	0	0.1	0	0	402	0.3	401	403	20.8	79.3
2025-08-16T00:05	10	0	0.1	0	0	402	0.3	401	402	20.8	79.5
2025-08-16T00:06	10	0	0.1	0	0	401	0.2	401	401	20.8	79.7
2025-08-16T00:07	10	0	0.1	0	0	401	0.3	401	402	20.7	80.0
2025-08-16T00:08	10	0	0.1	0	0	402	0.3	401	402	20.8	79.6
2025-08-16T00:09	10	0	0.1	0	0	401	0.3	401	402	20.9	79.2
2025-08-16T00:10	10	0	0.2	0	1	401	0.2	401	402	20.8	79.4
2025-08-16T00:11	10	0	0.1	0	0	401	0.3	401	402	20.7	79.9
2025-08-16T00:12	10	0	0.1	0	0	401	0.3	401	402	20.6	80.6
2025-08-16T00:13	10	0	0.1	0	0	402	0.3	401	402	20.5	81.1
2025-08-16T00:14	10	0	0.1	0	1	403	0.4	402	403	20.6	80.8
2025-08-16T00:15	10	0	0.1	0	1	403	0.3	402	403	20.7	80.3
2025-08-16T00:16	10	0	0.2	0	1	402	0.3	402	403	20.7	80.4
2025-08-16T00:17	10	0	0.2	0	1	402	0.3	401	403	20.6	80.6
2025-08-16T00:18	10	0	0.2	0	1	402	0.3	402	403	20.6	81.1
2025-08-16T00:19	10	0	0.2	0	1	402	0.3	401	403	20.6	81.0
2025-08-16T00:20	10	0	0.1	0	1	402	0.2	402	403	20.6	80.9
2025-08-16T00:21	10	0	0.2	0	1	402	0.3	402	403	20.7	80.5
2025-08-16T00:22	10	0	0.1	0	1	402	0.3	401	403	20.9	80.0
2025-08-16T00:23	10	0	0.1	0	0	401	0.2	401	402	20.8	80.1
2025-08-16T00:24	10	0	0.1	0	0	401	0.3	400	402	20.8	80.4
2025-08-16T00:25	10	0	0.1	0	0	401	0.2	400	401	20.8	80.6
2025-08-16T00:26	10	0	0.1	0	0	400	0.3	400	401	20.7	80.9
2025-08-16T00:27	10	0	0.1	0	0	400	0.3	399	401	20.6	81.4
2025-08-16T00:28	10	0	0.1	0	1	399	0.2	399	400	20.5	82.0
2025-08-16T00:29	10	0	0.1	0	0	399	0.3	399	400	20.4	82.5
2025-08-16T00:30	10	0	0.1	0	1	399	0.2	399	400	20.4	82.7
2025-08-16T00:31	10	0	0.1	0	1	399	0.2	398	400	20.4	82.8
2025-08-16T00:32	10	0	0.1	0	0	399	0.2	398	399	20.3	82.9
2025-08-16T00:33	10	0	0.1	0	0	398	0.3	398	399	20.2	83.3
2025-08-16T00:34	10	0	0.2	0	1	398	0.2	398	398	20.2	83.6
2025-08-16T00:35	10	0	0.1	0	0	398	0.2	397	399	20.1	83.8
2025-08-16T00:36	10	0	0.1	0	0	398	0.3	398	399	20.1	83.8
2025-08-16T00:37	10	0	0.1	0	0	398	0.2	398	398	20.2	83.3
2025-08-16T00:38	10	0	0.1	0	0	398	0.3	397	399	20.3	82.6
2025-08-16T00:39	10	0	0.1	0	0	398	0.2	398	399	20.4	82.2
2025-08-16T00:40	10	0	0.1	0	0	398	0.3	398	399	20.4	81.8
2025-08-16T00:41	10	0	0.1	0	0	399	0.2	398	399	20.5	81.7
2025-08-16T00:42	10	0	0.1	0	0	399	0.2	398	399	20.4	82.0
2025-08-16T00:43	10	0	0.1	0	0	399	0.2	399	400	20.4	82.1
2025-08-16T00:44	10	0	0.1	0	0	399	0.2	399	400	20.4	81.9
2025-08-16T00:45	10	0	0.1	0	0	400	0.2	399	400	20.4	81.8
2025-08-16T00:46	10	0	0.1	0	0	400	0.2	399	400	20.4	81.8
2025-08-16T00:47	10	0	0.0	0	0	399	0.2	399	400	20.4	82.0
2025-08-16T00:48	10	0	0.1	0	0	400	0.2	399	400	20.4	82.0
2025-08-16T00:49	10	0	0.0	0	0	400	0.3	399	400	20.4	81.8
2025-08-16T00:50	10	0	0.1	0	0	399	0.2	399	400	20.4	82.4
2025-08-16T00:51	10	0	0.1	0	0	399	0.3	399	400	20.3	83.4
2025-08-16T00:52	10	0	0.1	0	0	399	0.2	398	399	20.2	84.0
2025-08-16T00:53	10	0	0.0	0	0	399	0.2	399	399	20.2	84.4
2025-08-16T00:54	10	0	0.0	0	0	399	0.3	398	399	20.1	84.7
2025-08-16T00:55	10	0	0.1	0	0	399	0.2	398	399	20.0	84.9
2025-08-16T00:56	10	0	0.1	0	0	399	0.2	398	399	19.9	85.3
2025-08-16T00:57	10	0	0.1	0	0	398	0.2	398	399	19.8	85.9
2025-08-16T00:58	10	0	0.1	0	0	398	0.2	398	399	19.8	85.9
2025-08-16T00:59	10	0	0.0	0	0	399	0.3	398	400	19.8	85.5
2025-08-16T01:00	10	0	0.1	0	0	399	0.2	399	400	19.9	85.1
2025-08-16T01:01	10	0	0.1	0	0	399	0.2	398	399	19.9	84.8
2025-08-16T01:02	10	0	0.1	0	0	399	0.2	398	399	20.0	84.5
2025-08-16T01:03	10	0	0.1	0	0	399	0.2	398	399	20.1	83.9
2025-08-16T01:04	10	0	0.0	0	0	398	0.2	398	399	20.1	83.7
2025-08-16T01:05	10	0	0.1	0	0	398	0.3	397	399	20.1	83.5
2025-08-16T01:06	10	0	0.0	0	0	397	0.4	397	398	20.0	83.7
2025-08-16T01:07	10	0	0.0	0	0	397	0.2	396	397	19.8	84.4
2025-08-16T01:08	10	0	0.1	0	0	397	0.3	396	398	19.7	84.9
2025-08-16T01:09	10	0	0.0	0	0	397	0.4	396	398	19.8	84.5
2025-08-16T01:10	10	0	0.1	0	0	398	0.3	397	398	19.9	83.7
2025-08-16T01:11	10	0	0.1	0	0	397	0.4	396	398	19.9	83.6
2025-08-16T01:12	10	0	0.1	0	0	398	0.4	397	398	19.9	83.6
2025-08-16T01:13	10	0	0.1	0	0	398	0.2	397	398	19.9	83.4
2025-08-16T01:14	10	0	0.0	0	0	398	0.3	397	399	19.9	83.6
2025-08-16T01:15	10	0	0.1	0	0	398	0.4	397	399	20.0	83.8
2025-08-16T01:16	10	0	0.1	0	0	398	0.3	397	399	19.9	83.9
2025-08-16T01:17	10	0	0.0	0	0	398	0.2	397	398	19.9	84.1
2025-08-16T01:18	10	0	0.0	0	0	398	0.2	397	398	19.8	84.4
2025-08-16T01:19	10	0	0.1	0	0	398	0.3	397	398	19.7	84.8
2025-08-16T01:20	10	0	0.1	0	0	397	0.3	396	398	19.7	85.2
2025-08-16T01:21	10	0	0.1	0	0	397	0.2	397	398	19.7	85.5
2025-08-16T01:22	10	0	0.1	0	0	397	0.3	396	397	19.6	85.7
2025-08-16T01:23	10	0	0.1	0	0	397	0.2	396	397	19.5	86.1
2025-08-16T01:24	10	0	0.1	0	0	397	0.2	396	398	19.5	86.4
2025-08-16T01:25	10	0	0.1	0	0	397	0.2	397	398	19.5	86.7
2025-08-16T01:26	10	0	0.1	0	0	397	0.3	397	398	19.4	86.8
2025-08-16T01:27	10	0	0.1	0	0	397	0.3	396	398	19.4	86.9
2025-08-16T01:28	10	0	0.1	0	0	397	0.3	396	398	19.4	86.9
2025-08-16T01:29	10	0	0.1	0	0	397	0.3	396	397	19.4	86.8
2025-08-16T01:30	10	0	0.1	0	0	396	0.2	396	397	19.5	86.6
2025-08-16T01:31	10	0	0.1	0	0	396	0.2	396	397	19.5	86.4
2025-08-16T01:32	10	0	0.1	0	0	396	0.2	396	397	19.5	86.4
2025-08-16T01:33	10	0	0.1	0	0	396	0.2	396	397	19.5	86.4
2025-08-16T01:34	10	0	0.1	0	0	396	0.2	396	397	19.6	86.2
2025-08-16T01:35	10	0	0.1	0	0	396	0.2	396	397	19.6	85.9
2025-08-16T01:36	10	0	0.1	0	0	396	0.3	396	397	19.5	85.8
2025-08-16T01:37	10	0	0.1	0	0	396	0.3	395	397	19.5	85.8
2025-08-16T01:38	10	0	0.1	0	0	396	0.2	395	396	19.5	85.9
2025-08-16T01:39	10	0	0.1	0	0	396	0.2	395	397	19.4	86.0
2025-08-16T01:40	10	0	0.1	0	0	396	0.3	395	397	19.4	86.1
2025-08-16T01:41	10	0	0.1	0	0	397	0.3	396	397	19.4	86.1
2025-08-16T01:42	10	0	0.1	0	0	398	0.4	397	398	19.5	85.7
2025-08-16T01:43	10	0	0.1	0	0	398	0.2	397	398	19.7	85.1
2025-08-16T01:44	10	0	0.1	0	0	399	0.2	398	399	19.7	85.0
2025-08-16T01:45	10	0	0.1	0	0	399	0.2	398	399	19.7	84.9
2025-08-16T01:46	10	0	0.1	0	0	399	0.2	398	400	19.7	84.9
2025-08-16T01:47	10	0	0.1	0	1	399	0.2	399	400	19.8	84.8
2025-08-16T01:48	10	0	0.1	0	0	399	0.3	399	400	19.8	84.6
2025-08-16T01:49	10	0	0.1	0	1	399	0.3	398	399	19.8	84.4
2025-08-16T01:50	10	0	0.1	0	0	399	0.3	398	400	19.8	84.1
2025-08-16T01:51	10	0	0.1	0	0	399	0.2	399	400	19.8	84.3
2025-08-16T01:52	10	0	0.1	0	0	399	0.3	399	400	19.8	84.2
2025-08-16T01:53	10	0	0.1	0	0	400	0.3	399	400	19.9	83.8
2025-08-16T01:54	10	0	0.1	0	0	399	0.3	399	400	19.8	83.9
2025-08-16T01:55	10	0	0.1	0	0	399	0.3	399	400	19.7	84.2
2025-08-16T01:56	10	0	0.1	0	0	400	0.3	399	400	19.8	83.2
2025-08-16T01:57	10	0	0.1	0	0	399	0.4	399	400	19.8	82.9
2025-08-16T01:58	10	0	0.1	0	0	399	0.3	399	400	19.6	83.3
2025-08-16T01:59	10	0	0.1	0	0	399	0.3	398	400	19.8	82.8
2025-08-16T02:00	10	0	0.1	0	0	399	0.4	398	400	19.8	83.0
2025-08-16T02:01	10	0	0.1	0	0	399	0.2	398	399	19.6	83.9
2025-08-16T02:02	10	0	0.1	0	0	399	0.2	398	399	19.8	82.7
2025-08-16T02:03	10	0	0.1	0	0	398	0.3	398	399	19.8	82.5
2025-08-16T02:04	10	0	0.1	0	0	398	0.3	398	399	19.5	84.2
2025-08-16T02:05	10	0	0.1	0	0	398	0.2	397	398	19.3	85.3
2025-08-16T02:06	10	0	0.1	0	0	399	0.4	398	399	19.5	84.2
2025-08-16T02:07	10	0	0.1	0	0	398	0.3	397	399	19.8	83.2
2025-08-16T02:08	10	0	0.1	0	0	399	0.3	398	399	19.6	83.6
2025-08-16T02:09	10	0	0.1	0	0	399	0.3	398	400	19.7	83.2
2025-08-16T02:10	10	0	0.1	0	0	398	0.3	398	399	19.9	82.2
2025-08-16T02:11	10	0	0.1	0	0	398	0.4	397	398	19.9	82.4
2025-08-16T02:12	10	0	0.1	0	0	397	0.2	396	397	19.8	82.8
2025-08-16T02:13	10	0	0.1	0	0	397	0.2	396	397	19.7	83.1
2025-08-16T02:14	10	0	0.1	0	0	397	0.3	396	398	19.7	83.4
2025-08-16T02:15	10	0	0.0	0	0	397	0.2	397	398	19.9	83.3
2025-08-16T02:16	10	0	0.1	0	0	397	0.3	397	398	20.0	82.9
2025-08-16T02:17	10	0	0.1	0	0	398	0.2	397	398	20.1	82.6
2025-08-16T02:18	10	0	0.1	0	0	398	0.2	398	399	20.3	82.2
2025-08-16T02:19	10	0	0.1	0	0	398	0.2	397	398	20.2	81.8
2025-08-16T02:20	10	0	0.1	0	0	397	0.4	396	398	20.0	82.2
2025-08-16T02:21	10	0	0.1	0	0	397	0.2	396	397	19.9	82.8
2025-08-16T02:22	10	0	0.1	0	0	397	0.2	396	397	19.9	82.7
2025-08-16T02:23	10	0	0.1	0	0	397	0.4	396	397	20.0	82.4
2025-08-16T02:24	10	0	0.1	0	0	396	0.3	395	396	20.0	82.4
2025-08-16T02:25	10	0	0.1	0	0	395	0.4	394	396	19.9	82.6
2025-08-16T02:26	10	0	0.1	0	0	395	0.2	394	395	19.8	83.2
2025-08-16T02:27	10	0	0.1	0	0	394	0.3	394	395	19.7	83.6
2025-08-16T02:28	10	0	0.1	0	0	394	0.2	394	395	19.6	83.9
2025-08-16T02:29	10	0	0.1	0	0	394	0.2	393	394	19.5	84.3
2025-08-16T02:30	10	0	0.1	0	0	394	0.3	393	395	19.5	84.5
2025-08-16T02:31	10	0	0.1	0	0	394	0.2	394	395	19.5	84.6
2025-08-16T02:32	10	0	0.1	0	0	394	0.2	393	394	19.4	84.8
2025-08-16T02:33	10	0	0.1	0	0	394	0.3	394	395	19.4	85.0
2025-08-16T02:34	10	0	0.1	0	0	394	0.3	394	395	19.4	85.1
2025-08-16T02:35	10	0	0.1	0	0	395	0.3	394	395	19.2	85.9
2025-08-16T02:36	10	0	0.1	0	0	395	0.2	394	395	19.1	85.9
2025-08-16T02:37	10	0	0.1	0	0	395	0.2	394	395	19.2	85.6
2025-08-16T02:38	10	0	0.1	0	0	395	0.2	394	395	19.2	85.6
2025-08-16T02:39	10	0	0.1	0	0	394	0.3	394	395	19.3	85.7
2025-08-16T02:40	10	0	0.1	0	0	394	0.2	394	395	19.3	85.4
2025-08-16T02:41	10	0	0.1	0	0	394	0.2	394	395	19.4	85.2
2025-08-16T02:42	10	0	0.0	0	0	394	0.2	393	394	19.5	84.4
2025-08-16T02:43	10	0	0.0	0	0	394	0.2	393	394	19.5	84.0
2025-08-16T02:44	10	0	0.0	0	0	394	0.2	393	394	19.5	83.8
2025-08-16T02:45	10	0	0.0	0	0	394	0.2	394	394	19.6	84.3
2025-08-16T02:46	10	0	0.0	0	0	394	0.3	393	394	19.6	84.3
2025-08-16T02:47	10	0	0.0	0	0	393	0.2	393	394	19.5	84.5
2025-08-16T02:48	10	0	0.0	0	0	393	0.2	393	393	19.5	83.6
2025-08-16T02:49	10	0	0.1	0	0	393	0.3	393	394	19.4	83.5
2025-08-16T02:50	10	0	0.0	0	0	394	0.3	393	394	19.4	84.0
2025-08-16T02:51	10	0	0.0	0	0	393	0.2	393	394	19.4	83.7
2025-08-16T02:52	10	0	0.1	0	0	393	0.4	392	394	19.4	83.7
2025-08-16T02:53	10	0	0.1	0	0	392	0.3	392	393	19.1	85.5
2025-08-16T02:54	10	0	0.0	0	0	392	0.2	392	393	19.0	87.1
2025-08-16T02:55	10	0	0.1	0	0	392	0.2	392	392	18.8	87.5
2025-08-16T02:56	10	0	0.1	0	0	392	0.2	391	392	18.9	87.1
2025-08-16T02:57	10	0	0.1	0	0	392	0.2	391	392	18.9	86.8
2025-08-16T02:58	10	0	0.1	0	0	391	0.2	391	391	18.8	87.2
2025-08-16T02:59	10	0	0.1	0	0	391	0.3	391	392	18.8	87.2
2025-08-16T03:00	10	0	0.1	0	0	392	0.2	391	392	18.7	87.5
2025-08-16T03:01	10	0	0.1	0	0	392	0.3	392	393	18.8	87.0
2025-08-16T03:02	10	0	0.1	0	0	392	0.3	392	393	19.0	86.8
2025-08-16T03:03	10	0	0.1	0	0	392	0.2	392	393	19.0	86.9
2025-08-16T03:04	10	0	0.1	0	0	393	0.3	392	393	18.9	87.3
2025-08-16T03:05	10	0	0.1	0	0	393	0.3	392	393	18.8	87.9
2025-08-16T03:06	10	0	0.1	0	0	393	0.3	393	394	18.9	86.7
2025-08-16T03:07	10	0	0.0	0	0	394	0.3	393	394	19.1	84.9
2025-08-16T03:08	10	0	0.0	0	0	394	0.2	393	394	19.3	82.8
2025-08-16T03:09	10	0	0.1	0	0	394	0.2	393	394	19.4	82.6
2025-08-16T03:10	10	0	0.1	0	1	393	0.3	392	394	19.2	84.0
2025-08-16T03:11	10	0	0.1	0	0	393	0.3	392	393	18.9	86.2
2025-08-16T03:12	10	0	0.1	0	1	392	0.3	391	393	18.7	87.9
2025-08-16T03:13	10	0	0.1	0	1	391	0.2	391	392	18.5	88.7
2025-08-16T03:14	10	0	0.1	0	0	391	0.2	391	392	18.5	88.9
2025-08-16T03:15	10	0	0.1	0	0	391	0.3	390	391	18.4	89.4
2025-08-16T03:16	10	0	0.1	0	0	391	0.3	390	391	18.5	88.7
2025-08-16T03:17	10	0	0.2	0	0	391	0.3	390	392	18.5	88.3
2025-08-16T03:18	10	0	0.1	0	0	391	0.2	390	391	18.5	88.0
2025-08-16T03:19	10	0	0.1	0	0	391	0.4	390	392	18.5	87.3
2025-08-16T03:20	10	0	0.1	0	0	392	0.2	391	392	18.7	86.6
2025-08-16T03:21	10	0	0.2	0	1	392	0.3	391	392	19.0	85.4
2025-08-16T03:22	10	0	0.1	0	0	392	0.3	391	392	19.1	84.7
2025-08-16T03:23	10	0	0.2	0	1	392	0.2	391	392	19.2	84.1
2025-08-16T03:24	10	0	0.2	0	0	391	0.5	390	392	19.3	83.8
2025-08-16T03:25	10	0	0.2	0	1	391	0.3	390	391	19.0	84.3
2025-08-16T03:26	10	0	0.1	0	0	391	0.2	390	391	18.9	85.2
2025-08-16T03:27	10	0	0.2	0	1	391	0.3	391	392	18.8	86.1
2025-08-16T03:28	10	0	0.2	0	1	391	0.2	391	392	18.9	85.8
2025-08-16T03:29	10	0	0.2	0	1	391	0.3	391	392	18.8	85.9
2025-08-16T03:30	10	0	0.2	0	1	391	0.3	390	391	18.7	85.9
2025-08-16T03:31	10	0	0.1	0	0	391	0.2	390	392	18.7	86.1
2025-08-16T03:32	10	0	0.2	0	1	391	0.3	390	392	18.8	85.5
2025-08-16T03:33	10	0	0.2	0	1	391	0.3	390	391	19.0	85.2
2025-08-16T03:34	10	0	0.2	0	1	390	0.3	389	391	19.0	85.0
2025-08-16T03:35	10	0	0.1	0	0	390	0.3	390	391	19.0	85.1
2025-08-16T03:36	10	0	0.2	0	1	391	0.2	390	391	19.0	85.1
2025-08-16T03:37	10	0	0.1	0	1	390	0.3	390	391	19.0	85.1
2025-08-16T03:38	10	0	0.2	0	1	390	0.2	390	391	18.9	85.3
2025-08-16T03:39	10	0	0.1	0	1	390	0.3	390	391	18.8	85.4
2025-08-16T03:40	10	0	0.2	0	1	390	0.3	389	391	18.7	85.6
2025-08-16T03:41	10	0	0.2	0	1	390	0.2	390	391	18.6	85.9
2025-08-16T03:42	10	0	0.2	0	1	390	0.3	389	391	18.6	86.0
2025-08-16T03:43	10	0	0.1	0	1	390	0.3	389	391	18.6	85.7
2025-08-16T03:44	10	0	0.2	0	1	390	0.3	389	391	18.7	85.8
2025-08-16T03:45	10	0	0.2	0	1	391	0.4	391	392	18.6	86.0
2025-08-16T03:46	10	0	0.1	0	1	392	0.3	391	392	18.8	85.0
2025-08-16T03:47	10	0	0.1	0	0	392	0.2	391	392	19.0	84.1
2025-08-16T03:48	10	0	0.1	0	0	392	0.2	391	392	19.0	83.7
2025-08-16T03:49	10	0	0.1	0	0	391	0.2	391	392	19.0	83.7
2025-08-16T03:50	10	0	0.1	0	0	391	0.3	391	392	19.0	83.9
2025-08-16T03:51	10	0	0.1	0	1	391	0.3	390	391	19.0	83.9
2025-08-16T03:52	10	0	0.1	0	1	391	0.3	390	391	18.9	84.0
2025-08-16T03:53	10	0	0.1	0	0	391	0.2	390	391	19.0	83.8
2025-08-16T03:54	10	0	0.1	0	0	390	0.3	389	391	19.0	84.0
2025-08-16T03:55	10	0	0.1	0	1	390	0.4	389	391	19.0	84.2
2025-08-16T03:56	10	0	0.1	0	0	390	0.2	390	391	18.9	84.2
2025-08-16T03:57	10	0	0.1	0	1	390	0.2	390	391	18.9	84.3
2025-08-16T03:58	10	0	0.1	0	0	390	0.3	389	390	18.8	84.3
2025-08-16T03:59	10	0	0.1	0	0	389	0.2	389	390	18.7	84.7
2025-08-16T04:00	10	0	0.1	0	1	389	0.2	389	390	18.6	85.3
2025-08-16T04:01	10	0	0.1	0	0	390	0.2	389	390	18.6	85.7
2025-08-16T04:02	10	0	0.2	0	1	390	0.2	389	390	18.5	86.8
2025-08-16T04:03	10	0	0.1	0	0	391	0.4	390	392	18.4	88.1
2025-08-16T04:04	10	0	0.1	0	1	392	0.3	391	392	18.3	88.9
2025-08-16T04:05	10	0	0.1	0	0	392	0.2	391	392	18.2	89.1
2025-08-16T04:06	10	0	0.1	0	0	391	0.2	390	391	18.3	89.3
2025-08-16T04:07	10	0	0.0	0	0	391	0.2	390	391	18.3	89.2
2025-08-16T04:08	10	0	0.1	0	0	391	0.2	390	391	18.2	89.4
2025-08-16T04:09	10	0	0.0	0	0	391	0.2	390	391	18.2	89.7
2025-08-16T04:10	10	0	0.1	0	0	390	0.2	390	391	18.1	90.0
2025-08-16T04:11	10	0	0.0	0	0	390	0.3	390	390	17.9	90.0
2025-08-16T04:12	10	0	0.0	0	0	390	0.2	389	391	17.9	90.1
2025-08-16T04:13	10	0	0.1	0	0	389	0.2	389	390	17.9	90.1
2025-08-16T04:14	10	0	0.0	0	0	389	0.2	389	390	17.9	90.6
2025-08-16T04:15	10	0	0.0	0	0	389	0.2	389	390	17.8	90.7
2025-08-16T04:16	10	0	0.1	0	0	389	0.2	389	390	17.9	89.8
2025-08-16T04:17	10	0	0.0	0	0	389	0.3	388	389	17.9	89.5
2025-08-16T04:18	10	0	0.0	0	0	389	0.3	388	390	17.9	89.4
2025-08-16T04:19	10	0	0.1	0	0	389	0.3	388	390	17.9	89.3
2025-08-16T04:20	10	0	0.1	0	0	389	0.2	388	389	17.9	89.3
2025-08-16T04:21	10	0	0.1	0	0	389	0.3	388	389	18.0	89.3
2025-08-16T04:22	10	0	0.1	0	0	388	0.3	387	388	18.0	89.2
2025-08-16T04:23	10	0	0.1	0	0	388	0.2	387	389	18.0	89.2
2025-08-16T04:24	10	0	0.1	0	1	388	0.3	388	389	18.0	88.7
2025-08-16T04:25	10	0	0.1	0	1	388	0.3	387	388	18.1	88.1
2025-08-16T04:26	10	0	0.1	0	1	388	0.2	387	388	18.1	88.2
2025-08-16T04:27	10	0	0.1	0	1	387	0.2	387	388	18.0	88.4
2025-08-16T04:28	10	1	0.1	0	1	387	0.2	387	388	17.9	88.7
2025-08-16T04:29	10	1	0.1	0	1	387	0.2	387	388	17.9	88.9
2025-08-16T04:30	10	1	0.1	0	1	387	0.2	387	388	17.8	89.2
2025-08-16T04:31	10	1	0.1	1	1	387	0.2	387	388	17.7	89.2
2025-08-16T04:32	10	1	0.1	1	1	388	0.3	387	388	17.6	89.3
2025-08-16T04:33	10	1	0.1	1	1	389	0.5	388	390	17.6	89.1
2025-08-16T04:34	10	1	0.1	1	1	389	0.3	388	390	17.7	88.9
2025-08-16T04:35	10	1	0.1	1	1	390	0.3	389	390	17.8	88.7
2025-08-16T04:36	10	1	0.1	1	1	389	0.2	389	390	17.9	88.3
2025-08-16T04:37	10	1	0.1	1	1	389	0.2	389	390	17.9	88.6
2025-08-16T04:38	10	1	0.1	1	1	389	0.3	388	389	17.9	88.8
2025-08-16T04:39	10	1	0.1	1	1	390	0.3	389	390	17.8	89.0
2025-08-16T04:40	10	1	0.1	1	2	390	0.2	389	390	17.9	88.5
2025-08-16T04:41	10	2	0.1	1	2	390	0.3	389	391	18.0	88.6
2025-08-16T04:42	10	2	0.1	2	2	390	0.2	390	391	18.0	88.6
2025-08-16T04:43	10	2	0.1	2	2	390	0.2	390	391	18.0	88.6
2025-08-16T04:44	10	2	0.1	2	2	390	0.3	389	390	17.9	89.0
2025-08-16T04:45	10	3	0.1	2	3	390	0.3	389	390	17.8	89.4
2025-08-16T04:46	10	3	0.1	3	3	389	0.2	389	390	17.8	89.5
2025-08-16T04:47	10	3	0.1	3	3	390	0.2	389	390	17.8	89.4
2025-08-16T04:48	10	3	0.1	3	3	390	0.2	389	390	17.8	89.5
2025-08-16T04:49	10	3	0.1	3	4	390	0.2	390	391	17.9	89.3
2025-08-16T04:50	10	4	0.1	3	4	390	0.3	389	391	17.9	88.9
2025-08-16T04:51	10	4	0.1	4	4	390	0.2	390	391	18.0	88.4
2025-08-16T04:52	10	4	0.1	4	4	391	0.4	390	391	17.9	88.5
2025-08-16T04:53	10	4	0.1	4	4	391	0.3	391	392	17.8	89.3
2025-08-16T04:54	10	4	0.1	4	5	392	0.3	392	393	17.8	89.5
2025-08-16T04:55	10	5	0.1	5	5	392	0.2	392	393	17.8	89.5
2025-08-16T04:56	10	5	0.1	5	5	392	0.2	392	393	17.8	89.5
2025-08-16T04:57	10	5	0.1	5	6	393	0.2	392	393	17.7	89.9
2025-08-16T04:58	10	6	0.1	5	6	393	0.4	392	393	17.7	89.9
2025-08-16T04:59	10	6	0.1	6	6	393	0.3	392	394	17.8	89.7
2025-08-16T05:00	10	6	0.2	6	7	393	0.3	393	394	17.8	89.5
2025-08-16T05:01	10	7	0.1	6	7	394	0.2	393	394	17.8	89.6
2025-08-16T05:02	10	7	0.1	7	7	394	0.3	393	395	17.9	89.3
2025-08-16T05:03	10	7	0.1	7	8	394	0.2	394	395	17.9	89.2
2025-08-16T05:04	10	8	0.1	7	8	394	0.3	394	395	17.8	89.6
2025-08-16T05:05	10	8	0.1	8	8	394	0.3	394	395	17.7	90.0
2025-08-16T05:06	10	8	0.1	8	9	395	0.2	394	395	17.6	90.7
2025-08-16T05:07	10	9	0.1	8	9	395	0.2	394	395	17.7	90.7
2025-08-16T05:08	10	9	0.2	9	9	395	0.3	394	396	17.7	90.5
2025-08-16T05:09	10	9	0.1	9	10	395	0.2	395	396	17.8	90.2
2025-08-16T05:10	10	10	0.2	9	10	396	0.4	395	397	17.8	90.1
2025-08-16T05:11	10	10	0.2	10	10	396	0.4	396	397	17.9	89.8
2025-08-16T05:12	10	11	0.2	10	11	398	0.3	397	398	18.0	89.6
2025-08-16T05:13	10	11	0.1	11	11	398	0.3	398	399	18.1	89.4
2025-08-16T05:14	10	12	0.2	11	12	399	0.2	398	399	18.0	89.6
2025-08-16T05:15	10	12	0.2	12	12	399	0.3	398	399	18.0	89.9
2025-08-16T05:16	10	12	0.2	12	13	399	0.2	399	400	18.0	89.9
2025-08-16T05:17	10	13	0.1	12	13	399	0.2	399	399	18.0	89.9
2025-08-16T05:18	10	13	0.2	13	14	400	0.2	399	400	18.0	89.9
2025-08-16T05:19	10	14	0.1	14	14	400	0.2	399	400	18.1	89.8
2025-08-16T05:20	10	14	0.2	14	15	400	0.2	399	401	18.1	89.6
2025-08-16T05:21	10	15	0.2	14	15	400	0.3	400	401	18.1	89.5
2025-08-16T05:22	10	15	0.2	15	16	400	0.4	399	401	18.1	89.6
2025-08-16T05:23	10	16	0.2	15	16	400	0.2	399	400	18.0	90.2
2025-08-16T05:24	10	16	0.2	16	16	400	0.3	399	400	17.9	90.3
2025-08-16T05:25	10	17	0.2	16	17	400	0.3	400	401	18.0	90.2
2025-08-16T05:26	10	17	0.2	17	18	401	0.3	400	401	18.1	89.4
2025-08-16T05:27	10	18	0.2	18	18	401	0.3	401	402	18.2	89.0
2025-08-16T05:28	10	18	0.2	18	19	402	0.3	401	402	18.3	88.3
2025-08-16T05:29	10	19	0.2	19	19	402	0.2	402	403	18.3	88.0
2025-08-16T05:30	10	19	0.2	19	20	402	0.2	402	403	18.3	88.2
2025-08-16T05:31	10	20	0.2	20	20	403	0.2	402	403	18.3	87.7
2025-08-16T05:32	10	21	0.2	20	21	403	0.3	402	403	18.4	87.1
2025-08-16T05:33	10	21	0.2	21	21	403	0.2	403	404	18.5	87.1
2025-08-16T05:34	10	22	0.2	21	22	403	0.3	403	404	18.5	86.7
2025-08-16T05:35	10	22	0.2	22	22	404	0.3	403	404	18.5	86.5
2025-08-16T05:36	10	23	0.2	22	23	404	0.2	404	405	18.6	86.3
2025-08-16T05:37	10	23	0.2	23	24	404	0.2	404	405	18.6	86.6
2025-08-16T05:38	10	24	0.2	24	24	405	0.3	404	406	18.6	86.8
2025-08-16T05:39	10	25	0.2	24	25	405	0.2	405	406	18.6	87.0
2025-08-16T05:40	10	25	0.2	25	26	406	0.3	405	406	18.6	87.4
2025-08-16T05:41	10	26	0.2	25	26	406	0.2	406	407	18.6	86.8
2025-08-16T05:42	10	26	0.2	26	27	406	0.3	406	407	18.6	86.4
2025-08-16T05:43	10	27	0.2	27	27	407	0.3	406	407	18.6	86.3
2025-08-16T05:44	10	28	0.2	27	28	407	0.3	406	408	18.7	86.4
2025-08-16T05:45	10	28	0.2	28	29	407	0.2	407	408	18.7	85.8
2025-08-16T05:46	10	29	0.2	28	29	408	0.2	407	408	18.8	85.5
2025-08-16T05:47	10	29	0.2	29	30	408	0.3	407	409	18.9	85.2
2025-08-16T05:48	10	30	0.1	30	30	409	0.2	408	409	18.9	85.5
2025-08-16T05:49	10	30	0.2	30	31	409	0.2	408	410	19.0	85.4
2025-08-16T05:50	10	31	0.2	30	31	409	0.2	408	409	19.0	85.5
2025-08-16T05:51	10	31	0.1	31	31	409	0.2	408	409	18.9	85.2
2025-08-16T05:52	10	32	0.2	31	32	409	0.3	409	410	19.0	84.5
2025-08-16T05:53	10	32	0.2	32	32	410	0.2	409	410	19.0	84.1
2025-08-16T05:54	10	33	0.2	32	33	410	0.3	410	411	19.0	84.3
2025-08-16T05:55	10	33	0.2	33	34	411	0.2	410	411	19.1	84.0
2025-08-16T05:56	10	34	0.1	33	34	411	0.2	411	412	19.2	83.7
2025-08-16T05:57	10	34	0.2	34	35	412	0.2	411	412	19.2	83.7
2025-08-16T05:58	10	35	0.2	35	35	412	0.2	412	413	19.4	83.5
2025-08-16T05:59	10	36	0.2	35	36	412	0.2	412	413	19.4	82.6
2025-08-16T06:00	10	36	0.2	36	37	413	0.2	412	413	19.4	82.5
2025-08-16T06:01	10	37	0.2	36	37	413	0.2	412	413	19.4	82.3
2025-08-16T06:02	10	37	0.2	37	38	414	0.3	413	414	19.5	81.8
2025-08-16T06:03	10	38	0.2	37	38	414	0.2	413	414	19.5	82.0
2025-08-16T06:04	10	38	0.2	38	39	414	0.2	414	414	19.6	81.8
2025-08-16T06:05	10	39	0.2	39	39	414	0.2	414	415	19.6	81.4
2025-08-16T06:06	10	39	0.2	39	40	415	0.2	415	416	19.7	81.7
2025-08-16T06:07	10	40	0.2	40	41	415	0.2	415	416	19.7	81.1
2025-08-16T06:08	10	41	0.2	40	41	416	0.3	415	417	19.8	80.3
2025-08-16T06:09	10	41	0.2	41	42	417	0.2	416	417	19.8	81.0
2025-08-16T06:10	10	42	0.2	41	42	417	0.3	416	418	19.8	80.3
2025-08-16T06:11	10	42	0.2	42	43	417	0.3	416	418	19.9	79.9
2025-08-16T06:12	10	43	0.3	42	44	417	0.2	417	418	20.0	79.8
2025-08-16T06:13	10	43	0.2	43	44	418	0.3	417	418	20.0	79.6
2025-08-16T06:14	10	44	0.2	44	45	418	0.2	417	418	19.9	79.6
2025-08-16T06:15	10	44	0.2	44	45	418	0.2	417	419	19.9	79.8
2025-08-16T06:16	10	45	0.2	44	46	418	0.3	417	419	20.0	79.6
2025-08-16T06:17	10	46	0.3	45	47	418	0.3	418	420	20.0	79.2
2025-08-16T06:18	10	46	0.2	45	47	419	0.3	418	420	20.0	79.5
2025-08-16T06:19	10	47	0.2	46	47	420	0.2	419	420	20.0	79.9
2025-08-16T06:20	10	47	0.2	47	48	420	0.3	420	421	20.1	79.3
2025-08-16T06:21	10	48	0.2	48	48	421	0.3	421	422	20.3	80.3
2025-08-16T06:22	10	49	0.2	48	49	422	0.2	421	422	20.4	79.7
2025-08-16T06:23	10	49	0.2	49	49	422	0.2	421	423	20.4	79.5
2025-08-16T06:24	10	50	0.2	49	50	422	0.2	422	423	20.5	79.3
2025-08-16T06:25	10	50	0.2	50	51	423	0.3	422	423	20.5	79.0
2025-08-16T06:26	10	51	0.2	51	51	422	0.3	422	423	20.5	78.1
2025-08-16T06:27	10	52	0.2	51	52	423	0.5	422	425	20.5	78.2
2025-08-16T06:28	10	52	0.2	52	53	424	0.4	423	424	20.6	77.3
2025-08-16T06:29	10	53	0.2	52	53	423	0.4	423	425	20.6	76.3
2025-08-16T06:30	10	53	0.2	53	54	424	0.3	423	424	20.6	76.4
2025-08-16T06:31	10	54	0.2	54	54	424	0.4	424	425	20.6	76.4
2025-08-16T06:32	10	54	0.2	54	55	425	0.3	424	426	20.6	75.7
2025-08-16T06:33	10	55	0.2	55	55	426	0.3	425	426	20.7	76.4
2025-08-16T06:34	10	56	0.2	55	56	427	0.5	426	428	20.7	76.5
2025-08-16T06:35	10	56	0.2	56	56	428	0.2	427	428	20.8	76.3
2025-08-16T06:36	10	57	0.2	56	57	428	0.3	428	429	20.9	76.0
2025-08-16T06:37	10	57	0.2	57	57	428	0.2	428	429	20.9	75.6
2025-08-16T06:38	10	58	0.2	57	58	429	0.4	428	430	21.0	75.9
2025-08-16T06:39	10	58	0.2	58	58	429	0.5	428	430	21.0	75.4
2025-08-16T06:40	10	59	0.2	58	59	429	0.4	428	430	21.0	75.4
2025-08-16T06:41	10	59	0.2	59	59	429	0.3	428	429	21.0	75.8
2025-08-16T06:42	10	60	0.2	59	60	429	0.2	428	429	21.0	76.1
2025-08-16T06:43	10	60	0.2	60	61	429	0.2	429	430	21.0	76.2
2025-08-16T06:44	10	61	0.2	60	61	430	0.3	429	431	21.0	76.1
2025-08-16T06:45	10	61	0.2	61	61	431	0.4	430	432	21.0	76.3
2025-08-16T06:46	10	62	0.2	61	62	431	0.3	430	432	21.1	76.6
2025-08-16T06:47	10	62	0.2	62	63	432	0.3	432	433	21.1	76.9
2025-08-16T06:48	10	63	0.2	62	63	433	0.2	432	433	21.2	76.9
2025-08-16T06:49	10	63	0.2	63	64	433	0.3	432	433	21.2	76.7
2025-08-16T06:50	10	64	0.2	64	64	434	0.3	433	434	21.3	76.8
2025-08-16T06:51	10	65	0.2	64	65	434	0.3	434	435	21.3	76.7
2025-08-16T06:52	10	65	0.2	65	66	435	0.6	434	437	21.4	76.6
2025-08-16T06:53	10	66	0.2	65	66	436	0.5	435	437	21.5	76.3
2025-08-16T06:54	10	66	0.2	66	67	438	0.3	437	438	21.6	76.1
2025-08-16T06:55	10	67	0.2	66	67	438	0.3	437	438	21.6	76.0
2025-08-16T06:56	10	67	0.2	67	68	439	0.5	438	440	21.6	76.3
2025-08-16T06:57	10	68	0.2	67	68	439	0.6	438	440	21.8	76.0
2025-08-16T06:58	10	68	0.2	68	69	440	0.3	439	440	21.7	76.0
2025-08-16T06:59	10	69	0.2	69	69	440	0.2	439	440	21.7	76.0
2025-08-16T07:00	10	69	0.2	69	70	440	0.2	440	441	21.8	75.8
2025-08-16T07:01	10	70	0.2	70	71	442	0.3	441	442	21.9	75.5
2025-08-16T07:02	10	71	0.2	70	71	442	0.2	442	443	22.0	75.1
2025-08-16T07:03	10	71	0.2	71	72	443	0.2	442	443	22.1	74.8
2025-08-16T07:04	10	72	0.2	71	72	443	0.4	443	444	22.2	74.2
2025-08-16T07:05	10	72	0.2	72	73	444	0.3	443	444	22.2	73.8
2025-08-16T07:06	10	73	0.2	73	74	444	0.3	444	445	22.4	73.4
2025-08-16T07:07	10	74	0.2	73	74	444	0.3	444	445	22.4	72.7
2025-08-16T07:08	10	74	0.2	73	74	445	0.3	444	445	22.4	73.1
2025-08-16T07:09	10	74	0.2	74	75	446	0.3	445	446	22.4	72.7
2025-08-16T07:10	10	75	0.2	75	75	446	0.4	446	447	22.5	72.7
2025-08-16T07:11	10	75	0.2	75	76	447	0.4	446	448	22.6	72.9
2025-08-16T07:12	10	76	0.2	76	76	448	0.3	447	448	22.5	72.8
2025-08-16T07:13	10	77	0.1	76	77	448	0.3	447	448	22.6	72.8
2025-08-16T07:14	10	77	0.2	77	78	449	0.4	448	449	22.7	71.7
2025-08-16T07:15	10	78	0.1	77	78	449	0.3	448	450	22.5	72.2
2025-08-16T07:16	10	78	0.2	78	78	450	0.3	449	450	22.5	72.8
2025-08-16T07:17	10	78	0.1	78	79	450	0.2	449	450	22.6	72.4
2025-08-16T07:18	10	79	0.1	79	79	450	0.3	450	451	22.7	71.8
2025-08-16T07:19	10	79	0.2	79	80	450	0.3	450	451	22.9	71.2
2025-08-16T07:20	10	80	0.2	80	80	451	0.3	450	451	22.9	71.1
2025-08-16T07:21	10	80	0.2	80	81	451	0.4	450	452	22.9	70.9
2025-08-16T07:22	10	81	0.2	81	81	452	0.2	452	453	23.0	70.8
2025-08-16T07:23	10	81	0.2	81	82	454	0.6	453	455	23.0	70.8
2025-08-16T07:24	10	82	0.2	81	82	455	0.6	454	456	23.0	71.3
2025-08-16T07:25	10	82	0.2	82	83	454	0.3	453	455	23.1	70.8
2025-08-16T07:26	10	83	0.2	82	83	455	0.3	454	456	23.0	71.5
2025-08-16T07:27	10	83	0.2	83	84	455	0.4	454	455	23.2	70.7
2025-08-16T07:28	10	84	0.1	84	84	454	0.3	453	455	22.8	71.1
2025-08-16T07:29	10	84	0.2	84	84	455	0.6	454	456	22.7	71.8
2025-08-16T07:30	10	85	0.1	84	85	456	0.3	455	457	22.8	71.6
2025-08-16T07:31	10	85	0.2	85	85	456	0.3	455	457	22.9	71.0
2025-08-16T07:32	10	86	0.2	85	86	457	0.2	456	457	23.0	70.4
2025-08-16T07:33	10	86	0.2	86	86	458	0.3	457	458	23.2	70.4
2025-08-16T07:34	10	87	0.1	86	87	458	0.2	457	458	23.1	70.0
2025-08-16T07:35	10	87	0.2	86	87	458	0.3	458	459	23.0	70.4
2025-08-16T07:36	10	87	0.1	87	88	458	0.3	458	459	22.9	70.6
2025-08-16T07:37	10	88	0.1	87	88	459	0.3	458	459	22.9	70.7
2025-08-16T07:38	10	88	0.1	88	88	460	0.3	459	461	23.0	70.5
2025-08-16T07:39	10	89	0.2	88	89	460	0.4	459	461	23.0	70.4
2025-08-16T07:40	10	89	0.2	88	90	461	0.3	460	461	23.0	70.7
2025-08-16T07:41	10	90	0.3	89	90	462	0.7	460	463	23.3	70.3
2025-08-16T07:42	10	90	0.3	89	91	461	0.4	460	462	23.2	69.9
2025-08-16T07:43	10	90	0.3	90	91	463	0.7	461	464	23.2	70.3
2025-08-16T07:44	10	91	0.2	90	91	463	0.5	462	464	23.4	70.2
2025-08-16T07:45	10	91	0.2	91	92	464	0.4	463	465	23.5	69.2
2025-08-16T07:46	10	91	0.1	91	92	463	0.2	463	464	23.4	69.7
2025-08-16T07:47	10	92	0.1	91	92	464	0.7	463	465	23.5	69.3
2025-08-16T07:48	10	92	0.1	92	92	465	0.3	465	466	23.5	69.4
2025-08-16T07:49	10	92	0.1	92	93	466	0.4	465	467	23.5	69.3
2025-08-16T07:50	10	93	0.1	93	93	466	0.6	465	467	23.5	69.3
2025-08-16T07:51	10	93	0.2	93	94	467	0.3	466	467	23.5	69.1
2025-08-16T07:52	10	94	0.1	93	94	466	0.3	466	467	23.8	68.4
2025-08-16T07:53	10	94	0.1	94	94	467	0.3	466	468	23.8	67.0
2025-08-16T07:54	10	94	0.1	94	95	468	0.3	467	468	23.9	66.7
2025-08-16T07:55	10	95	0.2	94	95	468	0.2	467	468	24.1	66.4
2025-08-16T07:56	10	95	0.2	95	95	469	0.3	468	469	24.2	65.4
2025-08-16T07:57	10	95	0.1	95	96	470	0.4	469	470	24.3	65.0
2025-08-16T07:58	10	96	0.2	95	96	470	0.4	469	471	24.4	65.3
2025-08-16T07:59	10	96	0.1	96	96	471	0.3	470	472	24.3	65.4
2025-08-16T08:00	10	96	0.1	96	97	471	0.3	471	472	24.2	65.4
2025-08-16T08:01	10	97	0.1	96	97	472	0.4	471	472	24.4	65.2
2025-08-16T08:02	10	97	0.2	97	97	473	0.5	472	474	24.4	65.0
2025-08-16T08:03	10	98	0.2	97	98	473	0.4	472	474	24.4	64.8
2025-08-16T08:04	10	98	0.2	98	98	474	0.2	473	474	24.4	64.2
2025-08-16T08:05	10	99	0.2	98	99	474	0.4	474	475	24.3	64.7
2025-08-16T08:06	10	99	0.1	99	99	475	0.3	474	475	24.4	64.6
2025-08-16T08:07	10	99	0.1	99	100	475	0.4	474	476	24.3	64.3
2025-08-16T08:08	10	100	0.1	100	100	475	0.2	475	476	24.3	63.7
2025-08-16T08:09	10	100	0.2	100	101	476	0.3	475	476	24.4	62.6
2025-08-16T08:10	10	101	0.1	100	101	476	0.2	476	477	24.3	63.5
2025-08-16T08:11	10	101	0.1	101	101	477	0.6	476	478	24.6	63.8
2025-08-16T08:12	10	101	0.1	101	102	478	0.3	478	479	24.8	62.2
2025-08-16T08:13	10	102	0.1	101	102	478	0.3	478	479	25.1	61.8
2025-08-16T08:14	10	102	0.2	102	102	478	0.3	478	479	25.6	58.3
2025-08-16T08:15	10	102	0.1	102	103	479	0.3	478	480	25.6	58.5
2025-08-16T08:16	10	103	0.1	103	103	480	0.2	479	480	25.7	58.8
2025-08-16T08:17	10	103	0.1	103	104	480	0.3	480	481	25.9	58.3
2025-08-16T08:18	10	103	0.1	103	104	482	0.5	481	483	25.9	58.4
2025-08-16T08:19	10	104	0.2	103	104	482	0.3	481	482	25.6	58.3
2025-08-16T08:20	10	104	0.2	104	104	482	0.3	481	483	25.4	58.4
2025-08-16T08:21	10	104	0.2	104	105	482	0.3	482	483	25.3	58.6
2025-08-16T08:22	10	105	0.2	104	106	482	0.5	481	483	24.9	59.9
2025-08-16T08:23	10	105	0.2	104	105	483	0.4	482	484	24.9	60.2
2025-08-16T08:24	10	106	0.2	105	106	484	0.4	483	485	25.0	60.3
2025-08-16T08:25	10	106	0.2	105	106	484	0.3	483	485	25.3	59.8
2025-08-16T08:26	10	107	0.2	106	107	484	0.5	483	486	25.3	59.7
2025-08-16T08:27	10	107	0.1	107	107	486	0.3	485	487	25.4	59.3
2025-08-16T08:28	10	107	0.1	107	107	486	0.4	485	487	25.3	59.2
2025-08-16T08:29	10	107	0.1	107	108	485	0.5	484	487	25.3	58.9
2025-08-16T08:30	10	107	0.1	107	108	486	0.3	486	487	25.2	58.8
2025-08-16T08:31	10	108	0.2	107	108	488	0.5	486	488	25.4	58.9
2025-08-16T08:32	10	108	0.1	108	108	485	1.0	484	487	25.7	57.8
2025-08-16T08:33	10	108	0.1	108	109	485	0.6	484	487	25.5	57.8
2025-08-16T08:34	10	109	0.2	108	109	487	0.8	486	488	25.6	57.7
2025-08-16T08:35	10	109	0.2	109	110	490	0.5	488	490	25.6	57.2
2025-08-16T08:36	10	110	0.1	109	110	490	0.4	489	491	25.5	57.6
2025-08-16T08:37	10	110	0.2	110	110	490	0.7	488	491	25.4	58.0
2025-08-16T08:38	10	110	0.2	110	111	489	0.3	488	490	25.3	58.3
2025-08-16T08:39	10	111	0.1	111	111	490	0.4	489	491	25.4	57.8
2025-08-16T08:40	10	111	0.1	111	111	491	0.4	490	492	25.7	57.4
2025-08-16T08:41	10	111	0.1	111	112	491	0.4	490	492	25.6	57.8
2025-08-16T08:42	10	111	0.1	111	112	492	0.4	491	492	25.4	58.8
2025-08-16T08:43	10	112	0.1	111	112	491	0.4	490	492	25.3	59.3
2025-08-16T08:44	10	112	0.1	111	112	492	0.3	491	493	25.4	59.2
2025-08-16T08:45	10	112	0.1	112	112	492	0.3	491	493	25.7	58.9
2025-08-16T08:46	10	112	0.1	112	113	494	0.4	493	494	26.0	58.4
2025-08-16T08:47	10	113	0.2	112	113	495	0.2	494	495	25.8	57.5
2025-08-16T08:48	10	114	0.2	113	114	496	0.5	494	497	26.0	57.3
2025-08-16T08:49	10	114	0.2	114	114	497	0.3	496	497	26.1	57.0
2025-08-16T08:50	10	114	0.1	114	115	494	1.3	492	496	25.6	57.8
2025-08-16T08:51	10	114	0.2	114	115	493	0.5	492	494	25.4	58.5
2025-08-16T08:52	10	114	0.4	114	115	494	0.5	493	495	25.4	58.5
2025-08-16T08:53	10	116	0.2	115	116	496	0.9	494	497	25.7	57.9
2025-08-16T08:54	10	116	0.2	116	117	497	0.5	496	498	25.6	57.7
2025-08-16T08:55	10	117	0.1	116	117	497	0.7	496	499	25.8	56.8
2025-08-16T08:56	10	117	0.1	117	117	495	0.7	494	497	25.6	57.0
2025-08-16T08:57	10	117	0.1	117	117	496	1.1	494	498	25.7	56.8
2025-08-16T08:58	10	117	0.1	117	117	498	0.6	497	499	25.9	56.2
2025-08-16T08:59	10	117	0.1	117	118	499	1.0	497	501	26.1	55.7
2025-08-16T09:00	10	118	0.1	117	118	498	0.7	497	499	26.1	55.7
2025-08-16T09:01	10	118	0.1	118	118	499	0.3	498	499	26.0	56.3
2025-08-16T09:02	10	118	0.1	118	118	500	0.5	499	501	25.9	56.5
2025-08-16T09:03	10	119	0.1	118	119	500	0.4	499	501	25.9	56.5
2025-08-16T09:04	10	119	0.2	119	119	501	0.5	500	502	26.0	56.5
2025-08-16T09:05	10	120	0.1	119	120	502	0.3	501	503	26.3	56.5
2025-08-16T09:06	10	120	0.1	120	120	504	1.1	502	505	26.3	56.4
2025-08-16T09:07	10	120	0.1	120	120	505	0.9	503	506	26.3	52.9
2025-08-16T09:08	10	120	0.1	120	121	506	0.5	505	507	26.3	54.5
2025-08-16T09:09	10	121	0.1	120	121	506	0.7	505	508	26.3	55.4
2025-08-16T09:10	10	121	0.1	121	121	505	1.1	502	506	26.3	56.4
2025-08-16T09:11	10	121	0.1	121	122	504	0.4	503	505	26.3	56.4
2025-08-16T09:12	10	121	0.2	121	122	505	0.6	504	506	26.3	56.4
2025-08-16T09:13	10	122	0.2	122	122	505	0.7	504	507	26.3	56.5
2025-08-16T09:14	10	122	0.2	122	123	505	0.3	505	506	26.3	55.9
2025-08-16T09:15	10	122	0.2	122	123	506	0.7	505	508	26.5	55.8
2025-08-16T09:16	10	122	0.1	122	123	504	0.6	503	506	26.4	55.4
2025-08-16T09:17	10	122	0.2	122	123	506	0.8	504	508	26.5	55.7
2025-08-16T09:18	10	122	0.2	122	123	508	0.5	507	509	26.9	55.0
2025-08-16T09:19	10	123	0.2	122	123	504	1.2	503	507	26.3	55.9
2025-08-16T09:20	10	123	0.3	122	124	506	0.7	504	507	26.4	56.4
2025-08-16T09:21	10	123	0.3	123	124	507	1.4	504	509	26.6	55.6
2025-08-16T09:22	10	123	0.2	123	124	507	1.1	505	509	26.6	55.4
2025-08-16T09:23	10	123	0.2	123	124	509	0.5	508	510	26.8	55.3
2025-08-16T09:24	10	124	0.2	123	124	507	1.3	504	510	26.8	55.0
2025-08-16T09:25	10	124	0.2	124	125	503	0.4	502	504	26.2	55.9
2025-08-16T09:26	10	124	0.2	124	125	505	0.7	504	507	26.0	56.5
2025-08-16T09:27	10	124	0.2	124	125	508	0.8	506	509	26.2	56.4
2025-08-16T09:28	10	125	0.2	124	125	507	2.2	504	511	26.3	55.9
2025-08-16T09:29	10	125	0.1	124	125	506	1.1	504	507	26.0	56.6
2025-08-16T09:30	10	125	0.2	125	125	508	0.7	506	509	26.2	56.3
2025-08-16T09:31	10	125	0.2	125	125	507	0.5	507	508	26.1	56.5
2025-08-16T09:32	10	125	0.2	125	126	510	1.3	508	512	26.4	56.1
2025-08-16T09:33	10	126	0.2	125	126	512	0.6	510	513	26.8	55.1
2025-08-16T09:34	10	126	0.1	126	126	505	1.7	503	510	26.3	55.9
2025-08-16T09:35	10	126	0.2	126	127	509	1.0	506	510	26.2	56.0
2025-08-16T09:36	10	127	0.2	126	127	511	0.5	509	512	26.4	55.8
2025-08-16T09:37	10	127	0.2	126	128	512	0.9	510	513	26.6	55.5
2025-08-16T09:38	10	127	0.1	127	127	511	0.8	510	512	26.7	55.5
2025-08-16T09:39	10	127	0.1	127	128	511	1.1	509	513	26.5	55.7
2025-08-16T09:40	10	128	0.2	127	128	513	1.0	511	514	26.8	55.2
2025-08-16T09:41	10	128	0.1	128	128	512	0.8	510	513	27.1	55.0
2025-08-16T09:42	10	128	0.1	128	128	508	2.2	505	513	26.7	55.7
2025-08-16T09:43	10	129	0.1	128	129	508	0.9	507	511	26.6	55.9
2025-08-16T09:44	10	129	0.2	129	129	513	1.2	511	515	26.9	55.4
2025-08-16T09:45	10	129	0.2	129	130	512	0.8	511	513	26.8	55.5
2025-08-16T09:46	10	130	0.1	129	130	513	0.9	512	515	26.8	55.5
2025-08-16T09:47	10	130	0.2	130	131	514	0.9	512	515	27.0	55.0
2025-08-16T09:48	10	130	0.1	130	130	514	0.8	513	516	27.1	54.7
2025-08-16T09:49	10	130	0.1	130	131	517	1.2	515	519	27.3	54.0
2025-08-16T09:50	10	130	0.1	130	131	514	0.5	513	515	26.9	55.1
2025-08-16T09:51	10	130	0.1	130	131	511	0.7	510	513	26.6	55.7
2025-08-16T09:52	10	130	0.1	130	131	514	1.7	511	517	26.8	55.5
2025-08-16T09:53	10	131	0.1	130	131	514	0.8	513	516	26.8	55.3
2025-08-16T09:54	10	131	0.1	131	131	516	0.4	515	517	26.9	55.2
2025-08-16T09:55	10	131	0.2	131	132	515	0.8	513	516	27.3	54.8
2025-08-16T09:56	10	132	0.1	131	132	514	0.9	513	516	27.0	55.2
2025-08-16T09:57	10	132	0.1	132	132	515	1.1	513	517	26.9	55.5
2025-08-16T09:58	10	132	0.2	132	132	518	1.5	516	521	27.3	54.9
2025-08-16T09:59	10	132	0.1	132	132	517	2.4	515	522	27.3	54.2
2025-08-16T10:00	10	132	0.1	132	133	517	1.1	515	519	27.2	54.3
2025-08-16T10:01	10	132	0.1	132	133	518	1.0	517	520	27.2	54.3
2025-08-16T10:02	10	133	0.1	132	133	519	0.5	518	520	27.4	53.6
2025-08-16T10:03	10	133	0.1	132	133	520	0.8	517	521	27.6	53.1
2025-08-16T10:04	10	133	0.1	133	134	518	0.4	518	519	27.2	53.9
2025-08-16T10:05	10	133	0.1	133	134	519	0.7	518	521	27.5	53.6
2025-08-16T10:06	10	134	0.2	133	134	520	1.2	518	522	27.4	53.6
2025-08-16T10:07	10	134	0.1	134	134	518	1.2	517	521	27.0	54.5
2025-08-16T10:08	10	134	0.1	134	135	520	0.9	519	523	27.1	54.4
2025-08-16T10:09	10	135	0.1	134	135	522	1.0	520	524	27.3	54.1
2025-08-16T10:10	10	135	0.1	135	135	521	0.5	520	522	27.5	53.4
2025-08-16T10:11	10	135	0.2	135	136	521	0.7	520	522	27.4	53.6
2025-08-16T10:12	10	135	0.1	135	136	521	0.9	520	523	27.4	53.6
2025-08-16T10:13	10	135	0.1	135	136	523	0.8	522	525	27.4	53.5
2025-08-16T10:14	10	136	0.1	135	136	523	0.6	522	525	27.5	53.4
2025-08-16T10:15	10	136	0.1	135	136	524	0.4	523	524	27.7	53.1
2025-08-16T10:16	10	136	0.1	135	136	526	1.2	524	529	28.1	52.0
2025-08-16T10:17	10	135	0.1	135	135	525	2.0	523	529	28.3	51.4
2025-08-16T10:18	10	135	0.2	134	136	524	0.7	523	525	28.1	51.8
2025-08-16T10:19	10	135	0.1	134	135	526	1.6	523	528	28.3	51.4
2025-08-16T10:20	10	135	0.1	134	135	525	1.5	523	529	28.1	51.9
2025-08-16T10:21	10	134	0.2	134	135	525	1.9	522	530	28.5	51.4
2025-08-16T10:22	10	135	0.1	134	135	525	2.0	522	529	28.4	51.4
2025-08-16T10:23	10	135	0.2	135	136	523	0.7	521	524	27.8	52.3
2025-08-16T10:24	10	136	0.2	135	136	526	1.8	523	528	27.9	52.3
2025-08-16T10:25	10	136	0.2	136	137	529	1.2	526	530	28.3	51.5
2025-08-16T10:26	10	137	0.2	136	137	528	1.2	526	530	28.5	51.2
2025-08-16T10:27	10	137	0.1	137	138	526	1.1	524	529	28.1	51.4
2025-08-16T10:28	10	137	0.1	137	138	529	0.5	529	531	28.3	51.1
2025-08-16T10:29	10	138	0.2	137	138	529	0.5	528	530	28.5	50.8
2025-08-16T10:30	10	138	0.2	138	139	531	0.4	530	532	28.8	50.5
2025-08-16T10:31	10	139	0.1	138	139	530	0.9	529	532	28.7	50.0
2025-08-16T10:32	10	139	0.1	139	139	527	1.9	524	531	28.0	51.4
2025-08-16T10:33	10	139	0.1	139	139	526	0.8	524	527	27.9	51.6
2025-08-16T10:34	10	138	0.2	138	139	526	1.2	524	529	27.8	51.8
2025-08-16T10:35	10	138	0.1	138	138	528	1.1	526	530	27.9	51.6
2025-08-16T10:36	10	138	0.1	138	138	529	0.9	527	530	27.9	51.8
2025-08-16T10:37	10	138	0.1	138	139	529	0.6	528	530	27.9	51.5
2025-08-16T10:38	10	139	0.1	138	139	529	0.2	528	529	28.0	51.2
2025-08-16T10:39	10	139	0.1	139	139	529	0.7	528	530	28.0	51.2
2025-08-16T10:40	10	139	0.1	139	139	530	0.8	528	531	28.0	51.0
2025-08-16T10:41	10	139	0.1	139	139	529	1.5	527	532	28.4	50.5
2025-08-16T10:42	10	139	0.1	139	139	532	0.6	531	533	28.8	49.5
2025-08-16T10:43	10	139	0.1	139	140	534	0.6	532	535	28.7	49.5
2025-08-16T10:44	10	139	0.1	139	140	533	0.8	532	535	28.5	50.3
2025-08-16T10:45	10	139	0.1	139	140	533	1.0	531	535	28.7	49.6
2025-08-16T10:46	10	140	0.1	139	140	530	3.0	527	535	28.7	49.7
2025-08-16T10:47	10	140	0.1	140	140	529	1.1	528	531	28.2	50.2
2025-08-16T10:48	10	140	0.1	140	141	533	0.9	531	534	28.3	50.0
2025-08-16T10:49	10	141	0.1	140	141	533	1.0	531	534	28.8	49.3
2025-08-16T10:50	10	141	0.1	141	141	535	0.8	533	536	28.7	49.4
2025-08-16T10:51	10	141	0.1	141	141	537	0.8	535	538	29.3	48.5
2025-08-16T10:52	10	141	0.1	141	141	536	1.5	533	538	29.4	47.5
2025-08-16T10:53	10	142	0.1	141	142	533	0.8	532	535	29.4	47.7
2025-08-16T10:54	10	142	0.1	142	142	533	0.9	532	535	28.9	47.9
2025-08-16T10:55	10	142	0.1	142	142	534	0.9	533	536	28.5	48.3
2025-08-16T10:56	10	142	0.1	142	143	535	0.5	534	536	28.5	48.6
2025-08-16T10:57	10	143	0.2	142	143	532	1.8	530	535	28.4	49.6
2025-08-16T10:58	10	143	0.1	143	143	534	0.9	532	536	28.7	49.2
2025-08-16T10:59	10	143	0.1	143	143	535	1.1	533	537	29.1	48.0
2025-08-16T11:00	10	143	0.2	143	144	534	1.7	532	536	28.9	47.8
2025-08-16T11:01	10	143	0.1	143	144	536	1.8	532	538	28.9	48.5
2025-08-16T11:02	10	144	0.1	143	144	537	0.8	536	539	29.0	48.0
2025-08-16T11:03	10	144	0.1	144	144	536	1.0	533	538	29.1	47.6
2025-08-16T11:04	10	144	0.1	144	145	535	1.0	533	537	28.6	48.2
2025-08-16T11:05	10	145	0.2	144	145	535	2.1	532	538	28.7	48.0
2025-08-16T11:06	10	145	0.2	145	146	536	1.2	534	539	28.6	47.9
2025-08-16T11:07	10	146	0.2	146	147	539	0.5	538	540	29.1	46.9
2025-08-16T11:08	10	147	0.2	146	147	541	0.7	540	542	29.1	46.7
2025-08-16T11:09	10	147	0.1	147	147	541	1.0	540	543	29.0	48.0
2025-08-16T11:10	10	147	0.1	147	147	540	0.9	539	542	28.9	48.4
2025-08-16T11:11	10	147	0.1	146	147	542	1.4	540	545	29.5	47.8
2025-08-16T11:12	10	147	0.1	146	147	538	0.7	537	540	29.2	46.6
2025-08-16T11:13	10	147	0.1	147	147	541	0.3	540	542	29.2	46.6
2025-08-16T11:14	10	147	0.1	147	147	542	0.6	540	543	29.2	47.0
2025-08-16T11:15	10	147	0.1	147	147	538	2.3	535	542	29.4	47.0
2025-08-16T11:16	10	147	0.2	146	147	536	0.6	535	537	29.3	45.9
2025-08-16T11:17	10	146	0.2	146	147	538	1.2	537	541	29.0	47.2
2025-08-16T11:18	10	147	0.2	146	147	539	1.5	536	542	29.1	47.2
2025-08-16T11:19	10	147	0.2	147	148	539	1.3	537	541	28.9	47.7
2025-08-16T11:20	10	148	0.3	148	149	542	0.6	541	543	29.3	47.1
2025-08-16T11:21	10	148	0.2	148	149	541	1.9	538	545	29.2	46.7
2025-08-16T11:22	10	148	0.1	148	148	542	1.5	540	545	29.4	46.9
2025-08-16T11:23	10	148	0.2	148	149	539	0.6	537	540	28.9	47.5
2025-08-16T11:24	10	149	0.1	149	149	539	1.6	537	542	28.9	47.5
2025-08-16T11:25	10	149	0.2	149	149	545	1.7	542	547	29.3	46.9
2025-08-16T11:26	10	152	0.2	152	152	546	1.0	544	547	29.7	45.4
2025-08-16T11:27	10	153	0.2	152	153	545	1.3	543	548	29.6	45.3
2025-08-16T11:28	10	151	0.3	150	151	542	1.0	540	544	29.3	45.3
2025-08-16T11:29	10	152	0.3	151	152	540	0.6	539	542	29.2	45.8
2025-08-16T11:30	10	152	0.2	152	153	539	1.0	538	541	29.0	46.0
2025-08-16T11:31	10	152	0.4	152	153	541	1.9	538	545	29.1	46.0
2025-08-16T11:32	10	153	0.5	152	154	540	2.5	536	544	29.4	45.4
2025-08-16T11:33	10	155	0.5	154	156	541	2.4	538	546	29.1	45.6
2025-08-16T11:34	10	156	0.3	156	157	544	0.8	542	545	29.6	45.4
2025-08-16T11:35	10	157	0.3	157	158	545	1.6	543	548	29.5	45.8
2025-08-16T11:36	10	99	43.9	46	159	537	9.2	520	547	29.5	45.6
2025-08-16T11:37	10	60	14.2	47	98	518	2.5	515	524	29.9	45.0
2025-08-16T11:38	10	149	16.5	103	163	533	8.7	517	545	29.8	45.5
2025-08-16T11:39	10	167	1.0	165	168	546	2.2	541	549	29.8	45.5
2025-08-16T11:40	10	169	0.7	168	170	551	1.3	548	553	29.7	46.3
2025-08-16T11:41	10	171	0.4	170	172	552	0.5	551	553	29.8	45.3
2025-08-16T11:42	10	172	0.5	171	173	555	0.7	553	556	29.7	45.5
2025-08-16T11:43	10	174	0.6	173	175	555	0.5	554	556	29.4	45.9
2025-08-16T11:44	10	139	40.8	83	176	548	7.4	534	556	29.8	45.4
2025-08-16T11:45	10	70	8.5	60	87	527	7.5	517	538	30.1	43.9
2025-08-16T11:46	10	56	2.3	54	61	515	3.1	510	520	29.8	43.8
2025-08-16T11:47	10	58	2.8	55	63	512	0.4	511	513	29.5	44.9
2025-08-16T11:48	10	72	20.1	56	118	511	2.8	508	519	29.5	46.1
2025-08-16T11:49	10	125	34.1	78	165	522	7.6	514	538	29.3	46.8
2025-08-16T11:50	10	162	1.0	159	164	541	3.4	535	547	29.5	46.6
2025-08-16T11:51	10	161	3.3	156	167	547	0.7	545	548	29.9	45.5
2025-08-16T11:52	10	151	16.9	120	169	548	2.8	542	551	29.8	45.4
2025-08-16T11:53	10	115	4.8	106	127	538	2.2	535	543	29.8	45.8
2025-08-16T11:54	10	96	13.5	68	119	530	3.6	524	536	29.5	45.5
2025-08-16T11:55	10	60	1.9	58	66	516	4.9	510	527	29.7	44.9
2025-08-16T11:56	10	93	13.3	66	109	515	2.6	511	519	29.6	44.8
2025-08-16T11:57	10	90	11.5	72	104	516	1.1	514	518	29.7	44.8
2025-08-16T11:58	10	92	5.0	81	100	517	1.2	515	520	29.4	45.5
2025-08-16T11:59	10	110	5.0	100	117	522	2.0	519	526	29.5	45.2
2025-08-16T12:00	10	117	3.4	110	121	524	2.1	520	527	29.8	44.8
2025-08-16T12:01	10	122	3.3	114	128	518	1.5	515	521	29.0	47.4
2025-08-16T12:02	10	134	4.9	128	142	520	1.9	517	524	28.8	48.2
2025-08-16T12:03	10	149	4.8	139	153	528	1.7	523	530	29.0	47.8
2025-08-16T12:04	10	144	2.1	142	150	529	1.0	527	531	29.1	47.8
2025-08-16T12:05	10	151	8.7	112	162	533	3.0	528	538	29.1	47.5
2025-08-16T12:06	10	72	7.6	65	102	520	6.0	514	536	29.2	47.2
2025-08-16T12:07	10	65	0.5	64	66	510	1.9	506	515	29.3	46.8
2025-08-16T12:08	10	64	0.2	64	65	506	0.6	505	507	29.2	46.8
2025-08-16T12:09	10	64	0.7	64	66	506	0.8	505	508	29.2	48.0
2025-08-16T12:10	10	113	43.2	66	169	508	6.5	502	522	29.0	52.0
2025-08-16T12:11	10	169	0.4	168	169	525	2.9	518	528	28.7	53.2
2025-08-16T12:12	10	165	1.6	163	169	528	0.9	527	530	28.5	53.6
2025-08-16T12:13	10	160	2.2	158	165	531	1.5	529	533	28.7	53.5
2025-08-16T12:14	10	162	0.8	161	163	535	1.4	532	537	29.2	52.7
2025-08-16T12:15	10	159	5.8	144	164	531	1.3	527	534	28.8	53.4
2025-08-16T12:16	10	132	13.1	102	149	525	5.1	514	530	28.5	53.8
2025-08-16T12:17	10	72	8.3	59	98	506	4.3	499	517	27.9	55.1
2025-08-16T12:18	10	71	12.7	58	115	501	1.2	499	505	28.1	54.8
2025-08-16T12:19	10	157	9.2	120	163	519	7.4	502	528	28.4	53.6
2025-08-16T12:20	10	156	0.8	155	158	522	0.6	520	523	27.9	54.5
2025-08-16T12:21	10	128	28.0	74	156	519	4.6	510	524	28.0	54.4
2025-08-16T12:22	10	48	11.2	40	74	503	6.6	494	513	28.0	54.2
2025-08-16T12:23	10	39	0.7	38	40	491	1.8	489	496	27.9	54.5
2025-08-16T12:24	10	37	0.5	36	38	489	1.1	486	490	28.1	54.0
2025-08-16T12:25	10	36	0.4	35	37	483	1.0	482	486	27.5	55.4
2025-08-16T12:26	10	35	0.4	34	36	481	0.6	480	482	27.6	55.3
2025-08-16T12:27	10	34	0.5	33	35	479	0.5	478	480	27.5	55.7
2025-08-16T12:28	10	32	0.4	31	33	477	0.4	477	478	27.4	55.8
2025-08-16T12:29	10	31	0.4	30	32	477	0.4	476	478	27.5	55.6
2025-08-16T12:30	10	30	0.3	29	31	476	0.5	475	477	27.5	55.7
2025-08-16T12:31	10	29	0.2	28	29	475	0.8	473	476	27.6	55.5
2025-08-16T12:32	10	28	0.3	27	29	473	0.5	472	474	27.3	56.5
2025-08-16T12:33	10	27	0.3	26	28	471	0.5	470	472	27.1	56.7
2025-08-16T12:34	10	26	0.3	25	27	470	0.2	470	471	27.1	56.9
2025-08-16T12:35	10	25	0.2	25	26	470	0.3	469	470	27.1	57.2
2025-08-16T12:36	10	24	0.2	24	25	470	0.8	468	471	27.3	56.9
2025-08-16T12:37	10	24	0.1	24	24	471	0.3	470	472	27.6	56.0
2025-08-16T12:38	10	24	0.1	23	24	470	0.2	469	470	27.4	56.4
2025-08-16T12:39	10	23	0.1	23	24	468	0.8	467	469	27.4	56.7
2025-08-16T12:40	10	23	0.2	23	23	467	0.5	466	468	27.2	57.2
2025-08-16T12:41	10	22	0.1	22	23	466	0.2	466	467	27.1	57.4
2025-08-16T12:42	10	22	0.1	22	23	466	0.4	465	467	27.1	57.4
2025-08-16T12:43	10	22	0.1	22	23	466	0.3	465	466	27.1	57.3
2025-08-16T12:44	10	23	0.1	22	23	465	0.3	465	466	27.1	57.3
2025-08-16T12:45	10	23	0.2	23	24	465	0.3	464	466	27.2	57.3
2025-08-16T12:46	10	24	0.3	23	24	465	0.2	464	465	27.0	58.1
2025-08-16T12:47	10	25	0.5	24	26	465	0.6	464	466	27.1	57.8
2025-08-16T12:48	10	26	0.3	25	27	467	0.7	465	468	27.3	57.3
2025-08-16T12:49	10	27	0.6	26	28	467	0.3	466	467	27.3	57.3
2025-08-16T12:50	10	29	0.6	28	30	466	0.5	465	467	27.1	57.8
2025-08-16T12:51	10	42	11.4	30	67	469	2.7	466	474	27.1	58.0
2025-08-16T12:52	10	105	25.8	69	149	482	7.3	472	497	27.0	58.3
2025-08-16T12:53	10	151	0.3	149	151	505	5.8	494	514	27.3	58.0
2025-08-16T12:54	10	152	0.3	151	152	515	2.0	511	518	27.4	58.2
2025-08-16T12:55	10	152	0.1	151	152	519	0.8	517	520	27.4	59.0
2025-08-16T12:56	10	152	0.3	151	152	519	0.9	518	521	27.2	59.1
2025-08-16T12:57	10	152	0.2	151	152	518	1.8	515	521	27.1	59.3
2025-08-16T12:58	10	151	0.2	151	151	518	0.4	517	519	27.1	59.1
2025-08-16T12:59	10	150	0.4	149	151	520	1.5	518	523	27.1	58.8
2025-08-16T13:00	10	98	37.3	40	150	516	6.9	503	524	27.4	58.5
2025-08-16T13:01	10	60	22.8	36	99	497	3.5	493	506	27.1	58.1
2025-08-16T13:02	10	110	10.4	99	142	506	2.5	500	512	27.0	58.2
2025-08-16T13:03	10	143	1.6	139	146	518	3.0	511	522	27.4	57.4
2025-08-16T13:04	10	149	0.3	148	149	524	1.8	521	527	27.9	56.7
2025-08-16T13:05	10	149	0.2	149	150	527	1.7	525	530	27.7	56.9
2025-08-16T13:06	10	149	0.2	149	149	528	1.1	527	530	28.0	56.5
2025-08-16T13:07	10	149	0.1	148	149	526	2.7	523	530	27.8	55.8
2025-08-16T13:08	10	145	0.4	144	146	524	0.5	523	525	27.7	56.7
2025-08-16T13:09	10	144	0.2	144	145	525	0.8	524	526	27.8	56.1
2025-08-16T13:10	10	147	0.3	147	148	527	1.3	526	530	27.8	55.9
2025-08-16T13:11	10	147	0.3	146	147	528	0.9	527	530	27.8	55.9
2025-08-16T13:12	10	92	28.0	61	145	522	5.9	513	531	28.1	56.0
2025-08-16T13:13	10	63	7.6	49	74	508	4.5	500	516	28.5	55.0
2025-08-16T13:14	10	36	3.9	31	48	495	3.7	491	503	28.5	54.6
2025-08-16T13:15	10	31	7.0	24	41	490	2.1	486	493	28.5	53.9
2025-08-16T13:16	10	24	0.3	23	24	483	2.6	479	488	28.3	50.4
2025-08-16T13:17	10	23	0.1	23	23	479	0.5	478	480	28.2	51.9
2025-08-16T13:18	10	24	0.3	23	24	478	0.6	477	479	28.2	53.3
2025-08-16T13:19	10	25	0.8	24	27	477	0.3	477	478	28.0	53.1
2025-08-16T13:20	10	29	1.2	27	32	479	0.5	477	480	28.1	53.9
2025-08-16T13:21	10	43	16.5	32	110	482	2.3	479	490	28.1	54.2
2025-08-16T13:22	10	139	5.3	116	144	505	8.1	486	516	28.2	53.7
2025-08-16T13:23	10	143	0.4	143	144	519	2.6	513	523	28.6	52.3
2025-08-16T13:24	10	144	0.2	144	144	523	0.5	522	523	28.7	51.6
2025-08-16T13:25	10	144	0.2	144	144	526	1.6	523	529	28.8	50.3
2025-08-16T13:26	10	144	0.2	143	144	529	0.9	528	531	28.8	50.2
2025-08-16T13:27	10	146	0.1	146	147	531	0.5	530	533	28.9	50.9
2025-08-16T13:28	10	143	0.3	142	144	531	1.0	529	533	28.9	52.5
2025-08-16T13:29	10	136	8.7	115	143	530	0.9	528	531	28.7	52.8
2025-08-16T13:30	10	105	4.6	99	114	523	3.7	517	529	28.9	52.1
2025-08-16T13:31	10	97	5.1	85	104	517	1.0	515	519	28.8	52.6
2025-08-16T13:32	10	81	1.6	79	85	513	1.8	511	517	29.0	50.0
2025-08-16T13:33	10	89	6.5	83	108	512	0.5	511	514	29.0	49.1
2025-08-16T13:34	10	121	4.7	109	126	518	3.4	513	524	28.8	51.4
2025-08-16T13:35	10	130	1.8	126	132	525	1.3	523	528	29.0	47.3
2025-08-16T13:36	10	134	0.7	132	135	529	1.5	527	532	29.5	45.9
2025-08-16T13:37	10	137	0.6	135	138	533	0.7	531	534	29.2	46.2
2025-08-16T13:38	10	136	0.4	135	137	533	0.9	532	535	29.4	47.0
2025-08-16T13:39	10	134	0.7	133	135	532	0.8	531	534	29.2	48.2
2025-08-16T13:40	10	137	1.0	134	138	532	0.6	531	534	29.3	47.7
2025-08-16T13:41	10	138	0.5	137	139	534	0.8	532	536	29.5	46.2
2025-08-16T13:42	10	139	0.1	138	139	535	1.0	534	537	29.8	45.5
2025-08-16T13:43	10	139	0.2	139	139	536	1.1	534	538	29.7	45.4
2025-08-16T13:44	10	139	0.3	139	140	538	0.6	537	539	30.0	40.2
2025-08-16T13:45	10	139	0.2	139	140	537	0.6	536	538	29.7	37.0
2025-08-16T13:46	10	140	0.5	139	141	538	0.7	536	539	29.7	37.6
2025-08-16T13:47	10	140	0.4	140	141	536	0.6	534	537	29.6	35.9
2025-08-16T13:48	10	108	19.7	75	140	531	4.6	525	537	29.7	35.5
2025-08-16T13:49	10	89	21.6	49	127	523	3.3	518	528	29.8	36.9
2025-08-16T13:50	10	49	10.9	43	92	510	4.4	505	521	29.7	37.9
2025-08-16T13:51	10	128	19.3	96	145	521	7.4	508	531	29.7	39.2
2025-08-16T13:52	10	145	0.2	144	145	535	3.1	529	540	29.8	39.8
2025-08-16T13:53	10	144	0.4	144	145	537	1.2	534	539	29.7	43.7
2025-08-16T13:54	10	146	0.4	145	147	536	0.8	534	537	29.6	45.0
2025-08-16T13:55	10	147	0.5	146	148	534	1.7	532	537	29.9	44.4
2025-08-16T13:56	10	111	38.8	59	149	527	8.2	511	536	30.0	42.0
2025-08-16T13:57	10	72	19.0	54	110	507	3.0	504	515	29.4	42.3
2025-08-16T13:58	10	123	18.0	90	146	512	4.2	507	520	29.5	42.4
2025-08-16T13:59	10	146	0.2	145	146	522	2.5	518	527	29.5	41.7
2025-08-16T14:00	10	142	2.9	134	145	529	1.0	527	531	29.5	41.7
2025-08-16T14:01	10	146	0.4	144	146	533	1.7	529	535	29.5	41.9
2025-08-16T14:02	10	146	0.1	146	146	537	1.2	535	539	29.8	41.5
2025-08-16T14:03	10	146	0.1	146	146	538	0.2	537	538	29.6	41.3
2025-08-16T14:04	10	145	0.5	144	146	538	0.8	537	540	29.5	41.7
2025-08-16T14:05	10	143	1.7	139	145	538	0.9	536	540	29.6	41.5
2025-08-16T14:06	10	144	0.2	144	144	539	0.5	538	540	29.8	41.8
2025-08-16T14:07	10	144	0.2	144	145	540	1.0	539	542	30.0	41.9
2025-08-16T14:08	10	144	0.3	143	144	540	0.5	539	541	29.8	42.0
2025-08-16T14:09	10	142	0.7	141	143	540	3.3	533	543	30.0	43.0
2025-08-16T14:10	10	139	1.1	137	141	533	0.5	532	535	29.4	44.7
2025-08-16T14:11	10	131	7.2	116	137	533	3.2	526	537	29.8	42.5
2025-08-16T14:12	10	42	18.7	32	113	512	7.9	503	530	29.4	42.5
2025-08-16T14:13	10	102	35.9	33	129	515	8.6	503	528	29.5	42.2
2025-08-16T14:14	10	129	0.1	128	129	529	2.4	525	533	29.8	41.8
2025-08-16T14:15	10	129	0.2	128	129	532	0.9	531	534	30.0	41.5
2025-08-16T14:16	10	129	0.2	129	130	533	2.0	530	537	29.9	41.7
2025-08-16T14:17	10	129	0.3	129	130	536	0.7	534	537	30.3	41.0
2025-08-16T14:18	10	128	0.3	128	129	535	1.0	532	536	30.2	41.3
2025-08-16T14:19	10	127	0.4	126	128	526	2.5	524	532	29.9	43.3
2025-08-16T14:20	10	125	0.8	124	126	523	1.7	520	526	29.6	43.9
2025-08-16T14:21	10	123	0.7	122	124	524	1.5	522	527	29.7	43.7
2025-08-16T14:22	10	122	0.3	121	122	527	1.0	525	528	29.9	42.8
2025-08-16T14:23	10	122	0.1	122	122	523	1.5	520	525	29.5	42.8
2025-08-16T14:24	10	122	0.3	122	123	524	0.8	523	526	29.3	43.5
2025-08-16T14:25	10	123	0.1	123	123	526	0.9	525	528	29.4	42.5
2025-08-16T14:26	10	123	0.3	122	123	529	1.0	528	531	29.5	41.5
2025-08-16T14:27	10	121	0.4	120	122	525	1.5	523	529	29.5	40.7
2025-08-16T14:28	10	120	0.4	119	121	525	0.9	523	526	29.4	41.2
2025-08-16T14:29	10	105	14.6	75	119	526	2.6	520	528	29.6	40.7
2025-08-16T14:30	10	57	15.5	40	88	513	4.5	508	522	29.7	40.7
2025-08-16T14:31	10	110	10.2	89	118	518	4.8	510	526	29.6	41.0
2025-08-16T14:32	10	118	0.3	117	119	526	0.8	524	527	30.1	40.5
2025-08-16T14:33	10	118	0.2	118	119	526	1.0	525	527	30.1	40.1
2025-08-16T14:34	10	118	0.2	118	119	528	1.2	526	530	30.1	40.1
2025-08-16T14:35	10	118	0.2	117	118	527	0.6	526	528	30.3	39.7
2025-08-16T14:36	10	117	0.2	116	118	529	0.5	528	530	30.4	39.7
2025-08-16T14:37	10	118	0.3	117	118	530	0.9	528	532	30.4	39.7
2025-08-16T14:38	10	118	0.2	117	118	530	0.4	529	530	30.5	40.3
2025-08-16T14:39	10	117	0.3	117	118	527	3.2	523	532	30.6	40.1
2025-08-16T14:40	10	117	0.2	116	117	525	0.9	524	527	30.1	40.2
2025-08-16T14:41	10	117	0.3	116	117	527	0.9	525	529	30.0	40.8
2025-08-16T14:42	10	116	0.4	115	116	526	1.2	523	527	30.0	40.7
2025-08-16T14:43	10	114	0.5	113	115	522	1.0	520	524	30.1	40.3
2025-08-16T14:44	10	113	0.3	112	113	523	0.7	522	525	29.9	40.7
2025-08-16T14:45	10	111	0.5	110	112	522	1.3	519	525	29.9	40.6
2025-08-16T14:46	10	110	0.3	109	111	519	0.6	518	520	29.9	40.7
2025-08-16T14:47	10	110	0.3	110	111	521	0.8	520	523	29.9	40.8
2025-08-16T14:48	10	112	0.5	111	112	523	1.0	522	525	30.2	41.0
2025-08-16T14:49	10	112	0.2	112	113	522	1.2	520	524	30.1	40.8
2025-08-16T14:50	10	113	0.3	113	114	524	0.3	523	524	30.2	40.9
2025-08-16T14:51	10	113	0.2	113	114	521	1.4	519	524	30.0	41.0
2025-08-16T14:52	10	112	0.5	111	113	523	0.7	522	524	30.0	41.0
2025-08-16T14:53	10	111	0.2	111	111	522	0.3	522	523	29.9	41.1
2025-08-16T14:54	10	111	0.4	110	111	522	0.9	520	524	29.9	41.1
2025-08-16T14:55	10	110	0.2	109	110	522	0.5	521	523	29.8	41.3
2025-08-16T14:56	10	109	0.2	109	109	519	1.5	517	521	29.7	41.7
2025-08-16T14:57	10	108	0.3	108	109	519	1.0	517	521	29.6	41.6
2025-08-16T14:58	10	107	0.2	107	108	521	1.1	519	524	30.0	41.2
2025-08-16T14:59	10	107	0.1	107	107	520	1.0	518	522	30.3	40.8
2025-08-16T15:00	10	107	0.3	106	107	517	0.7	516	518	29.8	41.0
2025-08-16T15:01	10	106	0.2	106	107	519	0.9	518	521	30.0	40.9
2025-08-16T15:02	10	106	0.3	105	106	518	0.6	516	519	29.9	40.9
2025-08-16T15:03	10	105	0.1	105	105	520	0.7	519	522	29.9	41.1
2025-08-16T15:04	10	104	0.2	104	105	518	1.3	516	521	30.2	41.1
2025-08-16T15:05	10	104	0.2	104	104	515	1.5	512	518	30.0	41.6
2025-08-16T15:06	10	103	0.2	103	104	516	0.4	515	518	30.2	41.3
2025-08-16T15:07	10	102	0.4	102	103	516	1.0	514	518	30.3	41.3
2025-08-16T15:08	10	102	0.1	101	102	513	1.4	511	516	30.2	41.3
2025-08-16T15:09	10	102	0.2	101	102	514	0.7	513	516	30.3	41.1
2025-08-16T15:10	10	72	31.1	29	102	509	4.4	500	514	30.1	41.4
2025-08-16T15:11	10	72	17.4	34	93	504	3.0	500	510	30.1	41.7
2025-08-16T15:12	10	91	4.2	82	95	509	2.2	506	513	30.3	41.2
2025-08-16T15:13	10	83	8.5	70	96	506	1.2	504	508	29.7	41.8
2025-08-16T15:14	10	93	2.0	89	96	507	0.9	505	508	29.8	42.0
2025-08-16T15:15	10	94	5.7	83	99	506	0.7	505	508	29.9	42.1
2025-08-16T15:16	10	98	0.3	97	98	505	0.5	504	506	29.6	42.7
2025-08-16T15:17	10	95	1.7	92	97	504	0.6	503	506	29.6	42.8
2025-08-16T15:18	10	97	0.2	96	97	505	0.5	504	507	29.6	42.7
2025-08-16T15:19	10	96	0.1	96	97	504	0.7	503	505	29.5	42.9
2025-08-16T15:20	10	96	0.1	96	96	507	1.0	504	508	29.6	42.8
2025-08-16T15:21	10	96	0.2	96	97	507	0.5	506	508	29.6	42.5
2025-08-16T15:22	10	97	0.1	97	97	507	0.5	506	508	29.6	42.6
2025-08-16T15:23	10	97	0.1	96	97	509	1.6	506	511	29.7	42.2
2025-08-16T15:24	10	96	0.3	95	96	510	0.5	509	511	30.0	41.7
2025-08-16T15:25	10	95	0.2	94	95	508	1.2	506	510	29.9	42.2
2025-08-16T15:26	10	94	0.2	94	95	508	0.3	507	508	29.9	42.3
2025-08-16T15:27	10	94	0.1	94	94	510	1.6	506	512	30.2	41.9
2025-08-16T15:28	10	94	0.1	94	95	506	0.7	505	508	29.7	42.4
2025-08-16T15:29	10	94	0.1	94	94	508	1.6	504	510	30.0	42.0
2025-08-16T15:30	10	93	0.6	92	94	503	0.7	502	504	29.5	42.9
2025-08-16T15:31	10	92	0.1	92	92	501	1.0	499	502	29.5	43.0
2025-08-16T15:32	10	92	0.1	92	92	500	0.6	499	501	29.5	43.0
2025-08-16T15:33	10	92	0.1	92	92	503	1.8	501	506	29.6	42.9
2025-08-16T15:34	10	92	0.2	92	92	505	0.9	504	507	29.8	42.7
2025-08-16T15:35	10	92	0.2	92	93	509	1.4	506	511	30.2	42.3
2025-08-16T15:36	10	93	0.3	92	93	508	1.5	505	510	30.2	42.2
2025-08-16T15:37	10	92	0.1	92	92	505	0.6	504	506	29.8	42.6
2025-08-16T15:38	10	92	0.1	92	92	504	1.6	502	507	29.8	42.5
2025-08-16T15:39	10	91	0.3	91	92	501	1.1	499	503	29.6	42.8
2025-08-16T15:40	10	91	0.1	91	91	502	0.6	501	504	29.9	42.3
2025-08-16T15:41	10	91	0.2	90	91	501	0.6	499	502	29.6	42.7
2025-08-16T15:42	10	90	0.1	90	90	499	0.4	499	500	29.6	42.8
2025-08-16T15:43	10	90	0.1	90	90	499	0.6	498	500	29.5	42.7
2025-08-16T15:44	10	90	0.1	90	90	502	0.8	500	503	29.6	42.7
2025-08-16T15:45	10	89	0.3	89	90	498	0.7	498	500	29.5	42.9
2025-08-16T15:46	10	88	0.1	88	89	499	0.6	498	501	29.7	42.6
2025-08-16T15:47	10	88	0.1	88	89	500	0.9	499	502	29.8	42.6
2025-08-16T15:48	10	89	0.1	88	89	501	0.4	500	501	29.8	42.0
2025-08-16T15:49	10	88	0.1	88	88	500	0.4	500	501	29.7	42.1
2025-08-16T15:50	10	88	0.2	88	88	501	0.7	499	502	29.7	42.1
2025-08-16T15:51	10	87	0.3	87	88	499	0.8	497	500	29.6	42.7
2025-08-16T15:52	10	87	0.2	86	87	497	0.4	496	498	29.4	43.4
2025-08-16T15:53	10	86	0.2	86	87	497	0.5	496	498	29.4	43.6
2025-08-16T15:54	10	86	0.2	86	87	498	0.7	497	499	29.6	43.2
2025-08-16T15:55	10	86	0.3	85	86	498	1.1	497	500	29.6	43.3
2025-08-16T15:56	10	85	0.2	85	86	501	1.0	498	502	29.9	43.1
2025-08-16T15:57	10	85	0.3	85	86	501	0.7	500	503	30.1	42.8
2025-08-16T15:58	10	85	0.3	85	86	502	0.7	500	503	30.4	42.4
2025-08-16T15:59	10	85	0.2	85	86	498	0.9	496	500	29.8	42.3
2025-08-16T16:00	10	85	0.3	84	85	495	1.2	493	498	29.6	42.4
2025-08-16T16:01	10	84	0.4	83	85	496	0.4	495	497	29.7	42.4
2025-08-16T16:02	10	83	0.2	83	84	497	0.8	496	499	29.6	43.1
2025-08-16T16:03	10	82	0.3	82	83	499	0.9	497	501	29.8	42.7
2025-08-16T16:04	10	82	0.1	81	82	499	0.6	498	500	29.9	42.7
2025-08-16T16:05	10	81	0.3	81	82	500	0.6	499	501	30.2	42.3
2025-08-16T16:06	10	80	0.5	79	81	498	1.5	495	500	30.1	42.6
2025-08-16T16:07	10	78	0.3	78	79	496	0.6	495	497	29.7	43.2
2025-08-16T16:08	10	78	0.2	77	79	497	0.6	496	498	30.1	42.5
2025-08-16T16:09	10	72	5.4	63	78	493	1.3	491	496	29.7	42.7
2025-08-16T16:10	10	70	6.5	57	75	492	1.6	489	495	30.0	41.7
2025-08-16T16:11	10	44	8.6	34	57	487	2.8	482	491	29.6	42.1
2025-08-16T16:12	10	58	8.5	43	71	486	1.5	482	488	29.4	42.5
2025-08-16T16:13	10	38	8.3	28	62	483	1.1	481	486	29.5	42.6
2025-08-16T16:14	10	72	2.8	63	76	485	1.5	482	488	29.5	42.7
2025-08-16T16:15	10	68	9.5	40	76	486	1.0	484	488	29.5	42.7
2025-08-16T16:16	10	35	9.2	23	51	481	1.6	479	485	29.4	43.0
2025-08-16T16:17	10	28	8.3	22	49	478	1.6	476	481	29.4	43.0
2025-08-16T16:18	10	48	17.0	23	71	479	2.6	476	485	29.6	42.8
2025-08-16T16:19	10	72	0.3	71	72	485	1.5	483	487	29.6	42.5
2025-08-16T16:20	10	72	0.5	72	73	487	0.7	486	488	29.8	42.2
2025-08-16T16:21	10	74	0.5	73	75	489	1.3	487	491	29.8	42.0
2025-08-16T16:22	10	75	0.3	75	76	488	0.9	487	490	29.8	41.7
2025-08-16T16:23	10	75	0.2	75	76	488	0.6	487	489	29.6	42.0
2025-08-16T16:24	10	74	1.0	71	75	489	0.6	488	490	29.7	41.5
2025-08-16T16:25	10	40	18.6	24	71	485	3.6	479	490	29.7	41.5
2025-08-16T16:26	10	24	0.2	23	24	479	1.2	477	481	29.6	41.8
2025-08-16T16:27	10	23	0.1	23	24	476	0.5	476	478	29.6	41.8
2025-08-16T16:28	10	24	0.3	24	25	475	0.9	473	476	29.4	42.0
2025-08-16T16:29	10	28	2.0	25	32	474	0.4	473	474	29.2	42.3
2025-08-16T16:30	10	27	0.5	26	28	475	0.4	474	475	29.3	42.4
2025-08-16T16:31	10	29	0.6	28	30	475	0.3	474	476	29.5	42.3
2025-08-16T16:32	10	51	12.7	30	67	478	2.8	474	483	29.5	42.5
2025-08-16T16:33	10	68	2.7	63	72	484	1.3	481	486	29.6	42.6
2025-08-16T16:34	10	36	10.6	29	65	480	2.7	477	485	29.4	43.1
2025-08-16T16:35	10	29	0.5	28	30	476	0.7	475	478	29.3	43.8
2025-08-16T16:36	10	27	0.5	26	28	475	0.4	474	476	29.2	44.3
2025-08-16T16:37	10	26	0.3	25	26	474	0.2	473	475	29.1	44.2
2025-08-16T16:38	10	25	0.3	24	26	474	0.4	473	475	29.2	44.0
2025-08-16T16:39	10	24	0.3	23	25	474	0.3	473	474	29.3	43.3
2025-08-16T16:40	10	23	0.2	23	24	474	0.3	474	475	29.4	43.3
2025-08-16T16:41	10	23	0.1	23	23	473	0.3	473	474	29.3	43.0
2025-08-16T16:42	10	23	0.2	23	24	473	0.2	473	473	29.3	42.8
2025-08-16T16:43	10	24	0.3	23	24	473	0.4	472	474	29.4	43.0
2025-08-16T16:44	10	25	0.4	24	26	474	0.5	473	475	29.5	42.9
2025-08-16T16:45	10	30	2.9	26	34	474	0.5	473	475	29.4	43.7
2025-08-16T16:46	10	30	4.5	27	44	474	0.4	474	476	29.3	44.2
2025-08-16T16:47	10	47	5.3	34	55	478	1.1	475	479	29.5	44.0
2025-08-16T16:48	10	33	4.3	28	41	477	0.9	476	479	29.4	43.8
2025-08-16T16:49	10	48	5.7	41	57	478	1.1	476	480	29.4	44.0
2025-08-16T16:50	10	62	2.2	57	64	479	0.8	478	481	29.3	44.3
2025-08-16T16:51	10	59	4.6	47	64	481	0.5	480	482	29.3	45.2
2025-08-16T16:52	10	36	9.2	24	47	477	2.5	473	481	29.0	49.2
2025-08-16T16:53	10	23	0.6	22	24	474	0.8	472	475	28.6	51.9
2025-08-16T16:54	10	22	0.3	22	23	472	0.5	471	473	28.6	52.5
2025-08-16T16:55	10	22	0.2	21	22	472	0.3	471	472	28.5	53.0
2025-08-16T16:56	10	21	0.2	21	21	471	0.3	470	471	28.5	53.5
2025-08-16T16:57	10	21	0.2	20	21	469	0.5	468	470	28.2	55.3
2025-08-16T16:58	10	21	0.2	20	21	468	0.3	467	468	27.9	56.7
2025-08-16T16:59	10	21	0.3	20	21	467	0.3	467	468	27.9	56.9
2025-08-16T17:00	10	20	0.2	19	20	467	0.2	467	468	27.9	57.2
2025-08-16T17:01	10	21	1.3	19	23	466	0.4	465	467	27.7	57.9
2025-08-16T17:02	10	19	0.2	18	19	465	0.3	465	466	27.6	58.3
2025-08-16T17:03	10	18	0.2	18	19	465	0.3	465	466	27.6	58.4
2025-08-16T17:04	10	18	0.2	17	19	465	0.2	464	466	27.6	58.1
2025-08-16T17:05	10	18	0.2	18	18	464	0.3	464	465	27.5	56.8
2025-08-16T17:06	10	18	0.3	17	18	464	0.3	463	464	27.5	56.5
2025-08-16T17:07	10	18	0.2	17	18	463	0.2	463	464	27.5	56.0
2025-08-16T17:08	10	17	0.3	17	18	463	0.2	462	464	27.5	55.0
2025-08-16T17:09	10	16	0.4	15	17	462	0.3	461	462	27.4	54.0
2025-08-16T17:10	10	15	0.3	15	17	461	0.3	460	462	27.4	54.4
2025-08-16T17:11	10	15	0.2	14	15	460	0.3	460	461	27.3	54.2
2025-08-16T17:12	10	14	0.2	14	15	460	0.2	459	460	27.3	54.3
2025-08-16T17:13	10	14	0.1	14	14	460	0.2	459	460	27.3	54.3
2025-08-16T17:14	10	14	0.1	14	14	459	0.2	459	460	27.3	54.3
2025-08-16T17:15	10	14	0.1	14	14	459	0.2	458	459	27.3	54.4
2025-08-16T17:16	10	14	0.1	14	14	459	0.2	458	459	27.3	54.2
2025-08-16T17:17	10	14	0.1	14	14	458	0.2	458	458	27.3	54.2
2025-08-16T17:18	10	14	0.1	13	14	458	0.3	457	458	27.3	54.3
2025-08-16T17:19	10	14	0.1	13	14	458	0.3	457	458	27.2	54.4
2025-08-16T17:20	10	13	0.1	13	14	457	0.2	457	458	27.2	54.2
2025-08-16T17:21	10	13	0.1	13	14	457	0.2	457	457	27.2	54.2
2025-08-16T17:22	10	13	0.1	13	14	457	0.3	456	457	27.2	54.2
2025-08-16T17:23	10	14	0.1	13	14	456	0.3	456	457	27.2	54.2
2025-08-16T17:24	10	14	0.2	14	14	457	0.2	456	457	27.1	54.4
2025-08-16T17:25	10	14	0.1	14	14	456	0.2	456	457	27.1	54.4
2025-08-16T17:26	10	14	0.1	14	14	456	0.3	456	457	27.1	54.2
2025-08-16T17:27	10	14	0.1	14	14	456	0.2	455	457	27.1	54.3
2025-08-16T17:28	10	15	0.7	14	17	456	0.2	455	456	27.1	54.0
2025-08-16T17:29	10	20	2.2	16	24	456	0.3	455	456	27.1	53.4
2025-08-16T17:30	10	26	1.1	24	28	456	0.4	455	457	27.1	53.2
2025-08-16T17:31	10	29	0.7	28	30	457	0.3	456	458	27.1	53.4
2025-08-16T17:32	10	30	0.2	30	31	457	0.2	457	458	27.1	53.4
2025-08-16T17:33	10	30	0.2	30	31	457	0.3	457	458	27.1	53.3
2025-08-16T17:34	10	30	0.3	29	30	457	0.2	457	458	27.1	53.1
2025-08-16T17:35	10	29	0.2	28	29	457	0.3	457	458	27.1	53.1
2025-08-16T17:36	10	28	0.2	28	28	457	0.2	456	457	27.0	53.1
2025-08-16T17:37	10	27	0.4	26	28	457	0.3	456	457	27.0	53.1
2025-08-16T17:38	10	26	0.4	25	27	456	0.3	455	457	27.0	52.6
2025-08-16T17:39	10	25	0.3	24	26	455	0.2	455	456	27.0	52.8
2025-08-16T17:40	10	24	0.2	24	25	455	0.2	455	456	27.0	52.8
2025-08-16T17:41	10	24	0.2	23	24	455	0.3	454	456	27.0	52.9
2025-08-16T17:42	10	23	0.2	23	24	455	0.2	454	455	27.0	53.0
2025-08-16T17:43	10	23	0.2	23	23	455	0.3	454	455	27.0	53.0
2025-08-16T17:44	10	22	0.6	20	23	455	0.1	454	455	26.9	53.2
2025-08-16T17:45	10	17	3.7	11	22	454	0.4	453	455	26.9	53.3
2025-08-16T17:46	10	21	0.5	20	22	454	0.3	454	455	26.9	53.5
2025-08-16T17:47	10	13	4.0	10	20	454	0.6	453	455	26.9	53.6
2025-08-16T17:48	10	16	2.9	11	20	453	0.3	453	454	26.9	53.7
2025-08-16T17:49	10	20	0.2	20	20	453	0.2	453	454	26.8	53.8
2025-08-16T17:50	10	19	0.2	19	20	453	0.3	452	454	26.8	54.1
2025-08-16T17:51	10	19	0.2	18	19	453	0.2	452	453	26.8	54.3
2025-08-16T17:52	10	18	0.2	18	18	452	0.2	452	453	26.7	54.4
2025-08-16T17:53	10	18	0.2	17	18	452	0.2	452	453	26.7	54.4
2025-08-16T17:54	10	17	0.1	17	18	452	0.2	452	453	26.7	54.5
2025-08-16T17:55	10	14	2.1	10	17	452	0.3	451	452	26.7	54.6
2025-08-16T17:56	10	9	1.1	8	11	451	0.3	451	452	26.7	54.7
2025-08-16T17:57	10	10	2.4	8	16	451	0.3	451	452	26.7	54.5
2025-08-16T17:58	10	16	0.7	14	16	452	0.3	451	452	26.6	54.5
2025-08-16T17:59	10	16	0.3	15	17	452	0.3	451	452	26.6	54.7
2025-08-16T18:00	10	16	0.1	16	17	452	0.2	451	452	26.6	55.0
2025-08-16T18:01	10	16	0.3	16	17	452	0.2	451	452	26.6	55.1
2025-08-16T18:02	10	15	0.8	14	16	452	0.3	451	452	26.5	55.3
2025-08-16T18:03	10	16	0.1	16	16	452	0.2	451	452	26.5	55.4
2025-08-16T18:04	10	16	0.1	16	16	452	0.2	451	452	26.5	55.2
2025-08-16T18:05	10	16	0.1	16	17	452	0.2	451	453	26.5	55.0
2025-08-16T18:06	10	16	0.1	16	16	452	0.2	452	453	26.5	55.2
2025-08-16T18:07	10	16	0.1	16	16	452	0.2	452	453	26.5	55.5
2025-08-16T18:08	10	16	0.1	16	16	452	0.2	452	452	26.5	55.4
2025-08-16T18:09	10	16	0.2	15	16	451	0.2	451	452	26.5	55.3
2025-08-16T18:10	10	15	0.2	15	16	451	0.3	450	452	26.5	55.4
2025-08-16T18:11	10	15	0.2	14	15	451	0.2	450	451	26.6	55.4
2025-08-16T18:12	10	14	0.3	13	14	450	0.3	450	451	26.6	55.3
2025-08-16T18:13	10	13	0.3	12	13	449	0.3	449	450	26.5	55.3
2025-08-16T18:14	10	12	0.2	12	13	449	0.3	448	449	26.5	55.6
2025-08-16T18:15	10	12	0.1	12	12	448	0.2	448	449	26.4	55.2
2025-08-16T18:16	10	11	0.2	11	12	447	0.3	447	448	26.4	55.5
2025-08-16T18:17	10	11	0.2	10	11	447	0.4	446	448	26.4	55.6
2025-08-16T18:18	10	10	0.3	9	11	446	0.3	446	447	26.4	55.6
2025-08-16T18:19	10	9	0.3	8	10	446	0.3	445	446	26.3	55.3
2025-08-16T18:20	10	8	0.4	7	8	445	0.4	444	446	26.3	55.6
2025-08-16T18:21	10	7	0.2	7	7	444	0.2	444	445	26.3	55.2
2025-08-16T18:22	10	7	0.3	6	7	444	0.3	444	445	26.3	55.6
2025-08-16T18:23	10	5	0.4	5	7	443	0.4	442	444	26.2	56.0
2025-08-16T18:24	10	4	0.3	4	5	443	0.3	442	443	26.2	56.2
2025-08-16T18:25	10	4	0.3	3	5	442	0.3	442	443	26.2	55.9
2025-08-16T18:26	10	4	0.1	3	4	442	0.3	441	443	26.2	55.5
2025-08-16T18:27	10	3	0.2	3	4	441	0.2	441	442	26.1	55.7
2025-08-16T18:28	10	3	0.2	2	3	441	0.3	440	441	26.1	56.0
2025-08-16T18:29	10	3	0.2	2	3	440	0.3	439	441	26.1	56.1
2025-08-16T18:30	10	2	0.2	2	3	440	0.4	439	440	26.0	56.2
2025-08-16T18:31	10	2	0.2	1	3	439	0.4	438	440	26.0	56.5
2025-08-16T18:32	10	2	0.2	1	2	439	0.2	438	439	26.0	56.4
2025-08-16T18:33	10	2	0.2	1	2	438	0.2	437	439	25.9	56.5
2025-08-16T18:34	10	2	0.2	1	2	438	0.3	438	439	26.0	56.4
2025-08-16T18:35	10	1	0.2	1	2	438	0.2	437	439	26.0	56.4
2025-08-16T18:36	10	1	0.2	1	2	437	0.4	436	438	25.9	56.5
2025-08-16T18:37	10	1	0.2	1	2	436	0.2	436	437	25.9	56.6
2025-08-16T18:38	10	1	0.2	1	2	436	0.3	435	437	25.9	56.6
2025-08-16T18:39	10	1	0.1	1	1	436	0.4	435	436	25.8	57.0
2025-08-16T18:40	10	1	0.1	1	1	435	0.3	434	435	25.7	57.3
2025-08-16T18:41	10	1	0.1	1	1	434	0.4	433	435	25.7	57.3
2025-08-16T18:42	10	1	0.1	1	1	434	0.3	433	434	25.7	57.6
2025-08-16T18:43	10	1	0.1	0	1	433	0.3	432	433	25.6	57.9
2025-08-16T18:44	10	1	0.1	0	1	432	0.3	431	432	25.6	58.0
2025-08-16T18:45	10	1	0.1	0	1	432	0.2	432	433	25.6	58.1
2025-08-16T18:46	10	0	0.1	0	1	432	0.2	431	432	25.5	58.2
2025-08-16T18:47	10	0	0.1	0	1	432	0.5	431	433	25.5	58.3
2025-08-16T18:48	10	0	0.1	0	1	432	0.2	432	433	25.5	58.3
2025-08-16T18:49	10	0	0.1	0	1	432	0.2	431	433	25.5	58.4
2025-08-16T18:50	10	0	0.1	0	0	432	0.2	431	432	25.5	58.5
2025-08-16T18:51	10	0	0.1	0	0	431	0.3	431	432	25.5	58.7
2025-08-16T18:52	10	0	0.1	0	0	431	0.2	431	432	25.5	58.7
2025-08-16T18:53	10	0	0.1	0	0	431	0.3	430	431	25.5	58.7
2025-08-16T18:54	10	0	0.1	0	0	431	0.2	430	432	25.5	58.7
2025-08-16T18:55	10	0	0.1	0	0	430	0.2	430	431	25.4	59.1
2025-08-16T18:56	10	0	0.1	0	0	430	0.2	430	431	25.4	59.2
2025-08-16T18:57	10	0	0.1	0	0	429	0.3	429	430	25.3	59.7
2025-08-16T18:58	10	0	0.1	0	0	429	0.4	428	430	25.2	59.9
2025-08-16T18:59	10	0	0.1	0	0	428	0.2	428	429	25.2	60.1
2025-08-16T19:00	10	0	0.1	0	0	428	0.2	427	428	25.1	60.5
2025-08-16T19:01	10	0	0.1	0	0	427	0.2	427	428	25.0	60.7
2025-08-16T19:02	10	0	0.1	0	0	427	0.4	426	427	25.0	61.0
2025-08-16T19:03	10	0	0.1	0	0	426	0.3	426	427	24.9	61.1
2025-08-16T19:04	10	0	0.1	0	0	426	0.2	426	427	24.9	61.2
2025-08-16T19:05	10	0	0.1	0	0	426	0.2	425	427	24.9	61.3
2025-08-16T19:06	10	0	0.1	0	0	427	0.3	426	427	24.9	61.4
2025-08-16T19:07	10	0	0.1	0	0	426	0.2	426	427	24.9	61.4
2025-08-16T19:08	10	0	0.1	0	0	426	0.3	425	427	24.9	61.5
2025-08-16T19:09	10	0	0.1	0	0	427	0.4	425	427	24.9	61.7
2025-08-16T19:10	10	0	0.1	0	0	427	0.3	426	428	24.8	61.9
2025-08-16T19:11	10	0	0.1	0	0	427	0.2	426	427	24.8	62.1
2025-08-16T19:12	10	0	0.0	0	0	427	0.3	426	427	24.8	62.0
2025-08-16T19:13	10	0	0.1	0	0	427	0.2	426	427	24.9	61.9
2025-08-16T19:14	10	0	0.1	0	0	427	0.2	426	427	24.9	61.9
2025-08-16T19:15	10	0	0.1	0	0	427	0.3	426	427	24.8	62.1
2025-08-16T19:16	10	0	0.1	0	0	427	0.2	426	427	24.7	62.6
2025-08-16T19:17	10	0	0.1	0	0	426	0.2	426	427	24.6	62.7
2025-08-16T19:18	10	0	0.1	0	0	426	0.3	425	427	24.7	62.8
2025-08-16T19:19	10	0	0.1	0	0	426	0.2	425	426	24.5	63.2
2025-08-16T19:20	10	0	0.1	0	0	426	0.2	426	427	24.6	63.2
2025-08-16T19:21	10	0	0.1	0	0	425	0.3	425	426	24.6	63.0
2025-08-16T19:22	10	0	0.1	0	0	425	0.3	424	426	24.6	63.0
2025-08-16T19:23	10	0	0.0	0	0	424	0.3	423	424	24.6	63.3
2025-08-16T19:24	10	0	0.1	0	0	423	0.3	423	424	24.4	63.8
2025-08-16T19:25	10	0	0.1	0	0	423	0.2	422	423	24.5	63.7
2025-08-16T19:26	10	0	0.1	0	0	423	0.2	422	423	24.4	63.9
2025-08-16T19:27	10	0	0.1	0	0	422	0.3	422	423	24.4	64.0
2025-08-16T19:28	10	0	0.2	0	1	422	0.3	422	423	24.4	64.1
2025-08-16T19:29	10	0	0.1	0	0	422	0.2	421	422	24.4	64.1
2025-08-16T19:30	10	0	0.1	0	0	422	0.2	422	423	24.4	64.1
2025-08-16T19:31	10	0	0.2	0	1	423	0.3	422	423	24.4	64.0
2025-08-16T19:32	10	0	0.2	0	1	423	0.4	422	424	24.6	63.5
2025-08-16T19:33	10	0	0.2	0	1	424	0.4	423	425	24.6	63.3
2025-08-16T19:34	10	0	0.2	0	1	425	0.4	424	425	24.6	63.7
2025-08-16T19:35	10	0	0.2	0	1	424	0.3	423	424	24.5	63.7
2025-08-16T19:36	10	0	0.1	0	0	424	0.3	423	425	24.5	63.9
2025-08-16T19:37	10	0	0.1	0	0	424	0.4	423	424	24.5	63.8
2025-08-16T19:38	10	0	0.1	0	0	423	0.2	423	424	24.5	63.9
2025-08-16T19:39	10	0	0.1	0	0	423	0.2	422	423	24.6	63.6
2025-08-16T19:40	10	0	0.1	0	0	423	0.3	422	423	24.6	63.5
2025-08-16T19:41	10	0	0.0	0	0	423	0.2	423	424	24.5	63.8
2025-08-16T19:42	10	0	0.1	0	0	423	0.3	422	424	24.6	63.7
2025-08-16T19:43	10	0	0.0	0	0	423	0.3	423	424	24.6	63.4
2025-08-16T19:44	10	0	0.0	0	0	423	0.3	422	423	24.6	63.5
2025-08-16T19:45	10	0	0.0	0	0	422	0.2	422	423	24.5	63.8
2025-08-16T19:46	10	0	0.1	0	0	422	0.3	422	423	24.5	63.9
2025-08-16T19:47	10	0	0.1	0	0	422	0.2	422	423	24.5	64.0
2025-08-16T19:48	10	0	0.1	0	0	422	0.3	421	422	24.5	64.1
2025-08-16T19:49	10	0	0.0	0	0	421	0.4	421	422	24.4	64.5
2025-08-16T19:50	10	0	0.1	0	0	421	0.2	420	421	24.2	65.2
2025-08-16T19:51	10	0	0.0	0	0	421	0.2	420	421	24.1	65.6
2025-08-16T19:52	10	0	0.1	0	0	420	0.3	420	421	24.1	65.7
2025-08-16T19:53	10	0	0.1	0	0	420	0.2	419	420	24.0	66.1
2025-08-16T19:54	10	0	0.1	0	0	420	0.2	419	420	24.0	66.4
2025-08-16T19:55	10	0	0.1	0	0	419	0.3	419	420	23.9	66.7
2025-08-16T19:56	10	0	0.1	0	0	419	0.3	418	419	23.9	67.2
2025-08-16T19:57	10	0	0.1	0	0	418	0.3	418	419	23.8	67.2
2025-08-16T19:58	10	0	0.1	0	0	418	0.3	417	418	23.8	67.3
2025-08-16T19:59	10	0	0.1	0	0	418	0.2	417	418	23.8	67.7
2025-08-16T20:00	10	0	0.1	0	0	417	0.3	417	418	23.8	67.5
2025-08-16T20:01	10	0	0.1	0	0	417	0.2	416	417	23.7	67.5
2025-08-16T20:02	10	0	0.1	0	0	417	0.3	416	417	23.7	67.7
2025-08-16T20:03	10	0	0.1	0	0	416	0.2	416	417	23.7	67.5
2025-08-16T20:04	10	0	0.1	0	0	416	0.3	416	417	23.8	67.1
2025-08-16T20:05	10	0	0.1	0	0	416	0.2	416	417	23.9	66.8
2025-08-16T20:06	10	0	0.1	0	0	416	0.3	416	417	23.9	66.6
2025-08-16T20:07	10	0	0.1	0	0	416	0.4	415	417	23.9	66.6
2025-08-16T20:08	10	0	0.1	0	0	416	0.2	415	416	24.0	66.4
2025-08-16T20:09	10	0	0.1	0	0	416	0.2	415	416	24.0	66.3
2025-08-16T20:10	10	0	0.1	0	0	416	0.2	415	416	24.0	66.0
2025-08-16T20:11	10	0	0.1	0	0	415	0.3	415	416	24.1	65.9
2025-08-16T20:12	10	0	0.1	0	0	415	0.3	415	416	24.1	65.9
2025-08-16T20:13	10	0	0.1	0	0	416	0.2	415	416	24.1	65.8
2025-08-16T20:14	10	0	0.1	0	0	415	0.3	415	416	24.1	66.0
2025-08-16T20:15	10	0	0.1	0	0	415	0.2	415	416	24.0	66.1
2025-08-16T20:16	10	0	0.1	0	0	415	0.2	415	416	24.0	66.4
2025-08-16T20:17	10	0	0.1	0	0	415	0.2	414	415	23.9	66.7
2025-08-16T20:18	10	0	0.1	0	0	415	0.3	414	416	23.8	67.0
2025-08-16T20:19	10	0	0.1	0	0	415	0.2	414	415	23.7	67.4
2025-08-16T20:20	10	0	0.1	0	0	416	0.3	415	416	23.7	67.6
2025-08-16T20:21	10	0	0.1	0	0	416	0.4	416	417	23.7	67.7
2025-08-16T20:22	10	0	0.1	0	0	417	0.4	416	418	23.6	67.9
2025-08-16T20:23	10	0	0.1	0	0	418	0.4	417	418	23.7	67.8
2025-08-16T20:24	10	0	0.1	0	0	418	0.3	418	419	23.7	67.6
2025-08-16T20:25	10	0	0.1	0	0	418	0.3	418	419	23.8	67.4
2025-08-16T20:26	10	0	0.1	0	0	419	0.2	418	420	23.7	67.6
2025-08-16T20:27	10	0	0.1	0	0	419	0.2	419	419	23.7	67.8
2025-08-16T20:28	10	0	0.1	0	0	419	0.3	419	420	23.6	68.0
2025-08-16T20:29	10	0	0.1	0	0	419	0.3	418	419	23.6	68.1
2025-08-16T20:30	10	0	0.1	0	0	418	0.3	417	419	23.6	68.3
2025-08-16T20:31	10	0	0.0	0	0	418	0.4	417	419	23.3	69.8
2025-08-16T20:32	10	0	0.1	0	0	417	0.3	416	418	23.1	70.6
2025-08-16T20:33	10	0	0.1	0	0	416	0.3	415	417	22.9	71.6
2025-08-16T20:34	10	0	0.1	0	0	415	0.3	415	416	22.7	72.6
2025-08-16T20:35	10	0	0.1	0	0	415	0.2	415	416	22.5	73.4
2025-08-16T20:36	10	0	0.1	0	0	415	0.2	414	415	22.5	73.8
2025-08-16T20:37	10	0	0.1	0	0	414	0.2	414	415	22.4	74.3
2025-08-16T20:38	10	0	0.1	0	0	414	0.2	413	414	22.4	74.1
2025-08-16T20:39	10	0	0.1	0	0	413	0.3	413	414	22.4	74.1
2025-08-16T20:40	10	0	0.1	0	0	413	0.3	412	414	22.4	74.3
2025-08-16T20:41	10	0	0.1	0	0	413	0.2	413	414	22.3	74.7
2025-08-16T20:42	10	0	0.1	0	0	413	0.2	412	413	22.2	74.8
2025-08-16T20:43	10	0	0.1	0	0	413	0.3	412	413	22.2	74.8
2025-08-16T20:44	10	0	0.1	0	0	412	0.2	412	413	22.1	74.9
2025-08-16T20:45	10	0	0.1	0	0	412	0.3	412	413	22.2	74.6
2025-08-16T20:46	10	0	0.1	0	0	412	0.3	412	413	22.5	73.2
2025-08-16T20:47	10	0	0.2	0	1	412	0.3	411	412	22.6	72.6
2025-08-16T20:48	10	0	0.2	0	0	412	0.3	411	413	22.7	72.4
2025-08-16T20:49	10	0	0.2	-1	1	411	0.3	411	412	22.8	72.1
2025-08-16T20:50	10	0	0.2	0	1	411	0.3	411	412	22.8	72.1
2025-08-16T20:51	10	0	0.2	0	1	411	0.3	411	412	22.9	71.8
2025-08-16T20:52	10	0	0.2	0	1	411	0.3	411	412	22.8	71.9
2025-08-16T20:53	10	0	0.2	0	1	411	0.3	411	412	23.0	71.4
2025-08-16T20:54	10	0	0.1	0	0	411	0.3	411	412	23.0	71.1
2025-08-16T20:55	10	0	0.2	0	0	411	0.3	410	412	23.1	70.9
2025-08-16T20:56	10	0	0.2	0	1	412	0.3	411	412	23.1	70.6
2025-08-16T20:57	10	0	0.2	0	0	412	0.2	411	412	23.1	70.6
2025-08-16T20:58	10	0	0.2	0	0	412	0.4	412	414	23.2	70.5
2025-08-16T20:59	10	0	0.2	0	1	413	0.3	412	413	23.2	70.5
2025-08-16T21:00	10	0	0.2	0	1	413	0.2	413	414	23.1	70.8
2025-08-16T21:01	10	0	0.2	0	1	414	0.3	414	415	23.0	71.1
2025-08-16T21:02	10	0	0.2	0	1	415	0.3	414	415	23.0	71.2
2025-08-16T21:03	10	0	0.2	0	0	415	0.2	414	415	23.0	71.4
2025-08-16T21:04	10	0	0.1	0	1	414	0.3	414	415	22.9	70.4
2025-08-16T21:05	10	0	0.1	0	0	414	0.4	413	414	22.8	70.4
2025-08-16T21:06	10	0	0.1	0	0	413	0.3	412	414	22.9	71.6
2025-08-16T21:07	10	0	0.1	0	0	412	0.3	412	413	22.9	71.6
2025-08-16T21:08	10	0	0.1	0	0	412	0.3	411	413	22.9	71.6
2025-08-16T21:09	10	0	0.1	0	0	412	0.5	411	413	22.9	71.6
2025-08-16T21:10	10	0	0.1	0	0	413	0.4	412	414	22.9	71.6
2025-08-16T21:11	10	0	0.1	0	0	413	0.2	413	414	22.9	71.6
2025-08-16T21:12	10	0	0.1	0	0	413	0.2	412	413	22.9	71.9
2025-08-16T21:13	10	0	0.1	0	0	413	0.2	413	414	22.8	72.1
2025-08-16T21:14	10	0	0.0	0	0	413	0.2	412	413	22.9	72.2
2025-08-16T21:15	10	0	0.1	0	0	412	0.2	412	413	22.9	72.2
2025-08-16T21:16	10	0	0.0	0	0	412	0.3	411	412	22.8	72.3
2025-08-16T21:17	10	0	0.1	0	0	412	0.2	411	412	22.8	72.2
2025-08-16T21:18	10	0	0.1	0	0	411	0.4	410	412	22.9	72.2
2025-08-16T21:19	10	0	0.0	0	0	412	0.3	411	412	22.8	72.6
2025-08-16T21:20	10	0	0.1	0	0	412	0.2	412	412	22.8	72.5
2025-08-16T21:21	10	0	0.0	0	0	412	0.3	412	413	22.8	72.5
2025-08-16T21:22	10	0	0.1	0	0	412	0.4	411	413	22.7	72.8
2025-08-16T21:23	10	0	0.0	0	0	412	0.3	411	412	22.7	72.8
2025-08-16T21:24	10	0	0.0	0	0	411	0.4	410	412	22.7	73.0
2025-08-16T21:25	10	0	0.0	0	0	410	0.2	410	411	22.6	73.3
2025-08-16T21:26	10	0	0.1	0	0	410	0.4	409	411	22.5	73.9
2025-08-16T21:27	10	0	0.1	0	0	409	0.3	409	410	22.4	74.2
2025-08-16T21:28	10	0	0.1	0	0	408	0.4	408	409	22.3	74.6
2025-08-16T21:29	10	0	0.1	0	0	408	0.3	407	408	22.3	74.8
2025-08-16T21:30	10	0	0.1	0	0	408	0.2	407	408	22.3	74.7
2025-08-16T21:31	10	0	0.1	0	0	408	0.2	407	408	22.3	74.5
2025-08-16T21:32	10	0	0.1	0	0	408	0.5	407	409	22.4	74.1
2025-08-16T21:33	10	0	0.1	0	0	409	0.4	408	410	22.5	73.6
2025-08-16T21:34	10	0	0.1	0	0	410	0.2	409	410	22.6	73.3
2025-08-16T21:35	10	0	0.1	0	0	410	0.2	409	410	22.6	73.3
2025-08-16T21:36	10	0	0.1	0	0	410	0.2	409	410	22.6	73.2
2025-08-16T21:37	10	0	0.1	0	0	410	0.3	409	410	22.6	73.4
2025-08-16T21:38	10	0	0.1	0	0	410	0.2	410	411	22.6	73.5
2025-08-16T21:39	10	0	0.1	0	0	411	0.2	410	412	22.6	73.6
2025-08-16T21:40	10	0	0.1	0	0	411	0.4	410	411	22.5	73.9
2025-08-16T21:41	10	0	0.1	0	0	410	0.2	410	411	22.4	74.3
2025-08-16T21:42	10	0	0.1	0	0	410	0.3	409	411	22.4	74.5
2025-08-16T21:43	10	0	0.1	0	0	410	0.3	409	410	22.4	74.6
2025-08-16T21:44	10	0	0.1	0	0	409	0.2	409	410	22.4	74.7
2025-08-16T21:45	10	0	0.1	0	0	409	0.2	408	410	22.4	74.6
2025-08-16T21:46	10	0	0.1	0	0	409	0.2	408	409	22.4	74.6
2025-08-16T21:47	10	0	0.1	0	0	408	0.4	408	409	22.3	75.0
2025-08-16T21:48	10	0	0.1	0	0	408	0.3	407	408	22.2	75.3
2025-08-16T21:49	10	0	0.1	0	0	407	0.2	406	407	22.2	75.4
2025-08-16T21:50	10	0	0.1	0	0	407	0.3	406	407	22.1	75.7
2025-08-16T21:51	10	0	0.1	0	0	406	0.2	406	407	22.1	76.0
2025-08-16T21:52	10	0	0.1	0	0	406	0.3	406	407	22.0	76.4
2025-08-16T21:53	10	0	0.1	0	0	407	0.4	406	407	22.0	76.3
2025-08-16T21:54	10	0	0.1	0	0	408	0.4	407	409	22.0	76.6
2025-08-16T21:55	10	0	0.1	0	0	409	0.5	408	410	22.0	76.6
2025-08-16T21:56	10	0	0.1	0	0	409	0.3	409	410	22.0	76.7
2025-08-16T21:57	10	0	0.1	0	0	410	0.3	409	411	22.0	77.0
2025-08-16T21:58	10	0	0.1	0	0	411	0.3	410	412	22.0	77.1
2025-08-16T21:59	10	0	0.1	0	0	411	0.2	410	412	22.0	77.4
2025-08-16T22:00	10	0	0.1	0	0	411	0.2	410	412	21.9	77.8
2025-08-16T22:01	10	0	0.1	0	0	411	0.3	410	412	21.9	78.1
2025-08-16T22:02	10	0	0.1	0	0	411	0.2	411	412	21.9	78.3
2025-08-16T22:03	10	0	0.1	0	0	411	0.2	411	412	21.8	78.6
2025-08-16T22:04	10	0	0.1	0	0	412	0.3	411	412	21.8	79.0
2025-08-16T22:05	10	0	0.1	0	0	412	0.2	411	412	21.8	79.3
2025-08-16T22:06	10	0	0.1	0	0	412	0.2	411	412	21.7	79.7
2025-08-16T22:07	10	0	0.1	0	0	412	0.3	411	412	21.7	80.1
2025-08-16T22:08	10	0	0.1	0	0	412	0.2	411	412	21.7	80.4
2025-08-16T22:09	10	0	0.1	0	0	412	0.2	411	412	21.6	80.9
2025-08-16T22:10	10	0	0.1	0	0	411	0.2	411	412	21.5	81.4
2025-08-16T22:11	10	0	0.1	0	0	411	0.4	410	412	21.5	81.9
2025-08-16T22:12	10	0	0.1	0	0	410	0.3	409	411	21.4	82.2
2025-08-16T22:13	10	0	0.1	0	0	410	0.2	409	410	21.4	82.5
2025-08-16T22:14	10	0	0.1	0	0	410	0.2	409	410	21.3	82.7
2025-08-16T22:15	10	0	0.1	0	0	409	0.3	409	410	21.3	82.6
2025-08-16T22:16	10	0	0.1	0	0	408	0.4	407	408	21.3	82.3
2025-08-16T22:17	10	0	0.1	0	0	406	0.3	406	407	21.3	82.2
2025-08-16T22:18	10	0	0.1	0	0	406	0.3	405	406	21.2	81.9
2025-08-16T22:19	10	0	0.1	0	0	405	0.2	405	406	21.1	81.8
2025-08-16T22:20	10	0	0.0	0	0	405	0.3	405	406	21.1	81.8
2025-08-16T22:21	10	0	0.1	0	0	405	0.3	404	406	21.2	81.4
2025-08-16T22:22	10	0	0.1	0	0	405	0.2	404	405	21.1	81.5
2025-08-16T22:23	10	0	0.1	0	0	404	0.2	404	405	21.1	81.7
2025-08-16T22:24	10	0	0.1	0	0	404	0.2	404	405	21.2	81.4
2025-08-16T22:25	10	0	0.1	0	0	404	0.2	404	404	21.1	81.7
2025-08-16T22:26	10	0	0.1	0	0	404	0.3	403	405	21.0	81.8
2025-08-16T22:27	10	0	0.1	0	0	404	0.2	403	404	21.0	82.0
2025-08-16T22:28	10	0	0.1	0	0	403	0.2	403	404	21.0	82.2
2025-08-16T22:29	10	0	0.1	0	0	403	0.2	402	403	21.0	82.0
2025-08-16T22:30	10	0	0.1	0	0	403	0.2	402	403	21.0	81.8
2025-08-16T22:31	10	0	0.1	0	0	402	0.2	402	403	21.0	81.7
2025-08-16T22:32	10	0	0.1	0	0	402	0.2	402	403	21.1	81.2
2025-08-16T22:33	10	0	0.1	0	0	403	0.2	402	403	21.1	80.8
2025-08-16T22:34	10	0	0.1	0	0	403	0.2	402	403	21.2	80.3
2025-08-16T22:35	10	0	0.1	0	0	403	0.2	402	403	21.2	80.1
2025-08-16T22:36	10	0	0.1	0	0	403	0.3	402	403	21.1	80.4
2025-08-16T22:37	10	0	0.1	0	0	403	0.3	402	403	21.1	80.3
2025-08-16T22:38	10	0	0.1	0	0	403	0.2	402	403	21.1	80.1
2025-08-16T22:39	10	0	0.1	0	0	403	0.3	402	403	21.2	79.5
2025-08-16T22:40	10	0	0.1	0	0	403	0.2	402	403	21.2	79.4
2025-08-16T22:41	10	0	0.1	0	1	403	0.2	402	403	21.2	79.2
2025-08-16T22:42	10	0	0.1	0	1	402	0.2	402	403	21.2	79.1
2025-08-16T22:43	10	0	0.1	0	0	402	0.2	402	403	21.2	79.0
2025-08-16T22:44	10	0	0.1	0	0	402	0.3	402	403	21.2	78.4
2025-08-16T22:45	10	0	0.2	0	0	403	0.5	402	404	21.3	77.8
2025-08-16T22:46	10	0	0.2	0	0	403	0.2	403	404	21.4	77.4
2025-08-16T22:47	10	0	0.1	0	0	403	0.2	403	404	21.4	77.2
2025-08-16T22:48	10	0	0.2	-1	0	404	0.3	403	405	21.4	77.0
2025-08-16T22:49	10	0	0.2	-1	0	403	0.3	403	404	21.5	76.8
2025-08-16T22:50	10	0	0.2	0	1	403	0.4	403	404	21.4	76.9
2025-08-16T22:51	10	0	0.1	0	0	403	0.3	402	404	21.3	77.5
2025-08-16T22:52	10	0	0.2	0	1	403	0.3	402	403	21.2	78.3
2025-08-16T22:53	10	0	0.2	0	1	402	0.3	402	403	21.1	78.7
2025-08-16T22:54	10	0	0.1	0	0	402	0.2	402	403	21.0	79.2
2025-08-16T22:55	10	0	0.2	0	1	402	0.2	402	403	21.1	79.8
2025-08-16T22:56	10	0	0.2	0	1	402	0.3	402	403	21.1	80.2
2025-08-16T22:57	10	0	0.2	0	0	402	0.3	402	403	21.0	80.2
2025-08-16T22:58	10	0	0.2	0	1	402	0.3	401	403	21.0	80.3
2025-08-16T22:59	10	0	0.2	0	1	402	0.3	401	402	21.0	80.7
2025-08-16T23:00	10	0	0.1	0	0	402	0.5	401	403	21.0	80.9
2025-08-16T23:01	10	0	0.1	0	0	403	0.3	402	404	21.0	81.1
2025-08-16T23:02	10	0	0.1	0	0	403	0.3	402	404	21.0	81.4
2025-08-16T23:03	10	0	0.2	0	0	403	0.3	402	403	20.9	81.3
2025-08-16T23:04	10	0	0.1	0	0	402	0.4	401	403	20.8	81.3
2025-08-16T23:05	10	0	0.1	0	0	402	0.3	401	402	20.7	81.4
2025-08-16T23:06	10	0	0.1	0	0	402	0.2	401	402	20.7	82.2
2025-08-16T23:07	10	0	0.1	0	0	402	0.2	402	403	20.7	82.9
2025-08-16T23:08	10	0	0.1	0	0	402	0.2	402	403	20.7	83.2
2025-08-16T23:09	10	0	0.1	0	0	402	0.3	401	402	20.7	82.8
2025-08-16T23:10	10	0	0.1	0	0	401	0.2	401	402	20.6	82.9
2025-08-16T23:11	10	0	0.1	0	0	401	0.2	401	402	20.6	82.9
2025-08-16T23:12	10	0	0.1	0	0	401	0.3	400	401	20.6	83.4
2025-08-16T23:13	10	0	0.1	0	0	401	0.2	400	401	20.6	83.2
2025-08-16T23:14	10	0	0.1	0	0	400	0.3	399	401	20.6	83.4
2025-08-16T23:15	10	0	0.1	0	0	400	0.2	399	400	20.5	83.7
2025-08-16T23:16	10	0	0.1	0	0	400	0.2	399	400	20.5	83.8
2025-08-16T23:17	10	0	0.1	0	0	400	0.3	399	401	20.4	83.8
2025-08-16T23:18	10	0	0.1	0	0	400	0.2	400	401	20.3	84.0
2025-08-16T23:19	10	0	0.1	0	0	400	0.2	400	401	20.1	84.5
2025-08-16T23:20	10	0	0.1	0	0	401	0.3	400	402	20.1	84.8
2025-08-16T23:21	10	0	0.0	0	0	400	0.3	400	401	20.2	84.7
2025-08-16T23:22	10	0	0.1	0	0	400	0.3	399	400	20.2	84.7
2025-08-16T23:23	10	0	0.1	0	0	400	0.2	399	400	20.2	84.9
2025-08-16T23:24	10	0	0.1	0	0	399	0.4	398	400	20.1	85.0
2025-08-16T23:25	10	0	0.1	0	0	399	0.2	398	399	20.1	84.8
2025-08-16T23:26	10	0	0.1	0	0	399	0.3	398	399	20.0	85.2
2025-08-16T23:27	10	0	0.1	0	0	398	0.2	398	399	19.9	85.5
2025-08-16T23:28	10	0	0.1	0	0	399	0.3	398	399	19.9	85.7
2025-08-16T23:29	10	0	0.1	0	0	399	0.4	398	400	19.8	85.7
2025-08-16T23:30	10	0	0.1	0	0	399	0.2	399	400	19.8	85.9
2025-08-16T23:31	10	0	0.1	0	0	399	0.3	398	399	19.8	85.8
2025-08-16T23:32	10	0	0.1	0	0	399	0.4	398	400	19.7	86.2
2025-08-16T23:33	10	0	0.1	0	0	399	0.2	398	400	19.7	86.0
2025-08-16T23:34	10	0	0.1	0	0	399	0.4	398	400	19.9	85.3
2025-08-16T23:35	10	0	0.1	0	0	400	0.6	399	401	19.9	84.7
2025-08-16T23:36	10	0	0.1	0	0	400	0.3	400	401	20.1	83.5
2025-08-16T23:37	10	0	0.1	0	0	400	0.3	399	401	20.3	82.4
2025-08-16T23:38	10	0	0.0	0	0	400	0.3	399	400	20.2	81.9
2025-08-16T23:39	10	0	0.0	0	0	400	0.2	399	400	20.2	81.9
2025-08-16T23:40	10	0	0.0	0	0	399	0.3	398	400	20.0	82.7
2025-08-16T23:41	10	0	0.1	0	0	399	0.3	398	399	20.1	81.6
2025-08-16T23:42	10	0	0.1	0	1	398	0.3	398	399	20.0	82.1
2025-08-16T23:43	10	0	0.1	0	0	398	0.2	397	398	20.1	81.4
2025-08-16T23:44	10	0	0.1	0	0	398	0.3	397	398	20.1	81.5
2025-08-16T23:45	10	0	0.1	0	0	397	0.2	397	398	20.0	82.1
2025-08-16T23:46	10	0	0.1	0	0	397	0.2	397	398	19.8	83.2
2025-08-16T23:47	10	0	0.1	0	0	398	0.2	397	398	19.8	83.8
2025-08-16T23:48	10	0	0.1	0	0	398	0.2	398	399	19.7	84.4
2025-08-16T23:49	10	0	0.1	0	0	398	0.2	398	399	19.6	85.2
2025-08-16T23:50	10	0	0.1	0	0	398	0.3	397	399	19.7	84.3
2025-08-16T23:51	10	0	0.1	0	0	398	0.3	397	398	19.6	84.6
2025-08-16T23:52	10	0	0.1	0	0	398	0.3	397	398	19.8	83.0
2025-08-16T23:53	10	0	0.1	0	0	397	0.4	397	398	19.8	83.0
2025-08-16T23:54	10	0	0.1	0	0	397	0.3	397	398	19.8	82.5
2025-08-16T23:55	10	0	0.1	0	0	397	0.3	397	398	19.8	82.0
2025-08-16T23:56	10	0	0.1	0	0	397	0.3	397	398	19.9	81.1
2025-08-16T23:57	10	0	0.1	0	0	398	0.3	397	398	19.9	81.3
2025-08-16T23:58	10	0	0.1	0	0	398	0.3	397	398	19.9	80.8
2025-08-16T23:59	10	0	0.1	0	0	397	0.4	397	398	19.8	81.1
2025-08-17T00:00	10	0	0.1	0	0	398	0.4	397	398	19.8	81.2
2025-08-17T00:01	10	0	0.1	0	0	397	0.2	397	398	19.8	81.6
2025-08-17T00:02	10	0	0.1	0	0	397	0.2	396	397	19.6	82.9
2025-08-17T00:03	10	0	0.1	0	0	397	0.3	396	397	19.6	83.0
2025-08-17T00:04	10	0	0.1	0	0	396	0.3	395	397	19.6	82.9
2025-08-17T00:05	10	0	0.1	0	0	396	0.2	395	396	19.5	83.8
2025-08-17T00:06	10	0	0.1	0	0	395	0.3	395	396	19.4	84.3
2025-08-17T00:07	10	0	0.1	0	1	396	0.3	395	396	19.3	84.6
2025-08-17T00:08	10	0	0.1	0	0	395	0.2	394	395	19.3	84.9
2025-08-17T00:09	10	0	0.1	0	0	394	0.2	394	395	19.3	85.4
2025-08-17T00:10	10	0	0.1	0	0	394	0.3	394	395	19.2	85.4
2025-08-17T00:11	10	0	0.1	0	0	394	0.3	393	395	19.2	85.2
2025-08-17T00:12	10	0	0.1	0	0	394	0.2	393	394	19.3	84.5
2025-08-17T00:13	10	0	0.1	0	0	394	0.2	393	394	19.3	84.4
2025-08-17T00:14	10	0	0.1	0	0	394	0.3	393	394	19.3	84.7
2025-08-17T00:15	10	0	0.1	0	0	393	0.2	393	394	19.2	85.3
2025-08-17T00:16	10	0	0.1	0	0	393	0.2	393	394	19.2	84.9
2025-08-17T00:17	10	0	0.1	0	0	393	0.2	393	394	19.2	85.4
2025-08-17T00:18	10	0	0.0	0	0	393	0.2	393	394	19.1	85.4
2025-08-17T00:19	10	0	0.1	0	0	393	0.2	393	394	19.2	85.3
2025-08-17T00:20	10	0	0.1	0	0	393	0.2	393	393	19.0	86.9
2025-08-17T00:21	10	0	0.1	0	0	393	0.2	392	393	19.0	87.5
2025-08-17T00:22	10	0	0.1	0	0	393	0.3	393	394	18.9	87.3
2025-08-17T00:23	10	0	0.1	0	0	393	0.2	393	393	19.0	86.7
2025-08-17T00:24	10	0	0.1	0	0	393	0.3	392	394	19.1	85.6
2025-08-17T00:25	10	0	0.1	0	0	393	0.2	393	393	19.0	87.1
2025-08-17T00:26	10	0	0.1	0	0	393	0.2	392	393	19.0	86.4
2025-08-17T00:27	10	0	0.1	0	0	392	0.3	392	393	19.0	86.7
2025-08-17T00:28	10	0	0.0	0	0	392	0.3	392	393	19.0	87.0
2025-08-17T00:29	10	0	0.0	0	0	393	0.3	392	393	19.0	86.5
2025-08-17T00:30	10	1	1.6	0	11	393	0.2	392	393	19.0	86.6
2025-08-17T00:31	10	0	0.0	0	0	392	0.2	392	393	19.0	87.2
2025-08-17T00:32	10	0	0.1	0	0	392	0.3	392	393	18.9	87.6
2025-08-17T00:33	10	0	0.1	0	0	393	0.3	392	393	18.9	87.5
2025-08-17T00:34	10	0	0.1	0	0	393	0.2	392	393	18.9	87.4
2025-08-17T00:35	10	0	0.1	0	0	392	0.3	391	393	18.9	87.6
2025-08-17T00:36	10	0	0.1	0	0	392	0.3	391	392	18.9	87.6
2025-08-17T00:37	10	0	0.1	0	0	392	0.2	391	393	18.9	87.3
2025-08-17T00:38	10	0	0.0	0	0	392	0.2	391	392	18.9	87.4
2025-08-17T00:39	10	0	0.0	0	0	392	0.2	391	392	18.9	87.5
2025-08-17T00:40	10	0	0.1	0	0	391	0.2	391	392	18.8	87.8
2025-08-17T00:41	10	0	0.1	0	0	392	0.2	391	392	18.8	87.7
2025-08-17T00:42	10	0	0.1	0	0	392	0.2	391	392	18.9	86.7
2025-08-17T00:43	10	0	0.1	0	0	392	0.2	391	392	18.9	86.6
2025-08-17T00:44	10	0	0.1	0	0	392	0.2	391	392	19.0	86.3
2025-08-17T00:45	10	0	0.0	0	0	392	0.2	391	392	19.0	84.7
2025-08-17T00:46	10	0	0.0	0	0	392	0.3	391	392	19.1	84.1
2025-08-17T00:47	10	0	0.1	0	0	392	0.2	392	392	19.1	84.5
2025-08-17T00:48	10	0	0.1	0	0	392	0.2	391	392	19.1	83.7
2025-08-17T00:49	10	0	0.1	0	0	392	0.2	391	392	19.1	84.5
2025-08-17T00:50	10	0	0.1	0	0	392	0.3	391	392	19.0	85.2
2025-08-17T00:51	10	0	0.1	0	1	392	0.3	391	392	19.0	85.6
2025-08-17T00:52	10	0	0.0	0	0	392	0.3	391	392	18.9	86.5
2025-08-17T00:53	10	0	0.1	0	0	392	0.2	391	392	18.8	87.7
2025-08-17T00:54	10	0	0.1	0	0	392	0.2	392	393	18.7	88.4
2025-08-17T00:55	10	0	0.1	0	0	392	0.2	392	393	18.7	88.1
2025-08-17T00:56	10	0	0.1	0	0	393	0.2	392	393	18.7	87.9
2025-08-17T00:57	10	0	0.2	0	1	392	0.3	392	393	18.7	87.7
2025-08-17T00:58	10	0	0.2	0	1	392	0.3	391	392	18.7	88.1
2025-08-17T00:59	10	0	0.1	0	0	391	0.3	390	392	18.7	88.2
2025-08-17T01:00	10	0	0.1	0	0	391	0.2	390	391	18.6	88.3
2025-08-17T01:01	10	0	0.2	0	1	390	0.2	390	391	18.6	87.9
2025-08-17T01:02	10	0	0.1	0	0	390	0.2	390	391	18.7	86.8
2025-08-17T01:03	10	0	0.2	0	1	390	0.2	389	390	18.9	85.1
2025-08-17T01:04	10	0	0.2	0	1	390	0.4	389	390	18.9	85.5
2025-08-17T01:05	10	0	0.2	0	1	389	0.4	389	390	18.8	86.3
2025-08-17T01:06	10	0	0.2	0	1	389	0.3	389	390	18.9	85.0
2025-08-17T01:07	10	0	0.2	0	1	389	0.2	389	390	19.0	84.4
2025-08-17T01:08	10	0	0.1	0	0	389	0.3	389	390	19.0	84.4
2025-08-17T01:09	10	0	0.2	0	1	389	0.3	389	391	18.9	84.5
2025-08-17T01:10	10	0	0.1	0	0	389	0.3	389	390	18.9	84.9
2025-08-17T01:11	10	0	0.1	0	0	389	0.2	389	390	18.9	84.6
2025-08-17T01:12	10	0	0.2	0	1	389	0.3	389	390	18.9	84.3
2025-08-17T01:13	10	0	0.2	0	1	389	0.3	389	390	18.9	84.2
2025-08-17T01:14	10	0	0.2	0	1	390	0.3	389	390	18.9	84.1
2025-08-17T01:15	10	0	0.2	0	1	390	0.3	389	390	18.8	84.9
2025-08-17T01:16	10	0	0.2	0	1	390	0.3	390	391	18.8	84.8
2025-08-17T01:17	10	0	0.1	0	1	390	0.3	389	390	18.8	84.9
2025-08-17T01:18	10	0	0.2	0	1	390	0.3	389	391	18.8	84.7
2025-08-17T01:19	10	0	0.2	0	1	390	0.2	389	390	18.7	85.4
2025-08-17T01:20	10	0	0.1	0	1	390	0.2	389	390	18.6	86.0
2025-08-17T01:21	10	0	0.1	0	0	390	0.3	389	391	18.6	86.0
2025-08-17T01:22	10	0	0.1	0	0	390	0.2	389	391	18.6	85.8
2025-08-17T01:23	10	0	0.2	0	1	390	0.3	389	391	18.6	85.6
2025-08-17T01:24	10	0	0.1	0	0	390	0.2	390	390	18.8	84.4
2025-08-17T01:25	10	0	0.1	0	0	390	0.2	389	391	19.0	83.1
2025-08-17T01:26	10	0	0.1	0	0	390	0.2	390	391	19.2	82.2
2025-08-17T01:27	10	0	0.1	0	0	390	0.2	390	391	19.3	81.8
2025-08-17T01:28	10	0	0.1	0	1	390	0.3	389	390	19.3	82.1
2025-08-17T01:29	10	0	0.1	0	1	390	0.2	389	390	19.2	82.5
2025-08-17T01:30	10	0	0.1	0	0	389	0.5	388	390	19.1	82.8
2025-08-17T01:31	10	0	0.0	0	0	389	0.2	388	390	18.9	83.6
2025-08-17T01:32	10	0	0.0	0	0	389	0.3	388	390	18.9	84.0
2025-08-17T01:33	10	0	0.1	0	0	389	0.2	388	389	18.8	84.4
2025-08-17T01:34	10	0	0.1	0	0	388	0.3	388	389	18.8	84.3
2025-08-17T01:35	10	0	0.0	0	0	388	0.2	388	389	18.7	85.0
2025-08-17T01:36	10	0	0.1	0	0	388	0.3	388	389	18.7	84.6
2025-08-17T01:37	10	0	0.0	0	0	389	0.4	387	389	18.9	84.1
2025-08-17T01:38	10	0	0.1	0	0	389	0.2	388	389	19.1	83.1
2025-08-17T01:39	10	0	0.0	0	0	389	0.4	388	389	19.1	82.5
2025-08-17T01:40	10	0	0.0	0	0	388	0.2	388	389	19.0	83.0
2025-08-17T01:41	10	0	0.1	0	0	389	0.2	388	389	18.9	83.8
2025-08-17T01:42	10	0	0.0	0	0	388	0.3	388	389	18.7	84.4
2025-08-17T01:43	10	0	0.0	0	0	389	0.3	388	389	18.8	84.4
2025-08-17T01:44	10	0	0.0	0	0	389	0.2	388	389	18.7	84.8
2025-08-17T01:45	10	0	0.0	0	0	389	0.3	389	390	18.7	84.7
2025-08-17T01:46	10	0	0.1	0	0	390	0.4	389	391	18.6	84.8
2025-08-17T01:47	10	0	0.1	0	0	391	0.3	390	391	18.6	84.9
2025-08-17T01:48	10	0	0.0	0	0	391	0.3	390	391	18.7	84.4
2025-08-17T01:49	10	0	0.0	0	0	391	0.2	390	391	18.7	84.4
2025-08-17T01:50	10	0	0.0	0	0	390	0.3	390	391	18.7	84.3
2025-08-17T01:51	10	0	0.0	0	0	390	0.2	390	391	18.8	84.2
2025-08-17T01:52	10	0	0.1	0	0	390	0.3	389	391	18.8	84.1
2025-08-17T01:53	10	0	0.1	0	0	390	0.3	389	390	18.9	83.8
2025-08-17T01:54	10	0	0.1	0	0	390	0.3	390	391	18.8	83.9
2025-08-17T01:55	10	0	0.0	0	0	390	0.3	389	390	18.8	84.1
2025-08-17T01:56	10	0	0.1	0	0	390	0.3	390	391	18.8	84.2
2025-08-17T01:57	10	0	0.1	0	0	390	0.3	389	391	18.6	84.9
2025-08-17T01:58	10	0	0.0	0	0	391	0.2	390	391	18.4	86.3
2025-08-17T01:59	10	0	0.1	0	0	390	0.2	390	391	18.2	87.7
2025-08-17T02:00	10	0	0.1	0	0	390	0.2	390	391	18.2	88.2
2025-08-17T02:01	10	0	0.1	0	0	390	0.3	389	391	18.1	88.9
2025-08-17T02:02	10	0	0.1	0	0	390	0.2	389	390	18.0	89.3
2025-08-17T02:03	10	0	0.1	0	0	390	0.2	389	391	18.0	89.4
2025-08-17T02:04	10	0	0.1	0	0	390	0.3	389	390	18.0	88.8
2025-08-17T02:05	10	0	0.1	0	0	390	0.3	390	391	18.1	88.7
2025-08-17T02:06	10	0	0.1	0	0	390	0.3	390	391	18.1	88.3
2025-08-17T02:07	10	0	0.1	0	0	390	0.2	390	391	18.2	88.2
2025-08-17T02:08	10	0	0.1	0	0	390	0.2	390	391	18.1	88.4
2025-08-17T02:09	10	0	0.1	0	0	390	0.3	390	391	18.2	88.3
2025-08-17T02:10	10	0	0.0	0	0	390	0.3	389	390	18.2	87.9
2025-08-17T02:11	10	0	0.1	0	0	389	0.4	388	390	18.1	88.4
2025-08-17T02:12	10	0	0.0	0	0	388	0.2	388	389	18.0	88.7
2025-08-17T02:13	10	0	0.1	0	0	388	0.4	388	389	17.9	89.3
2025-08-17T02:14	10	0	0.1	0	0	389	0.3	388	389	18.0	88.9
2025-08-17T02:15	10	0	0.1	0	0	389	0.3	389	390	18.2	88.1
2025-08-17T02:16	10	0	0.0	0	0	390	0.3	389	390	18.3	87.6
2025-08-17T02:17	10	0	0.1	0	0	389	0.2	389	390	18.2	87.6
2025-08-17T02:18	10	0	0.1	0	0	389	0.3	388	389	18.3	87.2
2025-08-17T02:19	10	0	0.1	0	0	389	0.3	388	389	18.4	86.8
2025-08-17T02:20	10	0	0.1	0	0	388	0.2	388	389	18.4	86.8
2025-08-17T02:21	10	0	0.1	0	0	388	0.3	387	389	18.2	87.2
2025-08-17T02:22	10	0	0.1	0	0	388	0.3	387	388	18.1	87.7
2025-08-17T02:23	10	0	0.1	0	0	388	0.3	387	388	18.2	87.6
2025-08-17T02:24	10	0	0.1	0	0	388	0.3	387	389	18.2	87.4
2025-08-17T02:25	10	0	0.1	0	0	388	0.2	388	388	18.3	87.1
2025-08-17T02:26	10	0	0.0	0	0	388	0.3	387	389	18.3	87.0
2025-08-17T02:27	10	0	0.1	0	0	388	0.3	386	388	18.3	87.1
2025-08-17T02:28	10	0	0.1	0	0	388	0.4	387	389	18.0	88.4
2025-08-17T02:29	10	0	0.1	0	0	389	0.2	388	389	18.0	88.6
2025-08-17T02:30	10	0	0.0	0	0	388	0.2	388	389	18.0	88.6
2025-08-17T02:31	10	0	0.1	0	0	388	0.2	387	388	18.0	88.3
2025-08-17T02:32	10	0	0.1	0	0	387	0.2	387	388	18.2	87.8
2025-08-17T02:33	10	0	0.1	0	0	387	0.2	387	388	18.1	87.8
2025-08-17T02:34	10	0	0.1	0	0	387	0.2	387	388	18.3	87.4
2025-08-17T02:35	10	0	0.1	0	0	387	0.2	386	387	18.3	87.2
2025-08-17T02:36	10	0	0.1	0	0	387	0.3	386	387	18.2	87.3
2025-08-17T02:37	10	0	0.1	0	0	386	0.2	386	387	18.3	87.3
2025-08-17T02:38	10	0	0.1	0	0	387	0.2	386	387	18.2	87.7
2025-08-17T02:39	10	0	0.1	0	0	387	0.2	387	388	18.1	87.9
2025-08-17T02:40	10	0	0.1	0	0	387	0.3	387	388	18.0	88.4
2025-08-17T02:41	10	0	0.1	0	0	388	0.3	387	388	18.0	88.8
2025-08-17T02:42	10	0	0.1	0	0	387	0.4	387	388	18.0	88.9
2025-08-17T02:43	10	0	0.1	0	0	387	0.2	387	388	18.0	88.8
2025-08-17T02:44	10	0	0.1	0	0	387	0.3	386	387	18.0	88.7
2025-08-17T02:45	10	0	0.1	0	0	386	0.4	385	387	18.0	88.8
2025-08-17T02:46	10	0	0.1	0	0	385	0.2	385	386	17.8	89.4
2025-08-17T02:47	10	0	0.1	0	0	385	0.3	385	386	17.6	89.7
2025-08-17T02:48	10	0	0.1	0	0	385	0.3	384	386	17.6	90.2
2025-08-17T02:49	10	0	0.1	0	0	385	0.3	384	386	17.6	90.5
2025-08-17T02:50	10	0	0.1	0	0	385	0.2	385	386	17.7	90.5
2025-08-17T02:51	10	0	0.1	0	0	385	0.3	384	386	17.8	90.2
2025-08-17T02:52	10	0	0.1	0	0	385	0.2	385	386	17.8	90.1
2025-08-17T02:53	10	0	0.1	0	0	385	0.2	384	386	17.8	90.5
2025-08-17T02:54	10	0	0.1	0	0	385	0.4	385	386	17.8	90.8
2025-08-17T02:55	10	0	0.1	0	0	386	0.2	385	386	17.8	91.0
2025-08-17T02:56	10	0	0.1	0	0	386	0.3	385	387	17.8	91.3
2025-08-17T02:57	10	0	0.1	0	0	386	0.3	386	387	17.8	91.5
2025-08-17T02:58	10	0	0.1	0	0	386	0.2	385	387	17.9	91.8
2025-08-17T02:59	10	0	0.1	0	0	386	0.2	385	386	17.9	91.8
2025-08-17T03:00	10	0	0.1	0	0	386	0.2	385	386	17.9	91.8
2025-08-17T03:01	10	0	0.1	0	0	385	0.2	385	386	17.9	91.6
2025-08-17T03:02	10	0	0.1	0	0	385	0.2	385	386	17.9	91.3
2025-08-17T03:03	10	0	0.1	0	0	385	0.2	385	386	18.0	91.3
2025-08-17T03:04	10	0	0.1	0	0	386	0.3	385	386	17.9	91.1
2025-08-17T03:05	10	0	0.0	0	0	386	0.3	385	386	17.9	91.5
2025-08-17T03:06	10	0	0.0	0	0	386	0.4	386	387	17.8	91.5
2025-08-17T03:07	10	0	0.1	0	0	387	0.2	387	388	17.8	91.6
2025-08-17T03:08	10	0	0.0	0	0	387	0.2	387	387	17.8	91.5
2025-08-17T03:09	10	0	0.0	0	0	388	0.3	387	388	17.8	91.1
2025-08-17T03:10	10	0	0.0	0	0	388	0.2	387	388	17.9	90.6
2025-08-17T03:11	10	0	0.1	0	0	387	0.4	386	388	18.0	90.2
2025-08-17T03:12	10	0	0.0	0	0	386	0.2	386	387	17.8	90.1
2025-08-17T03:13	10	0	0.0	0	0	387	0.5	386	388	17.6	90.5
2025-08-17T03:14	10	0	0.0	0	0	388	0.5	387	389	17.6	90.9
2025-08-17T03:15	10	0	0.1	0	0	388	0.3	388	389	17.8	90.3
2025-08-17T03:16	10	0	0.0	0	0	388	0.2	388	389	17.8	90.1
2025-08-17T03:17	10	0	0.0	0	0	389	0.4	388	389	17.9	89.8
2025-08-17T03:18	10	0	0.0	0	0	389	0.6	388	391	18.0	89.2
2025-08-17T03:19	10	0	0.1	0	0	389	0.3	388	390	18.5	87.3
2025-08-17T03:20	10	0	0.1	0	0	388	0.5	388	390	18.2	88.0
2025-08-17T03:21	10	0	0.1	0	0	388	0.3	387	389	18.0	88.9
2025-08-17T03:22	10	0	0.1	0	0	388	0.3	388	389	18.1	88.8
2025-08-17T03:23	10	0	0.1	0	0	388	0.4	387	388	18.2	88.5
2025-08-17T03:24	10	0	0.1	0	0	387	0.3	386	388	18.1	88.7
2025-08-17T03:25	10	0	0.1	0	0	387	0.3	387	388	18.1	88.8
2025-08-17T03:26	10	0	0.0	0	0	387	0.3	386	387	18.2	88.6
2025-08-17T03:27	10	0	0.0	0	0	386	0.2	386	387	18.1	88.8
2025-08-17T03:28	10	0	0.1	0	0	387	0.2	386	387	18.1	89.1
2025-08-17T03:29	10	0	0.0	0	0	387	0.2	386	387	18.2	89.2
2025-08-17T03:30	10	0	0.1	0	0	386	0.2	386	387	18.3	89.1
2025-08-17T03:31	10	0	0.1	0	0	386	0.3	386	387	18.4	89.0
2025-08-17T03:32	10	0	0.1	0	0	387	0.2	386	387	18.4	88.8
2025-08-17T03:33	10	0	0.0	0	0	387	0.2	386	387	18.3	88.9
2025-08-17T03:34	10	0	0.1	0	0	387	0.3	386	388	18.3	89.0
2025-08-17T03:35	10	0	0.1	0	0	389	0.9	387	390	18.4	88.8
2025-08-17T03:36	10	0	0.1	0	0	391	0.4	390	391	18.4	88.9
2025-08-17T03:37	10	0	0.1	0	0	392	0.4	391	393	18.5	88.9
2025-08-17T03:38	10	0	0.1	0	0	393	0.3	392	393	18.5	88.7
2025-08-17T03:39	10	0	0.1	0	0	393	0.2	393	394	18.5	88.7
2025-08-17T03:40	10	0	0.1	0	0	393	0.2	393	394	18.4	88.7
2025-08-17T03:41	10	0	0.1	0	0	393	0.2	393	394	18.4	88.5
2025-08-17T03:42	10	0	0.1	0	0	393	0.2	393	394	18.4	88.5
2025-08-17T03:43	10	0	0.1	0	0	393	0.3	392	393	18.4	88.5
2025-08-17T03:44	10	0	0.1	0	0	392	0.4	391	393	18.4	88.5
2025-08-17T03:45	10	0	0.1	0	0	390	0.5	389	391	18.3	88.8
2025-08-17T03:46	10	0	0.1	0	0	389	0.4	388	390	18.0	89.3
2025-08-17T03:47	10	0	0.1	0	0	389	0.3	388	390	17.7	90.3
2025-08-17T03:48	10	0	0.1	0	0	388	0.3	388	389	17.6	91.5
2025-08-17T03:49	10	0	0.1	0	0	387	0.3	387	388	17.4	92.0
2025-08-17T03:50	10	0	0.1	0	0	387	0.2	386	387	17.4	92.3
2025-08-17T03:51	10	0	0.1	0	0	387	0.3	386	388	17.4	92.4
2025-08-17T03:52	10	0	0.1	0	0	387	0.2	387	387	17.4	92.2
2025-08-17T03:53	10	0	0.1	0	0	387	0.2	386	387	17.5	92.2
2025-08-17T03:54	10	0	0.1	0	0	388	0.5	387	389	17.5	92.0
2025-08-17T03:55	10	0	0.1	0	0	388	0.2	388	389	17.6	91.9
2025-08-17T03:56	10	0	0.1	0	0	388	0.3	387	389	17.6	91.8
2025-08-17T03:57	10	0	0.1	0	0	387	0.3	387	388	17.5	91.8
2025-08-17T03:58	10	0	0.1	0	0	387	0.2	387	388	17.5	91.9
2025-08-17T03:59	10	0	0.1	0	0	387	0.3	387	388	17.5	91.8
2025-08-17T04:00	10	0	0.1	0	0	387	0.3	387	388	17.5	91.9
2025-08-17T04:01	10	0	0.0	0	0	388	0.3	387	388	17.5	91.9
2025-08-17T04:02	10	0	0.0	0	0	388	0.5	387	389	17.6	91.9
2025-08-17T04:03	10	0	0.0	0	0	388	0.3	387	389	17.7	91.8
2025-08-17T04:04	10	0	0.1	0	0	388	0.2	388	389	17.7	91.5
2025-08-17T04:05	10	0	0.0	0	0	388	0.3	387	388	17.7	91.5
2025-08-17T04:06	10	0	0.0	0	0	388	0.3	387	388	17.8	91.4
2025-08-17T04:07	10	0	0.1	0	0	388	0.3	387	388	17.9	91.1
2025-08-17T04:08	10	0	0.0	0	0	388	0.2	387	388	17.8	91.1
2025-08-17T04:09	10	0	0.0	0	0	388	0.3	387	389	17.9	91.0
2025-08-17T04:10	10	0	0.1	0	0	388	0.3	387	388	17.8	90.9
2025-08-17T04:11	10	0	0.1	0	0	388	0.2	388	388	17.8	91.1
2025-08-17T04:12	10	0	0.1	0	0	388	0.2	388	389	17.9	91.2
2025-08-17T04:13	10	0	0.1	0	0	388	0.2	387	388	17.9	91.0
2025-08-17T04:14	10	0	0.1	0	0	388	0.4	387	388	17.9	90.9
2025-08-17T04:15	10	0	0.1	0	0	387	0.2	387	388	17.8	90.8
2025-08-17T04:16	10	0	0.1	0	0	387	0.3	387	388	17.7	91.0
2025-08-17T04:17	10	0	0.1	0	0	387	0.2	386	388	17.7	91.2
2025-08-17T04:18	10	0	0.1	0	0	387	0.2	387	387	17.7	91.2
2025-08-17T04:19	10	0	0.0	0	0	387	0.2	386	387	17.7	91.0
2025-08-17T04:20	10	0	0.1	0	0	386	0.2	386	387	17.8	91.4
2025-08-17T04:21	10	0	0.1	0	0	386	0.4	385	387	17.7	91.0
2025-08-17T04:22	10	0	0.1	0	0	385	0.3	385	386	17.4	91.2
2025-08-17T04:23	10	0	0.0	0	0	385	0.2	384	385	17.3	91.7
2025-08-17T04:24	10	0	0.0	0	0	384	0.3	384	385	17.3	91.9
2025-08-17T04:25	10	0	0.1	0	1	384	0.2	384	384	17.3	92.2
2025-08-17T04:26	10	0	0.1	0	0	384	0.2	384	385	17.3	92.3
2025-08-17T04:27	10	0	0.1	0	0	384	0.2	384	385	17.4	92.2
2025-08-17T04:28	10	0	0.1	0	1	384	0.3	384	385	17.4	92.1
2025-08-17T04:29	10	0	0.1	0	1	385	0.2	384	385	17.5	91.9
2025-08-17T04:30	10	1	0.1	0	1	385	0.2	384	385	17.5	91.7
2025-08-17T04:31	10	1	0.1	0	1	385	0.3	385	386	17.5	91.9
2025-08-17T04:32	10	1	0.1	1	1	386	0.2	385	386	17.7	91.9
2025-08-17T04:33	10	1	0.1	1	1	385	0.2	385	386	17.8	91.7
2025-08-17T04:34	10	1	0.1	1	1	385	0.2	385	386	17.9	91.5
2025-08-17T04:35	10	1	0.1	1	1	385	0.2	385	386	17.9	91.3
2025-08-17T04:36	10	1	0.1	1	1	385	0.3	384	385	17.9	91.3
2025-08-17T04:37	10	1	0.1	1	1	385	0.2	384	385	17.9	91.3
2025-08-17T04:38	10	1	0.1	1	1	385	0.2	384	385	17.9	91.3
2025-08-17T04:39	10	1	0.1	1	1	385	0.2	384	385	17.9	91.4
2025-08-17T04:40	10	1	0.1	1	1	384	0.2	384	385	17.9	91.4
2025-08-17T04:41	10	1	0.1	1	1	384	0.3	383	385	17.9	91.6
2025-08-17T04:42	10	1	0.1	1	2	384	0.2	384	385	17.9	91.5
2025-08-17T04:43	10	1	0.1	1	2	384	0.2	384	385	17.9	91.3
2025-08-17T04:44	10	2	0.1	1	2	384	0.3	384	384	17.9	91.3
2025-08-17T04:45	10	2	0.1	1	2	385	0.4	384	385	17.8	91.5
2025-08-17T04:46	10	2	0.1	2	2	386	0.3	385	387	17.8	91.3
2025-08-17T04:47	10	2	0.1	2	2	387	0.5	386	388	17.7	91.2
2025-08-17T04:48	10	2	0.1	2	2	388	0.5	387	389	17.8	91.2
2025-08-17T04:49	10	2	0.1	2	2	389	0.4	389	390	17.8	91.0
2025-08-17T04:50	10	2	0.1	2	2	391	0.5	390	392	17.8	91.0
2025-08-17T04:51	10	2	0.1	2	2	392	0.4	392	393	17.7	91.0
2025-08-17T04:52	10	2	0.1	2	3	393	0.2	393	394	17.7	91.1
2025-08-17T04:53	10	3	0.1	2	3	394	0.2	393	395	17.7	91.2
2025-08-17T04:54	10	3	0.1	3	3	394	0.3	394	395	17.7	91.4
2025-08-17T04:55	10	3	0.1	3	3	395	0.2	394	395	17.7	91.4
2025-08-17T04:56	10	3	0.1	3	3	394	0.2	394	395	17.7	91.4
2025-08-17T04:57	10	3	0.1	3	3	394	0.2	394	395	17.7	91.3
2025-08-17T04:58	10	3	0.1	3	3	394	0.3	393	394	17.7	91.5
2025-08-17T04:59	10	3	0.1	3	3	393	0.2	393	394	17.7	91.5
2025-08-17T05:00	10	3	0.1	3	3	393	0.2	393	394	17.7	91.6
2025-08-17T05:01	10	3	0.1	3	3	393	0.2	393	394	17.6	91.6
2025-08-17T05:02	10	3	0.1	3	3	393	0.2	393	394	17.6	91.6
2025-08-17T05:03	10	3	0.1	3	4	393	0.3	392	394	17.6	91.4
2025-08-17T05:04	10	3	0.1	3	4	394	0.2	393	394	17.6	91.4
2025-08-17T05:05	10	4	0.1	3	4	394	0.2	393	394	17.6	91.3
2025-08-17T05:06	10	4	0.1	4	4	394	0.2	393	394	17.6	91.2
2025-08-17T05:07	10	4	0.1	4	4	394	0.2	394	395	17.6	91.2
2025-08-17T05:08	10	4	0.1	4	4	395	0.2	394	395	17.6	90.9
2025-08-17T05:09	10	4	0.1	4	5	395	0.3	394	395	17.6	91.0
2025-08-17T05:10	10	4	0.1	4	5	395	0.2	395	396	17.6	91.6
2025-08-17T05:11	10	5	0.1	4	5	396	0.2	395	396	17.5	91.9
2025-08-17T05:12	10	5	0.1	4	5	396	0.2	395	396	17.5	92.0
2025-08-17T05:13	10	5	0.2	4	5	396	0.3	395	397	17.4	92.3
2025-08-17T05:14	10	5	0.1	4	5	396	0.3	396	397	17.3	93.1
2025-08-17T05:15	10	5	0.1	5	5	396	0.3	396	397	17.3	94.0
2025-08-17T05:16	10	5	0.1	5	5	397	0.3	396	397	17.3	94.0
2025-08-17T05:17	10	5	0.2	5	5	397	0.3	397	398	17.3	93.8
2025-08-17T05:18	10	5	0.2	5	6	398	0.4	397	399	17.3	93.5
2025-08-17T05:19	10	5	0.2	5	6	398	0.4	397	398	17.4	93.4
2025-08-17T05:20	10	6	0.1	5	6	398	0.2	398	399	17.4	93.4
2025-08-17T05:21	10	6	0.2	6	6	398	0.3	398	399	17.3	93.5
2025-08-17T05:22	10	6	0.2	6	6	399	0.2	398	399	17.4	93.4
2025-08-17T05:23	10	6	0.2	6	7	399	0.3	398	399	17.4	93.4
2025-08-17T05:24	10	6	0.1	6	7	399	0.2	399	400	17.5	93.2
2025-08-17T05:25	10	7	0.1	6	7	399	0.2	399	400	17.6	92.9
2025-08-17T05:26	10	7	0.1	7	7	399	0.3	399	400	17.5	92.7
2025-08-17T05:27	10	7	0.2	7	8	400	0.3	399	400	17.6	92.7
2025-08-17T05:28	10	7	0.1	7	8	400	0.2	399	400	17.6	92.5
2025-08-17T05:29	10	8	0.1	8	8	400	0.3	399	401	17.6	92.4
2025-08-17T05:30	10	8	0.1	8	8	400	0.2	400	401	17.6	92.4
2025-08-17T05:31	10	8	0.1	8	8	401	0.3	400	401	17.6	92.3
2025-08-17T05:32	10	8	0.1	8	8	401	0.3	400	402	17.6	92.2
2025-08-17T05:33	10	9	0.3	8	9	402	0.2	401	402	17.6	92.2
2025-08-17T05:34	10	9	0.1	9	9	402	0.2	402	403	17.7	92.0
2025-08-17T05:35	10	9	0.1	9	9	403	0.2	402	403	17.7	91.5
2025-08-17T05:36	10	9	0.2	9	9	403	0.2	402	403	17.8	90.8
2025-08-17T05:37	10	10	0.1	9	10	403	0.2	402	403	17.9	90.3
2025-08-17T05:38	10	10	0.1	9	10	403	0.2	403	404	17.9	90.6
2025-08-17T05:39	10	10	0.2	10	10	403	0.2	403	404	17.9	90.3
2025-08-17T05:40	10	10	0.1	10	10	403	0.3	403	404	17.9	89.9
2025-08-17T05:41	10	11	0.3	10	12	403	0.2	403	404	18.0	89.8
2025-08-17T05:42	10	12	0.2	11	12	403	0.2	403	404	18.0	89.3
2025-08-17T05:43	10	12	0.2	11	12	403	0.2	403	404	18.0	88.9
2025-08-17T05:44	10	12	0.2	12	12	403	0.2	403	404	18.1	88.7
2025-08-17T05:45	10	13	0.2	12	13	404	0.3	404	405	18.1	88.6
2025-08-17T05:46	10	14	0.5	13	15	404	0.2	404	405	18.1	88.3
2025-08-17T05:47	10	17	1.0	15	18	405	0.3	404	406	18.2	87.7
2025-08-17T05:48	10	18	0.9	17	20	405	0.3	405	406	18.2	87.2
2025-08-17T05:49	10	15	0.5	15	17	405	0.2	405	405	18.3	87.1
2025-08-17T05:50	10	15	0.1	15	15	405	0.2	405	406	18.3	86.6
2025-08-17T05:51	10	16	0.4	15	16	405	0.2	405	406	18.3	87.0
2025-08-17T05:52	10	19	2.3	16	23	406	0.2	405	406	18.3	86.7
2025-08-17T05:53	10	22	0.9	21	24	406	0.2	405	406	18.3	86.5
2025-08-17T05:54	10	25	1.3	22	27	406	0.3	405	407	18.3	86.7
2025-08-17T05:55	10	19	2.4	17	24	406	0.3	405	406	18.3	86.4
2025-08-17T05:56	10	17	0.2	17	18	406	0.2	406	406	18.3	86.6
2025-08-17T05:57	10	17	0.1	17	18	406	0.3	405	406	18.3	86.7
2025-08-17T05:58	10	18	0.3	18	19	405	0.2	405	406	18.3	86.9
2025-08-17T05:59	10	19	0.4	19	20	406	0.2	405	406	18.3	86.4
2025-08-17T06:00	10	21	0.9	20	23	406	0.2	405	407	18.3	86.4
2025-08-17T06:01	10	31	3.4	24	34	407	0.8	406	408	18.3	86.4
2025-08-17T06:02	10	33	1.7	30	35	409	0.3	408	409	18.3	86.2
2025-08-17T06:03	10	27	0.8	27	29	408	0.4	408	409	18.4	85.8
2025-08-17T06:04	10	27	0.3	27	28	408	0.3	408	409	18.4	86.0
2025-08-17T06:05	10	29	1.0	28	32	410	0.4	409	410	18.4	86.1
2025-08-17T06:06	10	37	3.7	32	43	411	0.4	410	412	18.4	85.9
2025-08-17T06:07	10	42	1.7	38	44	411	0.3	411	412	18.4	85.4
2025-08-17T06:08	10	35	1.9	31	37	411	0.2	410	411	18.5	85.3
2025-08-17T06:09	10	29	0.4	29	30	410	0.5	409	411	18.5	85.2
2025-08-17T06:10	10	29	1.0	28	32	410	0.3	409	410	18.5	85.0
2025-08-17T06:11	10	39	3.4	32	43	410	0.3	409	411	18.5	85.0
2025-08-17T06:12	10	44	0.4	43	44	411	0.3	410	412	18.6	84.8
2025-08-17T06:13	10	41	0.9	40	44	410	0.3	410	411	18.6	84.4
2025-08-17T06:14	10	44	1.4	41	46	411	0.3	410	411	18.7	84.4
2025-08-17T06:15	10	44	1.8	40	46	411	0.2	410	412	18.8	84.4
2025-08-17T06:16	10	42	3.4	37	46	411	0.3	411	412	18.8	83.8
2025-08-17T06:17	10	40	2.7	37	45	412	0.3	411	413	18.8	84.1
2025-08-17T06:18	10	30	2.6	27	38	412	0.4	411	413	18.8	84.4
2025-08-17T06:19	10	35	3.1	28	39	412	0.3	412	413	18.8	84.0
2025-08-17T06:20	10	29	1.1	28	33	412	0.5	411	413	18.8	84.0
2025-08-17T06:21	10	28	0.6	27	29	411	0.3	411	412	18.8	84.0
2025-08-17T06:22	10	28	0.6	27	29	411	0.3	410	411	18.8	84.0
2025-08-17T06:23	10	27	0.5	27	29	411	0.3	410	412	18.8	84.3
2025-08-17T06:24	10	41	5.7	29	47	412	0.7	411	414	18.8	84.2
2025-08-17T06:25	10	46	0.7	44	47	413	0.3	412	413	18.8	83.8
2025-08-17T06:26	10	44	1.6	39	45	413	0.4	412	414	18.9	84.1
2025-08-17T06:27	10	42	2.9	38	45	414	0.5	413	415	19.0	83.7
2025-08-17T06:28	10	46	0.8	45	47	415	0.2	415	416	19.1	83.6
2025-08-17T06:29	10	47	0.5	45	47	415	0.5	414	416	19.1	83.3
2025-08-17T06:30	10	43	1.5	41	46	415	0.3	414	415	19.0	83.7
2025-08-17T06:31	10	43	2.2	40	46	415	0.3	415	416	19.1	83.3
2025-08-17T06:32	10	48	1.5	45	49	416	0.4	415	417	19.1	83.3
2025-08-17T06:33	10	50	0.3	49	50	417	0.2	416	417	19.2	83.3
2025-08-17T06:34	10	50	0.3	50	51	416	0.3	416	417	19.1	83.1
2025-08-17T06:35	10	51	0.2	50	51	415	0.3	415	416	19.1	82.8
2025-08-17T06:36	10	52	0.8	51	53	416	0.3	415	416	19.1	82.9
2025-08-17T06:37	10	53	0.7	51	53	417	0.3	417	418	19.2	82.7
2025-08-17T06:38	10	54	0.6	52	54	417	0.3	416	417	19.2	82.6
2025-08-17T06:39	10	54	0.3	54	55	418	0.4	417	419	19.3	82.4
2025-08-17T06:40	10	54	0.9	52	55	418	0.3	418	419	19.2	82.2
2025-08-17T06:41	10	57	1.2	55	58	419	0.4	418	420	19.3	82.3
2025-08-17T06:42	10	59	0.4	58	59	419	0.5	419	420	19.3	81.7
2025-08-17T06:43	10	58	0.2	58	59	419	0.4	418	420	19.3	81.2
2025-08-17T06:44	10	59	0.5	59	60	419	0.3	418	420	19.3	80.8
2025-08-17T06:45	10	58	2.0	52	60	419	0.3	418	420	19.4	80.7
2025-08-17T06:46	10	60	1.7	53	61	419	0.3	419	420	19.3	80.6
2025-08-17T06:47	10	61	0.1	60	61	419	0.2	418	420	19.3	80.7
2025-08-17T06:48	10	62	0.4	61	62	421	0.8	419	422	19.4	80.7
2025-08-17T06:49	10	62	0.4	61	62	421	0.3	420	422	19.4	80.3
2025-08-17T06:50	10	53	8.0	37	62	421	0.5	420	422	19.5	79.8
2025-08-17T06:51	10	59	4.4	46	62	421	0.4	420	422	19.5	79.7
2025-08-17T06:52	10	62	0.2	62	62	423	0.3	422	423	19.5	79.3
2025-08-17T06:53	10	62	0.3	62	63	423	0.5	421	424	19.5	79.2
2025-08-17T06:54	10	63	0.2	63	64	423	0.3	423	424	19.6	79.1
2025-08-17T06:55	10	63	0.5	62	64	425	0.4	424	425	19.7	78.8
2025-08-17T06:56	10	63	0.2	62	63	423	0.6	422	425	19.4	78.9
2025-08-17T06:57	10	63	0.3	62	64	423	0.3	423	424	19.5	78.9
2025-08-17T06:58	10	63	0.4	63	64	423	0.2	422	423	19.4	78.8
2025-08-17T06:59	10	61	0.8	60	63	423	0.3	422	424	19.5	78.8
2025-08-17T07:00	10	58	2.9	55	62	424	0.5	423	425	19.6	78.5
2025-08-17T07:01	10	61	2.9	55	65	424	0.5	423	425	19.7	78.4
2025-08-17T07:02	10	50	14.8	24	66	425	1.0	422	426	19.8	77.8
2025-08-17T07:03	10	36	11.6	24	53	423	0.6	422	424	19.8	77.9
2025-08-17T07:04	10	26	2.9	24	36	421	1.2	419	423	19.8	78.0
2025-08-17T07:05	10	32	7.2	24	42	420	0.5	419	421	19.6	77.9
2025-08-17T07:06	10	28	5.4	24	41	419	0.9	418	421	19.6	78.0
2025-08-17T07:07	10	24	0.6	24	26	417	0.6	416	418	19.5	77.9
2025-08-17T07:08	10	27	1.8	25	32	417	0.2	416	417	19.4	78.3
2025-08-17T07:09	10	57	15.3	32	76	420	2.3	416	424	19.4	78.0
2025-08-17T07:10	10	76	1.8	70	78	425	1.4	422	427	19.5	77.4
2025-08-17T07:11	10	50	7.7	44	69	423	1.4	422	426	19.4	77.7
2025-08-17T07:12	10	66	11.5	47	79	425	2.3	422	430	19.5	77.7
2025-08-17T07:13	10	79	0.2	79	80	431	1.1	429	432	19.7	77.3
2025-08-17T07:14	10	79	0.1	79	79	433	0.9	432	435	19.9	76.8
2025-08-17T07:15	10	72	6.6	59	79	432	1.4	430	434	19.8	76.3
2025-08-17T07:16	10	77	2.7	72	81	432	0.6	431	433	19.8	76.6
2025-08-17T07:17	10	82	0.6	81	83	433	0.8	432	435	20.0	76.2
2025-08-17T07:18	10	84	0.7	82	85	434	0.7	433	435	20.0	75.8
2025-08-17T07:19	10	84	0.2	84	85	433	0.5	432	434	19.7	76.2
2025-08-17T07:20	10	85	0.2	85	86	434	1.2	433	437	19.8	76.4
2025-08-17T07:21	10	85	0.2	84	85	438	0.4	436	438	20.0	75.8
2025-08-17T07:22	10	86	0.2	85	86	438	0.5	438	439	20.1	75.6
2025-08-17T07:23	10	86	0.2	85	86	437	0.3	436	438	19.9	75.9
2025-08-17T07:24	10	85	0.2	85	86	437	0.2	436	437	20.0	76.0
2025-08-17T07:25	10	85	0.4	84	86	439	0.9	437	440	20.0	75.9
2025-08-17T07:26	10	85	0.2	85	86	438	0.8	437	440	20.0	75.7
2025-08-17T07:27	10	86	0.4	85	87	438	0.3	437	439	20.0	75.8
2025-08-17T07:28	10	87	0.4	87	88	439	0.5	438	440	19.9	76.1
2025-08-17T07:29	10	85	1.7	83	88	439	0.8	438	440	20.0	75.6
2025-08-17T07:30	10	87	0.6	86	88	437	0.5	436	439	19.9	75.7
2025-08-17T07:31	10	89	0.4	88	89	437	0.5	436	438	19.8	76.2
2025-08-17T07:32	10	90	0.5	89	91	439	0.5	438	441	19.8	76.3
2025-08-17T07:33	10	90	0.7	89	91	441	0.6	440	442	20.0	75.8
2025-08-17T07:34	10	92	0.7	91	93	443	0.6	442	444	20.3	75.0
2025-08-17T07:35	10	95	0.8	93	96	445	1.6	443	448	20.4	74.9
2025-08-17T07:36	10	96	0.4	96	97	446	1.0	444	447	20.5	74.5
2025-08-17T07:37	10	97	0.3	97	98	444	0.4	443	445	20.2	75.3
2025-08-17T07:38	10	98	0.1	97	98	446	0.4	445	447	20.2	75.2
2025-08-17T07:39	10	97	0.7	96	99	447	1.0	446	449	20.5	74.3
2025-08-17T07:40	10	98	0.3	98	99	450	0.5	449	451	20.7	73.6
2025-08-17T07:41	10	97	0.3	97	98	449	0.5	448	450	20.9	73.0
2025-08-17T07:42	10	96	0.3	96	97	449	0.8	448	451	20.6	73.6
2025-08-17T07:43	10	96	0.1	96	97	449	0.8	448	451	20.8	73.3
2025-08-17T07:44	10	96	0.3	96	97	450	0.9	448	451	20.8	73.1
2025-08-17T07:45	10	95	0.3	95	96	447	0.6	446	448	20.4	73.8
2025-08-17T07:46	10	92	2.0	88	95	448	1.0	446	449	20.5	74.1
2025-08-17T07:47	10	90	1.7	87	93	446	1.3	444	449	20.4	74.2
2025-08-17T07:48	10	94	0.5	93	95	445	0.8	443	446	20.1	74.8
2025-08-17T07:49	10	90	3.4	84	95	445	0.4	444	446	20.3	74.7
2025-08-17T07:50	10	95	0.4	94	95	445	0.6	443	445	20.2	74.8
2025-08-17T07:51	10	96	0.2	95	96	447	1.8	443	449	20.5	74.1
2025-08-17T07:52	10	95	0.5	94	96	450	0.5	449	451	20.8	73.5
2025-08-17T07:53	10	95	0.5	94	96	450	1.1	448	451	20.7	73.6
2025-08-17T07:54	10	95	1.1	93	97	448	0.4	448	449	20.5	73.9
2025-08-17T07:55	10	96	0.2	95	96	447	0.7	446	449	20.2	74.7
2025-08-17T07:56	10	96	0.2	95	96	448	0.3	448	449	20.3	74.4
2025-08-17T07:57	10	96	0.2	96	97	448	0.5	447	450	20.3	74.4
2025-08-17T07:58	10	97	0.2	97	98	450	0.4	449	451	20.4	74.1
2025-08-17T07:59	10	98	0.2	97	98	451	0.5	450	451	20.4	74.2
2025-08-17T08:00	10	98	0.4	98	99	453	0.7	451	454	20.6	73.7
2025-08-17T08:01	10	99	0.2	99	100	452	1.0	451	454	20.6	73.4
2025-08-17T08:02	10	100	0.2	99	100	452	0.7	450	453	20.7	73.1
2025-08-17T08:03	10	100	0.2	100	101	453	0.4	453	454	20.9	72.8
2025-08-17T08:04	10	101	0.1	100	101	453	0.5	452	454	20.7	73.2
2025-08-17T08:05	10	101	0.1	101	102	455	1.6	453	458	21.0	72.6
2025-08-17T08:06	10	102	0.2	101	102	459	0.7	457	460	21.2	71.6
2025-08-17T08:07	10	102	0.1	102	102	455	2.0	452	459	21.0	71.6
2025-08-17T08:08	10	102	0.1	102	102	457	1.0	454	458	21.0	72.0
2025-08-17T08:09	10	103	0.2	102	103	456	1.0	454	458	21.0	72.1
2025-08-17T08:10	10	103	0.1	103	103	456	0.4	455	456	20.9	72.3
2025-08-17T08:11	10	103	0.1	103	103	455	1.0	453	457	20.8	72.7
2025-08-17T08:12	10	104	0.2	103	104	457	1.8	454	460	20.7	73.1
2025-08-17T08:13	10	104	0.1	104	104	461	0.7	459	462	21.1	71.9
2025-08-17T08:14	10	104	0.1	104	105	458	0.8	457	460	21.0	71.9
2025-08-17T08:15	10	104	0.1	104	105	460	1.0	459	462	21.2	71.4
2025-08-17T08:16	10	104	0.1	104	104	463	0.8	460	464	21.5	70.8
2025-08-17T08:17	10	105	0.4	105	106	459	0.8	456	460	21.0	71.8
2025-08-17T08:18	10	106	0.3	106	107	458	1.5	456	461	21.0	72.0
2025-08-17T08:19	10	107	0.2	107	107	461	0.7	460	463	21.2	71.4
2025-08-17T08:20	10	107	0.1	107	107	460	0.5	459	461	20.9	72.2
2025-08-17T08:21	10	107	0.1	107	107	461	0.5	460	462	21.3	71.0
2025-08-17T08:22	10	108	0.4	107	108	461	0.5	460	462	21.3	70.8
2025-08-17T08:23	10	108	0.2	108	109	464	1.7	461	467	21.2	71.4
2025-08-17T08:24	10	109	0.1	108	109	463	0.9	461	466	21.0	71.5
2025-08-17T08:25	10	109	0.2	109	110	461	1.3	459	464	21.0	71.8
2025-08-17T08:26	10	110	0.1	110	110	463	0.8	461	464	21.2	71.0
2025-08-17T08:27	10	110	0.1	110	110	463	0.8	462	465	21.4	70.2
2025-08-17T08:28	10	111	0.7	110	112	462	0.8	461	464	21.3	70.4
2025-08-17T08:29	10	112	0.2	112	112	465	0.7	463	466	21.4	70.3
2025-08-17T08:30	10	113	0.5	112	114	466	1.5	463	468	21.5	69.7
2025-08-17T08:31	10	114	1.4	105	114	464	0.4	463	465	21.5	69.8
2025-08-17T08:32	10	86	28.3	45	115	460	3.1	455	466	21.6	69.5
2025-08-17T08:33	10	113	0.3	112	114	465	0.6	464	466	21.8	68.9
2025-08-17T08:34	10	113	0.3	112	114	467	1.2	465	469	22.0	68.7
2025-08-17T08:35	10	109	7.1	91	113	467	1.3	465	470	21.9	68.4
2025-08-17T08:36	10	113	0.3	113	114	468	2.3	465	471	21.6	69.1
2025-08-17T08:37	10	113	0.3	113	114	466	0.4	465	467	21.5	69.3
2025-08-17T08:38	10	113	0.3	112	114	464	1.0	462	466	21.4	69.5
2025-08-17T08:39	10	112	0.5	111	113	464	0.9	463	466	21.7	68.7
2025-08-17T08:40	10	112	0.5	112	113	467	1.6	465	470	22.0	67.8
2025-08-17T08:41	10	113	0.2	113	114	466	1.3	464	469	21.6	68.6
2025-08-17T08:42	10	114	0.5	113	114	467	0.7	466	469	21.5	69.1
2025-08-17T08:43	10	114	0.2	114	115	469	0.8	467	470	21.5	69.3
2025-08-17T08:44	10	115	0.2	114	115	470	0.6	468	471	21.7	68.5
2025-08-17T08:45	10	115	0.2	114	116	468	1.3	466	470	21.7	68.2
2025-08-17T08:46	10	115	0.2	115	115	468	0.6	467	469	21.5	68.9
2025-08-17T08:47	10	115	0.3	115	116	470	1.1	468	472	21.5	68.9
2025-08-17T08:48	10	116	0.3	116	117	470	1.1	467	471	21.7	68.3
2025-08-17T08:49	10	117	0.2	117	117	472	2.0	468	475	21.9	67.7
2025-08-17T08:50	10	117	0.2	117	118	474	0.8	472	475	22.0	67.1
2025-08-17T08:51	10	118	0.4	117	118	473	2.5	469	476	22.0	67.3
2025-08-17T08:52	10	118	0.3	118	119	473	2.3	469	476	21.9	67.5
2025-08-17T08:53	10	118	0.2	118	119	473	0.8	471	475	21.7	67.7
2025-08-17T08:54	10	119	0.4	118	120	477	1.7	474	479	21.9	67.6
2025-08-17T08:55	10	119	0.2	119	120	476	0.9	475	477	22.1	66.9
2025-08-17T08:56	10	119	0.1	119	120	473	1.8	471	478	21.9	67.2
2025-08-17T08:57	10	119	0.2	119	119	475	1.3	472	477	21.8	67.5
2025-08-17T08:58	10	120	0.2	119	120	476	1.0	475	479	22.0	66.8
2025-08-17T08:59	10	120	0.2	120	120	480	1.8	477	483	22.1	66.8
2025-08-17T09:00	10	120	0.1	120	121	481	2.1	477	483	22.4	65.7
2025-08-17T09:01	10	120	0.3	120	121	478	0.9	477	480	22.6	65.0
2025-08-17T09:02	10	121	0.3	121	122	479	0.7	478	480	22.4	65.4
2025-08-17T09:03	10	122	0.3	121	122	479	0.9	478	481	22.4	61.0
2025-08-17T09:04	10	122	0.1	122	123	482	0.9	481	484	22.2	63.1
2025-08-17T09:05	10	122	0.1	122	123	483	1.3	480	484	22.4	65.3
2025-08-17T09:06	10	122	0.2	122	123	481	1.5	479	484	22.4	63.1
2025-08-17T09:07	10	123	0.1	123	123	479	0.5	478	480	22.4	65.3
2025-08-17T09:08	10	123	0.2	122	123	481	1.0	479	482	22.4	65.3
2025-08-17T09:09	10	123	0.1	123	124	480	0.7	479	482	22.4	65.3
2025-08-17T09:10	10	124	0.3	124	125	482	0.8	480	483	22.4	65.3
2025-08-17T09:11	10	125	0.1	124	125	480	0.6	479	481	22.4	64.8
2025-08-17T09:12	10	125	0.1	124	125	480	0.3	479	481	22.1	65.7
2025-08-17T09:13	10	124	0.1	124	125	482	1.0	481	484	22.6	64.7
2025-08-17T09:14	10	125	0.1	124	125	483	1.1	481	485	22.5	64.7
2025-08-17T09:15	10	125	0.2	124	125	482	1.3	479	485	22.8	64.0
2025-08-17T09:16	10	125	0.2	125	125	480	1.0	478	482	22.6	64.2
2025-08-17T09:17	10	125	0.1	125	126	481	0.8	479	482	22.6	64.5
2025-08-17T09:18	10	126	0.2	125	126	485	1.9	481	488	22.8	64.2
2025-08-17T09:19	10	126	0.1	126	126	487	0.5	485	487	22.7	64.1
2025-08-17T09:20	10	126	0.1	126	126	484	1.8	480	486	22.7	64.1
2025-08-17T09:21	10	126	0.2	126	127	482	1.1	481	485	22.3	65.2
2025-08-17T09:22	10	126	0.1	126	126	486	1.9	483	489	22.7	64.1
2025-08-17T09:23	10	126	0.1	126	126	485	1.2	483	487	22.4	64.7
2025-08-17T09:24	10	126	0.5	126	127	485	1.0	484	488	22.6	64.4
2025-08-17T09:25	10	127	0.1	127	127	486	1.8	482	488	22.6	64.4
2025-08-17T09:26	10	127	0.2	127	127	483	0.6	482	485	22.4	64.9
2025-08-17T09:27	10	127	0.1	127	127	482	1.0	480	484	22.5	64.5
2025-08-17T09:28	10	127	0.1	127	127	484	1.6	481	487	22.6	64.3
2025-08-17T09:29	10	128	0.3	127	128	489	1.1	487	491	23.3	62.8
2025-08-17T09:30	10	128	0.2	128	128	490	1.7	487	493	23.5	61.7
2025-08-17T09:31	10	128	0.2	128	129	486	0.9	485	488	22.9	63.5
2025-08-17T09:32	10	129	0.3	128	129	488	1.6	486	491	22.6	64.2
2025-08-17T09:33	10	130	0.2	129	130	488	2.3	483	491	22.9	63.2
2025-08-17T09:34	10	130	0.1	129	130	485	1.8	483	489	22.6	64.1
2025-08-17T09:35	10	130	0.2	129	130	491	1.2	488	493	23.4	62.4
2025-08-17T09:36	10	130	0.1	130	130	487	0.8	485	488	22.7	64.1
2025-08-17T09:37	10	130	0.2	130	131	489	0.7	488	490	23.0	63.6
2025-08-17T09:38	10	130	0.1	130	131	491	1.0	489	493	23.2	62.8
2025-08-17T09:39	10	130	0.1	130	130	490	0.9	488	491	23.0	63.1
2025-08-17T09:40	10	131	0.3	130	131	491	2.4	487	495	22.8	63.6
2025-08-17T09:41	10	131	0.1	131	131	495	1.4	493	497	23.3	62.6
2025-08-17T09:42	10	131	0.1	131	131	492	1.2	490	495	23.4	62.3
2025-08-17T09:43	10	131	0.1	131	131	491	2.2	488	494	23.3	62.2
2025-08-17T09:44	10	131	0.1	130	131	491	1.2	489	493	22.9	63.1
2025-08-17T09:45	10	131	0.2	131	131	490	0.8	489	492	22.7	63.9
2025-08-17T09:46	10	132	0.2	131	132	492	1.1	491	494	22.8	63.6
2025-08-17T09:47	10	132	0.4	132	133	492	1.0	490	494	23.1	62.8
2025-08-17T09:48	10	133	0.2	132	133	491	1.2	488	494	23.3	62.2
2025-08-17T09:49	10	133	0.1	133	133	488	2.3	485	493	22.9	63.1
2025-08-17T09:50	10	133	0.1	133	133	496	1.4	493	498	23.7	61.6
2025-08-17T09:51	10	133	0.2	132	133	495	0.8	494	497	23.5	61.4
2025-08-17T09:52	10	133	0.2	133	133	495	0.9	493	497	23.1	62.5
2025-08-17T09:53	10	134	0.2	133	134	495	1.4	492	497	23.4	61.9
2025-08-17T09:54	10	134	0.1	134	134	493	2.0	489	495	23.3	61.8
2025-08-17T09:55	10	134	0.2	133	134	489	1.7	487	493	22.8	63.2
2025-08-17T09:56	10	134	0.1	133	134	492	2.1	489	497	23.1	62.8
2025-08-17T09:57	10	133	0.2	133	134	493	3.3	487	497	23.6	61.3
2025-08-17T09:58	10	134	0.2	133	134	489	1.6	486	491	23.2	62.0
2025-08-17T09:59	10	134	0.1	133	134	489	1.8	487	493	23.3	62.0
2025-08-17T10:00	10	134	0.2	134	134	490	1.3	488	493	22.9	63.0
2025-08-17T10:01	10	134	0.2	134	135	494	0.6	493	495	23.1	62.4
2025-08-17T10:02	10	135	0.1	135	135	497	1.4	495	499	22.8	63.2
2025-08-17T10:03	10	135	0.1	135	135	501	1.6	499	504	23.3	62.2
2025-08-17T10:04	10	135	0.2	134	135	497	1.8	494	500	23.5	61.3
2025-08-17T10:05	10	135	0.1	135	136	496	1.1	495	500	23.6	61.2
2025-08-17T10:06	10	136	0.2	135	136	500	1.3	498	502	24.2	59.5
2025-08-17T10:07	10	136	0.2	135	136	496	1.4	494	499	23.5	60.8
2025-08-17T10:08	10	136	0.1	136	137	494	1.1	492	496	23.5	61.4
2025-08-17T10:09	10	136	0.1	136	136	495	0.6	494	496	23.4	61.7
2025-08-17T10:10	10	136	0.1	136	136	492	0.6	491	494	23.1	62.4
2025-08-17T10:11	10	136	0.1	136	136	494	0.7	492	495	22.9	62.8
2025-08-17T10:12	10	136	0.1	136	136	498	1.4	495	501	23.3	62.1
2025-08-17T10:13	10	136	0.1	136	137	500	1.2	498	503	23.2	62.2
2025-08-17T10:14	10	137	0.2	137	137	501	1.0	499	503	23.6	61.1
2025-08-17T10:15	10	137	0.1	137	138	498	1.8	496	502	23.5	60.9
2025-08-17T10:16	10	138	0.1	138	138	496	0.6	495	497	23.1	61.8
2025-08-17T10:17	10	137	0.2	137	138	500	1.5	497	502	23.5	61.4
2025-08-17T10:18	10	137	0.2	137	138	501	1.2	498	503	24.0	60.0
2025-08-17T10:19	10	138	0.2	137	139	499	0.6	498	501	23.5	60.4
2025-08-17T10:20	10	139	0.1	138	139	502	1.3	499	504	23.7	60.3
2025-08-17T10:21	10	139	0.2	138	139	503	1.0	501	505	23.7	60.4
2025-08-17T10:22	10	139	0.1	139	139	505	1.0	504	507	23.5	60.8
2025-08-17T10:23	10	139	0.1	139	139	506	1.0	504	507	23.7	60.6
2025-08-17T10:24	10	139	0.1	138	139	504	1.8	501	507	23.8	60.5
2025-08-17T10:25	10	139	0.1	138	139	503	0.4	502	504	23.9	60.2
2025-08-17T10:26	10	139	0.2	138	139	505	0.9	503	507	24.0	59.7
2025-08-17T10:27	10	139	0.3	138	140	506	1.2	503	507	23.8	60.0
2025-08-17T10:28	10	139	0.1	139	140	507	1.0	505	509	24.1	59.6
2025-08-17T10:29	10	139	0.1	139	140	507	0.9	505	509	24.2	59.3
2025-08-17T10:30	10	139	0.1	139	140	506	1.8	503	509	24.1	59.6
2025-08-17T10:31	10	140	0.2	140	140	503	2.4	498	508	23.9	59.5
2025-08-17T10:32	10	141	0.1	140	141	501	0.5	500	503	23.6	60.1
2025-08-17T10:33	10	141	0.1	140	141	507	2.8	502	511	23.9	60.0
2025-08-17T10:34	10	143	0.2	143	144	510	1.1	507	513	24.2	59.0
2025-08-17T10:35	10	141	0.1	141	141	500	3.7	495	507	23.7	59.7
2025-08-17T10:36	10	141	0.1	141	141	500	1.9	496	503	24.5	58.2
2025-08-17T10:37	10	141	0.1	141	141	500	1.8	497	503	24.0	59.3
2025-08-17T10:38	10	141	0.1	141	141	502	1.3	499	504	23.7	60.0
2025-08-17T10:39	10	141	0.2	140	141	507	0.9	504	508	24.2	58.9
2025-08-17T10:40	10	141	0.4	140	142	509	0.5	507	510	24.4	57.9
2025-08-17T10:41	10	142	0.1	141	142	506	0.9	504	508	24.0	58.7
2025-08-17T10:42	10	142	0.1	141	142	505	1.5	503	508	24.4	57.9
2025-08-17T10:43	10	142	0.1	142	142	504	1.0	502	506	24.1	58.4
2025-08-17T10:44	10	142	0.1	142	142	505	0.7	503	507	23.9	59.1
2025-08-17T10:45	10	142	0.2	142	143	509	1.2	507	511	24.2	58.5
2025-08-17T10:46	10	143	0.1	142	143	509	1.7	507	512	24.0	58.6
2025-08-17T10:47	10	145	0.1	145	145	511	1.4	508	513	23.9	59.1
2025-08-17T10:48	10	143	0.1	143	143	509	0.7	507	510	23.8	58.7
2025-08-17T10:49	10	143	0.1	143	143	509	1.1	507	511	24.1	57.9
2025-08-17T10:50	10	146	0.2	145	146	510	0.6	509	512	24.4	57.4
2025-08-17T10:51	10	146	0.1	146	146	512	0.9	510	514	24.3	57.5
2025-08-17T10:52	10	146	0.1	145	146	511	1.1	510	514	24.2	57.9
2025-08-17T10:53	10	145	0.3	145	146	512	1.4	509	514	24.7	57.5
2025-08-17T10:54	10	143	0.1	143	144	508	1.7	506	512	25.0	56.0
2025-08-17T10:55	10	144	0.1	143	144	507	1.6	504	509	24.3	56.8
2025-08-17T10:56	10	146	0.1	146	146	512	1.7	510	516	24.5	56.4
2025-08-17T10:57	10	146	0.1	146	146	516	1.4	515	519	25.0	55.8
2025-08-17T10:58	10	146	0.2	146	146	518	1.1	515	520	25.4	55.0
2025-08-17T10:59	10	146	0.1	146	147	517	1.6	514	519	25.2	54.9
2025-08-17T11:00	10	146	0.1	146	147	517	1.2	516	520	25.6	53.9
2025-08-17T11:01	10	146	0.2	146	147	519	1.1	517	522	25.9	52.6
2025-08-17T11:02	10	147	0.2	147	148	512	3.1	508	518	25.3	53.2
2025-08-17T11:03	10	148	0.1	147	148	514	1.2	511	516	24.8	54.7
2025-08-17T11:04	10	145	0.1	145	145	512	1.2	509	514	24.9	54.3
2025-08-17T11:05	10	147	0.5	146	147	514	1.6	510	516	24.8	53.9
2025-08-17T11:06	10	142	3.0	137	146	515	0.8	513	516	25.0	54.0
2025-08-17T11:07	10	147	0.6	145	148	518	1.0	516	520	25.4	53.4
2025-08-17T11:08	10	148	0.1	148	149	518	2.7	512	521	25.5	53.4
2025-08-17T11:09	10	146	0.1	146	146	512	1.0	510	514	24.9	54.5
2025-08-17T11:10	10	147	0.2	146	147	514	1.1	512	516	25.1	52.9
2025-08-17T11:11	10	147	0.2	146	147	515	1.4	513	517	24.9	53.0
2025-08-17T11:12	10	149	0.3	149	150	521	2.0	517	523	24.9	53.7
2025-08-17T11:13	10	150	0.2	149	150	523	0.5	521	524	25.5	52.7
2025-08-17T11:14	10	150	0.2	150	150	518	3.5	513	523	25.5	51.5
2025-08-17T11:15	10	147	0.3	146	147	514	2.1	511	517	24.9	52.6
2025-08-17T11:16	10	145	0.4	145	146	511	1.8	508	514	24.8	52.9
2025-08-17T11:17	10	145	0.3	144	146	511	1.8	508	515	25.0	51.6
2025-08-17T11:18	10	144	0.3	144	145	516	1.0	514	517	24.6	52.1
2025-08-17T11:19	10	147	0.2	147	147	521	2.5	517	524	24.9	52.0
2025-08-17T11:20	10	147	0.3	146	147	518	2.2	515	522	24.8	52.5
2025-08-17T11:21	10	147	0.2	147	148	517	1.6	514	520	25.5	50.6
2025-08-17T11:22	10	147	0.2	147	148	518	1.6	516	522	25.8	47.8
2025-08-17T11:23	10	148	0.3	147	149	522	0.4	521	522	25.9	47.4
2025-08-17T11:24	10	148	0.2	148	149	520	2.4	516	524	25.9	48.0
2025-08-17T11:25	10	148	0.2	147	149	518	0.5	517	519	25.7	48.9
2025-08-17T11:26	10	145	0.1	145	146	516	1.6	513	518	25.9	48.3
2025-08-17T11:27	10	148	0.2	148	149	518	1.7	515	522	25.5	48.0
2025-08-17T11:28	10	148	0.1	148	149	524	1.5	522	527	25.9	47.4
2025-08-17T11:29	10	149	0.3	148	149	525	1.9	522	528	26.1	46.9
2025-08-17T11:30	10	150	0.2	149	150	520	1.3	518	522	25.5	46.4
2025-08-17T11:31	10	150	0.3	150	151	520	0.9	518	522	25.8	46.6
2025-08-17T11:32	10	151	0.2	150	151	519	1.3	518	522	25.7	48.1
2025-08-17T11:33	10	151	0.2	151	152	520	1.4	518	522	25.5	49.0
2025-08-17T11:34	10	152	0.2	151	152	523	3.0	518	529	25.4	49.8
2025-08-17T11:35	10	152	0.3	152	153	528	0.9	526	530	26.0	49.5
2025-08-17T11:36	10	153	0.1	153	154	528	0.9	527	530	25.8	49.2
2025-08-17T11:37	10	153	0.2	153	153	530	0.7	528	531	26.0	49.1
2025-08-17T11:38	10	152	0.9	149	153	527	1.4	523	530	25.9	49.7
2025-08-17T11:39	10	150	2.1	146	154	524	0.9	522	526	25.9	48.6
2025-08-17T11:40	10	155	0.5	154	156	527	1.3	525	530	25.9	48.4
2025-08-17T11:41	10	156	0.3	155	156	521	2.7	516	527	25.7	48.9
2025-08-17T11:42	10	153	0.4	153	154	520	2.1	517	525	25.3	49.4
2025-08-17T11:43	10	117	34.6	64	155	516	8.3	506	527	25.5	49.3
2025-08-17T11:44	10	151	0.7	150	152	517	2.7	513	521	25.9	48.7
2025-08-17T11:45	10	153	0.2	152	153	520	1.1	519	523	25.5	49.3
2025-08-17T11:46	10	155	0.7	153	156	523	1.4	519	526	25.6	49.1
2025-08-17T11:47	10	152	0.5	151	153	526	1.0	524	528	25.4	49.5
2025-08-17T11:48	10	151	0.4	150	152	526	0.9	525	528	25.5	49.2
2025-08-17T11:49	10	150	0.2	150	150	529	1.7	525	531	26.5	47.5
2025-08-17T11:50	10	150	0.1	149	150	523	1.4	520	526	26.1	46.8
2025-08-17T11:51	10	149	0.2	149	150	526	1.2	524	528	25.6	47.8
2025-08-17T11:52	10	150	0.1	149	150	525	1.0	524	527	25.6	46.1
2025-08-17T11:53	10	150	0.1	149	150	526	1.5	524	529	25.5	47.3
2025-08-17T11:54	10	150	0.2	150	150	528	1.3	525	529	25.8	47.1
2025-08-17T11:55	10	150	0.1	150	151	525	1.7	523	529	26.1	47.7
2025-08-17T11:56	10	150	0.1	150	151	522	1.8	520	526	25.8	48.7
2025-08-17T11:57	10	151	0.3	150	151	524	1.3	522	526	25.6	49.3
2025-08-17T11:58	10	140	18.8	91	151	528	1.7	523	530	25.8	49.2
2025-08-17T11:59	10	125	27.7	86	154	520	3.0	516	524	26.1	48.7
2025-08-17T12:00	10	154	1.9	149	156	524	2.9	521	531	26.3	48.4
2025-08-17T12:01	10	155	0.3	154	155	529	3.8	523	534	26.5	48.0
2025-08-17T12:02	10	154	0.2	154	155	527	2.3	524	530	25.8	49.4
2025-08-17T12:03	10	154	0.3	153	154	528	1.5	525	530	26.0	48.4
2025-08-17T12:04	10	153	0.3	152	154	529	1.5	526	531	26.0	48.7
2025-08-17T12:05	10	151	0.8	150	153	527	0.7	526	529	26.0	48.9
2025-08-17T12:06	10	150	0.3	150	151	527	1.2	525	530	26.4	47.6
2025-08-17T12:07	10	149	0.2	149	150	524	1.2	520	526	26.0	48.0
2025-08-17T12:08	10	147	0.2	146	147	523	1.2	521	525	25.9	48.3
2025-08-17T12:09	10	147	0.3	146	147	522	1.4	520	525	25.5	48.6
2025-08-17T12:10	10	149	0.3	148	150	525	1.1	523	527	25.5	48.9
2025-08-17T12:11	10	150	0.4	149	151	527	1.3	525	530	25.8	48.6
2025-08-17T12:12	10	151	0.2	151	152	528	1.2	526	530	26.0	47.8
2025-08-17T12:13	10	151	0.2	150	151	530	1.3	528	532	26.0	47.8
2025-08-17T12:14	10	151	0.2	151	152	532	1.0	531	534	26.0	47.8
2025-08-17T12:15	10	152	0.2	151	153	533	1.5	531	536	26.6	46.6
2025-08-17T12:16	10	152	0.2	151	152	524	4.2	520	534	26.2	46.6
2025-08-17T12:17	10	148	0.2	148	149	522	1.0	520	523	26.2	46.3
2025-08-17T12:18	10	149	0.4	148	150	521	0.9	519	523	25.8	47.1
2025-08-17T12:19	10	149	0.2	149	150	523	1.7	521	528	26.1	46.8
2025-08-17T12:20	10	151	0.2	150	151	529	1.0	527	531	26.6	46.0
2025-08-17T12:21	10	150	0.1	150	151	529	1.3	526	531	26.8	45.6
2025-08-17T12:22	10	150	0.2	150	151	525	2.5	522	529	26.6	45.7
2025-08-17T12:23	10	148	0.1	148	148	523	0.8	521	525	26.1	46.6
2025-08-17T12:24	10	148	0.1	148	148	522	1.4	520	524	26.1	46.4
2025-08-17T12:25	10	150	0.1	150	151	524	1.7	522	529	25.9	46.3
2025-08-17T12:26	10	150	0.1	150	150	531	1.1	528	533	26.5	45.3
2025-08-17T12:27	10	150	0.2	149	150	529	3.0	521	532	27.0	43.8
2025-08-17T12:28	10	147	0.1	147	147	519	1.2	517	522	26.0	45.0
2025-08-17T12:29	10	147	0.1	147	147	523	1.7	520	526	25.8	45.5
2025-08-17T12:30	10	147	0.2	146	147	522	0.8	520	523	26.0	45.2
2025-08-17T12:31	10	146	0.3	145	146	522	2.8	517	525	26.5	43.8
2025-08-17T12:32	10	145	0.2	145	146	520	1.3	517	522	26.3	43.9
2025-08-17T12:33	10	145	0.1	145	145	522	2.3	520	526	26.7	43.4
2025-08-17T12:34	10	148	0.1	147	148	526	1.2	525	529	26.7	43.4
2025-08-17T12:35	10	148	0.2	148	148	528	1.2	525	530	26.9	43.2
2025-08-17T12:36	10	148	0.1	148	148	526	1.7	521	528	27.0	43.4
2025-08-17T12:37	10	145	0.3	144	145	523	1.7	521	527	26.1	44.4
2025-08-17T12:38	10	144	0.1	144	144	523	2.2	519	527	26.3	44.2
2025-08-17T12:39	10	147	0.1	147	147	525	1.0	523	526	26.4	44.2
2025-08-17T12:40	10	147	0.2	147	148	526	1.4	524	529	26.4	44.0
2025-08-17T12:41	10	147	0.1	147	148	525	1.9	522	528	26.2	44.4
2025-08-17T12:42	10	147	0.2	147	148	527	1.4	524	529	26.2	44.1
2025-08-17T12:43	10	145	0.1	145	145	524	1.1	522	526	26.1	44.1
2025-08-17T12:44	10	147	0.2	147	147	526	1.2	524	527	26.4	43.4
2025-08-17T12:45	10	147	0.1	147	148	525	0.8	523	527	26.5	43.2
2025-08-17T12:46	10	144	0.2	144	145	524	1.3	522	526	26.4	42.8
2025-08-17T12:47	10	146	0.2	146	146	528	1.4	524	530	26.3	43.1
2025-08-17T12:48	10	146	0.1	145	146	528	1.8	526	532	26.5	43.1
2025-08-17T12:49	10	145	0.1	145	146	527	0.5	526	528	26.4	43.3
2025-08-17T12:50	10	145	0.2	145	146	527	0.9	526	529	26.4	42.5
2025-08-17T12:51	10	144	0.2	144	145	526	1.4	525	529	26.8	41.9
2025-08-17T12:52	10	144	0.2	144	145	530	1.1	528	532	27.6	40.8
2025-08-17T12:53	10	145	0.1	144	145	531	1.2	529	534	27.3	40.9
2025-08-17T12:54	10	144	0.2	144	145	525	3.2	522	531	27.0	41.5
2025-08-17T12:55	10	141	0.1	141	142	524	1.3	522	526	27.3	41.6
2025-08-17T12:56	10	141	0.2	141	142	521	1.1	520	524	26.7	41.9
2025-08-17T12:57	10	141	0.1	141	141	519	0.8	518	521	26.3	41.7
2025-08-17T12:58	10	141	0.2	141	141	520	1.4	518	522	26.2	42.8
2025-08-17T12:59	10	140	0.1	140	141	522	0.9	520	524	26.3	43.1
2025-08-17T13:00	10	140	0.1	140	140	525	1.6	523	529	26.8	42.6
2025-08-17T13:01	10	143	0.2	143	143	527	1.8	525	530	27.2	41.2
2025-08-17T13:02	10	143	0.2	143	144	527	1.5	524	529	27.0	41.4
2025-08-17T13:03	10	144	0.1	143	144	530	0.8	528	531	26.8	42.2
2025-08-17T13:04	10	144	0.1	143	144	531	0.7	529	532	27.3	41.8
2025-08-17T13:05	10	144	0.1	144	144	530	0.8	528	531	27.0	41.4
2025-08-17T13:06	10	141	0.3	140	141	526	1.1	524	529	26.9	41.9
2025-08-17T13:07	10	140	0.1	140	141	523	2.2	519	527	26.6	42.2
2025-08-17T13:08	10	140	0.4	139	140	522	1.4	520	525	26.6	42.1
2025-08-17T13:09	10	141	0.1	141	142	528	2.3	523	531	27.0	41.7
2025-08-17T13:10	10	142	0.2	141	142	527	1.5	526	531	27.2	41.5
2025-08-17T13:11	10	142	0.1	141	142	528	1.0	526	529	26.9	41.8
2025-08-17T13:12	10	141	0.1	141	142	529	3.7	519	531	26.9	42.1
2025-08-17T13:13	10	139	0.1	139	139	522	2.5	518	526	26.5	42.6
2025-08-17T13:14	10	139	0.1	139	139	522	1.5	520	525	26.4	43.2
2025-08-17T13:15	10	138	0.3	138	139	526	1.1	524	529	26.7	42.8
2025-08-17T13:16	10	140	0.1	140	140	529	0.8	528	530	26.7	42.7
2025-08-17T13:17	10	140	0.1	140	140	529	1.1	527	530	26.8	42.6
2025-08-17T13:18	10	138	0.1	138	138	527	0.8	526	529	26.6	42.8
2025-08-17T13:19	10	140	0.1	140	140	529	0.8	528	531	26.9	42.5
2025-08-17T13:20	10	138	0.1	137	138	526	1.9	524	531	26.8	41.5
2025-08-17T13:21	10	137	0.2	137	138	523	1.8	521	526	26.8	42.3
2025-08-17T13:22	10	136	0.3	136	137	522	1.0	520	524	26.6	43.1
2025-08-17T13:23	10	136	0.1	135	136	521	0.9	520	523	26.9	42.5
2025-08-17T13:24	10	135	0.2	135	136	522	1.3	521	525	26.5	42.8
2025-08-17T13:25	10	135	0.3	134	135	522	1.2	520	523	26.8	41.9
2025-08-17T13:26	10	134	0.2	134	134	521	1.1	520	524	26.8	41.2
2025-08-17T13:27	10	135	0.4	134	136	523	0.8	521	524	26.7	41.1
2025-08-17T13:28	10	135	0.2	135	136	523	1.4	520	526	26.8	41.1
2025-08-17T13:29	10	135	0.2	135	136	524	1.5	521	526	27.2	41.0
2025-08-17T13:30	10	135	0.2	135	136	519	1.8	516	523	26.8	42.3
2025-08-17T13:31	10	135	0.2	135	136	520	0.5	520	522	26.6	41.9
2025-08-17T13:32	10	135	0.2	135	136	524	1.7	522	528	26.5	41.8
2025-08-17T13:33	10	135	0.2	135	135	526	2.8	521	529	27.0	41.4
2025-08-17T13:34	10	135	0.2	135	136	520	1.2	518	523	26.6	41.9
2025-08-17T13:35	10	135	0.1	135	135	525	2.0	521	528	26.9	41.7
2025-08-17T13:36	10	135	0.1	134	135	526	0.5	525	527	26.9	41.5
2025-08-17T13:37	10	135	0.1	134	135	527	1.7	523	529	26.9	41.8
2025-08-17T13:38	10	134	0.2	134	135	521	2.5	518	525	26.9	41.7
2025-08-17T13:39	10	134	0.2	134	134	523	3.0	519	528	27.4	41.0
2025-08-17T13:40	10	133	0.1	133	134	526	1.0	524	527	27.5	40.6
2025-08-17T13:41	10	133	0.2	133	133	523	1.6	521	527	27.2	40.5
2025-08-17T13:42	10	133	0.2	132	133	520	2.4	515	524	27.0	41.1
2025-08-17T13:43	10	132	0.2	132	133	517	0.8	516	519	26.6	41.8
2025-08-17T13:44	10	132	0.1	132	133	521	1.1	519	522	26.6	41.6
2025-08-17T13:45	10	132	0.1	132	132	521	1.7	519	525	26.5	41.9
2025-08-17T13:46	10	132	0.1	132	132	523	2.6	517	526	26.9	41.4
2025-08-17T13:47	10	132	0.1	132	132	519	1.2	517	521	26.5	42.0
2025-08-17T13:48	10	132	0.2	131	132	520	1.0	519	522	26.6	42.0
2025-08-17T13:49	10	131	0.2	131	131	517	1.5	515	520	26.9	41.5
2025-08-17T13:50	10	130	0.3	130	131	518	0.9	517	520	27.0	41.1
2025-08-17T13:51	10	130	0.2	129	130	523	1.6	520	525	27.1	41.3
2025-08-17T13:52	10	129	0.1	129	130	526	0.8	524	527	27.8	39.8
2025-08-17T13:53	10	129	0.1	128	129	523	2.8	518	526	27.5	40.8
2025-08-17T13:54	10	129	0.2	128	129	519	1.7	515	521	27.8	40.5
2025-08-17T13:55	10	129	0.1	129	129	520	0.9	517	522	27.8	40.6
2025-08-17T13:56	10	129	0.1	129	129	522	0.6	521	523	28.0	40.1
2025-08-17T13:57	10	129	0.2	129	129	522	1.4	520	525	27.8	40.3
2025-08-17T13:58	10	128	0.3	128	129	525	0.5	524	526	27.9	39.9
2025-08-17T13:59	10	128	0.2	128	128	523	1.5	521	526	27.4	40.9
2025-08-17T14:00	10	128	0.1	128	129	521	0.9	519	523	27.2	41.6
2025-08-17T14:01	10	128	0.1	128	129	520	2.9	513	524	27.4	41.5
2025-08-17T14:02	10	128	0.2	128	129	514	2.6	511	518	27.3	41.9
2025-08-17T14:03	10	128	0.2	127	128	517	1.0	515	519	27.7	41.4
2025-08-17T14:04	10	127	0.3	126	127	512	1.7	509	515	27.2	42.3
2025-08-17T14:05	10	126	0.2	126	127	510	0.9	509	512	27.1	42.6
2025-08-17T14:06	10	126	0.1	126	126	511	1.3	508	513	26.7	43.4
2025-08-17T14:07	10	126	0.2	126	126	512	1.3	510	515	26.7	43.8
2025-08-17T14:08	10	126	0.1	126	126	515	1.4	513	517	27.1	42.9
2025-08-17T14:09	10	126	0.2	126	126	511	0.7	509	513	26.7	43.0
2025-08-17T14:10	10	125	0.2	125	126	512	1.3	510	515	26.8	42.7
2025-08-17T14:11	10	125	0.1	125	125	513	1.1	511	515	26.8	42.5
2025-08-17T14:12	10	125	0.1	125	125	514	1.1	512	516	27.0	42.5
2025-08-17T14:13	10	125	0.1	124	125	512	1.1	510	514	27.1	42.0
2025-08-17T14:14	10	125	0.1	124	125	513	0.8	511	514	26.7	42.5
2025-08-17T14:15	10	124	0.1	124	124	514	1.3	512	516	26.9	42.0
2025-08-17T14:16	10	124	0.1	124	125	517	2.1	514	521	27.1	42.0
2025-08-17T14:17	10	125	0.2	124	125	519	1.3	516	521	27.5	41.5
2025-08-17T14:18	10	125	0.1	124	125	517	3.1	512	521	27.8	41.3
2025-08-17T14:19	10	124	0.2	124	125	512	2.0	507	514	27.1	41.9
2025-08-17T14:20	10	123	0.3	123	124	511	0.9	508	513	27.4	41.2
2025-08-17T14:21	10	122	0.3	122	123	512	1.4	509	515	27.5	40.8
2025-08-17T14:22	10	122	0.1	122	122	507	1.8	503	510	27.2	41.6
2025-08-17T14:23	10	122	0.1	121	122	508	2.3	504	511	27.1	42.2
2025-08-17T14:24	10	122	0.1	121	122	509	0.9	508	511	27.1	42.1
2025-08-17T14:25	10	122	0.1	122	122	510	1.3	508	513	26.8	42.5
2025-08-17T14:26	10	122	0.1	122	122	515	1.9	511	518	27.1	42.8
2025-08-17T14:27	10	122	0.3	121	122	509	2.9	506	516	26.7	43.2
2025-08-17T14:28	10	121	0.2	120	121	505	1.9	503	509	26.6	43.5
2025-08-17T14:29	10	120	0.1	120	121	507	1.7	504	509	27.2	42.6
2025-08-17T14:30	10	120	0.1	120	120	511	1.7	508	513	27.5	42.0
2025-08-17T14:31	10	120	0.1	120	120	513	0.7	512	515	27.6	41.8
2025-08-17T14:32	10	120	0.1	120	120	508	1.3	506	512	27.1	42.3
2025-08-17T14:33	10	120	0.1	119	120	508	0.8	507	510	27.0	42.6
2025-08-17T14:34	10	120	0.1	119	120	508	1.1	506	510	27.1	42.7
2025-08-17T14:35	10	120	0.1	119	120	509	0.8	508	511	27.3	42.8
2025-08-17T14:36	10	120	0.1	119	120	511	1.1	509	513	27.7	42.1
2025-08-17T14:37	10	119	0.1	119	120	512	1.1	510	515	27.2	42.5
2025-08-17T14:38	10	119	0.2	118	119	515	0.9	513	516	27.6	42.7
2025-08-17T14:39	10	118	0.1	118	119	514	1.6	512	517	27.9	42.0
2025-08-17T14:40	10	118	0.2	118	118	508	1.8	506	512	26.9	42.4
2025-08-17T14:41	10	118	0.1	118	118	510	0.5	509	511	26.9	42.3
2025-08-17T14:42	10	118	0.1	118	118	512	0.7	511	513	27.0	42.1
2025-08-17T14:43	10	118	0.1	118	118	510	2.1	506	513	27.0	42.8
2025-08-17T14:44	10	118	0.1	118	118	510	0.9	508	512	27.2	42.7
2025-08-17T14:45	10	118	0.1	118	118	510	2.2	505	512	27.7	42.0
2025-08-17T14:46	10	118	0.1	118	118	506	0.5	505	507	27.3	42.8
2025-08-17T14:47	10	118	0.1	118	118	506	0.9	505	508	27.4	42.4
2025-08-17T14:48	10	118	0.2	117	118	505	0.6	504	506	27.2	42.1
2025-08-17T14:49	10	111	13.3	63	118	507	1.1	503	509	27.2	42.4
2025-08-17T14:50	10	97	26.6	47	120	504	4.4	497	510	27.6	42.1
2025-08-17T14:51	10	119	0.5	118	120	510	1.7	508	513	27.7	41.5
2025-08-17T14:52	10	118	0.3	117	118	511	1.8	508	513	27.7	40.9
2025-08-17T14:53	10	117	0.3	116	117	509	0.4	508	510	27.2	41.7
2025-08-17T14:54	10	116	0.1	116	116	512	1.5	510	515	27.5	41.7
2025-08-17T14:55	10	115	0.3	114	116	514	0.6	513	515	28.1	41.3
2025-08-17T14:56	10	113	0.7	112	115	512	1.2	510	514	28.1	41.1
2025-08-17T14:57	10	112	0.4	111	112	509	0.7	507	510	27.8	41.8
2025-08-17T14:58	10	111	0.3	110	111	507	0.9	506	509	27.7	41.9
2025-08-17T14:59	10	110	0.3	109	110	504	1.8	502	507	27.3	42.5
2025-08-17T15:00	10	109	0.1	109	109	504	0.9	502	505	27.4	43.2
2025-08-17T15:01	10	109	0.2	109	110	500	2.2	496	503	27.4	43.4
2025-08-17T15:02	10	110	0.1	109	110	498	1.3	496	502	26.8	44.4
2025-08-17T15:03	10	109	0.3	109	110	501	1.1	500	503	27.1	44.0
2025-08-17T15:04	10	109	0.2	108	109	499	1.2	497	501	26.8	45.0
2025-08-17T15:05	10	108	0.1	108	109	502	1.8	499	505	26.9	45.0
2025-08-17T15:06	10	108	0.1	108	108	503	0.6	502	504	27.5	43.7
2025-08-17T15:07	10	108	0.2	108	108	505	1.6	502	507	27.8	43.1
2025-08-17T15:08	10	109	0.1	108	109	506	0.8	504	508	27.7	42.4
2025-08-17T15:09	10	109	0.1	108	109	507	0.8	506	509	27.5	42.7
2025-08-17T15:10	10	108	0.2	108	109	509	1.1	507	511	27.6	42.7
2025-08-17T15:11	10	107	0.4	107	108	505	1.3	503	507	27.5	42.9
2025-08-17T15:12	10	107	0.1	107	107	502	0.4	502	504	27.3	43.3
2025-08-17T15:13	10	107	0.2	106	107	501	3.1	496	505	27.5	42.8
2025-08-17T15:14	10	106	0.3	105	106	495	1.1	493	497	27.1	43.0
2025-08-17T15:15	10	105	0.3	104	105	496	0.9	494	498	27.0	43.3
2025-08-17T15:16	10	104	0.1	104	105	498	1.0	496	500	27.1	43.4
2025-08-17T15:17	10	104	0.1	104	104	499	1.3	496	501	27.3	43.0
2025-08-17T15:18	10	105	0.2	104	105	502	1.0	500	503	27.3	42.9
2025-08-17T15:19	10	105	0.1	105	105	504	0.8	502	505	27.6	42.6
2025-08-17T15:20	10	106	0.2	105	106	503	1.0	502	505	27.8	42.2
2025-08-17T15:21	10	105	0.4	104	106	500	2.8	497	504	27.7	41.5
2025-08-17T15:22	10	104	0.4	103	105	496	0.8	495	498	27.1	41.9
2025-08-17T15:23	10	103	0.2	103	103	495	0.8	493	497	27.0	42.2
2025-08-17T15:24	10	103	0.2	102	103	500	1.3	497	501	27.6	41.7
2025-08-17T15:25	10	102	0.1	102	103	499	1.2	497	501	27.8	41.5
2025-08-17T15:26	10	102	0.3	101	102	497	1.2	495	499	27.5	42.6
2025-08-17T15:27	10	101	0.2	101	101	499	0.8	497	500	27.8	42.5
2025-08-17T15:28	10	100	0.2	100	101	498	0.8	496	499	27.7	42.4
2025-08-17T15:29	10	100	0.2	99	100	495	0.8	493	496	27.5	42.5
2025-08-17T15:30	10	99	0.3	98	100	492	1.1	490	494	27.2	42.4
2025-08-17T15:31	10	98	0.2	98	99	494	0.5	493	495	27.3	42.0
2025-08-17T15:32	10	98	0.1	98	98	495	0.6	493	496	27.4	41.5
2025-08-17T15:33	10	98	0.1	98	98	495	0.7	494	496	27.3	41.8
2025-08-17T15:34	10	98	0.1	98	98	496	0.6	495	497	27.4	42.3
2025-08-17T15:35	10	98	0.2	97	98	492	1.4	490	495	27.1	42.5
2025-08-17T15:36	10	97	0.1	97	97	492	0.5	491	493	27.3	42.4
2025-08-17T15:37	10	96	0.3	96	97	491	1.3	489	494	27.0	43.1
2025-08-17T15:38	10	96	0.1	96	96	492	0.5	491	493	27.0	43.5
2025-08-17T15:39	10	95	0.2	95	96	490	0.5	489	491	26.9	43.7
2025-08-17T15:40	10	95	0.2	94	95	491	0.4	491	493	26.9	43.9
2025-08-17T15:41	10	94	0.3	94	95	490	0.9	489	492	26.9	43.4
2025-08-17T15:42	10	93	0.2	93	94	491	1.0	490	493	27.0	43.0
2025-08-17T15:43	10	93	0.3	92	93	490	0.7	489	491	26.8	43.0
2025-08-17T15:44	10	92	0.1	92	92	488	1.0	486	490	26.9	43.3
2025-08-17T15:45	10	92	0.1	91	92	488	0.9	486	489	27.2	42.8
2025-08-17T15:46	10	91	0.2	91	91	488	0.6	487	489	27.3	42.6
2025-08-17T15:47	10	91	0.3	90	91	485	0.5	484	487	26.9	43.2
2025-08-17T15:48	10	90	0.2	89	90	485	0.3	485	486	27.0	43.2
2025-08-17T15:49	10	89	0.3	88	90	485	0.7	483	486	26.9	43.3
2025-08-17T15:50	10	88	0.1	88	89	485	1.0	483	487	26.9	43.2
2025-08-17T15:51	10	88	0.1	88	88	488	0.9	486	489	27.4	42.6
2025-08-17T15:52	10	88	0.1	88	88	489	0.7	487	490	27.4	42.5
2025-08-17T15:53	10	88	0.1	88	88	488	1.3	486	490	27.5	42.2
2025-08-17T15:54	10	88	0.1	88	88	486	0.5	485	487	27.5	42.4
2025-08-17T15:55	10	88	0.1	88	88	485	1.0	483	487	27.3	42.8
2025-08-17T15:56	10	88	0.1	88	88	482	0.6	481	484	27.0	42.9
2025-08-17T15:57	10	87	0.2	87	88	484	1.6	481	486	27.1	42.9
2025-08-17T15:58	10	87	0.1	87	87	484	1.1	482	486	27.1	44.1
2025-08-17T15:59	10	87	0.2	86	87	483	0.4	482	484	26.9	44.6
2025-08-17T16:00	10	86	0.1	86	87	484	0.8	483	486	27.0	44.5
2025-08-17T16:01	10	86	0.2	86	87	487	0.9	485	488	27.0	44.5
2025-08-17T16:02	10	85	0.3	85	86	484	1.3	482	486	27.2	44.2
2025-08-17T16:03	10	85	0.2	84	85	481	0.8	480	483	27.0	44.8
2025-08-17T16:04	10	84	0.2	84	84	480	0.5	479	481	26.7	45.4
2025-08-17T16:05	10	84	0.2	83	84	482	0.7	480	483	26.8	45.3
2025-08-17T16:06	10	83	0.1	83	83	481	0.7	479	482	26.8	45.0
2025-08-17T16:07	10	83	0.2	83	83	480	0.6	479	481	27.0	45.0
2025-08-17T16:08	10	83	0.2	82	83	478	1.0	477	480	26.7	45.2
2025-08-17T16:09	10	82	0.3	81	82	479	0.7	478	480	26.8	45.2
2025-08-17T16:10	10	81	0.1	81	82	480	0.5	480	482	26.9	45.0
2025-08-17T16:11	10	81	0.2	81	81	480	0.2	479	480	26.9	44.9
2025-08-17T16:12	10	80	0.2	80	80	480	0.3	479	480	26.8	44.7
2025-08-17T16:13	10	80	0.1	79	80	479	0.4	479	481	26.8	44.7
2025-08-17T16:14	10	79	0.2	78	79	477	1.0	475	479	26.6	44.7
2025-08-17T16:15	10	78	0.2	78	79	476	0.5	475	477	26.6	44.8
2025-08-17T16:16	10	77	0.3	77	78	476	0.2	476	477	26.5	44.6
2025-08-17T16:17	10	77	0.1	77	77	476	0.4	476	477	26.7	44.4
2025-08-17T16:18	10	76	0.1	76	77	475	0.8	474	477	26.6	44.3
2025-08-17T16:19	10	76	0.1	76	77	476	0.5	475	477	26.6	44.4
2025-08-17T16:20	10	76	0.2	75	76	476	0.6	475	477	26.8	44.4
2025-08-17T16:21	10	75	0.3	75	76	476	1.0	474	478	26.8	44.8
2025-08-17T16:22	10	74	0.4	73	75	474	0.4	473	475	26.5	45.7
2025-08-17T16:23	10	73	0.4	72	73	473	0.9	472	475	26.6	45.7
2025-08-17T16:24	10	72	0.3	71	72	473	0.6	472	474	26.5	45.7
2025-08-17T16:25	10	71	0.3	70	71	473	0.7	471	474	26.6	45.6
2025-08-17T16:26	10	70	0.1	70	70	474	0.3	473	474	26.7	45.6
2025-08-17T16:27	10	70	0.1	70	70	473	0.8	472	475	26.7	45.4
2025-08-17T16:28	10	70	0.1	69	70	473	0.4	472	474	26.8	45.4
2025-08-17T16:29	10	69	0.1	69	70	473	0.4	472	474	26.8	45.2
2025-08-17T16:30	10	69	0.1	69	69	474	0.4	473	475	26.9	45.2
2025-08-17T16:31	10	69	0.1	69	69	473	1.2	470	474	26.9	45.1
2025-08-17T16:32	10	69	0.2	68	69	473	0.7	471	474	26.9	45.5
2025-08-17T16:33	10	68	0.1	68	68	474	0.6	473	475	27.0	45.4
2025-08-17T16:34	10	68	0.2	67	68	474	1.3	471	475	27.0	45.1
2025-08-17T16:35	10	67	0.1	67	67	471	0.3	470	471	26.6	45.4
2025-08-17T16:36	10	67	0.2	67	67	470	0.5	469	471	26.6	45.5
2025-08-17T16:37	10	67	0.1	66	67	472	1.0	470	473	26.7	45.4
2025-08-17T16:38	10	66	0.1	66	67	471	0.9	470	473	26.8	45.0
2025-08-17T16:39	10	66	0.2	66	67	470	1.1	468	471	26.7	45.2
2025-08-17T16:40	10	66	0.2	65	66	469	0.5	468	470	26.5	45.5
2025-08-17T16:41	10	65	0.2	65	65	470	0.4	470	471	26.6	45.3
2025-08-17T16:42	10	64	0.3	64	65	471	0.5	470	471	26.6	45.5
2025-08-17T16:43	10	63	0.2	63	64	469	0.8	467	470	26.5	45.3
2025-08-17T16:44	10	63	0.3	62	63	468	0.3	467	468	26.5	45.2
2025-08-17T16:45	10	62	0.2	62	63	467	0.5	466	468	26.4	44.7
2025-08-17T16:46	10	62	0.2	62	62	466	0.2	466	467	26.5	44.8
2025-08-17T16:47	10	62	0.1	61	62	467	0.3	466	468	26.6	44.9
2025-08-17T16:48	10	61	0.2	61	61	467	0.6	466	468	26.5	45.0
2025-08-17T16:49	10	60	0.3	60	61	466	0.4	465	466	26.5	45.1
2025-08-17T16:50	10	59	0.2	59	60	465	0.3	465	466	26.4	45.2
2025-08-17T16:51	10	59	0.2	58	59	464	0.7	463	466	26.5	45.4
2025-08-17T16:52	10	58	0.2	58	59	464	0.5	463	465	26.4	45.5
2025-08-17T16:53	10	58	0.2	57	58	462	0.5	462	464	26.2	45.8
2025-08-17T16:54	10	57	0.2	57	58	462	0.4	462	463	26.2	45.8
2025-08-17T16:55	10	56	0.2	56	57	462	0.3	461	462	26.1	45.9
2025-08-17T16:56	10	56	0.1	56	57	462	0.5	461	463	26.2	46.1
2025-08-17T16:57	10	56	0.2	55	56	464	0.4	462	464	26.3	46.2
2025-08-17T16:58	10	55	0.3	54	55	463	0.3	463	464	26.3	45.9
2025-08-17T16:59	10	54	0.2	54	55	462	0.3	462	463	26.3	46.1
2025-08-17T17:00	10	53	2.5	47	55	462	0.5	461	463	26.4	46.0
2025-08-17T17:01	10	50	7.3	31	55	462	1.3	459	463	26.4	46.0
2025-08-17T17:02	10	42	8.0	31	54	458	0.5	457	459	26.2	46.2
2025-08-17T17:03	10	54	0.1	53	54	459	0.3	458	460	26.1	46.7
2025-08-17T17:04	10	54	0.2	54	54	461	0.5	460	462	26.1	47.0
2025-08-17T17:05	10	53	0.8	51	54	461	0.4	460	462	26.1	47.1
2025-08-17T17:06	10	35	10.9	21	52	458	1.9	455	461	26.0	47.5
2025-08-17T17:07	10	50	1.2	49	52	459	0.9	457	460	26.0	47.8
2025-08-17T17:08	10	41	6.0	34	49	458	0.8	457	460	26.0	47.9
2025-08-17T17:09	10	37	3.2	29	41	456	0.3	456	457	26.0	48.2
2025-08-17T17:10	10	26	1.9	23	29	454	0.9	453	456	26.0	48.3
2025-08-17T17:11	10	36	7.1	28	46	453	0.6	452	455	25.9	48.4
2025-08-17T17:12	10	45	0.3	45	46	454	0.3	454	455	25.8	48.2
2025-08-17T17:13	10	45	0.2	44	45	455	0.3	454	455	25.8	48.3
2025-08-17T17:14	10	44	1.0	42	45	454	0.2	454	454	25.8	48.3
2025-08-17T17:15	10	42	0.3	42	43	454	0.2	453	454	25.8	48.3
2025-08-17T17:16	10	43	0.2	42	43	454	0.2	453	455	25.8	48.3
2025-08-17T17:17	10	42	0.4	41	43	453	0.2	453	454	25.8	48.1
2025-08-17T17:18	10	39	2.6	34	42	452	0.4	452	453	25.7	48.2
2025-08-17T17:19	10	38	1.4	35	39	452	0.3	451	453	25.7	48.2
2025-08-17T17:20	10	39	0.1	38	39	451	0.2	451	452	25.7	48.2
2025-08-17T17:21	10	38	0.5	37	39	451	0.3	450	452	25.7	48.2
2025-08-17T17:22	10	39	0.1	39	39	451	0.2	451	451	25.7	47.7
2025-08-17T17:23	10	39	0.2	39	40	451	0.3	451	452	25.8	47.9
2025-08-17T17:24	10	39	0.1	39	40	451	0.3	451	452	25.7	48.0
2025-08-17T17:25	10	39	0.1	39	39	451	0.2	451	452	25.7	48.1
2025-08-17T17:26	10	39	0.2	38	39	450	0.2	450	451	25.6	48.0
2025-08-17T17:27	10	38	0.2	38	39	450	0.2	449	450	25.6	48.0
2025-08-17T17:28	10	38	0.1	37	38	450	0.2	449	450	25.6	48.0
2025-08-17T17:29	10	37	0.1	37	38	450	0.2	449	450	25.6	48.1
2025-08-17T17:30	10	35	2.0	31	37	450	0.2	449	451	25.6	48.3
2025-08-17T17:31	10	36	0.3	36	37	450	0.2	449	450	25.6	48.3
2025-08-17T17:32	10	35	0.2	35	36	449	0.2	448	449	25.5	48.2
2025-08-17T17:33	10	35	0.2	34	35	448	0.3	448	449	25.6	48.6
2025-08-17T17:34	10	34	0.3	33	34	448	0.3	447	448	25.5	48.5
2025-08-17T17:35	10	33	0.3	32	33	447	0.2	447	447	25.5	48.6
2025-08-17T17:36	10	32	0.4	31	33	447	0.3	446	447	25.5	48.8
2025-08-17T17:37	10	31	0.3	30	31	446	0.2	446	446	25.5	48.9
2025-08-17T17:38	10	30	0.3	29	30	445	0.3	445	446	25.5	48.6
2025-08-17T17:39	10	29	0.3	28	29	445	0.2	444	445	25.4	48.8
2025-08-17T17:40	10	28	0.3	27	28	444	0.2	444	445	25.4	48.8
2025-08-17T17:41	10	27	0.4	26	27	444	0.3	443	444	25.4	49.2
2025-08-17T17:42	10	25	0.3	25	26	443	0.3	443	444	25.4	49.6
2025-08-17T17:43	10	25	0.2	24	25	443	0.2	442	443	25.3	49.3
2025-08-17T17:44	10	23	1.8	18	25	442	0.2	442	443	25.3	49.5
2025-08-17T17:45	10	19	3.8	14	24	442	0.4	441	442	25.3	49.6
2025-08-17T17:46	10	23	0.2	23	24	441	0.2	440	441	25.3	49.8
2025-08-17T17:47	10	23	0.1	23	23	441	0.2	440	441	25.2	50.0
2025-08-17T17:48	10	22	0.2	22	23	441	0.2	440	441	25.2	49.7
2025-08-17T17:49	10	21	0.3	21	22	440	0.3	440	441	25.2	49.3
2025-08-17T17:50	10	20	0.3	20	21	441	0.3	440	441	25.3	48.9
2025-08-17T17:51	10	19	0.5	19	20	440	0.3	439	441	25.2	49.0
2025-08-17T17:52	10	20	0.1	19	20	440	0.3	439	440	25.2	49.3
2025-08-17T17:53	10	20	0.1	19	20	439	0.2	439	440	25.1	49.5
2025-08-17T17:54	10	19	0.2	19	20	439	0.2	438	439	25.1	49.3
2025-08-17T17:55	10	18	0.3	18	19	438	0.3	438	439	25.1	49.1
2025-08-17T17:56	10	18	0.2	18	18	438	0.3	438	439	25.1	48.4
2025-08-17T17:57	10	18	0.2	17	18	438	0.3	437	439	25.1	48.2
2025-08-17T17:58	10	17	0.2	17	18	437	0.3	437	438	25.1	48.2
2025-08-17T17:59	10	17	0.2	16	17	437	0.3	436	437	25.0	48.2
2025-08-17T18:00	10	16	0.2	16	17	436	0.2	436	437	25.0	48.0
2025-08-17T18:01	10	16	0.3	15	16	436	0.3	435	436	25.0	47.7
2025-08-17T18:02	10	15	0.2	15	16	436	0.5	435	437	25.0	46.6
2025-08-17T18:03	10	15	0.3	14	15	436	0.3	435	437	25.1	45.6
2025-08-17T18:04	10	14	0.2	13	14	436	0.6	435	437	25.1	45.2
2025-08-17T18:05	10	13	0.2	13	14	435	0.3	434	436	25.0	45.5
2025-08-17T18:06	10	13	0.2	12	13	435	0.4	434	436	25.0	45.1
2025-08-17T18:07	10	12	0.2	12	13	435	0.4	434	436	25.1	44.8
2025-08-17T18:08	10	12	0.2	11	13	434	0.5	433	435	25.0	45.2
2025-08-17T18:09	10	11	0.2	11	12	434	0.3	433	434	24.9	45.3
2025-08-17T18:10	10	11	0.1	10	11	434	0.3	433	435	24.9	45.3
2025-08-17T18:11	10	10	0.2	10	11	433	0.5	432	434	24.9	45.1
2025-08-17T18:12	10	10	0.2	9	10	433	0.4	432	434	24.9	45.1
2025-08-17T18:13	10	9	0.2	9	10	433	0.4	432	434	24.9	44.8
2025-08-17T18:14	10	9	0.2	8	9	432	0.5	431	433	24.8	45.3
2025-08-17T18:15	10	8	0.2	8	9	431	0.3	431	432	24.7	45.7
2025-08-17T18:16	10	8	0.2	7	8	431	0.3	430	431	24.7	45.5
2025-08-17T18:17	10	7	0.2	7	7	430	0.2	430	431	24.7	45.6
2025-08-17T18:18	10	7	0.2	6	7	430	0.3	429	430	24.6	45.6
2025-08-17T18:19	10	6	0.2	6	6	430	0.4	429	431	24.6	45.6
2025-08-17T18:20	10	6	0.2	5	6	429	0.5	428	430	24.6	45.4
2025-08-17T18:21	10	5	0.3	4	5	429	0.5	428	430	24.6	45.5
2025-08-17T18:22	10	4	0.4	3	5	428	0.5	427	429	24.5	45.7
2025-08-17T18:23	10	3	0.3	2	3	429	0.5	427	429	24.6	45.2
2025-08-17T18:24	10	2	0.1	2	3	428	0.4	427	428	24.5	45.4
2025-08-17T18:25	10	2	0.1	2	2	428	0.3	427	428	24.5	45.5
2025-08-17T18:26	10	2	0.1	2	2	427	0.5	426	428	24.5	45.2
2025-08-17T18:27	10	2	0.1	2	2	427	0.4	426	428	24.5	45.1
2025-08-17T18:28	10	2	0.1	2	2	428	0.5	426	429	24.5	45.0
2025-08-17T18:29	10	2	0.1	1	2	428	0.5	427	428	24.5	44.8
2025-08-17T18:30	10	2	0.1	1	2	427	0.3	427	428	24.5	44.8
2025-08-17T18:31	10	1	0.1	1	2	427	0.3	427	427	24.5	44.8
2025-08-17T18:32	10	1	0.1	1	2	427	0.4	426	427	24.4	45.0
2025-08-17T18:33	10	1	0.1	1	2	427	0.2	426	427	24.4	45.1
2025-08-17T18:34	10	1	0.1	1	2	426	0.3	425	427	24.4	45.3
2025-08-17T18:35	10	1	0.1	1	1	426	0.4	425	427	24.4	45.0
2025-08-17T18:36	10	1	0.1	1	1	425	0.3	425	426	24.3	45.5
2025-08-17T18:37	10	1	0.1	1	1	425	0.2	424	425	24.3	45.5
2025-08-17T18:38	10	1	0.1	1	1	424	0.2	423	425	24.3	45.5
2025-08-17T18:39	10	1	0.1	1	1	423	0.2	423	424	24.2	45.7
2025-08-17T18:40	10	1	0.1	0	1	425	0.5	423	425	24.3	45.2
2025-08-17T18:41	10	1	0.1	0	1	425	0.5	423	426	24.3	45.0
2025-08-17T18:42	10	1	0.1	0	1	423	0.3	423	424	24.1	45.7
2025-08-17T18:43	10	0	0.1	0	1	423	0.4	422	424	24.1	45.8
2025-08-17T18:44	10	0	0.1	0	1	422	0.3	422	423	24.0	46.0
2025-08-17T18:45	10	0	0.1	0	1	422	0.2	421	422	24.0	46.0
2025-08-17T18:46	10	0	0.1	0	1	422	0.6	421	423	24.0	45.8
2025-08-17T18:47	10	0	0.1	0	1	423	0.2	422	423	24.1	45.5
2025-08-17T18:48	10	0	0.1	0	0	422	0.4	422	423	24.1	45.4
2025-08-17T18:49	10	0	0.1	0	0	421	0.4	421	422	24.0	45.9
2025-08-17T18:50	10	0	0.1	0	0	421	0.6	420	422	24.0	45.8
2025-08-17T18:51	10	0	0.1	0	1	422	0.3	421	423	24.0	45.8
2025-08-17T18:52	10	0	0.2	0	1	422	0.5	421	423	24.0	45.5
2025-08-17T18:53	10	0	0.2	0	1	422	0.4	421	423	23.9	45.7
2025-08-17T18:54	10	0	0.2	0	1	421	0.3	420	421	23.8	46.4
2025-08-17T18:55	10	0	0.2	0	1	420	0.4	420	421	23.7	46.5
2025-08-17T18:56	10	0	0.2	0	1	421	0.3	420	421	23.8	46.0
2025-08-17T18:57	10	0	0.2	0	1	419	0.6	418	421	23.7	46.2
2025-08-17T18:58	10	0	0.1	0	0	419	0.3	419	420	23.7	45.7
2025-08-17T18:59	10	0	0.2	0	1	419	0.4	418	420	23.6	46.0
2025-08-17T19:00	10	0	0.1	0	0	418	0.3	418	419	23.6	46.2
2025-08-17T19:01	10	0	0.1	0	1	418	0.3	418	419	23.5	46.0
2025-08-17T19:02	10	0	0.1	0	0	418	0.4	417	419	23.5	45.9
2025-08-17T19:03	10	0	0.1	0	0	418	0.3	417	418	23.5	45.9
2025-08-17T19:04	10	0	0.1	0	0	418	0.2	418	418	23.5	45.6
2025-08-17T19:05	10	0	0.1	0	0	418	0.2	417	418	23.5	45.7
2025-08-17T19:06	10	0	0.1	0	0	419	0.8	417	420	23.5	45.6
2025-08-17T19:07	10	0	0.1	0	0	419	0.4	418	420	23.5	45.4
2025-08-17T19:08	10	0	0.1	0	0	418	0.4	417	419	23.4	45.9
2025-08-17T19:09	10	0	0.1	0	0	417	0.3	416	417	23.3	46.3
2025-08-17T19:10	10	0	0.1	0	0	416	0.3	415	417	23.3	46.2
2025-08-17T19:11	10	0	0.1	0	0	416	0.4	416	417	23.3	45.9
2025-08-17T19:12	10	0	0.1	0	0	416	0.3	415	416	23.2	46.1
2025-08-17T19:13	10	0	0.1	0	0	416	0.4	416	417	23.2	45.3
2025-08-17T19:14	10	0	0.1	0	0	417	0.3	416	417	23.2	45.5
2025-08-17T19:15	10	0	0.1	0	0	416	0.4	415	417	23.1	45.4
2025-08-17T19:16	10	0	0.1	0	0	416	0.8	414	418	23.2	45.0
2025-08-17T19:17	10	0	0.1	0	0	417	0.3	416	417	23.3	44.5
2025-08-17T19:18	10	0	0.1	0	0	416	0.2	415	416	23.1	45.0
2025-08-17T19:19	10	0	0.1	0	0	416	0.4	415	417	23.2	44.5
2025-08-17T19:20	10	0	0.1	0	0	416	0.5	415	417	23.2	44.7
2025-08-17T19:21	10	0	0.1	0	0	415	0.5	414	416	23.0	45.2
2025-08-17T19:22	10	0	0.1	0	0	415	0.6	414	416	23.0	45.3
2025-08-17T19:23	10	0	0.1	0	0	414	0.2	414	415	22.9	45.6
2025-08-17T19:24	10	0	0.1	0	0	414	0.3	413	414	22.8	45.8
2025-08-17T19:25	10	0	0.1	0	0	415	0.4	414	415	22.9	45.6
2025-08-17T19:26	10	0	0.1	0	0	415	0.3	415	416	22.9	45.4
2025-08-17T19:27	10	0	0.1	0	0	415	0.3	414	415	22.9	45.5
2025-08-17T19:28	10	0	0.1	0	0	414	0.2	414	415	22.9	45.6
2025-08-17T19:29	10	0	0.1	0	0	414	0.4	414	415	22.8	46.0
2025-08-17T19:30	10	0	0.1	0	0	413	0.5	412	414	22.8	46.0
2025-08-17T19:31	10	0	0.1	0	0	412	0.4	411	413	22.7	46.6
2025-08-17T19:32	10	0	0.1	0	0	412	0.2	411	413	22.6	46.9
2025-08-17T19:33	10	0	0.1	0	0	412	0.3	411	412	22.5	47.2
2025-08-17T19:34	10	0	0.1	0	0	412	0.2	411	412	22.5	47.0
2025-08-17T19:35	10	0	0.1	0	0	412	0.5	411	413	22.6	46.8
2025-08-17T19:36	10	0	0.1	0	0	412	0.5	411	413	22.6	46.8
2025-08-17T19:37	10	0	0.1	0	0	411	0.2	411	412	22.5	47.3
2025-08-17T19:38	10	0	0.1	0	0	411	0.2	411	411	22.4	47.3
2025-08-17T19:39	10	0	0.1	0	0	411	0.3	410	411	22.4	47.2
2025-08-17T19:40	10	0	0.1	0	0	410	0.3	410	411	22.3	47.5
2025-08-17T19:41	10	0	0.1	0	0	410	0.5	409	411	22.4	47.0
2025-08-17T19:42	10	0	0.1	0	0	411	0.3	410	412	22.4	46.9
2025-08-17T19:43	10	0	0.1	0	0	411	0.3	410	412	22.3	46.9
2025-08-17T19:44	10	0	0.1	0	1	411	0.4	410	412	22.4	46.6
2025-08-17T19:45	10	0	0.1	0	0	410	0.3	409	411	22.3	47.0
2025-08-17T19:46	10	0	0.2	0	1	410	0.2	409	410	22.3	47.0
2025-08-17T19:47	10	0	0.2	0	0	410	0.5	409	411	22.2	47.1
2025-08-17T19:48	10	0	0.2	0	0	409	0.2	409	410	22.1	47.3
2025-08-17T19:49	10	0	0.2	-1	0	409	0.4	408	410	22.2	47.2
2025-08-17T19:50	10	0	0.1	0	0	408	0.4	407	409	22.1	47.5
2025-08-17T19:51	10	0	0.2	0	1	408	0.3	407	408	22.0	48.0
2025-08-17T19:52	10	0	0.2	0	0	407	0.3	406	408	22.0	48.1
2025-08-17T19:53	10	0	0.2	-1	0	407	0.3	406	407	22.0	48.7
2025-08-17T19:54	10	0	0.2	0	1	406	0.3	405	407	21.9	49.5
2025-08-17T19:55	10	0	0.1	0	0	405	0.4	405	406	21.9	50.0
2025-08-17T19:56	10	0	0.1	0	0	405	0.2	405	405	21.8	50.4
2025-08-17T19:57	10	0	0.2	0	0	405	0.3	404	405	21.7	51.0
2025-08-17T19:58	10	0	0.1	0	0	405	0.4	404	406	21.7	51.5
2025-08-17T19:59	10	0	0.1	0	0	405	0.3	404	405	21.7	51.5
2025-08-17T20:00	10	0	0.1	0	0	404	0.3	403	405	21.7	51.8
2025-08-17T20:01	10	0	0.1	0	0	404	0.3	403	404	21.6	52.3
2025-08-17T20:02	10	0	0.1	0	0	403	0.2	402	403	21.5	52.7
2025-08-17T20:03	10	0	0.1	0	0	402	0.2	402	403	21.5	53.1
2025-08-17T20:04	10	0	0.1	0	0	402	0.3	402	403	21.5	53.5
2025-08-17T20:05	10	0	0.1	0	0	402	0.3	401	402	21.4	53.7
2025-08-17T20:06	10	0	0.0	0	0	402	0.4	401	402	21.4	54.1
2025-08-17T20:07	10	0	0.1	0	0	402	0.3	401	402	21.4	54.5
2025-08-17T20:08	10	0	0.1	0	0	402	0.2	401	402	21.3	54.8
2025-08-17T20:09	10	0	0.1	0	0	402	0.2	401	402	21.3	55.2
2025-08-17T20:10	10	0	0.1	0	0	402	0.6	401	403	21.3	55.4
2025-08-17T20:11	10	0	0.1	0	0	402	0.3	402	403	21.3	55.6
2025-08-17T20:12	10	0	0.1	0	0	403	0.5	402	404	21.2	55.7
2025-08-17T20:13	10	0	0.1	0	0	403	0.2	403	403	21.2	55.8
2025-08-17T20:14	10	0	0.1	0	0	403	0.3	402	403	21.2	55.7
2025-08-17T20:15	10	0	0.1	0	0	403	0.4	402	403	21.3	55.1
2025-08-17T20:16	10	0	0.1	0	0	403	0.2	402	403	21.3	55.1
2025-08-17T20:17	10	0	0.1	0	0	402	0.5	401	403	21.3	55.1
2025-08-17T20:18	10	0	0.1	0	0	401	0.2	401	402	21.2	55.1
2025-08-17T20:19	10	0	0.1	0	0	401	0.4	400	401	21.3	55.3
2025-08-17T20:20	10	0	0.1	0	0	399	0.4	399	400	21.2	55.6
2025-08-17T20:21	10	0	0.1	0	0	399	0.2	398	399	21.1	55.9
2025-08-17T20:22	10	0	0.1	0	0	399	0.2	398	399	21.1	56.4
2025-08-17T20:23	10	0	0.1	0	0	398	0.2	398	399	21.0	57.0
2025-08-17T20:24	10	0	0.1	0	0	399	0.2	398	399	21.0	57.2
2025-08-17T20:25	10	0	0.1	0	0	398	0.2	398	399	21.0	57.6
2025-08-17T20:26	10	0	0.1	0	0	398	0.2	397	398	20.9	58.0
2025-08-17T20:27	10	0	0.1	0	0	397	0.3	397	398	20.8	58.2
2025-08-17T20:28	10	0	0.1	0	0	397	0.2	397	397	20.8	58.2
2025-08-17T20:29	10	0	0.1	0	0	396	0.2	396	397	20.8	58.2
2025-08-17T20:30	10	0	0.1	0	0	396	0.2	396	397	20.8	57.9
2025-08-17T20:31	10	0	0.1	0	0	396	0.2	395	397	20.8	57.8
2025-08-17T20:32	10	0	0.1	0	0	395	0.3	395	396	20.8	58.0
2025-08-17T20:33	10	0	0.1	0	0	395	0.2	395	396	20.8	57.8
2025-08-17T20:34	10	0	0.1	0	0	395	0.3	394	395	20.7	57.8
2025-08-17T20:35	10	0	0.1	0	0	395	0.3	395	396	20.7	57.8
2025-08-17T20:36	10	0	0.1	0	0	396	0.3	395	396	20.7	57.4
2025-08-17T20:37	10	0	0.1	0	0	396	0.2	395	396	20.7	56.9
2025-08-17T20:38	10	0	0.1	0	0	396	0.2	395	396	20.8	56.6
2025-08-17T20:39	10	0	0.1	0	0	395	0.3	395	396	20.8	56.0
2025-08-17T20:40	10	0	0.1	0	0	395	0.4	394	396	20.9	55.6
2025-08-17T20:41	10	0	0.1	0	0	395	0.3	394	396	20.9	54.8
2025-08-17T20:42	10	0	0.1	0	0	395	0.3	394	395	21.0	54.5
2025-08-17T20:43	10	0	0.0	0	0	395	0.2	394	395	20.9	54.8
2025-08-17T20:44	10	0	0.1	0	0	396	0.6	395	397	20.9	54.1
2025-08-17T20:45	10	0	0.0	0	0	396	0.3	396	397	20.9	54.3
2025-08-17T20:46	10	0	0.1	0	0	396	0.3	395	396	20.9	53.7
2025-08-17T20:47	10	0	0.0	0	0	397	0.3	396	397	21.1	53.0
2025-08-17T20:48	10	0	0.0	0	0	397	0.2	396	397	21.1	52.7
2025-08-17T20:49	10	0	0.1	0	0	397	0.2	397	397	21.2	52.2
2025-08-17T20:50	10	0	0.0	0	0	398	0.4	397	399	21.2	51.4
2025-08-17T20:51	10	0	0.1	0	0	399	0.6	398	400	21.3	50.8
2025-08-17T20:52	10	0	0.1	0	0	400	0.3	399	401	21.3	51.3
2025-08-17T20:53	10	0	0.1	0	0	400	0.3	399	401	21.2	51.5
2025-08-17T20:54	10	0	0.1	0	0	400	0.3	399	400	21.1	51.7
2025-08-17T20:55	10	0	0.1	0	0	400	0.3	399	401	21.0	51.9
2025-08-17T20:56	10	0	0.2	0	1	399	0.3	398	400	21.0	52.0
2025-08-17T20:57	10	0	0.1	0	0	399	0.2	399	400	20.9	52.3
2025-08-17T20:58	10	0	0.1	0	0	399	0.3	398	399	20.9	52.3
2025-08-17T20:59	10	0	0.2	0	1	398	0.4	397	398	20.9	52.5
2025-08-17T21:00	10	1	2.3	0	14	397	0.4	397	398	20.8	52.4
2025-08-17T21:01	10	0	0.2	0	1	397	0.3	396	397	20.9	52.2
2025-08-17T21:02	10	0	0.1	-1	0	397	0.3	396	397	20.9	51.8
2025-08-17T21:03	10	0	0.2	0	0	397	0.3	396	398	20.9	51.7
2025-08-17T21:04	10	0	0.1	0	0	397	0.2	396	397	20.9	51.7
2025-08-17T21:05	10	0	0.1	0	0	397	0.4	396	397	20.9	50.0
2025-08-17T21:06	10	0	0.1	0	0	397	0.3	396	397	20.9	51.7
2025-08-17T21:07	10	0	0.1	0	0	396	0.5	395	397	20.9	51.7
2025-08-17T21:08	10	0	0.2	0	1	395	0.6	394	397	20.9	51.7
2025-08-17T21:09	10	0	0.2	0	0	394	0.5	393	395	20.9	51.7
2025-08-17T21:10	10	0	0.1	0	0	394	0.2	393	395	20.4	54.3
2025-08-17T21:11	10	0	0.2	0	0	393	0.3	392	394	20.4	55.1
2025-08-17T21:12	10	0	0.1	-1	0	393	0.3	392	394	20.3	56.2
2025-08-17T21:13	10	0	0.1	0	0	392	0.5	391	393	20.3	55.8
2025-08-17T21:14	10	0	0.1	0	0	391	0.3	391	392	20.2	56.7
2025-08-17T21:15	10	0	0.1	0	0	390	0.4	390	391	20.0	58.5
2025-08-17T21:16	10	0	0.1	0	0	390	0.2	389	390	19.8	59.2
2025-08-17T21:17	10	0	0.1	0	0	389	0.3	389	390	19.7	60.1
2025-08-17T21:18	10	0	0.1	0	0	389	0.2	388	389	19.6	60.4
2025-08-17T21:19	10	0	0.1	0	0	388	0.2	388	389	19.5	60.9
2025-08-17T21:20	10	0	0.1	0	0	388	0.2	388	388	19.5	61.5
2025-08-17T21:21	10	0	0.1	0	0	388	0.2	387	388	19.4	61.5
2025-08-17T21:22	10	0	0.1	0	0	388	0.2	387	388	19.4	61.5
2025-08-17T21:23	10	0	0.1	0	0	387	0.2	387	388	19.3	62.0
2025-08-17T21:24	10	0	0.1	0	0	387	0.2	386	387	19.3	61.5
2025-08-17T21:25	10	0	0.1	0	0	386	0.3	386	387	19.3	62.1
2025-08-17T21:26	10	0	0.1	0	0	386	0.2	386	387	19.3	62.0
2025-08-17T21:27	10	0	0.1	0	0	386	0.2	386	386	19.2	62.3
2025-08-17T21:28	10	0	0.1	0	0	386	0.3	386	387	19.2	62.2
2025-08-17T21:29	10	0	0.1	0	0	386	0.3	386	387	19.2	61.8
2025-08-17T21:30	10	0	0.1	0	0	386	0.3	386	387	19.3	61.5
2025-08-17T21:31	10	0	0.1	0	0	386	0.2	386	387	19.3	60.8
2025-08-17T21:32	10	0	0.1	0	0	386	0.2	386	387	19.3	61.1
2025-08-17T21:33	10	0	0.1	0	0	386	0.3	386	387	19.3	61.4
2025-08-17T21:34	10	0	0.1	0	0	386	0.2	385	386	19.3	61.3
2025-08-17T21:35	10	0	0.1	0	0	386	0.3	386	387	19.3	60.5
2025-08-17T21:36	10	0	0.1	0	0	386	0.3	386	387	19.3	60.7
2025-08-17T21:37	10	0	0.1	0	0	387	0.2	386	387	19.4	60.4
2025-08-17T21:38	10	0	0.1	0	0	387	0.2	386	387	19.4	60.3
2025-08-17T21:39	10	0	0.1	0	0	386	0.1	386	387	19.3	60.5
2025-08-17T21:40	10	0	0.1	0	0	386	0.2	386	387	19.3	60.4
2025-08-17T21:41	10	0	0.1	0	0	386	0.2	385	386	19.3	60.2
2025-08-17T21:42	10	0	0.1	0	0	386	0.3	385	386	19.4	59.8
2025-08-17T21:43	10	0	0.1	0	0	386	0.2	385	386	19.4	59.0
2025-08-17T21:44	10	0	0.1	0	0	385	0.3	385	386	19.5	58.9
2025-08-17T21:45	10	0	0.1	0	0	386	0.3	385	386	19.5	58.2
2025-08-17T21:46	10	0	0.1	0	0	386	0.3	385	387	19.6	57.6
2025-08-17T21:47	10	0	0.1	0	0	386	0.3	385	387	19.6	57.1
2025-08-17T21:48	10	0	0.1	-1	0	386	0.3	385	387	19.7	56.6
2025-08-17T21:49	10	0	0.1	0	0	386	0.3	385	386	19.7	56.7
2025-08-17T21:50	10	0	0.1	0	0	386	0.3	385	386	19.8	56.4
2025-08-17T21:51	10	0	0.1	0	0	386	0.3	385	387	19.8	56.4
2025-08-17T21:52	10	0	0.1	0	0	387	0.5	386	388	20.0	55.5
2025-08-17T21:53	10	0	0.1	0	0	388	0.2	387	388	20.0	55.2
2025-08-17T21:54	10	0	0.1	0	0	388	0.3	387	388	20.0	55.0
2025-08-17T21:55	10	0	0.1	0	0	388	0.4	387	389	20.0	55.3
2025-08-17T21:56	10	0	0.1	0	0	389	0.3	389	390	20.0	55.3
2025-08-17T21:57	10	0	0.1	0	0	389	0.3	389	390	20.0	55.2
2025-08-17T21:58	10	0	0.1	0	0	390	0.3	390	391	20.0	55.3
2025-08-17T21:59	10	0	0.1	0	0	391	0.2	390	391	20.0	55.2
2025-08-17T22:00	10	0	0.1	0	0	390	0.3	390	391	20.0	55.4
2025-08-17T22:01	10	0	0.1	0	0	390	0.2	390	391	20.0	55.4
2025-08-17T22:02	10	0	0.1	0	0	390	0.2	389	391	19.9	55.5
2025-08-17T22:03	10	0	0.0	0	0	390	0.3	390	391	20.0	55.4
2025-08-17T22:04	10	0	0.1	0	0	392	0.4	391	392	20.0	55.1
2025-08-17T22:05	10	0	0.0	0	0	392	0.3	392	393	20.0	55.3
2025-08-17T22:06	10	0	0.0	0	0	391	0.4	391	392	20.0	55.4
2025-08-17T22:07	10	0	0.0	0	0	391	0.4	390	391	19.9	55.9
2025-08-17T22:08	10	0	0.1	0	0	390	0.3	390	391	19.9	55.8
2025-08-17T22:09	10	0	0.1	0	0	389	0.2	389	390	19.7	56.5
2025-08-17T22:10	10	0	0.1	0	0	390	0.2	389	390	19.7	56.8
2025-08-17T22:11	10	0	0.0	0	0	390	0.4	390	391	19.9	55.7
2025-08-17T22:12	10	0	0.1	0	0	390	0.4	389	391	19.9	56.1
2025-08-17T22:13	10	0	0.1	0	0	389	0.3	388	390	19.8	56.5
2025-08-17T22:14	10	0	0.1	0	0	389	0.3	389	390	19.7	56.8
2025-08-17T22:15	10	0	0.1	0	0	389	0.3	388	389	19.8	56.2
2025-08-17T22:16	10	0	0.1	0	0	388	0.3	388	389	19.8	56.1
2025-08-17T22:17	10	0	0.1	0	0	388	0.3	387	388	19.7	56.8
2025-08-17T22:18	10	0	0.1	0	0	387	0.4	387	388	19.7	57.2
2025-08-17T22:19	10	0	0.1	0	0	387	0.3	386	387	19.6	57.9
2025-08-17T22:20	10	0	0.1	0	0	386	0.4	385	387	19.5	58.2
2025-08-17T22:21	10	0	0.1	0	0	385	0.2	385	386	19.4	58.7
2025-08-17T22:22	10	0	0.1	0	0	385	0.2	384	385	19.3	59.4
2025-08-17T22:23	10	0	0.1	0	0	384	0.3	384	385	19.1	60.2
2025-08-17T22:24	10	0	0.1	0	0	384	0.2	384	385	19.1	60.4
2025-08-17T22:25	10	0	0.1	0	0	384	0.2	384	385	19.1	60.6
2025-08-17T22:26	10	0	0.1	0	0	384	0.2	383	384	19.0	61.1
2025-08-17T22:27	10	0	0.1	0	0	383	0.3	383	384	18.8	61.6
2025-08-17T22:28	10	0	0.1	0	0	384	0.3	383	385	18.7	62.1
2025-08-17T22:29	10	0	0.1	0	0	384	0.2	384	385	18.7	62.5
2025-08-17T22:30	10	0	0.1	0	0	384	0.2	383	384	18.6	62.7
2025-08-17T22:31	10	0	0.1	0	0	384	0.2	383	384	18.6	62.7
2025-08-17T22:32	10	0	0.1	0	0	384	0.2	383	384	18.6	63.0
2025-08-17T22:33	10	0	0.1	0	0	384	0.2	383	384	18.6	63.2
2025-08-17T22:34	10	0	0.1	0	0	384	0.4	383	385	18.5	63.3
2025-08-17T22:35	10	0	0.1	0	0	384	0.2	383	384	18.5	63.3
2025-08-17T22:36	10	0	0.1	0	0	383	0.2	383	384	18.5	63.5
2025-08-17T22:37	10	0	0.1	0	0	383	0.2	383	384	18.5	63.7
2025-08-17T22:38	10	0	0.1	0	0	383	0.2	382	383	18.4	63.8
2025-08-17T22:39	10	0	0.1	0	0	382	0.2	382	383	18.4	63.9
2025-08-17T22:40	10	0	0.1	0	0	382	0.2	381	382	18.3	64.2
2025-08-17T22:41	10	0	0.1	0	0	382	0.2	381	382	18.3	64.5
2025-08-17T22:42	10	0	1.5	-1	10	381	0.3	381	382	18.2	64.8
2025-08-17T22:43	10	0	0.2	0	1	382	0.4	381	383	18.1	65.1
2025-08-17T22:44	10	0	0.2	-1	0	382	0.2	381	383	18.0	65.3
2025-08-17T22:45	10	0	0.1	0	0	382	0.4	381	383	18.0	65.3
2025-08-17T22:46	10	0	0.2	-1	0	382	0.2	382	383	18.0	65.2
2025-08-17T22:47	10	0	0.1	-1	0	382	0.3	381	382	18.0	65.2
2025-08-17T22:48	10	0	0.1	0	0	381	0.3	381	382	17.9	65.7
2025-08-17T22:49	10	0	0.1	0	0	382	0.3	381	383	17.9	65.9
2025-08-17T22:50	10	0	0.2	-1	0	381	0.2	381	382	17.9	65.9
2025-08-17T22:51	10	0	0.1	-1	0	381	0.2	381	381	17.9	65.8
2025-08-17T22:52	10	0	0.1	0	0	381	0.2	380	382	18.0	65.5
2025-08-17T22:53	10	0	0.2	0	1	381	0.2	380	381	18.0	65.5
2025-08-17T22:54	10	0	0.1	0	0	381	0.3	380	381	18.0	65.6
2025-08-17T22:55	10	0	0.1	0	0	381	0.2	380	381	18.0	65.7
2025-08-17T22:56	10	0	0.1	0	0	381	0.3	380	381	18.0	65.5
2025-08-17T22:57	10	0	0.1	0	0	381	0.5	380	382	18.4	63.4
2025-08-17T22:58	10	0	0.1	0	0	382	0.4	381	383	18.7	62.2
2025-08-17T22:59	10	0	0.1	0	0	383	0.5	382	384	19.0	60.0
2025-08-17T23:00	10	0	0.1	0	0	383	0.4	382	383	18.8	61.4
2025-08-17T23:01	10	0	0.1	0	0	383	0.2	382	383	18.7	61.4
2025-08-17T23:02	10	0	0.1	0	0	383	0.3	382	384	18.9	61.2
2025-08-17T23:03	10	0	0.1	0	0	384	0.3	383	384	19.0	60.5
2025-08-17T23:04	10	0	0.1	0	0	385	1.2	384	388	19.0	60.2
2025-08-17T23:05	10	0	0.1	0	0	388	0.6	387	389	19.5	57.8
2025-08-17T23:06	10	0	0.1	0	0	389	0.4	388	390	19.2	59.2
2025-08-17T23:07	10	0	0.1	0	0	388	0.4	387	389	19.0	60.4
2025-08-17T23:08	10	0	0.1	0	0	387	0.4	387	389	19.0	59.8
2025-08-17T23:09	10	0	0.1	0	0	387	0.2	387	388	19.1	59.3
2025-08-17T23:10	10	0	0.1	0	0	387	0.4	386	388	19.1	59.2
2025-08-17T23:11	10	0	0.1	0	0	387	0.3	387	388	19.1	59.3
2025-08-17T23:12	10	0	0.1	0	0	387	0.2	387	388	19.2	58.9
2025-08-17T23:13	10	0	0.1	0	0	387	0.3	386	388	19.2	58.9
2025-08-17T23:14	10	0	0.0	0	0	387	0.2	386	387	19.1	59.1
2025-08-17T23:15	10	0	0.1	0	0	387	0.3	386	387	19.1	59.2
2025-08-17T23:16	10	0	0.0	0	0	386	0.2	386	387	19.1	59.0
2025-08-17T23:17	10	0	0.0	0	0	386	0.3	385	387	19.0	59.5
2025-08-17T23:18	10	0	0.0	0	0	386	0.3	386	387	19.0	59.4
2025-08-17T23:19	10	0	0.1	0	0	387	0.2	386	387	19.2	58.6
2025-08-17T23:20	10	0	0.1	0	0	387	0.2	386	388	19.2	58.6
2025-08-17T23:21	10	0	0.1	0	0	387	0.3	386	387	19.1	59.0
2025-08-17T23:22	10	0	0.1	0	0	387	0.3	386	387	19.0	59.4
2025-08-17T23:23	10	0	0.1	0	0	386	0.3	385	387	19.0	59.4
2025-08-17T23:24	10	0	0.1	0	0	386	0.3	386	387	19.0	59.5
2025-08-17T23:25	10	0	0.1	0	0	386	0.3	385	387	19.0	59.8
2025-08-17T23:26	10	0	0.1	0	0	386	0.3	386	387	19.0	59.5
2025-08-17T23:27	10	0	0.1	0	0	386	0.3	385	386	19.0	59.3
2025-08-17T23:28	10	0	0.1	0	0	384	0.7	383	385	19.0	59.6
2025-08-17T23:29	10	0	0.1	0	0	384	0.5	383	384	18.9	60.1
2025-08-17T23:30	10	0	0.1	0	0	383	0.3	382	384	18.8	60.7
2025-08-17T23:31	10	0	0.1	0	0	382	0.3	382	383	18.7	60.8
2025-08-17T23:32	10	0	0.1	0	0	381	0.4	381	383	18.6	61.3
2025-08-17T23:33	10	0	0.1	0	0	382	0.3	381	382	18.5	61.9
2025-08-17T23:34	10	0	0.1	0	0	382	0.2	382	383	18.4	62.2
2025-08-17T23:35	10	0	0.1	0	0	381	0.3	381	382	18.3	62.6
2025-08-17T23:36	10	0	0.1	0	0	380	0.2	380	381	18.3	63.0
2025-08-17T23:37	10	0	0.1	0	0	380	0.3	380	381	18.1	63.7
2025-08-17T23:38	10	0	0.1	0	0	380	0.2	379	380	18.0	64.2
2025-08-17T23:39	10	0	0.1	0	0	379	0.2	379	380	17.9	64.6
2025-08-17T23:40	10	0	0.1	0	0	379	0.3	379	380	17.9	65.1
2025-08-17T23:41	10	0	0.1	0	0	379	0.3	379	380	17.8	65.0
2025-08-17T23:42	10	0	0.1	0	0	380	0.3	379	380	18.0	64.3
2025-08-17T23:43	10	0	0.1	0	0	379	0.2	379	380	18.1	64.3
2025-08-17T23:44	10	0	0.1	0	0	379	0.2	379	380	18.0	64.4
2025-08-17T23:45	10	0	0.1	0	0	379	0.3	378	379	18.1	64.2
2025-08-17T23:46	10	0	0.1	0	0	379	0.3	379	380	18.2	63.9
2025-08-17T23:47	10	0	0.1	0	0	379	0.3	379	380	18.3	63.2
2025-08-17T23:48	10	0	0.1	0	0	380	0.5	379	381	18.5	62.5
2025-08-17T23:49	10	0	0.1	0	0	381	0.4	380	382	18.5	62.5
2025-08-17T23:50	10	0	0.1	0	0	381	0.3	380	382	18.5	62.7
2025-08-17T23:51	10	0	0.1	0	0	381	0.2	381	382	18.5	62.9
2025-08-17T23:52	10	0	0.1	0	0	380	0.5	380	381	18.4	63.4
2025-08-17T23:53	10	0	0.1	0	0	380	0.3	379	380	18.2	64.9
2025-08-17T23:54	10	0	0.1	0	0	379	0.3	378	380	18.1	65.5
2025-08-17T23:55	10	0	0.1	0	0	379	0.4	378	379	17.9	66.1
2025-08-17T23:56	10	0	0.1	0	0	378	0.2	377	378	17.8	66.6
2025-08-17T23:57	10	0	0.1	0	0	378	0.2	378	379	17.6	67.2
2025-08-17T23:58	10	0	0.1	0	0	378	0.3	377	379	17.4	67.8
2025-08-17T23:59	10	0	0.1	-1	0	378	0.3	377	379	17.3	68.3
2025-08-18T00:00	10	0	0.1	0	0	378	0.2	378	379	17.3	68.4
2025-08-18T00:01	10	0	0.1	-1	0	378	0.3	377	378	17.3	68.4
2025-08-18T00:02	10	0	0.1	0	0	378	0.3	377	378	17.3	68.5
2025-08-18T00:03	10	0	0.1	0	0	378	0.2	377	378	17.3	68.5
2025-08-18T00:04	10	0	0.1	0	0	378	0.3	377	378	17.2	68.7
2025-08-18T00:05	10	0	0.1	0	0	378	0.3	377	378	17.3	68.6
2025-08-18T00:06	10	0	0.1	0	0	378	0.3	377	378	17.4	67.9
2025-08-18T00:07	10	0	0.1	0	0	378	0.2	377	378	17.5	67.4
2025-08-18T00:08	10	0	0.1	0	0	378	0.3	377	378	17.6	67.0
2025-08-18T00:09	10	0	0.1	0	0	378	0.3	377	378	17.7	66.7
2025-08-18T00:10	10	0	0.1	-1	0	378	0.2	378	378	17.8	66.5
2025-08-18T00:11	10	0	0.1	0	0	378	0.3	377	379	17.8	66.2
2025-08-18T00:12	10	0	0.1	0	0	377	0.2	377	378	17.8	66.3
2025-08-18T00:13	10	0	0.1	0	0	376	0.3	376	377	17.6	67.0
2025-08-18T00:14	10	0	0.1	0	0	376	0.2	376	377	17.6	67.3
2025-08-18T00:15	10	0	0.1	0	0	377	0.3	376	377	17.7	67.1
2025-08-18T00:16	10	0	0.1	0	0	377	0.3	376	378	17.6	67.2
2025-08-18T00:17	10	0	0.1	0	0	377	0.2	377	378	17.6	67.2
2025-08-18T00:18	10	0	0.1	0	0	377	0.2	377	378	17.5	67.7
2025-08-18T00:19	10	0	0.1	0	0	377	0.2	376	377	17.4	68.2
2025-08-18T00:20	10	0	0.1	0	0	377	0.2	376	377	17.3	68.5
2025-08-18T00:21	10	0	0.1	0	0	377	0.3	376	377	17.3	68.6
2025-08-18T00:22	10	0	0.1	0	0	376	0.2	376	377	17.4	68.2
2025-08-18T00:23	10	0	0.1	0	0	377	0.2	376	377	17.4	68.0
2025-08-18T00:24	10	0	1.0	0	7	376	0.3	375	377	17.4	68.0
2025-08-18T00:25	10	0	0.1	0	0	376	0.2	376	377	17.4	68.2
2025-08-18T00:26	10	0	0.1	0	0	376	0.2	376	376	17.4	68.3
2025-08-18T00:27	10	0	0.1	0	0	376	0.2	375	376	17.4	68.4
2025-08-18T00:28	10	0	0.1	0	0	376	0.3	375	376	17.5	68.4
2025-08-18T00:29	10	0	0.1	0	0	376	0.3	375	376	17.5	68.0
2025-08-18T00:30	10	0	0.1	0	0	376	0.2	376	376	17.6	67.7
2025-08-18T00:31	10	0	0.1	0	0	376	0.2	376	377	17.7	67.9
2025-08-18T00:32	10	0	0.1	0	0	376	0.2	376	376	17.7	67.6
2025-08-18T00:33	10	0	0.1	0	0	376	0.2	375	376	17.6	67.2
2025-08-18T00:34	10	0	0.1	0	0	376	0.2	376	377	17.7	67.6
2025-08-18T00:35	10	0	0.1	0	0	376	0.3	375	377	17.6	67.5
2025-08-18T00:36	10	0	0.1	0	0	376	0.3	375	376	17.5	68.0
2025-08-18T00:37	10	0	0.1	0	0	375	0.3	374	376	17.5	68.3
2025-08-18T00:38	10	0	0.1	0	0	375	0.2	374	375	17.4	68.1
2025-08-18T00:39	10	0	0.1	0	0	375	0.3	375	376	17.4	68.8
2025-08-18T00:40	10	0	0.1	0	0	376	0.2	375	376	17.3	69.1
2025-08-18T00:41	10	0	0.1	0	0	376	0.2	376	377	17.2	68.9
2025-08-18T00:42	10	0	0.1	0	0	377	0.3	376	377	17.1	69.5
2025-08-18T00:43	10	0	0.1	0	0	376	0.2	376	377	17.1	69.4
2025-08-18T00:44	10	0	0.1	0	0	375	0.2	375	376	17.1	69.2
2025-08-18T00:45	10	0	0.1	0	0	376	0.3	375	376	17.2	68.8
2025-08-18T00:46	10	0	0.1	0	0	375	0.2	375	376	17.2	69.0
2025-08-18T00:47	10	0	0.1	0	0	375	0.2	374	375	17.1	69.5
2025-08-18T00:48	10	0	0.1	0	0	375	0.3	374	376	16.9	70.4
2025-08-18T00:49	10	0	0.1	0	0	375	0.3	374	376	17.0	70.3
2025-08-18T00:50	10	0	0.1	0	0	375	0.3	375	376	17.0	70.0
2025-08-18T00:51	10	0	0.1	0	0	375	0.3	374	376	17.0	70.0
2025-08-18T00:52	10	0	0.1	0	0	375	0.3	374	375	16.8	70.6
2025-08-18T00:53	10	0	0.1	0	0	374	0.3	373	375	16.7	70.9
2025-08-18T00:54	10	0	0.1	0	0	374	0.3	373	375	16.6	70.9
2025-08-18T00:55	10	0	0.0	0	0	374	0.2	374	375	16.6	71.4
2025-08-18T00:56	10	0	0.1	0	0	374	0.3	373	374	16.6	71.3
2025-08-18T00:57	10	0	0.1	0	0	374	0.3	373	375	16.7	71.3
2025-08-18T00:58	10	0	0.1	0	0	374	0.3	374	375	16.8	71.0
2025-08-18T00:59	10	0	0.1	0	0	374	0.2	373	374	16.8	70.8
2025-08-18T01:00	10	0	0.1	0	0	374	0.4	373	375	16.7	71.1
2025-08-18T01:01	10	0	0.0	0	0	374	0.2	374	375	16.8	71.1
2025-08-18T01:02	10	0	0.1	0	0	374	0.2	373	374	16.8	71.0
2025-08-18T01:03	10	0	0.1	0	0	374	0.4	373	375	16.9	70.8
2025-08-18T01:04	10	0	0.1	0	0	375	0.2	374	375	17.0	70.7
2025-08-18T01:05	10	0	0.1	0	0	375	0.2	374	375	17.0	70.4
2025-08-18T01:06	10	0	0.1	0	0	375	0.2	374	376	17.0	70.4
2025-08-18T01:07	10	0	0.1	0	0	374	0.3	374	375	17.0	70.4
2025-08-18T01:08	10	0	0.1	0	0	374	0.2	374	375	17.0	70.4
2025-08-18T01:09	10	0	0.1	0	0	374	0.3	373	375	16.9	70.4
2025-08-18T01:10	10	0	0.1	0	0	374	0.3	373	375	16.9	70.6
2025-08-18T01:11	10	0	0.1	0	0	374	0.2	373	374	16.9	70.6
2025-08-18T01:12	10	0	0.1	0	0	374	0.3	374	375	17.0	70.7
2025-08-18T01:13	10	0	0.1	0	0	374	0.2	373	374	17.0	70.3
2025-08-18T01:14	10	0	0.1	0	0	374	0.3	373	374	17.1	70.2
2025-08-18T01:15	10	0	0.1	0	0	374	0.2	373	374	17.0	70.1
2025-08-18T01:16	10	0	0.1	0	0	374	0.2	374	375	17.0	70.3
2025-08-18T01:17	10	0	0.1	0	0	374	0.3	373	374	17.0	70.4
2025-08-18T01:18	10	0	0.1	0	0	373	0.4	372	374	16.9	70.9
2025-08-18T01:19	10	0	0.2	0	0	373	0.3	373	374	16.7	71.5
2025-08-18T01:20	10	0	0.2	0	1	373	0.3	373	374	16.6	71.8
2025-08-18T01:21	10	0	0.1	0	0	373	0.3	373	374	16.6	72.1
2025-08-18T01:22	10	0	0.1	0	0	373	0.2	373	374	16.4	72.8
2025-08-18T01:23	10	0	0.1	0	0	374	0.6	373	375	16.5	72.5
2025-08-18T01:24	10	0	0.2	0	0	375	0.4	374	375	16.8	71.5
2025-08-18T01:25	10	0	0.2	0	0	374	0.3	374	375	16.9	70.8
2025-08-18T01:26	10	0	0.1	0	0	374	0.3	374	375	16.6	71.7
2025-08-18T01:27	10	0	0.1	0	0	375	0.3	375	376	16.4	72.8
2025-08-18T01:28	10	0	0.2	0	1	376	0.4	375	376	16.6	72.2
2025-08-18T01:29	10	0	0.1	0	0	376	0.2	375	376	16.9	71.0
2025-08-18T01:30	10	0	0.2	-1	0	375	0.4	374	376	16.9	71.0
2025-08-18T01:31	10	0	0.1	0	0	374	0.4	373	375	16.8	71.3
2025-08-18T01:32	10	0	0.1	0	0	374	0.2	373	374	16.7	71.8
2025-08-18T01:33	10	0	0.2	0	1	374	0.2	373	374	16.6	72.3
2025-08-18T01:34	10	0	0.2	0	0	374	0.2	373	375	16.7	72.3
2025-08-18T01:35	10	0	0.1	0	0	374	0.3	373	374	16.7	72.1
2025-08-18T01:36	10	0	0.1	0	0	374	0.2	373	374	16.6	72.5
2025-08-18T01:37	10	0	0.1	0	0	374	0.2	373	374	16.6	72.6
2025-08-18T01:38	10	0	0.1	0	0	374	0.2	373	374	16.7	72.2
2025-08-18T01:39	10	0	0.1	0	0	374	0.3	373	375	16.7	71.9
2025-08-18T01:40	10	0	0.1	0	0	374	0.2	374	375	16.8	71.7
2025-08-18T01:41	10	0	0.1	0	0	374	0.3	373	374	16.7	72.0
2025-08-18T01:42	10	0	0.1	0	0	373	0.2	373	374	16.6	72.7
2025-08-18T01:43	10	0	0.1	0	0	373	0.2	373	374	16.5	73.4
2025-08-18T01:44	10	0	0.1	0	0	373	0.3	372	374	16.5	73.0
2025-08-18T01:45	10	0	0.1	-1	0	373	0.3	372	374	16.6	72.7
2025-08-18T01:46	10	0	0.1	-1	0	373	0.3	373	374	16.6	72.5
2025-08-18T01:47	10	0	0.1	0	0	373	0.3	372	374	16.6	72.6
2025-08-18T01:48	10	0	0.1	0	0	373	0.2	372	373	16.5	73.3
2025-08-18T01:49	10	0	0.1	0	0	373	0.2	372	373	16.5	73.2
2025-08-18T01:50	10	0	0.1	0	0	372	0.2	372	373	16.5	73.5
2025-08-18T01:51	10	0	0.1	0	0	372	0.2	372	373	16.4	73.8
2025-08-18T01:52	10	0	0.1	0	0	372	0.3	372	373	16.5	73.3
2025-08-18T01:53	10	0	0.1	0	0	372	0.2	371	373	16.6	73.0
2025-08-18T01:54	10	0	0.0	0	0	372	0.2	372	372	16.5	73.4
2025-08-18T01:55	10	0	0.1	0	0	372	0.2	371	372	16.4	73.7
2025-08-18T01:56	10	0	0.1	0	0	372	0.2	371	372	16.5	73.3
2025-08-18T01:57	10	0	0.1	0	0	372	0.3	371	373	16.6	73.0
2025-08-18T01:58	10	0	0.1	0	0	371	0.5	370	372	16.5	73.6
2025-08-18T01:59	10	0	0.1	0	0	371	0.2	370	371	16.4	73.8
2025-08-18T02:00	10	0	0.9	0	6	371	0.2	370	371	16.4	74.0
2025-08-18T02:01	10	0	0.1	0	0	371	0.2	371	372	16.3	74.2
2025-08-18T02:02	10	0	0.1	0	0	371	0.3	370	372	16.2	74.9
2025-08-18T02:03	10	0	0.1	0	0	371	0.2	370	371	16.0	75.6
2025-08-18T02:04	10	0	0.1	0	0	371	0.2	370	371	16.0	76.3
2025-08-18T02:05	10	0	0.1	0	0	371	0.4	370	372	15.9	76.9
2025-08-18T02:06	10	0	0.1	0	0	371	0.2	371	372	15.9	76.8
2025-08-18T02:07	10	0	0.1	0	0	371	0.3	370	372	15.9	76.9
2025-08-18T02:08	10	0	0.1	0	0	371	0.2	370	371	15.9	76.8
2025-08-18T02:09	10	0	0.1	0	0	371	0.2	370	371	15.9	76.9
2025-08-18T02:10	10	0	0.1	0	0	371	0.2	370	371	15.9	77.2
2025-08-18T02:11	10	0	0.1	0	0	371	0.2	370	371	15.8	77.5
2025-08-18T02:12	10	0	0.1	0	0	370	0.3	370	371	15.8	77.8
2025-08-18T02:13	10	0	0.1	0	0	370	0.3	370	371	15.7	78.1
2025-08-18T02:14	10	0	0.1	0	0	371	0.4	370	372	15.8	78.0
2025-08-18T02:15	10	0	0.1	0	0	371	0.3	371	372	15.9	77.2
2025-08-18T02:16	10	0	0.1	0	0	371	0.2	371	372	16.0	76.9
2025-08-18T02:17	10	0	0.1	0	0	371	0.3	370	372	16.0	76.8
2025-08-18T02:18	10	0	0.1	0	0	371	0.3	370	371	16.0	77.0
2025-08-18T02:19	10	0	0.1	0	0	370	0.2	370	371	15.9	77.3
2025-08-18T02:20	10	0	0.1	0	0	370	0.3	370	371	15.9	77.6
2025-08-18T02:21	10	0	0.1	0	0	370	0.2	369	370	15.8	77.9
2025-08-18T02:22	10	0	0.1	0	0	370	0.2	369	370	15.7	78.1
2025-08-18T02:23	10	0	0.1	0	0	370	0.2	369	371	15.8	78.1
2025-08-18T02:24	10	0	0.1	0	0	370	0.3	369	370	15.9	77.8
2025-08-18T02:25	10	0	0.1	0	0	370	0.3	369	370	16.0	77.2
2025-08-18T02:26	10	0	0.1	0	0	370	0.3	369	371	16.0	77.1
2025-08-18T02:27	10	0	0.1	0	0	370	0.2	369	370	15.9	77.6
2025-08-18T02:28	10	0	0.1	0	0	370	0.2	369	370	15.8	78.1
2025-08-18T02:29	10	0	0.1	0	0	370	0.2	370	370	15.8	78.2
2025-08-18T02:30	10	0	0.1	0	0	370	0.2	370	370	15.8	78.6
2025-08-18T02:31	10	0	0.1	0	0	370	0.2	370	370	15.8	79.1
2025-08-18T02:32	10	0	0.1	0	0	370	0.2	369	370	15.7	79.3
2025-08-18T02:33	10	0	0.1	0	0	370	0.2	369	370	15.7	79.5
2025-08-18T02:34	10	0	0.1	0	0	369	0.2	369	370	15.6	79.7
2025-08-18T02:35	10	0	0.1	0	0	369	0.2	369	369	15.5	79.8
2025-08-18T02:36	10	0	0.1	0	0	369	0.2	369	369	15.5	80.0
2025-08-18T02:37	10	0	0.1	0	0	369	0.3	369	370	15.6	79.9
2025-08-18T02:38	10	0	0.1	0	0	370	0.2	369	370	15.7	79.0
2025-08-18T02:39	10	0	0.1	0	0	370	0.3	369	370	15.8	78.3
2025-08-18T02:40	10	0	0.1	0	0	370	0.3	370	371	15.9	77.7
2025-08-18T02:41	10	0	0.1	0	0	370	0.2	369	370	15.9	78.2
2025-08-18T02:42	10	0	0.1	0	0	369	0.3	368	369	15.6	79.3
2025-08-18T02:43	10	0	0.1	0	0	369	0.2	368	369	15.4	80.3
2025-08-18T02:44	10	0	0.1	0	0	369	0.3	368	369	15.3	81.3
2025-08-18T02:45	10	0	0.1	0	0	369	0.2	369	370	15.3	81.6
2025-08-18T02:46	10	0	0.1	0	0	370	0.3	369	370	15.3	81.6
2025-08-18T02:47	10	0	0.1	0	0	369	0.3	369	370	15.3	81.7
2025-08-18T02:48	10	0	0.1	0	0	370	0.2	369	370	15.1	81.7
2025-08-18T02:49	10	0	0.1	0	0	370	0.3	369	371	15.2	81.5
2025-08-18T02:50	10	0	0.1	0	0	370	0.2	370	371	15.3	81.0
2025-08-18T02:51	10	0	0.1	0	0	370	0.3	370	370	15.4	80.7
2025-08-18T02:52	10	0	0.1	0	0	370	0.2	370	371	15.4	80.7
2025-08-18T02:53	10	0	0.1	0	0	370	0.3	369	371	15.4	80.7
2025-08-18T02:54	10	0	0.1	0	0	370	0.3	369	371	15.2	81.5
2025-08-18T02:55	10	0	0.1	0	0	370	0.3	370	371	15.4	80.6
2025-08-18T02:56	10	0	0.1	0	0	370	0.2	370	371	15.6	79.5
2025-08-18T02:57	10	0	0.1	0	0	371	0.3	370	371	15.7	78.9
2025-08-18T02:58	10	0	0.1	0	0	370	0.4	369	371	15.7	78.7
2025-08-18T02:59	10	0	0.1	0	0	369	0.3	368	370	15.5	79.5
2025-08-18T03:00	10	0	0.1	0	0	369	0.3	368	370	15.3	80.4
2025-08-18T03:01	10	0	0.1	0	0	369	0.3	368	369	15.2	80.8
2025-08-18T03:02	10	0	0.1	0	0	369	0.3	368	369	15.3	80.7
2025-08-18T03:03	10	0	0.1	0	0	369	0.4	368	370	15.4	80.4
2025-08-18T03:04	10	0	0.1	0	0	370	0.3	369	370	15.5	79.8
2025-08-18T03:05	10	0	0.1	0	0	371	0.3	370	371	15.4	80.2
2025-08-18T03:06	10	0	0.1	0	0	371	0.3	370	371	15.4	80.4
2025-08-18T03:07	10	0	0.1	0	0	370	0.2	370	371	15.4	80.2
2025-08-18T03:08	10	0	0.1	0	0	371	0.2	370	371	15.5	79.9
2025-08-18T03:09	10	0	0.1	0	0	370	0.3	370	371	15.6	79.6
2025-08-18T03:10	10	0	0.1	0	0	370	0.3	369	370	15.5	79.9
2025-08-18T03:11	10	0	0.1	0	0	370	0.2	369	370	15.4	80.3
2025-08-18T03:12	10	0	0.1	0	0	370	0.2	370	370	15.3	80.7
2025-08-18T03:13	10	0	0.1	0	0	370	0.3	369	370	15.3	80.6
2025-08-18T03:14	10	0	0.1	0	0	370	0.2	369	370	15.4	80.4
2025-08-18T03:15	10	0	0.1	0	0	369	0.2	369	370	15.4	80.3
2025-08-18T03:16	10	0	0.1	0	0	369	0.2	368	369	15.3	80.7
2025-08-18T03:17	10	0	0.1	0	0	368	0.2	368	369	15.3	81.1
2025-08-18T03:18	10	0	0.1	0	0	368	0.2	367	368	15.1	81.6
2025-08-18T03:19	10	0	0.1	0	0	368	0.3	367	369	15.1	81.5
2025-08-18T03:20	10	0	0.1	0	0	368	0.4	367	369	15.2	81.3
2025-08-18T03:21	10	0	0.1	0	0	369	0.3	368	370	15.0	82.1
2025-08-18T03:22	10	0	0.1	0	0	369	0.2	369	370	14.9	83.2
2025-08-18T03:23	10	0	0.1	0	0	369	0.2	368	369	14.8	83.9
2025-08-18T03:24	10	0	0.1	0	0	368	0.2	368	369	14.6	84.8
2025-08-18T03:25	10	0	0.1	0	0	368	0.4	368	369	14.5	85.7
2025-08-18T03:26	10	0	0.1	0	0	368	0.3	368	369	14.5	85.9
2025-08-18T03:27	10	0	0.1	0	0	368	0.2	368	368	14.5	85.7
2025-08-18T03:28	10	0	0.1	0	0	368	0.5	367	369	14.5	85.4
2025-08-18T03:29	10	0	0.1	0	0	368	0.2	368	369	14.6	84.6
2025-08-18T03:30	10	0	0.1	0	0	368	0.3	368	369	14.7	84.1
2025-08-18T03:31	10	0	0.1	0	0	368	0.2	367	368	14.8	83.9
2025-08-18T03:32	10	0	0.1	0	0	368	0.2	367	368	14.6	84.4
2025-08-18T03:33	10	0	0.1	0	0	367	0.3	367	368	14.6	84.7
2025-08-18T03:34	10	0	0.1	0	0	367	0.5	366	368	14.5	85.0
2025-08-18T03:35	10	0	0.1	0	0	367	0.2	367	368	14.6	85.1
2025-08-18T03:36	10	0	0.1	0	0	367	0.2	366	367	14.6	85.1
2025-08-18T03:37	10	0	0.1	0	0	367	0.2	366	367	14.6	85.5
2025-08-18T03:38	10	0	0.1	0	0	366	0.2	366	367	14.5	86.4
2025-08-18T03:39	10	0	0.1	0	0	366	0.2	366	367	14.5	86.3
2025-08-18T03:40	10	0	0.1	0	0	366	0.2	366	367	14.5	86.1
2025-08-18T03:41	10	0	0.1	0	0	366	0.3	366	367	14.4	85.7
2025-08-18T03:42	10	0	0.1	0	0	367	0.3	366	367	14.4	85.9
2025-08-18T03:43	10	0	0.1	0	0	367	0.2	366	368	14.5	85.7
2025-08-18T03:44	10	0	0.1	0	0	367	0.3	367	368	14.5	85.8
2025-08-18T03:45	10	0	0.1	0	0	367	0.3	366	367	14.7	84.8
2025-08-18T03:46	10	0	0.0	0	0	367	0.3	367	368	14.7	84.4
2025-08-18T03:47	10	0	0.1	0	0	367	0.3	366	367	14.6	84.8
2025-08-18T03:48	10	0	0.1	0	0	367	0.2	366	367	14.6	85.3
2025-08-18T03:49	10	0	0.0	0	0	367	0.2	366	367	14.6	85.4
2025-08-18T03:50	10	0	0.7	0	5	366	0.2	366	367	14.5	85.6
2025-08-18T03:51	10	0	0.0	0	0	366	0.2	366	366	14.5	85.7
2025-08-18T03:52	10	0	0.1	0	0	366	0.2	366	367	14.5	85.7
2025-08-18T03:53	10	0	0.1	0	0	366	0.3	365	366	14.6	85.5
2025-08-18T03:54	10	0	0.1	0	0	366	0.2	365	366	14.6	85.4
2025-08-18T03:55	10	0	0.1	0	0	366	0.2	365	366	14.5	85.4
2025-08-18T03:56	10	0	0.0	0	0	366	0.2	366	367	14.4	85.7
2025-08-18T03:57	10	0	0.1	0	0	367	0.4	366	368	14.4	86.3
2025-08-18T03:58	10	0	0.0	0	0	368	0.2	367	368	14.5	86.3
2025-08-18T03:59	10	0	0.0	0	0	368	0.2	368	368	14.4	86.6
2025-08-18T04:00	10	0	0.1	0	0	368	0.2	367	368	14.3	86.9
2025-08-18T04:01	10	0	0.1	0	0	368	0.3	367	369	14.3	87.2
2025-08-18T04:02	10	0	0.1	0	0	368	0.2	367	368	14.3	87.6
2025-08-18T04:03	10	0	0.0	0	0	367	0.2	366	368	14.3	87.4
2025-08-18T04:04	10	0	0.1	0	0	367	0.2	366	367	14.3	87.3
2025-08-18T04:05	10	0	0.1	0	0	366	0.2	366	366	14.2	87.4
2025-08-18T04:06	10	0	0.1	0	0	366	0.2	365	366	14.1	87.8
2025-08-18T04:07	10	0	0.1	0	0	366	0.2	365	366	14.2	87.8
2025-08-18T04:08	10	0	0.1	0	0	366	0.2	365	366	14.3	87.6
2025-08-18T04:09	10	0	0.1	0	0	366	0.2	365	366	14.5	87.6
2025-08-18T04:10	10	0	0.0	0	0	366	0.3	365	366	14.6	87.5
2025-08-18T04:11	10	0	0.1	0	0	366	0.2	365	366	14.5	87.3
2025-08-18T04:12	10	0	0.1	0	0	366	0.3	365	366	14.6	87.6
2025-08-18T04:13	10	0	0.1	0	0	365	0.2	365	366	14.5	87.6
2025-08-18T04:14	10	0	0.1	0	0	365	0.2	365	366	14.5	87.7
2025-08-18T04:15	10	0	0.0	0	0	365	0.2	365	366	14.5	87.6
2025-08-18T04:16	10	0	0.1	0	0	365	0.2	365	366	14.5	87.8
2025-08-18T04:17	10	0	0.1	0	0	365	0.3	365	366	14.6	87.9
2025-08-18T04:18	10	0	0.1	0	0	366	0.3	365	366	14.6	87.8
2025-08-18T04:19	10	0	0.1	0	0	366	0.2	365	366	14.6	87.7
2025-08-18T04:20	10	0	0.1	0	0	366	0.2	365	366	14.5	87.4
2025-08-18T04:21	10	0	0.1	0	0	366	0.2	365	366	14.5	87.3
2025-08-18T04:22	10	0	0.1	0	0	366	0.2	365	366	14.5	87.3
2025-08-18T04:23	10	0	0.1	0	0	366	0.2	365	366	14.5	87.7
2025-08-18T04:24	10	0	0.1	0	1	366	0.3	365	367	14.5	88.0
2025-08-18T04:25	10	0	0.1	0	1	366	0.2	365	366	14.4	87.9
2025-08-18T04:26	10	0	0.1	0	1	366	0.4	365	367	14.4	87.6
2025-08-18T04:27	10	0	0.1	0	1	366	0.2	366	367	14.5	87.7
2025-08-18T04:28	10	0	0.1	0	1	366	0.3	365	367	14.4	87.5
2025-08-18T04:29	10	1	0.1	0	1	366	0.4	365	367	14.4	87.3
2025-08-18T04:30	10	1	0.1	0	1	366	0.3	366	367	14.4	87.8
2025-08-18T04:31	10	1	0.1	0	1	366	0.2	366	367	14.4	88.5
2025-08-18T04:32	10	1	0.1	0	1	366	0.2	366	367	14.4	88.5
2025-08-18T04:33	10	1	0.2	1	1	366	0.2	366	367	14.4	88.1
2025-08-18T04:34	10	1	0.1	1	1	366	0.3	366	367	14.4	88.3
2025-08-18T04:35	10	1	0.2	0	1	366	0.3	366	367	14.4	88.7
2025-08-18T04:36	10	1	0.2	1	1	367	0.3	366	367	14.4	89.1
2025-08-18T04:37	10	1	0.2	1	1	366	0.2	366	367	14.5	89.2
2025-08-18T04:38	10	1	0.1	1	2	366	0.2	366	367	14.4	89.0
2025-08-18T04:39	10	1	0.2	1	2	366	0.3	365	366	14.4	88.9
2025-08-18T04:40	10	1	0.1	1	2	366	0.2	365	366	14.3	88.7
2025-08-18T04:41	10	1	0.2	1	2	366	0.4	365	366	14.2	88.8
2025-08-18T04:42	10	2	0.2	1	2	366	0.2	365	366	14.3	88.6
2025-08-18T04:43	10	2	0.2	1	2	366	0.2	365	366	14.3	88.2
2025-08-18T04:44	10	2	0.2	2	2	366	0.3	365	366	14.3	88.3
2025-08-18T04:45	10	2	0.2	2	3	366	0.3	365	366	14.3	88.5
2025-08-18T04:46	10	2	0.1	2	3	366	0.2	365	366	14.2	88.5
2025-08-18T04:47	10	2	0.1	2	3	366	0.2	365	366	14.3	88.0
2025-08-18T04:48	10	3	0.2	2	3	366	0.2	366	367	14.3	88.1
2025-08-18T04:49	10	3	0.2	2	3	366	0.3	366	367	14.1	88.6
2025-08-18T04:50	10	3	0.2	3	4	367	0.4	366	368	14.1	88.7
2025-08-18T04:51	10	3	0.2	3	4	368	0.3	367	368	14.1	88.8
2025-08-18T04:52	10	4	0.1	3	4	368	0.2	368	369	14.1	89.0
2025-08-18T04:53	10	4	0.2	4	5	369	0.4	368	369	14.1	89.2
2025-08-18T04:54	10	4	0.2	4	5	369	0.3	368	370	14.0	89.4
2025-08-18T04:55	10	4	0.1	4	5	369	0.3	368	370	14.0	89.4
2025-08-18T04:56	10	5	0.1	4	5	369	0.2	369	370	14.0	89.6
2025-08-18T04:57	10	5	0.1	5	5	369	0.2	369	370	14.0	89.6
2025-08-18T04:58	10	5	0.7	5	10	370	0.3	369	370	14.0	89.5
2025-08-18T04:59	10	5	0.1	5	6	370	0.2	370	371	14.1	89.4
2025-08-18T05:00	10	6	0.2	5	6	370	0.2	370	371	14.2	89.2
2025-08-18T05:01	10	6	0.2	6	7	371	0.3	370	371	14.3	89.0
2025-08-18T05:02	10	7	0.2	7	7	371	0.2	370	371	14.3	88.7
2025-08-18T05:03	10	7	0.2	7	8	371	0.3	371	372	14.3	88.5
2025-08-18T05:04	10	8	0.2	7	8	372	0.4	371	372	14.3	88.5
2025-08-18T05:05	10	8	0.2	8	8	372	0.2	371	372	14.5	88.5
2025-08-18T05:06	10	9	0.2	8	9	372	0.3	371	373	14.6	88.0
2025-08-18T05:07	10	9	0.1	9	9	373	0.2	372	373	14.6	87.5
2025-08-18T05:08	10	9	0.2	9	10	373	0.2	373	374	14.6	87.4
2025-08-18T05:09	10	10	0.2	10	10	373	0.3	372	374	14.6	87.4
2025-08-18T05:10	10	11	0.2	10	11	373	0.2	373	374	14.5	87.4
2025-08-18T05:11	10	11	0.2	11	11	374	0.2	373	374	14.5	88.0
2025-08-18T05:12	10	12	0.2	11	12	374	0.2	373	374	14.6	88.1
2025-08-18T05:13	10	12	0.2	12	12	374	0.2	373	374	14.6	88.0
2025-08-18T05:14	10	13	0.2	12	13	374	0.3	374	375	14.7	87.8
2025-08-18T05:15	10	13	0.2	13	13	375	0.5	374	376	14.9	87.2
2025-08-18T05:16	10	14	0.2	13	14	377	0.4	376	377	15.2	85.7
2025-08-18T05:17	10	14	0.2	14	15	377	0.2	377	378	15.2	84.9
2025-08-18T05:18	10	15	0.2	14	15	378	0.3	377	379	15.3	84.4
2025-08-18T05:19	10	15	0.2	15	16	378	0.2	377	378	15.3	84.1
2025-08-18T05:20	10	16	0.2	16	16	379	0.3	378	379	15.4	84.1
2025-08-18T05:21	10	16	0.2	16	17	379	0.3	378	380	15.5	83.9
2025-08-18T05:22	10	17	0.2	16	17	380	0.2	379	380	15.4	83.8
2025-08-18T05:23	10	17	0.7	15	18	380	0.3	379	380	15.4	83.8
2025-08-18T05:24	10	12	1.9	9	15	379	0.5	378	380	15.4	84.0
2025-08-18T05:25	10	10	0.9	9	12	379	0.3	378	380	15.4	84.0
2025-08-18T05:26	10	15	1.5	12	17	379	0.2	378	379	15.3	84.2
2025-08-18T05:27	10	17	0.2	16	17	380	0.3	379	381	15.3	84.4
2025-08-18T05:28	10	18	1.1	17	20	381	0.3	380	381	15.3	84.1
2025-08-18T05:29	10	20	0.9	18	21	381	0.3	380	382	15.4	83.7
2025-08-18T05:30	10	14	2.0	11	18	381	0.4	380	382	15.3	83.9
2025-08-18T05:31	10	13	1.1	11	15	381	0.3	380	382	15.1	84.6
2025-08-18T05:32	10	20	2.4	15	23	381	0.4	380	382	15.0	85.2
2025-08-18T05:33	10	24	0.5	23	25	382	0.4	381	384	14.9	85.4
2025-08-18T05:34	10	25	0.2	24	25	383	0.3	382	384	15.0	85.4
2025-08-18T05:35	10	25	0.2	25	25	384	0.4	383	385	15.0	85.2
2025-08-18T05:36	10	26	0.2	25	26	384	0.2	384	385	15.1	84.8
2025-08-18T05:37	10	26	0.2	26	26	385	0.3	384	385	15.0	85.0
2025-08-18T05:38	10	27	0.3	26	28	385	0.3	384	386	15.0	85.3
2025-08-18T05:39	10	27	0.2	27	28	386	0.3	385	386	15.1	85.1
2025-08-18T05:40	10	28	0.2	27	28	386	0.3	385	387	15.3	84.3
2025-08-18T05:41	10	28	0.2	28	29	387	0.3	386	387	15.4	83.5
2025-08-18T05:42	10	28	0.1	28	29	387	0.2	386	387	15.4	83.7
2025-08-18T05:43	10	28	0.2	28	29	387	0.2	387	388	15.3	83.9
2025-08-18T05:44	10	28	0.5	27	29	387	0.2	387	388	15.3	84.6
2025-08-18T05:45	10	26	1.3	23	27	387	0.3	387	388	15.2	84.9
2025-08-18T05:46	10	23	2.5	21	29	387	0.3	386	388	15.1	85.2
2025-08-18T05:47	10	32	0.9	29	33	387	0.4	387	388	15.1	85.3
2025-08-18T05:48	10	33	0.1	32	33	388	0.2	387	389	15.1	85.3
2025-08-18T05:49	10	33	0.1	33	33	388	0.2	387	389	15.1	85.1
2025-08-18T05:50	10	33	0.2	33	34	388	0.2	388	389	15.1	85.0
2025-08-18T05:51	10	34	0.1	34	34	389	0.3	389	390	15.1	85.2
2025-08-18T05:52	10	34	0.1	34	35	390	0.3	389	390	15.1	85.5
2025-08-18T05:53	10	35	0.2	34	35	390	0.2	390	391	15.2	85.6
2025-08-18T05:54	10	35	0.1	35	36	391	0.3	390	391	15.3	84.7
2025-08-18T05:55	10	36	0.2	35	36	391	0.2	391	392	15.3	84.2
2025-08-18T05:56	10	36	0.1	36	36	392	0.2	391	392	15.4	83.9
2025-08-18T05:57	10	37	0.2	36	37	392	0.3	392	393	15.5	83.8
2025-08-18T05:58	10	37	0.2	37	38	393	0.2	392	393	15.5	83.3
2025-08-18T05:59	10	38	0.3	38	39	393	0.3	393	394	15.6	83.3
2025-08-18T06:00	10	39	0.2	38	39	393	0.2	393	394	15.5	83.2
2025-08-18T06:01	10	39	0.2	39	40	393	0.2	392	394	15.5	83.2
2025-08-18T06:02	10	40	0.2	40	40	393	0.2	393	394	15.5	83.3
2025-08-18T06:03	10	41	0.2	40	41	394	0.3	393	395	15.6	83.4
2025-08-18T06:04	10	41	0.2	41	42	395	0.2	394	395	15.6	83.4
2025-08-18T06:05	10	42	0.2	42	42	395	0.2	394	396	15.7	82.7
2025-08-18T06:06	10	42	0.2	42	43	395	0.3	395	396	15.7	82.4
2025-08-18T06:07	10	43	0.2	43	43	396	0.2	395	396	15.7	82.5
2025-08-18T06:08	10	44	0.2	43	44	396	0.2	395	396	15.8	82.2
2025-08-18T06:09	10	44	0.2	44	45	396	0.3	395	396	15.8	82.2
2025-08-18T06:10	10	45	0.2	44	45	396	0.3	396	397	15.7	82.9
2025-08-18T06:11	10	45	0.2	45	46	397	0.2	396	397	15.7	82.5
2025-08-18T06:12	10	46	0.2	45	46	397	0.2	396	397	15.8	82.7
2025-08-18T06:13	10	46	0.2	46	47	397	0.2	397	398	15.8	82.8
2025-08-18T06:14	10	47	0.1	46	47	398	0.2	397	398	15.8	82.3
2025-08-18T06:15	10	47	0.2	47	48	398	0.2	397	398	15.8	82.7
2025-08-18T06:16	10	48	0.2	48	48	398	0.3	398	399	15.8	83.1
2025-08-18T06:17	10	49	0.2	48	49	399	0.3	398	399	15.8	82.9
2025-08-18T06:18	10	49	0.2	49	50	399	0.3	399	400	15.9	82.3
2025-08-18T06:19	10	50	0.2	50	50	400	0.2	399	400	16.0	82.3
2025-08-18T06:20	10	50	0.1	50	51	400	0.3	400	401	16.0	82.4
2025-08-18T06:21	10	51	0.2	51	51	401	0.3	400	401	16.0	81.8
2025-08-18T06:22	10	52	0.2	51	52	401	0.3	401	402	16.0	81.9
2025-08-18T06:23	10	52	0.2	52	53	402	0.2	402	403	16.1	81.4
2025-08-18T06:24	10	53	0.2	52	53	403	0.2	402	403	16.1	81.4
2025-08-18T06:25	10	54	0.2	53	54	403	0.2	403	404	16.2	81.3
2025-08-18T06:26	10	54	0.2	54	54	403	0.2	403	404	16.2	81.0
2025-08-18T06:27	10	55	0.2	54	55	404	0.2	404	405	16.3	80.8
2025-08-18T06:28	10	55	0.2	55	56	405	0.2	404	405	16.4	80.5
2025-08-18T06:29	10	56	0.2	56	56	405	0.2	405	406	16.4	80.3
2025-08-18T06:30	10	57	0.2	56	57	406	0.3	405	406	16.4	80.2
2025-08-18T06:31	10	57	0.2	57	57	406	0.2	406	407	16.5	80.0
2025-08-18T06:32	10	58	0.2	57	58	407	0.2	406	407	16.6	79.7
2025-08-18T06:33	10	58	0.2	58	59	407	0.3	406	408	16.7	79.2
2025-08-18T06:34	10	59	0.2	58	59	408	0.3	407	408	16.7	79.4
2025-08-18T06:35	10	59	0.2	59	60	408	0.2	407	408	16.6	79.4
2025-08-18T06:36	10	60	0.3	59	61	408	0.3	407	408	16.6	79.5
2025-08-18T06:37	10	61	0.2	60	61	408	0.2	408	409	16.6	79.4
2025-08-18T06:38	10	61	0.2	61	62	409	0.3	408	409	16.7	79.5
2025-08-18T06:39	10	62	0.2	61	62	410	0.5	409	411	16.9	79.3
2025-08-18T06:40	10	62	0.2	62	63	410	0.4	409	411	16.9	78.6
2025-08-18T06:41	10	63	0.2	63	63	410	0.3	409	411	16.8	78.7
2025-08-18T06:42	10	64	0.1	63	64	411	0.3	410	411	16.9	78.5
2025-08-18T06:43	10	64	0.2	64	64	411	0.3	410	412	17.0	78.6
2025-08-18T06:44	10	65	0.2	64	65	412	0.4	411	413	16.9	78.5
2025-08-18T06:45	10	65	0.2	65	66	413	0.3	413	414	17.0	78.4
2025-08-18T06:46	10	66	0.2	66	66	414	0.2	413	414	17.1	78.2
2025-08-18T06:47	10	67	0.2	66	67	413	0.3	412	413	17.1	78.5
2025-08-18T06:48	10	67	0.1	67	67	414	0.2	413	414	17.1	78.4
2025-08-18T06:49	10	68	0.2	67	68	414	0.3	414	415	17.1	78.3
2025-08-18T06:50	10	68	0.2	68	68	415	0.3	415	416	17.2	78.1
2025-08-18T06:51	10	69	0.2	68	69	416	0.4	415	417	17.3	77.7
2025-08-18T06:52	10	69	0.2	69	69	417	0.3	416	418	17.4	77.8
2025-08-18T06:53	10	70	0.2	69	70	417	0.4	416	418	17.6	77.4
2025-08-18T06:54	10	70	0.1	70	70	416	0.4	415	417	17.4	77.1
2025-08-18T06:55	10	71	0.2	70	71	418	0.4	417	419	17.5	77.5
2025-08-18T06:56	10	71	0.2	71	72	417	0.4	416	418	17.4	77.2
2025-08-18T06:57	10	72	0.1	71	72	418	0.3	417	418	17.4	77.3
2025-08-18T06:58	10	72	0.2	72	72	418	0.6	417	419	17.4	77.3
2025-08-18T06:59	10	73	0.2	72	73	419	0.5	417	420	17.5	76.9
2025-08-18T07:00	10	73	0.1	73	74	418	0.4	418	419	17.6	76.7
2025-08-18T07:01	10	74	0.2	73	74	419	0.3	418	419	17.5	77.0
2025-08-18T07:02	10	74	0.2	74	75	420	0.5	419	421	17.5	76.8
2025-08-18T07:03	10	75	0.2	74	75	421	0.2	420	421	17.6	76.6
2025-08-18T07:04	10	75	0.2	75	76	421	0.4	421	422	17.7	76.6
2025-08-18T07:05	10	76	0.2	76	76	422	0.4	421	423	17.7	76.2
2025-08-18T07:06	10	77	0.2	76	77	421	0.3	421	422	17.5	76.5
2025-08-18T07:07	10	77	0.2	77	77	421	0.4	420	422	17.5	76.6
2025-08-18T07:08	10	78	0.2	78	78	422	0.3	421	422	17.5	76.7
2025-08-18T07:09	10	78	0.2	78	79	422	0.4	422	423	17.5	76.9
2025-08-18T07:10	10	79	0.1	79	79	424	0.5	423	425	17.5	76.7
2025-08-18T07:11	10	79	0.2	79	80	425	0.5	424	426	17.9	75.8
2025-08-18T07:12	10	80	0.2	79	80	425	0.6	424	427	18.0	74.9
2025-08-18T07:13	10	81	0.2	80	81	425	0.8	424	427	17.8	75.5
2025-08-18T07:14	10	81	0.2	81	82	427	0.4	426	427	18.1	75.0
2025-08-18T07:15	10	82	0.2	82	82	426	0.3	425	427	17.9	75.3
2025-08-18T07:16	10	82	0.1	82	83	426	0.5	425	427	17.8	75.3
2025-08-18T07:17	10	83	0.2	83	83	427	0.8	426	429	18.0	75.1
2025-08-18T07:18	10	83	0.2	83	84	428	0.3	427	429	18.1	74.7
2025-08-18T07:19	10	84	0.2	83	84	428	0.6	427	429	18.1	74.7
2025-08-18T07:20	10	84	0.2	84	85	429	0.4	429	430	18.2	74.5
2025-08-18T07:21	10	85	0.1	85	85	429	0.7	427	430	18.1	74.8
2025-08-18T07:22	10	85	0.2	85	86	430	0.7	429	431	17.9	75.2
2025-08-18T07:23	10	86	0.1	85	86	431	0.4	430	432	18.0	74.9
2025-08-18T07:24	10	86	0.2	86	87	430	0.5	429	431	18.0	75.1
2025-08-18T07:25	10	87	0.3	86	88	430	0.7	429	432	17.9	75.2
2025-08-18T07:26	10	87	0.2	87	88	432	0.4	432	433	18.2	74.7
2025-08-18T07:27	10	87	0.2	87	88	433	0.4	432	434	18.4	74.0
2025-08-18T07:28	10	88	0.3	87	89	433	0.6	432	434	18.2	74.4
2025-08-18T07:29	10	88	0.3	88	89	432	0.5	431	433	18.2	74.6
2025-08-18T07:30	10	89	0.2	89	89	435	0.6	434	436	18.4	74.1
2025-08-18T07:31	10	90	0.3	89	90	435	0.3	434	435	18.4	73.8
2025-08-18T07:32	10	90	0.2	90	90	434	0.4	433	435	18.2	74.4
2025-08-18T07:33	10	90	0.2	90	91	434	0.7	433	436	18.2	74.6
2025-08-18T07:34	10	91	0.2	90	91	434	0.5	434	436	18.5	73.8
2025-08-18T07:35	10	91	0.2	91	92	436	0.5	435	437	18.6	73.1
2025-08-18T07:36	10	92	0.2	91	92	438	0.5	437	439	18.7	73.1
2025-08-18T07:37	10	92	0.1	92	92	437	0.4	436	438	18.1	75.0
2025-08-18T07:38	10	93	0.2	92	93	436	0.9	435	438	18.1	75.5
2025-08-18T07:39	10	93	0.2	93	93	437	0.7	435	438	18.0	75.7
2025-08-18T07:40	10	93	0.2	93	94	439	1.0	438	441	18.3	74.9
2025-08-18T07:41	10	94	0.2	94	94	441	0.5	440	441	18.5	74.0
2025-08-18T07:42	10	95	0.1	94	95	441	0.3	440	441	18.5	73.7
2025-08-18T07:43	10	95	0.2	95	95	441	0.7	440	443	18.5	74.2
2025-08-18T07:44	10	95	0.1	95	96	441	1.2	439	443	18.5	73.9
2025-08-18T07:45	10	96	0.1	95	96	441	0.4	441	442	18.5	74.0
2025-08-18T07:46	10	96	0.2	96	96	443	0.7	441	444	18.8	73.7
2025-08-18T07:47	10	96	0.2	96	97	443	0.3	442	444	18.8	72.7
2025-08-18T07:48	10	97	0.1	97	97	443	0.2	443	444	18.6	73.3
2025-08-18T07:49	10	97	0.1	97	98	443	0.6	441	444	18.6	73.9
2025-08-18T07:50	10	98	0.1	97	98	442	0.5	441	443	18.5	74.2
2025-08-18T07:51	10	98	0.2	98	98	444	0.8	443	446	18.5	74.3
2025-08-18T07:52	10	99	0.2	98	99	444	0.4	444	445	18.8	73.3
2025-08-18T07:53	10	99	0.2	99	99	446	0.4	445	447	18.9	72.8
2025-08-18T07:54	10	100	0.1	99	100	447	0.6	446	448	19.0	72.1
2025-08-18T07:55	10	100	0.2	100	100	447	1.3	444	449	19.0	72.0
2025-08-18T07:56	10	100	0.1	100	101	445	0.7	444	446	18.7	72.9
2025-08-18T07:57	10	101	0.1	100	101	447	0.7	446	448	18.7	72.9
2025-08-18T07:58	10	101	0.2	101	101	449	0.6	448	450	18.9	72.7
2025-08-18T07:59	10	101	0.2	101	102	447	0.7	446	449	18.9	72.8
2025-08-18T08:00	10	102	0.2	101	102	448	0.9	446	449	18.8	72.9
2025-08-18T08:01	10	102	0.2	102	103	449	0.4	448	450	18.8	72.8
2025-08-18T08:02	10	103	0.1	103	103	450	0.8	449	452	18.9	72.7
2025-08-18T08:03	10	103	0.1	103	103	450	0.5	449	451	18.9	72.7
2025-08-18T08:04	10	103	0.2	103	104	451	0.3	450	451	19.0	72.2
2025-08-18T08:05	10	104	0.2	104	104	451	0.4	451	452	19.2	71.3
2025-08-18T08:06	10	104	0.2	104	105	453	0.4	452	453	19.3	71.3
2025-08-18T08:07	10	105	0.2	105	105	454	0.6	453	455	19.4	70.8
2025-08-18T08:08	10	105	0.1	105	105	454	0.6	453	455	19.5	70.2
2025-08-18T08:09	10	106	0.2	105	106	455	0.9	454	457	19.6	70.2
2025-08-18T08:10	10	106	0.1	106	106	456	0.8	454	457	19.7	69.8
2025-08-18T08:11	10	106	0.1	106	106	455	0.5	454	456	19.4	70.5
2025-08-18T08:12	10	107	0.2	106	107	455	0.6	454	456	19.3	71.1
2025-08-18T08:13	10	107	0.1	107	107	457	0.5	456	458	19.5	70.7
2025-08-18T08:14	10	107	0.1	107	108	454	1.2	453	457	19.4	70.7
2025-08-18T08:15	10	108	0.1	108	108	454	0.8	453	455	19.2	71.4
2025-08-18T08:16	10	108	0.1	108	108	454	0.8	453	456	19.1	72.0
2025-08-18T08:17	10	108	0.2	108	109	457	0.8	455	458	19.3	71.3
2025-08-18T08:18	10	109	0.1	108	109	458	0.4	457	459	19.6	70.3
2025-08-18T08:19	10	109	0.1	109	109	457	0.9	456	459	19.5	70.4
2025-08-18T08:20	10	109	0.1	109	109	455	0.7	454	456	19.1	71.7
2025-08-18T08:21	10	109	0.1	109	110	456	0.5	455	457	19.3	71.2
2025-08-18T08:22	10	110	0.1	109	110	457	0.4	456	458	19.4	70.9
2025-08-18T08:23	10	110	0.1	110	110	457	0.6	456	458	19.4	70.9
2025-08-18T08:24	10	110	0.1	110	110	460	0.9	457	461	19.8	70.0
2025-08-18T08:25	10	110	0.1	110	111	462	0.9	461	463	20.2	68.7
2025-08-18T08:26	10	111	0.2	110	111	461	1.1	460	463	20.1	68.5
2025-08-18T08:27	10	111	0.2	111	112	461	0.6	460	462	19.7	69.2
2025-08-18T08:28	10	112	0.1	112	112	462	0.6	461	463	19.8	69.3
2025-08-18T08:29	10	112	0.2	112	113	462	0.5	461	463	19.9	68.3
2025-08-18T08:30	10	113	0.2	112	113	463	0.8	461	464	20.0	68.0
2025-08-18T08:31	10	113	0.1	113	114	463	1.1	461	465	19.7	68.8
2025-08-18T08:32	10	113	0.2	113	114	463	0.8	461	464	19.8	69.0
2025-08-18T08:33	10	113	0.2	113	114	462	1.0	461	464	19.7	69.1
2025-08-18T08:34	10	114	0.2	113	114	465	0.8	464	467	20.0	68.5
2025-08-18T08:35	10	114	0.2	114	115	463	1.6	460	465	20.0	68.8
2025-08-18T08:36	10	114	0.2	114	115	462	1.2	460	464	19.8	69.4
2025-08-18T08:37	10	115	0.2	114	115	465	0.4	464	465	19.9	69.2
2025-08-18T08:38	10	115	0.2	115	116	466	0.3	465	467	20.0	68.8
2025-08-18T08:39	10	116	0.2	115	116	467	0.6	466	468	20.2	68.1
2025-08-18T08:40	10	116	0.1	116	116	466	1.0	465	468	19.8	69.2
2025-08-18T08:41	10	116	0.1	116	116	468	0.8	466	470	20.1	69.0
2025-08-18T08:42	10	116	0.2	116	117	469	0.4	468	469	20.5	67.7
2025-08-18T08:43	10	117	0.1	117	117	470	0.8	468	472	20.6	66.9
2025-08-18T08:44	10	117	0.2	116	117	467	0.5	466	468	20.2	67.8
2025-08-18T08:45	10	117	0.1	117	118	467	0.4	466	468	20.2	68.0
2025-08-18T08:46	10	118	0.1	118	118	469	0.6	468	470	20.1	68.2
2025-08-18T08:47	10	118	0.1	118	118	468	0.5	467	469	20.0	68.6
2025-08-18T08:48	10	118	0.3	118	119	469	0.6	468	471	20.3	67.9
2025-08-18T08:49	10	119	0.1	118	119	471	1.0	469	473	20.4	67.6
2025-08-18T08:50	10	119	0.2	119	119	471	0.9	470	473	20.6	66.7
2025-08-18T08:51	10	119	0.3	119	120	472	0.3	471	472	20.4	67.1
2025-08-18T08:52	10	120	0.1	120	120	473	0.7	471	473	20.4	67.2
2025-08-18T08:53	10	120	0.1	120	121	474	0.5	473	475	20.5	66.8
2025-08-18T08:54	10	121	0.2	121	121	474	0.6	473	475	20.5	66.4
2025-08-18T08:55	10	121	0.1	121	121	475	1.0	473	477	20.8	65.6
2025-08-18T08:56	10	121	0.1	121	121	470	1.8	467	473	20.2	66.8
2025-08-18T08:57	10	121	0.1	121	122	469	0.6	468	471	20.0	67.5
2025-08-18T08:58	10	121	0.1	121	122	473	0.7	471	474	20.2	67.2
2025-08-18T08:59	10	122	0.1	121	122	474	0.8	472	475	20.3	66.7
2025-08-18T09:00	10	122	0.2	122	122	476	0.8	475	477	20.5	66.1
2025-08-18T09:01	10	122	0.2	122	123	476	0.4	476	477	20.0	66.1
2025-08-18T09:02	10	123	0.1	123	123	475	0.6	474	477	20.4	66.1
2025-08-18T09:03	10	123	0.1	123	123	478	0.9	476	479	20.4	66.1
2025-08-18T09:04	10	123	0.1	123	124	479	0.6	478	480	20.4	66.1
2025-08-18T09:05	10	124	0.1	123	124	475	2.3	472	479	20.4	62.8
2025-08-18T09:06	10	124	0.1	124	124	475	1.4	473	478	20.4	66.1
2025-08-18T09:07	10	124	0.1	124	124	479	1.3	477	481	20.4	66.1
2025-08-18T09:08	10	124	0.2	124	125	475	0.9	474	477	20.4	66.1
2025-08-18T09:09	10	125	0.1	124	125	477	0.5	476	478	20.5	65.4
2025-08-18T09:10	10	125	0.1	125	125	480	0.9	478	482	20.6	65.5
2025-08-18T09:11	10	126	0.1	125	126	480	1.4	477	482	21.0	64.3
2025-08-18T09:12	10	126	0.1	126	126	478	0.6	477	479	20.7	64.8
2025-08-18T09:13	10	126	0.1	126	126	479	1.1	478	482	20.6	64.9
2025-08-18T09:14	10	126	0.1	126	126	481	0.5	481	482	20.9	64.3
2025-08-18T09:15	10	126	0.2	126	127	479	2.7	475	483	21.0	63.9
2025-08-18T09:16	10	127	0.1	127	127	477	0.8	475	478	20.6	64.8
2025-08-18T09:17	10	127	0.1	127	127	479	0.4	478	480	20.6	65.2
2025-08-18T09:18	10	127	0.2	127	127	479	0.8	478	481	20.7	65.0
2025-08-18T09:19	10	128	0.2	127	128	483	0.9	481	484	20.9	64.5
2025-08-18T09:20	10	128	0.1	128	128	483	0.4	483	484	21.0	64.2
2025-08-18T09:21	10	128	0.1	128	129	484	0.5	483	485	21.1	63.8
2025-08-18T09:22	10	129	0.1	128	129	485	1.0	482	486	21.4	62.9
2025-08-18T09:23	10	129	0.1	129	129	482	0.4	481	483	21.0	63.7
2025-08-18T09:24	10	129	0.1	129	129	483	1.2	481	485	21.0	64.0
2025-08-18T09:25	10	129	0.2	129	130	487	1.4	485	489	21.3	63.3
2025-08-18T09:26	10	130	0.2	129	130	488	1.0	485	489	21.5	62.5
2025-08-18T09:27	10	130	0.1	130	130	485	0.8	483	487	21.3	63.0
2025-08-18T09:28	10	130	0.1	130	130	485	1.2	483	487	21.5	62.4
2025-08-18T09:29	10	130	0.1	130	130	484	0.4	483	484	21.1	63.3
2025-08-18T09:30	10	131	0.1	130	131	486	0.6	485	487	21.0	63.7
2025-08-18T09:31	10	131	0.2	130	131	487	1.3	484	489	21.6	62.1
2025-08-18T09:32	10	131	0.1	131	131	486	0.8	484	487	21.3	62.5
2025-08-18T09:33	10	131	0.1	131	132	487	0.6	486	488	21.4	62.4
2025-08-18T09:34	10	131	0.1	131	132	488	0.4	487	488	21.4	62.5
2025-08-18T09:35	10	132	0.1	131	132	489	0.8	488	491	21.4	62.3
2025-08-18T09:36	10	132	0.2	132	132	492	1.0	490	494	21.9	61.3
2025-08-18T09:37	10	132	0.1	132	133	492	0.6	491	493	22.0	60.9
2025-08-18T09:38	10	133	0.1	132	133	492	0.5	491	493	21.8	61.2
2025-08-18T09:39	10	133	0.1	133	133	492	0.5	491	493	21.7	61.6
2025-08-18T09:40	10	133	0.1	133	134	493	0.5	491	494	22.1	60.7
2025-08-18T09:41	10	133	0.1	133	134	494	0.4	493	495	21.8	61.3
2025-08-18T09:42	10	136	0.1	136	136	496	0.9	495	498	22.3	60.8
2025-08-18T09:43	10	136	0.1	136	136	497	0.5	496	498	22.7	59.3
2025-08-18T09:44	10	136	0.1	136	137	496	0.5	496	497	22.5	59.6
2025-08-18T09:45	10	137	0.1	136	137	496	0.7	494	497	22.4	59.6
2025-08-18T09:46	10	134	0.2	134	135	495	0.4	494	496	22.2	60.1
2025-08-18T09:47	10	135	0.1	134	135	496	0.5	496	497	22.4	60.0
2025-08-18T09:48	10	137	0.1	137	138	497	0.8	496	499	22.6	59.7
2025-08-18T09:49	10	135	0.1	134	135	493	2.4	490	497	22.1	60.2
2025-08-18T09:50	10	135	0.1	135	135	492	0.6	491	494	21.6	61.6
2025-08-18T09:51	10	135	0.1	135	135	494	0.9	493	496	21.9	61.2
2025-08-18T09:52	10	135	0.1	135	135	497	0.7	496	499	22.3	60.1
2025-08-18T09:53	10	135	0.1	135	136	497	0.4	496	498	22.1	60.0
2025-08-18T09:54	10	136	0.1	135	136	497	0.8	495	498	22.2	60.1
2025-08-18T09:55	10	136	0.1	136	136	497	0.5	497	499	22.3	59.9
2025-08-18T09:56	10	138	0.1	138	139	500	1.0	499	502	23.0	58.7
2025-08-18T09:57	10	139	0.2	138	139	503	1.1	500	504	23.4	57.1
2025-08-18T09:58	10	139	0.1	139	140	502	1.0	500	504	23.1	57.4
2025-08-18T09:59	10	140	0.1	139	140	502	0.7	501	504	22.8	58.3
2025-08-18T10:00	10	140	0.2	140	140	504	0.8	502	505	23.0	57.9
2025-08-18T10:01	10	140	0.1	140	140	502	0.9	500	503	23.2	57.5
2025-08-18T10:02	10	138	0.1	138	138	501	0.6	500	502	22.8	58.0
2025-08-18T10:03	10	138	0.1	138	138	499	1.2	497	501	22.7	58.0
2025-08-18T10:04	10	138	0.1	138	138	501	1.0	499	503	22.7	58.2
2025-08-18T10:05	10	138	0.1	138	138	500	1.6	497	503	23.0	57.0
2025-08-18T10:06	10	138	0.1	138	138	499	0.7	498	500	22.5	57.4
2025-08-18T10:07	10	138	0.1	138	138	499	1.1	498	502	22.3	58.2
2025-08-18T10:08	10	138	0.1	138	138	502	0.8	500	504	22.4	59.0
2025-08-18T10:09	10	138	0.1	138	138	502	1.5	499	504	22.9	58.1
2025-08-18T10:10	10	138	0.1	138	139	498	1.0	497	500	22.2	59.2
2025-08-18T10:11	10	139	0.1	138	139	501	0.9	500	503	22.7	58.3
2025-08-18T10:12	10	139	0.1	139	139	499	1.1	498	502	22.4	58.3
2025-08-18T10:13	10	139	0.1	139	139	503	0.8	501	505	22.5	58.1
2025-08-18T10:14	10	142	0.2	141	142	504	0.4	503	505	22.9	57.6
2025-08-18T10:15	10	142	0.1	142	142	505	0.9	504	507	23.0	57.1
2025-08-18T10:16	10	142	0.1	142	143	506	1.3	504	508	23.0	57.0
2025-08-18T10:17	10	142	0.1	142	142	503	1.0	501	505	22.8	57.8
2025-08-18T10:18	10	142	0.1	142	142	505	1.0	503	507	22.7	58.5
2025-08-18T10:19	10	142	0.1	142	143	507	0.3	506	508	23.1	57.4
2025-08-18T10:20	10	143	0.1	142	143	509	0.8	507	510	23.4	56.4
2025-08-18T10:21	10	143	0.1	143	143	508	0.8	506	509	23.3	56.9
2025-08-18T10:22	10	143	0.1	143	143	509	0.8	508	510	23.8	56.0
2025-08-18T10:23	10	143	0.1	143	143	507	2.5	504	511	23.4	56.2
2025-08-18T10:24	10	143	0.1	143	143	505	1.0	503	507	23.1	56.7
2025-08-18T10:25	10	143	0.1	143	143	507	1.1	506	509	23.0	57.3
2025-08-18T10:26	10	143	0.1	143	143	506	1.9	503	509	23.2	56.6
2025-08-18T10:27	10	143	0.1	143	143	506	0.7	505	508	23.3	55.8
2025-08-18T10:28	10	141	0.1	141	141	506	0.7	505	508	23.0	56.7
2025-08-18T10:29	10	143	0.1	143	143	509	0.8	507	511	23.3	56.4
2025-08-18T10:30	10	141	0.1	141	141	504	3.0	500	508	23.4	56.0
2025-08-18T10:31	10	141	0.1	141	141	505	3.0	500	509	23.3	56.4
2025-08-18T10:32	10	141	0.1	141	141	506	0.6	504	507	23.4	56.1
2025-08-18T10:33	10	141	0.1	141	141	506	0.8	505	508	23.5	56.1
2025-08-18T10:34	10	141	0.1	141	141	506	0.6	505	508	23.4	56.2
2025-08-18T10:35	10	141	0.1	141	141	507	1.2	506	510	23.3	56.4
2025-08-18T10:36	10	144	0.1	143	144	509	1.2	507	511	23.6	55.8
2025-08-18T10:37	10	144	0.2	143	144	508	1.2	506	510	23.3	56.4
2025-08-18T10:38	10	144	0.1	144	145	508	0.4	507	509	23.2	56.8
2025-08-18T10:39	10	142	0.1	142	143	507	1.3	505	509	23.5	56.3
2025-08-18T10:40	10	145	0.1	145	145	509	1.1	507	511	23.8	55.5
2025-08-18T10:41	10	145	0.1	145	146	507	0.6	506	509	23.4	56.1
2025-08-18T10:42	10	146	0.1	145	146	510	1.5	507	514	23.6	55.9
2025-08-18T10:43	10	146	0.1	146	146	513	0.5	512	514	24.1	54.5
2025-08-18T10:44	10	146	0.1	146	146	514	0.8	512	516	24.1	54.2
2025-08-18T10:45	10	146	0.1	146	146	509	1.3	506	512	23.6	55.2
2025-08-18T10:46	10	143	0.1	143	144	507	0.6	506	508	23.5	55.1
2025-08-18T10:47	10	143	0.1	143	143	508	0.8	507	510	23.3	55.5
2025-08-18T10:48	10	145	0.1	145	146	511	0.9	509	512	23.4	55.5
2025-08-18T10:49	10	146	0.1	145	146	515	2.0	512	517	23.7	55.1
2025-08-18T10:50	10	146	0.2	146	146	514	2.1	511	517	23.9	54.3
2025-08-18T10:51	10	146	0.2	146	147	513	0.6	512	515	23.8	54.5
2025-08-18T10:52	10	147	0.1	146	147	517	1.5	515	520	24.4	53.6
2025-08-18T10:53	10	147	0.1	147	147	515	2.7	511	519	24.4	52.9
2025-08-18T10:54	10	147	0.1	147	147	513	1.4	511	515	24.0	53.5
2025-08-18T10:55	10	147	0.1	147	147	516	0.3	515	516	23.9	54.0
2025-08-18T10:56	10	147	0.1	147	147	515	1.3	513	517	24.0	54.1
2025-08-18T10:57	10	147	0.1	147	147	516	1.1	514	518	24.0	54.4
2025-08-18T10:58	10	147	0.1	147	147	516	1.0	514	518	24.5	53.3
2025-08-18T10:59	10	144	0.1	144	145	510	2.3	507	515	24.1	53.6
2025-08-18T11:00	10	147	0.1	146	147	515	2.5	511	519	23.9	54.4
2025-08-18T11:01	10	147	0.2	146	147	511	2.4	508	518	23.9	54.2
2025-08-18T11:02	10	147	0.1	146	147	512	0.7	511	513	23.6	55.0
2025-08-18T11:03	10	147	0.1	146	147	514	1.6	512	516	23.7	54.5
2025-08-18T11:04	10	147	0.2	147	147	516	1.9	513	519	23.9	54.0
2025-08-18T11:05	10	147	0.1	147	147	513	1.4	510	516	24.0	53.8
2025-08-18T11:06	10	147	0.2	147	148	512	1.2	510	515	24.1	53.6
2025-08-18T11:07	10	145	0.2	144	145	512	1.2	510	515	24.0	53.6
2025-08-18T11:08	10	147	0.2	147	148	513	1.6	511	516	23.9	53.5
2025-08-18T11:09	10	147	0.2	147	147	517	1.5	515	521	24.5	52.6
2025-08-18T11:10	10	147	0.2	147	148	513	2.5	510	517	24.1	52.8
2025-08-18T11:11	10	147	0.2	146	147	514	1.3	510	516	24.1	53.1
2025-08-18T11:12	10	147	0.2	147	148	514	0.9	512	515	24.4	52.7
2025-08-18T11:13	10	147	0.2	147	148	514	1.3	512	517	24.0	52.8
2025-08-18T11:14	10	148	0.3	147	149	517	0.9	516	519	24.1	52.9
2025-08-18T11:15	10	148	0.2	148	149	518	0.6	516	519	24.1	53.0
2025-08-18T11:16	10	148	0.2	148	149	519	1.3	517	521	24.3	52.7
2025-08-18T11:17	10	149	0.2	148	149	523	1.5	520	525	24.6	52.4
2025-08-18T11:18	10	149	0.2	148	149	525	1.7	523	528	25.1	50.6
2025-08-18T11:19	10	149	0.2	148	149	526	0.6	524	527	25.1	50.2
2025-08-18T11:20	10	148	0.3	148	149	523	1.8	519	526	25.1	51.1
2025-08-18T11:21	10	148	0.2	147	148	520	0.9	519	523	24.8	52.0
2025-08-18T11:22	10	147	0.2	147	148	519	2.6	515	523	24.7	52.3
2025-08-18T11:23	10	147	0.2	147	148	518	1.0	516	519	25.1	51.3
2025-08-18T11:24	10	148	0.2	147	148	521	1.3	519	523	25.1	50.9
2025-08-18T11:25	10	148	0.2	147	148	518	0.9	516	520	24.5	52.0
2025-08-18T11:26	10	148	0.1	147	148	518	1.0	517	521	24.6	51.9
2025-08-18T11:27	10	148	0.1	147	148	518	1.6	515	521	24.6	52.0
2025-08-18T11:28	10	148	0.1	147	148	516	3.8	511	521	24.9	51.3
2025-08-18T11:29	10	147	0.1	147	148	516	2.3	513	520	24.5	52.4
2025-08-18T11:30	10	148	0.1	147	148	518	1.7	516	521	24.8	51.8
2025-08-18T11:31	10	148	0.1	147	148	518	1.8	515	521	24.6	52.2
2025-08-18T11:32	10	145	0.2	145	146	515	1.9	513	519	24.7	51.8
2025-08-18T11:33	10	148	0.2	148	149	521	2.0	518	524	24.8	51.3
2025-08-18T11:34	10	149	0.2	149	149	520	1.1	517	522	24.7	51.3
2025-08-18T11:35	10	149	0.1	149	149	521	2.0	517	524	24.6	51.8
2025-08-18T11:36	10	149	0.1	149	149	516	2.9	511	522	24.4	52.1
2025-08-18T11:37	10	149	0.1	149	149	518	2.7	512	521	24.6	51.8
2025-08-18T11:38	10	149	0.1	148	149	519	0.4	518	520	24.1	52.6
2025-08-18T11:39	10	149	0.1	149	149	520	0.7	519	521	24.0	53.0
2025-08-18T11:40	10	149	0.1	149	149	522	1.0	521	524	24.3	52.7
2025-08-18T11:41	10	149	0.1	149	150	525	0.8	523	526	24.8	51.8
2025-08-18T11:42	10	150	0.1	150	150	527	0.6	526	528	25.3	50.0
2025-08-18T11:43	10	150	0.2	149	150	525	0.5	525	526	24.9	50.6
2025-08-18T11:44	10	149	0.1	149	149	521	1.9	519	526	24.9	50.9
2025-08-18T11:45	10	149	0.1	149	149	519	1.8	517	523	24.7	51.3
2025-08-18T11:46	10	149	0.1	149	149	521	0.9	520	523	24.5	51.7
2025-08-18T11:47	10	149	0.1	149	149	524	1.2	521	525	24.9	51.3
2025-08-18T11:48	10	149	0.1	149	149	525	1.1	522	527	24.9	51.0
2025-08-18T11:49	10	149	0.1	149	149	524	0.9	523	526	24.7	51.2
2025-08-18T11:50	10	149	0.1	149	149	528	0.8	526	529	25.3	50.3
2025-08-18T11:51	10	149	0.1	149	149	527	1.0	525	529	25.7	48.9
2025-08-18T11:52	10	149	0.2	148	149	523	1.2	521	527	25.2	49.5
2025-08-18T11:53	10	148	0.1	148	149	522	1.0	519	524	24.9	50.3
2025-08-18T11:54	10	149	0.2	148	149	519	2.1	516	523	25.1	49.7
2025-08-18T11:55	10	149	0.1	149	149	524	0.8	522	525	25.4	49.0
2025-08-18T11:56	10	149	0.1	149	150	523	1.6	520	525	25.7	48.3
2025-08-18T11:57	10	150	0.1	149	150	520	0.6	519	521	25.2	49.1
2025-08-18T11:58	10	150	0.1	150	150	522	1.2	520	524	25.2	49.1
2025-08-18T11:59	10	149	0.1	149	150	520	0.8	518	521	24.9	49.4
2025-08-18T12:00	10	150	0.1	149	150	525	1.8	521	528	24.9	49.8
2025-08-18T12:01	10	149	0.1	149	150	528	1.8	525	531	25.2	49.0
2025-08-18T12:02	10	149	0.1	149	150	523	0.9	522	525	25.5	48.6
2025-08-18T12:03	10	149	0.2	149	150	525	0.9	524	527	25.5	48.3
2025-08-18T12:04	10	149	0.1	149	150	525	0.6	524	526	25.0	49.2
2025-08-18T12:05	10	149	0.1	149	150	527	1.6	525	530	25.0	49.5
2025-08-18T12:06	10	150	0.1	149	150	526	1.3	524	529	25.1	48.8
2025-08-18T12:07	10	150	0.1	149	150	525	0.9	523	526	24.9	49.1
2025-08-18T12:08	10	150	0.1	150	150	525	1.2	523	527	24.8	49.2
2025-08-18T12:09	10	151	0.2	150	151	528	1.2	526	531	25.2	48.5
2025-08-18T12:10	10	151	0.1	151	151	531	1.3	528	533	25.5	47.9
2025-08-18T12:11	10	151	0.1	151	151	528	3.4	524	533	25.5	47.6
2025-08-18T12:12	10	150	0.1	150	151	527	1.1	525	529	25.2	48.5
2025-08-18T12:13	10	150	0.2	150	150	529	1.8	525	532	25.8	47.4
2025-08-18T12:14	10	150	0.1	149	150	527	1.1	525	528	26.1	46.5
2025-08-18T12:15	10	149	0.2	149	150	527	1.8	525	531	25.6	47.2
2025-08-18T12:16	10	149	0.1	149	149	526	2.2	522	530	25.8	46.2
2025-08-18T12:17	10	149	0.1	148	149	525	1.5	523	527	25.4	47.1
2025-08-18T12:18	10	149	0.1	149	149	526	1.3	523	528	25.3	47.3
2025-08-18T12:19	10	149	0.2	149	149	526	1.0	524	528	25.6	46.9
2025-08-18T12:20	10	149	0.1	149	149	525	0.8	523	527	25.3	47.5
2025-08-18T12:21	10	149	0.1	149	149	528	0.6	527	529	25.2	47.7
2025-08-18T12:22	10	149	0.1	149	149	529	0.6	527	530	25.5	47.8
2025-08-18T12:23	10	149	0.1	149	149	525	1.6	522	528	25.5	47.5
2025-08-18T12:24	10	149	0.1	148	149	525	1.4	523	528	25.5	47.4
2025-08-18T12:25	10	148	0.1	148	149	529	1.8	525	533	25.7	47.2
2025-08-18T12:26	10	148	0.2	148	149	530	2.1	525	533	26.7	45.2
2025-08-18T12:27	10	148	0.2	148	149	527	1.0	525	529	26.1	45.2
2025-08-18T12:28	10	148	0.2	147	149	525	1.0	523	527	25.7	46.1
2025-08-18T12:29	10	147	0.2	147	148	528	0.5	526	529	25.5	46.7
2025-08-18T12:30	10	147	0.2	147	148	527	1.4	525	530	25.6	46.8
2025-08-18T12:31	10	147	0.2	146	147	529	0.9	527	531	26.0	46.1
2025-08-18T12:32	10	147	0.2	147	148	527	0.7	526	528	26.5	45.6
2025-08-18T12:33	10	146	0.1	146	147	527	1.4	525	529	26.3	45.1
2025-08-18T12:34	10	146	0.2	146	146	528	1.4	526	531	25.9	45.2
2025-08-18T12:35	10	146	0.2	146	146	530	0.5	529	531	26.1	45.0
2025-08-18T12:36	10	147	0.2	146	147	529	0.4	529	530	26.2	44.7
2025-08-18T12:37	10	147	0.1	147	147	529	0.3	529	530	26.1	44.6
2025-08-18T12:38	10	147	0.1	147	147	530	0.2	530	531	26.1	44.0
2025-08-18T12:39	10	147	0.1	147	147	530	0.3	530	531	26.2	44.0
2025-08-18T12:40	10	147	0.1	147	147	531	0.7	530	533	26.3	43.7
2025-08-18T12:41	10	147	0.1	147	147	531	0.4	530	532	26.5	43.8
2025-08-18T12:42	10	147	0.1	147	147	532	0.7	530	533	26.3	44.7
2025-08-18T12:43	10	146	0.2	146	147	528	1.8	524	531	25.8	45.7
2025-08-18T12:44	10	146	0.1	146	146	526	0.5	525	527	25.5	46.3
2025-08-18T12:45	10	146	0.1	145	146	527	0.8	525	528	25.6	46.0
2025-08-18T12:46	10	145	0.1	145	146	525	1.2	523	527	25.5	46.5
2025-08-18T12:47	10	145	0.1	145	145	529	1.6	526	532	26.0	46.0
2025-08-18T12:48	10	145	0.1	145	145	532	0.3	531	532	26.5	44.8
2025-08-18T12:49	10	145	0.1	145	145	532	0.5	531	533	26.4	44.1
2025-08-18T12:50	10	145	0.2	145	145	531	0.5	529	532	26.2	44.7
2025-08-18T12:51	10	145	0.2	144	145	525	1.2	524	530	25.8	45.7
2025-08-18T12:52	10	142	0.2	141	142	524	1.6	521	527	25.9	45.2
2025-08-18T12:53	10	141	0.2	141	142	522	2.4	519	526	25.9	45.2
2025-08-18T12:54	10	141	0.2	140	141	521	1.2	519	524	26.0	44.7
2025-08-18T12:55	10	140	0.2	140	141	523	0.9	522	525	25.9	45.0
2025-08-18T12:56	10	142	0.1	142	143	525	0.4	524	527	26.0	44.7
2025-08-18T12:57	10	142	0.1	142	143	529	0.9	526	530	26.2	44.5
2025-08-18T12:58	10	143	0.1	142	143	529	0.5	528	530	26.2	44.4
2025-08-18T12:59	10	143	0.1	142	143	529	0.6	528	530	26.2	44.5
2025-08-18T13:00	10	143	0.1	143	143	529	1.7	525	531	26.5	43.9
2025-08-18T13:01	10	143	0.1	142	143	525	0.6	524	526	26.0	44.3
2025-08-18T13:02	10	143	0.1	142	143	527	1.2	525	530	26.2	44.2
2025-08-18T13:03	10	142	0.1	142	143	529	0.5	528	530	26.7	42.9
2025-08-18T13:04	10	142	0.1	142	143	526	1.1	524	528	26.3	43.1
2025-08-18T13:05	10	139	0.1	139	140	525	1.9	522	529	26.4	42.8
2025-08-18T13:06	10	142	0.1	141	142	528	2.0	525	531	26.5	42.5
2025-08-18T13:07	10	141	0.1	141	142	526	1.7	523	529	26.3	43.1
2025-08-18T13:08	10	141	0.1	141	141	527	0.8	525	528	26.3	42.9
2025-08-18T13:09	10	141	0.1	141	141	527	1.2	526	529	26.4	42.5
2025-08-18T13:10	10	141	0.1	141	142	527	0.8	526	529	26.6	42.1
2025-08-18T13:11	10	141	0.2	141	142	528	0.8	526	530	26.4	42.4
2025-08-18T13:12	10	141	0.2	141	142	530	1.6	527	532	26.7	42.0
2025-08-18T13:13	10	141	0.2	140	142	527	0.8	526	529	26.4	42.3
2025-08-18T13:14	10	141	0.3	140	142	529	1.1	527	531	27.0	41.3
2025-08-18T13:15	10	140	0.2	140	141	526	1.1	523	528	26.8	41.4
2025-08-18T13:16	10	140	0.2	140	141	526	1.1	523	528	26.8	41.3
2025-08-18T13:17	10	138	0.1	137	138	525	1.3	522	527	26.6	41.4
2025-08-18T13:18	10	137	0.2	137	138	521	0.7	520	523	26.3	41.9
2025-08-18T13:19	10	137	0.1	137	137	525	1.6	522	529	26.2	41.7
2025-08-18T13:20	10	139	0.1	139	140	527	0.8	526	528	26.4	41.2
2025-08-18T13:21	10	137	0.1	136	137	526	0.5	525	527	26.3	41.3
2025-08-18T13:22	10	139	0.1	139	139	527	1.4	525	530	26.3	41.1
2025-08-18T13:23	10	139	0.1	139	140	530	1.7	527	532	26.6	40.8
2025-08-18T13:24	10	139	0.1	139	139	529	1.5	528	532	26.7	40.7
2025-08-18T13:25	10	139	0.1	139	139	531	1.3	528	533	27.4	39.8
2025-08-18T13:26	10	138	0.2	138	139	530	0.8	529	532	27.4	39.1
2025-08-18T13:27	10	138	0.2	137	138	529	1.6	526	532	27.5	39.3
2025-08-18T13:28	10	135	0.2	135	135	525	1.5	522	527	26.9	40.3
2025-08-18T13:29	10	135	0.1	135	135	521	1.1	519	523	26.4	41.5
2025-08-18T13:30	10	134	0.1	134	135	525	1.6	522	527	26.4	41.6
2025-08-18T13:31	10	134	0.1	134	135	526	1.6	524	529	26.5	41.4
2025-08-18T13:32	10	134	0.1	134	134	527	1.0	525	528	26.4	41.6
2025-08-18T13:33	10	136	0.1	136	137	528	0.8	525	529	26.6	41.4
2025-08-18T13:34	10	134	0.1	134	134	524	0.5	524	525	26.7	41.1
2025-08-18T13:35	10	134	0.1	134	134	526	0.5	525	527	26.8	40.9
2025-08-18T13:36	10	136	0.2	136	137	528	1.3	527	531	26.8	41.0
2025-08-18T13:37	10	136	0.1	136	136	530	0.5	529	531	27.4	40.7
2025-08-18T13:38	10	136	0.2	136	136	529	0.3	528	530	27.1	40.9
2025-08-18T13:39	10	133	0.2	133	133	524	2.9	518	529	26.8	41.2
2025-08-18T13:40	10	133	0.3	132	133	520	0.7	518	522	26.6	41.4
2025-08-18T13:41	10	132	0.2	131	132	519	2.2	515	522	26.5	41.7
2025-08-18T13:42	10	131	0.2	131	132	517	1.3	516	521	26.3	42.0
2025-08-18T13:43	10	131	0.1	131	131	523	1.4	520	525	26.5	41.8
2025-08-18T13:44	10	131	0.1	131	131	527	2.3	524	531	27.0	41.2
2025-08-18T13:45	10	133	0.2	133	134	529	0.7	528	531	27.4	40.6
2025-08-18T13:46	10	134	0.1	133	134	529	0.6	528	530	27.4	40.5
2025-08-18T13:47	10	133	0.1	133	134	530	0.5	529	531	27.8	40.2
2025-08-18T13:48	10	130	0.2	130	131	528	2.3	523	531	27.7	39.9
2025-08-18T13:49	10	130	0.2	130	131	523	1.3	521	525	27.3	40.2
2025-08-18T13:50	10	130	0.2	130	131	523	1.3	521	526	26.8	40.7
2025-08-18T13:51	10	130	0.2	129	130	526	1.0	525	528	27.0	41.1
2025-08-18T13:52	10	129	0.2	129	130	527	0.8	525	528	27.4	39.8
2025-08-18T13:53	10	129	0.2	129	130	527	1.3	523	529	27.3	40.1
2025-08-18T13:54	10	129	0.1	129	129	522	0.7	521	523	26.9	40.7
2025-08-18T13:55	10	129	0.1	129	129	525	1.2	523	528	27.0	40.7
2025-08-18T13:56	10	129	0.1	128	129	526	0.9	524	528	27.5	40.4
2025-08-18T13:57	10	128	0.1	128	129	528	0.4	527	529	28.0	39.8
2025-08-18T13:58	10	128	0.1	128	128	528	0.5	527	529	27.9	39.5
2025-08-18T13:59	10	128	0.1	127	128	528	0.6	527	530	28.0	39.8
2025-08-18T14:00	10	127	0.1	127	128	526	0.9	525	528	27.6	40.0
2025-08-18T14:01	10	127	0.1	127	128	524	1.0	523	526	27.2	40.1
2025-08-18T14:02	10	127	0.1	127	127	525	0.6	523	526	27.2	40.7
2025-08-18T14:03	10	127	0.1	127	127	527	1.1	525	529	27.7	40.3
2025-08-18T14:04	10	127	0.1	127	127	529	0.5	528	530	28.4	39.3
2025-08-18T14:05	10	127	0.2	126	127	527	1.9	523	529	28.4	38.5
2025-08-18T14:06	10	127	0.1	126	127	524	1.2	522	526	27.6	39.2
2025-08-18T14:07	10	126	0.2	126	127	522	1.7	518	524	27.6	39.4
2025-08-18T14:08	10	126	0.3	125	126	517	1.2	515	519	26.9	40.7
2025-08-18T14:09	10	125	0.4	125	126	517	0.6	516	518	26.9	40.9
2025-08-18T14:10	10	125	0.2	124	125	519	0.7	517	520	27.0	40.8
2025-08-18T14:11	10	124	0.2	124	125	521	1.0	519	522	26.9	40.9
2025-08-18T14:12	10	124	0.3	124	125	520	0.7	519	522	26.8	40.9
2025-08-18T14:13	10	124	0.2	124	124	522	0.3	521	522	27.0	40.6
2025-08-18T14:14	10	124	0.2	124	125	522	0.7	520	523	27.2	40.4
2025-08-18T14:15	10	124	0.2	123	125	519	0.8	518	521	27.4	40.6
2025-08-18T14:16	10	123	0.3	123	124	521	1.6	519	523	27.5	40.3
2025-08-18T14:17	10	123	0.2	123	124	524	0.9	522	525	27.6	40.3
2025-08-18T14:18	10	123	0.2	122	123	522	0.5	521	524	27.8	39.8
2025-08-18T14:19	10	123	0.2	122	123	519	2.3	516	523	27.4	40.3
2025-08-18T14:20	10	122	0.2	121	123	518	1.0	516	519	27.1	40.5
2025-08-18T14:21	10	122	0.1	121	122	519	0.8	517	520	27.0	40.8
2025-08-18T14:22	10	121	0.1	121	122	520	0.6	518	521	27.1	41.0
2025-08-18T14:23	10	121	0.2	121	121	521	1.2	520	524	27.4	40.6
2025-08-18T14:24	10	121	0.1	121	121	520	0.4	518	520	27.2	40.8
2025-08-18T14:25	10	120	0.3	120	121	518	1.1	516	520	27.4	40.5
2025-08-18T14:26	10	120	0.2	120	120	517	0.3	516	517	27.1	40.8
2025-08-18T14:27	10	120	0.2	119	120	517	0.8	515	518	27.2	40.9
2025-08-18T14:28	10	119	0.1	119	119	516	2.1	512	518	27.6	40.2
2025-08-18T14:29	10	119	0.2	119	119	515	1.2	513	517	27.3	40.1
2025-08-18T14:30	10	118	0.1	118	119	518	0.5	516	518	27.3	40.2
2025-08-18T14:31	10	118	0.1	118	118	520	1.1	518	521	27.3	40.4
2025-08-18T14:32	10	118	0.1	118	118	519	2.0	516	523	27.5	40.7
2025-08-18T14:33	10	118	0.1	117	118	519	1.0	517	521	28.0	40.4
2025-08-18T14:34	10	117	0.1	117	117	514	2.1	511	519	27.8	40.2
2025-08-18T14:35	10	117	0.1	117	117	514	1.0	512	516	27.2	41.0
2025-08-18T14:36	10	117	0.1	117	117	518	0.9	516	519	27.4	41.3
2025-08-18T14:37	10	116	0.2	116	117	518	0.8	516	519	27.5	40.6
2025-08-18T14:38	10	116	0.2	116	116	517	1.1	515	519	27.5	40.5
2025-08-18T14:39	10	115	0.1	115	116	517	1.3	515	519	28.0	40.0
2025-08-18T14:40	10	115	0.1	115	115	514	0.8	513	516	27.5	40.2
2025-08-18T14:41	10	115	0.1	115	115	515	1.0	513	516	27.4	40.9
2025-08-18T14:42	10	115	0.1	115	115	513	0.8	512	514	27.8	40.7
2025-08-18T14:43	10	115	0.2	114	115	514	0.8	513	515	27.6	40.7
2025-08-18T14:44	10	114	0.2	114	114	515	0.4	514	516	27.6	40.7
2025-08-18T14:45	10	114	0.1	113	114	516	0.7	515	518	27.7	40.6
2025-08-18T14:46	10	113	0.1	113	113	517	0.6	516	519	28.1	40.1
2025-08-18T14:47	10	113	0.1	113	113	517	0.8	516	519	27.9	40.1
2025-08-18T14:48	10	113	0.2	112	113	514	1.3	513	517	27.7	40.1
2025-08-18T14:49	10	112	0.2	112	113	512	1.6	510	515	27.5	40.7
2025-08-18T14:50	10	112	0.1	112	112	512	0.6	511	513	27.3	41.2
2025-08-18T14:51	10	112	0.1	112	112	512	0.3	511	513	27.3	40.9
2025-08-18T14:52	10	111	0.2	111	112	514	0.6	513	515	27.2	40.7
2025-08-18T14:53	10	111	0.1	111	111	515	0.5	514	516	27.5	40.5
2025-08-18T14:54	10	111	0.1	110	111	515	1.1	513	517	27.8	39.8
2025-08-18T14:55	10	111	0.2	110	111	513	0.9	512	515	27.6	40.2
2025-08-18T14:56	10	110	0.2	110	111	512	0.6	511	514	27.6	40.3
2025-08-18T14:57	10	110	0.1	110	110	513	0.5	512	514	27.7	39.9
2025-08-18T14:58	10	110	0.1	110	110	512	0.5	511	513	27.6	39.9
2025-08-18T14:59	10	110	0.1	109	110	514	0.8	512	515	27.7	40.1
2025-08-18T15:00	10	109	0.2	109	109	513	1.2	511	516	27.9	39.8
2025-08-18T15:01	10	108	0.2	108	109	514	0.9	512	515	28.1	39.7
2025-08-18T15:02	10	108	0.1	108	108	514	1.0	512	516	28.4	39.3
2025-08-18T15:03	10	108	0.1	108	108	512	0.8	511	514	28.2	39.1
2025-08-18T15:04	10	108	0.1	107	108	511	1.2	510	514	28.0	39.5
2025-08-18T15:05	10	107	0.2	107	108	510	1.5	507	512	27.8	40.1
2025-08-18T15:06	10	107	0.2	107	107	508	0.6	507	510	27.5	40.5
2025-08-18T15:07	10	106	0.2	106	107	508	0.9	507	510	27.6	40.3
2025-08-18T15:08	10	106	0.2	105	106	507	1.7	505	509	27.5	40.5
2025-08-18T15:09	10	106	1.7	105	117	508	1.5	506	511	27.6	40.4
2025-08-18T15:10	10	105	0.2	104	105	503	1.9	500	507	27.6	40.1
2025-08-18T15:11	10	104	0.2	104	105	502	0.6	501	504	27.5	40.3
2025-08-18T15:12	10	104	0.1	103	104	503	0.5	502	504	27.6	40.1
2025-08-18T15:13	10	103	0.1	103	104	503	1.0	502	505	27.5	40.2
2025-08-18T15:14	10	103	0.1	103	103	505	1.3	503	508	27.5	40.3
2025-08-18T15:15	10	103	0.1	102	103	506	1.1	505	508	27.7	40.1
2025-08-18T15:16	10	102	0.1	102	103	503	1.8	500	507	27.6	40.0
2025-08-18T15:17	10	102	0.2	101	102	501	0.7	500	503	27.3	40.5
2025-08-18T15:18	10	101	0.1	101	102	504	0.8	503	506	27.6	40.1
2025-08-18T15:19	10	101	0.1	101	101	504	0.7	503	506	27.8	39.9
2025-08-18T15:20	10	101	0.1	101	101	502	1.1	501	506	27.5	40.0
2025-08-18T15:21	10	101	0.1	101	101	505	1.2	503	507	27.5	40.2
2025-08-18T15:22	10	101	0.1	100	101	506	0.4	505	507	28.0	39.5
2025-08-18T15:23	10	100	0.1	100	101	507	1.2	505	509	28.1	39.2
2025-08-18T15:24	10	100	0.1	100	100	505	2.1	500	508	28.2	39.0
2025-08-18T15:25	10	100	0.3	99	100	500	0.8	499	502	27.7	39.7
2025-08-18T15:26	10	99	0.3	98	99	501	0.6	500	502	27.9	39.5
2025-08-18T15:27	10	98	0.2	98	99	501	0.9	500	503	27.9	39.5
2025-08-18T15:28	10	98	0.2	97	98	504	0.4	503	505	27.9	39.5
2025-08-18T15:29	10	97	0.2	97	97	502	1.4	500	505	28.0	39.6
2025-08-18T15:30	10	97	0.1	97	97	501	0.3	500	502	27.9	39.5
2025-08-18T15:31	10	96	0.2	96	97	501	0.8	500	503	27.9	39.9
2025-08-18T15:32	10	96	0.2	96	96	502	0.5	501	503	28.0	39.7
2025-08-18T15:33	10	95	0.1	95	96	504	0.7	503	506	28.2	39.5
2025-08-18T15:34	10	95	0.1	95	95	504	0.4	503	504	28.1	39.1
2025-08-18T15:35	10	95	0.2	94	95	503	0.7	502	505	28.3	39.4
2025-08-18T15:36	10	94	0.1	94	94	502	0.4	501	502	28.4	39.1
2025-08-18T15:37	10	94	0.1	93	94	503	0.5	501	503	28.2	39.4
2025-08-18T15:38	10	93	0.2	93	94	500	1.0	498	503	27.8	39.4
2025-08-18T15:39	10	93	0.3	92	93	497	0.5	497	498	27.8	39.7
2025-08-18T15:40	10	92	0.2	92	92	497	0.9	496	499	27.8	39.6
2025-08-18T15:41	10	91	0.2	91	92	497	0.8	496	499	27.7	39.7
2025-08-18T15:42	10	91	0.2	91	91	495	0.7	494	497	27.6	39.8
2025-08-18T15:43	10	90	0.2	90	91	495	0.7	494	497	27.7	39.8
2025-08-18T15:44	10	90	0.2	90	90	498	0.6	496	499	27.9	39.8
2025-08-18T15:45	10	89	0.1	89	90	496	1.0	494	497	27.9	39.4
2025-08-18T15:46	10	89	0.1	89	89	495	0.9	494	497	27.8	39.6
2025-08-18T15:47	10	89	0.2	88	89	493	1.1	491	495	27.9	39.4
2025-08-18T15:48	10	88	0.1	88	88	495	0.5	493	496	27.8	39.5
2025-08-18T15:49	10	88	0.1	87	88	495	0.4	494	496	27.8	39.3
2025-08-18T15:50	10	87	0.1	87	88	496	1.2	495	499	28.2	39.0
2025-08-18T15:51	10	87	0.1	86	87	495	0.5	494	496	28.2	39.4
2025-08-18T15:52	10	86	0.2	86	87	493	0.9	491	495	27.8	39.4
2025-08-18T15:53	10	86	0.2	85	86	493	0.6	491	494	27.8	39.6
2025-08-18T15:54	10	85	0.1	85	86	493	0.9	492	495	27.6	39.7
2025-08-18T15:55	10	85	0.1	85	85	494	0.4	493	494	27.7	39.8
2025-08-18T15:56	10	84	0.3	84	85	490	1.7	488	493	27.6	39.5
2025-08-18T15:57	10	84	0.6	83	85	490	0.7	488	491	27.8	39.3
2025-08-18T15:58	10	84	0.2	83	84	491	1.1	489	493	27.7	39.4
2025-08-18T15:59	10	83	0.2	83	84	492	1.1	488	493	27.8	39.4
2025-08-18T16:00	10	83	0.2	83	83	489	0.3	488	490	27.7	39.6
2025-08-18T16:01	10	82	0.2	82	83	488	0.5	487	489	27.9	39.3
2025-08-18T16:02	10	82	0.2	81	82	488	0.4	487	489	27.7	39.3
2025-08-18T16:03	10	81	0.2	81	82	488	0.6	486	489	27.9	39.0
2025-08-18T16:04	10	81	0.2	80	81	487	0.8	486	488	27.8	39.1
2025-08-18T16:05	10	80	0.1	80	80	487	0.5	487	488	27.9	39.0
2025-08-18T16:06	10	80	0.1	80	80	488	0.5	487	489	27.8	39.3
2025-08-18T16:07	10	80	0.1	79	80	490	1.0	488	491	28.0	39.5
2025-08-18T16:08	10	79	0.2	79	79	489	1.0	488	491	28.2	38.5
2025-08-18T16:09	10	79	0.1	78	79	490	0.6	489	491	28.1	38.5
2025-08-18T16:10	10	78	0.1	78	78	489	0.8	488	491	28.3	38.3
2025-08-18T16:11	10	78	0.1	78	78	488	0.6	487	489	28.2	38.7
2025-08-18T16:12	10	77	0.2	77	78	485	0.9	484	487	27.9	38.5
2025-08-18T16:13	10	77	0.2	76	77	486	0.2	486	486	27.8	38.8
2025-08-18T16:14	10	76	0.2	76	77	487	0.9	486	489	28.1	38.9
2025-08-18T16:15	10	76	0.2	75	76	486	1.6	484	489	28.2	38.2
2025-08-18T16:16	10	75	0.2	75	76	484	0.4	483	485	27.9	38.6
2025-08-18T16:17	10	75	0.2	74	75	484	0.4	483	485	27.8	38.8
2025-08-18T16:18	10	74	0.2	74	74	483	0.5	482	484	27.9	38.7
2025-08-18T16:19	10	73	0.1	73	74	484	0.5	483	485	27.9	38.7
2025-08-18T16:20	10	73	0.1	73	73	484	0.3	483	485	27.9	38.5
2025-08-18T16:21	10	73	0.1	72	73	484	0.3	484	485	28.0	38.7
2025-08-18T16:22	10	72	0.1	72	73	482	0.6	481	484	28.0	38.4
2025-08-18T16:23	10	72	0.2	71	72	483	0.5	482	484	28.1	38.6
2025-08-18T16:24	10	71	0.2	71	72	483	0.5	482	484	28.1	38.4
2025-08-18T16:25	10	71	0.2	70	71	482	1.0	481	484	28.0	38.3
2025-08-18T16:26	10	70	0.1	70	70	482	0.4	482	483	27.9	38.5
2025-08-18T16:27	10	70	0.1	69	70	482	0.3	481	483	28.0	38.1
2025-08-18T16:28	10	69	0.1	69	70	482	0.4	481	483	27.9	38.4
2025-08-18T16:29	10	69	0.2	68	69	483	0.3	482	483	28.0	38.5
2025-08-18T16:30	10	68	0.2	68	68	482	0.3	481	482	28.3	38.1
2025-08-18T16:31	10	68	0.2	67	68	480	0.9	479	482	28.0	38.0
2025-08-18T16:32	10	67	0.2	67	67	479	0.3	478	479	27.8	38.4
2025-08-18T16:33	10	66	0.2	66	67	478	0.7	476	479	27.8	38.6
2025-08-18T16:34	10	66	0.2	66	66	476	0.5	476	478	27.6	38.8
2025-08-18T16:35	10	65	0.2	65	66	476	0.4	475	477	27.6	39.2
2025-08-18T16:36	10	65	0.2	64	65	477	0.6	476	478	27.7	38.9
2025-08-18T16:37	10	64	0.2	64	65	477	0.2	476	477	27.7	38.8
2025-08-18T16:38	10	64	0.2	63	64	476	0.6	475	477	27.7	38.8
2025-08-18T16:39	10	63	0.2	63	63	476	0.5	475	477	27.6	39.0
2025-08-18T16:40	10	62	0.2	62	63	476	0.4	475	477	27.8	39.0
2025-08-18T16:41	10	62	0.1	62	62	475	0.8	474	477	27.8	38.8
2025-08-18T16:42	10	62	0.2	61	62	474	0.3	474	475	27.6	38.9
2025-08-18T16:43	10	61	0.2	61	61	474	0.2	473	474	27.5	39.3
2025-08-18T16:44	10	60	0.2	60	61	474	0.3	473	475	27.6	39.3
2025-08-18T16:45	10	60	0.2	59	60	475	0.4	474	476	27.8	39.0
2025-08-18T16:46	10	59	0.2	59	60	472	0.6	472	474	27.7	39.1
2025-08-18T16:47	10	58	0.2	58	59	472	0.3	472	473	27.7	39.4
2025-08-18T16:48	10	58	0.2	57	58	470	0.5	470	472	27.6	39.3
2025-08-18T16:49	10	56	0.7	55	57	470	0.4	470	471	27.6	39.5
2025-08-18T16:50	10	56	0.2	56	56	470	0.5	469	471	27.6	39.1
2025-08-18T16:51	10	55	0.5	54	56	470	0.3	469	471	27.6	39.1
2025-08-18T16:52	10	55	0.5	54	56	470	0.2	470	471	27.6	39.2
2025-08-18T16:53	10	55	0.2	55	55	471	0.3	470	471	27.7	39.3
2025-08-18T16:54	10	55	0.2	54	55	471	0.3	470	471	27.9	39.4
2025-08-18T16:55	10	54	0.2	54	54	470	0.5	469	471	27.8	39.4
2025-08-18T16:56	10	54	0.2	53	54	469	0.5	468	470	27.8	39.6
2025-08-18T16:57	10	53	0.3	52	53	469	0.3	468	469	27.8	39.5
2025-08-18T16:58	10	52	0.1	52	52	469	0.2	469	470	27.8	39.6
2025-08-18T16:59	10	52	0.2	51	52	469	0.4	468	469	27.8	39.7
2025-08-18T17:00	10	51	0.3	50	51	468	0.4	467	468	27.7	39.6
2025-08-18T17:01	10	50	0.2	50	51	468	0.5	467	468	27.8	40.0
2025-08-18T17:02	10	50	0.1	50	50	468	0.4	467	469	27.8	40.2
2025-08-18T17:03	10	50	0.2	49	50	466	0.7	465	467	27.7	39.8
2025-08-18T17:04	10	49	0.2	49	49	465	0.2	465	466	27.6	39.7
2025-08-18T17:05	10	47	1.0	46	49	465	0.3	464	465	27.5	39.9
2025-08-18T17:06	10	48	0.3	48	49	464	0.3	463	465	27.5	40.0
2025-08-18T17:07	10	47	0.2	47	48	464	0.3	463	464	27.5	40.2
2025-08-18T17:08	10	47	0.2	46	47	464	0.2	463	464	27.5	39.9
2025-08-18T17:09	10	46	0.3	46	47	463	0.4	462	464	27.5	39.8
2025-08-18T17:10	10	45	0.3	45	46	462	0.3	461	463	27.4	39.7
2025-08-18T17:11	10	44	0.3	44	45	461	0.3	460	462	27.3	39.6
2025-08-18T17:12	10	44	0.3	43	44	461	0.2	460	461	27.3	39.9
2025-08-18T17:13	10	43	0.3	42	43	460	0.4	459	461	27.3	40.2
2025-08-18T17:14	10	42	0.2	41	42	460	0.3	459	460	27.2	40.3
2025-08-18T17:15	10	41	0.2	41	42	459	0.3	459	460	27.2	40.5
2025-08-18T17:16	10	41	0.1	40	41	459	0.3	458	460	27.2	40.4
2025-08-18T17:17	10	40	0.2	40	41	459	0.3	458	459	27.2	40.2
2025-08-18T17:18	10	40	0.2	39	40	458	0.3	458	459	27.2	40.1
2025-08-18T17:19	10	39	0.3	38	39	459	0.2	458	459	27.4	40.3
2025-08-18T17:20	10	38	0.4	37	38	458	0.3	457	459	27.3	40.2
2025-08-18T17:21	10	37	0.3	36	37	457	0.4	456	458	27.2	40.3
2025-08-18T17:22	10	35	0.3	35	36	456	0.3	456	457	27.2	40.3
2025-08-18T17:23	10	35	0.2	35	36	456	0.3	455	456	27.1	40.2
2025-08-18T17:24	10	36	0.2	35	36	456	0.2	456	457	27.2	40.3
2025-08-18T17:25	10	35	0.2	35	36	456	0.3	455	456	27.2	40.6
2025-08-18T17:26	10	35	0.2	34	35	455	0.2	455	456	27.1	40.7
2025-08-18T17:27	10	34	0.2	34	34	455	0.2	454	455	27.1	40.6
2025-08-18T17:28	10	34	0.2	33	34	455	0.2	454	455	27.1	40.7
2025-08-18T17:29	10	33	0.3	32	33	454	0.3	454	455	27.1	40.6
2025-08-18T17:30	10	32	0.1	32	33	454	0.2	453	454	27.1	40.9
2025-08-18T17:31	10	32	0.2	31	32	453	0.3	453	454	27.0	40.7
2025-08-18T17:32	10	31	0.2	31	32	453	0.3	452	454	27.0	40.5
2025-08-18T17:33	10	31	0.2	30	31	453	0.3	452	453	27.0	40.2
2025-08-18T17:34	10	30	0.2	29	30	452	0.2	452	453	27.1	40.2
2025-08-18T17:35	10	29	0.3	29	30	452	0.2	451	453	27.0	40.3
2025-08-18T17:36	10	28	0.2	28	29	451	0.2	451	452	27.0	40.6
2025-08-18T17:37	10	28	0.1	28	28	451	0.2	451	452	27.0	40.3
2025-08-18T17:38	10	27	0.3	27	28	450	0.3	450	451	27.0	40.4
2025-08-18T17:39	10	26	0.3	26	27	450	0.3	449	451	26.9	40.7
2025-08-18T17:40	10	21	2.7	17	26	450	0.4	449	451	27.0	40.3
2025-08-18T17:41	10	13	1.7	11	17	448	0.6	447	449	27.0	40.4
2025-08-18T17:42	10	9	1.1	7	11	447	0.6	446	448	27.0	40.0
2025-08-18T17:43	10	7	0.1	7	7	445	0.6	444	447	26.9	40.5
2025-08-18T17:44	10	8	0.8	7	10	444	0.2	444	445	26.8	40.8
2025-08-18T17:45	10	13	1.9	10	16	445	0.9	444	446	26.7	40.3
2025-08-18T17:46	10	15	1.2	12	16	446	0.2	445	446	26.8	39.9
2025-08-18T17:47	10	13	0.9	12	15	445	0.2	445	446	26.8	40.2
2025-08-18T17:48	10	18	1.4	15	20	445	0.2	444	445	26.7	40.7
2025-08-18T17:49	10	20	0.2	20	20	445	0.2	444	445	26.6	40.8
2025-08-18T17:50	10	20	0.1	20	20	445	0.2	444	445	26.6	40.5
2025-08-18T17:51	10	20	0.2	19	20	444	0.2	444	445	26.6	40.9
2025-08-18T17:52	10	19	0.2	19	19	444	0.2	444	445	26.6	40.8
2025-08-18T17:53	10	19	0.2	18	19	444	0.3	443	445	26.6	41.0
2025-08-18T17:54	10	18	0.3	17	18	444	0.3	443	444	26.6	40.8
2025-08-18T17:55	10	16	1.1	13	17	443	0.4	443	444	26.6	40.9
2025-08-18T17:56	10	11	1.4	9	13	443	0.3	442	444	26.6	40.9
2025-08-18T17:57	10	9	0.4	8	10	442	0.7	441	444	26.5	41.1
2025-08-18T17:58	10	11	1.0	9	12	442	0.5	441	443	26.5	41.3
2025-08-18T17:59	10	13	0.2	12	13	442	0.4	441	442	26.5	41.1
2025-08-18T18:00	10	13	0.2	12	13	441	0.3	440	442	26.4	41.5
2025-08-18T18:01	10	12	0.3	12	13	441	0.3	441	442	26.4	41.2
2025-08-18T18:02	10	12	0.2	11	13	442	0.4	441	442	26.5	41.1
2025-08-18T18:03	10	11	0.1	11	12	441	0.5	440	442	26.4	41.5
2025-08-18T18:04	10	11	0.2	11	11	440	0.3	439	440	26.3	42.0
2025-08-18T18:05	10	11	0.2	10	11	439	0.2	439	440	26.3	42.1
2025-08-18T18:06	10	10	0.3	9	10	439	0.4	438	440	26.3	42.1
2025-08-18T18:07	10	9	0.2	9	9	439	0.3	438	439	26.3	42.2
2025-08-18T18:08	10	8	0.2	8	9	438	0.6	437	439	26.2	42.8
2025-08-18T18:09	10	8	0.1	8	8	437	0.3	436	437	26.1	43.1
2025-08-18T18:10	10	8	0.1	8	8	437	0.4	436	437	26.1	42.8
2025-08-18T18:11	10	7	0.3	7	8	436	0.3	435	436	26.0	43.2
2025-08-18T18:12	10	7	0.1	6	7	436	0.2	435	436	26.0	43.4
2025-08-18T18:13	10	6	0.1	6	7	436	0.2	435	436	26.0	43.4
2025-08-18T18:14	10	6	0.1	6	7	435	0.2	434	435	26.0	43.7
2025-08-18T18:15	10	6	0.2	5	6	434	0.3	434	435	25.9	43.8
2025-08-18T18:16	10	5	0.2	5	6	435	0.3	434	435	26.0	43.7
2025-08-18T18:17	10	5	0.1	5	5	435	0.4	434	436	25.9	43.8
2025-08-18T18:18	10	5	0.2	4	5	434	0.3	434	435	25.9	43.9
2025-08-18T18:19	10	4	0.2	4	5	433	0.5	432	434	25.9	44.1
2025-08-18T18:20	10	3	0.2	3	4	432	0.2	432	433	25.8	44.3
2025-08-18T18:21	10	3	0.2	2	3	432	0.3	431	432	25.8	44.5
2025-08-18T18:22	10	2	0.2	2	3	431	0.3	430	432	25.7	44.8
2025-08-18T18:23	10	2	0.1	2	2	431	0.2	430	431	25.7	45.0
2025-08-18T18:24	10	2	0.1	1	2	430	0.3	429	431	25.6	45.2
2025-08-18T18:25	10	1	0.1	1	2	431	1.2	429	433	25.7	44.9
2025-08-18T18:26	10	1	0.1	1	1	432	0.5	431	433	25.7	44.9
2025-08-18T18:27	10	1	0.1	1	1	430	0.4	429	431	25.7	45.2
2025-08-18T18:28	10	1	0.1	1	1	429	0.2	428	429	25.6	45.3
2025-08-18T18:29	10	1	0.1	1	1	430	0.3	429	430	25.6	45.3
2025-08-18T18:30	10	1	0.1	1	1	429	0.3	428	430	25.6	45.3
2025-08-18T18:31	10	1	0.1	1	1	428	0.5	427	429	25.6	45.5
2025-08-18T18:32	10	1	0.1	1	1	427	0.2	427	428	25.6	45.3
2025-08-18T18:33	10	1	0.1	1	1	427	0.3	426	428	25.5	45.7
2025-08-18T18:34	10	1	0.1	1	1	426	0.3	426	427	25.4	46.0
2025-08-18T18:35	10	1	0.1	1	1	426	0.2	425	426	25.5	45.8
2025-08-18T18:36	10	1	0.1	0	1	425	0.3	424	426	25.4	46.2
2025-08-18T18:37	10	1	0.1	0	1	426	0.7	425	428	25.4	46.1
2025-08-18T18:38	10	0	0.1	0	1	427	0.4	426	428	25.4	46.0
2025-08-18T18:39	10	1	0.1	0	1	426	0.5	425	427	25.4	46.3
2025-08-18T18:40	10	0	0.2	0	1	425	0.5	424	426	25.3	46.5
2025-08-18T18:41	10	0	0.2	0	1	425	0.5	424	426	25.2	46.8
2025-08-18T18:42	10	0	0.3	0	1	424	0.4	424	425	25.2	46.8
2025-08-18T18:43	10	0	0.2	0	1	424	0.5	423	425	25.1	47.3
2025-08-18T18:44	10	0	0.2	0	1	423	0.4	422	424	25.0	47.6
2025-08-18T18:45	10	0	0.1	0	1	423	0.3	422	423	25.0	47.6
2025-08-18T18:46	10	0	0.1	0	1	422	0.3	422	423	24.9	48.0
2025-08-18T18:47	10	0	0.1	0	0	423	0.2	422	423	25.0	47.8
2025-08-18T18:48	10	0	0.1	0	0	423	0.2	422	423	24.9	48.2
2025-08-18T18:49	10	0	0.1	0	0	422	0.3	422	423	24.9	48.1
2025-08-18T18:50	10	0	0.1	0	0	421	0.5	420	422	24.8	48.7
2025-08-18T18:51	10	0	0.1	0	0	419	0.3	419	420	24.7	49.0
2025-08-18T18:52	10	0	0.1	0	0	419	0.3	418	419	24.6	49.3
2025-08-18T18:53	10	0	0.1	0	0	418	0.3	418	419	24.5	49.5
2025-08-18T18:54	10	0	0.1	0	0	418	0.2	417	418	24.5	49.7
2025-08-18T18:55	10	0	0.1	0	0	417	0.2	416	417	24.4	49.9
2025-08-18T18:56	10	0	0.1	0	0	416	0.2	416	417	24.3	50.0
2025-08-18T18:57	10	0	0.1	0	0	416	0.3	415	416	24.3	50.2
2025-08-18T18:58	10	0	0.1	0	0	416	0.4	415	417	24.4	49.9
2025-08-18T18:59	10	0	0.1	0	0	415	0.3	415	416	24.3	50.2
2025-08-18T19:00	10	0	0.1	0	0	415	0.2	414	415	24.3	50.2
2025-08-18T19:01	10	0	0.1	0	0	415	0.2	414	415	24.3	50.0
2025-08-18T19:02	10	0	0.1	0	0	415	0.2	414	415	24.3	50.3
2025-08-18T19:03	10	0	0.1	0	0	414	0.3	413	415	24.2	50.4
2025-08-18T19:04	10	0	0.1	0	0	414	0.3	413	415	24.1	50.8
2025-08-18T19:05	10	0	0.1	0	0	414	0.3	413	414	24.1	50.8
2025-08-18T19:06	10	0	0.1	0	0	414	0.3	413	414	24.1	51.0
2025-08-18T19:07	10	0	0.1	0	0	414	0.4	413	414	24.1	50.9
2025-08-18T19:08	10	0	0.1	0	0	414	0.2	414	415	24.1	51.0
2025-08-18T19:09	10	0	0.1	0	0	414	0.3	413	414	24.1	51.0
2025-08-18T19:10	10	0	0.1	0	0	414	0.3	413	415	24.0	51.1
2025-08-18T19:11	10	0	0.1	0	0	415	0.4	414	415	24.0	51.0
2025-08-18T19:12	10	0	0.1	0	0	414	0.3	414	415	24.0	51.0
2025-08-18T19:13	10	0	0.1	0	0	414	0.3	413	415	24.0	51.0
2025-08-18T19:14	10	0	0.1	0	0	415	0.2	414	415	24.0	50.9
2025-08-18T19:15	10	0	0.1	0	0	415	0.2	414	415	23.9	51.1
2025-08-18T19:16	10	0	0.1	0	0	414	0.3	414	415	23.9	51.4
2025-08-18T19:17	10	0	0.1	0	0	415	0.3	414	415	23.8	51.6
2025-08-18T19:18	10	0	0.1	0	0	415	0.2	414	415	23.8	51.4
2025-08-18T19:19	10	0	0.1	0	0	415	0.2	415	416	23.8	51.6
2025-08-18T19:20	10	0	0.1	0	0	415	0.3	414	416	23.8	51.4
2025-08-18T19:21	10	0	0.1	0	0	415	0.2	415	416	23.8	51.5
2025-08-18T19:22	10	0	0.1	0	0	415	0.2	415	416	23.8	50.9
2025-08-18T19:23	10	0	0.1	0	0	415	0.4	414	416	23.8	51.1
2025-08-18T19:24	10	0	0.1	0	0	415	0.2	414	416	23.8	51.1
2025-08-18T19:25	10	0	0.1	0	0	414	0.6	412	415	23.7	51.6
2025-08-18T19:26	10	0	0.1	0	1	413	0.3	412	413	23.5	52.3
2025-08-18T19:27	10	0	0.2	0	0	412	0.3	411	413	23.4	52.6
2025-08-18T19:28	10	0	0.2	0	0	412	0.3	411	412	23.4	52.6
2025-08-18T19:29	10	0	0.2	0	0	411	0.3	410	412	23.5	52.3
2025-08-18T19:30	10	0	0.1	0	0	412	0.5	411	413	23.5	51.7
2025-08-18T19:31	10	0	0.1	0	0	412	0.3	411	413	23.4	52.5
2025-08-18T19:32	10	0	0.2	-1	0	412	0.2	411	412	23.5	52.3
2025-08-18T19:33	10	0	0.1	0	0	411	0.2	411	412	23.4	52.2
2025-08-18T19:34	10	0	0.1	0	0	411	0.4	410	411	23.5	51.8
2025-08-18T19:35	10	0	0.1	0	0	410	0.2	410	411	23.4	52.2
2025-08-18T19:36	10	0	0.1	0	0	410	0.2	410	411	23.4	52.1
2025-08-18T19:37	10	0	0.0	0	0	410	0.3	409	411	23.4	52.1
2025-08-18T19:38	10	0	0.1	0	0	409	0.4	409	410	23.3	52.4
2025-08-18T19:39	10	0	0.1	0	0	409	0.2	408	410	23.2	52.8
2025-08-18T19:40	10	0	0.1	0	0	409	0.3	408	409	23.2	52.7
2025-08-18T19:41	10	0	0.1	0	0	408	0.2	408	408	23.1	52.9
2025-08-18T19:42	10	0	0.1	0	0	408	0.2	407	408	23.1	52.8
2025-08-18T19:43	10	0	0.1	0	0	407	0.3	407	408	23.1	52.8
2025-08-18T19:44	10	0	0.1	0	0	407	0.2	406	407	23.1	52.8
2025-08-18T19:45	10	0	0.1	0	0	407	0.3	406	408	23.1	52.7
2025-08-18T19:46	10	0	0.1	0	0	406	0.3	406	407	23.1	52.9
2025-08-18T19:47	10	0	0.1	0	0	406	0.3	406	407	23.0	53.0
2025-08-18T19:48	10	0	0.1	0	0	406	0.2	406	407	23.1	53.0
2025-08-18T19:49	10	0	0.1	0	0	406	0.3	405	406	23.0	53.0
2025-08-18T19:50	10	0	0.1	0	0	406	0.2	405	406	23.0	53.0
2025-08-18T19:51	10	0	0.1	0	0	406	0.2	405	406	23.0	52.9
2025-08-18T19:52	10	0	0.1	0	0	405	0.2	405	406	23.0	53.0
2025-08-18T19:53	10	0	0.1	0	0	405	0.2	405	406	23.0	53.2
2025-08-18T19:54	10	0	0.1	0	0	405	0.3	404	406	23.0	53.0
2025-08-18T19:55	10	0	0.1	0	0	405	0.3	404	405	23.0	53.1
2025-08-18T19:56	10	0	0.1	0	0	405	0.3	404	405	23.0	53.0
2025-08-18T19:57	10	0	0.1	0	0	404	0.3	404	405	23.0	53.3
2025-08-18T19:58	10	0	0.1	0	0	404	0.3	404	405	23.0	53.5
2025-08-18T19:59	10	0	0.1	0	0	404	0.3	403	405	22.9	53.7
2025-08-18T20:00	10	0	0.1	0	0	404	0.2	403	404	22.9	53.5
2025-08-18T20:01	10	0	0.1	0	0	404	0.2	403	404	22.9	53.4
2025-08-18T20:02	10	0	0.1	0	0	404	0.3	403	405	23.0	53.3
2025-08-18T20:03	10	0	0.1	0	0	404	0.3	403	405	23.0	53.1
2025-08-18T20:04	10	0	0.1	0	0	404	0.2	403	404	23.0	53.2
2025-08-18T20:05	10	0	0.1	0	0	403	0.2	403	404	23.0	53.1
2025-08-18T20:06	10	0	0.1	0	0	403	0.3	402	404	23.0	53.0
2025-08-18T20:07	10	0	0.1	0	0	403	0.2	403	404	23.0	53.0
2025-08-18T20:08	10	0	0.1	0	0	403	0.2	403	404	23.0	53.0
2025-08-18T20:09	10	0	0.1	0	0	403	0.3	402	403	23.0	53.0
2025-08-18T20:10	10	0	0.1	0	0	403	0.2	402	403	23.1	52.8
2025-08-18T20:11	10	0	0.1	0	0	403	0.2	402	404	23.0	53.0
2025-08-18T20:12	10	0	0.1	0	0	403	0.2	402	403	23.0	52.9
2025-08-18T20:13	10	0	0.1	0	0	403	0.2	402	403	23.0	53.0
2025-08-18T20:14	10	0	0.1	0	0	402	0.4	401	403	23.0	53.2
2025-08-18T20:15	10	0	0.1	0	0	401	0.2	401	402	22.7	54.5
2025-08-18T20:16	10	0	0.1	0	0	402	0.4	401	402	22.6	55.2
2025-08-18T20:17	10	0	0.1	0	0	401	0.2	400	401	22.5	55.7
2025-08-18T20:18	10	0	0.1	0	0	401	0.3	400	401	22.4	56.2
2025-08-18T20:19	10	0	0.1	0	0	400	0.2	400	401	22.4	56.6
2025-08-18T20:20	10	0	0.1	0	0	400	0.3	400	401	22.2	57.3
2025-08-18T20:21	10	0	0.1	0	0	400	0.3	400	401	22.1	57.8
2025-08-18T20:22	10	0	0.1	0	0	400	0.3	400	401	22.1	57.5
2025-08-18T20:23	10	0	0.1	0	0	400	0.3	400	401	22.1	57.3
2025-08-18T20:24	10	0	0.1	0	1	400	0.2	400	401	22.2	57.1
2025-08-18T20:25	10	0	0.1	0	0	400	0.3	399	400	22.1	57.2
2025-08-18T20:26	10	0	0.1	0	0	400	0.3	399	400	22.0	57.4
2025-08-18T20:27	10	0	0.1	0	0	399	0.3	399	400	22.0	57.6
2025-08-18T20:28	10	0	0.2	-1	0	399	0.2	399	400	21.9	57.6
2025-08-18T20:29	10	0	0.2	0	1	399	0.3	398	400	21.9	57.5
2025-08-18T20:30	10	0	0.2	-1	0	399	0.4	398	400	21.8	57.7
2025-08-18T20:31	10	0	0.2	-1	0	399	0.3	398	400	22.0	57.0
2025-08-18T20:32	10	0	0.2	0	0	400	0.3	399	400	22.1	56.5
2025-08-18T20:33	10	0	0.2	-1	0	400	0.2	399	400	22.1	56.4
2025-08-18T20:34	10	0	0.2	-1	1	399	0.3	398	400	22.1	56.1
2025-08-18T20:35	10	0	0.2	0	1	399	0.2	399	400	22.1	56.3
2025-08-18T20:36	10	0	0.2	0	0	399	0.3	399	400	21.9	57.3
2025-08-18T20:37	10	0	0.2	0	1	399	0.3	398	400	21.7	58.1
2025-08-18T20:38	10	0	0.1	0	0	399	0.2	399	400	21.6	58.5
2025-08-18T20:39	10	0	0.1	0	0	399	0.2	398	399	21.6	58.6
2025-08-18T20:40	10	0	0.1	0	0	399	0.2	398	399	21.6	58.4
2025-08-18T20:41	10	0	0.1	0	0	398	0.2	398	399	21.5	58.8
2025-08-18T20:42	10	0	0.1	0	0	398	0.3	398	399	21.5	58.6
2025-08-18T20:43	10	0	0.1	0	0	399	0.2	398	399	21.6	57.9
2025-08-18T20:44	10	0	0.1	0	0	398	0.2	398	399	21.6	58.0
2025-08-18T20:45	10	0	0.1	0	0	398	0.3	397	398	21.7	57.4
2025-08-18T20:46	10	0	0.1	0	0	397	0.3	397	398	21.7	57.8
2025-08-18T20:47	10	0	0.1	0	0	397	0.2	396	397	21.5	58.3
2025-08-18T20:48	10	0	0.1	0	0	397	0.3	396	397	21.5	58.7
2025-08-18T20:49	10	0	0.1	0	0	397	0.3	396	397	21.4	59.1
2025-08-18T20:50	10	0	0.1	0	0	397	0.2	396	397	21.3	59.4
2025-08-18T20:51	10	0	0.1	0	0	397	0.3	396	397	21.3	59.6
2025-08-18T20:52	10	0	0.1	0	0	396	0.3	396	397	21.2	60.0
2025-08-18T20:53	10	0	0.1	0	0	396	0.2	395	397	21.1	60.1
2025-08-18T20:54	10	0	0.1	0	0	396	0.3	396	397	21.1	60.1
2025-08-18T20:55	10	0	0.1	0	0	396	0.3	395	396	21.0	60.5
2025-08-18T20:56	10	0	0.1	0	0	396	0.2	395	396	21.0	60.5
2025-08-18T20:57	10	0	0.1	0	0	396	0.2	395	396	21.0	60.7
2025-08-18T20:58	10	0	0.1	0	0	395	0.3	395	396	20.9	61.0
2025-08-18T20:59	10	0	0.1	0	0	396	0.2	395	396	20.9	61.0
2025-08-18T21:00	10	0	0.1	0	0	395	0.2	395	396	20.9	59.9
2025-08-18T21:01	10	0	0.1	0	0	395	0.3	394	396	20.9	61.0
2025-08-18T21:02	10	0	0.1	0	0	395	0.4	394	396	20.6	58.9
2025-08-18T21:03	10	0	0.1	0	0	396	0.4	395	396	20.9	61.0
2025-08-18T21:04	10	0	0.1	0	0	396	0.2	396	397	20.8	59.9
2025-08-18T21:05	10	0	0.1	0	0	396	0.2	396	397	20.9	61.0
2025-08-18T21:06	10	0	0.1	0	0	396	0.3	396	397	20.9	61.0
2025-08-18T21:07	10	0	0.1	0	0	396	0.3	395	397	20.9	60.9
2025-08-18T21:08	10	0	0.1	0	0	396	0.2	395	396	21.0	60.4
2025-08-18T21:09	10	0	0.1	0	0	395	0.3	394	396	20.9	61.3
2025-08-18T21:10	10	0	0.1	0	0	395	0.3	394	395	20.8	61.7
2025-08-18T21:11	10	0	0.1	0	0	395	0.2	394	395	20.7	61.8
2025-08-18T21:12	10	0	0.1	0	0	395	0.2	394	395	20.7	62.0
2025-08-18T21:13	10	0	0.1	0	0	394	0.4	393	395	20.7	62.5
2025-08-18T21:14	10	0	0.1	0	0	394	0.3	393	395	20.5	63.5
2025-08-18T21:15	10	0	0.1	0	0	395	0.3	394	395	20.6	62.4
2025-08-18T21:16	10	0	0.1	0	0	395	0.2	394	395	20.6	62.2
2025-08-18T21:17	10	0	0.1	0	0	394	0.3	394	395	20.5	62.4
2025-08-18T21:18	10	0	0.1	0	0	394	0.2	393	395	20.6	62.4
2025-08-18T21:19	10	0	0.1	0	0	394	0.2	394	395	20.6	62.3
2025-08-18T21:20	10	0	0.1	0	0	394	0.2	393	394	20.6	62.1
2025-08-18T21:21	10	0	0.1	0	0	394	0.2	393	394	20.7	62.0
2025-08-18T21:22	10	0	0.1	0	0	394	0.2	393	394	20.6	62.0
2025-08-18T21:23	10	0	0.1	0	0	394	0.3	393	395	20.6	62.0
2025-08-18T21:24	10	0	0.1	0	0	394	0.2	393	394	20.6	62.0
2025-08-18T21:25	10	0	0.1	0	0	394	0.3	393	394	20.5	62.2
2025-08-18T21:26	10	0	0.1	0	0	393	0.4	392	394	20.5	62.2
2025-08-18T21:27	10	0	0.1	0	0	393	0.3	392	393	20.2	64.4
2025-08-18T21:28	10	0	0.1	0	0	393	0.3	392	394	20.1	64.2
2025-08-18T21:29	10	0	0.1	0	0	393	0.4	392	394	20.4	62.5
2025-08-18T21:30	10	0	0.1	0	0	393	0.2	393	393	20.5	62.1
2025-08-18T21:31	10	0	0.1	0	0	393	0.2	392	393	20.5	62.0
2025-08-18T21:32	10	0	0.1	0	0	393	0.3	392	393	20.5	62.2
2025-08-18T21:33	10	0	0.1	0	0	393	0.2	392	394	20.5	62.0
2025-08-18T21:34	10	0	0.1	0	0	393	0.3	392	393	20.6	61.8
2025-08-18T21:35	10	0	0.1	0	0	392	0.2	392	393	20.5	61.9
2025-08-18T21:36	10	0	0.1	0	0	393	0.2	392	393	20.6	61.6
2025-08-18T21:37	10	0	0.1	0	0	393	0.2	392	393	20.7	61.2
2025-08-18T21:38	10	0	0.1	0	0	392	0.3	391	393	20.7	61.3
2025-08-18T21:39	10	0	0.1	0	0	392	0.3	391	393	20.6	61.8
2025-08-18T21:40	10	0	0.1	0	0	393	0.3	392	393	20.6	61.3
2025-08-18T21:41	10	0	0.1	0	0	392	0.2	392	393	20.8	60.5
2025-08-18T21:42	10	0	0.1	-1	0	392	0.3	391	392	20.9	60.2
2025-08-18T21:43	10	0	0.1	0	0	391	0.3	390	392	20.9	60.0
2025-08-18T21:44	10	0	1.0	0	5	391	0.3	391	392	20.7	61.0
2025-08-18T21:45	10	0	0.2	0	0	391	0.3	390	392	20.6	61.4
2025-08-18T21:46	10	0	0.2	0	0	391	0.4	391	392	20.6	61.2
2025-08-18T21:47	10	0	0.2	-1	0	392	0.3	391	392	20.7	60.8
2025-08-18T21:48	10	0	0.1	0	0	392	0.3	391	392	20.7	60.6
2025-08-18T21:49	10	0	0.2	0	0	392	0.2	391	392	20.8	60.5
2025-08-18T21:50	10	0	0.2	0	0	391	0.3	391	392	20.7	60.8
2025-08-18T21:51	10	0	0.1	0	0	391	0.2	391	392	20.6	61.2
2025-08-18T21:52	10	0	0.1	0	0	391	0.2	390	391	20.6	61.2
2025-08-18T21:53	10	0	0.1	0	0	391	0.2	391	392	20.6	61.1
2025-08-18T21:54	10	0	0.1	0	0	391	0.2	391	392	20.6	61.0
2025-08-18T21:55	10	0	0.1	0	0	391	0.2	391	392	20.6	61.4
2025-08-18T21:56	10	0	0.1	0	0	391	0.3	390	392	20.5	61.9
2025-08-18T21:57	10	0	0.1	0	1	391	0.3	390	391	20.3	62.8
2025-08-18T21:58	10	0	0.1	0	0	390	0.2	390	391	20.1	63.6
2025-08-18T21:59	10	0	0.1	0	0	391	0.2	390	391	20.2	62.8
2025-08-18T22:00	10	0	0.1	0	0	390	0.4	389	391	20.2	63.2
2025-08-18T22:01	10	0	0.2	0	0	389	0.2	389	390	19.9	64.5
2025-08-18T22:02	10	0	0.1	0	0	390	0.3	389	390	19.8	64.8
2025-08-18T22:03	10	0	0.1	0	0	390	0.2	389	390	19.8	64.7
2025-08-18T22:04	10	0	0.1	0	0	390	0.2	389	391	19.8	64.7
2025-08-18T22:05	10	0	0.1	0	0	390	0.2	390	391	19.8	64.8
2025-08-18T22:06	10	0	0.1	0	0	390	0.2	390	391	19.7	65.1
2025-08-18T22:07	10	0	0.1	0	0	390	0.2	389	391	19.7	65.5
2025-08-18T22:08	10	0	0.1	0	0	390	0.3	390	391	19.7	65.4
2025-08-18T22:09	10	0	0.1	0	0	390	0.2	390	391	19.7	65.5
2025-08-18T22:10	10	0	0.1	0	0	390	0.3	389	391	19.6	65.7
2025-08-18T22:11	10	0	0.1	0	0	390	0.3	389	390	19.5	65.9
2025-08-18T22:12	10	0	0.1	0	0	390	0.2	389	390	19.6	65.8
2025-08-18T22:13	10	0	0.1	0	0	390	0.2	389	390	19.6	65.6
2025-08-18T22:14	10	0	0.1	0	0	390	0.2	389	390	19.5	66.1
2025-08-18T22:15	10	0	0.1	0	0	390	0.2	389	390	19.4	66.6
2025-08-18T22:16	10	0	0.0	0	0	390	0.2	389	390	19.3	66.8
2025-08-18T22:17	10	0	0.1	0	0	390	0.3	389	390	19.3	67.4
2025-08-18T22:18	10	0	0.1	0	0	390	0.2	389	390	19.3	67.2
2025-08-18T22:19	10	0	0.1	0	0	390	0.3	389	390	19.3	67.2
2025-08-18T22:20	10	0	0.1	0	0	389	0.2	389	390	19.3	67.1
2025-08-18T22:21	10	0	0.1	0	0	389	0.3	389	390	19.3	67.6
2025-08-18T22:22	10	0	0.1	0	0	389	0.2	389	390	19.2	68.0
2025-08-18T22:23	10	0	0.1	0	0	389	0.3	389	390	19.2	68.0
2025-08-18T22:24	10	0	0.1	0	0	389	0.2	389	390	19.3	67.1
2025-08-18T22:25	10	0	0.1	0	0	389	0.3	389	390	19.5	65.8
2025-08-18T22:26	10	0	0.1	0	0	390	0.3	389	390	19.6	65.8
2025-08-18T22:27	10	0	0.1	0	0	389	0.2	389	390	19.5	66.4
2025-08-18T22:28	10	0	0.1	0	0	389	0.3	388	390	19.4	66.9
2025-08-18T22:29	10	0	0.1	0	0	389	0.3	388	389	19.2	67.6
2025-08-18T22:30	10	0	0.1	0	0	388	0.3	387	389	19.1	68.1
2025-08-18T22:31	10	0	0.1	0	0	388	0.3	387	388	19.0	68.5
2025-08-18T22:32	10	0	0.1	0	0	387	0.3	387	388	18.9	69.3
2025-08-18T22:33	10	0	0.1	0	0	387	0.3	387	388	18.8	69.7
2025-08-18T22:34	10	0	0.1	0	0	388	0.3	387	389	18.9	68.9
2025-08-18T22:35	10	0	0.1	0	0	387	0.2	387	388	18.9	69.4
2025-08-18T22:36	10	0	0.1	0	0	388	0.3	387	388	18.8	69.9
2025-08-18T22:37	10	0	0.1	0	0	388	0.4	387	389	18.8	69.7
2025-08-18T22:38	10	0	0.1	0	0	388	0.3	387	388	18.9	69.3
2025-08-18T22:39	10	0	0.1	0	0	388	0.3	387	388	18.8	69.6
2025-08-18T22:40	10	0	0.1	0	0	388	0.3	387	388	18.8	69.6
2025-08-18T22:41	10	0	0.1	0	0	387	0.2	387	388	18.9	69.2
2025-08-18T22:42	10	0	0.1	0	0	387	0.3	387	388	18.9	69.1
2025-08-18T22:43	10	0	0.1	0	0	387	0.2	386	387	18.9	69.6
2025-08-18T22:44	10	0	0.1	0	0	387	0.3	387	388	18.8	70.1
2025-08-18T22:45	10	0	0.1	0	0	387	0.2	387	388	18.7	70.2
2025-08-18T22:46	10	0	0.1	0	0	388	0.3	387	389	18.8	69.2
2025-08-18T22:47	10	0	0.1	0	0	388	0.3	387	388	18.9	68.4
2025-08-18T22:48	10	0	0.1	0	0	388	0.2	387	388	18.9	68.6
2025-08-18T22:49	10	0	0.1	0	0	388	0.2	387	388	18.9	68.6
2025-08-18T22:50	10	0	0.1	0	0	387	0.2	387	388	18.8	70.1
2025-08-18T22:51	10	0	0.1	0	0	388	0.3	387	388	18.7	69.9
2025-08-18T22:52	10	0	0.1	0	0	388	0.3	387	388	18.8	69.0
2025-08-18T22:53	10	0	0.1	0	0	388	0.3	387	388	18.8	68.7
2025-08-18T22:54	10	0	0.1	0	0	388	0.3	388	389	19.0	67.8
2025-08-18T22:55	10	0	0.0	0	0	388	0.3	387	389	19.1	67.4
2025-08-18T22:56	10	0	0.1	0	0	387	0.4	386	388	18.9	68.9
2025-08-18T22:57	10	0	0.1	0	0	387	0.2	386	387	18.6	70.3
2025-08-18T22:58	10	0	0.1	0	0	387	0.3	386	388	18.5	70.7
2025-08-18T22:59	10	0	0.1	0	0	388	0.3	387	388	18.6	69.9
2025-08-18T23:00	10	0	0.1	0	0	388	0.2	387	388	18.5	70.5
2025-08-18T23:01	10	0	0.1	0	0	387	0.3	386	388	18.4	71.3
2025-08-18T23:02	10	0	0.1	0	0	388	0.2	387	388	18.5	71.0
2025-08-18T23:03	10	0	0.1	0	0	388	0.3	387	388	18.5	71.4
2025-08-18T23:04	10	0	0.1	0	0	388	0.2	388	389	18.4	71.5
2025-08-18T23:05	10	0	0.1	0	0	389	0.4	388	389	18.5	71.0
2025-08-18T23:06	10	0	0.1	0	0	389	0.2	388	389	18.5	70.4
2025-08-18T23:07	10	0	0.1	0	0	389	0.3	389	390	18.5	70.4
2025-08-18T23:08	10	0	0.1	0	0	388	0.3	388	389	18.6	70.0
2025-08-18T23:09	10	0	0.0	0	0	389	0.3	388	389	18.8	69.2
2025-08-18T23:10	10	0	0.0	0	0	388	0.4	387	389	18.9	68.8
2025-08-18T23:11	10	0	0.0	0	0	388	0.3	388	389	18.9	68.8
2025-08-18T23:12	10	0	0.0	0	0	389	0.2	388	389	19.0	68.3
2025-08-18T23:13	10	0	0.1	0	0	389	0.2	389	390	19.0	68.2
2025-08-18T23:14	10	0	0.0	0	0	389	0.3	388	389	18.9	68.8
2025-08-18T23:15	10	0	0.1	0	0	388	0.5	387	389	18.6	70.1
2025-08-18T23:16	10	0	0.1	0	0	388	0.3	388	389	18.4	70.9
2025-08-18T23:17	10	0	0.0	0	0	389	0.7	387	390	18.7	69.9
2025-08-18T23:18	10	0	0.0	0	0	389	0.2	388	389	19.0	68.3
2025-08-18T23:19	10	0	0.1	0	0	389	0.3	389	390	19.0	68.3
2025-08-18T23:20	10	0	0.1	0	0	389	0.5	388	390	19.0	68.5
2025-08-18T23:21	10	0	0.1	0	0	389	0.5	388	390	18.9	69.1
2025-08-18T23:22	10	0	0.0	0	0	389	0.4	388	390	19.2	67.9
2025-08-18T23:23	10	0	0.1	0	0	389	0.2	389	390	19.1	68.5
2025-08-18T23:24	10	0	0.1	0	0	389	0.3	388	390	19.1	68.2
2025-08-18T23:25	10	0	0.1	0	0	389	0.4	388	390	19.1	68.5
2025-08-18T23:26	10	0	0.1	0	0	389	0.2	389	389	19.3	67.4
2025-08-18T23:27	10	0	0.1	0	0	389	0.3	388	389	19.2	67.8
2025-08-18T23:28	10	0	0.1	0	0	389	0.2	388	389	19.1	68.3
2025-08-18T23:29	10	0	0.1	0	1	388	0.4	388	389	19.0	68.9
2025-08-18T23:30	10	0	0.1	0	0	388	0.3	387	388	18.9	69.5
2025-08-18T23:31	10	0	0.1	0	1	387	0.3	387	388	18.8	69.9
2025-08-18T23:32	10	0	0.1	0	0	387	0.3	386	388	18.8	69.9
2025-08-18T23:33	10	0	0.1	0	0	389	0.5	387	389	19.0	69.1
2025-08-18T23:34	10	0	0.1	0	0	389	0.2	389	389	19.1	68.5
2025-08-18T23:35	10	0	0.1	0	0	389	0.2	389	390	19.0	68.6
2025-08-18T23:36	10	0	0.1	0	0	389	0.3	388	390	19.0	68.8
2025-08-18T23:37	10	0	0.1	0	1	389	0.3	389	390	19.0	69.1
2025-08-18T23:38	10	0	0.1	0	0	389	0.3	388	389	18.8	69.5
2025-08-18T23:39	10	0	0.1	0	0	388	0.3	388	389	18.8	69.7
2025-08-18T23:40	10	0	0.2	0	1	388	0.3	387	389	18.7	70.2
2025-08-18T23:41	10	0	0.1	0	0	388	0.2	387	388	18.7	70.1
2025-08-18T23:42	10	0	0.2	0	1	388	0.3	387	388	18.6	70.3
2025-08-18T23:43	10	0	0.1	0	0	387	0.3	386	388	18.6	70.3
2025-08-18T23:44	10	0	0.1	0	0	387	0.2	387	387	18.5	70.6
2025-08-18T23:45	10	0	0.2	0	0	386	0.4	386	387	18.5	70.8
2025-08-18T23:46	10	0	0.1	0	0	386	0.3	386	387	18.4	71.3
2025-08-18T23:47	10	0	0.1	0	0	386	0.3	386	387	18.5	71.0
2025-08-18T23:48	10	0	0.2	0	0	386	0.3	385	387	18.5	70.8
2025-08-18T23:49	10	0	0.2	0	0	386	0.3	385	387	18.5	71.0
2025-08-18T23:50	10	0	0.2	0	1	386	0.3	385	387	18.5	70.9
2025-08-18T23:51	10	0	0.2	0	1	386	0.2	385	386	18.4	71.1
2025-08-18T23:52	10	0	0.1	0	0	386	0.3	385	386	18.5	70.9
2025-08-18T23:53	10	0	0.1	0	1	386	0.2	385	386	18.5	70.9
2025-08-18T23:54	10	0	0.1	0	0	386	0.4	385	386	18.4	71.1
2025-08-18T23:55	10	0	0.1	0	0	385	0.3	384	386	18.3	71.8
2025-08-18T23:56	10	0	0.1	0	0	385	0.2	385	386	18.5	71.0
2025-08-18T23:57	10	0	0.1	0	0	385	0.5	384	386	18.6	70.4
2025-08-18T23:58	10	0	0.1	0	1	385	0.3	385	386	18.7	70.1
2025-08-18T23:59	10	0	0.1	0	0	385	0.2	384	385	18.5	70.6
2025-08-19T00:00	10	0	0.1	0	0	385	0.2	385	385	18.5	70.6
2025-08-19T00:01	10	0	0.1	0	0	385	0.2	385	386	18.5	70.7
2025-08-19T00:02	10	0	0.1	0	0	385	0.3	385	386	18.5	70.7
2025-08-19T00:03	10	0	0.1	0	0	385	0.2	385	386	18.6	70.4
2025-08-19T00:04	10	0	0.1	0	0	385	0.4	384	386	18.6	70.4
2025-08-19T00:05	10	0	0.1	0	0	384	0.5	383	385	18.5	70.7
2025-08-19T00:06	10	0	0.1	0	0	384	0.3	383	385	18.3	71.9
2025-08-19T00:07	10	0	0.1	0	0	383	0.3	383	384	18.1	72.4
2025-08-19T00:08	10	0	0.0	0	0	383	0.2	383	384	18.0	72.9
2025-08-19T00:09	10	0	0.1	0	0	383	0.3	383	384	18.2	72.2
2025-08-19T00:10	10	0	0.1	0	0	383	0.2	383	384	18.3	71.6
2025-08-19T00:11	10	0	0.1	0	0	384	0.2	383	384	18.4	71.5
2025-08-19T00:12	10	0	0.1	0	0	383	0.2	383	384	18.3	71.9
2025-08-19T00:13	10	0	0.1	0	0	384	0.3	383	384	18.1	72.6
2025-08-19T00:14	10	0	0.1	0	0	384	0.3	383	384	17.9	73.4
2025-08-19T00:15	10	0	0.1	0	0	384	0.3	384	385	17.9	73.6
2025-08-19T00:16	10	0	0.1	0	0	385	0.3	384	385	17.8	74.0
2025-08-19T00:17	10	0	0.1	0	0	384	0.2	384	385	17.6	74.6
2025-08-19T00:18	10	0	0.1	0	0	384	0.3	383	385	17.5	75.2
2025-08-19T00:19	10	0	0.0	0	0	383	0.3	382	384	17.3	76.2
2025-08-19T00:20	10	0	0.1	0	0	383	0.3	382	383	17.2	76.6
2025-08-19T00:21	10	0	0.1	0	0	382	0.2	382	383	17.3	76.3
2025-08-19T00:22	10	0	0.1	0	0	382	0.2	382	383	17.3	76.1
2025-08-19T00:23	10	0	0.0	0	0	382	0.3	382	383	17.4	75.9
2025-08-19T00:24	10	0	0.1	0	0	382	0.3	381	383	17.4	76.3
2025-08-19T00:25	10	0	0.1	0	0	382	0.2	382	382	17.4	76.3
2025-08-19T00:26	10	0	0.1	0	0	382	0.2	382	382	17.3	76.4
2025-08-19T00:27	10	0	0.1	0	0	382	0.3	382	383	17.3	76.7
2025-08-19T00:28	10	0	0.1	0	0	383	0.3	382	383	17.4	76.1
2025-08-19T00:29	10	0	0.1	0	0	383	0.4	382	384	17.5	75.7
2025-08-19T00:30	10	0	0.1	0	0	384	0.5	383	385	17.4	75.9
2025-08-19T00:31	10	0	0.1	0	0	385	0.3	384	385	17.3	76.3
2025-08-19T00:32	10	0	0.1	0	0	384	0.3	384	385	17.3	76.7
2025-08-19T00:33	10	0	0.1	0	0	384	0.3	384	385	17.3	76.7
2025-08-19T00:34	10	0	0.1	0	0	384	0.4	383	385	17.3	76.3
2025-08-19T00:35	10	0	0.1	0	0	384	0.3	383	384	17.4	76.0
2025-08-19T00:36	10	0	0.1	0	0	383	0.2	383	384	17.5	75.8
2025-08-19T00:37	10	0	0.1	0	0	383	0.2	383	384	17.4	76.0
2025-08-19T00:38	10	0	0.1	0	0	383	0.3	382	383	17.3	76.5
2025-08-19T00:39	10	0	0.0	0	0	382	0.3	381	383	17.2	77.2
2025-08-19T00:40	10	0	0.1	0	0	383	0.3	382	383	17.2	77.1
2025-08-19T00:41	10	0	0.1	0	0	383	0.2	382	383	17.3	76.9
2025-08-19T00:42	10	0	0.1	0	0	382	0.2	382	383	17.2	77.1
2025-08-19T00:43	10	0	0.1	0	0	382	0.3	381	383	17.2	77.3
2025-08-19T00:44	10	0	0.1	0	0	381	0.3	380	382	17.0	78.0
2025-08-19T00:45	10	0	0.1	0	0	381	0.3	380	381	17.0	77.9
2025-08-19T00:46	10	0	0.1	0	0	381	0.4	380	382	17.1	77.6
2025-08-19T00:47	10	0	0.1	0	0	381	0.4	380	382	17.1	77.7
2025-08-19T00:48	10	0	0.1	0	0	381	0.4	380	382	17.0	77.9
2025-08-19T00:49	10	0	0.1	0	0	381	0.3	380	382	17.0	78.2
2025-08-19T00:50	10	0	0.1	0	0	381	0.2	380	381	16.9	78.5
2025-08-19T00:51	10	0	0.1	0	0	381	0.3	380	381	17.0	78.4
2025-08-19T00:52	10	0	0.1	0	0	381	0.3	380	381	16.9	78.6
2025-08-19T00:53	10	0	0.1	0	0	381	0.3	380	381	16.9	78.6
2025-08-19T00:54	10	0	0.1	0	0	381	0.3	380	381	17.0	78.3
2025-08-19T00:55	10	0	0.1	0	0	381	0.2	380	381	17.1	77.9
2025-08-19T00:56	10	0	0.1	0	0	380	0.2	380	381	17.0	78.1
2025-08-19T00:57	10	0	0.1	0	0	381	0.3	380	381	17.0	78.4
2025-08-19T00:58	10	0	0.1	0	1	381	0.3	380	381	16.9	78.8
2025-08-19T00:59	10	0	0.1	0	0	381	0.6	380	382	16.8	79.2
2025-08-19T01:00	10	0	0.1	0	0	383	0.6	382	385	17.0	78.6
2025-08-19T01:01	10	0	0.1	0	0	385	0.3	384	385	17.0	78.7
2025-08-19T01:02	10	0	0.1	0	0	385	0.3	384	386	17.0	78.2
2025-08-19T01:03	10	0	0.1	0	0	385	0.2	385	385	17.1	78.1
2025-08-19T01:04	10	0	0.1	0	0	385	0.2	384	385	17.1	77.7
2025-08-19T01:05	10	0	0.1	0	0	386	0.3	385	386	17.2	77.5
2025-08-19T01:06	10	0	0.1	0	0	386	0.3	385	387	17.2	77.4
2025-08-19T01:07	10	0	0.1	0	0	386	0.2	386	387	17.2	77.5
2025-08-19T01:08	10	0	0.1	0	0	386	0.3	386	387	17.1	77.7
2025-08-19T01:09	10	0	0.1	0	0	387	0.3	386	388	17.1	77.6
2025-08-19T01:10	10	0	0.1	0	0	387	0.3	386	387	17.2	77.3
2025-08-19T01:11	10	0	0.1	0	0	387	0.2	386	387	17.2	77.4
2025-08-19T01:12	10	0	0.1	0	0	387	0.3	386	387	17.1	77.7
2025-08-19T01:13	10	0	0.1	0	0	387	0.2	386	387	17.0	78.1
2025-08-19T01:14	10	0	0.1	0	0	386	0.2	386	387	17.0	78.3
2025-08-19T01:15	10	0	0.1	0	0	386	0.2	385	387	17.0	78.1
2025-08-19T01:16	10	0	0.1	0	0	386	0.2	385	386	17.0	78.1
2025-08-19T01:17	10	0	0.1	0	0	385	0.4	384	386	16.9	78.6
2025-08-19T01:18	10	0	0.1	0	0	385	0.3	384	385	16.8	79.4
2025-08-19T01:19	10	0	0.0	0	0	385	0.3	384	385	16.7	79.8
2025-08-19T01:20	10	0	0.0	0	0	384	0.2	383	384	16.6	80.1
2025-08-19T01:21	10	0	0.0	0	0	383	0.3	382	383	16.6	80.2
2025-08-19T01:22	10	0	0.1	0	0	382	0.4	381	383	16.6	80.4
2025-08-19T01:23	10	0	0.0	0	0	381	0.4	380	382	16.5	80.7
2025-08-19T01:24	10	0	0.7	0	5	380	0.3	380	381	16.4	81.1
2025-08-19T01:25	10	0	0.1	0	0	380	0.3	380	381	16.5	81.1
2025-08-19T01:26	10	0	0.1	0	0	380	0.2	379	380	16.4	81.3
2025-08-19T01:27	10	0	0.1	0	0	380	0.2	379	380	16.3	81.6
2025-08-19T01:28	10	0	0.1	0	0	380	0.3	379	380	16.3	81.8
2025-08-19T01:29	10	0	0.1	0	0	380	0.3	379	380	16.3	81.7
2025-08-19T01:30	10	0	0.1	0	0	380	0.2	379	380	16.3	81.7
2025-08-19T01:31	10	0	0.1	0	0	380	0.4	379	381	16.3	81.5
2025-08-19T01:32	10	0	0.1	0	0	381	0.4	380	382	16.5	80.9
2025-08-19T01:33	10	0	0.1	0	0	381	0.3	380	382	16.6	80.4
2025-08-19T01:34	10	0	0.7	0	5	382	0.3	381	382	16.7	79.8
2025-08-19T01:35	10	0	0.0	0	0	381	0.2	381	382	16.6	79.9
2025-08-19T01:36	10	0	0.0	0	0	381	0.3	381	382	16.6	79.8
2025-08-19T01:37	10	0	0.0	0	0	382	0.3	381	383	16.7	79.5
2025-08-19T01:38	10	0	0.0	0	0	382	0.3	382	383	16.8	79.2
2025-08-19T01:39	10	0	0.0	0	0	382	0.2	382	383	16.8	79.1
2025-08-19T01:40	10	0	0.1	0	0	383	0.2	383	384	16.8	78.9
2025-08-19T01:41	10	0	0.0	0	0	384	0.3	383	384	16.8	79.0
2025-08-19T01:42	10	0	0.0	0	0	384	0.2	383	384	16.8	79.0
2025-08-19T01:43	10	0	0.1	0	0	384	0.2	384	385	16.8	79.0
2025-08-19T01:44	10	0	0.1	0	0	384	0.2	384	385	16.9	78.8
2025-08-19T01:45	10	0	0.1	0	0	385	0.2	384	385	17.0	78.5
2025-08-19T01:46	10	0	0.1	0	1	385	0.2	384	385	17.0	78.5
2025-08-19T01:47	10	0	0.1	0	0	385	0.3	384	385	16.9	78.6
2025-08-19T01:48	10	0	0.1	0	0	384	0.3	384	385	16.8	78.8
2025-08-19T01:49	10	0	0.1	0	0	384	0.3	383	385	16.8	79.1
2025-08-19T01:50	10	0	0.1	0	0	384	0.2	383	384	16.7	79.3
2025-08-19T01:51	10	0	0.1	0	0	384	0.2	384	385	16.8	79.1
2025-08-19T01:52	10	0	0.1	0	0	384	0.3	383	384	16.7	79.4
2025-08-19T01:53	10	0	0.1	0	0	383	0.2	383	384	16.6	79.9
2025-08-19T01:54	10	0	0.0	0	0	383	0.3	382	383	16.5	80.4
2025-08-19T01:55	10	0	0.0	0	0	383	0.2	383	384	16.5	80.7
2025-08-19T01:56	10	0	0.1	0	0	383	0.2	383	384	16.4	80.9
2025-08-19T01:57	10	0	0.1	0	0	383	0.2	382	383	16.4	81.1
2025-08-19T01:58	10	0	0.1	0	0	383	0.3	382	383	16.4	81.2
2025-08-19T01:59	10	0	0.1	0	0	382	0.2	381	383	16.3	81.4
2025-08-19T02:00	10	0	0.1	0	1	382	0.2	381	382	16.3	81.4
2025-08-19T02:01	10	0	0.1	0	0	381	0.3	381	382	16.4	81.3
2025-08-19T02:02	10	0	0.1	0	0	381	0.4	379	381	16.3	81.4
2025-08-19T02:03	10	0	0.1	0	0	380	0.3	379	380	16.3	81.5
2025-08-19T02:04	10	0	0.1	0	0	379	0.2	378	379	16.4	81.2
2025-08-19T02:05	10	0	0.1	0	0	379	0.2	378	379	16.4	80.9
2025-08-19T02:06	10	0	0.1	0	0	379	0.3	379	380	16.4	80.7
2025-08-19T02:07	10	0	0.1	0	0	378	0.6	377	379	16.4	80.8
2025-08-19T02:08	10	0	0.1	0	0	378	0.2	377	378	16.1	81.6
2025-08-19T02:09	10	0	0.1	0	0	378	0.3	377	379	16.1	82.0
2025-08-19T02:10	10	0	1.3	0	9	378	0.3	377	379	16.1	81.9
2025-08-19T02:11	10	0	0.1	0	0	378	0.3	378	379	16.2	81.8
2025-08-19T02:12	10	0	0.2	0	1	378	0.3	377	379	16.2	81.8
2025-08-19T02:13	10	0	0.1	0	1	378	0.2	377	378	16.0	82.5
2025-08-19T02:14	10	0	0.1	0	0	377	0.3	377	378	15.9	83.3
2025-08-19T02:15	10	0	0.1	0	0	378	0.4	376	378	15.8	83.4
2025-08-19T02:16	10	0	0.2	0	0	377	0.2	376	377	15.8	83.6
2025-08-19T02:17	10	0	0.1	0	0	376	0.2	376	377	15.8	83.6
2025-08-19T02:18	10	0	0.2	0	1	376	0.3	375	376	15.9	83.6
2025-08-19T02:19	10	0	0.1	0	0	375	0.2	375	376	15.8	83.8
2025-08-19T02:20	10	0	0.2	0	0	375	0.2	374	375	15.8	83.9
2025-08-19T02:21	10	0	0.1	0	0	375	0.2	374	375	15.8	84.1
2025-08-19T02:22	10	0	0.1	0	0	374	0.2	373	375	15.8	83.9
2025-08-19T02:23	10	0	0.2	0	1	374	0.2	373	374	15.8	83.8
2025-08-19T02:24	10	0	0.1	0	1	373	0.3	373	374	15.7	84.0
2025-08-19T02:25	10	0	0.1	0	0	373	0.3	372	374	15.7	83.9
2025-08-19T02:26	10	0	0.1	0	0	373	0.2	372	373	15.8	83.7
2025-08-19T02:27	10	0	0.1	0	1	372	0.3	372	373	15.8	83.3
2025-08-19T02:28	10	0	0.1	0	0	373	0.3	372	373	15.9	83.0
2025-08-19T02:29	10	0	0.1	0	0	373	0.2	372	373	16.0	82.5
2025-08-19T02:30	10	0	0.1	0	1	373	0.2	373	374	16.0	82.2
2025-08-19T02:31	10	0	0.1	0	1	374	0.3	373	374	16.1	82.1
2025-08-19T02:32	10	0	0.1	0	0	374	0.3	373	374	16.1	81.9
2025-08-19T02:33	10	0	0.1	0	0	373	0.2	373	374	16.1	81.9
2025-08-19T02:34	10	0	0.1	0	0	374	0.4	373	374	16.1	82.0
2025-08-19T02:35	10	0	0.1	0	0	374	0.4	373	374	16.1	81.9
2025-08-19T02:36	10	0	0.1	0	0	375	0.4	373	375	16.0	82.4
2025-08-19T02:37	10	0	0.1	0	0	375	0.2	374	375	16.1	82.2
2025-08-19T02:38	10	0	0.1	0	0	376	0.7	374	377	16.2	81.8
2025-08-19T02:39	10	0	0.1	0	0	377	0.3	376	377	16.2	81.7
2025-08-19T02:40	10	0	0.0	0	0	378	0.4	377	379	16.2	81.8
2025-08-19T02:41	10	0	0.1	0	0	378	0.3	377	378	16.0	82.2
2025-08-19T02:42	10	0	0.1	0	0	378	0.2	377	378	16.1	81.8
2025-08-19T02:43	10	0	0.1	0	0	378	0.2	377	378	16.1	81.5
2025-08-19T02:44	10	0	0.1	0	0	378	0.2	377	378	16.1	81.4
2025-08-19T02:45	10	0	0.0	0	0	378	0.2	378	378	16.2	81.3
2025-08-19T02:46	10	0	0.1	0	0	379	0.5	378	380	16.1	81.3
2025-08-19T02:47	10	0	0.1	0	0	380	0.4	379	381	16.2	81.1
2025-08-19T02:48	10	0	0.1	0	0	381	0.2	380	381	16.2	81.2
2025-08-19T02:49	10	0	0.1	0	0	382	0.5	381	382	16.1	81.4
2025-08-19T02:50	10	0	0.1	0	0	382	0.2	382	382	16.2	81.2
2025-08-19T02:51	10	0	0.1	0	0	382	0.3	382	383	16.2	81.1
2025-08-19T02:52	10	0	0.1	0	0	382	0.3	382	383	16.2	80.9
2025-08-19T02:53	10	0	0.1	0	0	382	0.3	382	383	16.2	81.2
2025-08-19T02:54	10	0	0.1	0	0	382	0.3	381	383	16.2	80.9
2025-08-19T02:55	10	0	0.1	0	0	382	0.2	381	382	16.2	81.1
2025-08-19T02:56	10	0	0.1	0	0	382	0.2	381	382	16.1	81.4
2025-08-19T02:57	10	0	0.1	0	0	381	0.2	381	382	16.1	81.6
2025-08-19T02:58	10	0	0.1	0	0	381	0.2	381	381	16.0	82.3
2025-08-19T02:59	10	0	0.1	0	0	381	0.2	381	381	15.9	82.5
2025-08-19T03:00	10	0	0.1	0	0	380	0.3	380	381	15.9	82.8
2025-08-19T03:01	10	0	0.0	0	0	380	0.2	380	381	15.8	83.2
2025-08-19T03:02	10	0	0.1	0	0	380	0.2	380	380	15.7	83.5
2025-08-19T03:03	10	0	0.0	0	0	380	0.3	379	381	15.7	83.4
2025-08-19T03:04	10	0	0.0	0	0	380	0.2	379	380	15.7	83.5
2025-08-19T03:05	10	0	0.0	0	0	380	0.2	379	380	15.8	83.4
2025-08-19T03:06	10	0	0.0	0	0	379	0.3	379	380	15.7	83.5
2025-08-19T03:07	10	0	0.1	0	0	379	0.3	379	380	15.6	83.8
2025-08-19T03:08	10	0	0.1	0	0	379	0.2	378	379	15.7	83.8
2025-08-19T03:09	10	0	0.1	0	0	379	0.3	378	379	15.6	83.8
2025-08-19T03:10	10	0	0.0	0	0	380	0.4	379	380	15.8	83.2
2025-08-19T03:11	10	0	0.0	0	0	380	0.2	379	380	15.7	83.3
2025-08-19T03:12	10	0	0.0	0	0	379	0.3	379	380	15.7	83.3
2025-08-19T03:13	10	0	0.1	0	0	380	0.3	379	380	15.7	83.2
2025-08-19T03:14	10	0	0.0	0	0	380	0.2	379	380	15.7	83.1
2025-08-19T03:15	10	0	0.0	0	0	379	0.3	379	380	15.8	83.0
2025-08-19T03:16	10	0	0.0	0	0	379	0.3	378	380	15.8	82.9
2025-08-19T03:17	10	0	0.0	0	0	379	0.2	379	379	15.8	82.8
2025-08-19T03:18	10	0	0.0	0	0	379	0.2	379	380	15.8	82.7
2025-08-19T03:19	10	0	0.0	0	0	379	0.2	379	380	15.8	82.7
2025-08-19T03:20	10	0	0.0	0	0	379	0.2	379	380	15.8	82.8
2025-08-19T03:21	10	0	0.0	0	0	379	0.3	379	380	15.8	82.7
2025-08-19T03:22	10	0	0.0	0	0	379	0.3	378	380	15.8	82.7
2025-08-19T03:23	10	0	0.1	0	0	379	0.2	379	380	15.8	82.9
2025-08-19T03:24	10	0	0.1	0	0	379	0.2	379	380	15.6	83.4
2025-08-19T03:25	10	0	0.0	0	0	379	0.2	379	380	15.7	83.3
2025-08-19T03:26	10	0	0.1	0	0	379	0.3	378	380	15.6	83.8
2025-08-19T03:27	10	0	0.1	0	0	379	0.2	378	379	15.6	83.9
2025-08-19T03:28	10	0	0.0	0	0	379	0.4	378	380	15.5	84.3
2025-08-19T03:29	10	0	0.1	0	0	379	0.3	379	380	15.5	84.4
2025-08-19T03:30	10	0	0.0	0	0	379	0.3	378	380	15.5	84.3
2025-08-19T03:31	10	0	0.0	0	0	379	0.2	378	379	15.5	84.4
2025-08-19T03:32	10	0	0.1	0	0	379	0.2	378	379	15.4	84.7
2025-08-19T03:33	10	0	0.0	0	0	379	0.2	378	379	15.3	85.1
2025-08-19T03:34	10	0	0.0	0	0	378	0.3	378	379	15.3	85.2
2025-08-19T03:35	10	0	0.1	0	0	378	0.2	378	379	15.4	85.1
2025-08-19T03:36	10	0	0.0	0	0	378	0.2	378	378	15.4	84.8
2025-08-19T03:37	10	0	0.0	0	0	378	0.2	378	379	15.4	85.0
2025-08-19T03:38	10	0	0.1	0	0	378	0.3	378	379	15.3	85.2
2025-08-19T03:39	10	0	0.1	0	0	379	0.2	378	379	15.4	84.7
2025-08-19T03:40	10	0	0.1	0	0	379	0.2	378	379	15.4	84.6
2025-08-19T03:41	10	0	0.1	0	0	379	0.2	378	379	15.4	84.7
2025-08-19T03:42	10	0	0.0	0	0	379	0.2	378	379	15.4	84.9
2025-08-19T03:43	10	0	0.1	0	0	378	0.2	378	379	15.4	84.7
2025-08-19T03:44	10	0	0.0	0	0	379	0.2	378	379	15.4	84.6
2025-08-19T03:45	10	0	0.1	0	0	379	0.2	378	379	15.3	85.2
2025-08-19T03:46	10	0	0.0	0	0	379	0.3	378	379	15.3	85.1
2025-08-19T03:47	10	0	0.1	0	0	379	0.2	379	379	15.3	85.3
2025-08-19T03:48	10	0	0.1	0	0	379	0.3	378	380	15.4	85.0
2025-08-19T03:49	10	0	0.1	0	0	378	0.3	378	379	15.3	85.3
2025-08-19T03:50	10	0	0.1	0	0	378	0.2	378	379	15.2	85.7
2025-08-19T03:51	10	0	0.1	0	0	378	0.2	377	378	15.1	86.3
2025-08-19T03:52	10	0	0.1	0	0	377	0.2	377	378	15.1	86.5
2025-08-19T03:53	10	0	0.1	0	0	378	0.3	377	379	15.2	86.2
2025-08-19T03:54	10	0	0.1	0	0	378	0.3	376	378	15.1	86.3
2025-08-19T03:55	10	0	0.1	0	0	377	0.3	377	378	15.1	86.4
2025-08-19T03:56	10	0	0.1	0	0	377	0.3	376	377	15.2	86.2
2025-08-19T03:57	10	0	0.1	0	0	377	0.3	376	377	15.1	86.5
2025-08-19T03:58	10	0	0.1	0	0	377	0.2	377	378	15.2	86.1
2025-08-19T03:59	10	0	0.1	0	0	377	0.2	377	378	15.2	86.1
2025-08-19T04:00	10	0	0.1	0	0	377	0.2	377	378	15.2	86.0
2025-08-19T04:01	10	0	0.1	0	0	377	0.2	376	378	15.2	85.9
2025-08-19T04:02	10	0	0.1	0	0	377	0.3	376	378	15.2	85.9
2025-08-19T04:03	10	0	0.1	0	0	377	0.3	377	378	15.2	85.7
2025-08-19T04:04	10	0	0.1	0	0	378	0.3	377	378	15.3	85.6
2025-08-19T04:05	10	0	0.1	0	0	378	0.2	378	379	15.3	85.4
2025-08-19T04:06	10	0	0.1	0	0	378	0.3	377	378	15.2	85.6
2025-08-19T04:07	10	0	0.1	0	0	378	0.3	377	378	15.2	85.8
2025-08-19T04:08	10	0	0.1	0	0	377	0.2	377	378	15.2	85.9
2025-08-19T04:09	10	0	0.1	0	0	377	0.3	376	378	15.2	85.8
2025-08-19T04:10	10	0	0.1	0	0	377	0.4	375	377	15.2	85.9
2025-08-19T04:11	10	0	0.1	0	0	376	0.2	375	376	15.1	86.0
2025-08-19T04:12	10	0	0.1	0	0	375	0.3	375	376	15.1	86.1
2025-08-19T04:13	10	0	0.1	0	0	375	0.2	375	376	15.2	85.9
2025-08-19T04:14	10	0	0.1	0	0	375	0.2	375	376	15.2	85.8
2025-08-19T04:15	10	0	0.1	0	1	376	0.3	375	377	15.2	85.8
2025-08-19T04:16	10	0	0.1	0	0	376	0.2	375	376	15.1	86.0
2025-08-19T04:17	10	0	0.1	0	1	375	0.3	375	376	15.1	86.1
2025-08-19T04:18	10	0	0.1	0	1	375	0.3	374	375	15.1	86.2
2025-08-19T04:19	10	0	0.1	0	1	375	0.3	374	376	15.1	86.3
2025-08-19T04:20	10	0	0.1	0	1	374	0.3	374	375	15.1	86.3
2025-08-19T04:21	10	1	0.1	0	1	374	0.3	373	375	15.0	86.5
2025-08-19T04:22	10	1	0.1	0	1	373	0.4	373	374	15.0	86.5
2025-08-19T04:23	10	1	0.1	0	1	372	0.3	372	373	14.9	86.9
2025-08-19T04:24	10	1	0.1	1	1	372	0.3	371	373	14.8	87.3
2025-08-19T04:25	10	1	0.1	1	1	371	0.2	371	372	14.8	87.3
2025-08-19T04:26	10	1	0.1	1	1	371	0.2	371	372	14.8	87.4
2025-08-19T04:27	10	1	0.1	1	1	372	0.4	371	372	14.9	87.2
2025-08-19T04:28	10	1	0.1	1	1	372	0.2	372	372	14.9	87.1
2025-08-19T04:29	10	1	0.1	1	1	373	0.5	372	374	14.9	86.8
2025-08-19T04:30	10	1	0.1	1	1	374	0.3	373	374	15.1	86.0
2025-08-19T04:31	10	1	0.1	1	1	374	0.3	374	375	15.1	85.8
2025-08-19T04:32	10	1	0.1	1	2	375	0.3	375	376	15.2	85.7
2025-08-19T04:33	10	1	0.1	1	2	376	0.5	376	378	15.2	85.4
2025-08-19T04:34	10	2	0.1	1	2	377	0.3	377	378	15.3	85.2
2025-08-19T04:35	10	2	0.1	2	2	377	0.3	376	378	15.3	85.1
2025-08-19T04:36	10	2	0.1	1	2	377	0.2	377	378	15.3	84.7
2025-08-19T04:37	10	2	0.1	2	2	378	0.2	377	378	15.3	84.9
2025-08-19T04:38	10	2	0.1	2	2	377	0.3	377	378	15.1	85.7
2025-08-19T04:39	10	2	0.1	2	2	377	0.2	377	378	15.2	85.8
2025-08-19T04:40	10	2	0.1	2	2	377	0.2	377	377	15.1	85.8
2025-08-19T04:41	10	2	0.1	2	3	377	0.3	376	378	15.1	85.8
2025-08-19T04:42	10	3	0.1	2	3	376	0.2	376	377	15.0	86.2
2025-08-19T04:43	10	3	0.1	3	3	377	0.3	376	378	15.0	86.1
2025-08-19T04:44	10	3	0.1	3	3	377	0.5	377	378	15.1	85.8
2025-08-19T04:45	10	3	0.1	3	4	378	0.3	377	378	15.1	85.5
2025-08-19T04:46	10	4	0.1	3	4	377	0.2	377	378	15.0	86.1
2025-08-19T04:47	10	4	0.1	4	4	377	0.3	376	377	14.9	86.5
2025-08-19T04:48	10	4	0.1	4	4	377	0.2	376	377	14.9	86.6
2025-08-19T04:49	10	5	0.1	4	5	376	0.3	375	377	14.9	86.7
2025-08-19T04:50	10	5	0.1	5	5	375	0.3	375	376	14.8	87.1
2025-08-19T04:51	10	5	0.1	5	5	375	0.3	374	375	14.8	87.4
2025-08-19T04:52	10	5	0.1	5	6	375	0.3	374	375	14.8	87.4
2025-08-19T04:53	10	6	0.1	6	6	374	0.3	374	375	14.8	87.5
2025-08-19T04:54	10	6	0.1	6	6	374	0.2	374	375	14.8	87.3
2025-08-19T04:55	10	7	0.1	6	7	375	0.3	374	375	14.8	87.4
2025-08-19T04:56	10	7	0.1	7	7	375	0.3	375	376	14.8	87.3
2025-08-19T04:57	10	7	0.2	7	8	376	0.4	375	377	14.9	87.1
2025-08-19T04:58	10	8	0.3	8	9	377	0.2	376	377	14.9	86.8
2025-08-19T04:59	10	9	0.2	8	9	377	0.3	376	377	14.9	86.6
2025-08-19T05:00	10	9	0.2	9	10	377	0.3	376	377	14.9	86.7
2025-08-19T05:01	10	10	0.1	10	10	377	0.3	376	378	15.0	86.2
2025-08-19T05:02	10	10	0.1	10	10	377	0.5	376	378	14.9	86.4
2025-08-19T05:03	10	10	0.2	10	10	377	0.3	377	378	15.0	85.8
2025-08-19T05:04	10	9	0.6	8	9	378	0.3	377	378	15.0	85.7
2025-08-19T05:05	10	7	0.2	7	8	379	0.3	378	379	15.0	85.6
2025-08-19T05:06	10	8	0.2	7	8	379	0.2	379	379	15.0	85.7
2025-08-19T05:07	10	9	0.6	8	10	379	0.3	378	380	15.0	85.9
2025-08-19T05:08	10	11	0.5	10	11	380	0.3	379	380	15.0	86.0
2025-08-19T05:09	10	12	0.2	12	12	380	0.2	379	380	14.9	86.3
2025-08-19T05:10	10	11	0.5	10	12	380	0.3	379	380	14.8	86.7
2025-08-19T05:11	10	10	0.3	9	11	379	0.3	379	380	14.7	87.1
2025-08-19T05:12	10	9	0.1	9	10	380	0.3	379	380	14.7	87.3
2025-08-19T05:13	10	10	0.2	9	10	380	0.5	379	381	14.8	87.2
2025-08-19T05:14	10	10	0.1	10	10	381	0.5	380	382	14.9	86.7
2025-08-19T05:15	10	11	0.3	10	11	382	0.4	381	383	15.1	86.0
2025-08-19T05:16	10	12	0.7	11	14	383	0.4	382	383	15.1	85.7
2025-08-19T05:17	10	15	1.1	13	17	384	0.4	383	384	15.2	85.2
2025-08-19T05:18	10	18	0.4	17	18	384	0.3	384	385	15.2	85.1
2025-08-19T05:19	10	18	0.2	17	18	385	0.2	384	385	15.3	85.0
2025-08-19T05:20	10	18	0.2	17	18	385	0.2	384	386	15.3	85.0
2025-08-19T05:21	10	20	1.0	18	22	386	0.4	385	386	15.4	84.4
2025-08-19T05:22	10	23	0.9	22	25	386	0.3	386	387	15.4	84.4
2025-08-19T05:23	10	26	0.6	25	26	387	0.3	387	388	15.3	85.0
2025-08-19T05:24	10	24	1.7	21	26	388	0.2	387	388	15.4	84.9
2025-08-19T05:25	10	21	0.6	20	22	388	0.2	388	388	15.4	84.7
2025-08-19T05:26	10	24	1.3	22	27	389	0.3	388	390	15.5	84.7
2025-08-19T05:27	10	29	1.2	27	31	389	0.3	388	390	15.5	84.5
2025-08-19T05:28	10	32	0.6	31	33	389	0.2	389	390	15.4	84.5
2025-08-19T05:29	10	33	0.2	33	34	390	0.2	389	390	15.4	84.6
2025-08-19T05:30	10	34	0.2	33	34	390	0.3	389	391	15.4	84.3
2025-08-19T05:31	10	32	1.2	30	34	391	0.2	390	391	15.5	84.4
2025-08-19T05:32	10	30	0.5	30	32	391	0.2	390	391	15.5	84.5
2025-08-19T05:33	10	34	1.4	32	36	391	0.4	391	392	15.6	84.2
2025-08-19T05:34	10	37	0.7	36	42	392	0.2	392	393	15.6	84.2
2025-08-19T05:35	10	36	1.1	34	41	392	0.3	392	393	15.7	84.1
2025-08-19T05:36	10	34	0.5	34	35	393	0.2	392	393	15.7	83.9
2025-08-19T05:37	10	36	0.7	35	38	393	0.3	392	394	15.8	83.7
2025-08-19T05:38	10	40	1.0	38	41	394	0.3	394	395	15.9	84.1
2025-08-19T05:39	10	41	0.2	41	41	395	0.2	394	396	15.9	83.7
2025-08-19T05:40	10	41	0.4	40	41	395	0.2	395	396	15.9	83.6
2025-08-19T05:41	10	40	0.2	39	40	396	0.3	395	396	16.0	82.7
2025-08-19T05:42	10	37	2.4	32	40	395	0.2	395	396	16.0	82.3
2025-08-19T05:43	10	28	1.9	26	32	395	0.5	394	396	16.0	82.4
2025-08-19T05:44	10	27	1.7	25	31	394	0.4	394	395	16.0	82.2
2025-08-19T05:45	10	34	1.3	31	36	395	0.3	394	395	16.1	81.8
2025-08-19T05:46	10	35	0.3	35	36	395	0.2	395	396	16.1	81.7
2025-08-19T05:47	10	39	1.5	36	41	396	0.4	395	396	16.1	81.4
2025-08-19T05:48	10	42	0.7	41	43	397	0.5	396	398	16.2	81.6
2025-08-19T05:49	10	41	1.0	40	43	398	0.3	397	398	16.3	80.8
2025-08-19T05:50	10	39	1.8	35	40	398	0.2	398	398	16.4	81.0
2025-08-19T05:51	10	34	0.6	33	35	398	0.3	397	399	16.5	81.4
2025-08-19T05:52	10	34	1.0	32	35	398	0.2	397	398	16.5	80.8
2025-08-19T05:53	10	31	0.4	31	32	398	0.4	397	398	16.6	81.6
2025-08-19T05:54	10	34	1.1	32	36	397	0.2	397	398	16.6	81.1
2025-08-19T05:55	10	38	1.0	36	39	398	0.3	397	399	16.6	81.0
2025-08-19T05:56	10	40	1.5	38	43	399	0.4	398	400	16.7	80.0
2025-08-19T05:57	10	42	0.7	41	43	399	0.3	399	400	16.7	80.2
2025-08-19T05:58	10	41	0.3	40	41	400	0.3	399	400	16.7	80.8
2025-08-19T05:59	10	43	0.7	41	44	401	0.3	400	401	16.7	81.2
2025-08-19T06:00	10	42	0.3	41	43	400	0.5	399	401	16.8	80.2
2025-08-19T06:01	10	39	1.4	37	41	400	0.3	399	401	16.8	78.6
2025-08-19T06:02	10	35	0.5	35	37	399	0.2	399	400	16.9	78.2
2025-08-19T06:03	10	34	0.8	32	35	399	0.5	398	400	16.9	78.0
2025-08-19T06:04	10	29	1.3	28	32	398	0.3	397	399	16.9	78.3
2025-08-19T06:05	10	26	0.7	25	28	398	0.3	397	398	16.9	78.7
2025-08-19T06:06	10	25	0.3	24	25	397	0.4	396	398	16.8	79.2
2025-08-19T06:07	10	23	0.5	23	24	397	0.3	396	397	16.8	79.8
2025-08-19T06:08	10	22	0.5	21	23	396	0.2	395	396	16.7	79.9
2025-08-19T06:09	10	21	0.2	20	21	396	0.2	395	396	16.7	80.2
2025-08-19T06:10	10	20	0.3	20	20	396	0.3	395	396	16.8	80.3
2025-08-19T06:11	10	20	0.1	19	20	396	0.2	395	396	16.8	80.2
2025-08-19T06:12	10	19	0.1	19	20	396	0.3	396	397	16.8	80.2
2025-08-19T06:13	10	19	0.1	19	19	396	0.2	396	397	16.9	80.1
2025-08-19T06:14	10	19	0.2	19	20	396	0.2	396	396	16.9	79.8
2025-08-19T06:15	10	20	0.1	20	20	396	0.2	396	397	16.8	79.7
2025-08-19T06:16	10	20	0.2	20	21	396	0.2	396	397	16.8	79.8
2025-08-19T06:17	10	21	0.2	21	21	396	0.3	396	397	16.8	79.4
2025-08-19T06:18	10	21	0.1	21	22	397	0.2	396	397	16.9	79.4
2025-08-19T06:19	10	22	0.2	21	23	397	0.2	397	397	16.9	79.3
2025-08-19T06:20	10	23	0.3	22	23	397	0.3	396	397	16.9	78.9
2025-08-19T06:21	10	24	0.5	23	25	397	0.2	396	397	16.8	78.9
2025-08-19T06:22	10	27	1.0	25	28	398	0.3	397	398	16.8	79.2
2025-08-19T06:23	10	30	1.1	28	32	398	0.4	397	399	16.8	79.3
2025-08-19T06:24	10	33	0.5	32	34	399	0.4	398	400	16.8	79.5
2025-08-19T06:25	10	33	0.4	32	34	400	0.3	399	400	16.9	79.7
2025-08-19T06:26	10	32	0.3	31	33	400	0.3	400	401	16.9	80.0
2025-08-19T06:27	10	34	0.9	32	35	401	0.2	400	401	16.9	80.1
2025-08-19T06:28	10	38	1.4	36	40	401	0.3	401	402	16.9	80.2
2025-08-19T06:29	10	40	0.4	40	41	402	0.4	401	403	16.9	80.3
2025-08-19T06:30	10	42	0.5	41	43	402	0.3	402	403	16.9	80.3
2025-08-19T06:31	10	43	0.6	42	44	403	0.5	402	404	16.9	80.4
2025-08-19T06:32	10	44	0.2	44	45	404	0.3	404	405	17.0	79.7
2025-08-19T06:33	10	44	0.2	43	44	405	0.2	404	405	17.1	80.0
2025-08-19T06:34	10	45	1.1	43	47	405	0.3	405	406	17.2	78.7
2025-08-19T06:35	10	48	0.5	47	49	406	0.4	405	407	17.3	78.5
2025-08-19T06:36	10	50	0.5	48	50	407	0.3	406	407	17.3	77.9
2025-08-19T06:37	10	51	0.5	50	52	407	0.3	406	407	17.3	77.7
2025-08-19T06:38	10	54	1.2	52	56	407	0.4	406	408	17.3	77.5
2025-08-19T06:39	10	56	0.1	56	56	408	0.3	408	409	17.3	77.9
2025-08-19T06:40	10	55	0.5	54	56	408	0.4	407	409	17.3	77.2
2025-08-19T06:41	10	55	0.3	54	55	408	0.3	407	408	17.3	77.2
2025-08-19T06:42	10	55	0.2	54	55	408	0.3	408	409	17.4	77.5
2025-08-19T06:43	10	54	0.2	54	55	409	0.2	408	409	17.4	77.2
2025-08-19T06:44	10	54	0.3	53	54	409	0.2	409	410	17.5	76.9
2025-08-19T06:45	10	55	0.5	54	56	410	0.2	410	411	17.5	77.4
2025-08-19T06:46	10	57	0.3	56	57	411	0.4	410	411	17.6	77.1
2025-08-19T06:47	10	54	0.9	53	56	411	0.3	411	412	17.6	77.1
2025-08-19T06:48	10	53	0.6	52	54	411	0.2	411	412	17.7	77.5
2025-08-19T06:49	10	49	1.1	48	52	411	0.2	411	412	17.8	76.6
2025-08-19T06:50	10	49	0.2	48	49	411	0.3	411	412	17.8	75.8
2025-08-19T06:51	10	47	0.5	46	48	411	0.4	410	412	17.8	76.1
2025-08-19T06:52	10	46	0.3	46	47	410	0.2	410	411	17.8	75.9
2025-08-19T06:53	10	46	0.1	46	47	411	0.4	410	412	17.8	76.0
2025-08-19T06:54	10	47	0.1	47	47	412	0.2	411	412	17.9	76.2
2025-08-19T06:55	10	47	0.1	46	47	412	0.3	411	412	18.0	75.8
2025-08-19T06:56	10	50	2.0	47	53	412	0.3	411	413	18.0	76.1
2025-08-19T06:57	10	56	1.4	53	59	413	0.4	412	414	18.0	76.1
2025-08-19T06:58	10	62	1.4	59	63	414	0.4	413	415	18.0	76.0
2025-08-19T06:59	10	63	0.7	61	63	415	0.2	414	415	18.1	75.2
2025-08-19T07:00	10	61	0.4	61	62	415	0.2	415	416	18.1	74.6
2025-08-19T07:01	10	64	0.9	62	65	416	0.5	415	417	18.1	74.8
2025-08-19T07:02	10	62	1.5	59	64	417	0.4	416	418	18.2	74.8
2025-08-19T07:03	10	57	0.6	57	59	416	0.3	416	417	18.3	74.4
2025-08-19T07:04	10	58	0.8	57	60	416	0.2	416	417	18.3	74.6
2025-08-19T07:05	10	63	1.2	60	64	417	0.5	416	418	18.3	74.7
2025-08-19T07:06	10	65	0.2	64	65	419	0.5	418	420	18.3	75.3
2025-08-19T07:07	10	66	0.9	64	67	419	0.2	419	420	18.5	75.5
2025-08-19T07:08	10	65	1.2	64	67	419	0.2	419	420	18.4	74.9
2025-08-19T07:09	10	65	0.9	64	67	420	0.3	419	420	18.4	74.8
2025-08-19T07:10	10	65	1.3	62	66	420	0.4	419	421	18.5	74.9
2025-08-19T07:11	10	62	0.8	61	65	420	0.3	420	421	18.5	75.1
2025-08-19T07:12	10	69	1.8	65	71	421	0.4	420	422	18.6	74.4
2025-08-19T07:13	10	70	0.3	70	71	422	0.4	421	422	18.5	74.3
2025-08-19T07:14	10	72	0.6	71	73	422	0.3	422	423	18.5	74.0
2025-08-19T07:15	10	73	0.5	73	74	423	0.3	422	423	18.5	74.1
2025-08-19T07:16	10	74	0.1	74	75	424	0.5	423	425	18.5	73.7
2025-08-19T07:17	10	75	0.4	75	76	425	0.4	424	426	18.6	73.4
2025-08-19T07:18	10	77	0.1	76	77	425	0.3	425	426	18.7	73.5
2025-08-19T07:19	10	77	0.3	77	77	426	0.3	425	426	18.6	73.4
2025-08-19T07:20	10	77	0.1	77	78	427	0.3	426	428	18.7	73.4
2025-08-19T07:21	10	78	0.1	77	78	428	0.4	427	429	18.9	72.8
2025-08-19T07:22	10	78	0.2	77	78	429	0.4	427	429	18.9	72.0
2025-08-19T07:23	10	78	0.4	77	79	429	0.4	428	429	18.9	72.4
2025-08-19T07:24	10	78	0.6	77	79	428	0.3	428	429	18.9	71.7
2025-08-19T07:25	10	79	0.2	79	80	429	0.3	428	430	19.0	71.2
2025-08-19T07:26	10	80	0.2	80	80	429	0.4	429	430	19.0	70.7
2025-08-19T07:27	10	81	0.2	80	81	429	0.2	428	430	18.9	71.7
2025-08-19T07:28	10	81	0.2	81	81	430	0.2	429	430	18.9	71.4
2025-08-19T07:29	10	82	0.2	81	82	430	0.4	430	431	18.9	71.3
2025-08-19T07:30	10	82	0.2	81	82	431	0.3	431	432	18.9	71.6
2025-08-19T07:31	10	81	0.1	81	82	432	0.2	431	432	18.9	71.3
2025-08-19T07:32	10	81	0.1	81	81	432	0.3	431	433	19.2	71.3
2025-08-19T07:33	10	81	0.2	80	81	433	0.3	432	433	19.3	70.0
2025-08-19T07:34	10	80	0.2	80	81	434	0.4	433	434	19.3	69.8
2025-08-19T07:35	10	80	0.2	80	81	434	0.2	434	435	19.5	69.2
2025-08-19T07:36	10	80	0.2	80	81	435	0.3	434	435	19.8	68.7
2025-08-19T07:37	10	80	0.1	80	81	436	0.3	435	436	20.1	68.7
2025-08-19T07:38	10	81	0.1	81	81	436	0.3	435	436	20.1	67.8
2025-08-19T07:39	10	81	0.1	81	81	437	0.3	436	437	20.0	67.5
2025-08-19T07:40	10	81	0.1	81	81	437	0.2	437	437	19.9	67.8
2025-08-19T07:41	10	81	0.1	81	81	437	0.2	436	437	20.0	67.0
2025-08-19T07:42	10	81	0.1	81	81	437	0.2	437	438	19.9	68.1
2025-08-19T07:43	10	82	0.2	81	82	437	0.4	437	438	19.7	68.0
2025-08-19T07:44	10	83	0.3	82	83	437	0.2	437	438	19.6	68.2
2025-08-19T07:45	10	83	0.1	83	83	438	0.3	437	439	19.5	68.2
2025-08-19T07:46	10	83	0.2	83	84	439	0.4	438	439	19.6	67.6
2025-08-19T07:47	10	84	0.1	84	84	439	0.2	439	439	19.6	67.8
2025-08-19T07:48	10	85	0.9	84	86	439	0.5	438	441	19.7	67.6
2025-08-19T07:49	10	87	0.5	86	88	441	0.5	440	442	19.8	67.0
2025-08-19T07:50	10	88	0.2	88	89	443	0.3	442	443	19.9	66.8
2025-08-19T07:51	10	89	0.2	88	89	444	0.5	443	445	19.9	66.4
2025-08-19T07:52	10	88	0.1	88	89	444	0.7	443	445	20.0	66.0
2025-08-19T07:53	10	89	0.2	88	89	445	0.3	444	445	20.0	65.6
2025-08-19T07:54	10	89	0.3	89	90	445	0.4	444	446	19.9	64.7
2025-08-19T07:55	10	90	0.1	89	90	445	0.3	444	446	20.0	64.7
2025-08-19T07:56	10	90	0.2	90	90	446	0.3	445	447	20.2	64.1
2025-08-19T07:57	10	90	0.1	90	91	446	0.3	446	447	20.5	62.8
2025-08-19T07:58	10	91	0.2	90	91	447	0.4	447	449	20.6	62.5
2025-08-19T07:59	10	91	0.2	91	91	448	0.6	447	449	20.6	61.9
2025-08-19T08:00	10	92	0.2	91	92	447	0.4	447	448	20.8	62.7
2025-08-19T08:01	10	92	0.1	92	92	449	0.2	448	449	20.9	63.6
2025-08-19T08:02	10	93	0.3	92	94	449	0.4	448	450	21.2	62.7
2025-08-19T08:03	10	94	0.2	94	94	449	0.3	448	450	21.3	62.1
2025-08-19T08:04	10	94	0.1	94	95	450	0.3	449	450	20.9	60.7
2025-08-19T08:05	10	95	0.1	94	95	450	0.3	449	451	20.8	61.6
2025-08-19T08:06	10	95	0.2	95	95	451	0.2	450	451	20.5	62.1
2025-08-19T08:07	10	96	0.3	95	96	451	0.3	450	452	20.6	62.0
2025-08-19T08:08	10	97	0.2	96	97	451	0.3	451	452	20.5	62.0
2025-08-19T08:09	10	97	0.2	97	97	452	0.3	451	452	20.5	62.3
2025-08-19T08:10	10	97	0.2	97	98	452	0.3	452	453	20.6	62.1
2025-08-19T08:11	10	97	0.1	97	98	452	0.2	452	453	21.0	60.6
2025-08-19T08:12	10	98	0.2	97	98	453	0.3	453	454	21.0	60.8
2025-08-19T08:13	10	98	0.1	98	98	454	0.3	454	455	21.1	61.0
2025-08-19T08:14	10	99	0.2	98	99	454	0.6	453	455	21.1	60.8
2025-08-19T08:15	10	99	0.3	99	100	454	0.4	453	455	20.8	61.1
2025-08-19T08:16	10	100	0.3	99	101	455	0.4	454	456	20.6	61.4
2025-08-19T08:17	10	101	0.2	100	101	455	0.3	455	456	20.6	61.5
2025-08-19T08:18	10	101	0.3	101	102	456	0.4	455	456	20.7	61.1
2025-08-19T08:19	10	102	0.3	101	102	457	0.3	456	457	20.7	61.2
2025-08-19T08:20	10	102	0.2	102	103	458	0.8	457	460	20.9	60.6
2025-08-19T08:21	10	103	0.2	103	103	457	1.0	456	459	20.9	59.5
2025-08-19T08:22	10	104	0.2	103	104	457	0.6	456	459	20.7	60.0
2025-08-19T08:23	10	104	0.1	104	104	458	0.5	457	459	20.8	60.2
2025-08-19T08:24	10	104	0.1	104	104	458	0.9	457	461	20.9	60.3
2025-08-19T08:25	10	104	0.1	104	104	460	0.3	459	460	21.0	59.7
2025-08-19T08:26	10	105	0.3	104	105	460	0.4	459	461	20.9	59.9
2025-08-19T08:27	10	106	0.2	105	106	461	0.4	460	462	20.9	60.2
2025-08-19T08:28	10	106	0.1	106	106	462	0.3	461	463	20.9	60.3
2025-08-19T08:29	10	107	0.1	106	107	463	0.4	461	464	21.1	59.8
2025-08-19T08:30	10	106	0.1	106	107	464	0.4	463	465	21.5	59.4
2025-08-19T08:31	10	106	0.1	106	107	463	0.5	462	464	21.4	58.9
2025-08-19T08:32	10	107	0.2	106	107	463	0.8	461	464	21.3	58.7
2025-08-19T08:33	10	107	0.1	107	107	462	0.4	461	463	21.0	59.3
2025-08-19T08:34	10	107	0.2	107	107	463	0.3	462	463	21.0	59.6
2025-08-19T08:35	10	107	0.1	106	107	463	0.5	462	464	21.0	59.5
2025-08-19T08:36	10	107	0.1	106	107	463	0.3	463	464	21.1	59.2
2025-08-19T08:37	10	107	0.2	107	107	464	0.6	463	465	21.2	58.8
2025-08-19T08:38	10	107	0.2	107	108	465	0.8	463	467	21.1	59.3
2025-08-19T08:39	10	107	0.2	107	108	467	0.3	466	467	21.4	58.8
2025-08-19T08:40	10	108	0.3	108	109	465	0.7	464	467	21.5	58.2
2025-08-19T08:41	10	109	0.2	108	109	467	0.5	466	468	21.5	58.2
2025-08-19T08:42	10	108	0.2	108	109	466	0.8	465	468	21.5	58.1
2025-08-19T08:43	10	109	0.6	108	110	466	0.3	465	467	21.3	58.4
2025-08-19T08:44	10	110	0.2	109	110	468	0.5	466	469	21.4	58.5
2025-08-19T08:45	10	111	0.5	110	111	468	0.5	467	469	21.4	58.5
2025-08-19T08:46	10	112	0.4	111	112	469	0.9	468	471	21.6	58.4
2025-08-19T08:47	10	113	0.2	112	113	468	0.6	467	469	21.4	58.1
2025-08-19T08:48	10	113	0.5	112	114	469	0.5	468	470	21.6	57.7
2025-08-19T08:49	10	114	0.4	113	115	470	0.4	469	470	21.5	58.0
2025-08-19T08:50	10	116	0.3	115	116	471	0.8	470	473	21.5	57.8
2025-08-19T08:51	10	116	0.2	116	116	473	0.3	472	474	21.7	57.4
2025-08-19T08:52	10	116	0.1	116	116	474	0.4	473	475	21.8	57.2
2025-08-19T08:53	10	117	0.2	116	117	471	0.9	470	474	21.6	57.6
2025-08-19T08:54	10	118	0.2	117	118	472	0.3	471	473	21.5	57.9
2025-08-19T08:55	10	119	0.2	118	119	473	0.5	472	473	21.6	57.8
2025-08-19T08:56	10	119	0.5	119	120	474	0.6	473	476	21.8	57.3
2025-08-19T08:57	10	121	0.3	120	121	475	0.7	474	477	21.7	57.4
2025-08-19T08:58	10	122	0.4	121	123	476	0.3	476	477	21.7	57.1
2025-08-19T08:59	10	123	0.1	123	123	477	0.7	476	478	21.7	56.8
2025-08-19T09:00	10	123	0.4	122	124	478	0.6	477	479	21.7	56.8
2025-08-19T09:01	10	124	0.6	123	125	477	1.5	475	480	21.7	56.8
2025-08-19T09:02	10	125	0.2	124	126	477	0.8	475	479	21.7	56.8
2025-08-19T09:03	10	118	4.0	112	125	477	0.3	477	478	21.7	56.8
2025-08-19T09:04	10	110	2.0	107	114	476	1.4	474	478	21.7	56.8
2025-08-19T09:05	10	113	5.4	106	124	475	0.5	475	476	21.7	56.8
2025-08-19T09:06	10	126	0.7	124	127	478	1.5	475	481	21.8	56.8
2025-08-19T09:07	10	123	1.0	122	125	479	1.3	477	481	22.0	56.4
2025-08-19T09:08	10	125	2.0	122	128	478	0.5	477	479	21.7	57.2
2025-08-19T09:09	10	125	2.7	118	128	480	0.5	479	481	22.0	57.0
2025-08-19T09:10	10	115	2.9	111	120	480	0.7	479	481	22.3	56.5
2025-08-19T09:11	10	117	2.4	112	120	480	0.5	479	481	22.3	55.9
2025-08-19T09:12	10	115	1.6	112	117	479	0.7	478	480	22.2	56.3
2025-08-19T09:13	10	124	3.9	116	128	481	1.1	479	483	22.1	56.4
2025-08-19T09:14	10	126	0.7	125	128	483	0.6	482	484	22.3	56.0
2025-08-19T09:15	10	114	8.7	102	125	483	1.8	479	485	22.5	55.3
2025-08-19T09:16	10	107	12.0	87	125	479	1.3	477	481	22.3	55.5
2025-08-19T09:17	10	125	1.0	122	126	483	1.5	480	485	22.5	55.1
2025-08-19T09:18	10	125	1.1	123	128	484	0.7	482	485	22.6	54.9
2025-08-19T09:19	10	125	3.7	117	128	485	0.7	484	486	22.7	54.9
2025-08-19T09:20	10	126	4.7	117	132	485	0.8	483	486	22.6	54.7
2025-08-19T09:21	10	131	1.1	127	132	485	0.9	483	486	22.4	55.2
2025-08-19T09:22	10	127	0.8	124	128	484	0.8	483	485	22.2	55.7
2025-08-19T09:23	10	128	3.0	124	132	487	1.3	485	489	22.6	55.4
2025-08-19T09:24	10	133	0.5	132	133	490	0.8	488	491	23.1	53.9
2025-08-19T09:25	10	134	0.7	133	135	488	1.0	487	491	22.7	54.2
2025-08-19T09:26	10	135	0.2	134	135	490	1.0	489	492	22.6	54.4
2025-08-19T09:27	10	134	0.2	134	135	490	0.7	489	492	22.7	54.3
2025-08-19T09:28	10	134	0.4	133	134	490	0.7	489	491	22.6	54.4
2025-08-19T09:29	10	132	0.4	131	133	492	0.4	491	492	22.8	54.0
2025-08-19T09:30	10	131	0.4	130	132	491	0.7	490	492	22.8	53.7
2025-08-19T09:31	10	130	0.7	129	131	491	1.0	489	493	22.9	53.4
2025-08-19T09:32	10	130	0.4	129	131	491	0.5	489	492	23.0	53.3
2025-08-19T09:33	10	130	0.4	129	131	489	2.2	485	492	22.8	53.8
2025-08-19T09:34	10	131	0.2	131	132	487	0.8	485	488	22.4	54.9
2025-08-19T09:35	10	130	0.2	130	131	489	0.8	489	491	22.5	54.9
2025-08-19T09:36	10	130	0.4	129	131	491	0.4	491	492	23.0	53.8
2025-08-19T09:37	10	129	0.4	128	129	493	0.6	491	494	23.2	53.3
2025-08-19T09:38	10	127	0.5	126	128	491	0.5	490	492	23.0	53.5
2025-08-19T09:39	10	128	0.4	128	129	492	0.4	491	493	23.2	52.8
2025-08-19T09:40	10	129	0.1	129	129	492	0.5	491	493	23.4	52.3
2025-08-19T09:41	10	128	0.5	127	129	491	0.6	490	492	23.3	52.4
2025-08-19T09:42	10	127	0.3	126	128	492	0.9	490	494	23.2	52.6
2025-08-19T09:43	10	127	0.2	127	128	493	0.5	492	493	23.1	52.8
2025-08-19T09:44	10	128	0.2	127	128	494	0.6	493	495	23.1	53.0
2025-08-19T09:45	10	128	0.5	128	129	496	1.0	494	497	23.5	52.3
2025-08-19T09:46	10	129	0.2	129	129	494	0.5	493	495	23.5	51.9
2025-08-19T09:47	10	129	0.2	129	129	496	0.8	495	497	23.6	52.0
2025-08-19T09:48	10	129	0.2	129	129	494	1.0	492	496	23.4	51.9
2025-08-19T09:49	10	129	0.4	128	130	493	0.9	492	495	23.2	52.5
2025-08-19T09:50	10	128	1.4	125	129	494	0.3	493	495	23.2	52.5
2025-08-19T09:51	10	118	4.8	110	124	493	0.9	492	495	23.4	52.0
2025-08-19T09:52	10	101	8.2	89	120	490	2.1	488	494	23.4	51.9
2025-08-19T09:53	10	120	10.7	100	132	491	2.3	488	495	23.5	51.6
2025-08-19T09:54	10	133	0.2	132	133	496	1.1	494	498	23.7	51.2
2025-08-19T09:55	10	133	0.5	132	134	499	1.0	497	500	24.0	51.0
2025-08-19T09:56	10	133	0.5	132	134	502	1.2	500	504	24.6	49.7
2025-08-19T09:57	10	132	0.1	132	132	499	1.2	496	502	24.0	50.2
2025-08-19T09:58	10	132	1.0	129	133	498	0.8	496	499	23.8	50.9
2025-08-19T09:59	10	111	13.2	88	129	497	2.4	493	501	24.2	50.3
2025-08-19T10:00	10	83	1.7	82	88	489	2.5	485	494	24.1	50.4
2025-08-19T10:01	10	93	7.3	85	104	485	1.6	483	488	23.9	50.8
2025-08-19T10:02	10	112	8.2	102	124	486	2.1	484	491	23.5	51.4
2025-08-19T10:03	10	115	5.6	109	125	492	0.5	491	492	23.5	51.7
2025-08-19T10:04	10	106	6.7	97	116	490	0.8	489	491	23.4	52.0
2025-08-19T10:05	10	97	4.0	92	104	487	1.8	485	491	23.4	51.8
2025-08-19T10:06	10	87	4.1	83	96	483	1.9	480	486	23.4	52.1
2025-08-19T10:07	10	89	2.3	86	92	482	0.9	481	484	23.5	51.9
2025-08-19T10:08	10	99	4.7	88	107	485	1.5	483	488	23.7	51.3
2025-08-19T10:09	10	120	10.1	108	138	491	3.0	486	496	24.0	50.8
2025-08-19T10:10	10	140	5.4	130	145	497	2.3	494	501	24.0	50.4
2025-08-19T10:11	10	144	0.4	143	144	502	0.8	500	503	24.0	50.3
2025-08-19T10:12	10	139	5.0	123	144	503	0.5	502	504	24.2	50.3
2025-08-19T10:13	10	113	6.7	104	124	500	1.7	498	504	24.3	50.0
2025-08-19T10:14	10	110	10.3	93	124	498	2.3	493	500	24.3	49.7
2025-08-19T10:15	10	90	4.4	86	104	491	1.2	489	495	24.2	49.9
2025-08-19T10:16	10	110	13.4	95	145	493	1.3	491	497	24.0	50.1
2025-08-19T10:17	10	145	4.8	138	153	502	2.3	496	505	24.3	50.0
2025-08-19T10:18	10	151	1.7	146	153	507	1.5	505	510	24.4	49.3
2025-08-19T10:19	10	154	1.4	150	155	510	0.8	509	512	24.7	48.9
2025-08-19T10:20	10	120	16.8	95	147	507	2.8	501	510	24.9	48.3
2025-08-19T10:21	10	94	6.5	83	106	497	2.7	492	503	24.8	48.4
2025-08-19T10:22	10	85	4.0	80	93	491	1.1	490	494	24.9	48.7
2025-08-19T10:23	10	83	4.8	79	92	488	1.6	487	493	24.8	48.3
2025-08-19T10:24	10	107	16.0	85	130	491	2.8	487	495	24.9	48.3
2025-08-19T10:25	10	98	12.0	86	121	491	1.6	488	493	24.6	48.5
2025-08-19T10:26	10	96	10.1	85	113	490	1.2	488	492	24.3	49.2
2025-08-19T10:27	10	94	3.7	89	102	489	1.1	487	492	24.6	48.9
2025-08-19T10:28	10	136	25.7	87	163	496	5.7	487	504	24.6	48.8
2025-08-19T10:29	10	106	20.2	86	155	498	3.5	493	504	24.7	48.7
2025-08-19T10:30	10	142	16.1	114	162	503	2.0	498	506	24.7	48.3
2025-08-19T10:31	10	94	16.8	81	134	498	4.0	493	505	24.6	48.4
2025-08-19T10:32	10	84	3.9	81	98	491	1.6	489	494	24.6	47.9
2025-08-19T10:33	10	122	19.7	95	156	497	3.0	489	501	24.6	48.0
2025-08-19T10:34	10	106	15.0	87	128	495	2.0	493	499	24.7	47.8
2025-08-19T10:35	10	90	12.0	77	116	492	2.8	489	499	24.6	47.8
2025-08-19T10:36	10	92	10.3	77	115	492	0.8	491	494	24.7	48.0
2025-08-19T10:37	10	85	6.0	79	99	490	1.5	488	493	24.9	47.5
2025-08-19T10:38	10	93	12.8	77	122	489	1.2	487	491	24.9	47.3
2025-08-19T10:39	10	110	16.6	84	134	493	1.7	491	496	24.7	47.3
2025-08-19T10:40	10	93	15.2	82	134	493	2.7	490	497	24.7	47.6
2025-08-19T10:41	10	95	7.0	85	106	491	0.7	489	492	24.6	47.2
2025-08-19T10:42	10	83	5.2	77	98	490	0.9	489	492	24.7	47.1
2025-08-19T10:43	10	109	18.3	85	142	493	3.5	488	500	24.7	47.4
2025-08-19T10:44	10	149	2.3	142	151	504	3.1	499	509	25.2	46.8
2025-08-19T10:45	10	145	2.8	140	149	507	1.2	505	509	25.0	46.7
2025-08-19T10:46	10	136	2.2	131	140	506	0.2	506	507	24.9	46.6
2025-08-19T10:47	10	114	12.0	89	130	504	2.2	499	506	25.1	46.9
2025-08-19T10:48	10	104	15.1	88	139	499	1.4	498	503	25.3	46.4
2025-08-19T10:49	10	147	8.9	130	157	508	3.5	502	514	25.4	45.9
2025-08-19T10:50	10	111	33.4	74	156	506	6.7	495	514	25.4	45.8
2025-08-19T10:51	10	106	25.9	77	147	497	3.1	494	504	25.2	46.1
2025-08-19T10:52	10	94	28.0	74	147	500	5.4	491	507	25.4	45.9
2025-08-19T10:53	10	90	15.3	74	118	492	2.1	490	496	25.3	45.5
2025-08-19T10:54	10	82	9.1	70	100	493	1.4	490	496	25.4	45.6
2025-08-19T10:55	10	70	0.3	70	71	489	1.1	487	491	25.6	45.4
2025-08-19T10:56	10	70	0.1	69	70	487	0.5	486	488	25.7	45.6
2025-08-19T10:57	10	70	0.2	70	71	487	0.5	486	488	25.5	46.0
2025-08-19T10:58	10	71	0.4	71	72	486	0.3	486	487	25.7	45.8
2025-08-19T10:59	10	73	0.7	72	74	486	0.6	485	488	25.8	45.5
2025-08-19T11:00	10	77	1.1	74	79	485	0.3	485	486	25.6	46.0
2025-08-19T11:01	10	78	0.6	77	80	486	0.4	485	487	25.3	46.2
2025-08-19T11:02	10	81	1.1	79	84	487	0.4	486	488	25.3	46.4
2025-08-19T11:03	10	81	2.7	79	86	486	1.2	484	488	25.2	46.0
2025-08-19T11:04	10	81	1.0	79	84	488	0.4	487	489	25.3	46.1
2025-08-19T11:05	10	83	6.0	79	99	488	0.9	487	490	25.3	45.8
2025-08-19T11:06	10	81	2.4	79	87	488	0.3	488	489	25.3	46.0
2025-08-19T11:07	10	79	0.2	78	79	488	0.3	487	488	25.4	45.7
2025-08-19T11:08	10	79	0.2	79	79	488	0.5	487	489	25.4	45.5
2025-08-19T11:09	10	80	0.3	79	80	486	0.4	485	487	25.2	45.3
2025-08-19T11:10	10	81	0.7	80	83	487	0.9	486	489	25.2	45.4
2025-08-19T11:11	10	82	0.2	81	82	489	0.3	489	490	25.5	45.4
2025-08-19T11:12	10	83	0.8	82	85	490	1.3	487	491	25.5	45.5
2025-08-19T11:13	10	82	0.3	81	82	487	0.5	486	488	25.1	46.4
2025-08-19T11:14	10	81	0.3	80	81	486	0.8	485	487	25.1	46.4
2025-08-19T11:15	10	79	0.4	79	80	485	0.8	484	487	25.1	46.6
2025-08-19T11:16	10	78	0.4	78	79	486	0.7	485	487	25.1	47.4
2025-08-19T11:17	10	77	0.4	76	78	485	1.5	482	486	25.2	47.0
2025-08-19T11:18	10	76	0.4	75	76	484	0.6	482	485	25.0	47.9
2025-08-19T11:19	10	74	0.5	73	75	483	1.2	482	485	25.1	49.2
2025-08-19T11:20	10	72	0.6	71	73	482	0.8	480	483	25.4	50.6
2025-08-19T11:21	10	70	0.6	69	71	478	1.5	475	481	25.0	51.2
2025-08-19T11:22	10	69	0.5	68	70	475	0.8	474	476	24.6	52.0
2025-08-19T11:23	10	67	0.3	67	68	474	0.8	472	475	24.5	52.5
2025-08-19T11:24	10	66	0.2	66	67	475	0.4	474	476	24.7	52.4
2025-08-19T11:25	10	66	0.8	66	71	474	0.6	473	476	24.6	52.1
2025-08-19T11:26	10	66	0.1	66	67	473	0.3	473	474	24.5	52.5
2025-08-19T11:27	10	67	0.3	66	67	475	1.2	473	477	24.8	52.3
2025-08-19T11:28	10	67	0.1	67	67	474	0.7	473	476	24.6	52.4
2025-08-19T11:29	10	66	0.2	66	67	473	1.1	472	475	24.6	52.6
2025-08-19T11:30	10	66	0.2	65	66	472	0.2	471	472	24.5	53.0
2025-08-19T11:31	10	65	0.2	64	65	473	0.8	471	474	24.5	53.4
2025-08-19T11:32	10	64	0.3	64	65	472	1.1	471	474	24.6	53.3
2025-08-19T11:33	10	63	0.2	63	64	472	0.5	471	473	24.5	53.6
2025-08-19T11:34	10	63	0.1	63	63	471	0.6	470	472	24.4	54.0
2025-08-19T11:35	10	63	0.1	62	63	469	0.9	469	472	24.4	54.1
2025-08-19T11:36	10	62	0.1	62	63	471	0.9	470	473	24.6	53.9
2025-08-19T11:37	10	63	0.6	62	67	471	0.4	470	472	24.7	53.6
2025-08-19T11:38	10	63	0.2	63	63	471	0.5	469	472	24.5	54.2
2025-08-19T11:39	10	63	0.2	63	64	469	0.6	469	471	24.2	54.9
2025-08-19T11:40	10	64	0.3	63	65	470	0.4	470	472	24.4	54.4
2025-08-19T11:41	10	65	0.4	64	66	470	0.4	470	471	24.2	54.5
2025-08-19T11:42	10	66	0.2	65	66	470	0.4	469	471	24.2	54.7
2025-08-19T11:43	10	66	0.2	66	67	470	0.4	469	471	24.2	54.8
2025-08-19T11:44	10	66	0.2	66	66	471	0.4	470	471	24.1	54.9
2025-08-19T11:45	10	65	0.5	64	66	471	0.4	470	472	24.3	54.5
2025-08-19T11:46	10	63	0.7	62	64	470	0.5	469	471	24.3	54.0
2025-08-19T11:47	10	61	0.6	60	62	469	0.5	468	471	24.2	54.4
2025-08-19T11:48	10	59	0.7	57	60	469	0.4	468	470	24.3	54.4
2025-08-19T11:49	10	56	0.6	55	58	468	0.5	467	469	24.2	54.1
2025-08-19T11:50	10	55	0.5	54	56	467	0.6	466	468	24.3	54.4
2025-08-19T11:51	10	53	0.4	53	54	466	0.4	465	466	24.3	54.0
2025-08-19T11:52	10	52	0.5	51	53	465	0.7	463	466	24.3	53.4
2025-08-19T11:53	10	51	0.4	50	51	463	0.4	463	464	24.3	53.5
2025-08-19T11:54	10	50	0.3	49	50	463	0.5	462	464	24.4	53.0
2025-08-19T11:55	10	48	0.4	48	49	464	0.4	464	465	24.5	52.6
2025-08-19T11:56	10	47	0.4	46	48	463	0.3	463	464	24.5	52.2
2025-08-19T11:57	10	46	0.4	45	47	463	0.5	462	465	24.6	52.5
2025-08-19T11:58	10	45	0.3	44	45	464	0.8	462	465	24.8	52.5
2025-08-19T11:59	10	43	0.3	43	44	462	0.2	462	463	25.0	52.1
2025-08-19T12:00	10	42	0.4	42	43	461	0.6	460	462	24.9	52.3
2025-08-19T12:01	10	41	0.4	40	42	460	0.3	459	460	24.7	52.6
2025-08-19T12:02	10	40	0.3	39	40	461	0.3	461	462	24.7	52.8
2025-08-19T12:03	10	38	0.4	38	39	460	0.8	458	461	24.8	52.7
2025-08-19T12:04	10	37	0.4	37	38	458	0.8	457	459	24.6	53.0
2025-08-19T12:05	10	36	0.3	36	37	458	0.4	457	458	24.6	53.6
2025-08-19T12:06	10	35	0.2	35	36	457	0.2	457	458	24.8	53.1
2025-08-19T12:07	10	35	0.2	34	35	458	0.2	457	458	24.8	52.7
2025-08-19T12:08	10	34	0.1	34	35	457	0.3	456	458	24.8	52.6
2025-08-19T12:09	10	34	0.1	34	34	456	0.5	455	457	24.8	52.6
2025-08-19T12:10	10	34	0.1	33	34	455	0.3	454	456	24.8	52.4
2025-08-19T12:11	10	33	0.1	33	34	456	0.3	455	456	24.7	52.4
2025-08-19T12:12	10	33	0.1	33	33	457	0.3	456	457	24.7	52.7
2025-08-19T12:13	10	33	0.1	33	33	457	0.4	456	458	24.8	52.8
2025-08-19T12:14	10	33	0.1	33	33	457	0.3	456	458	24.8	53.0
2025-08-19T12:15	10	33	0.1	33	33	457	0.2	457	458	24.8	52.7
2025-08-19T12:16	10	33	0.1	33	34	458	0.3	457	458	24.8	52.8
2025-08-19T12:17	10	34	0.2	34	34	457	0.5	456	458	24.9	53.1
2025-08-19T12:18	10	34	0.2	34	35	456	0.2	455	456	25.0	52.9
2025-08-19T12:19	10	35	0.1	34	35	455	0.3	455	456	25.0	52.8
2025-08-19T12:20	10	35	0.1	35	35	455	0.4	454	456	25.0	52.7
2025-08-19T12:21	10	35	0.1	35	35	455	0.3	455	456	25.0	52.7
2025-08-19T12:22	10	35	0.1	35	36	456	0.3	455	456	24.9	53.2
2025-08-19T12:23	10	36	0.2	35	36	456	0.5	455	456	24.9	52.7
2025-08-19T12:24	10	36	0.2	36	37	455	0.4	454	456	24.8	52.8
2025-08-19T12:25	10	37	0.3	37	38	457	0.5	455	458	24.9	52.7
2025-08-19T12:26	10	39	0.5	38	39	458	0.6	457	459	24.9	52.7
2025-08-19T12:27	10	40	0.4	39	41	459	0.4	458	460	25.0	53.0
2025-08-19T12:28	10	41	0.4	41	42	460	0.3	459	461	25.1	53.1
2025-08-19T12:29	10	42	0.3	42	43	461	0.4	460	462	25.2	53.5
2025-08-19T12:30	10	43	0.2	43	43	461	0.2	460	461	25.1	52.5
2025-08-19T12:31	10	44	0.1	43	44	462	0.3	460	462	25.0	52.3
2025-08-19T12:32	10	44	0.1	44	44	462	0.3	461	463	25.1	52.5
2025-08-19T12:33	10	45	0.2	44	45	463	0.3	462	463	25.1	52.5
2025-08-19T12:34	10	45	0.2	45	46	462	0.3	462	463	25.2	51.3
2025-08-19T12:35	10	46	0.3	46	47	463	0.3	462	463	25.2	51.5
2025-08-19T12:36	10	47	0.3	47	48	463	0.5	462	464	25.2	51.5
2025-08-19T12:37	10	48	0.4	48	49	464	0.6	463	466	25.2	51.8
2025-08-19T12:38	10	50	0.4	49	50	465	0.2	464	465	25.2	51.9
2025-08-19T12:39	10	51	0.4	50	52	465	0.2	464	465	25.2	52.0
2025-08-19T12:40	10	53	0.5	52	53	466	0.3	465	466	25.1	52.6
2025-08-19T12:41	10	54	0.6	53	56	466	0.7	465	467	25.1	52.2
2025-08-19T12:42	10	57	0.8	56	58	469	0.8	467	470	25.3	52.5
2025-08-19T12:43	10	60	0.7	58	61	471	1.0	469	472	25.3	52.3
2025-08-19T12:44	10	62	1.2	61	66	471	0.4	471	472	25.3	52.1
2025-08-19T12:45	10	70	3.0	66	76	473	1.2	471	476	25.3	52.0
2025-08-19T12:46	10	71	1.0	69	73	476	0.6	475	477	25.5	51.5
2025-08-19T12:47	10	76	2.6	73	83	478	1.0	477	480	25.6	51.3
2025-08-19T12:48	10	81	1.8	80	86	482	0.6	480	483	25.6	51.6
2025-08-19T12:49	10	101	13.0	82	117	486	3.1	482	492	25.7	51.5
2025-08-19T12:50	10	137	5.9	117	144	497	3.2	490	501	25.7	51.5
2025-08-19T12:51	10	121	6.3	111	134	500	0.5	499	501	25.7	51.9
2025-08-19T12:52	10	143	5.1	129	149	505	2.2	500	507	25.8	51.8
2025-08-19T12:53	10	125	8.1	111	136	506	1.7	503	508	26.0	51.6
2025-08-19T12:54	10	132	5.7	127	147	505	0.6	504	507	26.2	51.2
2025-08-19T12:55	10	174	9.9	150	182	514	4.3	506	520	26.1	51.6
2025-08-19T12:56	10	159	9.3	149	179	518	1.6	515	521	26.4	51.0
2025-08-19T12:57	10	156	8.3	147	169	517	2.0	515	521	26.4	50.2
2025-08-19T12:58	10	174	6.3	166	183	523	1.9	521	527	26.5	50.8
2025-08-19T12:59	10	185	3.3	179	188	526	1.9	524	530	26.6	51.0
2025-08-19T13:00	10	185	3.0	180	188	528	0.6	527	529	26.5	50.7
2025-08-19T13:01	10	183	0.9	181	184	527	1.0	525	529	26.4	50.9
2025-08-19T13:02	10	184	0.3	183	184	530	1.4	529	533	26.4	51.1
2025-08-19T13:03	10	182	0.8	180	183	531	0.6	530	532	26.4	51.0
2025-08-19T13:04	10	175	3.9	169	181	533	0.8	531	534	26.6	50.8
2025-08-19T13:05	10	160	6.1	149	169	528	2.2	526	533	26.9	48.7
2025-08-19T13:06	10	168	4.7	160	175	532	1.6	529	535	27.0	48.3
2025-08-19T13:07	10	175	0.3	174	175	532	1.6	528	535	27.4	45.8
2025-08-19T13:08	10	171	1.5	169	174	528	1.3	526	530	27.2	43.9
2025-08-19T13:09	10	170	0.9	168	171	532	0.8	531	534	27.1	44.1
2025-08-19T13:10	10	166	0.6	165	168	533	0.7	532	535	27.7	43.0
2025-08-19T13:11	10	166	0.2	166	167	532	1.7	528	534	27.8	40.1
2025-08-19T13:12	10	166	0.4	165	166	529	1.2	526	530	27.5	38.8
2025-08-19T13:13	10	153	7.5	144	166	528	0.5	527	529	27.8	38.4
2025-08-19T13:14	10	157	1.3	152	158	525	2.5	522	529	27.6	38.8
2025-08-19T13:15	10	153	3.8	148	158	524	1.0	522	526	27.2	40.1
2025-08-19T13:16	10	137	9.0	123	150	525	2.6	521	529	27.3	41.3
2025-08-19T13:17	10	130	11.1	115	146	522	1.4	520	524	27.5	41.4
2025-08-19T13:18	10	144	5.5	134	151	522	2.0	519	525	27.5	42.0
2025-08-19T13:19	10	132	8.4	123	146	517	3.9	512	522	27.5	42.1
2025-08-19T13:20	10	116	4.0	109	122	512	0.7	510	513	27.1	40.1
2025-08-19T13:21	10	114	6.9	106	132	512	0.6	511	514	27.1	40.2
2025-08-19T13:22	10	140	7.8	130	155	516	0.8	513	518	27.4	40.6
2025-08-19T13:23	10	144	9.5	129	155	520	1.5	517	523	27.4	40.9
2025-08-19T13:24	10	142	1.7	139	146	521	1.0	519	523	27.4	41.3
2025-08-19T13:25	10	141	1.4	138	143	522	0.7	521	524	27.3	41.8
2025-08-19T13:26	10	141	2.4	136	144	525	1.5	523	528	27.4	41.8
2025-08-19T13:27	10	138	2.9	134	142	527	0.5	526	528	27.8	41.1
2025-08-19T13:28	10	139	1.7	134	142	526	0.6	525	527	28.1	40.4
2025-08-19T13:29	10	133	5.4	123	138	525	0.5	523	525	27.9	40.1
2025-08-19T13:30	10	138	0.9	137	140	522	2.5	519	526	27.5	40.3
2025-08-19T13:31	10	138	0.3	137	139	518	1.4	516	520	27.3	40.5
2025-08-19T13:32	10	136	2.1	131	138	520	0.8	518	522	27.6	40.1
2025-08-19T13:33	10	130	4.1	117	133	521	1.3	516	522	27.4	40.5
2025-08-19T13:34	10	124	7.4	112	135	515	0.9	514	517	27.0	41.5
2025-08-19T13:35	10	134	3.5	124	138	519	1.5	517	522	27.2	41.2
2025-08-19T13:36	10	126	13.8	99	144	517	3.6	512	522	27.2	41.1
2025-08-19T13:37	10	143	1.9	136	145	520	2.2	516	522	27.0	41.5
2025-08-19T13:38	10	140	7.9	121	146	525	3.0	520	530	27.3	41.2
2025-08-19T13:39	10	145	0.3	145	146	530	1.1	527	532	27.8	40.3
2025-08-19T13:40	10	143	1.3	141	145	525	1.9	522	528	27.8	40.2
2025-08-19T13:41	10	142	1.2	138	143	522	1.6	518	524	27.5	39.6
2025-08-19T13:42	10	140	1.3	135	141	519	0.8	517	520	27.5	39.6
2025-08-19T13:43	10	120	8.3	101	134	513	2.6	511	520	27.5	39.3
2025-08-19T13:44	10	101	8.8	87	114	513	2.0	510	516	27.7	38.7
2025-08-19T13:45	10	123	8.6	107	132	519	3.8	512	525	28.0	37.9
2025-08-19T13:46	10	130	0.3	130	131	524	0.8	523	525	28.7	36.8
2025-08-19T13:47	10	130	0.8	129	134	524	1.1	522	525	28.7	35.9
2025-08-19T13:48	10	130	0.5	129	131	518	3.5	515	526	28.9	35.3
2025-08-19T13:49	10	127	1.6	124	130	516	1.4	513	518	28.5	35.1
2025-08-19T13:50	10	126	1.0	124	128	514	0.8	512	515	28.0	36.1
2025-08-19T13:51	10	124	0.7	123	126	512	1.0	510	514	27.9	36.6
2025-08-19T13:52	10	124	2.2	120	126	516	1.2	514	518	27.7	36.8
2025-08-19T13:53	10	112	4.5	106	120	514	3.5	507	518	27.8	36.3
2025-08-19T13:54	10	94	4.8	89	106	504	1.8	502	509	27.8	35.7
2025-08-19T13:55	10	98	5.5	91	110	507	1.3	504	510	27.9	35.6
2025-08-19T13:56	10	94	8.9	85	110	508	2.4	503	512	28.2	35.3
2025-08-19T13:57	10	100	7.7	87	109	507	2.3	503	510	28.1	35.1
2025-08-19T13:58	10	108	2.1	106	112	511	0.9	509	513	28.0	35.2
2025-08-19T13:59	10	115	1.8	112	117	513	1.5	510	515	28.1	35.2
2025-08-19T14:00	10	117	0.3	116	118	512	2.6	508	516	28.4	34.8
2025-08-19T14:01	10	117	0.7	116	118	508	0.6	507	510	28.3	34.2
2025-08-19T14:02	10	118	0.5	117	119	509	1.0	507	510	28.3	34.3
2025-08-19T14:03	10	116	0.9	114	118	507	1.8	505	510	28.4	34.2
2025-08-19T14:04	10	114	0.7	112	115	508	0.7	506	509	28.3	34.1
2025-08-19T14:05	10	107	2.1	105	112	503	1.9	500	508	28.1	35.2
2025-08-19T14:06	10	102	1.7	100	106	498	2.4	495	503	27.9	37.7
2025-08-19T14:07	10	102	0.3	102	103	499	1.6	496	502	28.0	37.8
2025-08-19T14:08	10	98	3.1	94	103	499	0.7	498	501	28.0	37.7
2025-08-19T14:09	10	96	2.1	89	98	499	1.1	497	501	28.1	37.3
2025-08-19T14:10	10	85	1.1	83	88	499	0.8	498	501	28.3	37.5
2025-08-19T14:11	10	97	5.8	86	105	500	1.0	498	502	28.4	37.5
2025-08-19T14:12	10	101	3.1	97	105	501	2.0	496	504	28.3	38.1
2025-08-19T14:13	10	94	1.5	91	96	494	2.2	491	498	27.8	38.4
2025-08-19T14:14	10	89	1.1	88	91	490	1.1	488	492	27.6	38.6
2025-08-19T14:15	10	89	1.1	88	92	488	1.1	486	490	27.4	38.6
2025-08-19T14:16	10	96	2.5	92	99	489	1.2	487	491	27.3	38.7
2025-08-19T14:17	10	104	3.6	99	110	488	1.1	486	491	27.1	38.7
2025-08-19T14:18	10	110	0.7	109	112	493	1.8	490	495	27.4	38.3
2025-08-19T14:19	10	110	0.7	108	111	495	1.1	493	496	27.5	37.9
2025-08-19T14:20	10	108	0.7	107	109	492	1.5	491	496	27.4	37.8
2025-08-19T14:21	10	107	0.4	107	108	494	1.2	492	496	27.4	37.7
2025-08-19T14:22	10	108	0.7	107	109	492	2.2	490	497	27.3	38.0
2025-08-19T14:23	10	104	1.7	101	106	492	1.2	490	495	27.2	37.9
2025-08-19T14:24	10	99	1.5	97	102	490	1.3	489	493	27.2	37.5
2025-08-19T14:25	10	101	0.7	99	102	492	0.8	491	494	27.3	37.5
2025-08-19T14:26	10	102	0.5	101	103	492	1.2	490	494	27.4	36.7
2025-08-19T14:27	10	99	0.7	97	101	492	1.8	490	497	27.4	36.4
2025-08-19T14:28	10	98	0.8	97	100	493	1.6	490	496	27.6	35.8
2025-08-19T14:29	10	99	0.9	97	101	491	0.9	490	494	27.4	35.2
2025-08-19T14:30	10	98	1.0	97	100	492	0.8	491	493	27.3	35.2
2025-08-19T14:31	10	88	9.1	70	98	492	1.5	488	494	27.4	34.9
2025-08-19T14:32	10	70	3.2	67	78	484	1.9	482	488	27.3	35.1
2025-08-19T14:33	10	75	1.8	72	78	483	0.9	482	485	27.1	35.4
2025-08-19T14:34	10	75	2.0	71	77	484	0.9	482	485	27.3	35.3
2025-08-19T14:35	10	80	1.3	77	82	486	1.2	484	488	27.4	35.3
2025-08-19T14:36	10	84	0.6	82	85	486	0.5	485	487	27.4	35.3
2025-08-19T14:37	10	85	1.0	83	88	485	2.4	482	488	27.3	35.5
2025-08-19T14:38	10	93	2.4	88	97	486	1.2	484	488	27.2	35.9
2025-08-19T14:39	10	90	7.6	76	98	490	1.1	487	492	27.5	35.7
2025-08-19T14:40	10	74	0.9	73	76	487	1.7	484	491	27.5	36.0
2025-08-19T14:41	10	79	2.0	76	82	485	1.0	484	487	27.4	36.5
2025-08-19T14:42	10	86	2.2	82	89	484	1.6	482	487	27.2	36.7
2025-08-19T14:43	10	98	4.5	89	103	485	1.1	483	487	27.0	36.8
2025-08-19T14:44	10	104	0.8	102	105	490	1.4	486	492	27.2	36.7
2025-08-19T14:45	10	93	5.4	85	102	489	1.4	488	492	27.1	37.3
2025-08-19T14:46	10	82	1.7	80	85	488	2.2	484	490	27.3	37.6
2025-08-19T14:47	10	80	0.3	80	81	487	1.1	485	490	27.2	38.0
2025-08-19T14:48	10	78	1.1	77	80	483	1.3	482	486	27.0	38.1
2025-08-19T14:49	10	89	9.6	77	104	484	2.2	481	487	27.1	37.9
2025-08-19T14:50	10	101	1.1	100	104	487	1.6	485	489	27.0	38.2
2025-08-19T14:51	10	96	3.3	92	100	489	2.6	484	492	27.2	38.1
2025-08-19T14:52	10	86	4.5	78	93	485	0.4	484	486	27.2	37.8
2025-08-19T14:53	10	70	3.5	66	78	484	2.0	480	487	27.3	37.5
2025-08-19T14:54	10	66	0.6	64	67	482	0.6	480	482	27.1	38.0
2025-08-19T14:55	10	63	1.0	61	65	478	1.7	476	483	26.8	38.2
2025-08-19T14:56	10	60	0.9	58	61	478	1.0	477	480	26.7	38.9
2025-08-19T14:57	10	57	0.6	56	58	477	1.1	475	479	26.8	39.2
2025-08-19T14:58	10	56	0.2	55	56	477	1.3	476	480	26.9	39.2
2025-08-19T14:59	10	56	0.4	55	56	478	1.8	474	480	27.0	39.5
2025-08-19T15:00	10	56	1.4	53	57	476	0.9	474	477	26.8	40.1
2025-08-19T15:01	10	53	0.3	52	53	474	1.0	472	476	26.8	39.9
2025-08-19T15:02	10	52	0.4	51	53	472	0.5	472	474	26.7	39.6
2025-08-19T15:03	10	51	0.3	51	53	472	0.5	471	473	26.6	39.6
2025-08-19T15:04	10	54	2.5	50	58	473	1.3	471	475	26.7	39.3
2025-08-19T15:05	10	49	0.9	47	50	471	0.7	470	472	26.6	39.3
2025-08-19T15:06	10	46	0.8	45	47	470	0.8	469	472	26.6	39.4
2025-08-19T15:07	10	44	0.6	43	45	469	0.7	468	470	26.6	39.7
2025-08-19T15:08	10	42	0.5	41	43	469	0.5	468	470	26.6	40.0
2025-08-19T15:09	10	40	0.4	39	41	467	0.5	466	468	26.4	40.4
2025-08-19T15:10	10	39	0.3	39	40	466	0.5	465	467	26.5	40.6
2025-08-19T15:11	10	38	0.3	38	39	467	0.5	466	468	26.5	40.9
2025-08-19T15:12	10	37	0.3	37	38	467	0.6	466	468	26.6	40.9
2025-08-19T15:13	10	36	0.3	35	37	466	0.6	464	467	26.5	41.1
2025-08-19T15:14	10	35	0.4	34	36	465	0.3	464	465	26.4	41.4
2025-08-19T15:15	10	34	0.4	33	34	464	0.5	463	465	26.3	41.6
2025-08-19T15:16	10	32	0.4	32	33	463	1.0	462	465	26.2	41.7
2025-08-19T15:17	10	31	0.4	30	32	463	0.5	461	464	26.2	41.9
2025-08-19T15:18	10	30	0.4	29	30	462	1.3	460	464	26.2	41.9
2025-08-19T15:19	10	28	0.5	27	29	460	0.6	459	461	26.1	42.1
2025-08-19T15:20	10	27	0.4	26	27	459	0.4	458	459	26.0	42.3
2025-08-19T15:21	10	26	0.3	25	26	458	0.3	458	459	26.0	42.4
2025-08-19T15:22	10	25	0.2	24	25	458	0.7	457	459	26.0	42.3
2025-08-19T15:23	10	24	0.4	23	24	457	0.4	456	458	25.9	42.6
2025-08-19T15:24	10	23	0.4	22	23	456	0.3	456	457	25.9	42.9
2025-08-19T15:25	10	21	0.4	20	22	456	0.3	455	456	25.9	42.9
2025-08-19T15:26	10	20	0.3	19	21	455	0.7	454	456	25.9	43.0
2025-08-19T15:27	10	19	0.3	18	19	455	0.4	454	455	25.8	43.4
2025-08-19T15:28	10	18	0.3	17	18	454	0.3	453	455	25.7	43.6
2025-08-19T15:29	10	17	0.4	16	17	453	0.6	452	454	25.6	44.0
2025-08-19T15:30	10	15	0.3	15	16	452	0.3	451	452	25.5	44.2
2025-08-19T15:31	10	14	0.2	14	15	451	0.3	451	452	25.5	44.4
2025-08-19T15:32	10	14	0.2	13	14	451	0.4	450	452	25.5	44.4
2025-08-19T15:33	10	13	0.1	13	13	450	0.2	450	451	25.5	44.5
2025-08-19T15:34	10	13	0.2	12	13	450	0.2	450	450	25.5	44.5
2025-08-19T15:35	10	12	0.1	12	13	450	0.2	449	451	25.5	44.7
2025-08-19T15:36	10	12	0.2	12	12	449	0.2	449	450	25.5	44.7
2025-08-19T15:37	10	12	0.2	11	12	449	0.3	449	450	25.4	44.7
2025-08-19T15:38	10	11	0.2	11	12	449	0.3	448	450	25.4	44.9
2025-08-19T15:39	10	11	0.2	11	12	449	0.5	447	450	25.4	45.0
2025-08-19T15:40	10	11	0.2	11	12	449	0.2	448	449	25.4	45.0
2025-08-19T15:41	10	11	0.1	11	12	449	0.5	448	450	25.4	45.1
2025-08-19T15:42	10	12	0.2	11	12	449	0.4	448	450	25.4	45.2
2025-08-19T15:43	10	12	0.1	12	12	449	0.2	448	449	25.4	45.2
2025-08-19T15:44	10	12	0.1	12	13	448	0.3	448	449	25.4	45.1
2025-08-19T15:45	10	13	0.1	12	13	448	0.4	447	449	25.3	45.3
2025-08-19T15:46	10	13	0.1	13	13	448	0.3	448	449	25.3	45.4
2025-08-19T15:47	10	13	0.1	13	13	448	0.3	448	449	25.3	45.3
2025-08-19T15:48	10	13	0.1	13	14	449	0.3	448	449	25.3	45.5
2025-08-19T15:49	10	14	0.1	13	14	449	0.3	448	449	25.3	45.5
2025-08-19T15:50	10	14	0.1	14	14	448	0.2	448	448	25.3	45.4
2025-08-19T15:51	10	14	0.1	13	14	448	0.2	448	448	25.3	45.5
2025-08-19T15:52	10	13	0.1	13	14	448	0.3	447	448	25.2	45.7
2025-08-19T15:53	10	13	0.1	13	13	448	0.2	447	448	25.2	45.8
2025-08-19T15:54	10	13	0.1	13	13	447	0.5	447	448	25.2	45.8
2025-08-19T15:55	10	13	0.1	12	13	447	0.3	446	448	25.2	46.0
2025-08-19T15:56	10	13	0.1	12	13	447	0.2	446	447	25.1	46.2
2025-08-19T15:57	10	12	0.1	12	12	446	0.3	446	447	25.1	46.4
2025-08-19T15:58	10	12	0.1	12	12	446	0.5	445	447	25.1	46.5
2025-08-19T15:59	10	12	0.1	12	13	446	0.4	445	446	24.9	47.1
2025-08-19T16:00	10	12	0.1	12	13	445	0.3	445	446	24.8	47.5
2025-08-19T16:01	10	12	0.1	12	13	445	0.4	444	446	24.8	47.7
2025-08-19T16:02	10	12	0.1	12	13	445	0.3	445	446	24.7	48.0
2025-08-19T16:03	10	12	0.1	12	13	444	0.3	444	445	24.6	48.7
2025-08-19T16:04	10	12	0.2	12	13	444	0.2	444	445	24.5	49.0
2025-08-19T16:05	10	12	0.1	12	12	444	0.3	443	445	24.5	49.2
2025-08-19T16:06	10	12	0.1	11	12	443	0.4	443	444	24.5	49.3
2025-08-19T16:07	10	11	0.1	11	12	444	0.3	443	445	24.5	49.3
2025-08-19T16:08	10	11	0.2	11	11	443	0.2	443	444	24.5	49.4
2025-08-19T16:09	10	11	0.1	10	11	443	0.3	442	443	24.4	49.5
2025-08-19T16:10	10	10	0.1	10	11	443	0.3	442	443	24.4	49.4
2025-08-19T16:11	10	10	0.1	10	10	442	0.3	442	443	24.4	49.1
2025-08-19T16:12	10	10	0.1	9	10	442	0.3	441	443	24.4	49.3
2025-08-19T16:13	10	9	0.1	9	10	442	0.3	441	442	24.3	49.8
2025-08-19T16:14	10	9	0.2	9	9	441	0.4	440	441	24.2	50.3
2025-08-19T16:15	10	9	0.1	8	9	440	0.3	440	441	24.1	50.7
2025-08-19T16:16	10	8	0.1	8	8	440	0.3	439	440	24.0	51.2
2025-08-19T16:17	10	8	0.1	8	8	440	0.4	439	440	24.0	51.4
2025-08-19T16:18	10	8	0.1	8	8	439	0.3	438	440	23.9	51.8
2025-08-19T16:19	10	7	0.1	7	8	439	0.3	438	439	23.9	52.2
2025-08-19T16:20	10	7	0.2	7	7	437	1.1	434	439	23.8	53.2
2025-08-19T16:21	10	7	0.3	6	7	431	2.1	427	434	23.5	55.3
2025-08-19T16:22	10	6	0.3	6	7	427	0.9	426	429	23.3	56.1
2025-08-19T16:23	10	5	0.2	5	6	425	0.3	425	426	23.2	57.3
2025-08-19T16:24	10	5	0.1	5	5	425	0.3	424	425	23.1	57.5
2025-08-19T16:25	10	5	0.1	5	5	424	0.4	424	425	23.0	58.4
2025-08-19T16:26	10	5	0.1	4	5	424	0.3	423	425	23.0	58.2
2025-08-19T16:27	10	4	0.1	4	5	424	0.4	424	425	23.0	58.6
2025-08-19T16:28	10	4	0.2	4	5	424	0.4	423	425	23.0	58.0
2025-08-19T16:29	10	4	0.2	4	5	424	0.7	423	426	23.1	57.5
2025-08-19T16:30	10	4	0.1	4	5	425	0.5	424	426	23.1	57.4
2025-08-19T16:31	10	4	0.1	4	4	425	0.3	424	426	23.2	56.8
2025-08-19T16:32	10	4	0.2	4	5	425	0.3	424	426	23.2	57.0
2025-08-19T16:33	10	4	0.2	3	4	425	0.2	424	425	23.1	57.2
2025-08-19T16:34	10	4	0.2	3	4	425	0.3	424	425	23.1	57.2
2025-08-19T16:35	10	4	0.3	3	5	425	0.3	424	425	23.1	57.6
2025-08-19T16:36	10	4	0.2	3	4	425	0.3	424	426	23.2	55.8
2025-08-19T16:37	10	4	0.1	3	4	425	0.4	425	426	23.2	56.0
2025-08-19T16:38	10	4	0.1	3	4	426	0.3	425	426	23.3	55.1
2025-08-19T16:39	10	4	0.1	3	4	426	0.3	425	426	23.3	55.1
2025-08-19T16:40	10	3	0.1	3	4	426	0.4	425	426	23.2	55.5
2025-08-19T16:41	10	3	0.1	3	4	426	0.3	425	426	23.1	56.3
2025-08-19T16:42	10	3	0.1	3	4	426	0.3	425	426	22.9	57.1
2025-08-19T16:43	10	3	0.1	3	3	425	0.3	424	426	22.8	57.7
2025-08-19T16:44	10	3	0.1	3	3	425	0.3	424	425	22.8	58.4
2025-08-19T16:45	10	3	0.1	3	3	424	0.2	424	425	22.7	58.9
2025-08-19T16:46	10	3	0.1	3	3	423	0.3	423	424	22.6	59.2
2025-08-19T16:47	10	3	0.1	3	3	423	0.2	423	424	22.6	59.2
2025-08-19T16:48	10	3	0.1	3	3	423	0.2	422	423	22.7	59.2
2025-08-19T16:49	10	3	0.1	3	3	423	0.2	422	423	22.7	58.8
2025-08-19T16:50	10	3	0.1	3	3	422	0.3	422	423	22.6	59.6
2025-08-19T16:51	10	3	0.1	3	3	422	0.2	421	422	22.5	60.3
2025-08-19T16:52	10	3	0.1	3	3	422	0.2	421	422	22.4	60.7
2025-08-19T16:53	10	3	0.1	3	3	422	0.3	421	422	22.5	60.3
2025-08-19T16:54	10	3	0.1	3	4	422	0.4	421	422	22.4	60.9
2025-08-19T16:55	10	3	0.1	3	3	421	0.2	421	422	22.4	61.1
2025-08-19T16:56	10	3	0.1	3	3	421	0.3	420	421	22.3	61.9
2025-08-19T16:57	10	3	0.1	3	3	421	0.3	420	421	22.2	62.7
2025-08-19T16:58	10	3	0.1	3	3	421	0.3	420	421	22.0	64.8
2025-08-19T16:59	10	3	0.1	3	3	421	0.3	420	421	21.9	65.0
2025-08-19T17:00	10	3	0.1	3	4	420	0.3	419	420	22.1	62.2
2025-08-19T17:01	10	3	0.1	3	4	420	0.3	419	420	22.1	64.0
2025-08-19T17:02	10	3	0.1	3	4	420	0.2	419	420	21.9	64.9
2025-08-19T17:03	10	3	0.1	3	3	420	0.2	419	420	21.8	64.5
2025-08-19T17:04	10	3	0.1	3	3	420	0.5	419	420	21.9	64.8
2025-08-19T17:05	10	3	0.1	3	3	420	0.3	420	421	21.8	67.3
2025-08-19T17:06	10	3	0.1	3	3	420	0.2	420	421	21.7	66.3
2025-08-19T17:07	10	3	0.1	3	3	420	0.4	419	421	21.7	65.3
2025-08-19T17:08	10	3	0.1	2	3	421	0.2	421	422	21.8	64.8
2025-08-19T17:09	10	3	0.1	2	3	421	0.2	420	421	21.8	66.0
2025-08-19T17:10	10	2	0.1	2	3	421	0.2	420	421	21.9	65.9
2025-08-19T17:11	10	2	0.1	2	3	421	0.2	420	421	21.9	65.4
2025-08-19T17:12	10	2	0.1	2	2	420	0.2	420	421	22.0	65.0
2025-08-19T17:13	10	2	0.1	2	2	421	0.3	420	421	22.0	65.3
2025-08-19T17:14	10	2	0.1	2	2	421	0.2	420	421	21.9	66.9
2025-08-19T17:15	10	2	0.1	2	2	421	0.2	420	421	21.9	65.6
2025-08-19T17:16	10	2	0.1	2	2	420	0.4	419	421	21.9	67.7
2025-08-19T17:17	10	2	0.1	2	2	419	0.3	418	419	21.8	66.9
2025-08-19T17:18	10	2	0.1	2	2	418	0.3	417	419	21.8	67.9
2025-08-19T17:19	10	2	0.2	1	2	418	0.2	418	419	21.6	70.5
2025-08-19T17:20	10	2	0.2	1	2	418	0.3	417	419	21.5	72.7
2025-08-19T17:21	10	2	0.1	1	2	418	0.3	418	419	21.4	70.2
2025-08-19T17:22	10	2	0.2	1	2	419	0.4	418	420	21.5	67.1
2025-08-19T17:23	10	2	0.2	1	2	419	0.3	418	420	21.5	68.8
2025-08-19T17:24	10	2	0.2	1	2	419	0.2	418	419	21.5	68.3
2025-08-19T17:25	10	2	0.2	1	2	419	0.2	418	419	21.5	68.9
2025-08-19T17:26	10	2	0.2	1	2	418	0.3	417	419	21.5	69.1
2025-08-19T17:27	10	1	0.1	1	2	418	0.3	418	419	21.5	69.3
2025-08-19T17:28	10	1	0.1	1	2	418	0.2	417	418	21.4	71.4
2025-08-19T17:29	10	1	0.2	1	2	417	0.4	417	418	21.2	76.3
2025-08-19T17:30	10	1	0.2	1	2	417	0.3	417	418	21.1	74.6
2025-08-19T17:31	10	1	0.1	1	2	418	0.2	417	418	21.2	70.7
2025-08-19T17:32	10	1	0.1	1	1	417	0.2	417	418	21.3	69.5
2025-08-19T17:33	10	1	0.1	1	2	418	0.2	417	418	21.4	70.3
2025-08-19T17:34	10	1	0.1	1	1	417	0.5	416	418	21.3	71.1
2025-08-19T17:35	10	1	0.1	1	1	417	0.3	416	417	21.3	70.6
2025-08-19T17:36	10	1	0.1	1	1	417	0.3	416	418	21.4	69.5
2025-08-19T17:37	10	1	0.1	1	1	417	0.3	416	417	21.4	68.8
2025-08-19T17:38	10	1	0.1	1	1	417	0.5	416	418	21.5	68.5
2025-08-19T17:39	10	1	0.1	1	1	417	0.2	417	418	21.5	67.7
2025-08-19T17:40	10	1	0.1	1	1	417	0.3	416	418	21.5	68.3
2025-08-19T17:41	10	1	0.1	1	1	417	0.3	416	417	21.5	69.2
2025-08-19T17:42	10	1	0.1	1	1	417	0.2	417	418	21.3	71.4
2025-08-19T17:43	10	1	0.1	1	1	417	0.3	416	418	21.3	71.7
2025-08-19T17:44	10	1	0.1	1	1	416	0.3	416	417	21.2	72.6
2025-08-19T17:45	10	1	0.1	1	1	417	0.2	416	417	21.2	71.3
2025-08-19T17:46	10	1	0.1	1	1	417	0.2	416	417	21.3	70.8
2025-08-19T17:47	10	1	0.1	1	1	416	0.2	416	417	21.2	74.1
2025-08-19T17:48	10	1	0.1	0	1	417	0.3	416	418	21.0	74.7
2025-08-19T17:49	10	1	0.1	0	1	417	0.2	416	417	21.0	76.5
2025-08-19T17:50	10	1	0.1	0	1	417	0.3	416	417	20.8	79.6
2025-08-19T17:51	10	1	0.1	1	1	417	0.2	416	417	20.8	78.8
2025-08-19T17:52	10	1	0.1	0	1	416	0.2	416	417	20.8	78.3
2025-08-19T17:53	10	1	0.1	0	1	417	0.2	417	417	20.8	77.6
2025-08-19T17:54	10	1	0.1	0	1	417	0.3	416	417	20.8	75.7
2025-08-19T17:55	10	1	0.1	0	1	416	0.4	415	417	20.8	76.7
2025-08-19T17:56	10	1	0.1	0	1	415	0.2	414	416	20.8	76.8
2025-08-19T17:57	10	1	0.1	0	1	415	0.2	414	415	20.7	77.9
2025-08-19T17:58	10	1	0.1	0	1	415	0.3	414	415	20.7	77.6
2025-08-19T17:59	10	1	0.1	0	1	414	0.3	413	415	20.5	78.9
2025-08-19T18:00	10	1	0.1	0	1	413	0.6	412	414	20.5	76.9
2025-08-19T18:01	10	0	0.1	0	1	412	0.4	411	413	20.4	77.0
2025-08-19T18:02	10	0	0.1	0	0	412	0.5	411	413	20.4	76.1
2025-08-19T18:03	10	0	0.1	0	0	412	0.4	411	413	20.8	71.8
2025-08-19T18:04	10	0	0.1	0	0	411	0.3	411	412	20.8	70.9
2025-08-19T18:05	10	0	0.1	0	0	411	0.3	411	412	20.7	72.9
2025-08-19T18:06	10	0	0.1	0	1	411	0.2	411	412	20.6	74.4
2025-08-19T18:07	10	0	0.1	0	1	410	0.2	410	411	20.3	76.9
2025-08-19T18:08	10	0	0.1	0	1	411	0.3	410	412	20.1	77.8
2025-08-19T18:09	10	0	0.1	0	1	410	0.4	410	411	20.0	78.7
2025-08-19T18:10	10	1	0.2	0	1	410	0.2	409	411	19.6	83.4
2025-08-19T18:11	10	1	0.1	0	1	410	0.2	410	411	19.6	82.2
2025-08-19T18:12	10	0	0.1	0	1	410	0.4	409	411	19.6	84.0
2025-08-19T18:13	10	0	0.1	0	1	411	0.3	410	411	19.5	84.3
2025-08-19T18:14	10	0	0.1	0	1	411	0.5	410	412	19.8	79.2
2025-08-19T18:15	10	0	0.1	0	1	412	0.5	411	413	20.2	74.8
2025-08-19T18:16	10	0	0.1	0	0	411	0.3	411	412	20.4	74.1
2025-08-19T18:17	10	0	0.1	0	1	412	0.3	411	412	20.4	75.9
2025-08-19T18:18	10	0	0.1	0	0	412	0.6	411	413	20.3	75.8
2025-08-19T18:19	10	0	0.1	0	1	412	0.3	411	413	20.8	71.0
2025-08-19T18:20	10	0	0.1	0	1	412	0.3	411	412	20.9	71.0
2025-08-19T18:21	10	1	0.1	0	1	412	0.2	412	413	20.9	71.4
2025-08-19T18:22	10	0	0.1	0	1	412	0.2	412	412	20.8	72.0
2025-08-19T18:23	10	1	0.1	0	1	412	0.2	412	413	20.8	71.3
2025-08-19T18:24	10	0	0.1	0	1	412	0.3	411	412	20.8	71.5
2025-08-19T18:25	10	0	0.1	0	1	412	0.2	411	412	20.7	73.0
2025-08-19T18:26	10	0	0.1	0	1	412	0.2	411	412	20.6	73.9
2025-08-19T18:27	10	0	0.1	0	0	413	0.3	412	413	20.6	72.3
2025-08-19T18:28	10	0	0.1	0	0	413	0.3	412	414	20.6	73.9
2025-08-19T18:29	10	0	0.1	0	0	413	0.5	412	413	20.5	74.3
2025-08-19T18:30	10	0	0.1	0	1	412	0.8	410	413	20.3	78.8
2025-08-19T18:31	10	0	0.1	0	1	411	0.3	410	411	19.8	84.4
2025-08-19T18:32	10	0	0.2	0	1	410	0.3	410	411	19.4	86.0
2025-08-19T18:33	10	0	0.1	0	1	410	0.2	410	411	19.3	87.9
2025-08-19T18:34	10	0	0.1	0	1	411	0.6	409	412	19.6	80.2
2025-08-19T18:35	10	0	0.1	0	1	411	0.2	411	412	19.9	79.3
2025-08-19T18:36	10	0	0.2	0	1	411	0.4	410	411	19.9	81.3
2025-08-19T18:37	10	0	0.2	0	1	410	0.3	410	411	19.5	86.1
2025-08-19T18:38	10	0	0.2	0	1	410	0.3	410	411	19.4	86.3
2025-08-19T18:39	10	0	0.2	0	1	411	0.2	410	411	19.6	82.0
2025-08-19T18:40	10	0	0.2	0	1	410	0.2	410	411	19.6	83.8
2025-08-19T18:41	10	0	0.1	0	1	411	0.4	410	411	19.7	81.0
2025-08-19T18:42	10	0	0.1	0	1	410	0.2	410	411	19.6	83.8
2025-08-19T18:43	10	0	0.1	0	1	410	0.2	410	411	19.6	83.2
2025-08-19T18:44	10	0	0.1	0	0	410	0.2	410	411	19.6	82.6
2025-08-19T18:45	10	0	0.2	0	1	410	0.2	410	410	19.5	84.4
2025-08-19T18:46	10	0	0.1	0	1	410	0.2	409	410	19.5	85.1
2025-08-19T18:47	10	0	0.1	0	1	410	0.3	409	410	19.5	84.4
2025-08-19T18:48	10	0	1.5	0	10	410	0.2	409	410	19.5	83.8
2025-08-19T18:49	10	0	0.1	0	0	409	0.2	409	410	19.4	87.4
2025-08-19T18:50	10	0	0.1	0	0	409	0.3	409	410	19.2	88.3
2025-08-19T18:51	10	0	0.1	0	0	409	0.3	409	410	19.2	87.1
2025-08-19T18:52	10	0	0.1	0	0	409	0.2	409	410	19.2	87.8
2025-08-19T18:53	10	0	0.1	0	0	409	0.4	409	410	19.2	88.4
2025-08-19T18:54	10	0	0.1	0	0	409	0.2	408	410	19.2	88.8
2025-08-19T18:55	10	0	0.1	0	0	409	0.2	409	410	19.2	88.5
2025-08-19T18:56	10	0	0.1	0	0	409	0.3	409	410	19.2	87.4
2025-08-19T18:57	10	0	0.1	0	0	410	0.2	409	410	19.3	85.0
2025-08-19T18:58	10	0	0.1	0	0	410	0.3	409	410	19.5	84.7
2025-08-19T18:59	10	0	0.1	0	0	410	0.2	409	410	19.4	88.1
2025-08-19T19:00	10	0	0.1	0	0	409	0.3	409	410	19.3	87.9
2025-08-19T19:01	10	0	0.1	0	0	409	0.3	409	410	19.2	89.9
2025-08-19T19:02	10	0	0.1	0	0	409	0.2	409	410	19.1	91.0
2025-08-19T19:03	10	0	0.1	0	0	409	0.2	409	410	19.1	90.9
2025-08-19T19:04	10	0	0.1	0	0	409	0.3	409	410	19.1	91.2
2025-08-19T19:05	10	0	0.1	0	0	409	0.3	409	410	19.1	89.6
2025-08-19T19:06	10	0	0.1	0	0	409	0.2	409	410	19.1	88.7
2025-08-19T19:07	10	0	0.1	0	0	409	0.2	408	409	19.1	89.4
2025-08-19T19:08	10	0	0.1	0	0	409	0.2	408	409	19.1	89.4
2025-08-19T19:09	10	0	0.1	0	0	409	0.2	408	409	19.0	90.1
2025-08-19T19:10	10	0	0.1	0	0	409	0.2	408	409	19.0	89.9
2025-08-19T19:11	10	0	0.1	0	0	409	0.2	408	409	19.0	88.9
2025-08-19T19:12	10	0	0.1	0	0	409	0.2	408	409	19.1	88.2
2025-08-19T19:13	10	0	0.1	0	0	409	0.3	408	410	19.2	86.7
2025-08-19T19:14	10	0	0.1	0	0	409	0.2	408	409	19.2	86.7
2025-08-19T19:15	10	0	0.1	0	0	409	0.2	409	409	19.3	86.1
2025-08-19T19:16	10	0	0.1	0	0	409	0.2	408	410	19.4	88.3
2025-08-19T19:17	10	0	0.1	0	0	409	0.2	408	409	19.3	89.6
2025-08-19T19:18	10	0	0.1	0	0	409	0.2	408	409	19.3	89.6
2025-08-19T19:19	10	0	0.1	0	0	409	0.3	408	409	19.2	90.8
2025-08-19T19:20	10	0	0.1	0	0	409	0.3	408	409	19.1	90.7
2025-08-19T19:21	10	0	0.1	0	0	408	0.2	408	409	19.0	89.7
2025-08-19T19:22	10	0	0.1	0	0	408	0.2	408	409	19.1	88.8
2025-08-19T19:23	10	0	0.1	0	0	409	0.2	408	409	19.1	88.8
2025-08-19T19:24	10	0	0.1	0	1	408	0.2	408	409	19.1	89.4
2025-08-19T19:25	10	0	0.1	0	0	408	0.3	407	409	19.0	91.2
2025-08-19T19:26	10	0	0.1	0	1	408	0.3	408	409	19.0	89.4
2025-08-19T19:27	10	0	0.1	0	0	408	0.2	408	409	19.0	89.8
2025-08-19T19:28	10	0	0.1	0	0	408	0.3	407	409	19.0	88.1
2025-08-19T19:29	10	0	0.1	0	0	408	0.2	408	409	19.2	85.7
2025-08-19T19:30	10	0	0.1	0	0	408	0.3	407	409	19.3	84.8
2025-08-19T19:31	10	0	0.1	0	0	408	0.3	407	409	19.2	86.7
2025-08-19T19:32	10	0	0.1	0	0	407	0.2	407	408	19.1	88.2
2025-08-19T19:33	10	0	0.1	0	0	407	0.2	407	408	19.0	88.8
2025-08-19T19:34	10	0	0.1	0	0	407	0.3	407	408	18.8	91.1
2025-08-19T19:35	10	0	0.1	0	0	407	0.2	407	408	18.7	92.3
2025-08-19T19:36	10	0	0.1	0	0	407	0.2	407	408	18.6	92.3
2025-08-19T19:37	10	0	0.1	0	0	407	0.2	406	408	18.7	91.1
2025-08-19T19:38	10	0	0.1	0	0	407	0.2	406	407	18.7	91.4
2025-08-19T19:39	10	0	0.1	0	0	407	0.2	407	408	18.8	89.5
2025-08-19T19:40	10	0	0.1	0	0	407	0.3	406	407	18.8	91.1
2025-08-19T19:41	10	0	0.1	0	0	407	0.2	406	407	18.7	92.9
2025-08-19T19:42	10	0	0.1	0	0	407	0.2	406	407	18.6	93.9
2025-08-19T19:43	10	0	0.1	0	0	407	0.3	406	408	18.5	94.5
2025-08-19T19:44	10	0	0.1	0	0	407	0.2	406	407	18.5	92.6
2025-08-19T19:45	10	0	0.1	0	0	407	0.3	406	407	18.6	93.3
2025-08-19T19:46	10	0	0.1	0	0	407	0.2	406	407	18.6	94.2
2025-08-19T19:47	10	0	0.1	0	0	407	0.2	406	407	18.6	94.2
2025-08-19T19:48	10	0	0.1	0	0	407	0.3	406	407	18.6	93.2
2025-08-19T19:49	10	0	0.1	0	0	407	0.2	406	407	18.6	93.5
2025-08-19T19:50	10	0	0.1	0	0	407	0.2	406	407	18.6	93.4
2025-08-19T19:51	10	0	0.1	0	0	406	0.2	406	407	18.5	92.7
2025-08-19T19:52	10	0	0.1	0	0	406	0.2	406	407	18.5	92.4
2025-08-19T19:53	10	0	0.1	0	0	406	0.2	406	407	18.5	93.0
2025-08-19T19:54	10	0	0.1	0	0	406	0.3	405	407	18.5	92.4
2025-08-19T19:55	10	0	0.1	0	0	406	0.2	406	407	18.6	91.9
2025-08-19T19:56	10	0	0.1	0	0	406	0.2	406	407	18.6	91.9
2025-08-19T19:57	10	0	0.1	0	0	406	0.2	406	406	18.6	92.2
2025-08-19T19:58	10	0	0.1	0	0	406	0.2	406	407	18.6	93.2
2025-08-19T19:59	10	0	0.1	0	0	406	0.2	405	406	18.6	92.8
2025-08-19T20:00	10	0	0.1	0	0	406	0.2	405	406	18.5	93.1
2025-08-19T20:01	10	0	0.1	0	0	406	0.2	405	406	18.5	93.3
2025-08-19T20:02	10	0	0.1	0	0	406	0.2	405	406	18.5	93.3
2025-08-19T20:03	10	0	0.1	0	0	406	0.2	405	406	18.5	93.6
2025-08-19T20:04	10	0	0.1	0	0	406	0.3	405	406	18.5	94.1
2025-08-19T20:05	10	0	0.1	0	0	406	0.2	405	406	18.5	94.2
2025-08-19T20:06	10	0	0.1	0	0	405	0.3	405	406	18.5	94.7
2025-08-19T20:07	10	0	0.1	0	0	406	0.3	405	406	18.4	95.1
2025-08-19T20:08	10	0	0.1	0	0	405	0.3	405	406	18.4	95.4
2025-08-19T20:09	10	0	0.1	0	0	405	0.2	405	406	18.4	95.5
2025-08-19T20:10	10	0	0.1	0	0	406	0.2	405	406	18.4	95.6
2025-08-19T20:11	10	0	0.1	0	0	405	0.2	405	406	18.3	95.5
2025-08-19T20:12	10	0	0.1	0	0	405	0.2	405	406	18.3	95.2
2025-08-19T20:13	10	0	0.1	0	0	405	0.2	405	406	18.4	95.1
2025-08-19T20:14	10	0	0.1	0	0	405	0.2	405	406	18.3	95.1
2025-08-19T20:15	10	0	0.1	0	0	405	0.2	405	406	18.3	95.4
2025-08-19T20:16	10	0	0.1	0	0	405	0.2	405	405	18.3	95.4
2025-08-19T20:17	10	0	0.1	0	0	405	0.3	405	406	18.3	95.2
2025-08-19T20:18	10	0	0.1	0	0	405	0.2	405	406	18.4	95.1
2025-08-19T20:19	10	0	0.1	0	0	405	0.3	404	405	18.4	95.0
2025-08-19T20:20	10	0	0.1	0	0	405	0.2	405	406	18.4	95.0
2025-08-19T20:21	10	0	0.1	0	0	405	0.2	405	406	18.4	94.9
2025-08-19T20:22	10	0	0.1	0	0	405	0.2	405	406	18.4	94.7
2025-08-19T20:23	10	0	0.1	0	0	405	0.2	405	406	18.4	94.1
2025-08-19T20:24	10	0	0.1	0	0	405	0.2	405	406	18.5	93.9
2025-08-19T20:25	10	0	0.1	0	1	405	0.2	405	406	18.5	94.1
2025-08-19T20:26	10	0	0.1	0	0	405	0.2	405	406	18.5	93.8
2025-08-19T20:27	10	0	0.1	0	0	405	0.2	405	406	18.5	93.0
2025-08-19T20:28	10	0	0.1	0	0	406	0.3	405	406	18.6	91.0
2025-08-19T20:29	10	0	0.1	0	0	406	0.2	405	406	18.6	92.4
2025-08-19T20:30	10	0	0.1	0	0	406	0.2	405	406	18.6	93.4
2025-08-19T20:31	10	0	0.1	0	0	406	0.2	405	406	18.5	93.5
2025-08-19T20:32	10	0	0.1	0	0	406	0.2	405	407	18.5	93.1
2025-08-19T20:33	10	0	0.1	0	0	406	0.2	405	406	18.5	92.7
2025-08-19T20:34	10	0	0.1	0	0	406	0.2	406	407	18.5	93.0
2025-08-19T20:35	10	0	0.1	0	0	406	0.2	406	406	18.5	92.3
2025-08-19T20:36	10	0	0.1	0	0	406	0.2	405	406	18.7	91.2
2025-08-19T20:37	10	0	0.1	0	0	406	0.2	405	406	18.6	92.3
2025-08-19T20:38	10	0	0.1	0	0	406	0.2	405	406	18.6	93.1
2025-08-19T20:39	10	0	0.1	0	0	406	0.3	405	406	18.5	93.5
2025-08-19T20:40	10	0	0.1	0	0	406	0.2	405	406	18.5	93.9
2025-08-19T20:41	10	0	0.1	0	0	406	0.2	405	406	18.5	94.4
2025-08-19T20:42	10	0	0.1	0	0	406	0.2	405	406	18.4	94.5
2025-08-19T20:43	10	0	0.1	0	0	406	0.2	405	406	18.4	94.8
2025-08-19T20:44	10	0	0.2	0	0	406	0.2	405	406	18.4	94.7
2025-08-19T20:45	10	0	0.1	0	0	406	0.2	405	406	18.4	95.1
2025-08-19T20:46	10	0	0.2	0	1	406	0.3	405	406	18.4	94.9
2025-08-19T20:47	10	0	0.1	0	0	406	0.2	405	406	18.3	95.3
2025-08-19T20:48	10	0	0.1	0	0	406	0.3	405	406	18.3	95.2
2025-08-19T20:49	10	0	0.1	0	0	406	0.2	405	406	18.3	95.2
2025-08-19T20:50	10	0	0.1	0	0	406	0.2	405	406	18.3	95.3
2025-08-19T20:51	10	0	0.1	0	0	406	0.2	405	406	18.3	95.1
2025-08-19T20:52	10	0	0.1	0	0	406	0.2	405	406	18.3	94.5
2025-08-19T20:53	10	0	0.1	0	0	406	0.2	405	406	18.3	94.3
2025-08-19T20:54	10	0	0.1	0	0	405	0.2	405	406	18.3	94.1
2025-08-19T20:55	10	0	0.1	0	0	405	0.2	405	406	18.4	94.2
2025-08-19T20:56	10	0	0.1	0	0	405	0.3	405	406	18.3	94.2
2025-08-19T20:57	10	0	0.2	0	0	406	0.2	405	406	18.4	93.0
2025-08-19T20:58	10	0	0.2	-1	0	405	0.3	405	406	18.4	90.2
2025-08-19T20:59	10	0	0.2	0	1	405	0.3	404	406	18.4	88.5
2025-08-19T21:00	10	0	0.2	0	1	405	0.2	405	406	18.4	91.7
2025-08-19T21:01	10	0	0.2	0	1	405	0.2	405	406	18.4	88.5
2025-08-19T21:02	10	0	0.2	0	0	405	0.2	404	405	18.4	91.7
2025-08-19T21:03	10	0	0.1	0	0	405	0.3	404	405	18.4	91.7
2025-08-19T21:04	10	0	0.2	0	1	405	0.3	404	405	18.4	91.7
2025-08-19T21:05	10	0	0.2	0	1	405	0.2	404	405	18.4	91.8
2025-08-19T21:06	10	0	0.1	0	0	405	0.2	404	405	18.4	93.7
2025-08-19T21:07	10	0	0.1	0	0	404	0.2	404	405	18.4	93.5
2025-08-19T21:08	10	0	0.1	0	0	405	0.2	404	405	18.4	94.0
2025-08-19T21:09	10	0	0.2	0	1	405	0.3	404	405	18.4	94.2
2025-08-19T21:10	10	0	0.1	0	0	404	0.3	404	405	18.4	93.6
2025-08-19T21:11	10	0	0.2	0	0	404	0.3	403	405	18.5	93.6
2025-08-19T21:12	10	0	0.2	0	0	404	0.2	404	405	18.5	93.5
2025-08-19T21:13	10	0	0.2	0	0	404	0.2	404	405	18.5	93.3
2025-08-19T21:14	10	0	0.2	0	0	404	0.2	404	405	18.5	92.7
2025-08-19T21:15	10	0	0.2	0	0	404	0.2	404	405	18.6	92.9
2025-08-19T21:16	10	0	0.2	0	0	404	0.3	404	405	18.6	93.2
2025-08-19T21:17	10	0	0.1	0	0	405	0.2	404	405	18.6	92.8
2025-08-19T21:18	10	0	0.2	0	0	405	0.3	404	405	18.6	92.9
2025-08-19T21:19	10	0	0.1	0	0	405	0.3	404	405	18.7	92.9
2025-08-19T21:20	10	0	0.1	0	0	405	0.2	404	405	18.6	93.8
2025-08-19T21:21	10	0	0.1	0	0	405	0.2	404	405	18.5	94.9
2025-08-19T21:22	10	0	0.1	0	0	404	0.3	404	405	18.5	96.1
2025-08-19T21:23	10	0	0.1	0	0	405	0.3	404	405	18.4	96.9
2025-08-19T21:24	10	0	0.2	0	1	405	0.3	404	405	18.4	97.4
2025-08-19T21:25	10	0	0.2	0	0	405	0.2	404	405	18.4	97.9
2025-08-19T21:26	10	0	0.1	0	0	405	0.2	404	405	18.4	98.2
2025-08-19T21:27	10	0	0.1	0	0	405	0.2	404	405	18.4	98.3
2025-08-19T21:28	10	0	0.2	0	1	405	0.3	404	405	18.3	98.6
2025-08-19T21:29	10	0	0.2	0	1	405	0.3	404	405	18.3	98.8
2025-08-19T21:30	10	0	0.2	0	0	405	0.2	404	405	18.3	98.9
2025-08-19T21:31	10	0	0.1	0	0	404	0.2	404	405	18.3	98.8
2025-08-19T21:32	10	0	0.2	0	1	404	0.3	404	405	18.2	99.0
2025-08-19T21:33	10	0	0.1	0	1	404	0.2	403	405	18.2	99.0
2025-08-19T21:34	10	0	0.1	0	0	404	0.2	403	404	18.2	98.9
2025-08-19T21:35	10	0	0.1	0	0	404	0.2	404	404	18.1	98.8
2025-08-19T21:36	10	0	0.1	0	0	404	0.2	403	404	18.1	98.8
2025-08-19T21:37	10	0	0.1	0	0	403	0.2	403	404	18.1	98.8
2025-08-19T21:38	10	0	0.1	0	0	403	0.2	403	404	18.1	98.7
2025-08-19T21:39	10	0	0.1	0	0	403	0.3	402	404	18.1	98.6
2025-08-19T21:40	10	0	0.1	0	0	403	0.2	403	404	18.1	98.6
2025-08-19T21:41	10	0	0.1	0	0	403	0.2	403	404	18.1	98.5
2025-08-19T21:42	10	0	0.1	0	0	403	0.2	403	403	18.1	98.5
2025-08-19T21:43	10	0	0.1	-1	0	403	0.2	403	403	18.1	98.5
2025-08-19T21:44	10	0	0.1	0	0	403	0.3	402	403	18.1	98.5
2025-08-19T21:45	10	0	0.2	0	1	403	0.2	403	404	18.1	98.4
2025-08-19T21:46	10	0	0.1	0	0	403	0.2	402	403	18.2	98.5
2025-08-19T21:47	10	0	0.1	0	0	403	0.2	403	403	18.2	98.5
2025-08-19T21:48	10	0	0.1	0	0	403	0.2	403	404	18.2	98.5
2025-08-19T21:49	10	0	0.1	0	0	403	0.2	403	403	18.2	98.5
2025-08-19T21:50	10	0	0.1	0	1	403	0.2	402	403	18.1	98.4
2025-08-19T21:51	10	0	0.1	0	1	403	0.2	402	403	18.0	98.1
2025-08-19T21:52	10	0	0.1	0	0	403	0.2	402	403	18.0	98.1
2025-08-19T21:53	10	0	0.1	0	0	403	0.3	402	403	18.1	98.1
2025-08-19T21:54	10	0	0.1	0	0	403	0.2	402	403	18.1	98.0
2025-08-19T21:55	10	0	0.1	0	0	403	0.2	402	403	18.1	97.9
2025-08-19T21:56	10	0	0.1	0	0	403	0.2	402	403	18.1	98.0
2025-08-19T21:57	10	0	0.1	0	0	403	0.2	402	403	18.1	98.0
2025-08-19T21:58	10	0	0.1	0	0	403	0.2	402	404	18.1	98.1
2025-08-19T21:59	10	0	0.1	0	0	403	0.2	403	404	18.1	98.2
2025-08-19T22:00	10	0	0.1	0	0	403	0.2	403	404	18.1	98.3
2025-08-19T22:01	10	0	0.1	0	0	403	0.2	402	403	18.1	98.3
2025-08-19T22:02	10	0	0.1	0	0	402	0.2	402	403	18.0	98.3
2025-08-19T22:03	10	0	0.1	0	0	402	0.3	402	403	17.9	98.4
2025-08-19T22:04	10	0	0.1	0	0	402	0.2	402	403	17.9	98.5
2025-08-19T22:05	10	0	0.1	0	0	403	0.2	402	403	17.9	98.4
2025-08-19T22:06	10	0	0.1	0	0	402	0.2	402	403	17.9	98.5
2025-08-19T22:07	10	0	0.1	0	0	402	0.2	402	403	17.9	98.5
2025-08-19T22:08	10	0	0.1	0	0	402	0.3	402	403	17.8	98.3
2025-08-19T22:09	10	0	0.1	0	0	402	0.2	402	403	17.8	98.3
2025-08-19T22:10	10	0	0.1	0	0	402	0.3	402	403	17.8	98.3
2025-08-19T22:11	10	0	0.1	0	0	402	0.2	402	403	17.9	98.3
2025-08-19T22:12	10	0	0.1	0	0	403	0.2	402	403	17.9	98.4
2025-08-19T22:13	10	0	0.1	0	0	403	0.2	402	403	17.8	98.5
2025-08-19T22:14	10	0	0.1	0	0	403	0.2	402	403	17.8	98.5
2025-08-19T22:15	10	0	0.1	0	0	403	0.2	402	403	17.8	98.6
2025-08-19T22:16	10	0	0.1	0	0	403	0.2	403	404	17.8	98.5
2025-08-19T22:17	10	0	0.1	0	0	403	0.2	403	404	17.8	98.3
2025-08-19T22:18	10	0	0.1	0	0	403	0.2	402	404	17.8	98.2
2025-08-19T22:19	10	0	0.1	0	0	403	0.3	403	404	17.9	98.2
2025-08-19T22:20	10	0	0.1	0	0	403	0.2	403	404	17.8	98.1
2025-08-19T22:21	10	0	0.1	0	0	404	0.2	403	404	17.8	97.8
2025-08-19T22:22	10	0	0.1	0	0	403	0.2	403	404	17.9	97.8
2025-08-19T22:23	10	0	0.1	0	0	403	0.2	403	404	17.9	97.7
2025-08-19T22:24	10	0	0.1	0	0	404	0.2	403	404	17.9	97.7
2025-08-19T22:25	10	0	0.1	0	0	404	0.2	403	404	17.9	97.7
2025-08-19T22:26	10	0	0.1	0	0	404	0.2	403	404	17.9	97.7
2025-08-19T22:27	10	0	0.1	0	0	404	0.2	403	404	17.9	97.8
2025-08-19T22:28	10	0	0.1	0	0	404	0.2	403	404	17.9	97.9
2025-08-19T22:29	10	0	0.1	0	0	404	0.2	403	404	17.9	97.9
2025-08-19T22:30	10	0	0.1	0	0	403	0.2	403	404	17.9	97.8
2025-08-19T22:31	10	0	0.1	0	0	403	0.2	403	404	17.9	97.9
2025-08-19T22:32	10	0	0.1	0	0	403	0.2	403	404	17.9	97.9
2025-08-19T22:33	10	0	0.1	0	0	403	0.2	403	404	17.9	97.8
2025-08-19T22:34	10	0	0.1	0	0	403	0.2	403	404	17.9	97.6
2025-08-19T22:35	10	0	0.1	0	0	404	0.3	403	404	17.9	97.4
2025-08-19T22:36	10	0	0.1	0	0	403	0.2	403	404	17.9	97.7
2025-08-19T22:37	10	0	0.1	0	0	403	0.2	403	404	17.9	97.9
2025-08-19T22:38	10	0	0.1	0	0	403	0.3	403	404	17.9	97.8
2025-08-19T22:39	10	0	0.1	0	0	403	0.2	403	404	17.9	97.7
2025-08-19T22:40	10	0	0.1	0	0	403	0.2	403	404	17.8	97.5
2025-08-19T22:41	10	0	0.1	0	0	403	0.2	403	404	17.8	97.2
2025-08-19T22:42	10	0	0.1	0	0	404	0.2	403	404	17.9	97.0
2025-08-19T22:43	10	0	0.1	0	0	403	0.2	403	404	17.9	96.9
2025-08-19T22:44	10	0	0.1	0	0	403	0.2	403	404	17.9	96.9
2025-08-19T22:45	10	0	0.1	0	0	403	0.3	403	404	17.9	96.9
2025-08-19T22:46	10	0	0.1	0	0	403	0.2	403	404	17.9	96.9
2025-08-19T22:47	10	0	0.1	0	0	403	0.2	403	404	17.9	96.8
2025-08-19T22:48	10	0	0.1	0	0	403	0.2	403	404	17.9	96.7
2025-08-19T22:49	10	0	0.1	0	0	403	0.3	402	404	17.9	96.4
2025-08-19T22:50	10	0	0.1	0	0	403	0.2	403	404	17.9	96.4
2025-08-19T22:51	10	0	0.1	0	0	403	0.2	402	403	17.9	96.4
2025-08-19T22:52	10	0	0.1	0	0	403	0.3	402	404	17.9	96.4
2025-08-19T22:53	10	0	0.1	0	0	403	0.2	403	404	17.9	96.5
2025-08-19T22:54	10	0	0.1	0	0	403	0.2	402	403	17.9	96.2
2025-08-19T22:55	10	0	0.1	0	0	403	0.2	402	403	18.0	95.9
2025-08-19T22:56	10	0	0.1	0	0	403	0.3	402	403	18.0	96.0
2025-08-19T22:57	10	0	0.1	0	0	403	0.2	402	403	18.0	96.2
2025-08-19T22:58	10	0	0.1	0	0	402	0.3	402	403	18.0	96.0
2025-08-19T22:59	10	0	0.1	0	0	402	0.2	402	403	18.0	95.6
2025-08-19T23:00	10	0	0.1	0	0	402	0.2	402	403	18.0	95.9
2025-08-19T23:01	10	0	0.1	0	0	402	0.3	401	403	18.0	95.8
2025-08-19T23:02	10	0	0.1	0	0	402	0.2	402	403	18.0	95.8
2025-08-19T23:03	10	0	0.1	0	0	402	0.3	401	402	17.9	95.8
2025-08-19T23:04	10	0	0.1	0	0	402	0.2	401	402	17.9	95.5
2025-08-19T23:05	10	0	0.1	0	0	401	0.3	401	402	18.0	95.4
2025-08-19T23:06	10	0	0.1	0	0	401	0.3	400	402	18.0	95.6
2025-08-19T23:07	10	0	0.1	0	0	400	0.2	400	401	17.9	96.1
2025-08-19T23:08	10	0	0.1	0	0	400	0.3	399	400	17.9	96.4
2025-08-19T23:09	10	0	0.1	0	0	400	0.2	399	400	17.9	96.4
2025-08-19T23:10	10	0	0.1	0	0	400	0.2	399	400	17.8	96.6
2025-08-19T23:11	10	0	0.1	0	0	399	0.2	399	400	17.9	96.9
2025-08-19T23:12	10	0	0.1	0	0	399	0.2	399	400	17.8	97.3
2025-08-19T23:13	10	0	0.1	0	0	399	0.3	399	400	17.8	97.5
2025-08-19T23:14	10	0	0.1	0	0	399	0.2	399	400	17.8	97.5
2025-08-19T23:15	10	0	0.1	0	0	399	0.2	398	399	17.8	97.6
2025-08-19T23:16	10	0	0.1	0	0	398	0.2	398	399	17.7	97.6
2025-08-19T23:17	10	0	0.1	0	0	398	0.2	398	399	17.7	97.7
2025-08-19T23:18	10	0	0.1	0	0	398	0.2	398	399	17.7	97.7
2025-08-19T23:19	10	0	0.1	0	0	398	0.2	398	398	17.7	97.6
2025-08-19T23:20	10	0	0.1	0	0	397	0.2	397	398	17.7	97.5
2025-08-19T23:21	10	0	0.1	0	0	397	0.3	397	398	17.7	97.4
2025-08-19T23:22	10	0	0.1	0	0	397	0.3	396	398	17.7	97.3
2025-08-19T23:23	10	0	0.0	0	0	397	0.2	396	397	17.7	97.3
2025-08-19T23:24	10	0	0.0	0	0	397	0.2	396	397	17.7	97.3
2025-08-19T23:25	10	0	0.1	0	0	397	0.2	396	397	17.7	97.4
2025-08-19T23:26	10	0	0.1	0	0	397	0.3	396	397	17.7	97.4
2025-08-19T23:27	10	0	0.1	0	0	397	0.2	396	397	17.7	97.6
2025-08-19T23:28	10	0	0.1	0	0	397	0.2	396	397	17.6	97.7
2025-08-19T23:29	10	0	1.0	0	7	396	0.3	396	397	17.6	97.7
2025-08-19T23:30	10	0	0.1	0	0	396	0.2	395	396	17.6	97.8
2025-08-19T23:31	10	0	0.1	0	0	396	0.2	395	396	17.6	97.9
2025-08-19T23:32	10	0	0.1	0	0	396	0.2	395	396	17.5	98.0
2025-08-19T23:33	10	0	0.1	0	0	395	0.2	395	395	17.5	98.0
2025-08-19T23:34	10	0	0.1	0	0	395	0.3	394	395	17.5	98.0
2025-08-19T23:35	10	0	0.1	0	0	394	0.2	394	395	17.5	98.0
2025-08-19T23:36	10	0	0.1	0	0	394	0.2	393	394	17.5	97.9
2025-08-19T23:37	10	0	0.1	0	0	394	0.3	393	394	17.5	97.8
2025-08-19T23:38	10	0	0.1	0	0	393	0.3	393	394	17.5	97.9
2025-08-19T23:39	10	0	0.1	0	0	394	0.2	393	394	17.5	98.0
2025-08-19T23:40	10	0	0.1	0	0	394	0.2	393	394	17.5	97.9
2025-08-19T23:41	10	0	0.1	0	0	394	0.3	394	395	17.5	97.9
2025-08-19T23:42	10	0	0.1	0	0	394	0.4	394	395	17.5	97.5
2025-08-19T23:43	10	0	0.1	0	0	396	0.5	395	396	17.5	97.4
2025-08-19T23:44	10	0	0.1	0	0	396	0.2	396	397	17.5	97.6
2025-08-19T23:45	10	0	0.1	0	0	397	0.2	396	397	17.5	97.8
2025-08-19T23:46	10	0	0.1	0	0	397	0.2	397	398	17.5	97.8
2025-08-19T23:47	10	0	0.1	0	0	397	0.2	396	398	17.5	98.0
2025-08-19T23:48	10	0	0.1	0	0	397	0.3	397	398	17.5	98.2
2025-08-19T23:49	10	0	0.1	0	0	397	0.3	397	398	17.5	98.4
2025-08-19T23:50	10	0	0.1	0	0	397	0.2	397	398	17.5	98.4
2025-08-19T23:51	10	0	0.1	0	0	398	0.2	397	398	17.5	98.3
2025-08-19T23:52	10	0	0.1	0	0	398	0.2	397	398	17.5	98.4
2025-08-19T23:53	10	0	0.1	0	0	398	0.2	397	399	17.5	98.4
2025-08-19T23:54	10	0	0.1	0	0	398	0.3	397	398	17.5	98.5
2025-08-19T23:55	10	0	0.1	0	0	398	0.3	397	399	17.5	98.6
2025-08-19T23:56	10	0	0.1	0	0	398	0.2	397	398	17.5	98.6
2025-08-19T23:57	10	0	0.1	0	0	398	0.2	397	398	17.4	98.6
2025-08-19T23:58	10	0	0.1	0	0	398	0.3	397	398	17.4	98.5
2025-08-19T23:59	10	0	0.1	0	0	398	0.2	397	398	17.4	98.5
2025-08-20T00:00	10	0	0.1	0	0	398	0.2	397	398	17.4	98.5
2025-08-20T00:01	10	0	0.1	0	0	398	0.2	397	398	17.4	98.6
2025-08-20T00:02	10	0	0.1	0	0	397	0.3	397	398	17.4	98.6
2025-08-20T00:03	10	0	0.1	0	0	397	0.3	397	398	17.4	98.5
2025-08-20T00:04	10	0	0.1	0	0	397	0.2	397	398	17.4	98.4
2025-08-20T00:05	10	0	0.1	0	0	397	0.3	396	398	17.4	98.3
2025-08-20T00:06	10	0	0.1	0	0	397	0.2	396	397	17.4	98.3
2025-08-20T00:07	10	0	0.1	0	0	396	0.3	395	397	17.4	98.3
2025-08-20T00:08	10	0	0.1	0	0	396	0.3	395	396	17.4	98.3
2025-08-20T00:09	10	0	0.1	0	0	395	0.2	395	396	17.4	98.3
2025-08-20T00:10	10	0	0.1	0	0	395	0.3	394	396	17.4	98.3
2025-08-20T00:11	10	0	0.1	0	0	394	0.2	394	395	17.4	98.2
2025-08-20T00:12	10	0	0.1	0	0	394	0.2	394	395	17.4	98.2
2025-08-20T00:13	10	0	0.1	0	0	394	0.2	393	394	17.4	98.0
2025-08-20T00:14	10	0	0.1	0	0	394	0.2	393	394	17.4	97.9
2025-08-20T00:15	10	0	0.1	0	0	394	0.2	393	394	17.4	97.6
2025-08-20T00:16	10	0	0.1	0	0	393	0.2	393	394	17.4	97.6
2025-08-20T00:17	10	0	0.1	0	0	394	0.3	393	395	17.4	97.6
2025-08-20T00:18	10	0	0.1	0	0	394	0.2	393	394	17.5	97.4
2025-08-20T00:19	10	0	0.1	0	0	394	0.3	393	394	17.4	97.3
2025-08-20T00:20	10	0	0.1	0	0	394	0.2	394	395	17.4	97.3
2025-08-20T00:21	10	0	0.0	0	0	394	0.3	394	395	17.4	97.4
2025-08-20T00:22	10	0	0.1	0	0	395	0.2	394	395	17.4	97.5
2025-08-20T00:23	10	0	0.1	0	0	394	0.3	393	395	17.4	97.5
2025-08-20T00:24	10	0	0.1	0	0	394	0.2	394	395	17.4	97.6
2025-08-20T00:25	10	0	0.1	0	0	394	0.3	393	395	17.4	97.5
2025-08-20T00:26	10	0	0.1	0	0	395	0.3	394	395	17.4	97.4
2025-08-20T00:27	10	0	0.1	0	0	394	0.3	394	395	17.4	97.3
2025-08-20T00:28	10	0	0.1	0	0	394	0.2	393	395	17.4	97.4
2025-08-20T00:29	10	0	0.1	0	0	393	0.4	393	394	17.3	97.5
2025-08-20T00:30	10	0	0.1	0	0	393	0.2	392	393	17.3	97.5
2025-08-20T00:31	10	0	0.1	0	0	393	0.2	393	393	17.3	97.3
2025-08-20T00:32	10	0	0.1	0	0	393	0.2	392	393	17.3	97.2
2025-08-20T00:33	10	0	0.1	0	0	393	0.2	392	393	17.4	97.0
2025-08-20T00:34	10	0	0.1	0	0	392	0.3	392	393	17.4	96.9
2025-08-20T00:35	10	0	0.1	0	0	393	0.3	392	393	17.4	96.6
2025-08-20T00:36	10	0	0.0	0	0	392	0.2	392	393	17.4	96.4
2025-08-20T00:37	10	0	0.1	0	0	392	0.2	392	393	17.4	96.3
2025-08-20T00:38	10	0	0.0	0	0	393	0.2	392	393	17.4	96.3
2025-08-20T00:39	10	0	0.0	0	0	392	0.2	392	393	17.4	96.1
2025-08-20T00:40	10	0	0.1	0	0	392	0.2	392	393	17.4	96.0
2025-08-20T00:41	10	0	0.1	0	0	392	0.2	392	393	17.4	95.9
2025-08-20T00:42	10	0	0.1	0	0	392	0.2	391	392	17.4	95.9
2025-08-20T00:43	10	0	0.1	0	0	392	0.3	391	392	17.3	96.3
2025-08-20T00:44	10	0	0.1	0	0	392	0.3	391	392	17.3	96.2
2025-08-20T00:45	10	0	0.0	0	0	392	0.3	392	393	17.4	95.7
2025-08-20T00:46	10	0	0.1	0	0	392	0.2	392	393	17.4	95.6
2025-08-20T00:47	10	0	0.1	0	0	393	0.3	392	394	17.5	95.3
2025-08-20T00:48	10	0	0.1	0	0	393	0.2	393	394	17.5	95.2
2025-08-20T00:49	10	0	0.1	0	0	393	0.3	393	394	17.5	95.0
2025-08-20T00:50	10	0	0.1	0	0	393	0.2	393	394	17.5	94.9
2025-08-20T00:51	10	0	0.1	0	0	393	0.2	393	394	17.5	94.7
2025-08-20T00:52	10	0	0.1	0	0	394	0.2	393	394	17.5	94.8
2025-08-20T00:53	10	0	0.1	0	0	394	0.2	393	394	17.5	94.7
2025-08-20T00:54	10	0	0.1	0	0	394	0.2	393	394	17.5	94.6
2025-08-20T00:55	10	0	0.1	0	0	394	0.2	393	394	17.5	94.8
2025-08-20T00:56	10	0	0.1	0	0	394	0.3	393	394	17.5	94.7
2025-08-20T00:57	10	0	0.1	0	0	393	0.2	393	394	17.4	94.8
2025-08-20T00:58	10	0	0.1	0	0	393	0.2	393	394	17.4	94.7
2025-08-20T00:59	10	0	0.1	0	0	393	0.3	393	394	17.3	95.1
2025-08-20T01:00	10	0	0.1	0	0	393	0.2	393	394	17.3	95.3
2025-08-20T01:01	10	0	0.1	0	0	393	0.2	393	394	17.2	95.6
2025-08-20T01:02	10	0	0.1	0	0	393	0.3	393	394	17.2	95.5
2025-08-20T01:03	10	0	0.1	0	0	393	0.2	393	394	17.2	95.3
2025-08-20T01:04	10	0	0.1	0	0	393	0.2	393	394	17.2	95.3
2025-08-20T01:05	10	0	0.0	0	0	393	0.2	393	394	17.1	95.4
2025-08-20T01:06	10	0	0.1	0	0	393	0.2	392	393	17.0	95.9
2025-08-20T01:07	10	0	0.1	0	0	393	0.2	392	393	17.0	96.3
2025-08-20T01:08	10	0	0.1	0	0	392	0.2	392	393	16.9	96.6
2025-08-20T01:09	10	0	0.1	0	0	392	0.2	392	393	16.9	96.9
2025-08-20T01:10	10	0	0.1	0	0	392	0.3	391	393	17.0	97.0
2025-08-20T01:11	10	0	0.1	0	0	392	0.2	392	393	17.0	97.3
2025-08-20T01:12	10	0	0.1	0	0	392	0.2	392	393	16.9	97.5
2025-08-20T01:13	10	0	0.0	0	0	392	0.2	392	393	16.9	97.7
2025-08-20T01:14	10	0	0.1	0	0	392	0.2	392	392	16.8	97.8
2025-08-20T01:15	10	0	0.1	0	0	392	0.2	392	393	16.8	98.0
2025-08-20T01:16	10	0	0.1	0	0	392	0.2	392	393	16.9	98.0
2025-08-20T01:17	10	0	0.1	0	0	393	0.2	392	393	16.9	97.9
2025-08-20T01:18	10	0	0.1	0	0	393	0.2	392	393	16.9	98.0
2025-08-20T01:19	10	0	0.1	0	0	393	0.2	392	393	16.9	97.9
2025-08-20T01:20	10	0	0.1	0	0	393	0.2	392	393	16.9	97.9
2025-08-20T01:21	10	0	0.1	0	0	393	0.2	392	393	16.9	97.8
2025-08-20T01:22	10	0	0.0	0	0	393	0.2	392	393	16.9	97.8
2025-08-20T01:23	10	0	0.1	0	0	392	0.3	391	393	16.8	97.8
2025-08-20T01:24	10	0	0.1	0	0	392	0.2	391	392	16.8	97.7
2025-08-20T01:25	10	0	0.1	0	0	392	0.2	391	392	16.8	97.5
2025-08-20T01:26	10	0	0.1	0	0	391	0.2	391	392	16.8	97.5
2025-08-20T01:27	10	0	0.1	0	0	391	0.2	391	392	16.9	97.5
2025-08-20T01:28	10	0	0.1	0	1	392	0.3	391	393	16.8	97.5
2025-08-20T01:29	10	0	0.1	0	0	392	0.2	391	392	16.8	97.4
2025-08-20T01:30	10	0	0.1	0	0	392	0.2	391	392	16.8	97.4
2025-08-20T01:31	10	0	0.1	0	0	392	0.2	391	392	16.8	97.7
2025-08-20T01:32	10	0	0.1	0	0	392	0.3	391	393	16.7	97.9
2025-08-20T01:33	10	0	0.1	0	0	392	0.2	392	392	16.7	98.0
2025-08-20T01:34	10	0	0.1	0	0	392	0.2	391	392	16.7	98.2
2025-08-20T01:35	10	0	0.0	0	0	392	0.2	391	392	16.7	98.1
2025-08-20T01:36	10	0	0.1	0	0	391	0.2	391	392	16.7	98.3
2025-08-20T01:37	10	0	0.1	0	0	391	0.3	391	392	16.6	98.4
2025-08-20T01:38	10	0	0.1	0	0	391	0.2	390	391	16.7	98.4
2025-08-20T01:39	10	0	0.1	0	0	391	0.3	390	391	16.7	98.5
2025-08-20T01:40	10	0	0.1	0	0	391	0.2	390	391	16.7	98.5
2025-08-20T01:41	10	0	0.1	0	0	391	0.2	390	391	16.7	98.5
2025-08-20T01:42	10	0	0.1	0	0	391	0.2	390	391	16.7	98.4
2025-08-20T01:43	10	0	0.1	0	0	391	0.2	391	391	16.6	98.5
2025-08-20T01:44	10	0	0.1	0	0	391	0.3	391	392	16.6	98.4
2025-08-20T01:45	10	0	0.1	0	1	391	0.3	391	392	16.7	98.5
2025-08-20T01:46	10	0	0.1	0	1	392	0.2	391	392	16.6	98.5
2025-08-20T01:47	10	0	0.1	0	0	392	0.2	391	392	16.6	98.6
2025-08-20T01:48	10	0	0.1	0	0	392	0.3	391	392	16.6	98.5
2025-08-20T01:49	10	0	0.1	0	0	392	0.3	392	393	16.6	98.5
2025-08-20T01:50	10	0	0.1	0	0	392	0.2	392	393	16.6	98.5
2025-08-20T01:51	10	0	0.1	0	0	392	0.2	392	393	16.6	98.4
2025-08-20T01:52	10	0	0.1	0	0	392	0.2	392	393	16.6	98.3
2025-08-20T01:53	10	0	0.1	0	0	392	0.3	391	393	16.6	98.3
2025-08-20T01:54	10	0	0.1	0	0	392	0.3	391	392	16.6	98.2
2025-08-20T01:55	10	0	0.1	0	0	391	0.3	391	392	16.5	98.2
2025-08-20T01:56	10	0	0.1	0	0	391	0.2	391	391	16.5	98.3
2025-08-20T01:57	10	0	0.1	0	1	391	0.2	390	391	16.5	98.3
2025-08-20T01:58	10	0	0.1	0	0	391	0.2	390	391	16.5	98.4
2025-08-20T01:59	10	0	0.1	0	0	391	0.2	390	391	16.5	98.4
2025-08-20T02:00	10	0	0.1	0	0	391	0.3	390	391	16.5	98.3
2025-08-20T02:01	10	0	0.1	0	0	391	0.2	390	391	16.5	98.3
2025-08-20T02:02	10	0	0.1	0	0	391	0.2	390	391	16.5	98.3
2025-08-20T02:03	10	0	0.1	0	0	390	0.3	390	391	16.5	98.2
2025-08-20T02:04	10	0	0.1	0	0	390	0.3	389	391	16.6	98.2
2025-08-20T02:05	10	0	0.1	0	0	390	0.2	390	391	16.5	98.2
2025-08-20T02:06	10	0	0.1	0	0	390	0.2	390	391	16.5	98.1
2025-08-20T02:07	10	0	0.1	0	0	390	0.3	390	391	16.6	98.1
2025-08-20T02:08	10	0	0.2	0	0	391	0.3	390	391	16.6	97.9
2025-08-20T02:09	10	0	0.2	0	1	390	0.2	390	391	16.5	98.0
2025-08-20T02:10	10	0	0.1	0	1	390	0.2	390	391	16.5	97.9
2025-08-20T02:11	10	0	0.1	0	0	390	0.2	390	391	16.5	97.8
2025-08-20T02:12	10	0	0.1	0	0	390	0.2	390	391	16.6	97.8
2025-08-20T02:13	10	0	0.1	0	0	390	0.3	390	391	16.5	97.8
2025-08-20T02:14	10	0	0.1	0	0	390	0.2	390	391	16.5	97.8
2025-08-20T02:15	10	0	0.1	0	0	390	0.2	390	391	16.5	97.7
2025-08-20T02:16	10	0	0.1	0	0	390	0.3	389	390	16.5	97.8
2025-08-20T02:17	10	0	0.1	0	0	390	0.3	390	391	16.5	97.9
2025-08-20T02:18	10	0	0.1	0	0	390	0.3	389	390	16.5	97.8
2025-08-20T02:19	10	0	0.1	0	0	390	0.3	389	390	16.5	97.9
2025-08-20T02:20	10	0	0.1	0	0	389	0.2	389	390	16.5	97.7
2025-08-20T02:21	10	0	0.2	0	0	389	0.3	389	390	16.5	97.7
2025-08-20T02:22	10	0	0.1	0	0	389	0.2	389	390	16.5	97.8
2025-08-20T02:23	10	0	0.1	0	0	389	0.3	388	389	16.5	97.8
2025-08-20T02:24	10	0	0.1	0	0	389	0.2	388	389	16.5	97.8
2025-08-20T02:25	10	0	0.1	0	0	389	0.3	388	389	16.5	97.7
2025-08-20T02:26	10	0	0.1	0	0	389	0.2	388	389	16.5	97.7
2025-08-20T02:27	10	0	0.1	0	0	389	0.2	389	390	16.5	97.6
2025-08-20T02:28	10	0	0.2	0	1	389	0.3	389	390	16.5	97.7
2025-08-20T02:29	10	0	0.2	0	1	389	0.2	389	390	16.5	97.8
2025-08-20T02:30	10	0	0.2	0	1	389	0.3	388	390	16.5	97.9
2025-08-20T02:31	10	0	0.1	0	0	390	0.3	389	390	16.5	97.9
2025-08-20T02:32	10	0	0.1	0	0	390	0.3	389	390	16.5	97.9
2025-08-20T02:33	10	0	0.2	0	1	390	0.2	389	391	16.5	97.9
2025-08-20T02:34	10	0	0.1	0	0	390	0.2	389	390	16.5	97.9
2025-08-20T02:35	10	0	0.1	0	0	390	0.2	390	391	16.4	98.0
2025-08-20T02:36	10	0	0.1	0	0	390	0.3	389	391	16.4	98.1
2025-08-20T02:37	10	0	0.1	0	0	389	0.3	389	390	16.4	98.1
2025-08-20T02:38	10	0	0.1	0	0	389	0.4	388	390	16.3	98.2
2025-08-20T02:39	10	0	0.1	0	0	389	0.2	388	389	16.3	98.3
2025-08-20T02:40	10	0	0.1	0	0	388	0.3	388	389	16.3	98.3
2025-08-20T02:41	10	0	0.1	0	0	388	0.2	388	388	16.3	98.4
2025-08-20T02:42	10	0	0.2	0	1	388	0.2	387	388	16.2	98.5
2025-08-20T02:43	10	0	0.1	0	0	388	0.3	387	388	16.2	98.5
2025-08-20T02:44	10	0	0.1	0	0	388	0.2	387	388	16.3	98.4
2025-08-20T02:45	10	0	0.1	0	0	388	0.2	387	388	16.3	98.4
2025-08-20T02:46	10	0	0.1	0	0	388	0.2	387	388	16.3	98.3
2025-08-20T02:47	10	0	0.2	0	1	388	0.2	388	389	16.2	98.4
2025-08-20T02:48	10	0	0.1	0	0	388	0.2	387	388	16.2	98.4
2025-08-20T02:49	10	0	0.1	0	0	387	0.2	387	388	16.2	98.3
2025-08-20T02:50	10	0	0.1	0	1	387	0.2	386	388	16.2	98.2
2025-08-20T02:51	10	0	0.1	0	0	387	0.2	386	387	16.3	97.9
2025-08-20T02:52	10	0	0.1	0	0	386	0.2	386	387	16.3	97.7
2025-08-20T02:53	10	0	0.1	0	0	387	0.3	386	388	16.3	97.5
2025-08-20T02:54	10	0	0.2	0	1	386	0.2	386	387	16.4	97.2
2025-08-20T02:55	10	0	0.1	0	1	386	0.2	386	387	16.4	97.2
2025-08-20T02:56	10	0	0.1	0	0	386	0.3	386	387	16.4	97.0
2025-08-20T02:57	10	0	0.1	0	0	386	0.2	386	387	16.4	96.8
2025-08-20T02:58	10	0	0.1	0	0	386	0.2	386	387	16.4	96.7
2025-08-20T02:59	10	0	0.1	0	0	386	0.2	386	387	16.4	96.5
2025-08-20T03:00	10	0	0.1	0	0	387	0.3	386	387	16.4	96.5
2025-08-20T03:01	10	0	0.1	0	0	387	0.3	387	388	16.4	96.4
2025-08-20T03:02	10	0	0.1	0	0	387	0.2	387	388	16.3	96.5
2025-08-20T03:03	10	0	0.1	0	0	387	0.2	387	388	16.3	96.7
2025-08-20T03:04	10	0	0.1	0	0	387	0.3	387	388	16.2	96.9
2025-08-20T03:05	10	0	0.1	0	0	387	0.2	387	388	16.2	97.0
2025-08-20T03:06	10	0	0.1	0	0	388	0.2	387	388	16.2	97.0
2025-08-20T03:07	10	0	0.1	0	0	388	0.2	387	388	16.2	96.9
2025-08-20T03:08	10	0	0.1	0	0	388	0.2	387	388	16.2	97.0
2025-08-20T03:09	10	0	0.1	0	0	388	0.3	387	388	16.2	97.1
2025-08-20T03:10	10	0	0.1	0	0	387	0.3	387	388	16.2	97.3
2025-08-20T03:11	10	0	0.1	0	0	387	0.2	386	387	16.1	97.6
2025-08-20T03:12	10	0	0.1	0	0	386	0.4	385	387	16.0	97.8
2025-08-20T03:13	10	0	0.1	0	0	385	0.2	385	386	15.9	98.1
2025-08-20T03:14	10	0	0.0	0	0	385	0.3	384	385	15.9	98.0
2025-08-20T03:15	10	0	0.1	0	0	384	0.3	383	385	15.9	98.1
2025-08-20T03:16	10	0	0.0	0	0	384	0.3	383	384	15.9	98.1
2025-08-20T03:17	10	0	0.1	0	0	384	0.3	384	385	15.9	98.1
2025-08-20T03:18	10	0	0.0	0	0	384	0.2	384	385	15.9	98.3
2025-08-20T03:19	10	0	0.0	0	0	385	0.3	384	385	15.9	98.2
2025-08-20T03:20	10	0	0.1	0	0	386	0.3	385	386	15.9	98.1
2025-08-20T03:21	10	0	0.0	0	0	386	0.2	385	387	15.9	97.8
2025-08-20T03:22	10	0	0.1	0	0	386	0.2	386	387	15.9	97.8
2025-08-20T03:23	10	0	0.0	0	0	386	0.2	386	387	15.9	97.7
2025-08-20T03:24	10	0	0.1	0	0	386	0.2	386	387	15.9	97.8
2025-08-20T03:25	10	0	0.0	0	0	386	0.2	385	386	15.9	97.9
2025-08-20T03:26	10	0	0.1	0	0	386	0.2	385	386	15.9	98.0
2025-08-20T03:27	10	0	0.1	0	0	385	0.2	385	386	15.9	97.9
2025-08-20T03:28	10	0	0.1	0	0	385	0.2	385	385	15.9	98.0
2025-08-20T03:29	10	0	0.1	0	0	385	0.2	384	385	15.9	98.0
2025-08-20T03:30	10	0	0.1	0	0	385	0.2	384	385	15.9	98.1
2025-08-20T03:31	10	0	0.1	0	0	384	0.2	384	385	15.8	98.2
2025-08-20T03:32	10	0	0.0	0	0	384	0.2	384	385	15.8	98.2
2025-08-20T03:33	10	0	0.1	0	0	384	0.2	384	385	15.8	98.3
2025-08-20T03:34	10	0	0.0	0	0	384	0.3	384	385	15.8	98.5
2025-08-20T03:35	10	0	0.0	0	0	385	0.2	384	385	15.8	98.4
2025-08-20T03:36	10	0	0.0	0	0	385	0.2	384	385	15.8	98.5
2025-08-20T03:37	10	0	0.0	0	0	385	0.2	384	385	15.8	98.4
2025-08-20T03:38	10	0	0.0	0	0	385	0.3	384	385	15.8	98.4
2025-08-20T03:39	10	0	0.1	0	0	385	0.2	385	386	15.8	98.4
2025-08-20T03:40	10	0	0.0	0	0	385	0.3	385	386	15.8	98.3
2025-08-20T03:41	10	0	0.1	0	0	386	0.2	385	386	15.8	98.2
2025-08-20T03:42	10	0	0.1	0	0	386	0.2	386	387	15.9	98.0
2025-08-20T03:43	10	0	0.1	0	0	386	0.2	386	387	15.8	98.1
2025-08-20T03:44	10	0	0.1	0	0	386	0.2	386	387	15.8	98.0
2025-08-20T03:45	10	0	0.1	0	0	387	0.3	386	387	15.7	98.0
2025-08-20T03:46	10	0	0.1	0	0	387	0.2	387	388	15.8	98.0
2025-08-20T03:47	10	0	0.1	0	0	387	0.3	387	388	15.9	97.8
2025-08-20T03:48	10	0	0.1	0	0	387	0.2	387	388	16.0	97.6
2025-08-20T03:49	10	0	0.1	0	0	388	0.3	387	389	16.0	97.4
2025-08-20T03:50	10	0	0.1	0	0	388	0.2	388	388	16.0	97.3
2025-08-20T03:51	10	0	0.1	0	0	388	0.2	388	389	16.0	97.2
2025-08-20T03:52	10	0	0.1	0	0	388	0.3	387	388	16.1	97.1
2025-08-20T03:53	10	0	0.1	0	0	388	0.3	387	389	16.1	97.1
2025-08-20T03:54	10	0	0.1	0	0	388	0.3	388	389	16.1	97.0
2025-08-20T03:55	10	0	0.1	0	0	388	0.3	387	388	16.1	97.0
2025-08-20T03:56	10	0	0.1	0	0	387	0.3	387	388	16.1	96.9
2025-08-20T03:57	10	0	0.1	0	0	388	0.3	387	388	16.1	96.9
2025-08-20T03:58	10	0	0.1	0	0	388	0.2	387	388	16.1	96.9
2025-08-20T03:59	10	0	0.1	0	0	388	0.2	387	388	16.0	97.0
2025-08-20T04:00	10	0	0.1	0	0	388	0.2	388	388	16.1	97.0
2025-08-20T04:01	10	0	0.1	0	0	388	0.3	387	389	16.0	97.1
2025-08-20T04:02	10	0	0.1	0	0	388	0.3	388	389	16.0	97.1
2025-08-20T04:03	10	0	0.1	0	0	388	0.2	387	388	16.0	97.2
2025-08-20T04:04	10	0	0.1	0	0	388	0.2	387	388	16.0	97.1
2025-08-20T04:05	10	0	0.1	0	0	387	0.3	387	388	16.0	97.0
2025-08-20T04:06	10	0	0.1	0	0	387	0.3	386	388	16.0	97.1
2025-08-20T04:07	10	0	0.1	0	0	387	0.2	386	387	16.0	97.1
2025-08-20T04:08	10	0	0.1	0	0	387	0.2	386	387	16.0	97.0
2025-08-20T04:09	10	0	0.1	0	0	387	0.2	386	387	16.0	96.9
2025-08-20T04:10	10	0	0.0	0	0	387	0.3	386	387	16.0	96.8
2025-08-20T04:11	10	0	0.1	0	0	387	0.2	386	388	16.0	96.8
2025-08-20T04:12	10	0	0.1	0	0	387	0.2	386	387	16.0	96.8
2025-08-20T04:13	10	0	0.1	0	0	387	0.3	386	387	16.0	96.9
2025-08-20T04:14	10	0	0.1	0	0	387	0.3	386	387	16.0	96.9
2025-08-20T04:15	10	0	0.1	0	0	386	0.3	386	387	16.0	97.1
2025-08-20T04:16	10	0	0.1	0	0	386	0.2	386	387	16.0	97.1
2025-08-20T04:17	10	0	0.1	0	0	386	0.4	385	386	16.0	97.1
2025-08-20T04:18	10	0	0.1	0	0	385	0.3	385	386	15.9	97.2
2025-08-20T04:19	10	0	0.1	0	0	385	0.2	384	385	15.9	97.2
2025-08-20T04:20	10	0	0.1	0	0	385	0.2	384	385	16.0	97.1
2025-08-20T04:21	10	0	0.1	0	0	384	0.2	384	385	15.9	97.2
2025-08-20T04:22	10	0	0.1	0	0	384	0.2	384	384	15.9	97.3
2025-08-20T04:23	10	0	0.1	0	0	384	0.3	384	385	15.9	97.3
2025-08-20T04:24	10	0	0.1	0	0	384	0.2	383	384	15.9	97.6
2025-08-20T04:25	10	0	0.1	0	0	383	0.2	383	384	15.9	97.6
2025-08-20T04:26	10	0	0.1	0	0	383	0.2	383	384	15.9	97.7
2025-08-20T04:27	10	0	0.1	0	0	383	0.2	383	384	15.9	97.7
2025-08-20T04:28	10	0	0.1	0	0	383	0.2	382	383	15.8	97.7
2025-08-20T04:29	10	0	0.1	0	0	383	0.4	383	384	15.8	97.6
2025-08-20T04:30	10	0	0.1	0	0	384	0.2	383	384	15.8	97.7
2025-08-20T04:31	10	0	0.1	0	0	384	0.2	383	384	15.8	97.8
2025-08-20T04:32	10	0	0.1	0	0	383	0.2	383	384	15.8	97.7
2025-08-20T04:33	10	0	0.1	0	0	384	0.4	383	384	15.8	97.8
2025-08-20T04:34	10	0	0.1	0	0	384	0.3	383	384	15.7	97.9
2025-08-20T04:35	10	0	0.1	0	0	384	0.2	383	384	15.7	97.9
2025-08-20T04:36	10	0	0.1	0	0	384	0.3	383	384	15.7	97.9
2025-08-20T04:37	10	0	0.1	0	1	384	0.3	383	384	15.7	98.0
2025-08-20T04:38	10	0	0.1	0	1	384	0.2	383	384	15.7	98.0
2025-08-20T04:39	10	0	0.1	0	1	384	0.3	383	385	15.7	98.0
2025-08-20T04:40	10	0	0.1	0	1	384	0.2	383	384	15.7	98.0
2025-08-20T04:41	10	1	0.1	0	1	384	0.2	383	384	15.7	98.1
2025-08-20T04:42	10	1	0.1	0	1	383	0.2	382	383	15.7	98.1
2025-08-20T04:43	10	1	0.1	0	1	382	0.2	382	383	15.7	98.1
2025-08-20T04:44	10	1	0.1	0	1	382	0.2	382	382	15.7	98.1
2025-08-20T04:45	10	1	0.1	1	1	382	0.2	381	382	15.7	98.1
2025-08-20T04:46	10	1	0.1	1	1	382	0.2	382	382	15.7	97.9
2025-08-20T04:47	10	1	0.1	1	1	382	0.2	381	382	15.7	97.9
2025-08-20T04:48	10	1	0.1	1	1	382	0.2	381	382	15.7	97.9
2025-08-20T04:49	10	1	0.1	1	2	382	0.2	381	382	15.7	98.0
2025-08-20T04:50	10	1	0.1	1	2	382	0.2	382	383	15.7	98.0
2025-08-20T04:51	10	2	0.1	1	2	382	0.3	381	383	15.7	98.0
2025-08-20T04:52	10	2	0.1	2	2	382	0.3	382	383	15.6	98.2
2025-08-20T04:53	10	2	0.1	2	2	382	0.2	382	383	15.6	98.3
2025-08-20T04:54	10	2	0.1	2	2	382	0.2	382	383	15.6	98.4
2025-08-20T04:55	10	2	0.1	2	2	382	0.2	381	383	15.6	98.5
2025-08-20T04:56	10	2	0.1	2	3	382	0.2	382	383	15.6	98.5
2025-08-20T04:57	10	3	0.1	2	3	383	0.2	382	383	15.6	98.5
2025-08-20T04:58	10	3	0.1	2	3	383	0.3	382	384	15.6	98.5
2025-08-20T04:59	10	3	0.1	3	3	383	0.3	383	384	15.6	98.5
2025-08-20T05:00	10	3	0.1	3	3	384	0.2	384	384	15.6	98.6
2025-08-20T05:01	10	3	0.1	3	4	385	0.3	384	385	15.6	98.7
2025-08-20T05:02	10	3	0.1	3	3	385	0.2	384	385	15.6	98.7
2025-08-20T05:03	10	3	0.1	3	4	385	0.2	384	386	15.7	98.4
2025-08-20T05:04	10	4	0.1	3	4	385	0.3	385	386	15.7	98.3
2025-08-20T05:05	10	4	0.1	4	4	385	0.2	385	386	15.7	98.2
2025-08-20T05:06	10	4	0.1	4	4	385	0.2	385	386	15.6	98.1
2025-08-20T05:07	10	4	0.1	4	4	385	0.3	385	386	15.6	98.1
2025-08-20T05:08	10	4	0.1	4	4	386	0.2	386	386	15.7	97.9
2025-08-20T05:09	10	4	0.1	4	5	386	0.3	386	387	15.6	97.9
2025-08-20T05:10	10	5	0.1	4	5	387	0.3	386	387	15.7	97.8
2025-08-20T05:11	10	5	0.1	5	5	387	0.2	386	387	15.7	97.7
2025-08-20T05:12	10	5	0.1	5	5	387	0.3	386	387	15.7	97.6
2025-08-20T05:13	10	5	0.1	5	5	387	0.3	386	388	15.8	97.5
2025-08-20T05:14	10	5	0.1	5	6	387	0.3	387	388	15.8	97.4
2025-08-20T05:15	10	6	0.1	5	6	387	0.2	387	388	15.8	97.4
2025-08-20T05:16	10	6	0.1	5	6	388	0.2	387	388	15.8	97.3
2025-08-20T05:17	10	6	0.1	6	6	388	0.2	388	389	15.9	97.2
2025-08-20T05:18	10	6	0.1	6	6	388	0.2	388	389	15.9	96.9
2025-08-20T05:19	10	6	0.1	6	7	389	0.3	388	389	16.0	96.8
2025-08-20T05:20	10	6	0.1	6	7	389	0.2	388	389	16.0	96.6
2025-08-20T05:21	10	7	0.1	7	7	389	0.2	388	390	16.0	96.6
2025-08-20T05:22	10	7	0.1	7	7	389	0.3	389	390	16.0	96.3
2025-08-20T05:23	10	7	0.1	7	7	390	0.2	389	390	16.0	96.3
2025-08-20T05:24	10	7	0.1	7	7	390	0.2	389	390	16.0	96.4
2025-08-20T05:25	10	7	0.1	7	8	390	0.2	389	390	16.0	96.3
2025-08-20T05:26	10	8	0.1	7	8	390	0.2	389	390	16.0	96.4
2025-08-20T05:27	10	8	0.1	7	8	390	0.3	389	391	15.9	96.5
2025-08-20T05:28	10	8	0.1	8	8	390	0.3	390	391	16.0	96.3
2025-08-20T05:29	10	8	0.1	7	8	391	0.3	390	391	16.0	96.5
2025-08-20T05:30	10	8	0.1	8	8	391	0.3	390	392	16.0	96.4
2025-08-20T05:31	10	8	0.1	8	8	391	0.2	391	392	16.0	96.1
2025-08-20T05:32	10	8	0.1	8	8	391	0.2	391	392	16.1	95.8
2025-08-20T05:33	10	8	0.1	8	8	392	0.2	391	392	16.1	96.0
2025-08-20T05:34	10	8	0.1	8	8	392	0.3	391	393	16.1	95.9
2025-08-20T05:35	10	8	0.1	8	8	393	0.3	392	393	16.1	95.8
2025-08-20T05:36	10	8	0.1	7	8	393	0.2	393	394	16.2	95.6
2025-08-20T05:37	10	7	0.1	7	8	394	0.2	393	394	16.2	95.4
2025-08-20T05:38	10	7	0.1	7	8	394	0.2	393	394	16.2	95.3
2025-08-20T05:39	10	8	0.1	7	8	394	0.2	394	395	16.2	95.5
2025-08-20T05:40	10	8	0.1	7	8	395	0.2	394	395	16.2	95.5
2025-08-20T05:41	10	8	0.1	7	8	395	0.2	394	395	16.2	95.4
2025-08-20T05:42	10	8	0.1	7	8	395	0.2	394	395	16.2	95.5
2025-08-20T05:43	10	8	0.1	7	8	395	0.2	395	395	16.2	95.5
2025-08-20T05:44	10	8	0.1	8	8	395	0.2	394	395	16.2	95.3
2025-08-20T05:45	10	8	0.1	8	8	395	0.2	395	396	16.3	95.1
2025-08-20T05:46	10	9	0.2	8	9	395	0.3	395	396	16.3	95.0
2025-08-20T05:47	10	9	0.2	9	10	395	0.2	395	396	16.4	94.8
2025-08-20T05:48	10	10	0.2	9	10	396	0.2	395	396	16.4	94.9
2025-08-20T05:49	10	10	0.2	10	11	396	0.3	395	396	16.4	94.8
2025-08-20T05:50	10	11	0.2	10	11	396	0.2	395	396	16.4	95.1
2025-08-20T05:51	10	11	0.2	11	12	396	0.3	395	396	16.4	95.2
2025-08-20T05:52	10	12	0.2	12	12	396	0.2	395	396	16.4	95.1
2025-08-20T05:53	10	13	0.2	12	13	396	0.2	395	396	16.4	95.3
2025-08-20T05:54	10	13	0.2	13	14	396	0.2	395	396	16.4	95.4
2025-08-20T05:55	10	14	0.3	14	14	396	0.3	395	397	16.4	95.4
2025-08-20T05:56	10	15	0.2	14	15	396	0.2	396	397	16.4	95.6
2025-08-20T05:57	10	16	0.2	15	16	397	0.3	396	397	16.4	95.6
2025-08-20T05:58	10	16	0.2	16	16	397	0.2	397	398	16.4	95.6
2025-08-20T05:59	10	17	0.1	16	17	398	0.2	397	398	16.4	95.5
2025-08-20T06:00	10	17	0.1	17	17	398	0.2	398	399	16.4	95.6
2025-08-20T06:01	10	17	0.1	17	17	399	0.3	398	399	16.5	95.4
2025-08-20T06:02	10	17	0.1	17	17	399	0.2	399	400	16.6	94.7
2025-08-20T06:03	10	17	0.2	17	18	399	0.3	399	400	16.7	94.3
2025-08-20T06:04	10	18	0.4	18	19	400	0.3	399	400	16.8	93.4
2025-08-20T06:05	10	19	0.2	19	20	400	0.2	400	401	16.9	93.6
2025-08-20T06:06	10	20	0.2	19	20	401	0.3	400	402	16.9	93.5
2025-08-20T06:07	10	20	0.1	20	21	401	0.2	401	402	17.0	92.9
2025-08-20T06:08	10	20	0.1	20	21	402	0.2	402	403	17.1	92.4
2025-08-20T06:09	10	20	0.1	20	20	403	0.4	402	404	17.2	92.5
2025-08-20T06:10	10	20	0.1	20	20	404	0.3	403	404	17.3	92.1
2025-08-20T06:11	10	20	0.1	20	20	403	0.2	403	404	17.4	90.9
2025-08-20T06:12	10	20	0.1	19	20	403	0.2	403	404	17.4	90.8
2025-08-20T06:13	10	19	0.3	18	19	404	0.3	403	405	17.5	91.3
2025-08-20T06:14	10	18	0.3	18	18	404	0.2	403	405	17.6	90.3
2025-08-20T06:15	10	19	0.6	18	19	404	0.2	403	405	17.6	89.7
2025-08-20T06:16	10	16	1.2	14	18	405	0.2	404	405	17.7	90.2
2025-08-20T06:17	10	14	0.4	13	14	404	0.2	404	405	17.7	90.4
2025-08-20T06:18	10	12	0.4	12	13	404	0.2	404	405	17.7	90.5
2025-08-20T06:19	10	11	0.4	10	12	405	0.3	404	405	17.7	90.3
2025-08-20T06:20	10	10	0.3	9	10	404	0.2	404	405	17.8	89.8
2025-08-20T06:21	10	9	0.2	9	10	404	0.2	404	405	17.9	89.4
2025-08-20T06:22	10	9	0.1	9	9	404	0.2	404	405	17.9	89.1
2025-08-20T06:23	10	9	0.1	9	9	405	0.2	404	405	18.0	89.1
2025-08-20T06:24	10	9	0.5	9	12	405	0.2	404	405	18.0	89.6
2025-08-20T06:25	10	9	0.1	9	9	405	0.2	404	405	18.0	89.4
2025-08-20T06:26	10	9	0.1	9	9	405	0.2	405	406	18.0	89.3
2025-08-20T06:27	10	9	0.1	9	9	405	0.2	405	406	18.0	89.7
2025-08-20T06:28	10	9	0.1	9	9	406	0.2	405	406	18.1	89.5
2025-08-20T06:29	10	9	0.1	9	9	406	0.2	405	406	18.1	89.8
2025-08-20T06:30	10	9	0.1	9	9	406	0.3	405	406	18.1	89.8
2025-08-20T06:31	10	9	0.1	9	9	405	0.2	405	406	18.1	89.9
2025-08-20T06:32	10	9	0.1	9	9	405	0.3	404	405	18.0	91.5
2025-08-20T06:33	10	9	0.1	9	9	404	0.3	404	405	17.9	92.2
2025-08-20T06:34	10	9	0.1	9	9	404	0.2	404	405	17.8	93.2
2025-08-20T06:35	10	9	0.1	9	10	404	0.2	404	405	17.8	93.3
2025-08-20T06:36	10	9	0.2	9	10	404	0.4	403	405	17.7	93.5
2025-08-20T06:37	10	9	0.2	9	10	404	0.4	403	405	17.6	93.2
2025-08-20T06:38	10	9	0.1	9	9	403	0.2	403	404	17.5	93.6
2025-08-20T06:39	10	9	0.1	8	9	404	0.4	403	404	17.5	93.4
2025-08-20T06:40	10	9	0.1	8	9	404	0.2	403	404	17.6	92.6
2025-08-20T06:41	10	8	0.1	8	9	403	0.3	403	404	17.6	93.0
2025-08-20T06:42	10	8	0.2	8	9	403	0.3	402	403	17.5	93.8
2025-08-20T06:43	10	8	0.1	8	9	403	0.2	402	403	17.4	94.3
2025-08-20T06:44	10	8	0.2	8	9	403	0.2	403	404	17.4	93.9
2025-08-20T06:45	10	8	0.2	8	9	403	0.3	402	404	17.4	94.6
2025-08-20T06:46	10	8	0.2	8	9	403	0.3	402	403	17.3	94.7
2025-08-20T06:47	10	8	0.2	8	9	403	0.3	402	404	17.3	94.4
2025-08-20T06:48	10	8	0.2	8	9	403	0.3	402	404	17.4	94.3
2025-08-20T06:49	10	9	0.3	8	9	403	0.2	402	403	17.4	94.6
2025-08-20T06:50	10	9	0.2	9	10	403	0.3	402	403	17.3	94.9
2025-08-20T06:51	10	9	0.2	9	10	403	0.3	402	403	17.3	94.6
2025-08-20T06:52	10	10	0.2	10	11	403	0.4	402	403	17.3	94.9
2025-08-20T06:53	10	10	0.2	10	11	403	0.2	403	403	17.3	95.3
2025-08-20T06:54	10	11	0.1	10	11	403	0.3	403	404	17.2	95.1
2025-08-20T06:55	10	11	0.1	10	11	403	0.2	403	404	17.2	94.7
2025-08-20T06:56	10	10	0.2	10	11	403	0.3	403	404	17.2	94.8
2025-08-20T06:57	10	10	0.2	9	10	403	0.3	402	404	17.2	95.1
2025-08-20T06:58	10	9	0.2	9	10	403	0.2	403	403	17.2	95.3
2025-08-20T06:59	10	9	0.2	8	9	403	0.2	403	404	17.2	95.6
2025-08-20T07:00	10	8	0.2	8	9	403	0.1	402	403	17.2	95.6
2025-08-20T07:01	10	8	0.2	7	8	403	0.5	402	404	17.2	95.6
2025-08-20T07:02	10	7	0.2	7	8	402	0.2	401	402	17.2	95.0
2025-08-20T07:03	10	7	0.1	7	7	402	0.2	401	402	17.1	95.2
2025-08-20T07:04	10	7	0.1	7	7	401	0.3	400	402	17.1	95.5
2025-08-20T07:05	10	6	0.1	6	7	401	0.2	400	401	17.1	95.8
2025-08-20T07:06	10	6	0.1	6	7	401	0.2	401	401	17.1	96.0
2025-08-20T07:07	10	6	0.1	6	6	401	0.2	400	401	17.0	96.0
2025-08-20T07:08	10	6	0.1	6	6	400	0.3	400	401	17.0	95.5
2025-08-20T07:09	10	6	0.1	6	6	400	0.2	400	401	17.0	95.5
2025-08-20T07:10	10	6	0.1	6	6	400	0.3	400	401	17.0	95.7
2025-08-20T07:11	10	6	0.1	6	6	400	0.2	400	401	17.0	95.4
2025-08-20T07:12	10	6	0.1	6	6	401	0.2	400	401	17.0	95.5
2025-08-20T07:13	10	6	0.1	6	7	400	0.2	400	401	17.0	95.2
2025-08-20T07:14	10	7	0.1	6	7	400	0.2	400	401	17.0	95.2
2025-08-20T07:15	10	7	0.1	7	7	400	0.2	400	401	17.0	94.8
2025-08-20T07:16	10	7	0.1	7	7	401	0.3	400	401	17.1	94.6
2025-08-20T07:17	10	7	0.1	7	7	400	0.2	400	401	17.1	94.3
2025-08-20T07:18	10	7	0.1	7	8	400	0.2	400	401	17.1	93.8
2025-08-20T07:19	10	8	0.1	7	8	401	0.2	400	401	17.1	94.2
2025-08-20T07:20	10	8	0.2	8	8	401	0.2	400	401	17.1	94.2
2025-08-20T07:21	10	9	0.2	8	9	401	0.2	401	401	17.1	93.8
2025-08-20T07:22	10	9	0.2	9	10	401	0.4	400	402	17.1	93.2
2025-08-20T07:23	10	10	0.3	10	11	401	0.2	401	402	17.1	93.7
2025-08-20T07:24	10	11	0.3	10	12	402	0.2	401	402	17.2	93.8
2025-08-20T07:25	10	12	0.3	12	13	402	0.3	402	403	17.1	93.6
2025-08-20T07:26	10	13	0.4	13	14	402	0.2	402	403	17.1	93.6
2025-08-20T07:27	10	15	0.4	14	15	402	0.3	402	403	17.2	93.6
2025-08-20T07:28	10	16	0.4	15	16	403	0.2	403	403	17.2	93.4
2025-08-20T07:29	10	17	0.4	17	18	403	0.2	403	404	17.1	93.1
2025-08-20T07:30	10	18	0.3	18	19	404	0.3	403	404	17.1	92.9
2025-08-20T07:31	10	19	0.3	19	20	404	0.3	404	405	17.1	92.8
2025-08-20T07:32	10	20	0.3	20	21	405	0.3	405	406	17.2	93.2
2025-08-20T07:33	10	21	0.2	21	22	405	0.5	404	406	17.2	92.3
2025-08-20T07:34	10	22	0.3	22	23	405	0.4	404	406	17.2	91.9
2025-08-20T07:35	10	23	0.3	23	24	406	0.4	405	407	17.3	92.0
2025-08-20T07:36	10	24	0.2	23	24	407	0.4	406	408	17.3	92.2
2025-08-20T07:37	10	24	0.1	24	24	408	0.3	407	408	17.4	93.0
2025-08-20T07:38	10	24	0.1	24	25	407	0.3	407	408	17.4	92.4
2025-08-20T07:39	10	24	0.1	24	24	407	0.3	407	408	17.3	92.3
2025-08-20T07:40	10	24	0.1	24	24	408	0.2	407	408	17.4	92.8
2025-08-20T07:41	10	24	0.1	24	24	407	0.5	407	409	17.4	92.1
2025-08-20T07:42	10	24	0.1	24	24	407	0.2	407	408	17.3	91.8
2025-08-20T07:43	10	24	0.2	24	25	408	0.3	407	409	17.4	91.9
2025-08-20T07:44	10	25	0.2	25	26	408	0.2	408	409	17.4	92.1
2025-08-20T07:45	10	26	0.2	26	26	409	0.4	408	410	17.4	92.3
2025-08-20T07:46	10	27	0.3	26	27	410	0.3	409	410	17.5	92.7
2025-08-20T07:47	10	28	0.4	27	29	410	0.3	409	410	17.5	92.1
2025-08-20T07:48	10	29	0.5	29	30	410	0.4	409	411	17.5	91.6
2025-08-20T07:49	10	32	0.7	30	33	411	0.3	410	411	17.5	91.4
2025-08-20T07:50	10	34	0.9	33	36	412	0.4	411	413	17.6	91.6
2025-08-20T07:51	10	37	0.8	36	39	413	0.5	412	414	17.6	91.4
2025-08-20T07:52	10	39	0.4	39	40	414	0.2	413	414	17.6	91.2
2025-08-20T07:53	10	40	0.2	40	41	414	0.3	413	414	17.6	90.2
2025-08-20T07:54	10	41	0.1	40	41	414	0.3	413	414	17.6	90.3
2025-08-20T07:55	10	40	0.1	40	41	414	0.3	414	415	17.6	90.7
2025-08-20T07:56	10	40	0.1	40	40	414	0.3	414	415	17.7	90.5
2025-08-20T07:57	10	40	0.1	40	40	415	0.2	415	416	17.8	89.9
2025-08-20T07:58	10	40	0.1	40	41	416	0.3	415	417	17.8	89.9
2025-08-20T07:59	10	41	0.1	41	41	415	0.3	415	416	17.8	88.0
2025-08-20T08:00	10	41	0.1	41	41	415	0.5	414	416	17.9	86.9
2025-08-20T08:01	10	40	0.1	40	41	415	0.6	414	416	17.9	87.1
2025-08-20T08:02	10	40	0.1	40	40	416	0.4	415	417	18.0	87.5
2025-08-20T08:03	10	40	0.1	40	40	415	0.5	415	416	17.9	86.3
2025-08-20T08:04	10	40	0.1	40	40	417	0.3	416	417	18.0	87.0
2025-08-20T08:05	10	39	0.1	39	40	417	0.2	416	417	18.0	87.4
2025-08-20T08:06	10	39	0.2	39	39	417	0.3	417	418	18.1	86.6
2025-08-20T08:07	10	38	0.2	38	39	417	0.5	416	418	18.1	86.6
2025-08-20T08:08	10	37	0.3	37	38	417	0.4	416	418	18.1	86.6
2025-08-20T08:09	10	37	0.2	36	37	417	0.3	417	418	18.2	86.8
2025-08-20T08:10	10	36	0.1	36	36	417	0.3	417	418	18.2	87.4
2025-08-20T08:11	10	36	0.1	36	36	417	0.4	417	418	18.3	87.0
2025-08-20T08:12	10	36	0.1	36	36	418	0.5	417	419	18.2	86.6
2025-08-20T08:13	10	36	0.1	36	36	418	0.5	417	419	18.2	86.4
2025-08-20T08:14	10	36	0.1	36	36	418	0.2	418	419	18.2	85.5
2025-08-20T08:15	10	36	0.1	36	37	419	0.3	418	420	18.2	84.9
2025-08-20T08:16	10	37	0.1	36	37	419	0.3	419	420	18.3	86.2
2025-08-20T08:17	10	37	0.1	37	37	419	0.2	419	420	18.3	85.8
2025-08-20T08:18	10	37	0.1	37	37	419	0.4	418	419	18.3	85.0
2025-08-20T08:19	10	37	0.2	36	37	418	0.4	418	419	18.3	84.3
2025-08-20T08:20	10	36	0.3	35	36	418	0.3	417	419	18.3	85.1
2025-08-20T08:21	10	35	0.3	34	36	418	0.2	418	419	18.3	84.3
2025-08-20T08:22	10	34	0.3	34	35	418	0.3	417	419	18.3	83.9
2025-08-20T08:23	10	34	0.2	33	34	416	0.5	416	418	18.3	82.7
2025-08-20T08:24	10	33	0.1	33	34	416	0.4	416	417	18.3	83.6
2025-08-20T08:25	10	33	0.1	33	34	416	0.5	415	417	18.4	82.5
2025-08-20T08:26	10	34	0.3	34	35	416	0.3	415	417	18.3	82.2
2025-08-20T08:27	10	35	0.4	34	36	416	0.3	415	417	18.3	80.4
2025-08-20T08:28	10	36	0.3	36	37	417	0.3	416	417	18.3	80.9
2025-08-20T08:29	10	37	0.2	37	37	418	0.4	417	418	18.4	81.8
2025-08-20T08:30	10	37	0.1	37	37	419	0.4	418	419	18.5	83.1
2025-08-20T08:31	10	36	0.3	36	37	420	0.4	419	420	18.5	83.5
2025-08-20T08:32	10	36	0.2	35	36	420	0.3	419	421	18.5	83.8
2025-08-20T08:33	10	35	0.1	35	35	420	0.2	420	421	18.6	83.1
2025-08-20T08:34	10	35	0.1	35	35	420	0.4	419	421	18.6	82.6
2025-08-20T08:35	10	35	0.2	35	36	421	0.2	420	421	18.6	83.2
2025-08-20T08:36	10	36	0.3	36	37	421	0.2	420	421	18.6	82.6
2025-08-20T08:37	10	37	0.3	37	38	421	0.3	421	422	18.6	83.3
2025-08-20T08:38	10	38	0.4	38	39	422	0.3	421	423	18.6	82.9
2025-08-20T08:39	10	40	0.6	39	41	422	0.2	422	423	18.7	82.6
2025-08-20T08:40	10	42	0.7	41	44	422	0.3	421	422	18.6	80.3
2025-08-20T08:41	10	45	0.7	44	46	423	0.3	422	423	18.6	81.1
2025-08-20T08:42	10	47	0.5	46	48	423	0.2	423	424	18.6	81.6
2025-08-20T08:43	10	49	0.3	48	49	423	0.3	422	424	18.6	80.0
2025-08-20T08:44	10	49	0.1	49	49	423	0.3	423	424	18.7	80.0
2025-08-20T08:45	10	49	0.1	49	49	424	0.5	423	425	18.7	79.4
2025-08-20T08:46	10	49	0.1	49	50	424	0.3	423	424	18.6	79.1
2025-08-20T08:47	10	50	0.3	49	51	424	0.5	423	425	18.7	79.1
2025-08-20T08:48	10	52	0.6	51	52	424	0.4	423	425	18.7	79.7
2025-08-20T08:49	10	54	0.6	53	54	424	0.3	424	425	18.7	79.2
2025-08-20T08:50	10	55	0.2	54	55	425	0.5	424	426	18.7	79.0
2025-08-20T08:51	10	55	0.1	55	55	426	0.3	425	426	18.8	78.8
2025-08-20T08:52	10	55	0.2	54	55	426	0.3	425	426	18.8	79.4
2025-08-20T08:53	10	54	0.2	54	55	426	0.3	425	426	18.8	78.0
2025-08-20T08:54	10	54	0.3	53	54	426	0.3	425	427	18.9	79.4
2025-08-20T08:55	10	52	0.4	52	53	427	0.3	426	427	19.1	79.2
2025-08-20T08:56	10	51	0.6	49	52	426	1.3	424	428	19.1	78.6
2025-08-20T08:57	10	49	0.6	48	50	424	0.3	424	425	19.0	74.8
2025-08-20T08:58	10	47	0.5	46	48	424	0.4	423	425	19.0	74.8
2025-08-20T08:59	10	46	0.5	45	47	423	0.7	421	424	19.0	71.1
2025-08-20T09:00	10	44	0.3	44	45	422	0.2	421	422	19.0	71.0
2025-08-20T09:01	10	44	0.2	43	45	422	0.2	421	422	19.0	74.8
2025-08-20T09:02	10	43	0.3	43	44	421	0.3	421	422	19.0	74.8
2025-08-20T09:03	10	42	0.3	42	43	422	0.5	421	423	19.0	74.8
2025-08-20T09:04	10	42	0.3	41	42	422	0.4	421	423	19.0	74.9
2025-08-20T09:05	10	40	0.3	40	41	422	0.3	422	423	19.0	76.2
2025-08-20T09:06	10	40	0.2	39	40	422	0.4	421	422	18.9	76.4
2025-08-20T09:07	10	39	0.1	39	40	422	0.5	421	423	19.0	76.9
2025-08-20T09:08	10	39	0.1	39	39	422	0.7	421	424	19.0	76.8
2025-08-20T09:09	10	39	0.2	39	40	423	0.4	422	424	19.1	77.8
2025-08-20T09:10	10	40	0.2	39	40	423	0.4	422	424	19.1	77.3
2025-08-20T09:11	10	40	0.2	40	41	424	0.3	423	424	19.1	76.3
2025-08-20T09:12	10	41	0.3	41	42	424	0.2	423	424	19.2	77.0
2025-08-20T09:13	10	42	0.4	42	43	424	0.5	423	425	19.2	77.4
2025-08-20T09:14	10	44	0.5	43	45	423	0.4	423	425	19.2	75.9
2025-08-20T09:15	10	46	0.6	45	47	424	0.5	423	425	19.1	75.9
2025-08-20T09:16	10	48	0.7	47	49	425	0.3	424	426	19.1	76.0
2025-08-20T09:17	10	50	0.7	49	52	426	0.3	426	427	19.1	77.0
2025-08-20T09:18	10	52	0.6	51	53	427	0.3	427	428	19.2	77.6
2025-08-20T09:19	10	54	0.4	53	55	427	0.2	427	428	19.3	77.6
2025-08-20T09:20	10	55	0.1	54	55	428	0.4	427	429	19.3	76.6
2025-08-20T09:21	10	55	0.1	54	55	429	0.4	428	429	19.2	76.5
2025-08-20T09:22	10	54	0.4	53	54	429	0.7	427	429	19.4	77.5
2025-08-20T09:23	10	52	0.5	51	53	428	0.6	428	430	19.4	77.8
2025-08-20T09:24	10	50	0.6	50	51	429	0.4	428	430	19.5	77.3
2025-08-20T09:25	10	49	0.4	48	50	428	0.8	427	429	19.3	74.8
2025-08-20T09:26	10	48	0.3	47	48	428	0.5	427	429	19.3	76.4
2025-08-20T09:27	10	47	0.1	47	47	428	0.4	428	429	19.5	78.1
2025-08-20T09:28	10	47	0.1	47	47	429	0.4	429	430	19.4	77.2
2025-08-20T09:29	10	48	0.3	47	48	430	0.6	428	431	19.5	78.3
2025-08-20T09:30	10	48	0.3	48	49	429	0.6	428	430	19.4	76.9
2025-08-20T09:31	10	49	0.1	49	49	430	0.3	429	431	19.4	76.9
2025-08-20T09:32	10	49	0.1	49	49	430	0.8	428	431	19.4	76.9
2025-08-20T09:33	10	49	0.1	48	49	428	0.2	428	429	19.3	75.5
2025-08-20T09:34	10	48	0.2	48	49	428	0.4	427	429	19.4	76.4
2025-08-20T09:35	10	47	0.3	46	48	429	0.5	428	430	19.5	77.2
2025-08-20T09:36	10	46	0.4	45	47	428	0.5	427	429	19.4	75.1
2025-08-20T09:37	10	45	0.3	44	45	427	0.3	426	427	19.4	75.0
2025-08-20T09:38	10	44	0.3	43	44	427	0.4	426	428	19.4	75.9
2025-08-20T09:39	10	43	0.2	42	43	427	0.3	426	427	19.4	74.5
2025-08-20T09:40	10	42	0.2	42	43	427	0.6	426	428	19.4	75.5
2025-08-20T09:41	10	42	0.1	42	42	428	0.3	428	429	19.4	75.7
2025-08-20T09:42	10	42	0.1	42	42	428	0.4	427	429	19.5	76.1
2025-08-20T09:43	10	41	0.2	41	42	428	0.2	427	428	19.5	75.6
2025-08-20T09:44	10	41	0.3	40	41	428	0.2	427	428	19.5	75.4
2025-08-20T09:45	10	40	0.2	40	40	428	0.3	427	428	19.5	75.7
2025-08-20T09:46	10	40	0.1	39	40	426	0.3	426	427	19.5	75.1
2025-08-20T09:47	10	40	0.2	39	40	427	0.3	427	428	19.6	76.6
2025-08-20T09:48	10	40	0.2	40	41	428	0.7	427	429	19.5	75.3
2025-08-20T09:49	10	41	0.2	41	41	429	0.3	428	429	19.6	76.3
2025-08-20T09:50	10	41	0.1	41	42	428	0.3	427	429	19.6	75.1
2025-08-20T09:51	10	41	0.1	41	42	428	0.2	428	429	19.6	75.4
2025-08-20T09:52	10	40	0.3	40	41	428	0.2	427	429	19.6	74.6
2025-08-20T09:53	10	39	0.3	39	40	428	0.3	427	429	19.6	75.6
2025-08-20T09:54	10	38	0.4	37	39	428	0.2	427	428	19.6	74.9
2025-08-20T09:55	10	37	0.5	36	37	428	0.4	427	429	19.6	75.3
2025-08-20T09:56	10	35	0.4	34	36	427	0.4	427	429	19.7	75.3
2025-08-20T09:57	10	34	0.4	33	34	427	0.2	427	428	19.6	74.8
2025-08-20T09:58	10	32	0.3	32	33	427	0.3	427	428	19.7	75.4
2025-08-20T09:59	10	31	0.3	31	32	426	0.3	426	427	19.7	76.0
2025-08-20T10:00	10	31	0.2	30	31	427	0.2	426	427	19.7	74.9
2025-08-20T10:01	10	30	0.1	30	30	427	0.3	426	428	19.8	75.2
2025-08-20T10:02	10	30	0.1	30	30	427	0.4	426	428	19.8	75.4
2025-08-20T10:03	10	30	0.1	30	30	426	0.6	425	427	19.8	75.1
2025-08-20T10:04	10	30	0.1	30	30	426	0.3	425	427	19.8	74.7
2025-08-20T10:05	10	31	0.2	30	31	427	0.3	426	427	19.9	76.1
2025-08-20T10:06	10	32	0.3	31	32	427	0.3	427	428	19.9	76.0
2025-08-20T10:07	10	33	0.3	32	33	427	0.2	427	428	20.0	76.9
2025-08-20T10:08	10	34	0.4	33	34	427	0.4	426	428	19.9	75.1
2025-08-20T10:09	10	35	0.4	34	36	427	0.2	426	427	19.9	75.6
2025-08-20T10:10	10	36	0.4	36	37	426	0.4	425	427	19.8	75.2
2025-08-20T10:11	10	38	0.4	37	39	427	0.4	426	428	19.7	75.4
2025-08-20T10:12	10	39	0.4	39	40	427	0.4	427	428	19.8	75.5
2025-08-20T10:13	10	40	0.3	40	41	428	0.2	428	429	19.8	75.4
2025-08-20T10:14	10	41	0.2	41	42	430	0.6	428	431	19.8	75.3
2025-08-20T10:15	10	42	0.2	41	42	430	0.2	430	431	19.9	75.4
2025-08-20T10:16	10	42	0.1	42	43	430	0.2	430	431	19.9	74.7
2025-08-20T10:17	10	43	0.1	42	43	431	0.5	430	432	20.0	74.7
2025-08-20T10:18	10	43	0.1	43	43	431	0.5	430	432	20.0	74.7
2025-08-20T10:19	10	43	0.2	43	44	432	0.4	431	432	20.0	75.4
2025-08-20T10:20	10	44	0.2	44	44	431	0.3	430	432	20.0	74.4
2025-08-20T10:21	10	45	0.2	44	45	429	0.5	429	431	20.1	70.0
2025-08-20T10:22	10	45	0.2	45	46	430	0.3	429	430	20.0	70.3
2025-08-20T10:23	10	46	0.2	46	46	431	0.5	430	432	20.0	71.9
2025-08-20T10:24	10	47	0.2	46	47	430	0.3	430	431	20.0	70.3
2025-08-20T10:25	10	47	0.2	47	48	431	0.2	431	432	20.1	70.0
2025-08-20T10:26	10	48	0.2	48	48	431	0.3	430	431	20.1	69.5
2025-08-20T10:27	10	48	0.1	48	49	432	0.7	430	433	20.1	69.9
2025-08-20T10:28	10	48	0.2	48	48	432	0.3	432	433	20.2	70.1
2025-08-20T10:29	10	47	0.4	46	48	433	0.3	432	433	20.3	70.3
2025-08-20T10:30	10	46	0.5	45	46	432	1.1	430	434	20.3	69.4
2025-08-20T10:31	10	44	0.5	43	45	431	0.3	431	432	20.1	69.5
2025-08-20T10:32	10	42	0.4	42	43	432	0.3	431	432	20.0	68.6
2025-08-20T10:33	10	41	0.4	40	42	431	0.5	429	431	20.1	68.6
2025-08-20T10:34	10	40	0.4	39	40	430	0.3	429	430	20.0	67.9
2025-08-20T10:35	10	38	0.4	38	39	430	0.2	429	430	20.0	67.9
2025-08-20T10:36	10	37	0.4	37	38	430	0.3	429	431	20.0	68.4
2025-08-20T10:37	10	36	0.4	35	37	430	0.4	429	431	20.1	69.2
2025-08-20T10:38	10	35	0.2	35	35	429	0.2	429	430	20.2	67.4
2025-08-20T10:39	10	34	0.2	34	35	429	0.2	429	430	20.2	68.3
2025-08-20T10:40	10	34	0.2	34	34	429	0.3	428	429	20.1	67.8
2025-08-20T10:41	10	34	0.2	34	34	429	0.2	428	429	20.1	68.5
2025-08-20T10:42	10	34	0.1	33	34	429	0.3	428	430	20.2	68.7
2025-08-20T10:43	10	34	0.1	34	34	430	0.4	429	431	20.3	68.9
2025-08-20T10:44	10	34	0.2	34	34	430	0.3	429	431	20.4	68.7
2025-08-20T10:45	10	34	0.2	34	35	430	0.3	429	431	20.4	67.7
2025-08-20T10:46	10	35	0.2	34	36	430	0.3	430	431	20.3	67.3
2025-08-20T10:47	10	36	0.2	35	36	430	0.2	430	431	20.2	67.6
2025-08-20T10:48	10	36	0.3	36	37	431	0.4	430	431	20.3	68.0
2025-08-20T10:49	10	37	0.3	36	38	431	0.3	431	432	20.3	68.0
2025-08-20T10:50	10	38	0.3	38	39	432	0.2	431	432	20.3	68.0
2025-08-20T10:51	10	39	0.3	39	40	431	0.4	431	432	20.2	67.5
2025-08-20T10:52	10	40	0.3	40	41	432	0.3	431	432	20.2	67.5
2025-08-20T10:53	10	41	0.3	40	42	433	0.4	432	434	20.3	67.3
2025-08-20T10:54	10	42	0.4	41	43	434	0.4	433	435	20.3	68.1
2025-08-20T10:55	10	43	0.3	42	44	434	0.2	433	434	20.3	67.8
2025-08-20T10:56	10	43	0.2	43	44	433	0.5	432	435	20.1	67.5
2025-08-20T10:57	10	44	0.3	44	45	433	0.3	432	433	20.0	67.9
2025-08-20T10:58	10	45	0.4	45	46	433	0.3	433	434	20.0	68.3
2025-08-20T10:59	10	47	0.4	46	47	434	0.5	433	435	20.0	68.5
2025-08-20T11:00	10	48	0.5	47	49	434	0.3	434	435	20.0	68.3
2025-08-20T11:01	10	50	0.7	49	51	435	0.2	435	436	20.1	68.3
2025-08-20T11:02	10	53	1.1	51	55	436	0.5	435	437	20.1	68.7
2025-08-20T11:03	10	57	1.4	55	59	438	1.0	436	440	20.2	68.2
2025-08-20T11:04	10	62	1.5	59	64	441	1.0	439	443	20.3	68.5
2025-08-20T11:05	10	66	1.2	64	68	442	0.5	441	443	20.3	68.6
2025-08-20T11:06	10	68	0.2	68	69	442	0.4	441	442	20.3	68.8
2025-08-20T11:07	10	69	0.4	68	70	443	0.4	442	444	20.3	68.0
2025-08-20T11:08	10	71	0.5	70	71	444	0.6	443	445	20.3	68.0
2025-08-20T11:09	10	73	0.5	71	73	446	0.3	445	446	20.3	68.5
2025-08-20T11:10	10	74	0.6	73	75	447	0.9	446	449	20.4	68.5
2025-08-20T11:11	10	77	1.0	75	79	447	0.5	446	448	20.6	68.5
2025-08-20T11:12	10	85	2.8	79	89	450	1.1	448	452	20.6	68.9
2025-08-20T11:13	10	89	2.6	86	95	453	0.5	452	454	20.5	67.9
2025-08-20T11:14	10	85	7.2	77	97	454	0.9	452	455	20.6	69.3
2025-08-20T11:15	10	84	6.0	77	97	453	0.9	451	455	20.7	69.5
2025-08-20T11:16	10	81	6.9	73	97	452	1.9	450	455	20.7	69.1
2025-08-20T11:17	10	76	2.9	72	82	449	0.7	448	451	20.6	69.1
2025-08-20T11:18	10	75	5.6	71	88	448	1.0	447	450	20.5	68.9
2025-08-20T11:19	10	70	5.9	65	88	448	1.0	446	450	20.4	69.6
2025-08-20T11:20	10	63	0.7	62	65	447	0.8	445	448	20.5	69.8
2025-08-20T11:21	10	62	0.5	61	62	444	0.7	443	446	20.5	69.9
2025-08-20T11:22	10	60	0.6	59	61	443	0.8	442	445	20.5	69.9
2025-08-20T11:23	10	58	0.5	57	59	445	0.4	444	446	20.5	70.0
2025-08-20T11:24	10	57	0.3	56	57	443	1.0	441	445	20.5	69.9
2025-08-20T11:25	10	56	0.2	55	56	442	0.8	441	443	20.4	69.4
2025-08-20T11:26	10	55	0.2	54	55	442	0.4	441	443	20.5	69.8
2025-08-20T11:27	10	54	0.3	53	55	442	0.3	441	443	20.5	68.8
2025-08-20T11:28	10	53	0.4	52	53	443	0.3	442	444	20.4	69.2
2025-08-20T11:29	10	52	0.3	51	52	442	0.7	440	443	20.4	70.0
2025-08-20T11:30	10	51	0.2	51	52	441	0.2	441	441	20.3	69.8
2025-08-20T11:31	10	51	0.3	50	51	441	0.5	440	442	20.4	70.6
2025-08-20T11:32	10	50	0.2	49	50	441	0.3	440	442	20.4	69.7
2025-08-20T11:33	10	49	0.1	49	49	441	0.2	440	442	20.4	70.1
2025-08-20T11:34	10	50	0.3	49	50	441	0.2	441	442	20.4	70.1
2025-08-20T11:35	10	52	1.0	50	53	442	0.7	441	443	20.4	69.9
2025-08-20T11:36	10	54	0.6	53	55	443	0.4	442	444	20.6	71.0
2025-08-20T11:37	10	58	1.3	56	60	443	0.5	442	444	20.6	70.0
2025-08-20T11:38	10	61	0.9	60	63	444	0.3	444	445	20.6	70.1
2025-08-20T11:39	10	61	0.5	60	62	443	0.6	443	445	20.6	70.0
2025-08-20T11:40	10	64	1.9	61	66	444	0.9	443	446	20.5	69.0
2025-08-20T11:41	10	64	0.5	63	65	445	0.4	444	446	20.6	69.4
2025-08-20T11:42	10	63	0.6	63	64	446	0.7	445	447	20.6	69.8
2025-08-20T11:43	10	64	0.6	62	64	443	1.1	442	446	20.6	69.3
2025-08-20T11:44	10	65	0.7	64	66	443	0.8	442	444	20.4	69.2
2025-08-20T11:45	10	66	0.2	65	66	445	0.6	444	446	20.5	69.9
2025-08-20T11:46	10	66	0.3	66	67	445	0.7	444	446	20.5	69.3
2025-08-20T11:47	10	67	0.2	66	67	447	0.7	446	448	20.5	69.9
2025-08-20T11:48	10	67	0.6	66	68	447	0.3	446	448	20.6	68.9
2025-08-20T11:49	10	69	0.4	68	70	448	0.5	447	449	20.7	70.0
2025-08-20T11:50	10	69	0.4	69	70	447	0.8	446	449	20.8	69.6
2025-08-20T11:51	10	69	0.3	69	70	447	0.8	446	449	20.7	68.6
2025-08-20T11:52	10	71	0.9	69	72	450	0.5	449	451	20.6	69.1
2025-08-20T11:53	10	74	0.6	72	74	449	0.4	448	450	20.5	69.1
2025-08-20T11:54	10	74	0.4	73	74	450	0.3	449	450	20.5	68.8
2025-08-20T11:55	10	73	0.2	73	74	450	0.4	449	451	20.5	69.2
2025-08-20T11:56	10	72	0.3	72	73	451	0.7	449	452	20.6	70.1
2025-08-20T11:57	10	70	1.5	68	72	449	0.3	449	450	20.6	69.6
2025-08-20T11:58	10	67	0.5	67	68	450	0.3	449	451	20.6	69.9
2025-08-20T11:59	10	66	0.2	65	67	449	0.4	448	450	20.5	69.9
2025-08-20T12:00	10	64	0.6	63	65	448	0.3	447	448	20.5	70.2
2025-08-20T12:01	10	62	0.7	61	63	448	0.5	447	449	20.5	70.3
2025-08-20T12:02	10	60	0.7	59	61	448	0.5	446	448	20.6	71.0
2025-08-20T12:03	10	58	0.7	57	59	445	0.6	444	447	20.6	70.4
2025-08-20T12:04	10	56	0.4	55	57	445	0.3	444	445	20.6	70.1
2025-08-20T12:05	10	54	0.7	53	55	444	0.4	443	444	20.5	69.7
2025-08-20T12:06	10	52	0.7	51	53	443	0.5	442	444	20.5	70.3
2025-08-20T12:07	10	50	0.8	48	51	444	0.5	443	445	20.6	70.4
2025-08-20T12:08	10	47	0.7	46	48	443	0.6	442	444	20.6	70.3
2025-08-20T12:09	10	44	0.7	43	46	442	0.3	441	443	20.7	69.8
2025-08-20T12:10	10	42	0.8	41	43	442	0.4	441	442	20.7	70.1
2025-08-20T12:11	10	40	0.6	39	41	441	0.5	440	442	20.8	70.2
2025-08-20T12:12	10	37	0.6	36	38	439	0.7	438	440	20.8	70.3
2025-08-20T12:13	10	35	0.5	35	36	438	0.3	438	439	20.8	70.3
2025-08-20T12:14	10	34	0.4	33	35	437	0.4	436	438	20.6	69.9
2025-08-20T12:15	10	33	0.5	32	33	438	0.5	437	438	20.7	70.9
2025-08-20T12:16	10	31	0.4	30	32	437	0.8	435	438	20.9	70.3
2025-08-20T12:17	10	30	0.5	29	30	436	0.3	435	437	20.8	70.4
2025-08-20T12:18	10	28	0.6	27	29	435	0.6	434	436	20.7	70.4
2025-08-20T12:19	10	26	0.5	25	27	434	0.2	434	434	20.7	70.6
2025-08-20T12:20	10	24	0.5	23	25	434	0.4	433	434	20.7	70.7
2025-08-20T12:21	10	22	0.7	21	23	433	0.6	432	434	20.7	70.1
2025-08-20T12:22	10	20	0.7	19	21	431	0.8	430	432	20.6	70.4
2025-08-20T12:23	10	18	0.5	17	19	430	0.3	429	431	20.5	70.6
2025-08-20T12:24	10	16	0.4	15	17	430	0.3	430	431	20.5	71.1
2025-08-20T12:25	10	15	0.3	14	16	429	0.4	428	430	20.6	71.3
2025-08-20T12:26	10	14	0.3	13	14	428	0.5	426	428	20.6	71.5
2025-08-20T12:27	10	13	0.3	12	13	426	0.3	426	427	20.5	71.4
2025-08-20T12:28	10	12	0.3	11	12	425	0.3	425	426	20.6	72.2
2025-08-20T12:29	10	11	0.2	11	11	425	0.3	424	425	20.6	72.0
2025-08-20T12:30	10	11	0.1	11	11	424	0.5	423	425	20.6	72.9
2025-08-20T12:31	10	11	0.1	11	12	421	1.0	419	423	20.6	72.6
2025-08-20T12:32	10	12	0.2	12	12	416	1.7	414	420	20.3	74.1
2025-08-20T12:33	10	13	0.2	12	13	415	0.3	414	415	20.0	75.7
2025-08-20T12:34	10	14	0.3	13	15	416	0.6	415	417	19.9	76.5
2025-08-20T12:35	10	15	0.4	14	16	418	1.0	416	420	19.9	77.4
2025-08-20T12:36	10	16	0.4	16	17	420	0.8	418	421	19.9	76.2
2025-08-20T12:37	10	18	0.4	17	19	420	0.4	420	421	19.9	75.9
2025-08-20T12:38	10	19	0.4	18	20	421	0.6	420	422	19.9	76.3
2025-08-20T12:39	10	20	0.3	20	21	422	0.5	421	423	19.9	77.2
2025-08-20T12:40	10	21	0.1	20	21	423	0.5	422	424	19.9	76.2
2025-08-20T12:41	10	20	0.2	19	21	423	0.4	422	424	19.9	76.8
2025-08-20T12:42	10	19	0.3	18	20	424	0.3	423	424	19.9	77.7
2025-08-20T12:43	10	18	0.2	18	19	423	0.2	423	424	19.8	78.4
2025-08-20T12:44	10	17	0.2	17	18	423	0.2	423	424	19.9	77.3
2025-08-20T12:45	10	17	0.2	16	17	423	0.2	422	423	19.9	76.3
2025-08-20T12:46	10	16	0.2	16	16	422	0.2	422	423	20.0	75.5
2025-08-20T12:47	10	15	0.2	15	16	422	0.3	421	422	20.0	75.8
2025-08-20T12:48	10	14	0.2	14	15	421	0.3	421	422	20.0	77.0
2025-08-20T12:49	10	14	0.2	14	14	421	0.3	421	422	20.0	78.3
2025-08-20T12:50	10	13	0.2	13	14	420	0.6	419	421	20.0	80.0
2025-08-20T12:51	10	13	0.2	12	13	419	0.3	419	420	20.0	79.3
2025-08-20T12:52	10	12	0.1	12	13	419	0.3	418	419	19.9	78.7
2025-08-20T12:53	10	12	0.1	12	13	418	0.3	417	419	19.9	79.3
2025-08-20T12:54	10	12	0.1	12	12	418	0.2	417	418	19.9	79.8
2025-08-20T12:55	10	12	0.1	12	12	418	0.2	417	418	19.8	79.1
2025-08-20T12:56	10	13	0.2	12	13	418	0.3	417	418	19.8	79.7
2025-08-20T12:57	10	13	0.2	13	14	417	0.3	417	418	19.7	80.9
2025-08-20T12:58	10	14	0.2	14	14	418	0.3	417	418	19.7	81.1
2025-08-20T12:59	10	14	0.1	14	15	418	0.2	417	418	19.6	83.5
2025-08-20T13:00	10	15	0.1	15	15	418	0.3	417	418	19.5	84.2
2025-08-20T13:01	10	14	0.1	14	15	418	0.3	417	418	19.4	85.2
2025-08-20T13:02	10	14	0.1	14	14	418	0.2	417	418	19.4	82.3
2025-08-20T13:03	10	14	0.1	14	14	418	0.2	417	419	19.5	81.9
2025-08-20T13:04	10	14	0.1	13	14	418	0.3	418	419	19.5	82.4
2025-08-20T13:05	10	13	0.1	13	14	418	0.2	418	419	19.5	80.7
2025-08-20T13:06	10	13	0.1	13	13	418	0.3	417	418	19.5	80.6
2025-08-20T13:07	10	13	0.2	12	13	418	0.3	417	419	19.5	80.7
2025-08-20T13:08	10	12	0.2	12	12	418	0.3	417	419	19.5	81.8
2025-08-20T13:09	10	12	0.1	11	12	418	0.2	418	419	19.5	83.2
2025-08-20T13:10	10	11	0.2	11	11	419	0.2	418	419	19.5	84.0
2025-08-20T13:11	10	11	0.1	11	11	419	0.2	418	419	19.5	83.3
2025-08-20T13:12	10	10	0.1	10	11	419	0.3	418	419	19.5	84.2
2025-08-20T13:13	10	10	0.1	10	10	418	0.2	418	419	19.5	84.7
2025-08-20T13:14	10	10	0.1	10	10	418	0.2	418	419	19.4	84.3
2025-08-20T13:15	10	10	0.1	9	10	418	0.2	417	418	19.4	85.4
2025-08-20T13:16	10	10	0.1	9	10	418	0.2	417	418	19.4	86.0
2025-08-20T13:17	10	10	0.1	9	10	417	0.2	417	418	19.3	86.7
2025-08-20T13:18	10	10	0.1	9	10	417	0.3	416	418	19.3	86.3
2025-08-20T13:19	10	10	0.1	9	10	417	0.2	417	418	19.3	86.5
2025-08-20T13:20	10	9	0.1	9	10	417	0.2	416	418	19.3	87.4
2025-08-20T13:21	10	9	0.1	9	10	418	0.2	417	418	19.3	87.5
2025-08-20T13:22	10	9	0.1	9	10	418	0.2	417	418	19.4	86.7
2025-08-20T13:23	10	9	0.1	9	10	417	0.3	417	418	19.4	87.6
2025-08-20T13:24	10	9	0.1	9	9	417	0.3	417	418	19.4	88.4
2025-08-20T13:25	10	9	0.2	8	9	416	0.5	415	417	19.4	86.6
2025-08-20T13:26	10	8	0.2	8	9	416	0.4	415	416	19.4	87.2
2025-08-20T13:27	10	8	0.2	7	8	415	0.4	414	416	19.3	86.4
2025-08-20T13:28	10	8	0.1	7	8	414	0.3	414	415	19.3	86.7
2025-08-20T13:29	10	8	0.2	7	8	414	0.3	413	415	19.3	86.1
2025-08-20T13:30	10	8	0.2	7	8	414	0.3	413	414	19.3	85.4
2025-08-20T13:31	10	8	0.2	7	8	414	0.3	413	414	19.2	85.9
2025-08-20T13:32	10	8	0.2	8	8	414	0.3	413	415	19.2	86.2
2025-08-20T13:33	10	8	0.2	8	8	414	0.3	413	414	19.2	86.5
2025-08-20T13:34	10	8	0.1	8	8	414	0.3	413	414	19.2	86.3
2025-08-20T13:35	10	8	0.2	8	9	414	0.3	413	414	19.2	86.7
2025-08-20T13:36	10	8	0.2	8	9	413	0.3	413	414	19.2	87.3
2025-08-20T13:37	10	8	0.2	7	8	413	0.2	413	414	19.1	87.3
2025-08-20T13:38	10	8	0.1	7	8	413	0.2	412	414	19.1	88.0
2025-08-20T13:39	10	8	0.1	8	8	413	0.2	413	413	19.0	88.3
2025-08-20T13:40	10	8	0.1	8	8	413	0.2	412	413	19.0	89.0
2025-08-20T13:41	10	8	0.1	8	8	412	0.3	412	413	18.8	89.4
2025-08-20T13:42	10	8	0.1	8	8	412	0.3	411	412	18.8	89.0
2025-08-20T13:43	10	8	0.1	8	8	411	0.3	411	412	18.8	87.9
2025-08-20T13:44	10	8	0.1	8	8	411	0.3	410	411	18.8	87.4
2025-08-20T13:45	10	8	0.1	8	8	411	0.2	410	411	18.7	88.3
2025-08-20T13:46	10	8	0.1	8	8	411	0.2	410	411	18.7	88.7
2025-08-20T13:47	10	8	0.1	7	8	411	0.3	410	411	18.6	89.3
2025-08-20T13:48	10	7	0.0	7	8	411	0.2	410	411	18.6	89.5
2025-08-20T13:49	10	7	0.1	7	8	411	0.3	410	411	18.6	88.4
2025-08-20T13:50	10	7	0.1	7	8	411	0.2	410	411	18.6	88.0
2025-08-20T13:51	10	7	0.1	7	7	411	0.2	410	411	18.6	88.3
2025-08-20T13:52	10	7	0.1	7	7	411	0.2	410	411	18.7	87.9
2025-08-20T13:53	10	7	0.1	7	7	411	0.2	410	411	18.7	88.0
2025-08-20T13:54	10	7	0.1	7	7	411	0.2	410	412	18.7	88.6
2025-08-20T13:55	10	7	0.1	6	7	411	0.2	410	411	18.6	89.5
2025-08-20T13:56	10	6	0.1	6	7	411	0.2	411	412	18.6	90.5
2025-08-20T13:57	10	6	0.1	6	6	411	0.2	410	411	18.5	92.3
2025-08-20T13:58	10	6	0.1	6	6	411	0.3	410	411	18.5	91.2
2025-08-20T13:59	10	6	0.1	6	6	411	0.3	410	411	18.5	90.9
2025-08-20T14:00	10	6	0.1	6	6	411	0.2	410	411	18.5	91.1
2025-08-20T14:01	10	6	0.1	6	6	411	0.2	410	411	18.5	91.6
2025-08-20T14:02	10	6	0.1	6	6	411	0.2	410	411	18.5	91.7
2025-08-20T14:03	10	6	0.1	6	6	411	0.2	410	411	18.5	91.9
2025-08-20T14:04	10	6	0.1	6	6	411	0.3	410	411	18.5	91.9
2025-08-20T14:05	10	6	0.1	6	7	411	0.2	410	411	18.5	91.3
2025-08-20T14:06	10	7	0.1	6	7	411	0.2	410	411	18.5	92.0
2025-08-20T14:07	10	7	0.1	7	7	410	0.3	410	411	18.5	91.7
2025-08-20T14:08	10	7	0.1	7	8	410	0.3	409	410	18.5	88.8
2025-08-20T14:09	10	8	0.1	7	8	409	0.2	409	410	18.5	90.3
2025-08-20T14:10	10	8	0.2	8	8	409	0.2	409	410	18.5	91.2
2025-08-20T14:11	10	9	0.2	8	9	410	0.3	409	410	18.4	89.9
2025-08-20T14:12	10	9	0.2	9	10	409	0.3	408	410	18.4	89.0
2025-08-20T14:13	10	10	0.2	9	10	409	0.3	408	410	18.4	89.1
2025-08-20T14:14	10	11	0.3	10	11	409	0.2	409	410	18.4	89.5
2025-08-20T14:15	10	11	0.2	11	12	410	0.4	409	411	18.4	90.8
2025-08-20T14:16	10	12	0.2	11	12	410	0.2	409	411	18.4	90.4
2025-08-20T14:17	10	12	0.1	12	12	410	0.2	410	411	18.4	90.3
2025-08-20T14:18	10	12	0.1	12	13	410	0.3	409	411	18.3	89.4
2025-08-20T14:19	10	13	0.1	12	13	410	0.3	409	411	18.3	89.1
2025-08-20T14:20	10	13	0.2	13	13	410	0.4	409	411	18.4	89.7
2025-08-20T14:21	10	13	0.1	13	13	410	0.2	410	411	18.3	90.2
2025-08-20T14:22	10	13	0.1	13	14	410	0.3	409	410	18.3	88.6
2025-08-20T14:23	10	14	0.1	13	14	410	0.2	409	410	18.3	88.8
2025-08-20T14:24	10	14	0.1	13	14	410	0.3	409	411	18.4	89.2
2025-08-20T14:25	10	14	0.1	13	14	409	0.3	409	410	18.4	88.1
2025-08-20T14:26	10	13	0.1	13	14	409	0.2	409	410	18.3	88.7
2025-08-20T14:27	10	13	0.1	12	13	410	0.4	409	411	18.3	89.8
2025-08-20T14:28	10	12	0.1	12	13	410	0.5	409	411	18.3	89.6
2025-08-20T14:29	10	12	0.1	12	12	409	0.2	409	410	18.3	89.7
2025-08-20T14:30	10	12	0.2	11	12	409	0.2	409	410	18.3	90.4
2025-08-20T14:31	10	11	0.1	11	11	409	0.3	408	410	18.2	88.9
2025-08-20T14:32	10	11	0.1	11	11	409	0.3	408	409	18.2	89.6
2025-08-20T14:33	10	10	0.1	10	11	408	0.3	407	409	18.2	89.8
2025-08-20T14:34	10	10	0.1	10	11	408	0.3	407	409	18.1	90.2
2025-08-20T14:35	10	10	0.1	10	10	408	0.3	407	408	18.1	90.1
2025-08-20T14:36	10	10	0.1	10	10	407	0.3	407	408	18.1	90.2
2025-08-20T14:37	10	10	0.1	9	10	407	0.5	406	408	18.1	90.9
2025-08-20T14:38	10	10	0.1	9	10	407	0.3	407	408	18.0	91.2
2025-08-20T14:39	10	10	0.1	9	10	407	0.2	407	408	18.0	91.5
2025-08-20T14:40	10	10	0.1	10	10	407	0.3	407	408	18.0	91.9
2025-08-20T14:41	10	10	0.1	10	10	408	0.3	407	409	18.0	92.5
2025-08-20T14:42	10	10	0.2	10	11	408	0.3	407	408	18.0	92.7
2025-08-20T14:43	10	11	0.2	11	11	408	0.2	407	408	18.0	92.4
2025-08-20T14:44	10	11	0.1	11	12	408	0.3	408	409	18.0	92.5
2025-08-20T14:45	10	12	0.2	11	12	408	0.2	408	409	18.0	92.6
2025-08-20T14:46	10	12	0.1	12	13	409	0.3	408	409	18.0	92.9
2025-08-20T14:47	10	13	0.1	12	13	409	0.2	408	409	18.0	93.2
2025-08-20T14:48	10	13	0.1	13	13	409	0.2	408	409	18.0	92.9
2025-08-20T14:49	10	14	0.1	13	14	409	0.3	408	409	18.0	92.1
2025-08-20T14:50	10	14	0.1	14	14	409	0.3	408	409	18.0	92.3
2025-08-20T14:51	10	14	0.1	14	14	409	0.4	408	410	18.0	93.1
2025-08-20T14:52	10	14	0.1	14	14	409	0.2	409	410	18.0	93.8
2025-08-20T14:53	10	14	0.1	14	14	409	0.2	409	410	17.9	93.6
2025-08-20T14:54	10	14	0.1	14	15	409	0.3	408	410	17.9	93.1
2025-08-20T14:55	10	15	0.1	14	15	409	0.4	408	410	17.9	92.9
2025-08-20T14:56	10	15	0.1	14	15	408	0.3	408	409	17.9	92.6
2025-08-20T14:57	10	15	0.1	14	15	408	0.3	408	409	17.9	92.4
2025-08-20T14:58	10	14	0.2	14	15	408	0.2	408	409	17.9	91.9
2025-08-20T14:59	10	14	0.2	14	15	408	0.2	408	409	17.9	92.2
2025-08-20T15:00	10	14	0.2	14	15	409	0.2	408	409	17.9	92.9
2025-08-20T15:01	10	14	0.1	14	14	409	0.2	408	409	18.0	93.2
2025-08-20T15:02	10	14	0.2	14	14	409	0.3	408	409	18.0	93.2
2025-08-20T15:03	10	14	0.2	14	15	409	0.3	408	410	18.0	92.7
2025-08-20T15:04	10	14	0.2	14	15	410	0.3	409	410	18.0	92.5
2025-08-20T15:05	10	15	0.2	14	15	410	0.3	409	410	18.1	93.3
2025-08-20T15:06	10	15	0.2	14	15	410	0.2	410	411	18.0	92.7
2025-08-20T15:07	10	15	0.2	15	16	410	0.4	409	411	18.1	92.6
2025-08-20T15:08	10	15	0.2	15	16	410	0.3	410	411	18.1	91.8
2025-08-20T15:09	10	15	0.2	15	16	410	0.2	410	411	18.1	91.9
2025-08-20T15:10	10	15	0.2	15	15	410	0.3	410	411	18.0	92.3
2025-08-20T15:11	10	15	0.2	14	15	411	0.4	410	412	18.1	93.1
2025-08-20T15:12	10	14	0.2	14	15	411	0.3	411	412	18.1	93.9
2025-08-20T15:13	10	14	0.2	14	15	412	0.3	411	412	18.1	93.8
2025-08-20T15:14	10	14	0.2	14	15	412	0.3	411	412	18.1	93.0
2025-08-20T15:15	10	15	0.2	14	15	412	0.2	411	412	18.2	93.3
2025-08-20T15:16	10	15	0.2	15	16	412	0.2	412	412	18.2	93.3
2025-08-20T15:17	10	15	0.2	15	16	412	0.4	412	413	18.2	93.7
2025-08-20T15:18	10	16	0.2	15	16	413	0.2	412	413	18.3	93.9
2025-08-20T15:19	10	16	0.1	16	17	412	0.3	411	413	18.2	93.0
2025-08-20T15:20	10	17	0.1	16	17	412	0.2	412	413	18.2	92.8
2025-08-20T15:21	10	17	0.1	16	17	412	0.2	412	412	18.2	92.8
2025-08-20T15:22	10	17	0.2	16	17	412	0.2	411	412	18.2	92.7
2025-08-20T15:23	10	16	0.2	16	17	412	0.3	411	412	18.2	92.6
2025-08-20T15:24	10	16	0.2	16	17	412	0.2	411	412	18.2	92.7
2025-08-20T15:25	10	16	0.1	15	16	412	0.2	411	412	18.2	93.2
2025-08-20T15:26	10	15	0.2	15	16	412	0.2	412	412	18.2	93.8
2025-08-20T15:27	10	15	0.1	15	15	412	0.3	411	413	18.3	94.1
2025-08-20T15:28	10	15	0.1	15	15	412	0.3	411	412	18.2	94.0
2025-08-20T15:29	10	15	0.1	15	15	412	0.2	411	412	18.2	94.0
2025-08-20T15:30	10	15	0.1	15	15	412	0.2	411	412	18.3	94.3
2025-08-20T15:31	10	15	0.1	14	15	412	0.2	411	412	18.3	93.9
2025-08-20T15:32	10	14	0.1	14	15	412	0.3	411	412	18.3	93.8
2025-08-20T15:33	10	14	0.2	14	14	412	0.2	411	412	18.3	93.9
2025-08-20T15:34	10	14	0.2	13	14	411	0.4	411	412	18.2	93.8
2025-08-20T15:35	10	13	0.2	13	13	411	0.2	411	412	18.2	93.1
2025-08-20T15:36	10	13	0.1	13	13	411	0.3	410	412	18.3	93.5
2025-08-20T15:37	10	13	0.1	12	13	411	0.2	411	412	18.3	93.8
2025-08-20T15:38	10	13	0.1	13	13	412	0.3	411	412	18.3	94.2
2025-08-20T15:39	10	13	0.2	13	13	412	0.3	412	413	18.3	94.5
2025-08-20T15:40	10	13	0.2	13	14	412	0.2	412	412	18.3	94.7
2025-08-20T15:41	10	14	0.2	13	14	413	0.2	412	413	18.3	94.2
2025-08-20T15:42	10	14	0.1	14	14	413	0.2	412	413	18.2	94.0
2025-08-20T15:43	10	14	0.1	14	14	413	0.3	413	414	18.3	94.2
2025-08-20T15:44	10	14	0.2	13	14	413	0.3	413	414	18.3	94.3
2025-08-20T15:45	10	13	0.2	13	13	413	0.3	412	413	18.3	93.8
2025-08-20T15:46	10	12	0.2	12	13	412	0.3	412	413	18.3	94.5
2025-08-20T15:47	10	12	0.2	11	12	412	0.5	411	412	18.2	94.2
2025-08-20T15:48	10	11	0.2	10	11	411	0.2	411	412	18.2	93.9
2025-08-20T15:49	10	10	0.2	10	10	411	0.3	411	412	18.2	94.1
2025-08-20T15:50	10	10	0.2	9	10	411	0.3	410	411	18.2	93.6
2025-08-20T15:51	10	9	0.2	9	9	410	0.2	410	410	18.2	93.2
2025-08-20T15:52	10	9	0.1	8	9	410	0.2	410	411	18.3	94.1
2025-08-20T15:53	10	8	0.1	8	8	411	0.2	410	411	18.2	94.0
2025-08-20T15:54	10	8	0.1	8	8	410	0.2	410	411	18.2	93.3
2025-08-20T15:55	10	8	0.1	8	8	410	0.2	410	410	18.3	93.3
2025-08-20T15:56	10	8	0.1	8	8	410	0.3	410	411	18.2	93.3
2025-08-20T15:57	10	8	0.1	8	8	410	0.2	409	410	18.2	92.5
2025-08-20T15:58	10	8	0.1	8	8	410	0.2	409	410	18.2	92.9
2025-08-20T15:59	10	8	0.1	8	8	409	0.2	409	410	18.2	92.7
2025-08-20T16:00	10	8	0.1	8	8	409	0.2	409	410	18.2	92.8
2025-08-20T16:01	10	8	0.1	7	8	409	0.2	409	410	18.2	92.3
2025-08-20T16:02	10	7	0.1	7	8	409	0.2	409	410	18.2	92.4
2025-08-20T16:03	10	7	0.1	7	8	409	0.2	409	409	18.2	92.8
2025-08-20T16:04	10	7	0.1	7	7	409	0.2	408	409	18.2	93.2
2025-08-20T16:05	10	7	0.1	7	7	409	0.2	408	409	18.2	93.7
2025-08-20T16:06	10	7	0.1	6	7	409	0.3	408	409	18.1	93.3
2025-08-20T16:07	10	7	0.1	6	7	408	0.2	408	409	18.1	93.4
2025-08-20T16:08	10	7	0.1	7	7	408	0.3	407	409	18.1	91.2
2025-08-20T16:09	10	7	0.1	7	7	408	0.2	407	408	18.1	91.0
2025-08-20T16:10	10	7	0.1	7	7	408	0.2	407	408	18.1	91.3
2025-08-20T16:11	10	7	0.1	7	7	408	0.2	407	408	18.1	90.3
2025-08-20T16:12	10	7	0.1	7	7	408	0.2	407	408	18.1	90.9
2025-08-20T16:13	10	7	0.1	7	7	408	0.2	408	409	18.1	92.2
2025-08-20T16:14	10	8	0.1	7	8	408	0.2	408	409	18.1	92.1
2025-08-20T16:15	10	8	0.1	8	8	408	0.3	408	409	18.1	92.3
2025-08-20T16:16	10	8	0.1	8	8	409	0.3	408	409	18.1	92.8
2025-08-20T16:17	10	9	0.1	8	9	409	0.2	408	409	18.1	93.5
2025-08-20T16:18	10	9	0.1	9	9	409	0.3	408	409	18.1	93.8
2025-08-20T16:19	10	9	0.1	9	10	409	0.2	409	410	18.1	94.3
2025-08-20T16:20	10	10	0.1	9	10	409	0.4	408	410	18.1	94.4
2025-08-20T16:21	10	10	0.1	10	10	409	0.2	408	410	18.0	94.0
2025-08-20T16:22	10	10	0.1	10	10	409	0.2	408	409	17.9	94.0
2025-08-20T16:23	10	11	0.1	10	11	409	0.3	408	410	17.9	94.0
2025-08-20T16:24	10	11	0.1	11	11	409	0.2	409	410	18.0	94.6
2025-08-20T16:25	10	11	0.1	11	11	409	0.3	408	409	17.9	94.7
2025-08-20T16:26	10	11	0.1	11	11	409	0.3	408	410	18.0	95.1
2025-08-20T16:27	10	11	0.1	11	12	409	0.3	408	410	17.9	95.2
2025-08-20T16:28	10	12	0.1	11	12	409	0.2	409	410	17.9	95.4
2025-08-20T16:29	10	12	0.1	12	12	409	0.2	409	410	17.9	95.5
2025-08-20T16:30	10	12	0.1	12	12	410	0.2	409	410	18.0	95.8
2025-08-20T16:31	10	12	0.1	12	12	410	0.2	409	410	17.9	95.4
2025-08-20T16:32	10	12	0.1	12	12	410	0.2	409	410	17.9	94.9
2025-08-20T16:33	10	12	0.1	12	12	410	0.2	409	410	17.9	94.8
2025-08-20T16:34	10	12	0.1	12	12	410	0.2	409	410	18.0	94.0
2025-08-20T16:35	10	12	0.1	11	12	409	0.2	409	410	18.0	94.2
2025-08-20T16:36	10	11	0.1	11	11	410	0.2	409	410	18.1	94.5
2025-08-20T16:37	10	11	0.1	11	11	410	0.2	409	410	18.1	94.8
2025-08-20T16:38	10	10	0.1	10	11	410	0.2	409	410	18.1	95.1
2025-08-20T16:39	10	10	0.1	10	10	409	0.2	409	410	18.1	94.7
2025-08-20T16:40	10	10	0.1	10	11	409	0.2	409	409	18.1	94.3
2025-08-20T16:41	10	11	0.1	10	11	409	0.2	408	409	18.1	94.4
2025-08-20T16:42	10	11	0.2	11	12	409	0.2	409	410	18.1	94.5
2025-08-20T16:43	10	12	0.2	11	12	410	0.2	409	410	18.1	94.8
2025-08-20T16:44	10	12	0.2	12	13	410	0.3	409	410	18.1	95.0
2025-08-20T16:45	10	13	0.1	13	13	410	0.2	409	410	18.1	94.9
2025-08-20T16:46	10	13	0.1	13	13	410	0.2	410	411	18.1	94.5
2025-08-20T16:47	10	13	0.1	13	13	410	0.3	410	411	18.2	94.8
2025-08-20T16:48	10	13	0.1	13	13	411	0.2	410	411	18.2	95.0
2025-08-20T16:49	10	13	0.1	12	13	411	0.2	410	411	18.2	95.3
2025-08-20T16:50	10	12	0.2	12	12	411	0.3	410	412	18.2	95.2
2025-08-20T16:51	10	11	0.3	10	12	410	0.2	410	411	18.2	94.8
2025-08-20T16:52	10	10	0.3	10	11	410	0.3	409	411	18.1	94.9
2025-08-20T16:53	10	9	0.3	9	10	410	0.2	409	410	18.1	94.5
2025-08-20T16:54	10	8	0.2	8	9	410	0.2	409	410	18.1	95.1
2025-08-20T16:55	10	8	0.2	8	8	409	0.2	409	410	18.1	95.1
2025-08-20T16:56	10	7	0.1	7	8	410	0.2	409	410	18.1	95.5
2025-08-20T16:57	10	7	0.1	7	7	410	0.2	409	410	18.1	95.7
2025-08-20T16:58	10	7	0.1	7	7	410	0.2	409	410	18.1	95.6
2025-08-20T16:59	10	7	0.1	7	7	409	0.2	409	410	18.1	95.7
2025-08-20T17:00	10	7	0.1	7	8	409	0.3	409	410	18.1	95.8
2025-08-20T17:01	10	8	0.1	7	8	409	0.2	409	410	18.1	95.6
2025-08-20T17:02	10	8	0.1	7	8	409	0.2	409	410	18.1	95.6
2025-08-20T17:03	10	8	0.1	8	8	409	0.2	409	410	18.1	95.3
2025-08-20T17:04	10	8	0.1	8	8	409	0.2	409	410	18.1	95.3
2025-08-20T17:05	10	8	0.1	7	8	409	0.2	409	410	18.1	95.3
2025-08-20T17:06	10	7	0.1	7	8	409	0.3	408	410	18.2	95.7
2025-08-20T17:07	10	7	0.1	7	7	409	0.2	409	409	18.1	95.3
2025-08-20T17:08	10	7	0.1	7	7	409	0.3	408	409	18.1	95.2
2025-08-20T17:09	10	7	0.2	6	7	408	0.2	408	409	18.1	94.7
2025-08-20T17:10	10	6	0.2	6	6	408	0.2	408	409	18.1	95.0
2025-08-20T17:11	10	5	0.2	5	6	408	0.2	408	409	18.2	95.4
2025-08-20T17:12	10	5	0.1	5	5	408	0.3	408	409	18.2	95.7
2025-08-20T17:13	10	5	0.1	4	5	408	0.2	407	408	18.1	94.8
2025-08-20T17:14	10	4	0.1	4	5	408	0.2	407	408	18.2	94.2
2025-08-20T17:15	10	4	0.1	4	4	408	0.3	407	408	18.2	93.9
2025-08-20T17:16	10	4	0.1	4	4	408	0.2	407	408	18.2	94.3
2025-08-20T17:17	10	4	0.1	3	4	408	0.3	407	408	18.2	94.3
2025-08-20T17:18	10	3	0.1	3	4	407	0.2	407	408	18.2	94.4
2025-08-20T17:19	10	3	0.1	3	3	407	0.2	407	408	18.2	94.7
2025-08-20T17:20	10	3	0.1	3	3	407	0.2	406	407	18.2	94.7
2025-08-20T17:21	10	3	0.1	3	3	407	0.3	406	407	18.1	94.8
2025-08-20T17:22	10	3	0.1	3	3	407	0.2	406	407	18.1	94.5
2025-08-20T17:23	10	3	0.1	2	3	407	0.2	406	407	18.1	94.8
2025-08-20T17:24	10	2	0.1	2	3	407	0.2	406	407	18.1	95.3
2025-08-20T17:25	10	2	0.1	2	2	406	0.3	406	407	18.1	95.3
2025-08-20T17:26	10	2	0.1	2	2	406	0.2	406	407	18.1	95.6
2025-08-20T17:27	10	2	0.1	2	2	407	0.2	406	407	18.2	95.8
2025-08-20T17:28	10	2	0.1	1	2	407	0.3	406	407	18.2	95.8
2025-08-20T17:29	10	1	0.1	1	2	407	0.3	406	407	18.1	95.6
2025-08-20T17:30	10	1	0.1	1	1	407	0.2	406	407	18.2	95.6
2025-08-20T17:31	10	1	0.1	1	2	407	0.2	406	407	18.2	95.8
2025-08-20T17:32	10	1	0.1	1	1	406	0.3	406	407	18.1	95.8
2025-08-20T17:33	10	1	0.1	1	1	406	0.3	406	407	18.1	95.3
2025-08-20T17:34	10	1	0.1	1	1	406	0.2	406	407	18.2	95.6
2025-08-20T17:35	10	1	0.1	1	1	406	0.2	405	406	18.1	95.5
2025-08-20T17:36	10	1	0.1	1	1	406	0.2	405	406	18.1	95.0
2025-08-20T17:37	10	1	0.1	1	1	406	0.2	405	406	18.1	94.9
2025-08-20T17:38	10	1	0.1	1	1	406	0.3	405	406	18.1	94.7
2025-08-20T17:39	10	1	0.1	1	1	406	0.2	405	406	18.1	94.0
2025-08-20T17:40	10	1	0.1	1	1	405	0.2	405	406	18.1	94.0
2025-08-20T17:41	10	1	0.1	1	1	405	0.2	404	406	18.1	94.2
2025-08-20T17:42	10	1	0.1	1	1	405	0.3	404	406	18.1	94.6
2025-08-20T17:43	10	1	0.1	1	1	405	0.2	404	405	18.1	95.2
2025-08-20T17:44	10	1	0.1	1	1	405	0.2	404	405	18.0	95.4
2025-08-20T17:45	10	1	0.1	1	1	405	0.3	404	405	18.0	95.7
2025-08-20T17:46	10	1	0.1	1	1	405	0.3	404	405	18.0	95.7
2025-08-20T17:47	10	1	0.1	1	1	405	0.2	404	405	18.0	95.0
2025-08-20T17:48	10	1	0.1	0	1	405	0.3	404	405	18.1	94.5
2025-08-20T17:49	10	1	0.1	0	1	404	0.4	403	405	18.1	94.5
2025-08-20T17:50	10	0	0.1	0	1	404	0.3	403	405	18.0	94.6
2025-08-20T17:51	10	0	0.1	0	1	404	0.2	403	404	18.0	95.4
2025-08-20T17:52	10	0	0.1	0	0	403	0.4	402	404	17.9	95.0
2025-08-20T17:53	10	0	0.1	0	0	403	0.8	401	404	17.7	93.7
2025-08-20T17:54	10	0	0.1	0	0	401	0.6	400	402	17.4	92.0
2025-08-20T17:55	10	0	0.2	0	0	400	0.3	399	400	17.0	93.0
2025-08-20T17:56	10	-1	0.1	-1	0	399	0.2	399	399	16.8	95.4
2025-08-20T17:57	10	-1	0.1	-1	-1	398	0.5	396	398	16.6	96.1
2025-08-20T17:58	10	-1	0.1	-1	-1	396	0.4	395	397	16.3	95.7
2025-08-20T17:59	10	-1	0.1	-1	-1	394	0.4	394	396	16.1	95.7
2025-08-20T18:00	10	-1	0.1	-1	-1	393	0.3	393	394	15.8	95.6
2025-08-20T18:01	10	-1	0.1	-1	-1	392	0.3	392	393	15.6	95.8
2025-08-20T18:02	10	-1	0.1	-1	-1	392	0.4	391	393	15.6	96.3
2025-08-20T18:03	10	-1	0.1	-1	-1	392	0.5	391	393	15.6	96.7
2025-08-20T18:04	10	-1	0.1	-1	-1	392	0.5	391	393	15.6	97.4
2025-08-20T18:05	10	-1	0.1	-1	-1	393	0.6	391	394	15.7	97.8
2025-08-20T18:06	10	-1	0.1	-1	-1	393	0.4	392	394	15.7	98.0
2025-08-20T18:07	10	-1	0.1	-1	-1	394	0.5	392	394	15.8	98.2
2025-08-20T18:08	10	-1	0.1	-1	-1	394	0.3	393	395	15.9	98.6
2025-08-20T18:09	10	-1	0.1	-1	0	394	0.3	393	395	15.9	98.7
2025-08-20T18:10	10	-1	0.1	-1	0	394	0.3	393	394	16.0	98.9
2025-08-20T18:11	10	-1	0.1	-1	0	394	0.3	394	395	16.1	98.9
2025-08-20T18:12	10	0	0.1	-1	0	394	0.3	394	395	16.0	99.2
2025-08-20T18:13	10	0	0.1	-1	0	395	0.2	394	395	15.9	99.3
2025-08-20T18:14	10	0	0.1	0	0	395	0.2	394	395	15.9	99.0
2025-08-20T18:15	10	0	0.1	0	0	394	0.2	394	395	15.8	99.0
2025-08-20T18:16	10	0	0.1	-1	0	394	0.3	393	394	15.7	98.6
2025-08-20T18:17	10	0	0.1	0	0	394	0.2	393	394	15.6	98.3
2025-08-20T18:18	10	0	0.1	0	0	394	0.3	393	394	15.6	98.2
2025-08-20T18:19	10	0	0.1	-1	0	394	0.2	393	394	15.7	98.4
2025-08-20T18:20	10	0	0.1	-1	0	394	0.3	393	394	15.7	98.5
2025-08-20T18:21	10	0	0.1	-1	0	394	0.2	393	394	15.7	98.5
2025-08-20T18:22	10	0	0.1	0	0	394	0.3	393	394	15.7	98.5
2025-08-20T18:23	10	0	0.1	0	0	394	0.2	393	394	15.8	98.7
2025-08-20T18:24	10	0	0.1	0	0	394	0.3	393	395	15.8	98.9
2025-08-20T18:25	10	0	0.1	0	0	394	0.2	394	395	15.9	98.9
2025-08-20T18:26	10	0	0.1	0	0	394	0.3	394	395	16.0	99.1
2025-08-20T18:27	10	0	0.1	0	0	395	0.3	394	395	16.0	99.2
2025-08-20T18:28	10	0	0.0	0	0	395	0.2	394	395	16.0	99.3
2025-08-20T18:29	10	0	0.1	0	0	395	0.3	395	396	16.1	99.3
2025-08-20T18:30	10	0	0.1	0	0	395	0.2	394	396	16.1	99.4
2025-08-20T18:31	10	0	0.1	0	0	396	0.2	395	396	16.1	99.2
2025-08-20T18:32	10	0	0.1	0	0	395	0.2	395	396	16.2	99.0
2025-08-20T18:33	10	0	0.1	0	0	396	0.2	395	396	16.2	99.0
2025-08-20T18:34	10	0	0.1	0	0	395	0.2	395	396	16.2	98.9
2025-08-20T18:35	10	0	0.1	0	0	396	0.3	395	396	16.2	98.9
2025-08-20T18:36	10	0	0.1	0	0	396	0.3	395	396	16.2	98.8
2025-08-20T18:37	10	0	0.1	0	0	396	0.2	395	396	16.2	98.7
2025-08-20T18:38	10	0	0.1	0	0	395	0.2	395	396	16.2	98.4
2025-08-20T18:39	10	0	0.1	0	0	396	0.3	395	396	16.2	98.4
2025-08-20T18:40	10	0	0.1	0	0	395	0.2	395	396	16.2	98.1
2025-08-20T18:41	10	0	0.1	0	0	395	0.2	395	396	16.2	98.2
2025-08-20T18:42	10	0	0.1	0	0	395	0.3	395	396	16.2	98.2
2025-08-20T18:43	10	0	0.1	0	0	396	0.3	395	396	16.2	98.4
2025-08-20T18:44	10	0	0.1	0	0	396	0.1	395	396	16.2	98.4
2025-08-20T18:45	10	0	0.1	0	0	395	0.2	395	396	16.2	98.2
2025-08-20T18:46	10	0	0.0	0	0	395	0.3	395	396	16.2	98.1
2025-08-20T18:47	10	0	0.1	0	0	395	0.2	395	396	16.2	97.9
2025-08-20T18:48	10	0	0.1	0	0	395	0.2	395	396	16.2	97.9
2025-08-20T18:49	10	0	0.1	0	0	396	0.2	395	396	16.3	97.5
2025-08-20T18:50	10	0	0.1	0	0	395	0.2	395	396	16.3	96.9
2025-08-20T18:51	10	0	0.1	0	0	395	0.2	395	396	16.4	96.4
2025-08-20T18:52	10	0	0.1	0	0	395	0.2	395	396	16.4	96.5
2025-08-20T18:53	10	0	0.1	0	0	395	0.2	395	396	16.4	96.9
2025-08-20T18:54	10	0	0.1	0	0	396	0.2	395	396	16.4	97.2
2025-08-20T18:55	10	0	0.1	0	0	395	0.2	395	396	16.4	97.1
2025-08-20T18:56	10	0	0.1	0	0	395	0.2	395	396	16.4	97.2
2025-08-20T18:57	10	0	0.1	0	0	395	0.3	395	396	16.3	97.2
2025-08-20T18:58	10	0	0.1	0	0	395	0.2	395	396	16.3	97.1
2025-08-20T18:59	10	0	0.1	0	0	395	0.2	394	395	16.3	97.2
2025-08-20T19:00	10	0	0.1	0	0	395	0.2	395	396	16.3	97.2
2025-08-20T19:01	10	0	0.1	0	0	395	0.2	395	396	16.3	97.4
2025-08-20T19:02	10	0	0.1	0	0	395	0.3	394	395	16.3	97.5
2025-08-20T19:03	10	0	0.1	0	0	395	0.3	394	395	16.3	97.5
2025-08-20T19:04	10	0	0.2	0	0	395	0.2	394	395	16.3	97.4
2025-08-20T19:05	10	0	0.1	0	0	395	0.2	394	395	16.3	97.6
2025-08-20T19:06	10	0	0.1	0	0	395	0.3	394	395	16.3	97.6
2025-08-20T19:07	10	0	0.1	0	0	395	0.2	394	395	16.3	97.8
2025-08-20T19:08	10	0	0.2	0	1	395	0.2	394	395	16.3	97.8
2025-08-20T19:09	10	0	0.1	0	0	395	0.3	394	395	16.3	97.9
2025-08-20T19:10	10	0	0.1	0	0	395	0.2	394	395	16.3	98.1
2025-08-20T19:11	10	0	0.2	0	0	395	0.3	394	395	16.3	98.0
2025-08-20T19:12	10	0	0.2	0	1	395	0.3	394	395	16.3	98.1
2025-08-20T19:13	10	0	0.1	0	0	395	0.2	394	395	16.3	98.2
2025-08-20T19:14	10	0	0.1	0	0	395	0.2	394	395	16.3	98.0
2025-08-20T19:15	10	0	0.2	0	1	395	0.2	394	396	16.3	97.9
2025-08-20T19:16	10	0	0.2	0	0	395	0.2	394	395	16.3	97.7
2025-08-20T19:17	10	0	0.1	0	0	395	0.3	394	396	16.3	97.9
2025-08-20T19:18	10	0	0.1	0	0	395	0.2	394	395	16.3	97.9
2025-08-20T19:19	10	0	0.1	0	0	395	0.3	394	396	16.3	97.9
2025-08-20T19:20	10	0	0.2	0	0	395	0.2	394	395	16.3	97.9
2025-08-20T19:21	10	0	0.1	0	0	395	0.3	395	396	16.3	98.0
2025-08-20T19:22	10	0	0.1	0	0	395	0.2	395	395	16.3	98.3
2025-08-20T19:23	10	0	0.1	0	0	395	0.3	394	396	16.3	98.1
2025-08-20T19:24	10	0	0.2	0	0	395	0.3	394	396	16.3	97.9
2025-08-20T19:25	10	0	0.1	0	0	395	0.2	395	396	16.3	98.2
2025-08-20T19:26	10	0	0.1	0	0	395	0.2	395	396	16.3	98.0
2025-08-20T19:27	10	0	0.2	0	1	395	0.2	394	396	16.3	97.8
2025-08-20T19:28	10	0	0.1	0	0	395	0.2	395	396	16.3	97.8
2025-08-20T19:29	10	0	0.2	0	1	395	0.2	395	395	16.3	97.7
2025-08-20T19:30	10	0	0.1	0	0	395	0.2	395	395	16.3	97.8
2025-08-20T19:31	10	0	0.1	0	0	395	0.2	395	395	16.3	97.9
2025-08-20T19:32	10	0	0.2	0	0	395	0.3	394	396	16.3	98.1
2025-08-20T19:33	10	0	0.1	0	0	395	0.2	395	395	16.3	98.1
2025-08-20T19:34	10	0	0.1	0	1	395	0.3	394	396	16.3	97.8
2025-08-20T19:35	10	0	0.1	0	0	395	0.2	395	396	16.3	97.8
2025-08-20T19:36	10	0	0.1	0	0	395	0.2	394	395	16.3	97.7
2025-08-20T19:37	10	0	0.1	0	0	395	0.2	395	396	16.3	97.8
2025-08-20T19:38	10	0	0.1	0	0	395	0.2	395	395	16.3	97.5
2025-08-20T19:39	10	0	0.1	0	0	395	0.2	395	396	16.3	97.3
2025-08-20T19:40	10	0	0.1	0	0	395	0.3	394	396	16.3	97.2
2025-08-20T19:41	10	0	0.2	0	1	395	0.2	395	395	16.3	96.9
2025-08-20T19:42	10	0	0.1	0	0	395	0.2	395	395	16.3	96.8
2025-08-20T19:43	10	0	0.1	0	0	395	0.2	394	395	16.3	96.4
2025-08-20T19:44	10	0	0.1	0	0	395	0.2	394	395	16.3	96.4
2025-08-20T19:45	10	0	0.1	0	0	395	0.2	395	395	16.3	96.6
2025-08-20T19:46	10	0	0.1	0	0	395	0.2	394	395	16.3	96.5
2025-08-20T19:47	10	0	0.1	0	0	395	0.2	395	395	16.4	96.8
2025-08-20T19:48	10	0	0.1	0	0	395	0.2	394	395	16.3	96.7
2025-08-20T19:49	10	0	0.1	0	0	395	0.2	394	395	16.3	96.8
2025-08-20T19:50	10	0	0.1	0	0	395	0.2	395	395	16.3	96.5
2025-08-20T19:51	10	0	0.1	0	0	395	0.2	394	396	16.4	96.1
2025-08-20T19:52	10	0	0.1	0	0	395	0.2	394	395	16.4	96.1
2025-08-20T19:53	10	0	0.0	0	0	395	0.2	394	395	16.4	96.1
2025-08-20T19:54	10	0	0.1	0	0	395	0.2	394	395	16.4	96.2
2025-08-20T19:55	10	0	0.1	0	0	395	0.2	394	395	16.4	96.2
2025-08-20T19:56	10	0	0.1	0	0	395	0.3	394	396	16.4	96.2
2025-08-20T19:57	10	0	0.1	0	0	395	0.2	395	395	16.4	96.2
2025-08-20T19:58	10	0	0.1	0	0	395	0.3	394	396	16.4	96.3
2025-08-20T19:59	10	0	0.1	0	0	395	0.2	395	396	16.4	96.2
2025-08-20T20:00	10	0	0.0	0	0	395	0.2	395	395	16.4	96.2
2025-08-20T20:01	10	0	0.1	0	0	395	0.2	395	395	16.3	96.3
2025-08-20T20:02	10	0	0.0	0	0	395	0.3	394	396	16.3	96.3
2025-08-20T20:03	10	0	0.1	0	0	395	0.2	394	395	16.3	96.4
2025-08-20T20:04	10	0	0.1	0	0	395	0.2	394	395	16.3	96.5
2025-08-20T20:05	10	0	0.0	0	0	395	0.2	394	395	16.3	96.2
2025-08-20T20:06	10	0	0.1	0	0	395	0.2	394	395	16.3	96.4
2025-08-20T20:07	10	0	0.1	0	0	395	0.2	394	395	16.3	96.9
2025-08-20T20:08	10	0	0.1	0	0	395	0.3	394	395	16.2	97.1
2025-08-20T20:09	10	0	0.1	0	0	395	0.2	394	395	16.2	97.2
2025-08-20T20:10	10	0	0.1	0	0	395	0.2	394	395	16.2	97.3
2025-08-20T20:11	10	0	0.1	0	0	395	0.2	394	395	16.2	97.6
2025-08-20T20:12	10	0	0.1	0	0	395	0.2	394	395	16.3	97.8
2025-08-20T20:13	10	0	0.1	0	0	395	0.2	394	395	16.3	98.1
2025-08-20T20:14	10	0	0.1	0	0	395	0.2	394	395	16.2	98.2
2025-08-20T20:15	10	0	0.0	0	0	395	0.2	395	396	16.2	98.3
2025-08-20T20:16	10	0	0.1	0	0	395	0.2	395	396	16.2	98.5
2025-08-20T20:17	10	0	0.0	0	0	395	0.1	395	395	16.2	98.3
2025-08-20T20:18	10	0	0.1	0	0	395	0.2	394	395	16.2	98.3
2025-08-20T20:19	10	0	0.0	0	0	395	0.2	395	396	16.1	98.0
2025-08-20T20:20	10	0	0.1	0	0	395	0.2	395	396	16.1	97.7
2025-08-20T20:21	10	0	0.1	0	0	395	0.3	394	396	16.1	97.2
2025-08-20T20:22	10	0	0.1	0	1	395	0.2	394	395	16.1	97.1
2025-08-20T20:23	10	0	0.1	0	0	395	0.2	395	396	16.1	97.3
2025-08-20T20:24	10	0	0.1	0	0	395	0.2	395	396	16.1	97.3
2025-08-20T20:25	10	0	0.1	0	0	395	0.2	395	396	16.2	97.3
2025-08-20T20:26	10	0	0.1	0	0	396	0.2	395	396	16.2	97.3
2025-08-20T20:27	10	0	0.1	0	0	395	0.2	395	396	16.2	97.4
2025-08-20T20:28	10	0	0.1	0	0	395	0.2	395	396	16.2	97.3
2025-08-20T20:29	10	0	0.1	0	0	396	0.3	395	396	16.2	97.3
2025-08-20T20:30	10	0	0.1	0	0	396	0.3	395	396	16.2	97.4
2025-08-20T20:31	10	0	0.1	0	0	395	0.2	395	396	16.2	97.1
2025-08-20T20:32	10	0	0.1	0	0	396	0.2	395	396	16.3	97.2
2025-08-20T20:33	10	0	0.1	0	0	395	0.2	395	396	16.3	97.0
2025-08-20T20:34	10	0	0.1	0	0	395	0.2	395	396	16.3	96.9
2025-08-20T20:35	10	0	0.1	0	0	395	0.2	395	396	16.3	97.0
2025-08-20T20:36	10	0	0.1	0	0	395	0.2	395	396	16.2	97.2
2025-08-20T20:37	10	0	0.1	0	0	395	0.2	395	396	16.3	96.8
2025-08-20T20:38	10	0	0.1	0	0	395	0.2	395	395	16.3	97.0
2025-08-20T20:39	10	0	0.1	0	0	395	0.2	394	395	16.3	97.0
2025-08-20T20:40	10	0	0.1	0	1	395	0.2	394	395	16.3	96.9
2025-08-20T20:41	10	0	0.1	0	0	395	0.2	394	396	16.3	97.1
2025-08-20T20:42	10	0	0.1	0	0	395	0.2	395	396	16.3	97.3
2025-08-20T20:43	10	0	0.1	0	0	395	0.2	394	395	16.2	97.1
2025-08-20T20:44	10	0	0.1	0	0	395	0.2	394	395	16.2	96.9
2025-08-20T20:45	10	0	0.1	0	0	395	0.2	394	395	16.2	96.9
2025-08-20T20:46	10	0	0.1	0	0	395	0.3	394	395	16.3	96.8
2025-08-20T20:47	10	0	0.1	0	0	395	0.2	394	395	16.3	97.0
2025-08-20T20:48	10	0	0.1	0	0	395	0.2	394	395	16.2	97.1
2025-08-20T20:49	10	0	0.1	0	0	395	0.2	395	396	16.2	97.0
2025-08-20T20:50	10	0	0.1	0	0	395	0.2	394	395	16.2	96.8
2025-08-20T20:51	10	0	0.1	0	0	395	0.2	394	395	16.2	96.7
2025-08-20T20:52	10	0	0.1	0	0	395	0.2	394	395	16.3	96.4
2025-08-20T20:53	10	0	0.1	0	0	395	0.2	395	395	16.3	96.4
2025-08-20T20:54	10	0	0.1	0	0	395	0.2	394	395	16.3	96.3
2025-08-20T20:55	10	0	0.1	0	0	395	0.2	394	395	16.3	96.2
2025-08-20T20:56	10	0	0.0	0	0	395	0.2	394	395	16.3	96.3
2025-08-20T20:57	10	0	0.1	0	0	395	0.2	394	395	16.3	96.3
2025-08-20T20:58	10	0	0.1	0	0	395	0.2	394	395	16.3	88.3
2025-08-20T20:59	10	0	0.1	0	0	395	0.2	394	395	16.3	94.7
2025-08-20T21:00	10	0	0.1	0	0	394	0.2	394	395	16.3	96.3
2025-08-20T21:01	10	0	0.1	0	0	394	0.2	394	395	16.3	96.3
2025-08-20T21:02	10	0	0.1	0	0	395	0.2	394	395	16.3	96.3
2025-08-20T21:03	10	0	0.1	0	0	395	0.2	394	395	16.3	96.1
2025-08-20T21:04	10	0	0.1	0	0	395	0.2	394	395	16.3	95.1
2025-08-20T21:05	10	0	0.1	0	0	394	0.2	394	395	16.3	95.7
2025-08-20T21:06	10	0	0.1	0	0	395	0.2	394	395	16.3	95.8
2025-08-20T21:07	10	0	0.1	0	0	394	0.2	394	395	16.3	95.6
2025-08-20T21:08	10	0	0.1	0	0	394	0.2	394	395	16.3	95.8
2025-08-20T21:09	10	0	0.1	0	0	394	0.2	394	395	16.3	95.8
2025-08-20T21:10	10	0	0.1	0	0	394	0.2	394	395	16.3	95.5
2025-08-20T21:11	10	0	0.1	0	0	394	0.3	393	395	16.3	95.6
2025-08-20T21:12	10	0	0.1	0	0	394	0.2	393	394	16.3	95.3
2025-08-20T21:13	10	0	0.1	0	0	394	0.2	393	394	16.3	95.6
2025-08-20T21:14	10	0	0.1	0	0	394	0.2	394	395	16.3	95.7
2025-08-20T21:15	10	0	0.1	0	0	394	0.2	394	394	16.3	96.0
2025-08-20T21:16	10	0	0.1	0	0	394	0.2	393	395	16.3	96.3
2025-08-20T21:17	10	0	0.1	0	0	394	0.2	393	394	16.3	96.4
2025-08-20T21:18	10	0	0.1	0	0	394	0.2	394	394	16.3	96.5
2025-08-20T21:19	10	0	0.1	0	0	394	0.2	393	394	16.3	96.7
2025-08-20T21:20	10	0	0.1	0	0	394	0.2	393	394	16.2	96.9
2025-08-20T21:21	10	0	0.1	0	0	394	0.2	393	394	16.2	97.0
2025-08-20T21:22	10	0	0.1	0	0	394	0.2	394	394	16.2	97.1
2025-08-20T21:23	10	0	0.1	0	0	394	0.2	393	394	16.2	97.2
2025-08-20T21:24	10	0	0.1	0	0	394	0.2	393	394	16.2	97.4
2025-08-20T21:25	10	0	0.1	0	0	394	0.2	393	394	16.1	97.5
2025-08-20T21:26	10	0	0.1	0	0	394	0.2	393	394	16.1	97.4
2025-08-20T21:27	10	0	0.1	0	0	393	0.3	393	394	16.1	97.5
2025-08-20T21:28	10	0	0.1	0	0	394	0.2	393	394	16.1	97.6
2025-08-20T21:29	10	0	0.1	0	0	394	0.2	393	394	16.1	97.7
2025-08-20T21:30	10	0	0.1	0	0	394	0.2	393	394	16.1	97.9
2025-08-20T21:31	10	0	0.1	0	0	394	0.2	393	394	16.1	97.9
2025-08-20T21:32	10	0	0.1	0	0	394	0.2	393	394	16.1	98.2
2025-08-20T21:33	10	0	0.1	0	0	394	0.2	393	394	16.0	98.3
2025-08-20T21:34	10	0	0.1	0	0	394	0.2	393	394	16.0	98.1
2025-08-20T21:35	10	0	0.1	0	0	394	0.2	393	394	16.0	98.0
2025-08-20T21:36	10	0	0.1	0	0	394	0.2	393	394	16.0	97.9
2025-08-20T21:37	10	0	0.1	0	0	394	0.2	393	394	16.0	97.9
2025-08-20T21:38	10	0	0.1	0	0	394	0.2	393	394	16.0	97.9
2025-08-20T21:39	10	0	0.1	0	0	393	0.2	393	394	16.0	97.9
2025-08-20T21:40	10	0	0.1	0	0	394	0.3	393	394	16.0	98.0
2025-08-20T21:41	10	0	0.1	0	0	394	0.2	393	394	16.0	98.0
2025-08-20T21:42	10	0	0.1	0	0	394	0.3	393	394	16.0	97.8
2025-08-20T21:43	10	0	0.1	0	0	393	0.2	393	394	16.0	97.6
2025-08-20T21:44	10	0	0.0	0	0	394	0.2	393	394	16.0	97.7
2025-08-20T21:45	10	0	0.1	0	0	394	0.2	393	394	16.0	97.7
2025-08-20T21:46	10	0	0.1	0	0	394	0.3	393	394	16.0	97.8
2025-08-20T21:47	10	0	0.1	0	0	393	0.2	393	394	16.0	97.7
2025-08-20T21:48	10	0	0.0	0	0	393	0.3	393	394	16.1	97.7
2025-08-20T21:49	10	0	0.1	0	0	394	0.2	393	394	16.0	97.9
2025-08-20T21:50	10	0	0.1	0	0	393	0.2	393	394	16.0	97.6
2025-08-20T21:51	10	0	0.1	0	0	394	0.2	393	394	16.0	97.7
2025-08-20T21:52	10	0	0.1	0	0	393	0.2	393	394	16.0	97.8
2025-08-20T21:53	10	0	0.1	0	0	393	0.2	393	394	16.0	97.8
2025-08-20T21:54	10	0	0.1	0	0	393	0.2	393	394	16.1	98.0
2025-08-20T21:55	10	0	0.1	0	0	393	0.3	393	394	16.0	97.9
2025-08-20T21:56	10	0	0.1	0	0	393	0.2	393	393	16.0	97.7
2025-08-20T21:57	10	0	0.1	0	0	393	0.2	393	394	16.0	97.9
2025-08-20T21:58	10	0	0.1	0	0	393	0.2	393	393	16.0	97.9
2025-08-20T21:59	10	0	0.1	0	0	393	0.2	393	394	16.0	97.8
2025-08-20T22:00	10	0	0.1	0	0	393	0.2	392	393	16.0	97.6
2025-08-20T22:01	10	0	0.1	0	0	393	0.2	393	394	16.0	97.6
2025-08-20T22:02	10	0	0.1	0	0	393	0.3	393	394	16.0	97.7
2025-08-20T22:03	10	0	0.1	0	0	393	0.2	393	394	16.0	97.9
2025-08-20T22:04	10	0	0.1	0	0	393	0.2	393	394	16.0	97.9
2025-08-20T22:05	10	0	0.1	0	0	393	0.3	393	394	16.0	97.8
2025-08-20T22:06	10	0	0.1	0	0	393	0.2	393	394	16.0	97.8
2025-08-20T22:07	10	0	0.0	0	0	393	0.2	393	394	16.0	98.1
2025-08-20T22:08	10	0	0.1	0	0	393	0.2	393	394	16.0	98.1
2025-08-20T22:09	10	0	0.1	0	0	394	0.2	393	394	16.0	98.2
2025-08-20T22:10	10	0	0.1	0	0	394	0.2	393	394	16.0	98.0
2025-08-20T22:11	10	0	0.1	0	0	394	0.2	393	394	16.0	98.0
2025-08-20T22:12	10	0	0.1	0	0	394	0.2	393	394	16.0	97.7
2025-08-20T22:13	10	0	0.0	0	0	394	0.2	393	394	16.0	97.7
2025-08-20T22:14	10	0	0.1	0	0	394	0.2	393	394	16.0	97.6
2025-08-20T22:15	10	0	0.1	0	0	394	0.2	393	394	16.1	97.4
2025-08-20T22:16	10	0	0.1	0	0	394	0.3	393	394	16.0	97.4
2025-08-20T22:17	10	0	0.1	0	0	394	0.2	393	394	16.1	97.2
2025-08-20T22:18	10	0	0.1	0	0	394	0.2	394	394	16.1	97.3
2025-08-20T22:19	10	0	0.1	0	0	394	0.2	393	394	16.0	97.4
2025-08-20T22:20	10	0	0.1	0	0	394	0.3	393	394	16.1	97.4
2025-08-20T22:21	10	0	0.1	0	0	394	0.2	393	394	16.1	97.6
2025-08-20T22:22	10	0	0.1	0	0	394	0.2	393	394	16.0	97.7
2025-08-20T22:23	10	0	0.1	0	0	394	0.2	393	394	16.0	97.5
2025-08-20T22:24	10	0	0.1	0	0	394	0.2	393	394	16.0	97.6
2025-08-20T22:25	10	0	0.1	0	0	394	0.2	393	394	16.0	97.7
2025-08-20T22:26	10	0	0.1	0	0	394	0.2	393	394	16.0	97.4
2025-08-20T22:27	10	0	0.1	0	0	394	0.2	393	394	16.0	97.5
2025-08-20T22:28	10	0	0.1	0	0	394	0.2	393	394	16.0	97.4
2025-08-20T22:29	10	0	0.1	0	0	394	0.2	393	394	16.0	97.1
2025-08-20T22:30	10	0	0.1	0	0	394	0.2	394	395	16.0	96.9
2025-08-20T22:31	10	0	0.1	0	0	394	0.2	394	395	16.1	96.8
2025-08-20T22:32	10	0	0.1	0	0	394	0.2	394	394	16.1	96.9
2025-08-20T22:33	10	0	0.1	0	0	394	0.2	394	395	16.1	97.1
2025-08-20T22:34	10	0	0.1	0	0	394	0.2	394	395	16.1	97.2
2025-08-20T22:35	10	0	0.1	0	0	394	0.2	393	394	16.1	97.4
2025-08-20T22:36	10	0	0.1	0	0	394	0.2	394	395	16.1	97.3
2025-08-20T22:37	10	0	0.1	0	0	394	0.2	394	395	16.1	97.4
2025-08-20T22:38	10	0	0.1	0	0	394	0.2	394	394	16.1	97.1
2025-08-20T22:39	10	0	0.1	0	0	394	0.2	394	395	16.1	96.9
2025-08-20T22:40	10	0	0.1	0	0	394	0.3	394	395	16.1	96.6
2025-08-20T22:41	10	0	0.1	0	0	394	0.2	394	395	16.1	96.5
2025-08-20T22:42	10	0	0.1	0	0	394	0.2	394	394	16.1	96.1
2025-08-20T22:43	10	0	0.1	0	0	394	0.3	394	395	16.1	95.6
2025-08-20T22:44	10	0	0.1	0	0	394	0.2	394	394	16.2	95.5
2025-08-20T22:45	10	0	0.1	0	0	394	0.2	393	394	16.2	95.8
2025-08-20T22:46	10	0	0.6	0	4	394	0.2	393	394	16.1	96.0
2025-08-20T22:47	10	0	0.1	0	0	394	0.2	393	394	16.1	95.8
2025-08-20T22:48	10	0	0.1	0	0	394	0.3	393	394	16.1	96.2
2025-08-20T22:49	10	0	0.1	0	0	394	0.2	393	394	16.1	95.8
2025-08-20T22:50	10	0	0.1	0	0	394	0.3	393	394	16.1	95.6
2025-08-20T22:51	10	0	0.1	0	0	393	0.2	393	394	16.1	95.7
2025-08-20T22:52	10	0	0.1	0	0	394	0.2	393	394	16.1	95.9
2025-08-20T22:53	10	0	0.1	0	0	394	0.2	393	394	16.1	95.7
2025-08-20T22:54	10	0	0.1	0	0	394	0.2	393	394	16.1	95.8
2025-08-20T22:55	10	0	0.1	0	0	394	0.2	393	394	16.1	95.7
2025-08-20T22:56	10	0	0.1	0	0	394	0.2	393	394	16.1	95.8
2025-08-20T22:57	10	0	0.1	0	0	394	0.2	393	394	16.1	95.6
2025-08-20T22:58	10	0	0.1	0	0	394	0.2	393	394	16.1	95.3
2025-08-20T22:59	10	0	0.1	0	0	394	0.3	393	394	16.1	95.1
2025-08-20T23:00	10	0	0.1	0	0	393	0.2	393	394	16.1	95.2
2025-08-20T23:01	10	0	0.1	0	0	393	0.2	393	394	16.1	95.3
2025-08-20T23:02	10	0	0.1	0	0	393	0.2	393	394	16.1	95.4
2025-08-20T23:03	10	0	0.1	0	0	393	0.2	393	394	16.1	95.5
2025-08-20T23:04	10	0	0.7	0	5	393	0.2	393	394	16.1	95.4
2025-08-20T23:05	10	0	0.1	0	0	393	0.2	393	394	16.1	95.7
2025-08-20T23:06	10	0	0.1	0	0	393	0.3	392	394	16.1	95.8
2025-08-20T23:07	10	0	0.0	0	0	393	0.2	392	393	16.1	95.9
2025-08-20T23:08	10	0	0.1	0	0	393	0.2	392	394	16.0	95.9
2025-08-20T23:09	10	0	0.1	0	0	393	0.2	392	393	16.0	95.6
2025-08-20T23:10	10	0	0.1	0	0	393	0.2	392	393	16.0	95.7
2025-08-20T23:11	10	0	0.0	0	0	393	0.2	392	393	16.0	95.8
2025-08-20T23:12	10	0	0.7	0	5	393	0.2	392	393	16.0	95.9
2025-08-20T23:13	10	0	0.1	0	0	393	0.2	392	393	16.0	96.3
2025-08-20T23:14	10	0	0.1	0	0	393	0.2	392	393	16.0	96.5
2025-08-20T23:15	10	0	0.1	0	0	393	0.2	392	393	16.0	96.4
2025-08-20T23:16	10	0	0.1	0	0	393	0.2	392	393	16.0	96.4
2025-08-20T23:17	10	0	0.1	0	0	393	0.3	392	394	16.0	96.5
2025-08-20T23:18	10	0	0.1	0	0	393	0.2	392	393	16.0	96.7
2025-08-20T23:19	10	0	0.1	0	0	393	0.3	392	394	15.9	96.5
2025-08-20T23:20	10	0	0.1	0	0	393	0.2	393	394	15.9	96.4
2025-08-20T23:21	10	0	0.1	0	0	393	0.2	393	394	16.0	96.5
2025-08-20T23:22	10	0	0.1	0	0	393	0.3	393	394	15.9	96.4
2025-08-20T23:23	10	0	0.1	0	0	393	0.2	392	393	16.0	96.5
2025-08-20T23:24	10	0	0.1	0	0	393	0.2	392	394	15.9	96.8
2025-08-20T23:25	10	0	0.1	0	0	393	0.2	393	393	15.9	96.7
2025-08-20T23:26	10	0	0.1	0	0	393	0.2	392	393	15.9	97.0
2025-08-20T23:27	10	0	0.1	0	0	393	0.2	392	393	15.9	97.1
2025-08-20T23:28	10	0	0.1	0	0	393	0.2	392	393	15.9	97.2
2025-08-20T23:29	10	0	0.1	0	0	393	0.2	392	393	15.9	97.0
2025-08-20T23:30	10	0	0.1	0	0	393	0.2	392	393	15.9	97.1
2025-08-20T23:31	10	0	0.1	0	0	392	0.3	392	393	15.9	96.9
2025-08-20T23:32	10	0	0.1	0	0	392	0.2	392	393	15.9	96.8
2025-08-20T23:33	10	0	0.1	0	0	392	0.2	392	393	15.9	96.6
2025-08-20T23:34	10	0	0.1	0	0	392	0.2	391	392	15.9	96.3
2025-08-20T23:35	10	0	0.1	0	0	392	0.2	391	392	15.9	96.5
2025-08-20T23:36	10	0	0.1	0	0	392	0.2	392	392	15.9	96.5
2025-08-20T23:37	10	0	0.1	0	0	392	0.2	391	392	15.9	96.3
2025-08-20T23:38	10	0	0.1	0	0	391	0.2	391	392	15.8	96.4
2025-08-20T23:39	10	0	0.1	0	0	391	0.2	391	392	15.8	96.6
2025-08-20T23:40	10	0	0.1	0	0	392	0.3	391	392	15.8	96.6
2025-08-20T23:41	10	0	0.1	0	0	392	0.2	391	392	15.8	96.7
2025-08-20T23:42	10	0	0.1	0	0	391	0.3	391	392	15.8	96.8
2025-08-20T23:43	10	0	0.1	0	0	391	0.2	391	392	15.8	96.8
2025-08-20T23:44	10	0	0.1	0	0	391	0.2	391	392	15.8	96.8
2025-08-20T23:45	10	0	0.1	0	0	391	0.2	390	392	15.8	96.7
2025-08-20T23:46	10	0	0.1	0	0	391	0.2	391	391	15.8	96.6
2025-08-20T23:47	10	0	0.1	0	0	391	0.2	391	392	15.8	96.8
2025-08-20T23:48	10	0	0.1	0	0	391	0.2	391	391	15.8	97.0
2025-08-20T23:49	10	0	0.1	0	0	391	0.2	391	392	15.8	97.1
2025-08-20T23:50	10	0	0.1	0	0	391	0.2	390	391	15.7	97.3
2025-08-20T23:51	10	0	0.1	0	0	391	0.2	391	391	15.7	97.3
2025-08-20T23:52	10	0	0.1	0	0	391	0.2	390	391	15.7	97.4
2025-08-20T23:53	10	0	0.1	0	0	391	0.2	390	391	15.7	97.4
2025-08-20T23:54	10	0	0.1	0	0	391	0.2	390	391	15.7	97.4
2025-08-20T23:55	10	0	0.1	0	0	391	0.2	390	391	15.7	97.3
2025-08-20T23:56	10	0	0.1	0	0	391	0.2	390	391	15.7	97.4
2025-08-20T23:57	10	0	0.1	0	0	391	0.3	390	391	15.7	97.3
2025-08-20T23:58	10	0	0.1	0	0	391	0.2	390	391	15.7	97.4
2025-08-20T23:59	10	0	0.1	0	0	391	0.2	390	391	15.7	97.3
2025-08-21T00:00	10	0	0.1	0	0	391	0.2	390	391	15.7	97.4
2025-08-21T00:01	10	0	0.1	0	0	391	0.2	390	391	15.6	97.4
2025-08-21T00:02	10	0	0.1	0	0	390	0.3	390	391	15.6	97.4
2025-08-21T00:03	10	0	0.1	0	0	391	0.2	390	391	15.6	97.5
2025-08-21T00:04	10	0	0.1	0	0	390	0.2	390	391	15.6	97.3
2025-08-21T00:05	10	0	0.1	0	0	390	0.2	390	391	15.6	97.4
2025-08-21T00:06	10	0	0.1	0	0	391	0.2	390	391	15.6	97.5
2025-08-21T00:07	10	0	0.1	0	0	390	0.2	390	391	15.6	97.5
2025-08-21T00:08	10	0	0.1	0	0	390	0.2	390	391	15.6	97.8
2025-08-21T00:09	10	0	0.1	0	0	391	0.2	390	391	15.6	97.7
2025-08-21T00:10	10	0	0.1	0	0	390	0.2	390	391	15.6	97.7
2025-08-21T00:11	10	0	0.1	0	0	390	0.2	390	391	15.6	97.6
2025-08-21T00:12	10	0	0.1	0	0	390	0.2	390	391	15.6	97.5
2025-08-21T00:13	10	0	0.1	0	0	390	0.2	390	391	15.6	97.4
2025-08-21T00:14	10	0	0.1	0	0	390	0.2	390	391	15.6	97.3
2025-08-21T00:15	10	0	0.1	0	0	390	0.2	390	391	15.6	97.2
2025-08-21T00:16	10	0	0.1	0	0	390	0.2	390	391	15.6	96.8
2025-08-21T00:17	10	0	0.1	0	0	390	0.2	390	391	15.6	96.8
2025-08-21T00:18	10	0	0.1	0	0	390	0.2	390	391	15.6	96.6
2025-08-21T00:19	10	0	0.1	0	0	391	0.2	390	391	15.6	96.4
2025-08-21T00:20	10	0	0.1	0	0	391	0.2	390	391	15.6	96.5
2025-08-21T00:21	10	0	0.1	0	0	391	0.2	390	391	15.6	96.4
2025-08-21T00:22	10	0	0.1	0	0	391	0.2	390	391	15.7	95.8
2025-08-21T00:23	10	0	0.1	0	0	391	0.2	390	391	15.7	95.9
2025-08-21T00:24	10	0	0.1	0	0	391	0.2	391	392	15.7	96.0
2025-08-21T00:25	10	0	0.1	0	0	391	0.2	390	391	15.7	95.9
2025-08-21T00:26	10	0	0.1	0	0	391	0.2	391	392	15.7	96.3
2025-08-21T00:27	10	0	0.1	0	0	391	0.2	391	391	15.7	96.5
2025-08-21T00:28	10	0	0.1	0	0	391	0.2	390	391	15.7	96.1
2025-08-21T00:29	10	0	0.1	0	0	391	0.2	391	392	15.7	95.9
2025-08-21T00:30	10	0	0.1	0	0	391	0.2	391	392	15.7	96.0
2025-08-21T00:31	10	0	0.1	0	0	391	0.3	391	392	15.7	95.8
2025-08-21T00:32	10	0	0.1	0	0	391	0.3	390	392	15.7	96.0
2025-08-21T00:33	10	0	0.1	0	0	391	0.2	390	391	15.7	96.0
2025-08-21T00:34	10	0	0.1	0	0	391	0.3	390	392	15.7	96.1
2025-08-21T00:35	10	0	0.1	0	0	391	0.2	391	392	15.7	96.1
2025-08-21T00:36	10	0	0.1	0	1	391	0.3	390	392	15.7	96.1
2025-08-21T00:37	10	0	0.1	0	0	391	0.3	390	391	15.7	96.1
2025-08-21T00:38	10	0	0.1	0	0	391	0.2	390	391	15.7	96.2
2025-08-21T00:39	10	0	0.1	0	0	391	0.2	391	391	15.6	96.5
2025-08-21T00:40	10	0	0.1	0	0	391	0.2	390	391	15.6	96.4
2025-08-21T00:41	10	0	0.1	0	0	391	0.2	390	391	15.6	96.4
2025-08-21T00:42	10	0	0.1	0	0	391	0.2	390	391	15.6	96.4
2025-08-21T00:43	10	0	0.1	0	0	391	0.3	391	392	15.7	96.1
2025-08-21T00:44	10	0	0.1	0	0	391	0.2	391	392	15.7	96.4
2025-08-21T00:45	10	0	0.1	0	0	391	0.4	390	392	15.6	96.2
2025-08-21T00:46	10	0	0.1	0	0	391	0.3	390	392	15.7	95.8
2025-08-21T00:47	10	0	0.1	0	0	391	0.3	390	392	15.7	95.9
2025-08-21T00:48	10	0	0.1	0	0	391	0.3	390	391	15.7	95.8
2025-08-21T00:49	10	0	0.1	0	0	391	0.2	390	391	15.7	95.9
2025-08-21T00:50	10	0	0.1	0	0	391	0.3	390	391	15.7	96.1
2025-08-21T00:51	10	0	0.1	0	1	391	0.3	390	391	15.7	95.7
2025-08-21T00:52	10	0	0.1	0	0	391	0.2	390	391	15.7	95.7
2025-08-21T00:53	10	0	0.1	0	0	390	0.2	390	391	15.7	95.7
2025-08-21T00:54	10	0	0.1	0	0	390	0.2	390	391	15.7	95.9
2025-08-21T00:55	10	0	0.1	0	0	390	0.2	390	391	15.7	95.8
2025-08-21T00:56	10	0	0.1	0	0	390	0.2	390	391	15.7	95.8
2025-08-21T00:57	10	0	0.1	0	0	390	0.3	389	391	15.6	96.0
2025-08-21T00:58	10	0	0.1	0	0	390	0.3	390	391	15.6	96.0
2025-08-21T00:59	10	0	0.1	0	0	390	0.2	390	391	15.7	95.6
2025-08-21T01:00	10	0	0.1	0	0	390	0.2	390	391	15.7	95.9
2025-08-21T01:01	10	0	0.1	0	0	390	0.2	390	391	15.6	95.9
2025-08-21T01:02	10	0	0.1	0	0	390	0.3	390	391	15.7	95.8
2025-08-21T01:03	10	0	0.1	0	0	390	0.3	390	391	15.7	96.2
2025-08-21T01:04	10	0	0.1	0	0	390	0.2	390	391	15.6	96.0
2025-08-21T01:05	10	0	0.1	0	0	390	0.2	389	391	15.6	95.9
2025-08-21T01:06	10	0	0.1	0	0	390	0.2	389	390	15.6	95.8
2025-08-21T01:07	10	0	0.1	0	0	390	0.2	389	391	15.7	95.6
2025-08-21T01:08	10	0	0.1	0	0	390	0.2	390	391	15.7	95.4
2025-08-21T01:09	10	0	0.1	0	0	390	0.4	390	391	15.7	95.5
2025-08-21T01:10	10	0	0.1	0	0	390	0.2	390	390	15.7	95.8
2025-08-21T01:11	10	0	0.1	0	0	390	0.2	390	390	15.6	95.7
2025-08-21T01:12	10	0	0.1	0	0	390	0.3	389	391	15.7	95.0
2025-08-21T01:13	10	0	0.1	0	0	390	0.3	389	391	15.7	94.9
2025-08-21T01:14	10	0	0.1	0	0	390	0.2	390	391	15.7	94.8
2025-08-21T01:15	10	0	0.1	0	0	390	0.3	390	391	15.7	95.0
2025-08-21T01:16	10	0	0.1	0	0	390	0.2	390	390	15.7	95.1
2025-08-21T01:17	10	0	0.1	0	0	390	0.3	389	391	15.7	95.3
2025-08-21T01:18	10	0	0.1	0	0	390	0.3	389	391	15.7	95.6
2025-08-21T01:19	10	0	0.1	0	0	390	0.3	389	391	15.6	95.5
2025-08-21T01:20	10	0	0.1	0	0	390	0.2	389	390	15.6	95.4
2025-08-21T01:21	10	0	0.1	0	0	390	0.2	389	390	15.6	95.6
2025-08-21T01:22	10	0	0.1	0	0	390	0.3	389	390	15.6	95.6
2025-08-21T01:23	10	0	0.1	0	0	390	0.3	389	390	15.6	95.8
2025-08-21T01:24	10	0	0.1	0	0	390	0.3	389	390	15.6	95.7
2025-08-21T01:25	10	0	0.1	0	0	390	0.3	389	391	15.6	95.9
2025-08-21T01:26	10	0	0.1	0	0	390	0.2	389	390	15.6	95.9
2025-08-21T01:27	10	0	0.1	0	0	390	0.2	389	390	15.6	96.1
2025-08-21T01:28	10	0	0.1	0	0	390	0.2	389	390	15.6	96.2
2025-08-21T01:29	10	0	0.1	0	0	390	0.2	389	390	15.5	96.4
2025-08-21T01:30	10	0	0.1	0	0	390	0.2	389	390	15.6	96.2
2025-08-21T01:31	10	0	0.1	0	0	390	0.2	389	390	15.6	96.4
2025-08-21T01:32	10	0	0.1	0	0	390	0.3	389	390	15.6	96.3
2025-08-21T01:33	10	0	0.1	0	0	390	0.2	389	390	15.6	96.2
2025-08-21T01:34	10	0	0.1	0	0	390	0.2	390	391	15.6	96.4
2025-08-21T01:35	10	0	0.1	0	0	390	0.2	389	390	15.5	96.4
2025-08-21T01:36	10	0	0.1	0	0	390	0.2	389	390	15.5	96.4
2025-08-21T01:37	10	0	0.1	0	0	390	0.3	389	391	15.5	96.3
2025-08-21T01:38	10	0	0.1	0	0	390	0.2	390	390	15.6	96.0
2025-08-21T01:39	10	0	0.1	0	0	390	0.2	389	390	15.6	96.1
2025-08-21T01:40	10	0	0.1	0	0	390	0.2	389	390	15.6	96.2
2025-08-21T01:41	10	0	0.1	0	0	390	0.2	390	391	15.6	96.3
2025-08-21T01:42	10	0	0.1	0	0	390	0.3	389	391	15.6	96.3
2025-08-21T01:43	10	0	0.1	0	0	390	0.3	390	391	15.6	96.0
2025-08-21T01:44	10	0	0.1	0	0	390	0.2	390	391	15.6	95.9
2025-08-21T01:45	10	0	0.1	0	0	390	0.2	390	391	15.6	95.8
2025-08-21T01:46	10	0	0.1	0	0	390	0.2	390	391	15.6	95.9
2025-08-21T01:47	10	0	0.1	0	0	390	0.2	390	391	15.6	96.0
2025-08-21T01:48	10	0	0.1	0	0	391	0.2	390	391	15.6	95.9
2025-08-21T01:49	10	0	0.1	0	0	391	0.3	390	391	15.6	95.7
2025-08-21T01:50	10	0	0.1	0	0	391	0.2	390	391	15.6	95.2
2025-08-21T01:51	10	0	0.1	0	0	390	0.2	390	391	15.6	95.4
2025-08-21T01:52	10	0	0.1	0	0	391	0.2	390	391	15.6	95.8
2025-08-21T01:53	10	0	0.1	0	0	391	0.3	390	391	15.6	95.5
2025-08-21T01:54	10	0	0.1	0	0	390	0.2	390	391	15.6	95.7
2025-08-21T01:55	10	0	0.1	0	0	391	0.3	390	391	15.6	95.8
2025-08-21T01:56	10	0	0.1	0	0	390	0.2	390	391	15.6	95.7
2025-08-21T01:57	10	0	0.1	0	0	391	0.2	390	391	15.6	95.4
2025-08-21T01:58	10	0	0.1	0	0	391	0.3	390	391	15.6	95.5
2025-08-21T01:59	10	0	0.1	0	0	391	0.3	390	391	15.6	96.0
2025-08-21T02:00	10	0	0.1	0	0	391	0.3	390	391	15.6	95.7
2025-08-21T02:01	10	0	0.1	0	0	391	0.2	390	391	15.6	95.4
2025-08-21T02:02	10	0	0.1	0	0	391	0.3	390	391	15.6	95.6
2025-08-21T02:03	10	0	0.1	0	0	391	0.2	390	391	15.6	95.5
2025-08-21T02:04	10	0	0.1	0	0	391	0.2	390	391	15.6	95.5
2025-08-21T02:05	10	0	0.1	0	0	391	0.3	390	391	15.6	95.7
2025-08-21T02:06	10	0	0.1	0	0	391	0.2	390	391	15.6	95.8
2025-08-21T02:07	10	0	0.1	0	0	391	0.2	390	391	15.6	95.8
2025-08-21T02:08	10	0	0.1	0	0	391	0.2	390	391	15.6	95.8
2025-08-21T02:09	10	0	0.1	0	0	391	0.3	390	391	15.6	95.7
2025-08-21T02:10	10	0	0.1	0	0	391	0.3	390	391	15.6	95.5
2025-08-21T02:11	10	0	0.1	0	0	391	0.2	390	391	15.6	95.8
2025-08-21T02:12	10	0	0.1	0	0	391	0.2	390	391	15.6	95.7
2025-08-21T02:13	10	0	0.1	0	0	391	0.2	390	391	15.6	95.7
2025-08-21T02:14	10	0	0.1	0	0	391	0.2	390	391	15.6	96.0
2025-08-21T02:15	10	0	0.1	0	0	391	0.2	390	391	15.6	96.3
2025-08-21T02:16	10	0	0.1	0	0	391	0.4	390	391	15.6	96.0
2025-08-21T02:17	10	0	0.1	0	0	391	0.3	390	391	15.6	96.1
2025-08-21T02:18	10	0	0.1	0	0	391	0.2	390	391	15.6	96.4
2025-08-21T02:19	10	0	0.1	0	0	391	0.3	390	391	15.6	96.1
2025-08-21T02:20	10	0	0.1	0	0	391	0.2	390	391	15.6	96.1
2025-08-21T02:21	10	0	0.1	0	0	391	0.3	390	391	15.6	96.2
2025-08-21T02:22	10	0	0.1	0	0	391	0.2	390	391	15.6	96.2
2025-08-21T02:23	10	0	0.1	0	0	391	0.3	390	391	15.6	96.2
2025-08-21T02:24	10	0	0.1	0	0	391	0.3	390	392	15.6	96.3
2025-08-21T02:25	10	0	0.1	0	0	391	0.2	390	391	15.6	96.0
2025-08-21T02:26	10	0	0.1	0	0	391	0.2	390	391	15.6	96.1
2025-08-21T02:27	10	0	0.1	0	0	391	0.3	390	392	15.6	95.8
2025-08-21T02:28	10	0	0.1	0	0	391	0.3	390	392	15.7	95.8
2025-08-21T02:29	10	0	0.1	0	0	391	0.2	390	391	15.7	95.8
2025-08-21T02:30	10	0	0.1	0	0	391	0.2	391	391	15.7	95.8
2025-08-21T02:31	10	0	0.1	0	0	391	0.2	390	391	15.7	95.7
2025-08-21T02:32	10	0	0.1	0	0	391	0.2	391	391	15.7	95.7
2025-08-21T02:33	10	0	0.1	0	0	391	0.2	391	392	15.7	95.9
2025-08-21T02:34	10	0	0.1	0	0	391	0.2	390	391	15.6	95.8
2025-08-21T02:35	10	0	0.1	0	0	391	0.2	390	391	15.7	95.6
2025-08-21T02:36	10	0	0.1	0	0	391	0.2	391	392	15.7	95.6
2025-08-21T02:37	10	0	0.1	0	0	391	0.2	390	391	15.7	95.8
2025-08-21T02:38	10	0	0.1	0	0	391	0.3	390	391	15.7	95.6
2025-08-21T02:39	10	0	0.1	0	0	391	0.3	390	392	15.7	95.7
2025-08-21T02:40	10	0	0.1	0	0	391	0.2	391	391	15.7	96.0
2025-08-21T02:41	10	0	0.1	0	0	391	0.2	390	391	15.6	96.0
2025-08-21T02:42	10	0	0.1	0	0	391	0.2	391	391	15.6	96.0
2025-08-21T02:43	10	0	0.1	0	0	391	0.2	390	392	15.6	96.1
2025-08-21T02:44	10	0	0.1	0	0	391	0.2	391	392	15.6	96.1
2025-08-21T02:45	10	0	0.1	0	0	391	0.2	391	392	15.6	96.1
2025-08-21T02:46	10	0	0.1	0	0	391	0.3	390	392	15.7	95.6
2025-08-21T02:47	10	0	0.1	0	0	391	0.2	391	392	15.7	95.5
2025-08-21T02:48	10	0	0.1	0	0	391	0.2	391	392	15.7	95.6
2025-08-21T02:49	10	0	0.1	0	0	391	0.2	391	392	15.7	95.6
2025-08-21T02:50	10	0	0.1	0	0	391	0.2	391	392	15.7	95.5
2025-08-21T02:51	10	0	0.1	0	0	391	0.2	391	391	15.7	95.4
2025-08-21T02:52	10	0	0.1	0	0	391	0.2	391	392	15.7	95.9
2025-08-21T02:53	10	0	0.1	0	0	391	0.2	391	392	15.7	96.0
2025-08-21T02:54	10	0	0.1	0	0	391	0.3	390	392	15.7	95.8
2025-08-21T02:55	10	0	0.1	0	0	391	0.2	391	392	15.7	95.9
2025-08-21T02:56	10	0	0.1	0	0	391	0.2	391	392	15.7	95.9
2025-08-21T02:57	10	0	0.1	0	0	391	0.2	391	392	15.7	96.1
2025-08-21T02:58	10	0	0.1	0	0	391	0.3	391	392	15.7	95.8
2025-08-21T02:59	10	0	0.1	0	0	391	0.2	391	392	15.7	95.6
2025-08-21T03:00	10	0	0.1	0	0	391	0.2	391	392	15.7	95.7
2025-08-21T03:01	10	0	0.1	0	0	391	0.3	391	392	15.7	95.6
2025-08-21T03:02	10	0	0.1	0	0	391	0.3	391	392	15.7	95.8
2025-08-21T03:03	10	0	0.1	0	0	391	0.2	391	392	15.7	96.1
2025-08-21T03:04	10	0	0.1	0	0	391	0.2	391	392	15.7	96.0
2025-08-21T03:05	10	0	0.1	0	0	391	0.2	391	392	15.7	96.1
2025-08-21T03:06	10	0	0.1	0	0	391	0.2	391	392	15.7	96.3
2025-08-21T03:07	10	0	0.1	0	0	391	0.3	390	392	15.7	96.3
2025-08-21T03:08	10	0	0.1	0	0	391	0.2	391	392	15.7	96.3
2025-08-21T03:09	10	0	0.1	0	0	391	0.2	391	392	15.7	96.4
2025-08-21T03:10	10	0	0.1	0	0	391	0.2	391	392	15.6	96.3
2025-08-21T03:11	10	0	0.1	0	0	391	0.2	391	392	15.6	96.3
2025-08-21T03:12	10	0	0.1	0	0	391	0.2	391	392	15.6	96.4
2025-08-21T03:13	10	0	0.1	0	0	391	0.3	391	392	15.6	96.5
2025-08-21T03:14	10	0	0.1	0	0	391	0.2	391	392	15.6	96.5
2025-08-21T03:15	10	0	0.1	0	0	391	0.2	391	392	15.6	96.5
2025-08-21T03:16	10	0	0.1	0	0	391	0.2	391	391	15.6	96.5
2025-08-21T03:17	10	0	0.1	0	0	391	0.2	391	391	15.6	96.5
2025-08-21T03:18	10	0	0.1	0	0	391	0.2	391	392	15.6	96.4
2025-08-21T03:19	10	0	0.1	0	0	391	0.3	391	392	15.6	96.2
2025-08-21T03:20	10	0	0.1	0	0	391	0.2	391	392	15.6	96.2
2025-08-21T03:21	10	0	0.1	0	0	391	0.2	390	391	15.6	96.4
2025-08-21T03:22	10	0	0.1	0	0	391	0.2	391	392	15.6	96.2
2025-08-21T03:23	10	0	0.1	0	0	391	0.2	391	392	15.6	96.2
2025-08-21T03:24	10	0	0.1	0	0	391	0.2	391	392	15.6	96.2
2025-08-21T03:25	10	0	0.1	0	0	391	0.2	391	392	15.7	96.0
2025-08-21T03:26	10	0	0.1	0	0	391	0.2	391	392	15.7	96.2
2025-08-21T03:27	10	0	0.1	0	0	391	0.3	391	392	15.7	96.1
2025-08-21T03:28	10	0	0.1	0	0	391	0.3	391	392	15.6	96.1
2025-08-21T03:29	10	0	0.1	0	0	391	0.2	391	392	15.7	95.7
2025-08-21T03:30	10	0	0.1	0	0	391	0.2	391	392	15.7	95.8
2025-08-21T03:31	10	0	0.1	0	0	391	0.2	391	392	15.7	95.7
2025-08-21T03:32	10	0	0.1	0	0	391	0.2	391	392	15.7	95.8
2025-08-21T03:33	10	0	0.1	0	0	391	0.2	391	392	15.7	95.5
2025-08-21T03:34	10	0	0.1	0	0	391	0.3	391	392	15.7	95.4
2025-08-21T03:35	10	0	0.1	0	0	391	0.2	391	392	15.7	95.3
2025-08-21T03:36	10	0	0.1	0	0	391	0.2	391	392	15.7	95.5
2025-08-21T03:37	10	0	0.1	0	0	391	0.2	391	392	15.7	95.2
2025-08-21T03:38	10	0	0.1	0	0	392	0.2	391	392	15.7	95.3
2025-08-21T03:39	10	0	0.1	0	0	392	0.2	391	392	15.7	94.6
2025-08-21T03:40	10	0	0.1	0	0	391	0.2	391	392	15.7	94.6
2025-08-21T03:41	10	0	0.1	0	0	391	0.2	391	392	15.8	94.5
2025-08-21T03:42	10	0	0.1	0	0	391	0.2	391	392	15.8	94.6
2025-08-21T03:43	10	0	0.1	0	0	391	0.3	391	392	15.8	94.5
2025-08-21T03:44	10	0	0.1	0	0	391	0.2	391	392	15.8	94.5
2025-08-21T03:45	10	0	0.1	0	0	391	0.2	391	392	15.8	94.9
2025-08-21T03:46	10	0	0.1	0	0	391	0.2	391	392	15.8	95.0
2025-08-21T03:47	10	0	0.1	0	0	391	0.2	391	392	15.8	95.4
2025-08-21T03:48	10	0	0.1	0	0	391	0.2	391	392	15.7	95.6
2025-08-21T03:49	10	0	0.1	0	0	391	0.2	391	392	15.7	96.1
2025-08-21T03:50	10	0	0.1	0	0	391	0.2	391	392	15.7	96.2
2025-08-21T03:51	10	0	0.1	0	0	391	0.2	391	392	15.7	95.8
2025-08-21T03:52	10	0	0.1	0	0	391	0.2	391	392	15.7	95.6
2025-08-21T03:53	10	0	0.1	0	0	391	0.2	391	392	15.7	95.5
2025-08-21T03:54	10	0	0.1	0	0	391	0.2	391	392	15.7	95.4
2025-08-21T03:55	10	0	0.1	0	0	391	0.2	391	392	15.7	95.5
2025-08-21T03:56	10	0	0.1	0	0	391	0.2	391	392	15.7	95.6
2025-08-21T03:57	10	0	0.1	0	0	391	0.2	390	392	15.7	95.5
2025-08-21T03:58	10	0	0.1	0	0	391	0.2	391	392	15.7	95.7
2025-08-21T03:59	10	0	0.1	0	0	391	0.2	391	392	15.7	95.7
2025-08-21T04:00	10	0	0.1	0	0	391	0.2	391	392	15.7	95.8
2025-08-21T04:01	10	0	0.1	0	0	391	0.3	391	392	15.7	95.9
2025-08-21T04:02	10	0	0.1	0	0	391	0.2	391	392	15.7	95.8
2025-08-21T04:03	10	0	0.1	0	0	391	0.2	391	392	15.7	95.9
2025-08-21T04:04	10	0	0.1	0	0	391	0.3	391	392	15.7	96.2
2025-08-21T04:05	10	0	0.1	0	0	391	0.2	391	392	15.7	96.0
2025-08-21T04:06	10	0	0.1	0	0	391	0.2	391	392	15.7	96.2
2025-08-21T04:07	10	0	0.1	0	0	391	0.2	391	392	15.7	96.2
2025-08-21T04:08	10	0	0.1	0	0	391	0.2	391	392	15.6	95.8
2025-08-21T04:09	10	0	0.1	0	0	391	0.2	390	391	15.6	95.7
2025-08-21T04:10	10	0	0.1	0	0	391	0.3	390	391	15.6	95.6
2025-08-21T04:11	10	0	0.1	0	0	391	0.3	390	391	15.6	95.8
2025-08-21T04:12	10	0	0.1	0	0	391	0.3	390	392	15.6	95.7
2025-08-21T04:13	10	0	0.1	0	0	391	0.2	391	391	15.7	95.0
2025-08-21T04:14	10	0	0.1	0	0	391	0.2	391	392	15.7	94.1
2025-08-21T04:15	10	0	0.1	0	0	391	0.2	391	391	15.7	93.9
2025-08-21T04:16	10	0	0.1	0	0	391	0.2	390	391	15.7	94.1
2025-08-21T04:17	10	0	0.1	0	0	391	0.2	390	391	15.7	94.3
2025-08-21T04:18	10	0	0.1	0	0	391	0.3	390	391	15.7	94.1
2025-08-21T04:19	10	0	0.1	0	0	391	0.2	390	391	15.7	94.2
2025-08-21T04:20	10	0	0.1	0	0	391	0.2	390	391	15.7	94.2
2025-08-21T04:21	10	0	0.1	0	0	391	0.3	390	391	15.7	93.7
2025-08-21T04:22	10	0	0.1	0	0	390	0.3	390	391	15.7	93.9
2025-08-21T04:23	10	0	0.1	0	0	391	0.2	390	391	15.7	94.2
2025-08-21T04:24	10	0	0.1	0	0	391	0.2	390	391	15.7	94.5
2025-08-21T04:25	10	0	0.1	0	0	391	0.3	390	391	15.7	94.1
2025-08-21T04:26	10	0	0.1	0	0	391	0.2	390	391	15.7	94.3
2025-08-21T04:27	10	0	0.1	0	0	391	0.2	390	391	15.7	93.9
2025-08-21T04:28	10	0	0.1	0	0	390	0.2	390	391	15.7	94.2
2025-08-21T04:29	10	0	0.1	0	0	390	0.2	390	391	15.7	94.1
2025-08-21T04:30	10	0	0.1	0	0	390	0.2	390	391	15.7	94.4
2025-08-21T04:31	10	0	0.1	0	0	391	0.2	390	391	15.7	94.4
2025-08-21T04:32	10	0	0.1	0	0	390	0.2	390	391	15.7	94.2
2025-08-21T04:33	10	0	0.1	0	0	391	0.2	390	391	15.7	93.8
2025-08-21T04:34	10	0	0.1	0	0	391	0.2	390	391	15.7	93.7
2025-08-21T04:35	10	0	0.1	0	1	391	0.2	390	391	15.7	93.6
2025-08-21T04:36	10	0	0.1	0	1	391	0.2	390	391	15.7	93.2
2025-08-21T04:37	10	0	0.1	0	0	391	0.2	390	391	15.7	93.3
2025-08-21T04:38	10	0	0.1	0	1	391	0.2	390	391	15.7	93.9
2025-08-21T04:39	10	0	0.1	0	0	390	0.2	390	391	15.7	93.6
2025-08-21T04:40	10	0	0.1	0	0	390	0.2	390	391	15.7	93.9
2025-08-21T04:41	10	0	0.1	0	0	391	0.2	390	391	15.7	93.9
2025-08-21T04:42	10	0	0.1	0	0	391	0.2	390	391	15.7	93.6
2025-08-21T04:43	10	0	0.1	0	0	390	0.3	390	391	15.7	93.2
2025-08-21T04:44	10	0	0.1	0	0	391	0.2	390	391	15.7	93.2
2025-08-21T04:45	10	0	0.1	0	1	391	0.2	390	391	15.7	93.0
2025-08-21T04:46	10	0	0.1	0	1	391	0.2	390	391	15.7	93.3
2025-08-21T04:47	10	0	0.1	0	1	391	0.2	390	391	15.7	94.0
2025-08-21T04:48	10	0	0.1	0	1	391	0.3	390	391	15.6	94.0
2025-08-21T04:49	10	0	0.1	0	1	391	0.2	390	391	15.6	93.9
2025-08-21T04:50	10	0	0.1	0	1	391	0.2	390	391	15.6	94.2
2025-08-21T04:51	10	0	0.1	0	1	391	0.2	390	391	15.6	94.0
2025-08-21T04:52	10	0	0.1	0	1	391	0.2	390	392	15.6	94.1
2025-08-21T04:53	10	0	0.1	0	1	391	0.2	390	392	15.6	94.3
2025-08-21T04:54	10	0	0.1	0	1	391	0.3	390	392	15.6	93.9
2025-08-21T04:55	10	0	0.1	0	1	391	0.2	390	391	15.6	94.0
2025-08-21T04:56	10	0	0.1	0	1	391	0.2	391	391	15.6	94.3
2025-08-21T04:57	10	0	0.1	0	1	391	0.2	390	391	15.6	94.3
2025-08-21T04:58	10	0	0.1	0	1	391	0.2	391	392	15.6	93.9
2025-08-21T04:59	10	0	0.1	0	1	391	0.2	391	391	15.6	93.9
2025-08-21T05:00	10	1	0.1	0	1	391	0.2	391	392	15.6	93.9
2025-08-21T05:01	10	1	0.1	0	1	391	0.2	391	391	15.7	93.8
2025-08-21T05:02	10	1	0.1	0	1	391	0.3	390	391	15.6	94.0
2025-08-21T05:03	10	1	0.1	0	1	391	0.3	390	391	15.6	93.9
2025-08-21T05:04	10	1	0.1	0	1	391	0.2	390	391	15.7	93.3
2025-08-21T05:05	10	1	0.1	0	1	391	0.3	390	391	15.7	93.3
2025-08-21T05:06	10	1	0.1	1	1	391	0.2	390	391	15.7	93.4
2025-08-21T05:07	10	1	0.1	1	1	391	0.3	390	391	15.7	93.8
2025-08-21T05:08	10	1	0.1	1	1	391	0.2	390	391	15.7	93.6
2025-08-21T05:09	10	1	0.1	1	1	391	0.3	390	391	15.7	93.5
2025-08-21T05:10	10	1	0.1	1	1	391	0.3	390	391	15.7	93.3
2025-08-21T05:11	10	1	0.1	1	1	390	0.3	390	391	15.7	93.0
2025-08-21T05:12	10	1	0.1	1	2	391	0.3	390	391	15.8	92.7
2025-08-21T05:13	10	1	0.1	1	1	390	0.3	390	391	15.8	93.0
2025-08-21T05:14	10	1	0.1	1	2	391	0.3	390	391	15.8	92.8
2025-08-21T05:15	10	2	0.1	1	2	391	0.3	390	391	15.7	93.2
2025-08-21T05:16	10	2	0.1	2	2	391	0.2	390	391	15.7	93.3
2025-08-21T05:17	10	2	0.1	2	2	391	0.2	390	391	15.7	93.7
2025-08-21T05:18	10	2	0.1	2	2	391	0.3	390	391	15.7	93.7
2025-08-21T05:19	10	2	0.1	2	2	391	0.2	390	391	15.7	93.6
2025-08-21T05:20	10	2	0.1	2	2	391	0.2	390	391	15.7	93.5
2025-08-21T05:21	10	2	0.1	2	3	390	0.2	390	391	15.7	93.6
2025-08-21T05:22	10	2	0.1	2	3	391	0.2	390	391	15.7	93.6
2025-08-21T05:23	10	3	0.1	2	3	391	0.2	390	391	15.7	93.9
2025-08-21T05:24	10	3	0.1	2	3	391	0.2	390	391	15.7	93.8
2025-08-21T05:25	10	3	0.1	3	3	391	0.2	390	391	15.7	94.1
2025-08-21T05:26	10	3	0.1	3	3	391	0.2	390	391	15.7	93.9
2025-08-21T05:27	10	3	0.1	3	4	391	0.3	390	392	15.7	93.9
2025-08-21T05:28	10	4	0.1	3	4	391	0.3	390	391	15.7	94.2
2025-08-21T05:29	10	4	0.1	3	4	391	0.2	391	392	15.7	94.0
2025-08-21T05:30	10	4	0.1	4	4	391	0.2	391	392	15.7	93.8
2025-08-21T05:31	10	4	0.1	4	4	391	0.2	391	392	15.7	94.0
2025-08-21T05:32	10	4	0.1	4	5	391	0.3	391	392	15.7	93.9
2025-08-21T05:33	10	5	0.1	4	5	391	0.3	391	392	15.7	93.9
2025-08-21T05:34	10	5	0.1	5	5	391	0.2	391	392	15.7	93.8
2025-08-21T05:35	10	5	0.1	5	5	391	0.2	391	392	15.7	93.8
2025-08-21T05:36	10	5	0.1	5	5	392	0.2	391	392	15.7	94.0
2025-08-21T05:37	10	5	0.1	5	6	392	0.3	391	392	15.7	94.0
2025-08-21T05:38	10	5	0.1	5	6	392	0.2	392	392	15.7	93.9
2025-08-21T05:39	10	6	0.1	5	6	392	0.2	391	392	15.7	93.7
2025-08-21T05:40	10	6	0.1	6	6	392	0.2	392	392	15.7	93.4
2025-08-21T05:41	10	6	0.1	6	6	392	0.2	391	392	15.7	94.0
2025-08-21T05:42	10	6	0.1	6	7	392	0.3	392	393	15.7	94.0
2025-08-21T05:43	10	7	0.1	6	7	392	0.2	392	393	15.8	93.7
2025-08-21T05:44	10	7	0.1	6	7	393	0.2	392	393	15.8	94.0
2025-08-21T05:45	10	7	0.1	7	7	393	0.3	392	394	15.8	93.9
2025-08-21T05:46	10	7	0.1	7	8	393	0.2	393	393	15.8	93.4
2025-08-21T05:47	10	8	0.1	7	8	393	0.3	393	394	15.8	93.4
2025-08-21T05:48	10	8	0.2	8	8	393	0.2	393	394	15.8	93.5
2025-08-21T05:49	10	9	0.2	8	9	393	0.2	393	394	15.8	93.1
2025-08-21T05:50	10	9	0.2	9	10	393	0.2	393	394	15.8	93.2
2025-08-21T05:51	10	10	0.2	10	10	394	0.2	393	394	15.9	93.3
2025-08-21T05:52	10	11	0.2	10	11	394	0.3	393	395	15.8	93.2
2025-08-21T05:53	10	11	0.2	11	12	394	0.2	394	395	15.9	93.2
2025-08-21T05:54	10	12	0.2	12	13	394	0.2	394	395	15.9	92.9
2025-08-21T05:55	10	13	0.3	12	13	394	0.2	394	395	15.9	93.1
2025-08-21T05:56	10	14	0.2	13	14	395	0.4	394	395	15.9	93.1
2025-08-21T05:57	10	14	0.3	14	15	395	0.3	394	396	15.9	93.3
2025-08-21T05:58	10	15	0.1	15	15	395	0.3	394	396	15.9	92.9
2025-08-21T05:59	10	15	0.1	15	15	395	0.3	394	396	15.9	93.1
2025-08-21T06:00	10	16	1.0	15	21	395	0.4	395	396	15.9	93.2
2025-08-21T06:01	10	16	0.1	15	16	396	0.3	395	396	15.9	93.1
2025-08-21T06:02	10	16	0.1	16	16	396	0.3	395	396	15.9	93.1
2025-08-21T06:03	10	16	0.1	16	16	396	0.3	395	396	15.9	93.0
2025-08-21T06:04	10	16	0.1	16	17	396	0.3	395	397	15.9	93.3
2025-08-21T06:05	10	17	0.2	16	17	396	0.4	395	397	15.9	93.3
2025-08-21T06:06	10	17	0.1	17	17	396	0.3	395	396	15.9	93.1
2025-08-21T06:07	10	17	0.1	17	18	396	0.2	395	396	15.9	93.2
2025-08-21T06:08	10	18	0.1	18	18	395	0.2	395	396	16.0	92.7
2025-08-21T06:09	10	18	0.2	18	19	396	0.6	395	397	16.0	92.9
2025-08-21T06:10	10	19	0.2	18	19	397	0.3	396	398	16.0	93.7
2025-08-21T06:11	10	19	0.2	19	20	397	0.4	396	398	16.0	93.2
2025-08-21T06:12	10	20	0.3	20	21	397	0.3	396	397	16.0	92.1
2025-08-21T06:13	10	21	0.3	21	22	397	0.4	397	398	16.1	91.9
2025-08-21T06:14	10	22	0.2	22	23	397	0.3	397	398	16.1	92.0
2025-08-21T06:15	10	23	0.2	23	23	397	0.3	397	398	16.1	91.5
2025-08-21T06:16	10	24	0.2	23	24	398	0.3	397	399	16.1	92.0
2025-08-21T06:17	10	25	0.7	24	27	398	0.2	398	399	16.2	92.1
2025-08-21T06:18	10	34	3.5	27	38	399	0.6	398	400	16.2	92.1
2025-08-21T06:19	10	41	1.3	38	43	400	0.4	399	401	16.2	92.0
2025-08-21T06:20	10	38	3.0	35	43	400	0.6	399	401	16.3	92.0
2025-08-21T06:21	10	39	1.5	36	41	399	0.3	399	400	16.2	91.1
2025-08-21T06:22	10	29	2.4	27	35	399	0.6	398	400	16.3	90.7
2025-08-21T06:23	10	28	0.3	27	28	399	0.3	399	400	16.3	91.5
2025-08-21T06:24	10	29	0.5	28	30	400	0.3	399	401	16.3	91.4
2025-08-21T06:25	10	32	2.9	30	40	400	0.3	400	401	16.3	91.1
2025-08-21T06:26	10	43	0.6	41	44	401	0.6	400	402	16.4	91.0
2025-08-21T06:27	10	40	0.7	39	42	402	0.3	401	403	16.4	90.9
2025-08-21T06:28	10	45	2.7	39	47	403	0.4	402	403	16.4	91.3
2025-08-21T06:29	10	48	0.4	47	49	403	0.5	402	404	16.4	90.5
2025-08-21T06:30	10	48	0.3	48	49	404	0.3	403	404	16.4	90.3
2025-08-21T06:31	10	48	0.6	47	50	404	0.3	403	405	16.5	90.6
2025-08-21T06:32	10	51	0.3	50	51	404	0.4	403	405	16.5	89.5
2025-08-21T06:33	10	47	2.8	43	50	403	0.2	403	404	16.5	89.3
2025-08-21T06:34	10	54	2.4	47	57	405	1.0	403	407	16.6	90.9
2025-08-21T06:35	10	48	2.5	46	55	405	0.5	404	406	16.6	90.1
2025-08-21T06:36	10	49	2.2	46	52	405	0.2	404	405	16.6	89.6
2025-08-21T06:37	10	55	3.1	52	61	405	0.5	404	406	16.6	89.3
2025-08-21T06:38	10	53	7.8	38	60	407	0.4	406	408	16.7	89.8
2025-08-21T06:39	10	36	1.1	34	38	405	1.1	403	407	16.7	89.8
2025-08-21T06:40	10	34	0.3	33	34	404	0.3	403	405	16.6	89.6
2025-08-21T06:41	10	33	0.2	33	34	404	0.3	403	405	16.7	89.7
2025-08-21T06:42	10	33	0.3	32	33	404	0.3	403	404	16.7	88.9
2025-08-21T06:43	10	32	0.2	31	32	404	0.3	404	405	16.7	89.7
2025-08-21T06:44	10	31	0.1	31	31	404	0.5	403	405	16.7	89.9
2025-08-21T06:45	10	31	0.1	31	31	405	0.3	404	405	16.8	90.4
2025-08-21T06:46	10	31	0.1	31	31	405	0.3	404	405	16.8	89.5
2025-08-21T06:47	10	31	0.1	31	31	405	0.3	404	405	16.8	89.2
2025-08-21T06:48	10	30	0.5	29	31	405	0.3	404	405	16.8	89.1
2025-08-21T06:49	10	28	0.9	26	29	405	0.3	404	405	16.8	89.2
2025-08-21T06:50	10	24	0.9	23	26	404	0.2	404	405	16.9	89.6
2025-08-21T06:51	10	22	0.7	20	23	403	0.7	402	405	16.8	89.5
2025-08-21T06:52	10	19	0.6	18	20	403	0.3	402	403	16.8	89.9
2025-08-21T06:53	10	18	0.5	17	19	402	0.4	401	403	16.8	89.3
2025-08-21T06:54	10	16	0.4	16	17	401	0.2	401	402	16.8	90.0
2025-08-21T06:55	10	15	0.3	15	16	401	0.3	401	402	16.8	89.9
2025-08-21T06:56	10	15	0.1	14	15	401	0.3	400	402	16.8	90.3
2025-08-21T06:57	10	15	0.1	14	15	400	0.3	400	401	16.8	90.2
2025-08-21T06:58	10	15	0.1	14	15	401	0.3	400	401	16.8	90.3
2025-08-21T06:59	10	15	0.1	15	15	401	0.4	400	401	16.8	90.5
2025-08-21T07:00	10	15	0.1	15	15	401	0.5	400	402	16.8	90.2
2025-08-21T07:01	10	16	0.2	15	16	401	0.4	400	402	16.8	89.5
2025-08-21T07:02	10	16	0.3	16	17	400	0.3	399	401	16.8	89.0
2025-08-21T07:03	10	17	0.3	17	18	400	0.4	399	401	16.8	88.5
2025-08-21T07:04	10	18	0.4	18	19	400	0.3	400	401	16.8	87.8
2025-08-21T07:05	10	20	0.5	19	21	400	0.3	400	401	16.8	88.2
2025-08-21T07:06	10	21	0.4	20	22	400	0.5	399	401	16.8	88.0
2025-08-21T07:07	10	22	0.3	22	23	400	0.4	400	401	16.8	87.7
2025-08-21T07:08	10	23	0.4	23	24	401	0.4	400	402	16.8	87.2
2025-08-21T07:09	10	24	0.2	23	24	401	0.3	400	401	16.8	86.6
2025-08-21T07:10	10	24	0.2	24	25	401	0.3	400	401	16.8	86.8
2025-08-21T07:11	10	24	0.2	23	24	402	0.4	401	402	16.8	87.0
2025-08-21T07:12	10	23	0.3	23	24	402	0.3	401	403	16.9	87.3
2025-08-21T07:13	10	22	0.2	22	23	402	0.7	401	403	16.8	87.1
2025-08-21T07:14	10	22	0.2	22	22	401	0.2	400	401	16.8	86.5
2025-08-21T07:15	10	21	0.2	21	22	401	0.4	400	402	16.8	87.1
2025-08-21T07:16	10	21	0.2	20	21	402	0.3	401	403	16.8	87.5
2025-08-21T07:17	10	20	0.2	20	21	401	0.4	400	402	16.8	86.7
2025-08-21T07:18	10	20	0.2	19	21	401	0.4	400	401	16.8	86.6
2025-08-21T07:19	10	20	0.2	19	20	401	0.3	400	401	16.8	87.2
2025-08-21T07:20	10	19	0.2	19	20	401	0.3	400	401	16.7	86.4
2025-08-21T07:21	10	19	0.3	18	19	400	0.4	399	401	16.7	86.7
2025-08-21T07:22	10	18	0.2	17	18	400	0.3	399	400	16.7	86.8
2025-08-21T07:23	10	17	0.2	17	18	400	0.4	399	401	16.7	87.0
2025-08-21T07:24	10	17	0.3	16	17	400	0.2	399	400	16.7	87.2
2025-08-21T07:25	10	16	0.2	16	17	399	0.3	399	400	16.7	86.4
2025-08-21T07:26	10	16	0.2	15	16	400	0.3	399	400	16.7	87.2
2025-08-21T07:27	10	15	0.2	15	16	400	0.3	399	401	16.7	87.8
2025-08-21T07:28	10	15	0.2	15	15	399	0.4	399	400	16.7	87.3
2025-08-21T07:29	10	15	0.1	15	15	399	0.4	398	400	16.6	87.1
2025-08-21T07:30	10	15	0.2	15	16	399	0.3	398	399	16.6	86.7
2025-08-21T07:31	10	15	0.2	15	16	399	0.3	398	399	16.6	86.6
2025-08-21T07:32	10	16	0.2	15	16	399	0.5	398	400	16.6	87.2
2025-08-21T07:33	10	16	0.2	16	17	399	0.4	398	399	16.5	86.8
2025-08-21T07:34	10	17	0.2	16	17	399	0.3	398	399	16.5	87.1
2025-08-21T07:35	10	17	0.2	16	17	399	0.3	398	400	16.5	87.5
2025-08-21T07:36	10	17	0.2	17	17	399	0.4	398	400	16.5	88.7
2025-08-21T07:37	10	17	0.2	17	18	399	0.3	399	400	16.5	88.1
2025-08-21T07:38	10	18	0.2	17	18	400	0.4	399	400	16.5	88.6
2025-08-21T07:39	10	18	0.2	18	19	400	0.3	399	401	16.5	88.3
2025-08-21T07:40	10	19	0.2	18	19	400	0.2	399	400	16.5	88.1
2025-08-21T07:41	10	19	0.2	19	19	400	0.3	399	400	16.5	87.8
2025-08-21T07:42	10	19	0.2	19	20	400	0.3	399	401	16.5	88.2
2025-08-21T07:43	10	19	0.2	19	20	400	0.3	399	401	16.6	88.2
2025-08-21T07:44	10	20	0.2	19	20	400	0.3	399	400	16.5	87.6
2025-08-21T07:45	10	20	0.2	19	21	400	0.3	399	401	16.5	87.9
2025-08-21T07:46	10	20	0.1	20	20	401	0.3	400	401	16.6	88.1
2025-08-21T07:47	10	20	0.1	20	20	401	0.3	400	401	16.6	88.3
2025-08-21T07:48	10	20	0.2	20	21	401	0.4	400	402	16.6	88.3
2025-08-21T07:49	10	20	0.2	20	20	401	0.3	401	402	16.6	88.7
2025-08-21T07:50	10	20	0.2	20	21	402	0.3	401	403	16.6	88.5
2025-08-21T07:51	10	20	0.1	20	21	402	0.3	402	403	16.6	89.2
2025-08-21T07:52	10	21	0.1	20	21	402	0.3	401	402	16.6	88.7
2025-08-21T07:53	10	21	0.2	20	21	401	0.3	401	403	16.6	88.2
2025-08-21T07:54	10	21	0.2	21	22	402	0.5	400	402	16.6	87.8
2025-08-21T07:55	10	22	0.2	21	22	402	0.3	401	403	16.7	88.3
2025-08-21T07:56	10	22	0.2	22	23	402	0.4	401	403	16.7	88.2
2025-08-21T07:57	10	23	0.2	22	23	403	0.5	402	403	16.7	88.8
2025-08-21T07:58	10	23	0.2	23	24	403	0.3	402	403	16.7	88.5
2025-08-21T07:59	10	24	0.3	23	25	403	0.3	402	404	16.7	88.1
2025-08-21T08:00	10	24	0.2	24	25	403	0.5	402	404	16.7	88.5
2025-08-21T08:01	10	24	0.1	24	25	404	0.3	403	404	16.8	88.9
2025-08-21T08:02	10	24	0.2	24	25	404	0.2	404	405	16.8	88.9
2025-08-21T08:03	10	24	0.2	24	24	404	0.6	403	405	16.8	87.8
2025-08-21T08:04	10	24	0.2	23	24	403	0.3	402	403	16.8	87.3
2025-08-21T08:05	10	23	0.1	23	24	403	0.3	403	404	16.8	87.7
2025-08-21T08:06	10	23	0.1	23	23	403	0.4	402	404	16.8	88.1
2025-08-21T08:07	10	23	0.1	23	23	403	0.3	402	403	16.8	87.3
2025-08-21T08:08	10	23	0.1	23	23	402	0.3	402	403	16.8	87.0
2025-08-21T08:09	10	23	0.1	23	24	403	0.2	402	403	16.8	87.3
2025-08-21T08:10	10	24	0.1	24	24	402	0.3	402	403	16.8	86.9
2025-08-21T08:11	10	24	0.2	24	25	403	0.6	402	404	16.9	87.8
2025-08-21T08:12	10	25	0.2	24	25	404	0.3	403	405	16.9	88.2
2025-08-21T08:13	10	25	0.1	25	25	404	0.5	403	405	16.9	87.6
2025-08-21T08:14	10	25	0.1	25	26	403	0.2	403	404	16.9	87.1
2025-08-21T08:15	10	25	0.2	24	25	404	0.4	403	405	16.9	87.2
2025-08-21T08:16	10	24	0.2	24	24	404	0.4	403	405	16.9	87.1
2025-08-21T08:17	10	23	0.2	23	24	404	0.4	403	405	16.9	87.5
2025-08-21T08:18	10	23	0.2	22	23	405	0.4	404	406	17.0	88.4
2025-08-21T08:19	10	22	0.2	22	23	405	0.3	404	405	17.0	88.6
2025-08-21T08:20	10	22	0.1	22	22	404	0.8	402	405	17.0	86.8
2025-08-21T08:21	10	22	0.1	22	22	403	0.3	403	404	17.0	86.3
2025-08-21T08:22	10	22	0.2	22	22	404	0.4	403	405	17.0	86.9
2025-08-21T08:23	10	22	0.2	22	23	404	0.3	403	405	17.1	87.2
2025-08-21T08:24	10	23	0.2	23	24	405	0.2	404	405	17.1	86.3
2025-08-21T08:25	10	24	0.2	23	24	405	0.4	404	406	17.1	86.9
2025-08-21T08:26	10	24	0.2	24	25	405	0.4	404	405	17.1	85.9
2025-08-21T08:27	10	25	0.2	25	25	405	0.4	404	406	17.2	86.3
2025-08-21T08:28	10	26	0.1	25	26	406	0.3	405	406	17.2	86.1
2025-08-21T08:29	10	26	0.1	26	26	406	0.3	405	407	17.2	85.5
2025-08-21T08:30	10	26	0.1	26	27	406	0.3	405	406	17.3	85.4
2025-08-21T08:31	10	27	0.2	27	27	406	0.2	406	407	17.3	85.5
2025-08-21T08:32	10	28	0.3	27	28	406	0.3	406	407	17.3	85.1
2025-08-21T08:33	10	29	0.3	28	29	407	0.4	406	408	17.3	85.1
2025-08-21T08:34	10	30	0.4	29	30	408	0.4	407	408	17.4	85.2
2025-08-21T08:35	10	31	0.3	30	31	407	0.4	407	408	17.4	84.7
2025-08-21T08:36	10	32	0.3	31	33	407	0.4	407	408	17.4	84.7
2025-08-21T08:37	10	33	0.3	32	34	408	0.5	408	409	17.4	84.8
2025-08-21T08:38	10	34	0.3	33	35	410	0.5	409	411	17.4	85.3
2025-08-21T08:39	10	35	0.3	35	36	411	0.3	410	411	17.5	85.9
2025-08-21T08:40	10	36	0.2	36	36	411	0.2	410	411	17.5	86.1
2025-08-21T08:41	10	37	0.2	36	37	412	0.4	410	412	17.6	86.1
2025-08-21T08:42	10	37	0.3	37	38	411	0.3	411	412	17.6	85.6
2025-08-21T08:43	10	39	0.3	38	39	411	1.0	409	412	17.5	84.2
2025-08-21T08:44	10	40	0.4	39	40	411	0.3	410	411	17.5	84.1
2025-08-21T08:45	10	41	0.4	40	42	412	0.6	411	413	17.6	85.4
2025-08-21T08:46	10	43	0.6	42	44	414	0.5	413	415	17.7	85.3
2025-08-21T08:47	10	45	0.5	44	45	414	0.3	414	415	17.7	85.1
2025-08-21T08:48	10	46	0.4	46	47	415	0.3	414	415	17.7	83.0
2025-08-21T08:49	10	47	0.3	47	48	415	0.3	414	416	17.8	84.0
2025-08-21T08:50	10	49	0.2	48	49	413	0.6	412	415	17.8	81.0
2025-08-21T08:51	10	49	0.2	49	50	415	0.4	413	415	17.8	82.3
2025-08-21T08:52	10	49	0.1	49	50	414	0.4	414	415	17.8	80.2
2025-08-21T08:53	10	49	0.3	48	49	415	0.5	414	415	17.8	79.8
2025-08-21T08:54	10	47	0.4	47	48	416	0.3	415	416	17.9	81.8
2025-08-21T08:55	10	46	0.3	46	47	415	0.3	415	416	17.9	81.0
2025-08-21T08:56	10	45	0.3	44	46	416	0.3	415	416	17.9	78.3
2025-08-21T08:57	10	44	0.2	44	44	416	0.3	415	417	17.8	75.2
2025-08-21T08:58	10	43	0.2	43	44	416	0.3	415	417	17.9	81.0
2025-08-21T08:59	10	43	0.1	43	44	415	0.4	415	417	17.9	81.0
2025-08-21T09:00	10	44	0.3	43	44	416	0.3	415	417	17.9	81.0
2025-08-21T09:01	10	45	0.3	44	45	417	0.4	416	418	17.9	81.0
2025-08-21T09:02	10	46	0.3	46	47	416	0.5	415	417	17.9	81.0
2025-08-21T09:03	10	47	0.3	47	48	415	0.4	414	416	17.9	79.7
2025-08-21T09:04	10	48	0.3	48	49	416	0.3	415	416	18.0	80.2
2025-08-21T09:05	10	49	0.2	49	50	416	0.3	416	417	18.0	78.8
2025-08-21T09:06	10	50	0.1	49	50	417	0.3	416	417	18.0	79.5
2025-08-21T09:07	10	50	0.1	49	50	418	0.4	417	419	18.1	79.9
2025-08-21T09:08	10	49	0.1	49	50	419	0.5	418	420	18.1	80.3
2025-08-21T09:09	10	49	0.2	49	49	419	0.5	418	420	18.1	79.2
2025-08-21T09:10	10	49	0.1	48	49	419	0.3	418	419	18.1	78.7
2025-08-21T09:11	10	49	0.2	48	49	418	0.4	417	419	18.1	79.2
2025-08-21T09:12	10	48	0.3	47	48	418	0.5	417	419	18.1	79.5
2025-08-21T09:13	10	47	0.4	46	47	419	0.4	419	420	18.2	80.7
2025-08-21T09:14	10	45	0.5	44	46	419	0.2	418	420	18.2	80.5
2025-08-21T09:15	10	44	0.5	43	45	419	0.3	418	420	18.3	80.1
2025-08-21T09:16	10	42	0.5	41	43	419	0.5	418	420	18.3	80.3
2025-08-21T09:17	10	41	0.4	40	42	418	0.8	416	420	18.3	79.4
2025-08-21T09:18	10	40	0.2	39	40	416	0.5	416	417	18.1	79.3
2025-08-21T09:19	10	39	0.1	39	39	417	0.3	416	417	18.2	79.9
2025-08-21T09:20	10	40	0.3	39	40	417	0.3	416	418	18.2	80.2
2025-08-21T09:21	10	41	0.5	40	42	416	0.5	415	417	18.2	78.3
2025-08-21T09:22	10	43	0.4	42	43	416	0.2	416	417	18.1	78.9
2025-08-21T09:23	10	44	0.3	43	44	416	0.3	415	417	18.1	79.0
2025-08-21T09:24	10	45	0.3	44	45	417	0.4	416	417	18.1	79.4
2025-08-21T09:25	10	46	0.3	45	46	418	0.4	417	418	18.1	79.1
2025-08-21T09:26	10	47	0.3	46	47	418	0.5	417	419	18.1	79.1
2025-08-21T09:27	10	48	0.4	47	49	418	0.4	417	419	18.1	78.6
2025-08-21T09:28	10	49	0.2	48	49	418	0.5	417	419	18.1	78.7
2025-08-21T09:29	10	49	0.1	49	49	419	0.5	418	420	18.2	79.4
2025-08-21T09:30	10	49	0.1	49	49	419	0.3	419	420	18.2	79.7
2025-08-21T09:31	10	49	0.1	49	50	419	0.4	418	420	18.2	79.0
2025-08-21T09:32	10	50	0.1	49	50	420	0.3	419	421	18.2	79.5
2025-08-21T09:33	10	50	0.2	50	51	420	0.4	419	421	18.2	79.4
2025-08-21T09:34	10	51	0.3	51	52	420	0.7	419	421	18.2	78.7
2025-08-21T09:35	10	52	0.4	52	53	421	0.3	420	421	18.2	78.7
2025-08-21T09:36	10	54	0.7	53	55	422	0.8	420	423	18.3	79.9
2025-08-21T09:37	10	57	0.8	55	58	422	0.2	422	423	18.3	78.4
2025-08-21T09:38	10	60	0.8	58	61	422	0.2	422	423	18.2	77.9
2025-08-21T09:39	10	63	1.0	61	65	423	0.7	422	424	18.3	78.3
2025-08-21T09:40	10	67	1.2	65	69	425	0.9	424	426	18.3	78.9
2025-08-21T09:41	10	71	1.2	69	73	427	0.6	426	428	18.3	77.5
2025-08-21T09:42	10	75	1.2	73	78	428	0.5	427	429	18.3	77.3
2025-08-21T09:43	10	80	1.5	78	83	428	0.4	427	429	18.3	76.1
2025-08-21T09:44	10	86	1.7	83	88	430	1.0	428	432	18.3	77.1
2025-08-21T09:45	10	90	0.6	88	91	433	0.6	432	434	18.4	77.1
2025-08-21T09:46	10	91	0.1	90	91	435	0.9	433	436	18.5	77.3
2025-08-21T09:47	10	91	0.2	91	92	435	1.2	433	437	18.6	77.4
2025-08-21T09:48	10	92	0.4	92	93	434	1.0	432	436	18.5	77.1
2025-08-21T09:49	10	94	0.6	93	95	436	0.8	435	437	18.6	77.3
2025-08-21T09:50	10	96	0.6	95	97	435	0.6	434	436	18.6	75.5
2025-08-21T09:51	10	97	0.1	97	97	436	0.4	435	437	18.5	75.3
2025-08-21T09:52	10	96	0.5	95	97	437	0.5	436	438	18.6	75.0
2025-08-21T09:53	10	94	0.5	93	95	437	0.8	436	439	18.7	75.3
2025-08-21T09:54	10	93	0.3	92	93	438	1.1	436	440	18.9	76.4
2025-08-21T09:55	10	94	0.8	92	95	438	0.8	437	439	19.1	75.9
2025-08-21T09:56	10	96	0.6	94	96	437	0.2	437	438	18.8	75.2
2025-08-21T09:57	10	92	1.2	90	94	439	0.8	437	440	19.0	75.3
2025-08-21T09:58	10	90	0.2	90	91	438	0.6	437	439	18.9	74.0
2025-08-21T09:59	10	90	0.2	89	90	437	0.5	437	439	18.7	74.0
2025-08-21T10:00	10	89	0.2	89	90	439	0.4	438	440	18.7	75.2
2025-08-21T10:01	10	88	0.4	87	89	439	0.4	438	439	18.8	73.3
2025-08-21T10:02	10	87	0.5	86	88	437	0.9	436	439	18.9	72.8
2025-08-21T10:03	10	85	0.6	84	86	437	0.5	436	438	18.8	73.8
2025-08-21T10:04	10	83	0.6	82	84	438	0.8	437	439	18.9	74.2
2025-08-21T10:05	10	81	0.6	79	82	439	0.7	437	440	19.1	75.7
2025-08-21T10:06	10	78	1.0	76	79	438	0.6	437	439	19.0	72.6
2025-08-21T10:07	10	74	0.9	73	76	438	0.4	437	439	18.9	73.1
2025-08-21T10:08	10	71	1.1	69	73	437	0.5	436	438	18.9	74.5
2025-08-21T10:09	10	67	1.1	65	69	436	0.8	433	437	19.1	75.3
2025-08-21T10:10	10	64	0.7	63	65	433	0.6	432	434	19.0	73.1
2025-08-21T10:11	10	62	0.6	61	63	433	0.5	432	434	19.0	73.8
2025-08-21T10:12	10	60	0.7	58	61	433	0.5	432	434	19.0	73.2
2025-08-21T10:13	10	58	0.6	57	59	430	1.0	429	432	19.0	72.2
2025-08-21T10:14	10	56	0.6	54	57	431	0.7	429	432	19.0	73.0
2025-08-21T10:15	10	53	0.9	51	54	431	0.2	431	432	19.0	72.0
2025-08-21T10:16	10	50	1.1	48	51	431	0.2	430	431	19.0	72.7
2025-08-21T10:17	10	46	1.1	44	48	430	0.6	428	431	18.9	72.6
2025-08-21T10:18	10	42	0.9	41	44	427	0.9	426	429	18.9	71.7
2025-08-21T10:19	10	39	0.9	38	41	426	0.5	425	427	18.9	72.1
2025-08-21T10:20	10	37	0.7	35	38	425	0.7	423	425	19.0	73.1
2025-08-21T10:21	10	34	0.5	34	35	424	0.2	423	424	18.9	71.8
2025-08-21T10:22	10	33	0.5	32	34	423	0.4	422	423	18.9	72.2
2025-08-21T10:23	10	31	0.4	31	32	423	0.5	422	424	18.8	72.2
2025-08-21T10:24	10	30	0.3	29	31	424	0.2	423	424	18.9	72.3
2025-08-21T10:25	10	29	0.3	28	29	424	0.3	423	425	18.9	72.2
2025-08-21T10:26	10	28	0.3	27	28	423	0.3	422	423	18.9	72.2
2025-08-21T10:27	10	27	0.2	27	27	423	0.3	422	423	18.9	72.7
2025-08-21T10:28	10	27	0.1	27	27	423	0.3	422	423	19.0	73.3
2025-08-21T10:29	10	27	0.1	27	27	423	0.3	422	423	19.1	72.7
2025-08-21T10:30	10	27	0.2	27	28	422	0.3	422	423	19.2	72.5
2025-08-21T10:31	10	28	0.2	27	28	422	0.4	421	423	19.1	71.6
2025-08-21T10:32	10	29	0.3	28	29	421	0.6	420	422	19.0	72.6
2025-08-21T10:33	10	30	0.3	29	30	421	0.5	420	422	19.0	72.2
2025-08-21T10:34	10	30	0.2	30	31	421	0.3	421	422	19.0	71.9
2025-08-21T10:35	10	31	0.2	30	31	422	0.2	421	422	19.0	72.1
2025-08-21T10:36	10	30	0.1	30	30	422	0.4	421	423	19.0	71.2
2025-08-21T10:37	10	30	0.1	30	30	423	0.4	423	424	19.1	71.9
2025-08-21T10:38	10	30	0.1	29	30	424	0.2	423	424	19.1	71.9
2025-08-21T10:39	10	30	0.2	29	30	423	0.4	422	424	19.1	71.8
2025-08-21T10:40	10	29	0.2	29	29	422	0.2	422	423	19.0	72.0
2025-08-21T10:41	10	28	0.4	27	29	422	0.3	422	423	19.0	72.2
2025-08-21T10:42	10	26	0.5	25	27	422	0.5	421	422	19.0	72.4
2025-08-21T10:43	10	24	0.6	23	25	421	0.2	420	421	19.0	70.9
2025-08-21T10:44	10	22	0.6	21	23	420	0.6	419	421	19.0	69.4
2025-08-21T10:45	10	20	0.6	19	21	418	0.5	417	419	19.0	69.6
2025-08-21T10:46	10	19	0.5	18	20	418	0.3	417	418	19.1	68.8
2025-08-21T10:47	10	17	0.4	16	18	416	0.9	415	418	19.1	68.0
2025-08-21T10:48	10	16	0.3	15	16	415	0.5	414	416	19.1	68.6
2025-08-21T10:49	10	15	0.3	14	15	413	0.4	412	414	19.0	68.8
2025-08-21T10:50	10	14	0.2	14	14	413	0.3	412	414	19.1	69.8
2025-08-21T10:51	10	14	0.1	13	14	412	0.4	412	413	19.0	68.8
2025-08-21T10:52	10	13	0.1	13	14	412	0.3	412	413	19.0	69.2
2025-08-21T10:53	10	14	0.1	13	14	412	0.2	412	413	19.0	70.0
2025-08-21T10:54	10	14	0.1	14	14	412	0.6	411	413	18.9	70.5
2025-08-21T10:55	10	14	0.1	14	14	411	0.5	410	412	18.8	70.9
2025-08-21T10:56	10	14	0.1	14	14	410	0.2	409	411	18.8	71.1
2025-08-21T10:57	10	14	0.1	14	15	410	0.3	409	410	18.8	71.1
2025-08-21T10:58	10	15	0.2	14	15	410	0.4	409	411	18.8	71.3
2025-08-21T10:59	10	15	0.2	15	15	411	0.4	410	412	18.8	71.2
2025-08-21T11:00	10	15	0.2	15	16	411	0.3	410	411	18.7	70.8
2025-08-21T11:01	10	16	0.2	15	16	411	0.3	410	411	18.8	71.2
2025-08-21T11:02	10	16	0.2	16	17	410	0.3	410	411	18.6	71.7
2025-08-21T11:03	10	17	0.3	16	17	410	0.4	410	411	18.5	72.7
2025-08-21T11:04	10	18	0.3	17	18	411	0.3	410	412	18.6	73.4
2025-08-21T11:05	10	18	0.2	18	19	411	0.5	410	412	18.5	73.1
2025-08-21T11:06	10	19	0.3	19	20	412	0.3	411	412	18.5	73.5
2025-08-21T11:07	10	20	0.3	20	21	412	0.3	411	413	18.5	73.5
2025-08-21T11:08	10	21	0.4	21	22	413	0.5	412	414	18.5	74.3
2025-08-21T11:09	10	23	0.3	22	23	414	0.5	413	415	18.5	74.7
2025-08-21T11:10	10	24	0.3	23	24	414	0.2	414	415	18.5	74.6
2025-08-21T11:11	10	25	0.3	24	25	414	0.3	413	414	18.4	74.0
2025-08-21T11:12	10	26	0.3	25	26	414	0.6	413	416	18.5	74.2
2025-08-21T11:13	10	27	0.3	26	27	415	0.4	414	415	18.4	73.0
2025-08-21T11:14	10	28	0.3	27	28	415	0.4	414	416	18.4	73.4
2025-08-21T11:15	10	28	0.3	28	29	415	0.5	414	416	18.4	72.2
2025-08-21T11:16	10	30	0.3	29	30	415	0.3	414	416	18.4	73.0
2025-08-21T11:17	10	31	0.3	30	32	415	0.3	415	416	18.4	72.3
2025-08-21T11:18	10	32	0.3	31	32	416	0.4	415	416	18.4	71.9
2025-08-21T11:19	10	33	0.3	32	33	416	0.2	416	417	18.5	71.5
2025-08-21T11:20	10	34	0.3	33	35	417	0.8	416	418	18.6	72.0
2025-08-21T11:21	10	35	0.3	34	36	418	0.2	418	419	18.7	71.4
2025-08-21T11:22	10	36	0.2	35	36	419	0.3	418	419	18.8	69.9
2025-08-21T11:23	10	37	0.3	36	37	419	0.5	418	420	18.8	69.5
2025-08-21T11:24	10	38	0.3	37	38	421	0.5	420	422	18.9	70.2
2025-08-21T11:25	10	39	0.2	38	39	421	0.5	420	422	18.9	68.3
2025-08-21T11:26	10	39	0.3	39	40	421	0.3	420	421	18.8	68.3
2025-08-21T11:27	10	40	0.2	40	41	421	0.4	420	422	18.9	69.0
2025-08-21T11:28	10	41	0.3	41	41	422	0.4	421	423	18.9	69.5
2025-08-21T11:29	10	42	0.2	41	42	422	0.2	421	422	18.8	68.8
2025-08-21T11:30	10	42	0.2	42	43	422	0.2	422	422	18.8	69.1
2025-08-21T11:31	10	43	0.1	42	43	423	0.4	422	424	18.9	69.8
2025-08-21T11:32	10	42	0.1	42	43	424	0.5	423	425	18.9	68.6
2025-08-21T11:33	10	42	0.1	42	42	424	0.5	424	425	19.0	70.3
2025-08-21T11:34	10	42	0.1	41	42	425	0.4	424	425	19.1	69.2
2025-08-21T11:35	10	41	0.2	41	41	424	0.4	423	425	19.0	68.9
2025-08-21T11:36	10	41	0.1	41	41	424	0.3	423	425	19.0	69.4
2025-08-21T11:37	10	41	0.1	41	41	425	0.2	425	426	19.0	69.6
2025-08-21T11:38	10	41	0.2	41	42	425	0.8	423	426	19.0	68.9
2025-08-21T11:39	10	42	0.1	41	42	425	0.6	423	426	19.0	68.1
2025-08-21T11:40	10	42	0.2	42	43	425	0.6	424	426	19.0	68.5
2025-08-21T11:41	10	43	0.2	43	43	425	0.5	424	426	19.0	68.8
2025-08-21T11:42	10	44	0.2	43	44	426	0.4	425	426	19.0	68.1
2025-08-21T11:43	10	44	0.2	44	45	427	0.4	426	427	19.0	68.7
2025-08-21T11:44	10	45	0.1	45	45	427	0.2	427	428	19.1	68.5
2025-08-21T11:45	10	45	0.3	45	46	428	0.2	427	428	19.3	69.9
2025-08-21T11:46	10	46	0.3	46	47	428	0.2	427	428	19.3	69.3
2025-08-21T11:47	10	48	0.4	47	48	428	0.3	428	429	19.3	68.9
2025-08-21T11:48	10	49	0.5	48	50	429	0.3	428	429	19.1	68.7
2025-08-21T11:49	10	51	0.6	50	52	429	0.3	428	430	19.1	69.0
2025-08-21T11:50	10	53	1.0	52	55	428	0.3	427	429	19.1	67.2
2025-08-21T11:51	10	55	0.6	54	56	430	0.6	428	431	19.1	68.0
2025-08-21T11:52	10	54	0.2	54	55	429	0.3	428	430	19.0	67.5
2025-08-21T11:53	10	57	2.0	55	60	429	0.6	428	430	19.0	67.9
2025-08-21T11:54	10	63	1.6	60	65	431	0.7	430	432	19.0	68.0
2025-08-21T11:55	10	66	1.5	65	70	434	1.3	432	436	19.0	69.0
2025-08-21T11:56	10	67	1.9	64	70	435	0.6	434	436	19.2	68.4
2025-08-21T11:57	10	63	0.7	61	64	435	0.4	434	436	19.1	69.1
2025-08-21T11:58	10	62	0.4	62	63	433	0.6	433	435	19.1	68.3
2025-08-21T11:59	10	61	0.3	61	62	434	0.3	434	435	19.0	68.4
2025-08-21T12:00	10	61	0.1	61	61	435	0.4	434	436	19.1	68.8
2025-08-21T12:01	10	61	0.2	60	61	435	0.3	434	435	19.1	68.5
2025-08-21T12:02	10	60	0.2	59	60	434	0.3	434	435	19.1	68.7
2025-08-21T12:03	10	59	0.3	58	59	435	0.5	434	436	19.2	67.9
2025-08-21T12:04	10	58	0.5	57	59	432	1.0	431	434	19.3	68.4
2025-08-21T12:05	10	56	0.4	56	57	431	0.5	430	433	19.3	67.6
2025-08-21T12:06	10	55	0.2	55	56	430	0.2	430	431	19.4	66.9
2025-08-21T12:07	10	55	0.3	54	55	431	0.4	430	432	19.5	67.5
2025-08-21T12:08	10	54	0.3	53	54	430	0.8	428	431	19.5	65.6
2025-08-21T12:09	10	53	0.2	53	53	430	0.6	428	431	19.3	65.3
2025-08-21T12:10	10	53	1.5	52	63	429	0.5	428	430	19.2	65.7
2025-08-21T12:11	10	52	0.1	52	52	429	0.4	428	430	19.2	66.4
2025-08-21T12:12	10	52	0.1	52	52	431	0.5	430	432	19.2	66.9
2025-08-21T12:13	10	52	0.2	52	52	430	0.9	429	432	19.4	67.7
2025-08-21T12:14	10	52	0.1	52	52	429	0.5	428	430	19.4	67.1
2025-08-21T12:15	10	52	0.1	51	52	429	0.6	428	430	19.5	67.9
2025-08-21T12:16	10	52	0.1	52	52	429	0.3	428	429	19.3	66.4
2025-08-21T12:17	10	52	0.2	52	53	430	0.7	428	431	19.3	67.3
2025-08-21T12:18	10	53	0.1	52	53	429	0.6	429	431	19.2	65.8
2025-08-21T12:19	10	53	0.2	53	53	431	0.5	430	432	19.3	67.1
2025-08-21T12:20	10	54	0.2	53	54	432	0.5	431	433	19.5	68.1
2025-08-21T12:21	10	54	0.2	54	55	433	0.4	432	433	19.6	67.0
2025-08-21T12:22	10	55	0.2	55	55	431	0.7	430	432	19.5	66.8
2025-08-21T12:23	10	55	0.2	55	56	431	0.3	430	431	19.5	65.5
2025-08-21T12:24	10	56	0.2	56	56	431	0.4	431	432	19.4	65.9
2025-08-21T12:25	10	57	0.2	56	57	432	0.7	430	433	19.5	66.9
2025-08-21T12:26	10	57	0.1	57	57	429	0.9	428	431	19.4	65.0
2025-08-21T12:27	10	57	0.3	56	57	430	0.4	429	431	19.4	65.7
2025-08-21T12:28	10	56	0.2	55	56	431	0.2	430	431	19.5	65.3
2025-08-21T12:29	10	55	0.2	55	55	430	0.4	430	431	19.5	65.9
2025-08-21T12:30	10	54	0.2	54	55	430	0.4	430	431	19.3	65.0
2025-08-21T12:31	10	54	0.2	54	54	430	0.3	429	431	19.3	65.1
2025-08-21T12:32	10	54	0.1	54	54	430	0.6	429	431	19.3	64.7
2025-08-21T12:33	10	54	0.2	54	54	432	0.6	431	433	19.6	65.4
2025-08-21T12:34	10	54	1.2	54	63	432	0.3	431	433	19.6	64.0
2025-08-21T12:35	10	54	0.2	53	54	431	0.3	431	432	19.5	64.0
2025-08-21T12:36	10	53	0.4	52	53	432	0.6	431	433	19.6	64.9
2025-08-21T12:37	10	51	0.5	50	52	431	0.5	431	433	19.6	64.7
2025-08-21T12:38	10	50	0.4	49	50	431	0.3	430	431	19.5	64.8
2025-08-21T12:39	10	48	0.4	48	49	432	0.7	431	433	19.6	64.8
2025-08-21T12:40	10	47	1.1	47	53	432	0.8	430	433	19.7	65.5
2025-08-21T12:41	10	46	0.3	46	47	429	0.6	428	431	19.7	65.0
2025-08-21T12:42	10	45	0.2	45	46	428	0.5	427	429	19.5	64.3
2025-08-21T12:43	10	44	0.3	44	45	429	0.3	428	429	19.5	64.3
2025-08-21T12:44	10	44	0.2	43	44	429	0.5	427	430	19.4	64.4
2025-08-21T12:45	10	43	0.2	43	43	429	0.5	428	430	19.5	65.1
2025-08-21T12:46	10	42	0.2	42	42	430	0.7	429	432	19.6	66.2
2025-08-21T12:47	10	41	0.3	41	42	431	0.6	429	431	19.7	65.2
2025-08-21T12:48	10	40	0.3	40	41	429	0.6	428	430	19.5	65.2
2025-08-21T12:49	10	39	0.3	39	40	428	0.3	427	429	19.4	64.9
2025-08-21T12:50	10	38	0.2	38	39	428	0.4	427	429	19.5	66.6
2025-08-21T12:51	10	38	0.2	38	38	427	0.7	426	428	19.4	65.4
2025-08-21T12:52	10	38	0.1	37	38	426	0.3	425	427	19.5	66.5
2025-08-21T12:53	10	38	0.1	37	38	426	0.7	424	427	19.6	66.4
2025-08-21T12:54	10	38	0.1	38	38	424	0.4	423	425	19.3	64.2
2025-08-21T12:55	10	38	0.1	38	39	424	0.4	423	425	19.3	64.8
2025-08-21T12:56	10	39	0.2	38	39	425	0.4	424	425	19.4	65.3
2025-08-21T12:57	10	40	0.2	39	40	425	0.4	424	426	19.3	65.4
2025-08-21T12:58	10	40	0.2	40	41	425	0.2	425	426	19.4	65.1
2025-08-21T12:59	10	41	0.2	40	41	426	0.5	425	427	19.4	66.0
2025-08-21T13:00	10	41	0.2	41	42	426	0.2	426	427	19.4	65.3
2025-08-21T13:01	10	42	0.2	42	42	426	0.5	425	427	19.4	65.9
2025-08-21T13:02	10	43	0.2	42	43	426	0.3	426	427	19.3	65.6
2025-08-21T13:03	10	43	0.2	43	44	426	0.5	425	427	19.2	65.4
2025-08-21T13:04	10	44	0.1	44	44	428	0.7	426	429	19.2	65.7
2025-08-21T13:05	10	44	0.2	44	44	428	0.3	427	429	19.4	66.7
2025-08-21T13:06	10	44	0.1	44	45	427	0.4	426	428	19.4	66.8
2025-08-21T13:07	10	45	0.1	44	45	428	0.6	426	429	19.4	66.1
2025-08-21T13:08	10	45	0.2	45	46	426	0.4	425	427	19.3	65.6
2025-08-21T13:09	10	46	0.2	45	46	427	0.6	426	428	19.4	66.5
2025-08-21T13:10	10	46	0.2	46	47	427	0.4	427	428	19.5	66.2
2025-08-21T13:11	10	47	0.1	46	47	428	0.5	427	429	19.3	65.6
2025-08-21T13:12	10	47	0.1	47	47	427	0.7	426	429	19.3	66.0
2025-08-21T13:13	10	47	0.1	47	47	428	0.3	427	429	19.4	66.5
2025-08-21T13:14	10	47	0.1	47	47	428	0.3	427	429	19.3	65.7
2025-08-21T13:15	10	47	0.1	46	47	428	0.4	427	429	19.3	65.8
2025-08-21T13:16	10	47	0.2	47	48	430	0.4	429	431	19.3	66.2
2025-08-21T13:17	10	48	0.3	47	49	430	0.3	429	431	19.3	66.7
2025-08-21T13:18	10	49	0.4	49	50	430	0.7	428	431	19.5	66.7
2025-08-21T13:19	10	51	0.7	50	52	430	0.5	428	431	19.3	66.5
2025-08-21T13:20	10	53	0.5	52	54	431	0.3	430	432	19.4	67.3
2025-08-21T13:21	10	56	1.4	54	58	432	0.3	432	433	19.5	66.7
2025-08-21T13:22	10	59	0.9	58	60	434	0.9	432	435	19.5	66.9
2025-08-21T13:23	10	59	0.3	58	60	435	0.3	434	435	19.5	66.9
2025-08-21T13:24	10	59	0.5	58	59	435	0.3	434	436	19.7	67.6
2025-08-21T13:25	10	56	0.4	56	57	435	0.5	434	436	19.7	67.3
2025-08-21T13:26	10	55	0.6	54	56	433	0.6	432	435	19.5	66.3
2025-08-21T13:27	10	53	0.4	53	54	433	0.6	432	434	19.5	67.0
2025-08-21T13:28	10	52	0.3	52	53	433	0.5	431	433	19.4	66.4
2025-08-21T13:29	10	52	0.2	51	52	432	0.4	431	433	19.4	67.1
2025-08-21T13:30	10	51	0.3	50	51	432	0.5	431	433	19.4	66.2
2025-08-21T13:31	10	50	0.3	49	50	431	0.7	430	433	19.4	66.5
2025-08-21T13:32	10	49	0.3	48	49	430	1.1	429	432	19.5	66.5
2025-08-21T13:33	10	48	0.2	48	48	429	0.4	429	430	19.5	66.3
2025-08-21T13:34	10	47	0.1	47	48	430	0.4	429	431	19.4	66.4
2025-08-21T13:35	10	47	0.2	47	47	429	0.5	429	430	19.3	66.0
2025-08-21T13:36	10	46	0.3	46	47	430	0.3	429	431	19.4	67.0
2025-08-21T13:37	10	45	0.5	44	46	430	0.5	429	431	19.5	66.2
2025-08-21T13:38	10	43	0.4	43	44	429	0.4	428	429	19.4	65.5
2025-08-21T13:39	10	42	0.2	42	43	430	0.5	428	430	19.4	66.0
2025-08-21T13:40	10	42	0.1	42	42	430	0.5	429	431	19.5	66.1
2025-08-21T13:41	10	42	0.1	42	42	431	0.7	429	431	19.5	66.3
2025-08-21T13:42	10	42	0.1	42	42	429	0.4	429	430	19.4	66.7
2025-08-21T13:43	10	42	0.1	42	42	429	0.2	428	429	19.5	66.9
2025-08-21T13:44	10	42	0.1	42	42	428	0.7	427	429	19.5	66.9
2025-08-21T13:45	10	41	0.1	41	42	427	0.6	425	427	19.4	66.7
2025-08-21T13:46	10	41	0.1	41	41	426	0.5	425	427	19.2	66.7
2025-08-21T13:47	10	41	0.1	41	41	427	0.3	426	427	19.2	66.8
2025-08-21T13:48	10	41	0.1	40	41	426	0.3	426	427	19.2	67.1
2025-08-21T13:49	10	40	0.1	40	41	427	0.3	426	427	19.3	67.2
2025-08-21T13:50	10	40	0.2	39	40	426	0.6	425	427	19.3	66.6
2025-08-21T13:51	10	39	0.3	39	39	425	0.4	425	426	19.3	67.1
2025-08-21T13:52	10	38	0.4	37	38	425	0.7	424	426	19.3	67.2
2025-08-21T13:53	10	36	0.6	35	37	423	1.0	421	424	19.2	68.1
2025-08-21T13:54	10	34	0.6	33	35	421	0.4	420	422	19.0	68.3
2025-08-21T13:55	10	32	0.5	31	33	420	0.3	420	421	19.0	68.9
2025-08-21T13:56	10	31	0.4	30	32	421	0.3	420	421	19.1	69.6
2025-08-21T13:57	10	30	0.3	29	30	419	0.5	418	420	19.0	71.1
2025-08-21T13:58	10	29	0.2	29	29	418	0.3	417	419	18.9	72.3
2025-08-21T13:59	10	29	0.1	28	29	416	0.3	416	417	18.7	72.2
2025-08-21T14:00	10	28	0.1	28	29	415	0.6	414	417	18.6	72.6
2025-08-21T14:01	10	28	0.1	28	28	415	0.4	414	416	18.5	72.8
2025-08-21T14:02	10	28	0.1	27	28	414	0.8	413	415	18.5	71.9
2025-08-21T14:03	10	27	0.1	27	28	413	0.2	412	413	18.4	72.8
2025-08-21T14:04	10	27	0.1	27	27	413	0.2	412	413	18.3	73.4
2025-08-21T14:05	10	27	0.1	26	27	412	0.3	411	412	18.3	73.2
2025-08-21T14:06	10	26	0.1	26	27	412	0.2	411	412	18.2	73.8
2025-08-21T14:07	10	26	0.1	26	26	411	0.3	411	412	18.2	74.6
2025-08-21T14:08	10	26	0.1	26	26	411	0.4	411	412	18.2	75.3
2025-08-21T14:09	10	26	0.1	26	26	411	0.3	410	411	18.1	75.5
2025-08-21T14:10	10	26	0.1	26	26	411	0.4	410	412	18.1	77.2
2025-08-21T14:11	10	26	0.1	25	26	411	0.3	410	412	18.0	76.7
2025-08-21T14:12	10	25	0.2	25	26	410	0.2	410	411	18.0	76.9
2025-08-21T14:13	10	25	0.2	24	25	409	0.3	409	410	18.0	76.7
2025-08-21T14:14	10	24	0.2	24	24	409	0.2	408	409	17.9	76.3
2025-08-21T14:15	10	24	0.2	23	24	409	0.4	408	410	17.9	77.6
2025-08-21T14:16	10	23	0.1	23	24	410	0.5	409	410	17.9	79.6
2025-08-21T14:17	10	23	0.1	23	24	410	0.3	410	411	17.9	79.3
2025-08-21T14:18	10	24	0.1	23	24	410	0.2	409	410	17.8	78.7
2025-08-21T14:19	10	24	0.1	24	24	410	0.5	409	411	17.8	78.8
2025-08-21T14:20	10	24	0.1	24	24	410	0.2	410	411	17.8	78.3
2025-08-21T14:21	10	24	0.1	23	24	410	0.3	410	411	17.8	78.6
2025-08-21T14:22	10	23	0.1	23	24	411	0.3	410	412	17.8	79.3
2025-08-21T14:23	10	23	0.1	23	23	412	0.3	411	412	17.9	78.9
2025-08-21T14:24	10	23	0.1	23	23	412	0.4	411	413	17.9	80.2
2025-08-21T14:25	10	23	0.1	23	23	412	0.2	412	413	17.9	79.8
2025-08-21T14:26	10	22	0.1	22	23	413	0.3	412	413	17.9	79.6
2025-08-21T14:27	10	22	0.1	22	22	412	0.3	412	413	17.9	77.9
2025-08-21T14:28	10	22	0.2	22	22	412	0.3	412	413	17.9	76.4
2025-08-21T14:29	10	21	0.2	21	22	413	0.2	412	413	17.9	78.1
2025-08-21T14:30	10	21	0.2	20	21	412	0.3	412	413	17.9	77.6
2025-08-21T14:31	10	20	0.2	20	21	412	0.3	411	412	17.9	78.4
2025-08-21T14:32	10	20	0.2	19	20	412	0.2	412	412	17.9	76.9
2025-08-21T14:33	10	19	0.2	19	20	412	0.3	411	412	17.9	77.9
2025-08-21T14:34	10	19	0.2	18	19	412	0.3	411	412	17.9	78.2
2025-08-21T14:35	10	18	0.2	18	19	412	0.2	411	412	17.9	78.7
2025-08-21T14:36	10	18	0.2	18	19	411	0.3	411	412	17.9	79.5
2025-08-21T14:37	10	18	0.2	17	18	411	0.2	410	411	17.9	78.0
2025-08-21T14:38	10	18	0.2	17	18	410	0.4	409	411	17.9	76.7
2025-08-21T14:39	10	17	0.2	17	18	411	0.4	410	412	17.9	78.8
2025-08-21T14:40	10	17	0.2	17	18	411	0.2	410	412	17.9	78.2
2025-08-21T14:41	10	17	0.2	17	18	412	0.3	411	412	17.9	79.3
2025-08-21T14:42	10	17	0.1	17	17	412	0.2	411	412	18.0	80.1
2025-08-21T14:43	10	17	0.1	17	17	411	0.4	410	412	18.0	80.0
2025-08-21T14:44	10	17	0.1	17	17	411	0.2	410	411	17.9	78.2
2025-08-21T14:45	10	17	0.2	17	18	410	0.3	410	411	17.9	77.3
2025-08-21T14:46	10	17	0.2	17	18	410	0.3	410	411	17.9	76.6
2025-08-21T14:47	10	18	0.1	17	18	410	0.2	410	411	17.9	74.7
2025-08-21T14:48	10	18	0.1	18	18	410	0.3	410	411	17.9	77.1
2025-08-21T14:49	10	18	0.2	18	18	410	0.2	410	411	17.9	77.4
2025-08-21T14:50	10	18	0.1	18	19	411	0.2	410	411	17.9	78.4
2025-08-21T14:51	10	19	0.2	18	19	411	0.2	410	411	17.9	78.9
2025-08-21T14:52	10	19	0.1	19	19	411	0.2	411	411	17.9	80.2
2025-08-21T14:53	10	19	0.1	19	20	412	0.3	411	412	17.8	79.8
2025-08-21T14:54	10	20	0.1	19	20	412	0.2	411	412	17.8	80.4
2025-08-21T14:55	10	20	0.2	19	20	412	0.2	411	412	17.8	79.5
2025-08-21T14:56	10	20	0.1	20	20	412	0.2	411	412	17.8	79.9
2025-08-21T14:57	10	20	0.1	20	20	412	0.2	411	412	17.8	78.4
2025-08-21T14:58	10	20	0.1	19	20	412	0.2	411	412	17.9	77.7
2025-08-21T14:59	10	20	0.1	19	20	412	0.3	412	413	17.9	78.2
2025-08-21T15:00	10	19	0.1	19	20	412	0.2	412	413	17.9	79.5
2025-08-21T15:01	10	19	0.2	19	20	412	0.3	411	412	17.9	78.6
2025-08-21T15:02	10	19	0.1	19	19	411	0.3	411	412	17.9	79.7
2025-08-21T15:03	10	19	0.1	19	19	411	0.3	410	412	17.8	80.5
2025-08-21T15:04	10	19	0.1	19	19	411	0.2	411	412	17.8	80.9
2025-08-21T15:05	10	19	0.1	18	19	411	0.2	411	412	17.8	80.9
2025-08-21T15:06	10	19	0.1	18	19	411	0.2	411	411	17.8	80.3
2025-08-21T15:07	10	18	0.1	18	19	411	0.2	411	411	17.8	80.2
2025-08-21T15:08	10	18	0.1	18	18	411	0.3	410	411	17.8	80.9
2025-08-21T15:09	10	18	0.1	18	18	410	0.3	410	411	17.8	80.5
2025-08-21T15:10	10	18	0.1	18	18	410	0.3	410	411	17.8	80.5
2025-08-21T15:11	10	18	0.1	17	18	410	0.2	409	410	17.8	81.2
2025-08-21T15:12	10	17	0.1	17	18	410	0.2	409	410	17.8	80.5
2025-08-21T15:13	10	17	0.1	17	17	409	0.3	409	410	17.8	81.1
2025-08-21T15:14	10	17	0.1	17	17	409	0.3	408	409	17.7	80.1
2025-08-21T15:15	10	17	0.1	17	17	409	0.2	409	410	17.7	80.8
2025-08-21T15:16	10	17	0.1	17	17	409	0.2	409	410	17.7	82.0
2025-08-21T15:17	10	17	0.1	17	17	409	0.3	409	410	17.7	83.2
2025-08-21T15:18	10	17	0.1	17	17	409	0.2	408	409	17.7	82.2
2025-08-21T15:19	10	17	0.1	17	17	409	0.4	408	410	17.6	81.5
2025-08-21T15:20	10	17	0.1	17	17	409	0.3	409	410	17.6	82.8
2025-08-21T15:21	10	17	0.1	17	17	409	0.3	409	410	17.6	82.8
2025-08-21T15:22	10	17	0.1	17	17	409	0.3	409	410	17.6	83.4
2025-08-21T15:23	10	17	0.1	17	18	409	0.2	409	410	17.6	83.4
2025-08-21T15:24	10	18	0.1	17	18	409	0.3	409	410	17.6	84.6
2025-08-21T15:25	10	18	0.1	17	18	409	0.3	409	410	17.6	85.0
2025-08-21T15:26	10	18	0.1	18	18	409	0.3	408	409	17.6	83.2
2025-08-21T15:27	10	18	0.1	18	18	409	0.5	408	410	17.6	84.3
2025-08-21T15:28	10	18	0.1	18	18	409	0.3	409	410	17.6	85.7
2025-08-21T15:29	10	18	0.1	18	18	409	0.3	408	409	17.5	83.1
2025-08-21T15:30	10	18	0.1	18	18	408	0.2	408	409	17.5	82.1
2025-08-21T15:31	10	18	0.1	18	18	408	0.2	408	409	17.5	82.9
2025-08-21T15:32	10	18	0.1	18	18	409	0.2	408	409	17.5	83.8
2025-08-21T15:33	10	18	0.1	18	18	408	0.3	408	409	17.5	82.6
2025-08-21T15:34	10	18	0.1	18	18	409	0.3	408	409	17.5	83.2
2025-08-21T15:35	10	18	0.1	18	18	409	0.2	408	409	17.5	83.4
2025-08-21T15:36	10	18	0.1	18	18	409	0.2	408	409	17.5	82.4
2025-08-21T15:37	10	18	0.1	18	19	409	0.2	408	409	17.6	83.0
2025-08-21T15:38	10	18	0.1	18	19	409	0.2	408	409	17.6	84.8
2025-08-21T15:39	10	18	0.1	18	19	409	0.2	408	409	17.5	85.4
2025-08-21T15:40	10	19	0.1	18	19	409	0.2	408	409	17.6	85.2
2025-08-21T15:41	10	19	0.1	19	19	409	0.3	408	409	17.5	84.1
2025-08-21T15:42	10	19	0.1	19	19	409	0.2	409	409	17.5	84.2
2025-08-21T15:43	10	19	0.1	19	19	409	0.3	409	410	17.5	86.2
2025-08-21T15:44	10	19	0.1	19	19	410	0.2	409	410	17.6	86.8
2025-08-21T15:45	10	19	0.1	19	20	409	0.3	409	410	17.5	85.7
2025-08-21T15:46	10	19	0.1	19	19	409	0.3	409	410	17.6	86.5
2025-08-21T15:47	10	19	0.1	19	19	410	0.2	409	410	17.6	86.6
2025-08-21T15:48	10	19	0.1	19	19	409	0.4	408	410	17.6	85.2
2025-08-21T15:49	10	19	0.1	19	19	409	0.3	408	409	17.5	84.4
2025-08-21T15:50	10	19	0.1	19	19	409	0.2	408	409	17.5	84.8
2025-08-21T15:51	10	19	0.1	19	19	409	0.3	408	410	17.5	86.2
2025-08-21T15:52	10	19	0.1	19	19	409	0.3	409	410	17.6	86.7
2025-08-21T15:53	10	19	0.1	19	19	409	0.2	409	410	17.6	87.1
2025-08-21T15:54	10	19	0.1	19	19	409	0.3	408	410	17.6	86.8
2025-08-21T15:55	10	19	0.1	19	19	409	0.2	408	409	17.5	86.8
2025-08-21T15:56	10	19	0.1	19	19	409	0.3	408	409	17.5	86.8
2025-08-21T15:57	10	19	0.1	19	19	409	0.2	408	409	17.5	86.5
2025-08-21T15:58	10	19	0.1	19	19	408	0.4	408	409	17.5	85.4
2025-08-21T15:59	10	19	0.1	19	20	408	0.2	407	408	17.5	84.5
2025-08-21T16:00	10	20	0.1	19	20	408	0.3	407	409	17.5	83.9
2025-08-21T16:01	10	20	0.1	20	20	408	0.3	407	408	17.5	83.5
2025-08-21T16:02	10	20	0.1	20	20	408	0.3	407	408	17.5	84.0
2025-08-21T16:03	10	20	0.1	20	20	408	0.3	408	409	17.5	82.6
2025-08-21T16:04	10	20	0.1	20	20	408	0.4	407	409	17.5	82.7
2025-08-21T16:05	10	20	0.1	20	21	409	0.3	408	409	17.5	84.3
2025-08-21T16:06	10	20	0.1	20	21	409	0.2	408	409	17.5	84.4
2025-08-21T16:07	10	20	0.1	20	21	409	0.2	408	410	17.5	84.7
2025-08-21T16:08	10	21	0.1	20	21	409	0.2	408	409	17.5	85.5
2025-08-21T16:09	10	21	0.1	20	21	409	0.2	408	409	17.5	86.5
2025-08-21T16:10	10	21	0.1	20	21	409	0.4	408	410	17.5	84.3
2025-08-21T16:11	10	21	0.1	20	21	409	0.4	408	410	17.5	83.8
2025-08-21T16:12	10	21	0.1	20	21	409	0.2	409	409	17.5	85.2
2025-08-21T16:13	10	20	0.1	20	21	409	0.3	409	410	17.5	85.9
2025-08-21T16:14	10	20	0.1	20	21	409	0.2	409	410	17.5	85.4
2025-08-21T16:15	10	20	0.1	20	20	409	0.4	408	410	17.5	84.9
2025-08-21T16:16	10	20	0.1	20	20	409	0.3	408	409	17.5	85.7
2025-08-21T16:17	10	20	0.1	20	20	409	0.2	408	409	17.5	85.3
2025-08-21T16:18	10	20	0.1	20	20	409	0.3	408	410	17.5	85.5
2025-08-21T16:19	10	20	0.1	20	20	409	0.3	409	410	17.5	86.5
2025-08-21T16:20	10	20	0.1	20	20	410	0.2	409	410	17.5	87.3
2025-08-21T16:21	10	20	0.1	20	20	410	0.4	409	411	17.5	86.3
2025-08-21T16:22	10	20	0.1	20	20	409	0.3	409	410	17.5	85.3
2025-08-21T16:23	10	20	0.1	20	20	409	0.2	408	409	17.5	84.2
2025-08-21T16:24	10	20	0.1	19	20	409	0.2	409	410	17.5	85.3
2025-08-21T16:25	10	20	0.1	19	20	409	0.3	409	410	17.5	84.1
2025-08-21T16:26	10	19	0.1	19	20	409	0.3	408	409	17.5	85.3
2025-08-21T16:27	10	19	0.1	19	19	409	0.3	408	410	17.5	85.3
2025-08-21T16:28	10	19	0.1	19	19	409	0.2	409	410	17.6	86.9
2025-08-21T16:29	10	19	0.1	19	19	409	0.2	409	410	17.6	87.1
2025-08-21T16:30	10	19	0.1	18	19	409	0.4	408	410	17.6	87.2
2025-08-21T16:31	10	19	0.1	18	19	408	0.2	408	409	17.6	85.2
2025-08-21T16:32	10	19	0.1	18	19	408	0.2	408	409	17.6	85.2
2025-08-21T16:33	10	18	0.1	18	19	408	0.4	407	409	17.6	84.6
2025-08-21T16:34	10	18	0.1	18	19	408	0.3	407	409	17.6	85.2
2025-08-21T16:35	10	18	0.1	18	19	408	0.2	407	408	17.6	83.7
2025-08-21T16:36	10	18	0.1	18	18	408	0.3	407	408	17.6	84.6
2025-08-21T16:37	10	18	0.1	18	18	408	0.4	407	409	17.6	85.2
2025-08-21T16:38	10	18	0.1	18	18	408	0.3	407	408	17.6	83.8
2025-08-21T16:39	10	18	0.1	17	18	408	0.3	408	409	17.6	86.1
2025-08-21T16:40	10	18	0.1	17	18	408	0.2	407	408	17.6	84.5
2025-08-21T16:41	10	17	0.1	17	17	408	0.3	407	408	17.6	84.6
2025-08-21T16:42	10	17	0.1	17	17	408	0.3	407	408	17.6	84.9
2025-08-21T16:43	10	17	0.1	17	17	407	0.4	406	408	17.6	83.8
2025-08-21T16:44	10	17	0.1	17	17	407	0.3	406	408	17.6	82.8
2025-08-21T16:45	10	17	0.1	17	17	407	0.4	406	408	17.6	83.1
2025-08-21T16:46	10	17	0.1	16	17	407	0.2	407	408	17.6	83.6
2025-08-21T16:47	10	16	0.1	16	17	407	0.3	406	408	17.6	83.3
2025-08-21T16:48	10	16	0.1	16	16	407	0.3	407	408	17.6	83.9
2025-08-21T16:49	10	16	0.2	15	16	408	0.3	407	408	17.7	84.5
2025-08-21T16:50	10	15	0.1	15	15	407	0.3	407	408	17.7	84.7
2025-08-21T16:51	10	15	0.1	15	15	408	0.3	407	408	17.7	84.8
2025-08-21T16:52	10	15	0.1	14	15	408	0.3	407	409	17.7	86.0
2025-08-21T16:53	10	14	0.1	14	15	408	0.3	407	408	17.6	85.2
2025-08-21T16:54	10	14	0.1	14	14	408	0.2	407	408	17.6	84.5
2025-08-21T16:55	10	14	0.1	13	14	407	0.2	407	408	17.6	84.2
2025-08-21T16:56	10	13	0.1	13	13	408	0.3	407	408	17.6	84.5
2025-08-21T16:57	10	13	0.1	13	13	408	0.2	407	408	17.6	85.1
2025-08-21T16:58	10	13	0.1	12	13	407	0.3	407	408	17.7	85.5
2025-08-21T16:59	10	12	0.1	12	12	407	0.3	406	408	17.6	83.2
2025-08-21T17:00	10	12	0.1	12	12	407	0.2	406	407	17.6	83.7
2025-08-21T17:01	10	11	0.2	11	12	407	0.2	406	407	17.6	83.4
2025-08-21T17:02	10	11	0.2	11	11	407	0.2	406	407	17.6	82.9
2025-08-21T17:03	10	10	0.2	10	11	406	0.2	406	407	17.7	83.1
2025-08-21T17:04	10	10	0.2	9	10	406	0.2	406	407	17.7	83.9
2025-08-21T17:05	10	9	0.2	9	10	406	0.3	405	407	17.7	83.7
2025-08-21T17:06	10	9	0.2	8	9	406	0.3	405	406	17.7	83.4
2025-08-21T17:07	10	8	0.1	8	9	405	0.2	405	406	17.7	83.9
2025-08-21T17:08	10	8	0.2	7	8	405	0.3	405	406	17.7	83.7
2025-08-21T17:09	10	7	0.1	7	8	405	0.2	404	405	17.7	82.9
2025-08-21T17:10	10	7	0.1	7	7	405	0.2	404	405	17.7	83.7
2025-08-21T17:11	10	7	0.1	6	7	405	0.2	404	405	17.6	83.9
2025-08-21T17:12	10	6	0.1	6	7	404	0.3	404	405	17.6	83.7
2025-08-21T17:13	10	6	0.1	6	7	405	0.2	404	405	17.6	84.1
2025-08-21T17:14	10	6	0.1	6	7	404	0.3	404	405	17.6	83.7
2025-08-21T17:15	10	6	0.1	6	7	404	0.2	404	405	17.6	85.3
2025-08-21T17:16	10	7	0.2	6	7	404	0.3	404	405	17.6	84.9
2025-08-21T17:17	10	7	0.1	7	7	404	0.2	403	404	17.6	83.8
2025-08-21T17:18	10	8	0.1	7	8	404	0.3	404	405	17.6	85.1
2025-08-21T17:19	10	8	0.1	8	8	404	0.2	404	405	17.6	85.4
2025-08-21T17:20	10	8	0.1	8	8	404	0.3	404	405	17.5	85.1
2025-08-21T17:21	10	8	0.1	8	8	405	0.2	404	405	17.6	86.3
2025-08-21T17:22	10	8	0.1	8	9	405	0.3	404	405	17.5	87.0
2025-08-21T17:23	10	8	0.1	8	8	405	0.2	404	405	17.5	87.1
2025-08-21T17:24	10	8	0.1	8	8	405	0.3	405	406	17.5	86.8
2025-08-21T17:25	10	8	0.1	8	8	405	0.2	405	406	17.5	87.3
2025-08-21T17:26	10	8	0.1	8	8	406	0.2	405	406	17.5	88.1
2025-08-21T17:27	10	8	0.1	8	8	405	0.2	405	406	17.5	87.8
2025-08-21T17:28	10	7	0.1	7	8	405	0.2	405	406	17.5	87.7
2025-08-21T17:29	10	7	0.1	7	7	405	0.3	405	406	17.5	88.2
2025-08-21T17:30	10	7	0.1	7	7	405	0.2	405	406	17.5	87.4
2025-08-21T17:31	10	7	0.1	6	7	405	0.3	405	406	17.5	87.4
2025-08-21T17:32	10	6	0.1	6	6	405	0.3	404	405	17.5	87.4
2025-08-21T17:33	10	6	0.1	6	6	404	0.2	404	405	17.5	86.6
2025-08-21T17:34	10	5	0.1	5	6	404	0.2	404	405	17.4	86.4
2025-08-21T17:35	10	5	0.1	5	5	404	0.2	404	404	17.4	87.1
2025-08-21T17:36	10	5	0.1	4	5	404	0.2	403	405	17.4	87.4
2025-08-21T17:37	10	4	0.1	4	5	404	0.2	403	404	17.4	87.7
2025-08-21T17:38	10	4	0.1	4	4	403	0.3	402	404	17.4	87.9
2025-08-21T17:39	10	4	0.1	4	4	403	0.2	403	404	17.4	86.6
2025-08-21T17:40	10	4	0.1	3	4	403	0.3	403	404	17.4	87.7
2025-08-21T17:41	10	3	0.1	3	3	403	0.2	402	403	17.4	88.3
2025-08-21T17:42	10	3	0.1	3	3	403	0.2	402	403	17.3	88.7
2025-08-21T17:43	10	3	0.1	3	3	403	0.2	402	403	17.3	88.5
2025-08-21T17:44	10	3	0.1	2	3	403	0.2	402	403	17.3	87.3
2025-08-21T17:45	10	2	0.1	2	3	403	0.2	402	403	17.3	86.4
2025-08-21T17:46	10	2	0.1	2	2	402	0.2	402	403	17.3	86.0
2025-08-21T17:47	10	2	0.1	2	2	402	0.2	402	403	17.3	86.0
2025-08-21T17:48	10	2	0.1	2	2	402	0.2	402	403	17.4	85.1
2025-08-21T17:49	10	2	0.1	1	2	402	0.2	402	403	17.4	85.6
2025-08-21T17:50	10	1	0.1	1	2	402	0.2	401	402	17.4	87.0
2025-08-21T17:51	10	1	0.1	1	2	402	0.2	401	402	17.3	87.9
2025-08-21T17:52	10	1	0.1	1	1	402	0.2	401	402	17.3	88.5
2025-08-21T17:53	10	1	0.1	1	1	402	0.3	401	402	17.3	89.0
2025-08-21T17:54	10	1	0.1	1	1	401	0.2	401	402	17.3	89.3
2025-08-21T17:55	10	1	0.1	1	1	402	0.2	401	402	17.2	89.3
2025-08-21T17:56	10	1	0.1	1	1	401	0.3	401	402	17.2	89.4
2025-08-21T17:57	10	1	0.1	1	1	401	0.2	401	402	17.2	90.3
2025-08-21T17:58	10	1	0.1	1	1	401	0.3	401	402	17.2	91.4
2025-08-21T17:59	10	1	0.1	1	1	401	0.2	400	401	17.2	92.9
2025-08-21T18:00	10	1	0.1	1	1	401	0.2	401	402	17.1	93.6
2025-08-21T18:01	10	1	0.1	1	1	401	0.2	401	401	17.1	93.9
2025-08-21T18:02	10	1	0.1	1	1	401	0.3	400	401	17.0	94.2
2025-08-21T18:03	10	1	0.1	1	1	401	0.2	400	401	17.0	94.4
2025-08-21T18:04	10	1	0.1	1	1	401	0.2	400	401	17.0	94.3
2025-08-21T18:05	10	1	0.1	1	1	401	0.2	400	401	17.0	94.3
2025-08-21T18:06	10	1	0.1	0	1	401	0.2	400	401	17.0	94.5
2025-08-21T18:07	10	1	0.1	0	1	400	0.2	400	401	16.9	93.6
2025-08-21T18:08	10	1	0.1	0	1	400	0.2	400	401	16.9	91.7
2025-08-21T18:09	10	1	0.1	0	1	400	0.2	400	401	17.0	89.0
2025-08-21T18:10	10	1	0.1	0	1	400	0.2	400	400	17.0	88.0
2025-08-21T18:11	10	1	0.1	0	1	400	0.2	400	401	17.0	87.8
2025-08-21T18:12	10	0	0.1	0	1	400	0.3	399	400	17.1	84.3
2025-08-21T18:13	10	0	0.1	0	1	400	0.2	400	400	17.2	84.4
2025-08-21T18:14	10	1	0.1	0	1	400	0.3	399	400	17.1	86.9
2025-08-21T18:15	10	0	0.1	0	1	400	0.2	399	400	17.1	88.0
2025-08-21T18:16	10	0	0.1	0	1	400	0.2	399	400	17.1	87.8
2025-08-21T18:17	10	0	0.1	0	1	400	0.2	399	400	17.1	87.6
2025-08-21T18:18	10	0	0.1	0	1	400	0.2	399	400	17.1	87.7
2025-08-21T18:19	10	0	0.1	0	1	399	0.3	399	400	17.1	87.8
2025-08-21T18:20	10	0	0.1	0	1	400	0.2	399	400	17.1	87.7
2025-08-21T18:21	10	0	0.1	0	1	399	0.2	399	400	17.1	87.5
2025-08-21T18:22	10	0	0.1	0	1	400	0.2	399	400	17.1	87.6
2025-08-21T18:23	10	0	0.1	0	1	400	0.2	399	400	17.1	87.3
2025-08-21T18:24	10	0	0.1	0	1	399	0.2	399	400	17.0	89.0
2025-08-21T18:25	10	0	0.1	0	1	399	0.2	399	400	17.0	90.6
2025-08-21T18:26	10	0	0.1	0	0	399	0.3	399	400	16.9	91.3
2025-08-21T18:27	10	0	0.1	0	1	399	0.3	399	400	16.9	90.5
2025-08-21T18:28	10	0	0.1	0	0	399	0.2	399	400	16.9	90.0
2025-08-21T18:29	10	0	0.1	0	0	399	0.2	398	400	16.9	90.8
2025-08-21T18:30	10	0	0.1	0	1	399	0.2	399	400	16.9	90.8
2025-08-21T18:31	10	0	0.1	0	1	399	0.2	398	399	16.9	89.3
2025-08-21T18:32	10	0	0.1	0	1	399	0.2	399	400	16.9	87.5
2025-08-21T18:33	10	0	0.1	0	1	399	0.2	399	399	16.9	87.6
2025-08-21T18:34	10	0	0.1	0	0	399	0.2	398	399	16.9	87.8
2025-08-21T18:35	10	0	0.1	0	1	399	0.2	398	399	16.9	88.9
2025-08-21T18:36	10	0	0.1	0	0	399	0.3	398	399	16.9	89.8
2025-08-21T18:37	10	0	0.1	0	1	399	0.2	398	399	16.8	88.9
2025-08-21T18:38	10	0	0.1	0	1	399	0.2	398	399	16.9	89.2
2025-08-21T18:39	10	0	0.1	0	1	399	0.2	398	399	16.8	90.8
2025-08-21T18:40	10	0	0.1	0	1	398	0.2	398	399	16.8	91.1
2025-08-21T18:41	10	0	0.1	0	1	398	0.2	398	399	16.8	91.0
2025-08-21T18:42	10	0	0.1	0	1	398	0.3	398	399	16.8	90.5
2025-08-21T18:43	10	0	0.1	0	0	398	0.2	398	399	16.8	90.0
2025-08-21T18:44	10	0	0.1	0	1	398	0.2	397	398	16.8	90.4
2025-08-21T18:45	10	0	0.1	0	0	398	0.3	397	398	16.7	90.8
2025-08-21T18:46	10	0	0.1	0	1	398	0.3	397	398	16.7	90.9
2025-08-21T18:47	10	0	0.1	0	1	398	0.2	397	398	16.8	89.9
2025-08-21T18:48	10	0	0.1	0	1	398	0.3	397	398	16.9	88.5
2025-08-21T18:49	10	0	0.1	0	1	397	0.3	397	398	16.8	88.7
2025-08-21T18:50	10	0	0.1	0	1	397	0.3	397	398	16.8	89.1
2025-08-21T18:51	10	0	0.1	0	1	397	0.2	397	398	16.9	88.4
2025-08-21T18:52	10	0	0.2	0	1	397	0.3	397	398	17.0	87.5
2025-08-21T18:53	10	0	0.1	0	0	397	0.2	397	397	17.0	87.2
2025-08-21T18:54	10	0	0.1	0	1	397	0.3	397	398	17.0	87.6
2025-08-21T18:55	10	0	0.1	0	1	397	0.2	397	398	17.0	86.9
2025-08-21T18:56	10	0	0.1	0	1	397	0.3	397	398	17.0	86.7
2025-08-21T18:57	10	0	0.1	0	0	397	0.3	397	398	17.1	86.5
2025-08-21T18:58	10	0	0.1	0	1	397	0.2	397	398	17.0	87.1
2025-08-21T18:59	10	0	0.1	0	0	397	0.2	397	398	17.0	87.3
2025-08-21T19:00	10	0	0.1	0	0	397	0.3	397	398	17.1	87.3
2025-08-21T19:01	10	0	0.1	0	1	397	0.2	397	398	17.1	87.4
2025-08-21T19:02	10	0	0.1	0	0	397	0.3	397	398	17.0	87.8
2025-08-21T19:03	10	0	0.1	0	0	397	0.2	397	398	17.0	88.1
2025-08-21T19:04	10	0	0.1	0	0	397	0.2	397	398	17.1	87.6
2025-08-21T19:05	10	0	0.1	0	0	397	0.2	397	398	17.1	87.9
2025-08-21T19:06	10	0	0.1	0	1	398	0.3	397	398	17.0	88.3
2025-08-21T19:07	10	0	0.1	0	0	398	0.2	397	398	17.0	88.8
2025-08-21T19:08	10	0	0.1	0	1	398	0.2	397	398	17.1	87.3
2025-08-21T19:09	10	0	0.1	0	0	398	0.2	397	398	17.1	88.0
2025-08-21T19:10	10	0	0.1	0	0	398	0.2	397	398	17.0	88.7
2025-08-21T19:11	10	0	0.1	0	0	397	0.2	397	398	17.0	89.6
2025-08-21T19:12	10	0	0.1	0	0	397	0.2	397	398	16.9	90.3
2025-08-21T19:13	10	0	0.1	0	0	397	0.3	397	398	16.9	90.8
2025-08-21T19:14	10	0	0.1	0	0	397	0.2	397	398	16.8	91.2
2025-08-21T19:15	10	0	0.1	0	0	397	0.2	396	398	16.8	91.8
2025-08-21T19:16	10	0	0.1	0	0	397	0.2	397	398	16.8	91.0
2025-08-21T19:17	10	0	0.1	0	0	397	0.3	396	398	16.8	91.7
2025-08-21T19:18	10	0	0.1	0	0	397	0.2	396	398	16.8	92.0
2025-08-21T19:19	10	0	0.1	0	0	397	0.3	397	398	16.7	91.8
2025-08-21T19:20	10	0	0.1	0	0	397	0.2	397	398	16.7	91.3
2025-08-21T19:21	10	0	0.1	0	0	397	0.2	397	398	16.8	90.9
2025-08-21T19:22	10	0	0.1	0	0	397	0.2	396	398	16.8	91.3
2025-08-21T19:23	10	0	0.1	0	0	397	0.3	396	398	16.7	91.6
2025-08-21T19:24	10	0	0.1	0	0	397	0.2	396	397	16.7	91.1
2025-08-21T19:25	10	0	0.1	0	0	397	0.2	397	398	16.8	90.2
2025-08-21T19:26	10	0	0.1	0	0	397	0.3	396	398	16.8	90.1
2025-08-21T19:27	10	0	0.1	0	0	397	0.3	396	398	16.8	89.4
2025-08-21T19:28	10	0	0.1	0	0	397	0.3	397	398	16.8	88.7
2025-08-21T19:29	10	0	0.1	0	0	397	0.2	396	398	16.9	88.0
2025-08-21T19:30	10	0	0.1	0	0	397	0.2	397	398	16.9	88.3
2025-08-21T19:31	10	0	0.1	0	0	397	0.2	397	398	16.9	88.7
2025-08-21T19:32	10	0	0.1	0	0	397	0.2	397	398	16.8	88.1
2025-08-21T19:33	10	0	0.1	0	0	397	0.2	397	398	16.9	87.9
2025-08-21T19:34	10	0	0.1	0	0	397	0.2	396	398	16.9	87.2
2025-08-21T19:35	10	0	0.1	0	0	397	0.2	397	397	16.9	86.6
2025-08-21T19:36	10	0	0.1	0	0	397	0.2	396	397	16.9	87.1
2025-08-21T19:37	10	0	0.1	0	0	397	0.2	397	398	16.9	86.2
2025-08-21T19:38	10	0	0.1	0	0	397	0.3	396	397	17.0	85.4
2025-08-21T19:39	10	0	0.1	0	0	397	0.2	397	397	17.0	85.4
2025-08-21T19:40	10	0	0.1	0	0	397	0.3	396	397	17.0	85.1
2025-08-21T19:41	10	0	0.0	0	0	397	0.2	396	397	17.0	85.6
2025-08-21T19:42	10	0	0.1	0	0	397	0.2	396	397	17.0	85.1
2025-08-21T19:43	10	0	0.1	0	0	396	0.2	396	397	17.0	84.5
2025-08-21T19:44	10	0	0.1	0	0	396	0.2	396	397	17.0	84.8
2025-08-21T19:45	10	0	0.1	0	0	396	0.2	395	397	17.0	84.9
2025-08-21T19:46	10	0	0.1	0	0	396	0.2	396	397	16.9	85.5
2025-08-21T19:47	10	0	0.1	0	0	396	0.3	395	397	16.9	85.3
2025-08-21T19:48	10	0	0.1	0	0	396	0.3	395	397	16.9	85.4
2025-08-21T19:49	10	0	0.1	0	0	396	0.2	396	397	16.9	85.4
2025-08-21T19:50	10	0	0.1	0	0	396	0.2	396	396	16.9	85.4
2025-08-21T19:51	10	0	0.1	0	0	396	0.2	396	397	16.9	85.1
2025-08-21T19:52	10	0	0.1	0	0	396	0.3	395	396	16.9	85.4
2025-08-21T19:53	10	0	0.1	0	0	395	0.3	395	396	16.9	85.5
2025-08-21T19:54	10	0	0.0	0	0	396	0.3	395	396	16.9	84.7
2025-08-21T19:55	10	0	0.1	0	0	395	0.3	395	396	16.9	85.2
2025-08-21T19:56	10	0	0.1	0	0	396	0.2	395	396	16.9	85.6
2025-08-21T19:57	10	0	0.1	0	0	396	0.2	395	396	16.9	85.1
2025-08-21T19:58	10	0	0.1	0	0	395	0.3	395	396	16.8	86.0
2025-08-21T19:59	10	0	0.1	0	0	395	0.2	395	396	16.8	85.8
2025-08-21T20:00	10	0	0.1	0	0	395	0.2	395	396	16.9	85.2
2025-08-21T20:01	10	0	0.1	0	0	395	0.2	395	396	16.8	85.6
2025-08-21T20:02	10	0	0.1	0	0	395	0.2	395	396	16.8	85.9
2025-08-21T20:03	10	0	0.1	0	0	395	0.3	394	396	16.8	86.5
2025-08-21T20:04	10	0	0.0	0	0	395	0.2	395	396	16.8	85.6
2025-08-21T20:05	10	0	0.1	0	0	395	0.2	394	395	16.8	85.4
2025-08-21T20:06	10	0	0.1	0	0	395	0.2	394	395	16.8	86.3
2025-08-21T20:07	10	0	0.1	0	0	395	0.3	395	396	16.7	87.1
2025-08-21T20:08	10	0	0.1	0	0	395	0.2	394	395	16.7	87.0
2025-08-21T20:09	10	0	0.1	0	0	395	0.3	394	395	16.7	87.3
2025-08-21T20:10	10	0	0.1	0	0	395	0.2	394	395	16.6	88.3
2025-08-21T20:11	10	0	0.1	0	0	395	0.2	395	395	16.7	87.2
2025-08-21T20:12	10	0	0.1	0	0	395	0.2	394	395	16.6	88.3
2025-08-21T20:13	10	0	0.1	0	0	395	0.2	395	395	16.6	89.7
2025-08-21T20:14	10	0	0.1	0	0	395	0.2	395	396	16.6	89.3
2025-08-21T20:15	10	0	0.1	0	0	395	0.2	395	396	16.6	89.7
2025-08-21T20:16	10	0	0.1	0	0	395	0.3	395	396	16.5	91.4
2025-08-21T20:17	10	0	0.1	0	0	396	0.3	395	396	16.5	91.1
2025-08-21T20:18	10	0	0.0	0	0	395	0.2	395	396	16.5	92.4
2025-08-21T20:19	10	0	0.1	0	0	396	0.3	395	396	16.5	92.3
2025-08-21T20:20	10	0	0.1	0	0	396	0.2	395	396	16.4	92.6
2025-08-21T20:21	10	0	0.1	0	0	395	0.3	395	396	16.4	93.0
2025-08-21T20:22	10	0	0.1	0	0	395	0.2	394	395	16.3	92.6
2025-08-21T20:23	10	0	0.1	0	0	395	0.2	394	395	16.2	92.8
2025-08-21T20:24	10	0	0.1	0	0	395	0.2	394	395	16.2	93.1
2025-08-21T20:25	10	0	0.1	0	0	394	0.2	394	395	16.1	92.4
2025-08-21T20:26	10	0	0.0	0	0	394	0.2	394	395	16.1	92.8
2025-08-21T20:27	10	0	0.1	0	0	394	0.3	394	395	16.1	93.5
2025-08-21T20:28	10	0	0.1	0	0	394	0.2	393	394	16.1	93.8
2025-08-21T20:29	10	0	0.1	0	0	394	0.2	394	394	16.0	93.4
2025-08-21T20:30	10	0	0.1	0	0	394	0.2	394	394	16.1	92.4
2025-08-21T20:31	10	0	0.1	0	1	394	0.2	394	395	16.1	93.0
2025-08-21T20:32	10	0	0.1	0	1	394	0.2	393	395	16.0	93.3
2025-08-21T20:33	10	0	0.6	0	4	394	0.3	392	394	16.0	93.3
2025-08-21T20:34	10	0	0.1	0	0	394	0.2	393	394	16.0	93.4
2025-08-21T20:35	10	0	0.1	0	0	394	0.2	393	394	16.0	93.6
2025-08-21T20:36	10	0	0.2	0	1	394	0.3	393	394	16.0	93.4
2025-08-21T20:37	10	0	0.1	0	0	393	0.3	393	394	16.0	93.2
2025-08-21T20:38	10	0	0.1	0	0	393	0.3	393	394	16.0	92.7
2025-08-21T20:39	10	0	0.2	0	1	393	0.2	392	393	16.0	92.9
2025-08-21T20:40	10	0	0.1	0	0	393	0.2	392	394	15.9	94.0
2025-08-21T20:41	10	0	0.1	0	0	393	0.3	392	393	15.9	94.2
2025-08-21T20:42	10	0	0.1	0	0	393	0.3	392	393	15.9	94.1
2025-08-21T20:43	10	0	0.2	0	1	393	0.3	392	394	15.9	93.9
2025-08-21T20:44	10	0	0.2	0	1	393	0.3	392	394	15.9	93.9
2025-08-21T20:45	10	0	0.1	0	0	393	0.2	393	394	15.9	93.2
2025-08-21T20:46	10	0	0.1	0	1	393	0.2	393	394	16.0	93.0
2025-08-21T20:47	10	0	0.1	0	1	393	0.2	393	394	15.9	93.8
2025-08-21T20:48	10	0	0.1	0	0	393	0.3	393	394	15.9	94.4
2025-08-21T20:49	10	0	0.2	0	1	393	0.2	393	394	15.9	94.4
2025-08-21T20:50	10	0	0.1	0	0	393	0.2	392	394	15.9	94.7
2025-08-21T20:51	10	0	0.2	0	1	393	0.2	392	394	15.9	94.8
2025-08-21T20:52	10	0	0.1	0	0	393	0.2	392	393	15.8	94.2
2025-08-21T20:53	10	0	0.1	0	0	393	0.3	392	393	15.9	93.5
2025-08-21T20:54	10	0	0.1	0	1	393	0.2	392	393	15.5	93.5
2025-08-21T20:55	10	0	0.2	0	1	393	0.2	392	393	15.9	91.9
2025-08-21T20:56	10	0	0.2	0	1	393	0.3	392	393	15.9	93.5
2025-08-21T20:57	10	0	0.2	0	1	393	0.3	392	393	15.9	88.8
2025-08-21T20:58	10	0	0.2	0	1	393	0.3	392	393	15.9	93.5
2025-08-21T20:59	10	0	0.2	0	1	393	0.2	392	393	15.9	93.5
2025-08-21T21:00	10	0	0.1	0	0	393	0.3	392	393	15.9	93.5
2025-08-21T21:01	10	0	0.2	0	0	393	0.3	392	394	15.9	93.7
2025-08-21T21:02	10	0	0.1	0	0	393	0.2	392	393	15.8	95.1
2025-08-21T21:03	10	0	0.1	0	0	393	0.3	392	393	15.8	95.9
2025-08-21T21:04	10	0	0.1	0	0	393	0.2	393	393	15.8	96.4
2025-08-21T21:05	10	0	0.1	0	1	393	0.3	392	394	15.8	96.6
2025-08-21T21:06	10	0	0.1	0	1	393	0.2	392	393	15.7	96.7
2025-08-21T21:07	10	0	0.1	0	0	393	0.2	393	393	15.7	96.8
2025-08-21T21:08	10	0	0.1	0	0	393	0.2	392	394	15.7	96.8
2025-08-21T21:09	10	0	0.1	0	1	393	0.2	392	393	15.7	96.7
2025-08-21T21:10	10	0	0.1	0	0	393	0.2	393	394	15.7	96.7
2025-08-21T21:11	10	0	0.1	0	0	393	0.2	392	393	15.7	96.7
2025-08-21T21:12	10	0	0.1	0	0	393	0.2	392	393	15.7	96.7
2025-08-21T21:13	10	0	0.1	0	0	393	0.2	392	393	15.7	96.7
2025-08-21T21:14	10	0	0.1	0	0	393	0.2	392	393	15.7	96.8
2025-08-21T21:15	10	0	0.1	0	0	393	0.2	392	393	15.7	96.5
2025-08-21T21:16	10	0	0.1	0	0	393	0.2	393	393	15.7	96.3
2025-08-21T21:17	10	0	0.1	0	0	393	0.2	392	393	15.7	96.1
2025-08-21T21:18	10	0	0.1	0	0	393	0.2	393	393	15.7	95.7
2025-08-21T21:19	10	0	0.1	0	0	393	0.2	392	393	15.7	96.0
2025-08-21T21:20	10	0	0.1	0	0	393	0.2	393	393	15.7	96.3
2025-08-21T21:21	10	0	0.1	0	0	393	0.2	392	393	15.7	96.1
2025-08-21T21:22	10	0	0.1	0	0	393	0.2	393	393	15.7	96.2
2025-08-21T21:23	10	0	0.1	0	0	393	0.2	392	393	15.7	96.0
2025-08-21T21:24	10	0	0.1	0	0	393	0.2	393	394	15.8	96.3
2025-08-21T21:25	10	0	0.1	0	0	393	0.2	392	393	15.7	96.4
2025-08-21T21:26	10	0	0.1	0	0	393	0.2	392	393	15.7	96.3
2025-08-21T21:27	10	0	0.1	0	0	393	0.2	392	393	15.7	96.2
2025-08-21T21:28	10	0	0.1	0	0	393	0.2	392	393	15.7	95.9
2025-08-21T21:29	10	0	0.1	0	0	393	0.2	392	393	15.7	95.7
2025-08-21T21:30	10	0	0.1	0	0	393	0.2	392	393	15.7	95.2
2025-08-21T21:31	10	0	0.1	0	0	393	0.3	393	394	15.7	95.2
2025-08-21T21:32	10	0	0.1	0	0	393	0.2	392	393	15.8	95.2
2025-08-21T21:33	10	0	0.1	0	0	393	0.2	392	393	15.8	94.8
2025-08-21T21:34	10	0	0.1	0	0	393	0.2	392	393	15.8	94.5
2025-08-21T21:35	10	0	0.1	0	0	393	0.2	392	393	15.8	94.2
2025-08-21T21:36	10	0	0.1	0	0	393	0.2	392	393	15.8	94.5
2025-08-21T21:37	10	0	0.1	0	0	393	0.2	392	393	15.8	94.6
2025-08-21T21:38	10	0	0.1	0	0	393	0.2	392	393	15.8	94.8
2025-08-21T21:39	10	0	0.1	0	0	393	0.2	392	393	15.8	95.1
2025-08-21T21:40	10	0	0.1	0	0	393	0.2	392	393	15.8	95.3
2025-08-21T21:41	10	0	0.1	0	0	393	0.2	392	393	15.8	95.6
2025-08-21T21:42	10	0	0.1	0	0	393	0.2	393	393	15.8	95.9
2025-08-21T21:43	10	0	0.1	0	0	393	0.2	393	393	15.8	96.1
2025-08-21T21:44	10	0	0.1	0	0	393	0.2	392	393	15.8	96.3
2025-08-21T21:45	10	0	0.1	0	0	393	0.2	392	393	15.8	96.3
2025-08-21T21:46	10	0	0.1	0	0	393	0.2	393	394	15.7	96.3
2025-08-21T21:47	10	0	0.1	0	0	393	0.2	393	394	15.7	96.2
2025-08-21T21:48	10	0	0.1	0	0	393	0.2	392	393	15.7	96.1
2025-08-21T21:49	10	0	0.1	0	0	393	0.2	393	394	15.7	96.1
2025-08-21T21:50	10	0	0.1	0	0	393	0.2	393	394	15.8	95.9
2025-08-21T21:51	10	0	0.1	0	0	393	0.2	393	394	15.8	95.9
2025-08-21T21:52	10	0	0.1	0	0	393	0.2	393	394	15.8	95.9
2025-08-21T21:53	10	0	0.1	0	0	393	0.3	393	394	15.8	95.9
2025-08-21T21:54	10	0	0.1	0	0	393	0.2	393	394	15.8	95.8
2025-08-21T21:55	10	0	0.1	0	0	393	0.2	393	394	15.8	95.4
2025-08-21T21:56	10	0	0.1	0	0	393	0.2	393	394	15.8	95.2
2025-08-21T21:57	10	0	0.1	0	0	393	0.2	393	394	15.8	95.1
2025-08-21T21:58	10	0	0.1	0	0	393	0.2	392	393	15.8	95.1
2025-08-21T21:59	10	0	0.1	0	0	393	0.2	392	393	15.8	95.5
2025-08-21T22:00	10	0	0.1	0	0	393	0.3	392	393	15.8	95.8
2025-08-21T22:01	10	0	0.1	0	0	393	0.2	393	393	15.8	95.9
2025-08-21T22:02	10	0	0.1	0	0	393	0.3	392	394	15.8	96.2
2025-08-21T22:03	10	0	0.1	0	0	393	0.2	392	393	15.8	96.5
2025-08-21T22:04	10	0	0.1	0	0	393	0.2	392	393	15.8	96.6
2025-08-21T22:05	10	0	0.1	0	0	393	0.2	393	394	15.8	96.6
2025-08-21T22:06	10	0	0.1	0	0	393	0.2	392	394	15.8	96.4
2025-08-21T22:07	10	0	0.0	0	0	393	0.2	393	393	15.8	96.4
2025-08-21T22:08	10	0	0.1	0	0	393	0.2	392	393	15.8	96.5
2025-08-21T22:09	10	0	0.1	0	0	393	0.2	393	393	15.8	96.6
2025-08-21T22:10	10	0	0.1	0	0	393	0.2	392	393	15.8	96.5
2025-08-21T22:11	10	0	0.1	0	0	393	0.2	392	393	15.8	96.5
2025-08-21T22:12	10	0	0.1	0	0	393	0.3	392	393	15.8	96.6
2025-08-21T22:13	10	0	0.1	0	0	393	0.3	392	393	15.8	96.8
2025-08-21T22:14	10	0	0.1	0	0	393	0.2	392	393	15.8	96.9
2025-08-21T22:15	10	0	0.1	0	0	393	0.3	392	393	15.8	97.0
2025-08-21T22:16	10	0	0.1	0	0	393	0.2	392	393	15.8	97.0
2025-08-21T22:17	10	0	0.1	0	0	393	0.2	393	393	15.8	96.8
2025-08-21T22:18	10	0	0.1	0	0	393	0.2	392	393	15.8	96.9
2025-08-21T22:19	10	0	0.1	0	0	393	0.2	392	393	15.9	97.0
2025-08-21T22:20	10	0	0.1	0	0	393	0.3	392	393	15.9	96.9
2025-08-21T22:21	10	0	0.1	0	0	392	0.2	392	393	15.9	96.9
2025-08-21T22:22	10	0	0.1	0	0	393	0.2	392	393	15.9	97.1
2025-08-21T22:23	10	0	0.1	0	0	393	0.2	392	393	15.9	97.1
2025-08-21T22:24	10	0	0.1	0	0	392	0.3	392	393	15.9	97.3
2025-08-21T22:25	10	0	0.1	0	0	393	0.1	392	393	15.8	97.4
2025-08-21T22:26	10	0	0.1	0	0	393	0.2	392	393	15.8	97.2
2025-08-21T22:27	10	0	0.1	0	0	393	0.2	392	393	15.8	97.1
2025-08-21T22:28	10	0	0.1	0	0	393	0.3	392	393	15.8	96.9
2025-08-21T22:29	10	0	0.1	0	0	393	0.2	392	393	15.8	96.7
2025-08-21T22:30	10	0	0.1	0	0	393	0.2	392	393	15.9	96.5
2025-08-21T22:31	10	0	0.1	0	0	393	0.2	392	393	15.8	96.4
2025-08-21T22:32	10	0	0.1	0	0	393	0.2	392	393	15.9	96.5
2025-08-21T22:33	10	0	0.1	0	0	393	0.2	392	393	15.9	96.7
2025-08-21T22:34	10	0	0.1	0	0	393	0.2	392	393	15.9	96.7
2025-08-21T22:35	10	0	0.1	0	0	393	0.2	392	393	15.9	96.8
2025-08-21T22:36	10	0	0.1	0	0	393	0.3	392	393	15.9	97.0
2025-08-21T22:37	10	0	0.1	0	0	393	0.2	392	393	15.9	97.2
2025-08-21T22:38	10	0	0.1	0	0	393	0.3	392	393	15.9	97.3
2025-08-21T22:39	10	0	0.1	0	0	393	0.2	392	393	15.8	97.3
2025-08-21T22:40	10	0	0.1	0	0	393	0.2	392	393	15.8	97.4
2025-08-21T22:41	10	0	0.1	0	0	393	0.2	392	393	15.9	97.3
2025-08-21T22:42	10	0	0.1	0	0	393	0.2	393	393	15.8	97.4
2025-08-21T22:43	10	0	0.1	0	0	393	0.2	393	394	15.8	97.2
2025-08-21T22:44	10	0	0.1	0	0	393	0.2	392	393	15.8	97.0
2025-08-21T22:45	10	0	0.1	0	0	393	0.2	392	393	15.9	96.8
2025-08-21T22:46	10	0	0.1	0	0	393	0.2	392	393	15.9	96.8
2025-08-21T22:47	10	0	0.1	0	0	393	0.2	392	393	15.9	96.8
2025-08-21T22:48	10	0	0.1	0	0	393	0.2	392	393	15.9	96.9
2025-08-21T22:49	10	0	0.1	0	0	393	0.2	392	393	15.9	97.0
2025-08-21T22:50	10	0	0.1	0	0	393	0.2	392	393	15.9	97.1
2025-08-21T22:51	10	0	0.1	0	0	393	0.2	392	394	15.8	97.1
2025-08-21T22:52	10	0	0.1	0	0	393	0.2	392	393	15.8	97.0
2025-08-21T22:53	10	0	0.1	0	0	393	0.2	392	393	15.8	97.0
2025-08-21T22:54	10	0	0.1	0	0	393	0.2	392	393	15.8	97.2
2025-08-21T22:55	10	0	0.1	0	0	392	0.3	392	393	15.8	97.1
2025-08-21T22:56	10	0	0.1	0	0	392	0.2	392	393	15.8	97.1
2025-08-21T22:57	10	0	0.1	0	0	392	0.2	392	393	15.8	97.1
2025-08-21T22:58	10	0	0.1	0	0	392	0.2	392	393	15.8	97.3
2025-08-21T22:59	10	0	0.1	0	0	393	0.2	392	393	15.8	97.2
2025-08-21T23:00	10	0	0.1	0	0	392	0.2	392	393	15.9	96.9
2025-08-21T23:01	10	0	0.1	0	0	393	0.2	392	393	15.9	96.8
2025-08-21T23:02	10	0	0.1	0	0	392	0.2	392	393	15.9	96.9
2025-08-21T23:03	10	0	0.1	0	0	392	0.2	392	393	15.9	96.7
2025-08-21T23:04	10	0	0.5	0	3	392	0.2	392	393	15.9	96.7
2025-08-21T23:05	10	0	0.1	0	0	392	0.3	391	392	15.9	96.6
2025-08-21T23:06	10	0	0.1	0	0	392	0.3	391	392	15.9	96.7
2025-08-21T23:07	10	0	0.1	0	0	391	0.2	391	392	15.9	96.6
2025-08-21T23:08	10	0	0.1	0	0	391	0.3	391	392	15.9	96.4
2025-08-21T23:09	10	0	0.1	0	0	391	0.2	390	391	15.9	96.4
2025-08-21T23:10	10	0	0.1	0	0	391	0.4	390	391	15.9	96.1
2025-08-21T23:11	10	0	0.1	0	0	390	0.2	390	391	15.9	95.8
2025-08-21T23:12	10	0	0.1	0	0	390	0.2	390	391	15.9	95.9
2025-08-21T23:13	10	0	0.1	0	0	391	0.2	390	391	15.9	96.0
2025-08-21T23:14	10	0	0.1	0	0	391	0.3	390	391	15.9	95.8
2025-08-21T23:15	10	0	0.1	0	0	391	0.2	390	391	15.9	95.9
2025-08-21T23:16	10	0	0.1	0	0	391	0.3	390	392	15.9	95.9
2025-08-21T23:17	10	0	0.1	0	0	391	0.2	390	391	15.9	96.1
2025-08-21T23:18	10	0	0.1	0	0	390	0.2	390	391	15.9	96.3
2025-08-21T23:19	10	0	0.1	0	0	390	0.3	389	390	15.9	96.3
2025-08-21T23:20	10	0	0.1	0	0	390	0.2	389	390	15.9	96.3
2025-08-21T23:21	10	0	0.1	0	0	390	0.3	389	390	15.9	96.4
2025-08-21T23:22	10	0	0.1	0	0	389	0.3	389	390	15.8	96.6
2025-08-21T23:23	10	0	0.1	0	0	389	0.2	388	389	15.8	96.6
2025-08-21T23:24	10	0	0.1	0	0	389	0.3	388	390	15.8	96.6
2025-08-21T23:25	10	0	0.1	0	0	389	0.2	388	389	15.8	96.5
2025-08-21T23:26	10	0	0.1	0	0	389	0.3	388	389	15.8	96.8
2025-08-21T23:27	10	0	0.1	0	0	388	0.2	388	389	15.8	96.5
2025-08-21T23:28	10	0	0.1	0	0	388	0.3	388	389	15.8	96.6
2025-08-21T23:29	10	0	0.1	0	0	388	0.2	387	388	15.8	96.9
2025-08-21T23:30	10	0	0.1	0	0	388	0.3	387	388	15.7	97.1
2025-08-21T23:31	10	0	0.1	0	0	388	0.2	387	388	15.7	97.0
2025-08-21T23:32	10	0	0.1	0	0	388	0.2	387	388	15.7	97.1
2025-08-21T23:33	10	0	0.1	0	0	387	0.2	387	388	15.7	97.2
2025-08-21T23:34	10	0	0.1	0	0	387	0.2	387	388	15.7	97.2
2025-08-21T23:35	10	0	0.1	0	0	387	0.2	387	388	15.6	97.1
2025-08-21T23:36	10	0	0.1	0	0	387	0.2	387	388	15.6	97.0
2025-08-21T23:37	10	0	0.1	0	0	388	0.3	387	388	15.6	97.0
2025-08-21T23:38	10	0	0.1	0	0	388	0.3	387	388	15.6	97.0
2025-08-21T23:39	10	0	0.1	0	0	388	0.2	387	388	15.6	97.0
2025-08-21T23:40	10	0	0.1	0	0	388	0.3	388	389	15.6	97.0
2025-08-21T23:41	10	0	0.1	0	0	388	0.3	388	389	15.6	97.0
2025-08-21T23:42	10	0	0.1	0	0	389	0.3	388	389	15.6	96.8
2025-08-21T23:43	10	0	0.1	0	0	389	0.2	389	390	15.6	96.9
2025-08-21T23:44	10	0	0.1	0	0	389	0.2	389	390	15.6	96.8
2025-08-21T23:45	10	0	0.1	0	0	389	0.3	388	390	15.6	96.9
2025-08-21T23:46	10	0	0.1	0	0	389	0.2	388	389	15.6	97.0
2025-08-21T23:47	10	0	0.1	0	0	389	0.3	388	390	15.6	96.8
2025-08-21T23:48	10	0	0.1	0	0	389	0.2	389	390	15.6	96.9
2025-08-21T23:49	10	0	0.1	0	0	389	0.2	388	389	15.6	96.5
2025-08-21T23:50	10	0	0.1	0	0	389	0.3	388	389	15.6	96.3
2025-08-21T23:51	10	0	0.1	0	0	388	0.3	388	389	15.6	96.6
2025-08-21T23:52	10	0	0.1	0	0	388	0.3	388	389	15.6	96.5
2025-08-21T23:53	10	0	0.1	0	0	387	0.3	387	388	15.5	96.5
2025-08-21T23:54	10	0	0.1	0	0	387	0.3	387	388	15.5	96.5
2025-08-21T23:55	10	0	0.1	0	0	387	0.2	386	387	15.5	96.5
2025-08-21T23:56	10	0	0.1	0	0	387	0.2	386	387	15.5	96.9
2025-08-21T23:57	10	0	0.1	0	0	387	0.2	386	387	15.5	96.8
2025-08-21T23:58	10	0	0.1	0	0	387	0.3	386	387	15.5	97.0
2025-08-21T23:59	10	0	0.1	0	0	387	0.2	386	387	15.4	97.0
2025-08-22T00:00	10	0	0.1	0	0	387	0.2	386	387	15.5	96.9
2025-08-22T00:01	10	0	0.1	0	0	387	0.2	387	388	15.5	96.8
2025-08-22T00:02	10	0	0.1	0	0	388	0.3	387	388	15.5	97.1
2025-08-22T00:03	10	0	0.1	0	0	388	0.2	387	388	15.5	97.1
2025-08-22T00:04	10	0	0.1	0	0	388	0.2	387	388	15.5	97.1
2025-08-22T00:05	10	0	0.1	0	0	388	0.3	387	388	15.4	96.9
2025-08-22T00:06	10	0	0.1	0	0	388	0.3	387	388	15.5	96.6
2025-08-22T00:07	10	0	0.1	0	0	388	0.2	387	388	15.5	96.3
2025-08-22T00:08	10	0	0.1	0	0	387	0.2	387	388	15.5	95.9
2025-08-22T00:09	10	0	0.1	0	0	387	0.2	387	388	15.6	95.7
2025-08-22T00:10	10	0	0.1	0	0	387	0.2	386	387	15.6	95.7
2025-08-22T00:11	10	0	0.1	0	0	386	0.2	386	387	15.6	95.9
2025-08-22T00:12	10	0	0.1	0	0	386	0.3	385	387	15.6	95.9
2025-08-22T00:13	10	0	0.1	0	0	386	0.2	386	387	15.6	95.9
2025-08-22T00:14	10	0	0.1	0	0	386	0.2	386	387	15.6	95.9
2025-08-22T00:15	10	0	0.1	0	0	386	0.2	385	386	15.6	95.8
2025-08-22T00:16	10	0	0.1	0	0	386	0.3	386	387	15.6	95.6
2025-08-22T00:17	10	0	0.1	0	0	386	0.2	385	386	15.6	95.6
2025-08-22T00:18	10	0	0.1	0	0	386	0.2	385	386	15.6	95.4
2025-08-22T00:19	10	0	0.1	0	0	386	0.2	385	386	15.6	95.6
2025-08-22T00:20	10	0	0.1	0	0	385	0.3	385	386	15.5	95.8
2025-08-22T00:21	10	0	0.1	0	0	386	0.3	385	386	15.5	95.7
2025-08-22T00:22	10	0	0.1	0	0	386	0.2	385	386	15.6	95.5
2025-08-22T00:23	10	0	0.1	0	0	386	0.2	385	386	15.6	95.3
2025-08-22T00:24	10	0	0.6	0	5	386	0.3	385	386	15.6	95.2
2025-08-22T00:25	10	0	0.1	0	0	385	0.2	385	386	15.6	95.3
2025-08-22T00:26	10	0	0.1	0	0	386	0.3	385	386	15.6	95.3
2025-08-22T00:27	10	0	0.1	0	0	385	0.2	385	386	15.6	95.4
2025-08-22T00:28	10	0	0.1	0	0	385	0.2	385	386	15.5	95.6
2025-08-22T00:29	10	0	0.1	0	0	385	0.2	385	386	15.6	95.5
2025-08-22T00:30	10	0	0.1	0	0	385	0.3	385	386	15.6	95.6
2025-08-22T00:31	10	0	0.1	0	0	386	0.2	385	386	15.5	95.7
2025-08-22T00:32	10	0	0.1	0	0	385	0.2	385	386	15.5	95.7
2025-08-22T00:33	10	0	0.1	0	0	385	0.2	385	386	15.5	95.8
2025-08-22T00:34	10	0	0.1	0	0	385	0.2	385	386	15.5	95.8
2025-08-22T00:35	10	0	0.1	0	0	385	0.2	385	386	15.5	95.8
2025-08-22T00:36	10	0	0.1	0	0	385	0.2	384	385	15.5	95.8
2025-08-22T00:37	10	0	0.1	0	0	385	0.3	385	386	15.5	95.7
2025-08-22T00:38	10	0	0.1	0	0	385	0.3	385	386	15.5	95.7
2025-08-22T00:39	10	0	0.1	0	0	385	0.2	384	385	15.4	95.9
2025-08-22T00:40	10	0	0.1	0	0	385	0.2	384	385	15.4	96.1
2025-08-22T00:41	10	0	0.1	0	0	385	0.2	384	385	15.4	95.9
2025-08-22T00:42	10	0	0.1	0	0	385	0.3	384	385	15.4	96.1
2025-08-22T00:43	10	0	0.1	0	0	384	0.3	384	385	15.3	96.2
2025-08-22T00:44	10	0	0.1	0	0	384	0.2	384	385	15.3	96.2
2025-08-22T00:45	10	0	0.1	0	0	385	0.3	384	385	15.4	96.1
2025-08-22T00:46	10	0	0.1	0	0	385	0.2	385	385	15.4	95.8
2025-08-22T00:47	10	0	0.1	0	0	385	0.2	385	386	15.5	95.8
2025-08-22T00:48	10	0	0.1	0	0	385	0.3	385	386	15.5	95.8
2025-08-22T00:49	10	0	0.1	0	0	385	0.2	384	385	15.4	95.9
2025-08-22T00:50	10	0	0.1	0	0	385	0.2	384	385	15.4	96.1
2025-08-22T00:51	10	0	0.1	0	0	385	0.3	384	385	15.3	96.2
2025-08-22T00:52	10	0	0.1	0	0	384	0.3	384	385	15.4	96.0
2025-08-22T00:53	10	0	0.1	0	0	385	0.3	384	386	15.4	95.7
2025-08-22T00:54	10	0	0.1	0	0	385	0.2	385	386	15.4	95.6
2025-08-22T00:55	10	0	0.1	0	0	385	0.2	385	385	15.4	95.8
2025-08-22T00:56	10	0	0.1	0	0	385	0.3	385	386	15.4	95.6
2025-08-22T00:57	10	0	0.1	0	0	385	0.3	385	386	15.4	95.5
2025-08-22T00:58	10	0	0.1	0	0	385	0.2	385	386	15.4	95.5
2025-08-22T00:59	10	0	0.1	0	0	385	0.2	385	386	15.4	95.7
2025-08-22T01:00	10	0	0.1	0	0	385	0.2	385	386	15.4	95.6
2025-08-22T01:01	10	0	0.1	0	0	386	0.2	385	386	15.4	95.6
2025-08-22T01:02	10	0	0.1	0	0	386	0.3	385	386	15.4	95.7
2025-08-22T01:03	10	0	0.1	0	0	386	0.2	385	386	15.4	95.6
2025-08-22T01:04	10	0	0.1	0	0	385	0.2	385	386	15.4	95.8
2025-08-22T01:05	10	0	0.1	0	0	385	0.2	384	385	15.4	95.8
2025-08-22T01:06	10	0	0.1	0	0	385	0.2	385	386	15.4	95.8
2025-08-22T01:07	10	0	0.1	0	0	385	0.2	385	386	15.4	95.6
2025-08-22T01:08	10	0	0.1	0	0	385	0.2	385	386	15.4	95.5
2025-08-22T01:09	10	0	0.0	0	0	385	0.2	385	386	15.4	95.6
2025-08-22T01:10	10	0	0.1	0	0	385	0.3	384	385	15.3	95.9
2025-08-22T01:11	10	0	0.1	0	0	385	0.3	384	385	15.3	95.7
2025-08-22T01:12	10	0	0.1	0	0	385	0.2	384	385	15.4	95.4
2025-08-22T01:13	10	0	0.1	0	0	384	0.3	384	385	15.4	95.6
2025-08-22T01:14	10	0	0.1	0	0	384	0.2	384	385	15.4	95.7
2025-08-22T01:15	10	0	0.1	0	0	384	0.2	384	385	15.4	95.6
2025-08-22T01:16	10	0	0.1	0	0	384	0.2	384	385	15.3	95.8
2025-08-22T01:17	10	0	0.1	0	0	384	0.2	384	385	15.3	95.9
2025-08-22T01:18	10	0	0.1	0	0	384	0.3	383	384	15.3	96.0
2025-08-22T01:19	10	0	0.1	0	0	383	0.3	383	384	15.3	96.0
2025-08-22T01:20	10	0	0.1	0	0	384	0.2	383	384	15.3	95.9
2025-08-22T01:21	10	0	0.1	0	0	383	0.4	382	384	15.3	96.2
2025-08-22T01:22	10	0	0.1	0	0	383	0.2	382	383	15.2	96.4
2025-08-22T01:23	10	0	0.1	0	0	383	0.3	382	384	15.2	96.3
2025-08-22T01:24	10	0	0.1	0	0	383	0.2	383	384	15.2	96.3
2025-08-22T01:25	10	0	0.1	0	0	383	0.2	383	384	15.2	96.4
2025-08-22T01:26	10	0	0.1	0	0	383	0.2	383	384	15.2	96.4
2025-08-22T01:27	10	0	0.1	0	0	383	0.2	383	384	15.3	96.3
2025-08-22T01:28	10	0	0.1	0	0	383	0.2	383	384	15.2	96.4
2025-08-22T01:29	10	0	0.1	0	0	383	0.3	382	384	15.2	96.4
2025-08-22T01:30	10	0	0.1	0	0	383	0.3	382	384	15.2	96.4
2025-08-22T01:31	10	0	0.1	0	0	383	0.1	383	383	15.2	96.5
2025-08-22T01:32	10	0	0.1	0	0	383	0.2	383	383	15.1	96.5
2025-08-22T01:33	10	0	0.1	0	0	383	0.2	382	383	15.2	96.5
2025-08-22T01:34	10	0	0.1	0	0	383	0.2	382	383	15.2	96.4
2025-08-22T01:35	10	0	0.1	0	0	383	0.3	382	383	15.2	96.2
2025-08-22T01:36	10	0	0.0	0	0	383	0.2	383	384	15.3	95.9
2025-08-22T01:37	10	0	0.1	0	0	383	0.2	383	384	15.2	95.8
2025-08-22T01:38	10	0	0.1	0	0	383	0.3	382	383	15.2	95.9
2025-08-22T01:39	10	0	0.1	0	0	383	0.2	382	383	15.2	95.8
2025-08-22T01:40	10	0	0.1	0	0	382	0.2	382	383	15.2	95.8
2025-08-22T01:41	10	0	0.1	0	0	382	0.2	382	383	15.2	95.8
2025-08-22T01:42	10	0	0.1	0	0	382	0.3	381	383	15.1	95.7
2025-08-22T01:43	10	0	0.1	0	0	382	0.2	382	383	15.1	95.8
2025-08-22T01:44	10	0	0.1	0	0	383	0.3	382	383	15.2	95.7
2025-08-22T01:45	10	0	0.1	0	0	383	0.2	382	383	15.2	95.4
2025-08-22T01:46	10	0	0.0	0	0	383	0.2	382	383	15.2	95.3
2025-08-22T01:47	10	0	0.1	0	0	383	0.2	382	383	15.2	95.1
2025-08-22T01:48	10	0	0.0	0	0	383	0.2	382	383	15.2	95.1
2025-08-22T01:49	10	0	0.1	0	0	383	0.2	382	383	15.2	94.9
2025-08-22T01:50	10	0	0.0	0	0	382	0.2	382	383	15.1	95.1
2025-08-22T01:51	10	0	0.1	0	0	382	0.2	382	383	15.1	95.1
2025-08-22T01:52	10	0	0.1	0	0	382	0.2	382	383	15.1	95.1
2025-08-22T01:53	10	0	0.1	0	0	382	0.2	381	382	15.2	95.1
2025-08-22T01:54	10	0	0.1	0	0	382	0.2	382	383	15.2	95.0
2025-08-22T01:55	10	0	0.1	0	0	383	0.2	382	383	15.2	95.0
2025-08-22T01:56	10	0	0.1	0	0	382	0.2	382	383	15.1	95.0
2025-08-22T01:57	10	0	0.1	0	0	383	0.3	382	383	15.1	95.0
2025-08-22T01:58	10	0	0.1	0	0	382	0.2	382	383	15.1	95.0
2025-08-22T01:59	10	0	0.1	0	0	382	0.2	382	383	15.1	95.1
2025-08-22T02:00	10	0	0.1	0	0	383	0.3	382	383	15.2	95.0
2025-08-22T02:01	10	0	0.1	0	0	383	0.2	383	383	15.2	94.9
2025-08-22T02:02	10	0	0.1	0	0	383	0.2	382	383	15.2	94.9
2025-08-22T02:03	10	0	0.1	0	0	383	0.2	382	383	15.2	95.0
2025-08-22T02:04	10	0	0.1	0	0	383	0.2	383	384	15.2	94.9
2025-08-22T02:05	10	0	0.1	0	0	383	0.2	382	383	15.2	94.8
2025-08-22T02:06	10	0	0.0	0	0	383	0.2	382	383	15.1	94.8
2025-08-22T02:07	10	0	0.1	0	0	383	0.3	382	383	15.1	95.0
2025-08-22T02:08	10	0	0.1	0	0	383	0.2	382	383	15.2	94.9
2025-08-22T02:09	10	0	0.1	0	0	383	0.2	382	383	15.2	94.9
2025-08-22T02:10	10	0	0.1	0	0	382	0.2	382	383	15.1	95.0
2025-08-22T02:11	10	0	0.1	0	0	382	0.2	382	383	15.1	95.2
2025-08-22T02:12	10	0	0.1	0	0	382	0.2	382	382	15.2	95.0
2025-08-22T02:13	10	0	0.1	0	0	383	0.2	382	383	15.2	94.8
2025-08-22T02:14	10	0	0.6	0	4	382	0.2	382	383	15.2	94.7
2025-08-22T02:15	10	0	0.1	0	0	382	0.2	382	383	15.2	94.9
2025-08-22T02:16	10	0	0.1	0	0	382	0.2	381	382	15.1	95.1
2025-08-22T02:17	10	0	0.1	0	0	382	0.2	381	382	15.1	95.1
2025-08-22T02:18	10	0	0.1	0	0	381	0.2	381	382	15.1	95.3
2025-08-22T02:19	10	0	0.1	0	0	381	0.3	381	382	15.1	95.2
2025-08-22T02:20	10	0	0.1	0	0	381	0.2	381	382	15.1	95.1
2025-08-22T02:21	10	0	0.1	0	0	382	0.2	381	382	15.1	94.9
2025-08-22T02:22	10	0	0.1	0	0	382	0.2	381	382	15.1	95.0
2025-08-22T02:23	10	0	0.1	0	0	381	0.3	381	382	15.1	95.0
2025-08-22T02:24	10	0	0.1	0	0	381	0.3	381	382	15.1	95.0
2025-08-22T02:25	10	0	0.1	0	0	381	0.3	381	382	15.1	95.1
2025-08-22T02:26	10	0	0.1	0	0	381	0.3	381	382	15.1	95.2
2025-08-22T02:27	10	0	0.1	0	0	381	0.3	380	382	15.0	95.2
2025-08-22T02:28	10	0	0.1	0	0	381	0.3	380	381	15.1	95.4
2025-08-22T02:29	10	0	0.1	0	0	381	0.2	381	382	15.1	95.3
2025-08-22T02:30	10	0	0.1	0	0	381	0.2	381	382	15.1	95.3
2025-08-22T02:31	10	0	0.1	0	0	381	0.2	381	381	15.1	95.2
2025-08-22T02:32	10	0	0.1	0	0	381	0.3	381	382	15.1	95.3
2025-08-22T02:33	10	0	0.1	0	0	381	0.2	380	381	15.1	95.4
2025-08-22T02:34	10	0	0.1	0	0	381	0.2	380	381	15.1	95.4
2025-08-22T02:35	10	0	0.1	0	0	380	0.2	380	381	15.0	95.3
2025-08-22T02:36	10	0	0.1	0	0	380	0.2	380	381	15.0	95.2
2025-08-22T02:37	10	0	0.1	0	0	381	0.2	380	381	15.0	95.3
2025-08-22T02:38	10	0	0.1	0	0	381	0.3	380	382	15.1	95.3
2025-08-22T02:39	10	0	0.1	0	0	381	0.3	380	381	15.0	95.3
2025-08-22T02:40	10	0	0.0	0	0	381	0.2	380	381	15.0	95.4
2025-08-22T02:41	10	0	0.1	0	0	381	0.2	380	381	15.1	95.5
2025-08-22T02:42	10	0	0.1	0	0	381	0.2	380	381	15.1	95.4
2025-08-22T02:43	10	0	0.1	0	0	381	0.2	381	382	15.1	95.4
2025-08-22T02:44	10	0	0.1	0	0	381	0.2	381	382	15.1	95.3
2025-08-22T02:45	10	0	0.1	0	0	381	0.2	381	381	15.1	95.3
2025-08-22T02:46	10	0	0.1	0	0	381	0.2	380	381	15.0	95.2
2025-08-22T02:47	10	0	0.1	0	0	381	0.2	381	382	15.0	95.1
2025-08-22T02:48	10	0	0.1	0	1	381	0.3	381	382	15.1	95.2
2025-08-22T02:49	10	0	0.1	0	0	382	0.3	381	383	15.1	95.1
2025-08-22T02:50	10	0	0.1	0	1	382	0.3	381	382	15.1	95.1
2025-08-22T02:51	10	0	0.1	0	0	381	0.2	381	382	15.1	95.1
2025-08-22T02:52	10	0	0.1	0	0	382	0.3	381	382	15.1	95.0
2025-08-22T02:53	10	0	0.1	0	1	382	0.3	381	383	15.1	94.8
2025-08-22T02:54	10	0	0.1	0	1	382	0.3	381	383	15.1	94.8
2025-08-22T02:55	10	0	0.1	0	0	382	0.2	381	382	15.1	94.7
2025-08-22T02:56	10	0	0.2	0	1	382	0.3	381	383	15.1	94.4
2025-08-22T02:57	10	0	0.2	0	1	382	0.3	381	382	15.1	94.4
2025-08-22T02:58	10	0	0.1	0	0	382	0.3	381	383	15.1	94.4
2025-08-22T02:59	10	0	0.1	0	1	382	0.2	382	383	15.1	94.3
2025-08-22T03:00	10	0	0.1	0	0	382	0.2	382	383	15.1	94.3
2025-08-22T03:01	10	0	0.1	0	0	382	0.2	381	382	15.0	94.4
2025-08-22T03:02	10	0	0.2	0	1	382	0.3	382	383	15.1	94.3
2025-08-22T03:03	10	0	0.1	0	0	382	0.2	381	382	15.1	94.2
2025-08-22T03:04	10	0	0.1	0	0	382	0.3	381	383	15.0	94.3
2025-08-22T03:05	10	0	0.1	0	0	381	0.2	381	382	15.0	94.3
2025-08-22T03:06	10	0	0.1	0	1	381	0.3	381	382	14.9	94.3
2025-08-22T03:07	10	0	0.1	0	0	381	0.2	381	382	14.9	94.3
2025-08-22T03:08	10	0	0.1	0	0	381	0.2	381	382	15.0	94.1
2025-08-22T03:09	10	0	0.1	0	0	381	0.3	380	382	15.0	94.0
2025-08-22T03:10	10	0	0.1	0	1	381	0.3	381	382	15.0	94.0
2025-08-22T03:11	10	0	0.1	0	1	381	0.3	380	382	15.0	94.0
2025-08-22T03:12	10	0	0.1	0	0	381	0.2	380	381	15.0	93.9
2025-08-22T03:13	10	0	0.1	0	0	381	0.2	380	381	15.0	94.1
2025-08-22T03:14	10	0	0.1	0	0	381	0.2	380	381	15.1	93.8
2025-08-22T03:15	10	0	0.1	0	0	380	0.3	380	381	15.1	93.6
2025-08-22T03:16	10	0	0.1	0	0	380	0.2	380	381	15.0	93.8
2025-08-22T03:17	10	0	0.1	0	0	380	0.2	379	380	15.0	93.8
2025-08-22T03:18	10	0	0.1	0	0	380	0.3	379	381	15.0	93.8
2025-08-22T03:19	10	0	0.1	0	0	380	0.3	379	381	15.0	93.8
2025-08-22T03:20	10	0	0.1	0	0	380	0.3	380	381	15.0	93.9
2025-08-22T03:21	10	0	0.1	0	0	380	0.2	380	381	14.9	93.9
2025-08-22T03:22	10	0	0.1	0	0	380	0.2	380	381	15.0	93.5
2025-08-22T03:23	10	0	0.1	0	0	380	0.2	380	381	15.1	93.2
2025-08-22T03:24	10	0	0.1	0	0	380	0.2	380	381	15.1	93.1
2025-08-22T03:25	10	0	0.1	0	0	380	0.2	380	381	15.0	93.2
2025-08-22T03:26	10	0	0.1	0	0	380	0.3	379	381	15.0	93.5
2025-08-22T03:27	10	0	0.1	0	0	380	0.2	380	381	15.0	93.5
2025-08-22T03:28	10	0	0.1	0	0	380	0.2	379	380	15.0	93.8
2025-08-22T03:29	10	0	0.1	0	0	380	0.3	379	380	14.9	93.8
2025-08-22T03:30	10	0	0.0	0	0	379	0.2	379	380	14.9	94.1
2025-08-22T03:31	10	0	0.1	0	0	380	0.3	379	380	15.0	94.2
2025-08-22T03:32	10	0	0.1	0	0	379	0.2	379	380	15.1	94.2
2025-08-22T03:33	10	0	0.1	0	0	379	0.3	378	380	15.0	94.2
2025-08-22T03:34	10	0	0.1	0	1	378	0.2	378	379	14.9	94.4
2025-08-22T03:35	10	0	0.2	0	1	378	0.3	377	379	14.9	94.6
2025-08-22T03:36	10	0	0.1	0	0	378	0.2	378	379	14.8	94.7
2025-08-22T03:37	10	0	0.1	0	0	378	0.3	378	379	14.7	94.9
2025-08-22T03:38	10	0	0.1	0	0	379	0.2	378	379	14.7	95.2
2025-08-22T03:39	10	0	0.1	0	0	379	0.3	378	380	14.8	95.3
2025-08-22T03:40	10	0	0.1	0	0	379	0.2	378	380	14.8	95.5
2025-08-22T03:41	10	0	0.1	0	0	379	0.2	379	380	14.8	95.6
2025-08-22T03:42	10	0	0.1	0	0	379	0.2	378	380	14.8	95.6
2025-08-22T03:43	10	0	0.1	-1	0	378	0.2	378	379	14.7	95.8
2025-08-22T03:44	10	0	0.1	0	0	378	0.2	377	378	14.6	96.0
2025-08-22T03:45	10	0	0.1	0	0	378	0.2	377	378	14.6	96.1
2025-08-22T03:46	10	0	0.1	0	0	377	0.2	377	378	14.6	96.3
2025-08-22T03:47	10	0	0.1	0	0	377	0.2	376	377	14.6	96.3
2025-08-22T03:48	10	0	0.1	0	0	377	0.2	376	377	14.5	96.1
2025-08-22T03:49	10	0	0.1	0	1	377	0.3	376	378	14.5	95.7
2025-08-22T03:50	10	0	0.1	0	0	377	0.2	377	378	14.5	95.4
2025-08-22T03:51	10	0	0.1	0	0	377	0.3	377	378	14.6	95.5
2025-08-22T03:52	10	0	0.1	0	0	377	0.2	377	378	14.6	95.6
2025-08-22T03:53	10	0	0.2	0	0	377	0.2	377	378	14.6	95.6
2025-08-22T03:54	10	0	0.1	0	0	377	0.3	376	378	14.6	95.4
2025-08-22T03:55	10	0	0.2	0	1	377	0.3	376	378	14.7	95.3
2025-08-22T03:56	10	0	0.1	0	0	378	0.3	377	378	14.7	95.4
2025-08-22T03:57	10	0	0.2	0	1	377	0.3	376	378	14.7	95.3
2025-08-22T03:58	10	0	0.2	0	1	378	0.3	377	379	14.7	95.1
2025-08-22T03:59	10	0	0.2	0	0	378	0.3	377	379	14.8	94.9
2025-08-22T04:00	10	0	0.1	0	0	378	0.2	377	378	14.7	94.8
2025-08-22T04:01	10	0	0.2	0	1	378	0.3	377	378	14.7	94.9
2025-08-22T04:02	10	0	0.1	0	0	378	0.4	376	378	14.7	94.9
2025-08-22T04:03	10	0	0.1	0	0	378	0.3	377	379	14.6	95.1
2025-08-22T04:04	10	0	0.1	0	1	378	0.2	377	378	14.6	95.3
2025-08-22T04:05	10	0	0.2	0	1	378	0.3	377	378	14.6	95.5
2025-08-22T04:06	10	0	0.1	0	0	378	0.3	377	378	14.6	95.6
2025-08-22T04:07	10	0	0.2	0	0	378	0.2	378	378	14.7	95.3
2025-08-22T04:08	10	0	0.1	0	0	378	0.3	378	379	14.7	95.2
2025-08-22T04:09	10	0	0.1	0	0	378	0.3	378	379	14.8	95.0
2025-08-22T04:10	10	0	0.2	0	1	378	0.2	377	379	14.7	94.9
2025-08-22T04:11	10	0	0.1	0	0	378	0.3	377	379	14.8	94.7
2025-08-22T04:12	10	0	0.2	0	1	378	0.2	378	379	14.8	94.5
2025-08-22T04:13	10	0	0.2	0	1	378	0.3	377	379	14.8	94.3
2025-08-22T04:14	10	0	0.2	0	1	378	0.2	378	379	14.8	94.2
2025-08-22T04:15	10	0	0.2	0	0	378	0.3	377	379	14.8	94.1
2025-08-22T04:16	10	0	0.2	0	0	378	0.3	377	379	14.8	94.1
2025-08-22T04:17	10	0	0.1	0	1	378	0.3	377	378	14.7	94.0
2025-08-22T04:18	10	0	0.1	0	0	378	0.3	377	378	14.6	94.2
2025-08-22T04:19	10	0	0.2	0	1	377	0.2	377	378	14.6	94.2
2025-08-22T04:20	10	0	0.2	0	1	377	0.3	377	378	14.6	94.4
2025-08-22T04:21	10	0	0.4	0	2	377	0.2	377	378	14.5	94.5
2025-08-22T04:22	10	0	0.1	0	0	377	0.3	376	377	14.4	94.7
2025-08-22T04:23	10	0	0.4	0	3	376	0.2	376	377	14.4	94.8
2025-08-22T04:24	10	0	0.1	0	1	376	0.3	376	377	14.4	94.8
2025-08-22T04:25	10	0	0.5	0	4	376	0.2	375	377	14.4	94.8
2025-08-22T04:26	10	0	0.2	0	1	376	0.3	375	377	14.3	94.8
2025-08-22T04:27	10	0	0.5	0	3	376	0.2	375	376	14.3	95.0
2025-08-22T04:28	10	0	0.1	0	1	376	0.2	376	376	14.3	95.1
2025-08-22T04:29	10	0	0.1	0	1	376	0.2	375	376	14.3	95.1
2025-08-22T04:30	10	0	0.2	0	1	376	0.3	375	376	14.2	95.4
2025-08-22T04:31	10	0	0.1	0	1	376	0.3	375	376	14.2	95.7
2025-08-22T04:32	10	0	0.1	0	1	375	0.2	375	376	14.2	95.9
2025-08-22T04:33	10	0	0.1	0	0	376	0.2	375	376	14.3	96.0
2025-08-22T04:34	10	0	0.1	0	1	376	0.2	375	376	14.3	96.1
2025-08-22T04:35	10	0	0.2	0	1	376	0.2	375	376	14.3	96.1
2025-08-22T04:36	10	0	0.1	0	1	375	0.3	375	376	14.3	96.2
2025-08-22T04:37	10	0	0.1	0	1	375	0.2	374	375	14.3	96.3
2025-08-22T04:38	10	0	0.1	0	1	375	0.2	374	375	14.2	96.5
2025-08-22T04:39	10	0	0.1	0	1	375	0.3	374	376	14.2	96.6
2025-08-22T04:40	10	0	0.2	0	1	375	0.3	374	376	14.1	96.8
2025-08-22T04:41	10	0	0.1	0	1	376	0.4	375	377	14.1	96.8
2025-08-22T04:42	10	0	0.2	0	1	377	0.2	376	377	14.1	97.1
2025-08-22T04:43	10	1	0.1	0	1	377	0.3	377	378	14.1	97.0
2025-08-22T04:44	10	1	0.2	0	1	378	0.2	377	378	14.0	97.2
2025-08-22T04:45	10	1	0.1	0	1	378	0.3	377	379	14.0	97.2
2025-08-22T04:46	10	1	0.1	0	1	378	0.3	378	379	14.0	97.3
2025-08-22T04:47	10	1	0.1	0	1	379	0.2	378	379	14.0	97.0
2025-08-22T04:48	10	1	0.1	1	1	379	0.2	378	379	14.0	96.8
2025-08-22T04:49	10	1	0.1	1	1	379	0.2	378	379	14.0	96.7
2025-08-22T04:50	10	1	0.1	1	1	379	0.2	379	380	14.0	96.7
2025-08-22T04:51	10	1	0.1	1	1	379	0.3	379	380	14.0	96.6
2025-08-22T04:52	10	1	0.1	1	1	380	0.2	379	380	14.0	96.6
2025-08-22T04:53	10	1	0.1	1	1	380	0.3	379	380	14.0	96.6
2025-08-22T04:54	10	1	0.1	1	1	380	0.2	380	381	14.0	96.5
2025-08-22T04:55	10	1	0.1	1	1	380	0.2	379	380	14.0	96.4
2025-08-22T04:56	10	1	0.1	1	1	380	0.2	379	380	14.0	96.4
2025-08-22T04:57	10	1	0.1	1	1	380	0.2	380	381	14.1	96.6
2025-08-22T04:58	10	1	0.1	1	2	380	0.2	380	381	14.1	96.7
2025-08-22T04:59	10	1	0.1	1	2	381	0.2	380	381	14.1	96.7
2025-08-22T05:00	10	1	0.1	1	2	381	0.2	380	381	14.1	96.8
2025-08-22T05:01	10	2	0.1	1	2	381	0.2	380	381	14.1	96.8
2025-08-22T05:02	10	2	0.1	2	2	381	0.2	380	381	14.1	96.9
2025-08-22T05:03	10	2	0.0	2	2	381	0.2	380	381	14.1	96.9
2025-08-22T05:04	10	2	0.1	2	3	381	0.2	380	381	14.1	97.0
2025-08-22T05:05	10	2	0.1	2	2	381	0.2	380	381	14.1	97.0
2025-08-22T05:06	10	2	0.1	2	2	381	0.2	380	381	14.1	97.1
2025-08-22T05:07	10	2	0.1	2	3	381	0.2	380	381	14.1	97.1
2025-08-22T05:08	10	3	0.1	2	3	381	0.2	380	381	14.1	97.1
2025-08-22T05:09	10	3	0.3	3	4	381	0.2	380	381	14.1	97.1
2025-08-22T05:10	10	4	0.5	4	7	381	0.2	380	381	14.1	97.2
2025-08-22T05:11	10	5	0.2	5	6	381	0.2	380	381	14.1	97.2
2025-08-22T05:12	10	6	0.2	5	6	381	0.2	380	381	14.1	97.3
2025-08-22T05:13	10	6	0.2	6	7	381	0.2	380	381	14.1	97.4
2025-08-22T05:14	10	7	0.1	6	7	381	0.2	381	382	14.1	97.4
2025-08-22T05:15	10	7	0.2	7	7	381	0.2	380	381	14.1	97.4
2025-08-22T05:16	10	7	0.1	7	8	381	0.3	381	382	14.1	97.4
2025-08-22T05:17	10	7	0.1	7	8	381	0.2	381	382	14.2	97.3
2025-08-22T05:18	10	7	0.3	6	7	381	0.2	381	382	14.2	97.2
2025-08-22T05:19	10	6	0.2	6	6	381	0.2	381	382	14.2	97.0
2025-08-22T05:20	10	6	0.1	6	6	381	0.2	381	381	14.2	96.9
2025-08-22T05:21	10	6	0.1	6	6	381	0.2	381	382	14.2	96.9
2025-08-22T05:22	10	6	0.1	6	7	381	0.2	381	382	14.3	96.6
2025-08-22T05:23	10	7	0.1	7	7	382	0.2	381	382	14.3	96.3
2025-08-22T05:24	10	7	0.1	7	7	381	0.3	381	382	14.3	96.1
2025-08-22T05:25	10	7	0.1	7	7	382	0.2	381	382	14.3	96.0
2025-08-22T05:26	10	8	0.1	7	8	382	0.2	381	382	14.4	95.8
2025-08-22T05:27	10	8	0.1	8	8	382	0.2	381	382	14.4	95.7
2025-08-22T05:28	10	9	0.7	8	10	382	0.2	381	382	14.3	95.8
2025-08-22T05:29	10	12	0.9	10	13	382	0.3	381	383	14.3	95.7
2025-08-22T05:30	10	14	0.5	13	15	382	0.3	382	383	14.4	95.5
2025-08-22T05:31	10	15	0.2	15	16	383	0.2	382	383	14.4	95.3
2025-08-22T05:32	10	16	0.1	15	16	383	0.2	382	383	14.4	95.4
2025-08-22T05:33	10	16	0.1	16	16	383	0.2	382	383	14.3	95.6
2025-08-22T05:34	10	17	0.1	16	17	383	0.3	383	384	14.3	95.4
2025-08-22T05:35	10	17	0.2	16	17	383	0.2	383	383	14.4	95.2
2025-08-22T05:36	10	17	0.2	17	18	383	0.2	383	384	14.4	95.4
2025-08-22T05:37	10	18	0.2	17	18	384	0.3	383	384	14.4	95.0
2025-08-22T05:38	10	18	0.2	18	19	384	0.2	383	384	14.4	95.2
2025-08-22T05:39	10	19	0.1	19	19	384	0.2	383	384	14.4	94.8
2025-08-22T05:40	10	19	0.2	19	20	384	0.2	383	384	14.5	94.5
2025-08-22T05:41	10	20	0.2	20	20	384	0.2	384	385	14.5	94.6
2025-08-22T05:42	10	20	0.2	20	21	385	0.2	384	385	14.5	94.5
2025-08-22T05:43	10	21	0.1	21	21	385	0.3	385	386	14.5	94.6
2025-08-22T05:44	10	21	0.1	21	21	385	0.3	385	386	14.5	94.4
2025-08-22T05:45	10	22	0.2	21	22	385	0.3	385	386	14.5	94.3
2025-08-22T05:46	10	22	0.2	22	22	386	0.3	385	386	14.6	94.4
2025-08-22T05:47	10	23	0.2	22	23	386	0.2	386	387	14.6	94.4
2025-08-22T05:48	10	24	0.3	23	24	387	0.2	386	387	14.6	94.6
2025-08-22T05:49	10	25	0.2	24	25	387	0.2	387	388	14.6	94.7
2025-08-22T05:50	10	25	0.2	25	26	387	0.2	387	388	14.6	94.8
2025-08-22T05:51	10	26	0.2	26	26	388	0.2	388	388	14.7	94.8
2025-08-22T05:52	10	27	0.3	26	27	388	0.2	388	389	14.7	94.9
2025-08-22T05:53	10	27	0.2	27	28	389	0.3	388	389	14.7	94.9
2025-08-22T05:54	10	28	0.1	27	28	389	0.2	388	389	14.7	95.0
2025-08-22T05:55	10	28	0.1	27	28	389	0.2	389	390	14.7	95.3
2025-08-22T05:56	10	28	0.3	27	28	389	0.2	388	389	14.7	95.5
2025-08-22T05:57	10	27	1.2	24	28	389	0.3	388	390	14.7	95.9
2025-08-22T05:58	10	21	2.0	18	25	389	0.5	388	390	14.6	95.6
2025-08-22T05:59	10	26	0.8	25	27	389	0.2	388	389	14.6	95.4
2025-08-22T06:00	10	27	0.3	27	28	389	0.3	388	390	14.6	95.1
2025-08-22T06:01	10	28	0.3	28	29	390	0.4	389	390	14.7	95.4
2025-08-22T06:02	10	27	3.0	22	30	390	0.3	389	391	14.7	95.8
2025-08-22T06:03	10	28	3.1	20	31	391	0.3	390	391	14.7	95.6
2025-08-22T06:04	10	25	3.3	20	29	391	0.3	390	392	14.9	95.8
2025-08-22T06:05	10	18	1.7	16	23	391	0.3	390	391	14.9	95.8
2025-08-22T06:06	10	16	0.3	16	17	390	0.3	390	391	14.9	95.4
2025-08-22T06:07	10	15	0.5	14	16	391	0.3	390	391	14.9	95.5
2025-08-22T06:08	10	15	0.2	14	15	391	0.3	390	391	14.9	95.6
2025-08-22T06:09	10	16	0.4	15	16	391	0.2	390	391	14.9	95.6
2025-08-22T06:10	10	17	0.2	16	17	391	0.3	391	392	14.9	95.1
2025-08-22T06:11	10	17	0.2	16	17	392	0.3	391	392	14.9	94.9
2025-08-22T06:12	10	16	0.2	16	17	392	0.2	391	392	14.9	94.7
2025-08-22T06:13	10	16	0.2	15	16	392	0.2	391	392	14.9	93.6
2025-08-22T06:14	10	15	0.2	14	15	392	0.3	391	392	14.9	93.9
2025-08-22T06:15	10	15	0.3	14	15	391	0.3	391	392	15.0	93.8
2025-08-22T06:16	10	14	0.2	14	15	391	0.2	390	391	15.0	93.4
2025-08-22T06:17	10	22	8.8	15	38	391	0.4	390	392	15.0	93.5
2025-08-22T06:18	10	38	0.2	38	39	393	0.7	391	394	15.0	93.0
2025-08-22T06:19	10	39	0.1	38	39	394	0.5	393	395	15.1	93.1
2025-08-22T06:20	10	39	0.2	39	39	395	0.2	394	395	15.2	93.1
2025-08-22T06:21	10	40	0.2	39	40	395	0.2	394	395	15.2	92.8
2025-08-22T06:22	10	40	0.2	40	41	395	0.2	395	396	15.3	92.0
2025-08-22T06:23	10	41	0.2	41	42	395	0.3	395	396	15.3	91.8
2025-08-22T06:24	10	42	0.2	41	42	396	0.2	395	396	15.3	91.9
2025-08-22T06:25	10	42	0.2	42	43	397	0.3	396	397	15.4	92.1
2025-08-22T06:26	10	43	0.3	43	44	396	0.2	396	397	15.4	90.6
2025-08-22T06:27	10	44	0.2	44	45	397	0.2	396	397	15.4	90.6
2025-08-22T06:28	10	45	0.1	44	45	397	0.2	397	398	15.5	90.6
2025-08-22T06:29	10	45	0.2	45	45	398	0.2	397	398	15.5	90.2
2025-08-22T06:30	10	45	0.1	45	46	398	0.3	397	399	15.5	90.1
2025-08-22T06:31	10	46	0.1	45	46	399	0.2	398	399	15.6	90.1
2025-08-22T06:32	10	46	0.2	46	46	399	0.4	398	400	15.6	90.6
2025-08-22T06:33	10	47	0.2	46	47	400	0.2	399	400	15.6	90.6
2025-08-22T06:34	10	47	0.2	47	47	400	0.3	399	400	15.6	90.5
2025-08-22T06:35	10	48	0.2	47	48	400	0.2	399	400	15.6	90.3
2025-08-22T06:36	10	48	0.2	48	48	400	0.3	399	401	15.7	89.6
2025-08-22T06:37	10	49	0.1	48	49	400	0.2	400	401	15.7	88.4
2025-08-22T06:38	10	49	0.1	49	49	400	0.2	399	400	15.7	87.7
2025-08-22T06:39	10	49	0.2	49	50	401	0.2	400	401	15.8	88.7
2025-08-22T06:40	10	50	0.1	50	50	401	0.2	401	402	15.8	89.0
2025-08-22T06:41	10	50	0.2	50	51	402	0.3	401	403	15.9	89.3
2025-08-22T06:42	10	51	0.2	50	51	402	0.2	402	403	15.9	89.3
2025-08-22T06:43	10	51	0.1	51	51	403	0.4	402	404	15.9	89.2
2025-08-22T06:44	10	51	0.2	51	52	404	0.3	403	404	16.0	89.4
2025-08-22T06:45	10	52	0.1	52	52	404	0.4	403	405	16.1	90.1
2025-08-22T06:46	10	52	0.1	52	52	404	0.4	403	404	16.1	89.9
2025-08-22T06:47	10	52	0.1	52	53	404	0.2	404	404	16.1	89.7
2025-08-22T06:48	10	52	0.1	52	53	404	0.4	404	405	16.2	89.5
2025-08-22T06:49	10	53	0.2	52	53	404	0.3	404	405	16.2	89.9
2025-08-22T06:50	10	53	0.1	53	53	404	0.3	403	405	16.1	89.5
2025-08-22T06:51	10	53	0.2	53	54	404	0.3	404	405	16.1	88.8
2025-08-22T06:52	10	54	0.2	54	54	405	0.2	404	405	16.1	89.0
2025-08-22T06:53	10	55	0.3	54	55	405	0.3	404	405	16.2	89.0
2025-08-22T06:54	10	55	0.2	55	56	405	0.2	405	406	16.1	89.2
2025-08-22T06:55	10	56	0.2	56	56	405	0.3	405	406	16.1	88.8
2025-08-22T06:56	10	56	0.1	56	57	406	0.3	405	406	16.1	88.9
2025-08-22T06:57	10	57	0.1	57	57	405	0.3	405	406	16.0	88.5
2025-08-22T06:58	10	57	0.2	57	58	406	0.2	405	406	16.0	89.0
2025-08-22T06:59	10	58	0.2	57	58	406	0.2	405	406	16.0	88.4
2025-08-22T07:00	10	58	0.3	58	59	406	0.3	406	407	16.1	88.0
2025-08-22T07:01	10	59	0.2	59	60	407	0.3	407	408	16.1	87.3
2025-08-22T07:02	10	60	0.2	59	60	408	0.2	407	408	16.3	88.0
2025-08-22T07:03	10	60	0.1	60	60	409	0.3	408	409	16.4	87.9
2025-08-22T07:04	10	60	0.1	60	61	409	0.2	409	410	16.4	88.7
2025-08-22T07:05	10	60	0.1	60	61	410	0.2	409	410	16.5	88.9
2025-08-22T07:06	10	61	0.2	61	62	409	0.3	409	410	16.5	88.4
2025-08-22T07:07	10	61	0.3	61	62	409	0.3	409	410	16.6	86.7
2025-08-22T07:08	10	62	0.2	61	62	410	0.3	409	410	16.6	85.0
2025-08-22T07:09	10	62	0.2	62	62	411	0.2	410	411	16.7	84.9
2025-08-22T07:10	10	59	4.8	49	63	411	0.5	410	412	16.9	85.7
2025-08-22T07:11	10	59	3.0	51	63	411	0.3	410	412	17.0	86.4
2025-08-22T07:12	10	64	0.5	63	64	412	0.2	411	412	16.9	86.3
2025-08-22T07:13	10	65	0.5	63	66	412	0.2	411	412	16.8	86.1
2025-08-22T07:14	10	65	2.0	57	66	411	0.6	410	412	16.7	87.3
2025-08-22T07:15	10	34	8.8	26	57	408	2.0	406	412	16.6	86.0
2025-08-22T07:16	10	56	14.2	32	68	408	1.6	405	410	16.6	85.6
2025-08-22T07:17	10	67	0.1	67	68	411	0.5	410	411	16.7	85.4
2025-08-22T07:18	10	64	3.9	56	67	411	0.4	410	412	16.8	85.8
2025-08-22T07:19	10	65	1.1	63	67	412	0.5	411	413	16.8	85.9
2025-08-22T07:20	10	54	6.2	43	63	411	0.7	409	412	16.7	84.8
2025-08-22T07:21	10	33	5.2	26	43	407	1.3	405	410	16.6	83.9
2025-08-22T07:22	10	24	1.2	22	26	405	0.5	404	406	16.6	84.4
2025-08-22T07:23	10	22	0.1	22	22	404	0.4	403	405	16.6	84.2
2025-08-22T07:24	10	22	0.1	22	22	404	0.4	403	404	16.7	84.1
2025-08-22T07:25	10	22	0.2	22	23	403	0.3	402	404	16.7	83.9
2025-08-22T07:26	10	24	0.6	23	25	403	0.2	402	403	16.7	81.9
2025-08-22T07:27	10	26	0.5	25	27	403	0.4	402	404	16.8	81.2
2025-08-22T07:28	10	27	0.3	27	27	404	0.3	403	405	16.8	82.0
2025-08-22T07:29	10	27	0.1	27	27	404	0.3	404	405	16.8	81.3
2025-08-22T07:30	10	27	0.2	27	28	405	0.3	404	405	16.9	81.4
2025-08-22T07:31	10	28	0.5	28	29	405	0.3	405	406	16.9	82.5
2025-08-22T07:32	10	30	0.5	29	31	406	0.3	406	407	17.0	81.9
2025-08-22T07:33	10	31	0.3	31	32	407	0.4	406	408	17.0	81.9
2025-08-22T07:34	10	32	0.3	32	33	407	0.3	407	408	17.1	82.0
2025-08-22T07:35	10	33	0.3	33	34	408	0.3	407	409	17.1	81.0
2025-08-22T07:36	10	34	0.2	34	34	409	0.3	408	409	17.1	80.9
2025-08-22T07:37	10	34	0.2	34	35	409	0.3	408	410	17.1	80.3
2025-08-22T07:38	10	35	0.2	34	35	409	0.4	409	411	17.1	80.4
2025-08-22T07:39	10	35	0.1	35	35	410	0.2	409	410	17.2	82.5
2025-08-22T07:40	10	35	0.1	35	36	410	0.2	409	410	17.3	82.4
2025-08-22T07:41	10	36	0.3	36	37	410	0.3	410	411	17.3	81.5
2025-08-22T07:42	10	37	0.2	36	37	410	0.3	410	411	17.3	81.8
2025-08-22T07:43	10	38	0.3	37	38	411	0.3	410	412	17.3	84.2
2025-08-22T07:44	10	39	0.3	38	39	411	0.3	411	412	17.3	83.2
2025-08-22T07:45	10	40	0.4	39	41	412	0.4	411	412	17.3	82.4
2025-08-22T07:46	10	41	0.2	40	41	412	0.3	411	413	17.3	82.4
2025-08-22T07:47	10	41	0.1	41	42	413	0.3	412	414	17.3	82.0
2025-08-22T07:48	10	41	0.1	41	41	414	0.4	413	415	17.3	81.8
2025-08-22T07:49	10	41	0.3	40	41	414	0.2	413	414	17.3	81.3
2025-08-22T07:50	10	39	0.3	39	40	414	0.3	413	414	17.3	79.5
2025-08-22T07:51	10	39	0.3	38	39	414	0.4	413	414	17.3	79.6
2025-08-22T07:52	10	38	0.1	38	39	413	0.2	412	414	17.3	78.9
2025-08-22T07:53	10	39	0.3	38	39	413	0.3	413	414	17.3	79.9
2025-08-22T07:54	10	40	0.4	39	41	413	0.3	412	414	17.2	79.5
2025-08-22T07:55	10	42	0.4	41	43	414	0.2	413	414	17.2	79.2
2025-08-22T07:56	10	43	0.3	42	44	415	0.4	414	416	17.2	79.4
2025-08-22T07:57	10	44	0.2	44	44	416	0.3	415	417	17.3	80.5
2025-08-22T07:58	10	44	0.1	44	44	415	0.2	415	416	17.4	79.4
2025-08-22T07:59	10	44	0.2	43	44	416	0.2	415	416	17.4	78.4
2025-08-22T08:00	10	43	0.3	42	44	416	0.2	416	417	17.4	78.4
2025-08-22T08:01	10	42	0.3	42	43	416	0.2	416	417	17.4	78.7
2025-08-22T08:02	10	41	0.2	41	42	417	0.3	416	417	17.4	79.0
2025-08-22T08:03	10	41	0.1	41	41	416	0.3	415	417	17.5	79.3
2025-08-22T08:04	10	41	0.2	41	41	416	0.3	416	417	17.5	79.0
2025-08-22T08:05	10	42	0.2	41	42	417	0.3	416	417	17.5	79.6
2025-08-22T08:06	10	42	0.2	42	43	417	0.2	416	417	17.5	79.0
2025-08-22T08:07	10	43	0.2	43	43	417	0.4	416	417	17.5	78.0
2025-08-22T08:08	10	43	0.1	43	44	417	0.4	416	417	17.6	77.8
2025-08-22T08:09	10	44	0.1	44	44	417	0.2	416	417	17.7	78.0
2025-08-22T08:10	10	44	0.2	44	45	417	0.3	417	418	17.6	78.4
2025-08-22T08:11	10	45	0.2	44	45	417	0.3	416	418	17.6	78.7
2025-08-22T08:12	10	45	0.3	45	46	417	0.3	416	417	17.5	77.8
2025-08-22T08:13	10	45	0.1	45	46	416	0.2	415	416	17.4	78.4
2025-08-22T08:14	10	45	0.2	45	46	417	0.4	416	418	17.5	78.5
2025-08-22T08:15	10	48	1.8	46	51	418	0.6	417	419	17.6	79.0
2025-08-22T08:16	10	46	1.7	44	49	418	0.5	416	419	17.6	78.7
2025-08-22T08:17	10	44	0.3	43	44	417	0.3	417	418	17.5	78.2
2025-08-22T08:18	10	43	0.2	43	44	417	0.6	416	419	17.5	78.7
2025-08-22T08:19	10	43	0.2	43	44	416	0.4	416	417	17.5	79.0
2025-08-22T08:20	10	43	0.2	43	44	417	0.4	416	418	17.4	79.2
2025-08-22T08:21	10	43	0.2	43	44	416	0.4	416	417	17.5	79.9
2025-08-22T08:22	10	43	0.3	42	44	416	0.3	415	416	17.5	79.3
2025-08-22T08:23	10	42	0.4	41	43	416	0.4	415	417	17.4	79.4
2025-08-22T08:24	10	41	0.4	40	42	416	0.5	415	417	17.4	79.7
2025-08-22T08:25	10	40	0.3	39	40	417	0.3	416	417	17.5	79.7
2025-08-22T08:26	10	39	0.2	39	39	417	0.4	416	418	17.6	80.0
2025-08-22T08:27	10	38	0.2	38	39	416	0.8	415	418	17.8	80.5
2025-08-22T08:28	10	38	0.2	37	38	415	0.4	414	416	17.7	80.2
2025-08-22T08:29	10	38	0.1	37	38	413	0.4	413	415	17.5	79.8
2025-08-22T08:30	10	38	0.1	37	38	414	0.2	414	414	17.6	80.3
2025-08-22T08:31	10	38	0.1	38	38	415	0.3	414	415	17.6	79.7
2025-08-22T08:32	10	38	0.1	38	39	415	0.4	415	416	17.6	80.4
2025-08-22T08:33	10	38	0.1	38	39	416	0.3	415	417	17.7	80.3
2025-08-22T08:34	10	39	0.2	39	39	416	0.3	415	416	17.7	80.0
2025-08-22T08:35	10	40	0.2	39	40	415	0.2	414	415	17.6	78.9
2025-08-22T08:36	10	40	0.3	40	41	415	0.4	414	416	17.6	79.0
2025-08-22T08:37	10	42	0.4	41	42	416	0.4	415	417	17.6	79.7
2025-08-22T08:38	10	43	0.2	42	43	417	0.3	417	418	17.8	80.1
2025-08-22T08:39	10	44	0.5	43	45	417	0.3	417	418	17.7	79.7
2025-08-22T08:40	10	45	0.3	44	45	418	0.2	417	418	17.8	79.9
2025-08-22T08:41	10	46	0.4	45	47	417	0.3	417	418	17.7	79.6
2025-08-22T08:42	10	48	0.6	47	49	417	0.3	417	418	17.7	79.7
2025-08-22T08:43	10	51	1.3	49	53	418	0.5	417	419	17.7	79.6
2025-08-22T08:44	10	55	0.9	53	56	420	0.7	419	422	17.8	79.4
2025-08-22T08:45	10	58	0.9	56	59	422	0.6	421	423	17.9	79.7
2025-08-22T08:46	10	62	1.6	59	64	423	0.5	422	424	17.9	79.2
2025-08-22T08:47	10	69	8.0	64	94	425	0.7	424	427	17.9	79.2
2025-08-22T08:48	10	83	14.4	61	104	428	0.9	426	429	18.0	78.8
2025-08-22T08:49	10	60	2.0	57	63	426	0.6	425	427	18.1	78.6
2025-08-22T08:50	10	58	0.7	57	59	425	0.3	424	426	18.1	77.9
2025-08-22T08:51	10	62	1.9	59	66	425	0.3	425	426	18.3	78.1
2025-08-22T08:52	10	67	1.0	66	69	427	0.4	426	427	18.3	78.0
2025-08-22T08:53	10	71	1.1	69	73	428	0.7	427	429	18.2	75.1
2025-08-22T08:54	10	70	0.9	69	73	429	0.4	428	430	18.3	77.7
2025-08-22T08:55	10	77	1.5	74	79	430	0.3	430	431	18.3	77.7
2025-08-22T08:56	10	74	1.0	72	76	430	0.2	429	430	18.3	77.7
2025-08-22T08:57	10	77	3.6	73	90	430	0.9	429	432	18.3	77.7
2025-08-22T08:58	10	98	6.0	92	110	434	1.0	431	435	18.3	77.7
2025-08-22T08:59	10	116	11.8	94	131	435	2.2	432	439	18.3	77.7
2025-08-22T09:00	10	104	13.0	86	128	438	1.5	435	440	18.3	77.7
2025-08-22T09:01	10	90	4.0	85	97	435	0.4	434	436	18.2	77.9
2025-08-22T09:02	10	118	18.1	88	145	437	3.0	433	442	18.3	77.9
2025-08-22T09:03	10	118	14.0	102	144	442	0.7	440	443	18.5	77.7
2025-08-22T09:04	10	94	6.8	81	106	439	1.4	437	442	18.7	78.3
2025-08-22T09:05	10	108	12.6	91	129	439	0.5	438	440	18.5	78.2
2025-08-22T09:06	10	134	4.4	129	141	441	0.9	439	443	18.4	79.0
2025-08-22T09:07	10	142	0.3	141	142	445	1.2	442	446	18.2	78.1
2025-08-22T09:08	10	136	5.5	118	142	446	0.4	445	447	18.3	78.5
2025-08-22T09:09	10	71	18.3	57	115	439	5.3	433	447	18.5	76.5
2025-08-22T09:10	10	55	1.1	53	57	432	1.9	429	435	18.8	75.9
2025-08-22T09:11	10	52	0.7	51	53	428	1.1	426	430	18.8	74.6
2025-08-22T09:12	10	50	0.2	50	51	425	0.8	424	427	18.5	73.7
2025-08-22T09:13	10	56	6.6	51	74	425	0.9	424	427	18.3	74.5
2025-08-22T09:14	10	126	19.4	76	139	435	5.7	425	443	18.3	75.0
2025-08-22T09:15	10	131	13.8	103	141	444	1.5	441	446	18.5	74.7
2025-08-22T09:16	10	112	23.2	77	135	444	2.4	439	447	18.6	74.5
2025-08-22T09:17	10	126	24.1	79	147	444	3.5	439	450	18.6	74.0
2025-08-22T09:18	10	101	32.3	66	147	445	4.5	438	450	19.0	75.0
2025-08-22T09:19	10	76	5.6	69	86	438	0.7	437	440	18.8	74.0
2025-08-22T09:20	10	68	5.1	62	80	438	1.0	436	440	18.9	75.3
2025-08-22T09:21	10	89	19.3	71	134	437	2.2	435	443	18.9	74.7
2025-08-22T09:22	10	143	2.0	135	144	447	2.3	441	450	18.9	74.4
2025-08-22T09:23	10	143	0.1	143	143	448	1.3	446	449	18.7	74.9
2025-08-22T09:24	10	142	0.2	142	143	447	1.0	446	449	18.7	75.0
2025-08-22T09:25	10	136	7.3	123	142	446	0.6	445	448	18.6	74.8
2025-08-22T09:26	10	143	0.7	141	144	452	1.6	448	454	18.8	74.4
2025-08-22T09:27	10	97	25.5	70	140	448	5.1	441	454	18.8	73.8
2025-08-22T09:28	10	125	17.3	89	142	446	3.1	441	451	18.8	74.7
2025-08-22T09:29	10	112	17.9	77	132	448	2.5	443	451	19.1	73.6
2025-08-22T09:30	10	89	7.3	76	100	444	1.0	442	446	19.1	73.4
2025-08-22T09:31	10	129	13.6	92	138	447	2.5	442	451	18.8	73.6
2025-08-22T09:32	10	64	32.2	39	133	443	6.3	433	452	18.8	73.8
2025-08-22T09:33	10	35	1.6	33	39	432	1.9	429	436	18.8	74.1
2025-08-22T09:34	10	32	0.5	31	33	427	1.1	426	430	18.7	74.3
2025-08-22T09:35	10	32	0.1	31	32	426	0.5	425	427	18.6	75.2
2025-08-22T09:36	10	32	0.3	32	33	423	0.8	422	425	18.6	73.4
2025-08-22T09:37	10	33	0.2	33	34	422	0.5	421	423	18.7	74.3
2025-08-22T09:38	10	34	0.7	34	36	421	0.2	421	422	18.8	74.5
2025-08-22T09:39	10	39	1.4	36	41	421	0.5	420	422	18.8	73.2
2025-08-22T09:40	10	41	0.6	40	42	422	0.3	422	423	18.8	73.3
2025-08-22T09:41	10	72	27.1	42	110	426	4.6	421	435	18.7	73.2
2025-08-22T09:42	10	129	15.4	100	144	440	4.6	432	446	18.8	73.3
2025-08-22T09:43	10	146	1.1	144	147	448	1.6	444	450	19.1	72.6
2025-08-22T09:44	10	148	0.5	147	149	450	1.2	448	452	19.1	70.8
2025-08-22T09:45	10	149	0.1	148	149	454	0.9	452	455	18.9	71.1
2025-08-22T09:46	10	147	0.6	146	148	457	1.0	455	459	19.1	71.6
2025-08-22T09:47	10	145	0.4	145	146	457	0.8	456	459	19.2	71.2
2025-08-22T09:48	10	106	41.8	47	146	451	5.8	439	458	19.2	70.3
2025-08-22T09:49	10	45	1.2	43	47	437	3.2	432	443	19.1	71.1
2025-08-22T09:50	10	42	0.7	41	43	432	1.2	430	433	19.0	72.1
2025-08-22T09:51	10	41	0.2	41	41	428	1.1	426	431	18.9	73.2
2025-08-22T09:52	10	42	0.6	41	43	428	0.4	427	428	18.9	73.4
2025-08-22T09:53	10	44	0.5	43	45	429	0.5	428	430	19.0	73.9
2025-08-22T09:54	10	47	2.6	45	55	428	0.8	426	429	19.1	73.1
2025-08-22T09:55	10	84	17.4	55	108	432	4.3	425	438	19.0	72.6
2025-08-22T09:56	10	116	10.7	99	137	440	2.2	436	444	19.0	70.4
2025-08-22T09:57	10	137	11.8	108	146	447	3.1	441	451	19.0	70.6
2025-08-22T09:58	10	124	29.4	54	144	450	2.5	442	453	19.1	71.2
2025-08-22T09:59	10	51	7.8	43	69	437	3.9	431	444	19.1	72.1
2025-08-22T10:00	10	42	0.7	41	44	429	1.5	427	432	19.0	72.1
2025-08-22T10:01	10	84	32.9	44	132	432	4.6	427	441	19.0	72.4
2025-08-22T10:02	10	99	30.4	45	128	439	2.2	434	442	18.9	72.9
2025-08-22T10:03	10	41	1.0	40	44	431	2.4	427	436	18.8	73.7
2025-08-22T10:04	10	41	0.4	40	42	425	1.6	423	428	18.8	73.7
2025-08-22T10:05	10	42	0.3	42	43	424	0.3	423	424	18.8	73.7
2025-08-22T10:06	10	44	0.6	43	45	425	0.9	424	427	18.9	74.3
2025-08-22T10:07	10	45	0.8	43	46	426	0.5	425	427	18.9	73.0
2025-08-22T10:08	10	40	1.8	37	43	424	0.4	423	425	18.8	72.4
2025-08-22T10:09	10	35	0.9	33	37	424	0.2	423	424	18.8	72.7
2025-08-22T10:10	10	33	0.4	32	33	423	0.6	421	424	18.8	72.8
2025-08-22T10:11	10	32	0.2	31	32	422	0.5	421	423	18.9	73.3
2025-08-22T10:12	10	31	0.2	31	32	420	0.5	420	421	18.8	72.0
2025-08-22T10:13	10	31	0.1	31	31	419	0.4	418	420	18.8	72.2
2025-08-22T10:14	10	31	0.1	30	31	419	0.2	419	420	18.7	72.3
2025-08-22T10:15	10	31	0.3	30	32	419	0.3	418	420	18.8	72.3
2025-08-22T10:16	10	32	0.3	31	33	420	0.5	419	421	18.9	72.1
2025-08-22T10:17	10	33	0.5	32	34	420	0.2	419	420	19.0	71.4
2025-08-22T10:18	10	32	1.0	31	34	420	0.4	419	421	19.1	72.0
2025-08-22T10:19	10	40	5.6	31	50	421	0.8	420	423	19.2	71.6
2025-08-22T10:20	10	78	17.1	51	108	427	3.0	421	431	19.1	70.4
2025-08-22T10:21	10	42	8.4	36	65	424	2.4	422	429	19.0	69.2
2025-08-22T10:22	10	36	3.7	31	42	421	0.6	419	422	19.0	69.0
2025-08-22T10:23	10	30	0.5	29	31	419	0.6	418	420	19.0	68.9
2025-08-22T10:24	10	30	0.5	29	31	418	0.3	417	419	19.0	68.9
2025-08-22T10:25	10	35	4.1	31	46	419	1.0	418	422	19.0	68.8
2025-08-22T10:26	10	95	32.3	47	143	429	5.8	420	439	19.2	68.9
2025-08-22T10:27	10	143	0.4	143	144	441	3.1	435	445	19.1	67.6
2025-08-22T10:28	10	145	0.8	144	147	445	1.5	444	448	19.1	67.5
2025-08-22T10:29	10	147	0.2	146	147	451	1.9	447	454	19.1	67.2
2025-08-22T10:30	10	94	30.5	54	146	447	5.6	441	455	19.4	68.5
2025-08-22T10:31	10	138	13.0	100	147	450	4.5	442	455	19.4	66.7
2025-08-22T10:32	10	140	6.0	129	147	453	0.8	451	454	19.4	67.2
2025-08-22T10:33	10	147	0.2	146	147	454	2.1	451	458	19.2	67.0
2025-08-22T10:34	10	147	0.6	145	148	459	0.6	458	460	19.4	67.6
2025-08-22T10:35	10	76	27.6	43	144	452	6.6	441	462	19.5	67.9
2025-08-22T10:36	10	46	1.5	43	49	437	3.1	433	444	19.5	67.7
2025-08-22T10:37	10	52	4.7	47	60	434	0.7	433	435	19.5	66.6
2025-08-22T10:38	10	59	11.5	43	79	437	1.7	434	440	19.4	66.9
2025-08-22T10:39	10	41	0.4	41	42	434	0.8	432	435	19.4	67.6
2025-08-22T10:40	10	40	0.5	39	41	432	0.8	430	433	19.6	67.1
2025-08-22T10:41	10	66	24.8	39	115	432	2.4	429	438	19.5	65.8
2025-08-22T10:42	10	105	19.5	74	136	440	1.4	436	443	19.4	65.5
2025-08-22T10:43	10	143	1.1	138	144	451	3.6	442	456	19.5	65.1
2025-08-22T10:44	10	144	0.9	143	145	458	1.0	455	459	19.6	65.4
2025-08-22T10:45	10	145	0.1	145	145	459	0.4	458	460	19.5	64.8
2025-08-22T10:46	10	146	0.4	145	146	461	0.9	459	462	19.4	64.8
2025-08-22T10:47	10	146	0.3	145	147	462	1.0	461	464	19.7	66.0
2025-08-22T10:48	10	95	41.4	40	147	457	7.3	444	465	20.0	65.3
2025-08-22T10:49	10	42	2.4	39	46	442	1.8	440	447	20.0	65.7
2025-08-22T10:50	10	50	12.7	40	96	437	1.8	435	441	19.9	64.1
2025-08-22T10:51	10	136	14.3	100	151	447	5.7	436	456	19.4	64.2
2025-08-22T10:52	10	149	0.6	148	150	458	1.8	455	462	19.5	64.4
2025-08-22T10:53	10	147	0.6	146	148	463	0.6	461	464	19.8	63.8
2025-08-22T10:54	10	145	0.4	144	146	462	0.6	461	463	19.8	63.6
2025-08-22T10:55	10	145	0.7	144	146	466	1.3	464	469	20.1	64.6
2025-08-22T10:56	10	144	0.7	143	146	469	0.5	468	470	20.3	64.1
2025-08-22T10:57	10	130	19.6	92	146	467	2.6	461	470	20.2	63.9
2025-08-22T10:58	10	136	11.0	101	147	462	0.9	462	465	20.2	63.9
2025-08-22T10:59	10	139	12.4	103	148	464	0.9	463	466	20.0	63.4
2025-08-22T11:00	10	70	24.1	38	101	455	6.8	444	466	20.2	63.9
2025-08-22T11:01	10	44	3.5	38	53	441	2.1	439	447	20.2	62.9
2025-08-22T11:02	10	58	6.7	54	84	441	0.4	440	442	20.1	62.6
2025-08-22T11:03	10	76	25.8	39	105	444	3.0	438	448	19.7	62.4
2025-08-22T11:04	10	50	7.1	40	67	439	0.6	438	441	19.6	63.7
2025-08-22T11:05	10	108	25.4	68	145	446	4.5	440	456	19.7	63.8
2025-08-22T11:06	10	142	3.0	135	145	459	2.6	454	464	19.7	63.1
2025-08-22T11:07	10	141	0.9	140	143	465	1.5	463	468	19.7	62.7
2025-08-22T11:08	10	140	0.2	139	140	468	1.3	466	470	19.9	63.1
2025-08-22T11:09	10	140	0.2	139	140	469	0.5	468	470	20.0	62.0
2025-08-22T11:10	10	140	0.2	139	140	467	0.6	467	469	19.9	61.6
2025-08-22T11:11	10	139	0.3	139	140	469	0.5	468	470	20.0	61.1
2025-08-22T11:12	10	140	0.8	139	141	471	1.1	469	472	20.2	61.4
2025-08-22T11:13	10	142	2.0	138	145	472	0.9	470	474	20.3	61.6
2025-08-22T11:14	10	144	1.1	141	145	474	0.7	473	476	20.6	61.8
2025-08-22T11:15	10	136	3.5	130	141	467	2.6	463	474	20.3	59.3
2025-08-22T11:16	10	125	11.4	110	147	462	1.7	460	465	20.1	59.6
2025-08-22T11:17	10	144	8.4	118	149	465	1.9	462	468	20.3	60.2
2025-08-22T11:18	10	140	9.7	117	146	466	1.1	464	468	20.3	59.2
2025-08-22T11:19	10	144	3.8	129	146	467	0.3	467	468	20.4	60.8
2025-08-22T11:20	10	110	10.7	95	128	464	3.0	460	469	20.4	60.4
2025-08-22T11:21	10	134	6.9	121	143	468	3.3	463	472	20.2	60.9
2025-08-22T11:22	10	140	4.5	131	144	472	0.6	471	474	20.5	60.4
2025-08-22T11:23	10	145	0.7	144	146	475	0.9	473	477	20.7	60.5
2025-08-22T11:24	10	147	0.3	146	147	477	0.4	476	478	20.7	59.5
2025-08-22T11:25	10	108	38.3	44	146	473	6.0	459	479	20.8	60.2
2025-08-22T11:26	10	38	1.7	36	44	451	5.5	443	462	20.9	60.7
2025-08-22T11:27	10	36	0.4	35	37	442	2.0	439	445	20.6	61.9
2025-08-22T11:28	10	34	0.8	33	35	438	1.3	435	441	20.6	61.1
2025-08-22T11:29	10	32	0.3	32	33	435	0.6	434	436	20.3	60.4
2025-08-22T11:30	10	32	0.3	32	33	434	0.9	433	436	20.3	60.4
2025-08-22T11:31	10	39	6.0	33	58	434	1.0	433	436	20.1	59.5
2025-08-22T11:32	10	72	31.2	45	134	439	4.8	435	451	20.2	59.6
2025-08-22T11:33	10	60	29.2	38	131	445	4.4	440	452	20.2	59.7
2025-08-22T11:34	10	38	0.2	38	39	439	1.0	437	441	20.4	59.4
2025-08-22T11:35	10	40	0.2	39	40	437	0.3	437	438	20.3	58.6
2025-08-22T11:36	10	39	0.5	38	40	437	0.3	436	437	20.6	59.4
2025-08-22T11:37	10	37	0.5	37	38	435	0.2	435	436	20.5	56.9
2025-08-22T11:38	10	41	6.1	36	58	435	1.0	434	438	20.6	57.1
2025-08-22T11:39	10	110	25.7	59	135	446	6.7	435	456	20.8	57.3
2025-08-22T11:40	10	134	2.7	131	139	460	3.8	453	465	20.9	56.8
2025-08-22T11:41	10	139	0.3	138	140	465	1.4	463	468	21.0	56.0
2025-08-22T11:42	10	140	0.5	139	141	465	1.9	462	468	20.7	55.5
2025-08-22T11:43	10	140	0.1	140	140	469	1.1	467	471	20.8	55.8
2025-08-22T11:44	10	141	0.1	140	141	467	0.8	466	469	20.8	56.5
2025-08-22T11:45	10	141	0.2	141	141	469	1.2	467	471	20.8	56.5
2025-08-22T11:46	10	141	0.2	141	142	472	0.5	471	473	21.0	56.5
2025-08-22T11:47	10	142	0.4	142	143	475	0.8	472	476	21.1	56.7
2025-08-22T11:48	10	143	0.2	143	143	474	1.2	472	476	20.8	56.4
2025-08-22T11:49	10	142	0.5	141	143	475	1.3	472	477	20.7	56.9
2025-08-22T11:50	10	140	0.4	139	141	477	0.7	476	478	20.8	56.7
2025-08-22T11:51	10	139	0.1	139	139	479	0.6	478	480	21.4	57.1
2025-08-22T11:52	10	139	0.1	139	139	478	1.1	476	480	21.6	55.2
2025-08-22T11:53	10	139	0.2	138	139	476	1.2	474	479	21.4	55.6
2025-08-22T11:54	10	138	0.1	138	139	475	0.4	474	477	21.0	55.2
2025-08-22T11:55	10	138	0.2	138	139	476	0.5	475	477	20.9	55.6
2025-08-22T11:56	10	139	0.4	138	140	477	0.7	476	478	21.1	56.1
2025-08-22T11:57	10	141	0.4	140	141	479	0.3	478	480	21.2	56.0
2025-08-22T11:58	10	142	0.6	141	143	477	3.4	473	481	21.5	55.7
2025-08-22T11:59	10	144	0.4	143	145	475	1.3	473	477	21.1	54.9
2025-08-22T12:00	10	145	0.9	144	147	479	1.3	477	481	21.2	55.3
2025-08-22T12:01	10	121	27.7	74	147	474	6.7	461	482	21.1	55.7
2025-08-22T12:02	10	49	6.2	43	72	456	4.3	451	466	20.6	55.3
2025-08-22T12:03	10	38	4.6	34	48	450	2.0	447	453	20.6	55.2
2025-08-22T12:04	10	34	0.2	34	35	446	0.9	444	448	20.7	55.7
2025-08-22T12:05	10	35	0.6	34	36	444	0.5	443	445	20.9	55.9
2025-08-22T12:06	10	37	0.5	36	38	443	0.3	443	444	21.0	55.1
2025-08-22T12:07	10	39	0.4	38	39	441	1.2	439	443	21.0	56.2
2025-08-22T12:08	10	41	0.6	40	42	439	0.5	439	441	20.9	56.3
2025-08-22T12:09	10	46	3.0	42	52	440	0.4	439	440	21.0	56.4
2025-08-22T12:10	10	97	36.7	52	150	447	7.5	439	463	20.8	56.4
2025-08-22T12:11	10	151	0.8	149	151	466	3.0	459	472	20.9	56.0
2025-08-22T12:12	10	150	0.4	150	151	473	1.8	470	476	21.0	56.0
2025-08-22T12:13	10	151	0.7	150	152	478	1.4	476	481	21.1	55.8
2025-08-22T12:14	10	153	0.5	152	154	481	0.8	479	482	21.4	55.7
2025-08-22T12:15	10	154	0.2	153	154	479	0.7	478	480	21.3	55.0
2025-08-22T12:16	10	153	0.5	152	154	479	1.4	476	482	21.2	54.1
2025-08-22T12:17	10	149	5.4	140	153	484	0.7	481	485	21.5	54.7
2025-08-22T12:18	10	77	42.3	40	146	471	11.9	452	485	21.8	55.1
2025-08-22T12:19	10	40	0.5	40	41	450	2.9	446	456	21.2	55.9
2025-08-22T12:20	10	39	0.9	37	40	444	1.7	441	447	21.0	55.5
2025-08-22T12:21	10	36	0.5	35	37	442	0.3	441	443	20.9	55.4
2025-08-22T12:22	10	35	0.3	35	36	442	0.4	441	443	20.9	55.8
2025-08-22T12:23	10	38	0.8	36	39	443	0.3	443	444	21.2	56.7
2025-08-22T12:24	10	37	0.2	36	37	441	0.9	440	443	21.4	55.3
2025-08-22T12:25	10	41	3.2	37	49	440	0.5	439	441	21.3	55.9
2025-08-22T12:26	10	60	8.5	49	76	443	1.3	441	446	21.1	56.2
2025-08-22T12:27	10	70	6.2	62	81	446	0.6	445	448	21.1	56.1
2025-08-22T12:28	10	131	21.5	77	148	458	7.0	445	467	21.4	56.6
2025-08-22T12:29	10	148	0.2	147	148	468	1.8	465	471	21.6	55.4
2025-08-22T12:30	10	149	0.5	148	149	472	1.4	470	475	21.6	55.7
2025-08-22T12:31	10	149	0.3	148	150	473	1.4	471	475	21.4	53.0
2025-08-22T12:32	10	146	1.1	144	148	475	1.6	472	478	21.5	53.4
2025-08-22T12:33	10	143	0.7	142	144	478	0.5	476	479	21.6	52.9
2025-08-22T12:34	10	141	0.5	140	142	474	1.0	473	476	21.6	51.7
2025-08-22T12:35	10	139	0.5	139	140	476	1.6	473	478	21.4	51.6
2025-08-22T12:36	10	138	0.3	137	139	476	0.9	475	478	21.3	52.5
2025-08-22T12:37	10	138	0.1	137	138	476	0.5	475	477	21.2	53.0
2025-08-22T12:38	10	136	3.2	123	138	478	1.0	476	479	21.2	53.0
2025-08-22T12:39	10	76	18.9	53	121	469	5.9	461	479	21.4	54.0
2025-08-22T12:40	10	88	29.9	50	132	462	3.4	459	470	21.9	53.9
2025-08-22T12:41	10	138	2.0	132	140	472	2.2	468	476	22.0	53.8
2025-08-22T12:42	10	138	0.8	136	139	476	1.2	474	479	22.1	53.8
2025-08-22T12:43	10	136	0.6	135	137	478	0.7	477	480	22.1	54.3
2025-08-22T12:44	10	137	1.6	134	139	477	0.5	476	479	21.6	54.7
2025-08-22T12:45	10	138	4.8	119	141	479	1.1	477	481	21.6	54.7
2025-08-22T12:46	10	80	23.6	51	118	469	8.3	459	481	21.6	55.8
2025-08-22T12:47	10	94	9.7	81	109	464	1.2	462	467	21.9	56.9
2025-08-22T12:48	10	107	12.2	81	122	465	0.9	463	466	21.9	56.0
2025-08-22T12:49	10	93	19.5	60	117	462	2.3	459	467	21.5	55.4
2025-08-22T12:50	10	141	6.9	118	149	471	4.1	462	475	21.4	55.1
2025-08-22T12:51	10	63	18.1	49	125	462	6.2	456	476	21.6	55.7
2025-08-22T12:52	10	44	1.2	43	48	453	2.0	450	457	21.7	56.6
2025-08-22T12:53	10	42	1.7	41	49	447	2.1	444	451	21.5	54.2
2025-08-22T12:54	10	57	7.0	48	76	447	1.0	444	448	21.4	54.5
2025-08-22T12:55	10	129	14.3	80	139	461	7.0	447	471	21.5	53.6
2025-08-22T12:56	10	70	40.7	33	138	459	8.3	448	471	21.5	54.7
2025-08-22T12:57	10	33	0.3	33	34	445	2.8	441	450	21.5	53.3
2025-08-22T12:58	10	36	1.3	34	39	442	0.4	441	443	21.5	55.4
2025-08-22T12:59	10	97	41.9	39	145	450	8.5	440	464	21.6	55.2
2025-08-22T13:00	10	144	0.9	142	145	467	3.1	460	472	21.8	54.5
2025-08-22T13:01	10	142	0.1	142	143	473	1.5	470	475	21.8	52.0
2025-08-22T13:02	10	141	0.4	141	142	478	2.0	475	481	21.8	52.8
2025-08-22T13:03	10	139	0.6	138	140	481	0.7	480	483	22.1	53.2
2025-08-22T13:04	10	137	0.5	137	138	481	0.5	479	481	22.0	53.2
2025-08-22T13:05	10	136	0.3	135	137	481	0.4	480	482	22.3	53.8
2025-08-22T13:06	10	136	0.1	135	136	481	0.8	479	482	22.3	52.6
2025-08-22T13:07	10	136	0.1	136	136	482	0.8	480	483	22.3	53.0
2025-08-22T13:08	10	136	0.1	136	136	479	2.2	476	483	22.4	52.3
2025-08-22T13:09	10	136	0.2	135	136	478	0.6	477	480	21.9	51.8
2025-08-22T13:10	10	135	0.2	135	136	479	0.3	479	480	22.0	51.9
2025-08-22T13:11	10	135	0.2	134	135	481	1.5	478	484	22.2	51.8
2025-08-22T13:12	10	135	0.1	134	135	476	1.1	475	479	21.7	50.2
2025-08-22T13:13	10	135	0.1	135	135	478	0.5	477	479	21.6	50.7
2025-08-22T13:14	10	134	0.7	133	135	479	0.3	478	480	21.8	50.8
2025-08-22T13:15	10	134	0.5	133	135	480	1.0	478	482	22.0	51.0
2025-08-22T13:16	10	134	1.3	127	135	480	1.5	476	482	22.1	50.7
2025-08-22T13:17	10	53	26.8	30	125	465	8.4	451	479	21.9	50.6
2025-08-22T13:18	10	34	5.8	29	46	450	3.2	445	454	21.8	50.8
2025-08-22T13:19	10	32	1.0	30	34	444	0.5	443	446	21.7	50.7
2025-08-22T13:20	10	33	0.7	32	34	445	0.3	444	445	21.7	50.5
2025-08-22T13:21	10	28	1.3	27	31	444	0.4	443	445	21.8	51.2
2025-08-22T13:22	10	27	0.2	26	27	442	0.8	441	444	22.0	50.9
2025-08-22T13:23	10	27	0.3	27	28	440	0.3	439	440	22.0	51.0
2025-08-22T13:24	10	28	1.1	27	31	439	0.3	438	440	22.2	51.7
2025-08-22T13:25	10	35	4.2	31	45	437	0.4	436	438	21.8	50.2
2025-08-22T13:26	10	108	31.5	46	139	450	9.3	436	464	21.6	50.4
2025-08-22T13:27	10	138	0.2	138	139	467	3.4	460	473	21.7	49.9
2025-08-22T13:28	10	139	0.3	138	139	475	2.3	471	479	22.0	50.7
2025-08-22T13:29	10	139	0.2	138	139	476	0.8	475	478	22.4	48.8
2025-08-22T13:30	10	138	0.2	138	139	479	2.2	475	482	22.2	48.9
2025-08-22T13:31	10	138	0.2	138	139	482	0.6	481	483	22.5	49.2
2025-08-22T13:32	10	139	0.3	138	140	483	0.9	481	484	22.7	48.7
2025-08-22T13:33	10	139	0.1	139	140	478	1.9	475	482	22.4	48.8
2025-08-22T13:34	10	139	0.2	139	140	474	1.2	473	477	22.1	49.2
2025-08-22T13:35	10	138	0.9	136	139	477	1.5	474	479	22.0	49.9
2025-08-22T13:36	10	136	0.5	135	136	478	0.8	477	480	22.2	49.5
2025-08-22T13:37	10	122	15.2	83	135	477	2.7	470	479	22.0	49.3
2025-08-22T13:38	10	69	12.7	57	101	464	3.3	461	472	22.0	49.6
2025-08-22T13:39	10	126	9.7	103	134	468	3.2	463	473	21.9	49.0
2025-08-22T13:40	10	132	1.5	128	133	477	2.0	472	479	22.0	49.9
2025-08-22T13:41	10	129	0.6	128	130	480	0.7	478	481	22.2	48.7
2025-08-22T13:42	10	105	37.0	31	130	476	6.0	461	481	22.3	49.6
2025-08-22T13:43	10	29	0.6	29	31	452	5.5	445	464	22.1	49.1
2025-08-22T13:44	10	29	0.1	29	29	444	1.2	442	447	22.1	48.8
2025-08-22T13:45	10	30	0.2	29	30	441	1.3	439	444	22.0	48.7
2025-08-22T13:46	10	30	0.1	30	30	439	0.7	437	440	21.8	48.6
2025-08-22T13:47	10	32	1.0	30	34	439	0.6	438	440	21.8	49.0
2025-08-22T13:48	10	39	2.4	34	42	442	1.1	439	444	22.1	50.1
2025-08-22T13:49	10	38	0.8	37	40	442	0.3	442	443	22.1	49.7
2025-08-22T13:50	10	38	1.4	37	43	441	0.3	441	442	22.0	48.8
2025-08-22T13:51	10	43	1.8	41	47	440	0.2	440	441	22.0	49.0
2025-08-22T13:52	10	55	7.4	41	63	442	2.1	439	445	21.8	48.2
2025-08-22T13:53	10	85	13.0	63	100	451	4.5	444	457	21.8	48.0
2025-08-22T13:54	10	111	9.5	85	122	460	2.8	454	463	21.9	48.0
2025-08-22T13:55	10	130	6.1	115	134	463	3.0	459	469	21.9	47.5
2025-08-22T13:56	10	130	3.0	124	133	470	1.2	468	472	22.0	47.8
2025-08-22T13:57	10	128	2.0	124	132	470	0.3	470	471	22.0	47.5
2025-08-22T13:58	10	130	1.2	127	132	473	1.6	470	475	22.1	47.7
2025-08-22T13:59	10	128	4.2	121	132	473	1.0	470	475	22.6	48.8
2025-08-22T14:00	10	124	2.9	120	128	470	1.0	469	473	22.3	47.5
2025-08-22T14:01	10	114	6.7	93	121	472	1.3	468	474	22.4	48.8
2025-08-22T14:02	10	112	12.0	90	125	467	1.2	465	469	22.1	47.8
2025-08-22T14:03	10	126	4.3	119	130	471	1.9	469	475	22.0	48.3
2025-08-22T14:04	10	129	0.7	128	131	475	0.2	474	475	22.4	48.9
2025-08-22T14:05	10	131	0.7	130	132	474	1.5	472	476	22.4	48.5
2025-08-22T14:06	10	132	0.6	131	133	475	1.7	472	477	22.1	47.9
2025-08-22T14:07	10	131	0.8	130	132	477	1.1	475	478	22.3	48.8
2025-08-22T14:08	10	130	0.3	129	130	475	0.4	474	476	22.5	49.7
2025-08-22T14:09	10	129	0.4	128	129	477	0.6	475	478	22.6	49.8
2025-08-22T14:10	10	126	0.5	125	128	476	0.9	474	478	22.7	49.4
2025-08-22T14:11	10	124	3.5	116	126	475	1.0	474	477	22.8	50.0
2025-08-22T14:12	10	115	1.0	114	118	473	2.7	470	477	22.8	49.2
2025-08-22T14:13	10	124	1.5	119	125	472	0.7	470	474	22.5	49.8
2025-08-22T14:14	10	126	0.4	125	126	471	1.5	468	473	22.6	49.6
2025-08-22T14:15	10	126	0.3	126	127	472	1.0	470	473	22.2	49.6
2025-08-22T14:16	10	126	0.2	126	127	473	0.7	472	474	22.5	49.7
2025-08-22T14:17	10	125	0.4	125	126	470	1.7	468	473	22.2	48.8
2025-08-22T14:18	10	124	0.6	123	125	473	1.0	471	475	22.3	49.3
2025-08-22T14:19	10	124	0.4	123	124	472	0.9	469	473	22.6	48.1
2025-08-22T14:20	10	108	6.2	101	123	469	1.3	467	471	22.6	49.2
2025-08-22T14:21	10	118	3.8	110	122	471	1.1	469	473	22.6	47.6
2025-08-22T14:22	10	120	0.6	119	121	472	1.3	470	474	22.5	46.5
2025-08-22T14:23	10	119	1.4	115	120	475	0.8	473	476	22.6	46.8
2025-08-22T14:24	10	114	1.0	112	115	475	1.0	473	477	22.9	47.0
2025-08-22T14:25	10	109	1.5	108	112	469	3.5	465	474	22.6	47.4
2025-08-22T14:26	10	109	0.4	108	110	468	1.3	466	470	22.4	49.1
2025-08-22T14:27	10	107	2.2	103	109	466	0.6	465	467	22.7	50.0
2025-08-22T14:28	10	104	2.5	100	108	463	2.8	457	466	22.6	49.7
2025-08-22T14:29	10	93	2.3	89	100	458	0.6	456	459	21.9	47.1
2025-08-22T14:30	10	93	3.7	89	101	461	0.8	459	462	21.9	49.8
2025-08-22T14:31	10	100	1.5	97	102	460	1.3	458	462	22.0	50.6
2025-08-22T14:32	10	105	4.4	97	110	460	1.1	458	463	22.1	50.4
2025-08-22T14:33	10	105	1.0	104	108	463	1.2	462	466	22.4	50.5
2025-08-22T14:34	10	104	0.5	103	105	463	1.7	460	465	22.5	49.5
2025-08-22T14:35	10	105	2.0	102	110	461	0.4	461	462	22.2	49.0
2025-08-22T14:36	10	111	0.6	110	112	461	0.6	459	462	22.2	47.8
2025-08-22T14:37	10	111	0.6	110	112	462	2.3	459	466	22.2	48.2
2025-08-22T14:38	10	110	0.5	109	110	468	1.6	465	470	22.5	49.4
2025-08-22T14:39	10	110	0.7	109	111	468	1.8	465	470	22.5	48.7
2025-08-22T14:40	10	110	0.9	108	111	465	0.7	463	466	22.4	48.9
2025-08-22T14:41	10	103	4.6	95	109	463	1.3	459	464	22.5	49.0
2025-08-22T14:42	10	75	14.2	55	95	454	3.7	450	461	22.3	48.4
2025-08-22T14:43	10	94	7.0	83	103	455	1.6	453	459	22.4	48.7
2025-08-22T14:44	10	104	0.5	103	105	460	0.4	458	460	22.5	47.7
2025-08-22T14:45	10	103	1.1	102	105	459	0.4	458	459	22.1	47.6
2025-08-22T14:46	10	104	0.8	102	104	458	1.0	456	460	22.0	48.5
2025-08-22T14:47	10	105	0.7	104	107	461	1.0	460	463	22.1	48.3
2025-08-22T14:48	10	109	0.9	107	110	463	0.4	462	464	22.1	48.3
2025-08-22T14:49	10	111	0.3	110	112	463	0.9	462	465	22.3	49.0
2025-08-22T14:50	10	111	0.3	110	112	463	0.8	462	465	22.3	49.0
2025-08-22T14:51	10	111	0.1	110	111	462	0.5	461	463	22.4	48.5
2025-08-22T14:52	10	111	0.5	110	112	462	0.6	460	463	22.5	49.0
2025-08-22T14:53	10	112	0.7	110	113	461	0.6	460	463	22.2	49.3
2025-08-22T14:54	10	110	1.5	108	113	464	1.2	462	466	22.3	49.2
2025-08-22T14:55	10	112	0.5	111	113	465	1.2	463	467	22.5	48.4
2025-08-22T14:56	10	110	0.3	110	111	464	0.7	463	465	22.4	47.4
2025-08-22T14:57	10	109	0.4	108	110	464	0.4	463	465	22.2	47.5
2025-08-22T14:58	10	109	0.1	108	109	466	1.0	464	467	22.3	48.3
2025-08-22T14:59	10	108	0.5	107	109	467	1.1	465	468	22.4	48.4
2025-08-22T15:00	10	109	0.7	108	110	467	0.9	466	469	22.5	49.3
2025-08-22T15:01	10	111	0.6	110	112	467	1.0	465	469	22.7	49.9
2025-08-22T15:02	10	105	13.6	58	112	466	2.7	458	469	22.9	49.2
2025-08-22T15:03	10	45	3.3	40	56	452	3.4	448	460	22.4	48.5
2025-08-22T15:04	10	64	16.0	44	103	449	1.1	448	453	22.3	48.5
2025-08-22T15:05	10	113	2.0	105	114	459	3.3	452	464	22.3	48.8
2025-08-22T15:06	10	114	0.6	114	116	466	1.2	463	468	22.6	49.9
2025-08-22T15:07	10	102	15.2	72	116	464	1.6	460	466	22.4	49.9
2025-08-22T15:08	10	104	15.6	72	117	463	3.3	458	468	22.2	49.7
2025-08-22T15:09	10	116	1.9	111	117	466	0.9	465	468	22.3	49.8
2025-08-22T15:10	10	115	2.5	110	117	469	0.8	468	471	22.6	49.9
2025-08-22T15:11	10	116	0.1	116	117	468	0.7	467	470	22.3	49.9
2025-08-22T15:12	10	115	0.4	115	116	467	2.0	463	470	22.5	50.5
2025-08-22T15:13	10	114	0.3	114	115	461	1.1	459	463	22.3	51.1
2025-08-22T15:14	10	114	0.2	113	114	464	1.2	462	466	22.4	51.8
2025-08-22T15:15	10	114	0.2	114	115	466	1.1	464	467	22.7	52.0
2025-08-22T15:16	10	115	0.2	114	115	460	2.4	457	465	22.2	51.9
2025-08-22T15:17	10	115	0.2	115	116	462	1.4	459	464	22.5	52.7
2025-08-22T15:18	10	116	0.2	116	116	462	0.8	460	463	22.2	54.3
2025-08-22T15:19	10	106	10.3	83	116	460	0.8	458	462	22.0	54.7
2025-08-22T15:20	10	104	14.1	79	115	460	2.4	458	465	22.2	54.7
2025-08-22T15:21	10	114	0.7	113	115	462	0.8	461	464	22.2	52.6
2025-08-22T15:22	10	113	0.3	112	113	460	0.9	459	462	22.0	52.4
2025-08-22T15:23	10	96	7.7	87	111	459	1.2	457	461	22.0	52.4
2025-08-22T15:24	10	91	3.5	84	97	459	1.0	458	461	22.2	52.6
2025-08-22T15:25	10	95	12.5	81	115	461	1.2	459	463	22.8	53.2
2025-08-22T15:26	10	116	0.3	115	116	463	1.3	461	465	22.6	52.2
2025-08-22T15:27	10	115	0.4	114	116	463	1.2	462	466	22.5	51.9
2025-08-22T15:28	10	112	1.5	110	114	462	1.8	459	464	22.3	52.2
2025-08-22T15:29	10	109	6.5	88	113	458	1.3	455	460	21.9	52.1
2025-08-22T15:30	10	71	6.0	65	87	452	2.1	448	456	21.9	52.3
2025-08-22T15:31	10	82	10.6	67	101	452	2.3	449	456	22.1	52.3
2025-08-22T15:32	10	108	2.4	101	110	459	1.8	455	461	22.5	52.2
2025-08-22T15:33	10	109	0.5	108	110	462	0.8	460	463	22.5	51.8
2025-08-22T15:34	10	107	0.4	106	108	461	1.6	458	463	22.3	52.1
2025-08-22T15:35	10	105	1.3	102	107	459	0.9	458	461	22.1	52.5
2025-08-22T15:36	10	100	0.9	99	102	458	1.6	456	460	22.1	52.4
2025-08-22T15:37	10	98	0.5	97	99	457	0.5	457	458	22.2	52.7
2025-08-22T15:38	10	97	0.3	96	97	457	1.0	455	459	22.5	52.8
2025-08-22T15:39	10	96	0.3	95	97	458	0.5	457	459	22.6	52.5
2025-08-22T15:40	10	96	0.2	95	96	457	1.2	454	458	22.4	52.3
2025-08-22T15:41	10	95	0.2	94	95	454	1.2	451	456	22.4	52.3
2025-08-22T15:42	10	95	0.1	94	95	452	0.9	450	453	22.1	51.9
2025-08-22T15:43	10	95	0.1	94	95	451	0.4	450	452	22.0	52.0
2025-08-22T15:44	10	95	0.1	94	95	452	0.5	451	453	22.3	51.7
2025-08-22T15:45	10	95	0.2	95	96	452	1.1	451	455	22.0	51.5
2025-08-22T15:46	10	96	0.2	95	96	455	0.6	453	456	22.2	51.6
2025-08-22T15:47	10	95	0.3	95	96	456	0.8	456	458	22.3	51.5
2025-08-22T15:48	10	94	0.4	93	95	456	1.2	452	457	22.4	51.0
2025-08-22T15:49	10	94	0.2	93	94	454	1.7	452	457	22.2	51.5
2025-08-22T15:50	10	93	0.2	93	94	455	1.0	454	457	22.2	51.0
2025-08-22T15:51	10	92	0.4	91	93	453	0.8	452	455	22.3	51.3
2025-08-22T15:52	10	92	0.1	92	92	452	0.3	452	453	22.4	51.5
2025-08-22T15:53	10	92	0.2	91	92	453	0.6	451	454	22.3	51.8
2025-08-22T15:54	10	69	22.7	32	92	451	4.5	442	456	22.2	51.4
2025-08-22T15:55	10	31	0.9	30	34	439	2.0	436	444	21.8	51.6
2025-08-22T15:56	10	47	5.5	34	51	438	1.0	436	439	21.8	51.8
2025-08-22T15:57	10	69	19.0	45	90	441	3.3	437	446	21.7	51.6
2025-08-22T15:58	10	90	0.1	90	90	448	1.4	445	450	21.7	51.3
2025-08-22T15:59	10	90	0.1	90	90	451	0.8	449	452	21.7	51.6
2025-08-22T16:00	10	90	0.1	90	91	451	0.7	450	452	21.9	51.3
2025-08-22T16:01	10	90	0.1	90	90	451	1.0	450	453	22.2	51.6
2025-08-22T16:02	10	90	0.2	89	90	450	0.6	448	451	22.0	51.2
2025-08-22T16:03	10	89	0.1	89	89	449	0.6	447	450	21.9	51.5
2025-08-22T16:04	10	89	0.2	89	89	449	0.4	448	449	22.0	51.6
2025-08-22T16:05	10	89	0.1	89	89	448	0.7	447	450	22.0	52.0
2025-08-22T16:06	10	89	0.2	89	89	450	1.2	449	453	22.3	51.9
2025-08-22T16:07	10	88	0.2	88	89	452	0.9	449	453	22.4	51.2
2025-08-22T16:08	10	88	0.2	87	88	448	0.9	446	449	22.0	51.0
2025-08-22T16:09	10	87	0.5	86	87	447	0.2	447	448	21.9	51.2
2025-08-22T16:10	10	85	0.2	85	86	447	0.5	446	448	21.8	51.5
2025-08-22T16:11	10	85	0.3	84	85	448	0.5	447	449	21.9	51.5
2025-08-22T16:12	10	83	0.4	83	84	449	0.5	448	451	21.9	51.6
2025-08-22T16:13	10	82	0.3	82	83	447	1.2	445	449	22.0	51.8
2025-08-22T16:14	10	81	0.1	81	82	446	1.2	444	448	22.1	51.3
2025-08-22T16:15	10	81	0.3	80	81	445	0.5	444	445	21.9	51.4
2025-08-22T16:16	10	80	0.1	80	80	444	0.4	444	445	21.8	51.4
2025-08-22T16:17	10	80	0.1	80	80	446	0.5	445	447	22.0	52.0
2025-08-22T16:18	10	80	0.1	80	80	443	1.0	442	446	21.9	51.4
2025-08-22T16:19	10	80	0.1	80	80	442	0.3	441	443	21.8	51.5
2025-08-22T16:20	10	80	0.1	80	80	442	0.5	441	443	21.8	51.3
2025-08-22T16:21	10	80	0.1	80	80	443	0.5	442	444	21.8	51.7
2025-08-22T16:22	10	80	0.1	80	80	442	0.4	441	443	21.6	51.7
2025-08-22T16:23	10	80	0.1	80	80	445	1.2	443	447	21.9	52.3
2025-08-22T16:24	10	80	0.1	80	80	443	1.0	442	446	21.8	51.2
2025-08-22T16:25	10	80	0.2	79	80	443	0.6	442	444	21.7	51.3
2025-08-22T16:26	10	79	0.2	78	79	442	0.4	442	444	21.7	51.1
2025-08-22T16:27	10	78	0.4	77	79	443	0.5	442	444	21.8	51.1
2025-08-22T16:28	10	77	0.3	76	77	443	0.8	442	444	22.0	51.0
2025-08-22T16:29	10	76	0.1	76	76	441	0.7	440	442	21.7	50.9
2025-08-22T16:30	10	76	0.2	76	76	442	0.6	440	443	21.8	51.6
2025-08-22T16:31	10	75	0.2	75	76	443	0.3	442	444	21.9	51.9
2025-08-22T16:32	10	75	0.1	75	75	443	0.7	441	444	22.0	51.9
2025-08-22T16:33	10	74	0.3	74	75	442	0.3	441	442	22.0	52.2
2025-08-22T16:34	10	74	0.2	73	74	442	0.4	441	443	22.0	52.4
2025-08-22T16:35	10	73	0.2	73	74	440	0.5	439	442	21.8	52.9
2025-08-22T16:36	10	73	0.3	73	74	441	0.5	439	442	21.8	53.1
2025-08-22T16:37	10	73	0.3	72	74	441	0.5	440	442	21.8	52.7
2025-08-22T16:38	10	71	0.5	71	72	440	0.8	439	442	21.7	52.9
2025-08-22T16:39	10	70	0.4	69	71	440	1.1	438	441	21.8	52.8
2025-08-22T16:40	10	68	0.7	67	69	437	0.4	437	438	21.7	53.0
2025-08-22T16:41	10	66	0.7	64	67	437	0.4	436	437	21.7	53.1
2025-08-22T16:42	10	63	0.7	62	65	434	1.8	432	437	21.5	52.8
2025-08-22T16:43	10	61	0.6	60	62	432	0.4	431	433	21.3	53.1
2025-08-22T16:44	10	60	0.2	60	61	432	0.3	431	433	21.4	53.0
2025-08-22T16:45	10	59	0.4	58	60	432	0.4	431	433	21.5	53.1
2025-08-22T16:46	10	59	0.4	58	60	432	0.3	432	433	21.5	53.3
2025-08-22T16:47	10	60	0.3	59	60	432	0.4	431	433	21.5	53.3
2025-08-22T16:48	10	59	0.2	59	60	431	0.9	429	433	21.4	53.2
2025-08-22T16:49	10	59	0.2	59	60	430	0.4	429	431	21.3	53.6
2025-08-22T16:50	10	59	0.2	59	60	431	0.6	430	432	21.3	53.8
2025-08-22T16:51	10	60	0.3	60	61	433	0.6	431	434	21.5	53.6
2025-08-22T16:52	10	61	0.2	60	61	433	0.6	432	434	21.5	53.6
2025-08-22T16:53	10	60	0.2	59	60	431	0.7	430	433	21.2	53.8
2025-08-22T16:54	10	60	0.2	59	60	433	0.5	432	434	21.4	54.3
2025-08-22T16:55	10	59	0.4	58	60	430	0.6	430	432	21.2	54.3
2025-08-22T16:56	10	58	0.4	57	59	429	0.3	429	430	21.1	54.8
2025-08-22T16:57	10	56	0.4	56	57	430	0.3	429	431	21.2	55.1
2025-08-22T16:58	10	55	0.3	54	56	430	0.4	429	431	21.3	54.9
2025-08-22T16:59	10	54	0.2	54	55	430	0.4	429	431	21.3	54.9
2025-08-22T17:00	10	53	0.3	53	54	430	0.7	429	431	21.3	54.6
2025-08-22T17:01	10	53	0.3	52	53	428	0.4	427	429	21.2	54.4
2025-08-22T17:02	10	52	0.2	51	52	428	0.3	427	428	21.1	54.6
2025-08-22T17:03	10	51	0.2	51	52	428	0.4	427	429	21.2	54.8
2025-08-22T17:04	10	51	0.1	51	51	428	0.4	427	429	21.2	54.6
2025-08-22T17:05	10	50	0.4	50	51	428	0.4	428	429	21.1	54.9
2025-08-22T17:06	10	49	0.1	49	50	429	0.3	428	429	21.2	55.0
2025-08-22T17:07	10	49	0.1	49	49	428	0.4	428	429	21.2	55.2
2025-08-22T17:08	10	48	0.3	48	49	427	0.4	426	428	21.1	55.4
2025-08-22T17:09	10	47	0.4	47	48	427	0.4	426	427	21.1	55.3
2025-08-22T17:10	10	46	0.4	45	47	427	0.4	426	428	21.1	56.0
2025-08-22T17:11	10	45	0.4	44	46	427	0.3	426	427	21.2	56.0
2025-08-22T17:12	10	44	0.1	44	44	425	1.1	424	427	21.0	55.7
2025-08-22T17:13	10	43	0.2	43	44	423	0.2	423	424	20.8	55.9
2025-08-22T17:14	10	43	0.2	43	43	424	0.5	423	425	20.8	56.4
2025-08-22T17:15	10	42	0.1	42	43	424	0.3	423	424	20.9	55.8
2025-08-22T17:16	10	43	0.2	43	43	424	0.2	424	425	20.9	55.8
2025-08-22T17:17	10	44	0.1	43	44	424	0.4	424	425	20.9	55.8
2025-08-22T17:18	10	44	0.1	43	44	425	0.3	425	426	21.0	56.1
2025-08-22T17:19	10	43	0.2	43	44	425	0.5	423	425	20.9	56.0
2025-08-22T17:20	10	42	0.5	41	43	425	0.5	424	426	20.9	56.2
2025-08-22T17:21	10	41	0.3	40	41	425	0.4	424	426	21.0	56.1
2025-08-22T17:22	10	40	0.3	40	41	424	0.3	423	424	20.9	55.9
2025-08-22T17:23	10	41	0.1	40	41	423	0.4	422	424	20.9	56.1
2025-08-22T17:24	10	40	0.3	39	41	422	0.2	422	423	20.7	55.8
2025-08-22T17:25	10	39	0.1	39	40	422	0.3	421	423	20.7	56.0
2025-08-22T17:26	10	39	0.3	38	40	422	0.2	421	422	20.6	56.1
2025-08-22T17:27	10	38	0.4	37	38	422	0.3	421	422	20.6	56.0
2025-08-22T17:28	10	37	0.2	36	37	421	0.4	420	422	20.6	55.6
2025-08-22T17:29	10	36	0.1	36	36	422	0.3	421	423	20.8	56.3
2025-08-22T17:30	10	36	0.2	35	36	422	0.2	421	422	20.7	56.1
2025-08-22T17:31	10	35	0.2	35	35	422	0.3	421	422	20.7	56.5
2025-08-22T17:32	10	34	0.3	33	34	421	0.4	421	422	20.7	56.6
2025-08-22T17:33	10	33	0.4	32	34	421	0.3	420	422	20.6	56.9
2025-08-22T17:34	10	31	0.9	29	32	421	0.3	420	421	20.6	56.9
2025-08-22T17:35	10	27	0.8	26	29	420	0.2	419	421	20.6	57.3
2025-08-22T17:36	10	26	0.2	26	26	419	0.2	419	420	20.5	57.6
2025-08-22T17:37	10	25	0.2	25	26	419	0.3	418	420	20.5	57.8
2025-08-22T17:38	10	25	0.3	24	25	419	0.2	418	419	20.5	58.0
2025-08-22T17:39	10	24	0.2	24	24	419	0.2	418	419	20.5	58.6
2025-08-22T17:40	10	23	0.1	23	24	418	0.3	418	419	20.5	58.6
2025-08-22T17:41	10	23	0.1	23	23	418	0.3	417	419	20.4	58.4
2025-08-22T17:42	10	23	0.1	22	23	417	0.3	417	418	20.4	58.6
2025-08-22T17:43	10	22	0.2	22	23	418	0.3	417	418	20.5	58.2
2025-08-22T17:44	10	21	0.3	21	22	417	0.3	416	418	20.4	57.5
2025-08-22T17:45	10	21	0.2	20	21	417	0.4	417	418	20.4	57.8
2025-08-22T17:46	10	20	0.2	20	20	418	0.4	417	419	20.5	58.3
2025-08-22T17:47	10	20	0.1	19	20	418	0.3	417	419	20.5	58.2
2025-08-22T17:48	10	18	1.2	16	19	417	0.5	417	418	20.4	58.3
2025-08-22T17:49	10	14	1.0	12	15	417	0.3	416	417	20.3	58.6
2025-08-22T17:50	10	11	0.8	9	12	416	0.4	415	417	20.3	58.9
2025-08-22T17:51	10	8	0.8	7	10	416	0.2	415	416	20.3	58.9
2025-08-22T17:52	10	7	0.2	6	7	416	0.2	415	416	20.3	59.1
2025-08-22T17:53	10	6	0.1	6	6	416	0.2	415	416	20.3	58.8
2025-08-22T17:54	10	6	0.2	6	6	415	0.3	414	416	20.2	58.5
2025-08-22T17:55	10	8	0.8	6	9	415	0.3	414	415	20.2	58.5
2025-08-22T17:56	10	11	0.7	9	12	415	0.2	414	415	20.2	58.6
2025-08-22T17:57	10	12	0.1	11	12	415	0.3	414	415	20.2	58.9
2025-08-22T17:58	10	11	0.2	11	12	414	0.3	414	415	20.2	58.5
2025-08-22T17:59	10	11	0.2	10	11	415	0.2	414	415	20.2	59.3
2025-08-22T18:00	10	10	0.2	10	11	415	0.2	414	415	20.2	59.7
2025-08-22T18:01	10	10	0.2	9	10	414	0.3	414	415	20.1	59.7
2025-08-22T18:02	10	9	0.2	9	10	414	0.2	413	414	20.1	59.7
2025-08-22T18:03	10	9	0.2	9	10	414	0.2	413	414	20.1	59.9
2025-08-22T18:04	10	9	0.2	8	9	414	0.2	413	415	20.1	60.0
2025-08-22T18:05	10	8	0.2	8	9	414	0.3	413	415	20.1	60.1
2025-08-22T18:06	10	7	0.7	6	8	414	0.2	413	414	20.1	60.2
2025-08-22T18:07	10	5	0.7	4	6	414	0.3	413	414	20.1	59.9
2025-08-22T18:08	10	4	0.3	3	4	413	0.3	413	414	20.1	60.1
2025-08-22T18:09	10	3	0.2	3	3	413	0.2	413	414	20.0	60.5
2025-08-22T18:10	10	3	0.2	2	3	413	0.3	412	413	20.0	60.5
2025-08-22T18:11	10	3	0.2	2	3	413	0.3	412	413	20.0	61.0
2025-08-22T18:12	10	2	0.1	2	3	412	0.2	412	413	19.9	61.3
2025-08-22T18:13	10	2	0.1	2	2	412	0.2	411	412	19.9	61.1
2025-08-22T18:14	10	2	0.1	2	2	412	0.2	411	412	19.9	61.5
2025-08-22T18:15	10	2	0.1	2	2	411	0.2	411	412	19.9	61.5
2025-08-22T18:16	10	2	0.1	2	2	412	0.2	411	412	19.8	61.8
2025-08-22T18:17	10	2	0.1	2	2	411	0.2	411	411	19.8	61.5
2025-08-22T18:18	10	2	0.1	2	2	411	0.2	411	411	19.8	61.3
2025-08-22T18:19	10	2	0.1	1	2	411	0.2	410	411	19.8	62.0
2025-08-22T18:20	10	2	0.1	1	2	411	0.2	410	411	19.8	61.7
2025-08-22T18:21	10	2	0.1	1	2	410	0.2	410	411	19.7	61.7
2025-08-22T18:22	10	1	0.1	1	2	410	0.2	410	411	19.7	61.3
2025-08-22T18:23	10	1	0.1	1	1	410	0.2	409	410	19.7	61.5
2025-08-22T18:24	10	1	0.1	1	1	410	0.2	409	410	19.7	61.6
2025-08-22T18:25	10	1	0.1	1	1	409	0.2	409	410	19.6	61.0
2025-08-22T18:26	10	1	0.1	0	1	409	0.2	409	410	19.6	61.0
2025-08-22T18:27	10	0	0.1	0	1	409	0.2	408	410	19.6	61.8
2025-08-22T18:28	10	0	0.1	0	1	409	0.2	408	409	19.6	61.3
2025-08-22T18:29	10	0	0.1	0	1	409	0.2	408	409	19.6	61.3
2025-08-22T18:30	10	0	0.1	0	1	408	0.2	408	409	19.6	61.8
2025-08-22T18:31	10	0	0.1	0	1	408	0.3	408	409	19.5	61.5
2025-08-22T18:32	10	0	0.1	0	1	409	0.3	408	409	19.5	61.8
2025-08-22T18:33	10	0	0.1	0	0	408	0.2	408	409	19.5	62.1
2025-08-22T18:34	10	0	0.1	0	0	408	0.2	408	409	19.5	62.0
2025-08-22T18:35	10	0	0.1	0	0	408	0.2	408	409	19.5	62.2
2025-08-22T18:36	10	0	0.1	0	0	408	0.2	408	409	19.5	62.4
2025-08-22T18:37	10	0	0.1	0	0	409	0.2	408	409	19.4	62.9
2025-08-22T18:38	10	0	0.1	0	0	409	0.2	408	409	19.4	62.8
2025-08-22T18:39	10	0	0.1	0	0	409	0.2	408	409	19.4	62.9
2025-08-22T18:40	10	0	0.1	0	0	408	0.2	408	409	19.4	62.2
2025-08-22T18:41	10	0	0.1	0	0	408	0.3	408	409	19.4	62.0
2025-08-22T18:42	10	0	0.1	0	0	408	0.3	408	409	19.4	62.0
2025-08-22T18:43	10	0	0.1	0	0	408	0.3	408	409	19.4	62.6
2025-08-22T18:44	10	0	0.1	0	0	408	0.2	408	409	19.4	62.4
2025-08-22T18:45	10	0	0.1	0	0	408	0.2	408	408	19.4	62.5
2025-08-22T18:46	10	0	0.1	0	0	408	0.2	407	408	19.4	62.1
2025-08-22T18:47	10	0	0.1	0	0	408	0.2	407	408	19.4	62.0
2025-08-22T18:48	10	0	0.1	0	0	408	0.3	407	408	19.4	62.2
2025-08-22T18:49	10	0	0.1	0	0	408	0.2	407	408	19.4	62.4
2025-08-22T18:50	10	0	0.1	0	0	408	0.2	407	408	19.3	62.5
2025-08-22T18:51	10	0	0.1	0	0	408	0.2	407	408	19.4	62.4
2025-08-22T18:52	10	0	0.1	0	0	408	0.2	407	408	19.4	62.3
2025-08-22T18:53	10	0	0.1	0	0	407	0.2	407	408	19.4	62.1
2025-08-22T18:54	10	0	0.1	0	0	407	0.2	407	408	19.3	62.7
2025-08-22T18:55	10	0	0.1	0	0	407	0.2	407	408	19.3	62.3
2025-08-22T18:56	10	0	0.1	0	0	407	0.2	407	407	19.3	61.7
2025-08-22T18:57	10	0	0.1	0	0	407	0.3	406	408	19.4	61.3
2025-08-22T18:58	10	0	0.1	0	0	407	0.3	406	407	19.3	61.4
2025-08-22T18:59	10	0	0.1	0	0	407	0.2	406	407	19.3	61.8
2025-08-22T19:00	10	0	0.1	0	0	406	0.2	406	407	19.3	61.9
2025-08-22T19:01	10	0	0.1	0	0	407	0.3	406	407	19.3	61.3
2025-08-22T19:02	10	0	0.1	0	0	407	0.2	406	407	19.3	61.4
2025-08-22T19:03	10	0	0.1	0	0	407	0.2	406	407	19.3	61.4
2025-08-22T19:04	10	0	0.1	0	0	407	0.2	406	407	19.3	61.1
2025-08-22T19:05	10	0	0.1	0	0	407	0.2	406	407	19.3	60.8
2025-08-22T19:06	10	0	0.1	0	0	407	0.2	406	407	19.3	61.0
2025-08-22T19:07	10	0	0.1	0	0	407	0.3	406	407	19.3	61.1
2025-08-22T19:08	10	0	0.1	0	0	406	0.2	406	407	19.3	61.1
2025-08-22T19:09	10	0	0.1	0	0	406	0.3	406	407	19.3	61.1
2025-08-22T19:10	10	0	0.1	0	0	406	0.2	406	407	19.3	60.8
2025-08-22T19:11	10	0	0.1	0	0	406	0.3	406	407	19.3	61.0
2025-08-22T19:12	10	0	0.1	0	0	406	0.2	406	407	19.2	61.2
2025-08-22T19:13	10	0	0.1	0	0	406	0.2	406	407	19.2	61.0
2025-08-22T19:14	10	0	0.1	0	0	406	0.2	406	407	19.2	60.9
2025-08-22T19:15	10	0	0.1	0	0	406	0.2	406	407	19.2	61.4
2025-08-22T19:16	10	0	0.1	0	0	406	0.3	406	407	19.2	61.6
2025-08-22T19:17	10	0	0.1	0	0	406	0.2	406	407	19.2	61.1
2025-08-22T19:18	10	0	0.1	0	0	406	0.2	405	406	19.2	61.1
2025-08-22T19:19	10	0	0.1	0	0	406	0.3	405	406	19.2	61.2
2025-08-22T19:20	10	0	0.1	0	0	405	0.2	405	406	19.1	61.5
2025-08-22T19:21	10	0	0.1	0	0	405	0.2	405	406	19.1	61.8
2025-08-22T19:22	10	0	0.1	0	0	405	0.2	405	406	19.1	62.2
2025-08-22T19:23	10	0	0.1	0	0	405	0.2	405	406	19.0	62.0
2025-08-22T19:24	10	0	0.1	0	0	405	0.3	404	405	19.1	62.0
2025-08-22T19:25	10	0	0.1	0	0	405	0.2	404	406	19.0	62.4
2025-08-22T19:26	10	0	0.1	0	0	405	0.2	405	405	19.0	62.4
2025-08-22T19:27	10	0	0.1	0	0	405	0.2	404	405	19.0	62.5
2025-08-22T19:28	10	0	0.1	0	0	405	0.2	404	405	19.0	62.5
2025-08-22T19:29	10	0	0.1	0	0	405	0.2	404	405	19.0	62.3
2025-08-22T19:30	10	0	0.1	0	0	404	0.2	404	405	19.0	62.4
2025-08-22T19:31	10	0	0.1	0	0	404	0.2	404	405	19.0	62.5
2025-08-22T19:32	10	0	0.1	0	0	404	0.3	403	405	19.0	62.4
2025-08-22T19:33	10	0	0.1	0	0	404	0.2	403	404	18.9	62.7
2025-08-22T19:34	10	0	0.1	0	0	404	0.3	403	404	18.9	62.5
2025-08-22T19:35	10	0	0.1	0	0	403	0.2	403	404	18.9	62.6
2025-08-22T19:36	10	0	0.1	0	0	403	0.2	402	404	18.9	62.7
2025-08-22T19:37	10	0	0.1	0	0	403	0.3	402	404	18.9	62.8
2025-08-22T19:38	10	0	0.1	0	1	403	0.3	402	404	18.9	62.1
2025-08-22T19:39	10	0	0.1	0	0	403	0.2	402	403	18.9	62.1
2025-08-22T19:40	10	0	0.2	0	1	402	0.3	402	403	18.9	61.7
2025-08-22T19:41	10	0	0.1	0	0	402	0.3	402	403	18.9	62.3
2025-08-22T19:42	10	0	0.2	0	0	402	0.4	401	403	18.9	62.5
2025-08-22T19:43	10	0	0.2	0	0	402	0.3	401	403	18.8	62.5
2025-08-22T19:44	10	0	0.2	-1	0	402	0.3	401	403	18.9	62.2
2025-08-22T19:45	10	0	0.1	0	0	402	0.3	401	402	18.9	62.0
2025-08-22T19:46	10	0	0.1	0	0	401	0.3	400	402	18.8	62.9
2025-08-22T19:47	10	0	0.1	0	0	401	0.2	400	401	18.8	62.4
2025-08-22T19:48	10	0	0.1	0	0	401	0.2	400	401	18.8	62.2
2025-08-22T19:49	10	0	0.1	0	0	401	0.2	400	401	18.8	62.4
2025-08-22T19:50	10	0	0.1	-1	0	400	0.2	400	401	18.7	62.8
2025-08-22T19:51	10	0	0.1	0	0	400	0.4	399	401	18.7	62.3
2025-08-22T19:52	10	0	0.1	0	0	401	0.3	399	401	18.8	62.0
2025-08-22T19:53	10	0	0.1	0	0	401	0.4	400	401	18.8	61.5
2025-08-22T19:54	10	0	0.0	0	0	401	0.3	400	402	18.8	61.1
2025-08-22T19:55	10	0	0.0	0	0	401	0.2	401	402	18.8	61.2
2025-08-22T19:56	10	0	0.1	0	0	401	0.2	401	402	18.8	61.9
2025-08-22T19:57	10	0	0.0	0	0	401	0.2	401	401	18.7	62.3
2025-08-22T19:58	10	0	0.1	0	0	401	0.3	401	402	18.7	62.0
2025-08-22T19:59	10	0	0.0	0	0	401	0.2	400	402	18.7	62.5
2025-08-22T20:00	10	0	0.1	0	0	401	0.2	400	402	18.7	62.0
2025-08-22T20:01	10	0	0.1	0	0	401	0.4	400	402	18.7	61.2
2025-08-22T20:02	10	0	0.0	0	0	401	0.2	400	401	18.8	60.7
2025-08-22T20:03	10	0	0.0	0	0	401	0.4	400	402	18.8	60.9
2025-08-22T20:04	10	0	0.1	0	0	401	0.2	400	401	18.7	61.5
2025-08-22T20:05	10	0	0.1	0	0	401	0.3	400	401	18.7	60.9
2025-08-22T20:06	10	0	0.1	0	0	400	0.2	400	400	18.7	61.1
2025-08-22T20:07	10	0	0.1	0	0	400	0.2	399	400	18.6	61.1
2025-08-22T20:08	10	0	0.0	0	0	400	0.2	399	400	18.6	61.0
2025-08-22T20:09	10	0	0.0	0	0	399	0.2	399	400	18.6	61.7
2025-08-22T20:10	10	0	0.0	0	0	399	0.3	398	399	18.5	61.9
2025-08-22T20:11	10	0	0.0	0	0	399	0.6	398	400	18.5	61.3
2025-08-22T20:12	10	0	0.1	0	0	399	0.2	398	399	18.6	60.9
2025-08-22T20:13	10	0	0.1	0	0	399	0.2	398	399	18.6	60.5
2025-08-22T20:14	10	0	0.0	0	0	399	0.2	398	399	18.6	60.7
2025-08-22T20:15	10	0	0.0	0	0	399	0.3	398	399	18.5	61.3
2025-08-22T20:16	10	0	0.1	0	0	399	0.3	398	399	18.5	61.4
2025-08-22T20:17	10	0	0.1	0	0	399	0.3	398	400	18.6	60.8
2025-08-22T20:18	10	0	0.1	0	0	399	0.2	399	400	18.5	61.2
2025-08-22T20:19	10	0	0.1	0	0	399	0.3	398	400	18.5	61.6
2025-08-22T20:20	10	0	0.1	0	0	399	0.2	398	399	18.5	61.7
2025-08-22T20:21	10	0	0.1	0	0	399	0.2	399	400	18.5	61.6
2025-08-22T20:22	10	0	0.1	0	0	399	0.3	398	400	18.5	61.5
2025-08-22T20:23	10	0	0.1	0	0	399	0.2	399	400	18.5	61.5
2025-08-22T20:24	10	0	0.1	0	0	400	0.2	399	400	18.5	61.6
2025-08-22T20:25	10	0	0.1	0	0	400	0.3	399	400	18.4	61.8
2025-08-22T20:26	10	0	0.1	0	0	400	0.2	399	400	18.4	62.3
2025-08-22T20:27	10	0	0.1	0	0	400	0.2	400	401	18.4	62.3
2025-08-22T20:28	10	0	0.1	0	0	400	0.2	400	401	18.4	61.6
2025-08-22T20:29	10	0	0.1	0	0	401	0.2	400	401	18.5	61.4
2025-08-22T20:30	10	0	0.1	0	0	400	0.2	400	401	18.4	61.6
2025-08-22T20:31	10	0	0.1	0	0	400	0.2	400	401	18.4	61.8
2025-08-22T20:32	10	0	0.1	0	0	401	0.2	400	401	18.4	61.9
2025-08-22T20:33	10	0	0.1	0	0	400	0.2	400	401	18.4	62.1
2025-08-22T20:34	10	0	0.1	0	0	400	0.2	400	401	18.4	61.8
2025-08-22T20:35	10	0	0.1	0	0	400	0.2	400	401	18.4	62.3
2025-08-22T20:36	10	0	0.1	0	0	400	0.3	400	401	18.4	62.3
2025-08-22T20:37	10	0	0.1	0	0	400	0.2	400	401	18.3	62.5
2025-08-22T20:38	10	0	0.1	0	0	400	0.2	400	401	18.4	62.2
2025-08-22T20:39	10	0	0.1	0	0	400	0.2	400	401	18.4	61.9
2025-08-22T20:40	10	0	0.1	0	0	400	0.2	400	401	18.4	61.4
2025-08-22T20:41	10	0	0.1	0	0	400	0.2	400	401	18.4	62.0
2025-08-22T20:42	10	0	0.1	0	0	400	0.3	400	401	18.4	61.7
2025-08-22T20:43	10	0	0.1	0	0	400	0.2	400	401	18.4	61.4
2025-08-22T20:44	10	0	0.1	0	0	400	0.2	400	401	18.4	61.9
2025-08-22T20:45	10	0	0.1	0	0	400	0.3	399	401	18.3	62.9
2025-08-22T20:46	10	0	0.1	0	0	400	0.3	400	401	18.3	62.3
2025-08-22T20:47	10	0	0.1	0	0	400	0.3	400	401	18.3	62.6
2025-08-22T20:48	10	0	0.1	0	0	400	0.2	400	400	18.3	62.6
2025-08-22T20:49	10	0	0.1	0	0	400	0.2	399	400	18.3	61.7
2025-08-22T20:50	10	0	0.1	0	0	400	0.2	400	400	18.3	62.6
2025-08-22T20:51	10	0	0.1	0	0	400	0.2	400	400	18.3	62.3
2025-08-22T20:52	10	0	0.1	0	0	400	0.2	399	400	18.3	60.9
2025-08-22T20:53	10	0	0.1	0	0	400	0.3	399	400	18.3	61.9
2025-08-22T20:54	10	0	0.1	0	0	400	0.2	399	400	18.3	61.9
2025-08-22T20:55	10	0	0.1	0	0	399	0.2	399	400	18.3	61.9
2025-08-22T20:56	10	0	0.1	0	0	399	0.2	399	400	18.3	61.9
2025-08-22T20:57	10	0	0.1	0	0	399	0.2	399	400	18.3	61.9
2025-08-22T20:58	10	0	0.1	0	0	399	0.2	399	400	18.3	61.9
2025-08-22T20:59	10	0	0.1	0	0	399	0.2	399	400	18.3	62.2
2025-08-22T21:00	10	0	0.1	0	0	399	0.2	399	400	18.1	63.4
2025-08-22T21:01	10	0	0.1	0	0	399	0.2	398	399	18.1	63.8
2025-08-22T21:02	10	0	0.1	0	0	399	0.2	398	400	18.1	64.5
2025-08-22T21:03	10	0	0.1	0	0	399	0.2	398	399	18.1	64.1
2025-08-22T21:04	10	0	0.1	0	0	399	0.3	398	399	18.1	64.3
2025-08-22T21:05	10	0	0.1	0	0	399	0.2	398	400	18.1	63.6
2025-08-22T21:06	10	0	0.1	0	0	399	0.3	398	400	18.1	64.0
2025-08-22T21:07	10	0	0.1	0	0	399	0.2	399	400	18.1	64.0
2025-08-22T21:08	10	0	0.1	0	0	399	0.2	399	400	18.1	63.9
2025-08-22T21:09	10	0	0.1	0	0	399	0.3	398	400	18.1	64.0
2025-08-22T21:10	10	0	0.1	0	0	400	0.2	399	400	18.3	62.9
2025-08-22T21:11	10	0	0.1	0	0	399	0.3	399	400	18.2	63.6
2025-08-22T21:12	10	0	0.1	0	0	399	0.2	399	400	18.2	63.8
2025-08-22T21:13	10	0	0.1	0	0	399	0.3	399	400	18.2	63.8
2025-08-22T21:14	10	0	0.1	0	0	400	0.2	399	400	18.2	63.7
2025-08-22T21:15	10	0	0.1	0	0	399	0.2	399	400	18.2	63.8
2025-08-22T21:16	10	0	0.1	0	0	399	0.3	399	400	18.3	62.6
2025-08-22T21:17	10	0	0.1	0	0	399	0.2	399	400	18.3	62.7
2025-08-22T21:18	10	0	0.1	0	0	399	0.2	399	399	18.3	63.2
2025-08-22T21:19	10	0	0.1	0	0	399	0.2	399	399	18.3	63.2
2025-08-22T21:20	10	0	0.1	0	0	399	0.3	398	399	18.3	63.0
2025-08-22T21:21	10	0	0.1	0	0	399	0.2	398	399	18.3	62.7
2025-08-22T21:22	10	0	0.1	0	0	399	0.2	398	399	18.3	63.0
2025-08-22T21:23	10	0	0.1	0	0	399	0.3	398	399	18.3	62.8
2025-08-22T21:24	10	0	0.1	0	0	398	0.2	398	399	18.3	62.7
2025-08-22T21:25	10	0	0.1	0	0	398	0.2	398	399	18.3	62.9
2025-08-22T21:26	10	0	0.1	0	0	398	0.3	397	399	18.3	63.4
2025-08-22T21:27	10	0	0.1	0	0	398	0.3	397	399	18.2	63.5
2025-08-22T21:28	10	0	0.1	0	0	398	0.2	398	399	18.3	63.1
2025-08-22T21:29	10	0	0.1	0	0	398	0.2	398	399	18.3	63.4
2025-08-22T21:30	10	0	0.1	0	0	398	0.3	397	399	18.2	63.9
2025-08-22T21:31	10	0	0.1	0	0	399	0.3	398	399	18.2	63.6
2025-08-22T21:32	10	0	0.1	0	0	399	0.2	398	399	18.4	62.3
2025-08-22T21:33	10	0	0.1	0	0	399	0.2	398	399	18.4	62.6
2025-08-22T21:34	10	0	0.1	0	0	399	0.2	398	399	18.3	63.0
2025-08-22T21:35	10	0	0.1	0	0	398	0.2	398	399	18.3	63.3
2025-08-22T21:36	10	0	0.1	0	0	398	0.2	397	399	18.2	63.5
2025-08-22T21:37	10	0	0.1	0	0	398	0.2	397	398	18.2	63.5
2025-08-22T21:38	10	0	0.0	0	0	398	0.3	397	398	18.3	63.2
2025-08-22T21:39	10	0	0.1	0	0	397	0.3	396	398	18.3	62.4
2025-08-22T21:40	10	0	0.1	0	0	397	0.3	396	397	18.3	62.2
2025-08-22T21:41	10	0	0.1	0	0	397	0.3	396	397	18.3	62.8
2025-08-22T21:42	10	0	0.1	0	0	397	0.3	396	397	18.2	63.3
2025-08-22T21:43	10	0	0.1	0	0	397	0.3	396	397	18.2	63.3
2025-08-22T21:44	10	0	0.1	0	0	397	0.2	396	397	18.2	63.7
2025-08-22T21:45	10	0	0.1	0	0	397	0.3	396	397	18.2	63.5
2025-08-22T21:46	10	0	0.1	0	0	397	0.3	396	398	18.2	63.7
2025-08-22T21:47	10	0	0.1	0	0	397	0.2	396	397	18.2	63.7
2025-08-22T21:48	10	0	0.1	0	0	397	0.3	397	398	18.2	63.6
2025-08-22T21:49	10	0	0.1	0	0	398	0.2	397	398	18.2	63.2
2025-08-22T21:50	10	0	0.1	0	0	398	0.2	397	398	18.2	63.8
2025-08-22T21:51	10	0	0.0	0	0	398	0.2	398	398	18.1	63.6
2025-08-22T21:52	10	0	0.1	0	0	398	0.2	398	398	18.1	63.9
2025-08-22T21:53	10	0	0.0	0	0	398	0.2	398	399	18.1	64.0
2025-08-22T21:54	10	0	0.1	0	0	399	0.2	398	399	18.1	64.1
2025-08-22T21:55	10	0	0.1	0	0	399	0.3	398	399	18.1	64.0
2025-08-22T21:56	10	0	0.0	0	0	399	0.3	398	399	18.1	63.6
2025-08-22T21:57	10	0	0.1	0	0	399	0.3	398	399	18.2	62.7
2025-08-22T21:58	10	0	0.1	0	0	399	0.2	398	399	18.2	62.9
2025-08-22T21:59	10	0	0.0	0	0	399	0.2	398	399	18.1	63.8
2025-08-22T22:00	10	0	0.1	0	0	399	0.2	398	399	18.1	63.3
2025-08-22T22:01	10	0	0.1	0	0	399	0.2	398	399	18.1	63.5
2025-08-22T22:02	10	0	0.1	0	0	398	0.2	398	399	18.1	64.0
2025-08-22T22:03	10	0	0.0	0	0	398	0.2	398	399	18.1	63.4
2025-08-22T22:04	10	0	0.1	0	0	398	0.3	398	399	18.1	63.5
2025-08-22T22:05	10	0	0.1	0	0	398	0.2	398	399	18.1	63.3
2025-08-22T22:06	10	0	0.0	0	0	398	0.3	398	399	18.0	63.7
2025-08-22T22:07	10	0	0.1	0	0	398	0.2	397	398	18.0	64.0
2025-08-22T22:08	10	0	0.0	0	0	398	0.2	397	398	18.0	64.0
2025-08-22T22:09	10	0	0.0	0	0	397	0.4	397	398	17.9	64.7
2025-08-22T22:10	10	0	0.1	0	0	398	0.2	397	398	18.0	63.9
2025-08-22T22:11	10	0	0.1	0	0	397	0.2	397	397	17.9	64.8
2025-08-22T22:12	10	0	0.1	0	0	397	0.2	396	397	17.9	64.6
2025-08-22T22:13	10	0	0.1	0	0	396	0.3	396	397	17.9	64.7
2025-08-22T22:14	10	0	0.0	0	0	396	0.2	395	396	17.9	64.4
2025-08-22T22:15	10	0	0.0	0	0	396	0.3	395	396	17.9	64.3
2025-08-22T22:16	10	0	0.0	0	0	395	0.2	395	395	17.9	64.2
2025-08-22T22:17	10	0	0.0	0	0	395	0.3	394	395	17.9	64.5
2025-08-22T22:18	10	0	0.1	0	0	395	0.2	394	395	17.9	64.2
2025-08-22T22:19	10	0	0.0	0	0	394	0.2	394	395	17.9	64.3
2025-08-22T22:20	10	0	0.0	0	0	394	0.2	393	394	17.9	64.4
2025-08-22T22:21	10	0	0.0	0	0	394	0.2	393	394	17.9	64.2
2025-08-22T22:22	10	0	0.0	0	0	394	0.2	393	394	17.8	64.7
2025-08-22T22:23	10	0	0.1	0	0	393	0.2	393	394	17.8	64.5
2025-08-22T22:24	10	0	0.0	0	0	393	0.3	392	394	17.8	65.0
2025-08-22T22:25	10	0	0.0	0	0	393	0.2	392	393	17.7	64.9
2025-08-22T22:26	10	0	0.0	0	0	392	0.2	392	393	17.7	65.0
2025-08-22T22:27	10	0	0.1	0	0	392	0.3	391	392	17.7	65.0
2025-08-22T22:28	10	0	0.1	0	0	391	0.3	390	391	17.7	65.3
2025-08-22T22:29	10	0	0.0	0	0	390	0.5	388	390	17.6	65.7
2025-08-22T22:30	10	0	0.0	0	0	389	0.3	388	389	17.6	65.5
2025-08-22T22:31	10	0	0.1	0	0	388	0.2	388	389	17.6	65.9
2025-08-22T22:32	10	0	0.1	0	0	388	0.2	388	389	17.5	65.6
2025-08-22T22:33	10	0	0.1	0	0	388	0.2	387	388	17.5	65.8
2025-08-22T22:34	10	0	0.1	0	0	388	0.2	387	388	17.4	65.8
2025-08-22T22:35	10	0	0.1	0	0	388	0.2	387	388	17.5	65.4
2025-08-22T22:36	10	0	0.1	0	0	388	0.3	387	389	17.5	65.0
2025-08-22T22:37	10	0	0.1	0	0	388	0.3	387	388	17.5	65.5
2025-08-22T22:38	10	0	0.1	0	0	387	0.3	386	387	17.4	66.2
2025-08-22T22:39	10	0	0.1	0	0	386	0.3	385	387	17.4	66.1
2025-08-22T22:40	10	0	0.1	0	0	386	0.2	385	386	17.3	66.4
2025-08-22T22:41	10	0	0.1	0	0	386	0.4	385	386	17.4	65.6
2025-08-22T22:42	10	0	0.1	0	0	386	0.2	385	386	17.4	65.6
2025-08-22T22:43	10	0	0.0	0	0	385	0.3	384	386	17.4	65.8
2025-08-22T22:44	10	0	0.1	0	0	384	0.4	383	385	17.4	66.3
2025-08-22T22:45	10	0	0.1	0	0	384	0.2	384	385	17.4	66.0
2025-08-22T22:46	10	0	0.1	0	0	384	0.2	383	384	17.4	66.2
2025-08-22T22:47	10	0	0.1	0	0	384	0.3	383	384	17.4	66.2
2025-08-22T22:48	10	0	0.1	0	0	383	0.2	383	384	17.2	66.9
2025-08-22T22:49	10	0	0.1	0	0	384	0.2	383	384	17.2	66.9
2025-08-22T22:50	10	0	0.1	0	0	384	0.3	383	385	17.2	67.3
2025-08-22T22:51	10	0	0.1	0	0	384	0.2	383	384	17.2	67.1
2025-08-22T22:52	10	0	0.1	0	0	383	0.3	383	384	17.1	67.3
2025-08-22T22:53	10	0	0.1	0	0	383	0.2	383	384	17.2	67.1
2025-08-22T22:54	10	0	0.1	0	0	383	0.3	383	384	17.1	67.3
2025-08-22T22:55	10	0	0.0	0	0	383	0.3	382	383	17.0	67.8
2025-08-22T22:56	10	0	0.1	0	0	383	0.2	382	383	17.0	68.1
2025-08-22T22:57	10	0	0.1	0	0	382	0.2	382	383	16.9	68.3
2025-08-22T22:58	10	0	0.1	0	0	382	0.3	381	383	17.0	68.0
2025-08-22T22:59	10	0	0.1	0	0	382	0.2	381	382	16.9	68.2
2025-08-22T23:00	10	0	0.1	0	0	382	0.2	381	382	16.9	68.2
2025-08-22T23:01	10	0	0.1	0	0	382	0.3	381	382	16.9	68.2
2025-08-22T23:02	10	0	0.9	0	6	381	0.2	381	382	16.9	68.4
2025-08-22T23:03	10	0	0.1	0	0	382	0.3	381	382	16.9	68.4
2025-08-22T23:04	10	0	0.0	0	0	382	0.3	381	382	17.0	68.0
2025-08-22T23:05	10	0	0.1	0	0	382	0.2	381	382	17.0	68.1
2025-08-22T23:06	10	0	0.1	0	0	381	0.2	381	382	17.0	68.1
2025-08-22T23:07	10	0	0.1	0	0	382	0.2	381	382	16.9	68.4
2025-08-22T23:08	10	0	0.1	0	0	381	0.2	381	382	16.9	68.5
2025-08-22T23:09	10	0	0.0	0	0	381	0.2	381	381	17.0	68.1
2025-08-22T23:10	10	0	0.0	0	0	381	0.2	380	381	17.0	68.3
2025-08-22T23:11	10	0	0.1	0	0	381	0.2	380	381	16.9	68.5
2025-08-22T23:12	10	0	0.1	0	0	380	0.2	380	380	16.9	68.7
2025-08-22T23:13	10	0	0.1	0	0	379	0.2	379	380	16.8	69.0
2025-08-22T23:14	10	0	0.1	0	0	379	0.3	378	380	16.9	69.0
2025-08-22T23:15	10	0	0.1	0	0	378	0.2	378	379	16.7	70.0
2025-08-22T23:16	10	0	0.1	0	0	378	0.2	378	378	16.5	70.7
2025-08-22T23:17	10	0	0.1	0	0	378	0.2	377	378	16.5	70.7
2025-08-22T23:18	10	0	0.1	0	0	378	0.3	378	379	16.6	70.5
2025-08-22T23:19	10	0	0.1	0	0	379	0.3	378	379	16.8	69.4
2025-08-22T23:20	10	0	0.2	0	0	379	0.3	378	379	16.8	69.6
2025-08-22T23:21	10	0	0.1	0	0	378	0.2	378	379	16.7	69.8
2025-08-22T23:22	10	0	0.1	0	0	378	0.3	378	379	16.7	70.0
2025-08-22T23:23	10	0	0.1	0	0	378	0.3	378	379	16.7	69.9
2025-08-22T23:24	10	0	0.1	0	0	378	0.2	377	378	16.6	70.3
2025-08-22T23:25	10	0	0.1	0	0	377	0.3	377	378	16.6	70.9
2025-08-22T23:26	10	0	0.1	0	0	377	0.3	376	378	16.5	71.7
2025-08-22T23:27	10	0	0.1	0	0	376	0.3	375	377	16.4	72.1
2025-08-22T23:28	10	0	0.2	0	1	376	0.2	376	377	16.3	72.3
2025-08-22T23:29	10	0	0.1	0	0	376	0.2	375	376	16.3	72.5
2025-08-22T23:30	10	0	0.2	0	0	376	0.3	375	377	16.3	72.3
2025-08-22T23:31	10	0	0.1	0	0	376	0.3	375	377	16.4	71.8
2025-08-22T23:32	10	0	0.1	0	0	376	0.3	375	377	16.5	71.2
2025-08-22T23:33	10	0	0.1	0	0	376	0.3	376	377	16.6	70.6
2025-08-22T23:34	10	0	0.1	0	0	376	0.2	376	377	16.5	71.0
2025-08-22T23:35	10	0	0.2	0	1	376	0.3	375	376	16.4	72.1
2025-08-22T23:36	10	0	0.1	0	0	375	0.3	375	375	16.2	74.1
2025-08-22T23:37	10	0	0.2	0	1	376	0.4	375	377	16.0	75.0
2025-08-22T23:38	10	0	0.1	0	0	376	0.3	375	377	15.9	75.5
2025-08-22T23:39	10	0	0.1	0	0	376	0.2	376	377	15.6	79.0
2025-08-22T23:40	10	0	0.1	0	0	377	0.3	376	378	15.2	81.2
2025-08-22T23:41	10	0	0.1	0	0	377	0.2	376	377	15.3	79.9
2025-08-22T23:42	10	0	0.1	0	0	376	0.2	376	377	15.4	78.9
2025-08-22T23:43	10	0	0.1	0	0	376	0.2	376	376	15.4	78.4
2025-08-22T23:44	10	0	0.1	0	0	376	0.2	375	376	15.5	77.2
2025-08-22T23:45	10	0	0.1	0	0	376	0.2	375	376	15.5	77.2
2025-08-22T23:46	10	0	0.1	0	0	376	0.2	375	376	15.5	77.8
2025-08-22T23:47	10	0	0.1	0	0	376	0.2	375	376	15.5	77.6
2025-08-22T23:48	10	0	0.1	0	0	375	0.3	375	376	15.5	77.7
2025-08-22T23:49	10	0	0.1	0	0	376	0.3	375	377	15.6	78.2
2025-08-22T23:50	10	0	0.0	0	0	376	0.2	375	376	15.6	77.9
2025-08-22T23:51	10	0	0.1	0	0	376	0.2	375	376	15.6	76.8
2025-08-22T23:52	10	0	0.0	0	0	375	0.3	375	376	15.7	77.3
2025-08-22T23:53	10	0	0.0	0	0	375	0.3	374	375	15.6	78.3
2025-08-22T23:54	10	0	0.0	0	0	375	0.2	374	375	15.5	79.0
2025-08-22T23:55	10	0	0.1	0	0	375	0.2	374	375	15.4	79.1
2025-08-22T23:56	10	0	0.1	0	0	375	0.3	374	375	15.4	78.2
2025-08-22T23:57	10	0	0.0	0	0	374	0.3	374	375	15.5	78.1
2025-08-22T23:58	10	0	0.0	0	0	374	0.2	374	374	15.1	82.2
2025-08-22T23:59	10	0	0.1	0	0	375	0.4	374	375	15.0	81.4
2025-08-23T00:00	10	0	0.1	0	0	375	0.3	374	376	15.2	79.3
2025-08-23T00:01	10	0	0.0	0	0	375	0.3	374	375	15.4	78.3
2025-08-23T00:02	10	0	0.1	0	0	374	0.2	374	375	15.4	78.3
2025-08-23T00:03	10	0	0.1	0	0	374	0.3	374	375	15.4	77.9
2025-08-23T00:04	10	0	0.0	0	0	374	0.2	374	374	15.4	77.3
2025-08-23T00:05	10	0	0.0	0	0	374	0.3	373	375	15.2	79.7
2025-08-23T00:06	10	0	0.1	0	0	375	0.2	374	375	15.0	80.0
2025-08-23T00:07	10	0	0.1	0	0	374	0.2	374	375	15.0	79.8
2025-08-23T00:08	10	0	0.0	0	0	374	0.2	374	375	15.0	79.5
2025-08-23T00:09	10	0	0.0	0	0	374	0.2	374	375	15.2	78.1
2025-08-23T00:10	10	0	0.0	0	0	374	0.2	374	374	15.3	77.7
2025-08-23T00:11	10	0	0.0	0	0	374	0.2	373	374	15.3	77.6
2025-08-23T00:12	10	0	0.0	0	0	374	0.2	373	374	15.3	77.7
2025-08-23T00:13	10	0	0.0	0	0	374	0.2	373	374	15.4	77.2
2025-08-23T00:14	10	0	0.0	0	0	374	0.2	374	374	15.4	77.5
2025-08-23T00:15	10	0	0.1	0	0	374	0.3	373	375	15.3	77.5
2025-08-23T00:16	10	0	0.0	0	0	374	0.2	374	375	15.3	77.8
2025-08-23T00:17	10	0	0.1	0	0	375	0.2	374	375	15.3	78.0
2025-08-23T00:18	10	0	0.1	0	0	375	0.3	374	376	15.3	78.1
2025-08-23T00:19	10	0	0.1	0	0	376	0.3	375	376	15.3	77.6
2025-08-23T00:20	10	0	0.1	0	0	376	0.4	376	377	15.3	77.3
2025-08-23T00:21	10	0	0.0	0	0	377	0.3	376	378	15.4	77.1
2025-08-23T00:22	10	0	0.1	0	0	378	0.5	377	379	15.4	76.6
2025-08-23T00:23	10	0	0.1	0	0	379	0.3	378	380	15.4	76.5
2025-08-23T00:24	10	0	0.1	0	0	380	0.2	379	380	15.4	76.6
2025-08-23T00:25	10	0	0.1	0	0	380	0.3	379	381	15.4	76.7
2025-08-23T00:26	10	0	0.1	0	0	380	0.3	380	381	15.3	77.6
2025-08-23T00:27	10	0	0.1	0	0	380	0.3	380	381	15.1	79.5
2025-08-23T00:28	10	0	0.1	0	0	381	0.2	381	381	15.1	79.3
2025-08-23T00:29	10	0	0.1	0	0	381	0.3	381	382	15.1	79.5
2025-08-23T00:30	10	0	0.1	0	0	382	0.2	381	382	15.1	78.9
2025-08-23T00:31	10	0	0.1	0	0	382	0.2	382	383	15.1	79.0
2025-08-23T00:32	10	0	0.1	0	0	382	0.2	382	383	15.2	78.6
2025-08-23T00:33	10	0	0.1	0	0	383	0.2	382	383	15.1	79.0
2025-08-23T00:34	10	0	0.1	0	0	383	0.2	382	383	15.1	79.6
2025-08-23T00:35	10	0	0.1	0	0	383	0.2	383	384	15.0	79.7
2025-08-23T00:36	10	0	0.1	0	0	383	0.2	383	384	15.0	79.3
2025-08-23T00:37	10	0	0.1	0	0	383	0.3	382	384	14.9	80.1
2025-08-23T00:38	10	0	0.1	0	0	383	0.2	383	384	15.0	79.1
2025-08-23T00:39	10	0	0.1	0	0	383	0.3	382	383	15.0	80.9
2025-08-23T00:40	10	0	0.1	0	0	383	0.4	382	384	14.9	80.8
2025-08-23T00:41	10	0	0.1	0	0	383	0.2	383	384	15.1	78.1
2025-08-23T00:42	10	0	0.1	0	0	383	0.3	382	384	15.3	77.3
2025-08-23T00:43	10	0	0.1	0	0	383	0.3	382	383	15.3	77.1
2025-08-23T00:44	10	0	0.1	0	0	382	0.3	382	383	15.3	76.6
2025-08-23T00:45	10	0	0.1	0	0	382	0.4	381	382	15.4	77.0
2025-08-23T00:46	10	0	0.1	0	0	381	0.2	381	382	15.3	77.8
2025-08-23T00:47	10	0	0.1	0	0	381	0.3	380	382	15.2	77.9
2025-08-23T00:48	10	0	0.1	0	0	381	0.2	380	381	15.2	78.7
2025-08-23T00:49	10	0	0.1	0	0	381	0.2	380	381	15.1	79.6
2025-08-23T00:50	10	0	0.1	0	0	381	0.3	380	382	15.1	79.7
2025-08-23T00:51	10	0	0.1	0	0	382	0.4	381	383	15.1	79.5
2025-08-23T00:52	10	0	0.1	0	0	382	0.3	381	383	15.1	78.8
2025-08-23T00:53	10	0	0.1	0	0	382	0.2	382	383	15.1	79.3
2025-08-23T00:54	10	0	0.1	0	0	382	0.3	381	383	15.1	79.9
2025-08-23T00:55	10	0	0.1	0	0	382	0.2	382	383	15.0	81.3
2025-08-23T00:56	10	0	0.1	0	0	382	0.2	382	382	14.9	82.6
2025-08-23T00:57	10	0	0.1	0	0	382	0.2	382	383	14.8	81.6
2025-08-23T00:58	10	0	0.1	0	0	382	0.2	381	382	14.8	83.0
2025-08-23T00:59	10	0	0.1	0	0	382	0.3	381	383	14.6	84.2
2025-08-23T01:00	10	0	0.1	0	0	382	0.2	382	382	14.6	84.4
2025-08-23T01:01	10	0	0.1	0	0	382	0.2	381	382	14.6	85.6
2025-08-23T01:02	10	0	0.1	0	0	382	0.2	381	382	14.5	86.2
2025-08-23T01:03	10	0	0.1	0	0	382	0.3	381	383	14.5	86.2
2025-08-23T01:04	10	0	0.1	0	0	382	0.3	382	383	14.5	86.0
2025-08-23T01:05	10	0	0.1	0	0	383	0.3	382	383	14.4	85.8
2025-08-23T01:06	10	0	0.1	0	0	383	0.3	383	384	14.5	85.6
2025-08-23T01:07	10	0	0.1	0	0	384	0.3	383	385	14.6	84.8
2025-08-23T01:08	10	0	0.1	0	0	384	0.3	383	385	14.6	84.2
2025-08-23T01:09	10	0	0.1	0	0	384	0.4	384	385	14.6	84.2
2025-08-23T01:10	10	0	0.1	0	0	385	0.2	384	385	14.7	84.3
2025-08-23T01:11	10	0	0.1	0	0	385	0.3	384	386	14.6	84.8
2025-08-23T01:12	10	0	0.1	0	0	385	0.2	384	385	14.7	84.0
2025-08-23T01:13	10	0	0.1	0	0	385	0.2	384	385	14.7	83.4
2025-08-23T01:14	10	0	0.1	0	0	385	0.2	384	385	14.7	83.3
2025-08-23T01:15	10	0	0.1	0	0	385	0.3	384	385	14.7	82.8
2025-08-23T01:16	10	0	0.1	0	0	385	0.2	384	385	14.7	83.1
2025-08-23T01:17	10	0	0.1	0	0	385	0.3	384	386	14.7	83.3
2025-08-23T01:18	10	0	0.1	0	0	385	0.2	384	385	14.7	82.1
2025-08-23T01:19	10	0	0.1	0	0	385	0.2	384	385	14.7	83.3
2025-08-23T01:20	10	0	0.1	0	0	385	0.2	385	385	14.7	84.0
2025-08-23T01:21	10	0	0.1	0	0	385	0.2	384	385	14.7	83.5
2025-08-23T01:22	10	0	0.1	0	0	385	0.2	384	385	14.7	82.6
2025-08-23T01:23	10	0	0.1	0	0	385	0.2	384	385	14.8	81.8
2025-08-23T01:24	10	0	0.1	0	0	384	0.5	383	385	15.0	80.8
2025-08-23T01:25	10	0	0.1	0	0	383	0.3	383	384	14.9	82.6
2025-08-23T01:26	10	0	0.1	0	0	383	0.3	382	384	14.8	82.9
2025-08-23T01:27	10	0	0.1	0	0	382	0.4	381	383	14.8	83.4
2025-08-23T01:28	10	0	0.1	0	0	382	0.3	381	382	14.6	85.8
2025-08-23T01:29	10	0	0.1	0	0	381	0.2	381	381	14.4	87.5
2025-08-23T01:30	10	0	0.1	0	0	381	0.3	380	381	14.4	88.6
2025-08-23T01:31	10	0	0.1	0	0	380	0.2	380	381	14.4	88.7
2025-08-23T01:32	10	0	0.1	0	0	380	0.2	380	380	14.4	87.0
2025-08-23T01:33	10	0	0.1	0	0	380	0.2	380	381	14.4	86.8
2025-08-23T01:34	10	0	0.1	0	0	380	0.3	379	380	14.6	84.3
2025-08-23T01:35	10	0	0.1	0	0	379	0.3	379	380	14.6	84.9
2025-08-23T01:36	10	0	0.1	0	0	379	0.3	378	379	14.5	85.7
2025-08-23T01:37	10	0	0.1	0	0	378	0.3	377	379	14.5	85.4
2025-08-23T01:38	10	0	0.1	0	0	378	0.3	377	378	14.5	85.8
2025-08-23T01:39	10	0	0.1	0	0	377	0.3	376	377	14.5	86.2
2025-08-23T01:40	10	0	0.1	0	0	376	0.2	376	377	14.5	86.6
2025-08-23T01:41	10	0	0.1	0	0	376	0.2	375	377	14.5	85.3
2025-08-23T01:42	10	0	0.1	0	0	375	0.2	375	376	14.6	84.4
2025-08-23T01:43	10	0	0.1	0	0	374	0.2	374	375	14.7	84.2
2025-08-23T01:44	10	0	0.1	0	0	374	0.3	373	374	14.6	85.0
2025-08-23T01:45	10	0	0.0	0	0	373	0.3	372	374	14.6	85.7
2025-08-23T01:46	10	0	0.1	0	0	373	0.2	372	373	14.5	86.2
2025-08-23T01:47	10	0	0.1	0	0	372	0.2	372	373	14.5	86.6
2025-08-23T01:48	10	0	0.1	0	0	372	0.2	371	372	14.4	87.4
2025-08-23T01:49	10	0	0.1	0	0	372	0.2	372	373	14.4	88.2
2025-08-23T01:50	10	0	0.1	0	0	372	0.2	372	373	14.4	88.0
2025-08-23T01:51	10	0	0.1	0	0	373	0.4	372	373	14.4	87.6
2025-08-23T01:52	10	0	0.1	0	0	374	0.3	373	374	14.4	87.5
2025-08-23T01:53	10	0	0.1	0	0	374	0.3	373	375	14.3	88.7
2025-08-23T01:54	10	0	0.1	0	0	375	0.3	374	376	14.2	88.9
2025-08-23T01:55	10	0	0.1	0	0	375	0.3	375	376	14.2	88.8
2025-08-23T01:56	10	0	0.1	0	0	376	0.3	375	376	14.2	88.8
2025-08-23T01:57	10	0	0.0	0	0	376	0.3	375	377	14.1	88.5
2025-08-23T01:58	10	0	0.1	0	0	377	0.3	376	377	14.1	87.8
2025-08-23T01:59	10	0	0.0	0	0	377	0.3	376	377	14.1	87.1
2025-08-23T02:00	10	0	0.1	0	0	376	0.3	376	377	14.1	86.7
2025-08-23T02:01	10	0	0.1	0	0	376	0.2	376	377	14.0	87.2
2025-08-23T02:02	10	0	0.0	0	0	376	0.2	375	377	13.9	87.8
2025-08-23T02:03	10	0	0.1	0	0	376	0.3	375	376	13.8	88.4
2025-08-23T02:04	10	0	0.0	0	0	375	0.2	375	376	13.7	89.0
2025-08-23T02:05	10	0	0.0	0	0	375	0.2	375	376	13.6	89.4
2025-08-23T02:06	10	0	0.0	0	0	375	0.3	375	376	13.6	89.3
2025-08-23T02:07	10	0	0.0	0	0	375	0.2	375	376	13.7	88.9
2025-08-23T02:08	10	0	0.1	0	0	375	0.3	374	376	13.7	88.8
2025-08-23T02:09	10	0	0.1	0	0	375	0.2	375	376	13.6	89.0
2025-08-23T02:10	10	0	0.0	0	0	375	0.3	375	376	13.6	89.0
2025-08-23T02:11	10	0	0.1	0	0	375	0.3	375	376	13.7	89.3
2025-08-23T02:12	10	0	0.0	0	0	376	0.2	375	376	13.7	89.9
2025-08-23T02:13	10	0	0.1	0	0	376	0.3	375	376	13.7	90.1
2025-08-23T02:14	10	0	0.1	0	0	376	0.3	375	377	13.8	90.4
2025-08-23T02:15	10	0	0.1	0	0	377	0.2	376	377	13.8	90.4
2025-08-23T02:16	10	0	0.1	0	0	377	0.2	377	377	13.9	90.1
2025-08-23T02:17	10	0	0.1	0	0	377	0.2	376	378	13.9	89.9
2025-08-23T02:18	10	0	0.1	0	0	377	0.2	376	377	13.9	89.7
2025-08-23T02:19	10	0	0.1	0	0	377	0.2	376	377	13.8	89.5
2025-08-23T02:20	10	0	0.1	0	0	377	0.2	377	378	13.9	88.1
2025-08-23T02:21	10	0	0.1	0	0	377	0.2	377	377	13.8	89.1
2025-08-23T02:22	10	0	0.1	0	0	377	0.2	376	377	13.8	89.3
2025-08-23T02:23	10	0	0.1	0	0	377	0.2	376	377	13.8	89.1
2025-08-23T02:24	10	0	0.1	0	0	376	0.2	376	377	13.8	89.7
2025-08-23T02:25	10	0	0.1	0	0	376	0.3	375	377	13.8	89.9
2025-08-23T02:26	10	0	0.1	0	0	375	0.3	375	376	13.8	90.3
2025-08-23T02:27	10	0	0.0	0	0	375	0.2	374	375	13.7	90.7
2025-08-23T02:28	10	0	0.1	0	0	375	0.2	374	375	13.8	91.0
2025-08-23T02:29	10	0	0.1	0	0	375	0.2	375	376	13.7	91.1
2025-08-23T02:30	10	0	0.1	0	0	375	0.3	375	376	13.7	91.1
2025-08-23T02:31	10	0	0.0	0	0	376	0.2	375	376	13.7	90.9
2025-08-23T02:32	10	0	0.1	0	0	376	0.2	375	376	13.6	91.3
2025-08-23T02:33	10	0	0.1	0	0	375	0.2	375	376	13.6	91.5
2025-08-23T02:34	10	0	0.1	0	0	375	0.2	375	376	13.6	91.7
2025-08-23T02:35	10	0	0.1	0	0	375	0.2	375	376	13.5	91.9
2025-08-23T02:36	10	0	0.1	0	0	375	0.3	374	376	13.5	91.9
2025-08-23T02:37	10	0	0.1	0	0	375	0.2	375	375	13.6	91.5
2025-08-23T02:38	10	0	0.1	0	0	375	0.3	375	376	13.6	91.3
2025-08-23T02:39	10	0	0.1	0	0	375	0.2	375	376	13.7	90.9
2025-08-23T02:40	10	0	0.1	0	0	375	0.4	375	376	13.7	90.7
2025-08-23T02:41	10	0	0.1	0	0	376	0.3	375	377	13.7	90.8
2025-08-23T02:42	10	0	0.1	0	0	377	0.5	376	378	13.8	90.3
2025-08-23T02:43	10	0	0.1	0	0	378	0.4	377	379	13.9	90.0
2025-08-23T02:44	10	0	0.1	0	0	379	0.3	378	379	13.8	89.7
2025-08-23T02:45	10	0	0.1	0	0	379	0.2	379	380	13.8	89.5
2025-08-23T02:46	10	0	0.1	0	0	379	0.2	379	380	13.8	89.4
2025-08-23T02:47	10	0	0.1	0	0	379	0.2	379	380	13.7	89.4
2025-08-23T02:48	10	0	0.1	0	0	380	0.2	379	380	13.8	88.8
2025-08-23T02:49	10	0	0.1	0	0	380	0.2	380	381	13.8	88.5
2025-08-23T02:50	10	0	0.2	0	1	380	0.3	380	381	13.8	88.1
2025-08-23T02:51	10	0	0.2	0	0	380	0.2	380	381	13.8	88.4
2025-08-23T02:52	10	0	0.1	0	0	380	0.2	380	381	13.8	88.6
2025-08-23T02:53	10	0	0.1	0	0	380	0.3	380	381	13.7	88.7
2025-08-23T02:54	10	0	0.2	0	0	380	0.2	380	381	13.7	88.4
2025-08-23T02:55	10	0	0.2	0	1	380	0.2	380	381	13.7	88.6
2025-08-23T02:56	10	0	0.2	0	0	381	0.2	380	381	13.7	88.9
2025-08-23T02:57	10	0	0.4	0	3	380	0.3	380	381	13.6	89.0
2025-08-23T02:58	10	0	0.1	0	1	381	0.3	380	381	13.6	88.9
2025-08-23T02:59	10	0	0.2	0	1	381	0.3	380	382	13.6	88.6
2025-08-23T03:00	10	0	0.1	0	0	381	0.2	381	382	13.7	88.4
2025-08-23T03:01	10	0	0.2	-1	1	381	0.3	381	382	13.6	88.8
2025-08-23T03:02	10	0	0.2	0	0	381	0.3	380	382	13.6	88.7
2025-08-23T03:03	10	0	0.1	0	0	381	0.2	381	382	13.7	88.8
2025-08-23T03:04	10	0	0.2	0	0	382	0.3	381	382	13.7	88.8
2025-08-23T03:05	10	0	0.2	-1	0	382	0.2	381	382	13.7	88.2
2025-08-23T03:06	10	0	0.2	0	0	382	0.2	381	382	13.8	87.9
2025-08-23T03:07	10	0	0.2	0	0	382	0.2	381	382	13.8	88.0
2025-08-23T03:08	10	0	0.1	0	0	381	0.2	381	382	13.7	88.4
2025-08-23T03:09	10	0	0.2	0	0	382	0.3	381	383	13.7	88.4
2025-08-23T03:10	10	0	0.1	0	0	381	0.3	381	382	13.7	88.3
2025-08-23T03:11	10	0	0.2	0	1	382	0.2	381	382	13.7	88.5
2025-08-23T03:12	10	0	0.1	0	0	381	0.2	381	382	13.7	89.2
2025-08-23T03:13	10	0	0.1	0	0	381	0.2	381	382	13.7	89.6
2025-08-23T03:14	10	0	0.2	-1	0	381	0.3	381	382	13.6	90.3
2025-08-23T03:15	10	0	0.2	0	0	382	0.3	381	382	13.6	90.4
2025-08-23T03:16	10	0	0.1	0	0	382	0.2	381	382	13.6	90.0
2025-08-23T03:17	10	0	0.1	0	0	381	0.3	381	382	13.6	89.8
2025-08-23T03:18	10	0	0.1	-1	0	381	0.3	381	382	13.7	89.5
2025-08-23T03:19	10	0	0.1	0	0	381	0.2	381	382	13.7	89.6
2025-08-23T03:20	10	0	0.1	0	0	381	0.2	381	382	13.7	90.0
2025-08-23T03:21	10	0	0.1	-1	0	381	0.2	381	382	13.7	89.6
2025-08-23T03:22	10	0	0.2	0	0	381	0.3	381	382	13.8	89.2
2025-08-23T03:23	10	0	0.1	0	0	381	0.2	380	381	13.8	88.8
2025-08-23T03:24	10	0	0.1	0	0	381	0.2	380	381	13.9	88.9
2025-08-23T03:25	10	0	0.1	-1	0	380	0.3	380	381	13.9	88.5
2025-08-23T03:26	10	0	0.2	-1	0	380	0.2	380	381	13.9	88.3
2025-08-23T03:27	10	0	0.1	0	0	380	0.3	379	380	14.0	87.9
2025-08-23T03:28	10	0	0.2	0	0	379	0.3	379	380	14.0	88.0
2025-08-23T03:29	10	0	0.2	-1	0	379	0.2	378	379	13.9	88.6
2025-08-23T03:30	10	0	0.1	0	0	378	0.3	378	379	13.9	89.0
2025-08-23T03:31	10	0	0.2	-1	0	378	0.3	378	379	13.9	88.7
2025-08-23T03:32	10	0	0.1	-1	0	378	0.3	377	378	13.9	88.7
2025-08-23T03:33	10	0	0.1	0	0	377	0.3	376	378	13.9	88.9
2025-08-23T03:34	10	0	0.1	0	0	377	0.2	376	377	13.9	89.0
2025-08-23T03:35	10	0	0.1	0	0	376	0.3	376	377	13.9	88.5
2025-08-23T03:36	10	0	0.2	-1	1	376	0.2	375	376	13.9	88.4
2025-08-23T03:37	10	0	0.2	-1	0	375	0.3	375	376	14.0	88.3
2025-08-23T03:38	10	0	0.1	0	0	374	0.3	374	375	14.0	87.8
2025-08-23T03:39	10	0	0.1	0	0	374	0.3	373	374	14.0	88.0
2025-08-23T03:40	10	0	0.1	0	0	373	0.3	373	374	13.9	88.1
2025-08-23T03:41	10	0	0.1	0	0	373	0.3	372	374	13.9	87.8
2025-08-23T03:42	10	0	0.1	0	0	373	0.2	372	373	14.0	87.4
2025-08-23T03:43	10	0	0.1	-1	0	372	0.3	372	373	14.0	87.7
2025-08-23T03:44	10	0	0.1	0	0	372	0.3	371	372	14.0	88.0
2025-08-23T03:45	10	0	0.1	0	0	371	0.2	371	372	13.9	88.8
2025-08-23T03:46	10	0	0.2	0	0	371	0.3	370	372	13.8	89.0
2025-08-23T03:47	10	0	0.2	0	0	371	0.3	371	372	13.7	89.9
2025-08-23T03:48	10	0	0.1	0	0	371	0.2	371	372	13.5	91.3
2025-08-23T03:49	10	0	0.2	0	1	371	0.3	371	372	13.4	92.1
2025-08-23T03:50	10	0	0.1	0	0	371	0.2	370	371	13.4	92.2
2025-08-23T03:51	10	0	0.1	0	0	370	0.2	370	371	13.4	92.3
2025-08-23T03:52	10	0	0.1	0	0	370	0.2	370	371	13.4	92.1
2025-08-23T03:53	10	0	0.2	0	0	371	0.4	370	372	13.4	91.6
2025-08-23T03:54	10	0	0.1	0	0	371	0.2	371	372	13.4	91.7
2025-08-23T03:55	10	0	0.1	0	0	372	0.2	371	372	13.4	91.9
2025-08-23T03:56	10	0	0.1	0	0	372	0.2	371	372	13.3	92.0
2025-08-23T03:57	10	0	0.2	0	0	371	0.2	371	372	13.2	92.5
2025-08-23T03:58	10	0	0.2	0	0	371	0.3	371	372	13.1	92.9
2025-08-23T03:59	10	0	0.1	0	0	371	0.3	371	372	13.1	93.2
2025-08-23T04:00	10	0	0.1	0	0	371	0.2	370	371	13.0	93.6
2025-08-23T04:01	10	0	0.1	0	0	370	0.2	370	371	13.0	93.7
2025-08-23T04:02	10	0	0.1	0	0	369	0.4	369	370	13.0	93.8
2025-08-23T04:03	10	0	0.1	0	0	369	0.2	368	369	13.0	93.5
2025-08-23T04:04	10	0	0.1	0	0	369	0.2	368	369	13.0	93.3
2025-08-23T04:05	10	0	0.1	0	0	368	0.2	368	369	13.0	93.3
2025-08-23T04:06	10	0	0.1	0	0	368	0.2	368	369	13.0	93.5
2025-08-23T04:07	10	0	0.1	0	0	369	0.3	368	369	12.9	93.3
2025-08-23T04:08	10	0	0.1	0	0	369	0.2	369	370	12.9	93.6
2025-08-23T04:09	10	0	0.1	0	0	370	0.3	369	370	12.9	93.6
2025-08-23T04:10	10	0	0.0	0	0	370	0.3	369	371	12.8	93.9
2025-08-23T04:11	10	0	0.1	0	0	371	0.3	370	371	12.8	94.0
2025-08-23T04:12	10	0	0.1	0	0	371	0.3	370	372	12.8	93.9
2025-08-23T04:13	10	0	0.1	0	0	372	0.3	371	373	12.8	94.1
2025-08-23T04:14	10	0	0.0	0	0	372	0.3	372	373	12.8	94.5
2025-08-23T04:15	10	0	0.1	0	0	373	0.2	372	373	12.8	94.7
2025-08-23T04:16	10	0	0.1	0	0	373	0.2	372	373	12.8	94.9
2025-08-23T04:17	10	0	0.0	0	0	373	0.2	372	373	12.8	95.3
2025-08-23T04:18	10	0	0.0	0	0	373	0.2	372	373	12.9	95.1
2025-08-23T04:19	10	0	0.0	0	0	372	0.2	372	373	12.9	94.7
2025-08-23T04:20	10	0	0.1	0	0	372	0.2	372	373	12.9	94.5
2025-08-23T04:21	10	0	0.0	0	0	371	0.3	371	372	12.9	94.3
2025-08-23T04:22	10	0	0.0	0	0	371	0.3	370	371	12.9	94.3
2025-08-23T04:23	10	0	0.0	0	0	370	0.2	370	371	13.0	94.0
2025-08-23T04:24	10	0	0.0	0	0	370	0.3	369	370	13.0	93.6
2025-08-23T04:25	10	0	0.0	0	0	369	0.3	369	370	13.2	93.2
2025-08-23T04:26	10	0	0.1	0	0	369	0.2	368	369	13.3	92.7
2025-08-23T04:27	10	0	0.1	0	0	368	0.3	367	369	13.3	92.4
2025-08-23T04:28	10	0	0.0	0	0	367	0.3	367	368	13.3	92.6
2025-08-23T04:29	10	0	0.1	0	0	367	0.2	366	367	13.2	92.9
2025-08-23T04:30	10	0	0.1	0	0	367	0.2	366	367	13.1	93.2
2025-08-23T04:31	10	0	0.1	0	0	367	0.2	367	368	13.0	93.8
2025-08-23T04:32	10	0	0.1	0	0	367	0.2	367	368	13.0	94.0
2025-08-23T04:33	10	0	0.1	0	0	368	0.3	367	368	13.0	94.1
2025-08-23T04:34	10	0	0.0	0	0	368	0.2	367	368	13.1	94.1
2025-08-23T04:35	10	0	0.1	0	0	368	0.5	367	369	13.0	94.1
2025-08-23T04:36	10	0	0.1	0	0	369	0.3	369	370	13.0	94.0
2025-08-23T04:37	10	0	0.1	0	0	370	0.4	369	370	13.0	94.1
2025-08-23T04:38	10	0	0.1	0	0	371	0.4	370	371	13.1	93.9
2025-08-23T04:39	10	0	0.1	0	0	371	0.4	371	372	13.2	93.6
2025-08-23T04:40	10	0	0.1	0	1	372	0.4	372	373	13.2	93.5
2025-08-23T04:41	10	0	0.1	0	0	373	0.3	373	374	13.2	93.4
2025-08-23T04:42	10	0	0.1	0	1	375	0.3	374	375	13.2	93.1
2025-08-23T04:43	10	0	0.1	0	0	375	0.4	374	376	13.2	93.0
2025-08-23T04:44	10	0	0.1	0	1	376	0.3	375	376	13.2	93.3
2025-08-23T04:45	10	0	0.1	0	1	376	0.2	376	377	13.1	93.6
2025-08-23T04:46	10	1	0.1	0	1	377	0.3	376	377	13.1	93.9
2025-08-23T04:47	10	0	0.1	0	1	377	0.3	376	377	13.0	94.2
2025-08-23T04:48	10	1	0.1	0	1	377	0.2	377	378	13.0	94.4
2025-08-23T04:49	10	1	0.1	0	1	377	0.2	377	378	13.0	94.6
2025-08-23T04:50	10	1	0.1	0	1	377	0.2	377	378	12.9	94.8
2025-08-23T04:51	10	1	0.1	1	1	377	0.2	377	378	12.9	94.9
2025-08-23T04:52	10	1	0.1	1	1	378	0.4	377	378	12.9	95.1
2025-08-23T04:53	10	1	0.1	1	1	378	0.2	377	379	12.9	95.0
2025-08-23T04:54	10	1	0.1	1	1	378	0.2	377	378	12.9	95.0
2025-08-23T04:55	10	1	0.1	1	1	378	0.2	377	379	12.9	95.0
2025-08-23T04:56	10	1	0.1	1	1	378	0.2	378	378	13.0	94.9
2025-08-23T04:57	10	1	0.1	1	2	378	0.2	377	378	13.0	94.8
2025-08-23T04:58	10	2	0.1	1	2	378	0.3	377	378	13.1	94.7
2025-08-23T04:59	10	2	0.1	2	2	378	0.2	377	378	13.1	94.5
2025-08-23T05:00	10	2	0.1	2	2	377	0.2	377	378	13.1	93.9
2025-08-23T05:01	10	2	0.1	2	2	377	0.3	377	378	13.2	93.6
2025-08-23T05:02	10	2	0.1	2	3	377	0.2	376	377	13.2	93.4
2025-08-23T05:03	10	3	0.1	2	3	377	0.2	376	377	13.2	93.6
2025-08-23T05:04	10	3	0.1	3	3	376	0.3	376	377	13.3	92.6
2025-08-23T05:05	10	3	0.1	3	3	376	0.3	375	376	13.4	92.5
2025-08-23T05:06	10	3	0.1	3	4	376	0.2	375	376	13.4	92.6
2025-08-23T05:07	10	4	0.1	3	4	376	0.2	375	376	13.4	92.5
2025-08-23T05:08	10	4	0.1	4	4	376	0.2	376	376	13.4	92.7
2025-08-23T05:09	10	4	0.1	4	5	376	0.2	375	376	13.4	92.8
2025-08-23T05:10	10	5	0.1	4	5	376	0.3	375	376	13.4	92.9
2025-08-23T05:11	10	5	0.3	4	6	376	0.2	375	376	13.4	92.8
2025-08-23T05:12	10	6	0.3	5	7	376	0.2	375	376	13.4	92.9
2025-08-23T05:13	10	6	0.3	6	7	376	0.2	376	377	13.4	92.9
2025-08-23T05:14	10	6	0.2	6	7	376	0.2	375	377	13.4	93.6
2025-08-23T05:15	10	8	0.7	7	9	376	0.2	376	377	13.3	94.0
2025-08-23T05:16	10	8	0.4	8	9	377	0.2	376	377	13.3	94.3
2025-08-23T05:17	10	8	0.3	8	9	377	0.2	377	378	13.3	94.3
2025-08-23T05:18	10	9	0.1	9	9	378	0.3	377	378	13.3	93.8
2025-08-23T05:19	10	9	0.4	8	10	378	0.2	377	378	13.3	93.6
2025-08-23T05:20	10	8	0.3	7	9	378	0.2	378	378	13.4	93.5
2025-08-23T05:21	10	8	0.1	8	8	378	0.2	378	379	13.4	93.2
2025-08-23T05:22	10	8	0.1	7	8	378	0.2	378	378	13.4	93.3
2025-08-23T05:23	10	8	0.1	7	8	378	0.2	378	378	13.4	93.6
2025-08-23T05:24	10	8	0.1	7	8	378	0.3	377	378	13.4	93.3
2025-08-23T05:25	10	8	0.4	7	9	378	0.2	377	378	13.4	93.0
2025-08-23T05:26	10	9	0.4	8	10	377	0.2	377	378	13.3	93.4
2025-08-23T05:27	10	10	0.9	9	12	377	0.2	377	378	13.2	93.6
2025-08-23T05:28	10	12	0.2	11	12	377	0.3	377	378	13.1	93.7
2025-08-23T05:29	10	10	0.6	9	11	377	0.2	376	378	13.1	94.2
2025-08-23T05:30	10	10	0.2	10	11	377	0.2	377	378	13.1	94.6
2025-08-23T05:31	10	10	0.2	9	10	377	0.2	376	377	13.1	94.7
2025-08-23T05:32	10	9	0.5	8	9	377	0.3	376	378	13.1	94.1
2025-08-23T05:33	10	8	0.1	8	8	377	0.2	377	378	13.1	93.5
2025-08-23T05:34	10	8	0.1	8	9	377	0.2	377	377	13.2	93.2
2025-08-23T05:35	10	8	0.1	8	9	377	0.2	377	377	13.2	93.3
2025-08-23T05:36	10	8	0.1	8	9	377	0.3	376	378	13.2	93.1
2025-08-23T05:37	10	8	0.1	8	9	377	0.2	377	378	13.2	93.2
2025-08-23T05:38	10	8	0.1	8	9	377	0.3	376	378	13.2	93.3
2025-08-23T05:39	10	9	0.1	8	9	377	0.2	377	378	13.1	93.6
2025-08-23T05:40	10	9	0.2	9	9	378	0.3	377	378	13.1	93.9
2025-08-23T05:41	10	10	0.3	9	10	378	0.4	377	379	13.1	94.1
2025-08-23T05:42	10	11	0.3	10	11	379	0.4	378	380	13.2	94.0
2025-08-23T05:43	10	12	0.3	11	12	380	0.4	379	380	13.3	93.7
2025-08-23T05:44	10	12	0.2	12	13	381	0.3	380	381	13.4	93.3
2025-08-23T05:45	10	13	0.2	13	13	381	0.3	381	382	13.4	92.9
2025-08-23T05:46	10	13	0.2	13	14	382	0.4	381	383	13.4	92.6
2025-08-23T05:47	10	14	0.2	14	15	383	0.3	382	383	13.5	92.4
2025-08-23T05:48	10	15	0.2	14	15	384	0.3	383	384	13.5	92.8
2025-08-23T05:49	10	15	0.1	15	16	384	0.3	384	385	13.5	93.8
2025-08-23T05:50	10	16	0.2	16	16	385	0.3	385	386	13.5	93.6
2025-08-23T05:51	10	16	0.1	16	17	386	0.3	385	386	13.5	93.1
2025-08-23T05:52	10	17	0.1	16	17	385	0.3	385	386	13.6	92.8
2025-08-23T05:53	10	17	0.1	17	17	385	0.2	385	386	13.6	92.7
2025-08-23T05:54	10	17	0.2	17	18	385	0.2	385	386	13.6	92.9
2025-08-23T05:55	10	18	0.1	18	18	386	0.2	385	386	13.6	92.9
2025-08-23T05:56	10	18	0.1	18	19	386	0.3	385	386	13.6	93.3
2025-08-23T05:57	10	19	0.1	19	19	386	0.2	386	387	13.6	93.3
2025-08-23T05:58	10	19	0.1	19	20	386	0.2	386	387	13.6	93.6
2025-08-23T05:59	10	19	0.1	19	19	386	0.3	386	387	13.6	92.9
2025-08-23T06:00	10	19	0.2	19	19	386	0.2	386	386	13.6	92.6
2025-08-23T06:01	10	24	2.4	20	27	386	0.4	386	387	13.6	93.0
2025-08-23T06:02	10	22	3.1	19	27	387	0.2	387	388	13.7	93.4
2025-08-23T06:03	10	24	2.3	20	27	387	0.2	387	388	13.8	93.8
2025-08-23T06:04	10	21	3.7	16	26	387	0.4	386	388	13.8	93.7
2025-08-23T06:05	10	15	0.2	15	16	386	0.4	385	387	13.8	93.0
2025-08-23T06:06	10	15	0.2	14	15	386	0.3	385	386	13.8	92.1
2025-08-23T06:07	10	14	0.2	14	15	385	0.3	385	386	13.8	91.4
2025-08-23T06:08	10	14	0.1	14	14	385	0.3	384	385	13.9	91.3
2025-08-23T06:09	10	14	0.1	14	14	384	0.3	384	385	13.9	90.9
2025-08-23T06:10	10	14	0.1	14	14	384	0.2	384	385	13.9	91.0
2025-08-23T06:11	10	14	0.1	14	14	384	0.4	383	385	13.9	91.2
2025-08-23T06:12	10	14	0.1	14	14	383	0.2	383	384	13.9	91.9
2025-08-23T06:13	10	14	0.1	14	14	383	0.3	382	383	13.8	92.3
2025-08-23T06:14	10	14	0.1	14	14	383	0.2	382	383	13.8	92.6
2025-08-23T06:15	10	17	1.6	14	19	383	0.2	382	383	13.8	92.5
2025-08-23T06:16	10	24	5.0	18	31	383	0.6	383	385	13.8	91.5
2025-08-23T06:17	10	25	2.9	21	31	384	0.3	384	385	13.8	91.0
2025-08-23T06:18	10	17	1.3	16	22	384	0.4	383	385	13.9	90.6
2025-08-23T06:19	10	24	7.5	16	34	384	0.8	383	386	14.0	90.7
2025-08-23T06:20	10	30	0.7	29	32	386	0.4	385	387	14.0	90.5
2025-08-23T06:21	10	39	5.6	29	44	388	1.1	386	389	14.1	90.9
2025-08-23T06:22	10	45	0.4	44	45	390	0.5	388	390	14.2	90.4
2025-08-23T06:23	10	40	3.9	32	44	390	0.3	390	391	14.3	90.3
2025-08-23T06:24	10	38	1.9	33	41	390	0.2	389	390	14.5	90.0
2025-08-23T06:25	10	45	2.1	41	47	391	0.5	390	392	14.6	89.2
2025-08-23T06:26	10	47	0.3	46	48	392	0.4	391	393	14.7	88.6
2025-08-23T06:27	10	46	0.6	44	47	393	0.2	393	394	14.8	88.3
2025-08-23T06:28	10	29	8.8	19	44	392	1.3	389	394	14.8	89.4
2025-08-23T06:29	10	19	0.6	18	20	389	0.7	388	391	14.6	90.0
2025-08-23T06:30	10	27	6.3	18	41	389	0.2	389	390	14.6	89.7
2025-08-23T06:31	10	39	1.8	37	42	391	0.4	390	392	14.6	89.6
2025-08-23T06:32	10	41	4.9	31	46	392	0.4	391	393	14.6	89.6
2025-08-23T06:33	10	35	9.6	23	49	392	0.7	391	393	14.6	89.6
2025-08-23T06:34	10	37	6.9	24	44	393	0.4	392	394	14.7	89.0
2025-08-23T06:35	10	20	2.0	19	25	391	0.9	390	393	14.8	89.1
2025-08-23T06:36	10	18	0.8	17	20	390	0.7	388	391	14.8	88.7
2025-08-23T06:37	10	17	0.2	17	18	388	0.5	388	390	14.7	88.8
2025-08-23T06:38	10	17	0.2	16	18	388	0.3	387	389	14.6	88.9
2025-08-23T06:39	10	17	0.2	16	17	388	0.2	387	388	14.6	88.8
2025-08-23T06:40	10	17	0.2	16	17	388	0.3	387	388	14.5	88.6
2025-08-23T06:41	10	17	0.2	16	17	388	0.2	387	388	14.6	87.9
2025-08-23T06:42	10	17	0.2	16	17	388	0.2	387	388	14.6	87.8
2025-08-23T06:43	10	17	0.2	16	17	388	0.2	388	389	14.6	87.4
2025-08-23T06:44	10	17	0.2	17	18	388	0.3	388	389	14.6	87.4
2025-08-23T06:45	10	18	0.3	17	18	389	0.3	388	390	14.7	87.4
2025-08-23T06:46	10	19	0.3	18	19	389	0.3	389	390	14.7	87.7
2025-08-23T06:47	10	20	0.5	19	21	389	0.2	389	390	14.7	88.5
2025-08-23T06:48	10	31	6.8	21	49	390	0.8	389	392	14.7	87.8
2025-08-23T06:49	10	59	4.3	50	65	395	1.5	391	397	14.8	87.2
2025-08-23T06:50	10	55	4.5	51	64	397	0.2	396	398	14.9	87.0
2025-08-23T06:51	10	67	2.6	59	69	399	1.0	397	401	14.9	87.2
2025-08-23T06:52	10	69	1.2	67	71	401	0.4	400	402	15.1	86.9
2025-08-23T06:53	10	71	0.1	71	71	402	0.3	401	403	15.3	86.6
2025-08-23T06:54	10	72	0.4	71	72	402	0.3	402	403	15.3	85.6
2025-08-23T06:55	10	71	0.7	69	72	403	0.2	403	404	15.5	84.4
2025-08-23T06:56	10	53	9.7	38	69	402	1.4	400	404	15.6	84.4
2025-08-23T06:57	10	40	2.1	35	44	400	0.5	399	401	15.6	84.0
2025-08-23T06:58	10	31	1.8	29	35	399	0.9	397	400	15.6	84.2
2025-08-23T06:59	10	29	0.9	28	31	398	0.3	397	398	15.6	84.6
2025-08-23T07:00	10	28	0.2	28	29	398	0.3	397	398	15.6	83.3
2025-08-23T07:01	10	28	0.1	28	28	398	0.3	397	398	15.6	82.5
2025-08-23T07:02	10	28	0.2	28	29	398	0.2	398	399	15.6	82.5
2025-08-23T07:03	10	29	0.2	29	29	398	0.2	398	399	15.6	81.7
2025-08-23T07:04	10	29	0.2	28	29	398	0.2	398	399	15.6	82.1
2025-08-23T07:05	10	28	0.3	27	28	398	0.3	398	399	15.7	82.8
2025-08-23T07:06	10	27	0.2	26	27	398	0.2	397	398	15.6	84.2
2025-08-23T07:07	10	26	0.1	26	27	398	0.2	398	398	15.6	83.1
2025-08-23T07:08	10	26	0.2	26	26	397	0.3	397	398	15.5	84.2
2025-08-23T07:09	10	25	0.1	25	26	397	0.2	396	397	15.5	84.2
2025-08-23T07:10	10	25	0.1	25	26	397	0.3	396	397	15.6	84.1
2025-08-23T07:11	10	26	0.2	25	26	397	0.3	396	397	15.6	84.9
2025-08-23T07:12	10	26	0.2	26	27	397	0.2	397	397	15.6	84.8
2025-08-23T07:13	10	27	0.2	26	27	397	0.2	396	397	15.6	84.4
2025-08-23T07:14	10	28	1.2	27	31	397	0.3	397	398	15.6	84.4
2025-08-23T07:15	10	28	0.6	28	31	398	0.3	397	398	15.7	83.2
2025-08-23T07:16	10	29	0.4	29	30	398	0.3	398	399	15.7	84.6
2025-08-23T07:17	10	31	0.4	30	32	399	0.4	398	400	15.7	84.4
2025-08-23T07:18	10	33	0.9	31	36	399	0.3	398	400	15.8	83.9
2025-08-23T07:19	10	69	13.7	36	87	404	2.8	398	408	15.8	84.6
2025-08-23T07:20	10	74	10.7	55	90	408	1.4	405	410	15.9	84.6
2025-08-23T07:21	10	65	13.6	45	87	409	1.3	407	411	15.9	83.7
2025-08-23T07:22	10	74	12.0	60	98	408	1.0	407	411	15.8	82.8
2025-08-23T07:23	10	98	2.2	93	101	413	1.3	410	415	15.9	82.9
2025-08-23T07:24	10	100	0.8	97	101	416	0.7	414	417	16.1	82.4
2025-08-23T07:25	10	75	22.0	41	99	415	2.2	410	417	16.3	81.8
2025-08-23T07:26	10	52	19.1	37	92	409	1.2	407	412	16.3	81.4
2025-08-23T07:27	10	94	1.3	91	95	414	1.3	411	416	16.4	80.7
2025-08-23T07:28	10	93	1.8	90	95	416	0.5	415	417	16.5	79.8
2025-08-23T07:29	10	93	0.5	91	94	417	0.4	417	418	16.6	78.0
2025-08-23T07:30	10	91	1.9	87	93	416	0.9	414	418	16.4	74.9
2025-08-23T07:31	10	85	4.4	76	91	415	0.4	414	415	16.4	73.5
2025-08-23T07:32	10	93	1.5	89	94	416	0.3	415	417	16.3	73.3
2025-08-23T07:33	10	93	0.4	92	94	417	0.4	416	418	16.5	73.3
2025-08-23T07:34	10	94	1.1	92	95	419	0.5	418	420	16.8	73.9
2025-08-23T07:35	10	96	0.1	95	96	419	0.5	418	420	16.5	73.8
2025-08-23T07:36	10	96	0.2	96	96	420	0.4	420	421	16.9	73.4
2025-08-23T07:37	10	96	0.1	95	96	419	0.6	418	420	17.0	70.4
2025-08-23T07:38	10	96	0.2	95	96	421	0.6	419	421	16.9	70.4
2025-08-23T07:39	10	94	2.0	90	96	421	0.4	421	423	17.0	70.6
2025-08-23T07:40	10	96	0.2	96	97	423	0.4	422	424	17.2	70.2
2025-08-23T07:41	10	96	0.3	95	97	424	0.9	422	425	17.3	70.9
2025-08-23T07:42	10	96	0.2	96	97	423	0.4	422	424	17.3	70.8
2025-08-23T07:43	10	96	0.2	96	97	424	0.7	422	425	17.4	70.8
2025-08-23T07:44	10	96	0.3	95	96	422	0.6	421	423	17.3	69.3
2025-08-23T07:45	10	95	0.5	94	95	422	0.4	421	423	17.2	68.8
2025-08-23T07:46	10	94	0.1	94	95	422	0.6	421	423	17.0	68.2
2025-08-23T07:47	10	95	0.1	94	95	423	0.4	422	424	17.0	69.2
2025-08-23T07:48	10	95	0.1	95	95	424	0.4	424	425	17.4	68.0
2025-08-23T07:49	10	95	0.3	95	96	425	0.2	424	425	17.7	66.6
2025-08-23T07:50	10	96	0.2	96	96	426	0.4	425	427	17.6	68.0
2025-08-23T07:51	10	97	0.2	96	97	428	0.6	426	429	17.9	70.2
2025-08-23T07:52	10	97	0.2	97	98	428	0.3	427	429	18.2	69.1
2025-08-23T07:53	10	98	0.1	97	98	428	0.6	427	429	18.1	68.1
2025-08-23T07:54	10	99	0.7	98	100	425	0.8	424	427	17.7	65.6
2025-08-23T07:55	10	100	0.2	100	100	427	0.7	426	429	17.7	65.1
2025-08-23T07:56	10	98	3.0	92	101	429	0.5	428	430	17.7	67.1
2025-08-23T07:57	10	75	12.7	61	96	425	2.6	421	429	17.8	68.6
2025-08-23T07:58	10	60	8.3	45	73	420	2.2	417	423	17.7	67.6
2025-08-23T07:59	10	39	2.6	35	44	415	1.7	412	418	17.3	67.3
2025-08-23T08:00	10	47	7.9	35	62	413	0.8	412	415	17.2	68.1
2025-08-23T08:01	10	69	8.0	54	83	418	1.4	415	420	17.2	68.4
2025-08-23T08:02	10	46	15.1	32	76	415	2.1	413	420	17.2	69.2
2025-08-23T08:03	10	52	5.9	44	67	415	0.5	414	416	17.1	69.4
2025-08-23T08:04	10	58	10.2	42	74	415	1.2	413	417	17.0	70.7
2025-08-23T08:05	10	70	19.1	44	102	416	2.2	413	421	17.1	70.2
2025-08-23T08:06	10	88	14.0	64	104	420	1.3	418	423	17.1	70.1
2025-08-23T08:07	10	105	1.8	99	106	425	1.7	422	428	17.1	70.0
2025-08-23T08:08	10	105	0.1	104	105	429	1.1	427	430	17.3	70.4
2025-08-23T08:09	10	104	0.4	103	105	429	0.4	429	430	17.6	69.1
2025-08-23T08:10	10	104	0.3	103	104	431	1.0	429	433	17.6	68.9
2025-08-23T08:11	10	102	1.5	99	104	433	0.5	432	434	17.8	68.8
2025-08-23T08:12	10	105	0.3	104	105	430	0.8	429	432	17.4	67.6
2025-08-23T08:13	10	106	0.2	105	106	431	0.4	430	432	17.6	68.1
2025-08-23T08:14	10	105	0.2	105	106	432	0.8	430	433	17.7	67.7
2025-08-23T08:15	10	105	0.3	105	106	432	0.5	431	433	17.8	65.0
2025-08-23T08:16	10	105	0.3	104	105	434	0.5	433	435	17.8	64.9
2025-08-23T08:17	10	102	1.0	100	104	434	0.4	433	435	17.8	65.8
2025-08-23T08:18	10	104	1.0	101	105	433	0.7	432	434	17.8	66.3
2025-08-23T08:19	10	105	0.1	105	105	433	0.8	432	435	17.8	66.6
2025-08-23T08:20	10	105	0.3	105	106	434	0.5	433	435	17.9	66.0
2025-08-23T08:21	10	107	0.5	106	107	436	0.8	434	437	17.9	64.9
2025-08-23T08:22	10	107	0.3	107	108	436	0.7	435	437	17.9	66.0
2025-08-23T08:23	10	107	0.5	105	107	435	1.5	433	437	17.8	65.3
2025-08-23T08:24	10	108	0.9	106	109	434	0.9	432	435	17.6	65.5
2025-08-23T08:25	10	109	0.3	109	110	432	0.5	432	433	17.6	65.5
2025-08-23T08:26	10	108	0.4	108	109	434	0.7	432	435	17.5	65.8
2025-08-23T08:27	10	110	0.4	109	111	432	0.4	431	433	17.3	66.0
2025-08-23T08:28	10	111	0.6	109	112	435	1.0	433	437	17.5	66.5
2025-08-23T08:29	10	113	1.8	108	114	438	1.0	436	440	17.5	65.7
2025-08-23T08:30	10	112	1.4	109	115	440	0.5	438	440	17.7	66.3
2025-08-23T08:31	10	112	2.6	109	116	442	0.5	440	442	18.0	65.5
2025-08-23T08:32	10	113	2.0	109	116	441	0.5	440	442	18.0	64.9
2025-08-23T08:33	10	115	1.0	113	117	442	0.5	441	443	17.9	65.4
2025-08-23T08:34	10	56	25.6	36	113	433	6.7	424	444	18.0	65.3
2025-08-23T08:35	10	35	0.5	34	36	424	1.8	421	427	18.1	65.9
2025-08-23T08:36	10	34	0.2	34	35	421	0.7	419	422	18.0	64.7
2025-08-23T08:37	10	33	0.7	32	34	418	1.2	416	421	18.0	65.0
2025-08-23T08:38	10	31	0.5	30	32	416	0.8	414	418	17.7	64.7
2025-08-23T08:39	10	32	0.5	30	32	414	0.6	413	415	17.5	65.2
2025-08-23T08:40	10	30	0.5	30	32	413	0.3	413	414	17.4	65.3
2025-08-23T08:41	10	30	0.1	30	30	412	0.4	411	413	17.4	65.2
2025-08-23T08:42	10	31	0.3	30	31	413	0.7	411	414	17.4	65.2
2025-08-23T08:43	10	34	1.5	31	36	414	0.8	412	415	17.4	64.8
2025-08-23T08:44	10	37	1.1	35	40	415	0.3	414	415	17.5	66.2
2025-08-23T08:45	10	34	0.7	33	35	414	0.5	413	415	17.5	65.2
2025-08-23T08:46	10	32	0.4	32	33	412	0.7	411	414	17.4	65.8
2025-08-23T08:47	10	32	0.2	32	33	411	0.3	410	411	17.3	65.0
2025-08-23T08:48	10	34	1.8	32	41	411	0.6	411	413	17.3	65.3
2025-08-23T08:49	10	67	26.3	41	108	420	3.9	412	425	17.4	65.1
2025-08-23T08:50	10	61	12.4	42	89	419	1.5	417	422	17.4	64.8
2025-08-23T08:51	10	116	18.3	67	133	430	6.8	418	440	17.4	64.8
2025-08-23T08:52	10	84	12.9	73	121	435	2.5	431	439	17.4	64.8
2025-08-23T08:53	10	60	11.6	49	84	429	3.1	425	434	17.4	62.6
2025-08-23T08:54	10	50	0.7	49	52	424	1.3	422	426	17.4	64.8
2025-08-23T08:55	10	62	13.9	52	96	424	1.7	422	427	17.4	64.8
2025-08-23T08:56	10	53	0.5	53	54	422	0.8	421	424	17.4	64.8
2025-08-23T08:57	10	54	0.1	53	54	421	0.4	420	422	17.4	64.8
2025-08-23T08:58	10	54	0.5	54	55	420	0.6	419	421	17.4	64.9
2025-08-23T08:59	10	57	0.8	55	58	419	0.5	419	420	17.5	64.4
2025-08-23T09:00	10	60	1.2	58	63	422	1.2	420	424	17.5	65.3
2025-08-23T09:01	10	108	35.0	62	153	431	7.5	422	441	17.6	65.1
2025-08-23T09:02	10	77	18.5	63	114	434	3.0	430	439	17.8	64.9
2025-08-23T09:03	10	63	0.3	63	64	429	1.0	427	431	18.0	64.7
2025-08-23T09:04	10	63	0.1	62	63	426	0.7	425	428	17.8	63.4
2025-08-23T09:05	10	62	0.5	61	62	426	0.3	425	427	17.6	63.3
2025-08-23T09:06	10	60	0.2	60	61	426	0.8	425	427	17.6	63.9
2025-08-23T09:07	10	60	0.1	60	60	427	0.4	427	428	17.8	64.1
2025-08-23T09:08	10	60	0.1	60	61	428	0.4	428	429	17.9	64.1
2025-08-23T09:09	10	61	0.6	61	63	427	0.5	426	428	18.0	63.4
2025-08-23T09:10	10	63	0.1	62	63	426	0.4	425	427	18.0	62.8
2025-08-23T09:11	10	64	1.7	63	69	426	0.5	425	427	17.8	61.7
2025-08-23T09:12	10	65	1.0	64	68	428	0.5	427	429	17.8	62.3
2025-08-23T09:13	10	66	1.3	64	69	428	0.3	428	429	18.0	62.8
2025-08-23T09:14	10	71	1.8	69	75	429	1.0	427	431	18.0	62.2
2025-08-23T09:15	10	87	13.8	70	107	432	2.3	428	435	17.8	61.9
2025-08-23T09:16	10	71	2.3	69	78	430	0.8	429	432	17.7	61.3
2025-08-23T09:17	10	96	22.2	75	144	435	4.0	430	445	17.9	61.8
2025-08-23T09:18	10	101	27.1	70	147	443	3.9	435	447	18.1	62.1
2025-08-23T09:19	10	69	0.3	69	70	433	1.5	431	436	17.9	61.7
2025-08-23T09:20	10	69	0.6	67	69	432	0.4	431	433	17.9	62.1
2025-08-23T09:21	10	67	0.2	66	67	431	0.7	429	432	17.8	62.2
2025-08-23T09:22	10	67	0.1	67	68	430	0.5	428	430	17.8	62.2
2025-08-23T09:23	10	67	0.3	67	68	430	0.6	429	431	17.9	63.1
2025-08-23T09:24	10	70	1.8	68	75	431	1.0	430	433	18.0	62.8
2025-08-23T09:25	10	73	2.4	69	77	434	0.8	432	435	18.1	62.7
2025-08-23T09:26	10	75	3.0	69	80	433	0.5	432	434	18.1	61.4
2025-08-23T09:27	10	104	24.4	71	140	437	5.3	431	445	18.1	60.4
2025-08-23T09:28	10	95	24.3	65	134	442	4.6	434	447	18.2	60.7
2025-08-23T09:29	10	99	24.7	67	140	439	2.7	434	443	18.1	60.5
2025-08-23T09:30	10	132	20.4	91	155	446	5.2	437	453	18.3	60.4
2025-08-23T09:31	10	130	15.9	100	149	453	2.2	446	455	18.3	60.2
2025-08-23T09:32	10	69	11.7	61	101	437	5.0	432	448	18.1	59.1
2025-08-23T09:33	10	57	1.6	56	63	431	1.2	430	434	18.1	58.5
2025-08-23T09:34	10	72	17.5	56	117	432	2.1	430	439	18.0	59.0
2025-08-23T09:35	10	73	20.5	57	121	437	3.3	430	441	18.2	60.0
2025-08-23T09:36	10	58	1.1	57	61	429	1.0	427	432	18.2	59.7
2025-08-23T09:37	10	55	1.1	53	57	426	0.8	425	428	18.0	59.8
2025-08-23T09:38	10	58	6.3	53	73	426	1.0	424	427	18.0	60.1
2025-08-23T09:39	10	53	0.5	53	54	425	0.8	423	426	17.9	60.2
2025-08-23T09:40	10	95	25.9	54	132	430	6.1	422	442	17.9	59.8
2025-08-23T09:41	10	65	19.6	54	130	435	4.1	429	442	18.0	60.0
2025-08-23T09:42	10	49	2.1	48	55	426	1.6	424	430	18.0	58.6
2025-08-23T09:43	10	48	0.4	48	49	425	0.3	424	425	17.9	58.0
2025-08-23T09:44	10	55	7.5	49	73	427	0.9	424	428	17.9	58.4
2025-08-23T09:45	10	47	1.3	46	52	426	0.8	424	427	18.2	59.7
2025-08-23T09:46	10	50	2.5	46	54	424	0.3	423	424	18.1	60.1
2025-08-23T09:47	10	65	6.5	55	78	426	1.7	423	428	18.1	60.0
2025-08-23T09:48	10	103	35.3	58	148	432	6.5	425	442	18.3	60.1
2025-08-23T09:49	10	148	8.6	126	153	449	5.1	440	456	18.5	60.1
2025-08-23T09:50	10	124	15.7	105	152	453	2.4	449	456	19.1	60.4
2025-08-23T09:51	10	141	5.8	130	149	453	2.0	450	457	19.3	59.0
2025-08-23T09:52	10	147	4.8	133	150	459	1.9	456	462	19.3	57.8
2025-08-23T09:53	10	150	1.0	147	150	460	0.3	460	461	19.3	56.5
2025-08-23T09:54	10	147	0.7	146	148	461	1.1	458	462	18.9	56.1
2025-08-23T09:55	10	145	0.9	144	147	459	0.3	459	460	18.7	56.4
2025-08-23T09:56	10	145	0.3	144	145	460	0.5	458	460	18.5	55.8
2025-08-23T09:57	10	141	7.0	125	146	463	1.3	460	465	18.5	56.8
2025-08-23T09:58	10	95	24.2	59	125	455	5.8	445	462	18.7	57.0
2025-08-23T09:59	10	117	12.1	78	131	453	3.0	446	456	18.8	55.9
2025-08-23T10:00	10	130	3.8	121	135	456	1.2	454	458	18.5	56.1
2025-08-23T10:01	10	122	3.4	116	129	458	0.9	457	460	18.8	56.9
2025-08-23T10:02	10	130	1.5	126	132	461	2.0	457	464	19.2	56.7
2025-08-23T10:03	10	126	5.0	113	131	461	1.3	459	463	19.0	56.6
2025-08-23T10:04	10	115	10.3	101	128	458	0.9	457	461	19.2	57.5
2025-08-23T10:05	10	127	2.5	121	130	461	0.9	460	463	19.4	55.9
2025-08-23T10:06	10	131	1.4	128	132	464	0.7	462	465	19.4	53.7
2025-08-23T10:07	10	131	0.6	130	132	465	1.1	461	466	19.3	53.3
2025-08-23T10:08	10	130	0.9	128	132	461	0.8	460	462	18.9	53.7
2025-08-23T10:09	10	123	2.7	119	128	462	0.5	461	463	18.8	54.9
2025-08-23T10:10	10	124	2.6	119	127	458	1.8	456	463	19.1	54.5
2025-08-23T10:11	10	127	3.1	122	131	459	1.9	457	463	18.7	54.2
2025-08-23T10:12	10	134	1.0	131	135	462	0.5	461	463	18.8	54.0
2025-08-23T10:13	10	133	1.3	131	135	464	0.3	463	464	18.9	54.9
2025-08-23T10:14	10	130	1.2	128	134	465	1.1	462	467	19.1	54.9
2025-08-23T10:15	10	132	1.1	130	134	460	1.3	458	463	18.8	55.0
2025-08-23T10:16	10	130	4.2	119	134	462	1.8	459	465	18.9	55.6
2025-08-23T10:17	10	133	1.2	131	135	466	0.9	464	467	19.1	55.4
2025-08-23T10:18	10	135	1.4	132	136	463	0.8	462	465	19.0	54.1
2025-08-23T10:19	10	133	1.8	129	135	464	1.6	461	466	19.0	54.7
2025-08-23T10:20	10	130	1.7	127	134	462	0.3	461	463	18.9	54.7
2025-08-23T10:21	10	128	4.3	121	134	462	0.5	461	464	19.1	55.0
2025-08-23T10:22	10	135	1.0	133	137	464	0.9	462	465	19.0	54.6
2025-08-23T10:23	10	128	2.3	125	134	462	1.1	461	465	19.1	55.0
2025-08-23T10:24	10	123	2.0	120	128	464	0.6	463	465	19.3	55.7
2025-08-23T10:25	10	127	3.4	122	133	467	1.2	464	468	19.3	55.0
2025-08-23T10:26	10	130	2.8	125	135	468	0.9	466	470	19.4	54.9
2025-08-23T10:27	10	136	1.9	132	139	467	1.0	465	469	19.2	54.9
2025-08-23T10:28	10	136	1.3	134	138	465	0.6	464	466	19.0	54.8
2025-08-23T10:29	10	140	1.7	135	142	465	1.0	464	468	19.4	55.3
2025-08-23T10:30	10	142	0.4	141	143	469	1.1	468	471	19.2	54.0
2025-08-23T10:31	10	141	0.8	140	143	472	1.3	471	475	19.4	55.0
2025-08-23T10:32	10	140	0.8	139	143	469	1.2	468	473	19.4	54.0
2025-08-23T10:33	10	145	0.7	143	146	470	0.7	469	472	19.5	54.3
2025-08-23T10:34	10	148	0.8	146	149	470	1.1	468	472	19.5	54.4
2025-08-23T10:35	10	150	0.4	149	151	469	0.9	468	471	19.4	54.5
2025-08-23T10:36	10	150	0.5	149	151	471	0.7	470	473	19.6	54.4
2025-08-23T10:37	10	152	0.6	150	152	475	1.1	472	477	19.6	53.9
2025-08-23T10:38	10	151	1.3	149	153	477	0.6	476	479	19.4	53.9
2025-08-23T10:39	10	136	11.3	119	153	474	5.0	467	479	19.6	54.2
2025-08-23T10:40	10	133	18.6	101	156	470	2.0	465	472	19.2	53.7
2025-08-23T10:41	10	82	21.0	52	120	459	5.1	453	467	19.0	54.0
2025-08-23T10:42	10	131	32.8	62	155	463	7.7	451	472	19.1	53.2
2025-08-23T10:43	10	151	0.8	149	152	474	1.6	470	476	19.5	51.8
2025-08-23T10:44	10	146	4.2	137	150	476	0.5	475	477	19.9	50.7
2025-08-23T10:45	10	150	0.3	150	151	478	1.0	476	480	19.9	52.0
2025-08-23T10:46	10	150	1.7	146	152	479	0.3	479	480	20.1	51.8
2025-08-23T10:47	10	151	0.3	150	152	479	0.7	476	480	19.7	52.8
2025-08-23T10:48	10	147	5.7	129	152	473	2.3	469	477	19.3	53.7
2025-08-23T10:49	10	142	7.6	125	151	472	2.3	469	475	19.3	54.3
2025-08-23T10:50	10	145	5.2	134	152	475	2.2	470	479	19.9	54.4
2025-08-23T10:51	10	153	1.4	151	156	477	0.8	476	479	20.2	53.5
2025-08-23T10:52	10	155	2.1	151	157	475	1.2	473	478	19.9	53.2
2025-08-23T10:53	10	155	0.6	154	156	478	0.8	476	479	20.0	53.4
2025-08-23T10:54	10	158	0.9	156	159	478	0.5	477	479	19.4	53.2
2025-08-23T10:55	10	159	0.7	157	159	480	1.6	478	483	19.5	53.3
2025-08-23T10:56	10	158	0.4	157	158	481	1.1	480	483	19.4	53.0
2025-08-23T10:57	10	157	0.5	156	158	481	0.6	480	482	19.4	53.3
2025-08-23T10:58	10	156	0.5	155	157	481	0.7	480	483	19.4	52.9
2025-08-23T10:59	10	157	1.6	154	160	484	1.3	482	487	19.8	53.3
2025-08-23T11:00	10	159	3.4	153	164	485	1.4	483	488	20.2	52.3
2025-08-23T11:01	10	158	1.3	154	160	483	0.7	482	484	19.9	51.8
2025-08-23T11:02	10	156	1.4	154	158	484	0.5	483	486	20.1	52.3
2025-08-23T11:03	10	81	48.8	36	160	470	12.0	451	485	19.9	51.7
2025-08-23T11:04	10	36	0.6	36	38	447	3.3	443	454	19.7	51.6
2025-08-23T11:05	10	43	2.2	38	46	443	0.8	441	444	19.6	51.6
2025-08-23T11:06	10	54	6.5	46	67	443	1.3	441	445	19.5	51.5
2025-08-23T11:07	10	55	5.3	51	66	445	1.1	443	447	19.5	51.3
2025-08-23T11:08	10	124	28.4	54	164	458	9.6	442	473	19.6	51.6
2025-08-23T11:09	10	163	0.6	162	164	477	2.7	470	480	19.8	51.3
2025-08-23T11:10	10	161	1.1	159	162	481	1.7	478	484	19.8	50.9
2025-08-23T11:11	10	157	1.1	155	159	484	1.1	482	486	20.0	50.6
2025-08-23T11:12	10	154	1.9	151	157	482	2.7	478	486	19.9	53.0
2025-08-23T11:13	10	147	5.3	136	153	475	3.1	470	479	19.5	54.0
2025-08-23T11:14	10	145	2.9	141	149	469	0.9	468	471	19.6	53.9
2025-08-23T11:15	10	147	0.9	146	149	474	1.8	470	477	19.9	53.4
2025-08-23T11:16	10	147	3.2	142	152	473	1.6	471	476	19.8	52.8
2025-08-23T11:17	10	151	1.1	150	154	471	0.7	470	473	19.8	52.7
2025-08-23T11:18	10	153	0.6	152	154	477	2.9	471	481	19.8	53.0
2025-08-23T11:19	10	154	2.0	152	157	479	1.3	478	482	19.6	52.8
2025-08-23T11:20	10	156	1.3	152	158	479	1.3	477	481	19.6	52.8
2025-08-23T11:21	10	157	1.0	154	158	479	1.1	478	481	19.6	52.3
2025-08-23T11:22	10	157	1.5	154	159	483	1.6	480	485	19.8	51.9
2025-08-23T11:23	10	162	0.8	159	163	486	1.0	485	488	19.8	51.6
2025-08-23T11:24	10	161	1.1	159	163	487	1.0	484	488	20.2	51.2
2025-08-23T11:25	10	158	1.4	155	160	483	0.6	482	485	19.9	49.8
2025-08-23T11:26	10	157	1.3	155	158	485	1.1	484	488	19.7	49.9
2025-08-23T11:27	10	159	0.7	158	160	486	1.1	485	488	19.7	49.5
2025-08-23T11:28	10	155	0.2	155	155	486	1.0	484	487	20.1	50.3
2025-08-23T11:29	10	158	0.2	157	158	486	0.6	484	487	20.2	49.2
2025-08-23T11:30	10	159	0.5	157	159	488	1.1	487	490	20.3	49.7
2025-08-23T11:31	10	149	11.7	120	159	488	1.4	484	490	20.3	49.9
2025-08-23T11:32	10	76	45.8	34	143	471	12.7	452	487	20.3	48.3
2025-08-23T11:33	10	66	17.3	39	88	456	2.1	453	459	19.9	49.3
2025-08-23T11:34	10	62	20.4	35	94	453	4.6	446	459	19.7	50.3
2025-08-23T11:35	10	146	25.5	52	158	468	11.2	445	480	20.0	50.9
2025-08-23T11:36	10	155	0.3	155	156	479	1.7	477	482	20.1	49.7
2025-08-23T11:37	10	153	2.4	148	155	483	0.8	482	484	20.3	50.0
2025-08-23T11:38	10	154	1.8	148	155	484	0.6	483	485	20.1	49.7
2025-08-23T11:39	10	156	0.8	155	157	486	1.1	485	488	20.2	49.6
2025-08-23T11:40	10	158	0.3	157	158	486	0.8	485	488	20.1	49.2
2025-08-23T11:41	10	161	0.6	160	162	489	1.0	486	490	20.2	50.1
2025-08-23T11:42	10	159	0.6	157	160	486	0.8	485	488	20.1	49.7
2025-08-23T11:43	10	158	1.7	154	160	488	1.0	486	490	20.2	49.5
2025-08-23T11:44	10	161	0.4	160	161	491	1.3	489	493	20.5	49.7
2025-08-23T11:45	10	160	0.3	159	161	494	1.0	492	495	20.7	48.6
2025-08-23T11:46	10	161	0.6	159	162	494	0.9	492	495	20.8	48.6
2025-08-23T11:47	10	159	0.6	158	161	490	0.6	489	492	20.5	48.2
2025-08-23T11:48	10	157	1.1	155	159	490	1.2	488	492	21.2	49.6
2025-08-23T11:49	10	154	0.7	153	156	487	4.0	481	493	21.2	48.2
2025-08-23T11:50	10	155	0.5	153	156	485	1.7	482	487	20.4	47.7
2025-08-23T11:51	10	155	1.5	152	157	486	1.6	483	488	20.8	48.0
2025-08-23T11:52	10	155	0.9	154	157	481	2.0	479	484	20.2	47.9
2025-08-23T11:53	10	156	1.4	150	157	483	1.9	481	486	20.7	48.4
2025-08-23T11:54	10	100	24.4	74	148	473	9.2	462	487	20.5	46.8
2025-08-23T11:55	10	104	13.7	86	127	467	2.1	464	471	20.1	47.6
2025-08-23T11:56	10	102	19.0	80	146	464	2.0	462	471	20.2	48.3
2025-08-23T11:57	10	154	3.7	144	157	479	4.1	470	484	20.4	48.3
2025-08-23T11:58	10	94	47.4	42	157	473	10.8	453	484	20.5	48.1
2025-08-23T11:59	10	43	0.3	43	44	447	4.2	443	456	20.3	46.8
2025-08-23T12:00	10	45	1.8	43	51	442	1.4	440	445	20.0	47.0
2025-08-23T12:01	10	65	19.1	44	99	447	2.8	441	451	19.9	47.4
2025-08-23T12:02	10	42	1.2	40	44	443	1.3	441	445	19.9	47.5
2025-08-23T12:03	10	39	0.4	39	40	440	0.3	439	441	20.2	48.6
2025-08-23T12:04	10	40	0.6	39	41	437	0.4	437	438	20.1	47.9
2025-08-23T12:05	10	48	9.2	41	76	439	1.8	437	444	20.1	48.0
2025-08-23T12:06	10	133	26.7	77	155	458	10.3	441	473	20.1	47.6
2025-08-23T12:07	10	153	1.2	150	154	474	2.5	469	478	20.3	48.0
2025-08-23T12:08	10	147	2.1	144	150	478	0.8	476	480	20.6	47.4
2025-08-23T12:09	10	147	1.3	144	149	479	0.3	479	480	20.9	46.9
2025-08-23T12:10	10	145	2.3	141	149	478	0.4	477	479	20.5	44.8
2025-08-23T12:11	10	141	0.5	140	142	478	1.1	477	480	20.4	45.9
2025-08-23T12:12	10	137	2.1	133	140	477	0.5	476	478	20.2	45.3
2025-08-23T12:13	10	133	1.8	130	135	477	0.4	477	478	20.5	44.8
2025-08-23T12:14	10	137	1.6	135	140	479	0.6	477	480	20.8	43.9
2025-08-23T12:15	10	142	0.7	140	143	481	0.4	480	481	20.9	43.6
2025-08-23T12:16	10	135	2.6	129	140	479	0.6	478	480	20.9	44.0
2025-08-23T12:17	10	134	1.3	132	136	480	0.7	479	481	21.0	44.9
2025-08-23T12:18	10	138	1.8	134	141	481	1.0	480	483	21.1	44.0
2025-08-23T12:19	10	143	1.1	140	144	482	0.8	480	484	21.0	44.7
2025-08-23T12:20	10	141	1.9	138	143	481	1.0	478	482	21.1	45.3
2025-08-23T12:21	10	137	1.4	134	139	479	0.4	478	480	20.6	44.8
2025-08-23T12:22	10	133	0.5	132	134	478	0.9	477	480	20.7	45.6
2025-08-23T12:23	10	136	1.7	133	138	480	0.9	478	481	20.8	45.8
2025-08-23T12:24	10	131	5.1	118	139	481	0.9	479	482	20.9	46.1
2025-08-23T12:25	10	133	6.4	118	138	481	1.8	478	484	21.3	46.2
2025-08-23T12:26	10	141	1.9	137	143	483	1.1	481	485	21.1	44.9
2025-08-23T12:27	10	146	1.6	143	148	481	0.5	480	482	20.9	45.2
2025-08-23T12:28	10	146	2.3	142	149	481	1.5	479	483	21.1	45.1
2025-08-23T12:29	10	137	4.4	131	148	481	0.6	479	482	20.6	44.6
2025-08-23T12:30	10	128	6.4	116	138	480	1.2	478	481	21.0	46.0
2025-08-23T12:31	10	140	2.8	131	143	480	1.7	478	483	21.5	46.2
2025-08-23T12:32	10	147	1.9	140	149	484	1.5	481	487	21.5	45.3
2025-08-23T12:33	10	147	5.9	125	151	482	0.8	481	483	21.2	44.1
2025-08-23T12:34	10	138	9.6	119	149	483	1.0	481	484	21.1	43.5
2025-08-23T12:35	10	128	4.7	117	136	482	1.5	478	483	21.0	43.8
2025-08-23T12:36	10	109	4.2	101	116	475	1.4	473	479	21.2	44.1
2025-08-23T12:37	10	121	8.6	103	130	476	1.3	473	478	21.6	43.1
2025-08-23T12:38	10	96	12.6	86	126	472	4.9	465	479	21.5	42.2
2025-08-23T12:39	10	103	5.5	89	110	468	1.4	466	471	21.4	42.5
2025-08-23T12:40	10	121	5.0	111	127	471	3.0	467	475	21.2	41.6
2025-08-23T12:41	10	124	0.9	122	126	474	0.9	472	475	21.0	41.1
2025-08-23T12:42	10	121	1.0	119	122	471	0.9	469	473	20.7	41.9
2025-08-23T12:43	10	121	0.7	120	122	474	1.1	472	476	20.9	42.5
2025-08-23T12:44	10	117	1.9	114	121	470	2.1	467	474	20.9	43.1
2025-08-23T12:45	10	113	1.0	110	114	464	1.3	462	468	20.4	43.5
2025-08-23T12:46	10	106	1.7	104	110	464	0.5	463	465	20.6	43.8
2025-08-23T12:47	10	97	5.3	89	104	462	2.0	459	465	20.9	43.7
2025-08-23T12:48	10	99	1.2	96	100	460	0.7	459	461	20.6	43.7
2025-08-23T12:49	10	99	1.3	96	101	462	1.0	460	464	20.6	43.5
2025-08-23T12:50	10	78	6.7	73	95	459	2.4	457	463	20.5	43.6
2025-08-23T12:51	10	72	0.2	72	73	456	0.3	455	457	20.5	44.4
2025-08-23T12:52	10	80	7.9	72	94	456	0.9	454	458	20.7	44.4
2025-08-23T12:53	10	93	1.6	91	95	457	0.8	456	459	20.8	44.7
2025-08-23T12:54	10	93	0.9	91	94	458	0.9	456	460	20.9	44.4
2025-08-23T12:55	10	94	1.0	92	96	458	1.5	456	460	20.8	44.1
2025-08-23T12:56	10	94	0.5	93	94	458	0.9	456	460	21.0	42.8
2025-08-23T12:57	10	93	0.6	92	95	460	0.9	458	461	20.6	43.1
2025-08-23T12:58	10	91	1.0	90	93	458	0.6	458	460	20.6	42.7
2025-08-23T12:59	10	93	1.3	90	95	457	0.9	455	459	20.6	42.1
2025-08-23T13:00	10	92	0.6	90	93	458	0.4	457	458	20.7	42.2
2025-08-23T13:01	10	86	2.6	83	90	456	0.6	455	458	20.6	41.9
2025-08-23T13:02	10	80	1.9	77	83	457	0.5	456	458	20.8	42.9
2025-08-23T13:03	10	76	0.4	75	77	454	1.2	453	457	20.9	42.2
2025-08-23T13:04	10	77	1.2	76	80	453	0.5	452	454	20.8	41.8
2025-08-23T13:05	10	80	0.8	79	81	454	0.2	453	454	20.7	42.0
2025-08-23T13:06	10	81	1.1	79	82	453	0.4	452	453	20.8	41.8
2025-08-23T13:07	10	81	0.3	81	82	453	1.4	450	455	20.8	42.1
2025-08-23T13:08	10	80	0.8	79	81	450	0.6	449	451	20.6	41.4
2025-08-23T13:09	10	79	0.4	78	80	453	0.7	451	454	20.6	42.0
2025-08-23T13:10	10	79	0.5	78	80	453	0.6	452	454	20.8	41.9
2025-08-23T13:11	10	77	0.5	76	78	454	0.3	453	455	21.0	42.2
2025-08-23T13:12	10	76	0.2	75	76	451	0.7	450	453	21.2	42.4
2025-08-23T13:13	10	77	0.2	76	77	450	0.6	449	451	20.8	41.4
2025-08-23T13:14	10	77	0.6	76	78	451	0.5	450	453	20.8	42.7
2025-08-23T13:15	10	75	1.0	73	77	452	0.6	450	453	21.1	43.2
2025-08-23T13:16	10	69	2.3	66	73	449	1.0	447	451	20.8	41.7
2025-08-23T13:17	10	65	0.9	63	67	448	0.3	447	448	20.6	41.8
2025-08-23T13:18	10	71	3.6	65	77	447	0.8	446	449	20.6	41.7
2025-08-23T13:19	10	81	2.7	77	86	451	1.3	449	453	20.6	42.0
2025-08-23T13:20	10	93	4.7	84	99	455	2.0	451	458	20.9	42.7
2025-08-23T13:21	10	104	3.3	98	109	458	0.7	456	459	21.0	41.5
2025-08-23T13:22	10	118	5.4	109	130	460	1.2	458	463	20.7	41.3
2025-08-23T13:23	10	138	2.6	130	141	467	2.6	462	471	20.6	41.3
2025-08-23T13:24	10	141	0.4	140	141	474	2.6	470	478	20.6	41.1
2025-08-23T13:25	10	140	0.7	139	141	478	0.9	476	480	20.8	40.8
2025-08-23T13:26	10	139	0.2	138	139	478	0.8	477	480	20.8	41.1
2025-08-23T13:27	10	138	0.4	137	139	476	2.0	474	480	21.3	41.6
2025-08-23T13:28	10	136	1.1	133	138	471	1.8	468	474	20.9	41.0
2025-08-23T13:29	10	134	1.0	132	136	470	1.1	468	472	20.9	41.5
2025-08-23T13:30	10	133	0.3	132	134	471	1.6	468	473	21.2	41.1
2025-08-23T13:31	10	133	0.4	132	134	470	0.6	469	472	20.7	40.8
2025-08-23T13:32	10	53	39.9	21	134	458	10.5	443	473	20.8	41.4
2025-08-23T13:33	10	82	35.4	23	128	453	7.5	443	464	20.8	41.4
2025-08-23T13:34	10	135	1.6	129	137	471	4.1	462	477	20.8	41.2
2025-08-23T13:35	10	135	0.4	134	136	477	1.3	475	479	21.0	41.3
2025-08-23T13:36	10	134	0.7	133	136	479	0.6	477	480	21.1	40.8
2025-08-23T13:37	10	132	0.5	131	133	477	0.5	476	477	21.0	41.0
2025-08-23T13:38	10	131	0.3	131	132	477	1.3	475	479	21.2	41.5
2025-08-23T13:39	10	132	0.8	130	132	475	0.3	475	476	21.1	41.4
2025-08-23T13:40	10	133	0.1	132	133	477	1.8	474	479	21.3	41.7
2025-08-23T13:41	10	133	0.2	132	133	480	1.0	478	482	21.5	41.6
2025-08-23T13:42	10	133	0.2	132	133	472	2.2	469	478	21.5	41.5
2025-08-23T13:43	10	133	0.2	132	133	473	0.9	471	474	21.1	41.8
2025-08-23T13:44	10	132	0.4	131	133	476	1.0	474	477	21.1	42.2
2025-08-23T13:45	10	131	0.1	131	131	477	0.4	476	478	21.0	41.5
2025-08-23T13:46	10	132	0.4	131	133	475	2.6	471	478	20.9	42.4
2025-08-23T13:47	10	134	0.7	133	135	474	1.0	473	476	20.8	42.5
2025-08-23T13:48	10	135	0.4	135	136	479	1.2	476	480	21.1	42.5
2025-08-23T13:49	10	137	0.5	136	138	481	0.8	479	482	21.1	41.7
2025-08-23T13:50	10	139	0.7	137	140	483	1.0	481	485	21.4	41.1
2025-08-23T13:51	10	140	0.5	139	141	486	1.0	483	487	21.9	42.6
2025-08-23T13:52	10	142	1.7	137	144	482	1.3	480	484	21.4	41.3
2025-08-23T13:53	10	142	2.5	137	145	485	0.9	483	486	21.3	41.7
2025-08-23T13:54	10	125	4.4	119	137	482	1.5	479	486	21.5	41.9
2025-08-23T13:55	10	132	5.3	119	139	479	0.8	477	480	21.4	41.2
2025-08-23T13:56	10	127	4.0	120	134	475	1.9	472	480	21.1	41.2
2025-08-23T13:57	10	141	3.1	131	145	477	1.1	474	479	20.9	40.9
2025-08-23T13:58	10	146	0.4	145	146	482	1.6	478	485	20.9	41.1
2025-08-23T13:59	10	147	0.4	146	148	486	1.1	484	488	21.1	41.5
2025-08-23T14:00	10	147	0.1	147	147	484	1.5	481	486	21.2	42.4
2025-08-23T14:01	10	147	0.1	147	147	481	1.1	479	482	21.4	43.5
2025-08-23T14:02	10	145	1.4	142	147	480	1.0	479	482	21.4	44.0
2025-08-23T14:03	10	143	0.9	142	145	481	0.9	479	482	21.2	44.6
2025-08-23T14:04	10	141	3.1	136	144	485	1.8	482	487	21.6	44.5
2025-08-23T14:05	10	141	1.9	138	144	487	0.5	486	488	22.0	43.8
2025-08-23T14:06	10	144	0.6	143	145	482	2.4	478	487	21.3	42.5
2025-08-23T14:07	10	143	1.0	141	145	479	0.6	478	481	21.1	43.0
2025-08-23T14:08	10	139	2.5	136	142	483	1.1	481	485	21.2	43.0
2025-08-23T14:09	10	133	1.1	132	137	480	1.7	477	482	21.5	42.6
2025-08-23T14:10	10	134	0.6	132	135	477	0.4	476	478	21.1	42.5
2025-08-23T14:11	10	128	2.5	124	133	477	0.8	476	479	21.6	44.0
2025-08-23T14:12	10	131	0.9	129	133	479	1.2	477	480	22.2	44.3
2025-08-23T14:13	10	129	3.1	123	144	479	1.2	477	481	21.5	42.7
2025-08-23T14:14	10	125	1.2	123	127	478	1.6	476	481	21.4	43.9
2025-08-23T14:15	10	130	1.2	128	132	480	1.2	478	481	21.3	44.0
2025-08-23T14:16	10	129	4.7	121	136	477	1.4	475	480	21.6	44.0
2025-08-23T14:17	10	126	6.9	114	136	477	2.3	472	480	21.9	44.1
2025-08-23T14:18	10	110	3.2	103	115	470	0.8	469	473	21.6	44.3
2025-08-23T14:19	10	119	10.4	105	140	470	0.9	468	472	21.7	44.8
2025-08-23T14:20	10	142	1.0	140	144	474	1.0	472	476	21.4	44.7
2025-08-23T14:21	10	120	18.8	88	140	470	3.6	464	476	21.1	44.7
2025-08-23T14:22	10	127	15.1	94	141	469	3.3	464	474	21.1	44.7
2025-08-23T14:23	10	141	0.7	140	143	475	1.6	472	478	21.0	44.6
2025-08-23T14:24	10	121	6.7	109	140	474	2.6	467	477	21.3	45.1
2025-08-23T14:25	10	89	10.9	69	108	464	3.0	457	468	21.2	45.0
2025-08-23T14:26	10	66	8.3	48	75	457	1.8	452	459	21.1	45.2
2025-08-23T14:27	10	43	1.0	42	47	449	1.9	446	453	21.1	45.4
2025-08-23T14:28	10	42	0.5	42	44	444	1.6	442	447	20.9	45.3
2025-08-23T14:29	10	45	1.6	43	49	442	0.4	441	443	20.9	45.5
2025-08-23T14:30	10	64	7.0	50	72	445	1.9	442	448	21.1	45.7
2025-08-23T14:31	10	65	3.4	53	71	445	1.1	443	447	21.0	45.3
2025-08-23T14:32	10	49	1.1	48	53	443	0.5	442	444	20.8	45.4
2025-08-23T14:33	10	56	2.8	51	60	443	0.6	442	444	20.8	45.8
2025-08-23T14:34	10	62	2.4	57	68	443	0.8	442	445	20.8	46.0
2025-08-23T14:35	10	79	5.2	68	87	450	2.7	444	453	21.2	46.7
2025-08-23T14:36	10	73	2.2	70	78	447	1.2	446	450	21.3	46.1
2025-08-23T14:37	10	77	0.8	76	78	446	0.3	446	447	21.1	46.2
2025-08-23T14:38	10	85	4.2	78	91	447	1.1	445	449	20.8	46.4
2025-08-23T14:39	10	88	2.7	83	92	449	1.1	447	451	20.8	46.7
2025-08-23T14:40	10	101	12.0	83	120	449	2.1	447	454	20.8	46.3
2025-08-23T14:41	10	115	4.9	106	121	457	1.6	453	459	20.8	46.2
2025-08-23T14:42	10	104	2.8	99	109	455	1.1	454	457	20.7	46.0
2025-08-23T14:43	10	89	3.7	85	98	454	1.0	452	456	20.9	46.0
2025-08-23T14:44	10	94	4.5	87	100	453	0.9	451	455	21.2	46.3
2025-08-23T14:45	10	102	6.0	95	111	452	2.0	449	456	21.0	46.5
2025-08-23T14:46	10	109	2.4	104	112	459	1.2	456	460	20.9	46.8
2025-08-23T14:47	10	112	1.4	108	114	458	1.0	456	459	20.7	46.9
2025-08-23T14:48	10	115	2.3	108	116	457	0.8	455	458	20.7	47.3
2025-08-23T14:49	10	114	0.7	113	116	456	0.7	454	457	21.0	47.7
2025-08-23T14:50	10	113	0.6	112	114	457	0.6	456	458	21.2	47.8
2025-08-23T14:51	10	112	0.2	112	112	458	0.8	456	459	21.2	47.5
2025-08-23T14:52	10	111	0.3	111	112	458	0.9	456	460	21.1	48.0
2025-08-23T14:53	10	110	0.1	110	111	458	0.4	457	459	21.4	47.7
2025-08-23T14:54	10	110	0.1	110	110	457	0.4	456	458	21.3	47.3
2025-08-23T14:55	10	110	0.2	109	110	458	1.2	456	460	21.2	46.9
2025-08-23T14:56	10	109	0.2	109	110	455	0.5	455	457	20.9	46.9
2025-08-23T14:57	10	109	0.2	108	109	457	0.7	456	459	21.1	47.5
2025-08-23T14:58	10	108	0.2	108	109	459	0.8	457	461	21.1	47.8
2025-08-23T14:59	10	108	0.2	107	108	455	0.9	454	458	20.9	48.5
2025-08-23T15:00	10	107	0.2	107	108	458	0.4	457	459	21.1	48.9
2025-08-23T15:01	10	107	0.2	107	108	458	0.9	457	460	21.4	48.6
2025-08-23T15:02	10	107	0.2	107	108	457	1.0	455	459	21.4	48.0
2025-08-23T15:03	10	107	0.2	107	108	457	1.2	455	459	21.0	48.8
2025-08-23T15:04	10	107	0.2	107	108	457	2.1	455	461	21.0	48.7
2025-08-23T15:05	10	107	0.2	107	108	455	0.7	453	456	20.9	49.0
2025-08-23T15:06	10	108	0.3	107	109	454	0.8	452	455	20.9	49.2
2025-08-23T15:07	10	108	0.2	108	109	456	0.7	454	457	20.9	49.3
2025-08-23T15:08	10	107	0.6	106	108	455	0.9	453	456	20.7	48.9
2025-08-23T15:09	10	106	1.1	101	107	456	1.2	454	458	20.8	49.5
2025-08-23T15:10	10	101	5.3	86	106	458	0.8	456	459	21.1	49.3
2025-08-23T15:11	10	105	0.3	104	106	453	1.0	451	455	20.9	49.1
2025-08-23T15:12	10	106	0.3	105	106	453	1.6	451	456	20.9	48.7
2025-08-23T15:13	10	107	0.5	106	107	455	0.8	453	456	20.8	48.5
2025-08-23T15:14	10	106	0.6	105	107	456	0.8	454	457	21.0	48.6
2025-08-23T15:15	10	105	0.5	103	105	454	1.8	452	457	21.0	48.5
2025-08-23T15:16	10	103	1.1	100	105	453	0.5	452	454	20.7	49.0
2025-08-23T15:17	10	105	0.3	104	106	452	0.9	451	454	20.8	49.2
2025-08-23T15:18	10	102	2.6	97	105	450	1.5	448	453	20.9	49.3
2025-08-23T15:19	10	80	21.9	26	98	445	2.5	439	449	20.6	49.2
2025-08-23T15:20	10	22	0.8	21	25	434	3.0	430	441	20.8	49.6
2025-08-23T15:21	10	21	0.2	21	22	430	0.6	429	431	20.9	50.0
2025-08-23T15:22	10	21	0.3	21	22	428	0.8	426	429	20.9	49.7
2025-08-23T15:23	10	22	0.4	21	23	425	0.3	424	426	20.5	49.0
2025-08-23T15:24	10	23	0.6	22	24	425	0.3	424	426	20.5	49.1
2025-08-23T15:25	10	25	0.6	24	26	426	0.3	425	426	20.5	49.7
2025-08-23T15:26	10	38	16.5	26	78	428	2.6	425	435	20.5	50.0
2025-08-23T15:27	10	93	3.9	79	97	441	3.8	432	445	20.6	50.2
2025-08-23T15:28	10	99	2.8	94	104	446	2.1	443	449	20.7	49.1
2025-08-23T15:29	10	95	4.0	88	100	448	0.6	447	450	20.8	49.3
2025-08-23T15:30	10	93	2.2	89	98	445	1.1	443	447	20.5	48.8
2025-08-23T15:31	10	91	3.3	85	97	447	0.8	445	448	20.8	49.1
2025-08-23T15:32	10	64	24.8	32	96	442	3.8	435	446	20.7	48.8
2025-08-23T15:33	10	31	1.4	30	34	433	2.4	429	437	20.8	48.9
2025-08-23T15:34	10	30	0.4	29	31	429	0.6	428	430	20.6	48.9
2025-08-23T15:35	10	37	8.9	29	61	428	1.2	427	431	20.6	49.1
2025-08-23T15:36	10	83	6.3	62	87	438	3.8	431	443	20.7	49.6
2025-08-23T15:37	10	84	5.9	68	89	441	1.0	439	442	20.7	49.9
2025-08-23T15:38	10	48	22.5	28	87	436	4.5	429	442	20.7	50.0
2025-08-23T15:39	10	27	0.8	26	29	428	1.4	426	431	20.5	50.0
2025-08-23T15:40	10	26	0.3	25	27	426	0.3	425	427	20.5	50.2
2025-08-23T15:41	10	25	0.3	24	26	425	0.4	424	425	20.5	50.2
2025-08-23T15:42	10	24	0.4	23	25	424	0.5	423	424	20.5	50.6
2025-08-23T15:43	10	23	0.5	22	24	422	0.3	422	423	20.4	50.4
2025-08-23T15:44	10	21	0.3	21	22	422	0.3	421	423	20.3	50.6
2025-08-23T15:45	10	21	0.2	21	22	422	0.4	421	423	20.3	51.1
2025-08-23T15:46	10	22	0.3	22	22	421	0.2	420	421	20.2	50.9
2025-08-23T15:47	10	23	0.4	22	23	421	0.3	420	421	20.2	51.0
2025-08-23T15:48	10	23	0.4	22	23	421	0.2	421	421	20.2	51.5
2025-08-23T15:49	10	22	0.2	22	22	419	0.4	419	420	20.1	50.4
2025-08-23T15:50	10	56	24.7	22	85	423	4.8	418	432	20.1	50.9
2025-08-23T15:51	10	54	28.1	22	88	430	2.8	426	434	20.2	51.0
2025-08-23T15:52	10	35	10.0	23	48	425	0.8	424	426	20.3	50.8
2025-08-23T15:53	10	30	7.1	20	43	424	1.1	422	426	20.3	50.7
2025-08-23T15:54	10	19	0.5	19	20	422	0.6	420	423	20.3	51.2
2025-08-23T15:55	10	18	0.2	18	19	420	0.3	420	421	20.3	51.3
2025-08-23T15:56	10	18	0.5	17	19	419	0.2	419	420	20.3	51.6
2025-08-23T15:57	10	17	0.2	17	17	419	0.2	419	420	20.3	52.2
2025-08-23T15:58	10	17	0.1	16	17	418	0.4	418	419	20.2	52.5
2025-08-23T15:59	10	16	0.1	16	17	417	0.3	416	418	20.2	51.6
2025-08-23T16:00	10	17	0.1	17	17	417	0.2	416	417	20.2	51.7
2025-08-23T16:01	10	17	0.2	16	17	416	0.2	415	417	20.1	51.1
2025-08-23T16:02	10	18	0.3	17	18	416	0.3	415	417	20.2	51.0
2025-08-23T16:03	10	18	0.1	18	18	416	0.2	416	416	20.2	50.9
2025-08-23T16:04	10	33	16.8	18	68	418	2.2	416	423	20.2	51.0
2025-08-23T16:05	10	45	19.6	21	69	423	1.9	419	425	20.2	50.7
2025-08-23T16:06	10	51	24.4	20	79	421	3.0	418	427	20.2	50.4
2025-08-23T16:07	10	82	1.6	79	84	429	1.9	425	432	20.2	50.6
2025-08-23T16:08	10	83	0.2	82	83	433	0.8	431	434	20.3	50.7
2025-08-23T16:09	10	80	1.5	78	82	434	0.3	434	435	20.4	50.8
2025-08-23T16:10	10	83	0.5	82	84	435	0.6	433	436	20.5	50.6
2025-08-23T16:11	10	83	0.4	82	84	435	0.2	435	435	20.5	50.1
2025-08-23T16:12	10	80	5.1	58	83	435	0.3	433	435	20.4	49.9
2025-08-23T16:13	10	37	10.3	22	56	429	2.9	424	435	20.4	49.7
2025-08-23T16:14	10	20	0.8	19	22	423	1.4	421	426	20.4	50.4
2025-08-23T16:15	10	18	0.3	18	19	420	1.0	418	422	20.3	50.9
2025-08-23T16:16	10	18	0.3	17	18	418	0.6	417	419	20.1	50.7
2025-08-23T16:17	10	17	0.2	17	17	416	0.4	416	418	20.0	50.5
2025-08-23T16:18	10	17	0.3	17	18	416	0.3	415	416	20.0	50.7
2025-08-23T16:19	10	18	0.3	18	19	416	0.2	415	416	20.0	51.1
2025-08-23T16:20	10	31	9.5	19	49	417	1.3	415	420	19.9	51.3
2025-08-23T16:21	10	62	6.6	49	71	422	2.1	419	426	20.0	51.3
2025-08-23T16:22	10	69	0.8	68	71	427	0.9	425	428	20.0	51.2
2025-08-23T16:23	10	70	1.6	67	72	429	1.1	427	431	20.1	51.5
2025-08-23T16:24	10	72	0.6	70	73	430	0.4	429	431	20.2	51.1
2025-08-23T16:25	10	71	0.3	71	72	430	0.2	430	431	20.2	50.5
2025-08-23T16:26	10	68	3.4	60	71	430	0.5	429	431	20.2	50.7
2025-08-23T16:27	10	65	3.5	60	70	429	0.5	428	430	20.2	50.3
2025-08-23T16:28	10	72	1.1	70	74	430	0.8	428	431	20.2	51.0
2025-08-23T16:29	10	58	16.2	24	73	430	1.8	425	431	20.3	50.9
2025-08-23T16:30	10	21	1.5	19	24	422	2.2	419	427	20.2	50.7
2025-08-23T16:31	10	20	0.1	20	20	418	0.8	417	419	20.1	50.7
2025-08-23T16:32	10	20	0.1	20	20	417	0.3	416	418	20.1	50.5
2025-08-23T16:33	10	21	0.4	20	21	417	0.3	416	417	20.1	51.2
2025-08-23T16:34	10	21	0.1	21	21	417	0.2	417	418	20.0	51.5
2025-08-23T16:35	10	22	0.2	21	22	417	0.2	417	418	20.0	51.3
2025-08-23T16:36	10	21	0.3	21	22	417	0.2	416	417	19.9	50.8
2025-08-23T16:37	10	21	0.3	20	21	417	0.3	416	417	19.9	50.9
2025-08-23T16:38	10	21	0.7	20	22	416	0.2	415	416	19.9	50.6
2025-08-23T16:39	10	25	2.8	22	31	416	0.4	416	418	20.0	50.7
2025-08-23T16:40	10	40	5.4	31	49	419	1.2	416	421	20.0	50.7
2025-08-23T16:41	10	55	3.8	49	60	422	0.9	420	423	20.0	50.5
2025-08-23T16:42	10	55	2.2	52	60	423	0.5	422	424	20.0	50.5
2025-08-23T16:43	10	63	1.3	60	64	424	0.8	423	426	20.0	50.2
2025-08-23T16:44	10	63	0.4	63	64	425	0.6	424	427	20.0	50.2
2025-08-23T16:45	10	61	1.6	57	63	426	0.5	425	427	20.1	50.6
2025-08-23T16:46	10	47	3.8	43	56	423	1.0	421	425	20.1	49.9
2025-08-23T16:47	10	54	4.7	46	61	422	0.5	421	423	20.1	49.8
2025-08-23T16:48	10	61	0.3	61	62	423	0.2	423	424	20.1	49.4
2025-08-23T16:49	10	62	0.1	61	62	424	0.3	423	425	20.1	49.6
2025-08-23T16:50	10	62	0.1	62	62	425	0.6	424	426	20.2	49.9
2025-08-23T16:51	10	62	0.2	62	62	426	0.4	425	426	20.2	49.6
2025-08-23T16:52	10	62	0.4	61	62	427	0.4	426	428	20.3	50.1
2025-08-23T16:53	10	61	0.1	61	61	425	0.6	424	427	20.1	49.9
2025-08-23T16:54	10	61	0.1	61	61	425	0.3	424	426	20.0	50.3
2025-08-23T16:55	10	60	0.2	60	61	425	0.5	424	426	20.0	50.4
2025-08-23T16:56	10	60	0.1	60	60	424	0.5	423	425	20.0	50.6
2025-08-23T16:57	10	59	0.2	59	60	424	0.3	424	425	20.0	50.5
2025-08-23T16:58	10	59	0.3	58	59	424	0.4	424	425	20.0	50.3
2025-08-23T16:59	10	57	0.4	57	58	424	0.2	423	424	20.0	50.6
2025-08-23T17:00	10	56	0.3	56	57	424	0.2	424	425	20.0	50.5
2025-08-23T17:01	10	55	0.2	55	56	424	0.3	423	425	20.0	50.9
2025-08-23T17:02	10	55	0.3	54	55	424	0.3	424	425	20.0	50.5
2025-08-23T17:03	10	54	0.5	53	54	424	0.4	423	425	20.0	51.3
2025-08-23T17:04	10	52	0.7	50	53	422	0.4	422	423	20.0	50.9
2025-08-23T17:05	10	46	4.0	38	51	421	1.1	419	422	19.9	50.6
2025-08-23T17:06	10	33	1.6	32	38	419	0.4	418	420	19.8	51.1
2025-08-23T17:07	10	31	2.1	26	33	419	0.5	417	419	19.9	51.6
2025-08-23T17:08	10	21	2.9	16	26	417	0.8	415	418	19.8	51.7
2025-08-23T17:09	10	15	0.5	14	16	415	0.8	414	416	19.8	52.3
2025-08-23T17:10	10	14	0.2	13	14	413	0.4	412	414	19.6	52.2
2025-08-23T17:11	10	14	0.2	13	14	412	0.3	411	413	19.6	51.6
2025-08-23T17:12	10	21	4.6	14	29	412	0.6	411	413	19.5	52.0
2025-08-23T17:13	10	34	2.4	29	37	414	0.7	412	415	19.5	52.0
2025-08-23T17:14	10	38	0.4	37	39	415	0.3	414	415	19.5	52.3
2025-08-23T17:15	10	40	0.4	39	40	415	0.3	415	416	19.5	52.0
2025-08-23T17:16	10	40	0.2	40	41	416	0.3	415	417	19.5	52.2
2025-08-23T17:17	10	39	0.3	38	40	416	0.2	415	416	19.5	52.2
2025-08-23T17:18	10	39	0.4	38	40	416	0.2	415	416	19.5	52.2
2025-08-23T17:19	10	40	0.1	40	40	416	0.3	415	417	19.5	51.6
2025-08-23T17:20	10	39	0.2	39	40	416	0.2	416	417	19.5	51.6
2025-08-23T17:21	10	39	0.2	38	39	416	0.3	415	417	19.5	52.2
2025-08-23T17:22	10	25	8.2	15	38	415	1.2	412	416	19.5	51.3
2025-08-23T17:23	10	15	0.5	15	16	413	0.3	412	413	19.5	52.0
2025-08-23T17:24	10	13	1.0	12	15	412	0.4	411	413	19.5	52.0
2025-08-23T17:25	10	12	0.1	12	12	411	0.3	410	412	19.5	51.8
2025-08-23T17:26	10	12	0.2	12	12	410	0.3	410	411	19.4	51.9
2025-08-23T17:27	10	11	0.5	10	12	410	0.3	409	411	19.4	51.9
2025-08-23T17:28	10	10	0.2	10	11	410	0.2	409	410	19.4	51.9
2025-08-23T17:29	10	10	0.2	9	10	409	0.2	409	410	19.3	52.3
2025-08-23T17:30	10	9	0.3	8	9	409	0.2	408	409	19.3	51.8
2025-08-23T17:31	10	9	0.2	8	9	409	0.3	408	409	19.3	52.3
2025-08-23T17:32	10	8	0.2	8	9	408	0.2	408	409	19.2	52.7
2025-08-23T17:33	10	8	0.1	8	8	409	0.2	408	409	19.3	52.1
2025-08-23T17:34	10	8	0.1	8	8	408	0.2	408	409	19.2	52.9
2025-08-23T17:35	10	8	0.1	8	8	408	0.2	408	409	19.2	52.3
2025-08-23T17:36	10	8	0.2	8	8	408	0.2	408	409	19.2	52.4
2025-08-23T17:37	10	7	0.1	7	8	408	0.2	408	409	19.2	53.0
2025-08-23T17:38	10	8	0.2	7	8	408	0.3	408	409	19.2	52.7
2025-08-23T17:39	10	9	0.7	8	10	408	0.3	408	409	19.1	53.0
2025-08-23T17:40	10	11	0.7	10	12	409	0.4	408	410	19.1	53.1
2025-08-23T17:41	10	9	1.1	8	11	409	0.3	408	409	19.1	53.6
2025-08-23T17:42	10	7	0.2	7	8	408	0.2	408	409	19.1	53.3
2025-08-23T17:43	10	8	0.2	7	8	408	0.2	407	408	19.1	52.7
2025-08-23T17:44	10	9	0.5	8	10	408	0.2	408	409	19.1	52.8
2025-08-23T17:45	10	10	0.4	10	11	408	0.2	407	408	19.0	53.0
2025-08-23T17:46	10	12	0.6	11	13	408	0.2	408	408	19.0	53.4
2025-08-23T17:47	10	11	2.0	7	13	408	0.2	407	408	19.0	52.8
2025-08-23T17:48	10	6	0.2	6	7	407	0.3	406	408	19.0	52.6
2025-08-23T17:49	10	6	0.2	6	7	407	0.2	406	407	19.0	52.9
2025-08-23T17:50	10	6	0.2	5	6	406	0.3	406	407	19.0	52.3
2025-08-23T17:51	10	5	0.1	5	6	406	0.2	405	406	19.0	52.7
2025-08-23T17:52	10	5	0.2	4	5	406	0.2	405	407	18.9	53.1
2025-08-23T17:53	10	4	0.1	4	4	405	0.2	405	406	18.9	53.5
2025-08-23T17:54	10	4	0.1	3	4	405	0.2	405	406	18.9	52.7
2025-08-23T17:55	10	3	0.2	3	4	404	0.3	404	405	18.8	53.2
2025-08-23T17:56	10	3	0.1	3	4	404	0.2	404	405	18.8	53.4
2025-08-23T17:57	10	4	0.2	3	4	404	0.3	403	404	18.8	53.8
2025-08-23T17:58	10	4	0.1	4	4	404	0.2	403	404	18.7	53.5
2025-08-23T17:59	10	4	0.2	4	4	403	0.3	402	404	18.7	53.7
2025-08-23T18:00	10	4	0.2	3	4	403	0.3	402	403	18.6	53.5
2025-08-23T18:01	10	4	0.2	3	4	403	0.3	402	403	18.6	53.0
2025-08-23T18:02	10	4	0.1	4	5	402	0.3	401	403	18.6	53.1
2025-08-23T18:03	10	4	0.1	4	4	402	0.2	402	403	18.6	52.6
2025-08-23T18:04	10	4	0.1	3	4	402	0.4	401	403	18.6	52.6
2025-08-23T18:05	10	4	0.1	3	4	401	0.2	400	401	18.6	53.1
2025-08-23T18:06	10	3	0.1	3	4	401	0.3	400	402	18.6	52.7
2025-08-23T18:07	10	3	0.1	3	4	401	0.2	400	401	18.5	53.2
2025-08-23T18:08	10	4	0.2	4	4	400	0.2	400	401	18.5	53.3
2025-08-23T18:09	10	5	0.4	4	6	400	0.2	400	401	18.5	53.4
2025-08-23T18:10	10	6	0.2	6	6	400	0.2	399	400	18.4	53.7
2025-08-23T18:11	10	5	0.3	5	6	399	0.3	398	400	18.4	54.0
2025-08-23T18:12	10	5	0.3	4	5	399	0.2	398	399	18.4	54.2
2025-08-23T18:13	10	4	0.2	3	4	398	0.3	397	399	18.4	54.0
2025-08-23T18:14	10	3	0.2	3	3	398	0.3	397	398	18.3	54.0
2025-08-23T18:15	10	3	0.1	3	3	397	0.2	397	398	18.3	53.9
2025-08-23T18:16	10	3	0.1	3	3	397	0.3	396	398	18.3	53.9
2025-08-23T18:17	10	3	0.1	2	3	397	0.2	396	398	18.3	53.7
2025-08-23T18:18	10	2	0.2	2	3	397	0.2	396	397	18.3	53.5
2025-08-23T18:19	10	2	0.1	1	2	396	0.3	395	397	18.2	53.9
2025-08-23T18:20	10	1	0.1	1	2	396	0.3	395	396	18.2	54.1
2025-08-23T18:21	10	1	0.1	1	1	395	0.2	395	396	18.2	53.8
2025-08-23T18:22	10	1	0.1	1	1	395	0.2	395	396	18.1	53.8
2025-08-23T18:23	10	1	0.1	1	1	395	0.2	394	396	18.2	53.5
2025-08-23T18:24	10	1	0.1	0	1	394	0.2	394	395	18.1	53.9
2025-08-23T18:25	10	0	0.1	0	1	394	0.3	393	394	18.0	54.5
2025-08-23T18:26	10	0	0.1	0	1	393	0.2	393	394	18.0	55.0
2025-08-23T18:27	10	0	0.1	0	1	393	0.2	393	394	18.0	54.9
2025-08-23T18:28	10	0	0.1	0	1	393	0.2	392	393	18.0	54.8
2025-08-23T18:29	10	0	0.1	0	0	393	0.3	392	393	18.0	54.4
2025-08-23T18:30	10	0	0.1	0	0	392	0.3	391	393	17.9	54.8
2025-08-23T18:31	10	0	0.1	0	0	392	0.3	391	392	17.9	54.8
2025-08-23T18:32	10	0	0.1	0	0	392	0.2	391	392	17.9	54.9
2025-08-23T18:33	10	0	0.1	0	0	392	0.3	391	393	17.9	54.9
2025-08-23T18:34	10	0	0.1	0	0	391	0.2	391	392	17.9	54.9
2025-08-23T18:35	10	0	0.1	0	0	391	0.3	391	392	17.8	54.9
2025-08-23T18:36	10	0	0.1	0	0	391	0.3	390	391	17.8	55.0
2025-08-23T18:37	10	0	0.1	0	0	390	0.3	390	391	17.7	55.4
2025-08-23T18:38	10	0	0.1	0	0	390	0.2	390	391	17.7	55.2
2025-08-23T18:39	10	0	0.1	0	0	390	0.2	389	390	17.7	55.3
2025-08-23T18:40	10	0	0.1	0	0	389	0.2	389	390	17.7	55.3
2025-08-23T18:41	10	0	0.1	0	0	389	0.2	388	389	17.7	55.6
2025-08-23T18:42	10	0	0.1	0	0	389	0.3	388	390	17.6	55.7
2025-08-23T18:43	10	0	0.1	0	0	388	0.2	388	389	17.6	56.2
2025-08-23T18:44	10	0	0.1	0	0	388	0.2	387	388	17.5	56.2
2025-08-23T18:45	10	0	0.1	0	0	388	0.2	387	388	17.5	56.8
2025-08-23T18:46	10	0	0.1	0	0	388	0.4	387	388	17.4	57.4
2025-08-23T18:47	10	0	0.1	0	0	387	0.2	387	387	17.4	57.6
2025-08-23T18:48	10	0	0.1	0	0	387	0.2	386	387	17.3	57.9
2025-08-23T18:49	10	0	0.1	0	0	386	0.2	386	387	17.2	57.9
2025-08-23T18:50	10	0	0.1	0	0	387	0.3	387	388	17.2	57.8
2025-08-23T18:51	10	0	0.1	0	0	387	0.2	386	387	17.2	57.8
2025-08-23T18:52	10	0	0.1	0	0	387	0.3	386	388	17.2	57.6
2025-08-23T18:53	10	0	0.1	0	0	387	0.3	386	388	17.2	57.6
2025-08-23T18:54	10	0	0.1	0	0	387	0.2	387	387	17.2	57.6
2025-08-23T18:55	10	0	0.1	0	0	387	0.2	386	387	17.2	57.6
2025-08-23T18:56	10	0	0.1	0	0	387	0.4	386	388	17.2	58.1
2025-08-23T18:57	10	0	0.1	0	0	387	0.2	387	388	17.2	58.1
2025-08-23T18:58	10	0	0.1	0	0	388	0.3	387	388	17.1	58.4
2025-08-23T18:59	10	0	0.1	-1	0	388	0.3	387	388	17.1	58.7
2025-08-23T19:00	10	0	0.2	0	1	388	0.3	387	388	17.1	58.8
2025-08-23T19:01	10	0	0.2	0	0	388	0.3	387	389	17.1	58.9
2025-08-23T19:02	10	0	0.2	-1	1	388	0.4	387	389	17.0	59.1
2025-08-23T19:03	10	0	0.1	0	0	388	0.3	388	389	17.0	59.2
2025-08-23T19:04	10	0	0.2	-1	0	388	0.3	387	388	17.0	59.6
2025-08-23T19:05	10	0	0.2	-1	0	388	0.2	387	388	17.0	59.5
2025-08-23T19:06	10	0	0.2	-1	0	387	0.2	387	388	17.0	59.4
2025-08-23T19:07	10	0	0.1	0	0	387	0.2	387	388	17.0	59.5
2025-08-23T19:08	10	0	0.1	0	0	387	0.2	386	387	17.0	59.6
2025-08-23T19:09	10	0	0.1	0	0	386	0.3	386	387	16.9	59.8
2025-08-23T19:10	10	0	0.1	0	0	386	0.2	386	387	16.9	59.7
2025-08-23T19:11	10	0	0.1	0	0	386	0.2	385	386	16.9	59.7
2025-08-23T19:12	10	0	0.1	0	0	386	0.2	385	386	16.9	60.2
2025-08-23T19:13	10	0	0.1	0	0	385	0.3	385	386	16.8	60.0
2025-08-23T19:14	10	0	0.1	0	0	385	0.3	385	386	16.8	60.0
2025-08-23T19:15	10	0	0.0	0	0	384	0.2	384	385	16.8	60.6
2025-08-23T19:16	10	0	0.1	0	0	384	0.2	384	385	16.7	60.7
2025-08-23T19:17	10	0	0.1	0	0	384	0.3	384	385	16.7	60.4
2025-08-23T19:18	10	0	0.1	0	0	384	0.2	384	385	16.7	60.5
2025-08-23T19:19	10	0	0.1	0	0	383	0.2	383	384	16.7	60.6
2025-08-23T19:20	10	0	0.1	0	0	383	0.3	382	384	16.6	60.6
2025-08-23T19:21	10	0	0.1	0	0	383	0.4	382	384	16.6	60.7
2025-08-23T19:22	10	0	0.1	0	0	383	0.2	383	383	16.6	60.6
2025-08-23T19:23	10	0	0.1	0	0	383	0.3	382	383	16.5	61.2
2025-08-23T19:24	10	0	0.1	0	0	382	0.3	382	383	16.5	61.5
2025-08-23T19:25	10	0	0.1	0	0	382	0.3	382	383	16.5	61.5
2025-08-23T19:26	10	0	0.1	0	0	382	0.3	382	383	16.5	61.1
2025-08-23T19:27	10	0	0.1	0	0	382	0.3	381	383	16.5	61.2
2025-08-23T19:28	10	0	0.1	0	0	381	0.2	381	382	16.5	61.3
2025-08-23T19:29	10	0	0.1	0	0	382	0.4	381	382	16.5	61.5
2025-08-23T19:30	10	0	0.1	0	0	382	0.2	381	382	16.5	61.5
2025-08-23T19:31	10	0	0.1	0	0	382	0.3	381	382	16.4	61.8
2025-08-23T19:32	10	0	0.1	0	0	382	0.3	381	382	16.4	62.0
2025-08-23T19:33	10	0	0.1	0	0	381	0.2	381	382	16.4	62.0
2025-08-23T19:34	10	0	0.1	0	0	381	0.2	381	382	16.4	62.2
2025-08-23T19:35	10	0	0.1	0	0	381	0.2	380	381	16.3	62.4
2025-08-23T19:36	10	0	0.1	0	0	381	0.3	381	382	16.3	62.8
2025-08-23T19:37	10	0	0.1	0	0	381	0.3	380	381	16.3	62.5
2025-08-23T19:38	10	0	0.1	0	0	381	0.3	380	381	16.3	62.8
2025-08-23T19:39	10	0	0.1	0	0	381	0.2	381	382	16.2	63.1
2025-08-23T19:40	10	0	0.1	0	0	381	0.3	380	382	16.2	63.4
2025-08-23T19:41	10	0	0.1	0	0	381	0.3	380	381	16.2	63.2
2025-08-23T19:42	10	0	0.1	0	0	381	0.3	380	381	16.2	63.2
2025-08-23T19:43	10	0	0.1	0	0	381	0.2	381	382	16.2	63.3
2025-08-23T19:44	10	0	0.1	0	0	381	0.3	380	382	16.2	63.4
2025-08-23T19:45	10	0	0.1	0	0	381	0.3	380	381	16.2	63.3
2025-08-23T19:46	10	0	0.1	0	0	381	0.3	380	381	16.1	63.5
2025-08-23T19:47	10	0	0.1	0	0	380	0.2	380	381	16.2	63.2
2025-08-23T19:48	10	0	0.0	0	0	380	0.2	379	380	16.1	63.6
2025-08-23T19:49	10	0	0.1	0	0	380	0.3	379	380	16.0	63.8
2025-08-23T19:50	10	0	0.0	0	0	380	0.2	379	380	16.0	64.0
2025-08-23T19:51	10	0	0.1	0	0	379	0.3	378	380	16.0	64.2
2025-08-23T19:52	10	0	0.0	0	0	379	0.3	378	380	15.9	64.3
2025-08-23T19:53	10	0	0.1	0	0	379	0.3	378	380	16.0	64.2
2025-08-23T19:54	10	0	0.1	0	0	379	0.2	378	379	16.0	64.1
2025-08-23T19:55	10	0	0.1	0	0	379	0.2	378	379	16.0	63.9
2025-08-23T19:56	10	0	0.1	0	0	379	0.3	378	379	16.0	64.3
2025-08-23T19:57	10	0	0.1	0	0	378	0.3	377	379	15.9	64.8
2025-08-23T19:58	10	0	0.1	0	0	378	0.2	377	378	15.9	64.9
2025-08-23T19:59	10	0	0.1	0	0	377	0.2	377	378	15.8	65.1
2025-08-23T20:00	10	0	0.1	0	0	377	0.3	376	378	15.8	65.4
2025-08-23T20:01	10	0	0.1	0	0	377	0.3	376	377	15.7	65.9
2025-08-23T20:02	10	0	0.1	0	0	377	0.2	376	377	15.6	65.9
2025-08-23T20:03	10	0	0.0	0	0	377	0.2	377	377	15.6	65.9
2025-08-23T20:04	10	0	0.0	0	0	377	0.2	376	377	15.6	66.1
2025-08-23T20:05	10	0	0.1	0	0	376	0.3	376	377	15.6	65.8
2025-08-23T20:06	10	0	0.1	0	0	376	0.2	376	377	15.6	65.7
2025-08-23T20:07	10	0	0.0	0	0	376	0.2	376	377	15.7	65.3
2025-08-23T20:08	10	0	0.1	0	0	376	0.2	376	376	15.7	64.7
2025-08-23T20:09	10	0	0.1	0	0	376	0.3	375	376	15.7	64.9
2025-08-23T20:10	10	0	0.1	0	0	376	0.3	376	377	15.7	65.1
2025-08-23T20:11	10	0	0.1	0	0	376	0.3	375	376	15.7	65.1
2025-08-23T20:12	10	0	0.1	0	0	376	0.2	375	376	15.7	65.0
2025-08-23T20:13	10	0	0.2	0	1	375	0.2	375	376	15.6	65.3
2025-08-23T20:14	10	0	0.1	0	0	375	0.3	375	376	15.6	65.6
2025-08-23T20:15	10	0	0.1	0	0	375	0.3	374	376	15.5	65.7
2025-08-23T20:16	10	0	0.1	0	0	375	0.3	374	376	15.6	65.4
2025-08-23T20:17	10	0	0.1	0	0	375	0.2	374	375	15.6	65.5
2025-08-23T20:18	10	0	0.1	-1	0	374	0.3	374	375	15.5	65.6
2025-08-23T20:19	10	0	0.2	0	0	374	0.3	373	375	15.5	65.9
2025-08-23T20:20	10	0	0.2	0	0	374	0.3	374	375	15.4	66.0
2025-08-23T20:21	10	0	0.2	0	0	374	0.3	373	374	15.4	65.9
2025-08-23T20:22	10	0	0.1	0	0	374	0.2	373	374	15.5	65.8
2025-08-23T20:23	10	0	0.1	0	0	373	0.2	373	374	15.4	65.8
2025-08-23T20:24	10	0	0.1	0	0	373	0.3	372	374	15.4	65.8
2025-08-23T20:25	10	0	0.1	0	0	373	0.2	373	374	15.4	66.1
2025-08-23T20:26	10	0	0.7	0	5	373	0.4	373	374	15.4	66.2
2025-08-23T20:27	10	0	0.1	0	0	373	0.2	373	374	15.3	66.2
2025-08-23T20:28	10	0	0.1	0	0	373	0.3	373	374	15.3	66.2
2025-08-23T20:29	10	0	0.1	0	0	374	0.3	373	374	15.3	66.1
2025-08-23T20:30	10	0	0.1	0	0	374	0.3	373	375	15.4	65.8
2025-08-23T20:31	10	0	0.1	0	0	374	0.2	374	374	15.4	65.7
2025-08-23T20:32	10	0	0.0	0	0	374	0.3	374	375	15.4	65.9
2025-08-23T20:33	10	0	0.1	0	0	375	0.2	374	375	15.4	65.7
2025-08-23T20:34	10	0	0.1	0	0	375	0.4	374	376	15.4	65.8
2025-08-23T20:35	10	0	0.0	0	0	375	0.3	375	376	15.4	65.1
2025-08-23T20:36	10	0	0.0	0	0	375	0.3	375	376	15.4	65.3
2025-08-23T20:37	10	0	0.1	0	0	375	0.3	375	376	15.4	65.4
2025-08-23T20:38	10	0	0.0	0	0	375	0.2	375	376	15.4	65.6
2025-08-23T20:39	10	0	0.0	0	0	375	0.2	375	376	15.4	65.7
2025-08-23T20:40	10	0	0.0	0	0	375	0.2	375	376	15.3	65.9
2025-08-23T20:41	10	0	0.0	0	0	375	0.3	375	376	15.3	65.8
2025-08-23T20:42	10	0	0.0	0	0	375	0.3	374	375	15.3	65.9
2025-08-23T20:43	10	0	0.0	0	0	375	0.3	374	376	15.3	65.7
2025-08-23T20:44	10	0	0.0	0	0	375	0.3	375	376	15.3	65.8
2025-08-23T20:45	10	0	0.0	0	0	375	0.4	375	376	15.3	65.5
2025-08-23T20:46	10	0	0.0	0	0	376	0.2	375	376	15.3	65.3
2025-08-23T20:47	10	0	0.1	0	0	376	0.4	375	376	15.4	65.0
2025-08-23T20:48	10	0	0.1	0	0	376	0.2	376	376	15.4	64.8
2025-08-23T20:49	10	0	0.1	0	0	376	0.4	375	376	15.4	64.8
2025-08-23T20:50	10	0	0.1	0	0	376	0.3	375	376	15.4	65.1
2025-08-23T20:51	10	0	0.0	0	0	375	0.3	374	376	15.4	65.1
2025-08-23T20:52	10	0	0.1	0	0	375	0.3	374	376	15.4	62.9
2025-08-23T20:53	10	0	0.1	0	0	375	0.3	375	376	15.4	65.1
2025-08-23T20:54	10	0	0.1	0	0	375	0.3	374	376	15.4	65.1
2025-08-23T20:55	10	0	0.1	0	0	375	0.3	374	375	15.4	65.1
2025-08-23T20:56	10	0	0.5	0	3	374	0.3	373	374	15.4	65.1
2025-08-23T20:57	10	0	0.1	0	0	373	0.3	373	374	15.3	65.3
2025-08-23T20:58	10	0	0.1	0	0	373	0.4	372	373	15.1	66.2
2025-08-23T20:59	10	0	0.1	0	0	372	0.4	371	373	15.0	66.7
2025-08-23T21:00	10	0	0.1	0	0	372	0.2	372	373	15.1	66.7
2025-08-23T21:01	10	0	0.1	0	0	372	0.3	372	373	15.0	66.9
2025-08-23T21:02	10	0	0.1	0	0	373	0.3	372	374	15.1	66.4
2025-08-23T21:03	10	0	0.1	0	0	373	0.2	373	373	15.1	66.3
2025-08-23T21:04	10	0	0.1	0	0	373	0.3	372	373	15.1	66.7
2025-08-23T21:05	10	0	0.1	0	0	372	0.2	372	373	15.1	66.5
2025-08-23T21:06	10	0	0.1	0	0	372	0.3	372	373	15.0	66.9
2025-08-23T21:07	10	0	0.1	0	0	372	0.2	372	373	15.0	66.8
2025-08-23T21:08	10	0	0.1	0	0	373	0.2	372	373	15.0	67.0
2025-08-23T21:09	10	0	0.1	0	0	372	0.3	372	373	15.0	67.2
2025-08-23T21:10	10	0	0.1	0	0	372	0.4	371	372	15.0	67.1
2025-08-23T21:11	10	0	0.1	0	0	371	0.2	371	372	14.9	67.3
2025-08-23T21:12	10	0	0.1	-1	0	371	0.3	370	371	14.9	67.3
2025-08-23T21:13	10	0	0.1	0	0	370	0.3	370	371	14.9	67.2
2025-08-23T21:14	10	0	0.1	0	0	370	0.2	370	371	14.9	67.6
2025-08-23T21:15	10	0	0.1	0	0	370	0.2	369	370	14.8	67.7
2025-08-23T21:16	10	0	0.1	0	0	370	0.2	369	370	14.8	67.7
2025-08-23T21:17	10	0	0.1	0	0	370	0.2	369	371	14.8	67.9
2025-08-23T21:18	10	0	0.1	0	0	370	0.2	369	370	14.8	68.0
2025-08-23T21:19	10	0	0.1	0	0	370	0.3	370	371	14.8	68.0
2025-08-23T21:20	10	0	0.1	0	0	370	0.2	370	371	14.8	67.9
2025-08-23T21:21	10	0	0.1	-1	0	370	0.3	370	371	14.8	67.9
2025-08-23T21:22	10	0	0.1	0	0	371	0.4	371	372	14.8	67.8
2025-08-23T21:23	10	0	0.1	0	0	372	0.4	371	372	14.9	67.5
2025-08-23T21:24	10	0	0.1	0	0	372	0.3	371	372	14.9	67.7
2025-08-23T21:25	10	0	0.1	0	0	371	0.2	371	372	14.8	68.3
2025-08-23T21:26	10	0	0.1	0	0	371	0.3	370	372	14.7	68.8
2025-08-23T21:27	10	0	0.1	0	0	371	0.3	371	372	14.7	68.5
2025-08-23T21:28	10	0	0.1	0	0	372	0.2	371	372	14.7	68.6
2025-08-23T21:29	10	0	0.1	0	0	372	0.3	371	372	14.7	68.4
2025-08-23T21:30	10	0	0.1	0	0	372	0.2	372	373	14.7	68.4
2025-08-23T21:31	10	0	0.1	0	0	372	0.2	372	373	14.7	68.5
2025-08-23T21:32	10	0	0.1	0	0	372	0.3	372	373	14.7	68.2
2025-08-23T21:33	10	0	0.6	0	4	373	0.3	372	373	14.8	68.0
2025-08-23T21:34	10	0	0.1	0	0	373	0.3	372	373	14.7	68.2
2025-08-23T21:35	10	0	0.1	0	0	372	0.2	372	373	14.7	68.1
2025-08-23T21:36	10	0	0.1	0	0	372	0.3	372	373	14.8	68.0
2025-08-23T21:37	10	0	0.1	0	0	373	0.3	372	373	14.8	67.7
2025-08-23T21:38	10	0	0.0	0	0	372	0.2	372	373	14.7	68.1
2025-08-23T21:39	10	0	0.1	0	0	372	0.2	372	373	14.8	68.0
2025-08-23T21:40	10	0	0.1	0	0	372	0.3	372	373	14.8	67.9
2025-08-23T21:41	10	0	0.1	0	0	372	0.2	371	372	14.7	68.4
2025-08-23T21:42	10	0	0.1	0	0	372	0.2	372	372	14.7	68.1
2025-08-23T21:43	10	0	0.1	0	0	372	0.2	372	373	14.7	67.9
2025-08-23T21:44	10	0	0.1	0	0	372	0.2	372	373	14.7	68.1
2025-08-23T21:45	10	0	0.1	0	0	372	0.3	372	373	14.7	68.3
2025-08-23T21:46	10	0	0.1	0	0	372	0.2	372	373	14.6	68.4
2025-08-23T21:47	10	0	0.1	0	0	372	0.2	371	372	14.6	68.7
2025-08-23T21:48	10	0	0.1	0	0	371	0.2	371	372	14.5	69.1
2025-08-23T21:49	10	0	0.1	0	0	371	0.3	371	372	14.5	68.9
2025-08-23T21:50	10	0	0.1	0	0	371	0.2	371	372	14.6	68.7
2025-08-23T21:51	10	0	0.1	0	0	371	0.2	371	372	14.5	68.9
2025-08-23T21:52	10	0	0.1	0	0	371	0.3	371	372	14.6	68.8
2025-08-23T21:53	10	0	0.1	0	0	371	0.2	371	372	14.6	68.6
2025-08-23T21:54	10	0	0.1	0	0	371	0.2	371	372	14.6	68.1
2025-08-23T21:55	10	0	0.1	0	0	371	0.3	371	372	14.6	68.3
2025-08-23T21:56	10	0	0.1	0	0	371	0.2	371	372	14.6	68.5
2025-08-23T21:57	10	0	0.1	0	0	371	0.2	371	371	14.6	68.4
2025-08-23T21:58	10	0	0.1	0	0	370	0.3	370	371	14.6	68.4
2025-08-23T21:59	10	0	0.0	0	0	371	0.2	370	371	14.6	68.2
2025-08-23T22:00	10	0	0.1	0	0	370	0.2	370	371	14.6	68.3
2025-08-23T22:01	10	0	0.1	0	0	371	0.2	370	371	14.6	67.9
2025-08-23T22:02	10	0	0.1	0	0	371	0.2	370	371	14.7	67.7
2025-08-23T22:03	10	0	0.1	0	0	371	0.3	370	371	14.7	67.4
2025-08-23T22:04	10	0	0.1	0	0	370	0.2	370	371	14.7	67.3
2025-08-23T22:05	10	0	0.1	0	0	370	0.3	369	371	14.7	67.4
2025-08-23T22:06	10	0	0.1	-1	0	370	0.3	370	371	14.7	67.4
2025-08-23T22:07	10	0	0.1	-1	0	370	0.3	370	371	14.6	67.8
2025-08-23T22:08	10	0	0.1	0	0	370	0.2	370	371	14.6	67.4
2025-08-23T22:09	10	0	0.1	0	0	371	0.2	370	371	14.7	67.3
2025-08-23T22:10	10	0	0.1	-1	0	370	0.3	370	371	14.7	67.2
2025-08-23T22:11	10	0	0.1	-1	0	370	0.3	370	371	14.7	66.9
2025-08-23T22:12	10	0	0.1	0	0	371	0.3	370	371	14.6	67.2
2025-08-23T22:13	10	0	0.2	0	1	370	0.3	370	371	14.6	67.2
2025-08-23T22:14	10	0	0.2	0	0	370	0.2	370	371	14.6	67.1
2025-08-23T22:15	10	0	0.2	0	0	370	0.2	370	371	14.7	66.9
2025-08-23T22:16	10	0	0.1	0	0	370	0.3	370	371	14.6	67.1
2025-08-23T22:17	10	0	0.1	0	0	371	0.3	370	371	14.7	66.8
2025-08-23T22:18	10	0	0.1	0	0	370	0.3	369	370	14.6	67.2
2025-08-23T22:19	10	0	0.2	0	0	370	0.3	369	371	14.6	66.9
2025-08-23T22:20	10	0	0.1	-1	0	370	0.3	369	371	14.7	66.7
2025-08-23T22:21	10	0	0.1	0	1	370	0.3	370	371	14.7	66.3
2025-08-23T22:22	10	0	0.1	0	0	370	0.3	370	371	14.8	66.1
2025-08-23T22:23	10	0	0.1	-1	0	370	0.3	369	371	14.6	66.9
2025-08-23T22:24	10	0	0.1	0	0	370	0.4	369	371	14.6	66.6
2025-08-23T22:25	10	0	0.2	0	0	371	0.3	370	371	14.7	66.1
2025-08-23T22:26	10	0	0.1	0	0	370	0.2	370	371	14.8	65.9
2025-08-23T22:27	10	0	0.1	0	0	370	0.2	369	370	14.8	65.9
2025-08-23T22:28	10	0	0.1	0	0	370	0.3	369	370	14.7	66.2
2025-08-23T22:29	10	0	0.1	0	0	369	0.3	369	370	14.7	66.4
2025-08-23T22:30	10	0	0.2	0	0	369	0.3	368	369	14.6	66.6
2025-08-23T22:31	10	0	0.5	0	2	368	0.2	368	369	14.6	66.7
2025-08-23T22:32	10	0	0.1	0	0	368	0.2	368	369	14.6	66.7
2025-08-23T22:33	10	0	0.1	0	0	368	0.4	367	369	14.6	66.8
2025-08-23T22:34	10	0	0.1	0	0	367	0.2	367	367	14.6	66.7
2025-08-23T22:35	10	0	0.1	0	0	367	0.3	366	368	14.6	66.8
2025-08-23T22:36	10	0	0.1	0	0	367	0.2	366	367	14.6	66.8
2025-08-23T22:37	10	0	0.1	0	0	366	0.3	366	367	14.6	66.5
2025-08-23T22:38	10	0	0.1	0	0	367	0.2	366	367	14.6	66.6
2025-08-23T22:39	10	0	0.1	0	0	367	0.2	366	367	14.6	66.8
2025-08-23T22:40	10	0	0.1	-1	0	367	0.2	366	367	14.5	67.1
2025-08-23T22:41	10	0	0.1	0	0	367	0.1	367	367	14.5	67.5
2025-08-23T22:42	10	0	0.1	0	0	367	0.3	366	367	14.4	67.7
2025-08-23T22:43	10	0	0.1	0	0	366	0.2	366	367	14.3	68.2
2025-08-23T22:44	10	0	0.1	0	0	366	0.3	365	366	14.3	68.5
2025-08-23T22:45	10	0	0.1	0	0	365	0.3	364	366	14.2	68.8
2025-08-23T22:46	10	0	0.1	0	0	365	0.2	365	365	14.2	68.8
2025-08-23T22:47	10	0	0.1	0	0	365	0.3	364	365	14.0	70.1
2025-08-23T22:48	10	0	0.1	0	0	365	0.3	364	365	13.9	71.1
2025-08-23T22:49	10	0	0.1	0	0	364	0.3	364	365	13.8	71.6
2025-08-23T22:50	10	0	0.1	-1	0	364	0.2	364	364	13.7	71.9
2025-08-23T22:51	10	0	0.1	0	0	364	0.2	363	364	13.7	72.4
2025-08-23T22:52	10	0	0.1	0	0	363	0.3	363	364	13.7	72.0
2025-08-23T22:53	10	0	0.1	0	0	363	0.2	362	363	13.9	70.7
2025-08-23T22:54	10	0	0.1	0	0	363	0.2	362	363	13.9	70.7
2025-08-23T22:55	10	0	0.1	0	0	363	0.2	363	364	13.8	71.1
2025-08-23T22:56	10	0	0.1	0	0	363	0.5	363	364	13.8	71.1
2025-08-23T22:57	10	0	0.1	-1	0	364	0.2	364	365	13.9	70.0
2025-08-23T22:58	10	0	0.1	0	0	364	0.2	364	365	14.0	69.9
2025-08-23T22:59	10	0	0.1	0	0	365	0.4	364	365	14.0	70.0
2025-08-23T23:00	10	0	0.1	0	0	365	0.2	365	365	14.0	69.8
2025-08-23T23:01	10	0	0.1	0	0	365	0.2	364	365	14.1	69.5
2025-08-23T23:02	10	0	0.1	0	0	364	0.3	364	365	14.0	70.2
2025-08-23T23:03	10	0	0.1	0	0	364	0.2	364	364	13.9	70.8
2025-08-23T23:04	10	0	0.1	0	0	363	0.4	363	364	13.8	71.0
2025-08-23T23:05	10	0	0.1	0	0	363	0.3	362	363	13.6	73.3
2025-08-23T23:06	10	0	0.1	0	0	362	0.2	362	363	13.3	74.9
2025-08-23T23:07	10	0	0.1	0	0	362	0.2	361	362	13.2	75.6
2025-08-23T23:08	10	0	0.1	0	0	361	0.2	361	362	13.1	76.2
2025-08-23T23:09	10	0	0.1	0	0	361	0.2	360	361	13.0	76.3
2025-08-23T23:10	10	0	0.0	0	0	360	0.2	360	361	13.0	76.3
2025-08-23T23:11	10	0	0.1	0	0	361	0.3	360	361	13.0	76.2
2025-08-23T23:12	10	0	0.1	0	0	360	0.2	360	361	13.1	75.4
2025-08-23T23:13	10	0	0.1	0	0	360	0.2	360	361	13.0	76.4
2025-08-23T23:14	10	0	0.1	0	0	360	0.3	360	361	13.0	75.9
2025-08-23T23:15	10	0	0.1	0	0	360	0.3	360	361	13.1	75.7
2025-08-23T23:16	10	0	0.1	0	0	360	0.2	360	361	13.0	76.2
2025-08-23T23:17	10	0	0.1	0	0	360	0.2	360	361	12.9	76.7
2025-08-23T23:18	10	0	0.1	0	0	360	0.2	360	361	12.9	76.9
2025-08-23T23:19	10	0	0.0	0	0	361	0.3	360	361	12.8	77.6
2025-08-23T23:20	10	0	0.1	0	0	361	0.3	360	361	12.7	77.9
2025-08-23T23:21	10	0	0.0	0	0	361	0.2	360	361	12.7	78.1
2025-08-23T23:22	10	0	0.1	0	0	361	0.3	360	362	12.8	77.0
2025-08-23T23:23	10	0	0.1	0	0	361	0.4	360	362	13.1	74.7
2025-08-23T23:24	10	0	0.1	0	0	361	0.3	361	362	13.1	74.9
2025-08-23T23:25	10	0	0.1	0	0	361	0.2	361	361	13.1	74.6
2025-08-23T23:26	10	0	0.1	0	0	361	0.2	360	361	13.0	75.6
2025-08-23T23:27	10	0	0.1	0	0	361	0.2	360	361	12.9	76.1
2025-08-23T23:28	10	0	0.1	0	0	361	0.2	360	361	12.9	76.0
2025-08-23T23:29	10	0	0.1	0	0	361	0.2	360	361	13.0	75.9
2025-08-23T23:30	10	0	0.1	0	0	361	0.2	360	361	12.9	76.6
2025-08-23T23:31	10	0	0.1	0	0	360	0.3	360	361	12.8	77.0
2025-08-23T23:32	10	0	0.1	0	0	359	0.3	359	360	12.7	78.3
2025-08-23T23:33	10	0	0.1	0	0	359	0.4	358	359	12.6	79.4
2025-08-23T23:34	10	0	0.1	0	0	358	0.2	357	358	12.5	80.4
2025-08-23T23:35	10	0	0.1	0	0	358	0.2	357	358	12.4	80.7
2025-08-23T23:36	10	0	0.1	0	0	357	0.2	357	358	12.4	81.0
2025-08-23T23:37	10	0	0.1	0	0	358	0.2	357	358	12.3	80.8
2025-08-23T23:38	10	0	0.1	0	0	358	0.2	357	358	12.3	80.5
2025-08-23T23:39	10	0	0.1	0	0	358	0.3	357	358	12.3	80.3
2025-08-23T23:40	10	0	0.1	0	0	358	0.2	357	358	12.3	80.8
2025-08-23T23:41	10	0	0.1	0	0	358	0.2	357	359	12.2	81.1
2025-08-23T23:42	10	0	0.1	0	0	358	0.3	357	358	12.1	81.7
2025-08-23T23:43	10	0	0.1	-1	0	358	0.3	357	358	12.1	82.5
2025-08-23T23:44	10	0	0.1	0	0	357	0.2	357	358	12.0	83.2
2025-08-23T23:45	10	0	0.1	0	0	357	0.3	356	358	11.9	83.8
2025-08-23T23:46	10	0	0.1	0	0	357	0.3	357	358	11.8	85.3
2025-08-23T23:47	10	0	0.1	0	0	358	0.3	357	359	11.8	84.7
2025-08-23T23:48	10	0	0.1	0	0	358	0.4	357	359	12.0	82.6
2025-08-23T23:49	10	0	0.1	0	0	359	0.2	358	359	12.0	82.7
2025-08-23T23:50	10	0	0.1	0	0	359	0.3	358	359	11.9	82.5
2025-08-23T23:51	10	0	0.1	0	0	359	0.2	358	359	11.9	82.8
2025-08-23T23:52	10	0	0.1	0	0	358	0.2	358	359	11.8	83.5
2025-08-23T23:53	10	0	0.1	0	0	358	0.3	358	359	11.8	83.7
2025-08-23T23:54	10	0	0.1	0	0	358	0.2	358	359	11.7	84.0
2025-08-23T23:55	10	0	0.1	0	0	358	0.3	358	359	11.7	84.6
2025-08-23T23:56	10	0	0.1	0	0	358	0.2	358	359	11.6	85.1
2025-08-23T23:57	10	0	0.1	0	0	358	0.2	358	359	11.6	84.9
2025-08-23T23:58	10	0	0.1	0	0	358	0.3	357	359	11.7	84.0
2025-08-23T23:59	10	0	0.1	0	0	358	0.3	357	359	11.6	84.5
2025-08-24T00:00	10	0	0.1	0	0	358	0.2	358	359	11.6	85.0
2025-08-24T00:01	10	0	0.1	0	0	358	0.2	357	359	11.6	84.4
2025-08-24T00:02	10	0	0.1	0	0	357	0.2	357	358	11.7	83.4
2025-08-24T00:03	10	0	0.1	0	0	357	0.3	357	358	11.9	81.7
2025-08-24T00:04	10	0	0.1	0	0	358	0.2	357	358	12.3	79.6
2025-08-24T00:05	10	0	0.1	0	0	358	0.2	357	358	12.4	79.0
2025-08-24T00:06	10	0	0.1	0	0	358	0.3	357	359	12.4	78.7
2025-08-24T00:07	10	0	0.1	0	0	358	0.3	357	359	12.4	79.0
2025-08-24T00:08	10	0	0.0	0	0	358	0.3	357	358	12.3	79.3
2025-08-24T00:09	10	0	0.1	0	0	357	0.3	356	358	12.3	79.5
2025-08-24T00:10	10	0	0.1	0	0	357	0.3	356	357	12.1	80.6
2025-08-24T00:11	10	0	0.1	0	0	357	0.3	356	357	12.2	79.6
2025-08-24T00:12	10	0	0.0	0	0	357	0.2	356	357	12.3	79.1
2025-08-24T00:13	10	0	0.1	0	0	357	0.3	356	358	12.4	77.9
2025-08-24T00:14	10	0	0.0	0	0	357	0.3	356	357	12.5	77.3
2025-08-24T00:15	10	0	0.1	0	0	357	0.2	357	358	12.4	78.7
2025-08-24T00:16	10	0	0.1	0	0	357	0.3	357	358	12.3	78.4
2025-08-24T00:17	10	0	0.0	0	0	357	0.3	356	358	12.4	77.8
2025-08-24T00:18	10	0	0.1	0	0	357	0.2	356	357	12.4	77.7
2025-08-24T00:19	10	0	0.1	0	0	357	0.2	356	357	12.4	77.6
2025-08-24T00:20	10	0	0.1	0	0	357	0.2	356	357	12.5	77.5
2025-08-24T00:21	10	0	0.1	0	0	357	0.2	356	357	12.5	77.4
2025-08-24T00:22	10	0	0.1	0	0	356	0.3	356	357	12.4	77.8
2025-08-24T00:23	10	0	0.1	0	0	356	0.2	356	357	12.3	78.1
2025-08-24T00:24	10	0	0.1	0	0	356	0.3	355	357	12.3	78.6
2025-08-24T00:25	10	0	0.1	0	0	357	0.3	356	357	12.1	80.2
2025-08-24T00:26	10	0	0.1	0	0	357	0.3	357	358	12.2	79.3
2025-08-24T00:27	10	0	0.1	0	0	357	0.3	357	358	12.4	78.3
2025-08-24T00:28	10	0	0.1	0	0	357	0.3	356	357	12.4	77.5
2025-08-24T00:29	10	0	0.0	0	0	356	0.3	355	356	12.4	77.5
2025-08-24T00:30	10	0	0.1	0	0	356	0.3	355	356	12.4	77.5
2025-08-24T00:31	10	0	0.0	0	0	355	0.4	354	356	12.3	78.3
2025-08-24T00:32	10	0	0.1	0	0	355	0.2	354	355	12.2	79.8
2025-08-24T00:33	10	0	0.1	0	0	355	0.2	354	355	12.0	81.7
2025-08-24T00:34	10	0	0.1	0	0	354	0.2	354	355	11.8	82.2
2025-08-24T00:35	10	0	0.1	0	0	355	0.2	354	355	11.8	82.4
2025-08-24T00:36	10	0	0.0	0	0	354	0.2	354	355	11.8	82.2
2025-08-24T00:37	10	0	0.1	0	0	354	0.3	354	355	11.8	82.0
2025-08-24T00:38	10	0	0.1	0	0	355	0.3	354	355	11.9	81.3
2025-08-24T00:39	10	0	0.1	0	0	355	0.2	354	355	11.9	81.3
2025-08-24T00:40	10	0	0.1	0	0	355	0.2	354	355	11.9	80.9
2025-08-24T00:41	10	0	0.1	0	0	355	0.2	354	355	11.9	80.3
2025-08-24T00:42	10	0	0.1	0	0	355	0.2	354	355	12.0	80.0
2025-08-24T00:43	10	0	0.1	0	0	355	0.2	354	355	12.1	80.4
2025-08-24T00:44	10	0	0.1	0	0	354	0.3	354	355	12.1	80.6
2025-08-24T00:45	10	0	0.1	0	0	354	0.2	354	355	12.1	81.1
2025-08-24T00:46	10	0	0.1	0	0	354	0.2	353	354	12.1	81.9
2025-08-24T00:47	10	0	0.1	0	0	354	0.3	354	355	12.1	82.3
2025-08-24T00:48	10	0	0.1	0	0	355	0.2	355	356	11.9	82.5
2025-08-24T00:49	10	0	0.1	0	0	355	0.2	355	356	11.7	82.6
2025-08-24T00:50	10	0	0.1	0	0	356	0.2	355	356	11.7	82.8
2025-08-24T00:51	10	0	0.1	0	0	355	0.4	354	356	11.8	82.6
2025-08-24T00:52	10	0	0.1	0	0	355	0.3	354	355	11.7	82.4
2025-08-24T00:53	10	0	0.1	-1	0	354	0.2	354	355	11.7	82.4
2025-08-24T00:54	10	0	0.1	0	0	354	0.2	354	355	11.7	82.2
2025-08-24T00:55	10	0	0.1	0	0	354	0.3	354	355	11.7	82.0
2025-08-24T00:56	10	0	0.1	0	0	354	0.3	353	355	11.6	82.1
2025-08-24T00:57	10	0	0.1	0	0	354	0.3	354	355	11.6	81.9
2025-08-24T00:58	10	0	0.2	0	1	354	0.2	354	355	11.7	81.5
2025-08-24T00:59	10	0	0.1	-1	0	354	0.3	353	355	11.7	81.4
2025-08-24T01:00	10	0	0.1	-1	0	354	0.2	353	354	11.7	81.2
2025-08-24T01:01	10	0	0.1	-1	0	354	0.3	353	354	11.8	80.9
2025-08-24T01:02	10	0	0.1	0	0	354	0.2	353	354	11.9	80.6
2025-08-24T01:03	10	0	0.1	-1	0	354	0.2	353	355	12.0	80.7
2025-08-24T01:04	10	0	0.1	-1	0	354	0.2	353	354	12.1	81.3
2025-08-24T01:05	10	0	0.1	0	0	354	0.2	353	354	12.2	81.6
2025-08-24T01:06	10	0	0.1	0	0	354	0.2	353	354	12.2	81.4
2025-08-24T01:07	10	0	0.1	-1	0	354	0.2	353	355	12.2	81.5
2025-08-24T01:08	10	0	0.2	-1	0	354	0.2	353	354	12.2	81.6
2025-08-24T01:09	10	0	0.1	0	0	354	0.3	354	355	12.1	81.7
2025-08-24T01:10	10	0	0.1	-1	0	354	0.3	353	355	12.1	81.9
2025-08-24T01:11	10	0	0.2	-1	0	354	0.3	353	354	12.1	82.0
2025-08-24T01:12	10	0	0.1	-1	0	354	0.3	353	355	12.0	82.1
2025-08-24T01:13	10	0	0.1	-1	0	354	0.3	354	355	12.0	81.8
2025-08-24T01:14	10	0	0.1	-1	0	354	0.3	354	355	11.9	82.2
2025-08-24T01:15	10	0	0.1	-1	0	354	0.2	354	355	11.9	81.9
2025-08-24T01:16	10	0	0.1	0	0	354	0.2	354	354	11.9	81.3
2025-08-24T01:17	10	0	0.1	-1	0	354	0.2	354	355	11.8	80.9
2025-08-24T01:18	10	0	0.1	0	0	354	0.2	354	355	11.8	81.4
2025-08-24T01:19	10	0	0.1	0	0	354	0.3	353	355	11.9	81.6
2025-08-24T01:20	10	0	0.1	0	0	354	0.2	353	354	11.9	80.9
2025-08-24T01:21	10	0	0.1	-1	0	353	0.2	353	354	11.8	81.3
2025-08-24T01:22	10	0	0.1	0	0	354	0.2	353	354	11.9	81.8
2025-08-24T01:23	10	0	0.1	0	0	354	0.2	354	354	11.9	81.3
2025-08-24T01:24	10	0	0.1	0	0	354	0.2	353	354	11.8	80.8
2025-08-24T01:25	10	0	0.1	0	0	353	0.2	353	354	11.7	81.4
2025-08-24T01:26	10	0	0.1	0	0	354	0.2	353	354	11.5	81.9
2025-08-24T01:27	10	0	0.1	0	0	354	0.3	353	354	11.6	82.0
2025-08-24T01:28	10	0	0.1	0	0	354	0.3	353	354	11.6	81.7
2025-08-24T01:29	10	0	0.1	0	0	353	0.2	353	354	11.6	81.7
2025-08-24T01:30	10	0	0.1	0	0	353	0.2	353	354	11.6	81.6
2025-08-24T01:31	10	0	0.0	0	0	353	0.2	352	354	11.6	81.8
2025-08-24T01:32	10	0	0.1	0	0	353	0.2	353	353	11.6	81.9
2025-08-24T01:33	10	0	0.1	0	0	353	0.3	353	354	11.6	81.8
2025-08-24T01:34	10	0	0.1	0	0	354	0.2	353	354	11.7	81.7
2025-08-24T01:35	10	0	0.1	0	0	354	0.2	353	354	11.7	81.5
2025-08-24T01:36	10	0	0.1	0	0	353	0.2	353	354	11.8	81.6
2025-08-24T01:37	10	0	0.1	0	0	353	0.3	352	354	11.9	81.6
2025-08-24T01:38	10	0	0.1	0	0	353	0.2	353	353	11.9	81.3
2025-08-24T01:39	10	0	0.1	0	0	353	0.2	352	353	11.8	81.3
2025-08-24T01:40	10	0	0.1	0	0	353	0.2	353	354	11.9	81.3
2025-08-24T01:41	10	0	0.1	-1	0	353	0.2	353	354	12.0	81.4
2025-08-24T01:42	10	0	0.1	0	0	353	0.2	353	354	12.0	81.2
2025-08-24T01:43	10	0	0.1	0	0	353	0.3	352	353	11.8	81.0
2025-08-24T01:44	10	0	0.1	0	0	353	0.2	353	354	11.8	81.6
2025-08-24T01:45	10	0	0.1	0	0	353	0.2	352	353	11.9	81.5
2025-08-24T01:46	10	0	0.1	0	0	353	0.2	352	353	11.9	81.0
2025-08-24T01:47	10	0	0.1	0	0	352	0.3	352	353	11.8	81.3
2025-08-24T01:48	10	0	0.1	0	0	352	0.2	352	353	11.6	82.4
2025-08-24T01:49	10	0	0.1	0	0	352	0.2	351	352	11.5	83.3
2025-08-24T01:50	10	0	0.1	0	0	352	0.2	351	352	11.3	84.7
2025-08-24T01:51	10	0	0.0	0	0	352	0.2	351	352	11.2	85.2
2025-08-24T01:52	10	0	0.1	0	0	352	0.3	351	352	11.2	85.1
2025-08-24T01:53	10	0	0.1	0	0	352	0.3	352	353	11.2	84.8
2025-08-24T01:54	10	0	0.1	0	0	352	0.2	352	353	11.4	83.5
2025-08-24T01:55	10	0	0.1	0	0	352	0.2	352	353	11.4	83.3
2025-08-24T01:56	10	0	0.1	0	0	352	0.2	352	353	11.4	83.3
2025-08-24T01:57	10	0	0.1	0	0	352	0.2	352	353	11.3	83.7
2025-08-24T01:58	10	0	0.1	0	0	352	0.2	351	352	11.2	84.4
2025-08-24T01:59	10	0	0.1	0	0	351	0.2	351	352	11.2	84.4
2025-08-24T02:00	10	0	0.1	0	0	351	0.2	351	352	11.1	85.4
2025-08-24T02:01	10	0	0.1	0	0	352	0.4	351	353	11.0	86.2
2025-08-24T02:02	10	0	0.1	0	0	353	0.3	352	353	11.1	85.2
2025-08-24T02:03	10	0	0.1	0	0	353	0.2	352	353	11.1	85.5
2025-08-24T02:04	10	0	0.1	0	0	352	0.2	352	353	11.0	86.1
2025-08-24T02:05	10	0	0.1	0	0	352	0.3	351	353	11.0	86.7
2025-08-24T02:06	10	0	0.1	0	0	352	0.2	351	352	10.9	87.3
2025-08-24T02:07	10	0	0.1	0	0	351	0.2	351	352	10.9	87.7
2025-08-24T02:08	10	0	0.1	0	0	351	0.2	351	352	10.9	87.0
2025-08-24T02:09	10	0	0.1	0	0	351	0.2	351	352	10.9	86.9
2025-08-24T02:10	10	0	0.1	0	0	351	0.2	350	351	10.9	87.1
2025-08-24T02:11	10	0	0.1	0	0	351	0.2	350	351	10.9	86.9
2025-08-24T02:12	10	0	0.1	0	0	350	0.2	350	351	10.9	86.7
2025-08-24T02:13	10	0	0.1	0	0	351	0.2	350	351	10.9	86.2
2025-08-24T02:14	10	0	0.1	0	0	351	0.2	350	351	10.9	86.5
2025-08-24T02:15	10	0	0.1	0	0	351	0.2	350	351	10.9	86.9
2025-08-24T02:16	10	0	0.1	0	0	351	0.3	350	351	10.9	86.9
2025-08-24T02:17	10	0	0.0	0	0	351	0.3	350	352	10.9	86.7
2025-08-24T02:18	10	0	0.1	-1	0	352	0.3	351	352	10.9	86.9
2025-08-24T02:19	10	0	0.1	0	0	352	0.2	352	352	10.8	87.9
2025-08-24T02:20	10	0	0.1	0	0	352	0.2	352	352	10.7	89.1
2025-08-24T02:21	10	0	0.1	0	0	352	0.2	351	352	10.6	89.8
2025-08-24T02:22	10	0	0.1	0	0	351	0.2	351	352	10.7	89.8
2025-08-24T02:23	10	0	0.1	0	0	351	0.2	351	352	10.7	89.2
2025-08-24T02:24	10	0	0.1	0	0	351	0.2	351	352	10.8	88.2
2025-08-24T02:25	10	0	0.1	0	0	351	0.3	350	351	10.8	87.9
2025-08-24T02:26	10	0	0.1	0	0	351	0.2	350	351	10.8	88.9
2025-08-24T02:27	10	0	0.1	0	0	351	0.2	350	352	10.8	87.9
2025-08-24T02:28	10	0	0.1	0	0	351	0.3	350	352	10.8	88.6
2025-08-24T02:29	10	0	0.1	0	0	351	0.2	351	352	10.6	89.8
2025-08-24T02:30	10	0	0.1	0	0	352	0.2	351	352	10.6	89.3
2025-08-24T02:31	10	0	0.1	0	0	351	0.3	351	352	10.7	88.7
2025-08-24T02:32	10	0	0.1	0	0	351	0.2	350	351	10.7	87.2
2025-08-24T02:33	10	0	0.1	0	0	351	0.2	350	352	10.7	87.4
2025-08-24T02:34	10	0	0.0	0	0	351	0.2	350	351	10.7	87.9
2025-08-24T02:35	10	0	0.1	0	0	351	0.2	350	351	10.7	87.4
2025-08-24T02:36	10	0	0.1	0	0	351	0.2	350	351	10.8	87.1
2025-08-24T02:37	10	0	0.1	0	0	350	0.2	350	351	10.7	86.5
2025-08-24T02:38	10	0	0.1	0	0	351	0.2	350	351	10.6	87.7
2025-08-24T02:39	10	0	0.1	0	0	351	0.2	350	351	10.7	87.0
2025-08-24T02:40	10	0	0.1	0	0	351	0.3	351	352	10.8	86.7
2025-08-24T02:41	10	0	0.1	0	0	351	0.2	351	351	10.9	85.9
2025-08-24T02:42	10	0	0.1	0	0	350	0.4	350	351	10.8	86.6
2025-08-24T02:43	10	0	0.1	0	0	350	0.2	349	350	10.6	87.3
2025-08-24T02:44	10	0	0.1	0	0	350	0.2	349	350	10.5	87.5
2025-08-24T02:45	10	0	0.1	0	0	350	0.2	349	350	10.5	88.0
2025-08-24T02:46	10	0	0.1	0	0	350	0.3	349	350	10.5	88.1
2025-08-24T02:47	10	0	0.1	-1	0	349	0.4	348	350	10.4	88.7
2025-08-24T02:48	10	0	0.1	0	0	349	0.2	348	349	10.3	89.5
2025-08-24T02:49	10	0	0.1	0	0	349	0.2	348	349	10.3	89.5
2025-08-24T02:50	10	0	0.1	0	0	349	0.3	348	349	10.3	89.4
2025-08-24T02:51	10	0	0.1	-1	0	349	0.2	348	350	10.3	89.2
2025-08-24T02:52	10	0	0.1	-1	0	349	0.2	349	350	10.4	88.8
2025-08-24T02:53	10	0	0.1	-1	0	349	0.3	349	350	10.4	88.7
2025-08-24T02:54	10	0	0.1	-1	0	350	0.2	349	350	10.6	87.7
2025-08-24T02:55	10	0	0.1	-1	0	349	0.2	349	350	10.7	86.8
2025-08-24T02:56	10	0	0.1	0	0	349	0.2	349	350	10.6	87.1
2025-08-24T02:57	10	0	0.1	-1	0	349	0.3	349	350	10.5	88.2
2025-08-24T02:58	10	0	0.1	-1	0	349	0.3	348	349	10.5	88.3
2025-08-24T02:59	10	0	0.1	-1	0	348	0.3	348	349	10.3	89.6
2025-08-24T03:00	10	0	0.1	0	0	349	0.3	349	350	10.2	90.3
2025-08-24T03:01	10	0	0.1	0	0	349	0.3	348	350	10.2	90.7
2025-08-24T03:02	10	0	0.1	-1	0	349	0.2	349	350	10.2	90.2
2025-08-24T03:03	10	0	0.1	-1	0	349	0.2	349	350	10.2	90.4
2025-08-24T03:04	10	0	0.1	-1	0	349	0.2	349	350	10.1	91.4
2025-08-24T03:05	10	0	0.1	-1	0	349	0.2	348	349	10.1	91.5
2025-08-24T03:06	10	0	0.1	-1	0	349	0.2	348	349	10.1	91.5
2025-08-24T03:07	10	0	0.1	0	0	349	0.2	348	349	10.0	91.3
2025-08-24T03:08	10	0	0.1	0	0	349	0.2	348	349	10.0	90.8
2025-08-24T03:09	10	0	0.1	0	0	349	0.3	348	349	10.0	90.4
2025-08-24T03:10	10	0	0.1	-1	0	349	0.3	348	349	10.1	90.2
2025-08-24T03:11	10	0	0.1	0	0	349	0.2	348	349	10.2	89.9
2025-08-24T03:12	10	0	0.1	-1	0	349	0.3	348	349	10.2	89.5
2025-08-24T03:13	10	0	0.1	0	0	349	0.3	348	350	10.3	89.2
2025-08-24T03:14	10	0	0.1	-1	0	349	0.2	349	350	10.3	89.0
2025-08-24T03:15	10	0	0.1	-1	0	348	0.4	347	349	10.3	89.1
2025-08-24T03:16	10	0	0.1	0	0	348	0.2	348	349	10.1	89.8
2025-08-24T03:17	10	0	0.1	-1	0	348	0.2	348	349	10.1	90.5
2025-08-24T03:18	10	0	0.1	-1	0	349	0.3	348	349	10.2	89.4
2025-08-24T03:19	10	0	0.1	-1	0	349	0.2	348	349	10.4	88.3
2025-08-24T03:20	10	0	0.1	-1	0	348	0.2	347	348	10.4	87.9
2025-08-24T03:21	10	0	0.1	0	0	348	0.3	347	349	10.4	88.0
2025-08-24T03:22	10	0	0.1	-1	0	348	0.2	347	349	10.4	88.1
2025-08-24T03:23	10	0	0.1	-1	0	348	0.3	348	349	10.5	87.6
2025-08-24T03:24	10	0	0.1	-1	0	348	0.3	348	349	10.7	86.5
2025-08-24T03:25	10	0	0.1	-1	0	348	0.2	348	349	10.5	87.9
2025-08-24T03:26	10	0	0.1	0	0	348	0.2	348	348	10.3	89.1
2025-08-24T03:27	10	0	0.1	-1	0	348	0.2	348	349	10.1	90.0
2025-08-24T03:28	10	0	0.1	0	0	349	0.2	348	349	10.1	90.3
2025-08-24T03:29	10	0	0.1	0	0	348	0.3	347	349	10.1	90.0
2025-08-24T03:30	10	0	0.1	0	0	348	0.2	347	348	10.1	90.3
2025-08-24T03:31	10	0	0.1	0	0	348	0.2	347	348	10.0	91.0
2025-08-24T03:32	10	0	0.1	0	0	348	0.3	347	348	9.9	91.8
2025-08-24T03:33	10	0	0.1	0	0	348	0.3	347	348	9.9	91.8
2025-08-24T03:34	10	0	0.1	-1	0	348	0.2	347	348	10.0	91.4
2025-08-24T03:35	10	0	0.1	-1	0	347	0.1	347	348	10.0	91.1
2025-08-24T03:36	10	0	0.1	0	0	347	0.2	347	348	10.0	91.0
2025-08-24T03:37	10	0	0.1	-1	0	347	0.2	347	348	9.9	91.4
2025-08-24T03:38	10	0	0.1	-1	0	347	0.2	347	348	9.8	91.9
2025-08-24T03:39	10	0	0.1	0	0	347	0.2	347	348	9.8	91.9
2025-08-24T03:40	10	0	0.1	-1	0	347	0.3	346	348	9.8	92.1
2025-08-24T03:41	10	0	0.1	-1	0	347	0.2	347	348	9.9	92.1
2025-08-24T03:42	10	0	0.1	0	0	348	0.2	347	348	9.9	92.1
2025-08-24T03:43	10	0	0.1	-1	0	347	0.2	347	348	9.9	92.0
2025-08-24T03:44	10	0	0.1	-1	0	347	0.2	346	348	9.7	92.4
2025-08-24T03:45	10	0	0.1	-1	0	347	0.3	346	348	9.7	92.3
2025-08-24T03:46	10	0	0.1	-1	0	347	0.3	347	348	9.8	92.6
2025-08-24T03:47	10	0	0.1	-1	0	348	0.2	347	348	9.8	92.2
2025-08-24T03:48	10	0	0.1	-1	0	348	0.3	347	349	9.8	90.9
2025-08-24T03:49	10	0	0.1	-1	0	348	0.2	348	349	9.9	90.0
2025-08-24T03:50	10	0	0.1	-1	0	348	0.2	348	349	9.9	89.7
2025-08-24T03:51	10	0	0.1	-1	0	348	0.2	348	349	9.8	89.9
2025-08-24T03:52	10	0	0.1	-1	0	348	0.2	347	348	9.7	90.4
2025-08-24T03:53	10	0	0.0	0	0	348	0.3	347	349	9.8	90.1
2025-08-24T03:54	10	0	0.1	-1	0	348	0.3	348	349	9.8	90.5
2025-08-24T03:55	10	0	0.1	-1	0	348	0.2	348	349	10.1	88.9
2025-08-24T03:56	10	0	0.1	-1	0	348	0.3	347	349	10.3	87.3
2025-08-24T03:57	10	0	0.1	-1	0	347	0.3	347	348	10.3	87.1
2025-08-24T03:58	10	0	0.1	-1	0	347	0.4	347	348	10.3	87.3
2025-08-24T03:59	10	0	0.1	0	0	347	0.3	347	348	10.2	87.2
2025-08-24T04:00	10	0	0.1	-1	0	347	0.2	347	347	10.3	86.4
2025-08-24T04:01	10	0	0.1	0	0	347	0.2	347	348	10.3	86.1
2025-08-24T04:02	10	0	0.1	-1	0	347	0.3	346	348	10.3	86.0
2025-08-24T04:03	10	0	0.1	-1	0	347	0.2	346	348	10.3	86.2
2025-08-24T04:04	10	0	0.1	0	0	347	0.2	347	348	10.3	86.3
2025-08-24T04:05	10	0	0.1	-1	0	348	0.3	347	348	10.3	86.1
2025-08-24T04:06	10	0	0.1	-1	0	348	0.2	347	348	10.4	85.9
2025-08-24T04:07	10	0	0.1	0	0	348	0.2	348	348	10.3	87.2
2025-08-24T04:08	10	0	0.1	0	0	348	0.3	347	349	10.0	90.1
2025-08-24T04:09	10	0	0.1	-1	0	348	0.2	348	349	9.9	90.8
2025-08-24T04:10	10	0	0.1	0	0	348	0.3	347	349	9.8	91.2
2025-08-24T04:11	10	0	0.1	-1	0	347	0.2	347	348	9.8	91.2
2025-08-24T04:12	10	0	0.1	-1	0	347	0.2	347	347	9.8	91.3
2025-08-24T04:13	10	0	0.1	-1	0	347	0.2	346	347	9.8	90.8
2025-08-24T04:14	10	0	0.1	-1	0	347	0.3	346	347	9.8	90.5
2025-08-24T04:15	10	0	0.1	-1	0	346	0.2	345	347	9.9	90.2
2025-08-24T04:16	10	0	0.1	0	0	346	0.2	345	346	9.9	90.1
2025-08-24T04:17	10	0	0.1	0	0	346	0.2	345	347	9.9	90.3
2025-08-24T04:18	10	0	0.1	-1	0	346	0.2	345	346	9.9	90.4
2025-08-24T04:19	10	0	0.1	-1	0	346	0.2	346	346	9.9	90.5
2025-08-24T04:20	10	0	0.1	-1	0	345	0.2	345	346	9.9	91.2
2025-08-24T04:21	10	0	0.1	0	0	345	0.2	345	346	9.8	92.2
2025-08-24T04:22	10	0	0.1	0	0	345	0.2	345	346	9.7	92.9
2025-08-24T04:23	10	0	0.1	0	0	346	0.3	345	346	9.7	93.2
2025-08-24T04:24	10	0	0.0	0	0	345	0.2	345	346	9.7	92.3
2025-08-24T04:25	10	0	0.1	0	0	346	0.2	345	346	9.6	92.8
2025-08-24T04:26	10	0	0.1	0	0	346	0.2	345	346	9.6	92.6
2025-08-24T04:27	10	0	0.1	0	0	346	0.2	345	346	9.6	92.7
2025-08-24T04:28	10	0	0.1	0	0	345	0.2	345	346	9.6	92.6
2025-08-24T04:29	10	0	0.1	0	0	345	0.2	344	345	9.5	93.3
2025-08-24T04:30	10	0	0.1	0	0	345	0.2	344	345	9.4	93.8
2025-08-24T04:31	10	0	0.1	0	0	345	0.2	344	345	9.4	93.6
2025-08-24T04:32	10	0	0.1	0	0	345	0.3	344	345	9.4	93.4
2025-08-24T04:33	10	0	0.1	0	0	345	0.2	344	345	9.3	93.5
2025-08-24T04:34	10	0	0.1	0	0	345	0.2	344	345	9.3	93.6
2025-08-24T04:35	10	0	0.1	0	0	345	0.3	344	345	9.4	93.4
2025-08-24T04:36	10	0	0.1	0	0	345	0.3	345	346	9.4	93.2
2025-08-24T04:37	10	0	0.1	0	0	345	0.2	345	346	9.3	93.0
2025-08-24T04:38	10	0	0.1	0	1	345	0.2	345	346	9.3	93.0
2025-08-24T04:39	10	0	0.1	0	0	345	0.2	345	346	9.2	93.0
2025-08-24T04:40	10	0	0.1	0	1	345	0.2	345	346	9.3	92.8
2025-08-24T04:41	10	0	0.0	0	0	345	0.2	344	345	9.2	93.1
2025-08-24T04:42	10	0	0.1	0	1	345	0.2	344	345	9.2	93.1
2025-08-24T04:43	10	0	0.1	0	1	345	0.2	345	345	9.3	92.9
2025-08-24T04:44	10	0	0.1	0	1	345	0.3	344	346	9.3	92.9
2025-08-24T04:45	10	1	0.1	0	1	345	0.3	345	346	9.2	93.1
2025-08-24T04:46	10	1	0.1	0	1	346	0.2	345	346	9.2	93.1
2025-08-24T04:47	10	1	0.1	1	1	346	0.2	345	346	9.2	93.1
2025-08-24T04:48	10	1	0.1	1	1	345	0.3	345	346	9.2	93.1
2025-08-24T04:49	10	1	0.2	1	1	345	0.3	345	346	9.2	92.8
2025-08-24T04:50	10	1	0.1	1	1	345	0.2	344	345	9.2	92.7
2025-08-24T04:51	10	1	0.1	1	1	345	0.2	344	345	9.1	92.8
2025-08-24T04:52	10	1	0.2	1	2	345	0.3	344	346	9.2	92.6
2025-08-24T04:53	10	2	0.1	1	2	345	0.3	345	347	9.2	92.6
2025-08-24T04:54	10	2	0.2	2	2	345	0.3	345	346	9.2	92.4
2025-08-24T04:55	10	2	0.2	2	3	346	0.3	345	347	9.3	92.0
2025-08-24T04:56	10	3	0.2	2	3	347	0.4	346	347	9.3	92.0
2025-08-24T04:57	10	3	0.2	3	3	347	0.3	347	348	9.3	92.0
2025-08-24T04:58	10	3	0.2	3	4	347	0.3	346	348	9.3	91.8
2025-08-24T04:59	10	3	0.2	3	4	347	0.3	347	348	9.3	91.6
2025-08-24T05:00	10	4	0.2	3	4	347	0.3	346	347	9.3	91.7
2025-08-24T05:01	10	4	0.2	4	4	347	0.3	346	347	9.2	92.0
2025-08-24T05:02	10	4	0.1	4	5	347	0.3	346	347	9.1	92.3
2025-08-24T05:03	10	5	0.2	4	5	347	0.3	347	348	9.1	92.4
2025-08-24T05:04	10	5	0.2	5	5	347	0.3	347	348	9.1	92.6
2025-08-24T05:05	10	5	0.2	5	6	348	0.3	347	348	9.0	92.8
2025-08-24T05:06	10	6	0.2	5	6	348	0.3	348	349	9.0	93.0
2025-08-24T05:07	10	6	0.2	6	7	349	0.3	348	349	9.0	92.9
2025-08-24T05:08	10	7	0.2	6	7	349	0.2	348	349	9.0	92.8
2025-08-24T05:09	10	7	0.2	7	8	349	0.3	348	350	9.0	92.9
2025-08-24T05:10	10	8	0.2	7	8	350	0.4	349	351	9.0	93.1
2025-08-24T05:11	10	8	0.2	8	9	350	0.2	349	350	9.1	93.2
2025-08-24T05:12	10	9	0.2	8	9	350	0.3	350	351	9.1	93.3
2025-08-24T05:13	10	9	0.2	9	10	351	0.3	350	352	9.3	92.8
2025-08-24T05:14	10	10	0.2	9	10	351	0.3	351	352	9.5	92.2
2025-08-24T05:15	10	10	0.2	10	10	352	0.3	351	352	9.5	91.6
2025-08-24T05:16	10	11	0.2	10	11	352	0.3	351	352	9.5	91.2
2025-08-24T05:17	10	11	0.2	11	11	352	0.2	352	353	9.5	91.1
2025-08-24T05:18	10	12	0.3	11	12	352	0.3	351	353	9.5	91.2
2025-08-24T05:19	10	12	0.2	12	13	353	0.3	352	354	9.6	90.9
2025-08-24T05:20	10	13	0.2	12	13	353	0.3	353	354	9.6	90.6
2025-08-24T05:21	10	13	0.2	13	14	354	0.3	353	355	9.7	90.2
2025-08-24T05:22	10	14	0.2	13	14	354	0.3	354	355	9.7	90.2
2025-08-24T05:23	10	14	0.2	14	15	354	0.2	354	355	9.6	90.7
2025-08-24T05:24	10	15	0.2	14	15	355	0.4	354	355	9.6	90.8
2025-08-24T05:25	10	15	0.2	15	16	355	0.3	355	356	9.9	89.8
2025-08-24T05:26	10	16	0.2	15	16	355	0.2	355	356	10.0	88.8
2025-08-24T05:27	10	17	0.2	16	17	356	0.2	355	356	9.9	89.0
2025-08-24T05:28	10	17	0.2	17	18	356	0.2	355	357	9.8	89.6
2025-08-24T05:29	10	18	0.2	17	18	356	0.3	356	357	9.8	90.7
2025-08-24T05:30	10	18	0.2	18	19	357	0.2	356	357	9.8	90.9
2025-08-24T05:31	10	19	0.2	18	19	358	0.3	357	359	9.9	89.8
2025-08-24T05:32	10	20	0.2	19	20	358	0.3	357	359	10.1	88.1
2025-08-24T05:33	10	20	0.2	20	21	359	0.3	358	360	10.4	86.8
2025-08-24T05:34	10	21	0.2	20	21	359	0.2	359	360	10.4	86.3
2025-08-24T05:35	10	21	0.2	21	22	360	0.2	359	360	10.5	86.1
2025-08-24T05:36	10	22	0.2	22	22	360	0.2	360	361	10.5	86.2
2025-08-24T05:37	10	22	0.2	22	23	361	0.2	360	361	10.4	87.1
2025-08-24T05:38	10	23	0.2	23	23	361	0.2	360	361	10.4	89.7
2025-08-24T05:39	10	24	0.2	23	24	361	0.3	360	362	10.3	90.5
2025-08-24T05:40	10	24	0.2	24	25	362	0.3	361	362	10.4	89.6
2025-08-24T05:41	10	25	0.2	24	25	362	0.2	362	363	10.6	88.5
2025-08-24T05:42	10	26	0.3	25	26	362	0.3	362	363	10.6	88.5
2025-08-24T05:43	10	26	0.2	26	27	363	0.2	362	363	10.8	87.7
2025-08-24T05:44	10	27	0.1	27	27	363	0.2	363	364	10.7	86.8
2025-08-24T05:45	10	27	0.2	27	28	364	0.2	363	364	10.6	86.1
2025-08-24T05:46	10	28	0.2	27	28	364	0.3	363	365	10.7	85.5
2025-08-24T05:47	10	28	0.2	28	29	365	0.2	364	365	10.7	85.4
2025-08-24T05:48	10	29	0.2	29	29	365	0.2	365	366	10.8	85.1
2025-08-24T05:49	10	30	0.2	29	30	366	0.3	365	366	10.8	84.6
2025-08-24T05:50	10	30	0.2	30	31	366	0.2	366	367	10.9	84.1
2025-08-24T05:51	10	31	0.2	31	31	367	0.2	366	367	10.9	84.8
2025-08-24T05:52	10	31	0.2	31	32	367	0.3	366	367	11.0	85.7
2025-08-24T05:53	10	32	0.1	32	32	367	0.2	367	368	10.9	85.8
2025-08-24T05:54	10	32	0.1	32	33	368	0.2	367	368	11.0	85.8
2025-08-24T05:55	10	33	0.2	33	33	368	0.2	368	369	11.1	85.7
2025-08-24T05:56	10	33	0.1	33	33	368	0.2	368	369	11.1	84.5
2025-08-24T05:57	10	34	0.1	33	34	369	0.2	368	369	11.1	84.9
2025-08-24T05:58	10	34	0.1	34	34	369	0.2	368	369	11.1	84.7
2025-08-24T05:59	10	34	0.1	34	35	369	0.3	369	370	11.1	84.6
2025-08-24T06:00	10	35	0.1	35	35	369	0.2	369	370	11.1	84.8
2025-08-24T06:01	10	35	0.1	35	35	370	0.2	369	370	11.1	85.4
2025-08-24T06:02	10	35	0.1	35	36	370	0.2	370	371	11.1	86.6
2025-08-24T06:03	10	36	0.1	36	36	371	0.2	370	371	11.1	85.8
2025-08-24T06:04	10	36	0.2	36	37	371	0.2	370	371	11.2	84.3
2025-08-24T06:05	10	37	0.1	36	37	371	0.2	371	371	11.2	84.4
2025-08-24T06:06	10	37	0.2	37	37	371	0.2	370	371	11.3	84.1
2025-08-24T06:07	10	38	0.2	37	38	371	0.3	371	372	11.3	84.0
2025-08-24T06:08	10	38	0.2	38	39	372	0.4	372	373	11.3	84.1
2025-08-24T06:09	10	39	0.2	38	39	373	0.2	372	373	11.3	85.0
2025-08-24T06:10	10	39	0.2	39	40	373	0.3	372	374	11.4	86.1
2025-08-24T06:11	10	40	0.2	40	40	373	0.3	373	374	11.4	85.7
2025-08-24T06:12	10	41	0.2	40	41	374	0.2	374	374	11.6	86.7
2025-08-24T06:13	10	41	0.2	41	42	374	0.2	374	375	11.6	87.1
2025-08-24T06:14	10	42	0.2	42	42	375	0.2	374	375	11.5	85.8
2025-08-24T06:15	10	42	0.2	42	43	375	0.2	374	375	11.5	85.3
2025-08-24T06:16	10	43	0.2	43	43	375	0.3	374	376	11.6	85.2
2025-08-24T06:17	10	44	0.2	43	44	375	0.2	375	376	11.6	86.7
2025-08-24T06:18	10	44	0.2	44	45	376	0.3	375	376	11.6	86.3
2025-08-24T06:19	10	45	0.2	45	45	376	0.2	376	377	11.6	84.8
2025-08-24T06:20	10	45	0.2	45	46	376	0.3	376	377	11.7	83.9
2025-08-24T06:21	10	46	0.2	46	46	376	0.2	376	377	11.7	82.7
2025-08-24T06:22	10	47	0.2	46	47	377	0.2	376	377	11.7	82.4
2025-08-24T06:23	10	47	0.2	47	48	377	0.3	377	378	11.7	82.8
2025-08-24T06:24	10	48	0.2	47	48	378	0.2	377	378	11.7	83.5
2025-08-24T06:25	10	48	0.2	48	49	378	0.2	377	378	11.8	82.8
2025-08-24T06:26	10	49	0.2	49	50	378	0.2	377	378	11.8	82.3
2025-08-24T06:27	10	50	0.2	49	50	378	0.4	378	379	11.8	82.8
2025-08-24T06:28	10	50	0.2	50	51	379	0.2	379	380	11.9	83.9
2025-08-24T06:29	10	51	0.2	50	51	380	0.3	379	380	11.9	84.1
2025-08-24T06:30	10	51	0.2	51	52	379	0.4	379	380	11.9	83.3
2025-08-24T06:31	10	52	0.2	51	52	379	0.2	379	380	11.9	82.9
2025-08-24T06:32	10	52	0.2	52	52	380	0.3	379	380	11.9	83.3
2025-08-24T06:33	10	53	0.2	52	53	381	0.4	380	381	11.9	84.3
2025-08-24T06:34	10	53	0.2	53	54	381	0.2	380	381	11.9	84.4
2025-08-24T06:35	10	54	0.2	53	54	381	0.2	381	382	11.9	84.3
2025-08-24T06:36	10	54	0.2	54	55	382	0.3	381	382	12.0	85.1
2025-08-24T06:37	10	55	0.2	54	55	382	0.2	382	383	12.0	84.3
2025-08-24T06:38	10	55	0.2	55	56	382	0.2	382	383	12.1	83.5
2025-08-24T06:39	10	56	0.2	56	56	383	0.3	382	383	12.1	82.7
2025-08-24T06:40	10	57	0.2	56	57	383	0.2	383	384	12.2	81.4
2025-08-24T06:41	10	57	0.2	57	58	383	0.3	383	384	12.3	82.0
2025-08-24T06:42	10	58	0.2	57	58	384	0.4	383	384	12.3	81.7
2025-08-24T06:43	10	58	0.2	58	59	384	0.2	383	385	12.3	81.3
2025-08-24T06:44	10	59	0.2	58	59	385	0.3	384	385	12.4	81.1
2025-08-24T06:45	10	59	0.2	59	60	385	0.3	385	386	12.3	80.3
2025-08-24T06:46	10	60	0.2	59	60	386	0.2	385	386	12.2	80.8
2025-08-24T06:47	10	60	0.2	60	61	386	0.2	386	387	12.3	80.9
2025-08-24T06:48	10	61	0.2	61	61	386	0.2	386	387	12.4	82.4
2025-08-24T06:49	10	62	0.2	61	62	386	0.2	386	387	12.4	81.4
2025-08-24T06:50	10	62	0.2	62	62	387	0.2	386	387	12.4	79.4
2025-08-24T06:51	10	63	0.2	62	63	387	0.2	386	387	12.5	79.4
2025-08-24T06:52	10	63	0.2	63	63	387	0.3	387	388	12.5	78.7
2025-08-24T06:53	10	64	0.2	63	64	387	0.2	387	388	12.4	78.5
2025-08-24T06:54	10	64	0.2	64	65	387	0.4	386	388	12.5	79.3
2025-08-24T06:55	10	65	0.2	65	65	388	0.3	387	388	12.6	80.2
2025-08-24T06:56	10	66	0.2	65	66	388	0.2	388	389	12.6	80.0
2025-08-24T06:57	10	66	0.2	66	67	389	0.2	388	389	12.6	79.4
2025-08-24T06:58	10	67	0.2	67	67	389	0.3	389	390	12.7	79.6
2025-08-24T06:59	10	68	0.2	67	68	390	0.3	389	391	12.7	79.6
2025-08-24T07:00	10	68	0.2	68	69	390	0.2	389	390	12.6	80.0
2025-08-24T07:01	10	69	0.2	69	69	391	0.4	390	392	12.8	80.0
2025-08-24T07:02	10	70	0.2	69	70	392	0.2	391	392	13.0	78.4
2025-08-24T07:03	10	70	0.2	70	70	392	0.3	391	393	13.1	77.7
2025-08-24T07:04	10	71	0.2	70	71	392	0.2	392	393	13.1	77.3
2025-08-24T07:05	10	71	0.2	71	72	392	0.2	392	393	13.1	75.8
2025-08-24T07:06	10	72	0.2	71	72	393	0.2	392	393	13.2	75.2
2025-08-24T07:07	10	72	0.2	72	73	393	0.2	393	394	13.4	75.1
2025-08-24T07:08	10	73	0.1	73	73	393	0.2	393	394	13.3	75.4
2025-08-24T07:09	10	74	0.2	73	74	394	0.2	393	394	13.5	74.7
2025-08-24T07:10	10	74	0.2	74	75	394	0.2	394	395	13.7	74.2
2025-08-24T07:11	10	75	0.2	74	75	396	0.4	395	396	14.0	73.8
2025-08-24T07:12	10	75	0.2	75	76	396	0.3	396	397	14.0	72.8
2025-08-24T07:13	10	76	0.2	75	76	397	0.3	396	398	14.0	73.8
2025-08-24T07:14	10	76	0.2	76	77	397	0.3	397	398	13.9	73.4
2025-08-24T07:15	10	77	0.2	76	78	398	0.5	396	398	13.9	74.0
2025-08-24T07:16	10	77	0.2	77	78	397	0.4	397	398	13.8	73.3
2025-08-24T07:17	10	78	0.2	78	79	398	0.4	397	399	13.8	74.2
2025-08-24T07:18	10	79	0.2	78	79	399	0.3	398	399	13.7	74.1
2025-08-24T07:19	10	79	0.2	79	79	399	0.3	399	400	13.9	74.0
2025-08-24T07:20	10	79	0.1	79	80	398	0.3	398	399	13.9	73.6
2025-08-24T07:21	10	80	0.1	80	80	400	0.4	399	400	14.1	72.4
2025-08-24T07:22	10	80	0.2	80	81	400	0.4	400	401	14.1	71.9
2025-08-24T07:23	10	81	0.1	80	81	400	0.5	399	401	14.0	72.2
2025-08-24T07:24	10	81	0.2	81	81	399	0.3	399	400	14.0	71.9
2025-08-24T07:25	10	82	0.2	81	82	400	0.3	399	401	13.8	72.6
2025-08-24T07:26	10	82	0.1	82	82	400	0.4	399	401	13.9	73.3
2025-08-24T07:27	10	83	0.2	82	83	400	0.8	399	401	14.1	72.4
2025-08-24T07:28	10	83	0.1	83	83	399	0.4	398	399	14.0	72.0
2025-08-24T07:29	10	83	0.1	83	84	400	0.5	399	401	13.9	71.1
2025-08-24T07:30	10	84	0.2	83	84	401	0.3	401	402	14.0	71.4
2025-08-24T07:31	10	84	0.1	84	85	403	0.7	401	404	14.1	72.8
2025-08-24T07:32	10	85	0.2	84	85	404	0.6	403	405	14.4	73.1
2025-08-24T07:33	10	85	0.2	85	86	403	0.4	403	404	14.3	71.3
2025-08-24T07:34	10	86	0.2	85	86	405	0.5	404	406	14.4	72.4
2025-08-24T07:35	10	86	0.1	86	86	406	0.7	405	407	14.6	72.6
2025-08-24T07:36	10	86	0.1	86	87	404	0.4	403	405	14.1	72.0
2025-08-24T07:37	10	87	0.2	87	87	403	0.6	402	405	14.1	72.2
2025-08-24T07:38	10	87	0.1	87	88	405	1.1	403	407	14.2	73.0
2025-08-24T07:39	10	88	0.2	87	88	407	0.4	406	407	14.3	72.3
2025-08-24T07:40	10	88	0.2	88	89	406	0.5	405	407	14.1	72.9
2025-08-24T07:41	10	89	0.1	88	89	406	0.3	405	407	14.1	73.6
2025-08-24T07:42	10	89	0.2	89	89	406	0.5	405	407	14.3	72.7
2025-08-24T07:43	10	90	0.1	89	90	406	0.9	405	408	14.2	72.3
2025-08-24T07:44	10	90	0.1	90	90	408	0.5	407	409	14.3	72.8
2025-08-24T07:45	10	90	0.1	90	91	407	0.7	406	408	14.2	73.1
2025-08-24T07:46	10	91	0.1	90	91	407	0.5	406	408	14.3	73.3
2025-08-24T07:47	10	91	0.1	91	91	408	0.6	406	409	14.4	73.9
2025-08-24T07:48	10	91	0.1	91	92	407	0.3	406	408	14.3	73.0
2025-08-24T07:49	10	92	0.1	92	92	407	0.4	406	408	14.1	72.8
2025-08-24T07:50	10	92	0.1	92	92	408	0.3	407	408	14.1	73.6
2025-08-24T07:51	10	93	0.2	92	93	408	0.3	407	409	14.2	73.2
2025-08-24T07:52	10	93	0.2	93	93	408	0.2	408	409	14.1	72.8
2025-08-24T07:53	10	94	0.1	93	94	409	0.9	408	411	14.1	73.1
2025-08-24T07:54	10	94	0.2	94	94	410	0.5	408	411	14.5	73.4
2025-08-24T07:55	10	94	0.1	94	94	409	0.3	408	410	14.2	72.2
2025-08-24T07:56	10	95	0.2	94	95	410	0.7	409	411	14.4	72.9
2025-08-24T07:57	10	95	0.1	95	95	411	1.4	409	413	14.6	72.9
2025-08-24T07:58	10	96	0.1	95	96	412	0.7	411	413	14.6	71.8
2025-08-24T07:59	10	96	0.2	96	96	411	0.3	411	412	14.4	72.1
2025-08-24T08:00	10	96	0.1	96	97	411	0.5	410	412	14.2	72.8
2025-08-24T08:01	10	97	0.1	97	97	411	0.6	410	412	14.3	72.7
2025-08-24T08:02	10	97	0.1	97	97	411	0.7	410	412	14.2	72.6
2025-08-24T08:03	10	98	0.1	97	98	413	0.7	411	414	14.3	72.7
2025-08-24T08:04	10	98	0.2	98	98	415	1.0	413	417	14.6	72.4
2025-08-24T08:05	10	98	0.2	98	99	414	1.4	411	416	14.7	71.7
2025-08-24T08:06	10	99	0.2	99	99	413	0.8	411	414	14.5	71.5
2025-08-24T08:07	10	99	0.1	99	100	415	0.4	414	416	14.5	71.9
2025-08-24T08:08	10	100	0.1	99	100	417	1.1	415	418	14.6	71.6
2025-08-24T08:09	10	100	0.1	100	100	417	0.7	415	418	14.7	70.9
2025-08-24T08:10	10	101	0.1	100	101	416	0.3	416	417	14.8	70.9
2025-08-24T08:11	10	101	0.1	101	101	416	0.6	415	417	15.0	70.7
2025-08-24T08:12	10	101	0.1	101	102	416	0.9	415	418	14.9	70.0
2025-08-24T08:13	10	102	0.1	101	102	420	0.9	418	421	15.0	70.8
2025-08-24T08:14	10	102	0.1	102	102	420	1.0	418	421	15.2	69.6
2025-08-24T08:15	10	102	0.2	102	103	421	0.8	419	422	15.1	69.7
2025-08-24T08:16	10	103	0.1	102	103	419	0.6	418	421	15.1	69.0
2025-08-24T08:17	10	103	0.2	103	103	419	0.3	418	420	15.1	68.9
2025-08-24T08:18	10	103	0.2	103	104	419	0.3	418	419	14.9	69.6
2025-08-24T08:19	10	104	0.2	103	104	420	1.1	419	423	14.8	70.0
2025-08-24T08:20	10	104	0.2	103	104	423	0.9	421	424	15.3	70.3
2025-08-24T08:21	10	104	0.2	104	104	423	0.6	423	425	15.6	68.8
2025-08-24T08:22	10	104	0.2	104	105	423	0.3	422	423	15.2	68.6
2025-08-24T08:23	10	105	0.2	104	105	423	0.5	422	424	15.3	68.5
2025-08-24T08:24	10	105	0.2	105	106	421	1.5	419	423	15.2	68.7
2025-08-24T08:25	10	106	0.2	105	106	421	1.8	418	424	15.3	68.9
2025-08-24T08:26	10	106	0.2	106	106	425	0.6	424	426	15.6	68.6
2025-08-24T08:27	10	106	0.2	106	107	424	1.1	422	426	15.9	68.6
2025-08-24T08:28	10	106	0.2	106	107	423	0.4	422	424	15.9	68.2
2025-08-24T08:29	10	107	0.2	106	107	425	0.4	425	426	15.9	68.1
2025-08-24T08:30	10	107	0.2	107	107	425	1.0	423	426	15.7	67.6
2025-08-24T08:31	10	107	0.2	107	108	426	0.9	425	428	15.8	68.6
2025-08-24T08:32	10	108	0.2	107	108	426	0.7	425	427	15.6	67.6
2025-08-24T08:33	10	108	0.2	108	109	429	0.9	427	430	15.5	67.3
2025-08-24T08:34	10	108	0.1	108	109	431	0.3	430	431	15.8	67.8
2025-08-24T08:35	10	109	0.1	108	109	429	1.3	427	431	16.0	67.3
2025-08-24T08:36	10	109	0.1	109	109	426	0.6	425	427	15.6	67.4
2025-08-24T08:37	10	109	0.2	109	110	428	0.7	427	430	15.8	67.6
2025-08-24T08:38	10	110	0.1	109	110	428	0.4	427	429	15.8	67.3
2025-08-24T08:39	10	110	0.1	110	110	429	0.6	428	430	15.7	67.3
2025-08-24T08:40	10	110	0.1	110	110	430	0.3	430	431	15.8	67.1
2025-08-24T08:41	10	110	0.1	110	110	432	0.3	431	432	15.9	66.4
2025-08-24T08:42	10	111	0.2	110	111	433	0.3	432	433	16.1	65.3
2025-08-24T08:43	10	111	0.2	111	111	434	0.4	433	434	16.1	66.3
2025-08-24T08:44	10	111	0.1	111	112	435	0.4	434	436	16.2	67.2
2025-08-24T08:45	10	112	0.1	112	112	436	0.6	434	437	16.5	66.9
2025-08-24T08:46	10	112	0.1	112	112	432	1.7	431	436	16.1	66.2
2025-08-24T08:47	10	112	0.1	112	112	432	0.6	431	433	15.9	66.8
2025-08-24T08:48	10	113	0.1	112	113	433	1.0	432	435	15.7	67.1
2025-08-24T08:49	10	113	0.1	113	113	434	1.2	432	436	15.8	67.4
2025-08-24T08:50	10	113	0.1	113	113	433	1.6	431	435	15.7	65.1
2025-08-24T08:51	10	114	0.2	113	114	434	0.6	433	435	15.8	64.4
2025-08-24T08:52	10	114	0.1	114	114	433	0.6	432	434	15.8	64.0
2025-08-24T08:53	10	114	0.1	114	114	435	0.8	434	437	15.8	67.4
2025-08-24T08:54	10	114	0.1	114	114	438	1.0	436	440	15.8	67.4
2025-08-24T08:55	10	115	0.2	114	115	439	0.4	438	440	15.8	67.4
2025-08-24T08:56	10	115	0.1	115	115	439	0.5	438	440	16.0	67.0
2025-08-24T08:57	10	115	0.1	115	115	437	0.4	437	439	16.5	63.4
2025-08-24T08:58	10	116	0.1	115	116	438	0.9	436	439	16.2	64.2
2025-08-24T08:59	10	116	0.1	116	116	438	0.4	438	439	16.2	65.1
2025-08-24T09:00	10	116	0.1	116	116	438	1.1	436	440	16.2	65.1
2025-08-24T09:01	10	116	0.1	116	117	436	0.9	435	439	16.3	64.7
2025-08-24T09:02	10	117	0.1	116	117	437	0.9	436	439	16.3	64.4
2025-08-24T09:03	10	117	0.1	117	117	438	0.9	436	440	16.0	64.5
2025-08-24T09:04	10	117	0.1	117	117	440	1.2	438	442	16.1	64.6
2025-08-24T09:05	10	117	0.1	117	118	440	0.8	439	443	16.4	64.8
2025-08-24T09:06	10	118	0.1	117	118	439	0.8	437	441	16.4	64.6
2025-08-24T09:07	10	118	0.2	118	118	442	1.0	439	443	16.5	65.3
2025-08-24T09:08	10	118	0.1	118	118	442	0.7	441	443	16.6	63.8
2025-08-24T09:09	10	119	0.1	118	119	442	0.7	441	444	16.6	63.8
2025-08-24T09:10	10	119	0.1	119	119	443	0.5	442	443	16.9	64.0
2025-08-24T09:11	10	119	0.1	119	119	442	0.7	441	443	16.9	63.4
2025-08-24T09:12	10	119	0.1	119	119	443	0.5	442	444	17.1	63.9
2025-08-24T09:13	10	119	0.1	119	120	444	0.5	443	445	17.3	63.5
2025-08-24T09:14	10	120	0.1	119	120	443	1.0	442	446	16.8	62.6
2025-08-24T09:15	10	120	0.2	120	120	444	0.3	444	445	16.6	63.1
2025-08-24T09:16	10	120	0.2	120	121	446	0.8	445	448	16.7	63.6
2025-08-24T09:17	10	121	0.1	120	121	446	0.9	444	447	16.7	62.6
2025-08-24T09:18	10	121	0.1	121	121	444	1.1	442	445	16.7	63.2
2025-08-24T09:19	10	121	0.1	121	121	443	0.4	442	444	16.8	63.1
2025-08-24T09:20	10	121	0.1	121	121	444	0.4	443	444	16.9	63.3
2025-08-24T09:21	10	122	0.2	121	122	445	0.5	444	446	17.0	63.1
2025-08-24T09:22	10	122	0.1	122	122	446	0.9	445	448	16.9	62.8
2025-08-24T09:23	10	122	0.1	122	123	447	1.2	445	449	17.0	63.1
2025-08-24T09:24	10	123	0.1	122	123	449	0.6	447	450	16.9	62.0
2025-08-24T09:25	10	123	0.2	123	123	451	0.7	449	452	17.2	62.2
2025-08-24T09:26	10	123	0.1	123	123	451	0.3	451	452	17.4	61.2
2025-08-24T09:27	10	123	0.1	123	124	450	1.0	448	452	17.2	61.1
2025-08-24T09:28	10	124	0.1	123	124	446	0.8	445	448	16.8	61.6
2025-08-24T09:29	10	124	0.1	124	124	449	0.6	448	450	17.2	61.6
2025-08-24T09:30	10	124	0.1	124	124	446	2.7	443	451	17.0	61.2
2025-08-24T09:31	10	124	0.1	124	124	445	0.4	444	446	16.7	61.8
2025-08-24T09:32	10	124	0.1	124	124	449	1.4	447	451	17.2	62.6
2025-08-24T09:33	10	124	0.1	124	125	448	0.8	447	450	17.5	61.8
2025-08-24T09:34	10	124	0.1	124	125	449	0.9	447	450	17.4	61.7
2025-08-24T09:35	10	125	0.1	125	125	448	0.5	447	450	17.0	60.8
2025-08-24T09:36	10	125	0.2	125	125	451	0.9	450	453	17.0	61.3
2025-08-24T09:37	10	125	0.2	125	126	454	0.9	452	455	17.3	62.6
2025-08-24T09:38	10	126	0.1	125	126	454	0.7	453	456	17.6	61.5
2025-08-24T09:39	10	126	0.1	126	126	451	1.4	449	454	17.5	60.6
2025-08-24T09:40	10	126	0.1	126	126	451	0.6	450	452	17.5	60.7
2025-08-24T09:41	10	126	0.1	126	126	454	0.9	452	455	17.4	60.8
2025-08-24T09:42	10	126	0.1	126	127	454	1.1	450	456	17.9	61.3
2025-08-24T09:43	10	126	0.1	126	127	452	1.7	449	455	17.2	60.6
2025-08-24T09:44	10	127	0.1	126	127	454	0.6	453	456	17.4	61.0
2025-08-24T09:45	10	127	0.1	127	127	453	1.2	451	455	17.2	60.9
2025-08-24T09:46	10	127	0.1	127	127	454	0.6	453	455	17.0	61.1
2025-08-24T09:47	10	127	0.1	127	128	456	0.7	454	457	17.4	60.9
2025-08-24T09:48	10	128	0.1	127	128	456	0.5	456	457	17.5	61.2
2025-08-24T09:49	10	128	0.1	128	128	455	1.1	454	457	17.3	61.7
2025-08-24T09:50	10	128	0.1	128	128	457	0.7	455	458	17.5	62.2
2025-08-24T09:51	10	128	0.1	128	128	456	0.9	454	457	17.5	61.5
2025-08-24T09:52	10	128	0.1	128	129	457	0.4	455	458	17.6	61.2
2025-08-24T09:53	10	129	0.1	128	129	455	1.0	454	458	17.6	59.8
2025-08-24T09:54	10	129	0.1	128	129	459	1.3	457	462	17.8	60.5
2025-08-24T09:55	10	129	0.1	129	129	459	1.2	457	462	18.0	59.6
2025-08-24T09:56	10	129	0.1	129	129	459	1.2	457	461	18.0	60.7
2025-08-24T09:57	10	129	0.2	129	129	458	0.3	458	459	18.5	60.1
2025-08-24T09:58	10	129	0.1	129	130	455	1.5	453	459	17.7	60.0
2025-08-24T09:59	10	129	0.1	129	130	455	1.0	453	457	17.4	60.8
2025-08-24T10:00	10	129	0.1	129	130	455	2.0	452	458	17.7	61.2
2025-08-24T10:01	10	129	0.1	129	130	455	1.7	453	458	17.5	60.9
2025-08-24T10:02	10	130	0.1	129	130	455	0.7	453	456	17.4	61.3
2025-08-24T10:03	10	130	0.1	130	130	456	1.2	455	459	17.4	61.8
2025-08-24T10:04	10	130	0.1	130	130	459	0.6	457	460	17.6	61.3
2025-08-24T10:05	10	130	0.1	130	131	457	1.2	455	459	17.4	60.8
2025-08-24T10:06	10	130	0.1	130	131	461	0.8	459	462	17.7	60.7
2025-08-24T10:07	10	131	0.1	130	131	462	0.5	461	464	18.0	60.3
2025-08-24T10:08	10	131	0.1	131	131	464	0.8	462	466	18.3	60.0
2025-08-24T10:09	10	131	0.1	131	131	463	1.0	461	465	18.0	59.3
2025-08-24T10:10	10	131	0.1	131	131	463	1.2	461	465	18.0	60.0
2025-08-24T10:11	10	132	0.1	131	132	465	0.8	463	466	18.3	59.5
2025-08-24T10:12	10	132	0.1	131	132	459	3.5	455	465	18.3	59.3
2025-08-24T10:13	10	132	0.1	132	132	458	1.0	457	461	17.7	60.0
2025-08-24T10:14	10	132	0.1	132	132	459	0.7	458	460	18.0	60.7
2025-08-24T10:15	10	132	0.1	132	132	458	0.8	456	459	18.2	60.4
2025-08-24T10:16	10	132	0.1	132	132	457	0.5	456	458	18.2	60.4
2025-08-24T10:17	10	132	0.1	132	132	457	0.5	456	458	18.1	60.2
2025-08-24T10:18	10	132	0.1	132	133	458	0.6	457	459	18.0	60.0
2025-08-24T10:19	10	132	0.1	132	133	458	0.5	457	459	18.1	60.1
2025-08-24T10:20	10	133	0.1	132	133	459	1.5	457	462	18.1	60.1
2025-08-24T10:21	10	132	0.1	132	133	462	1.1	460	464	18.2	59.7
2025-08-24T10:22	10	133	0.1	132	133	463	0.8	461	465	18.0	59.9
2025-08-24T10:23	10	133	0.1	132	133	463	1.1	460	464	18.1	59.7
2025-08-24T10:24	10	133	0.2	133	133	461	0.7	460	463	18.0	59.5
2025-08-24T10:25	10	133	0.1	133	133	465	1.1	462	466	18.0	59.6
2025-08-24T10:26	10	134	0.2	133	134	468	0.6	466	468	18.5	59.3
2025-08-24T10:27	10	134	0.1	134	134	469	0.6	467	470	18.5	58.4
2025-08-24T10:28	10	134	0.1	134	134	464	1.5	461	467	18.0	58.9
2025-08-24T10:29	10	134	0.1	134	134	464	0.6	463	466	18.1	59.5
2025-08-24T10:30	10	134	0.1	134	134	461	1.5	458	464	18.8	59.0
2025-08-24T10:31	10	134	0.1	134	134	465	1.5	462	468	18.7	58.8
2025-08-24T10:32	10	134	0.1	134	134	467	0.8	466	469	18.9	58.1
2025-08-24T10:33	10	134	0.1	134	135	467	0.3	467	468	19.2	57.9
2025-08-24T10:34	10	135	0.1	134	135	465	0.9	463	467	18.9	57.6
2025-08-24T10:35	10	135	0.1	134	135	464	0.7	463	466	18.4	57.7
2025-08-24T10:36	10	135	0.1	135	135	465	1.0	463	467	18.2	58.2
2025-08-24T10:37	10	135	0.1	135	135	466	1.2	464	468	18.2	58.5
2025-08-24T10:38	10	135	0.1	135	135	466	1.1	464	468	18.1	58.6
2025-08-24T10:39	10	135	0.1	135	135	468	0.4	467	469	18.2	58.5
2025-08-24T10:40	10	135	0.1	135	136	470	1.3	468	472	18.4	58.3
2025-08-24T10:41	10	135	0.1	135	136	468	0.4	467	469	18.3	57.9
2025-08-24T10:42	10	135	0.1	135	136	469	0.8	468	471	18.8	57.6
2025-08-24T10:43	10	136	0.2	135	136	468	1.1	466	470	18.9	57.0
2025-08-24T10:44	10	136	0.1	136	136	468	0.7	467	469	18.6	57.6
2025-08-24T10:45	10	136	0.1	136	136	467	1.1	466	470	18.6	57.7
2025-08-24T10:46	10	136	0.1	136	137	470	0.8	469	471	18.6	57.4
2025-08-24T10:47	10	136	0.2	136	137	471	0.7	469	472	18.6	57.1
2025-08-24T10:48	10	137	0.1	136	137	473	0.4	472	474	18.7	56.9
2025-08-24T10:49	10	137	0.1	136	137	474	0.3	473	474	18.8	55.8
2025-08-24T10:50	10	137	0.1	137	137	475	0.9	473	476	19.2	56.1
2025-08-24T10:51	10	137	0.1	136	137	466	2.7	463	473	19.2	55.7
2025-08-24T10:52	10	136	0.1	136	137	466	1.3	464	468	19.0	55.7
2025-08-24T10:53	10	136	0.1	136	136	467	1.2	465	469	19.0	56.2
2025-08-24T10:54	10	136	0.1	136	136	466	1.8	463	469	19.0	54.9
2025-08-24T10:55	10	136	0.1	136	136	468	1.5	466	470	18.7	55.0
2025-08-24T10:56	10	136	0.2	136	136	473	1.5	470	476	18.9	55.4
2025-08-24T10:57	10	137	0.2	136	137	475	0.5	474	476	19.3	54.7
2025-08-24T10:58	10	137	0.2	137	138	475	0.6	474	476	19.3	53.4
2025-08-24T10:59	10	138	0.1	137	138	475	0.5	474	476	19.1	53.3
2025-08-24T11:00	10	138	0.1	137	138	472	1.1	470	474	19.4	53.9
2025-08-24T11:01	10	137	0.1	137	138	468	1.0	467	471	19.1	53.6
2025-08-24T11:02	10	137	0.1	137	137	471	1.2	468	473	19.0	54.2
2025-08-24T11:03	10	137	0.1	137	138	474	0.7	473	475	18.9	53.6
2025-08-24T11:04	10	137	0.1	137	138	474	0.3	474	475	18.9	53.1
2025-08-24T11:05	10	138	0.2	137	138	475	0.5	474	476	18.9	52.3
2025-08-24T11:06	10	138	0.1	138	138	477	0.6	476	478	19.1	52.3
2025-08-24T11:07	10	138	0.1	138	138	478	0.6	476	479	19.4	53.1
2025-08-24T11:08	10	138	0.2	138	138	474	2.5	470	477	19.1	52.1
2025-08-24T11:09	10	138	0.1	138	138	470	1.0	468	471	18.8	52.5
2025-08-24T11:10	10	137	0.1	137	138	472	1.8	468	476	19.1	52.2
2025-08-24T11:11	10	137	0.1	137	137	473	1.5	470	475	19.7	50.7
2025-08-24T11:12	10	137	0.1	137	137	470	1.3	468	472	19.1	51.5
2025-08-24T11:13	10	137	0.3	137	138	475	1.4	472	478	19.5	51.7
2025-08-24T11:14	10	138	0.2	138	138	469	1.2	468	473	19.3	50.5
2025-08-24T11:15	10	138	0.1	138	138	470	1.1	469	473	19.0	50.8
2025-08-24T11:16	10	138	0.1	138	138	473	0.9	472	475	19.3	50.8
2025-08-24T11:17	10	138	0.1	138	138	472	0.8	471	474	19.3	49.8
2025-08-24T11:18	10	138	0.1	138	138	473	0.3	472	474	19.2	48.1
2025-08-24T11:19	10	138	0.1	138	139	476	1.1	473	477	19.1	48.3
2025-08-24T11:20	10	138	0.1	138	139	478	0.5	477	479	19.6	49.1
2025-08-24T11:21	10	139	0.1	138	139	477	0.6	477	479	19.4	49.4
2025-08-24T11:22	10	139	0.1	139	139	479	0.8	478	480	19.4	50.8
2025-08-24T11:23	10	139	0.1	139	139	480	0.5	479	481	19.6	50.2
2025-08-24T11:24	10	139	0.1	139	139	477	1.4	475	480	19.6	48.3
2025-08-24T11:25	10	139	0.1	139	139	478	1.5	475	481	19.8	48.2
2025-08-24T11:26	10	139	0.1	138	139	474	1.5	473	477	19.7	47.7
2025-08-24T11:27	10	139	0.1	138	139	473	1.1	471	475	19.6	48.3
2025-08-24T11:28	10	138	0.1	138	139	473	1.1	472	475	19.6	48.6
2025-08-24T11:29	10	138	0.1	138	139	474	1.2	472	476	19.6	49.3
2025-08-24T11:30	10	139	0.2	139	139	473	0.7	471	474	19.7	48.1
2025-08-24T11:31	10	139	0.1	139	139	477	0.8	474	478	19.6	48.3
2025-08-24T11:32	10	139	0.1	139	139	477	0.4	476	478	19.7	48.4
2025-08-24T11:33	10	139	0.2	139	140	477	0.6	476	478	19.7	47.3
2025-08-24T11:34	10	140	0.1	139	140	479	0.7	478	480	19.5	47.1
2025-08-24T11:35	10	140	0.2	139	140	480	0.9	478	481	19.7	47.5
2025-08-24T11:36	10	140	0.1	140	140	480	0.6	479	482	19.5	47.1
2025-08-24T11:37	10	140	0.2	139	140	481	1.0	478	482	19.7	47.8
2025-08-24T11:38	10	140	0.2	140	140	479	0.6	478	481	19.7	47.9
2025-08-24T11:39	10	140	0.1	140	140	481	1.2	479	482	19.8	48.6
2025-08-24T11:40	10	140	0.1	140	141	478	1.0	477	480	20.0	47.9
2025-08-24T11:41	10	140	0.2	140	140	480	0.7	479	482	20.3	47.1
2025-08-24T11:42	10	140	0.2	140	140	478	1.6	476	482	19.9	46.1
2025-08-24T11:43	10	140	0.2	140	141	481	1.3	478	483	19.6	45.9
2025-08-24T11:44	10	140	0.1	140	140	484	0.4	483	484	19.9	46.7
2025-08-24T11:45	10	140	0.1	140	140	483	0.4	482	484	20.4	46.2
2025-08-24T11:46	10	140	0.1	139	140	481	0.7	480	483	20.5	45.7
2025-08-24T11:47	10	140	0.1	139	140	480	1.5	477	482	20.5	45.1
2025-08-24T11:48	10	140	0.1	139	140	478	0.9	476	479	19.9	45.0
2025-08-24T11:49	10	140	0.1	140	140	482	1.2	479	484	20.1	45.6
2025-08-24T11:50	10	140	0.1	140	140	480	0.5	480	481	20.1	45.7
2025-08-24T11:51	10	140	0.1	140	140	480	1.0	478	481	19.9	46.0
2025-08-24T11:52	10	140	0.1	140	140	482	0.8	481	484	19.8	46.4
2025-08-24T11:53	10	140	0.1	140	140	484	0.5	483	485	20.0	46.7
2025-08-24T11:54	10	140	0.1	140	140	486	0.5	485	487	20.5	47.0
2025-08-24T11:55	10	140	0.1	140	140	485	0.4	484	486	20.2	45.6
2025-08-24T11:56	10	140	0.1	140	140	484	0.2	484	485	20.2	45.2
2025-08-24T11:57	10	140	0.1	140	140	485	0.3	484	486	20.3	45.4
2025-08-24T11:58	10	140	0.1	140	140	484	1.0	483	486	20.4	43.4
2025-08-24T11:59	10	140	0.1	140	141	485	0.6	483	486	20.4	43.1
2025-08-24T12:00	10	140	0.1	140	140	479	1.7	477	483	20.2	43.0
2025-08-24T12:01	10	140	0.2	140	140	477	1.0	475	479	20.3	42.6
2025-08-24T12:02	10	139	0.1	139	140	479	1.2	477	481	20.4	42.8
2025-08-24T12:03	10	139	0.1	139	139	478	0.5	477	480	20.5	42.0
2025-08-24T12:04	10	139	0.1	139	140	478	0.4	477	479	20.2	42.0
2025-08-24T12:05	10	139	0.1	139	140	479	0.9	478	481	20.2	41.8
2025-08-24T12:06	10	139	0.1	139	140	479	0.6	478	480	19.9	41.5
2025-08-24T12:07	10	139	0.1	139	139	482	0.7	480	483	20.1	41.5
2025-08-24T12:08	10	139	0.1	139	139	482	0.7	480	483	20.0	40.7
2025-08-24T12:09	10	140	0.2	139	140	483	0.5	482	484	20.5	41.0
2025-08-24T12:10	10	140	0.2	140	140	485	0.6	484	486	20.6	39.7
2025-08-24T12:11	10	140	0.1	140	141	487	0.8	485	488	20.8	41.7
2025-08-24T12:12	10	140	0.1	140	141	484	0.9	483	486	20.7	41.6
2025-08-24T12:13	10	140	0.1	140	141	487	0.7	485	488	20.8	42.5
2025-08-24T12:14	10	140	0.1	140	141	480	1.8	478	485	20.4	41.4
2025-08-24T12:15	10	140	0.1	140	141	480	1.5	478	483	20.3	41.3
2025-08-24T12:16	10	140	0.1	140	141	483	0.8	482	485	20.7	42.1
2025-08-24T12:17	10	140	0.1	140	141	486	1.0	484	487	21.0	41.7
2025-08-24T12:18	10	140	0.1	140	141	486	0.7	485	488	21.1	40.4
2025-08-24T12:19	10	140	0.1	140	141	486	0.7	485	488	20.8	39.4
2025-08-24T12:20	10	140	0.2	140	141	484	0.5	483	486	20.5	40.4
2025-08-24T12:21	10	140	0.1	140	140	484	0.5	483	485	20.5	40.8
2025-08-24T12:22	10	140	0.1	140	140	485	0.9	484	487	20.9	41.8
2025-08-24T12:23	10	140	0.1	140	140	486	0.6	485	487	20.9	40.9
2025-08-24T12:24	10	140	0.1	140	140	488	0.9	486	489	21.0	41.0
2025-08-24T12:25	10	140	0.1	140	140	486	2.6	482	489	21.1	39.5
2025-08-24T12:26	10	139	0.1	139	140	484	0.6	483	485	20.8	40.0
2025-08-24T12:27	10	139	0.1	139	139	486	0.7	485	487	20.8	41.1
2025-08-24T12:28	10	139	0.1	139	139	485	1.1	483	486	20.8	41.0
2025-08-24T12:29	10	139	0.1	138	139	486	0.6	484	486	20.8	42.0
2025-08-24T12:30	10	138	0.1	138	139	486	1.2	483	487	21.2	41.2
2025-08-24T12:31	10	138	0.1	138	139	484	0.4	483	485	21.0	41.5
2025-08-24T12:32	10	138	0.1	138	139	484	0.8	483	485	21.3	41.2
2025-08-24T12:33	10	138	0.2	138	139	481	0.8	480	483	21.3	40.4
2025-08-24T12:34	10	138	0.2	137	138	484	1.2	481	486	21.0	41.8
2025-08-24T12:35	10	138	0.1	137	138	485	0.6	484	487	21.5	41.7
2025-08-24T12:36	10	138	0.2	137	138	484	0.9	482	486	21.7	41.5
2025-08-24T12:37	10	138	0.1	137	138	485	0.5	484	486	21.2	40.7
2025-08-24T12:38	10	138	0.1	137	138	486	0.4	485	487	21.5	42.0
2025-08-24T12:39	10	138	0.1	138	138	488	0.5	487	489	21.7	41.6
2025-08-24T12:40	10	138	0.1	138	138	488	0.6	487	489	21.1	40.8
2025-08-24T12:41	10	138	0.2	137	138	487	0.6	485	488	21.2	42.4
2025-08-24T12:42	10	137	0.1	137	137	481	1.8	479	486	21.1	42.7
2025-08-24T12:43	10	137	0.1	137	137	482	1.4	479	484	20.9	42.4
2025-08-24T12:44	10	137	0.1	137	137	481	0.5	480	482	20.6	42.0
2025-08-24T12:45	10	137	0.1	137	137	482	1.1	480	484	20.8	42.8
2025-08-24T12:46	10	137	0.1	136	137	480	0.7	479	482	20.7	42.3
2025-08-24T12:47	10	137	0.1	136	137	480	0.6	479	481	20.7	41.2
2025-08-24T12:48	10	136	0.1	136	137	482	2.2	479	485	20.6	41.3
2025-08-24T12:49	10	136	0.1	136	136	485	0.6	484	486	21.0	41.7
2025-08-24T12:50	10	136	0.1	136	136	485	1.2	482	486	21.2	40.8
2025-08-24T12:51	10	136	0.1	136	136	482	0.5	481	483	20.8	39.6
2025-08-24T12:52	10	136	0.1	136	136	482	0.6	481	484	20.8	40.1
2025-08-24T12:53	10	136	0.1	136	136	485	1.2	483	487	20.8	40.0
2025-08-24T12:54	10	136	0.1	135	136	487	0.4	486	488	21.1	40.2
2025-08-24T12:55	10	135	0.1	135	136	487	0.6	486	488	21.3	40.4
2025-08-24T12:56	10	135	0.1	135	136	486	0.3	485	487	21.2	40.0
2025-08-24T12:57	10	135	0.1	135	135	488	0.5	486	489	21.7	41.0
2025-08-24T12:58	10	135	0.2	134	135	487	0.4	486	487	21.5	39.3
2025-08-24T12:59	10	134	0.2	134	135	483	1.5	481	486	21.2	39.8
2025-08-24T13:00	10	134	0.2	134	134	485	1.5	482	487	21.1	40.3
2025-08-24T13:01	10	134	0.1	134	134	484	1.7	481	486	21.4	40.3
2025-08-24T13:02	10	134	0.1	133	134	482	0.3	481	483	21.1	40.1
2025-08-24T13:03	10	133	0.1	133	134	484	0.5	483	484	21.1	40.1
2025-08-24T13:04	10	133	0.1	133	133	485	0.8	484	487	21.4	40.5
2025-08-24T13:05	10	133	0.1	133	133	484	0.6	483	486	21.2	39.2
2025-08-24T13:06	10	133	0.1	133	133	486	0.8	485	488	21.3	40.2
2025-08-24T13:07	10	133	0.1	133	133	488	0.3	487	489	22.0	40.6
2025-08-24T13:08	10	133	0.1	133	133	487	1.1	485	488	22.0	39.7
2025-08-24T13:09	10	133	0.1	133	133	486	0.9	485	488	21.8	39.9
2025-08-24T13:10	10	133	0.1	133	133	485	1.2	484	488	22.0	39.2
2025-08-24T13:11	10	133	0.1	132	133	486	0.9	484	487	21.7	39.7
2025-08-24T13:12	10	133	0.1	132	133	484	0.6	483	486	21.4	38.9
2025-08-24T13:13	10	132	0.2	132	133	485	0.4	484	486	21.3	39.4
2025-08-24T13:14	10	132	0.2	132	132	487	0.3	486	487	21.5	39.3
2025-08-24T13:15	10	132	0.2	131	133	487	0.5	486	488	21.5	39.3
2025-08-24T13:16	10	132	0.2	131	132	486	0.7	485	488	21.6	39.4
2025-08-24T13:17	10	132	0.2	131	132	485	2.5	481	489	21.8	39.5
2025-08-24T13:18	10	131	0.3	130	132	481	1.3	478	483	21.9	39.2
2025-08-24T13:19	10	131	0.1	130	131	479	0.4	478	480	21.9	39.5
2025-08-24T13:20	10	130	0.1	130	131	483	1.7	480	485	22.0	39.7
2025-08-24T13:21	10	130	0.2	130	130	484	0.4	482	484	21.8	39.7
2025-08-24T13:22	10	130	0.2	129	130	481	0.6	480	483	21.5	39.6
2025-08-24T13:23	10	130	0.1	129	130	482	1.6	477	484	21.8	40.0
2025-08-24T13:24	10	129	0.1	129	130	480	1.0	477	481	21.7	40.1
2025-08-24T13:25	10	129	0.1	129	129	480	0.6	478	481	21.6	39.5
2025-08-24T13:26	10	129	0.1	129	129	482	1.0	480	483	21.6	39.8
2025-08-24T13:27	10	129	0.1	129	129	482	1.4	480	484	21.6	39.0
2025-08-24T13:28	10	129	0.1	129	129	484	0.3	484	485	21.8	39.0
2025-08-24T13:29	10	129	0.1	129	129	485	0.3	485	486	21.7	38.8
2025-08-24T13:30	10	129	0.1	129	129	485	0.5	484	486	21.9	39.1
2025-08-24T13:31	10	129	0.1	128	129	485	0.8	482	486	22.0	39.2
2025-08-24T13:32	10	128	0.1	128	128	481	0.6	480	482	22.0	40.6
2025-08-24T13:33	10	128	0.1	128	128	482	1.0	480	484	22.0	39.9
2025-08-24T13:34	10	128	0.1	127	128	480	0.9	478	481	21.8	40.2
2025-08-24T13:35	10	127	0.2	127	128	477	0.5	476	478	21.4	40.4
2025-08-24T13:36	10	127	0.1	127	127	478	1.2	476	481	21.9	40.5
2025-08-24T13:37	10	127	0.1	127	127	480	2.0	477	482	22.2	39.9
2025-08-24T13:38	10	127	0.1	126	127	479	0.6	478	480	22.0	39.0
2025-08-24T13:39	10	126	0.1	126	126	481	0.7	479	482	21.8	38.9
2025-08-24T13:40	10	126	0.1	126	126	479	0.5	478	480	21.9	38.3
2025-08-24T13:41	10	126	0.1	126	126	481	0.8	479	482	21.8	38.6
2025-08-24T13:42	10	126	0.1	126	126	483	1.0	481	485	22.0	39.6
2025-08-24T13:43	10	126	0.1	125	126	485	0.5	484	486	22.2	38.4
2025-08-24T13:44	10	126	0.1	125	126	486	0.5	485	486	22.4	39.7
2025-08-24T13:45	10	125	0.1	125	126	483	0.8	481	485	22.3	39.7
2025-08-24T13:46	10	125	0.1	125	126	480	1.1	478	482	22.1	40.0
2025-08-24T13:47	10	125	0.2	124	125	477	3.1	473	482	21.9	40.2
2025-08-24T13:48	10	125	0.2	124	125	474	1.2	473	477	21.6	40.3
2025-08-24T13:49	10	124	0.2	124	124	478	0.8	476	479	21.6	40.4
2025-08-24T13:50	10	124	0.2	123	124	479	0.9	478	481	21.9	40.6
2025-08-24T13:51	10	124	0.1	123	124	482	0.6	481	483	21.9	39.8
2025-08-24T13:52	10	123	0.1	123	124	481	0.4	480	482	21.9	40.0
2025-08-24T13:53	10	123	0.1	123	124	482	0.5	481	483	22.0	40.1
2025-08-24T13:54	10	123	0.1	123	123	483	0.8	482	485	22.3	39.9
2025-08-24T13:55	10	123	0.1	123	123	481	0.9	481	484	22.0	40.0
2025-08-24T13:56	10	123	0.1	122	123	478	1.2	476	481	21.9	40.3
2025-08-24T13:57	10	122	0.1	122	123	479	1.1	477	481	21.9	40.0
2025-08-24T13:58	10	122	0.1	122	122	481	0.4	480	482	21.9	40.1
2025-08-24T13:59	10	122	0.1	121	122	482	1.0	480	484	22.1	40.8
2025-08-24T14:00	10	121	0.1	121	122	480	1.1	477	482	22.5	40.9
2025-08-24T14:01	10	121	0.1	121	121	476	0.6	475	477	22.2	40.2
2025-08-24T14:02	10	121	0.1	120	121	475	1.1	473	477	21.8	40.0
2025-08-24T14:03	10	120	0.1	120	121	475	0.5	474	477	22.0	40.2
2025-08-24T14:04	10	120	0.2	120	120	476	0.8	474	477	22.0	40.0
2025-08-24T14:05	10	120	0.1	120	120	477	1.1	474	478	22.0	40.0
2025-08-24T14:06	10	120	0.1	119	120	478	0.6	476	479	22.2	39.6
2025-08-24T14:07	10	119	0.1	119	120	479	0.5	478	480	22.4	39.8
2025-08-24T14:08	10	119	0.1	119	120	480	0.5	479	481	22.3	39.6
2025-08-24T14:09	10	119	0.1	119	119	479	0.6	478	480	22.3	37.3
2025-08-24T14:10	10	119	0.1	119	119	479	0.3	479	480	22.2	36.9
2025-08-24T14:11	10	119	0.1	119	119	479	0.2	479	480	22.2	37.5
2025-08-24T14:12	10	119	0.1	118	119	480	0.4	479	481	22.2	37.9
2025-08-24T14:13	10	119	0.1	118	119	481	0.5	480	482	22.5	38.1
2025-08-24T14:14	10	118	0.1	118	119	479	0.6	477	480	22.3	37.6
2025-08-24T14:15	10	118	0.1	118	118	477	1.0	475	479	22.2	37.8
2025-08-24T14:16	10	118	0.2	117	118	474	1.0	472	476	22.0	37.8
2025-08-24T14:17	10	117	0.2	117	118	475	0.8	473	477	21.9	38.3
2025-08-24T14:18	10	117	0.2	117	117	476	1.5	474	478	22.2	38.6
2025-08-24T14:19	10	116	0.2	116	117	477	1.1	476	479	22.1	38.3
2025-08-24T14:20	10	116	0.2	116	117	478	0.6	477	480	22.2	38.3
2025-08-24T14:21	10	116	0.2	115	116	479	0.7	477	480	22.4	39.3
2025-08-24T14:22	10	115	0.2	115	116	480	0.2	479	480	22.5	38.8
2025-08-24T14:23	10	115	0.2	115	116	480	0.4	479	480	22.7	40.2
2025-08-24T14:24	10	115	0.2	114	115	477	1.0	476	480	22.7	38.8
2025-08-24T14:25	10	114	0.2	114	115	477	0.7	476	478	22.4	39.3
2025-08-24T14:26	10	114	0.2	114	114	473	1.4	471	477	22.2	39.5
2025-08-24T14:27	10	114	0.2	113	114	475	0.6	473	476	22.0	40.0
2025-08-24T14:28	10	113	0.3	113	115	477	0.8	475	478	22.2	40.2
2025-08-24T14:29	10	113	0.1	113	114	476	1.6	472	479	22.5	40.0
2025-08-24T14:30	10	113	0.2	112	113	472	0.5	471	473	22.4	39.6
2025-08-24T14:31	10	112	0.2	112	112	471	1.0	468	473	22.5	39.5
2025-08-24T14:32	10	112	0.2	111	112	467	1.2	465	470	22.1	39.7
2025-08-24T14:33	10	111	0.2	111	112	469	0.5	468	470	22.2	39.8
2025-08-24T14:34	10	111	0.2	110	112	471	0.4	470	472	22.1	39.7
2025-08-24T14:35	10	111	0.1	110	111	474	1.7	471	476	22.3	39.8
2025-08-24T14:36	10	110	0.2	110	111	475	0.4	474	475	22.6	39.8
2025-08-24T14:37	10	110	0.1	110	110	473	1.4	470	475	22.8	39.2
2025-08-24T14:38	10	110	0.2	110	110	470	0.6	468	471	22.6	39.0
2025-08-24T14:39	10	110	0.2	109	110	468	1.0	466	470	22.7	39.8
2025-08-24T14:40	10	109	0.1	109	109	468	0.8	467	470	22.6	39.2
2025-08-24T14:41	10	109	0.1	109	109	471	1.1	470	473	22.4	39.1
2025-08-24T14:42	10	109	0.1	108	109	472	0.6	471	474	22.4	38.7
2025-08-24T14:43	10	108	0.1	108	109	469	2.1	467	472	22.1	38.7
2025-08-24T14:44	10	108	0.2	108	108	470	1.6	467	473	22.0	39.0
2025-08-24T14:45	10	108	0.1	107	108	474	0.7	472	475	22.5	39.3
2025-08-24T14:46	10	107	0.1	107	108	469	1.5	466	472	22.5	39.2
2025-08-24T14:47	10	107	0.1	107	107	467	0.8	466	468	22.4	39.3
2025-08-24T14:48	10	107	0.2	107	107	468	0.8	466	469	22.3	39.3
2025-08-24T14:49	10	106	0.1	106	107	470	0.9	468	471	22.4	39.4
2025-08-24T14:50	10	106	0.2	106	107	469	0.7	467	470	22.1	39.0
2025-08-24T14:51	10	106	0.1	106	106	471	0.9	469	473	22.2	39.8
2025-08-24T14:52	10	105	0.1	105	106	471	0.9	470	473	22.3	39.3
2025-08-24T14:53	10	105	0.1	105	105	469	0.8	468	471	22.3	39.2
2025-08-24T14:54	10	105	0.1	105	105	470	1.1	468	472	22.4	39.1
2025-08-24T14:55	10	105	0.1	104	105	469	0.4	468	470	22.2	39.4
2025-08-24T14:56	10	104	0.1	104	105	470	0.6	469	471	22.3	40.1
2025-08-24T14:57	10	104	0.2	104	104	468	1.2	466	470	22.5	39.5
2025-08-24T14:58	10	104	0.1	103	104	469	0.4	468	469	22.8	39.8
2025-08-24T14:59	10	103	0.1	103	103	469	0.5	468	470	22.7	39.7
2025-08-24T15:00	10	103	0.2	103	103	467	0.6	466	468	22.5	39.2
2025-08-24T15:01	10	103	0.1	102	103	467	1.0	465	468	22.5	39.0
2025-08-24T15:02	10	102	0.1	102	103	469	0.8	468	470	22.5	39.0
2025-08-24T15:03	10	102	0.1	102	102	470	0.5	469	471	22.6	39.2
2025-08-24T15:04	10	102	0.2	102	102	467	2.1	464	470	22.6	39.1
2025-08-24T15:05	10	102	0.2	101	102	465	1.0	462	466	22.3	39.0
2025-08-24T15:06	10	101	0.2	100	101	464	1.0	462	466	22.5	39.7
2025-08-24T15:07	10	100	0.1	100	101	463	0.7	462	465	22.4	38.8
2025-08-24T15:08	10	100	0.1	100	100	466	0.6	464	467	22.5	39.4
2025-08-24T15:09	10	100	0.2	99	100	465	0.8	464	467	22.8	39.3
2025-08-24T15:10	10	99	0.1	99	100	468	0.8	466	469	22.9	39.4
2025-08-24T15:11	10	99	0.1	99	99	466	1.4	464	468	23.0	38.6
2025-08-24T15:12	10	99	0.2	98	99	464	0.6	463	466	22.8	38.9
2025-08-24T15:13	10	98	0.1	98	98	465	0.5	464	466	22.9	39.4
2025-08-24T15:14	10	98	0.1	97	98	465	1.1	463	466	22.7	39.3
2025-08-24T15:15	10	97	0.1	97	98	465	0.8	464	466	22.5	39.3
2025-08-24T15:16	10	97	0.2	97	97	464	0.8	462	465	22.5	39.1
2025-08-24T15:17	10	97	0.2	97	97	463	1.4	461	465	22.5	39.4
2025-08-24T15:18	10	97	0.1	96	97	462	0.9	460	464	22.4	39.3
2025-08-24T15:19	10	96	0.1	96	96	465	0.9	463	466	22.5	39.8
2025-08-24T15:20	10	96	0.1	96	96	465	0.6	464	467	22.7	39.6
2025-08-24T15:21	10	96	0.2	95	96	465	0.5	464	466	22.7	39.9
2025-08-24T15:22	10	95	0.1	95	95	463	1.3	461	465	22.6	39.2
2025-08-24T15:23	10	95	0.2	94	95	459	1.1	457	461	22.3	39.3
2025-08-24T15:24	10	94	0.1	94	94	462	1.3	459	464	22.4	39.7
2025-08-24T15:25	10	94	0.1	94	94	464	0.5	463	465	22.6	39.8
2025-08-24T15:26	10	94	0.1	93	94	463	0.7	462	464	22.7	39.3
2025-08-24T15:27	10	93	0.2	93	94	461	0.8	460	463	22.8	39.7
2025-08-24T15:28	10	93	0.2	92	93	461	0.9	459	462	22.8	40.1
2025-08-24T15:29	10	92	0.1	92	92	461	1.2	459	463	22.9	39.7
2025-08-24T15:30	10	92	0.2	91	92	457	0.9	456	459	22.4	39.5
2025-08-24T15:31	10	91	0.2	91	91	456	0.4	455	457	22.3	39.9
2025-08-24T15:32	10	91	0.1	90	91	457	0.9	455	458	22.5	40.0
2025-08-24T15:33	10	90	0.2	90	90	456	1.6	453	458	22.6	40.1
2025-08-24T15:34	10	90	0.1	89	90	454	0.3	453	455	22.6	40.4
2025-08-24T15:35	10	89	0.2	89	90	455	1.2	453	457	22.7	40.3
2025-08-24T15:36	10	89	0.1	89	89	455	0.8	454	456	23.1	40.4
2025-08-24T15:37	10	89	0.1	88	89	453	0.6	452	455	22.7	40.6
2025-08-24T15:38	10	88	0.1	88	89	453	1.0	451	454	22.5	40.6
2025-08-24T15:39	10	88	0.2	88	88	452	0.6	451	453	22.3	41.0
2025-08-24T15:40	10	87	0.2	87	88	453	0.5	451	454	22.4	40.9
2025-08-24T15:41	10	87	0.2	87	87	452	0.4	451	453	22.4	41.3
2025-08-24T15:42	10	86	0.2	86	87	451	0.5	450	452	22.5	41.7
2025-08-24T15:43	10	86	0.2	86	86	450	0.6	450	452	22.4	42.1
2025-08-24T15:44	10	85	0.1	85	86	452	0.4	451	453	22.6	41.7
2025-08-24T15:45	10	85	0.1	85	85	453	0.3	452	453	22.5	41.8
2025-08-24T15:46	10	85	0.1	85	85	452	0.5	451	453	22.5	41.4
2025-08-24T15:47	10	84	0.2	84	85	451	0.7	449	452	22.4	41.6
2025-08-24T15:48	10	84	0.1	84	84	450	0.8	448	451	22.3	41.6
2025-08-24T15:49	10	84	0.1	84	84	452	0.5	451	453	22.4	41.9
2025-08-24T15:50	10	83	0.1	83	84	453	0.7	452	455	22.3	41.8
2025-08-24T15:51	10	83	0.2	83	84	454	0.6	452	455	22.6	41.6
2025-08-24T15:52	10	83	0.2	82	83	451	1.1	450	454	22.7	41.5
2025-08-24T15:53	10	82	0.2	82	83	450	0.4	449	451	22.6	41.9
2025-08-24T15:54	10	82	0.2	81	83	449	0.3	448	450	22.5	41.7
2025-08-24T15:55	10	81	0.2	81	82	448	0.4	447	449	22.2	42.0
2025-08-24T15:56	10	81	0.2	80	82	448	0.6	448	450	22.1	42.2
2025-08-24T15:57	10	80	0.2	80	81	450	0.3	450	451	22.2	42.3
2025-08-24T15:58	10	80	0.1	80	81	450	0.4	450	451	22.4	42.1
2025-08-24T15:59	10	80	0.2	79	80	450	0.5	449	451	22.6	42.5
2025-08-24T16:00	10	79	0.2	79	80	451	0.3	450	451	22.6	42.2
2025-08-24T16:01	10	79	0.2	78	79	448	1.3	446	450	22.5	42.1
2025-08-24T16:02	10	78	0.2	78	79	446	0.4	445	447	22.4	41.7
2025-08-24T16:03	10	78	0.2	77	79	447	0.3	446	448	22.3	41.7
2025-08-24T16:04	10	77	0.2	77	78	447	0.3	447	448	22.2	41.8
2025-08-24T16:05	10	77	0.3	76	78	447	0.3	446	448	22.1	41.9
2025-08-24T16:06	10	76	0.2	76	77	446	1.0	444	448	22.3	41.7
2025-08-24T16:07	10	76	0.3	75	76	446	0.6	444	447	22.4	41.7
2025-08-24T16:08	10	75	0.3	75	76	447	0.6	446	449	22.6	42.0
2025-08-24T16:09	10	75	0.2	75	75	447	0.7	445	448	22.5	41.7
2025-08-24T16:10	10	75	0.2	74	75	446	0.8	445	447	22.4	41.7
2025-08-24T16:11	10	74	0.2	74	75	447	0.4	445	447	22.4	41.8
2025-08-24T16:12	10	74	0.2	73	74	446	0.3	446	447	22.4	41.6
2025-08-24T16:13	10	73	0.2	73	74	447	0.4	446	448	22.5	42.0
2025-08-24T16:14	10	73	0.2	72	73	445	0.8	444	447	22.5	41.7
2025-08-24T16:15	10	72	0.2	72	73	446	0.5	445	447	22.6	42.2
2025-08-24T16:16	10	72	0.2	71	72	445	0.3	444	445	22.6	42.2
2025-08-24T16:17	10	71	0.3	71	72	444	0.4	443	445	22.5	42.0
2025-08-24T16:18	10	71	0.2	70	71	444	0.6	443	445	22.3	41.6
2025-08-24T16:19	10	70	0.2	70	71	445	0.5	445	447	22.4	42.1
2025-08-24T16:20	10	70	0.2	69	70	444	0.3	444	445	22.3	41.6
2025-08-24T16:21	10	69	0.3	69	70	446	0.8	444	447	22.5	42.5
2025-08-24T16:22	10	69	0.2	69	69	445	0.6	443	446	22.7	42.4
2025-08-24T16:23	10	68	0.3	68	69	442	0.9	440	443	22.4	41.5
2025-08-24T16:24	10	68	0.3	67	68	441	0.3	440	441	22.3	41.8
2025-08-24T16:25	10	67	0.2	67	68	441	0.2	440	442	22.3	42.1
2025-08-24T16:26	10	67	0.2	66	67	442	0.4	441	443	22.5	42.8
2025-08-24T16:27	10	66	0.2	66	67	442	0.5	440	442	22.5	41.9
2025-08-24T16:28	10	66	0.2	66	66	441	0.4	440	442	22.3	41.5
2025-08-24T16:29	10	65	0.2	65	66	439	0.3	439	440	22.1	41.7
2025-08-24T16:30	10	65	0.2	64	65	440	0.6	438	441	22.2	42.1
2025-08-24T16:31	10	64	0.2	64	65	439	0.5	438	440	22.3	42.0
2025-08-24T16:32	10	64	0.2	63	64	439	0.4	439	440	22.4	42.2
2025-08-24T16:33	10	63	0.3	63	64	440	0.4	439	440	22.4	42.3
2025-08-24T16:34	10	63	0.2	62	63	439	0.4	438	440	22.3	41.8
2025-08-24T16:35	10	62	0.2	62	63	439	0.4	438	440	22.3	41.9
2025-08-24T16:36	10	62	0.3	61	62	438	0.4	438	439	22.4	41.8
2025-08-24T16:37	10	61	0.2	61	62	439	0.4	438	440	22.5	41.8
2025-08-24T16:38	10	60	0.2	60	61	437	0.6	436	438	22.4	41.6
2025-08-24T16:39	10	60	0.2	59	60	436	0.4	435	437	22.3	42.3
2025-08-24T16:40	10	60	0.2	59	60	436	0.4	435	436	22.1	42.5
2025-08-24T16:41	10	59	0.2	59	59	436	0.6	435	437	22.1	42.6
2025-08-24T16:42	10	59	0.2	58	59	437	0.3	436	438	22.1	42.6
2025-08-24T16:43	10	58	0.2	58	59	437	0.5	436	438	22.3	42.9
2025-08-24T16:44	10	58	0.2	57	58	436	0.4	436	437	22.4	43.3
2025-08-24T16:45	10	57	0.2	57	58	436	0.3	435	437	22.4	43.2
2025-08-24T16:46	10	57	0.2	56	57	434	0.5	434	435	22.3	43.0
2025-08-24T16:47	10	56	0.2	56	56	435	0.5	434	436	22.4	43.6
2025-08-24T16:48	10	55	0.2	55	56	434	0.5	433	436	22.4	42.7
2025-08-24T16:49	10	55	0.1	55	55	434	0.5	433	435	22.4	43.0
2025-08-24T16:50	10	54	0.2	54	55	434	0.2	434	435	22.5	43.2
2025-08-24T16:51	10	54	0.2	54	54	433	0.5	432	434	22.4	42.4
2025-08-24T16:52	10	53	0.3	53	54	433	0.5	431	434	22.3	41.7
2025-08-24T16:53	10	53	0.2	52	53	431	0.2	431	432	22.2	41.3
2025-08-24T16:54	10	52	0.2	52	52	431	0.3	430	431	22.1	41.8
2025-08-24T16:55	10	52	0.2	51	52	431	0.2	430	431	22.2	42.0
2025-08-24T16:56	10	51	0.2	50	52	430	0.2	430	431	22.2	41.9
2025-08-24T16:57	10	50	0.2	50	51	431	0.4	430	432	22.2	42.0
2025-08-24T16:58	10	50	0.2	50	50	431	0.4	430	432	22.3	42.5
2025-08-24T16:59	10	49	0.2	49	50	429	0.3	429	430	22.1	42.6
2025-08-24T17:00	10	49	0.2	48	49	430	0.5	429	431	22.2	43.5
2025-08-24T17:01	10	48	0.2	48	49	430	0.2	430	431	22.3	43.8
2025-08-24T17:02	10	48	0.2	47	48	430	0.3	429	431	22.3	44.1
2025-08-24T17:03	10	47	0.3	47	48	429	0.5	428	430	22.3	44.5
2025-08-24T17:04	10	47	0.3	46	48	428	0.3	428	429	22.2	44.3
2025-08-24T17:05	10	46	0.2	46	47	428	0.4	427	429	22.0	43.5
2025-08-24T17:06	10	45	0.2	45	46	428	0.2	427	428	22.1	44.3
2025-08-24T17:07	10	45	0.2	45	45	428	0.3	427	428	22.1	43.9
2025-08-24T17:08	10	44	0.3	44	45	427	0.3	426	428	22.1	43.9
2025-08-24T17:09	10	44	0.3	43	45	427	0.2	426	427	22.1	44.0
2025-08-24T17:10	10	43	0.3	43	44	427	0.2	426	427	22.1	43.9
2025-08-24T17:11	10	43	0.2	42	43	427	0.2	426	427	22.1	44.2
2025-08-24T17:12	10	42	0.3	41	43	426	0.5	425	427	22.1	44.6
2025-08-24T17:13	10	41	0.3	41	42	426	0.3	425	427	22.1	45.1
2025-08-24T17:14	10	41	0.3	40	41	425	0.3	425	426	22.1	45.3
2025-08-24T17:15	10	40	0.3	40	41	425	0.3	424	425	22.0	45.6
2025-08-24T17:16	10	40	0.2	39	40	424	0.3	423	424	21.9	46.0
2025-08-24T17:17	10	39	0.2	38	39	423	0.3	423	424	21.9	45.5
2025-08-24T17:18	10	38	0.3	38	39	423	0.2	422	423	21.9	45.5
2025-08-24T17:19	10	38	0.3	37	38	423	0.2	422	423	21.9	45.8
2025-08-24T17:20	10	37	0.3	36	38	422	0.3	422	423	21.9	46.1
2025-08-24T17:21	10	37	0.3	36	37	422	0.3	421	423	21.9	46.4
2025-08-24T17:22	10	36	0.2	35	36	422	0.3	421	422	21.8	46.1
2025-08-24T17:23	10	35	0.2	35	36	421	0.2	421	422	21.8	46.1
2025-08-24T17:24	10	35	0.2	34	35	421	0.2	420	421	21.8	46.1
2025-08-24T17:25	10	34	0.3	33	35	420	0.2	420	421	21.8	46.4
2025-08-24T17:26	10	33	0.3	33	34	420	0.3	420	421	21.7	46.5
2025-08-24T17:27	10	33	0.2	32	33	420	0.3	419	421	21.7	46.6
2025-08-24T17:28	10	32	0.2	32	33	419	0.2	419	420	21.7	47.1
2025-08-24T17:29	10	31	0.2	31	32	419	0.3	418	420	21.6	46.8
2025-08-24T17:30	10	31	0.1	30	31	418	0.2	418	419	21.6	46.4
2025-08-24T17:31	10	30	0.2	30	31	418	0.2	418	419	21.6	46.6
2025-08-24T17:32	10	30	0.2	29	30	418	0.2	417	418	21.6	46.5
2025-08-24T17:33	10	29	0.2	28	29	418	0.3	417	418	21.6	46.7
2025-08-24T17:34	10	28	0.2	28	29	417	0.2	417	418	21.5	46.9
2025-08-24T17:35	10	27	0.3	27	28	417	0.2	416	417	21.5	46.9
2025-08-24T17:36	10	26	0.1	26	27	416	0.3	416	417	21.5	47.2
2025-08-24T17:37	10	26	0.2	26	26	416	0.3	415	416	21.4	47.3
2025-08-24T17:38	10	26	0.2	25	26	416	0.2	415	416	21.4	47.6
2025-08-24T17:39	10	25	0.2	25	25	415	0.3	415	416	21.4	47.8
2025-08-24T17:40	10	24	0.2	24	25	415	0.2	414	416	21.4	47.9
2025-08-24T17:41	10	24	0.2	23	24	415	0.2	414	415	21.4	48.1
2025-08-24T17:42	10	23	0.1	23	23	414	0.3	413	415	21.3	48.4
2025-08-24T17:43	10	22	0.2	22	23	414	0.2	413	414	21.3	48.8
2025-08-24T17:44	10	21	0.2	21	22	414	0.2	413	414	21.3	48.2
2025-08-24T17:45	10	21	0.2	20	21	413	0.3	413	414	21.3	47.8
2025-08-24T17:46	10	20	0.2	20	21	413	0.2	412	413	21.3	48.5
2025-08-24T17:47	10	20	0.2	19	20	412	0.3	412	413	21.3	48.3
2025-08-24T17:48	10	19	0.2	18	19	412	0.3	411	412	21.2	48.8
2025-08-24T17:49	10	18	0.2	18	19	411	0.2	411	412	21.1	49.0
2025-08-24T17:50	10	18	0.2	17	18	411	0.3	410	411	21.1	49.0
2025-08-24T17:51	10	17	0.2	16	17	411	0.2	410	411	21.1	48.8
2025-08-24T17:52	10	16	0.2	16	17	411	0.4	409	411	21.2	48.6
2025-08-24T17:53	10	16	0.2	15	16	410	0.3	409	410	21.1	49.4
2025-08-24T17:54	10	15	0.3	14	15	409	0.3	409	410	21.1	49.4
2025-08-24T17:55	10	14	0.2	13	14	409	0.2	408	410	21.0	49.9
2025-08-24T17:56	10	12	1.3	9	14	409	0.2	408	409	21.0	49.7
2025-08-24T17:57	10	7	1.0	6	9	408	0.5	407	409	21.0	49.8
2025-08-24T17:58	10	6	0.3	6	7	407	0.2	407	408	20.9	50.0
2025-08-24T17:59	10	8	0.6	7	9	407	0.4	406	408	20.9	50.0
2025-08-24T18:00	10	8	0.4	7	9	407	0.3	406	407	20.9	50.1
2025-08-24T18:01	10	7	0.1	7	8	406	0.4	405	407	20.9	50.6
2025-08-24T18:02	10	6	0.6	5	7	405	0.3	405	406	20.8	50.8
2025-08-24T18:03	10	4	0.6	3	5	405	0.3	404	405	20.8	50.6
2025-08-24T18:04	10	3	0.3	2	3	405	0.3	404	405	20.8	50.7
2025-08-24T18:05	10	2	0.1	2	2	404	0.2	404	405	20.8	50.2
2025-08-24T18:06	10	2	0.1	2	2	404	0.3	403	404	20.8	50.8
2025-08-24T18:07	10	2	0.1	1	2	403	0.3	403	404	20.7	51.0
2025-08-24T18:08	10	2	0.3	2	3	403	0.2	403	404	20.7	50.7
2025-08-24T18:09	10	3	0.2	3	3	403	0.2	403	404	20.7	50.8
2025-08-24T18:10	10	3	0.2	3	4	403	0.2	402	403	20.6	51.4
2025-08-24T18:11	10	3	0.3	2	3	403	0.2	403	403	20.6	51.5
2025-08-24T18:12	10	2	0.2	1	2	402	0.2	402	403	20.5	51.5
2025-08-24T18:13	10	2	0.1	1	2	402	0.3	402	403	20.5	51.6
2025-08-24T18:14	10	1	0.1	1	2	402	0.3	401	402	20.5	51.7
2025-08-24T18:15	10	1	0.1	1	2	401	0.3	401	402	20.4	52.1
2025-08-24T18:16	10	1	0.1	1	1	401	0.3	400	401	20.4	52.2
2025-08-24T18:17	10	1	0.1	1	1	401	0.2	400	401	20.4	52.3
2025-08-24T18:18	10	1	0.1	1	1	400	0.2	399	400	20.3	52.5
2025-08-24T18:19	10	1	0.1	1	1	399	0.3	399	400	20.3	52.5
2025-08-24T18:20	10	1	0.1	1	1	399	0.2	399	400	20.3	52.5
2025-08-24T18:21	10	1	0.1	1	1	399	0.3	398	399	20.2	52.9
2025-08-24T18:22	10	1	0.2	1	2	399	0.5	398	400	20.2	52.5
2025-08-24T18:23	10	1	0.2	0	1	399	0.2	399	400	20.3	52.4
2025-08-24T18:24	10	1	0.2	0	2	398	0.3	398	399	20.3	52.1
2025-08-24T18:25	10	1	0.1	1	1	398	0.2	398	399	20.3	52.3
2025-08-24T18:26	10	1	0.1	1	1	398	0.3	397	398	20.2	52.4
2025-08-24T18:27	10	1	0.1	0	1	397	0.2	397	398	20.1	52.8
2025-08-24T18:28	10	1	0.1	0	1	396	0.4	396	397	20.0	53.3
2025-08-24T18:29	10	1	0.1	0	1	396	0.3	395	396	19.9	54.5
2025-08-24T18:30	10	0	0.1	0	1	395	0.3	394	396	19.7	55.9
2025-08-24T18:31	10	0	0.1	0	1	394	0.3	393	395	19.6	56.7
2025-08-24T18:32	10	0	0.0	0	0	394	0.3	393	394	19.5	57.5
2025-08-24T18:33	10	0	0.1	0	0	393	0.3	393	394	19.5	57.9
2025-08-24T18:34	10	0	0.1	0	0	393	0.2	392	393	19.4	58.0
2025-08-24T18:35	10	0	0.1	0	0	392	0.2	392	393	19.4	57.3
2025-08-24T18:36	10	0	0.1	0	0	392	0.3	391	393	19.4	57.3
2025-08-24T18:37	10	0	0.1	0	0	392	0.2	391	392	19.3	57.8
2025-08-24T18:38	10	0	0.1	0	0	391	0.2	391	392	19.2	57.9
2025-08-24T18:39	10	0	0.1	0	0	391	0.2	391	391	19.1	58.2
2025-08-24T18:40	10	0	0.1	0	0	391	0.2	390	391	19.1	58.6
2025-08-24T18:41	10	0	0.1	0	1	391	0.3	390	392	19.0	58.4
2025-08-24T18:42	10	0	0.1	0	0	390	0.3	390	391	19.0	58.4
2025-08-24T18:43	10	0	0.1	0	0	390	0.3	390	391	19.0	58.9
2025-08-24T18:44	10	0	0.1	0	0	390	0.2	390	391	18.9	59.1
2025-08-24T18:45	10	0	0.1	0	0	390	0.2	389	390	18.9	58.9
2025-08-24T18:46	10	0	0.1	0	0	390	0.3	389	390	18.8	59.4
2025-08-24T18:47	10	0	0.1	0	0	390	0.3	389	390	18.8	59.4
2025-08-24T18:48	10	0	0.1	0	0	389	0.2	389	390	18.7	59.3
2025-08-24T18:49	10	0	0.1	0	0	389	0.3	388	389	18.7	59.5
2025-08-24T18:50	10	0	0.1	0	0	389	0.2	388	389	18.8	58.7
2025-08-24T18:51	10	0	0.1	0	0	389	0.3	389	390	18.8	58.6
2025-08-24T18:52	10	0	0.1	0	0	389	0.3	388	390	18.8	58.3
2025-08-24T18:53	10	0	0.1	0	0	389	0.2	388	389	18.8	58.3
2025-08-24T18:54	10	0	0.1	0	0	389	0.2	388	389	18.8	58.4
2025-08-24T18:55	10	0	0.1	0	0	389	0.3	388	389	18.7	58.5
2025-08-24T18:56	10	0	0.1	0	0	389	0.3	388	389	18.7	58.6
2025-08-24T18:57	10	0	0.1	0	0	388	0.2	388	389	18.7	58.7
2025-08-24T18:58	10	0	0.1	0	0	388	0.2	387	388	18.7	58.8
2025-08-24T18:59	10	0	0.2	0	1	387	0.2	387	388	18.7	58.7
2025-08-24T19:00	10	0	0.1	0	0	387	0.2	387	387	18.6	59.1
2025-08-24T19:01	10	0	0.1	0	0	387	0.2	386	387	18.5	59.4
2025-08-24T19:02	10	0	0.1	0	0	387	0.3	386	387	18.5	59.5
2025-08-24T19:03	10	0	0.2	0	0	386	0.2	385	387	18.4	59.9
2025-08-24T19:04	10	0	0.2	0	0	386	0.3	385	387	18.4	60.1
2025-08-24T19:05	10	0	0.2	0	1	386	0.3	385	386	18.4	60.0
2025-08-24T19:06	10	0	0.1	0	0	385	0.2	385	386	18.4	59.9
2025-08-24T19:07	10	0	0.1	0	0	385	0.2	385	386	18.4	60.1
2025-08-24T19:08	10	0	0.1	0	1	385	0.3	384	386	18.4	59.8
2025-08-24T19:09	10	0	0.1	0	0	385	0.2	385	385	18.4	59.7
2025-08-24T19:10	10	0	0.1	0	0	385	0.2	385	386	18.4	59.8
2025-08-24T19:11	10	0	0.1	0	0	385	0.2	385	386	18.4	59.8
2025-08-24T19:12	10	0	0.0	0	0	385	0.3	385	386	18.4	59.9
2025-08-24T19:13	10	0	0.1	0	0	385	0.2	385	386	18.3	60.0
2025-08-24T19:14	10	0	0.1	0	0	385	0.3	385	386	18.3	59.9
2025-08-24T19:15	10	0	0.1	0	0	385	0.3	384	386	18.4	59.5
2025-08-24T19:16	10	0	0.1	0	0	385	0.3	384	386	18.4	59.5
2025-08-24T19:17	10	0	0.1	0	0	385	0.2	385	386	18.3	59.6
2025-08-24T19:18	10	0	0.1	0	0	385	0.2	384	385	18.3	59.7
2025-08-24T19:19	10	0	0.1	0	0	384	0.2	384	385	18.3	59.5
2025-08-24T19:20	10	0	0.1	0	0	385	0.3	384	385	18.3	59.7
2025-08-24T19:21	10	0	0.1	0	0	385	0.3	384	385	18.3	59.0
2025-08-24T19:22	10	0	0.1	0	0	385	0.3	384	386	18.4	58.9
2025-08-24T19:23	10	0	0.1	0	0	385	0.3	384	385	18.4	58.8
2025-08-24T19:24	10	0	0.1	0	0	385	0.2	385	386	18.4	58.6
2025-08-24T19:25	10	0	0.1	0	0	385	0.2	385	386	18.4	58.9
2025-08-24T19:26	10	0	0.1	0	0	386	0.2	385	386	18.4	58.8
2025-08-24T19:27	10	0	0.1	0	0	386	0.3	385	387	18.4	58.6
2025-08-24T19:28	10	0	0.1	0	0	386	0.3	385	387	18.4	58.6
2025-08-24T19:29	10	0	0.1	0	0	386	0.3	386	387	18.4	58.6
2025-08-24T19:30	10	0	0.1	0	0	386	0.2	386	387	18.4	58.5
2025-08-24T19:31	10	0	0.1	0	0	387	0.2	386	387	18.4	58.3
2025-08-24T19:32	10	0	0.1	0	0	386	0.3	386	387	18.4	58.6
2025-08-24T19:33	10	0	0.1	0	0	387	0.3	386	387	18.4	58.7
2025-08-24T19:34	10	0	0.1	0	0	386	0.2	386	387	18.3	58.9
2025-08-24T19:35	10	0	0.1	0	0	387	0.2	386	387	18.4	58.6
2025-08-24T19:36	10	0	0.1	0	0	387	0.2	386	387	18.3	59.0
2025-08-24T19:37	10	0	0.1	0	0	387	0.2	387	388	18.3	59.2
2025-08-24T19:38	10	0	0.0	0	0	388	0.3	387	388	18.3	59.2
2025-08-24T19:39	10	0	0.1	0	0	388	0.3	387	388	18.3	59.4
2025-08-24T19:40	10	0	0.1	0	0	388	0.2	387	388	18.2	59.5
2025-08-24T19:41	10	0	0.1	0	0	388	0.2	387	388	18.2	59.7
2025-08-24T19:42	10	0	0.1	0	0	388	0.2	387	388	18.2	59.5
2025-08-24T19:43	10	0	0.1	0	0	387	0.3	387	388	18.2	59.3
2025-08-24T19:44	10	0	0.0	0	0	387	0.3	386	388	18.2	59.5
2025-08-24T19:45	10	0	0.1	0	0	387	0.2	387	388	18.2	59.7
2025-08-24T19:46	10	0	0.1	0	0	387	0.2	386	387	18.2	59.4
2025-08-24T19:47	10	0	0.1	0	0	387	0.3	386	387	18.2	59.5
2025-08-24T19:48	10	0	0.0	0	0	386	0.2	386	387	18.2	59.5
2025-08-24T19:49	10	0	0.0	0	0	386	0.2	386	387	18.2	59.6
2025-08-24T19:50	10	0	0.0	0	0	385	0.3	385	386	18.2	59.6
2025-08-24T19:51	10	0	0.1	0	0	385	0.2	385	386	18.2	59.4
2025-08-24T19:52	10	0	0.1	0	1	386	0.3	385	386	18.2	59.4
2025-08-24T19:53	10	0	0.1	0	0	386	0.2	385	387	18.1	59.5
2025-08-24T19:54	10	0	0.1	0	0	386	0.3	385	387	18.1	59.8
2025-08-24T19:55	10	0	0.1	0	0	386	0.4	385	387	18.1	59.9
2025-08-24T19:56	10	0	0.2	-1	1	386	0.2	385	386	18.0	60.1
2025-08-24T19:57	10	0	0.1	0	1	386	0.3	385	386	18.0	60.2
2025-08-24T19:58	10	0	0.2	0	0	385	0.3	384	386	17.9	60.5
2025-08-24T19:59	10	0	0.1	0	0	385	0.3	384	385	17.9	60.5
2025-08-24T20:00	10	0	0.2	0	1	384	0.3	383	385	17.9	60.5
2025-08-24T20:01	10	0	0.2	0	1	384	0.4	383	384	17.9	60.8
2025-08-24T20:02	10	0	0.2	-1	0	383	0.2	383	384	17.9	60.6
2025-08-24T20:03	10	0	0.2	0	1	383	0.3	382	384	17.9	60.4
2025-08-24T20:04	10	0	0.1	0	0	383	0.2	382	383	17.9	60.6
2025-08-24T20:05	10	0	0.1	0	0	382	0.3	381	383	17.8	61.2
2025-08-24T20:06	10	0	0.1	0	0	382	0.3	381	383	17.8	61.1
2025-08-24T20:07	10	0	0.1	0	0	382	0.3	381	382	17.7	61.7
2025-08-24T20:08	10	0	0.1	0	0	381	0.4	380	382	17.6	62.0
2025-08-24T20:09	10	0	0.1	0	0	381	0.3	381	382	17.6	61.9
2025-08-24T20:10	10	0	0.1	0	0	381	0.2	380	382	17.5	62.3
2025-08-24T20:11	10	0	0.1	0	0	381	0.3	380	381	17.6	61.7
2025-08-24T20:12	10	0	0.1	0	0	380	0.4	379	381	17.6	62.1
2025-08-24T20:13	10	0	0.0	0	0	380	0.5	379	381	17.5	62.8
2025-08-24T20:14	10	0	0.1	0	0	380	0.2	379	380	17.5	62.4
2025-08-24T20:15	10	0	0.1	0	0	379	0.2	379	380	17.5	62.7
2025-08-24T20:16	10	0	0.1	0	0	379	0.3	378	380	17.4	63.2
2025-08-24T20:17	10	0	0.0	0	0	379	0.3	379	380	17.4	63.2
2025-08-24T20:18	10	0	0.1	0	0	379	0.3	379	380	17.3	64.0
2025-08-24T20:19	10	0	0.1	0	0	379	0.3	379	380	17.2	64.5
2025-08-24T20:20	10	0	0.1	0	0	379	0.3	379	380	17.2	64.1
2025-08-24T20:21	10	0	0.1	0	0	379	0.2	378	380	17.1	64.5
2025-08-24T20:22	10	0	0.1	0	0	379	0.3	379	380	17.2	63.8
2025-08-24T20:23	10	0	0.1	0	0	380	0.3	379	380	17.3	63.3
2025-08-24T20:24	10	0	0.1	0	0	380	0.2	379	380	17.3	63.9
2025-08-24T20:25	10	0	0.1	0	0	380	0.3	379	380	17.3	63.7
2025-08-24T20:26	10	0	0.1	0	0	380	0.2	379	380	17.2	64.0
2025-08-24T20:27	10	0	0.1	0	0	380	0.3	379	380	17.3	63.7
2025-08-24T20:28	10	0	0.1	0	0	380	0.2	379	380	17.1	64.7
2025-08-24T20:29	10	0	0.1	0	0	380	0.2	379	380	17.1	64.4
2025-08-24T20:30	10	0	0.1	0	0	379	0.3	379	380	17.1	64.6
2025-08-24T20:31	10	0	0.1	0	0	379	0.2	379	380	17.1	64.9
2025-08-24T20:32	10	0	0.1	0	0	379	0.3	379	380	17.0	65.1
2025-08-24T20:33	10	0	0.1	0	0	379	0.3	379	380	17.0	64.8
2025-08-24T20:34	10	0	0.1	0	0	380	0.2	379	380	17.0	65.4
2025-08-24T20:35	10	0	0.1	0	0	379	0.3	379	380	16.9	65.9
2025-08-24T20:36	10	0	0.1	0	0	379	0.3	379	380	16.8	66.0
2025-08-24T20:37	10	0	0.1	0	0	379	0.2	378	379	16.8	66.2
2025-08-24T20:38	10	0	0.1	0	0	379	0.3	378	379	16.7	66.6
2025-08-24T20:39	10	0	0.1	0	0	379	0.3	378	379	16.8	66.3
2025-08-24T20:40	10	0	0.1	0	0	379	0.3	378	379	16.7	66.3
2025-08-24T20:41	10	0	0.1	0	0	378	0.3	377	379	16.9	65.5
2025-08-24T20:42	10	0	0.1	0	0	378	0.3	377	378	16.8	65.5
2025-08-24T20:43	10	0	0.1	0	0	378	0.3	377	378	16.8	65.7
2025-08-24T20:44	10	0	0.1	0	0	378	0.2	377	378	16.8	65.5
2025-08-24T20:45	10	0	0.1	0	0	377	0.3	377	378	16.8	65.7
2025-08-24T20:46	10	0	0.1	0	0	377	0.4	376	378	16.8	65.5
2025-08-24T20:47	10	0	0.1	0	0	377	0.2	376	377	16.7	66.0
2025-08-24T20:48	10	0	0.1	0	0	376	0.2	376	377	16.7	64.0
2025-08-24T20:49	10	0	0.1	0	0	376	0.3	375	376	16.7	66.2
2025-08-24T20:50	10	0	0.1	0	0	376	0.2	375	376	16.4	64.0
2025-08-24T20:51	10	0	0.1	0	0	376	0.3	375	376	16.7	66.2
2025-08-24T20:52	10	0	0.1	0	0	376	0.2	375	376	16.7	66.2
2025-08-24T20:53	10	0	0.1	0	0	375	0.3	375	376	16.7	66.2
2025-08-24T20:54	10	0	0.1	0	0	375	0.3	375	376	16.7	66.2
2025-08-24T20:55	10	0	0.1	0	0	376	0.2	375	376	16.7	66.1
2025-08-24T20:56	10	0	0.1	0	0	376	0.2	376	377	16.6	65.5
2025-08-24T20:57	10	0	0.1	0	0	376	0.1	376	376	16.7	65.2
2025-08-24T20:58	10	0	0.1	0	0	376	0.3	375	377	16.7	65.4
2025-08-24T20:59	10	0	0.1	0	0	377	0.3	376	377	16.7	65.1
2025-08-24T21:00	10	0	0.1	0	0	377	0.2	376	378	16.8	64.6
2025-08-24T21:01	10	0	0.1	0	0	377	0.3	376	377	16.9	64.3
2025-08-24T21:02	10	0	0.1	0	0	377	0.2	376	377	16.9	64.0
2025-08-24T21:03	10	0	0.1	0	0	376	0.3	375	377	17.0	63.7
2025-08-24T21:04	10	0	0.0	0	0	376	0.2	375	376	17.0	63.5
2025-08-24T21:05	10	0	0.0	0	0	376	0.3	375	376	16.9	64.0
2025-08-24T21:06	10	0	0.1	0	0	375	0.3	375	376	17.0	63.7
2025-08-24T21:07	10	0	0.0	0	0	376	0.2	376	377	16.9	64.0
2025-08-24T21:08	10	0	0.0	0	0	376	0.2	376	377	17.0	63.8
2025-08-24T21:09	10	0	0.0	0	0	377	0.3	377	378	17.0	63.6
2025-08-24T21:10	10	0	0.0	0	0	377	0.2	377	378	17.0	63.4
2025-08-24T21:11	10	0	0.0	0	0	377	0.2	377	378	17.0	63.7
2025-08-24T21:12	10	0	0.0	0	0	377	0.3	377	378	17.0	63.6
2025-08-24T21:13	10	0	0.0	0	0	378	0.2	378	379	17.0	63.1
2025-08-24T21:14	10	0	0.0	0	0	378	0.3	378	379	17.1	62.9
2025-08-24T21:15	10	0	0.1	0	0	378	0.3	378	379	17.0	63.4
2025-08-24T21:16	10	0	0.1	0	0	378	0.2	378	378	16.9	64.0
2025-08-24T21:17	10	0	0.1	0	0	378	0.4	377	379	16.8	64.4
2025-08-24T21:18	10	0	0.1	0	0	377	0.3	376	378	16.8	64.9
2025-08-24T21:19	10	0	0.1	0	0	377	0.4	377	378	16.7	65.5
2025-08-24T21:20	10	0	0.1	0	0	378	0.2	377	379	16.8	64.9
2025-08-24T21:21	10	0	0.1	0	0	378	0.3	377	379	16.9	64.0
2025-08-24T21:22	10	0	0.1	0	0	378	0.2	378	379	16.9	64.1
2025-08-24T21:23	10	0	0.1	0	0	379	0.6	378	380	17.0	62.9
2025-08-24T21:24	10	0	0.1	0	0	380	0.2	379	380	17.0	63.2
2025-08-24T21:25	10	0	0.1	0	0	379	0.3	379	380	17.0	63.3
2025-08-24T21:26	10	0	0.1	0	0	380	0.2	379	380	16.9	63.6
2025-08-24T21:27	10	0	0.1	0	0	380	0.2	379	380	16.9	63.7
2025-08-24T21:28	10	0	0.1	0	0	380	0.3	379	380	16.8	64.5
2025-08-24T21:29	10	0	0.1	0	0	379	0.3	378	380	16.8	64.6
2025-08-24T21:30	10	0	0.1	0	0	379	0.2	378	379	16.7	65.9
2025-08-24T21:31	10	0	0.1	0	0	379	0.2	378	379	16.7	65.3
2025-08-24T21:32	10	0	0.1	0	0	379	0.4	378	380	16.8	64.6
2025-08-24T21:33	10	0	0.1	0	0	379	0.3	378	380	16.8	64.2
2025-08-24T21:34	10	0	0.1	0	0	379	0.4	378	380	16.8	64.2
2025-08-24T21:35	10	0	0.2	0	0	378	0.3	377	379	16.7	64.4
2025-08-24T21:36	10	0	0.2	0	1	377	0.5	376	379	16.7	64.6
2025-08-24T21:37	10	0	0.2	0	0	376	0.4	375	377	16.6	65.0
2025-08-24T21:38	10	0	0.2	0	1	375	0.2	375	376	16.5	65.6
2025-08-24T21:39	10	0	0.1	0	0	375	0.3	374	375	16.5	66.1
2025-08-24T21:40	10	0	0.2	0	0	374	0.3	374	375	16.4	66.4
2025-08-24T21:41	10	0	0.1	-1	0	374	0.3	373	375	16.5	65.9
2025-08-24T21:42	10	0	0.1	0	0	374	0.2	374	375	16.5	65.6
2025-08-24T21:43	10	0	0.1	0	0	373	0.2	373	374	16.4	66.1
2025-08-24T21:44	10	0	0.2	0	0	373	0.3	373	374	16.4	66.4
2025-08-24T21:45	10	0	0.1	0	0	373	0.2	373	374	16.3	66.5
2025-08-24T21:46	10	0	0.2	0	0	373	0.3	372	373	16.3	66.2
2025-08-24T21:47	10	0	0.1	0	0	372	0.3	371	373	16.3	66.7
2025-08-24T21:48	10	0	0.1	0	0	373	0.2	372	373	16.2	66.7
2025-08-24T21:49	10	0	0.1	0	0	372	0.3	372	373	16.2	66.7
2025-08-24T21:50	10	0	0.2	0	0	372	0.2	371	372	16.1	66.9
2025-08-24T21:51	10	0	0.2	-1	1	372	0.2	371	372	16.1	67.0
2025-08-24T21:52	10	0	0.1	-1	0	371	0.3	371	372	16.1	66.9
2025-08-24T21:53	10	0	0.1	-1	0	371	0.2	370	371	16.2	66.6
2025-08-24T21:54	10	0	0.2	0	0	371	0.3	370	372	16.2	66.7
2025-08-24T21:55	10	0	0.1	0	0	370	0.6	369	371	16.1	67.6
2025-08-24T21:56	10	0	0.1	0	0	370	0.3	370	371	15.7	70.1
2025-08-24T21:57	10	0	0.1	0	0	370	0.4	369	371	15.7	69.3
2025-08-24T21:58	10	0	0.1	0	0	370	0.3	369	370	15.6	70.5
2025-08-24T21:59	10	0	0.1	0	0	370	0.2	369	370	15.4	71.6
2025-08-24T22:00	10	0	0.1	0	0	369	0.3	369	370	15.3	71.7
2025-08-24T22:01	10	0	0.1	0	0	369	0.2	369	369	15.3	71.7
2025-08-24T22:02	10	0	0.1	-1	0	369	0.2	368	369	15.3	71.8
2025-08-24T22:03	10	0	0.1	0	0	369	0.3	368	370	15.2	71.9
2025-08-24T22:04	10	0	0.1	0	0	369	0.3	369	370	15.3	71.3
2025-08-24T22:05	10	0	0.0	0	0	369	0.3	369	370	15.5	70.4
2025-08-24T22:06	10	0	0.1	0	0	369	0.3	368	370	15.4	70.9
2025-08-24T22:07	10	0	0.1	0	0	369	0.2	368	369	15.3	71.3
2025-08-24T22:08	10	0	0.1	0	0	369	0.1	368	369	15.2	71.9
2025-08-24T22:09	10	0	0.1	0	0	368	0.2	368	369	15.2	72.0
2025-08-24T22:10	10	0	0.0	0	0	368	0.2	368	369	15.2	71.8
2025-08-24T22:11	10	0	0.1	0	0	368	0.3	368	369	15.1	72.6
2025-08-24T22:12	10	0	0.1	0	0	369	0.2	368	369	15.3	71.8
2025-08-24T22:13	10	0	0.1	0	0	369	0.2	368	369	15.5	70.9
2025-08-24T22:14	10	0	0.1	0	0	369	0.3	368	369	15.5	71.2
2025-08-24T22:15	10	0	0.1	0	0	368	0.2	368	369	15.5	71.3
2025-08-24T22:16	10	0	0.1	0	0	368	0.2	368	368	15.5	71.4
2025-08-24T22:17	10	0	0.1	0	0	368	0.2	367	368	15.4	71.9
2025-08-24T22:18	10	0	0.0	0	0	368	0.2	367	368	15.3	72.3
2025-08-24T22:19	10	0	0.1	0	0	368	0.2	367	368	15.2	72.8
2025-08-24T22:20	10	0	0.1	0	0	368	0.4	368	369	15.4	72.1
2025-08-24T22:21	10	0	0.1	0	0	369	0.3	368	369	15.5	71.9
2025-08-24T22:22	10	0	0.0	0	0	368	0.2	368	369	15.4	71.8
2025-08-24T22:23	10	0	0.1	0	0	368	0.3	367	369	15.5	72.8
2025-08-24T22:24	10	0	0.0	0	0	368	0.2	368	369	15.6	73.4
2025-08-24T22:25	10	0	0.0	0	0	368	0.2	368	369	15.6	73.3
2025-08-24T22:26	10	0	0.1	0	0	368	0.2	368	369	15.6	73.4
2025-08-24T22:27	10	0	0.0	0	0	368	0.2	368	368	15.5	73.4
2025-08-24T22:28	10	0	0.0	0	0	368	0.2	367	368	15.4	74.0
2025-08-24T22:29	10	0	0.1	0	0	368	0.2	367	368	15.4	74.3
2025-08-24T22:30	10	0	0.1	0	0	367	0.3	367	368	15.3	74.2
2025-08-24T22:31	10	0	0.1	0	0	368	0.3	367	368	15.2	74.5
2025-08-24T22:32	10	0	0.1	0	0	367	0.2	367	368	15.1	75.2
2025-08-24T22:33	10	0	0.1	0	0	367	0.3	366	368	15.1	75.8
2025-08-24T22:34	10	0	0.1	0	0	367	0.2	366	367	14.9	76.1
2025-08-24T22:35	10	0	0.1	0	0	367	0.2	366	367	14.8	76.6
2025-08-24T22:36	10	0	0.1	0	0	367	0.2	366	367	14.6	77.4
2025-08-24T22:37	10	0	0.1	0	0	367	0.2	366	367	14.4	78.4
2025-08-24T22:38	10	0	0.1	0	0	367	0.2	366	367	14.3	78.5
2025-08-24T22:39	10	0	0.1	0	0	367	0.3	366	367	14.3	77.9
2025-08-24T22:40	10	0	0.1	0	0	366	0.2	366	367	14.4	77.2
2025-08-24T22:41	10	0	0.1	0	0	366	0.3	366	367	14.4	76.6
2025-08-24T22:42	10	0	0.1	0	0	366	0.2	366	366	14.4	76.5
2025-08-24T22:43	10	0	0.1	0	0	366	0.3	365	366	14.4	76.4
2025-08-24T22:44	10	0	0.1	0	0	366	0.3	365	366	14.3	76.5
2025-08-24T22:45	10	0	0.1	0	0	366	0.3	365	366	14.3	76.9
2025-08-24T22:46	10	0	0.1	0	0	366	0.2	365	366	14.2	77.5
2025-08-24T22:47	10	0	0.1	0	0	366	0.3	366	367	14.2	77.8
2025-08-24T22:48	10	0	0.1	0	0	366	0.3	366	367	14.1	78.3
2025-08-24T22:49	10	0	0.1	0	0	366	0.2	365	366	14.1	77.9
2025-08-24T22:50	10	0	0.1	0	0	366	0.3	365	366	14.1	78.2
2025-08-24T22:51	10	0	0.1	0	0	365	0.2	365	365	14.1	78.4
2025-08-24T22:52	10	0	0.1	0	0	365	0.2	365	365	14.0	78.9
2025-08-24T22:53	10	0	0.1	0	0	365	0.3	364	366	14.1	77.7
2025-08-24T22:54	10	0	0.1	0	0	365	0.2	364	365	14.1	78.1
2025-08-24T22:55	10	0	0.1	0	0	365	0.2	364	365	14.0	79.3
2025-08-24T22:56	10	0	0.1	0	0	365	0.3	364	365	13.9	80.0
2025-08-24T22:57	10	0	0.1	0	0	365	0.3	365	366	13.9	79.1
2025-08-24T22:58	10	0	0.1	0	0	365	0.3	364	366	14.1	77.9
2025-08-24T22:59	10	0	0.1	0	0	366	0.2	365	366	14.1	77.9
2025-08-24T23:00	10	0	0.1	0	0	366	0.3	365	366	14.0	78.0
2025-08-24T23:01	10	0	0.1	0	0	366	0.3	366	367	14.1	77.7
2025-08-24T23:02	10	0	0.1	0	0	367	0.4	366	367	14.2	77.4
2025-08-24T23:03	10	0	0.1	0	0	367	0.2	366	367	14.2	77.3
2025-08-24T23:04	10	0	0.1	0	0	367	0.2	366	367	14.1	77.9
2025-08-24T23:05	10	0	0.1	0	0	367	0.3	366	368	14.0	78.7
2025-08-24T23:06	10	0	0.1	0	0	367	0.3	367	368	14.3	77.2
2025-08-24T23:07	10	0	0.1	0	0	367	0.2	367	368	14.4	76.5
2025-08-24T23:08	10	0	0.1	0	0	367	0.2	367	368	14.5	76.1
2025-08-24T23:09	10	0	0.1	0	0	367	0.2	367	368	14.6	75.8
2025-08-24T23:10	10	0	0.1	0	0	367	0.2	367	368	14.6	75.6
2025-08-24T23:11	10	0	0.0	0	0	367	0.3	366	367	14.7	75.5
2025-08-24T23:12	10	0	0.0	0	0	366	0.3	366	367	14.6	76.5
2025-08-24T23:13	10	0	0.1	0	0	366	0.2	366	367	14.5	76.8
2025-08-24T23:14	10	0	0.0	0	0	366	0.3	365	366	14.5	76.5
2025-08-24T23:15	10	0	0.1	0	0	366	0.3	365	366	14.4	77.3
2025-08-24T23:16	10	0	0.0	0	0	366	0.2	365	366	14.3	77.6
2025-08-24T23:17	10	0	0.1	0	0	365	0.2	365	366	14.1	79.6
2025-08-24T23:18	10	0	0.1	0	0	365	0.3	364	365	14.0	79.4
2025-08-24T23:19	10	0	0.1	0	0	365	0.2	364	365	13.9	80.4
2025-08-24T23:20	10	0	0.1	0	0	365	0.2	364	365	13.9	79.9
2025-08-24T23:21	10	0	0.4	0	2	365	0.3	364	365	13.9	79.9
2025-08-24T23:22	10	0	0.1	0	0	365	0.3	364	365	13.9	79.7
2025-08-24T23:23	10	0	0.1	0	0	364	0.2	364	365	13.9	79.5
2025-08-24T23:24	10	0	0.1	0	0	364	0.2	364	364	13.8	80.0
2025-08-24T23:25	10	0	0.1	0	0	364	0.2	363	364	13.7	80.2
2025-08-24T23:26	10	0	0.1	0	0	363	0.3	363	364	13.7	80.6
2025-08-24T23:27	10	0	0.1	0	0	363	0.2	362	363	13.6	81.2
2025-08-24T23:28	10	0	0.6	0	4	362	0.2	362	363	13.4	82.2
2025-08-24T23:29	10	0	0.1	0	0	362	0.2	362	363	13.3	83.1
2025-08-24T23:30	10	0	0.1	0	0	362	0.2	361	363	13.2	83.6
2025-08-24T23:31	10	0	0.0	0	0	362	0.2	361	362	13.2	84.1
2025-08-24T23:32	10	0	0.1	0	0	362	0.3	361	363	13.1	83.9
2025-08-24T23:33	10	0	0.1	0	0	362	0.2	362	363	13.2	83.4
2025-08-24T23:34	10	0	0.1	0	0	362	0.2	361	362	13.2	83.6
2025-08-24T23:35	10	0	0.1	0	0	362	0.2	362	363	13.2	84.0
2025-08-24T23:36	10	0	0.1	0	0	362	0.4	362	363	13.2	84.0
2025-08-24T23:37	10	0	0.1	0	0	362	0.2	362	363	13.3	82.8
2025-08-24T23:38	10	0	0.1	0	0	362	0.2	361	362	13.3	82.8
2025-08-24T23:39	10	0	0.1	0	0	362	0.2	361	362	13.3	83.3
2025-08-24T23:40	10	0	0.1	0	0	362	0.3	361	362	13.3	83.5
2025-08-24T23:41	10	0	0.1	0	0	362	0.2	361	362	13.2	83.4
2025-08-24T23:42	10	0	0.1	0	0	361	0.2	361	362	13.2	83.4
2025-08-24T23:43	10	0	0.1	0	0	361	0.2	361	362	13.1	83.7
2025-08-24T23:44	10	0	0.1	0	0	361	0.3	361	362	13.1	83.2
2025-08-24T23:45	10	0	0.1	0	0	361	0.2	361	362	13.1	83.5
2025-08-24T23:46	10	0	0.2	0	0	361	0.3	361	362	13.1	83.6
2025-08-24T23:47	10	0	0.2	0	0	362	0.2	361	362	13.1	83.6
2025-08-24T23:48	10	0	0.6	0	4	362	0.3	362	363	13.1	83.1
2025-08-24T23:49	10	0	0.2	-1	0	363	0.4	362	364	13.1	83.2
2025-08-24T23:50	10	0	0.1	-1	0	363	0.3	363	364	13.0	83.9
2025-08-24T23:51	10	0	0.1	0	0	363	0.2	363	364	12.9	84.2
2025-08-24T23:52	10	0	0.1	-1	0	363	0.3	363	364	13.0	84.0
2025-08-24T23:53	10	0	0.2	0	0	363	0.3	362	364	13.0	84.6
2025-08-24T23:54	10	0	0.1	0	0	363	0.3	362	363	13.0	85.7
2025-08-24T23:55	10	0	0.1	-1	0	362	0.4	361	363	12.9	86.5
2025-08-24T23:56	10	0	0.1	0	0	362	0.2	362	363	12.8	87.7
2025-08-24T23:57	10	0	0.1	0	0	362	0.3	361	363	12.7	88.3
2025-08-24T23:58	10	0	0.1	0	0	361	0.2	361	362	12.6	88.1
2025-08-24T23:59	10	0	0.2	0	1	361	0.2	360	361	12.6	87.7
2025-08-25T00:00	10	0	0.1	0	0	360	0.3	360	361	12.5	87.1
2025-08-25T00:01	10	0	0.2	0	1	360	0.3	360	361	12.5	87.0
2025-08-25T00:02	10	0	0.2	0	0	360	0.2	360	361	12.5	86.7
2025-08-25T00:03	10	0	0.1	0	0	360	0.3	360	361	12.5	86.2
2025-08-25T00:04	10	0	0.1	0	0	360	0.2	360	361	12.6	85.7
2025-08-25T00:05	10	0	0.1	0	0	360	0.2	360	361	12.7	85.1
2025-08-25T00:06	10	0	0.1	-1	0	360	0.2	360	361	12.7	84.8
2025-08-25T00:07	10	0	0.1	-1	0	360	0.2	359	360	12.8	84.5
2025-08-25T00:08	10	0	0.1	0	0	360	0.2	359	360	12.8	84.5
2025-08-25T00:09	10	0	0.1	0	0	360	0.2	359	360	12.8	84.4
2025-08-25T00:10	10	0	0.1	0	0	360	0.3	359	360	12.8	84.2
2025-08-25T00:11	10	0	0.1	0	0	360	0.2	360	361	12.9	83.7
2025-08-25T00:12	10	0	0.1	0	0	360	0.3	360	361	12.9	83.5
2025-08-25T00:13	10	0	0.1	0	0	360	0.3	360	361	12.9	83.5
2025-08-25T00:14	10	0	0.1	0	0	360	0.3	359	361	12.9	83.9
2025-08-25T00:15	10	0	0.1	0	0	360	0.2	360	361	12.9	84.1
2025-08-25T00:16	10	0	0.1	0	0	360	0.3	360	361	12.8	84.4
2025-08-25T00:17	10	0	0.1	0	0	360	0.2	360	361	12.8	84.5
2025-08-25T00:18	10	0	0.1	0	0	360	0.2	360	361	12.7	85.2
2025-08-25T00:19	10	0	0.1	0	0	360	0.2	360	361	12.5	86.1
2025-08-25T00:20	10	0	0.1	0	0	361	0.3	360	361	12.4	86.6
2025-08-25T00:21	10	0	0.1	0	0	361	0.2	360	361	12.4	86.9
2025-08-25T00:22	10	0	0.1	0	0	361	0.2	360	361	12.4	86.9
2025-08-25T00:23	10	0	0.1	0	0	360	0.2	360	361	12.4	86.9
2025-08-25T00:24	10	0	0.1	0	0	360	0.2	360	361	12.4	87.1
2025-08-25T00:25	10	0	0.1	0	0	360	0.2	360	360	12.4	87.3
2025-08-25T00:26	10	0	0.1	0	0	360	0.2	359	360	12.3	87.6
2025-08-25T00:27	10	0	0.1	0	0	359	0.2	359	360	12.3	88.0
2025-08-25T00:28	10	0	0.1	0	0	359	0.3	359	360	12.2	88.1
2025-08-25T00:29	10	0	0.1	0	0	359	0.3	358	360	12.2	88.4
2025-08-25T00:30	10	0	0.1	0	0	360	0.2	359	360	12.2	88.3
2025-08-25T00:31	10	0	0.1	0	0	359	0.3	359	360	12.2	88.4
2025-08-25T00:32	10	0	0.1	0	0	359	0.2	359	360	12.3	88.3
2025-08-25T00:33	10	0	0.1	0	0	359	0.3	358	360	12.2	88.4
2025-08-25T00:34	10	0	0.1	0	0	359	0.2	358	359	12.2	88.4
2025-08-25T00:35	10	0	0.1	0	0	359	0.3	358	359	12.4	87.7
2025-08-25T00:36	10	0	0.1	0	0	358	0.2	358	359	12.4	87.4
2025-08-25T00:37	10	0	0.1	0	0	358	0.2	358	359	12.4	87.3
2025-08-25T00:38	10	0	0.1	0	0	358	0.3	358	359	12.3	87.5
2025-08-25T00:39	10	0	0.1	0	0	358	0.2	358	359	12.3	88.1
2025-08-25T00:40	10	0	0.1	0	0	358	0.2	357	358	12.2	88.4
2025-08-25T00:41	10	0	0.1	0	0	358	0.3	357	359	12.2	88.5
2025-08-25T00:42	10	0	0.1	0	0	358	0.3	357	358	12.2	88.3
2025-08-25T00:43	10	0	0.1	0	0	357	0.2	357	358	12.1	88.5
2025-08-25T00:44	10	0	0.1	0	0	357	0.2	357	358	12.0	88.9
2025-08-25T00:45	10	0	0.1	0	0	357	0.3	356	358	12.0	89.0
2025-08-25T00:46	10	0	0.1	-1	0	358	0.5	357	359	12.1	88.9
2025-08-25T00:47	10	0	0.1	0	0	359	0.4	358	359	12.2	88.3
2025-08-25T00:48	10	0	0.1	0	0	359	0.3	358	359	12.5	86.7
2025-08-25T00:49	10	0	0.1	0	0	359	0.2	358	359	12.5	86.6
2025-08-25T00:50	10	0	0.1	0	0	358	0.3	358	359	12.4	87.1
2025-08-25T00:51	10	0	0.1	0	0	358	0.3	357	359	12.3	87.8
2025-08-25T00:52	10	0	0.1	0	0	358	0.2	358	359	12.4	87.3
2025-08-25T00:53	10	0	0.1	0	0	358	0.2	357	358	12.4	87.3
2025-08-25T00:54	10	0	0.1	0	0	358	0.2	357	358	12.4	87.1
2025-08-25T00:55	10	0	0.1	0	0	358	0.3	357	358	12.4	87.1
2025-08-25T00:56	10	0	0.1	0	0	358	0.2	357	358	12.3	87.5
2025-08-25T00:57	10	0	0.1	0	0	358	0.4	357	359	12.2	87.8
2025-08-25T00:58	10	0	0.1	0	0	359	0.4	358	360	12.1	88.4
2025-08-25T00:59	10	0	0.1	0	0	359	0.2	359	360	12.2	88.6
2025-08-25T01:00	10	0	0.1	0	0	359	0.2	359	360	12.2	88.5
2025-08-25T01:01	10	0	0.1	0	0	359	0.2	358	359	12.2	88.2
2025-08-25T01:02	10	0	0.1	0	0	359	0.3	358	359	12.2	88.4
2025-08-25T01:03	10	0	0.1	0	0	359	0.3	358	359	12.1	88.7
2025-08-25T01:04	10	0	0.1	0	0	358	0.2	358	359	12.0	89.4
2025-08-25T01:05	10	0	0.1	0	0	358	0.3	357	359	11.8	90.1
2025-08-25T01:06	10	0	0.1	0	0	358	0.2	358	358	11.9	90.2
2025-08-25T01:07	10	0	0.1	0	0	358	0.3	357	359	11.9	90.1
2025-08-25T01:08	10	0	0.1	-1	0	358	0.3	358	359	12.0	89.6
2025-08-25T01:09	10	0	0.1	-1	0	359	0.3	358	360	12.3	88.3
2025-08-25T01:10	10	0	0.1	0	0	359	0.3	359	360	12.3	88.2
2025-08-25T01:11	10	0	0.1	-1	0	359	0.4	359	360	12.2	88.8
2025-08-25T01:12	10	0	0.1	0	0	360	0.2	359	360	12.2	88.8
2025-08-25T01:13	10	0	0.1	0	0	359	0.4	359	360	12.2	88.7
2025-08-25T01:14	10	0	0.1	0	0	359	0.4	358	360	12.2	89.0
2025-08-25T01:15	10	0	0.1	0	0	360	0.3	360	361	12.3	88.3
2025-08-25T01:16	10	0	0.1	0	0	360	0.3	359	360	12.4	87.7
2025-08-25T01:17	10	0	0.1	0	0	360	0.4	359	360	12.3	87.7
2025-08-25T01:18	10	0	0.1	0	0	360	0.3	360	361	12.3	87.6
2025-08-25T01:19	10	0	0.1	0	0	361	0.4	360	361	12.4	87.5
2025-08-25T01:20	10	0	0.1	0	0	361	0.3	360	361	12.5	86.9
2025-08-25T01:21	10	0	0.1	0	0	360	0.3	360	361	12.5	86.7
2025-08-25T01:22	10	0	0.1	0	0	360	0.4	359	361	12.4	87.5
2025-08-25T01:23	10	0	0.1	0	0	359	0.3	358	359	12.3	88.7
2025-08-25T01:24	10	0	0.1	0	0	359	0.3	358	360	12.2	88.6
2025-08-25T01:25	10	0	0.1	0	0	359	0.2	359	360	12.4	87.3
2025-08-25T01:26	10	0	0.1	0	0	359	0.4	358	360	12.5	86.7
2025-08-25T01:27	10	0	0.1	0	0	359	0.2	358	359	12.6	86.1
2025-08-25T01:28	10	0	0.1	0	0	358	0.2	358	359	12.6	86.0
2025-08-25T01:29	10	0	0.1	0	0	358	0.4	357	359	12.6	86.1
2025-08-25T01:30	10	0	0.1	0	0	358	0.2	357	358	12.3	87.5
2025-08-25T01:31	10	0	0.1	0	0	358	0.2	357	359	12.3	87.5
2025-08-25T01:32	10	0	0.1	0	0	358	0.3	357	358	12.3	87.8
2025-08-25T01:33	10	0	0.1	0	0	358	0.2	357	358	12.1	88.7
2025-08-25T01:34	10	0	0.1	0	0	357	0.3	357	358	12.1	88.8
2025-08-25T01:35	10	0	0.1	0	0	357	0.3	356	358	12.2	88.5
2025-08-25T01:36	10	0	0.1	0	0	357	0.2	356	357	12.1	88.7
2025-08-25T01:37	10	0	0.1	0	0	357	0.2	356	357	12.1	89.1
2025-08-25T01:38	10	0	0.1	0	0	357	0.2	356	357	12.0	89.2
2025-08-25T01:39	10	0	0.1	0	0	356	0.3	356	357	12.1	89.0
2025-08-25T01:40	10	0	0.1	0	0	356	0.2	356	357	12.1	88.9
2025-08-25T01:41	10	0	0.0	0	0	356	0.2	356	357	12.1	88.8
2025-08-25T01:42	10	0	0.1	0	0	356	0.2	356	357	12.1	88.6
2025-08-25T01:43	10	0	0.1	0	0	356	0.2	356	357	12.2	88.4
2025-08-25T01:44	10	0	0.1	0	0	356	0.2	355	356	12.2	88.4
2025-08-25T01:45	10	0	0.1	0	0	356	0.2	355	356	12.1	88.7
2025-08-25T01:46	10	0	0.1	0	0	356	0.3	355	356	12.0	89.4
2025-08-25T01:47	10	0	0.1	0	0	356	0.2	355	356	11.9	89.6
2025-08-25T01:48	10	0	0.1	0	0	356	0.3	355	356	11.9	90.0
2025-08-25T01:49	10	0	0.1	0	0	356	0.3	355	356	11.8	90.2
2025-08-25T01:50	10	0	0.1	0	0	356	0.3	356	357	11.8	90.3
2025-08-25T01:51	10	0	0.1	0	0	357	0.2	356	357	11.7	90.5
2025-08-25T01:52	10	0	0.0	0	0	357	0.2	356	357	11.8	90.5
2025-08-25T01:53	10	0	0.1	0	0	357	0.2	356	357	11.7	90.4
2025-08-25T01:54	10	0	0.1	0	0	357	0.3	356	357	11.7	90.6
2025-08-25T01:55	10	0	0.1	0	0	357	0.2	356	357	11.6	91.0
2025-08-25T01:56	10	0	0.1	0	0	357	0.2	356	357	11.6	91.3
2025-08-25T01:57	10	0	0.1	0	0	357	0.2	356	357	11.6	91.5
2025-08-25T01:58	10	0	0.1	0	0	357	0.2	356	357	11.6	91.6
2025-08-25T01:59	10	0	0.1	0	0	357	0.2	356	357	11.6	91.5
2025-08-25T02:00	10	0	0.1	0	0	356	0.2	356	357	11.6	91.5
2025-08-25T02:01	10	0	0.1	0	0	356	0.2	356	357	11.6	91.6
2025-08-25T02:02	10	0	0.1	0	0	356	0.2	355	356	11.6	91.5
2025-08-25T02:03	10	0	0.1	0	0	356	0.2	356	356	11.6	91.6
2025-08-25T02:04	10	0	0.1	0	0	356	0.2	355	356	11.5	91.7
2025-08-25T02:05	10	0	0.0	0	0	355	0.2	355	356	11.5	91.6
2025-08-25T02:06	10	0	0.1	0	0	355	0.3	354	356	11.5	91.6
2025-08-25T02:07	10	0	0.1	0	0	355	0.2	354	355	11.5	91.8
2025-08-25T02:08	10	0	0.1	0	0	355	0.2	354	355	11.4	91.7
2025-08-25T02:09	10	0	0.1	0	0	354	0.2	354	355	11.4	91.9
2025-08-25T02:10	10	0	0.1	0	0	354	0.2	354	355	11.3	92.3
2025-08-25T02:11	10	0	0.1	0	0	354	0.2	354	355	11.2	92.7
2025-08-25T02:12	10	0	0.1	0	0	355	0.2	354	355	11.1	93.2
2025-08-25T02:13	10	0	0.1	0	0	355	0.3	354	355	11.1	93.4
2025-08-25T02:14	10	0	0.1	0	0	355	0.4	354	356	11.1	93.1
2025-08-25T02:15	10	0	0.1	0	0	355	0.2	355	356	11.2	93.0
2025-08-25T02:16	10	0	0.1	0	0	355	0.2	355	356	11.4	92.9
2025-08-25T02:17	10	0	0.1	-1	0	355	0.2	355	355	11.4	92.8
2025-08-25T02:18	10	0	0.1	0	0	355	0.2	354	355	11.4	92.7
2025-08-25T02:19	10	0	0.1	0	0	354	0.2	354	355	11.4	92.8
2025-08-25T02:20	10	0	0.1	0	0	355	0.2	354	355	11.4	92.7
2025-08-25T02:21	10	0	0.1	-1	0	355	0.4	354	356	11.5	92.4
2025-08-25T02:22	10	0	0.1	-1	0	356	0.3	355	356	11.6	92.2
2025-08-25T02:23	10	0	0.1	-1	0	356	0.4	355	357	11.7	91.5
2025-08-25T02:24	10	0	0.1	-1	0	357	0.4	356	358	11.8	90.6
2025-08-25T02:25	10	0	0.1	-1	0	357	0.3	357	358	12.1	89.2
2025-08-25T02:26	10	0	0.1	-1	0	357	0.3	357	358	12.0	89.7
2025-08-25T02:27	10	0	0.2	-1	0	357	0.3	357	358	11.9	90.1
2025-08-25T02:28	10	0	0.1	-1	0	357	0.3	356	358	11.7	90.5
2025-08-25T02:29	10	0	0.1	-1	0	357	0.4	356	358	11.6	90.9
2025-08-25T02:30	10	0	0.1	-1	0	356	0.2	356	357	11.6	91.3
2025-08-25T02:31	10	0	0.1	-1	0	357	0.2	356	357	11.6	91.7
2025-08-25T02:32	10	0	0.1	-1	0	357	0.2	357	357	11.6	91.9
2025-08-25T02:33	10	0	0.2	-1	0	357	0.4	356	357	11.4	92.1
2025-08-25T02:34	10	0	0.1	-1	0	357	0.3	356	358	11.3	92.3
2025-08-25T02:35	10	0	0.1	-1	0	357	0.3	356	357	11.2	92.9
2025-08-25T02:36	10	0	0.2	-1	0	356	0.3	355	356	11.2	93.3
2025-08-25T02:37	10	0	0.1	-1	0	355	0.3	355	356	11.3	93.1
2025-08-25T02:38	10	0	0.2	0	0	355	0.3	355	356	11.4	92.5
2025-08-25T02:39	10	0	0.1	-1	0	355	0.4	354	356	11.5	92.2
2025-08-25T02:40	10	0	0.1	-1	0	354	0.2	354	355	11.3	92.3
2025-08-25T02:41	10	0	0.1	-1	0	355	0.3	354	355	11.4	92.1
2025-08-25T02:42	10	0	0.1	0	0	354	0.3	354	355	11.6	91.7
2025-08-25T02:43	10	0	0.1	-1	0	355	0.3	354	355	11.6	91.2
2025-08-25T02:44	10	0	0.1	0	0	354	0.5	353	355	11.5	91.5
2025-08-25T02:45	10	0	0.1	0	0	353	0.3	353	354	11.2	92.2
2025-08-25T02:46	10	0	0.1	0	0	354	0.4	353	355	11.3	92.3
2025-08-25T02:47	10	0	0.1	-1	0	355	0.2	354	355	11.6	91.7
2025-08-25T02:48	10	0	0.1	-1	0	355	0.3	354	356	11.6	91.5
2025-08-25T02:49	10	0	0.1	0	0	355	0.2	355	356	11.5	91.6
2025-08-25T02:50	10	0	0.1	-1	0	356	0.2	355	356	11.5	91.5
2025-08-25T02:51	10	0	0.1	0	0	355	0.2	355	356	11.4	91.8
2025-08-25T02:52	10	0	0.1	0	0	355	0.3	354	356	11.4	92.1
2025-08-25T02:53	10	0	0.1	0	0	355	0.3	354	356	11.2	92.5
2025-08-25T02:54	10	0	0.0	0	0	354	0.2	354	355	11.2	92.8
2025-08-25T02:55	10	0	0.1	-1	0	354	0.2	354	354	11.2	92.7
2025-08-25T02:56	10	0	0.1	-1	0	354	0.3	353	354	11.1	93.1
2025-08-25T02:57	10	0	0.1	-1	0	353	0.2	353	354	11.1	93.2
2025-08-25T02:58	10	0	0.1	-1	0	353	0.2	352	353	11.0	93.3
2025-08-25T02:59	10	0	0.1	0	0	353	0.2	352	353	11.0	93.2
2025-08-25T03:00	10	0	0.1	0	0	353	0.3	352	353	11.0	93.2
2025-08-25T03:01	10	0	0.1	0	0	353	0.2	353	354	11.0	93.0
2025-08-25T03:02	10	0	0.1	0	0	353	0.2	353	354	11.1	92.9
2025-08-25T03:03	10	0	0.1	0	0	353	0.2	352	354	11.0	92.8
2025-08-25T03:04	10	0	0.1	0	0	353	0.2	352	353	10.9	92.9
2025-08-25T03:05	10	0	0.1	0	0	353	0.3	352	353	10.9	93.1
2025-08-25T03:06	10	0	0.1	0	0	353	0.2	353	353	10.9	93.3
2025-08-25T03:07	10	0	0.1	0	0	353	0.2	353	354	10.9	93.4
2025-08-25T03:08	10	0	0.1	0	0	354	0.3	353	354	10.9	93.7
2025-08-25T03:09	10	0	0.1	0	0	354	0.2	353	354	10.9	93.8
2025-08-25T03:10	10	0	0.1	0	0	353	0.2	353	354	10.8	93.8
2025-08-25T03:11	10	0	0.1	0	0	353	0.2	353	354	10.7	94.0
2025-08-25T03:12	10	0	0.1	0	0	353	0.2	353	354	10.6	94.1
2025-08-25T03:13	10	0	0.1	0	0	353	0.2	353	354	10.6	94.1
2025-08-25T03:14	10	0	0.1	0	0	353	0.2	352	353	10.5	94.4
2025-08-25T03:15	10	0	0.1	0	0	352	0.2	352	353	10.4	94.6
2025-08-25T03:16	10	0	0.1	0	0	352	0.2	352	353	10.4	94.8
2025-08-25T03:17	10	0	0.1	0	0	352	0.2	352	353	10.4	95.0
2025-08-25T03:18	10	0	0.1	0	0	352	0.2	351	352	10.4	95.0
2025-08-25T03:19	10	0	0.0	0	0	352	0.3	351	352	10.5	94.9
2025-08-25T03:20	10	0	0.2	0	1	352	0.2	351	352	10.6	94.7
2025-08-25T03:21	10	0	0.0	0	0	352	0.2	351	352	10.7	94.6
2025-08-25T03:22	10	0	0.1	0	0	351	0.2	351	352	10.8	94.2
2025-08-25T03:23	10	0	0.1	0	0	351	0.2	351	352	10.7	94.1
2025-08-25T03:24	10	0	0.0	0	0	352	0.3	351	352	10.7	94.1
2025-08-25T03:25	10	0	0.1	0	0	352	0.2	351	352	10.8	94.1
2025-08-25T03:26	10	0	0.1	0	0	352	0.2	351	352	10.8	94.1
2025-08-25T03:27	10	0	0.1	0	0	352	0.2	351	352	10.7	94.1
2025-08-25T03:28	10	0	0.1	0	0	352	0.2	351	352	10.6	94.3
2025-08-25T03:29	10	0	0.1	0	0	352	0.2	351	352	10.7	94.5
2025-08-25T03:30	10	0	0.1	0	0	352	0.2	352	353	10.7	94.6
2025-08-25T03:31	10	0	0.1	0	0	353	0.3	352	353	10.7	94.8
2025-08-25T03:32	10	0	0.1	0	0	353	0.2	352	353	10.7	94.7
2025-08-25T03:33	10	0	0.1	0	0	353	0.2	352	353	10.8	94.7
2025-08-25T03:34	10	0	0.1	0	0	353	0.2	352	353	10.8	94.5
2025-08-25T03:35	10	0	0.1	0	0	353	0.3	352	353	10.8	94.3
2025-08-25T03:36	10	0	0.1	0	0	353	0.2	352	353	10.9	94.1
2025-08-25T03:37	10	0	0.0	0	0	353	0.3	352	353	10.9	93.9
2025-08-25T03:38	10	0	0.1	0	0	352	0.3	351	353	10.8	93.9
2025-08-25T03:39	10	0	0.1	0	0	352	0.3	351	352	10.7	94.2
2025-08-25T03:40	10	0	0.1	0	0	352	0.3	351	352	10.6	94.4
2025-08-25T03:41	10	0	0.1	0	0	352	0.2	351	352	10.5	94.7
2025-08-25T03:42	10	0	0.1	0	0	352	0.3	351	352	10.5	94.9
2025-08-25T03:43	10	0	0.0	0	0	352	0.2	351	352	10.5	94.9
2025-08-25T03:44	10	0	0.1	0	0	351	0.3	351	352	10.6	95.0
2025-08-25T03:45	10	0	0.1	0	0	351	0.2	351	352	10.5	95.1
2025-08-25T03:46	10	0	0.1	0	0	351	0.2	351	352	10.5	95.0
2025-08-25T03:47	10	0	0.1	0	0	351	0.3	350	351	10.4	95.1
2025-08-25T03:48	10	0	0.1	0	0	351	0.2	351	352	10.4	95.2
2025-08-25T03:49	10	0	0.1	0	0	351	0.2	350	351	10.4	95.4
2025-08-25T03:50	10	0	0.1	0	0	351	0.2	350	351	10.4	95.6
2025-08-25T03:51	10	0	0.1	0	0	350	0.3	350	351	10.4	95.8
2025-08-25T03:52	10	0	0.1	0	0	350	0.2	350	351	10.5	95.6
2025-08-25T03:53	10	0	0.1	0	0	350	0.2	350	351	10.4	95.8
2025-08-25T03:54	10	0	0.1	-1	0	350	0.2	350	351	10.4	95.6
2025-08-25T03:55	10	0	0.1	0	0	350	0.2	350	351	10.4	95.5
2025-08-25T03:56	10	0	0.0	0	0	350	0.3	350	351	10.5	95.4
2025-08-25T03:57	10	0	0.1	0	0	351	0.3	350	351	10.5	95.3
2025-08-25T03:58	10	0	0.1	0	0	351	0.2	351	352	10.6	95.2
2025-08-25T03:59	10	0	0.1	0	0	351	0.2	351	352	10.5	95.1
2025-08-25T04:00	10	0	0.1	0	0	352	0.2	351	352	10.5	94.9
2025-08-25T04:01	10	0	0.1	0	0	352	0.2	351	352	10.6	94.8
2025-08-25T04:02	10	0	0.1	0	0	352	0.3	351	352	10.6	94.7
2025-08-25T04:03	10	0	0.1	0	0	352	0.2	351	352	10.5	94.5
2025-08-25T04:04	10	0	0.1	-1	0	352	0.3	351	352	10.6	94.4
2025-08-25T04:05	10	0	0.1	0	0	352	0.2	352	352	10.6	94.3
2025-08-25T04:06	10	0	0.1	0	0	352	0.2	352	353	10.5	94.4
2025-08-25T04:07	10	0	0.1	0	0	352	0.3	351	353	10.4	94.6
2025-08-25T04:08	10	0	0.1	0	0	352	0.2	352	353	10.5	94.7
2025-08-25T04:09	10	0	0.1	-1	0	352	0.3	351	353	10.5	94.7
2025-08-25T04:10	10	0	0.1	-1	0	352	0.2	352	353	10.5	94.5
2025-08-25T04:11	10	0	0.1	0	0	352	0.3	351	353	10.6	94.6
2025-08-25T04:12	10	0	0.1	0	0	352	0.3	351	352	10.5	94.7
2025-08-25T04:13	10	0	0.1	0	0	352	0.3	351	352	10.4	94.7
2025-08-25T04:14	10	0	0.1	-1	0	352	0.3	351	352	10.4	94.8
2025-08-25T04:15	10	0	0.1	0	0	352	0.2	352	353	10.5	94.9
2025-08-25T04:16	10	0	0.1	-1	0	352	0.2	352	353	10.4	94.9
2025-08-25T04:17	10	0	0.1	0	0	352	0.2	352	353	10.4	94.8
2025-08-25T04:18	10	0	0.1	0	0	352	0.2	352	353	10.4	94.7
2025-08-25T04:19	10	0	0.1	-1	0	353	0.2	352	354	10.4	94.5
2025-08-25T04:20	10	0	0.1	0	0	353	0.2	353	354	10.4	94.6
2025-08-25T04:21	10	0	0.1	-1	0	354	0.3	353	354	10.5	94.2
2025-08-25T04:22	10	0	0.1	0	0	354	0.3	353	355	10.6	94.0
2025-08-25T04:23	10	0	0.1	0	0	354	0.2	354	355	10.7	93.6
2025-08-25T04:24	10	0	0.1	0	0	355	0.3	355	356	10.8	93.5
2025-08-25T04:25	10	0	0.1	0	0	356	0.3	355	356	10.8	93.5
2025-08-25T04:26	10	0	0.1	0	0	356	0.2	356	357	10.8	93.6
2025-08-25T04:27	10	0	0.1	0	0	356	0.2	356	357	10.8	93.5
2025-08-25T04:28	10	0	0.0	0	0	356	0.3	356	357	10.8	93.4
2025-08-25T04:29	10	0	0.1	0	0	356	0.2	356	357	10.8	93.4
2025-08-25T04:30	10	0	0.1	0	0	356	0.4	355	357	10.8	93.4
2025-08-25T04:31	10	0	0.1	0	0	355	0.3	355	356	10.8	93.4
2025-08-25T04:32	10	0	0.1	0	0	355	0.2	354	355	10.8	93.3
2025-08-25T04:33	10	0	0.1	0	0	356	0.3	355	356	10.9	93.0
2025-08-25T04:34	10	0	0.1	0	0	356	0.3	355	357	11.0	92.6
2025-08-25T04:35	10	0	0.1	0	0	356	0.2	355	356	10.9	92.5
2025-08-25T04:36	10	0	0.1	0	0	356	0.2	356	356	11.0	92.4
2025-08-25T04:37	10	0	0.1	0	0	356	0.3	355	356	10.9	92.6
2025-08-25T04:38	10	0	0.1	0	0	354	0.5	354	356	10.8	93.0
2025-08-25T04:39	10	0	0.1	0	0	354	0.3	353	355	10.7	93.4
2025-08-25T04:40	10	0	0.1	0	1	353	0.2	353	354	10.6	93.8
2025-08-25T04:41	10	0	0.1	0	1	353	0.3	352	354	10.4	94.1
2025-08-25T04:42	10	0	0.1	0	1	353	0.2	353	353	10.4	94.0
2025-08-25T04:43	10	0	0.1	0	1	353	0.3	352	354	10.4	94.4
2025-08-25T04:44	10	0	0.1	0	1	353	0.3	353	354	10.5	94.2
2025-08-25T04:45	10	0	0.1	0	1	353	0.3	352	354	10.6	94.0
2025-08-25T04:46	10	1	0.1	0	1	353	0.3	352	353	10.6	94.3
2025-08-25T04:47	10	1	0.1	0	1	352	0.3	351	352	10.6	94.3
2025-08-25T04:48	10	1	0.1	1	1	352	0.3	351	353	10.5	94.3
2025-08-25T04:49	10	1	0.1	1	1	352	0.2	352	352	10.4	94.3
2025-08-25T04:50	10	1	0.1	1	1	352	0.2	351	352	10.4	94.4
2025-08-25T04:51	10	1	0.1	1	1	352	0.2	351	352	10.4	94.6
2025-08-25T04:52	10	1	0.1	1	1	352	0.2	351	352	10.4	94.8
2025-08-25T04:53	10	1	0.2	1	2	352	0.2	351	352	10.4	94.9
2025-08-25T04:54	10	2	0.1	1	2	352	0.2	351	352	10.4	94.8
2025-08-25T04:55	10	2	0.1	2	2	352	0.3	351	353	10.5	94.6
2025-08-25T04:56	10	2	0.2	2	3	352	0.3	351	353	10.5	94.6
2025-08-25T04:57	10	3	0.1	2	3	352	0.2	352	353	10.5	94.5
2025-08-25T04:58	10	3	0.1	3	3	353	0.3	352	353	10.5	94.6
2025-08-25T04:59	10	3	0.2	3	4	353	0.3	353	354	10.3	94.9
2025-08-25T05:00	10	4	0.1	3	4	354	0.4	353	355	10.3	95.1
2025-08-25T05:01	10	4	0.1	4	4	354	0.3	353	354	10.4	95.2
2025-08-25T05:02	10	4	0.2	4	5	354	0.3	354	355	10.4	95.0
2025-08-25T05:03	10	5	0.1	4	5	355	0.3	354	355	10.4	95.0
2025-08-25T05:04	10	5	0.1	5	5	355	0.2	354	355	10.4	95.0
2025-08-25T05:05	10	5	0.1	5	6	355	0.3	355	356	10.4	95.0
2025-08-25T05:06	10	6	0.1	5	6	356	0.2	355	356	10.4	94.8
2025-08-25T05:07	10	6	0.2	6	7	356	0.3	355	357	10.4	94.8
2025-08-25T05:08	10	7	0.1	6	7	356	0.3	356	357	10.5	94.6
2025-08-25T05:09	10	7	0.1	7	7	357	0.4	356	358	10.5	94.4
2025-08-25T05:10	10	7	0.2	7	8	358	0.4	357	359	10.5	94.2
2025-08-25T05:11	10	8	0.2	8	8	359	0.2	358	359	10.6	93.9
2025-08-25T05:12	10	9	0.2	8	9	359	0.3	358	360	10.6	93.8
2025-08-25T05:13	10	9	0.2	9	9	359	0.2	358	359	10.6	93.6
2025-08-25T05:14	10	9	0.2	9	10	359	0.3	358	360	10.6	93.4
2025-08-25T05:15	10	10	0.2	10	10	359	0.3	359	360	10.7	93.3
2025-08-25T05:16	10	11	0.2	10	11	359	0.2	359	360	10.7	93.2
2025-08-25T05:17	10	11	0.2	11	12	359	0.2	359	360	10.6	93.2
2025-08-25T05:18	10	12	0.2	11	12	360	0.2	359	360	10.7	93.2
2025-08-25T05:19	10	12	0.1	12	12	360	0.2	359	361	10.7	93.3
2025-08-25T05:20	10	13	0.2	12	13	360	0.3	359	361	10.7	93.1
2025-08-25T05:21	10	13	0.2	13	14	361	0.3	360	361	10.7	92.8
2025-08-25T05:22	10	14	0.2	14	14	361	0.2	361	362	10.7	92.9
2025-08-25T05:23	10	15	0.2	14	15	361	0.2	361	362	10.7	92.9
2025-08-25T05:24	10	15	0.2	15	15	362	0.2	361	362	10.7	92.7
2025-08-25T05:25	10	16	0.2	15	16	362	0.2	361	362	10.8	92.6
2025-08-25T05:26	10	16	0.2	16	17	362	0.2	362	363	10.8	92.4
2025-08-25T05:27	10	17	0.2	17	17	363	0.3	362	363	10.8	92.4
2025-08-25T05:28	10	17	0.2	17	18	363	0.3	362	363	10.9	92.3
2025-08-25T05:29	10	18	0.2	18	18	363	0.2	363	363	10.9	92.3
2025-08-25T05:30	10	19	0.2	18	19	363	0.3	363	364	10.9	92.2
2025-08-25T05:31	10	19	0.2	19	20	364	0.2	363	364	11.0	91.7
2025-08-25T05:32	10	20	0.2	19	20	364	0.3	364	365	11.0	91.5
2025-08-25T05:33	10	21	0.1	20	21	365	0.2	364	365	11.1	91.1
2025-08-25T05:34	10	21	0.2	21	22	365	0.3	364	365	11.1	91.0
2025-08-25T05:35	10	22	0.3	21	22	365	0.3	365	366	11.2	90.7
2025-08-25T05:36	10	22	0.2	22	23	366	0.3	365	366	11.2	90.8
2025-08-25T05:37	10	23	0.2	23	23	366	0.2	365	366	11.2	90.3
2025-08-25T05:38	10	24	0.2	23	24	366	0.2	366	367	11.2	90.6
2025-08-25T05:39	10	24	0.2	24	24	366	0.2	366	367	11.3	90.5
2025-08-25T05:40	10	25	0.2	24	25	367	0.2	366	367	11.4	89.3
2025-08-25T05:41	10	25	0.3	25	26	367	0.2	366	367	11.4	89.3
2025-08-25T05:42	10	27	0.4	26	27	367	0.2	366	367	11.4	89.1
2025-08-25T05:43	10	28	0.4	27	29	368	0.2	367	368	11.4	89.4
2025-08-25T05:44	10	29	0.1	28	29	368	0.3	367	368	11.5	89.0
2025-08-25T05:45	10	29	0.1	29	29	368	0.2	367	368	11.5	89.1
2025-08-25T05:46	10	29	0.1	29	29	368	0.2	368	369	11.5	89.1
2025-08-25T05:47	10	29	0.2	29	29	368	0.3	368	369	11.5	89.0
2025-08-25T05:48	10	30	0.2	29	30	369	0.2	368	369	11.6	88.8
2025-08-25T05:49	10	30	0.2	30	31	369	0.3	369	370	11.6	89.0
2025-08-25T05:50	10	31	0.2	31	31	370	0.2	369	370	11.6	89.7
2025-08-25T05:51	10	32	0.2	31	32	370	0.2	370	370	11.6	89.1
2025-08-25T05:52	10	32	0.2	32	32	371	0.3	370	371	11.6	89.5
2025-08-25T05:53	10	33	0.2	32	33	371	0.2	371	371	11.7	88.9
2025-08-25T05:54	10	33	0.2	33	34	371	0.3	371	372	11.7	88.8
2025-08-25T05:55	10	34	0.1	34	34	372	0.2	372	373	11.7	89.1
2025-08-25T05:56	10	34	0.1	34	34	372	0.3	372	373	11.8	89.3
2025-08-25T05:57	10	35	0.1	34	35	373	0.2	372	373	11.9	88.8
2025-08-25T05:58	10	35	0.1	35	35	373	0.2	373	373	11.9	88.0
2025-08-25T05:59	10	35	0.8	32	35	373	0.2	373	374	11.9	87.9
2025-08-25T06:00	10	29	1.2	28	32	373	0.2	373	374	11.9	87.3
2025-08-25T06:01	10	34	1.9	30	36	374	0.4	373	374	12.0	87.2
2025-08-25T06:02	10	37	0.1	36	37	375	0.3	374	375	12.0	86.6
2025-08-25T06:03	10	37	0.1	37	37	375	0.2	375	376	12.1	86.1
2025-08-25T06:04	10	37	0.1	37	38	375	0.3	375	376	12.1	86.5
2025-08-25T06:05	10	38	0.1	37	38	376	0.3	375	377	12.1	86.9
2025-08-25T06:06	10	38	0.2	38	38	376	0.2	375	377	12.2	86.2
2025-08-25T06:07	10	39	0.2	38	39	376	0.3	376	377	12.2	86.6
2025-08-25T06:08	10	39	0.2	38	39	376	0.2	376	377	12.2	85.7
2025-08-25T06:09	10	37	0.9	35	38	376	0.2	376	377	12.3	85.6
2025-08-25T06:10	10	35	0.3	35	36	376	0.2	376	377	12.3	85.8
2025-08-25T06:11	10	38	1.2	36	40	377	0.3	376	377	12.3	86.1
2025-08-25T06:12	10	41	0.6	40	42	377	0.4	376	378	12.3	86.0
2025-08-25T06:13	10	42	0.3	41	43	378	0.3	377	379	12.4	86.2
2025-08-25T06:14	10	43	0.2	42	43	378	0.2	378	379	12.4	86.3
2025-08-25T06:15	10	43	0.2	43	43	379	0.2	378	379	12.4	85.9
2025-08-25T06:16	10	44	0.2	43	44	379	0.3	378	380	12.4	85.9
2025-08-25T06:17	10	44	0.2	44	45	379	0.2	379	380	12.5	86.3
2025-08-25T06:18	10	45	0.2	44	45	379	0.2	379	380	12.5	86.6
2025-08-25T06:19	10	45	0.2	45	46	380	0.4	379	381	12.5	86.8
2025-08-25T06:20	10	46	0.2	46	46	380	0.3	380	381	12.6	87.5
2025-08-25T06:21	10	47	0.2	46	47	381	0.3	380	381	12.6	86.2
2025-08-25T06:22	10	47	0.2	47	47	381	0.3	380	381	12.6	85.4
2025-08-25T06:23	10	48	0.2	47	48	381	0.3	381	382	12.7	85.9
2025-08-25T06:24	10	48	0.2	48	49	382	0.3	381	383	12.7	85.6
2025-08-25T06:25	10	49	0.3	48	49	382	0.2	382	383	12.8	85.2
2025-08-25T06:26	10	49	0.2	49	50	382	0.3	382	383	12.8	85.3
2025-08-25T06:27	10	50	0.2	50	50	383	0.2	382	383	12.8	85.9
2025-08-25T06:28	10	50	0.2	50	51	383	0.2	383	384	12.8	86.3
2025-08-25T06:29	10	51	0.2	51	51	384	0.3	383	385	12.9	86.0
2025-08-25T06:30	10	52	0.2	51	52	384	0.3	384	385	12.9	85.5
2025-08-25T06:31	10	52	0.2	52	52	385	0.3	384	385	12.9	84.9
2025-08-25T06:32	10	53	0.2	52	53	385	0.2	385	386	13.0	85.2
2025-08-25T06:33	10	53	0.2	53	54	386	0.2	386	387	13.1	85.1
2025-08-25T06:34	10	54	0.2	54	54	386	0.3	386	387	13.1	85.2
2025-08-25T06:35	10	55	0.2	54	55	387	0.3	386	387	13.2	84.8
2025-08-25T06:36	10	55	0.2	55	56	387	0.2	386	387	13.3	83.8
2025-08-25T06:37	10	56	0.2	55	56	387	0.3	387	388	13.3	83.8
2025-08-25T06:38	10	56	0.2	56	57	388	0.5	387	389	13.4	83.8
2025-08-25T06:39	10	57	0.2	57	57	389	0.3	388	390	13.5	83.4
2025-08-25T06:40	10	58	0.2	57	58	389	0.5	388	390	13.6	81.9
2025-08-25T06:41	10	58	0.2	58	58	389	0.3	389	390	13.6	81.9
2025-08-25T06:42	10	59	0.2	58	59	390	0.5	389	391	13.7	82.2
2025-08-25T06:43	10	59	0.2	59	60	389	0.3	388	390	13.6	81.2
2025-08-25T06:44	10	60	0.2	60	60	390	0.2	389	390	13.6	80.8
2025-08-25T06:45	10	61	0.2	60	61	390	0.2	389	390	13.7	80.6
2025-08-25T06:46	10	61	0.2	61	61	391	0.3	390	391	13.7	80.4
2025-08-25T06:47	10	62	0.2	61	62	392	0.4	391	393	13.8	80.9
2025-08-25T06:48	10	62	0.2	62	63	392	0.3	392	393	13.9	81.5
2025-08-25T06:49	10	63	0.2	63	63	393	0.4	392	394	13.9	80.7
2025-08-25T06:50	10	64	0.2	63	64	394	0.2	394	394	13.9	79.7
2025-08-25T06:51	10	64	0.2	64	65	394	0.3	393	394	14.0	79.7
2025-08-25T06:52	10	65	0.2	65	65	394	0.3	393	394	14.0	79.8
2025-08-25T06:53	10	66	0.2	65	66	394	0.4	394	395	14.0	79.4
2025-08-25T06:54	10	66	0.3	66	67	394	0.4	393	395	14.1	77.9
2025-08-25T06:55	10	67	0.2	67	67	394	0.2	394	395	14.1	77.7
2025-08-25T06:56	10	68	0.3	67	69	395	0.3	394	396	14.1	76.9
2025-08-25T06:57	10	68	0.3	68	69	396	0.4	395	397	14.2	78.1
2025-08-25T06:58	10	69	0.3	69	70	396	0.6	395	397	14.3	78.0
2025-08-25T06:59	10	70	0.2	70	71	396	0.4	395	397	14.2	77.3
2025-08-25T07:00	10	71	0.2	70	71	398	0.4	397	398	14.3	77.2
2025-08-25T07:01	10	71	0.3	71	72	398	0.4	397	399	14.4	78.0
2025-08-25T07:02	10	72	0.5	71	73	398	0.6	397	400	14.4	77.9
2025-08-25T07:03	10	73	0.1	73	73	398	0.4	397	399	14.4	76.8
2025-08-25T07:04	10	73	0.2	73	74	399	0.5	398	399	14.4	76.3
2025-08-25T07:05	10	74	0.3	73	74	399	0.3	398	400	14.5	75.6
2025-08-25T07:06	10	74	0.3	73	74	400	0.6	399	401	14.6	74.8
2025-08-25T07:07	10	72	0.7	71	73	401	0.2	400	401	14.8	74.8
2025-08-25T07:08	10	73	0.8	71	74	401	0.3	401	402	14.8	75.0
2025-08-25T07:09	10	73	2.4	69	76	401	0.3	401	402	14.9	74.4
2025-08-25T07:10	10	72	0.6	71	73	401	0.4	401	402	14.9	72.7
2025-08-25T07:11	10	75	1.5	71	76	402	0.4	401	402	14.8	72.5
2025-08-25T07:12	10	75	0.7	74	76	403	0.2	402	403	14.9	72.4
2025-08-25T07:13	10	75	0.2	75	76	403	0.3	402	403	15.0	72.9
2025-08-25T07:14	10	75	0.9	72	76	403	0.2	402	403	15.1	71.9
2025-08-25T07:15	10	74	3.3	70	79	403	0.5	402	404	15.1	72.1
2025-08-25T07:16	10	79	0.9	78	81	403	0.3	403	404	14.9	72.2
2025-08-25T07:17	10	80	1.0	78	81	403	0.3	403	404	14.9	72.2
2025-08-25T07:18	10	81	0.5	80	82	404	0.4	404	405	14.8	72.8
2025-08-25T07:19	10	80	0.8	77	80	404	0.4	403	405	14.8	73.0
2025-08-25T07:20	10	73	1.6	71	77	404	0.3	403	404	14.8	73.4
2025-08-25T07:21	10	70	1.7	65	72	404	0.3	403	405	15.0	73.1
2025-08-25T07:22	10	63	0.9	62	64	402	0.4	402	404	14.9	71.8
2025-08-25T07:23	10	65	0.9	64	67	402	0.3	401	403	15.0	72.0
2025-08-25T07:24	10	66	0.4	66	67	403	0.2	402	403	15.0	72.4
2025-08-25T07:25	10	65	1.7	63	67	403	0.2	402	403	15.0	72.6
2025-08-25T07:26	10	73	2.1	67	76	404	0.3	403	405	15.1	72.5
2025-08-25T07:27	10	79	1.2	76	80	405	0.4	404	406	15.0	72.1
2025-08-25T07:28	10	80	0.2	80	81	406	0.3	405	407	15.0	72.3
2025-08-25T07:29	10	80	0.9	77	80	407	0.3	406	407	15.2	72.3
2025-08-25T07:30	10	70	3.5	66	77	406	0.4	405	407	15.2	71.8
2025-08-25T07:31	10	79	1.1	77	81	407	0.4	406	408	15.2	72.0
2025-08-25T07:32	10	79	3.6	75	86	408	0.5	407	409	15.3	72.3
2025-08-25T07:33	10	85	0.8	84	86	410	0.4	409	411	15.5	71.6
2025-08-25T07:34	10	84	0.3	83	85	411	0.3	410	411	15.5	71.4
2025-08-25T07:35	10	84	1.3	80	85	410	0.3	410	411	15.5	71.1
2025-08-25T07:36	10	83	3.8	76	86	411	0.3	410	411	15.6	70.8
2025-08-25T07:37	10	82	1.0	80	84	410	0.4	409	411	15.4	70.2
2025-08-25T07:38	10	86	1.5	83	88	411	0.6	410	412	15.5	70.1
2025-08-25T07:39	10	86	0.6	85	87	412	0.3	411	412	15.5	69.4
2025-08-25T07:40	10	85	1.3	83	88	412	0.5	411	413	15.5	69.7
2025-08-25T07:41	10	87	0.8	86	89	414	0.3	413	415	15.6	69.7
2025-08-25T07:42	10	89	1.7	87	92	414	0.4	414	415	15.9	68.7
2025-08-25T07:43	10	81	2.4	78	86	414	0.9	412	415	16.0	69.6
2025-08-25T07:44	10	76	1.2	75	79	412	0.9	410	414	16.0	69.3
2025-08-25T07:45	10	85	2.9	79	89	412	0.6	411	413	15.7	68.6
2025-08-25T07:46	10	84	2.7	78	88	413	0.4	412	414	15.7	68.6
2025-08-25T07:47	10	74	1.5	72	78	412	0.6	411	413	15.6	68.9
2025-08-25T07:48	10	82	3.8	73	86	412	0.7	411	413	15.5	69.0
2025-08-25T07:49	10	85	1.8	82	89	413	0.6	412	414	15.5	68.4
2025-08-25T07:50	10	91	1.1	89	93	414	1.0	412	416	15.4	68.9
2025-08-25T07:51	10	94	0.8	93	96	415	0.2	415	416	15.6	69.1
2025-08-25T07:52	10	97	0.6	96	97	417	0.7	415	418	15.6	68.2
2025-08-25T07:53	10	98	0.3	97	98	418	0.7	417	420	15.9	67.5
2025-08-25T07:54	10	98	0.2	98	98	419	0.5	418	420	15.9	68.4
2025-08-25T07:55	10	99	0.3	98	99	418	0.5	417	419	15.8	68.2
2025-08-25T07:56	10	99	0.1	99	100	419	0.9	417	420	15.6	68.6
2025-08-25T07:57	10	100	0.1	99	100	421	0.7	420	422	16.0	68.9
2025-08-25T07:58	10	100	0.1	100	100	422	0.2	421	422	16.0	67.4
2025-08-25T07:59	10	100	0.1	100	100	422	0.2	422	423	16.2	67.0
2025-08-25T08:00	10	101	0.2	100	101	423	0.3	422	424	16.3	67.6
2025-08-25T08:01	10	101	0.1	101	101	423	0.5	422	424	16.3	67.8
2025-08-25T08:02	10	101	0.1	101	101	423	0.5	422	424	16.3	67.8
2025-08-25T08:03	10	102	0.1	101	102	423	0.4	422	424	16.2	67.6
2025-08-25T08:04	10	102	0.2	102	102	425	0.4	424	425	16.2	67.5
2025-08-25T08:05	10	102	0.1	102	103	424	0.4	423	425	16.4	67.4
2025-08-25T08:06	10	103	0.2	102	103	425	0.6	423	426	16.7	66.1
2025-08-25T08:07	10	103	0.2	103	103	427	0.5	426	428	16.6	66.5
2025-08-25T08:08	10	103	0.1	103	103	427	0.3	427	428	16.6	67.1
2025-08-25T08:09	10	104	0.2	103	104	427	0.3	426	428	16.4	65.6
2025-08-25T08:10	10	104	0.1	104	104	427	0.6	425	428	16.3	66.6
2025-08-25T08:11	10	104	0.2	104	105	425	0.5	425	426	16.0	67.2
2025-08-25T08:12	10	105	0.1	105	105	427	0.3	426	427	16.1	67.4
2025-08-25T08:13	10	105	0.1	105	105	429	0.8	427	430	16.3	67.2
2025-08-25T08:14	10	104	0.4	104	105	426	0.4	426	427	16.1	66.5
2025-08-25T08:15	10	106	0.4	105	106	428	0.6	427	429	16.2	66.3
2025-08-25T08:16	10	106	0.3	106	107	428	0.5	427	429	16.2	66.9
2025-08-25T08:17	10	107	0.1	107	107	429	1.1	427	430	16.3	66.6
2025-08-25T08:18	10	107	0.2	106	107	428	0.6	427	430	16.4	66.3
2025-08-25T08:19	10	108	0.3	107	108	429	0.9	428	431	16.4	66.4
2025-08-25T08:20	10	108	0.2	108	109	433	1.0	431	435	16.7	67.0
2025-08-25T08:21	10	109	0.2	109	109	433	0.5	432	434	16.7	66.8
2025-08-25T08:22	10	109	0.2	109	110	433	0.2	433	434	16.7	66.4
2025-08-25T08:23	10	110	0.1	110	110	433	0.6	432	434	16.7	66.7
2025-08-25T08:24	10	110	0.2	110	110	433	0.3	432	433	16.8	66.4
2025-08-25T08:25	10	110	0.2	110	110	434	0.5	433	435	16.6	66.2
2025-08-25T08:26	10	110	0.3	110	111	436	0.6	434	437	16.8	66.5
2025-08-25T08:27	10	111	0.2	111	111	436	0.7	434	437	16.8	66.0
2025-08-25T08:28	10	112	0.1	111	112	434	0.5	433	436	16.4	66.3
2025-08-25T08:29	10	112	0.1	112	112	435	0.9	433	436	16.4	66.8
2025-08-25T08:30	10	112	0.2	112	113	435	0.3	434	436	16.5	66.2
2025-08-25T08:31	10	113	0.1	112	113	435	0.5	434	436	16.6	66.2
2025-08-25T08:32	10	112	0.3	112	112	436	0.6	435	437	16.5	66.1
2025-08-25T08:33	10	113	0.2	112	113	437	0.4	436	438	16.7	65.9
2025-08-25T08:34	10	114	0.6	113	115	437	0.3	436	437	16.6	65.3
2025-08-25T08:35	10	115	0.2	114	115	438	0.3	437	438	16.8	64.8
2025-08-25T08:36	10	115	0.1	115	115	438	0.3	437	439	16.8	64.4
2025-08-25T08:37	10	115	0.2	114	115	439	0.5	437	439	17.0	64.8
2025-08-25T08:38	10	114	0.9	112	115	440	0.3	439	440	17.0	65.5
2025-08-25T08:39	10	115	0.3	114	116	439	0.4	438	440	16.9	65.2
2025-08-25T08:40	10	115	0.2	114	115	439	0.3	439	440	16.9	65.3
2025-08-25T08:41	10	115	0.2	115	116	440	0.5	439	441	17.0	65.7
2025-08-25T08:42	10	115	0.2	115	115	442	0.8	440	443	17.2	64.8
2025-08-25T08:43	10	115	0.2	115	116	442	0.8	441	443	17.1	64.4
2025-08-25T08:44	10	115	0.2	115	117	442	0.4	441	443	17.0	64.7
2025-08-25T08:45	10	116	0.2	115	116	442	0.5	441	443	17.0	64.7
2025-08-25T08:46	10	116	0.2	115	116	442	0.3	441	443	16.9	62.9
2025-08-25T08:47	10	116	0.2	116	117	443	0.6	442	444	17.0	62.0
2025-08-25T08:48	10	116	0.2	116	117	444	0.4	443	444	17.0	63.9
2025-08-25T08:49	10	117	0.2	116	117	444	0.3	444	445	17.0	63.9
2025-08-25T08:50	10	117	0.2	117	118	445	0.4	443	445	16.6	63.9
2025-08-25T08:51	10	117	0.2	117	118	445	0.2	445	446	17.0	63.9
2025-08-25T08:52	10	118	0.1	117	118	446	0.4	446	447	17.0	63.9
2025-08-25T08:53	10	118	0.1	117	118	447	0.4	446	448	17.0	63.9
2025-08-25T08:54	10	118	0.1	118	118	446	0.3	445	446	17.1	63.7
2025-08-25T08:55	10	118	0.1	118	118	448	0.4	447	448	17.6	63.0
2025-08-25T08:56	10	118	0.1	118	118	447	0.7	446	448	17.6	61.8
2025-08-25T08:57	10	118	0.1	118	119	447	0.3	446	448	17.5	62.0
2025-08-25T08:58	10	119	0.1	118	119	448	0.4	447	449	17.7	62.0
2025-08-25T08:59	10	119	0.1	119	119	448	0.2	447	448	17.6	61.9
2025-08-25T09:00	10	119	0.1	119	119	449	0.5	448	450	17.7	62.0
2025-08-25T09:01	10	119	0.1	119	120	450	0.3	449	451	17.8	62.1
2025-08-25T09:02	10	120	0.1	119	120	450	0.5	449	451	17.8	62.5
2025-08-25T09:03	10	120	0.1	120	120	449	0.4	448	450	17.8	61.5
2025-08-25T09:04	10	120	0.1	120	121	450	0.3	449	450	17.8	62.1
2025-08-25T09:05	10	121	0.2	120	121	451	0.6	450	453	18.1	62.0
2025-08-25T09:06	10	120	1.6	117	121	451	1.1	449	453	18.0	61.0
2025-08-25T09:07	10	120	1.5	117	122	450	0.6	449	451	17.7	61.8
2025-08-25T09:08	10	122	0.1	122	122	450	0.4	450	451	17.6	62.2
2025-08-25T09:09	10	122	0.1	122	122	451	0.7	449	452	17.7	61.8
2025-08-25T09:10	10	122	0.1	122	122	452	0.4	451	452	17.9	61.0
2025-08-25T09:11	10	122	0.1	122	123	453	0.2	453	454	18.0	61.0
2025-08-25T09:12	10	123	0.1	123	123	453	0.2	453	454	18.2	58.8
2025-08-25T09:13	10	122	0.4	122	123	453	0.3	453	454	18.2	59.2
2025-08-25T09:14	10	120	0.7	119	122	454	0.3	454	455	18.3	59.3
2025-08-25T09:15	10	118	0.4	118	119	456	0.3	455	456	18.5	58.8
2025-08-25T09:16	10	118	0.6	117	120	455	0.5	454	456	18.7	59.0
2025-08-25T09:17	10	116	1.6	114	119	453	1.5	451	455	18.6	58.5
2025-08-25T09:18	10	123	1.1	119	125	453	0.8	452	455	18.4	58.8
2025-08-25T09:19	10	125	0.1	125	125	456	0.6	455	457	18.4	59.3
2025-08-25T09:20	10	125	0.1	125	125	457	0.5	456	458	18.6	59.6
2025-08-25T09:21	10	125	0.2	125	125	458	0.4	457	459	18.9	59.1
2025-08-25T09:22	10	125	0.6	123	126	458	0.2	458	459	18.7	58.7
2025-08-25T09:23	10	123	1.0	121	125	457	1.2	456	459	18.8	59.2
2025-08-25T09:24	10	125	0.2	125	126	458	0.4	457	458	18.7	58.8
2025-08-25T09:25	10	126	0.1	126	126	458	0.3	457	458	18.7	59.0
2025-08-25T09:26	10	126	0.1	126	126	458	0.7	457	459	18.8	58.8
2025-08-25T09:27	10	126	0.1	126	126	458	0.5	457	459	19.1	57.3
2025-08-25T09:28	10	126	0.1	126	126	459	0.3	458	460	19.2	57.6
2025-08-25T09:29	10	126	0.1	126	127	460	0.3	459	460	19.0	57.5
2025-08-25T09:30	10	127	0.1	126	127	461	0.3	460	462	19.0	58.3
2025-08-25T09:31	10	127	0.1	127	127	461	0.3	460	462	18.9	58.3
2025-08-25T09:32	10	127	0.1	127	127	461	0.3	461	462	19.1	57.5
2025-08-25T09:33	10	127	0.1	127	127	461	0.5	460	462	19.0	57.8
2025-08-25T09:34	10	127	0.1	127	128	463	0.7	462	464	19.3	57.7
2025-08-25T09:35	10	128	0.1	127	128	464	0.4	463	465	19.5	58.4
2025-08-25T09:36	10	128	0.1	128	128	464	0.6	463	465	19.6	57.3
2025-08-25T09:37	10	128	0.1	128	128	464	0.2	463	465	19.7	56.4
2025-08-25T09:38	10	128	0.1	128	129	465	0.3	464	465	19.5	57.1
2025-08-25T09:39	10	128	0.1	128	129	464	0.7	463	466	19.3	57.7
2025-08-25T09:40	10	129	0.1	128	129	466	0.3	465	467	19.5	58.3
2025-08-25T09:41	10	129	0.1	129	129	467	0.4	466	467	19.4	57.8
2025-08-25T09:42	10	129	0.1	129	129	466	0.6	465	467	19.0	58.2
2025-08-25T09:43	10	129	0.1	129	130	465	0.4	465	466	19.0	58.4
2025-08-25T09:44	10	129	0.1	129	130	467	0.5	466	468	19.3	58.3
2025-08-25T09:45	10	129	0.1	129	130	467	0.8	466	468	19.1	59.0
2025-08-25T09:46	10	130	0.1	130	130	466	0.7	464	467	19.1	59.2
2025-08-25T09:47	10	130	0.1	130	130	466	1.0	464	468	19.0	59.1
2025-08-25T09:48	10	130	0.1	130	130	464	0.5	463	465	19.0	59.2
2025-08-25T09:49	10	130	0.1	130	130	464	1.1	462	466	19.1	59.0
2025-08-25T09:50	10	130	0.1	130	130	466	0.9	464	467	19.1	59.2
2025-08-25T09:51	10	130	0.1	130	131	467	0.5	466	468	19.1	59.1
2025-08-25T09:52	10	131	0.1	130	131	468	1.2	466	470	19.5	59.1
2025-08-25T09:53	10	131	0.1	130	131	466	0.5	465	467	19.1	58.5
2025-08-25T09:54	10	131	0.1	131	131	468	0.7	466	469	19.2	58.8
2025-08-25T09:55	10	131	0.1	131	131	470	0.4	469	471	19.6	59.1
2025-08-25T09:56	10	131	0.1	131	132	470	0.3	470	471	19.9	57.8
2025-08-25T09:57	10	132	0.1	131	132	470	0.4	469	471	19.9	56.8
2025-08-25T09:58	10	132	0.1	132	132	470	0.4	470	471	20.0	56.1
2025-08-25T09:59	10	132	0.1	132	132	472	0.6	471	473	20.1	57.5
2025-08-25T10:00	10	132	0.1	132	132	473	0.3	473	474	20.3	57.0
2025-08-25T10:01	10	132	0.1	132	132	475	0.8	473	476	20.5	56.7
2025-08-25T10:02	10	132	0.1	132	132	471	2.4	467	475	20.4	55.8
2025-08-25T10:03	10	132	0.1	132	132	470	1.0	468	472	20.3	55.8
2025-08-25T10:04	10	132	0.1	132	133	469	0.6	468	470	20.2	56.1
2025-08-25T10:05	10	133	0.1	132	133	467	2.3	464	471	19.9	56.5
2025-08-25T10:06	10	132	0.1	132	133	468	1.6	465	471	19.6	57.0
2025-08-25T10:07	10	133	0.1	132	133	472	0.8	471	473	19.6	57.4
2025-08-25T10:08	10	133	0.1	132	133	470	1.9	468	473	19.8	56.9
2025-08-25T10:09	10	133	0.1	133	133	469	0.6	468	471	19.6	57.3
2025-08-25T10:10	10	133	0.1	133	133	472	0.8	470	473	19.8	57.6
2025-08-25T10:11	10	133	0.1	133	133	470	1.2	468	473	19.6	57.4
2025-08-25T10:12	10	133	0.1	133	133	470	0.5	469	471	19.7	57.4
2025-08-25T10:13	10	133	0.1	133	133	470	0.7	469	472	19.6	57.4
2025-08-25T10:14	10	133	0.2	133	134	473	1.1	471	475	19.9	57.5
2025-08-25T10:15	10	133	0.1	133	134	475	0.6	474	476	20.2	56.8
2025-08-25T10:16	10	134	0.3	133	134	474	1.0	471	475	19.9	56.7
2025-08-25T10:17	10	134	0.1	134	134	473	1.1	472	475	19.8	57.6
2025-08-25T10:18	10	135	0.1	134	135	475	0.9	474	477	19.9	57.7
2025-08-25T10:19	10	135	0.1	135	135	475	1.7	472	478	20.1	56.9
2025-08-25T10:20	10	135	0.1	135	135	474	1.1	472	477	20.2	57.1
2025-08-25T10:21	10	135	0.1	135	135	476	0.8	475	477	20.4	56.2
2025-08-25T10:22	10	135	0.2	135	136	477	0.6	475	478	20.5	56.2
2025-08-25T10:23	10	136	0.1	135	136	479	0.5	477	480	20.8	55.3
2025-08-25T10:24	10	136	0.1	136	136	478	1.0	476	479	20.6	54.7
2025-08-25T10:25	10	136	0.1	136	136	478	0.7	477	480	20.6	55.2
2025-08-25T10:26	10	136	0.1	136	136	480	0.8	478	481	21.0	54.7
2025-08-25T10:27	10	136	0.1	136	136	477	0.9	476	479	20.4	54.8
2025-08-25T10:28	10	136	0.1	136	136	477	0.6	476	478	20.4	55.5
2025-08-25T10:29	10	136	0.1	136	136	479	1.4	476	481	20.4	55.4
2025-08-25T10:30	10	136	0.1	136	136	480	0.4	480	481	20.6	55.8
2025-08-25T10:31	10	136	0.1	136	136	478	1.9	475	482	20.6	54.9
2025-08-25T10:32	10	136	0.1	136	137	474	1.0	473	477	20.0	55.9
2025-08-25T10:33	10	136	0.1	136	137	476	0.7	475	478	20.0	56.4
2025-08-25T10:34	10	136	0.2	136	136	478	0.9	476	479	20.1	56.2
2025-08-25T10:35	10	136	0.1	136	137	478	1.0	476	479	20.2	55.9
2025-08-25T10:36	10	137	0.1	137	137	478	0.7	476	479	20.3	55.9
2025-08-25T10:37	10	137	0.1	137	137	478	1.2	476	480	20.3	55.5
2025-08-25T10:38	10	137	0.2	137	137	478	1.1	476	479	20.3	55.2
2025-08-25T10:39	10	137	0.1	137	138	480	0.5	479	481	20.3	54.8
2025-08-25T10:40	10	137	0.5	136	138	482	1.0	480	483	20.6	54.7
2025-08-25T10:41	10	136	0.2	136	137	484	0.5	482	484	21.0	54.7
2025-08-25T10:42	10	136	0.2	136	137	481	1.0	480	483	20.8	53.8
2025-08-25T10:43	10	136	0.2	135	136	481	0.9	480	483	20.8	54.8
2025-08-25T10:44	10	136	0.2	136	137	484	0.7	483	485	21.5	54.6
2025-08-25T10:45	10	137	0.3	136	137	484	0.5	483	486	21.3	53.5
2025-08-25T10:46	10	137	0.4	137	138	484	0.7	482	485	21.2	53.6
2025-08-25T10:47	10	137	1.1	135	139	485	0.7	483	486	21.4	54.0
2025-08-25T10:48	10	139	0.1	139	139	485	1.3	481	486	21.4	52.9
2025-08-25T10:49	10	139	0.1	139	139	480	1.1	478	482	20.8	53.3
2025-08-25T10:50	10	139	0.1	139	139	482	1.3	479	484	20.6	54.2
2025-08-25T10:51	10	139	0.1	139	139	485	0.4	484	486	21.0	53.7
2025-08-25T10:52	10	139	0.1	139	139	486	0.7	485	488	21.2	53.7
2025-08-25T10:53	10	139	0.0	139	139	486	0.9	484	488	21.1	52.3
2025-08-25T10:54	10	139	0.1	139	139	485	0.9	483	486	21.0	52.5
2025-08-25T10:55	10	139	0.1	139	139	484	0.6	483	485	21.0	52.8
2025-08-25T10:56	10	139	0.1	139	139	484	0.7	483	485	21.2	52.3
2025-08-25T10:57	10	139	0.1	139	140	486	0.6	485	487	21.1	52.9
2025-08-25T10:58	10	139	0.1	139	140	487	0.5	486	488	21.3	52.5
2025-08-25T10:59	10	140	0.2	139	140	488	0.9	487	490	21.7	52.8
2025-08-25T11:00	10	139	0.2	139	140	488	1.2	485	490	22.0	51.1
2025-08-25T11:01	10	139	0.1	139	139	485	0.5	484	486	21.7	52.0
2025-08-25T11:02	10	139	0.1	139	140	483	1.1	482	485	21.2	52.8
2025-08-25T11:03	10	139	0.1	139	140	485	1.2	483	487	21.3	53.3
2025-08-25T11:04	10	139	0.1	139	140	488	0.8	486	489	21.7	52.8
2025-08-25T11:05	10	140	0.2	139	140	488	0.6	487	489	21.6	52.6
2025-08-25T11:06	10	140	0.1	139	140	488	0.7	487	490	21.9	52.9
2025-08-25T11:07	10	140	0.1	139	140	490	0.6	488	491	22.0	52.4
2025-08-25T11:08	10	140	0.1	140	140	491	0.4	490	491	22.1	51.3
2025-08-25T11:09	10	140	0.1	139	140	490	0.8	488	491	21.9	50.9
2025-08-25T11:10	10	140	0.2	140	140	488	0.8	486	489	21.8	51.2
2025-08-25T11:11	10	140	0.1	140	140	488	0.7	486	489	22.0	51.4
2025-08-25T11:12	10	140	0.1	140	140	489	0.8	488	491	22.0	50.6
2025-08-25T11:13	10	140	0.1	140	141	485	1.7	483	489	21.6	50.2
2025-08-25T11:14	10	140	0.2	140	141	485	1.2	484	487	21.4	50.8
2025-08-25T11:15	10	140	0.1	140	140	487	1.4	484	489	21.4	51.0
2025-08-25T11:16	10	140	0.1	140	141	488	0.8	486	489	21.5	51.2
2025-08-25T11:17	10	140	0.1	140	140	485	1.1	483	487	21.5	50.8
2025-08-25T11:18	10	140	0.2	140	141	488	1.1	485	489	21.6	50.2
2025-08-25T11:19	10	140	0.1	140	140	490	1.3	488	492	21.8	50.1
2025-08-25T11:20	10	140	0.1	140	140	492	0.4	491	493	22.6	50.6
2025-08-25T11:21	10	140	0.2	139	141	488	1.2	486	490	22.6	49.7
2025-08-25T11:22	10	140	0.2	140	140	488	1.8	484	490	21.8	50.0
2025-08-25T11:23	10	140	0.2	140	141	484	1.2	483	487	21.4	50.8
2025-08-25T11:24	10	140	0.2	140	141	490	1.1	487	491	21.9	51.1
2025-08-25T11:25	10	140	0.2	140	141	488	1.1	486	490	21.6	50.7
2025-08-25T11:26	10	140	0.1	140	141	491	0.5	489	491	21.8	50.9
2025-08-25T11:27	10	140	0.2	140	141	492	0.3	491	492	21.8	50.5
2025-08-25T11:28	10	141	0.1	140	141	491	0.8	490	492	21.8	50.6
2025-08-25T11:29	10	141	0.2	140	141	492	0.3	491	492	21.9	50.4
2025-08-25T11:30	10	140	0.6	139	141	492	0.7	491	493	21.8	50.0
2025-08-25T11:31	10	141	0.3	140	142	492	0.7	491	493	21.9	50.2
2025-08-25T11:32	10	141	0.1	141	141	493	0.5	492	494	22.2	50.1
2025-08-25T11:33	10	141	0.1	141	141	495	0.6	494	497	22.4	50.0
2025-08-25T11:34	10	141	0.1	141	141	494	0.8	493	496	22.6	50.0
2025-08-25T11:35	10	141	0.1	140	141	494	1.1	492	496	22.9	49.3
2025-08-25T11:36	10	141	0.1	141	141	489	1.5	487	493	22.1	48.9
2025-08-25T11:37	10	141	0.1	140	141	491	1.0	490	494	22.0	49.6
2025-08-25T11:38	10	140	0.2	140	140	492	1.0	490	494	21.9	50.3
2025-08-25T11:39	10	140	0.1	140	140	491	0.9	489	492	21.8	51.1
2025-08-25T11:40	10	140	0.1	140	140	491	0.6	490	492	21.8	50.9
2025-08-25T11:41	10	140	0.1	139	140	493	0.6	492	495	22.0	50.2
2025-08-25T11:42	10	140	0.1	139	140	494	0.4	493	495	22.4	50.2
2025-08-25T11:43	10	140	0.1	139	140	493	0.4	492	493	22.4	49.8
2025-08-25T11:44	10	140	0.2	139	140	495	0.7	493	496	22.5	49.8
2025-08-25T11:45	10	140	0.1	140	140	494	1.0	493	496	22.2	50.4
2025-08-25T11:46	10	140	0.1	140	140	495	0.9	494	496	22.4	50.8
2025-08-25T11:47	10	140	0.1	140	140	496	0.3	495	496	22.7	49.0
2025-08-25T11:48	10	140	0.1	140	140	493	1.4	491	496	22.6	48.7
2025-08-25T11:49	10	140	0.1	140	140	493	1.0	491	494	22.5	49.1
2025-08-25T11:50	10	140	0.1	140	140	496	0.8	495	498	22.8	49.3
2025-08-25T11:51	10	140	0.1	140	140	498	0.9	497	500	23.2	49.2
2025-08-25T11:52	10	140	0.2	140	141	498	1.1	497	501	23.1	48.2
2025-08-25T11:53	10	140	0.1	140	140	497	1.3	495	499	23.0	48.1
2025-08-25T11:54	10	140	0.1	140	140	494	1.1	492	497	23.2	48.1
2025-08-25T11:55	10	140	0.2	140	141	497	0.6	495	498	23.2	47.7
2025-08-25T11:56	10	140	0.1	140	140	495	0.4	494	496	22.9	47.5
2025-08-25T11:57	10	140	0.1	140	141	496	0.2	495	496	23.0	47.8
2025-08-25T11:58	10	140	0.1	140	141	497	0.4	496	498	23.1	47.5
2025-08-25T11:59	10	141	0.2	140	141	498	0.8	497	500	23.2	48.5
2025-08-25T12:00	10	141	0.2	140	141	496	2.7	493	501	23.3	47.1
2025-08-25T12:01	10	141	0.1	141	141	495	0.8	493	496	22.9	46.4
2025-08-25T12:02	10	141	0.1	140	141	498	1.0	496	500	23.0	45.5
2025-08-25T12:03	10	140	0.1	140	141	493	1.9	491	498	23.3	46.6
2025-08-25T12:04	10	140	0.1	140	141	494	1.0	491	495	23.3	47.2
2025-08-25T12:05	10	140	0.1	140	140	496	1.5	494	499	23.2	47.8
2025-08-25T12:06	10	140	0.1	140	140	498	0.8	497	500	23.0	47.5
2025-08-25T12:07	10	140	0.1	140	140	498	0.9	496	499	23.0	47.3
2025-08-25T12:08	10	140	0.1	140	140	498	0.5	496	499	23.1	47.3
2025-08-25T12:09	10	140	0.1	140	140	496	1.1	495	499	23.0	47.5
2025-08-25T12:10	10	140	0.1	140	140	498	1.4	495	500	23.3	47.0
2025-08-25T12:11	10	140	0.1	140	140	494	0.6	494	496	23.1	46.8
2025-08-25T12:12	10	140	0.1	140	140	497	0.5	496	498	23.1	47.0
2025-08-25T12:13	10	140	0.1	140	140	496	0.3	495	496	23.1	46.9
2025-08-25T12:14	10	140	0.1	140	140	497	1.1	496	500	23.2	47.2
2025-08-25T12:15	10	140	0.1	140	140	500	0.9	498	501	23.6	46.8
2025-08-25T12:16	10	140	0.1	139	140	500	1.3	498	502	23.9	46.2
2025-08-25T12:17	10	139	0.2	139	140	500	1.0	497	501	23.7	46.0
2025-08-25T12:18	10	139	0.2	139	140	498	0.7	497	500	24.0	46.2
2025-08-25T12:19	10	139	0.2	139	140	501	0.8	499	503	24.3	45.6
2025-08-25T12:20	10	139	0.1	139	140	498	1.5	496	501	23.8	45.0
2025-08-25T12:21	10	139	0.2	139	140	500	0.6	499	501	24.0	46.4
2025-08-25T12:22	10	139	0.2	139	140	503	0.9	501	504	24.5	45.3
2025-08-25T12:23	10	139	0.2	139	140	501	1.1	500	504	24.4	44.0
2025-08-25T12:24	10	139	0.2	139	140	499	1.9	497	502	24.0	43.9
2025-08-25T12:25	10	139	0.2	139	140	499	0.4	498	500	23.7	44.1
2025-08-25T12:26	10	139	0.1	139	140	502	1.3	500	504	23.9	45.4
2025-08-25T12:27	10	139	0.1	138	139	504	0.8	502	506	24.4	44.9
2025-08-25T12:28	10	139	0.1	139	139	500	1.9	497	503	24.3	43.4
2025-08-25T12:29	10	139	0.2	139	139	499	0.9	497	501	24.1	43.1
2025-08-25T12:30	10	139	0.2	138	139	496	1.7	494	499	24.0	43.5
2025-08-25T12:31	10	138	0.1	138	139	495	0.7	494	497	23.9	43.9
2025-08-25T12:32	10	138	0.1	138	138	497	0.7	496	499	24.2	43.4
2025-08-25T12:33	10	138	0.1	138	138	498	0.4	497	499	24.4	42.4
2025-08-25T12:34	10	138	0.2	138	138	498	0.7	496	499	24.3	41.6
2025-08-25T12:35	10	138	0.2	138	138	500	1.3	499	503	24.2	42.1
2025-08-25T12:36	10	138	0.1	138	139	499	1.4	498	502	24.2	42.0
2025-08-25T12:37	10	138	0.2	138	139	501	1.0	499	503	24.1	42.5
2025-08-25T12:38	10	138	0.1	138	138	497	2.0	494	503	24.0	42.8
2025-08-25T12:39	10	138	0.1	138	139	498	1.2	497	500	23.9	43.1
2025-08-25T12:40	10	138	0.1	138	139	501	0.6	499	502	24.0	43.2
2025-08-25T12:41	10	139	0.1	138	139	500	0.6	500	502	24.1	42.5
2025-08-25T12:42	10	138	0.2	138	139	501	1.1	497	503	24.1	41.9
2025-08-25T12:43	10	138	0.1	138	139	498	0.7	497	499	24.0	41.1
2025-08-25T12:44	10	138	0.1	138	139	499	1.2	497	501	24.1	41.3
2025-08-25T12:45	10	139	0.1	138	139	502	1.1	500	504	24.5	42.5
2025-08-25T12:46	10	139	0.1	139	139	499	1.7	496	502	24.1	44.8
2025-08-25T12:47	10	139	0.1	139	139	496	1.6	494	499	23.7	46.5
2025-08-25T12:48	10	138	1.0	135	139	495	0.6	494	496	23.5	46.9
2025-08-25T12:49	10	135	0.6	134	136	497	0.7	496	498	23.8	46.6
2025-08-25T12:50	10	138	0.5	137	138	496	0.5	495	497	24.3	45.6
2025-08-25T12:51	10	134	3.1	128	138	495	1.0	493	496	24.0	45.3
2025-08-25T12:52	10	124	1.7	121	128	494	1.3	492	497	24.2	44.6
2025-08-25T12:53	10	127	1.5	124	130	492	1.6	490	495	24.0	43.9
2025-08-25T12:54	10	122	1.3	120	124	490	1.4	487	492	24.0	43.9
2025-08-25T12:55	10	120	1.8	117	124	486	1.1	484	489	23.7	44.5
2025-08-25T12:56	10	114	3.5	107	118	487	0.9	485	489	23.8	44.4
2025-08-25T12:57	10	111	2.2	107	118	486	0.9	485	487	23.8	44.7
2025-08-25T12:58	10	112	3.7	107	123	486	0.6	485	488	23.9	44.3
2025-08-25T12:59	10	129	1.5	123	130	493	2.3	487	496	24.0	44.4
2025-08-25T13:00	10	127	0.8	126	129	495	0.6	494	496	24.1	44.0
2025-08-25T13:01	10	132	2.1	126	135	498	1.1	495	500	24.3	43.7
2025-08-25T13:02	10	137	0.7	135	138	501	0.9	499	502	25.1	42.7
2025-08-25T13:03	10	139	0.1	138	139	500	1.1	498	501	24.8	41.7
2025-08-25T13:04	10	139	0.2	138	139	498	0.9	497	500	24.5	42.0
2025-08-25T13:05	10	139	0.2	138	139	500	1.5	497	502	24.4	42.4
2025-08-25T13:06	10	139	0.2	138	139	502	0.5	501	503	24.8	43.5
2025-08-25T13:07	10	136	1.2	134	138	501	1.5	499	503	25.0	43.3
2025-08-25T13:08	10	136	1.7	132	138	496	1.7	493	500	24.6	42.3
2025-08-25T13:09	10	136	0.6	135	138	495	1.0	493	496	24.2	43.1
2025-08-25T13:10	10	138	0.7	136	139	496	0.6	495	497	24.2	42.6
2025-08-25T13:11	10	135	0.7	133	136	495	1.3	492	497	24.5	40.2
2025-08-25T13:12	10	131	3.8	125	136	493	0.7	491	495	24.5	40.1
2025-08-25T13:13	10	127	1.6	125	131	493	1.0	491	494	24.3	40.5
2025-08-25T13:14	10	134	2.0	131	138	496	0.7	495	497	24.5	40.6
2025-08-25T13:15	10	132	5.6	122	138	498	0.9	496	499	24.5	40.7
2025-08-25T13:16	10	131	3.6	126	136	496	0.9	494	497	24.7	40.2
2025-08-25T13:17	10	133	0.9	131	135	498	0.6	496	499	24.5	40.8
2025-08-25T13:18	10	130	5.7	118	136	497	0.6	496	499	24.5	41.4
2025-08-25T13:19	10	132	1.5	130	135	499	0.6	498	501	24.8	41.4
2025-08-25T13:20	10	129	2.9	126	136	499	0.8	498	501	24.8	41.4
2025-08-25T13:21	10	128	1.9	124	131	498	0.9	496	499	24.7	42.8
2025-08-25T13:22	10	122	4.3	115	128	494	1.4	491	497	24.4	44.0
2025-08-25T13:23	10	109	8.1	97	119	490	3.7	483	494	24.4	44.1
2025-08-25T13:24	10	117	5.9	102	123	488	2.2	484	491	24.4	44.3
2025-08-25T13:25	10	123	1.0	122	125	489	0.8	488	491	24.2	44.6
2025-08-25T13:26	10	125	1.9	122	128	492	1.6	490	494	24.3	44.0
2025-08-25T13:27	10	120	3.1	116	125	492	0.7	490	493	24.5	43.5
2025-08-25T13:28	10	114	1.7	110	116	491	0.8	489	492	24.7	43.5
2025-08-25T13:29	10	110	2.9	106	115	488	2.4	484	492	24.5	42.4
2025-08-25T13:30	10	110	1.3	107	112	485	0.9	484	487	24.4	42.8
2025-08-25T13:31	10	106	1.2	103	107	486	0.8	485	488	24.7	42.8
2025-08-25T13:32	10	105	1.1	104	107	487	0.7	485	488	24.8	42.6
2025-08-25T13:33	10	99	2.5	97	104	486	0.4	485	487	24.8	43.1
2025-08-25T13:34	10	104	2.5	98	107	487	0.6	486	488	24.8	42.6
2025-08-25T13:35	10	102	3.8	97	113	487	0.5	486	488	25.0	43.2
2025-08-25T13:36	10	120	2.3	114	125	490	1.8	487	493	25.0	42.9
2025-08-25T13:37	10	129	1.4	125	132	495	1.3	493	498	25.3	42.4
2025-08-25T13:38	10	136	1.9	132	139	498	0.4	497	499	25.3	41.1
2025-08-25T13:39	10	137	0.6	137	139	499	0.8	497	500	25.3	43.3
2025-08-25T13:40	10	140	1.4	137	142	498	1.2	496	500	25.4	43.6
2025-08-25T13:41	10	141	0.7	140	142	495	0.8	494	497	25.7	42.6
2025-08-25T13:42	10	141	1.0	137	142	497	0.7	496	498	25.1	43.2
2025-08-25T13:43	10	133	1.4	130	137	495	0.7	494	496	25.1	44.4
2025-08-25T13:44	10	128	1.6	125	131	495	0.4	495	496	24.8	44.8
2025-08-25T13:45	10	122	2.5	118	126	493	1.9	491	496	25.3	43.3
2025-08-25T13:46	10	116	2.5	111	120	490	1.9	486	493	25.2	42.6
2025-08-25T13:47	10	105	4.2	101	111	484	1.9	482	487	25.2	41.4
2025-08-25T13:48	10	102	1.2	100	104	483	0.5	482	484	25.0	40.6
2025-08-25T13:49	10	104	4.9	97	111	487	1.0	484	488	25.2	41.9
2025-08-25T13:50	10	117	6.5	102	125	489	1.7	486	492	25.2	42.5
2025-08-25T13:51	10	118	2.7	113	121	491	1.0	489	492	25.0	44.0
2025-08-25T13:52	10	99	6.9	88	113	487	1.9	485	491	24.8	44.3
2025-08-25T13:53	10	123	5.5	108	130	490	1.9	486	493	25.0	43.4
2025-08-25T13:54	10	130	2.4	124	133	491	1.1	489	493	25.0	40.9
2025-08-25T13:55	10	113	9.3	100	125	489	1.7	486	492	25.0	41.2
2025-08-25T13:56	10	88	7.9	74	100	484	2.1	480	487	25.0	41.5
2025-08-25T13:57	10	87	8.0	74	96	481	1.0	480	483	25.0	41.5
2025-08-25T13:58	10	96	2.8	92	101	482	0.4	481	483	24.8	42.5
2025-08-25T13:59	10	102	2.8	97	106	482	0.6	482	484	24.7	43.0
2025-08-25T14:00	10	106	1.5	102	108	485	1.0	483	486	24.8	43.0
2025-08-25T14:01	10	105	4.2	101	112	484	1.6	482	486	25.1	43.2
2025-08-25T14:02	10	111	1.7	108	113	484	0.9	482	485	24.9	43.3
2025-08-25T14:03	10	110	4.4	103	115	486	0.9	484	487	24.9	43.3
2025-08-25T14:04	10	117	4.2	105	120	487	1.9	484	490	24.9	43.1
2025-08-25T14:05	10	122	1.5	120	125	491	0.8	489	492	25.1	42.9
2025-08-25T14:06	10	122	1.3	120	125	488	0.8	487	490	25.0	43.0
2025-08-25T14:07	10	127	0.8	125	128	491	1.1	488	493	25.0	43.1
2025-08-25T14:08	10	127	1.1	125	129	493	1.1	491	495	25.0	43.5
2025-08-25T14:09	10	127	1.5	125	130	490	1.7	488	494	24.9	41.8
2025-08-25T14:10	10	124	3.9	120	131	489	1.0	487	490	24.8	43.0
2025-08-25T14:11	10	117	2.6	114	121	488	1.0	487	490	25.0	41.0
2025-08-25T14:12	10	116	2.2	113	120	486	1.2	484	488	24.9	39.7
2025-08-25T14:13	10	120	1.9	118	125	488	1.9	485	491	25.1	40.7
2025-08-25T14:14	10	120	3.1	115	125	490	1.3	488	493	25.0	41.8
2025-08-25T14:15	10	118	1.2	115	120	489	1.1	488	491	25.0	41.2
2025-08-25T14:16	10	117	2.8	113	122	489	0.8	487	490	25.3	42.5
2025-08-25T14:17	10	121	1.7	117	123	486	1.9	483	489	24.9	43.4
2025-08-25T14:18	10	107	8.1	93	117	483	1.3	481	485	24.9	44.0
2025-08-25T14:19	10	99	5.5	93	111	481	1.3	479	483	25.0	43.6
2025-08-25T14:20	10	108	1.6	105	111	483	0.5	482	483	25.0	43.5
2025-08-25T14:21	10	105	1.8	101	108	484	0.5	483	485	25.1	43.0
2025-08-25T14:22	10	95	2.9	91	101	482	0.9	480	484	25.2	42.9
2025-08-25T14:23	10	104	3.6	98	110	482	1.0	481	484	25.3	42.6
2025-08-25T14:24	10	107	1.3	105	109	483	0.6	482	485	25.5	41.3
2025-08-25T14:25	10	110	2.5	105	112	485	1.5	483	487	25.4	40.5
2025-08-25T14:26	10	109	2.3	105	113	483	1.5	481	487	25.4	42.0
2025-08-25T14:27	10	116	3.8	110	121	484	1.6	481	487	25.2	44.7
2025-08-25T14:28	10	115	1.7	112	118	485	1.1	483	487	25.2	44.9
2025-08-25T14:29	10	116	0.9	115	118	484	1.1	483	487	24.9	45.0
2025-08-25T14:30	10	114	2.4	109	117	486	0.8	483	487	25.1	44.2
2025-08-25T14:31	10	101	6.1	91	109	480	2.6	476	484	25.1	42.5
2025-08-25T14:32	10	86	2.4	83	91	475	1.0	474	477	24.9	40.0
2025-08-25T14:33	10	93	1.4	89	94	476	0.9	474	478	24.9	41.8
2025-08-25T14:34	10	96	1.8	93	98	478	1.0	477	480	24.9	42.6
2025-08-25T14:35	10	91	2.0	87	95	479	0.3	478	479	25.2	41.1
2025-08-25T14:36	10	85	2.4	82	88	477	0.7	476	479	25.3	41.1
2025-08-25T14:37	10	78	2.2	76	82	475	1.3	473	477	25.5	42.5
2025-08-25T14:38	10	76	1.2	73	77	472	1.4	470	474	25.4	41.4
2025-08-25T14:39	10	75	3.0	71	82	470	0.3	469	471	25.1	39.5
2025-08-25T14:40	10	84	0.6	82	86	470	0.8	469	472	25.1	39.2
2025-08-25T14:41	10	84	1.0	83	86	473	0.4	471	474	25.0	38.6
2025-08-25T14:42	10	81	0.7	80	83	474	0.4	473	474	25.1	38.8
2025-08-25T14:43	10	76	2.0	73	80	471	1.4	469	473	25.0	41.2
2025-08-25T14:44	10	80	1.5	78	83	471	1.0	470	473	25.0	42.1
2025-08-25T14:45	10	80	2.4	77	83	472	1.6	469	474	25.2	41.7
2025-08-25T14:46	10	79	0.7	77	81	468	0.6	467	469	25.2	41.5
2025-08-25T14:47	10	87	2.8	81	90	471	2.2	468	475	25.2	40.1
2025-08-25T14:48	10	89	0.6	88	90	476	0.9	474	477	25.3	41.7
2025-08-25T14:49	10	91	2.4	87	94	475	0.3	474	476	25.3	38.5
2025-08-25T14:50	10	89	1.9	87	92	475	0.4	474	476	25.2	38.3
2025-08-25T14:51	10	85	1.3	83	87	474	0.3	474	475	25.3	39.1
2025-08-25T14:52	10	82	0.3	82	83	474	0.3	473	474	25.4	39.8
2025-08-25T14:53	10	82	0.5	81	83	473	0.3	472	473	25.3	40.6
2025-08-25T14:54	10	82	0.4	81	82	473	0.6	471	474	25.5	41.4
2025-08-25T14:55	10	80	1.0	78	82	472	0.4	471	472	25.4	42.1
2025-08-25T14:56	10	75	1.4	73	78	468	0.9	467	471	25.1	41.5
2025-08-25T14:57	10	74	0.4	74	75	468	0.4	467	469	25.1	41.5
2025-08-25T14:58	10	72	1.0	71	74	468	0.6	467	469	25.0	40.7
2025-08-25T14:59	10	71	0.7	71	73	468	0.9	467	470	25.0	41.6
2025-08-25T15:00	10	77	2.0	73	81	470	0.3	469	471	25.4	41.2
2025-08-25T15:01	10	84	1.3	81	85	472	1.0	470	474	25.3	40.9
2025-08-25T15:02	10	82	0.7	82	84	473	0.6	472	474	25.5	41.0
2025-08-25T15:03	10	87	2.3	84	92	474	0.5	473	475	25.3	39.8
2025-08-25T15:04	10	93	0.8	91	94	475	0.8	473	476	25.2	39.7
2025-08-25T15:05	10	94	1.0	93	95	476	0.5	475	477	25.1	39.4
2025-08-25T15:06	10	94	0.5	94	95	476	0.6	475	477	25.1	38.8
2025-08-25T15:07	10	96	1.5	94	99	477	0.7	476	478	25.3	38.9
2025-08-25T15:08	10	100	0.8	99	102	478	0.3	478	479	25.5	38.8
2025-08-25T15:09	10	101	1.0	99	102	480	0.6	478	480	25.7	38.0
2025-08-25T15:10	10	101	0.6	100	103	479	0.3	478	480	25.7	37.5
2025-08-25T15:11	10	105	1.3	102	107	481	0.8	479	482	25.8	37.1
2025-08-25T15:12	10	98	1.0	97	101	480	0.8	479	482	25.9	35.6
2025-08-25T15:13	10	101	0.8	100	102	480	0.5	479	481	26.0	34.8
2025-08-25T15:14	10	100	0.5	99	101	480	0.3	479	481	26.0	35.2
2025-08-25T15:15	10	102	0.7	101	104	481	0.3	480	482	26.1	34.4
2025-08-25T15:16	10	103	1.1	100	104	481	0.4	480	482	26.2	33.8
2025-08-25T15:17	10	98	0.7	97	100	481	0.4	480	481	26.1	33.7
2025-08-25T15:18	10	101	1.6	98	103	481	0.2	480	481	26.0	34.9
2025-08-25T15:19	10	103	0.3	102	104	480	0.7	478	481	26.0	34.1
2025-08-25T15:20	10	98	3.6	93	103	479	1.1	477	481	25.8	33.9
2025-08-25T15:21	10	92	2.7	86	94	477	0.8	476	478	25.9	35.3
2025-08-25T15:22	10	85	1.6	83	87	475	0.4	475	477	25.8	35.7
2025-08-25T15:23	10	88	0.6	86	89	475	0.3	475	476	25.8	34.5
2025-08-25T15:24	10	86	0.6	85	87	474	1.5	472	476	26.0	33.7
2025-08-25T15:25	10	83	2.2	80	86	473	1.1	472	475	26.0	34.0
2025-08-25T15:26	10	84	3.9	79	92	472	0.3	472	473	26.0	34.0
2025-08-25T15:27	10	85	4.7	78	92	473	0.3	472	474	25.9	33.0
2025-08-25T15:28	10	89	1.7	86	91	474	0.4	473	475	26.0	33.6
2025-08-25T15:29	10	84	0.7	83	86	473	0.4	472	473	26.1	33.4
2025-08-25T15:30	10	82	0.9	80	83	472	0.4	472	473	26.1	33.4
2025-08-25T15:31	10	75	2.9	72	80	471	0.5	470	472	26.3	33.1
2025-08-25T15:32	10	74	1.2	73	76	471	0.2	470	471	26.3	33.7
2025-08-25T15:33	10	78	1.1	76	80	471	0.5	470	472	26.3	33.5
2025-08-25T15:34	10	83	1.4	80	84	472	0.4	472	473	26.2	34.4
2025-08-25T15:35	10	81	1.9	78	84	472	0.6	470	473	26.0	35.3
2025-08-25T15:36	10	76	1.0	75	78	470	0.9	468	471	25.8	36.0
2025-08-25T15:37	10	73	1.4	71	75	467	0.6	466	468	25.7	36.5
2025-08-25T15:38	10	72	0.3	71	72	467	0.5	466	468	25.9	35.5
2025-08-25T15:39	10	70	2.5	65	72	467	0.3	466	468	26.0	33.7
2025-08-25T15:40	10	62	1.9	59	65	466	0.4	465	467	26.1	34.8
2025-08-25T15:41	10	54	2.4	51	58	463	1.5	461	466	26.2	34.4
2025-08-25T15:42	10	51	0.2	50	51	461	0.4	460	462	26.3	33.7
2025-08-25T15:43	10	53	1.6	51	56	461	0.4	460	461	26.3	34.3
2025-08-25T15:44	10	61	2.4	56	63	460	0.5	459	461	26.2	34.4
2025-08-25T15:45	10	64	0.6	63	65	462	0.5	461	463	26.1	34.9
2025-08-25T15:46	10	66	0.5	65	66	463	0.7	462	464	26.1	35.1
2025-08-25T15:47	10	63	1.2	62	65	464	0.2	463	465	26.2	34.8
2025-08-25T15:48	10	67	1.3	65	69	465	0.6	464	466	26.3	35.1
2025-08-25T15:49	10	71	1.0	69	72	466	0.6	465	467	26.2	35.0
2025-08-25T15:50	10	71	0.6	70	72	467	0.3	466	467	26.3	35.2
2025-08-25T15:51	10	71	1.1	69	73	467	0.3	466	467	26.3	34.8
2025-08-25T15:52	10	74	0.9	72	75	467	0.7	466	468	26.3	35.2
2025-08-25T15:53	10	72	0.6	71	73	465	0.8	464	467	26.1	34.5
2025-08-25T15:54	10	72	1.1	71	75	465	0.3	464	465	25.9	35.0
2025-08-25T15:55	10	76	0.3	75	77	464	1.0	462	465	25.9	35.0
2025-08-25T15:56	10	73	1.5	71	76	463	0.4	463	464	25.8	34.6
2025-08-25T15:57	10	71	1.6	68	74	464	0.8	462	465	25.9	34.8
2025-08-25T15:58	10	65	2.0	61	68	465	0.5	463	466	26.0	35.2
2025-08-25T15:59	10	60	0.9	58	61	463	0.4	462	464	26.1	35.6
2025-08-25T16:00	10	55	1.4	53	58	461	1.1	459	463	26.1	37.0
2025-08-25T16:01	10	53	0.6	52	54	459	0.6	458	460	25.8	37.6
2025-08-25T16:02	10	54	0.6	53	55	459	0.7	458	460	25.8	37.5
2025-08-25T16:03	10	56	1.4	55	59	459	0.4	459	460	25.9	37.0
2025-08-25T16:04	10	63	2.1	59	67	461	0.9	460	463	25.9	37.8
2025-08-25T16:05	10	67	0.9	66	69	463	0.4	462	464	26.1	38.0
2025-08-25T16:06	10	69	0.7	68	70	462	0.4	461	463	26.0	38.6
2025-08-25T16:07	10	65	4.6	55	70	462	0.5	460	463	25.8	39.4
2025-08-25T16:08	10	54	1.7	51	56	460	0.3	460	461	25.9	38.8
2025-08-25T16:09	10	62	3.5	57	67	461	0.6	459	462	26.0	38.1
2025-08-25T16:10	10	66	0.5	66	68	462	0.5	461	463	26.1	36.0
2025-08-25T16:11	10	67	0.6	66	68	463	0.3	462	463	26.0	35.8
2025-08-25T16:12	10	68	0.7	67	69	462	0.3	461	463	26.0	35.9
2025-08-25T16:13	10	68	0.6	67	69	462	0.3	461	463	26.0	36.2
2025-08-25T16:14	10	64	1.3	62	67	462	0.3	461	462	26.1	35.9
2025-08-25T16:15	10	61	0.6	60	63	461	0.7	459	462	26.1	36.1
2025-08-25T16:16	10	60	0.4	59	61	459	0.5	457	460	26.0	36.3
2025-08-25T16:17	10	61	1.2	59	63	459	0.3	458	459	25.9	36.8
2025-08-25T16:18	10	63	0.4	63	64	459	0.4	458	460	26.0	36.9
2025-08-25T16:19	10	61	1.2	58	62	460	0.4	459	461	26.1	36.9
2025-08-25T16:20	10	53	3.3	48	58	459	0.6	458	460	26.2	37.0
2025-08-25T16:21	10	44	2.2	40	48	457	1.2	454	459	26.2	37.7
2025-08-25T16:22	10	37	1.4	35	40	453	1.1	451	455	26.0	38.5
2025-08-25T16:23	10	35	0.3	34	36	452	0.5	450	452	25.9	39.0
2025-08-25T16:24	10	36	0.7	35	37	450	0.2	450	451	25.8	38.9
2025-08-25T16:25	10	38	0.7	37	40	450	0.2	450	451	25.7	39.0
2025-08-25T16:26	10	44	3.6	40	51	451	0.9	449	453	25.7	38.9
2025-08-25T16:27	10	58	3.5	52	65	455	1.5	452	458	25.7	39.3
2025-08-25T16:28	10	68	1.2	65	69	459	0.9	457	460	25.9	40.0
2025-08-25T16:29	10	68	1.0	66	69	459	0.4	458	460	26.0	40.2
2025-08-25T16:30	10	64	1.1	62	66	459	0.2	459	460	26.0	39.4
2025-08-25T16:31	10	60	1.5	57	62	459	0.4	458	460	25.9	39.3
2025-08-25T16:32	10	56	0.9	54	57	457	0.4	456	458	26.0	39.7
2025-08-25T16:33	10	56	1.5	54	59	457	0.3	457	458	26.0	39.2
2025-08-25T16:34	10	61	0.7	59	62	457	0.4	456	458	25.9	39.0
2025-08-25T16:35	10	56	2.6	52	61	456	0.8	454	457	25.8	39.0
2025-08-25T16:36	10	51	0.6	51	53	455	0.3	454	455	25.7	39.4
2025-08-25T16:37	10	52	0.3	51	52	454	0.6	453	455	25.8	39.4
2025-08-25T16:38	10	53	1.5	51	56	454	0.6	453	455	25.8	39.1
2025-08-25T16:39	10	57	0.4	56	58	455	0.4	454	455	25.8	39.5
2025-08-25T16:40	10	56	0.5	55	57	454	0.4	453	455	25.8	39.2
2025-08-25T16:41	10	55	0.6	54	56	454	0.3	453	455	25.8	38.8
2025-08-25T16:42	10	54	0.5	53	55	454	0.4	453	455	25.8	38.5
2025-08-25T16:43	10	52	0.4	52	53	454	0.4	454	455	25.9	37.7
2025-08-25T16:44	10	51	0.8	49	52	454	0.3	453	454	26.0	37.9
2025-08-25T16:45	10	48	0.8	46	49	453	0.4	452	454	25.9	38.3
2025-08-25T16:46	10	43	1.5	41	46	451	0.8	450	453	26.0	38.3
2025-08-25T16:47	10	40	0.5	39	41	450	0.4	449	451	26.0	38.0
2025-08-25T16:48	10	40	0.3	39	40	449	0.3	448	450	25.9	37.7
2025-08-25T16:49	10	38	1.2	36	40	449	0.5	448	450	26.0	38.2
2025-08-25T16:50	10	40	2.6	36	45	448	0.4	447	449	26.0	38.0
2025-08-25T16:51	10	49	2.1	45	52	450	0.7	449	452	26.0	38.0
2025-08-25T16:52	10	51	0.6	50	52	451	0.4	450	452	26.0	38.1
2025-08-25T16:53	10	52	1.2	50	54	451	0.3	451	452	26.0	38.1
2025-08-25T16:54	10	56	1.0	54	57	452	0.3	452	453	26.0	38.4
2025-08-25T16:55	10	56	1.6	52	57	452	0.2	452	453	26.1	38.0
2025-08-25T16:56	10	52	0.2	52	53	451	0.6	450	452	26.1	37.1
2025-08-25T16:57	10	50	1.6	47	53	449	0.6	448	450	26.0	37.1
2025-08-25T16:58	10	45	1.4	43	47	448	0.4	447	449	25.9	36.8
2025-08-25T16:59	10	44	1.0	43	46	448	0.2	447	449	26.0	37.0
2025-08-25T17:00	10	46	0.2	46	47	449	0.3	448	449	26.0	37.3
2025-08-25T17:01	10	47	0.6	46	49	448	0.3	448	449	25.9	37.8
2025-08-25T17:02	10	48	0.2	47	48	448	0.3	448	449	25.9	38.2
2025-08-25T17:03	10	46	0.8	45	48	448	0.4	447	449	25.9	37.8
2025-08-25T17:04	10	45	0.1	45	45	448	0.2	447	448	25.9	39.0
2025-08-25T17:05	10	46	0.4	45	46	447	0.5	446	448	25.8	39.5
2025-08-25T17:06	10	46	0.6	45	47	447	0.3	446	448	25.8	40.8
2025-08-25T17:07	10	44	0.4	43	45	445	1.0	444	447	25.4	44.2
2025-08-25T17:08	10	44	0.5	43	45	443	0.4	443	445	25.1	45.3
2025-08-25T17:09	10	45	0.2	45	46	444	0.2	443	444	25.0	46.1
2025-08-25T17:10	10	46	0.8	45	48	443	0.3	443	444	25.0	47.9
2025-08-25T17:11	10	50	1.0	48	51	443	0.4	442	444	24.9	48.2
2025-08-25T17:12	10	50	0.5	49	51	443	0.3	443	444	24.9	48.2
2025-08-25T17:13	10	48	0.7	47	50	444	0.4	443	444	24.9	48.5
2025-08-25T17:14	10	47	0.5	46	47	443	0.3	442	443	24.9	47.9
2025-08-25T17:15	10	45	0.6	44	46	442	0.2	442	443	24.9	47.8
2025-08-25T17:16	10	43	0.4	43	44	442	0.3	441	443	24.9	48.3
2025-08-25T17:17	10	42	0.4	41	43	441	0.3	441	442	24.8	47.8
2025-08-25T17:18	10	40	0.5	40	41	441	0.3	440	441	24.8	47.8
2025-08-25T17:19	10	39	0.7	37	40	440	0.3	439	441	24.8	47.0
2025-08-25T17:20	10	36	0.5	36	38	440	0.3	439	440	24.8	46.9
2025-08-25T17:21	10	37	0.8	36	38	439	0.3	439	440	24.9	47.0
2025-08-25T17:22	10	40	1.0	38	41	439	0.3	438	440	24.8	46.8
2025-08-25T17:23	10	41	0.3	41	42	439	0.4	438	440	24.8	46.6
2025-08-25T17:24	10	40	0.7	39	41	439	0.3	439	440	24.9	46.3
2025-08-25T17:25	10	38	0.5	37	39	439	0.3	438	439	24.8	46.5
2025-08-25T17:26	10	36	0.8	35	37	438	0.2	438	439	24.8	46.7
2025-08-25T17:27	10	34	0.6	33	35	438	0.4	437	438	24.8	46.9
2025-08-25T17:28	10	32	0.7	30	33	437	0.3	436	437	24.8	46.5
2025-08-25T17:29	10	29	0.7	28	30	436	0.3	435	436	24.7	46.3
2025-08-25T17:30	10	27	0.5	26	28	435	0.3	435	436	24.7	46.1
2025-08-25T17:31	10	25	0.6	24	26	434	0.3	434	435	24.7	45.7
2025-08-25T17:32	10	23	0.8	21	24	434	0.2	433	434	24.7	45.3
2025-08-25T17:33	10	20	0.7	19	22	433	0.3	432	434	24.7	45.9
2025-08-25T17:34	10	19	0.1	19	19	432	0.3	432	433	24.6	46.1
2025-08-25T17:35	10	19	0.1	18	19	431	0.3	431	432	24.6	46.6
2025-08-25T17:36	10	18	0.4	17	19	431	0.2	430	431	24.5	46.7
2025-08-25T17:37	10	16	0.7	15	17	430	0.3	430	431	24.5	46.4
2025-08-25T17:38	10	14	0.6	13	15	429	0.3	429	430	24.5	46.2
2025-08-25T17:39	10	13	0.4	12	13	428	0.3	428	429	24.5	46.9
2025-08-25T17:40	10	12	0.3	11	12	428	0.3	427	428	24.3	47.7
2025-08-25T17:41	10	10	0.3	10	11	427	0.3	426	427	24.2	48.1
2025-08-25T17:42	10	10	0.2	9	10	426	0.2	426	427	24.1	49.0
2025-08-25T17:43	10	9	0.2	9	9	425	0.3	424	426	24.0	49.5
2025-08-25T17:44	10	9	0.2	8	9	425	0.2	424	425	23.9	49.6
2025-08-25T17:45	10	8	0.1	8	9	424	0.3	423	425	23.9	49.3
2025-08-25T17:46	10	8	0.1	8	8	424	0.2	423	424	23.9	48.8
2025-08-25T17:47	10	7	0.1	7	8	423	0.2	423	424	23.9	48.4
2025-08-25T17:48	10	7	0.1	7	7	423	0.2	422	423	23.9	48.0
2025-08-25T17:49	10	7	0.1	7	7	422	0.2	422	423	23.9	47.5
2025-08-25T17:50	10	7	0.1	7	7	422	0.3	421	423	23.9	47.7
2025-08-25T17:51	10	7	0.1	6	7	421	0.2	421	422	23.9	48.0
2025-08-25T17:52	10	6	0.2	6	7	421	0.3	421	422	23.8	47.9
2025-08-25T17:53	10	6	0.1	6	7	421	0.3	420	421	23.9	47.4
2025-08-25T17:54	10	6	0.2	6	7	420	0.3	420	421	23.9	47.4
2025-08-25T17:55	10	7	0.4	6	8	420	0.2	419	420	23.8	47.3
2025-08-25T17:56	10	9	0.7	8	10	420	0.3	419	420	23.8	47.6
2025-08-25T17:57	10	11	0.7	10	13	419	0.3	418	420	23.8	48.4
2025-08-25T17:58	10	13	0.2	12	13	419	0.2	418	419	23.7	49.0
2025-08-25T17:59	10	13	0.2	12	13	419	0.2	418	419	23.6	50.0
2025-08-25T18:00	10	12	0.2	12	12	418	0.3	417	419	23.5	50.2
2025-08-25T18:01	10	12	0.2	11	12	418	0.2	418	418	23.4	50.7
2025-08-25T18:02	10	11	0.2	11	11	417	0.2	417	418	23.3	51.0
2025-08-25T18:03	10	10	0.3	10	11	417	0.2	417	418	23.3	50.8
2025-08-25T18:04	10	9	0.4	8	10	417	0.2	417	417	23.3	51.5
2025-08-25T18:05	10	8	0.2	7	8	417	0.2	416	417	23.3	51.9
2025-08-25T18:06	10	7	0.1	7	8	416	0.2	416	417	23.3	52.4
2025-08-25T18:07	10	7	0.1	7	7	416	0.3	415	416	23.3	53.1
2025-08-25T18:08	10	6	0.3	6	7	415	0.2	414	415	23.2	53.8
2025-08-25T18:09	10	5	0.4	5	6	415	0.3	414	415	23.1	54.0
2025-08-25T18:10	10	4	0.3	4	5	414	0.3	413	415	23.1	54.0
2025-08-25T18:11	10	4	0.2	3	4	414	0.2	414	415	23.1	54.6
2025-08-25T18:12	10	3	0.2	3	4	413	0.2	413	414	23.0	55.3
2025-08-25T18:13	10	3	0.2	3	4	413	0.3	413	414	22.9	55.7
2025-08-25T18:14	10	3	0.2	2	4	413	0.3	412	413	22.9	56.0
2025-08-25T18:15	10	3	0.2	2	3	412	0.3	412	413	22.9	55.8
2025-08-25T18:16	10	3	0.1	2	3	412	0.2	411	412	22.8	55.7
2025-08-25T18:17	10	2	0.1	2	3	411	0.2	411	412	22.8	55.6
2025-08-25T18:18	10	2	0.1	2	3	411	0.2	410	411	22.8	55.5
2025-08-25T18:19	10	2	0.1	2	2	410	0.2	409	410	22.7	55.4
2025-08-25T18:20	10	2	0.1	2	2	410	0.2	409	410	22.8	54.8
2025-08-25T18:21	10	2	0.1	2	3	409	0.3	409	410	22.8	54.8
2025-08-25T18:22	10	2	0.1	2	2	409	0.2	408	409	22.7	55.6
2025-08-25T18:23	10	2	0.1	2	2	408	0.2	408	409	22.5	56.3
2025-08-25T18:24	10	2	0.1	1	2	408	0.2	408	409	22.4	56.6
2025-08-25T18:25	10	1	0.1	1	2	408	0.2	408	409	22.4	57.6
2025-08-25T18:26	10	1	0.1	1	2	408	0.2	408	409	22.4	58.2
2025-08-25T18:27	10	1	0.1	1	1	408	0.2	408	409	22.4	58.7
2025-08-25T18:28	10	1	0.1	1	1	408	0.2	408	409	22.3	58.8
2025-08-25T18:29	10	1	0.1	1	1	408	0.3	407	409	22.3	58.8
2025-08-25T18:30	10	1	0.1	1	1	408	0.2	407	408	22.2	59.0
2025-08-25T18:31	10	1	0.1	1	1	407	0.3	406	408	22.2	59.5
2025-08-25T18:32	10	1	0.1	0	1	407	0.2	406	407	22.2	60.0
2025-08-25T18:33	10	1	0.1	0	1	406	0.2	406	407	22.1	60.0
2025-08-25T18:34	10	1	0.1	0	1	406	0.3	406	407	22.1	58.9
2025-08-25T18:35	10	0	0.1	0	1	406	0.3	406	407	22.1	58.5
2025-08-25T18:36	10	0	0.1	0	0	406	0.3	405	407	22.2	57.9
2025-08-25T18:37	10	0	0.0	0	0	406	0.3	405	406	22.3	57.5
2025-08-25T18:38	10	0	0.0	0	0	406	0.2	405	406	22.3	57.6
2025-08-25T18:39	10	0	0.1	0	0	406	0.2	405	406	22.3	57.7
2025-08-25T18:40	10	0	0.1	0	0	405	0.2	405	406	22.2	57.8
2025-08-25T18:41	10	0	0.0	0	0	405	0.2	405	406	22.4	57.2
2025-08-25T18:42	10	0	0.1	0	1	405	0.2	405	406	22.4	57.1
2025-08-25T18:43	10	0	0.1	0	0	406	0.2	405	406	22.5	56.6
2025-08-25T18:44	10	0	0.1	0	0	405	0.3	404	406	22.5	56.1
2025-08-25T18:45	10	0	0.1	0	0	405	0.2	405	406	22.5	56.0
2025-08-25T18:46	10	0	0.2	0	1	405	0.3	404	406	22.5	56.0
2025-08-25T18:47	10	0	0.2	0	1	404	0.3	404	405	22.5	55.9
2025-08-25T18:48	10	0	0.2	0	1	403	0.5	403	404	22.5	55.9
2025-08-25T18:49	10	0	0.2	0	1	402	0.4	402	404	22.3	57.2
2025-08-25T18:50	10	0	0.1	0	1	402	0.3	401	402	22.0	58.8
2025-08-25T18:51	10	0	0.1	0	0	401	0.4	400	402	21.8	59.7
2025-08-25T18:52	10	0	0.1	0	0	400	0.2	400	401	21.5	62.3
2025-08-25T18:53	10	0	0.1	0	0	401	0.3	400	401	21.1	63.8
2025-08-25T18:54	10	0	0.1	0	0	400	0.2	400	401	21.1	62.8
2025-08-25T18:55	10	0	0.1	0	0	400	0.3	399	400	21.2	61.8
2025-08-25T18:56	10	0	0.1	0	0	400	0.4	399	401	21.4	60.4
2025-08-25T18:57	10	0	0.1	0	0	399	0.3	398	400	21.5	60.3
2025-08-25T18:58	10	0	0.1	0	0	398	0.2	398	399	21.4	61.5
2025-08-25T18:59	10	0	0.1	0	0	398	0.3	397	398	21.2	62.8
2025-08-25T19:00	10	0	0.1	0	0	398	0.3	397	399	21.1	63.0
2025-08-25T19:01	10	0	0.1	0	0	398	0.3	398	399	21.1	62.9
2025-08-25T19:02	10	0	0.1	0	0	399	0.4	398	400	21.0	63.2
2025-08-25T19:03	10	0	0.1	0	0	400	0.5	399	401	20.9	63.9
2025-08-25T19:04	10	0	0.1	0	0	401	0.3	400	401	20.9	64.0
2025-08-25T19:05	10	0	0.1	0	0	400	0.2	400	401	20.8	64.5
2025-08-25T19:06	10	0	0.1	0	0	399	0.3	399	400	20.9	63.6
2025-08-25T19:07	10	0	0.1	0	0	399	0.2	399	400	20.9	63.1
2025-08-25T19:08	10	0	0.1	0	0	400	0.4	399	400	20.9	63.2
2025-08-25T19:09	10	0	0.1	0	0	399	0.5	398	400	20.9	63.8
2025-08-25T19:10	10	0	0.1	0	0	399	0.3	398	400	20.6	65.0
2025-08-25T19:11	10	0	0.1	0	0	398	0.3	397	399	20.5	65.6
2025-08-25T19:12	10	0	0.1	0	0	398	0.3	397	399	20.4	65.8
2025-08-25T19:13	10	0	0.1	0	0	397	0.3	396	398	20.4	65.8
2025-08-25T19:14	10	0	0.1	0	0	397	0.3	396	398	20.3	66.4
2025-08-25T19:15	10	0	0.1	0	0	397	0.2	396	397	20.4	64.7
2025-08-25T19:16	10	0	0.1	0	0	396	0.2	396	397	20.4	64.3
2025-08-25T19:17	10	0	0.1	0	0	396	0.2	396	397	20.4	64.9
2025-08-25T19:18	10	0	0.1	0	0	396	0.3	396	397	20.3	65.4
2025-08-25T19:19	10	0	0.1	0	0	396	0.3	396	397	20.4	64.7
2025-08-25T19:20	10	0	0.1	0	0	397	0.6	396	399	20.5	63.6
2025-08-25T19:21	10	0	0.1	-1	0	398	0.6	397	400	20.7	61.3
2025-08-25T19:22	10	0	0.1	0	0	399	0.3	398	399	20.9	60.7
2025-08-25T19:23	10	0	0.2	0	0	397	0.6	396	399	20.5	66.0
2025-08-25T19:24	10	0	0.2	0	1	397	0.4	396	397	20.2	66.8
2025-08-25T19:25	10	0	0.2	0	1	396	0.3	395	397	20.1	67.5
2025-08-25T19:26	10	0	0.1	0	0	396	0.3	395	397	19.9	68.1
2025-08-25T19:27	10	0	0.2	0	1	396	0.3	395	397	20.0	67.0
2025-08-25T19:28	10	0	0.1	0	0	396	0.4	395	397	20.1	65.5
2025-08-25T19:29	10	0	0.2	-1	1	396	0.3	395	397	20.2	64.8
2025-08-25T19:30	10	0	0.1	0	0	396	0.4	395	397	20.3	64.2
2025-08-25T19:31	10	0	0.1	0	0	397	0.4	397	398	20.4	63.8
2025-08-25T19:32	10	0	0.1	0	0	397	0.7	396	398	20.4	63.4
2025-08-25T19:33	10	0	0.0	0	0	397	0.4	396	398	20.5	63.0
2025-08-25T19:34	10	0	0.1	0	0	397	0.3	397	398	20.7	62.1
2025-08-25T19:35	10	0	0.1	0	0	396	0.6	395	397	20.8	62.1
2025-08-25T19:36	10	0	0.1	0	0	395	0.2	395	396	20.6	62.8
2025-08-25T19:37	10	0	0.0	0	0	396	0.2	395	396	20.6	63.0
2025-08-25T19:38	10	0	0.0	0	0	395	0.5	394	396	20.4	64.8
2025-08-25T19:39	10	0	0.1	0	0	395	0.2	394	396	20.0	66.9
2025-08-25T19:40	10	0	0.1	0	0	396	0.3	395	396	20.0	66.8
2025-08-25T19:41	10	0	0.1	0	0	395	0.3	395	396	20.0	66.3
2025-08-25T19:42	10	0	0.1	0	0	395	0.2	394	395	20.0	66.7
2025-08-25T19:43	10	0	0.1	0	0	394	0.4	393	395	19.9	67.2
2025-08-25T19:44	10	0	0.1	0	0	394	0.3	393	394	19.8	68.1
2025-08-25T19:45	10	0	0.1	0	0	393	0.2	392	394	19.7	68.7
2025-08-25T19:46	10	0	0.1	0	0	392	0.4	391	393	19.3	71.4
2025-08-25T19:47	10	0	0.1	0	0	393	0.4	392	394	19.0	72.4
2025-08-25T19:48	10	0	0.1	0	0	393	0.2	393	394	19.1	71.3
2025-08-25T19:49	10	0	0.1	0	0	393	0.2	392	393	19.1	71.8
2025-08-25T19:50	10	0	0.1	0	0	393	0.3	392	394	18.9	72.4
2025-08-25T19:51	10	0	0.1	0	0	393	0.3	392	393	18.8	73.1
2025-08-25T19:52	10	0	0.1	0	0	394	1.0	392	395	18.8	72.9
2025-08-25T19:53	10	0	0.1	0	0	395	0.5	394	396	19.4	68.1
2025-08-25T19:54	10	0	0.1	0	0	395	0.3	395	396	19.7	67.2
2025-08-25T19:55	10	0	0.1	0	0	394	0.3	393	395	19.8	66.5
2025-08-25T19:56	10	0	0.0	0	0	393	0.4	392	394	19.8	66.7
2025-08-25T19:57	10	0	0.1	0	0	392	0.4	392	393	19.6	68.2
2025-08-25T19:58	10	0	0.1	0	0	392	0.3	392	393	19.3	69.9
2025-08-25T19:59	10	0	0.1	0	0	394	0.7	393	396	18.9	70.9
2025-08-25T20:00	10	0	0.1	0	0	393	0.3	393	394	18.8	72.4
2025-08-25T20:01	10	0	0.1	0	0	393	0.2	393	393	18.7	72.2
2025-08-25T20:02	10	0	0.1	0	0	392	0.5	391	393	18.9	69.7
2025-08-25T20:03	10	0	0.1	0	0	390	0.4	390	391	18.7	71.7
2025-08-25T20:04	10	0	0.1	0	0	391	1.0	389	393	18.8	69.1
2025-08-25T20:05	10	0	0.1	0	0	392	0.3	391	392	19.5	64.5
2025-08-25T20:06	10	0	0.1	0	0	392	0.4	391	393	19.8	62.6
2025-08-25T20:07	10	0	0.1	0	0	392	0.3	392	393	20.0	61.5
2025-08-25T20:08	10	0	0.1	0	0	392	0.3	391	393	20.0	61.2
2025-08-25T20:09	10	0	0.1	0	1	392	0.3	391	393	20.0	61.3
2025-08-25T20:10	10	0	0.2	0	1	392	0.3	391	393	19.8	63.0
2025-08-25T20:11	10	0	0.2	0	1	393	0.3	392	393	19.8	62.5
2025-08-25T20:12	10	0	0.2	0	1	394	0.4	393	394	19.9	62.0
2025-08-25T20:13	10	0	0.1	0	1	394	0.4	393	395	19.8	62.6
2025-08-25T20:14	10	0	0.1	0	1	393	0.5	392	394	19.5	64.1
2025-08-25T20:15	10	0	0.1	0	1	392	0.3	392	393	19.4	64.8
2025-08-25T20:16	10	0	0.1	0	1	392	0.4	391	393	19.4	65.3
2025-08-25T20:17	10	0	0.1	0	0	391	0.3	391	392	19.2	65.9
2025-08-25T20:18	10	0	0.1	0	0	391	0.3	390	392	19.3	65.2
2025-08-25T20:19	10	0	0.0	0	0	391	0.3	390	392	19.2	65.7
2025-08-25T20:20	10	0	0.1	0	0	391	0.3	391	392	19.3	64.8
2025-08-25T20:21	10	0	0.1	0	0	390	0.3	390	391	19.4	64.4
2025-08-25T20:22	10	0	0.1	0	0	390	0.3	390	391	19.5	63.7
2025-08-25T20:23	10	0	0.1	0	0	390	0.2	389	391	19.5	63.8
2025-08-25T20:24	10	0	0.1	0	0	390	0.4	389	391	19.3	64.4
2025-08-25T20:25	10	0	0.1	0	0	390	0.3	389	390	19.3	64.7
2025-08-25T20:26	10	0	0.1	0	0	390	0.2	389	390	19.3	64.7
2025-08-25T20:27	10	0	0.1	0	0	389	0.3	388	390	19.1	65.4
2025-08-25T20:28	10	0	0.1	0	0	390	0.2	389	390	19.0	65.9
2025-08-25T20:29	10	0	0.1	0	0	390	0.3	389	390	18.9	66.5
2025-08-25T20:30	10	0	0.1	0	0	390	0.3	389	390	18.9	66.3
2025-08-25T20:31	10	0	0.1	0	0	390	0.4	389	390	19.0	65.6
2025-08-25T20:32	10	0	0.1	0	0	389	0.5	388	390	19.0	65.5
2025-08-25T20:33	10	0	0.1	0	0	387	0.4	387	388	18.8	67.4
2025-08-25T20:34	10	0	0.1	0	0	387	0.3	386	387	18.5	68.8
2025-08-25T20:35	10	0	0.1	0	0	387	0.2	386	387	18.6	67.8
2025-08-25T20:36	10	0	0.1	0	0	387	0.3	386	387	18.7	66.8
2025-08-25T20:37	10	0	0.1	0	0	388	0.5	387	388	18.7	66.4
2025-08-25T20:38	10	0	0.1	0	0	388	0.3	388	389	18.7	66.5
2025-08-25T20:39	10	0	0.1	0	0	389	0.4	388	390	18.6	67.2
2025-08-25T20:40	10	0	0.1	0	0	390	0.3	389	391	18.6	67.1
2025-08-25T20:41	10	0	0.1	0	0	390	0.4	389	391	18.7	66.5
2025-08-25T20:42	10	0	0.1	0	0	391	0.2	390	391	18.7	66.3
2025-08-25T20:43	10	0	0.1	0	0	390	0.4	390	391	18.6	66.8
2025-08-25T20:44	10	0	0.1	0	0	390	0.3	389	391	18.5	67.4
2025-08-25T20:45	10	0	0.1	0	0	390	0.2	390	391	18.4	67.5
2025-08-25T20:46	10	0	0.1	0	0	390	0.2	390	391	18.4	65.2
2025-08-25T20:47	10	0	0.1	0	0	391	0.3	390	391	18.2	65.2
2025-08-25T20:48	10	0	0.1	0	0	390	0.2	390	391	18.4	65.2
2025-08-25T20:49	10	0	0.1	0	0	390	0.2	390	391	18.4	67.4
2025-08-25T20:50	10	0	0.1	0	0	389	0.5	388	391	18.4	67.4
2025-08-25T20:51	10	0	0.1	0	0	388	0.3	388	389	18.4	67.4
2025-08-25T20:52	10	0	0.1	0	0	387	0.6	385	388	18.4	67.4
2025-08-25T20:53	10	0	0.1	0	0	386	0.4	385	386	18.2	68.6
2025-08-25T20:54	10	0	0.1	0	0	386	0.4	385	387	17.5	72.2
2025-08-25T20:55	10	0	0.1	0	0	386	0.3	385	386	17.5	72.6
2025-08-25T20:56	10	0	0.1	0	0	385	0.3	384	386	17.3	73.3
2025-08-25T20:57	10	0	0.1	0	0	384	0.3	384	385	17.3	73.2
2025-08-25T20:58	10	0	0.1	0	0	384	0.3	383	385	17.4	72.9
2025-08-25T20:59	10	0	0.1	0	0	384	0.4	383	385	17.4	73.4
2025-08-25T21:00	10	0	0.1	0	0	384	0.3	383	385	17.3	73.3
2025-08-25T21:01	10	0	0.1	0	0	384	0.3	383	384	17.4	72.9
2025-08-25T21:02	10	0	0.0	0	0	384	0.2	383	384	17.4	72.8
2025-08-25T21:03	10	0	0.1	0	0	384	0.3	384	385	17.4	72.6
2025-08-25T21:04	10	0	0.1	0	0	385	0.5	384	386	17.5	71.0
2025-08-25T21:05	10	0	0.1	0	0	385	0.3	384	385	17.7	70.0
2025-08-25T21:06	10	0	0.1	0	0	386	0.4	385	387	17.9	68.7
2025-08-25T21:07	10	0	0.1	0	0	386	0.3	386	387	17.9	68.4
2025-08-25T21:08	10	0	0.1	0	0	387	0.2	386	387	17.9	68.1
2025-08-25T21:09	10	0	0.0	0	0	387	0.2	387	388	18.0	67.5
2025-08-25T21:10	10	0	0.1	0	0	387	0.4	386	388	18.0	67.3
2025-08-25T21:11	10	0	0.1	0	0	388	0.3	387	388	18.0	67.0
2025-08-25T21:12	10	0	0.1	0	0	388	0.3	387	388	18.1	66.8
2025-08-25T21:13	10	0	0.1	0	0	388	0.2	387	388	18.2	66.0
2025-08-25T21:14	10	0	0.2	0	1	387	0.4	386	388	18.1	66.8
2025-08-25T21:15	10	0	0.1	0	0	386	0.3	385	387	18.0	67.4
2025-08-25T21:16	10	0	0.1	0	0	386	0.4	385	387	17.9	67.7
2025-08-25T21:17	10	0	0.1	0	0	385	0.4	384	385	17.9	67.9
2025-08-25T21:18	10	0	0.1	0	0	385	0.5	384	386	17.8	68.7
2025-08-25T21:19	10	0	0.2	0	1	385	0.3	385	386	17.8	68.2
2025-08-25T21:20	10	0	0.2	0	1	384	0.5	384	385	17.7	70.1
2025-08-25T21:21	10	0	0.2	0	0	384	0.3	383	385	17.4	71.9
2025-08-25T21:22	10	0	0.2	0	0	384	0.3	383	384	17.3	71.4
2025-08-25T21:23	10	0	0.2	0	1	383	0.3	382	383	17.2	72.2
2025-08-25T21:24	10	0	0.2	0	0	383	0.3	382	383	17.1	72.7
2025-08-25T21:25	10	0	0.2	0	1	382	0.3	381	383	17.0	73.2
2025-08-25T21:26	10	0	0.1	0	1	381	0.2	381	382	17.0	73.5
2025-08-25T21:27	10	0	0.1	0	0	381	0.2	381	382	17.0	73.6
2025-08-25T21:28	10	0	0.1	0	0	381	0.3	381	382	16.9	73.7
2025-08-25T21:29	10	0	0.1	0	0	382	0.2	381	382	16.9	73.8
2025-08-25T21:30	10	0	0.1	0	0	382	0.3	381	382	17.0	73.2
2025-08-25T21:31	10	0	0.1	0	0	382	0.2	381	382	17.0	73.1
2025-08-25T21:32	10	0	0.1	0	0	381	0.2	381	382	17.1	72.8
2025-08-25T21:33	10	0	0.1	0	0	381	0.3	380	381	17.1	72.6
2025-08-25T21:34	10	0	0.1	0	0	380	0.2	380	381	17.0	73.3
2025-08-25T21:35	10	0	0.1	0	0	380	0.2	379	381	16.9	74.0
2025-08-25T21:36	10	0	0.1	0	0	380	0.3	380	381	17.0	73.3
2025-08-25T21:37	10	0	0.1	0	0	380	0.3	380	381	17.0	72.6
2025-08-25T21:38	10	0	0.0	0	0	380	0.2	379	380	17.1	72.0
2025-08-25T21:39	10	0	0.1	0	0	380	0.2	380	381	17.2	71.3
2025-08-25T21:40	10	0	0.1	0	0	380	0.3	379	380	17.3	70.4
2025-08-25T21:41	10	0	0.0	0	0	379	0.3	379	380	17.1	71.7
2025-08-25T21:42	10	0	0.1	0	0	380	0.3	379	381	17.0	71.9
2025-08-25T21:43	10	0	0.1	0	0	380	0.3	380	381	17.1	71.1
2025-08-25T21:44	10	0	0.0	0	0	381	0.2	380	381	17.1	71.0
2025-08-25T21:45	10	0	0.1	0	0	380	0.2	380	381	17.0	71.7
2025-08-25T21:46	10	0	0.0	0	0	380	0.2	380	381	16.9	72.2
2025-08-25T21:47	10	0	0.1	0	0	380	0.3	380	381	16.9	72.3
2025-08-25T21:48	10	0	0.1	0	0	380	0.3	380	381	16.9	72.3
2025-08-25T21:49	10	0	0.1	0	0	381	0.3	380	381	16.7	72.8
2025-08-25T21:50	10	0	0.1	0	0	381	0.3	380	381	16.6	73.1
2025-08-25T21:51	10	0	0.1	0	0	380	0.3	380	381	16.7	72.9
2025-08-25T21:52	10	0	0.1	0	0	380	0.4	380	381	16.8	72.5
2025-08-25T21:53	10	0	0.1	0	0	380	0.4	379	380	16.8	72.4
2025-08-25T21:54	10	0	0.1	0	0	379	0.3	378	380	16.8	72.4
2025-08-25T21:55	10	0	0.1	0	0	379	0.3	378	380	16.8	72.6
2025-08-25T21:56	10	0	0.1	0	0	379	0.2	378	379	16.8	72.5
2025-08-25T21:57	10	0	0.1	0	0	378	0.3	378	379	16.8	72.6
2025-08-25T21:58	10	0	0.1	0	0	378	0.3	378	379	16.8	72.7
2025-08-25T21:59	10	0	0.1	0	0	379	0.6	378	381	16.7	72.8
2025-08-25T22:00	10	0	0.1	0	0	382	0.6	380	382	16.8	72.7
2025-08-25T22:01	10	0	0.1	0	0	383	0.4	382	384	16.8	72.3
2025-08-25T22:02	10	0	0.1	0	0	383	0.3	382	383	16.8	72.4
2025-08-25T22:03	10	0	0.1	0	0	383	0.2	382	383	16.8	72.7
2025-08-25T22:04	10	0	0.1	0	0	383	0.5	382	384	16.8	72.5
2025-08-25T22:05	10	0	0.1	0	0	384	0.3	384	385	17.0	71.8
2025-08-25T22:06	10	0	0.1	0	0	384	0.3	383	385	17.0	71.9
2025-08-25T22:07	10	0	0.1	0	0	384	0.3	384	385	17.0	72.2
2025-08-25T22:08	10	0	0.1	0	0	384	0.3	383	384	16.9	72.6
2025-08-25T22:09	10	0	0.1	0	0	383	0.3	383	384	16.8	73.3
2025-08-25T22:10	10	0	0.1	0	0	383	0.2	382	383	16.8	73.5
2025-08-25T22:11	10	0	0.1	0	0	383	0.3	382	383	16.7	73.6
2025-08-25T22:12	10	0	0.1	0	0	382	0.4	381	383	16.7	73.5
2025-08-25T22:13	10	0	0.1	0	0	382	0.2	381	382	16.7	73.3
2025-08-25T22:14	10	0	0.1	0	0	382	0.3	381	382	16.8	72.9
2025-08-25T22:15	10	0	0.1	0	0	381	0.2	381	382	16.7	73.2
2025-08-25T22:16	10	0	0.1	0	0	381	0.2	380	381	16.8	72.8
2025-08-25T22:17	10	0	0.1	0	0	380	0.2	380	381	16.8	72.8
2025-08-25T22:18	10	0	0.1	0	0	381	0.2	380	381	16.8	72.9
2025-08-25T22:19	10	0	0.1	0	0	381	0.2	380	381	16.8	72.7
2025-08-25T22:20	10	0	0.1	0	0	380	0.2	380	381	16.8	73.0
2025-08-25T22:21	10	0	0.1	0	0	380	0.2	380	381	16.8	72.9
2025-08-25T22:22	10	0	0.0	0	0	380	0.3	379	381	16.8	73.2
2025-08-25T22:23	10	0	0.0	0	0	379	0.4	378	380	16.7	73.6
2025-08-25T22:24	10	0	0.1	0	0	378	0.4	378	379	16.5	74.4
2025-08-25T22:25	10	0	0.1	0	0	378	0.2	378	379	16.5	74.8
2025-08-25T22:26	10	0	0.1	0	0	378	0.2	378	378	16.6	74.1
2025-08-25T22:27	10	0	0.1	0	0	378	0.2	378	379	16.7	73.6
2025-08-25T22:28	10	0	0.1	0	0	378	0.3	377	378	16.6	74.0
2025-08-25T22:29	10	0	0.1	0	0	378	0.3	377	378	16.5	74.8
2025-08-25T22:30	10	0	0.1	0	0	378	0.4	378	379	16.4	75.1
2025-08-25T22:31	10	0	0.0	0	0	379	0.4	378	380	16.5	74.7
2025-08-25T22:32	10	0	0.1	0	0	380	0.2	379	380	16.6	73.9
2025-08-25T22:33	10	0	0.1	0	0	380	0.2	380	380	16.6	74.0
2025-08-25T22:34	10	0	0.1	0	0	380	0.2	379	381	16.7	73.7
2025-08-25T22:35	10	0	0.0	0	0	379	0.7	377	380	16.6	73.9
2025-08-25T22:36	10	0	0.1	0	0	380	0.5	378	380	16.5	74.1
2025-08-25T22:37	10	0	0.1	0	0	380	0.2	379	380	16.6	73.9
2025-08-25T22:38	10	0	0.0	0	0	380	0.3	379	380	16.8	73.0
2025-08-25T22:39	10	0	0.0	0	0	379	0.4	378	380	16.8	72.5
2025-08-25T22:40	10	0	0.0	0	0	379	0.3	379	380	16.8	72.7
2025-08-25T22:41	10	0	0.1	0	0	379	0.3	379	380	16.8	72.5
2025-08-25T22:42	10	0	0.1	0	0	379	0.2	379	380	16.8	72.5
2025-08-25T22:43	10	0	0.1	0	0	379	0.2	379	380	16.7	73.3
2025-08-25T22:44	10	0	0.1	0	0	379	0.4	379	380	16.7	72.7
2025-08-25T22:45	10	0	0.1	0	0	379	0.2	378	379	16.8	72.7
2025-08-25T22:46	10	0	0.1	0	0	378	0.5	377	378	16.8	72.3
2025-08-25T22:47	10	0	0.1	0	0	376	0.6	375	377	16.6	73.3
2025-08-25T22:48	10	0	0.1	0	0	375	0.3	375	376	16.4	74.3
2025-08-25T22:49	10	0	0.1	0	0	375	0.4	374	376	16.3	74.9
2025-08-25T22:50	10	0	0.1	0	0	375	0.3	374	376	16.2	75.4
2025-08-25T22:51	10	0	0.1	0	0	374	0.2	373	374	16.3	75.0
2025-08-25T22:52	10	0	0.1	0	0	374	0.3	373	374	16.1	75.9
2025-08-25T22:53	10	0	0.1	0	0	374	0.3	373	374	16.0	75.9
2025-08-25T22:54	10	0	0.1	0	0	374	0.4	373	375	16.0	75.7
2025-08-25T22:55	10	0	0.1	0	0	375	0.2	374	375	16.1	75.0
2025-08-25T22:56	10	0	0.2	0	0	374	0.4	373	375	16.1	74.9
2025-08-25T22:57	10	0	0.1	0	0	373	0.2	372	374	16.1	75.2
2025-08-25T22:58	10	0	0.1	-1	0	373	0.2	373	374	16.0	75.7
2025-08-25T22:59	10	0	0.2	-1	0	373	0.2	372	373	15.9	76.2
2025-08-25T23:00	10	0	0.1	0	0	373	0.3	372	373	15.9	76.4
2025-08-25T23:01	10	0	0.1	0	0	373	0.3	372	374	15.9	76.0
2025-08-25T23:02	10	0	0.1	0	0	373	0.3	373	374	15.9	76.1
2025-08-25T23:03	10	0	0.1	0	0	374	0.2	373	374	15.9	76.2
2025-08-25T23:04	10	0	0.2	0	0	374	0.3	373	374	15.8	76.6
2025-08-25T23:05	10	0	0.1	0	0	374	0.4	373	375	15.8	76.4
2025-08-25T23:06	10	0	0.2	0	0	374	0.3	374	374	15.8	76.5
2025-08-25T23:07	10	0	0.1	0	0	374	0.3	373	375	15.8	76.6
2025-08-25T23:08	10	0	0.1	0	0	375	0.3	374	375	15.8	76.2
2025-08-25T23:09	10	0	0.1	0	0	375	0.4	374	376	15.9	74.9
2025-08-25T23:10	10	0	0.1	0	0	375	0.3	374	376	15.6	75.9
2025-08-25T23:11	10	0	0.1	0	0	374	0.3	374	375	15.3	77.4
2025-08-25T23:12	10	0	0.1	0	0	374	0.3	373	375	15.3	77.4
2025-08-25T23:13	10	0	0.2	-1	0	374	0.3	373	375	15.4	76.6
2025-08-25T23:14	10	0	0.1	0	0	374	0.3	373	375	15.5	76.2
2025-08-25T23:15	10	0	0.1	0	0	373	0.2	373	374	15.5	76.6
2025-08-25T23:16	10	0	0.1	0	0	373	0.2	373	374	15.5	76.4
2025-08-25T23:17	10	0	0.1	0	0	373	0.3	372	374	15.6	76.4
2025-08-25T23:18	10	0	0.1	0	0	372	0.3	372	373	15.5	77.1
2025-08-25T23:19	10	0	0.1	0	0	373	0.4	372	374	15.5	76.9
2025-08-25T23:20	10	0	0.1	0	0	373	0.3	373	374	15.6	76.8
2025-08-25T23:21	10	0	0.1	0	0	374	0.2	373	374	15.6	76.7
2025-08-25T23:22	10	0	0.1	0	1	374	0.2	373	374	15.6	76.7
2025-08-25T23:23	10	0	0.1	0	0	374	0.3	373	374	15.7	76.5
2025-08-25T23:24	10	0	0.0	0	0	374	0.2	373	374	15.8	76.2
2025-08-25T23:25	10	0	0.0	0	0	373	0.2	373	374	15.8	76.2
2025-08-25T23:26	10	0	0.1	0	0	374	0.2	373	374	15.7	76.5
2025-08-25T23:27	10	0	0.1	0	0	374	0.2	373	374	15.6	77.0
2025-08-25T23:28	10	0	0.0	0	0	374	0.3	373	375	15.5	77.4
2025-08-25T23:29	10	0	0.0	0	0	374	0.2	373	374	15.5	77.5
2025-08-25T23:30	10	0	0.1	0	0	374	0.2	373	374	15.4	78.0
2025-08-25T23:31	10	0	0.1	0	0	374	0.3	373	374	15.4	77.8
2025-08-25T23:32	10	0	0.0	0	0	373	0.3	372	374	15.4	77.6
2025-08-25T23:33	10	0	0.1	0	0	372	0.3	371	373	15.4	77.9
2025-08-25T23:34	10	0	0.1	0	0	372	0.2	371	372	15.4	77.8
2025-08-25T23:35	10	0	0.1	0	0	372	0.3	371	372	15.5	77.6
2025-08-25T23:36	10	0	0.1	0	0	372	0.3	372	373	15.4	77.6
2025-08-25T23:37	10	0	0.1	0	0	372	0.3	372	373	15.3	78.1
2025-08-25T23:38	10	0	0.1	0	0	372	0.2	371	373	15.4	77.7
2025-08-25T23:39	10	0	0.0	0	0	372	0.3	372	373	15.4	77.5
2025-08-25T23:40	10	0	0.1	0	0	372	0.3	372	373	15.4	77.3
2025-08-25T23:41	10	0	0.1	0	0	372	0.2	372	372	15.4	77.6
2025-08-25T23:42	10	0	0.0	0	0	372	0.2	371	372	15.4	77.7
2025-08-25T23:43	10	0	0.1	0	0	372	0.2	372	373	15.4	77.7
2025-08-25T23:44	10	0	0.1	0	0	372	0.3	372	373	15.4	77.4
2025-08-25T23:45	10	0	0.1	0	0	373	0.3	372	373	15.5	77.3
2025-08-25T23:46	10	0	0.0	0	0	373	0.2	373	374	15.5	77.1
2025-08-25T23:47	10	0	0.0	0	0	373	0.3	373	374	15.5	77.3
2025-08-25T23:48	10	0	0.0	0	0	372	0.4	372	373	15.3	77.8
2025-08-25T23:49	10	0	0.0	0	0	372	0.3	371	372	15.3	78.2
2025-08-25T23:50	10	0	0.1	0	0	372	0.3	371	372	15.3	77.9
2025-08-25T23:51	10	0	0.0	0	0	371	0.2	371	372	15.5	77.2
2025-08-25T23:52	10	0	0.1	0	0	371	0.2	371	372	15.5	77.2
2025-08-25T23:53	10	0	0.1	0	0	371	0.3	371	372	15.5	77.0
2025-08-25T23:54	10	0	0.1	0	0	371	0.3	370	372	15.4	77.3
2025-08-25T23:55	10	0	0.1	0	0	371	0.3	371	372	15.4	77.4
2025-08-25T23:56	10	0	0.1	0	0	371	0.2	370	371	15.4	77.5
2025-08-25T23:57	10	0	0.1	0	0	370	0.2	370	371	15.4	77.2
2025-08-25T23:58	10	0	0.1	0	0	371	0.3	370	371	15.4	77.2
2025-08-25T23:59	10	0	0.1	0	0	371	0.2	370	371	15.4	76.7
2025-08-26T00:00	10	0	0.1	0	0	371	0.3	370	371	15.5	76.3
2025-08-26T00:01	10	0	0.1	0	0	371	0.2	370	371	15.6	76.1
2025-08-26T00:02	10	0	0.1	0	0	371	0.6	370	372	15.6	75.5
2025-08-26T00:03	10	0	0.1	0	0	373	0.4	372	373	15.7	75.6
2025-08-26T00:04	10	0	0.1	0	0	373	0.2	373	374	15.7	75.5
2025-08-26T00:05	10	0	0.1	0	0	373	0.3	372	374	15.7	75.1
2025-08-26T00:06	10	0	0.1	0	0	373	0.2	372	374	15.6	75.8
2025-08-26T00:07	10	0	0.1	0	0	373	0.3	372	373	15.6	75.4
2025-08-26T00:08	10	0	0.1	0	0	373	0.2	372	373	15.6	75.3
2025-08-26T00:09	10	0	0.1	0	0	372	0.2	372	373	15.7	74.9
2025-08-26T00:10	10	0	0.1	0	0	373	0.2	372	373	15.6	75.4
2025-08-26T00:11	10	0	0.1	0	0	372	0.4	371	372	15.5	76.1
2025-08-26T00:12	10	0	0.1	0	0	372	0.4	371	372	15.3	77.7
2025-08-26T00:13	10	0	0.1	0	0	372	0.2	371	372	15.3	77.9
2025-08-26T00:14	10	0	0.1	0	0	371	0.3	371	372	15.2	79.1
2025-08-26T00:15	10	0	0.1	0	0	371	0.2	371	372	15.1	78.9
2025-08-26T00:16	10	0	0.1	0	0	371	0.3	370	371	15.1	79.1
2025-08-26T00:17	10	0	0.1	0	0	370	0.2	370	371	15.2	78.8
2025-08-26T00:18	10	0	0.1	0	0	370	0.2	370	371	15.2	78.4
2025-08-26T00:19	10	0	0.1	0	0	370	0.2	369	370	15.3	78.1
2025-08-26T00:20	10	0	0.1	0	0	369	0.2	369	370	15.3	78.1
2025-08-26T00:21	10	0	0.1	0	0	369	0.2	369	370	15.2	78.3
2025-08-26T00:22	10	0	0.1	0	0	369	0.2	368	369	15.2	78.4
2025-08-26T00:23	10	0	0.1	0	0	369	0.3	368	369	15.2	78.5
2025-08-26T00:24	10	0	0.1	0	0	369	0.2	368	369	15.2	78.3
2025-08-26T00:25	10	0	0.1	0	0	369	0.2	368	369	15.2	78.9
2025-08-26T00:26	10	0	0.1	0	0	369	0.2	368	369	15.1	79.1
2025-08-26T00:27	10	0	0.1	0	0	369	0.4	368	369	14.9	80.6
2025-08-26T00:28	10	0	0.1	0	0	369	0.4	369	370	14.8	81.7
2025-08-26T00:29	10	0	0.1	0	0	370	0.2	369	370	14.7	82.5
2025-08-26T00:30	10	0	0.1	0	0	370	0.2	369	370	14.4	83.5
2025-08-26T00:31	10	0	0.1	0	0	370	0.2	369	370	14.3	84.4
2025-08-26T00:32	10	0	0.1	0	0	369	0.3	368	370	14.2	85.2
2025-08-26T00:33	10	0	0.1	0	0	369	0.4	368	370	14.0	85.9
2025-08-26T00:34	10	0	0.1	0	0	370	0.5	369	371	14.1	86.5
2025-08-26T00:35	10	0	0.1	0	0	371	0.3	370	371	14.1	86.4
2025-08-26T00:36	10	0	0.1	0	0	371	0.2	370	371	14.1	86.2
2025-08-26T00:37	10	0	0.1	0	0	370	0.2	369	370	14.2	85.7
2025-08-26T00:38	10	0	0.1	0	0	370	0.2	369	370	14.3	85.6
2025-08-26T00:39	10	0	0.1	0	0	369	0.2	369	370	14.3	85.2
2025-08-26T00:40	10	0	0.1	0	0	369	0.3	368	369	14.4	85.5
2025-08-26T00:41	10	0	0.1	0	0	369	0.2	369	369	14.4	85.7
2025-08-26T00:42	10	0	0.1	0	0	369	0.3	368	369	14.2	86.4
2025-08-26T00:43	10	0	0.1	0	0	368	0.3	368	369	14.1	86.8
2025-08-26T00:44	10	0	0.1	0	0	369	0.4	368	370	14.2	86.3
2025-08-26T00:45	10	0	0.1	0	0	370	0.3	369	370	14.1	85.4
2025-08-26T00:46	10	0	0.1	0	0	370	0.3	369	370	14.1	85.7
2025-08-26T00:47	10	0	0.1	0	0	369	0.2	369	370	14.0	86.5
2025-08-26T00:48	10	0	0.1	0	0	369	0.3	368	369	13.9	87.0
2025-08-26T00:49	10	0	0.1	0	0	369	0.2	368	369	13.9	87.0
2025-08-26T00:50	10	0	0.1	0	0	368	0.3	367	369	13.8	87.6
2025-08-26T00:51	10	0	0.1	0	0	367	0.2	367	368	13.7	87.8
2025-08-26T00:52	10	0	0.1	0	0	367	0.2	367	368	13.6	87.8
2025-08-26T00:53	10	0	0.1	0	0	367	0.2	366	367	13.6	88.1
2025-08-26T00:54	10	0	0.1	0	0	367	0.2	366	367	13.6	88.1
2025-08-26T00:55	10	0	0.1	0	0	366	0.3	366	367	13.6	88.2
2025-08-26T00:56	10	0	0.1	0	0	366	0.2	365	366	13.6	88.2
2025-08-26T00:57	10	0	0.1	0	0	365	0.2	365	366	13.6	88.3
2025-08-26T00:58	10	0	0.1	0	0	365	0.2	365	366	13.6	88.4
2025-08-26T00:59	10	0	0.1	0	0	366	0.4	365	367	13.7	88.4
2025-08-26T01:00	10	0	0.1	0	0	366	0.3	366	367	13.9	88.5
2025-08-26T01:01	10	0	0.1	0	0	366	0.3	366	367	14.0	88.3
2025-08-26T01:02	10	0	0.1	0	0	366	0.3	366	367	13.9	87.5
2025-08-26T01:03	10	0	0.0	0	0	366	0.2	366	366	13.9	87.5
2025-08-26T01:04	10	0	0.1	0	0	366	0.3	366	367	13.9	87.7
2025-08-26T01:05	10	0	0.1	0	0	367	0.2	366	367	13.9	87.9
2025-08-26T01:06	10	0	0.1	0	0	367	0.3	366	367	13.9	88.4
2025-08-26T01:07	10	0	0.1	0	0	366	0.3	366	367	13.8	88.6
2025-08-26T01:08	10	0	0.1	0	0	366	0.3	365	366	13.7	88.8
2025-08-26T01:09	10	0	0.1	0	0	365	0.2	365	366	13.6	89.2
2025-08-26T01:10	10	0	0.1	0	0	365	0.3	364	365	13.5	89.4
2025-08-26T01:11	10	0	0.0	0	0	364	0.2	364	365	13.5	89.8
2025-08-26T01:12	10	0	0.1	0	0	364	0.2	364	365	13.4	89.8
2025-08-26T01:13	10	0	0.1	0	0	364	0.2	363	364	13.4	89.8
2025-08-26T01:14	10	0	0.1	0	0	364	0.2	364	364	13.4	89.9
2025-08-26T01:15	10	0	0.1	0	1	364	0.3	364	365	13.3	90.0
2025-08-26T01:16	10	0	0.1	0	0	364	0.2	364	365	13.3	90.3
2025-08-26T01:17	10	0	0.1	0	0	364	0.2	363	364	13.3	90.4
2025-08-26T01:18	10	0	0.1	0	1	364	0.3	363	365	13.3	90.4
2025-08-26T01:19	10	0	0.1	0	0	364	0.4	363	365	13.2	90.5
2025-08-26T01:20	10	0	0.1	0	0	365	0.3	364	365	13.2	90.6
2025-08-26T01:21	10	0	0.1	0	0	365	0.2	365	365	13.2	90.9
2025-08-26T01:22	10	0	0.1	-1	0	365	0.3	364	366	13.2	91.0
2025-08-26T01:23	10	0	0.1	0	0	365	0.2	365	366	13.3	91.2
2025-08-26T01:24	10	0	0.2	0	1	364	0.3	364	365	13.3	91.1
2025-08-26T01:25	10	0	0.2	0	0	364	0.3	364	365	13.3	91.2
2025-08-26T01:26	10	0	0.1	0	0	364	0.3	363	364	13.3	91.3
2025-08-26T01:27	10	0	0.1	0	0	363	0.2	363	364	13.4	91.2
2025-08-26T01:28	10	0	0.2	0	1	363	0.2	362	364	13.4	91.1
2025-08-26T01:29	10	0	0.1	0	0	363	0.2	363	364	13.4	91.0
2025-08-26T01:30	10	0	0.2	0	1	363	0.3	362	364	13.4	90.9
2025-08-26T01:31	10	0	0.2	0	1	363	0.2	363	364	13.4	90.6
2025-08-26T01:32	10	0	0.1	0	0	363	0.3	362	364	13.3	90.4
2025-08-26T01:33	10	0	0.1	0	0	363	0.3	362	364	13.3	90.2
2025-08-26T01:34	10	0	0.2	0	1	363	0.2	363	364	13.3	90.3
2025-08-26T01:35	10	0	0.2	0	0	363	0.2	363	364	13.3	90.5
2025-08-26T01:36	10	0	0.2	0	0	363	0.3	362	364	13.3	90.1
2025-08-26T01:37	10	0	0.2	0	1	364	0.3	363	364	13.3	89.8
2025-08-26T01:38	10	0	0.2	0	0	364	0.3	363	364	13.4	89.7
2025-08-26T01:39	10	0	0.2	0	1	363	0.3	363	364	13.4	89.6
2025-08-26T01:40	10	0	0.2	0	1	363	0.3	363	364	13.4	89.6
2025-08-26T01:41	10	0	0.1	0	0	364	0.3	363	365	13.5	89.4
2025-08-26T01:42	10	0	0.1	0	1	364	0.2	363	364	13.5	89.6
2025-08-26T01:43	10	0	0.1	0	0	364	0.3	363	364	13.5	89.4
2025-08-26T01:44	10	0	0.1	0	0	364	0.2	363	364	13.5	89.1
2025-08-26T01:45	10	0	0.1	0	0	363	0.2	363	364	13.5	89.1
2025-08-26T01:46	10	0	0.1	0	0	363	0.2	363	364	13.5	89.4
2025-08-26T01:47	10	0	0.1	0	0	363	0.2	363	364	13.5	89.3
2025-08-26T01:48	10	0	0.1	0	0	363	0.2	363	364	13.4	89.4
2025-08-26T01:49	10	0	0.0	0	0	363	0.2	363	364	13.4	89.7
2025-08-26T01:50	10	0	0.0	0	0	363	0.3	363	364	13.3	90.0
2025-08-26T01:51	10	0	0.1	0	0	363	0.2	363	364	13.4	89.9
2025-08-26T01:52	10	0	0.0	0	0	364	0.2	363	364	13.5	89.6
2025-08-26T01:53	10	0	0.0	0	0	364	0.2	363	364	13.5	88.9
2025-08-26T01:54	10	0	0.0	0	0	364	0.3	364	365	13.6	88.2
2025-08-26T01:55	10	0	0.0	0	0	365	0.3	365	366	13.7	87.9
2025-08-26T01:56	10	0	0.0	0	0	365	0.2	365	366	13.7	87.7
2025-08-26T01:57	10	0	0.0	0	0	365	0.2	365	366	13.7	87.8
2025-08-26T01:58	10	0	0.1	0	0	365	0.2	364	366	13.6	88.0
2025-08-26T01:59	10	0	0.1	0	0	365	0.2	365	366	13.5	88.3
2025-08-26T02:00	10	0	0.0	0	0	365	0.3	364	365	13.4	88.8
2025-08-26T02:01	10	0	0.0	0	0	365	0.3	364	365	13.3	89.3
2025-08-26T02:02	10	0	0.0	0	0	365	0.3	364	366	13.3	89.6
2025-08-26T02:03	10	0	0.0	0	0	365	0.2	364	365	13.3	89.6
2025-08-26T02:04	10	0	0.0	0	0	365	0.3	364	365	13.3	89.6
2025-08-26T02:05	10	0	0.0	0	0	365	0.5	364	367	13.3	89.5
2025-08-26T02:06	10	0	0.0	0	0	366	0.3	366	367	13.5	89.6
2025-08-26T02:07	10	0	0.0	0	0	366	0.2	366	367	13.5	89.3
2025-08-26T02:08	10	0	0.0	0	0	366	0.2	366	367	13.5	88.7
2025-08-26T02:09	10	0	0.1	0	0	366	0.3	365	366	13.4	88.8
2025-08-26T02:10	10	0	0.0	0	0	365	0.3	365	366	13.4	88.9
2025-08-26T02:11	10	0	0.0	0	0	365	0.2	364	365	13.3	88.7
2025-08-26T02:12	10	0	0.1	0	0	365	0.3	364	365	13.2	88.9
2025-08-26T02:13	10	0	0.0	0	0	365	0.4	365	366	13.1	89.3
2025-08-26T02:14	10	0	0.0	0	0	365	0.2	365	366	13.1	89.5
2025-08-26T02:15	10	0	0.1	0	0	365	0.3	364	366	13.1	89.6
2025-08-26T02:16	10	0	0.1	0	0	364	0.2	364	365	13.0	89.8
2025-08-26T02:17	10	0	0.1	0	0	364	0.2	364	365	13.1	89.6
2025-08-26T02:18	10	0	0.0	0	0	364	0.2	363	364	13.2	89.5
2025-08-26T02:19	10	0	0.1	0	0	364	0.2	363	364	13.1	89.6
2025-08-26T02:20	10	0	0.1	0	0	363	0.2	363	364	13.1	89.8
2025-08-26T02:21	10	0	0.0	0	0	363	0.2	363	364	13.2	89.9
2025-08-26T02:22	10	0	0.1	0	0	363	0.3	363	364	13.1	89.9
2025-08-26T02:23	10	0	0.1	0	0	363	0.2	363	364	13.1	90.2
2025-08-26T02:24	10	0	0.1	0	0	363	0.2	362	363	13.1	90.4
2025-08-26T02:25	10	0	0.0	0	0	363	0.3	362	363	13.1	90.7
2025-08-26T02:26	10	0	0.0	0	0	363	0.2	362	363	13.0	90.7
2025-08-26T02:27	10	0	0.1	0	0	363	0.2	362	363	13.0	91.1
2025-08-26T02:28	10	0	0.1	0	0	362	0.4	361	363	13.0	91.3
2025-08-26T02:29	10	0	0.1	0	0	361	0.4	360	362	12.9	91.0
2025-08-26T02:30	10	0	0.1	0	0	360	0.3	360	361	12.7	90.9
2025-08-26T02:31	10	0	0.1	0	0	360	0.3	360	361	12.7	91.4
2025-08-26T02:32	10	0	0.1	0	0	360	0.3	360	361	12.9	91.9
2025-08-26T02:33	10	0	0.1	0	0	360	0.2	360	361	12.9	91.4
2025-08-26T02:34	10	0	0.1	0	0	360	0.2	360	361	12.9	91.0
2025-08-26T02:35	10	0	0.1	0	0	360	0.3	360	361	13.0	90.7
2025-08-26T02:36	10	0	0.1	0	0	360	0.3	359	360	13.0	90.5
2025-08-26T02:37	10	0	0.1	0	0	360	0.3	359	360	12.9	90.6
2025-08-26T02:38	10	0	0.1	0	0	360	0.2	359	360	12.8	91.0
2025-08-26T02:39	10	0	0.1	0	0	360	0.3	359	360	12.7	91.3
2025-08-26T02:40	10	0	0.1	0	0	360	0.2	359	360	12.6	91.6
2025-08-26T02:41	10	0	0.1	0	0	360	0.2	359	360	12.7	91.7
2025-08-26T02:42	10	0	0.1	0	0	360	0.2	360	361	12.9	91.4
2025-08-26T02:43	10	0	0.1	0	0	360	0.3	360	361	12.9	90.9
2025-08-26T02:44	10	0	0.1	0	0	361	0.2	360	361	13.0	90.7
2025-08-26T02:45	10	0	0.1	0	0	360	0.2	360	361	13.0	90.6
2025-08-26T02:46	10	0	0.1	0	0	360	0.2	360	361	13.0	90.5
2025-08-26T02:47	10	0	0.1	0	0	360	0.3	359	361	13.1	90.4
2025-08-26T02:48	10	0	0.1	0	0	360	0.3	359	360	13.1	90.3
2025-08-26T02:49	10	0	0.1	0	0	360	0.3	359	361	13.1	90.1
2025-08-26T02:50	10	0	0.1	0	0	360	0.2	360	361	13.0	90.2
2025-08-26T02:51	10	0	0.1	0	0	361	0.3	360	361	12.9	90.1
2025-08-26T02:52	10	0	0.1	0	0	361	0.3	360	362	12.9	90.7
2025-08-26T02:53	10	0	0.1	0	0	362	0.3	361	362	12.8	90.4
2025-08-26T02:54	10	0	0.1	0	0	362	0.3	362	363	12.8	90.8
2025-08-26T02:55	10	0	0.1	0	0	362	0.2	362	363	12.8	91.6
2025-08-26T02:56	10	0	0.1	0	0	363	0.2	362	363	12.7	91.9
2025-08-26T02:57	10	0	0.1	0	0	363	0.3	363	364	12.6	91.5
2025-08-26T02:58	10	0	0.1	0	0	364	0.3	363	364	12.6	91.4
2025-08-26T02:59	10	0	0.1	0	0	363	0.2	363	364	12.7	91.3
2025-08-26T03:00	10	0	0.1	0	0	363	0.2	363	364	12.7	90.9
2025-08-26T03:01	10	0	0.1	0	0	363	0.2	362	363	12.8	90.9
2025-08-26T03:02	10	0	0.1	0	0	363	0.3	362	363	12.8	91.1
2025-08-26T03:03	10	0	0.1	0	0	362	0.2	362	363	12.8	91.3
2025-08-26T03:04	10	0	0.1	0	0	362	0.3	361	363	12.8	91.5
2025-08-26T03:05	10	0	0.1	0	0	362	0.4	361	363	12.7	92.0
2025-08-26T03:06	10	0	0.1	0	0	363	0.4	362	364	13.0	91.9
2025-08-26T03:07	10	0	0.1	0	0	363	0.3	362	364	13.1	91.7
2025-08-26T03:08	10	0	0.1	0	0	363	0.3	362	363	13.0	91.3
2025-08-26T03:09	10	0	0.1	0	0	362	0.5	361	363	13.0	91.1
2025-08-26T03:10	10	0	0.0	0	0	361	0.3	361	362	12.9	91.6
2025-08-26T03:11	10	0	0.1	0	0	361	0.4	360	362	12.8	92.1
2025-08-26T03:12	10	0	0.1	0	0	360	0.2	360	361	12.7	92.3
2025-08-26T03:13	10	0	0.1	0	0	360	0.3	359	361	12.7	92.1
2025-08-26T03:14	10	0	0.1	0	0	360	0.3	360	361	12.7	91.3
2025-08-26T03:15	10	0	0.1	0	0	361	0.2	360	361	12.8	90.7
2025-08-26T03:16	10	0	0.1	0	0	360	0.3	360	361	12.8	91.0
2025-08-26T03:17	10	0	0.1	0	0	360	0.2	360	361	12.8	91.2
2025-08-26T03:18	10	0	0.1	0	0	360	0.3	360	361	12.8	91.3
2025-08-26T03:19	10	0	0.0	0	0	360	0.3	360	361	12.8	90.9
2025-08-26T03:20	10	0	0.1	0	0	360	0.2	360	361	12.9	90.4
2025-08-26T03:21	10	0	0.1	0	0	360	0.2	360	361	12.9	90.3
2025-08-26T03:22	10	0	0.1	0	0	360	0.3	360	361	12.9	90.4
2025-08-26T03:23	10	0	0.1	0	0	361	0.4	360	362	12.9	90.0
2025-08-26T03:24	10	0	0.1	0	0	362	0.4	361	363	13.1	89.0
2025-08-26T03:25	10	0	0.0	0	0	362	0.2	361	362	13.3	88.7
2025-08-26T03:26	10	0	0.0	0	0	361	0.2	361	362	13.3	87.7
2025-08-26T03:27	10	0	0.0	0	0	362	0.3	361	362	13.4	86.9
2025-08-26T03:28	10	0	0.0	0	0	362	0.2	362	363	13.4	86.3
2025-08-26T03:29	10	0	0.1	0	0	363	0.2	362	363	13.4	85.9
2025-08-26T03:30	10	0	0.0	0	0	363	0.3	362	363	13.3	85.4
2025-08-26T03:31	10	0	0.0	0	0	362	0.3	361	363	13.2	84.7
2025-08-26T03:32	10	0	0.0	0	0	362	0.2	362	363	13.3	83.3
2025-08-26T03:33	10	0	0.0	0	0	363	0.3	362	363	13.3	82.4
2025-08-26T03:34	10	0	0.0	0	0	363	0.2	362	363	13.2	84.8
2025-08-26T03:35	10	0	0.0	0	0	363	0.3	362	363	13.0	88.0
2025-08-26T03:36	10	0	0.0	0	0	362	0.4	361	363	12.9	89.6
2025-08-26T03:37	10	0	0.0	0	0	361	0.4	360	362	12.7	90.4
2025-08-26T03:38	10	0	0.1	0	0	361	0.2	360	361	12.6	91.1
2025-08-26T03:39	10	0	0.1	0	0	361	0.3	360	361	12.8	91.3
2025-08-26T03:40	10	0	0.1	0	0	361	0.2	360	361	12.7	91.5
2025-08-26T03:41	10	0	0.1	0	0	361	0.3	360	361	12.8	91.3
2025-08-26T03:42	10	0	0.1	0	0	361	0.3	360	361	12.9	90.5
2025-08-26T03:43	10	0	0.1	0	0	361	0.2	360	361	12.9	90.1
2025-08-26T03:44	10	0	0.1	0	0	361	0.2	360	361	12.9	90.4
2025-08-26T03:45	10	0	0.1	0	0	360	0.3	359	361	12.7	91.1
2025-08-26T03:46	10	0	0.1	0	0	360	0.3	359	361	12.7	91.4
2025-08-26T03:47	10	0	0.1	0	0	360	0.2	359	360	12.7	91.8
2025-08-26T03:48	10	0	0.1	0	0	359	0.3	358	360	12.7	92.2
2025-08-26T03:49	10	0	0.1	0	0	359	0.2	358	359	12.7	92.3
2025-08-26T03:50	10	0	0.1	0	0	358	0.2	358	359	12.8	92.1
2025-08-26T03:51	10	0	0.1	0	0	358	0.3	357	359	12.7	92.4
2025-08-26T03:52	10	0	0.1	0	0	358	0.2	357	358	12.7	92.5
2025-08-26T03:53	10	0	0.1	0	0	358	0.3	358	359	12.8	92.4
2025-08-26T03:54	10	0	0.1	0	0	359	0.2	358	359	12.8	92.1
2025-08-26T03:55	10	0	0.1	0	0	358	0.2	358	359	12.9	90.9
2025-08-26T03:56	10	0	0.1	0	0	358	0.2	358	359	12.9	90.6
2025-08-26T03:57	10	0	0.1	0	0	359	0.3	358	359	13.0	88.9
2025-08-26T03:58	10	0	0.1	0	0	358	0.2	358	359	13.1	88.6
2025-08-26T03:59	10	0	0.1	0	0	358	0.2	357	359	13.1	88.2
2025-08-26T04:00	10	0	0.1	0	0	358	0.3	357	359	13.2	87.7
2025-08-26T04:01	10	0	0.1	0	0	359	0.2	358	359	13.2	88.1
2025-08-26T04:02	10	0	0.1	0	0	359	0.2	358	359	13.1	88.8
2025-08-26T04:03	10	0	0.1	0	0	359	0.3	359	360	13.0	89.3
2025-08-26T04:04	10	0	0.1	0	0	360	0.4	360	361	12.9	90.1
2025-08-26T04:05	10	0	0.1	0	0	360	0.2	360	361	12.9	89.6
2025-08-26T04:06	10	0	0.1	0	0	360	0.2	360	361	12.8	90.9
2025-08-26T04:07	10	0	0.0	0	0	360	0.2	360	361	12.8	90.8
2025-08-26T04:08	10	0	0.1	0	0	360	0.3	360	361	12.8	90.6
2025-08-26T04:09	10	0	0.1	0	0	360	0.2	360	361	12.8	91.0
2025-08-26T04:10	10	0	0.1	0	0	361	0.3	360	361	12.8	91.4
2025-08-26T04:11	10	0	0.1	0	0	361	0.2	360	361	12.6	92.4
2025-08-26T04:12	10	0	0.1	0	0	360	0.3	359	361	12.5	93.1
2025-08-26T04:13	10	0	0.1	0	0	360	0.2	359	360	12.5	93.2
2025-08-26T04:14	10	0	0.1	0	0	360	0.3	359	360	12.5	93.3
2025-08-26T04:15	10	0	0.1	0	0	360	0.2	359	360	12.6	93.4
2025-08-26T04:16	10	0	0.1	0	0	359	0.2	358	360	12.6	93.3
2025-08-26T04:17	10	0	0.1	0	0	359	0.2	358	359	12.6	93.2
2025-08-26T04:18	10	0	0.1	0	0	358	0.2	358	359	12.5	93.4
2025-08-26T04:19	10	0	0.1	0	0	358	0.2	358	358	12.5	93.4
2025-08-26T04:20	10	0	0.1	0	0	357	0.3	357	358	12.5	93.7
2025-08-26T04:21	10	0	0.1	0	0	357	0.2	357	358	12.4	93.9
2025-08-26T04:22	10	0	0.1	0	0	357	0.3	356	357	12.3	93.7
2025-08-26T04:23	10	0	0.1	0	0	357	0.3	356	357	12.3	93.5
2025-08-26T04:24	10	0	0.1	0	0	357	0.3	356	357	12.3	93.5
2025-08-26T04:25	10	0	0.1	0	0	357	0.2	357	358	12.4	92.7
2025-08-26T04:26	10	0	0.1	0	0	357	0.3	357	358	12.5	91.7
2025-08-26T04:27	10	0	0.1	0	0	357	0.2	357	358	12.6	91.7
2025-08-26T04:28	10	0	0.0	0	0	358	0.3	357	358	12.6	91.1
2025-08-26T04:29	10	0	0.1	0	0	358	0.3	358	359	12.5	90.7
2025-08-26T04:30	10	0	0.1	0	0	359	0.2	359	360	12.3	91.2
2025-08-26T04:31	10	0	0.0	0	0	360	0.2	359	360	12.3	91.7
2025-08-26T04:32	10	0	0.0	0	0	360	0.3	359	360	12.4	91.5
2025-08-26T04:33	10	0	0.0	0	0	360	0.3	359	360	12.4	91.5
2025-08-26T04:34	10	0	0.0	0	0	360	0.2	360	360	12.3	91.8
2025-08-26T04:35	10	0	0.0	0	0	360	0.3	359	361	12.1	92.2
2025-08-26T04:36	10	0	0.1	0	0	360	0.3	359	361	12.0	92.7
2025-08-26T04:37	10	0	0.1	0	0	361	0.2	360	361	12.2	92.5
2025-08-26T04:38	10	0	0.0	0	0	362	0.6	360	363	12.2	92.6
2025-08-26T04:39	10	0	0.1	0	0	363	0.4	362	364	12.3	91.9
2025-08-26T04:40	10	0	0.1	0	1	363	0.3	362	364	12.3	91.5
2025-08-26T04:41	10	0	0.1	0	1	363	0.3	362	363	12.3	90.8
2025-08-26T04:42	10	1	0.1	0	1	362	0.2	362	363	12.3	90.1
2025-08-26T04:43	10	1	0.1	0	1	362	0.2	362	362	12.4	89.3
2025-08-26T04:44	10	1	0.1	1	1	362	0.3	361	363	12.4	89.3
2025-08-26T04:45	10	1	0.1	1	1	362	0.2	362	363	12.4	88.7
2025-08-26T04:46	10	1	0.1	1	1	362	0.3	361	362	12.5	88.3
2025-08-26T04:47	10	1	0.1	1	1	362	0.2	361	362	12.5	87.9
2025-08-26T04:48	10	1	0.0	1	1	362	0.2	361	362	12.6	87.4
2025-08-26T04:49	10	1	0.1	1	1	361	0.3	361	362	12.7	86.6
2025-08-26T04:50	10	1	0.1	1	1	361	0.2	361	362	12.8	86.2
2025-08-26T04:51	10	1	0.1	1	1	362	0.3	361	362	12.8	85.8
2025-08-26T04:52	10	1	0.1	1	2	362	0.2	362	362	12.8	85.8
2025-08-26T04:53	10	1	0.1	1	2	362	0.2	362	363	12.9	85.2
2025-08-26T04:54	10	1	0.1	1	2	363	0.3	362	363	12.9	84.6
2025-08-26T04:55	10	2	0.1	1	2	363	0.2	362	363	12.9	84.7
2025-08-26T04:56	10	2	0.1	2	2	363	0.2	363	363	12.9	84.5
2025-08-26T04:57	10	2	0.2	2	3	363	0.3	363	364	12.9	84.7
2025-08-26T04:58	10	3	0.1	3	3	363	0.2	363	364	12.9	84.4
2025-08-26T04:59	10	3	0.1	3	3	363	0.3	363	364	12.9	84.6
2025-08-26T05:00	10	3	0.1	3	4	363	0.2	363	363	13.0	83.7
2025-08-26T05:01	10	4	0.1	3	4	363	0.2	362	363	13.1	82.3
2025-08-26T05:02	10	4	0.1	4	4	363	0.2	362	363	13.0	82.6
2025-08-26T05:03	10	5	0.2	4	5	362	0.3	362	363	13.1	81.9
2025-08-26T05:04	10	5	0.1	5	5	363	0.2	362	363	13.1	81.7
2025-08-26T05:05	10	5	0.1	5	5	362	0.2	362	363	13.1	82.1
2025-08-26T05:06	10	6	0.1	5	6	363	0.3	362	363	13.0	83.5
2025-08-26T05:07	10	6	0.1	6	6	363	0.2	362	363	12.8	85.0
2025-08-26T05:08	10	6	0.1	6	6	363	0.2	362	363	12.8	85.4
2025-08-26T05:09	10	7	0.1	6	7	362	0.3	362	363	12.7	85.6
2025-08-26T05:10	10	7	0.2	7	7	363	0.2	362	363	12.6	86.8
2025-08-26T05:11	10	7	0.2	7	8	363	0.2	362	363	12.5	87.7
2025-08-26T05:12	10	8	0.1	8	8	363	0.2	363	364	12.4	88.0
2025-08-26T05:13	10	8	0.1	8	9	364	0.3	363	364	12.4	88.3
2025-08-26T05:14	10	9	0.2	8	9	364	0.2	364	365	12.6	86.9
2025-08-26T05:15	10	9	0.2	9	9	365	0.2	364	365	12.7	86.1
2025-08-26T05:16	10	10	0.2	9	10	365	0.3	365	366	12.9	84.3
2025-08-26T05:17	10	10	0.2	10	10	365	0.2	365	366	13.1	81.7
2025-08-26T05:18	10	11	0.2	10	11	366	0.2	365	366	13.1	82.3
2025-08-26T05:19	10	11	0.2	11	11	366	0.4	365	367	13.2	81.3
2025-08-26T05:20	10	12	0.2	11	12	367	0.3	366	368	13.4	78.6
2025-08-26T05:21	10	12	0.1	12	12	367	0.3	367	368	13.5	78.3
2025-08-26T05:22	10	13	0.2	12	13	368	0.2	367	368	13.4	78.7
2025-08-26T05:23	10	13	0.2	13	14	368	0.2	367	368	13.4	79.0
2025-08-26T05:24	10	14	0.2	14	14	368	0.2	368	369	13.4	79.1
2025-08-26T05:25	10	14	0.2	14	15	368	0.2	368	369	13.5	79.3
2025-08-26T05:26	10	15	0.2	15	15	369	0.2	368	369	13.5	79.2
2025-08-26T05:27	10	15	0.2	15	16	369	0.2	369	370	13.7	78.3
2025-08-26T05:28	10	16	0.2	16	16	370	0.2	369	370	13.8	78.0
2025-08-26T05:29	10	17	0.2	16	17	370	0.3	369	370	13.7	78.5
2025-08-26T05:30	10	17	0.1	17	17	370	0.2	369	371	13.6	78.8
2025-08-26T05:31	10	18	0.2	17	18	370	0.2	370	371	13.8	78.1
2025-08-26T05:32	10	18	0.2	18	18	370	0.2	370	371	13.7	78.8
2025-08-26T05:33	10	19	0.2	18	19	371	0.3	371	372	13.6	77.6
2025-08-26T05:34	10	19	0.2	19	20	371	0.2	371	372	13.6	78.3
2025-08-26T05:35	10	20	0.2	20	20	372	0.2	371	372	13.6	80.2
2025-08-26T05:36	10	20	0.2	20	21	372	0.2	372	373	13.6	80.0
2025-08-26T05:37	10	21	0.2	21	22	373	0.3	372	373	13.6	78.3
2025-08-26T05:38	10	22	0.2	21	22	373	0.3	372	374	13.6	77.9
2025-08-26T05:39	10	22	0.2	22	23	373	0.2	373	374	13.5	78.1
2025-08-26T05:40	10	23	0.1	22	23	374	0.2	373	374	13.5	78.6
2025-08-26T05:41	10	23	0.2	23	24	374	0.2	373	374	13.5	78.6
2025-08-26T05:42	10	24	0.2	24	24	374	0.2	374	375	13.5	78.2
2025-08-26T05:43	10	25	0.3	24	25	375	0.3	374	375	13.5	79.0
2025-08-26T05:44	10	26	0.2	25	26	375	0.3	374	376	13.5	78.3
2025-08-26T05:45	10	26	0.1	26	26	376	0.3	375	376	13.5	78.7
2025-08-26T05:46	10	26	0.1	26	27	376	0.2	376	377	13.5	79.8
2025-08-26T05:47	10	27	0.2	26	27	376	0.3	376	377	13.5	79.2
2025-08-26T05:48	10	27	0.2	27	28	377	0.2	376	377	13.6	78.6
2025-08-26T05:49	10	28	0.2	28	28	377	0.2	377	377	13.5	78.7
2025-08-26T05:50	10	29	0.2	28	29	377	0.2	377	378	13.6	78.6
2025-08-26T05:51	10	29	0.2	29	29	377	0.2	377	378	13.7	78.7
2025-08-26T05:52	10	30	0.2	29	30	378	0.2	377	378	13.8	78.7
2025-08-26T05:53	10	30	0.2	30	31	378	0.3	378	379	13.7	78.0
2025-08-26T05:54	10	31	0.2	30	31	378	0.3	378	379	13.8	77.3
2025-08-26T05:55	10	31	0.2	31	32	379	0.2	378	379	13.7	77.4
2025-08-26T05:56	10	32	0.2	31	32	379	0.2	379	379	13.8	78.6
2025-08-26T05:57	10	32	0.1	32	33	379	0.3	379	380	13.8	78.2
2025-08-26T05:58	10	33	0.1	32	33	380	0.2	379	380	13.8	78.8
2025-08-26T05:59	10	33	0.2	33	33	380	0.2	379	380	13.7	80.5
2025-08-26T06:00	10	33	0.2	33	34	380	0.2	379	380	13.6	79.3
2025-08-26T06:01	10	34	0.1	34	34	380	0.2	380	380	13.6	79.2
2025-08-26T06:02	10	34	0.1	34	35	380	0.3	379	381	13.7	79.5
2025-08-26T06:03	10	35	0.1	35	35	381	0.2	380	381	13.7	80.6
2025-08-26T06:04	10	35	0.1	35	35	381	0.3	381	382	13.6	81.3
2025-08-26T06:05	10	36	0.1	35	36	382	0.2	381	382	13.7	79.6
2025-08-26T06:06	10	36	0.1	36	36	382	0.2	381	382	13.7	79.3
2025-08-26T06:07	10	36	0.2	36	37	382	0.3	381	383	13.8	78.3
2025-08-26T06:08	10	37	0.2	37	37	383	0.3	382	383	13.9	78.9
2025-08-26T06:09	10	38	0.2	37	38	383	0.2	382	384	13.9	79.7
2025-08-26T06:10	10	38	0.2	38	39	383	0.2	383	384	13.9	79.8
2025-08-26T06:11	10	39	0.2	39	39	384	0.3	383	385	13.9	79.4
2025-08-26T06:12	10	39	0.2	39	40	384	0.3	384	385	14.1	77.9
2025-08-26T06:13	10	40	0.2	40	40	385	0.3	384	385	14.1	78.7
2025-08-26T06:14	10	41	0.2	40	41	385	0.2	385	386	14.1	79.3
2025-08-26T06:15	10	41	0.2	41	42	386	0.2	385	386	14.2	76.6
2025-08-26T06:16	10	42	0.2	42	43	386	0.3	385	386	14.3	77.2
2025-08-26T06:17	10	43	0.2	42	43	387	0.3	386	387	14.4	76.9
2025-08-26T06:18	10	43	0.3	43	44	387	0.2	387	388	14.4	77.4
2025-08-26T06:19	10	44	0.2	44	45	387	0.3	387	388	14.5	75.9
2025-08-26T06:20	10	45	0.2	44	45	388	0.3	387	389	14.6	75.2
2025-08-26T06:21	10	45	0.2	45	46	389	0.2	388	389	14.6	73.7
2025-08-26T06:22	10	46	0.3	45	46	389	0.2	389	390	14.7	73.9
2025-08-26T06:23	10	46	0.2	46	47	390	0.2	390	391	14.8	73.7
2025-08-26T06:24	10	47	0.3	47	48	390	0.3	390	391	14.9	72.2
2025-08-26T06:25	10	48	0.2	47	48	391	0.2	390	391	14.9	70.7
2025-08-26T06:26	10	48	0.2	48	49	390	0.2	390	391	15.0	68.0
2025-08-26T06:27	10	49	0.2	48	49	391	0.2	390	391	15.1	68.9
2025-08-26T06:28	10	49	0.2	49	50	391	0.3	391	392	15.1	69.9
2025-08-26T06:29	10	50	0.2	50	50	391	0.2	391	392	15.1	68.6
2025-08-26T06:30	10	50	0.2	50	51	391	0.3	391	392	15.1	68.7
2025-08-26T06:31	10	51	0.2	51	51	392	0.2	391	392	15.1	68.8
2025-08-26T06:32	10	51	0.2	51	52	392	0.2	392	392	15.2	68.3
2025-08-26T06:33	10	52	0.2	52	52	393	0.2	392	393	15.2	69.5
2025-08-26T06:34	10	52	0.2	52	53	393	0.2	393	393	15.2	69.2
2025-08-26T06:35	10	53	0.2	53	53	394	0.2	393	394	15.3	69.4
2025-08-26T06:36	10	54	0.2	53	54	393	0.3	393	394	15.3	69.2
2025-08-26T06:37	10	54	0.2	54	55	394	0.3	394	395	15.4	67.9
2025-08-26T06:38	10	55	0.2	54	55	394	0.2	394	395	15.4	69.0
2025-08-26T06:39	10	55	0.2	55	56	395	0.2	394	395	15.4	67.5
2025-08-26T06:40	10	56	0.2	56	56	395	0.2	394	395	15.5	67.4
2025-08-26T06:41	10	56	0.2	56	57	395	0.3	395	396	15.6	67.8
2025-08-26T06:42	10	57	0.2	57	57	396	0.2	395	396	15.6	67.5
2025-08-26T06:43	10	58	0.2	57	58	396	0.4	395	397	15.6	70.1
2025-08-26T06:44	10	58	0.2	58	58	398	0.4	397	398	15.7	70.7
2025-08-26T06:45	10	59	0.3	58	59	399	0.3	398	399	15.8	71.2
2025-08-26T06:46	10	59	0.2	59	60	399	0.2	399	400	15.9	70.8
2025-08-26T06:47	10	60	0.2	59	60	400	0.3	399	401	16.2	71.4
2025-08-26T06:48	10	60	0.2	60	61	401	0.2	400	401	16.2	70.5
2025-08-26T06:49	10	61	0.2	61	61	401	0.3	400	401	16.2	69.9
2025-08-26T06:50	10	62	0.2	61	62	401	0.2	401	402	16.4	68.2
2025-08-26T06:51	10	62	0.2	62	62	402	0.3	401	402	16.4	67.6
2025-08-26T06:52	10	63	0.2	62	63	402	0.3	401	403	16.5	67.0
2025-08-26T06:53	10	63	0.2	63	64	402	0.2	402	402	16.5	65.1
2025-08-26T06:54	10	64	0.2	63	64	402	0.3	402	403	16.5	62.4
2025-08-26T06:55	10	65	0.2	64	65	403	0.3	402	404	16.6	60.9
2025-08-26T06:56	10	65	0.2	65	66	404	0.3	403	404	16.7	61.9
2025-08-26T06:57	10	66	0.2	66	66	405	0.3	404	405	16.9	63.7
2025-08-26T06:58	10	66	0.2	66	67	405	0.2	405	406	17.1	62.5
2025-08-26T06:59	10	67	0.2	67	67	406	0.3	405	406	17.3	61.6
2025-08-26T07:00	10	68	0.2	67	68	407	0.2	406	407	17.3	62.9
2025-08-26T07:01	10	68	0.2	68	69	407	0.3	407	408	17.4	62.9
2025-08-26T07:02	10	69	0.3	69	70	408	0.2	407	408	17.8	63.8
2025-08-26T07:03	10	70	0.2	70	70	408	0.3	408	409	17.7	63.2
2025-08-26T07:04	10	70	0.2	70	71	409	0.2	408	409	17.7	63.3
2025-08-26T07:05	10	71	0.2	71	72	409	0.3	408	409	17.8	62.2
2025-08-26T07:06	10	72	0.2	71	72	409	0.3	409	410	17.5	62.7
2025-08-26T07:07	10	72	0.2	72	73	410	0.2	409	411	17.5	60.4
2025-08-26T07:08	10	73	0.2	72	73	410	0.4	409	411	17.4	60.4
2025-08-26T07:09	10	73	0.2	73	74	410	0.3	410	411	17.4	59.6
2025-08-26T07:10	10	74	0.2	73	74	410	0.2	410	411	17.4	59.0
2025-08-26T07:11	10	74	0.2	74	75	411	0.2	410	411	17.4	58.8
2025-08-26T07:12	10	75	0.1	75	75	412	0.2	411	412	17.4	59.1
2025-08-26T07:13	10	75	0.2	75	76	412	0.3	412	413	17.5	58.9
2025-08-26T07:14	10	76	0.1	76	76	413	0.2	412	413	17.8	58.7
2025-08-26T07:15	10	76	0.2	76	77	413	0.2	413	414	18.0	57.9
2025-08-26T07:16	10	77	0.2	77	77	414	0.2	414	414	18.0	57.8
2025-08-26T07:17	10	77	0.2	77	78	414	0.2	414	414	18.1	57.7
2025-08-26T07:18	10	78	0.2	78	78	415	0.3	414	416	18.2	57.1
2025-08-26T07:19	10	78	0.2	78	79	416	0.2	416	416	18.3	58.2
2025-08-26T07:20	10	79	0.2	78	79	416	0.3	416	417	18.3	58.3
2025-08-26T07:21	10	79	0.2	79	80	416	0.3	415	417	18.0	58.5
2025-08-26T07:22	10	80	0.2	79	80	417	0.2	416	417	18.0	57.7
2025-08-26T07:23	10	80	0.2	80	81	417	0.2	416	417	18.2	56.9
2025-08-26T07:24	10	81	0.2	80	81	417	0.5	416	418	18.2	57.4
2025-08-26T07:25	10	81	0.1	81	81	417	0.3	416	418	17.9	58.4
2025-08-26T07:26	10	82	0.2	81	82	418	0.2	418	418	18.0	58.5
2025-08-26T07:27	10	82	0.2	82	82	419	0.2	418	419	18.4	56.9
2025-08-26T07:28	10	82	0.1	82	83	419	0.3	419	420	19.1	54.7
2025-08-26T07:29	10	83	0.1	82	83	420	0.3	419	421	19.2	54.6
2025-08-26T07:30	10	83	0.2	83	84	421	0.3	420	421	18.7	56.4
2025-08-26T07:31	10	84	0.2	83	84	421	0.3	421	422	18.6	58.5
2025-08-26T07:32	10	84	0.2	84	85	422	0.2	422	422	18.7	58.4
2025-08-26T07:33	10	85	0.1	85	85	423	0.3	422	423	18.7	57.8
2025-08-26T07:34	10	85	0.2	85	86	423	0.2	423	424	18.9	58.0
2025-08-26T07:35	10	86	0.1	85	86	423	0.3	423	424	18.9	58.0
2025-08-26T07:36	10	86	0.1	86	86	424	0.3	423	424	18.7	57.9
2025-08-26T07:37	10	87	0.2	86	87	425	0.2	424	425	18.7	58.9
2025-08-26T07:38	10	87	0.1	87	87	425	0.3	424	426	19.0	58.5
2025-08-26T07:39	10	87	0.2	87	88	426	0.3	425	426	19.2	57.5
2025-08-26T07:40	10	88	0.2	87	88	427	0.4	426	428	19.0	58.2
2025-08-26T07:41	10	88	0.2	87	89	427	0.3	426	427	18.6	59.0
2025-08-26T07:42	10	88	0.1	88	89	427	0.2	426	428	18.6	60.1
2025-08-26T07:43	10	89	0.2	88	89	427	0.5	426	428	18.6	60.1
2025-08-26T07:44	10	89	0.2	89	90	427	0.5	426	428	18.5	59.5
2025-08-26T07:45	10	90	0.2	89	90	428	0.3	427	428	18.5	59.6
2025-08-26T07:46	10	90	0.2	90	91	429	0.3	428	429	18.5	59.7
2025-08-26T07:47	10	91	0.1	91	91	429	0.3	428	429	18.5	59.8
2025-08-26T07:48	10	91	0.1	91	91	430	0.3	430	431	18.6	59.9
2025-08-26T07:49	10	91	0.1	91	92	431	0.3	430	432	18.7	59.5
2025-08-26T07:50	10	92	0.2	91	92	431	0.3	430	432	18.7	59.3
2025-08-26T07:51	10	92	0.2	92	93	431	0.9	430	432	19.0	59.3
2025-08-26T07:52	10	93	0.1	92	93	431	0.2	430	431	18.8	59.2
2025-08-26T07:53	10	93	0.1	93	93	432	0.3	431	432	18.8	59.8
2025-08-26T07:54	10	93	0.1	93	93	432	0.3	432	433	19.0	59.3
2025-08-26T07:55	10	94	0.2	93	94	433	0.3	432	434	18.8	59.2
2025-08-26T07:56	10	94	0.2	94	94	433	0.5	432	434	18.9	59.1
2025-08-26T07:57	10	94	0.1	94	95	433	0.6	432	435	18.8	60.7
2025-08-26T07:58	10	95	0.1	94	95	433	0.3	432	434	18.7	61.5
2025-08-26T07:59	10	95	0.2	95	96	434	0.5	433	435	18.8	62.2
2025-08-26T08:00	10	95	0.1	95	96	435	0.3	434	435	18.8	62.5
2025-08-26T08:01	10	96	0.1	96	96	435	0.5	434	436	18.9	62.0
2025-08-26T08:02	10	96	0.1	96	97	435	0.5	434	436	18.9	61.7
2025-08-26T08:03	10	97	0.2	97	97	436	0.5	436	437	18.9	61.2
2025-08-26T08:04	10	97	0.1	97	97	438	0.3	437	439	19.1	63.2
2025-08-26T08:05	10	97	0.2	97	98	438	0.9	436	439	19.2	63.7
2025-08-26T08:06	10	98	0.1	98	98	436	0.6	435	437	18.9	62.9
2025-08-26T08:07	10	98	0.2	98	98	437	0.5	436	438	18.9	63.3
2025-08-26T08:08	10	98	0.1	98	99	437	0.5	436	438	18.8	61.9
2025-08-26T08:09	10	99	0.1	98	99	437	0.5	437	438	18.9	62.0
2025-08-26T08:10	10	99	0.1	99	99	439	0.4	438	440	19.1	62.2
2025-08-26T08:11	10	100	1.3	99	108	440	0.4	440	441	19.4	61.8
2025-08-26T08:12	10	100	0.1	100	100	442	0.4	441	443	19.5	61.5
2025-08-26T08:13	10	100	0.1	100	100	442	0.5	441	443	19.4	61.9
2025-08-26T08:14	10	100	0.1	100	101	441	0.8	440	443	19.2	62.2
2025-08-26T08:15	10	101	0.1	100	101	441	0.5	440	443	19.1	62.4
2025-08-26T08:16	10	101	0.2	101	102	443	0.3	442	443	19.3	63.3
2025-08-26T08:17	10	102	0.1	101	102	443	0.3	442	444	19.3	62.7
2025-08-26T08:18	10	102	0.2	102	102	444	0.5	443	445	19.6	62.7
2025-08-26T08:19	10	102	0.2	102	103	444	0.4	443	444	19.5	62.3
2025-08-26T08:20	10	103	0.2	102	103	443	1.3	442	446	19.5	62.6
2025-08-26T08:21	10	103	0.2	102	103	443	0.7	442	445	19.3	63.3
2025-08-26T08:22	10	103	0.2	103	104	444	0.5	443	445	19.5	62.9
2025-08-26T08:23	10	103	0.2	103	104	445	0.3	444	446	19.4	62.5
2025-08-26T08:24	10	104	0.2	103	104	445	0.4	444	446	19.4	62.9
2025-08-26T08:25	10	104	0.2	104	105	447	0.4	446	448	19.5	63.1
2025-08-26T08:26	10	105	0.1	104	105	446	0.7	445	448	19.4	62.3
2025-08-26T08:27	10	105	0.2	104	105	444	0.6	443	446	19.2	62.4
2025-08-26T08:28	10	105	0.1	105	105	444	0.4	444	445	19.1	62.3
2025-08-26T08:29	10	105	0.2	105	106	446	0.6	444	447	19.3	62.2
2025-08-26T08:30	10	106	0.1	105	106	447	0.4	446	448	19.6	62.0
2025-08-26T08:31	10	106	0.2	106	107	448	0.4	447	449	19.8	61.7
2025-08-26T08:32	10	106	0.1	106	107	449	0.9	448	451	19.9	61.8
2025-08-26T08:33	10	106	0.1	106	107	450	0.4	449	451	19.9	62.1
2025-08-26T08:34	10	107	0.2	106	107	450	0.9	448	451	19.9	61.6
2025-08-26T08:35	10	107	0.1	107	107	448	0.3	448	449	19.6	62.1
2025-08-26T08:36	10	107	0.1	107	107	449	0.7	448	450	19.6	63.2
2025-08-26T08:37	10	107	0.1	107	107	449	0.7	449	451	19.7	62.4
2025-08-26T08:38	10	107	0.2	107	108	450	0.8	449	452	19.6	62.1
2025-08-26T08:39	10	108	0.2	108	108	452	0.8	451	453	19.7	63.0
2025-08-26T08:40	10	108	0.1	108	108	453	0.5	453	455	20.0	62.8
2025-08-26T08:41	10	109	0.2	108	109	453	0.9	452	455	20.0	61.5
2025-08-26T08:42	10	109	0.1	109	109	451	1.5	449	454	20.0	61.5
2025-08-26T08:43	10	109	0.2	109	109	451	0.6	450	453	19.8	61.6
2025-08-26T08:44	10	109	0.1	109	110	454	0.6	453	455	19.9	61.7
2025-08-26T08:45	10	110	0.1	109	110	455	0.4	454	456	19.9	61.9
2025-08-26T08:46	10	110	0.1	109	110	456	0.4	455	457	19.9	59.8
2025-08-26T08:47	10	110	0.1	110	110	453	0.8	452	455	19.5	59.8
2025-08-26T08:48	10	110	0.1	110	111	455	0.4	454	455	19.9	61.9
2025-08-26T08:49	10	111	0.1	110	111	455	0.6	454	456	19.9	61.9
2025-08-26T08:50	10	111	0.1	110	111	457	0.8	456	458	19.9	61.9
2025-08-26T08:51	10	111	0.1	111	111	458	0.3	457	459	19.9	61.9
2025-08-26T08:52	10	111	0.1	111	112	458	0.6	457	459	20.0	61.7
2025-08-26T08:53	10	112	0.1	111	112	458	0.3	457	458	20.2	61.0
2025-08-26T08:54	10	112	0.1	112	112	457	0.8	455	458	20.1	60.8
2025-08-26T08:55	10	112	0.1	112	112	457	0.7	456	458	20.1	61.3
2025-08-26T08:56	10	112	0.1	112	113	458	0.6	457	459	20.2	61.0
2025-08-26T08:57	10	113	0.1	112	113	458	0.5	457	459	20.4	60.2
2025-08-26T08:58	10	113	0.2	113	113	459	0.8	458	461	20.5	59.3
2025-08-26T08:59	10	113	0.1	113	114	461	0.6	460	463	20.9	59.9
2025-08-26T09:00	10	114	0.1	113	114	462	0.6	461	463	20.9	59.2
2025-08-26T09:01	10	114	0.1	114	114	460	1.1	458	461	20.5	60.0
2025-08-26T09:02	10	114	0.1	114	115	458	0.6	457	459	20.3	60.1
2025-08-26T09:03	10	114	0.1	114	115	459	0.9	458	461	20.4	59.7
2025-08-26T09:04	10	114	0.1	114	115	460	0.5	459	462	20.5	59.3
2025-08-26T09:05	10	115	0.2	115	115	461	0.9	459	462	20.5	58.9
2025-08-26T09:06	10	115	0.1	115	115	463	0.4	462	464	20.7	57.8
2025-08-26T09:07	10	116	0.1	115	116	462	0.3	461	463	20.7	57.4
2025-08-26T09:08	10	116	0.1	116	116	464	1.0	462	466	20.9	57.8
2025-08-26T09:09	10	116	0.2	116	117	464	0.7	463	465	21.0	56.5
2025-08-26T09:10	10	117	0.1	116	117	463	0.8	461	464	20.9	56.2
2025-08-26T09:11	10	117	0.1	116	117	463	0.4	463	464	21.0	55.5
2025-08-26T09:12	10	117	0.1	117	117	465	0.6	463	466	21.1	54.4
2025-08-26T09:13	10	117	0.1	117	117	465	0.3	465	466	21.2	53.8
2025-08-26T09:14	10	117	0.1	117	118	466	0.4	465	467	21.2	53.7
2025-08-26T09:15	10	118	0.1	118	118	467	0.8	466	469	21.3	53.5
2025-08-26T09:16	10	118	0.1	118	118	467	0.3	467	468	21.4	52.7
2025-08-26T09:17	10	118	0.1	118	119	468	0.3	467	469	21.5	53.9
2025-08-26T09:18	10	119	0.1	119	119	468	0.2	467	468	21.7	52.6
2025-08-26T09:19	10	119	0.1	119	119	469	0.3	468	470	21.9	51.8
2025-08-26T09:20	10	119	0.1	119	120	470	0.2	469	470	22.0	51.7
2025-08-26T09:21	10	119	0.1	119	120	471	0.6	470	472	22.1	52.2
2025-08-26T09:22	10	119	0.1	119	120	472	0.3	472	473	22.0	52.4
2025-08-26T09:23	10	120	0.3	120	121	473	0.6	472	474	22.0	52.5
2025-08-26T09:24	10	117	3.4	110	121	471	0.8	470	473	22.0	52.4
2025-08-26T09:25	10	120	0.1	120	121	472	0.3	471	473	22.1	52.9
2025-08-26T09:26	10	120	0.2	120	121	473	0.4	472	474	22.4	52.9
2025-08-26T09:27	10	120	0.1	120	121	474	0.9	472	475	22.6	53.4
2025-08-26T09:28	10	121	0.1	121	121	474	0.5	473	475	22.2	54.3
2025-08-26T09:29	10	121	0.1	121	121	475	0.4	475	476	22.4	55.0
2025-08-26T09:30	10	121	0.1	121	122	475	0.7	474	476	22.5	54.5
2025-08-26T09:31	10	121	0.1	121	122	474	0.5	473	475	22.1	54.2
2025-08-26T09:32	10	121	0.1	121	122	474	0.4	473	475	22.0	54.0
2025-08-26T09:33	10	121	0.1	121	122	473	0.5	472	474	21.9	53.0
2025-08-26T09:34	10	122	0.1	121	122	474	0.5	473	475	21.9	53.4
2025-08-26T09:35	10	122	0.1	122	122	474	0.5	473	475	22.0	53.4
2025-08-26T09:36	10	122	0.1	122	122	474	0.4	473	475	22.0	53.7
2025-08-26T09:37	10	122	0.1	122	123	475	0.9	474	477	22.1	52.7
2025-08-26T09:38	10	122	0.1	122	123	477	0.6	476	479	22.1	52.8
2025-08-26T09:39	10	122	0.2	122	123	477	1.0	475	479	22.5	53.0
2025-08-26T09:40	10	123	0.1	122	123	475	0.5	474	476	22.4	52.0
2025-08-26T09:41	10	123	0.1	123	123	477	0.8	476	478	22.4	50.5
2025-08-26T09:42	10	123	0.1	123	123	480	0.7	478	481	22.7	50.4
2025-08-26T09:43	10	123	0.1	123	124	481	0.7	479	482	23.0	51.4
2025-08-26T09:44	10	124	0.2	123	124	481	0.4	480	481	23.0	51.2
2025-08-26T09:45	10	124	0.1	124	124	479	0.7	477	480	22.5	53.0
2025-08-26T09:46	10	124	0.1	124	125	478	0.4	477	479	22.4	53.7
2025-08-26T09:47	10	124	0.1	124	125	478	0.6	477	480	22.4	53.8
2025-08-26T09:48	10	125	0.1	124	125	478	0.5	477	479	22.3	53.2
2025-08-26T09:49	10	125	0.1	125	125	478	0.5	477	479	22.3	52.8
2025-08-26T09:50	10	125	0.1	125	125	480	0.5	479	481	22.4	52.2
2025-08-26T09:51	10	125	0.2	125	126	480	0.4	480	481	22.5	52.1
2025-08-26T09:52	10	127	0.8	126	129	482	0.2	481	482	22.5	51.9
2025-08-26T09:53	10	119	14.5	81	129	479	1.9	476	482	22.7	51.5
2025-08-26T09:54	10	126	0.1	126	126	480	0.6	480	482	22.8	51.5
2025-08-26T09:55	10	126	0.2	126	126	483	0.9	481	484	23.0	50.8
2025-08-26T09:56	10	126	0.1	126	126	484	0.7	483	485	23.1	51.5
2025-08-26T09:57	10	126	0.1	126	126	482	0.6	481	484	23.3	50.2
2025-08-26T09:58	10	126	0.1	125	126	484	0.6	482	485	23.3	50.3
2025-08-26T09:59	10	126	0.1	126	126	481	1.0	479	483	22.8	50.7
2025-08-26T10:00	10	126	0.1	126	126	481	0.5	480	482	22.7	51.0
2025-08-26T10:01	10	127	0.2	126	127	482	0.4	481	482	22.8	50.7
2025-08-26T10:02	10	127	0.1	127	127	483	0.6	481	484	22.8	50.9
2025-08-26T10:03	10	127	0.1	127	127	485	1.0	484	487	23.1	51.2
2025-08-26T10:04	10	127	0.1	127	127	486	1.0	484	487	23.2	51.5
2025-08-26T10:05	10	127	0.1	127	127	484	0.4	483	485	23.0	51.2
2025-08-26T10:06	10	127	0.1	127	127	485	0.5	484	486	23.0	52.2
2025-08-26T10:07	10	127	0.1	127	128	485	0.4	485	487	23.0	52.3
2025-08-26T10:08	10	128	0.1	127	128	486	0.9	484	487	23.2	52.2
2025-08-26T10:09	10	128	0.1	128	128	486	0.5	485	487	23.1	51.8
2025-08-26T10:10	10	128	0.1	128	129	486	0.8	485	487	23.0	51.9
2025-08-26T10:11	10	129	0.2	128	129	487	0.5	486	488	23.3	52.3
2025-08-26T10:12	10	129	0.1	129	129	488	1.5	485	490	23.5	51.5
2025-08-26T10:13	10	129	0.2	128	129	486	0.4	485	487	23.3	51.2
2025-08-26T10:14	10	129	0.2	128	129	488	0.6	486	488	23.3	51.7
2025-08-26T10:15	10	129	0.1	129	130	489	1.3	487	491	23.4	52.3
2025-08-26T10:16	10	129	0.2	129	130	488	1.3	487	492	23.4	51.9
2025-08-26T10:17	10	128	1.5	125	130	489	0.7	488	490	23.4	52.0
2025-08-26T10:18	10	128	1.7	124	130	490	1.3	488	492	23.6	52.2
2025-08-26T10:19	10	130	0.2	129	130	491	0.9	490	493	23.9	51.9
2025-08-26T10:20	10	126	3.4	121	130	490	0.6	489	491	24.0	51.3
2025-08-26T10:21	10	130	0.2	130	131	492	0.9	490	494	24.4	51.7
2025-08-26T10:22	10	130	0.1	130	131	494	0.7	493	495	24.7	51.0
2025-08-26T10:23	10	131	0.2	130	131	492	1.5	489	494	24.5	50.3
2025-08-26T10:24	10	131	0.2	130	131	490	0.5	489	491	23.9	51.7
2025-08-26T10:25	10	130	0.2	130	131	490	2.1	486	493	24.0	51.7
2025-08-26T10:26	10	131	0.1	130	131	489	1.1	487	491	23.6	52.3
2025-08-26T10:27	10	131	0.3	130	132	489	0.7	488	491	23.7	51.8
2025-08-26T10:28	10	131	0.2	131	132	490	1.1	488	491	23.8	51.5
2025-08-26T10:29	10	132	0.2	131	132	489	0.7	488	491	23.7	50.5
2025-08-26T10:30	10	132	0.2	131	132	492	0.7	491	494	23.8	50.8
2025-08-26T10:31	10	132	0.2	132	133	494	0.6	493	495	24.2	50.7
2025-08-26T10:32	10	132	0.2	132	133	495	0.7	494	496	24.6	49.3
2025-08-26T10:33	10	129	2.8	123	132	493	0.9	491	495	24.1	49.1
2025-08-26T10:34	10	131	0.4	130	132	491	0.7	490	492	23.9	49.3
2025-08-26T10:35	10	129	2.2	123	131	490	0.7	489	492	24.0	49.9
2025-08-26T10:36	10	129	2.3	125	133	489	0.6	488	490	23.9	49.8
2025-08-26T10:37	10	131	5.9	116	136	490	1.1	489	492	24.0	49.9
2025-08-26T10:38	10	132	2.2	128	136	490	1.2	488	492	23.8	49.4
2025-08-26T10:39	10	129	4.0	122	135	492	0.8	491	493	23.9	49.3
2025-08-26T10:40	10	132	3.1	126	135	492	1.8	490	495	24.0	48.9
2025-08-26T10:41	10	134	1.1	129	135	495	0.5	494	496	24.1	48.9
2025-08-26T10:42	10	128	1.6	126	131	490	2.0	488	495	24.1	48.9
2025-08-26T10:43	10	121	3.1	117	126	490	0.6	489	491	23.9	49.5
2025-08-26T10:44	10	119	4.4	111	128	492	0.5	491	493	24.2	49.1
2025-08-26T10:45	10	128	3.5	121	134	494	0.8	492	495	24.3	48.2
2025-08-26T10:46	10	133	0.7	131	134	496	0.8	495	498	24.4	48.9
2025-08-26T10:47	10	132	2.0	125	133	496	0.9	494	498	24.4	49.8
2025-08-26T10:48	10	131	0.7	130	133	496	1.8	492	499	24.7	49.2
2025-08-26T10:49	10	127	4.0	117	132	492	0.8	491	493	24.2	48.6
2025-08-26T10:50	10	110	5.2	103	118	491	2.7	487	494	24.3	49.5
2025-08-26T10:51	10	107	5.3	98	118	487	0.8	486	489	24.3	48.9
2025-08-26T10:52	10	129	5.6	118	138	492	1.7	489	494	24.3	49.5
2025-08-26T10:53	10	133	4.2	126	139	493	0.7	492	495	24.2	49.0
2025-08-26T10:54	10	133	4.3	125	138	497	0.9	495	498	24.6	49.2
2025-08-26T10:55	10	133	3.0	127	138	498	0.5	496	499	24.6	48.8
2025-08-26T10:56	10	131	1.7	125	133	498	0.5	497	498	24.9	48.5
2025-08-26T10:57	10	134	4.3	121	137	499	1.1	497	501	25.0	48.2
2025-08-26T10:58	10	133	1.6	131	136	496	1.6	494	499	24.5	47.8
2025-08-26T10:59	10	134	1.8	131	136	496	1.3	494	498	24.4	48.1
2025-08-26T11:00	10	136	0.4	136	137	498	0.5	498	499	24.5	48.0
2025-08-26T11:01	10	135	6.6	117	140	499	1.3	496	501	24.7	47.4
2025-08-26T11:02	10	126	5.2	117	133	497	0.5	496	498	24.8	47.5
2025-08-26T11:03	10	132	2.1	129	135	498	0.7	497	500	25.0	47.1
2025-08-26T11:04	10	135	0.7	134	137	498	0.5	497	499	24.8	47.3
2025-08-26T11:05	10	137	0.9	135	138	499	0.8	497	500	24.8	47.2
2025-08-26T11:06	10	137	0.6	135	138	500	1.1	498	502	24.8	47.1
2025-08-26T11:07	10	137	1.0	135	138	504	0.6	502	505	25.1	47.4
2025-08-26T11:08	10	136	0.7	135	137	502	2.0	499	505	25.0	46.3
2025-08-26T11:09	10	135	1.4	133	137	502	0.6	501	503	25.0	46.6
2025-08-26T11:10	10	135	0.7	134	136	504	0.8	503	506	25.3	47.2
2025-08-26T11:11	10	136	0.4	135	137	505	0.8	503	506	25.5	46.1
2025-08-26T11:12	10	138	0.3	137	138	503	1.5	500	505	25.3	46.2
2025-08-26T11:13	10	138	1.4	134	139	501	0.4	500	502	25.0	45.9
2025-08-26T11:14	10	129	10.0	110	141	501	0.8	499	502	24.9	45.7
2025-08-26T11:15	10	128	7.7	111	139	502	1.8	498	504	25.4	46.0
2025-08-26T11:16	10	134	4.6	124	139	501	0.9	500	504	25.4	44.1
2025-08-26T11:17	10	127	7.8	113	139	498	1.4	496	501	25.2	44.8
2025-08-26T11:18	10	127	2.7	122	132	499	0.8	498	500	25.2	44.8
2025-08-26T11:19	10	128	3.6	124	136	501	1.4	499	504	25.3	44.5
2025-08-26T11:20	10	129	5.8	117	135	505	1.0	502	506	25.6	44.8
2025-08-26T11:21	10	124	5.5	111	130	499	1.5	497	502	25.4	43.9
2025-08-26T11:22	10	130	0.6	128	131	499	0.9	498	500	25.2	44.3
2025-08-26T11:23	10	132	1.7	128	134	501	1.1	499	503	25.2	44.3
2025-08-26T11:24	10	136	3.0	128	139	505	1.1	503	507	25.5	44.0
2025-08-26T11:25	10	137	2.0	132	139	506	0.5	505	507	25.4	43.9
2025-08-26T11:26	10	129	14.0	101	138	504	2.2	499	507	25.7	43.9
2025-08-26T11:27	10	132	6.0	106	137	503	1.8	500	506	25.8	43.8
2025-08-26T11:28	10	136	0.7	134	137	506	0.5	505	507	25.7	44.7
2025-08-26T11:29	10	129	2.4	125	134	506	0.6	505	507	26.0	44.7
2025-08-26T11:30	10	126	6.9	108	133	505	1.2	503	507	26.0	45.0
2025-08-26T11:31	10	125	4.9	117	133	502	1.3	501	505	25.7	45.0
2025-08-26T11:32	10	137	2.0	133	140	503	2.4	501	507	25.6	45.8
2025-08-26T11:33	10	127	3.9	121	134	504	2.2	500	507	26.0	45.5
2025-08-26T11:34	10	125	4.2	116	135	502	1.2	500	504	25.8	44.9
2025-08-26T11:35	10	130	7.6	116	137	505	1.1	503	507	25.9	45.7
2025-08-26T11:36	10	133	10.6	114	142	502	1.7	498	505	25.6	45.3
2025-08-26T11:37	10	141	1.0	139	142	506	1.2	504	508	25.9	46.3
2025-08-26T11:38	10	133	10.3	108	141	507	1.5	503	509	25.9	45.7
2025-08-26T11:39	10	129	7.2	110	136	502	1.1	500	504	25.7	45.3
2025-08-26T11:40	10	135	2.2	132	138	506	1.6	503	508	25.7	46.1
2025-08-26T11:41	10	133	1.2	131	136	503	0.5	502	504	25.9	45.8
2025-08-26T11:42	10	132	1.9	129	136	501	1.0	499	503	25.6	45.9
2025-08-26T11:43	10	131	2.1	127	135	500	0.9	498	502	25.5	46.0
2025-08-26T11:44	10	134	4.2	127	140	499	0.7	498	501	25.3	45.7
2025-08-26T11:45	10	136	1.9	133	139	502	2.0	499	506	25.4	45.3
2025-08-26T11:46	10	130	3.4	121	134	503	1.2	501	505	25.7	44.9
2025-08-26T11:47	10	135	1.2	133	137	504	1.1	502	505	25.7	45.1
2025-08-26T11:48	10	122	4.3	116	133	502	0.7	500	503	25.7	45.0
2025-08-26T11:49	10	126	1.8	122	129	501	1.0	499	503	25.9	44.8
2025-08-26T11:50	10	123	4.0	115	127	498	0.9	496	500	25.8	44.2
2025-08-26T11:51	10	122	1.8	117	124	499	1.1	496	501	25.8	43.6
2025-08-26T11:52	10	122	2.6	118	127	500	0.9	499	502	25.7	44.0
2025-08-26T11:53	10	128	3.3	122	136	501	1.9	498	504	25.6	44.2
2025-08-26T11:54	10	139	2.7	135	144	505	0.8	503	507	25.8	43.3
2025-08-26T11:55	10	140	8.3	122	147	507	0.8	505	508	25.9	43.1
2025-08-26T11:56	10	134	6.9	123	144	504	0.9	503	506	25.9	43.3
2025-08-26T11:57	10	120	3.6	112	127	504	1.6	500	505	26.0	43.8
2025-08-26T11:58	10	128	4.7	122	137	501	1.1	499	504	26.0	43.8
2025-08-26T11:59	10	139	0.8	137	140	505	1.3	503	508	26.0	43.1
2025-08-26T12:00	10	141	2.2	133	143	507	0.6	506	509	26.1	43.3
2025-08-26T12:01	10	143	0.7	142	144	505	1.1	504	508	26.0	43.2
2025-08-26T12:02	10	140	0.8	139	142	509	0.6	508	510	26.2	43.0
2025-08-26T12:03	10	132	3.1	128	139	508	1.0	506	510	26.4	43.2
2025-08-26T12:04	10	125	1.8	122	129	504	3.0	500	509	26.5	41.9
2025-08-26T12:05	10	124	5.0	118	132	503	1.3	501	505	26.5	41.8
2025-08-26T12:06	10	130	3.5	124	136	504	1.4	501	506	26.5	42.1
2025-08-26T12:07	10	121	7.3	107	131	501	1.4	498	503	26.2	42.3
2025-08-26T12:08	10	120	14.8	98	138	500	2.8	497	505	26.3	42.7
2025-08-26T12:09	10	140	1.2	136	142	505	1.0	504	507	26.5	43.1
2025-08-26T12:10	10	139	2.9	132	144	506	0.9	504	507	26.3	42.8
2025-08-26T12:11	10	126	9.2	113	148	504	1.5	503	507	26.4	43.4
2025-08-26T12:12	10	154	1.9	148	156	508	1.6	505	510	26.5	43.3
2025-08-26T12:13	10	132	14.8	109	151	505	1.9	502	509	26.5	43.0
2025-08-26T12:14	10	143	5.9	135	152	506	1.2	504	508	26.5	42.4
2025-08-26T12:15	10	144	2.6	139	148	508	1.4	506	511	26.5	41.8
2025-08-26T12:16	10	136	2.3	125	139	510	0.9	509	512	26.7	42.0
2025-08-26T12:17	10	126	7.4	111	136	505	2.1	503	511	27.0	42.3
2025-08-26T12:18	10	132	10.2	107	141	505	2.3	501	509	27.0	43.2
2025-08-26T12:19	10	140	1.0	138	141	506	1.7	504	509	26.6	42.1
2025-08-26T12:20	10	142	1.6	140	145	509	2.6	505	513	26.5	42.6
2025-08-26T12:21	10	142	1.4	138	145	510	2.4	506	513	26.9	42.3
2025-08-26T12:22	10	132	20.6	95	151	505	3.4	500	511	26.5	42.7
2025-08-26T12:23	10	146	2.3	141	149	507	2.2	504	511	26.6	43.0
2025-08-26T12:24	10	150	2.5	143	152	506	1.5	504	509	26.4	43.0
2025-08-26T12:25	10	151	2.1	146	154	512	1.4	509	514	26.5	43.0
2025-08-26T12:26	10	152	2.8	149	159	511	0.8	510	514	26.6	42.1
2025-08-26T12:27	10	151	5.5	141	159	511	1.9	509	515	27.0	41.3
2025-08-26T12:28	10	124	25.3	79	145	508	2.7	501	511	27.0	41.2
2025-08-26T12:29	10	134	8.1	102	142	505	2.1	501	509	27.2	40.3
2025-08-26T12:30	10	144	8.3	133	154	506	1.4	504	508	27.1	40.0
2025-08-26T12:31	10	151	0.9	149	153	510	1.1	508	512	27.1	39.5
2025-08-26T12:32	10	148	1.4	146	150	514	1.0	511	515	27.5	39.2
2025-08-26T12:33	10	146	0.6	145	147	515	0.8	514	517	27.4	38.3
2025-08-26T12:34	10	144	1.1	142	146	514	1.0	512	516	27.5	40.1
2025-08-26T12:35	10	140	2.7	134	143	512	0.7	510	513	27.3	40.0
2025-08-26T12:36	10	131	2.8	128	135	511	1.0	509	513	27.1	40.9
2025-08-26T12:37	10	130	1.0	128	131	508	0.7	506	510	27.2	40.6
2025-08-26T12:38	10	133	0.7	131	134	507	0.8	506	508	27.1	39.9
2025-08-26T12:39	10	133	0.6	132	134	509	0.8	507	510	27.3	40.0
2025-08-26T12:40	10	130	1.0	129	132	510	0.6	508	511	27.4	39.5
2025-08-26T12:41	10	125	2.3	120	130	512	0.6	510	513	27.6	39.4
2025-08-26T12:42	10	130	1.2	126	132	514	1.0	513	516	28.0	38.5
2025-08-26T12:43	10	123	2.1	119	127	514	0.5	514	516	28.3	37.5
2025-08-26T12:44	10	126	2.0	122	129	512	2.0	509	515	28.1	36.7
2025-08-26T12:45	10	128	3.8	117	133	511	0.5	509	512	27.5	37.1
2025-08-26T12:46	10	129	3.3	124	133	513	0.8	511	514	27.8	37.4
2025-08-26T12:47	10	128	1.3	124	129	514	0.7	513	515	28.0	36.3
2025-08-26T12:48	10	126	2.1	123	130	513	1.1	511	514	28.0	36.4
2025-08-26T12:49	10	131	0.5	130	132	514	0.4	514	515	28.0	37.3
2025-08-26T12:50	10	130	2.1	125	132	510	2.4	508	514	28.0	36.2
2025-08-26T12:51	10	126	3.6	121	132	511	0.5	510	512	27.7	35.9
2025-08-26T12:52	10	128	2.5	125	132	512	0.3	512	513	27.7	36.9
2025-08-26T12:53	10	131	1.2	127	132	514	0.9	512	516	27.8	37.8
2025-08-26T12:54	10	130	1.1	126	131	515	0.4	514	516	28.0	39.3
2025-08-26T12:55	10	124	2.9	119	128	514	1.5	511	516	28.2	39.0
2025-08-26T12:56	10	127	2.7	122	131	507	2.4	504	512	27.8	38.5
2025-08-26T12:57	10	126	2.4	123	131	508	1.0	506	509	27.5	39.3
2025-08-26T12:58	10	126	1.4	124	129	509	1.1	507	511	27.5	39.0
2025-08-26T12:59	10	125	3.5	121	133	512	0.9	510	513	27.8	39.3
2025-08-26T13:00	10	129	2.8	123	133	513	0.6	511	514	27.9	37.7
2025-08-26T13:01	10	129	3.3	117	132	511	0.5	510	512	27.7	36.9
2025-08-26T13:02	10	123	5.1	115	131	511	1.0	509	513	27.9	37.4
2025-08-26T13:03	10	120	5.2	113	127	509	1.1	508	511	28.0	36.8
2025-08-26T13:04	10	128	0.9	126	130	511	0.6	510	512	27.8	37.1
2025-08-26T13:05	10	126	2.9	122	130	511	0.6	510	512	27.7	37.9
2025-08-26T13:06	10	128	1.6	125	130	510	0.9	509	512	27.7	37.4
2025-08-26T13:07	10	128	1.4	126	130	513	0.8	512	515	27.9	36.8
2025-08-26T13:08	10	124	3.4	119	129	514	0.3	514	515	28.2	36.9
2025-08-26T13:09	10	129	0.7	128	130	515	0.5	514	516	28.2	36.8
2025-08-26T13:10	10	130	0.8	129	131	516	0.4	515	517	28.4	36.7
2025-08-26T13:11	10	128	0.5	127	129	515	0.2	515	516	28.3	35.5
2025-08-26T13:12	10	127	2.2	122	129	514	0.5	513	515	28.4	35.3
2025-08-26T13:13	10	129	0.7	127	129	514	0.4	513	514	28.4	34.5
2025-08-26T13:14	10	125	1.6	122	127	512	2.3	509	515	28.7	29.8
2025-08-26T13:15	10	127	0.3	126	127	510	1.9	507	513	29.2	27.6
2025-08-26T13:16	10	125	2.0	121	127	508	1.0	505	509	29.1	27.3
2025-08-26T13:17	10	119	1.4	116	121	506	0.4	505	506	29.0	26.9
2025-08-26T13:18	10	123	1.9	119	125	505	0.5	504	506	29.0	26.6
2025-08-26T13:19	10	125	1.0	122	126	507	1.1	505	509	29.0	26.7
2025-08-26T13:20	10	127	0.7	125	128	508	0.8	507	510	28.9	27.0
2025-08-26T13:21	10	127	1.6	125	130	511	0.9	509	513	28.9	27.3
2025-08-26T13:22	10	129	1.1	127	130	513	1.0	511	514	29.3	27.4
2025-08-26T13:23	10	129	1.0	127	130	508	2.7	505	514	29.7	30.6
2025-08-26T13:24	10	124	2.2	122	128	506	1.2	504	508	29.0	30.1
2025-08-26T13:25	10	120	6.3	105	127	506	1.6	504	509	29.0	27.0
2025-08-26T13:26	10	126	2.3	119	129	508	1.3	505	509	29.1	26.6
2025-08-26T13:27	10	128	1.0	127	130	507	0.8	506	510	28.9	26.9
2025-08-26T13:28	10	128	3.0	121	131	510	0.8	509	512	29.0	27.1
2025-08-26T13:29	10	125	1.1	122	127	511	0.6	510	512	29.1	26.7
2025-08-26T13:30	10	125	3.4	119	128	512	0.6	511	513	29.0	26.5
2025-08-26T13:31	10	129	0.6	128	130	513	1.0	511	515	29.2	26.7
2025-08-26T13:32	10	128	2.0	125	130	511	0.6	510	512	29.2	26.2
2025-08-26T13:33	10	126	0.5	124	127	512	0.6	511	513	29.3	26.2
2025-08-26T13:34	10	124	2.5	119	126	513	1.2	510	515	29.5	26.5
2025-08-26T13:35	10	122	1.6	119	124	511	0.5	510	512	29.3	26.2
2025-08-26T13:36	10	113	7.5	102	125	510	1.5	508	512	29.4	26.4
2025-08-26T13:37	10	110	2.7	105	116	508	1.4	506	511	29.4	26.3
2025-08-26T13:38	10	119	0.9	117	120	508	1.0	507	510	29.3	26.2
2025-08-26T13:39	10	119	0.4	118	120	511	1.0	509	513	29.3	26.4
2025-08-26T13:40	10	117	1.2	115	122	511	2.0	508	513	29.4	26.7
2025-08-26T13:41	10	112	4.8	104	118	506	2.0	502	509	29.4	26.5
2025-08-26T13:42	10	103	3.9	98	112	501	0.8	500	503	29.1	26.6
2025-08-26T13:43	10	106	3.9	99	114	500	0.6	499	502	29.1	26.8
2025-08-26T13:44	10	95	5.4	83	105	501	0.5	501	503	28.9	26.7
2025-08-26T13:45	10	105	9.7	84	114	502	1.3	500	504	29.1	27.1
2025-08-26T13:46	10	112	1.0	110	114	505	1.2	503	507	29.4	27.0
2025-08-26T13:47	10	102	5.6	93	110	506	1.3	503	508	29.4	26.9
2025-08-26T13:48	10	112	2.8	105	118	505	0.8	503	506	29.3	26.5
2025-08-26T13:49	10	118	3.3	107	121	507	1.8	505	510	29.2	26.5
2025-08-26T13:50	10	117	3.9	107	122	508	0.5	507	509	29.2	27.0
2025-08-26T13:51	10	119	2.7	113	122	508	1.0	507	510	29.3	26.5
2025-08-26T13:52	10	108	6.6	97	118	510	0.6	509	512	29.3	26.7
2025-08-26T13:53	10	109	2.9	104	114	509	1.5	506	511	29.4	26.1
2025-08-26T13:54	10	112	2.3	107	116	508	0.9	506	509	29.4	26.4
2025-08-26T13:55	10	111	2.3	105	115	504	1.8	501	507	29.5	26.8
2025-08-26T13:56	10	110	1.5	107	114	503	0.7	502	504	29.5	26.4
2025-08-26T13:57	10	111	2.9	106	115	501	1.2	499	503	29.2	25.6
2025-08-26T13:58	10	113	2.4	108	116	505	2.2	501	509	29.2	26.2
2025-08-26T13:59	10	118	0.7	116	118	508	1.3	505	510	29.4	26.5
2025-08-26T14:00	10	112	5.2	103	118	505	0.4	504	506	29.3	25.9
2025-08-26T14:01	10	112	0.6	112	114	506	0.8	504	507	29.4	26.1
2025-08-26T14:02	10	109	1.1	107	112	507	0.6	506	508	29.4	25.2
2025-08-26T14:03	10	110	1.4	107	112	508	0.4	507	509	29.5	25.9
2025-08-26T14:04	10	109	1.6	106	111	505	2.5	501	508	29.5	25.9
2025-08-26T14:05	10	108	1.7	105	112	501	2.0	498	504	29.5	26.4
2025-08-26T14:06	10	111	0.7	110	112	499	0.6	498	500	29.3	26.0
2025-08-26T14:07	10	110	0.7	109	112	499	0.5	498	500	29.3	26.1
2025-08-26T14:08	10	108	0.5	107	110	501	1.0	499	502	29.4	26.8
2025-08-26T14:09	10	109	0.8	108	110	501	1.7	499	504	29.5	26.8
2025-08-26T14:10	10	112	1.0	110	113	503	1.5	500	504	29.4	26.3
2025-08-26T14:11	10	102	4.0	96	109	503	1.0	502	505	29.4	26.4
2025-08-26T14:12	10	98	0.9	95	100	501	0.6	500	502	29.6	26.4
2025-08-26T14:13	10	105	1.5	100	106	502	1.0	500	504	29.5	26.7
2025-08-26T14:14	10	106	1.5	103	108	502	1.0	499	504	29.6	26.9
2025-08-26T14:15	10	104	0.6	103	105	502	1.0	499	503	29.7	26.5
2025-08-26T14:16	10	99	1.9	97	103	499	0.5	498	500	29.7	25.9
2025-08-26T14:17	10	97	1.5	94	99	498	0.5	497	499	29.3	26.1
2025-08-26T14:18	10	94	2.6	90	99	501	0.6	499	502	29.4	26.3
2025-08-26T14:19	10	94	2.9	89	99	501	0.7	500	502	29.5	26.1
2025-08-26T14:20	10	99	1.8	96	102	503	0.6	501	504	29.6	26.3
2025-08-26T14:21	10	95	2.9	90	98	500	1.8	497	503	29.7	25.6
2025-08-26T14:22	10	88	1.4	85	90	495	2.0	491	498	29.9	25.5
2025-08-26T14:23	10	87	2.4	84	91	492	0.3	491	493	29.7	25.2
2025-08-26T14:24	10	92	1.7	88	94	493	0.9	491	495	29.8	25.4
2025-08-26T14:25	10	99	1.8	94	102	494	0.7	492	495	29.6	24.9
2025-08-26T14:26	10	101	1.1	97	102	496	0.4	494	496	29.5	25.1
2025-08-26T14:27	10	95	0.7	93	97	495	0.4	494	496	29.7	25.4
2025-08-26T14:28	10	90	0.7	89	92	494	0.8	493	496	29.7	25.2
2025-08-26T14:29	10	91	1.6	88	93	495	0.6	494	497	29.7	25.6
2025-08-26T14:30	10	93	1.0	91	94	494	0.7	492	495	29.7	25.9
2025-08-26T14:31	10	93	1.1	92	95	494	0.5	492	495	29.5	26.0
2025-08-26T14:32	10	94	0.9	92	95	495	1.0	493	497	29.7	26.5
2025-08-26T14:33	10	94	0.5	93	96	494	1.1	493	496	29.7	26.1
2025-08-26T14:34	10	94	0.5	94	95	494	0.6	492	495	29.5	26.2
2025-08-26T14:35	10	94	1.1	93	96	494	0.6	493	495	29.5	26.1
2025-08-26T14:36	10	93	1.8	91	97	493	0.7	491	494	29.4	26.3
2025-08-26T14:37	10	93	2.1	90	96	494	1.1	492	495	29.5	26.4
2025-08-26T14:38	10	91	0.4	91	92	492	0.4	492	493	29.6	26.0
2025-08-26T14:39	10	85	4.5	76	91	493	0.8	492	495	29.7	26.2
2025-08-26T14:40	10	89	2.6	77	90	493	1.2	491	495	29.8	26.3
2025-08-26T14:41	10	88	1.2	86	90	493	0.6	492	494	29.8	25.3
2025-08-26T14:42	10	86	0.8	84	87	493	0.8	491	494	29.8	25.2
2025-08-26T14:43	10	86	2.0	81	88	492	0.8	490	494	29.6	25.8
2025-08-26T14:44	10	84	2.4	79	87	491	0.3	491	492	29.7	25.7
2025-08-26T14:45	10	82	0.9	78	83	491	1.2	489	493	29.8	25.5
2025-08-26T14:46	10	83	2.7	77	85	490	0.6	489	491	29.6	25.9
2025-08-26T14:47	10	85	1.1	83	87	490	0.8	488	491	29.8	26.1
2025-08-26T14:48	10	83	1.2	81	86	489	0.4	488	490	29.6	25.6
2025-08-26T14:49	10	85	2.5	83	90	490	0.9	489	492	29.5	25.7
2025-08-26T14:50	10	81	5.1	73	89	490	1.2	488	492	29.6	26.1
2025-08-26T14:51	10	84	1.5	80	86	488	0.3	487	489	29.5	25.7
2025-08-26T14:52	10	81	1.6	78	83	489	1.1	487	491	29.5	25.2
2025-08-26T14:53	10	80	0.4	79	81	491	0.5	490	491	29.6	25.4
2025-08-26T14:54	10	80	1.0	78	81	490	0.7	488	491	29.7	25.3
2025-08-26T14:55	10	78	1.7	75	81	487	0.6	486	488	29.6	25.2
2025-08-26T14:56	10	73	1.6	70	75	485	1.2	484	487	29.6	25.2
2025-08-26T14:57	10	68	1.2	65	70	483	0.5	483	485	29.7	25.5
2025-08-26T14:58	10	64	1.0	62	65	482	0.6	481	483	29.7	25.4
2025-08-26T14:59	10	62	0.6	60	63	481	0.3	481	482	29.8	25.8
2025-08-26T15:00	10	61	1.6	58	63	481	0.5	479	482	29.8	25.6
2025-08-26T15:01	10	64	1.0	62	65	481	0.5	480	482	29.8	26.1
2025-08-26T15:02	10	69	1.5	65	70	483	0.5	482	484	29.8	25.5
2025-08-26T15:03	10	71	1.0	69	72	484	0.7	482	485	29.8	26.0
2025-08-26T15:04	10	67	1.8	65	71	484	0.2	484	485	29.9	25.9
2025-08-26T15:05	10	67	0.6	66	67	485	0.4	484	485	29.9	25.1
2025-08-26T15:06	10	68	0.8	66	69	483	0.6	482	484	29.8	24.7
2025-08-26T15:07	10	67	0.8	65	68	481	0.3	481	482	29.8	24.6
2025-08-26T15:08	10	64	0.9	62	65	480	0.6	479	481	29.6	24.2
2025-08-26T15:09	10	63	1.0	61	65	481	0.6	480	482	29.6	24.7
2025-08-26T15:10	10	64	2.3	61	68	482	0.5	481	483	29.6	25.7
2025-08-26T15:11	10	65	1.4	62	67	481	0.4	480	482	29.5	26.7
2025-08-26T15:12	10	68	2.0	62	70	481	0.5	480	482	29.4	27.4
2025-08-26T15:13	10	66	0.6	65	68	480	0.6	479	481	29.2	28.2
2025-08-26T15:14	10	65	1.0	63	66	481	0.5	480	482	29.4	26.9
2025-08-26T15:15	10	64	0.6	63	65	480	0.3	479	481	29.5	26.2
2025-08-26T15:16	10	64	1.6	62	67	480	0.6	479	481	29.6	25.3
2025-08-26T15:17	10	66	1.7	64	69	482	0.4	481	482	29.6	25.6
2025-08-26T15:18	10	67	0.7	65	68	481	0.8	479	482	29.7	25.6
2025-08-26T15:19	10	65	1.6	63	68	478	0.5	477	480	29.5	24.7
2025-08-26T15:20	10	66	1.2	65	68	480	0.9	479	482	29.5	24.9
2025-08-26T15:21	10	68	1.0	66	70	482	0.4	481	483	29.6	24.9
2025-08-26T15:22	10	67	1.2	65	70	483	0.5	482	484	29.7	25.8
2025-08-26T15:23	10	70	1.7	67	72	482	0.7	481	483	29.7	25.4
2025-08-26T15:24	10	64	1.5	62	67	480	0.4	480	481	29.5	25.3
2025-08-26T15:25	10	66	1.4	63	68	481	0.2	481	482	29.6	25.8
2025-08-26T15:26	10	65	1.7	62	67	481	0.6	480	482	29.7	26.5
2025-08-26T15:27	10	61	0.9	59	62	479	0.7	478	481	29.5	27.9
2025-08-26T15:28	10	60	2.0	57	63	479	0.4	479	481	29.3	28.9
2025-08-26T15:29	10	59	1.1	58	61	478	0.5	477	479	29.1	29.0
2025-08-26T15:30	10	58	0.5	57	59	477	0.4	476	478	29.0	29.3
2025-08-26T15:31	10	56	1.0	55	58	477	0.2	476	477	29.0	29.4
2025-08-26T15:32	10	55	0.4	54	56	478	0.4	477	478	29.1	29.6
2025-08-26T15:33	10	53	1.6	50	55	474	1.1	472	477	28.9	29.4
2025-08-26T15:34	10	51	0.9	49	52	472	0.3	472	473	28.8	29.8
2025-08-26T15:35	10	49	0.6	48	50	471	0.4	471	472	28.8	29.7
2025-08-26T15:36	10	47	1.0	45	48	470	0.6	468	471	28.7	29.6
2025-08-26T15:37	10	45	0.4	44	46	469	0.3	468	470	28.7	29.3
2025-08-26T15:38	10	46	0.4	45	46	469	0.4	468	470	28.7	29.7
2025-08-26T15:39	10	45	0.7	44	47	470	0.5	469	471	28.7	29.9
2025-08-26T15:40	10	45	0.5	44	46	470	0.4	470	471	28.8	29.8
2025-08-26T15:41	10	44	0.2	44	45	471	0.4	470	471	28.9	29.8
2025-08-26T15:42	10	44	0.4	43	45	471	0.3	471	472	29.0	29.5
2025-08-26T15:43	10	44	0.6	43	45	472	0.5	471	473	29.0	29.2
2025-08-26T15:44	10	44	0.2	44	45	473	0.3	472	473	29.2	28.9
2025-08-26T15:45	10	44	1.6	42	48	472	0.4	471	473	29.3	28.0
2025-08-26T15:46	10	45	2.2	43	49	472	0.9	470	473	29.3	28.5
2025-08-26T15:47	10	43	0.7	42	44	469	1.0	467	471	28.8	29.5
2025-08-26T15:48	10	45	1.1	43	46	468	0.3	467	468	28.7	30.2
2025-08-26T15:49	10	46	2.3	43	50	468	0.6	466	469	28.5	29.9
2025-08-26T15:50	10	42	0.5	41	43	467	0.3	467	468	28.5	30.1
2025-08-26T15:51	10	42	1.2	41	44	466	0.4	465	467	28.4	30.2
2025-08-26T15:52	10	42	1.1	40	43	467	0.3	466	467	28.5	30.3
2025-08-26T15:53	10	40	0.7	40	42	466	0.3	466	467	28.5	30.4
2025-08-26T15:54	10	41	0.6	40	42	466	0.5	465	467	28.5	30.6
2025-08-26T15:55	10	38	1.0	36	40	466	0.5	465	467	28.5	30.7
2025-08-26T15:56	10	36	0.5	35	36	465	0.2	465	466	28.5	30.6
2025-08-26T15:57	10	34	0.3	34	35	464	0.3	464	465	28.5	30.7
2025-08-26T15:58	10	33	0.2	33	34	464	0.3	464	465	28.6	31.5
2025-08-26T15:59	10	32	0.2	32	33	463	0.3	462	464	28.5	30.7
2025-08-26T16:00	10	32	0.2	32	32	463	0.2	462	463	28.5	31.2
2025-08-26T16:01	10	31	0.2	31	32	462	0.3	461	463	28.5	31.2
2025-08-26T16:02	10	31	0.2	30	31	460	0.3	460	461	28.5	30.3
2025-08-26T16:03	10	30	0.2	30	31	461	0.2	460	461	28.5	30.8
2025-08-26T16:04	10	30	0.2	29	30	460	0.4	459	461	28.4	30.6
2025-08-26T16:05	10	30	0.1	29	30	459	0.3	458	460	28.4	30.9
2025-08-26T16:06	10	30	0.1	29	30	459	0.3	458	459	28.3	30.9
2025-08-26T16:07	10	30	0.2	30	30	459	0.3	458	460	28.3	30.8
2025-08-26T16:08	10	30	0.2	29	30	460	0.3	459	460	28.3	31.1
2025-08-26T16:09	10	29	0.2	29	30	460	0.2	459	460	28.3	31.1
2025-08-26T16:10	10	29	0.2	28	29	460	0.3	459	460	28.3	31.5
2025-08-26T16:11	10	28	0.2	28	29	460	0.2	459	460	28.4	31.0
2025-08-26T16:12	10	28	0.1	28	28	460	0.2	460	460	28.3	31.0
2025-08-26T16:13	10	28	0.1	27	28	460	0.3	459	460	28.3	30.8
2025-08-26T16:14	10	28	0.1	27	28	459	0.3	459	460	28.3	31.5
2025-08-26T16:15	10	28	0.3	28	29	459	0.3	458	460	28.3	31.2
2025-08-26T16:16	10	29	0.2	28	29	460	0.3	459	460	28.3	31.3
2025-08-26T16:17	10	29	0.1	29	29	460	0.3	460	461	28.3	31.4
2025-08-26T16:18	10	29	0.1	29	29	460	0.3	459	461	28.3	31.1
2025-08-26T16:19	10	29	0.1	28	29	459	0.3	458	460	28.3	31.0
2025-08-26T16:20	10	28	0.2	28	29	459	0.4	458	459	28.3	31.3
2025-08-26T16:21	10	28	0.1	28	28	458	0.2	457	458	28.3	30.8
2025-08-26T16:22	10	28	0.1	28	28	458	0.4	457	459	28.3	30.5
2025-08-26T16:23	10	28	0.1	28	29	459	0.3	458	459	28.3	30.7
2025-08-26T16:24	10	28	0.1	28	29	459	0.2	459	460	28.3	30.7
2025-08-26T16:25	10	28	0.2	27	28	459	0.5	457	459	28.3	31.4
2025-08-26T16:26	10	27	0.2	27	28	457	0.2	457	458	28.1	33.3
2025-08-26T16:27	10	26	0.2	26	27	457	0.3	456	458	28.1	32.8
2025-08-26T16:28	10	26	0.2	25	26	456	0.3	456	457	28.0	33.7
2025-08-26T16:29	10	25	0.2	25	25	456	0.3	455	456	28.0	34.5
2025-08-26T16:30	10	24	0.1	24	25	455	0.2	455	456	27.9	35.0
2025-08-26T16:31	10	24	0.1	24	24	455	0.2	454	455	27.8	36.2
2025-08-26T16:32	10	24	0.2	23	24	454	0.3	454	455	27.7	35.7
2025-08-26T16:33	10	23	0.2	23	24	454	0.4	453	455	27.7	35.3
2025-08-26T16:34	10	23	0.2	22	23	453	0.3	452	454	27.7	34.5
2025-08-26T16:35	10	22	0.2	21	22	452	0.2	452	453	27.7	34.9
2025-08-26T16:36	10	21	0.1	21	22	452	0.2	452	453	27.6	36.7
2025-08-26T16:37	10	21	0.3	21	21	452	0.2	451	452	27.5	37.6
2025-08-26T16:38	10	20	0.1	20	21	451	0.2	451	452	27.5	38.0
2025-08-26T16:39	10	20	0.1	20	20	451	0.3	451	452	27.4	37.9
2025-08-26T16:40	10	20	0.2	19	20	451	0.2	450	451	27.4	36.8
2025-08-26T16:41	10	19	0.2	19	20	450	0.2	450	451	27.5	36.0
2025-08-26T16:42	10	19	0.2	18	19	450	0.3	449	450	27.4	36.8
2025-08-26T16:43	10	18	0.4	17	18	449	0.3	448	450	27.3	36.9
2025-08-26T16:44	10	17	0.3	16	17	449	0.2	448	449	27.3	37.3
2025-08-26T16:45	10	16	0.2	15	16	448	0.2	448	449	27.2	38.5
2025-08-26T16:46	10	15	0.3	14	16	448	0.2	448	448	27.1	38.5
2025-08-26T16:47	10	14	0.2	14	15	448	0.3	447	448	27.1	38.9
2025-08-26T16:48	10	14	0.2	13	14	447	0.3	446	448	27.1	38.7
2025-08-26T16:49	10	13	0.3	13	14	447	0.3	446	447	27.1	38.6
2025-08-26T16:50	10	13	0.3	12	14	447	0.3	446	447	27.1	38.8
2025-08-26T16:51	10	13	0.2	12	14	447	0.2	446	447	27.1	39.1
2025-08-26T16:52	10	13	0.2	12	14	446	0.2	445	446	27.0	38.8
2025-08-26T16:53	10	13	0.2	12	13	446	0.3	445	447	27.0	39.3
2025-08-26T16:54	10	12	0.2	12	13	445	0.3	445	446	26.9	39.4
2025-08-26T16:55	10	12	0.2	12	13	445	0.2	444	445	26.8	40.2
2025-08-26T16:56	10	12	0.2	12	13	445	0.2	444	445	26.8	40.4
2025-08-26T16:57	10	12	0.2	12	13	445	0.2	445	446	26.8	40.5
2025-08-26T16:58	10	12	0.2	12	13	445	0.2	445	445	26.8	39.9
2025-08-26T16:59	10	12	0.1	12	13	444	0.3	444	445	26.8	39.0
2025-08-26T17:00	10	12	0.1	12	13	444	0.3	444	445	26.8	39.7
2025-08-26T17:01	10	12	0.1	12	13	444	0.2	443	444	26.7	39.7
2025-08-26T17:02	10	12	0.1	12	12	443	0.2	443	444	26.6	40.1
2025-08-26T17:03	10	12	0.1	12	12	443	0.2	443	444	26.6	39.6
2025-08-26T17:04	10	12	0.1	11	12	443	0.3	442	443	26.6	39.0
2025-08-26T17:05	10	11	0.1	11	11	443	0.2	442	443	26.6	38.6
2025-08-26T17:06	10	11	0.2	11	11	442	0.2	442	443	26.6	39.3
2025-08-26T17:07	10	11	0.2	10	11	442	0.3	441	442	26.5	39.7
2025-08-26T17:08	10	10	0.1	10	10	441	0.2	441	442	26.5	38.7
2025-08-26T17:09	10	10	0.1	10	10	442	0.3	441	442	26.5	39.8
2025-08-26T17:10	10	10	0.1	9	10	441	0.2	440	441	26.4	38.7
2025-08-26T17:11	10	9	0.1	9	10	441	0.2	440	441	26.5	38.3
2025-08-26T17:12	10	9	0.1	9	9	441	0.2	440	441	26.4	38.6
2025-08-26T17:13	10	9	0.1	9	9	441	0.3	440	442	26.5	38.3
2025-08-26T17:14	10	9	0.1	9	9	440	0.2	439	441	26.5	38.2
2025-08-26T17:15	10	9	0.1	9	9	441	0.2	440	441	26.5	38.3
2025-08-26T17:16	10	9	0.1	9	9	440	0.2	439	441	26.5	37.8
2025-08-26T17:17	10	9	0.1	8	9	440	0.2	439	440	26.5	38.1
2025-08-26T17:18	10	9	0.1	8	9	440	0.3	440	441	26.6	37.8
2025-08-26T17:19	10	8	0.1	8	9	440	0.2	440	441	26.6	38.2
2025-08-26T17:20	10	8	0.1	8	9	440	0.2	439	440	26.6	37.9
2025-08-26T17:21	10	8	0.1	8	8	440	0.2	439	440	26.6	38.2
2025-08-26T17:22	10	8	0.1	8	8	440	0.3	439	440	26.5	39.2
2025-08-26T17:23	10	8	0.1	7	8	439	0.3	438	439	26.5	39.6
2025-08-26T17:24	10	7	0.1	7	8	438	0.3	438	439	26.5	39.2
2025-08-26T17:25	10	7	0.2	7	7	439	0.2	438	439	26.6	37.2
2025-08-26T17:26	10	7	0.2	6	7	438	0.4	437	439	26.7	37.5
2025-08-26T17:27	10	6	0.1	6	7	437	0.4	436	438	26.8	37.1
2025-08-26T17:28	10	6	0.2	6	7	436	0.4	436	437	26.7	38.7
2025-08-26T17:29	10	6	0.1	6	6	436	0.3	435	437	26.4	39.8
2025-08-26T17:30	10	6	0.1	5	6	436	0.2	435	436	26.5	38.7
2025-08-26T17:31	10	5	0.1	5	6	436	0.3	435	436	26.6	39.0
2025-08-26T17:32	10	5	0.1	5	5	435	0.3	435	436	26.5	38.5
2025-08-26T17:33	10	5	0.1	5	5	435	0.2	434	435	26.5	38.6
2025-08-26T17:34	10	5	0.1	5	5	434	0.2	433	434	26.5	38.6
2025-08-26T17:35	10	5	0.1	4	5	434	0.2	433	434	26.5	38.5
2025-08-26T17:36	10	4	0.1	4	5	434	0.3	433	434	26.5	38.7
2025-08-26T17:37	10	4	0.1	4	5	433	0.2	433	433	26.4	39.9
2025-08-26T17:38	10	4	0.1	4	5	433	0.2	433	434	26.4	39.4
2025-08-26T17:39	10	4	0.1	4	4	433	0.2	433	434	26.5	38.7
2025-08-26T17:40	10	4	0.1	4	4	433	0.2	432	434	26.5	39.2
2025-08-26T17:41	10	4	0.1	4	4	433	0.3	432	433	26.4	39.0
2025-08-26T17:42	10	4	0.1	4	4	433	0.2	432	433	26.4	38.8
2025-08-26T17:43	10	4	0.1	4	4	432	0.3	432	433	26.4	38.7
2025-08-26T17:44	10	4	0.1	3	4	432	0.2	431	432	26.4	38.6
2025-08-26T17:45	10	4	0.1	4	4	431	0.3	430	432	26.4	39.4
2025-08-26T17:46	10	4	0.1	3	4	430	0.5	429	431	26.4	39.5
2025-08-26T17:47	10	3	0.1	3	4	430	0.2	429	431	26.1	41.6
2025-08-26T17:48	10	3	0.2	3	4	430	0.3	430	431	26.0	41.2
2025-08-26T17:49	10	3	0.2	3	4	430	0.4	429	431	26.1	40.8
2025-08-26T17:50	10	3	0.1	3	3	429	0.3	429	430	26.0	41.0
2025-08-26T17:51	10	3	0.2	2	3	430	5.4	428	468	25.9	41.9
2025-08-26T17:52	10	3	0.3	2	4	428	0.5	427	429	25.8	42.3
2025-08-26T17:53	10	3	0.3	2	4	428	0.3	427	429	25.6	43.6
2025-08-26T17:54	10	2	0.2	2	3	428	0.4	426	428	25.6	43.2
2025-08-26T17:55	10	2	0.2	2	3	427	0.5	426	428	25.4	45.1
2025-08-26T17:56	10	2	0.2	2	2	427	0.4	427	429	25.5	42.7
2025-08-26T17:57	10	2	0.1	2	2	428	0.3	427	429	25.7	41.6
2025-08-26T17:58	10	2	0.1	1	2	427	0.3	426	428	25.7	42.5
2025-08-26T17:59	10	2	0.1	1	2	427	0.3	426	427	25.5	43.0
2025-08-26T18:00	10	2	0.1	1	2	427	0.4	426	427	25.5	43.6
2025-08-26T18:01	10	1	0.1	1	2	426	0.3	425	427	25.1	46.5
2025-08-26T18:02	10	1	0.1	1	1	426	0.2	426	427	25.0	45.8
2025-08-26T18:03	10	1	0.1	1	1	426	0.3	426	427	25.1	44.8
2025-08-26T18:04	10	1	0.1	1	1	426	0.2	426	426	25.0	45.7
2025-08-26T18:05	10	1	0.1	1	1	426	0.3	426	427	25.0	44.2
2025-08-26T18:06	10	1	0.1	1	1	426	0.2	425	426	25.1	43.9
2025-08-26T18:07	10	1	0.1	1	1	426	0.4	426	427	25.1	43.2
2025-08-26T18:08	10	1	0.1	0	1	427	0.3	426	428	25.3	41.7
2025-08-26T18:09	10	0	0.1	0	1	426	0.3	426	427	25.3	42.8
2025-08-26T18:10	10	0	0.1	0	1	427	0.4	426	428	25.3	42.3
2025-08-26T18:11	10	0	0.1	0	1	427	0.5	426	428	25.3	42.5
2025-08-26T18:12	10	0	0.1	0	0	427	0.2	427	428	25.4	42.0
2025-08-26T18:13	10	0	0.1	0	1	428	0.3	428	429	25.5	42.4
2025-08-26T18:14	10	0	0.1	0	0	428	0.2	427	428	25.4	42.7
2025-08-26T18:15	10	0	0.1	0	0	428	0.3	428	429	25.3	42.4
2025-08-26T18:16	10	0	0.1	0	0	429	0.3	428	429	25.5	42.0
2025-08-26T18:17	10	0	0.1	0	0	428	0.2	428	429	25.4	42.6
2025-08-26T18:18	10	0	0.1	0	0	429	0.2	428	429	25.3	43.4
2025-08-26T18:19	10	0	0.1	0	0	428	0.3	428	429	25.2	44.4
2025-08-26T18:20	10	0	0.1	0	0	428	0.4	427	429	25.1	45.7
2025-08-26T18:21	10	0	0.1	0	0	427	0.3	427	428	24.7	48.2
2025-08-26T18:22	10	0	0.1	0	1	427	0.2	427	428	24.4	50.8
2025-08-26T18:23	10	0	0.1	0	0	427	0.2	427	428	24.1	52.3
2025-08-26T18:24	10	0	0.1	0	0	427	0.2	426	427	24.0	53.0
2025-08-26T18:25	10	0	0.1	0	0	427	0.2	426	427	23.8	54.8
2025-08-26T18:26	10	0	0.1	0	0	427	0.5	426	427	23.7	55.0
2025-08-26T18:27	10	0	0.1	-1	0	427	0.6	426	428	23.8	53.8
2025-08-26T18:28	10	0	0.1	-1	0	428	0.6	427	429	24.2	50.7
2025-08-26T18:29	10	0	0.1	-1	0	429	0.5	428	430	24.5	48.8
2025-08-26T18:30	10	0	0.1	0	0	429	0.3	428	430	24.7	46.4
2025-08-26T18:31	10	0	0.1	0	0	429	0.2	429	430	24.8	45.2
2025-08-26T18:32	10	0	0.1	0	0	427	1.0	425	429	24.7	47.1
2025-08-26T18:33	10	0	0.3	-1	0	422	3.4	414	427	23.9	53.2
2025-08-26T18:34	10	-1	0.8	-2	0	416	1.3	413	418	22.5	61.1
2025-08-26T18:35	10	-3	0.6	-4	-2	415	0.7	413	416	22.0	64.1
2025-08-26T18:36	10	-4	0.4	-5	-3	413	0.7	412	415	21.7	66.0
2025-08-26T18:37	10	-5	0.2	-6	-5	413	1.0	411	414	21.4	69.5
2025-08-26T18:38	10	-6	0.1	-6	-6	412	0.6	410	413	21.2	70.2
2025-08-26T18:39	10	-6	0.1	-6	-5	412	0.4	411	413	21.0	71.9
2025-08-26T18:40	10	-5	0.2	-6	-5	411	0.4	410	412	20.8	73.4
2025-08-26T18:41	10	-5	0.1	-5	-5	410	0.5	409	411	20.6	74.0
2025-08-26T18:42	10	-5	0.2	-5	-4	410	0.6	409	411	20.6	73.6
2025-08-26T18:43	10	-4	0.2	-5	-4	410	0.6	409	411	20.6	74.0
2025-08-26T18:44	10	-4	0.2	-4	-4	410	0.6	409	411	20.4	75.8
2025-08-26T18:45	10	-3	0.2	-4	-3	410	0.6	409	411	20.4	76.1
2025-08-26T18:46	10	-3	0.2	-4	-3	410	0.5	409	411	20.5	75.3
2025-08-26T18:47	10	-3	0.2	-3	-2	410	0.5	409	411	20.5	75.4
2025-08-26T18:48	10	-2	0.2	-3	-2	410	0.5	409	411	20.6	74.3
2025-08-26T18:49	10	-2	0.2	-2	-1	410	0.5	409	411	20.6	74.3
2025-08-26T18:50	10	-1	0.1	-2	-1	410	0.4	410	411	20.6	73.9
2025-08-26T18:51	10	-1	0.1	-1	-1	411	0.4	410	411	20.6	74.1
2025-08-26T18:52	10	-1	0.1	-1	-1	411	0.3	410	411	20.5	74.9
2025-08-26T18:53	10	-1	0.1	-1	0	411	0.2	410	411	20.5	74.3
2025-08-26T18:54	10	0	0.1	-1	0	411	0.3	410	412	20.6	75.0
2025-08-26T18:55	10	0	0.1	0	0	411	0.3	411	412	20.5	75.1
2025-08-26T18:56	10	0	0.1	0	0	411	0.2	411	411	20.5	74.9
2025-08-26T18:57	10	0	0.1	0	0	411	0.3	410	412	20.5	75.3
2025-08-26T18:58	10	0	0.1	0	0	411	0.3	411	412	20.5	74.5
2025-08-26T18:59	10	0	0.2	-1	0	411	0.3	411	412	20.5	74.7
2025-08-26T19:00	10	0	0.2	0	1	412	0.2	411	412	20.6	73.4
2025-08-26T19:01	10	0	0.2	-1	1	411	0.3	411	412	20.6	74.2
2025-08-26T19:02	10	0	0.1	-1	0	412	0.3	411	412	20.7	73.3
2025-08-26T19:03	10	0	0.1	0	0	411	0.3	411	412	20.7	73.6
2025-08-26T19:04	10	0	0.1	0	0	411	0.3	410	412	20.5	75.8
2025-08-26T19:05	10	0	0.0	0	0	412	0.3	411	412	20.7	73.1
2025-08-26T19:06	10	0	0.1	0	0	412	0.4	411	412	20.7	73.1
2025-08-26T19:07	10	0	0.1	0	0	411	0.4	411	412	20.6	74.0
2025-08-26T19:08	10	0	0.1	0	0	412	0.3	411	412	20.6	74.0
2025-08-26T19:09	10	0	0.1	0	0	412	0.3	411	413	20.8	72.1
2025-08-26T19:10	10	0	0.1	0	0	412	0.2	412	413	20.9	72.3
2025-08-26T19:11	10	0	0.1	0	0	412	0.4	411	413	20.8	73.1
2025-08-26T19:12	10	0	0.1	0	0	412	0.4	412	413	20.9	70.9
2025-08-26T19:13	10	0	0.1	0	0	412	0.2	412	412	21.2	67.3
2025-08-26T19:14	10	0	0.1	0	0	411	0.4	411	412	21.3	67.3
2025-08-26T19:15	10	0	0.1	0	0	412	0.1	411	412	21.2	68.3
2025-08-26T19:16	10	0	0.1	0	0	411	0.2	411	412	21.1	69.0
2025-08-26T19:17	10	0	0.1	0	1	411	0.2	411	412	20.9	71.7
2025-08-26T19:18	10	0	0.1	0	1	411	0.2	410	411	20.8	72.0
2025-08-26T19:19	10	0	0.1	0	1	410	0.3	410	411	20.6	74.4
2025-08-26T19:20	10	0	0.1	0	0	411	0.3	410	411	20.5	74.2
2025-08-26T19:21	10	0	0.1	0	1	411	0.3	410	411	20.6	73.9
2025-08-26T19:22	10	0	0.1	0	1	411	0.2	410	411	20.6	74.3
2025-08-26T19:23	10	0	0.1	0	0	411	0.4	410	412	20.6	73.2
2025-08-26T19:24	10	0	0.1	0	0	411	0.3	410	411	20.8	71.6
2025-08-26T19:25	10	0	0.1	0	1	410	0.4	409	411	20.6	73.3
2025-08-26T19:26	10	0	0.1	0	1	410	0.4	409	411	20.4	76.1
2025-08-26T19:27	10	0	0.1	0	1	410	0.2	410	411	20.2	76.5
2025-08-26T19:28	10	0	0.1	0	1	410	0.4	409	411	20.2	76.4
2025-08-26T19:29	10	0	0.1	0	1	411	0.2	410	411	20.3	75.1
2025-08-26T19:30	10	0	0.1	0	0	410	0.2	410	411	20.3	76.5
2025-08-26T19:31	10	0	0.1	0	0	410	0.3	410	411	20.1	78.1
2025-08-26T19:32	10	0	0.1	0	1	410	0.2	410	411	20.1	76.7
2025-08-26T19:33	10	0	0.1	0	0	410	0.2	410	410	20.1	76.6
2025-08-26T19:34	10	0	0.1	0	1	410	0.3	409	410	20.1	76.4
2025-08-26T19:35	10	0	0.1	0	1	409	0.2	408	410	20.1	76.1
2025-08-26T19:36	10	0	0.1	0	0	409	0.2	408	409	19.9	78.1
2025-08-26T19:37	10	0	0.1	0	1	409	0.3	408	409	19.9	78.2
2025-08-26T19:38	10	0	0.1	0	0	409	0.2	408	409	19.8	79.3
2025-08-26T19:39	10	0	0.1	0	0	409	0.3	408	409	19.8	79.9
2025-08-26T19:40	10	0	0.1	0	0	408	0.2	408	409	19.6	82.8
2025-08-26T19:41	10	0	0.1	0	1	408	0.2	408	409	19.5	82.6
2025-08-26T19:42	10	0	0.1	0	1	408	0.3	407	409	19.5	80.8
2025-08-26T19:43	10	0	0.1	0	0	408	0.2	407	408	19.5	81.5
2025-08-26T19:44	10	0	0.1	0	0	407	0.3	407	408	19.4	82.3
2025-08-26T19:45	10	0	0.1	0	0	408	0.2	407	408	19.5	81.6
2025-08-26T19:46	10	0	0.1	0	1	408	0.3	407	408	19.4	82.8
2025-08-26T19:47	10	0	0.1	0	1	408	0.2	407	408	19.6	80.4
2025-08-26T19:48	10	0	0.2	0	1	408	0.4	407	409	19.5	81.4
2025-08-26T19:49	10	0	0.2	0	1	408	0.2	407	408	19.6	80.2
2025-08-26T19:50	10	0	0.2	0	1	408	0.3	407	408	19.6	79.7
2025-08-26T19:51	10	0	0.2	0	1	408	0.3	407	409	19.8	77.5
2025-08-26T19:52	10	0	0.1	0	1	407	0.3	407	408	19.9	77.0
2025-08-26T19:53	10	0	0.2	0	1	407	0.4	406	408	19.9	76.6
2025-08-26T19:54	10	0	0.2	0	1	407	0.3	406	407	19.7	77.9
2025-08-26T19:55	10	0	0.1	0	1	406	0.3	406	407	19.7	78.3
2025-08-26T19:56	10	0	0.1	0	1	406	0.2	406	407	19.6	79.4
2025-08-26T19:57	10	0	0.1	0	1	406	0.3	405	407	19.5	80.2
2025-08-26T19:58	10	0	0.1	0	1	406	0.2	406	406	19.5	80.3
2025-08-26T19:59	10	0	0.1	0	1	406	0.3	406	407	19.4	80.1
2025-08-26T20:00	10	0	0.1	0	1	406	0.2	406	407	19.7	77.8
2025-08-26T20:01	10	0	0.1	0	1	406	0.2	406	406	19.7	77.9
2025-08-26T20:02	10	0	0.1	0	1	406	0.6	405	408	19.8	76.1
2025-08-26T20:03	10	0	0.1	0	1	406	0.4	406	407	19.9	76.3
2025-08-26T20:04	10	1	0.1	0	1	406	0.3	405	407	19.8	77.1
2025-08-26T20:05	10	0	0.1	0	1	406	0.2	405	406	19.6	78.7
2025-08-26T20:06	10	0	0.1	0	1	406	0.3	405	406	19.8	76.6
2025-08-26T20:07	10	1	0.1	0	1	406	0.3	405	406	19.5	79.2
2025-08-26T20:08	10	0	0.1	0	1	405	0.3	405	406	19.4	79.8
2025-08-26T20:09	10	0	0.1	0	1	405	0.2	405	406	19.3	80.6
2025-08-26T20:10	10	0	0.1	0	1	405	0.4	405	407	19.1	82.7
2025-08-26T20:11	10	0	0.1	0	0	406	0.3	405	407	19.2	81.4
2025-08-26T20:12	10	0	0.1	0	0	406	0.2	405	406	19.4	79.8
2025-08-26T20:13	10	0	0.1	0	0	406	0.2	405	406	19.3	80.3
2025-08-26T20:14	10	0	0.1	0	0	406	0.2	405	406	19.2	81.4
2025-08-26T20:15	10	0	0.1	0	1	406	0.3	405	406	19.2	81.4
2025-08-26T20:16	10	0	0.1	0	1	406	0.2	405	406	19.2	82.0
2025-08-26T20:17	10	0	0.1	0	1	406	0.3	405	406	19.2	81.7
2025-08-26T20:18	10	0	0.1	0	1	406	0.2	405	406	19.2	82.1
2025-08-26T20:19	10	0	0.1	0	1	405	0.3	405	406	19.1	83.1
2025-08-26T20:20	10	0	0.1	0	1	406	0.3	405	407	19.0	83.4
2025-08-26T20:21	10	0	0.1	0	1	405	0.2	405	406	19.1	82.7
2025-08-26T20:22	10	0	0.1	0	1	405	0.2	405	406	19.0	83.2
2025-08-26T20:23	10	0	0.1	0	1	406	0.2	405	406	19.0	83.8
2025-08-26T20:24	10	0	0.1	0	1	405	0.2	405	406	18.9	84.6
2025-08-26T20:25	10	0	0.1	0	1	405	0.2	405	406	18.7	86.5
2025-08-26T20:26	10	0	0.1	0	1	405	0.2	405	406	18.6	87.6
2025-08-26T20:27	10	0	0.1	0	1	405	0.3	404	406	18.6	86.9
2025-08-26T20:28	10	0	0.1	0	0	405	0.3	404	405	18.5	87.9
2025-08-26T20:29	10	0	0.1	0	1	405	0.3	404	406	18.5	88.3
2025-08-26T20:30	10	0	0.1	0	0	405	0.2	404	405	18.5	87.8
2025-08-26T20:31	10	0	0.1	0	1	405	0.2	404	405	18.5	87.9
2025-08-26T20:32	10	0	0.1	0	0	405	0.2	404	405	18.5	87.8
2025-08-26T20:33	10	0	0.1	0	0	405	0.2	404	405	18.5	87.9
2025-08-26T20:34	10	0	0.1	0	0	405	0.3	404	405	18.5	88.1
2025-08-26T20:35	10	0	0.1	0	0	405	0.2	404	405	18.5	88.1
2025-08-26T20:36	10	0	0.1	0	0	405	0.2	404	405	18.5	88.1
2025-08-26T20:37	10	0	0.1	0	0	405	0.3	404	405	18.4	89.5
2025-08-26T20:38	10	0	0.1	0	0	405	0.2	404	405	18.4	89.7
2025-08-26T20:39	10	0	0.1	0	0	404	0.2	404	405	18.3	90.1
2025-08-26T20:40	10	0	0.1	0	0	404	0.2	403	404	18.3	90.8
2025-08-26T20:41	10	0	0.1	0	0	404	0.3	403	404	18.2	91.5
2025-08-26T20:42	10	0	0.1	0	0	404	0.2	404	405	18.2	90.9
2025-08-26T20:43	10	0	0.1	0	0	404	0.2	404	405	18.2	90.5
2025-08-26T20:44	10	0	0.1	0	0	404	0.2	404	405	18.2	88.9
2025-08-26T20:45	10	0	0.1	0	0	404	0.2	404	405	18.2	88.9
2025-08-26T20:46	10	0	0.1	0	0	404	0.2	404	405	18.2	88.9
2025-08-26T20:47	10	0	0.1	0	0	404	0.2	404	405	18.2	90.5
2025-08-26T20:48	10	0	0.1	0	0	404	0.2	404	405	18.2	90.5
2025-08-26T20:49	10	0	0.1	0	0	404	0.2	403	404	18.2	90.5
2025-08-26T20:50	10	0	0.1	0	0	404	0.2	404	405	18.2	90.5
2025-08-26T20:51	10	0	0.1	0	0	404	0.2	404	405	18.2	90.7
2025-08-26T20:52	10	0	0.1	0	0	404	0.3	404	405	18.3	89.3
2025-08-26T20:53	10	0	0.1	0	0	405	0.3	404	406	18.4	87.0
2025-08-26T20:54	10	0	0.1	0	1	405	0.2	405	405	18.5	86.2
2025-08-26T20:55	10	0	0.1	0	0	405	0.2	405	405	18.6	85.7
2025-08-26T20:56	10	0	0.1	0	0	405	0.2	404	405	18.6	86.4
2025-08-26T20:57	10	0	0.1	0	0	405	0.2	405	406	18.5	87.1
2025-08-26T20:58	10	0	0.1	0	0	405	0.2	405	406	18.5	87.1
2025-08-26T20:59	10	0	0.1	0	1	405	0.3	404	406	18.5	87.5
2025-08-26T21:00	10	0	0.1	0	1	405	0.2	405	405	18.5	88.5
2025-08-26T21:01	10	0	0.1	0	1	405	0.2	404	405	18.4	89.2
2025-08-26T21:02	10	0	0.1	0	1	405	0.2	404	405	18.4	88.9
2025-08-26T21:03	10	0	0.1	0	1	405	0.2	404	405	18.4	89.1
2025-08-26T21:04	10	0	0.1	0	1	405	0.3	404	405	18.3	90.5
2025-08-26T21:05	10	0	0.1	0	1	405	0.3	404	405	18.2	90.7
2025-08-26T21:06	10	0	0.1	0	1	404	0.2	404	405	18.2	91.9
2025-08-26T21:07	10	0	0.1	0	1	404	0.3	403	405	18.1	93.8
2025-08-26T21:08	10	0	0.2	0	1	404	0.2	404	405	17.9	94.6
2025-08-26T21:09	10	0	0.2	0	1	404	0.3	403	404	17.9	95.0
2025-08-26T21:10	10	0	0.2	0	1	404	0.2	403	404	17.8	95.5
2025-08-26T21:11	10	0	0.2	0	1	404	0.3	403	405	17.8	95.9
2025-08-26T21:12	10	0	0.2	0	1	404	0.3	403	404	17.8	96.0
2025-08-26T21:13	10	0	0.2	0	1	404	0.3	403	404	17.8	96.0
2025-08-26T21:14	10	0	0.2	0	0	404	0.2	403	404	17.8	95.4
2025-08-26T21:15	10	0	0.2	0	1	404	0.3	403	405	17.8	94.1
2025-08-26T21:16	10	0	0.2	0	1	404	0.4	403	405	17.9	92.7
2025-08-26T21:17	10	0	0.2	0	0	404	0.2	403	404	18.0	91.7
2025-08-26T21:18	10	0	0.2	0	1	404	0.3	404	405	18.1	91.5
2025-08-26T21:19	10	0	0.1	0	0	404	0.3	404	405	18.2	91.0
2025-08-26T21:20	10	0	0.2	0	1	405	0.2	404	405	18.3	89.9
2025-08-26T21:21	10	0	0.2	0	1	405	0.3	404	405	18.4	89.1
2025-08-26T21:22	10	0	0.2	0	1	405	0.2	404	405	18.4	89.2
2025-08-26T21:23	10	0	0.2	0	1	404	0.2	404	405	18.4	88.6
2025-08-26T21:24	10	0	0.1	0	0	404	0.3	403	405	18.4	89.6
2025-08-26T21:25	10	0	0.2	0	1	404	0.2	404	405	18.4	88.7
2025-08-26T21:26	10	0	0.2	0	1	404	0.3	404	405	18.4	89.2
2025-08-26T21:27	10	0	0.2	0	1	405	0.3	404	405	18.5	87.8
2025-08-26T21:28	10	0	0.2	0	1	404	0.3	404	405	18.5	87.8
2025-08-26T21:29	10	0	0.1	0	0	405	0.2	404	405	18.4	88.3
2025-08-26T21:30	10	0	0.1	0	1	405	0.3	404	406	18.4	87.9
2025-08-26T21:31	10	0	0.1	0	1	405	0.2	404	405	18.5	86.6
2025-08-26T21:32	10	0	0.1	0	1	404	0.2	404	405	18.4	88.4
2025-08-26T21:33	10	0	0.1	0	1	404	0.2	404	405	18.3	90.7
2025-08-26T21:34	10	0	0.1	0	1	405	0.2	404	405	18.2	90.2
2025-08-26T21:35	10	0	0.1	0	1	404	0.3	404	405	18.2	90.4
2025-08-26T21:36	10	0	0.1	0	0	404	0.3	403	405	18.2	91.2
2025-08-26T21:37	10	0	0.1	0	0	404	0.2	403	405	18.2	91.5
2025-08-26T21:38	10	0	0.1	0	0	404	0.2	404	405	18.1	92.1
2025-08-26T21:39	10	0	0.1	0	0	404	0.2	404	405	18.1	92.6
2025-08-26T21:40	10	0	0.1	0	0	404	0.2	404	405	18.0	92.8
2025-08-26T21:41	10	0	0.1	0	0	404	0.2	404	404	18.0	93.2
2025-08-26T21:42	10	0	0.1	0	1	404	0.2	404	405	18.0	93.4
2025-08-26T21:43	10	0	0.1	0	0	404	0.2	404	405	18.0	92.4
2025-08-26T21:44	10	0	0.1	0	0	404	0.2	404	405	18.0	93.1
2025-08-26T21:45	10	0	0.1	0	0	404	0.2	404	404	18.0	93.7
2025-08-26T21:46	10	0	0.1	0	1	404	0.2	404	405	18.0	94.5
2025-08-26T21:47	10	0	0.1	0	0	404	0.2	404	404	17.9	94.3
2025-08-26T21:48	10	0	0.1	0	0	404	0.2	404	404	17.9	93.8
2025-08-26T21:49	10	0	0.1	0	1	404	0.2	404	405	18.0	92.0
2025-08-26T21:50	10	0	0.1	0	0	404	0.3	403	405	18.1	91.4
2025-08-26T21:51	10	0	0.1	0	0	404	0.2	404	404	18.1	90.7
2025-08-26T21:52	10	0	0.1	0	0	404	0.2	403	404	18.2	90.1
2025-08-26T21:53	10	0	0.1	0	0	404	0.2	403	404	18.2	89.9
2025-08-26T21:54	10	0	0.1	0	0	404	0.1	403	404	18.2	90.2
2025-08-26T21:55	10	0	0.1	0	0	404	0.2	403	404	18.3	89.1
2025-08-26T21:56	10	0	0.1	0	0	404	0.2	403	404	18.3	89.5
2025-08-26T21:57	10	0	0.1	0	0	404	0.3	403	404	18.4	88.4
2025-08-26T21:58	10	0	0.1	0	1	404	0.4	403	405	18.6	87.0
2025-08-26T21:59	10	0	0.1	0	0	404	0.2	403	404	18.5	88.4
2025-08-26T22:00	10	0	0.1	0	0	404	0.2	404	404	18.4	89.1
2025-08-26T22:01	10	0	0.0	0	0	404	0.3	403	404	18.3	89.6
2025-08-26T22:02	10	0	0.1	0	0	404	0.3	403	404	18.3	90.2
2025-08-26T22:03	10	0	0.1	0	0	404	0.2	403	404	18.1	91.8
2025-08-26T22:04	10	0	0.1	0	0	403	0.2	403	404	18.1	92.1
2025-08-26T22:05	10	0	0.1	0	0	404	0.2	403	404	18.0	91.9
2025-08-26T22:06	10	0	0.1	0	0	404	0.2	403	404	18.1	91.1
2025-08-26T22:07	10	0	0.1	0	0	404	0.2	403	404	18.1	91.5
2025-08-26T22:08	10	0	0.1	0	0	404	0.2	403	404	18.1	92.1
2025-08-26T22:09	10	0	0.0	0	0	403	0.2	403	404	18.0	93.0
2025-08-26T22:10	10	0	0.1	0	0	404	0.2	403	404	18.0	93.4
2025-08-26T22:11	10	0	0.1	0	0	404	0.2	403	404	18.0	92.2
2025-08-26T22:12	10	0	0.1	0	0	404	0.3	403	405	18.2	89.2
2025-08-26T22:13	10	0	0.1	0	0	404	0.3	403	405	18.4	87.8
2025-08-26T22:14	10	0	0.1	0	0	404	0.3	403	404	18.4	88.2
2025-08-26T22:15	10	0	0.1	0	0	404	0.2	404	405	18.4	88.2
2025-08-26T22:16	10	0	0.1	0	1	404	0.2	403	404	18.4	87.9
2025-08-26T22:17	10	0	0.1	0	1	404	0.3	404	405	18.6	86.2
2025-08-26T22:18	10	0	0.1	0	1	404	0.2	404	405	18.7	85.1
2025-08-26T22:19	10	0	0.1	0	1	404	0.4	403	405	18.8	85.0
2025-08-26T22:20	10	0	0.1	0	1	403	0.2	403	404	18.4	89.6
2025-08-26T22:21	10	0	0.1	0	1	403	0.3	402	404	18.2	90.7
2025-08-26T22:22	10	0	0.1	0	1	403	0.2	403	403	18.1	90.7
2025-08-26T22:23	10	0	0.1	0	1	403	0.2	402	404	18.2	89.8
2025-08-26T22:24	10	0	0.1	0	1	403	0.3	402	403	18.2	91.1
2025-08-26T22:25	10	0	0.1	0	0	403	0.3	402	404	18.1	92.2
2025-08-26T22:26	10	0	0.1	0	0	403	0.2	403	404	18.1	93.3
2025-08-26T22:27	10	0	0.1	0	0	403	0.2	403	404	18.0	94.1
2025-08-26T22:28	10	0	0.1	0	0	403	0.2	403	404	18.0	94.6
2025-08-26T22:29	10	0	0.1	0	0	403	0.3	403	404	18.0	94.8
2025-08-26T22:30	10	0	0.1	0	0	403	0.2	403	404	17.9	95.3
2025-08-26T22:31	10	0	0.1	0	0	403	0.2	403	404	17.9	95.7
2025-08-26T22:32	10	0	0.1	0	0	403	0.2	403	404	17.9	95.6
2025-08-26T22:33	10	0	0.1	0	0	403	0.2	403	404	17.9	95.7
2025-08-26T22:34	10	0	0.1	0	0	403	0.2	403	404	17.8	95.8
2025-08-26T22:35	10	0	0.1	0	0	403	0.2	403	404	17.8	95.9
2025-08-26T22:36	10	0	0.1	0	0	404	0.2	403	404	17.8	95.6
2025-08-26T22:37	10	0	0.1	0	0	403	0.3	403	404	17.9	95.3
2025-08-26T22:38	10	0	0.1	0	0	404	0.2	403	404	17.9	95.2
2025-08-26T22:39	10	0	0.1	0	0	403	0.2	403	404	17.9	94.9
2025-08-26T22:40	10	0	0.1	0	1	403	0.2	403	404	17.9	94.9
2025-08-26T22:41	10	0	0.1	0	0	403	0.2	403	404	17.9	95.2
2025-08-26T22:42	10	0	0.1	0	0	403	0.2	403	404	17.9	95.5
2025-08-26T22:43	10	0	0.1	0	0	403	0.2	403	404	17.9	95.3
2025-08-26T22:44	10	0	0.1	0	0	403	0.2	402	404	17.9	95.0
2025-08-26T22:45	10	0	0.1	0	0	403	0.2	402	403	17.9	95.3
2025-08-26T22:46	10	0	0.1	0	0	403	0.3	402	404	17.9	95.4
2025-08-26T22:47	10	0	0.1	0	0	403	0.3	402	403	18.0	95.2
2025-08-26T22:48	10	0	0.1	0	0	403	0.2	402	403	18.0	94.8
2025-08-26T22:49	10	0	0.1	0	0	402	0.3	402	403	18.0	94.8
2025-08-26T22:50	10	0	0.1	0	0	402	0.2	402	402	18.0	95.2
2025-08-26T22:51	10	0	0.1	0	0	402	0.2	402	403	17.9	95.7
2025-08-26T22:52	10	0	0.1	0	0	402	0.2	401	402	17.9	96.3
2025-08-26T22:53	10	0	0.1	0	0	402	0.3	402	403	17.9	96.7
2025-08-26T22:54	10	0	0.1	0	0	402	0.3	402	403	17.9	97.0
2025-08-26T22:55	10	0	0.1	0	0	402	0.2	402	403	17.9	97.1
2025-08-26T22:56	10	0	0.1	0	0	402	0.2	402	403	17.8	96.5
2025-08-26T22:57	10	0	0.1	0	0	402	0.2	402	403	17.9	95.4
2025-08-26T22:58	10	0	0.1	0	0	402	0.3	402	403	18.0	95.6
2025-08-26T22:59	10	0	0.1	0	0	402	0.2	402	403	18.0	95.3
2025-08-26T23:00	10	0	0.1	0	0	402	0.3	402	403	18.0	95.9
2025-08-26T23:01	10	0	0.1	0	0	402	0.2	401	403	17.9	96.4
2025-08-26T23:02	10	0	0.1	0	0	402	0.3	401	402	17.9	96.7
2025-08-26T23:03	10	0	0.1	0	0	402	0.2	401	402	17.8	97.1
2025-08-26T23:04	10	0	0.1	0	0	402	0.3	401	402	17.8	97.3
2025-08-26T23:05	10	0	0.1	0	0	402	0.2	401	402	17.8	97.3
2025-08-26T23:06	10	0	0.1	0	0	402	0.2	401	402	17.8	97.5
2025-08-26T23:07	10	0	0.1	0	0	402	0.2	401	402	17.8	97.4
2025-08-26T23:08	10	0	0.1	0	0	402	0.2	401	403	17.8	97.6
2025-08-26T23:09	10	0	0.1	0	0	402	0.2	401	403	17.7	97.6
2025-08-26T23:10	10	0	0.1	0	0	402	0.2	402	403	17.7	97.7
2025-08-26T23:11	10	0	0.1	0	0	402	0.2	401	403	17.7	97.7
2025-08-26T23:12	10	0	0.1	0	0	402	0.3	401	403	17.7	97.8
2025-08-26T23:13	10	0	0.1	0	0	402	0.3	401	402	17.6	97.8
2025-08-26T23:14	10	0	0.1	0	0	402	0.2	402	403	17.6	97.7
2025-08-26T23:15	10	0	0.1	0	0	402	0.2	402	403	17.7	97.5
2025-08-26T23:16	10	0	0.1	0	0	402	0.2	402	403	17.7	97.6
2025-08-26T23:17	10	0	0.1	0	0	402	0.2	402	403	17.7	97.8
2025-08-26T23:18	10	0	0.1	0	0	402	0.2	402	403	17.7	97.8
2025-08-26T23:19	10	0	0.1	0	0	402	0.2	402	403	17.7	97.8
2025-08-26T23:20	10	0	0.1	0	0	403	0.2	402	403	17.7	97.7
2025-08-26T23:21	10	0	0.1	0	0	402	0.2	402	403	17.6	97.6
2025-08-26T23:22	10	0	0.1	0	0	403	0.2	402	403	17.7	97.6
2025-08-26T23:23	10	0	0.1	0	0	402	0.2	402	403	17.7	97.6
2025-08-26T23:24	10	0	0.1	0	0	402	0.3	402	403	17.7	97.6
2025-08-26T23:25	10	0	0.1	0	0	402	0.2	402	403	17.7	97.6
2025-08-26T23:26	10	0	0.1	0	0	402	0.3	402	403	17.7	97.7
2025-08-26T23:27	10	0	0.1	0	0	402	0.2	402	403	17.7	97.8
2025-08-26T23:28	10	0	0.1	0	0	402	0.2	402	403	17.6	97.5
2025-08-26T23:29	10	0	0.1	0	0	402	0.3	402	403	17.6	97.5
2025-08-26T23:30	10	0	0.1	0	0	402	0.2	402	403	17.6	97.5
2025-08-26T23:31	10	0	0.1	0	0	402	0.2	402	403	17.6	97.6
2025-08-26T23:32	10	0	0.1	0	0	402	0.3	402	403	17.6	97.7
2025-08-26T23:33	10	0	0.1	0	0	402	0.3	401	403	17.6	97.8
2025-08-26T23:34	10	0	0.1	0	0	402	0.2	402	402	17.6	97.9
2025-08-26T23:35	10	0	0.1	0	0	402	0.2	402	402	17.6	97.5
2025-08-26T23:36	10	0	0.1	0	0	402	0.2	401	402	17.6	97.4
2025-08-26T23:37	10	0	0.1	0	0	402	0.2	401	402	17.7	97.5
2025-08-26T23:38	10	0	0.1	0	0	402	0.3	401	402	17.6	97.4
2025-08-26T23:39	10	0	0.1	0	0	402	0.3	401	402	17.6	97.0
2025-08-26T23:40	10	0	0.1	0	0	401	0.2	401	402	17.6	96.9
2025-08-26T23:41	10	0	0.1	0	0	402	0.2	401	402	17.6	97.2
2025-08-26T23:42	10	0	0.1	0	1	402	0.2	401	402	17.6	97.0
2025-08-26T23:43	10	0	0.1	0	0	402	0.2	401	402	17.6	96.6
2025-08-26T23:44	10	0	0.1	0	0	402	0.3	401	402	17.7	96.4
2025-08-26T23:45	10	0	0.1	0	0	402	0.2	401	402	17.7	96.2
2025-08-26T23:46	10	0	0.1	0	0	402	0.2	402	402	17.7	96.0
2025-08-26T23:47	10	0	0.1	0	0	402	0.3	401	402	17.7	96.0
2025-08-26T23:48	10	0	0.1	0	0	402	0.3	402	403	17.7	96.1
2025-08-26T23:49	10	0	0.1	0	0	402	0.2	402	403	17.7	96.0
2025-08-26T23:50	10	0	0.1	0	0	403	0.2	402	403	17.7	95.5
2025-08-26T23:51	10	0	0.1	0	0	402	0.2	402	403	17.7	95.2
2025-08-26T23:52	10	0	0.1	0	0	402	0.3	402	403	17.7	95.1
2025-08-26T23:53	10	0	0.1	0	0	402	0.2	402	403	17.8	95.5
2025-08-26T23:54	10	0	0.1	0	0	402	0.2	402	403	17.8	95.9
2025-08-26T23:55	10	0	0.1	0	0	402	0.2	402	403	17.8	96.0
2025-08-26T23:56	10	0	0.1	0	0	402	0.2	402	403	17.8	95.8
2025-08-26T23:57	10	0	0.1	0	0	402	0.3	402	403	17.8	95.5
2025-08-26T23:58	10	0	0.1	0	0	402	0.2	402	402	17.8	95.3
2025-08-26T23:59	10	0	0.1	0	0	402	0.2	402	403	17.8	95.2
2025-08-27T00:00	10	0	0.1	0	0	402	0.2	402	403	17.9	95.9
2025-08-27T00:01	10	0	0.1	0	0	402	0.2	402	403	17.9	96.1
2025-08-27T00:02	10	0	0.1	0	0	402	0.3	401	402	17.8	95.9
2025-08-27T00:03	10	0	0.1	0	0	402	0.3	401	402	17.9	95.8
2025-08-27T00:04	10	0	0.1	0	0	401	0.2	401	402	17.9	96.2
2025-08-27T00:05	10	0	0.1	0	0	401	0.2	401	402	17.9	96.1
2025-08-27T00:06	10	0	0.1	0	0	401	0.3	400	401	17.9	96.1
2025-08-27T00:07	10	0	0.1	0	0	401	0.2	400	401	17.8	96.1
2025-08-27T00:08	10	0	0.1	0	0	401	0.2	400	401	17.8	96.1
2025-08-27T00:09	10	0	0.1	0	0	400	0.2	400	401	17.8	95.8
2025-08-27T00:10	10	0	0.1	0	0	400	0.2	400	401	17.8	95.7
2025-08-27T00:11	10	0	0.1	0	0	401	0.2	400	401	17.8	96.1
2025-08-27T00:12	10	0	0.1	0	0	401	0.3	400	401	17.8	96.6
2025-08-27T00:13	10	0	0.1	0	0	401	0.2	400	401	17.8	96.7
2025-08-27T00:14	10	0	0.1	0	0	401	0.2	400	401	17.7	96.9
2025-08-27T00:15	10	0	0.1	0	0	401	0.2	401	402	17.7	96.9
2025-08-27T00:16	10	0	0.1	0	0	401	0.2	401	402	17.7	97.2
2025-08-27T00:17	10	0	0.1	0	0	401	0.2	401	402	17.7	97.4
2025-08-27T00:18	10	0	0.1	0	0	401	0.2	401	402	17.7	97.7
2025-08-27T00:19	10	0	0.1	0	0	401	0.2	401	402	17.6	97.8
2025-08-27T00:20	10	0	0.1	0	0	401	0.2	401	402	17.6	98.0
2025-08-27T00:21	10	0	0.1	0	0	401	0.3	400	402	17.6	98.2
2025-08-27T00:22	10	0	0.1	0	0	401	0.3	401	402	17.6	98.4
2025-08-27T00:23	10	0	0.1	0	0	401	0.2	401	402	17.6	98.7
2025-08-27T00:24	10	0	0.1	0	0	401	0.2	401	402	17.6	98.8
2025-08-27T00:25	10	0	0.1	0	0	401	0.2	401	402	17.5	98.7
2025-08-27T00:26	10	0	0.1	0	0	401	0.2	400	401	17.5	98.7
2025-08-27T00:27	10	0	0.1	0	0	401	0.2	401	402	17.5	98.6
2025-08-27T00:28	10	0	0.1	0	0	401	0.2	401	401	17.5	98.6
2025-08-27T00:29	10	0	0.1	0	0	401	0.2	401	401	17.5	98.8
2025-08-27T00:30	10	0	0.1	0	0	401	0.2	400	401	17.5	99.0
2025-08-27T00:31	10	0	0.1	0	0	401	0.2	400	401	17.5	98.7
2025-08-27T00:32	10	0	0.1	0	0	400	0.2	400	401	17.5	98.6
2025-08-27T00:33	10	0	0.1	0	0	400	0.3	399	401	17.5	98.8
2025-08-27T00:34	10	0	0.1	0	0	400	0.2	399	400	17.4	98.8
2025-08-27T00:35	10	0	0.1	0	0	399	0.2	399	400	17.4	98.7
2025-08-27T00:36	10	0	0.1	0	0	399	0.3	399	400	17.5	98.7
2025-08-27T00:37	10	0	0.1	0	0	399	0.3	398	399	17.5	98.8
2025-08-27T00:38	10	0	0.1	0	0	399	0.2	398	399	17.5	98.8
2025-08-27T00:39	10	0	0.1	0	0	398	0.2	398	399	17.5	98.8
2025-08-27T00:40	10	0	0.1	0	0	398	0.2	398	398	17.5	98.9
2025-08-27T00:41	10	0	0.1	0	0	398	0.3	397	398	17.5	98.8
2025-08-27T00:42	10	0	0.1	0	0	397	0.2	397	398	17.5	98.7
2025-08-27T00:43	10	0	0.1	0	0	397	0.3	396	397	17.5	98.8
2025-08-27T00:44	10	0	0.1	0	0	397	0.2	396	397	17.5	98.8
2025-08-27T00:45	10	0	0.1	0	0	396	0.2	396	397	17.4	98.7
2025-08-27T00:46	10	0	0.1	0	0	396	0.2	396	397	17.5	98.6
2025-08-27T00:47	10	0	0.1	0	0	396	0.2	395	396	17.5	98.7
2025-08-27T00:48	10	0	0.1	0	0	396	0.2	396	396	17.5	98.7
2025-08-27T00:49	10	0	0.1	0	0	396	0.2	396	397	17.5	99.0
2025-08-27T00:50	10	0	0.1	0	0	396	0.2	395	397	17.4	98.7
2025-08-27T00:51	10	0	0.1	0	0	396	0.2	396	397	17.4	98.4
2025-08-27T00:52	10	0	0.1	0	0	396	0.2	396	397	17.3	98.2
2025-08-27T00:53	10	0	0.1	0	0	396	0.2	396	397	17.3	98.1
2025-08-27T00:54	10	0	0.1	0	0	396	0.3	396	397	17.3	98.1
2025-08-27T00:55	10	0	0.1	0	0	397	0.3	396	397	17.3	98.0
2025-08-27T00:56	10	0	0.1	0	0	397	0.2	396	397	17.3	97.9
2025-08-27T00:57	10	0	0.1	0	0	397	0.2	396	397	17.3	98.2
2025-08-27T00:58	10	0	0.1	0	0	397	0.3	396	397	17.2	98.4
2025-08-27T00:59	10	0	0.1	0	0	397	0.2	396	397	17.3	98.3
2025-08-27T01:00	10	0	0.1	0	0	396	0.2	396	397	17.3	98.3
2025-08-27T01:01	10	0	0.1	0	0	396	0.3	396	397	17.3	98.4
2025-08-27T01:02	10	0	0.1	0	0	396	0.2	396	397	17.2	98.4
2025-08-27T01:03	10	0	0.1	0	0	396	0.2	396	397	17.2	98.3
2025-08-27T01:04	10	0	0.1	0	0	396	0.3	396	397	17.2	98.2
2025-08-27T01:05	10	0	0.1	0	0	396	0.2	396	397	17.2	98.3
2025-08-27T01:06	10	0	0.1	0	0	396	0.2	395	396	17.2	98.4
2025-08-27T01:07	10	0	0.1	0	0	395	0.2	395	396	17.2	98.6
2025-08-27T01:08	10	0	0.1	0	0	395	0.2	395	396	17.2	98.4
2025-08-27T01:09	10	0	0.1	0	0	395	0.3	394	395	17.2	98.5
2025-08-27T01:10	10	0	0.1	0	0	394	0.3	394	395	17.1	98.6
2025-08-27T01:11	10	0	0.1	0	0	394	0.2	393	394	17.1	98.7
2025-08-27T01:12	10	0	0.1	0	0	394	0.2	394	395	17.1	98.9
2025-08-27T01:13	10	0	0.1	0	0	394	0.2	393	394	17.1	98.7
2025-08-27T01:14	10	0	0.1	0	0	394	0.3	393	394	17.1	98.6
2025-08-27T01:15	10	0	0.1	0	0	394	0.2	393	394	17.1	98.6
2025-08-27T01:16	10	0	0.1	0	0	393	0.3	393	394	17.1	98.5
2025-08-27T01:17	10	0	0.1	0	0	393	0.2	393	394	17.1	98.4
2025-08-27T01:18	10	0	0.1	0	0	393	0.2	393	394	17.1	98.4
2025-08-27T01:19	10	0	0.1	0	0	393	0.2	393	394	17.0	98.5
2025-08-27T01:20	10	0	0.1	0	0	393	0.2	392	393	17.0	98.4
2025-08-27T01:21	10	0	0.1	0	0	393	0.3	392	393	17.0	98.2
2025-08-27T01:22	10	0	0.1	0	0	393	0.2	392	393	17.0	98.1
2025-08-27T01:23	10	0	0.1	0	0	392	0.2	392	393	17.1	98.1
2025-08-27T01:24	10	0	0.1	0	0	392	0.2	392	392	17.1	98.2
2025-08-27T01:25	10	0	0.1	0	0	392	0.2	391	392	17.1	98.1
2025-08-27T01:26	10	0	0.1	0	0	392	0.2	391	392	17.1	98.2
2025-08-27T01:27	10	0	0.1	0	0	392	0.2	391	392	17.1	98.2
2025-08-27T01:28	10	0	0.1	0	0	392	0.3	391	392	17.0	98.2
2025-08-27T01:29	10	0	0.1	0	0	391	0.2	391	392	17.0	98.1
2025-08-27T01:30	10	0	0.1	0	0	391	0.2	391	391	17.0	98.0
2025-08-27T01:31	10	0	0.1	0	0	391	0.3	390	392	17.0	98.0
2025-08-27T01:32	10	0	0.0	0	0	391	0.2	391	392	17.0	97.9
2025-08-27T01:33	10	0	0.1	0	0	391	0.2	391	391	17.0	97.9
2025-08-27T01:34	10	0	0.1	0	0	391	0.2	391	392	17.0	98.0
2025-08-27T01:35	10	0	0.1	0	0	391	0.2	390	391	17.0	97.9
2025-08-27T01:36	10	0	0.1	0	0	391	0.3	391	392	17.0	98.2
2025-08-27T01:37	10	0	0.1	0	0	392	0.2	391	392	17.1	98.2
2025-08-27T01:38	10	0	0.1	0	0	392	0.2	391	392	17.0	98.1
2025-08-27T01:39	10	0	0.1	0	0	392	0.2	391	392	17.0	98.1
2025-08-27T01:40	10	0	0.1	0	0	393	0.3	392	393	17.0	98.1
2025-08-27T01:41	10	0	0.1	0	0	393	0.2	393	394	17.0	98.1
2025-08-27T01:42	10	0	0.1	0	0	393	0.2	393	394	16.9	98.4
2025-08-27T01:43	10	0	0.1	0	0	393	0.2	393	393	16.8	98.9
2025-08-27T01:44	10	0	0.1	0	0	393	0.2	392	393	16.8	98.9
2025-08-27T01:45	10	0	0.1	0	0	393	0.2	392	393	16.8	98.8
2025-08-27T01:46	10	0	0.1	0	0	393	0.3	392	393	16.8	98.9
2025-08-27T01:47	10	0	0.1	0	0	393	0.2	393	394	16.8	98.9
2025-08-27T01:48	10	0	0.1	0	0	393	0.3	393	394	16.8	98.8
2025-08-27T01:49	10	0	0.0	0	0	393	0.3	393	394	16.8	98.7
2025-08-27T01:50	10	0	0.0	0	0	394	0.3	393	394	16.8	98.6
2025-08-27T01:51	10	0	0.1	0	0	394	0.2	393	394	16.8	98.6
2025-08-27T01:52	10	0	0.1	0	0	394	0.2	394	395	16.9	98.6
2025-08-27T01:53	10	0	0.1	0	0	394	0.2	393	394	16.9	98.8
2025-08-27T01:54	10	0	0.1	0	0	394	0.2	393	394	16.9	98.8
2025-08-27T01:55	10	0	0.1	0	0	393	0.2	393	394	16.9	98.8
2025-08-27T01:56	10	0	0.1	0	0	393	0.2	393	394	16.8	98.8
2025-08-27T01:57	10	0	0.1	0	0	393	0.3	392	393	16.8	98.7
2025-08-27T01:58	10	0	0.1	0	0	392	0.2	392	393	16.8	98.6
2025-08-27T01:59	10	0	0.1	0	0	392	0.3	392	393	16.8	98.5
2025-08-27T02:00	10	0	0.1	0	0	392	0.3	391	392	16.8	98.5
2025-08-27T02:01	10	0	0.1	0	0	391	0.2	391	392	16.8	98.4
2025-08-27T02:02	10	0	0.1	0	0	391	0.2	391	392	16.7	98.3
2025-08-27T02:03	10	0	0.1	0	0	391	0.2	390	392	16.8	98.3
2025-08-27T02:04	10	0	0.1	0	0	391	0.2	390	391	16.8	98.2
2025-08-27T02:05	10	0	0.1	0	0	391	0.2	390	391	16.8	98.3
2025-08-27T02:06	10	0	0.1	0	0	391	0.2	390	391	16.8	98.1
2025-08-27T02:07	10	0	0.1	0	1	391	0.2	390	391	16.8	98.0
2025-08-27T02:08	10	0	0.1	0	0	390	0.3	390	391	16.8	97.9
2025-08-27T02:09	10	0	0.1	0	0	390	0.2	390	391	16.8	98.2
2025-08-27T02:10	10	0	0.1	0	1	390	0.2	390	391	16.8	98.1
2025-08-27T02:11	10	0	0.1	0	0	390	0.2	390	391	16.8	98.2
2025-08-27T02:12	10	0	0.1	0	0	390	0.2	389	390	16.8	98.2
2025-08-27T02:13	10	0	0.1	0	0	390	0.3	389	390	16.8	98.1
2025-08-27T02:14	10	0	0.1	0	0	390	0.2	389	390	16.8	98.1
2025-08-27T02:15	10	0	0.1	0	0	389	0.2	389	390	16.7	98.0
2025-08-27T02:16	10	0	0.1	0	0	390	0.2	389	390	16.8	97.8
2025-08-27T02:17	10	0	0.1	0	0	390	0.2	390	390	16.8	98.0
2025-08-27T02:18	10	0	0.1	0	0	390	0.2	390	390	16.7	97.9
2025-08-27T02:19	10	0	0.1	0	0	390	0.2	390	391	16.7	98.0
2025-08-27T02:20	10	0	0.1	0	0	391	0.2	390	391	16.7	98.2
2025-08-27T02:21	10	0	0.1	0	0	391	0.2	391	391	16.6	98.3
2025-08-27T02:22	10	0	0.1	0	0	391	0.2	391	392	16.7	98.1
2025-08-27T02:23	10	0	0.1	0	0	391	0.2	390	392	16.8	98.0
2025-08-27T02:24	10	0	0.1	0	0	391	0.3	390	391	16.8	97.8
2025-08-27T02:25	10	0	0.1	0	0	391	0.2	390	391	16.8	97.7
2025-08-27T02:26	10	0	0.1	0	0	390	0.3	390	391	16.8	97.6
2025-08-27T02:27	10	0	0.1	0	0	390	0.2	390	391	16.8	97.5
2025-08-27T02:28	10	0	0.1	0	0	390	0.3	389	390	16.9	97.5
2025-08-27T02:29	10	0	0.1	0	1	389	0.3	389	390	16.9	97.5
2025-08-27T02:30	10	0	0.1	0	0	389	0.2	389	389	16.9	97.5
2025-08-27T02:31	10	0	0.1	0	0	389	0.2	389	389	16.9	97.4
2025-08-27T02:32	10	0	0.1	0	0	389	0.3	388	390	16.9	97.3
2025-08-27T02:33	10	0	0.1	0	0	389	0.2	388	389	16.9	97.3
2025-08-27T02:34	10	0	0.1	0	1	388	0.2	388	389	16.9	97.3
2025-08-27T02:35	10	0	0.1	0	0	388	0.2	388	389	16.9	97.2
2025-08-27T02:36	10	0	0.2	0	0	389	0.3	388	389	16.9	97.1
2025-08-27T02:37	10	0	0.1	0	0	389	0.3	388	389	16.9	97.1
2025-08-27T02:38	10	0	0.2	0	1	389	0.2	388	389	16.9	97.1
2025-08-27T02:39	10	0	0.1	0	0	389	0.2	388	389	16.9	97.1
2025-08-27T02:40	10	0	0.1	0	0	389	0.3	389	390	16.8	97.3
2025-08-27T02:41	10	0	0.2	0	0	389	0.2	389	390	16.8	97.3
2025-08-27T02:42	10	0	0.1	0	0	389	0.3	389	390	16.8	97.5
2025-08-27T02:43	10	0	0.1	0	0	390	0.3	389	390	16.8	97.6
2025-08-27T02:44	10	0	0.1	0	0	390	0.3	389	391	16.8	97.5
2025-08-27T02:45	10	0	0.2	0	0	390	0.3	389	391	16.8	97.5
2025-08-27T02:46	10	0	0.1	0	0	390	0.2	390	391	16.8	97.6
2025-08-27T02:47	10	0	0.2	0	1	390	0.3	390	391	16.7	97.7
2025-08-27T02:48	10	0	0.2	0	0	390	0.2	389	391	16.7	97.8
2025-08-27T02:49	10	0	0.1	0	1	390	0.3	389	391	16.7	98.0
2025-08-27T02:50	10	0	0.1	0	0	390	0.2	390	391	16.7	98.1
2025-08-27T02:51	10	0	0.1	0	0	390	0.3	389	391	16.7	98.0
2025-08-27T02:52	10	0	0.2	0	0	390	0.2	389	390	16.7	97.9
2025-08-27T02:53	10	0	0.1	0	0	390	0.3	389	390	16.7	98.0
2025-08-27T02:54	10	0	0.1	0	1	389	0.3	388	390	16.7	98.1
2025-08-27T02:55	10	0	0.1	0	0	389	0.2	389	389	16.7	98.0
2025-08-27T02:56	10	0	0.1	0	0	388	0.3	388	389	16.7	98.1
2025-08-27T02:57	10	0	0.2	0	1	388	0.3	387	389	16.7	98.1
2025-08-27T02:58	10	0	0.1	0	0	388	0.2	388	389	16.7	98.1
2025-08-27T02:59	10	0	0.2	0	1	388	0.3	388	389	16.7	98.3
2025-08-27T03:00	10	0	0.2	0	1	388	0.2	388	389	16.7	98.4
2025-08-27T03:01	10	0	0.2	0	1	388	0.2	388	389	16.7	98.5
2025-08-27T03:02	10	0	0.1	0	0	388	0.2	388	389	16.7	98.7
2025-08-27T03:03	10	0	0.1	0	0	388	0.2	388	389	16.7	98.3
2025-08-27T03:04	10	0	0.1	0	0	388	0.2	388	389	16.7	98.3
2025-08-27T03:05	10	0	0.2	0	0	388	0.2	388	389	16.7	98.2
2025-08-27T03:06	10	0	0.2	0	0	388	0.2	388	389	16.7	98.3
2025-08-27T03:07	10	0	0.1	0	0	388	0.3	387	389	16.7	98.5
2025-08-27T03:08	10	0	0.1	0	0	388	0.2	387	388	16.7	99.1
2025-08-27T03:09	10	0	0.2	0	1	387	0.2	387	388	16.7	98.6
2025-08-27T03:10	10	0	0.2	0	1	387	0.2	387	388	16.7	98.2
2025-08-27T03:11	10	0	0.1	0	0	387	0.3	386	388	16.7	98.2
2025-08-27T03:12	10	0	0.2	0	1	387	0.2	387	388	16.6	98.3
2025-08-27T03:13	10	0	0.1	0	0	387	0.3	387	388	16.5	98.4
2025-08-27T03:14	10	0	0.1	0	0	387	0.2	387	388	16.5	98.4
2025-08-27T03:15	10	0	0.1	0	0	387	0.3	387	388	16.5	98.5
2025-08-27T03:16	10	0	0.2	0	0	387	0.2	387	388	16.5	98.6
2025-08-27T03:17	10	0	0.1	0	0	387	0.2	386	387	16.6	98.5
2025-08-27T03:18	10	0	0.1	0	0	386	0.3	385	387	16.6	98.5
2025-08-27T03:19	10	0	0.1	0	0	386	0.3	385	386	16.6	98.5
2025-08-27T03:20	10	0	0.2	0	1	385	0.3	385	386	16.6	98.7
2025-08-27T03:21	10	0	0.1	0	0	385	0.2	385	386	16.5	98.8
2025-08-27T03:22	10	0	0.1	0	0	385	0.2	385	386	16.6	98.7
2025-08-27T03:23	10	0	0.1	0	0	385	0.2	385	386	16.6	98.7
2025-08-27T03:24	10	0	0.1	0	0	385	0.2	384	386	16.6	98.7
2025-08-27T03:25	10	0	0.1	0	0	385	0.2	385	386	16.6	98.9
2025-08-27T03:26	10	0	0.1	0	0	386	0.3	385	386	16.5	99.3
2025-08-27T03:27	10	0	0.1	0	1	386	0.3	386	387	16.5	99.2
2025-08-27T03:28	10	0	0.1	0	0	386	0.2	386	387	16.4	99.0
2025-08-27T03:29	10	0	0.1	0	0	386	0.3	386	387	16.4	99.1
2025-08-27T03:30	10	0	0.1	0	0	387	0.2	386	387	16.3	99.1
2025-08-27T03:31	10	0	0.2	0	1	386	0.3	386	387	16.2	99.0
2025-08-27T03:32	10	0	0.1	0	0	386	0.2	386	387	16.2	99.0
2025-08-27T03:33	10	0	0.1	0	0	386	0.2	386	387	16.2	99.1
2025-08-27T03:34	10	0	0.1	0	0	386	0.2	386	387	16.1	99.2
2025-08-27T03:35	10	0	0.1	0	0	387	0.3	386	387	16.1	99.3
2025-08-27T03:36	10	0	0.1	0	0	387	0.2	386	387	16.1	99.4
2025-08-27T03:37	10	0	0.0	0	0	387	0.2	387	387	16.1	99.3
2025-08-27T03:38	10	0	0.1	0	1	387	0.2	387	388	16.2	99.4
2025-08-27T03:39	10	0	0.1	0	0	387	0.2	386	387	16.2	99.5
2025-08-27T03:40	10	0	0.1	0	0	387	0.2	387	387	16.1	99.6
2025-08-27T03:41	10	0	0.1	0	0	387	0.2	386	387	16.1	99.6
2025-08-27T03:42	10	0	0.1	0	0	386	0.3	386	387	16.1	99.6
2025-08-27T03:43	10	0	0.1	0	0	387	0.2	386	387	16.1	99.5
2025-08-27T03:44	10	0	0.1	0	0	387	0.2	386	387	16.2	99.4
2025-08-27T03:45	10	0	0.0	0	0	387	0.2	386	387	16.1	99.5
2025-08-27T03:46	10	0	0.0	0	0	387	0.2	386	387	16.1	99.4
2025-08-27T03:47	10	0	0.0	0	0	387	0.2	386	387	16.1	99.2
2025-08-27T03:48	10	0	0.0	0	0	387	0.2	386	387	16.0	99.3
2025-08-27T03:49	10	0	0.0	0	0	386	0.2	386	387	16.0	99.4
2025-08-27T03:50	10	0	0.0	0	0	386	0.2	386	387	16.0	99.3
2025-08-27T03:51	10	0	0.1	0	0	386	0.2	385	386	16.0	99.3
2025-08-27T03:52	10	0	0.0	0	0	386	0.2	385	386	16.0	99.2
2025-08-27T03:53	10	0	0.0	0	0	386	0.2	385	386	16.1	99.1
2025-08-27T03:54	10	0	0.1	0	0	386	0.2	385	386	16.0	99.3
2025-08-27T03:55	10	0	0.1	0	0	385	0.3	385	386	16.1	99.2
2025-08-27T03:56	10	0	0.1	0	0	385	0.3	385	386	16.1	99.2
2025-08-27T03:57	10	0	0.1	0	0	386	0.3	385	386	16.1	99.1
2025-08-27T03:58	10	0	0.1	0	0	386	0.3	385	386	16.1	99.2
2025-08-27T03:59	10	0	0.1	0	0	386	0.2	385	386	16.1	99.2
2025-08-27T04:00	10	0	0.1	0	0	386	0.2	385	386	16.1	99.1
2025-08-27T04:01	10	0	0.1	0	0	386	0.2	385	386	16.1	99.3
2025-08-27T04:02	10	0	0.1	0	0	385	0.2	385	386	16.0	99.3
2025-08-27T04:03	10	0	0.1	0	0	385	0.2	384	386	16.0	99.2
2025-08-27T04:04	10	0	0.0	0	0	386	0.2	385	386	16.0	99.3
2025-08-27T04:05	10	0	0.1	0	0	386	0.2	385	386	16.1	99.3
2025-08-27T04:06	10	0	0.1	0	0	386	0.2	385	386	16.1	99.2
2025-08-27T04:07	10	0	0.1	0	0	385	0.2	385	386	16.1	99.2
2025-08-27T04:08	10	0	0.7	0	5	385	0.2	385	386	16.1	99.0
2025-08-27T04:09	10	0	0.1	0	0	385	0.2	385	386	16.2	99.0
2025-08-27T04:10	10	0	0.1	0	0	385	0.3	385	386	16.2	98.8
2025-08-27T04:11	10	0	0.1	0	0	385	0.2	385	386	16.2	98.7
2025-08-27T04:12	10	0	0.1	0	0	385	0.2	385	386	16.2	98.7
2025-08-27T04:13	10	0	0.0	0	0	385	0.2	385	386	16.1	98.7
2025-08-27T04:14	10	0	0.1	0	0	385	0.2	385	386	16.1	98.7
2025-08-27T04:15	10	0	0.1	0	0	385	0.3	384	385	15.9	98.8
2025-08-27T04:16	10	0	0.1	0	0	385	0.2	384	385	15.8	98.8
2025-08-27T04:17	10	0	0.1	0	0	384	0.3	384	385	15.9	98.8
2025-08-27T04:18	10	0	0.0	0	0	384	0.2	383	385	15.8	98.9
2025-08-27T04:19	10	0	0.0	0	0	384	0.2	384	384	15.8	99.0
2025-08-27T04:20	10	0	0.0	0	0	384	0.3	383	385	15.7	99.0
2025-08-27T04:21	10	0	0.0	0	0	384	0.3	384	385	15.8	98.9
2025-08-27T04:22	10	0	0.1	0	0	384	0.3	384	385	15.8	99.2
2025-08-27T04:23	10	0	0.1	0	0	385	0.2	384	385	15.8	99.1
2025-08-27T04:24	10	0	0.1	0	0	384	0.2	384	385	15.8	99.2
2025-08-27T04:25	10	0	0.1	0	0	384	0.2	384	385	15.8	99.3
2025-08-27T04:26	10	0	0.0	0	0	384	0.2	384	384	15.9	99.1
2025-08-27T04:27	10	0	0.1	0	0	384	0.3	383	384	15.8	99.3
2025-08-27T04:28	10	0	0.1	0	0	384	0.3	383	384	15.9	99.1
2025-08-27T04:29	10	0	0.1	0	0	384	0.2	383	384	16.0	99.2
2025-08-27T04:30	10	0	0.1	0	0	383	0.3	382	384	15.9	99.5
2025-08-27T04:31	10	0	0.1	0	0	383	0.2	383	384	15.9	99.0
2025-08-27T04:32	10	0	0.1	0	0	383	0.3	383	384	15.9	98.8
2025-08-27T04:33	10	0	0.1	0	0	383	0.2	383	383	16.0	98.8
2025-08-27T04:34	10	0	0.1	0	0	383	0.3	382	383	16.1	98.6
2025-08-27T04:35	10	0	0.1	0	0	383	0.4	382	383	16.1	98.4
2025-08-27T04:36	10	0	0.0	0	0	383	0.2	382	383	16.1	98.6
2025-08-27T04:37	10	0	0.1	0	0	383	0.3	382	383	16.1	98.5
2025-08-27T04:38	10	0	0.1	0	0	382	0.3	382	383	16.1	98.7
2025-08-27T04:39	10	0	0.1	0	1	382	0.3	381	383	15.8	98.3
2025-08-27T04:40	10	0	0.1	0	1	382	0.3	382	383	15.8	98.2
2025-08-27T04:41	10	0	0.1	0	1	383	0.2	382	383	15.9	98.5
2025-08-27T04:42	10	0	0.1	0	1	383	0.2	382	383	15.8	98.6
2025-08-27T04:43	10	0	0.1	0	1	383	0.3	382	384	15.9	98.3
2025-08-27T04:44	10	0	0.1	0	1	383	0.2	383	384	16.0	98.4
2025-08-27T04:45	10	0	0.1	0	1	383	0.2	383	384	15.8	98.6
2025-08-27T04:46	10	1	0.5	0	4	384	0.3	383	384	15.8	98.6
2025-08-27T04:47	10	1	0.1	0	1	384	0.2	383	384	15.8	98.8
2025-08-27T04:48	10	1	0.1	0	1	384	0.2	383	384	15.8	99.1
2025-08-27T04:49	10	1	0.1	0	1	384	0.2	383	384	15.7	99.3
2025-08-27T04:50	10	1	0.1	1	1	384	0.4	383	385	15.7	99.1
2025-08-27T04:51	10	1	0.1	1	1	385	0.3	384	385	15.7	99.2
2025-08-27T04:52	10	1	0.1	1	1	385	0.2	384	385	15.6	99.4
2025-08-27T04:53	10	1	0.1	1	1	384	0.2	384	385	15.6	99.5
2025-08-27T04:54	10	1	0.1	1	1	384	0.2	384	385	15.6	99.6
2025-08-27T04:55	10	1	0.1	1	1	384	0.2	384	384	15.6	99.7
2025-08-27T04:56	10	1	0.1	1	1	384	0.3	383	385	15.5	99.6
2025-08-27T04:57	10	1	0.1	1	2	385	0.2	384	385	15.5	99.6
2025-08-27T04:58	10	2	0.1	1	2	385	0.2	384	385	15.5	99.5
2025-08-27T04:59	10	2	0.1	2	2	385	0.2	385	386	15.5	99.5
2025-08-27T05:00	10	2	0.1	2	2	385	0.2	384	385	15.5	99.4
2025-08-27T05:01	10	2	0.1	2	2	385	0.2	384	385	15.5	99.5
2025-08-27T05:02	10	2	0.1	2	3	385	0.2	384	385	15.5	99.7
2025-08-27T05:03	10	3	0.1	2	3	384	0.2	384	385	15.5	99.9
2025-08-27T05:04	10	3	0.1	3	3	384	0.2	384	385	15.4	99.8
2025-08-27T05:05	10	3	0.1	3	3	384	0.2	384	384	15.4	99.7
2025-08-27T05:06	10	3	0.1	3	3	384	0.4	383	385	15.4	99.7
2025-08-27T05:07	10	4	0.1	3	4	385	0.2	384	385	15.5	99.7
2025-08-27T05:08	10	4	0.1	3	4	385	0.3	384	386	15.5	99.4
2025-08-27T05:09	10	4	0.1	4	4	386	0.5	385	387	15.5	99.1
2025-08-27T05:10	10	4	0.3	4	5	387	0.3	386	388	15.5	99.2
2025-08-27T05:11	10	5	0.4	5	6	387	0.2	387	388	15.4	99.5
2025-08-27T05:12	10	5	0.3	4	5	388	0.2	387	388	15.4	99.8
2025-08-27T05:13	10	4	0.1	4	4	388	0.3	388	389	15.4	100.0
2025-08-27T05:14	10	4	0.1	4	4	389	0.3	388	389	15.4	100.4
2025-08-27T05:15	10	4	0.1	4	4	389	0.3	389	390	15.4	100.8
2025-08-27T05:16	10	4	0.1	4	5	390	0.2	389	390	15.4	101.1
2025-08-27T05:17	10	5	0.1	4	5	390	0.2	389	390	15.4	101.2
2025-08-27T05:18	10	5	0.2	5	5	390	0.2	389	390	15.5	101.1
2025-08-27T05:19	10	5	0.1	5	5	390	0.2	389	390	15.5	101.2
2025-08-27T05:20	10	5	0.1	5	6	390	0.3	389	390	15.5	101.3
2025-08-27T05:21	10	5	0.2	5	6	390	0.2	390	390	15.5	101.3
2025-08-27T05:22	10	6	0.2	6	6	390	0.2	390	391	15.5	101.3
2025-08-27T05:23	10	6	0.1	6	6	391	0.2	390	391	15.5	101.4
2025-08-27T05:24	10	6	0.2	6	7	391	0.2	390	391	15.5	101.3
2025-08-27T05:25	10	7	0.2	6	7	390	0.2	390	391	15.5	101.2
2025-08-27T05:26	10	7	0.2	7	8	391	0.2	390	391	15.5	101.3
2025-08-27T05:27	10	8	0.3	7	8	391	0.3	391	392	15.5	101.1
2025-08-27T05:28	10	9	0.2	8	9	391	0.3	391	392	15.5	101.1
2025-08-27T05:29	10	9	0.1	9	9	392	0.2	391	392	15.5	101.1
2025-08-27T05:30	10	9	0.2	8	9	392	0.3	391	392	15.4	101.3
2025-08-27T05:31	10	10	0.2	9	10	391	0.3	391	392	15.4	101.3
2025-08-27T05:32	10	9	0.2	9	10	391	0.2	391	392	15.4	101.3
2025-08-27T05:33	10	10	0.4	9	11	391	0.2	391	392	15.4	101.4
2025-08-27T05:34	10	10	0.3	10	11	391	0.2	391	392	15.4	101.2
2025-08-27T05:35	10	10	0.1	9	10	391	0.2	391	392	15.4	101.1
2025-08-27T05:36	10	10	0.2	9	10	391	0.2	391	392	15.3	101.1
2025-08-27T05:37	10	9	0.2	9	10	392	0.3	391	392	15.3	101.1
2025-08-27T05:38	10	10	0.7	9	11	392	0.3	391	392	15.4	101.1
2025-08-27T05:39	10	11	0.1	11	12	392	0.2	392	392	15.4	100.9
2025-08-27T05:40	10	12	0.3	11	12	392	0.2	391	392	15.3	100.9
2025-08-27T05:41	10	10	0.4	10	11	392	0.2	391	392	15.3	100.8
2025-08-27T05:42	10	9	0.7	8	10	391	0.2	391	392	15.3	100.7
2025-08-27T05:43	10	8	0.1	8	9	391	0.3	391	392	15.3	100.8
2025-08-27T05:44	10	8	0.1	8	9	391	0.2	391	392	15.4	100.8
2025-08-27T05:45	10	9	0.7	8	11	391	0.3	390	392	15.4	100.8
2025-08-27T05:46	10	13	1.1	11	15	391	0.3	391	392	15.5	100.9
2025-08-27T05:47	10	15	0.2	15	16	391	0.3	391	392	15.5	100.8
2025-08-27T05:48	10	15	0.1	15	15	392	0.3	391	393	15.5	100.6
2025-08-27T05:49	10	14	1.7	11	16	392	0.2	392	392	15.5	100.6
2025-08-27T05:50	10	10	0.1	10	11	392	0.3	392	393	15.6	100.5
2025-08-27T05:51	10	11	1.1	10	14	392	0.2	392	392	15.6	100.5
2025-08-27T05:52	10	19	1.7	14	20	392	0.4	392	393	15.6	100.6
2025-08-27T05:53	10	19	1.2	16	20	393	0.4	392	394	15.7	100.5
2025-08-27T05:54	10	14	1.1	12	16	393	0.2	393	393	15.7	100.5
2025-08-27T05:55	10	17	1.2	15	19	394	0.2	393	394	15.7	100.5
2025-08-27T05:56	10	14	1.1	12	16	394	0.2	393	394	15.8	100.5
2025-08-27T05:57	10	16	1.4	14	19	394	0.3	393	395	15.8	100.7
2025-08-27T05:58	10	21	1.6	19	26	394	0.3	394	395	15.8	100.4
2025-08-27T05:59	10	25	0.4	24	25	395	0.3	394	396	15.7	100.3
2025-08-27T06:00	10	25	0.6	24	26	396	0.3	395	396	15.8	100.2
2025-08-27T06:01	10	26	0.6	24	26	396	0.2	396	397	15.8	100.2
2025-08-27T06:02	10	20	3.4	13	23	396	0.3	395	397	15.8	100.1
2025-08-27T06:03	10	19	4.9	13	26	396	0.3	395	396	15.8	100.3
2025-08-27T06:04	10	22	2.1	18	25	396	0.3	395	397	15.9	100.3
2025-08-27T06:05	10	23	1.2	20	24	396	0.2	396	397	15.8	100.3
2025-08-27T06:06	10	19	0.7	18	20	396	0.2	396	397	15.8	100.2
2025-08-27T06:07	10	22	1.7	20	25	396	0.2	396	397	15.8	100.1
2025-08-27T06:08	10	18	2.4	16	24	396	0.3	396	397	15.8	100.2
2025-08-27T06:09	10	18	0.4	17	19	396	0.2	396	396	15.8	100.1
2025-08-27T06:10	10	21	1.9	16	23	396	0.3	395	397	15.9	100.1
2025-08-27T06:11	10	22	6.2	14	31	397	0.4	396	397	15.9	100.1
2025-08-27T06:12	10	30	1.4	28	31	398	0.3	397	398	15.9	100.0
2025-08-27T06:13	10	29	2.0	23	31	397	0.3	397	398	15.9	100.1
2025-08-27T06:14	10	24	2.8	20	28	397	0.2	396	397	15.8	100.0
2025-08-27T06:15	10	23	4.1	18	30	397	0.3	396	397	15.8	100.0
2025-08-27T06:16	10	30	0.4	29	31	397	0.3	396	398	15.8	99.9
2025-08-27T06:17	10	27	1.0	25	29	397	0.3	396	398	15.9	100.2
2025-08-27T06:18	10	31	2.5	26	33	398	0.4	397	399	15.9	100.3
2025-08-27T06:19	10	29	2.8	25	33	399	0.3	398	399	15.9	100.3
2025-08-27T06:20	10	33	3.1	27	36	399	0.4	398	400	16.0	100.4
2025-08-27T06:21	10	38	3.2	35	43	400	0.7	399	401	16.1	100.2
2025-08-27T06:22	10	40	0.8	39	42	401	0.2	400	402	16.0	100.6
2025-08-27T06:23	10	43	1.0	41	45	401	0.3	401	402	16.0	100.6
2025-08-27T06:24	10	41	1.6	39	44	402	0.3	401	403	16.0	100.6
2025-08-27T06:25	10	44	1.0	42	45	403	0.4	402	404	16.0	100.4
2025-08-27T06:26	10	43	1.3	42	46	403	0.4	402	404	16.0	100.4
2025-08-27T06:27	10	47	0.8	45	47	404	0.5	403	406	16.0	100.2
2025-08-27T06:28	10	48	0.7	47	50	405	0.3	405	406	16.2	100.2
2025-08-27T06:29	10	49	0.6	47	50	407	0.5	406	407	16.2	100.4
2025-08-27T06:30	10	46	0.7	45	47	407	0.3	406	407	16.2	100.3
2025-08-27T06:31	10	47	0.9	45	48	407	0.2	406	407	16.2	100.2
2025-08-27T06:32	10	40	2.6	37	45	407	0.4	406	407	16.2	100.2
2025-08-27T06:33	10	33	1.6	31	37	406	0.4	405	407	16.3	100.1
2025-08-27T06:34	10	29	2.0	25	31	405	0.8	404	406	16.5	99.9
2025-08-27T06:35	10	25	0.5	23	25	404	0.5	403	405	16.4	100.1
2025-08-27T06:36	10	24	1.6	23	28	403	0.2	402	403	16.3	100.1
2025-08-27T06:37	10	29	1.0	27	30	402	0.3	401	403	16.3	100.0
2025-08-27T06:38	10	28	1.1	26	29	403	0.3	402	403	16.3	99.9
2025-08-27T06:39	10	24	2.4	21	28	402	0.3	401	403	16.3	100.0
2025-08-27T06:40	10	20	1.3	18	22	401	0.2	401	402	16.3	100.0
2025-08-27T06:41	10	19	1.5	16	21	401	0.3	401	402	16.3	100.1
2025-08-27T06:42	10	17	1.2	15	19	400	0.3	400	401	16.3	100.1
2025-08-27T06:43	10	15	0.1	15	15	400	0.2	400	401	16.3	100.2
2025-08-27T06:44	10	15	0.2	15	16	400	0.3	400	401	16.4	100.1
2025-08-27T06:45	10	16	0.4	16	17	400	0.2	400	401	16.4	100.0
2025-08-27T06:46	10	17	0.2	17	18	401	0.2	400	401	16.4	99.8
2025-08-27T06:47	10	18	0.2	17	18	400	0.2	400	401	16.3	99.9
2025-08-27T06:48	10	19	0.4	18	19	401	0.3	400	401	16.3	99.8
2025-08-27T06:49	10	20	0.5	20	22	401	0.3	400	401	16.3	99.8
2025-08-27T06:50	10	28	3.7	21	34	402	0.6	401	403	16.3	99.7
2025-08-27T06:51	10	30	4.7	23	37	403	0.7	401	404	16.3	99.7
2025-08-27T06:52	10	27	2.1	25	34	403	0.3	403	404	16.4	99.6
2025-08-27T06:53	10	34	2.4	28	37	404	0.5	403	405	16.4	99.7
2025-08-27T06:54	10	43	2.5	37	47	405	0.7	404	407	16.4	99.5
2025-08-27T06:55	10	36	5.2	29	45	406	0.6	405	408	16.5	99.4
2025-08-27T06:56	10	34	3.7	29	40	405	0.2	405	406	16.5	99.6
2025-08-27T06:57	10	46	7.7	31	54	407	0.9	405	408	16.5	99.4
2025-08-27T06:58	10	38	4.0	32	44	407	0.5	406	408	16.5	99.3
2025-08-27T06:59	10	34	2.0	31	39	407	0.4	406	408	16.5	99.1
2025-08-27T07:00	10	40	6.1	32	52	408	0.5	406	408	16.6	99.0
2025-08-27T07:01	10	51	1.4	49	54	409	0.4	408	409	16.6	98.9
2025-08-27T07:02	10	49	2.2	47	54	409	0.3	408	410	16.6	98.7
2025-08-27T07:03	10	52	1.9	48	55	410	0.6	408	411	16.7	98.7
2025-08-27T07:04	10	54	0.9	52	55	411	0.3	410	412	16.9	98.5
2025-08-27T07:05	10	51	1.5	48	53	410	0.4	410	411	16.8	98.7
2025-08-27T07:06	10	34	4.6	31	48	409	0.9	408	411	16.7	98.5
2025-08-27T07:07	10	23	2.9	21	31	408	0.7	406	409	16.8	98.3
2025-08-27T07:08	10	20	0.2	20	21	406	0.7	405	407	16.9	98.4
2025-08-27T07:09	10	31	5.8	21	38	405	0.5	404	406	16.8	98.3
2025-08-27T07:10	10	39	2.7	36	44	406	0.4	406	407	16.8	98.2
2025-08-27T07:11	10	45	0.8	44	48	407	0.3	407	408	16.7	98.2
2025-08-27T07:12	10	50	3.6	43	54	409	0.6	407	409	16.8	98.1
2025-08-27T07:13	10	44	1.8	42	48	408	0.3	408	409	16.8	98.3
2025-08-27T07:14	10	49	5.6	42	57	409	0.5	408	410	16.8	98.2
2025-08-27T07:15	10	57	2.3	53	60	410	0.4	410	411	16.8	98.3
2025-08-27T07:16	10	52	1.8	49	55	411	0.2	410	411	16.8	98.1
2025-08-27T07:17	10	55	3.2	51	60	412	0.7	410	413	16.9	98.1
2025-08-27T07:18	10	49	2.4	46	54	412	0.3	411	413	17.0	98.5
2025-08-27T07:19	10	62	3.2	54	67	413	0.8	411	414	17.0	98.2
2025-08-27T07:20	10	64	3.7	57	68	414	0.3	413	414	17.1	98.3
2025-08-27T07:21	10	59	6.1	51	70	414	0.4	413	414	17.0	98.0
2025-08-27T07:22	10	51	4.8	44	59	412	0.5	411	414	17.0	97.8
2025-08-27T07:23	10	52	1.5	49	54	412	0.3	411	413	17.0	97.4
2025-08-27T07:24	10	56	2.8	52	61	413	0.6	412	414	17.0	96.8
2025-08-27T07:25	10	54	3.8	49	62	414	0.4	413	415	17.3	97.1
2025-08-27T07:26	10	57	7.9	42	65	415	0.4	414	416	17.4	97.6
2025-08-27T07:27	10	46	5.3	36	54	414	0.8	413	416	17.4	97.2
2025-08-27T07:28	10	48	10.1	34	67	413	0.4	412	414	17.3	96.5
2025-08-27T07:29	10	68	1.0	65	70	415	0.5	413	415	17.4	95.8
2025-08-27T07:30	10	64	1.9	61	68	415	0.2	415	416	17.4	94.9
2025-08-27T07:31	10	61	1.3	58	63	415	0.3	415	416	17.4	93.9
2025-08-27T07:32	10	57	8.0	42	67	416	0.6	415	417	17.5	93.8
2025-08-27T07:33	10	64	3.0	57	67	417	0.4	416	418	17.7	94.1
2025-08-27T07:34	10	49	10.4	36	64	416	1.1	414	417	17.7	93.5
2025-08-27T07:35	10	48	9.4	36	60	415	0.5	414	416	17.8	93.9
2025-08-27T07:36	10	65	2.1	59	71	417	0.6	416	418	17.8	94.0
2025-08-27T07:37	10	65	2.6	62	72	418	0.2	417	418	17.8	93.9
2025-08-27T07:38	10	60	2.6	54	65	418	0.2	418	418	17.8	93.6
2025-08-27T07:39	10	60	3.9	54	69	419	0.3	418	419	17.8	94.2
2025-08-27T07:40	10	66	4.9	58	72	419	0.3	418	420	17.8	93.9
2025-08-27T07:41	10	71	1.8	67	73	419	0.5	419	421	17.8	93.5
2025-08-27T07:42	10	65	9.8	41	73	421	0.5	419	421	17.9	93.0
2025-08-27T07:43	10	43	3.0	37	49	417	1.0	416	420	18.0	93.2
2025-08-27T07:44	10	59	3.8	50	66	418	0.8	416	419	17.9	93.0
2025-08-27T07:45	10	59	2.8	55	66	420	0.4	419	420	18.0	92.1
2025-08-27T07:46	10	52	3.3	45	56	419	0.4	419	420	18.1	92.3
2025-08-27T07:47	10	54	3.1	46	58	420	0.6	419	421	18.1	92.3
2025-08-27T07:48	10	53	3.6	46	59	419	0.8	418	420	18.1	92.1
2025-08-27T07:49	10	45	8.6	28	56	418	0.6	416	419	18.1	92.3
2025-08-27T07:50	10	42	13.3	25	65	417	1.1	415	419	18.1	92.4
2025-08-27T07:51	10	60	13.1	39	76	418	1.1	417	420	18.1	92.1
2025-08-27T07:52	10	78	0.7	76	79	421	0.8	420	422	18.1	91.4
2025-08-27T07:53	10	75	1.6	73	78	423	0.4	422	424	18.2	91.4
2025-08-27T07:54	10	74	0.9	73	77	423	0.2	423	424	18.3	91.1
2025-08-27T07:55	10	80	1.7	77	82	425	0.7	423	426	18.5	91.7
2025-08-27T07:56	10	76	3.5	69	81	425	0.6	424	426	18.6	91.6
2025-08-27T07:57	10	76	3.4	71	80	425	0.4	424	426	18.5	89.3
2025-08-27T07:58	10	82	1.5	80	85	427	0.5	426	428	18.5	90.0
2025-08-27T07:59	10	76	5.1	65	83	427	0.3	426	428	18.6	89.8
2025-08-27T08:00	10	76	7.9	65	87	427	0.5	426	428	18.7	89.1
2025-08-27T08:01	10	76	2.6	71	80	427	0.4	427	428	18.6	88.8
2025-08-27T08:02	10	81	2.8	77	86	428	0.6	427	429	18.7	88.4
2025-08-27T08:03	10	74	2.4	70	80	427	0.4	426	428	18.7	88.1
2025-08-27T08:04	10	78	2.3	74	82	428	0.4	427	429	18.7	88.5
2025-08-27T08:05	10	72	2.2	68	75	428	0.3	428	429	18.8	88.9
2025-08-27T08:06	10	60	3.7	54	67	426	1.5	424	429	18.8	88.9
2025-08-27T08:07	10	75	6.2	60	82	426	0.8	425	427	18.7	88.3
2025-08-27T08:08	10	48	5.3	40	59	425	1.4	422	427	18.7	88.4
2025-08-27T08:09	10	48	4.0	40	57	423	0.3	422	423	18.8	88.6
2025-08-27T08:10	10	63	7.9	53	76	425	1.1	423	427	18.8	88.7
2025-08-27T08:11	10	73	6.3	61	83	427	0.3	426	428	18.9	87.5
2025-08-27T08:12	10	71	3.4	66	76	427	0.5	426	428	18.8	85.5
2025-08-27T08:13	10	69	3.6	61	73	427	0.4	426	428	18.8	85.4
2025-08-27T08:14	10	86	6.2	73	95	429	1.5	426	432	18.8	85.0
2025-08-27T08:15	10	92	2.3	86	95	432	0.3	431	432	18.8	85.3
2025-08-27T08:16	10	94	2.7	89	98	433	0.7	432	434	18.9	85.3
2025-08-27T08:17	10	75	5.0	68	87	433	0.7	431	434	19.1	85.2
2025-08-27T08:18	10	94	6.5	78	102	433	1.4	431	435	19.3	84.4
2025-08-27T08:19	10	87	17.2	44	102	436	1.0	433	437	19.7	82.7
2025-08-27T08:20	10	55	22.7	42	110	430	1.6	429	434	19.9	81.2
2025-08-27T08:21	10	106	7.0	93	112	436	1.5	433	438	19.8	81.4
2025-08-27T08:22	10	68	20.7	47	110	434	2.5	431	439	19.9	80.8
2025-08-27T08:23	10	72	27.5	44	113	434	2.3	430	438	19.9	81.3
2025-08-27T08:24	10	45	0.8	44	47	430	0.6	429	432	20.1	80.4
2025-08-27T08:25	10	45	1.6	43	49	429	1.1	427	431	20.2	81.6
2025-08-27T08:26	10	44	1.1	43	47	427	0.8	425	428	19.9	81.3
2025-08-27T08:27	10	43	0.2	42	43	427	0.2	426	427	19.7	81.8
2025-08-27T08:28	10	45	1.5	43	48	427	0.4	426	428	19.7	82.5
2025-08-27T08:29	10	56	13.1	46	93	429	0.9	428	432	19.8	82.8
2025-08-27T08:30	10	63	22.2	45	109	432	1.3	430	434	19.8	82.5
2025-08-27T08:31	10	52	7.2	45	69	431	0.7	430	432	19.8	82.2
2025-08-27T08:32	10	84	26.3	49	114	432	2.8	429	437	19.7	81.2
2025-08-27T08:33	10	112	1.6	107	114	438	1.0	436	440	19.7	80.3
2025-08-27T08:34	10	108	1.2	105	111	440	0.4	439	441	19.7	80.3
2025-08-27T08:35	10	111	0.6	110	112	441	0.5	440	442	19.7	81.0
2025-08-27T08:36	10	111	0.6	110	112	442	0.4	442	443	19.8	80.7
2025-08-27T08:37	10	110	1.3	106	112	442	0.3	442	443	19.9	80.7
2025-08-27T08:38	10	108	4.9	93	112	442	0.6	441	443	19.8	79.8
2025-08-27T08:39	10	103	9.9	81	113	441	0.6	440	442	19.9	79.6
2025-08-27T08:40	10	111	1.7	107	114	443	0.6	442	444	20.0	79.8
2025-08-27T08:41	10	100	6.6	84	113	444	1.2	442	446	20.2	80.3
2025-08-27T08:42	10	98	7.7	85	112	442	0.9	440	443	20.0	78.8
2025-08-27T08:43	10	112	1.9	106	113	443	1.0	441	444	19.4	79.0
2025-08-27T08:44	10	112	1.4	107	113	445	0.5	444	446	20.0	79.0
2025-08-27T08:45	10	110	1.9	106	113	446	0.5	445	447	20.0	79.0
2025-08-27T08:46	10	114	1.3	109	115	446	0.3	445	446	20.0	79.0
2025-08-27T08:47	10	116	0.5	115	117	447	0.6	446	449	20.0	79.0
2025-08-27T08:48	10	118	0.7	117	119	448	1.2	446	450	20.0	79.0
2025-08-27T08:49	10	118	3.5	107	120	447	0.6	446	449	20.0	79.0
2025-08-27T08:50	10	121	0.3	120	122	448	0.5	447	449	20.1	79.0
2025-08-27T08:51	10	122	0.8	121	124	450	1.0	448	452	20.3	79.6
2025-08-27T08:52	10	125	1.0	124	127	452	0.4	451	453	20.3	80.1
2025-08-27T08:53	10	128	0.7	127	130	452	0.4	450	452	20.3	80.5
2025-08-27T08:54	10	130	1.4	124	131	454	1.3	452	456	20.5	81.6
2025-08-27T08:55	10	131	1.9	124	132	454	1.4	452	456	20.5	82.1
2025-08-27T08:56	10	128	7.8	98	131	453	0.7	452	454	20.3	81.8
2025-08-27T08:57	10	114	14.0	90	131	452	1.3	450	454	20.2	81.3
2025-08-27T08:58	10	132	1.0	130	134	454	0.4	453	455	20.2	81.4
2025-08-27T08:59	10	134	0.7	133	136	453	0.4	452	454	20.0	81.1
2025-08-27T09:00	10	131	4.5	124	136	455	0.5	454	456	20.0	81.4
2025-08-27T09:01	10	127	2.0	122	130	455	0.5	454	456	20.2	81.6
2025-08-27T09:02	10	135	5.0	123	140	458	1.1	456	460	20.6	80.9
2025-08-27T09:03	10	142	1.1	140	144	460	0.9	458	462	20.5	79.7
2025-08-27T09:04	10	142	3.3	133	145	461	0.5	460	462	20.5	79.5
2025-08-27T09:05	10	145	0.2	144	145	463	0.4	462	464	20.9	79.8
2025-08-27T09:06	10	144	0.5	142	145	463	0.4	462	463	20.6	79.1
2025-08-27T09:07	10	141	3.8	132	145	461	0.9	460	463	20.4	79.4
2025-08-27T09:08	10	143	1.1	142	145	462	0.7	461	463	20.6	78.8
2025-08-27T09:09	10	113	21.9	74	144	460	2.9	453	464	20.9	77.2
2025-08-27T09:10	10	82	12.3	63	110	452	2.4	448	456	21.0	75.7
2025-08-27T09:11	10	71	10.3	59	93	450	1.3	447	451	21.2	75.0
2025-08-27T09:12	10	81	22.7	58	128	448	2.1	446	453	21.2	76.3
2025-08-27T09:13	10	93	10.2	77	114	451	1.1	449	453	21.1	77.6
2025-08-27T09:14	10	54	6.3	47	77	445	2.7	441	452	20.9	76.5
2025-08-27T09:15	10	44	1.5	42	47	440	1.0	438	442	20.7	77.3
2025-08-27T09:16	10	40	1.1	38	42	438	0.8	437	439	20.7	78.0
2025-08-27T09:17	10	37	0.7	36	38	437	0.3	437	438	20.7	78.4
2025-08-27T09:18	10	36	0.4	35	36	437	0.2	436	437	20.7	79.1
2025-08-27T09:19	10	34	0.3	34	35	436	0.3	435	436	20.8	79.1
2025-08-27T09:20	10	33	0.2	33	34	433	1.0	431	435	20.8	79.2
2025-08-27T09:21	10	33	0.1	33	33	432	0.3	431	433	20.6	78.6
2025-08-27T09:22	10	33	0.2	33	34	432	0.3	431	432	20.5	78.9
2025-08-27T09:23	10	34	0.6	33	35	432	0.4	431	433	20.5	78.8
2025-08-27T09:24	10	37	0.8	35	38	433	0.6	431	434	20.6	79.2
2025-08-27T09:25	10	39	0.4	38	39	433	0.2	433	434	20.6	79.0
2025-08-27T09:26	10	40	0.5	39	41	432	0.4	431	433	20.6	79.5
2025-08-27T09:27	10	41	0.2	41	42	433	0.7	431	434	20.6	79.7
2025-08-27T09:28	10	41	0.3	40	42	434	0.2	433	434	20.6	80.2
2025-08-27T09:29	10	39	0.6	38	41	432	0.6	431	434	20.5	80.0
2025-08-27T09:30	10	38	0.3	37	39	432	0.3	431	433	20.5	80.7
2025-08-27T09:31	10	37	0.4	36	38	432	0.4	431	433	20.5	80.9
2025-08-27T09:32	10	36	0.2	36	37	432	0.6	431	433	20.6	80.8
2025-08-27T09:33	10	35	0.5	34	36	431	0.5	430	432	20.5	80.9
2025-08-27T09:34	10	34	0.4	33	34	431	0.3	430	431	20.4	81.2
2025-08-27T09:35	10	33	0.2	32	33	431	0.5	430	431	20.5	81.7
2025-08-27T09:36	10	32	0.1	32	33	429	0.3	429	430	20.4	81.2
2025-08-27T09:37	10	33	0.4	32	34	428	0.4	428	429	20.4	81.3
2025-08-27T09:38	10	35	0.4	34	35	428	0.5	428	430	20.3	81.2
2025-08-27T09:39	10	36	0.4	35	37	430	0.3	429	430	20.4	81.6
2025-08-27T09:40	10	37	0.3	37	38	429	0.2	428	429	20.4	81.4
2025-08-27T09:41	10	39	0.7	38	40	430	0.8	429	432	20.4	81.6
2025-08-27T09:42	10	42	1.3	40	45	432	0.7	431	434	20.5	81.8
2025-08-27T09:43	10	41	0.1	41	41	433	0.3	432	434	20.6	82.0
2025-08-27T09:44	10	41	0.2	41	42	433	0.4	432	433	20.6	81.3
2025-08-27T09:45	10	40	0.3	40	41	433	0.4	432	434	20.5	81.5
2025-08-27T09:46	10	41	0.5	40	42	433	0.4	432	434	20.6	82.0
2025-08-27T09:47	10	42	0.4	41	43	433	0.3	432	434	20.5	81.6
2025-08-27T09:48	10	43	0.3	43	44	435	0.5	434	435	20.6	82.1
2025-08-27T09:49	10	44	0.4	44	45	434	0.8	432	435	20.6	81.6
2025-08-27T09:50	10	46	0.7	45	47	434	0.7	432	435	20.5	81.7
2025-08-27T09:51	10	48	0.3	47	49	435	0.4	434	436	20.5	81.3
2025-08-27T09:52	10	51	2.0	48	53	436	0.6	435	438	20.6	81.4
2025-08-27T09:53	10	50	2.6	46	54	437	0.5	436	438	20.6	80.9
2025-08-27T09:54	10	45	0.4	45	46	437	0.3	436	437	20.7	81.4
2025-08-27T09:55	10	47	1.9	45	51	436	0.5	435	437	20.7	80.6
2025-08-27T09:56	10	58	4.9	51	67	437	1.1	435	439	20.7	80.5
2025-08-27T09:57	10	82	31.5	55	138	441	4.0	438	450	20.7	80.5
2025-08-27T09:58	10	76	15.6	61	118	446	1.9	443	450	20.9	80.7
2025-08-27T09:59	10	85	21.0	59	118	446	2.2	443	450	20.9	79.9
2025-08-27T10:00	10	71	7.5	58	83	443	0.8	442	445	20.7	80.0
2025-08-27T10:01	10	89	34.0	57	140	445	3.6	441	453	20.9	79.9
2025-08-27T10:02	10	122	16.8	90	144	455	1.4	451	457	20.9	79.5
2025-08-27T10:03	10	131	11.4	106	150	459	1.8	456	462	21.1	79.6
2025-08-27T10:04	10	149	0.2	148	149	464	1.2	461	465	21.2	78.5
2025-08-27T10:05	10	149	0.2	149	149	466	1.3	464	469	21.5	78.6
2025-08-27T10:06	10	149	0.4	148	150	470	0.7	468	471	22.1	78.6
2025-08-27T10:07	10	147	2.1	142	150	470	1.0	467	471	21.9	76.8
2025-08-27T10:08	10	142	11.5	112	151	468	1.0	466	470	21.4	77.1
2025-08-27T10:09	10	117	20.7	83	150	465	2.9	461	470	21.4	77.9
2025-08-27T10:10	10	113	22.4	70	142	459	2.4	454	464	21.2	77.6
2025-08-27T10:11	10	135	13.3	107	152	463	1.7	461	466	21.1	77.9
2025-08-27T10:12	10	79	21.8	53	131	458	4.6	451	467	21.2	77.7
2025-08-27T10:13	10	51	1.8	49	54	449	1.9	447	453	21.2	77.7
2025-08-27T10:14	10	56	0.9	54	59	447	0.9	445	448	21.1	78.2
2025-08-27T10:15	10	56	0.8	55	57	446	0.3	446	447	21.2	78.9
2025-08-27T10:16	10	64	8.3	57	85	446	1.0	445	449	21.2	78.4
2025-08-27T10:17	10	67	2.8	64	73	448	0.3	447	449	21.2	78.3
2025-08-27T10:18	10	63	4.7	59	73	448	0.7	447	449	21.4	78.3
2025-08-27T10:19	10	62	3.4	55	68	448	0.4	447	449	21.4	77.5
2025-08-27T10:20	10	52	1.6	50	55	447	0.4	446	448	21.5	77.4
2025-08-27T10:21	10	48	0.9	46	50	446	0.5	445	447	21.5	78.4
2025-08-27T10:22	10	45	0.9	43	47	444	0.5	443	445	21.5	78.0
2025-08-27T10:23	10	42	1.0	40	43	442	0.6	441	443	21.5	77.9
2025-08-27T10:24	10	38	0.6	38	40	441	0.8	440	442	21.5	77.8
2025-08-27T10:25	10	39	0.6	38	40	441	0.6	440	442	21.4	77.7
2025-08-27T10:26	10	40	0.1	40	40	441	0.3	441	442	21.6	79.4
2025-08-27T10:27	10	40	0.3	40	41	441	0.5	440	442	21.6	77.9
2025-08-27T10:28	10	41	0.1	41	42	441	0.5	440	442	21.4	78.0
2025-08-27T10:29	10	42	0.1	42	42	441	0.3	440	442	21.4	78.7
2025-08-27T10:30	10	42	0.2	41	42	441	0.4	440	442	21.5	78.9
2025-08-27T10:31	10	42	0.5	42	43	441	0.4	440	441	21.6	77.5
2025-08-27T10:32	10	45	1.2	43	47	441	0.4	440	442	21.5	77.8
2025-08-27T10:33	10	51	1.8	47	53	442	0.6	441	443	21.5	77.4
2025-08-27T10:34	10	55	0.8	53	56	444	0.9	442	445	21.6	77.6
2025-08-27T10:35	10	56	0.1	56	56	445	0.4	444	446	21.5	77.6
2025-08-27T10:36	10	56	0.1	56	56	445	0.4	444	446	21.5	77.9
2025-08-27T10:37	10	56	0.2	56	57	446	0.4	445	446	21.6	78.4
2025-08-27T10:38	10	57	0.3	57	58	446	0.4	446	447	21.7	77.9
2025-08-27T10:39	10	58	0.2	58	58	447	0.2	446	447	21.6	77.8
2025-08-27T10:40	10	64	4.8	58	73	448	0.9	446	449	21.6	78.4
2025-08-27T10:41	10	66	1.9	64	72	450	0.2	449	450	21.8	78.6
2025-08-27T10:42	10	63	0.5	62	64	449	0.6	448	450	21.9	77.9
2025-08-27T10:43	10	63	0.3	62	63	448	0.3	448	449	21.9	76.4
2025-08-27T10:44	10	64	0.4	63	65	449	0.4	448	450	22.0	77.3
2025-08-27T10:45	10	65	0.2	65	66	447	0.7	446	449	21.8	77.3
2025-08-27T10:46	10	66	0.6	65	67	448	0.7	446	449	21.7	77.1
2025-08-27T10:47	10	69	0.8	67	70	450	0.6	448	450	21.8	77.4
2025-08-27T10:48	10	72	1.2	70	74	451	0.6	450	452	22.0	76.8
2025-08-27T10:49	10	70	0.4	69	71	452	0.5	450	452	22.2	77.9
2025-08-27T10:50	10	68	0.6	67	69	450	0.7	449	451	22.1	76.9
2025-08-27T10:51	10	66	0.3	66	67	450	0.3	449	450	22.1	76.7
2025-08-27T10:52	10	65	0.3	64	66	449	1.1	447	450	22.0	75.4
2025-08-27T10:53	10	64	0.4	63	64	449	0.3	448	449	21.9	75.4
2025-08-27T10:54	10	62	0.5	61	63	448	0.5	447	449	22.0	76.0
2025-08-27T10:55	10	61	0.3	60	61	448	0.3	447	448	22.1	73.1
2025-08-27T10:56	10	60	0.7	59	61	448	0.5	447	449	22.0	73.3
2025-08-27T10:57	10	59	0.3	58	59	449	0.7	448	450	22.2	74.4
2025-08-27T10:58	10	58	0.2	57	58	449	0.5	448	450	22.3	73.3
2025-08-27T10:59	10	57	0.2	57	57	447	0.5	446	448	22.2	72.3
2025-08-27T11:00	10	57	0.2	56	57	446	0.6	445	447	22.2	72.4
2025-08-27T11:01	10	56	0.1	56	57	448	0.7	446	449	22.1	72.5
2025-08-27T11:02	10	56	0.1	56	56	446	1.1	445	448	22.3	74.1
2025-08-27T11:03	10	56	0.1	56	57	444	0.7	443	446	22.1	72.1
2025-08-27T11:04	10	56	0.1	56	57	444	1.0	442	446	22.1	72.2
2025-08-27T11:05	10	56	0.1	56	57	442	0.6	441	443	22.1	71.5
2025-08-27T11:06	10	56	0.2	56	57	442	0.2	441	442	22.1	71.2
2025-08-27T11:07	10	57	0.2	56	57	441	0.4	441	442	22.2	71.3
2025-08-27T11:08	10	57	0.2	56	57	442	0.7	440	443	22.3	71.5
2025-08-27T11:09	10	56	0.3	56	57	443	0.5	442	444	22.2	71.4
2025-08-27T11:10	10	55	0.2	55	56	443	0.6	442	445	22.3	71.4
2025-08-27T11:11	10	55	0.2	55	55	443	0.9	442	445	22.3	71.4
2025-08-27T11:12	10	54	0.2	54	55	443	0.5	442	444	22.2	71.6
2025-08-27T11:13	10	53	0.3	53	54	443	0.5	442	444	22.3	71.7
2025-08-27T11:14	10	53	0.2	52	53	443	0.7	442	445	22.3	71.3
2025-08-27T11:15	10	54	0.3	53	54	445	0.4	443	445	22.4	71.8
2025-08-27T11:16	10	55	0.4	54	56	444	0.8	443	445	22.5	71.3
2025-08-27T11:17	10	56	0.2	55	56	443	0.3	442	443	22.3	70.8
2025-08-27T11:18	10	55	0.2	55	56	444	0.6	442	445	22.4	71.5
2025-08-27T11:19	10	55	0.1	55	56	442	0.4	442	443	22.4	71.6
2025-08-27T11:20	10	55	0.2	55	56	442	0.9	441	444	22.3	70.9
2025-08-27T11:21	10	56	0.2	56	57	442	0.4	440	443	22.2	71.2
2025-08-27T11:22	10	57	0.2	57	57	443	0.5	442	444	22.3	70.9
2025-08-27T11:23	10	58	0.4	57	59	442	0.7	440	443	22.3	71.1
2025-08-27T11:24	10	59	0.3	59	60	442	0.6	441	443	22.2	71.3
2025-08-27T11:25	10	58	0.5	58	60	443	0.3	442	443	22.2	71.2
2025-08-27T11:26	10	57	0.4	56	58	443	0.5	442	444	22.3	71.5
2025-08-27T11:27	10	54	1.0	53	56	444	0.7	442	445	22.3	71.6
2025-08-27T11:28	10	52	0.5	51	53	442	0.4	441	443	22.5	72.2
2025-08-27T11:29	10	51	0.3	51	52	441	0.5	440	442	22.4	71.1
2025-08-27T11:30	10	55	1.7	52	58	441	0.8	439	442	22.4	71.2
2025-08-27T11:31	10	61	1.3	58	65	440	0.5	440	442	22.2	71.0
2025-08-27T11:32	10	63	4.0	61	76	443	0.8	441	444	22.4	71.7
2025-08-27T11:33	10	71	7.6	62	94	444	2.0	441	449	22.3	70.9
2025-08-27T11:34	10	89	3.5	83	97	450	1.4	448	453	22.3	71.0
2025-08-27T11:35	10	69	6.9	63	93	451	0.6	450	452	22.4	71.3
2025-08-27T11:36	10	65	2.7	62	72	449	1.0	447	451	22.5	71.4
2025-08-27T11:37	10	65	1.6	64	70	447	0.8	446	449	22.5	71.7
2025-08-27T11:38	10	63	0.4	62	64	446	0.8	445	447	22.4	71.7
2025-08-27T11:39	10	61	0.8	59	62	447	0.4	446	448	22.5	71.7
2025-08-27T11:40	10	58	0.8	57	59	445	1.1	443	447	22.5	72.1
2025-08-27T11:41	10	56	0.4	55	57	445	0.3	444	446	22.4	71.7
2025-08-27T11:42	10	55	0.3	54	55	446	0.7	445	447	22.5	72.4
2025-08-27T11:43	10	54	0.4	53	54	444	0.5	444	446	22.6	71.8
2025-08-27T11:44	10	52	0.5	51	53	444	0.7	443	445	22.5	72.4
2025-08-27T11:45	10	51	0.1	51	51	442	1.4	441	445	22.4	71.4
2025-08-27T11:46	10	51	0.2	51	51	442	0.4	441	442	22.3	71.6
2025-08-27T11:47	10	51	0.2	50	51	443	0.6	441	444	22.3	72.0
2025-08-27T11:48	10	52	0.7	51	54	442	0.7	441	443	22.4	71.5
2025-08-27T11:49	10	55	0.9	54	57	442	1.1	440	443	22.2	70.9
2025-08-27T11:50	10	59	1.1	57	61	444	0.6	443	445	22.3	71.6
2025-08-27T11:51	10	63	1.1	61	65	445	0.4	444	446	22.4	72.0
2025-08-27T11:52	10	66	1.1	65	68	446	0.4	446	447	22.4	71.7
2025-08-27T11:53	10	71	1.4	68	73	447	0.5	446	448	22.4	71.4
2025-08-27T11:54	10	76	2.2	73	82	450	0.9	448	452	22.4	71.9
2025-08-27T11:55	10	90	13.9	80	121	452	1.3	451	457	22.5	71.5
2025-08-27T11:56	10	125	19.5	99	163	462	2.5	455	465	22.5	71.5
2025-08-27T11:57	10	78	5.2	74	97	457	3.3	453	464	22.6	71.0
2025-08-27T11:58	10	83	8.4	74	97	456	2.0	454	459	22.7	71.4
2025-08-27T11:59	10	90	16.5	74	124	459	2.5	455	464	22.8	71.0
2025-08-27T12:00	10	70	1.8	67	74	453	1.5	451	457	22.7	71.4
2025-08-27T12:01	10	66	0.7	65	67	452	0.4	451	452	22.8	70.7
2025-08-27T12:02	10	64	0.3	64	65	450	0.8	448	452	22.6	70.6
2025-08-27T12:03	10	64	0.1	64	64	449	0.6	448	450	22.7	70.6
2025-08-27T12:04	10	65	0.3	64	66	448	0.5	448	450	22.6	71.1
2025-08-27T12:05	10	67	0.6	66	68	448	0.6	447	449	22.5	70.6
2025-08-27T12:06	10	69	0.9	67	70	450	0.7	448	451	22.5	71.1
2025-08-27T12:07	10	72	1.1	70	74	451	1.3	448	453	22.6	70.6
2025-08-27T12:08	10	79	3.8	74	85	453	0.8	452	455	22.7	70.8
2025-08-27T12:09	10	107	18.0	85	140	457	2.6	454	462	22.9	71.0
2025-08-27T12:10	10	135	21.6	114	176	464	3.6	461	472	22.9	70.7
2025-08-27T12:11	10	124	23.0	105	174	469	2.4	466	473	23.0	70.2
2025-08-27T12:12	10	111	11.9	96	133	465	1.9	462	468	22.9	69.2
2025-08-27T12:13	10	88	3.0	85	96	462	2.3	459	466	22.8	69.6
2025-08-27T12:14	10	86	1.4	85	92	460	0.5	459	461	22.8	69.5
2025-08-27T12:15	10	101	5.0	90	111	462	0.7	461	463	22.8	68.8
2025-08-27T12:16	10	83	2.5	80	89	458	1.1	456	461	22.8	68.7
2025-08-27T12:17	10	73	3.8	69	81	457	0.7	455	458	23.0	69.3
2025-08-27T12:18	10	67	1.1	65	69	456	0.4	455	457	23.1	68.8
2025-08-27T12:19	10	66	0.4	65	66	457	0.3	456	457	23.3	69.4
2025-08-27T12:20	10	71	1.7	67	73	454	1.5	451	457	23.1	67.9
2025-08-27T12:21	10	68	2.3	64	73	451	1.0	450	453	22.9	67.6
2025-08-27T12:22	10	65	0.5	64	66	452	1.0	450	453	22.9	68.5
2025-08-27T12:23	10	76	15.5	63	118	454	1.8	453	458	23.0	69.1
2025-08-27T12:24	10	61	4.1	57	74	452	2.8	447	457	23.1	67.5
2025-08-27T12:25	10	59	1.5	57	62	449	0.9	448	451	22.9	67.1
2025-08-27T12:26	10	83	20.5	62	129	454	3.3	449	461	23.1	68.3
2025-08-27T12:27	10	151	16.3	95	167	468	3.4	459	472	23.3	67.9
2025-08-27T12:28	10	104	11.5	85	123	465	1.1	463	469	23.2	67.1
2025-08-27T12:29	10	108	19.0	78	138	464	1.9	460	467	23.0	66.6
2025-08-27T12:30	10	141	34.4	78	171	468	6.9	459	477	23.1	67.9
2025-08-27T12:31	10	168	0.5	167	169	479	2.5	474	482	23.5	66.8
2025-08-27T12:32	10	166	1.4	162	168	482	2.4	479	486	23.3	64.7
2025-08-27T12:33	10	153	28.7	89	170	482	2.6	475	486	23.5	65.0
2025-08-27T12:34	10	153	21.1	94	171	482	3.9	475	487	23.8	64.8
2025-08-27T12:35	10	115	23.4	91	154	477	5.4	469	484	23.6	63.9
2025-08-27T12:36	10	113	14.3	99	148	469	1.7	466	472	23.5	65.0
2025-08-27T12:37	10	117	31.8	86	174	470	3.3	466	476	23.5	65.0
2025-08-27T12:38	10	119	17.4	95	145	469	1.5	466	472	23.4	64.9
2025-08-27T12:39	10	95	10.0	81	111	467	0.9	465	468	23.4	64.6
2025-08-27T12:40	10	74	2.0	69	81	464	1.5	462	467	23.5	65.1
2025-08-27T12:41	10	65	1.3	63	69	461	1.4	458	463	23.7	65.0
2025-08-27T12:42	10	69	7.2	63	99	458	1.2	456	460	23.6	66.7
2025-08-27T12:43	10	143	10.9	105	159	467	4.0	458	473	23.5	66.1
2025-08-27T12:44	10	155	1.8	151	158	474	2.0	471	479	23.5	65.9
2025-08-27T12:45	10	153	0.5	152	154	480	1.5	477	483	23.5	65.2
2025-08-27T12:46	10	151	2.3	145	153	482	0.3	482	483	23.6	65.1
2025-08-27T12:47	10	132	27.2	85	156	484	2.7	478	487	23.8	65.4
2025-08-27T12:48	10	89	12.1	76	113	472	3.3	468	480	24.1	65.7
2025-08-27T12:49	10	134	14.4	110	152	473	2.7	469	476	23.8	64.4
2025-08-27T12:50	10	104	25.9	69	139	472	4.9	463	478	23.7	64.4
2025-08-27T12:51	10	69	1.8	66	73	462	1.2	460	465	23.6	64.4
2025-08-27T12:52	10	81	11.3	68	97	462	1.1	461	465	23.7	65.0
2025-08-27T12:53	10	81	2.8	77	91	463	0.9	461	465	23.8	64.7
2025-08-27T12:54	10	122	23.0	81	162	468	5.5	460	477	23.9	63.9
2025-08-27T12:55	10	144	17.1	124	166	478	1.9	474	481	24.0	64.3
2025-08-27T12:56	10	116	11.3	100	133	472	1.1	470	475	23.9	63.3
2025-08-27T12:57	10	125	13.7	104	144	471	2.2	468	476	23.7	63.6
2025-08-27T12:58	10	119	13.1	102	141	474	1.6	472	478	23.7	64.2
2025-08-27T12:59	10	141	4.5	133	146	475	0.9	474	477	23.9	63.7
2025-08-27T13:00	10	141	1.4	138	144	477	0.7	475	478	24.0	64.3
2025-08-27T13:01	10	139	0.7	138	140	478	0.6	477	479	24.0	63.5
2025-08-27T13:02	10	136	1.5	133	138	480	0.9	478	482	24.0	62.8
2025-08-27T13:03	10	135	1.4	133	137	483	1.5	481	485	24.5	64.9
2025-08-27T13:04	10	132	1.7	129	135	483	0.8	482	485	24.6	62.5
2025-08-27T13:05	10	132	2.8	127	136	480	2.0	478	484	24.4	61.9
2025-08-27T13:06	10	132	2.5	128	136	478	1.1	476	481	24.5	62.5
2025-08-27T13:07	10	132	2.0	126	135	483	1.1	480	484	24.5	62.6
2025-08-27T13:08	10	131	3.8	126	137	480	1.9	478	483	24.5	61.0
2025-08-27T13:09	10	136	1.5	133	139	482	1.7	480	484	24.5	61.6
2025-08-27T13:10	10	136	1.4	132	138	484	1.1	481	485	24.8	61.6
2025-08-27T13:11	10	132	1.4	130	136	478	1.7	476	482	24.5	60.0
2025-08-27T13:12	10	128	3.5	122	132	476	2.3	472	479	24.5	60.3
2025-08-27T13:13	10	117	3.1	112	121	474	0.3	473	475	24.5	60.6
2025-08-27T13:14	10	105	4.4	98	112	471	2.7	467	475	24.4	59.8
2025-08-27T13:15	10	87	11.2	67	99	466	1.2	464	468	24.4	60.1
2025-08-27T13:16	10	62	2.4	59	67	461	1.9	459	466	24.6	60.9
2025-08-27T13:17	10	59	0.4	58	60	458	0.9	457	460	24.6	60.5
2025-08-27T13:18	10	60	0.6	59	61	456	1.0	454	458	24.3	61.1
2025-08-27T13:19	10	59	0.9	57	60	455	0.3	454	455	24.2	61.7
2025-08-27T13:20	10	57	0.2	57	58	453	0.7	452	455	24.1	61.8
2025-08-27T13:21	10	57	0.7	56	58	454	0.4	453	455	24.1	62.9
2025-08-27T13:22	10	56	0.6	55	57	454	0.4	453	455	24.1	63.1
2025-08-27T13:23	10	57	0.4	57	58	454	0.4	453	455	24.0	62.8
2025-08-27T13:24	10	59	0.5	58	60	454	0.9	453	456	24.0	62.8
2025-08-27T13:25	10	60	0.4	59	61	456	0.5	455	457	24.0	63.0
2025-08-27T13:26	10	61	0.2	60	61	457	1.0	456	459	24.1	63.6
2025-08-27T13:27	10	61	0.3	61	62	459	0.9	456	460	24.3	63.7
2025-08-27T13:28	10	63	0.3	62	63	456	0.3	456	457	24.2	62.0
2025-08-27T13:29	10	64	0.4	63	64	456	0.8	455	458	24.2	61.7
2025-08-27T13:30	10	64	0.3	63	64	458	0.3	457	458	24.3	62.4
2025-08-27T13:31	10	63	0.2	63	64	458	0.6	456	458	24.4	62.0
2025-08-27T13:32	10	63	0.1	63	64	456	0.3	455	457	24.4	61.7
2025-08-27T13:33	10	63	0.1	63	63	457	0.4	456	457	24.4	61.5
2025-08-27T13:34	10	63	0.1	63	63	455	0.6	454	456	24.4	60.4
2025-08-27T13:35	10	63	0.2	62	63	456	0.6	455	457	24.3	60.4
2025-08-27T13:36	10	61	0.5	60	62	456	0.5	455	457	24.3	60.1
2025-08-27T13:37	10	58	1.5	56	60	456	0.6	455	458	24.4	60.2
2025-08-27T13:38	10	54	0.9	53	56	454	1.1	453	456	24.4	61.4
2025-08-27T13:39	10	53	0.3	52	53	455	0.4	454	456	24.5	60.8
2025-08-27T13:40	10	51	0.3	51	52	455	0.3	454	455	24.5	60.4
2025-08-27T13:41	10	50	0.2	50	51	455	0.6	454	456	24.5	61.1
2025-08-27T13:42	10	51	0.9	50	53	454	0.6	454	455	24.3	60.5
2025-08-27T13:43	10	48	0.7	47	49	455	0.6	454	456	24.4	61.4
2025-08-27T13:44	10	46	0.4	46	47	453	0.6	452	454	24.4	60.2
2025-08-27T13:45	10	45	0.3	45	47	453	0.5	452	454	24.3	60.5
2025-08-27T13:46	10	47	0.9	45	48	453	0.7	452	454	24.3	60.7
2025-08-27T13:47	10	45	0.2	44	45	452	0.2	451	452	24.3	61.0
2025-08-27T13:48	10	46	0.4	45	46	453	0.4	452	454	24.4	60.8
2025-08-27T13:49	10	48	0.5	47	49	453	0.5	452	454	24.5	61.4
2025-08-27T13:50	10	49	0.5	48	50	454	0.3	453	455	24.5	60.8
2025-08-27T13:51	10	51	0.6	50	53	455	0.4	454	456	24.5	61.2
2025-08-27T13:52	10	55	0.9	53	56	456	0.3	455	456	24.6	61.1
2025-08-27T13:53	10	56	0.3	55	56	456	0.6	455	457	24.6	61.1
2025-08-27T13:54	10	57	0.8	55	58	458	0.7	456	459	24.6	61.3
2025-08-27T13:55	10	58	0.3	58	59	456	0.7	455	457	24.5	60.4
2025-08-27T13:56	10	59	0.2	59	59	456	0.6	455	457	24.4	60.9
2025-08-27T13:57	10	59	0.1	59	60	457	0.7	456	458	24.4	61.2
2025-08-27T13:58	10	60	0.3	59	61	458	0.3	457	458	24.5	61.8
2025-08-27T13:59	10	62	0.4	61	63	458	0.4	458	459	24.5	61.0
2025-08-27T14:00	10	63	0.2	62	63	459	0.3	458	459	24.5	61.1
2025-08-27T14:01	10	64	0.3	63	64	459	0.5	458	460	24.5	60.5
2025-08-27T14:02	10	65	0.2	64	65	459	0.4	458	460	24.5	61.0
2025-08-27T14:03	10	66	0.2	65	66	460	0.6	459	461	24.6	61.1
2025-08-27T14:04	10	65	0.5	64	66	459	0.5	458	460	24.6	60.3
2025-08-27T14:05	10	66	0.8	65	67	459	0.3	459	460	24.6	61.1
2025-08-27T14:06	10	66	0.4	65	67	459	0.2	459	459	24.6	60.7
2025-08-27T14:07	10	64	0.8	63	65	458	0.3	458	459	24.6	60.1
2025-08-27T14:08	10	61	1.3	59	63	459	0.3	459	460	24.7	60.7
2025-08-27T14:09	10	58	0.3	58	59	459	0.3	458	460	24.7	60.2
2025-08-27T14:10	10	59	1.1	58	61	459	0.4	458	460	24.7	60.5
2025-08-27T14:11	10	61	0.1	61	61	460	0.3	459	460	24.8	61.0
2025-08-27T14:12	10	61	1.7	58	63	459	0.4	458	460	24.7	58.9
2025-08-27T14:13	10	58	0.2	57	58	458	0.6	457	459	24.7	59.9
2025-08-27T14:14	10	55	0.7	54	57	458	0.4	457	459	24.7	60.3
2025-08-27T14:15	10	54	0.1	54	54	457	0.6	456	458	24.9	60.6
2025-08-27T14:16	10	54	0.4	54	55	455	1.1	453	457	24.8	58.9
2025-08-27T14:17	10	53	0.8	51	54	453	0.2	452	454	24.6	59.1
2025-08-27T14:18	10	50	0.6	49	51	454	0.3	453	454	24.7	60.6
2025-08-27T14:19	10	48	0.3	47	49	454	0.3	453	454	24.7	59.5
2025-08-27T14:20	10	47	0.4	46	47	454	0.3	453	454	24.7	60.9
2025-08-27T14:21	10	46	0.3	45	46	453	0.6	451	454	24.7	60.0
2025-08-27T14:22	10	45	0.2	45	45	451	0.4	451	452	24.6	59.0
2025-08-27T14:23	10	45	0.1	44	45	451	0.4	450	452	24.6	59.0
2025-08-27T14:24	10	44	1.8	44	54	451	0.4	450	452	24.6	59.1
2025-08-27T14:25	10	43	0.3	42	44	452	0.4	451	453	24.7	59.7
2025-08-27T14:26	10	42	0.4	41	43	452	0.2	452	453	24.7	59.2
2025-08-27T14:27	10	41	0.3	40	41	452	0.3	451	452	24.7	59.0
2025-08-27T14:28	10	40	0.4	39	41	451	0.4	450	452	24.7	58.8
2025-08-27T14:29	10	39	0.3	38	39	451	0.3	450	451	24.7	57.7
2025-08-27T14:30	10	38	0.2	37	38	451	0.3	450	451	24.8	59.2
2025-08-27T14:31	10	37	0.3	37	38	450	0.5	449	451	24.7	58.8
2025-08-27T14:32	10	36	0.2	36	37	450	0.3	449	450	24.7	58.2
2025-08-27T14:33	10	36	0.2	35	36	450	0.4	449	451	24.8	58.0
2025-08-27T14:34	10	35	0.2	35	36	450	0.2	449	450	24.8	58.6
2025-08-27T14:35	10	35	0.1	35	35	449	0.2	448	450	24.7	58.8
2025-08-27T14:36	10	35	0.2	35	36	449	0.3	448	449	24.7	58.8
2025-08-27T14:37	10	35	0.1	35	36	449	0.3	449	450	24.7	58.6
2025-08-27T14:38	10	36	0.2	35	36	449	0.3	449	450	24.6	58.7
2025-08-27T14:39	10	36	0.2	36	37	449	0.3	448	450	24.6	58.1
2025-08-27T14:40	10	37	0.3	36	38	449	0.4	448	450	24.6	58.5
2025-08-27T14:41	10	38	0.2	37	38	449	0.5	448	450	24.6	58.8
2025-08-27T14:42	10	38	0.2	37	38	448	0.3	448	449	24.6	59.0
2025-08-27T14:43	10	38	0.2	38	38	448	0.4	447	449	24.5	58.9
2025-08-27T14:44	10	38	0.1	38	39	449	0.5	448	450	24.5	58.9
2025-08-27T14:45	10	39	0.1	38	39	449	0.4	449	450	24.5	59.8
2025-08-27T14:46	10	39	0.2	38	39	449	0.3	449	450	24.6	59.5
2025-08-27T14:47	10	39	0.2	38	39	449	0.5	448	450	24.6	59.8
2025-08-27T14:48	10	38	0.2	38	39	449	0.3	449	450	24.6	59.4
2025-08-27T14:49	10	38	0.2	37	39	449	0.3	448	449	24.5	59.6
2025-08-27T14:50	10	38	0.2	37	38	449	0.4	448	449	24.5	59.8
2025-08-27T14:51	10	37	0.2	37	38	449	0.3	449	450	24.6	59.7
2025-08-27T14:52	10	37	0.2	37	38	449	0.2	448	450	24.6	59.7
2025-08-27T14:53	10	37	0.2	37	38	449	0.3	448	449	24.5	59.2
2025-08-27T14:54	10	37	0.2	37	38	449	0.3	448	449	24.6	59.5
2025-08-27T14:55	10	37	0.1	37	38	449	0.4	448	450	24.6	60.2
2025-08-27T14:56	10	37	0.1	37	37	448	0.3	448	449	24.6	59.2
2025-08-27T14:57	10	37	0.2	37	38	448	0.4	448	449	24.6	58.9
2025-08-27T14:58	10	37	0.2	37	38	448	0.2	447	448	24.6	57.7
2025-08-27T14:59	10	38	0.2	37	38	448	0.3	447	448	24.6	59.4
2025-08-27T15:00	10	38	0.2	38	39	448	0.3	447	449	24.5	60.3
2025-08-27T15:01	10	39	0.3	38	39	448	0.3	448	449	24.5	60.3
2025-08-27T15:02	10	39	0.3	38	40	448	0.4	447	449	24.6	59.1
2025-08-27T15:03	10	39	0.2	39	40	447	0.2	447	448	24.5	59.5
2025-08-27T15:04	10	40	0.2	39	40	448	0.3	447	448	24.5	59.6
2025-08-27T15:05	10	40	0.2	40	41	449	0.4	448	450	24.5	59.0
2025-08-27T15:06	10	41	0.3	41	42	449	0.3	448	449	24.6	59.4
2025-08-27T15:07	10	42	0.2	41	42	450	0.2	449	451	24.6	59.4
2025-08-27T15:08	10	42	0.7	42	46	450	0.2	449	450	24.6	58.9
2025-08-27T15:09	10	42	0.2	42	43	450	0.5	449	451	24.6	59.1
2025-08-27T15:10	10	43	0.3	42	43	451	0.4	450	452	24.7	59.8
2025-08-27T15:11	10	43	0.3	43	44	452	0.4	451	453	24.7	60.1
2025-08-27T15:12	10	44	0.3	44	45	452	0.4	452	453	24.8	58.7
2025-08-27T15:13	10	45	0.3	44	45	453	0.3	452	453	24.8	59.2
2025-08-27T15:14	10	46	0.5	45	47	453	0.3	452	454	24.9	58.5
2025-08-27T15:15	10	47	0.5	46	49	454	0.5	453	455	24.9	58.5
2025-08-27T15:16	10	48	0.2	47	48	455	0.4	454	456	24.9	58.1
2025-08-27T15:17	10	48	0.3	47	48	455	0.2	455	456	25.0	58.7
2025-08-27T15:18	10	48	0.3	48	49	455	0.4	454	456	25.1	59.4
2025-08-27T15:19	10	49	0.3	48	49	456	0.3	455	457	25.1	59.4
2025-08-27T15:20	10	49	0.3	49	50	457	0.3	456	457	25.1	59.3
2025-08-27T15:21	10	50	0.3	50	51	455	0.5	455	456	24.9	57.5
2025-08-27T15:22	10	53	2.4	51	59	456	0.5	455	457	24.8	58.9
2025-08-27T15:23	10	67	2.7	60	70	457	0.4	457	458	24.8	58.4
2025-08-27T15:24	10	74	3.0	68	78	460	1.1	458	462	24.9	58.8
2025-08-27T15:25	10	81	2.1	78	84	463	1.2	462	465	25.0	58.9
2025-08-27T15:26	10	86	2.8	83	92	466	0.9	464	468	25.0	57.0
2025-08-27T15:27	10	96	2.0	92	100	468	0.4	467	469	24.9	57.5
2025-08-27T15:28	10	104	2.4	100	109	470	1.2	468	472	25.0	57.4
2025-08-27T15:29	10	113	2.4	109	116	473	1.0	472	475	25.2	57.0
2025-08-27T15:30	10	117	0.8	115	118	476	0.6	474	477	25.3	57.4
2025-08-27T15:31	10	117	0.5	116	117	476	0.4	475	477	25.1	57.7
2025-08-27T15:32	10	114	0.8	113	116	475	0.9	474	477	25.0	58.0
2025-08-27T15:33	10	115	0.7	113	116	476	0.7	475	478	25.0	58.1
2025-08-27T15:34	10	114	1.0	112	115	476	0.5	475	477	25.1	58.3
2025-08-27T15:35	10	92	13.9	75	112	473	2.4	470	477	25.2	56.8
2025-08-27T15:36	10	107	2.8	95	110	474	1.1	472	476	25.1	57.3
2025-08-27T15:37	10	105	1.1	103	107	473	1.0	472	475	25.2	55.5
2025-08-27T15:38	10	102	0.3	101	103	473	0.3	472	474	25.2	56.2
2025-08-27T15:39	10	99	0.7	97	101	474	0.3	473	474	25.5	56.5
2025-08-27T15:40	10	94	2.4	89	97	473	0.7	472	474	25.7	55.7
2025-08-27T15:41	10	88	0.7	86	89	470	1.2	469	474	25.4	55.1
2025-08-27T15:42	10	86	2.0	82	88	470	0.5	468	470	25.2	55.9
2025-08-27T15:43	10	90	1.4	85	92	471	0.5	470	472	25.3	56.3
2025-08-27T15:44	10	89	4.4	82	96	471	0.5	470	472	25.7	56.3
2025-08-27T15:45	10	95	1.2	93	96	472	0.4	471	472	25.9	55.1
2025-08-27T15:46	10	96	0.7	93	96	472	0.5	470	472	25.8	51.5
2025-08-27T15:47	10	95	0.8	93	96	473	0.3	472	474	25.8	52.5
2025-08-27T15:48	10	97	1.2	95	98	474	0.7	473	475	25.9	53.7
2025-08-27T15:49	10	99	0.3	98	100	475	0.5	474	476	25.7	54.2
2025-08-27T15:50	10	100	0.1	99	100	474	0.6	473	476	25.5	54.0
2025-08-27T15:51	10	99	0.3	99	100	473	0.3	473	474	25.4	54.2
2025-08-27T15:52	10	98	0.4	97	99	473	0.3	472	473	25.4	54.3
2025-08-27T15:53	10	97	0.4	96	98	472	0.4	471	473	25.4	54.3
2025-08-27T15:54	10	95	0.5	94	96	472	0.4	471	472	25.5	53.7
2025-08-27T15:55	10	93	0.8	90	95	472	0.3	472	473	25.7	53.2
2025-08-27T15:56	10	79	7.7	64	88	470	0.8	469	473	25.9	52.3
2025-08-27T15:57	10	46	6.6	41	65	465	2.6	462	471	26.1	51.9
2025-08-27T15:58	10	43	1.3	41	45	462	0.5	461	463	26.1	52.3
2025-08-27T15:59	10	68	13.6	44	84	464	2.3	461	468	26.0	52.6
2025-08-27T16:00	10	62	3.6	58	73	465	0.8	464	467	26.0	52.8
2025-08-27T16:01	10	61	10.1	48	81	464	1.4	462	466	25.8	54.0
2025-08-27T16:02	10	83	4.4	72	87	466	1.8	463	469	25.6	55.7
2025-08-27T16:03	10	72	13.2	55	88	465	1.4	463	468	25.5	55.8
2025-08-27T16:04	10	60	19.4	41	88	465	2.9	461	469	25.5	56.6
2025-08-27T16:05	10	41	0.2	41	41	461	1.1	459	462	25.6	56.6
2025-08-27T16:06	10	50	9.2	41	66	460	0.9	459	461	25.4	55.0
2025-08-27T16:07	10	46	3.9	43	58	459	0.6	458	461	25.3	54.5
2025-08-27T16:08	10	50	6.5	44	63	458	1.0	457	460	25.3	54.4
2025-08-27T16:09	10	63	5.0	50	71	460	1.1	457	461	25.4	55.1
2025-08-27T16:10	10	70	3.6	62	74	461	1.0	460	463	25.4	55.7
2025-08-27T16:11	10	62	3.3	58	68	462	0.6	461	463	25.6	56.5
2025-08-27T16:12	10	44	6.8	35	59	459	1.7	457	463	25.6	55.5
2025-08-27T16:13	10	32	1.5	30	36	456	0.6	455	457	25.5	56.5
2025-08-27T16:14	10	29	0.9	28	31	454	0.9	453	456	25.5	56.8
2025-08-27T16:15	10	27	0.7	26	28	452	0.6	451	453	25.4	56.7
2025-08-27T16:16	10	25	0.6	24	26	451	0.4	450	452	25.4	56.8
2025-08-27T16:17	10	24	0.2	24	25	450	0.3	450	451	25.4	56.4
2025-08-27T16:18	10	29	2.7	24	33	450	0.6	449	451	25.4	55.6
2025-08-27T16:19	10	32	0.7	30	33	451	0.7	450	452	25.4	56.2
2025-08-27T16:20	10	32	1.2	30	34	452	0.4	451	453	25.4	56.3
2025-08-27T16:21	10	34	1.1	32	35	452	0.3	452	453	25.4	55.7
2025-08-27T16:22	10	27	3.0	23	32	452	0.6	451	453	25.4	55.2
2025-08-27T16:23	10	23	2.0	20	26	451	0.4	450	452	25.4	55.5
2025-08-27T16:24	10	21	0.9	20	22	449	0.7	448	450	25.5	56.2
2025-08-27T16:25	10	18	1.4	17	22	447	0.6	446	448	25.4	54.4
2025-08-27T16:26	10	16	0.4	15	17	446	0.4	445	446	25.4	55.3
2025-08-27T16:27	10	15	0.3	14	15	445	0.2	444	445	25.3	55.7
2025-08-27T16:28	10	14	0.2	14	15	445	0.2	444	446	25.4	56.9
2025-08-27T16:29	10	14	0.1	13	14	444	0.3	444	445	25.3	55.5
2025-08-27T16:30	10	13	0.2	13	14	443	0.3	443	444	25.2	54.7
2025-08-27T16:31	10	13	0.2	13	13	443	0.2	442	443	25.2	54.9
2025-08-27T16:32	10	13	0.3	12	13	443	0.2	442	443	25.2	55.7
2025-08-27T16:33	10	13	0.3	13	14	443	0.2	442	443	25.2	55.3
2025-08-27T16:34	10	14	0.2	13	14	443	0.3	442	444	25.2	55.7
2025-08-27T16:35	10	13	0.2	13	13	443	0.2	443	444	25.2	54.8
2025-08-27T16:36	10	13	0.1	13	13	443	0.3	443	444	25.2	54.7
2025-08-27T16:37	10	13	0.1	12	13	443	0.3	443	444	25.2	55.1
2025-08-27T16:38	10	12	0.1	12	13	442	0.3	441	443	25.2	56.2
2025-08-27T16:39	10	12	0.1	12	13	441	0.2	441	442	25.1	57.6
2025-08-27T16:40	10	12	0.2	11	12	441	0.3	440	441	24.9	58.0
2025-08-27T16:41	10	12	0.2	11	12	440	0.5	439	441	24.8	58.5
2025-08-27T16:42	10	11	0.3	11	12	439	0.3	439	440	24.8	59.3
2025-08-27T16:43	10	11	0.2	10	11	439	0.3	439	440	24.7	59.0
2025-08-27T16:44	10	10	0.2	10	11	439	0.2	438	440	24.7	59.2
2025-08-27T16:45	10	10	0.2	10	10	439	0.3	438	439	24.7	59.5
2025-08-27T16:46	10	10	0.2	9	10	438	0.3	437	439	24.6	59.5
2025-08-27T16:47	10	9	0.2	9	10	438	0.2	438	439	24.6	59.7
2025-08-27T16:48	10	9	0.2	9	10	438	0.3	437	439	24.6	59.6
2025-08-27T16:49	10	9	0.2	9	10	438	0.3	437	439	24.6	60.7
2025-08-27T16:50	10	9	0.2	9	10	437	0.3	437	438	24.5	63.7
2025-08-27T16:51	10	9	0.2	9	10	438	0.3	437	439	24.5	64.3
2025-08-27T16:52	10	9	0.2	9	9	438	0.3	438	439	24.5	64.6
2025-08-27T16:53	10	9	0.2	9	9	438	0.2	438	438	24.5	64.6
2025-08-27T16:54	10	9	0.2	9	10	438	0.2	437	438	24.4	65.2
2025-08-27T16:55	10	9	0.1	9	10	437	0.3	437	438	24.3	63.8
2025-08-27T16:56	10	9	0.1	9	9	437	0.2	436	437	24.3	63.1
2025-08-27T16:57	10	9	0.1	8	9	436	0.3	436	437	24.3	62.8
2025-08-27T16:58	10	9	0.1	9	9	436	0.2	436	436	24.2	61.4
2025-08-27T16:59	10	9	0.2	9	9	436	0.3	435	436	24.2	61.2
2025-08-27T17:00	10	10	0.2	9	10	436	0.2	435	436	24.1	61.1
2025-08-27T17:01	10	10	0.1	10	10	435	0.2	435	436	24.0	60.6
2025-08-27T17:02	10	10	0.1	10	10	435	0.4	434	436	24.0	61.2
2025-08-27T17:03	10	10	0.1	10	10	436	0.3	435	436	24.0	62.0
2025-08-27T17:04	10	10	0.1	10	10	435	0.3	435	436	24.0	61.4
2025-08-27T17:05	10	10	0.1	9	10	435	0.2	435	436	24.0	61.3
2025-08-27T17:06	10	9	0.1	9	9	435	0.2	435	435	24.0	61.2
2025-08-27T17:07	10	9	0.1	9	9	434	0.3	434	435	24.0	61.1
2025-08-27T17:08	10	9	0.1	8	9	434	0.2	434	435	24.0	61.2
2025-08-27T17:09	10	8	0.1	8	9	434	0.2	434	435	23.9	61.3
2025-08-27T17:10	10	8	0.1	8	8	434	0.2	433	434	23.9	61.6
2025-08-27T17:11	10	8	0.1	7	8	434	0.2	433	434	23.9	61.8
2025-08-27T17:12	10	7	0.1	7	8	434	0.2	433	434	23.9	62.2
2025-08-27T17:13	10	7	0.2	7	8	433	0.2	433	434	23.9	62.2
2025-08-27T17:14	10	7	0.1	7	7	433	0.3	432	434	23.8	62.4
2025-08-27T17:15	10	7	0.1	7	7	433	0.2	432	433	23.8	62.4
2025-08-27T17:16	10	7	0.2	6	7	433	0.2	432	433	23.8	62.6
2025-08-27T17:17	10	6	0.2	6	7	432	0.2	432	433	23.8	62.3
2025-08-27T17:18	10	6	0.1	6	6	432	0.3	432	433	23.8	62.6
2025-08-27T17:19	10	6	0.1	5	6	432	0.2	432	433	23.8	63.1
2025-08-27T17:20	10	6	0.1	5	6	432	0.2	431	432	23.8	63.0
2025-08-27T17:21	10	6	0.1	6	6	432	0.2	431	432	23.8	62.6
2025-08-27T17:22	10	6	0.1	6	6	432	0.2	431	432	23.8	62.7
2025-08-27T17:23	10	6	0.1	6	6	432	0.2	432	432	23.8	62.7
2025-08-27T17:24	10	6	0.1	6	6	432	0.2	432	432	23.8	63.2
2025-08-27T17:25	10	6	0.1	6	6	432	0.2	431	432	23.7	63.1
2025-08-27T17:26	10	6	0.1	6	6	432	0.2	431	432	23.7	63.6
2025-08-27T17:27	10	6	0.1	6	6	432	0.2	431	432	23.7	62.7
2025-08-27T17:28	10	6	0.1	6	6	432	0.2	431	432	23.8	61.9
2025-08-27T17:29	10	6	0.1	5	6	431	0.2	431	432	23.8	61.8
2025-08-27T17:30	10	6	0.1	5	6	431	0.2	430	431	23.7	61.8
2025-08-27T17:31	10	6	0.1	5	6	431	0.2	430	431	23.7	61.4
2025-08-27T17:32	10	6	0.1	5	6	431	0.2	430	431	23.7	61.5
2025-08-27T17:33	10	5	0.1	5	5	431	0.2	430	431	23.7	61.8
2025-08-27T17:34	10	5	0.2	5	5	431	0.2	430	431	23.7	62.1
2025-08-27T17:35	10	4	0.2	4	5	430	0.2	430	431	23.7	61.8
2025-08-27T17:36	10	4	0.1	4	4	430	0.2	429	430	23.6	62.7
2025-08-27T17:37	10	4	0.2	3	4	430	0.3	429	430	23.6	62.1
2025-08-27T17:38	10	3	0.2	3	4	429	0.2	429	430	23.6	62.1
2025-08-27T17:39	10	3	0.2	3	4	429	0.2	429	430	23.6	62.3
2025-08-27T17:40	10	3	0.2	2	3	429	0.2	429	430	23.6	62.1
2025-08-27T17:41	10	3	0.2	2	3	429	0.3	428	430	23.6	62.1
2025-08-27T17:42	10	2	0.2	2	3	429	0.2	429	429	23.6	61.4
2025-08-27T17:43	10	2	0.2	2	3	429	0.2	429	430	23.6	61.2
2025-08-27T17:44	10	2	0.2	2	3	429	0.2	429	429	23.7	61.0
2025-08-27T17:45	10	2	0.1	2	3	429	0.2	429	430	23.7	61.5
2025-08-27T17:46	10	2	0.1	2	2	429	0.2	429	429	23.7	61.6
2025-08-27T17:47	10	2	0.1	2	2	429	0.2	429	430	23.7	61.8
2025-08-27T17:48	10	2	0.1	2	2	429	0.2	429	429	23.7	62.1
2025-08-27T17:49	10	2	0.1	2	2	429	0.2	428	429	23.7	62.5
2025-08-27T17:50	10	2	0.1	2	2	429	0.3	428	429	23.6	63.0
2025-08-27T17:51	10	2	0.1	2	3	428	0.3	427	429	23.6	63.5
2025-08-27T17:52	10	2	0.1	2	2	428	0.2	428	428	23.5	63.4
2025-08-27T17:53	10	2	0.1	2	2	428	0.3	427	428	23.5	63.3
2025-08-27T17:54	10	2	0.1	2	2	427	0.3	427	428	23.5	63.8
2025-08-27T17:55	10	2	0.1	2	2	427	0.2	426	427	23.5	63.8
2025-08-27T17:56	10	2	0.1	2	2	427	0.2	426	427	23.4	64.0
2025-08-27T17:57	10	2	0.1	2	2	426	0.3	426	427	23.4	64.2
2025-08-27T17:58	10	2	0.1	2	2	426	0.3	425	426	23.4	64.8
2025-08-27T17:59	10	2	0.1	2	2	425	0.2	425	426	23.2	65.7
2025-08-27T18:00	10	2	0.1	1	2	425	0.3	424	425	23.2	66.2
2025-08-27T18:01	10	2	0.1	1	2	424	0.2	424	424	23.1	66.5
2025-08-27T18:02	10	1	0.1	1	2	424	0.2	423	424	23.1	65.7
2025-08-27T18:03	10	1	0.1	1	2	424	0.2	423	424	23.1	66.3
2025-08-27T18:04	10	1	0.1	1	1	423	0.2	423	424	23.0	66.7
2025-08-27T18:05	10	1	0.1	1	1	423	0.3	422	423	23.0	67.0
2025-08-27T18:06	10	1	0.1	1	1	423	0.2	423	423	23.0	66.9
2025-08-27T18:07	10	1	0.1	1	1	423	0.3	422	423	23.0	67.1
2025-08-27T18:08	10	1	0.1	1	1	422	0.3	421	423	22.9	68.6
2025-08-27T18:09	10	1	0.1	1	1	422	0.2	422	423	22.9	68.4
2025-08-27T18:10	10	1	0.1	0	1	422	0.2	421	422	22.9	68.2
2025-08-27T18:11	10	1	0.1	0	1	422	0.3	421	422	22.9	68.2
2025-08-27T18:12	10	1	0.1	0	1	422	0.3	421	422	22.8	68.8
2025-08-27T18:13	10	0	0.1	0	1	422	0.3	421	422	22.8	69.2
2025-08-27T18:14	10	0	0.1	0	1	422	0.2	421	422	22.7	69.1
2025-08-27T18:15	10	0	0.1	0	1	421	0.2	421	422	22.7	69.3
2025-08-27T18:16	10	0	0.1	0	1	421	0.2	421	422	22.7	69.2
2025-08-27T18:17	10	0	0.1	0	1	421	0.2	421	422	22.7	69.8
2025-08-27T18:18	10	0	0.1	0	0	421	0.3	421	422	22.6	69.8
2025-08-27T18:19	10	0	0.1	0	0	421	0.2	421	422	22.6	69.4
2025-08-27T18:20	10	0	0.1	0	0	421	0.3	421	422	22.6	70.2
2025-08-27T18:21	10	0	0.1	0	0	421	0.2	421	422	22.6	69.9
2025-08-27T18:22	10	0	0.1	0	0	421	0.2	421	422	22.6	69.5
2025-08-27T18:23	10	0	0.1	0	0	422	0.2	421	422	22.6	70.0
2025-08-27T18:24	10	0	0.1	0	0	422	0.2	421	422	22.6	69.1
2025-08-27T18:25	10	0	0.1	0	0	421	0.2	421	422	22.6	69.5
2025-08-27T18:26	10	0	0.1	0	0	421	0.2	421	422	22.5	69.4
2025-08-27T18:27	10	0	0.1	0	0	421	0.2	421	422	22.5	70.3
2025-08-27T18:28	10	0	0.1	0	0	422	0.3	421	422	22.5	69.9
2025-08-27T18:29	10	0	0.1	0	0	422	0.2	421	422	22.5	70.1
2025-08-27T18:30	10	0	0.1	0	0	422	0.2	421	422	22.5	69.9
2025-08-27T18:31	10	0	0.1	0	0	422	0.2	421	422	22.5	69.3
2025-08-27T18:32	10	0	0.1	0	0	422	0.2	421	422	22.5	69.4
2025-08-27T18:33	10	0	0.1	0	0	421	0.3	420	422	22.5	70.3
2025-08-27T18:34	10	0	0.1	0	0	421	0.2	421	422	22.4	70.7
2025-08-27T18:35	10	0	0.1	0	0	421	0.2	421	422	22.4	70.4
2025-08-27T18:36	10	0	0.1	0	0	421	0.2	420	422	22.4	70.3
2025-08-27T18:37	10	0	0.1	0	0	421	0.2	421	422	22.4	70.0
2025-08-27T18:38	10	0	0.1	0	0	421	0.2	421	422	22.5	70.1
2025-08-27T18:39	10	0	0.1	0	0	421	0.2	421	422	22.4	70.1
2025-08-27T18:40	10	0	0.1	0	0	421	0.2	421	421	22.4	70.2
2025-08-27T18:41	10	0	0.1	0	0	421	0.2	421	421	22.5	69.8
2025-08-27T18:42	10	0	0.1	0	1	421	0.3	420	421	22.5	70.0
2025-08-27T18:43	10	0	0.1	0	0	421	0.2	420	421	22.5	70.1
2025-08-27T18:44	10	0	0.1	0	0	421	0.3	420	422	22.5	70.1
2025-08-27T18:45	10	0	0.2	0	1	421	0.2	420	421	22.5	70.3
2025-08-27T18:46	10	0	0.1	0	0	421	0.3	420	422	22.5	70.6
2025-08-27T18:47	10	0	0.1	0	0	421	0.2	420	421	22.5	70.8
2025-08-27T18:48	10	0	0.1	0	1	420	0.2	420	421	22.5	71.1
2025-08-27T18:49	10	0	0.1	0	0	420	0.2	419	421	22.5	71.1
2025-08-27T18:50	10	0	0.2	0	1	419	0.3	419	420	22.5	71.1
2025-08-27T18:51	10	0	0.1	0	0	419	0.2	419	420	22.4	72.3
2025-08-27T18:52	10	0	0.1	0	0	420	0.2	419	421	22.3	72.3
2025-08-27T18:53	10	0	0.1	0	0	420	0.2	419	420	22.3	73.0
2025-08-27T18:54	10	0	0.1	0	0	420	0.2	419	421	22.2	73.0
2025-08-27T18:55	10	0	0.1	0	1	420	0.2	419	420	22.3	72.4
2025-08-27T18:56	10	0	0.1	0	0	420	0.2	419	420	22.3	72.2
2025-08-27T18:57	10	0	0.2	0	1	419	0.3	419	420	22.3	72.3
2025-08-27T18:58	10	0	0.1	0	0	419	0.3	418	419	22.2	72.9
2025-08-27T18:59	10	0	0.2	0	1	419	0.4	418	420	22.2	73.8
2025-08-27T19:00	10	0	0.2	0	1	419	0.3	418	420	22.1	73.6
2025-08-27T19:01	10	0	0.2	0	1	419	0.2	418	420	22.1	73.9
2025-08-27T19:02	10	0	0.2	0	1	419	0.3	418	419	22.0	74.6
2025-08-27T19:03	10	0	0.1	0	0	419	0.3	418	420	21.9	76.1
2025-08-27T19:04	10	0	0.2	0	1	418	0.3	418	419	21.9	76.3
2025-08-27T19:05	10	0	0.2	0	0	418	0.2	418	419	21.8	76.9
2025-08-27T19:06	10	0	0.2	0	1	418	0.4	417	419	21.9	77.2
2025-08-27T19:07	10	0	0.2	0	1	418	0.4	417	419	21.9	77.6
2025-08-27T19:08	10	0	0.1	0	0	418	0.2	417	418	21.9	78.3
2025-08-27T19:09	10	0	0.1	0	0	417	0.2	417	418	21.8	79.2
2025-08-27T19:10	10	0	0.1	0	0	417	0.2	417	418	21.7	79.7
2025-08-27T19:11	10	0	0.1	0	0	417	0.2	416	417	21.6	79.2
2025-08-27T19:12	10	0	0.1	0	0	416	0.2	416	417	21.5	79.1
2025-08-27T19:13	10	0	0.1	0	0	416	0.2	416	416	21.4	79.4
2025-08-27T19:14	10	0	0.1	0	0	416	0.2	415	416	21.4	80.3
2025-08-27T19:15	10	0	0.1	0	0	416	0.2	415	416	21.4	80.5
2025-08-27T19:16	10	0	0.1	0	0	415	0.2	414	416	21.3	80.7
2025-08-27T19:17	10	0	0.1	0	0	415	0.2	414	415	21.3	81.2
2025-08-27T19:18	10	0	0.0	0	0	414	0.2	414	415	21.3	81.6
2025-08-27T19:19	10	0	0.0	0	0	414	0.2	414	415	21.3	81.8
2025-08-27T19:20	10	0	0.0	0	0	414	0.2	413	414	21.3	82.3
2025-08-27T19:21	10	0	0.0	0	0	414	0.2	413	414	21.2	82.7
2025-08-27T19:22	10	0	0.1	0	0	413	0.2	413	414	21.2	82.9
2025-08-27T19:23	10	0	0.1	0	0	413	0.2	413	413	21.1	83.3
2025-08-27T19:24	10	0	0.0	0	0	413	0.2	412	414	21.1	83.7
2025-08-27T19:25	10	0	0.0	0	0	413	0.2	412	413	21.0	84.2
2025-08-27T19:26	10	0	0.0	0	0	413	0.3	412	413	21.0	84.5
2025-08-27T19:27	10	0	0.1	0	0	413	0.2	412	413	21.0	84.9
2025-08-27T19:28	10	0	0.1	0	0	413	0.2	412	413	20.9	85.3
2025-08-27T19:29	10	0	0.1	0	0	413	0.2	412	413	20.9	85.8
2025-08-27T19:30	10	0	0.1	0	0	413	0.2	412	413	20.8	86.2
2025-08-27T19:31	10	0	0.1	0	0	413	0.2	412	414	20.8	86.3
2025-08-27T19:32	10	0	0.0	0	0	413	0.2	412	413	20.8	86.7
2025-08-27T19:33	10	0	0.1	0	0	413	0.2	412	413	20.8	86.8
2025-08-27T19:34	10	0	0.1	0	0	413	0.3	413	414	20.7	86.9
2025-08-27T19:35	10	0	0.0	0	0	413	0.2	413	414	20.7	87.2
2025-08-27T19:36	10	0	0.1	0	0	413	0.3	413	414	20.6	87.5
2025-08-27T19:37	10	0	0.1	0	0	414	0.2	413	414	20.6	87.7
2025-08-27T19:38	10	0	0.1	0	0	414	0.3	413	415	20.7	87.6
2025-08-27T19:39	10	0	0.1	0	0	414	0.3	414	415	20.7	87.5
2025-08-27T19:40	10	0	0.1	0	0	415	0.2	414	415	20.7	87.5
2025-08-27T19:41	10	0	0.1	0	0	415	0.3	414	416	20.8	86.9
2025-08-27T19:42	10	0	0.0	0	0	415	0.3	415	416	20.9	86.2
2025-08-27T19:43	10	0	0.1	0	0	415	0.2	415	416	20.9	85.6
2025-08-27T19:44	10	0	0.1	0	0	415	0.3	415	416	21.0	85.4
2025-08-27T19:45	10	0	0.1	0	0	416	0.3	415	416	21.0	84.3
2025-08-27T19:46	10	0	0.1	0	0	416	0.3	415	417	21.2	83.0
2025-08-27T19:47	10	0	0.1	0	0	416	0.2	415	417	21.2	84.0
2025-08-27T19:48	10	0	0.1	0	0	417	0.3	416	417	21.3	83.3
2025-08-27T19:49	10	0	0.1	0	0	417	0.2	417	418	21.5	81.8
2025-08-27T19:50	10	0	0.1	0	1	417	0.3	416	418	21.5	81.9
2025-08-27T19:51	10	0	0.1	0	0	417	0.3	416	418	21.5	82.1
2025-08-27T19:52	10	0	0.1	0	1	417	0.3	416	417	21.3	82.9
2025-08-27T19:53	10	0	0.1	0	1	417	0.3	416	417	21.2	83.2
2025-08-27T19:54	10	0	0.1	0	0	416	0.2	416	417	21.2	83.6
2025-08-27T19:55	10	0	0.1	0	0	416	0.3	415	416	21.1	83.8
2025-08-27T19:56	10	0	0.1	0	0	416	0.3	415	417	21.1	83.8
2025-08-27T19:57	10	0	0.1	0	0	416	0.2	416	417	21.2	83.8
2025-08-27T19:58	10	0	0.1	0	0	416	0.2	415	416	21.2	83.8
2025-08-27T19:59	10	0	0.1	0	0	415	0.2	415	416	21.2	83.8
2025-08-27T20:00	10	0	0.1	0	0	415	0.2	415	416	21.1	84.0
2025-08-27T20:01	10	0	0.1	0	0	415	0.5	414	416	21.2	84.1
2025-08-27T20:02	10	0	0.1	0	0	415	0.3	414	415	21.0	85.1
2025-08-27T20:03	10	0	0.1	0	0	415	0.2	414	415	20.8	86.0
2025-08-27T20:04	10	0	0.1	0	0	414	0.2	414	415	20.8	86.4
2025-08-27T20:05	10	0	0.1	0	0	414	0.3	414	415	20.7	86.6
2025-08-27T20:06	10	0	0.1	0	0	414	0.3	413	415	20.7	86.4
2025-08-27T20:07	10	0	0.1	0	0	415	0.2	414	415	20.7	86.5
2025-08-27T20:08	10	0	0.1	0	0	414	0.2	413	414	20.7	86.3
2025-08-27T20:09	10	1	2.1	0	14	414	0.2	413	414	20.6	86.7
2025-08-27T20:10	10	0	0.1	0	0	414	0.3	413	414	20.7	86.5
2025-08-27T20:11	10	0	0.1	0	0	413	0.2	412	413	20.7	86.3
2025-08-27T20:12	10	0	0.1	0	0	412	0.2	412	413	20.7	86.2
2025-08-27T20:13	10	0	0.1	0	0	412	0.2	412	413	20.8	86.0
2025-08-27T20:14	10	0	0.1	0	0	412	0.2	411	412	20.7	86.1
2025-08-27T20:15	10	0	0.1	0	0	412	0.2	411	412	20.7	86.2
2025-08-27T20:16	10	0	0.1	0	0	412	0.3	411	412	20.7	85.9
2025-08-27T20:17	10	0	0.1	0	0	412	0.3	411	412	20.6	86.0
2025-08-27T20:18	10	0	0.1	0	0	412	0.2	412	413	20.6	86.2
2025-08-27T20:19	10	0	0.1	0	0	412	0.2	412	413	20.7	86.2
2025-08-27T20:20	10	0	0.0	0	0	413	0.3	412	413	20.7	86.0
2025-08-27T20:21	10	0	0.0	0	0	412	0.2	412	413	20.7	86.7
2025-08-27T20:22	10	0	0.1	0	0	412	0.2	412	413	20.6	87.3
2025-08-27T20:23	10	0	0.1	0	0	412	0.2	412	412	20.6	87.6
2025-08-27T20:24	10	0	0.1	0	0	412	0.3	411	412	20.5	88.0
2025-08-27T20:25	10	0	0.1	0	0	411	0.2	411	412	20.5	88.2
2025-08-27T20:26	10	0	0.1	0	0	411	0.3	411	412	20.5	88.6
2025-08-27T20:27	10	0	0.1	0	0	411	0.2	411	412	20.5	88.6
2025-08-27T20:28	10	0	0.1	0	0	411	0.2	411	412	20.4	89.0
2025-08-27T20:29	10	0	0.0	0	0	411	0.2	411	412	20.4	88.6
2025-08-27T20:30	10	0	0.1	0	0	411	0.2	411	412	20.5	87.8
2025-08-27T20:31	10	0	0.1	0	0	411	0.2	411	411	20.6	87.0
2025-08-27T20:32	10	0	0.1	0	0	411	0.2	410	411	20.6	86.7
2025-08-27T20:33	10	0	0.1	0	0	410	0.2	410	411	20.6	86.7
2025-08-27T20:34	10	0	0.1	0	0	410	0.2	410	411	20.6	86.8
2025-08-27T20:35	10	0	0.1	0	0	410	0.2	409	410	20.6	86.7
2025-08-27T20:36	10	0	0.1	0	0	410	0.2	410	410	20.6	86.6
2025-08-27T20:37	10	0	0.1	0	1	410	0.2	410	411	20.6	86.5
2025-08-27T20:38	10	0	0.1	0	0	411	0.2	410	411	20.7	86.4
2025-08-27T20:39	10	0	0.2	0	1	411	0.2	411	412	20.7	86.5
2025-08-27T20:40	10	0	0.1	0	1	411	0.3	411	412	20.6	86.5
2025-08-27T20:41	10	0	0.1	0	0	412	0.3	411	412	20.6	86.6
2025-08-27T20:42	10	0	0.2	0	1	412	0.2	411	412	20.6	86.6
2025-08-27T20:43	10	0	0.2	0	1	412	0.3	411	413	20.6	83.7
2025-08-27T20:44	10	0	0.2	0	1	412	0.3	411	413	20.6	86.6
2025-08-27T20:45	10	0	0.1	0	0	412	0.3	411	412	20.6	79.4
2025-08-27T20:46	10	0	0.1	0	0	411	0.3	411	412	20.6	86.6
2025-08-27T20:47	10	0	0.2	0	1	411	0.2	411	412	20.6	86.6
2025-08-27T20:48	10	0	0.1	0	0	411	0.3	410	411	20.6	86.6
2025-08-27T20:49	10	0	0.1	0	0	410	0.4	409	411	20.5	86.4
2025-08-27T20:50	10	0	0.1	0	0	410	0.3	409	410	20.3	86.3
2025-08-27T20:51	10	0	0.1	0	1	409	0.3	409	410	20.3	86.8
2025-08-27T20:52	10	0	0.2	0	1	409	0.3	408	409	20.2	87.7
2025-08-27T20:53	10	0	0.2	0	1	409	0.2	408	409	20.2	88.2
2025-08-27T20:54	10	0	0.2	0	1	408	0.3	408	409	20.2	90.1
2025-08-27T20:55	10	0	0.2	0	1	408	0.3	408	409	20.2	89.9
2025-08-27T20:56	10	0	0.2	0	1	409	0.3	408	409	20.3	88.1
2025-08-27T20:57	10	0	0.1	0	0	408	0.2	408	409	20.3	88.8
2025-08-27T20:58	10	0	0.1	0	1	408	0.2	407	408	20.3	88.9
2025-08-27T20:59	10	0	0.2	0	1	408	0.3	407	409	20.2	89.4
2025-08-27T21:00	10	0	0.2	0	1	407	0.3	406	408	20.1	89.8
2025-08-27T21:01	10	0	0.2	0	1	407	0.3	406	408	20.0	90.2
2025-08-27T21:02	10	0	0.1	0	0	406	0.3	406	407	20.0	90.5
2025-08-27T21:03	10	0	0.1	0	0	406	0.2	406	406	20.0	90.4
2025-08-27T21:04	10	0	0.0	0	0	406	0.2	406	407	20.0	90.8
2025-08-27T21:05	10	0	0.1	0	0	407	0.4	406	408	19.9	91.3
2025-08-27T21:06	10	0	0.1	0	0	407	0.3	406	407	20.0	90.2
2025-08-27T21:07	10	0	0.0	0	0	406	0.2	406	407	20.0	90.8
2025-08-27T21:08	10	0	0.1	0	0	406	0.2	406	407	19.9	91.3
2025-08-27T21:09	10	0	0.1	0	0	406	0.3	406	407	19.9	91.0
2025-08-27T21:10	10	0	0.0	0	0	406	0.2	406	406	19.9	91.0
2025-08-27T21:11	10	0	0.1	0	0	405	0.2	405	406	20.0	90.6
2025-08-27T21:12	10	0	0.1	0	0	405	0.2	404	405	20.0	90.3
2025-08-27T21:13	10	0	0.1	0	1	405	0.2	404	405	20.0	89.8
2025-08-27T21:14	10	0	0.1	0	0	405	0.3	404	405	20.0	90.4
2025-08-27T21:15	10	0	0.1	0	0	404	0.3	404	405	20.0	90.5
2025-08-27T21:16	10	0	0.2	0	1	404	0.3	403	405	19.9	91.0
2025-08-27T21:17	10	0	0.0	0	0	404	0.2	403	405	19.8	91.4
2025-08-27T21:18	10	0	0.1	0	0	404	0.2	404	405	19.8	91.4
2025-08-27T21:19	10	0	0.1	0	0	404	0.2	404	405	19.8	91.3
2025-08-27T21:20	10	0	0.0	0	0	405	0.3	405	406	19.7	92.3
2025-08-27T21:21	10	0	0.1	0	0	405	0.2	404	405	19.7	92.3
2025-08-27T21:22	10	0	0.0	0	0	404	0.2	404	405	19.7	92.3
2025-08-27T21:23	10	0	0.1	0	0	404	0.3	403	404	19.7	91.9
2025-08-27T21:24	10	0	0.0	0	0	403	0.2	403	404	19.6	91.9
2025-08-27T21:25	10	0	0.1	0	0	403	0.3	402	404	19.5	92.2
2025-08-27T21:26	10	0	0.1	0	0	404	0.3	403	405	19.5	92.3
2025-08-27T21:27	10	0	0.1	0	0	404	0.3	404	405	19.5	92.0
2025-08-27T21:28	10	0	0.0	0	0	405	0.3	404	405	19.6	91.6
2025-08-27T21:29	10	0	0.0	0	0	405	0.2	405	406	19.6	91.4
2025-08-27T21:30	10	0	0.1	0	0	406	0.4	405	406	19.8	90.8
2025-08-27T21:31	10	0	0.1	0	0	406	0.3	406	407	19.9	89.7
2025-08-27T21:32	10	0	0.1	0	0	407	0.3	406	407	20.0	89.2
2025-08-27T21:33	10	0	0.1	0	0	407	0.3	407	408	20.1	88.3
2025-08-27T21:34	10	0	0.1	0	0	407	0.2	406	408	20.1	88.7
2025-08-27T21:35	10	0	0.1	0	0	407	0.3	407	408	20.0	89.3
2025-08-27T21:36	10	0	0.1	0	0	407	0.2	407	408	19.9	89.7
2025-08-27T21:37	10	0	0.1	0	0	408	0.3	407	408	19.8	89.7
2025-08-27T21:38	10	0	0.1	0	0	408	0.2	407	408	19.8	89.4
2025-08-27T21:39	10	0	0.1	0	0	408	0.3	408	409	19.6	89.6
2025-08-27T21:40	10	0	0.1	0	0	408	0.2	408	409	19.5	89.8
2025-08-27T21:41	10	0	0.1	0	0	408	0.3	407	409	19.4	90.8
2025-08-27T21:42	10	0	0.1	0	0	408	0.2	408	409	19.3	91.4
2025-08-27T21:43	10	0	0.1	0	0	408	0.3	407	409	19.4	91.2
2025-08-27T21:44	10	0	0.1	0	0	409	0.4	408	409	19.4	90.7
2025-08-27T21:45	10	0	0.1	0	0	409	0.2	408	409	19.5	90.3
2025-08-27T21:46	10	0	0.1	0	0	409	0.3	408	409	19.4	90.6
2025-08-27T21:47	10	0	0.0	0	0	408	0.2	408	409	19.4	91.2
2025-08-27T21:48	10	0	0.1	0	0	408	0.3	408	409	19.3	91.6
2025-08-27T21:49	10	0	0.1	0	0	409	0.3	408	409	19.4	91.5
2025-08-27T21:50	10	0	0.1	0	0	409	0.3	408	410	19.5	90.5
2025-08-27T21:51	10	0	0.1	0	0	409	0.3	409	410	19.6	89.8
2025-08-27T21:52	10	0	0.1	0	0	409	0.3	409	410	19.6	89.4
2025-08-27T21:53	10	0	0.1	0	0	410	0.3	409	410	19.7	88.8
2025-08-27T21:54	10	0	0.1	0	0	410	0.2	409	410	19.7	88.1
2025-08-27T21:55	10	0	0.1	0	0	410	0.3	409	410	19.8	87.6
2025-08-27T21:56	10	0	0.1	0	0	410	0.2	409	410	19.9	87.1
2025-08-27T21:57	10	0	0.1	0	0	409	0.3	409	410	19.8	87.2
2025-08-27T21:58	10	0	0.1	0	0	409	0.3	409	410	19.9	86.4
2025-08-27T21:59	10	0	0.1	0	0	409	0.2	409	410	19.9	86.6
2025-08-27T22:00	10	0	0.1	0	0	409	0.2	409	410	19.9	86.4
2025-08-27T22:01	10	0	0.1	0	1	409	0.2	409	410	19.9	86.6
2025-08-27T22:02	10	0	0.1	0	0	409	0.3	409	410	19.8	86.8
2025-08-27T22:03	10	0	0.1	0	0	409	0.3	409	410	19.8	86.5
2025-08-27T22:04	10	0	0.1	0	0	409	0.3	408	410	19.7	87.5
2025-08-27T22:05	10	0	0.1	0	0	409	0.3	408	410	19.7	87.6
2025-08-27T22:06	10	0	0.1	0	0	409	0.3	408	410	19.6	87.6
2025-08-27T22:07	10	0	0.1	0	0	409	0.2	408	409	19.6	88.3
2025-08-27T22:08	10	0	0.1	0	0	409	0.2	408	409	19.5	88.3
2025-08-27T22:09	10	0	0.1	0	0	409	0.2	409	410	19.6	88.2
2025-08-27T22:10	10	0	0.1	0	0	409	0.2	409	409	19.6	87.7
2025-08-27T22:11	10	0	0.1	0	0	409	0.2	409	409	19.6	87.4
2025-08-27T22:12	10	0	0.1	0	0	409	0.2	408	409	19.6	87.7
2025-08-27T22:13	10	0	0.1	0	0	409	0.3	408	410	19.6	87.7
2025-08-27T22:14	10	0	0.1	0	0	409	0.2	408	409	19.6	87.9
2025-08-27T22:15	10	0	0.1	0	0	409	0.3	408	410	19.5	88.2
2025-08-27T22:16	10	0	0.1	0	0	409	0.2	408	409	19.5	88.2
2025-08-27T22:17	10	0	0.1	0	0	409	0.3	408	409	19.5	88.2
2025-08-27T22:18	10	0	0.1	0	0	409	0.2	408	410	19.5	88.3
2025-08-27T22:19	10	0	0.1	0	0	409	0.3	408	410	19.5	88.4
2025-08-27T22:20	10	0	0.1	0	0	409	0.3	408	409	19.5	88.7
2025-08-27T22:21	10	0	0.1	0	0	409	0.2	409	410	19.4	89.0
2025-08-27T22:22	10	0	0.1	0	0	409	0.3	408	410	19.4	88.9
2025-08-27T22:23	10	0	1.5	0	10	409	0.3	409	410	19.5	88.5
2025-08-27T22:24	10	0	0.1	0	0	409	0.2	409	410	19.5	88.3
2025-08-27T22:25	10	0	0.1	0	0	409	0.2	409	410	19.5	88.3
2025-08-27T22:26	10	0	0.1	0	0	409	0.2	409	409	19.5	88.0
2025-08-27T22:27	10	0	0.1	0	0	409	0.2	408	409	19.5	87.9
2025-08-27T22:28	10	0	0.1	0	0	409	0.2	408	409	19.5	87.4
2025-08-27T22:29	10	0	0.1	0	0	409	0.2	408	409	19.5	86.8
2025-08-27T22:30	10	0	0.1	0	0	409	0.2	408	409	19.5	86.8
2025-08-27T22:31	10	0	0.1	0	0	409	0.2	408	409	19.5	87.0
2025-08-27T22:32	10	0	0.1	0	0	409	0.2	408	409	19.5	86.9
2025-08-27T22:33	10	0	0.1	0	0	409	0.2	408	409	19.5	86.8
2025-08-27T22:34	10	0	0.1	0	0	409	0.2	408	409	19.5	87.2
2025-08-27T22:35	10	0	0.1	0	0	409	0.3	408	409	19.5	87.1
2025-08-27T22:36	10	0	0.1	0	0	409	0.2	409	410	19.5	87.4
2025-08-27T22:37	10	0	0.1	0	0	409	0.3	409	410	19.6	87.4
2025-08-27T22:38	10	0	0.1	0	0	409	0.2	409	410	19.6	87.4
2025-08-27T22:39	10	0	0.1	0	0	409	0.2	409	410	19.5	87.3
2025-08-27T22:40	10	0	0.1	0	0	409	0.2	409	410	19.5	87.2
2025-08-27T22:41	10	0	0.1	0	0	409	0.2	409	410	19.6	86.7
2025-08-27T22:42	10	0	0.1	0	0	409	0.3	408	409	19.5	87.1
2025-08-27T22:43	10	0	0.1	0	0	409	0.2	408	409	19.5	87.4
2025-08-27T22:44	10	0	0.1	0	0	409	0.3	408	410	19.5	87.0
2025-08-27T22:45	10	0	0.1	0	0	409	0.3	408	409	19.5	86.8
2025-08-27T22:46	10	0	0.1	0	0	409	0.2	409	410	19.5	86.5
2025-08-27T22:47	10	0	0.1	0	0	409	0.3	408	410	19.5	86.9
2025-08-27T22:48	10	0	0.1	0	0	409	0.2	409	410	19.5	86.5
2025-08-27T22:49	10	0	0.1	0	0	409	0.2	409	410	19.6	85.9
2025-08-27T22:50	10	0	0.1	0	0	409	0.2	409	410	19.6	86.0
2025-08-27T22:51	10	0	0.1	0	0	409	0.2	409	410	19.6	85.5
2025-08-27T22:52	10	0	0.1	0	0	409	0.3	409	410	19.6	85.4
2025-08-27T22:53	10	0	0.1	0	0	409	0.2	408	409	19.6	85.8
2025-08-27T22:54	10	0	0.1	0	0	409	0.2	408	409	19.5	86.3
2025-08-27T22:55	10	0	0.1	0	0	409	0.2	409	410	19.5	86.3
2025-08-27T22:56	10	0	0.1	0	0	409	0.2	408	409	19.5	85.9
2025-08-27T22:57	10	0	0.1	0	0	409	0.2	408	409	19.5	86.1
2025-08-27T22:58	10	0	0.1	0	0	409	0.2	408	409	19.5	86.0
2025-08-27T22:59	10	0	0.1	0	0	409	0.2	408	409	19.5	86.0
2025-08-27T23:00	10	0	0.1	0	0	409	0.3	408	409	19.5	86.8
2025-08-27T23:01	10	0	0.1	0	0	409	0.3	408	409	19.5	87.5
2025-08-27T23:02	10	0	0.1	0	0	409	0.3	408	409	19.5	87.4
2025-08-27T23:03	10	0	0.1	0	0	409	0.2	408	409	19.5	87.7
2025-08-27T23:04	10	0	0.1	0	0	409	0.2	408	409	19.5	87.7
2025-08-27T23:05	10	0	0.1	0	0	409	0.2	408	409	19.5	87.8
2025-08-27T23:06	10	0	0.1	0	0	409	0.3	408	409	19.4	88.2
2025-08-27T23:07	10	0	0.1	0	0	408	0.2	408	409	19.4	88.0
2025-08-27T23:08	10	0	0.0	0	0	408	0.2	408	409	19.4	87.7
2025-08-27T23:09	10	0	0.1	0	0	408	0.2	408	409	19.4	88.1
2025-08-27T23:10	10	0	0.1	0	0	408	0.2	408	409	19.3	88.2
2025-08-27T23:11	10	0	0.1	0	0	408	0.3	407	409	19.3	88.0
2025-08-27T23:12	10	0	0.1	0	0	408	0.2	407	408	19.3	87.9
2025-08-27T23:13	10	0	0.1	0	0	408	0.2	407	408	19.3	87.7
2025-08-27T23:14	10	0	0.1	0	0	408	0.3	407	408	19.3	88.5
2025-08-27T23:15	10	0	0.1	0	0	408	0.2	408	408	19.3	88.2
2025-08-27T23:16	10	0	0.1	0	0	408	0.3	407	408	19.2	88.9
2025-08-27T23:17	10	0	0.1	0	0	407	0.2	407	408	19.1	89.3
2025-08-27T23:18	10	0	0.1	0	0	408	0.2	407	408	19.1	89.4
2025-08-27T23:19	10	0	0.1	0	0	408	0.2	407	408	19.1	89.8
2025-08-27T23:20	10	0	0.0	0	0	408	0.2	407	408	19.0	90.2
2025-08-27T23:21	10	0	0.1	0	0	408	0.2	408	408	19.1	89.2
2025-08-27T23:22	10	0	0.1	0	0	408	0.2	407	408	19.1	89.6
2025-08-27T23:23	10	0	0.1	0	0	408	0.2	407	409	19.1	90.1
2025-08-27T23:24	10	0	0.1	0	0	408	0.2	408	408	19.0	90.1
2025-08-27T23:25	10	0	0.1	0	0	408	0.2	407	408	19.0	90.5
2025-08-27T23:26	10	0	0.1	0	0	408	0.2	407	408	19.1	89.6
2025-08-27T23:27	10	0	0.1	0	0	408	0.3	407	408	19.2	88.8
2025-08-27T23:28	10	0	0.1	0	0	408	0.2	407	408	19.1	89.2
2025-08-27T23:29	10	0	0.1	0	0	408	0.3	407	408	19.1	89.0
2025-08-27T23:30	10	0	0.1	0	0	408	0.2	408	409	19.1	88.9
2025-08-27T23:31	10	0	0.1	0	0	408	0.3	407	408	19.2	88.3
2025-08-27T23:32	10	0	0.1	0	0	408	0.2	407	408	19.2	89.1
2025-08-27T23:33	10	0	0.1	0	1	408	0.2	407	408	19.1	89.3
2025-08-27T23:34	10	0	0.1	0	0	408	0.3	408	409	19.2	88.3
2025-08-27T23:35	10	0	0.1	0	0	408	0.2	408	409	19.3	87.8
2025-08-27T23:36	10	0	0.1	0	0	408	0.2	408	408	19.3	88.4
2025-08-27T23:37	10	0	0.1	0	0	408	0.3	408	409	19.2	88.3
2025-08-27T23:38	10	0	0.1	0	0	408	0.2	408	409	19.2	88.2
2025-08-27T23:39	10	0	0.1	0	1	408	0.2	408	409	19.2	88.2
2025-08-27T23:40	10	0	0.1	0	0	408	0.2	408	409	19.2	88.4
2025-08-27T23:41	10	0	0.1	0	1	408	0.3	407	409	19.2	88.6
2025-08-27T23:42	10	0	0.1	0	0	408	0.3	408	409	19.2	88.8
2025-08-27T23:43	10	0	0.1	0	0	408	0.2	408	409	19.2	89.2
2025-08-27T23:44	10	0	0.1	0	0	408	0.3	407	409	19.1	89.8
2025-08-27T23:45	10	0	0.1	0	0	408	0.3	407	409	19.1	89.9
2025-08-27T23:46	10	0	0.1	0	0	408	0.3	407	408	19.1	90.3
2025-08-27T23:47	10	0	0.1	0	0	408	0.2	407	408	19.0	90.7
2025-08-27T23:48	10	0	0.1	0	0	408	0.2	407	408	19.0	91.1
2025-08-27T23:49	10	0	0.2	0	1	407	0.3	407	408	19.0	91.8
2025-08-27T23:50	10	0	0.2	0	1	408	0.3	407	408	18.9	92.3
2025-08-27T23:51	10	0	0.1	0	0	407	0.3	407	408	18.9	92.4
2025-08-27T23:52	10	0	0.1	0	0	407	0.3	407	408	18.9	92.6
2025-08-27T23:53	10	0	0.1	0	1	407	0.3	407	408	18.9	92.8
2025-08-27T23:54	10	0	0.1	0	0	408	0.3	407	408	18.9	92.8
2025-08-27T23:55	10	0	0.2	0	1	408	0.3	407	408	18.9	93.0
2025-08-27T23:56	10	0	0.2	0	1	408	0.3	407	408	18.9	93.2
2025-08-27T23:57	10	0	0.2	0	1	407	0.3	407	408	18.9	93.2
2025-08-27T23:58	10	0	0.1	0	0	407	0.2	407	408	18.9	93.5
2025-08-27T23:59	10	0	0.2	0	1	408	0.2	407	408	18.8	93.4
2025-08-28T00:00	10	0	0.1	0	0	407	0.2	407	408	18.8	93.4
2025-08-28T00:01	10	0	0.2	0	0	407	0.2	407	408	18.8	93.6
2025-08-28T00:02	10	0	0.1	0	0	407	0.3	407	408	18.8	93.7
2025-08-28T00:03	10	0	0.2	0	0	407	0.3	406	408	18.8	93.4
2025-08-28T00:04	10	0	0.2	0	0	407	0.3	407	408	18.8	93.4
2025-08-28T00:05	10	0	0.2	0	1	407	0.2	407	408	18.8	93.3
2025-08-28T00:06	10	0	0.2	0	1	407	0.3	407	408	18.8	93.6
2025-08-28T00:07	10	0	0.2	0	1	408	0.3	407	409	18.8	94.0
2025-08-28T00:08	10	0	0.2	-1	0	408	0.4	407	409	18.9	93.4
2025-08-28T00:09	10	0	0.2	-1	1	407	0.6	405	408	18.9	91.1
2025-08-28T00:10	10	0	0.2	0	1	406	0.4	405	407	18.8	87.3
2025-08-28T00:11	10	0	0.1	0	0	405	0.3	404	406	18.7	87.9
2025-08-28T00:12	10	0	0.2	0	0	405	0.3	404	405	18.6	88.4
2025-08-28T00:13	10	0	0.2	0	1	405	0.3	404	405	18.5	89.7
2025-08-28T00:14	10	0	0.1	0	0	404	0.4	404	405	18.4	89.0
2025-08-28T00:15	10	0	0.1	0	0	404	0.2	403	404	18.4	88.2
2025-08-28T00:16	10	0	0.1	0	0	404	0.3	403	404	18.3	88.7
2025-08-28T00:17	10	0	0.1	0	0	403	0.2	403	403	18.2	88.3
2025-08-28T00:18	10	0	0.1	0	0	403	0.2	402	403	18.1	88.8
2025-08-28T00:19	10	0	0.2	0	0	403	0.2	402	403	18.0	89.4
2025-08-28T00:20	10	0	0.1	0	1	403	0.2	402	403	18.0	88.6
2025-08-28T00:21	10	0	0.1	0	0	402	0.2	402	403	18.0	88.0
2025-08-28T00:22	10	0	0.1	0	0	402	0.2	402	403	17.9	88.8
2025-08-28T00:23	10	0	0.0	0	0	402	0.2	401	402	17.9	88.4
2025-08-28T00:24	10	0	0.1	0	0	402	0.2	401	403	17.8	88.3
2025-08-28T00:25	10	0	0.1	0	0	402	0.2	401	402	17.8	87.5
2025-08-28T00:26	10	0	0.0	0	0	402	0.2	401	402	17.8	88.4
2025-08-28T00:27	10	0	0.1	0	0	401	0.3	401	402	17.7	88.3
2025-08-28T00:28	10	0	0.1	0	0	401	0.2	400	401	17.7	88.1
2025-08-28T00:29	10	0	0.1	0	0	401	0.2	400	401	17.7	89.1
2025-08-28T00:30	10	0	0.1	0	0	401	0.2	400	401	17.6	89.6
2025-08-28T00:31	10	0	0.1	0	0	401	0.2	400	401	17.6	89.3
2025-08-28T00:32	10	0	0.1	0	0	400	0.2	400	401	17.6	89.5
2025-08-28T00:33	10	0	0.1	0	0	400	0.2	400	401	17.5	89.8
2025-08-28T00:34	10	0	0.1	0	0	400	0.2	399	401	17.5	89.4
2025-08-28T00:35	10	0	0.1	0	0	400	0.2	399	400	17.6	88.3
2025-08-28T00:36	10	0	0.1	0	0	400	0.3	400	401	17.5	89.4
2025-08-28T00:37	10	0	0.1	0	0	400	0.3	400	401	17.4	89.9
2025-08-28T00:38	10	0	0.0	0	0	400	0.2	399	401	17.5	90.0
2025-08-28T00:39	10	0	0.0	0	0	400	0.2	399	401	17.4	90.8
2025-08-28T00:40	10	0	0.1	0	0	400	0.2	400	400	17.4	90.2
2025-08-28T00:41	10	0	0.0	0	0	400	0.2	399	400	17.5	90.1
2025-08-28T00:42	10	0	0.1	0	0	399	0.3	399	400	17.4	91.2
2025-08-28T00:43	10	0	0.1	0	0	399	0.3	398	399	17.3	91.7
2025-08-28T00:44	10	0	0.1	0	0	399	0.3	398	399	17.3	92.2
2025-08-28T00:45	10	0	0.1	0	0	399	0.3	398	399	17.2	92.3
2025-08-28T00:46	10	0	0.0	0	0	399	0.3	398	399	17.2	92.4
2025-08-28T00:47	10	0	0.1	0	0	399	0.2	398	399	17.2	91.6
2025-08-28T00:48	10	0	0.1	0	0	399	0.2	398	399	17.2	91.7
2025-08-28T00:49	10	0	0.1	0	0	399	0.3	398	399	17.2	92.0
2025-08-28T00:50	10	0	0.1	0	0	399	0.2	398	399	17.2	91.8
2025-08-28T00:51	10	0	0.1	0	0	399	0.2	398	399	17.2	91.5
2025-08-28T00:52	10	0	0.1	0	0	399	0.2	398	399	17.2	91.5
2025-08-28T00:53	10	0	0.1	0	0	399	0.2	398	399	17.2	90.9
2025-08-28T00:54	10	0	0.1	0	0	398	0.3	398	399	17.2	91.3
2025-08-28T00:55	10	0	0.1	0	0	398	0.2	398	399	17.2	91.2
2025-08-28T00:56	10	0	0.1	0	0	398	0.3	398	399	17.2	91.8
2025-08-28T00:57	10	0	0.1	0	0	398	0.2	398	399	17.2	91.3
2025-08-28T00:58	10	0	0.1	0	0	399	0.2	398	399	17.2	92.0
2025-08-28T00:59	10	0	0.1	0	0	398	0.2	398	399	17.1	91.2
2025-08-28T01:00	10	0	0.1	0	0	398	0.3	398	399	17.1	91.6
2025-08-28T01:01	10	0	0.1	0	0	398	0.2	398	398	17.1	90.9
2025-08-28T01:02	10	0	0.1	0	0	398	0.3	397	398	17.2	90.6
2025-08-28T01:03	10	0	0.1	0	0	398	0.2	397	398	17.2	90.3
2025-08-28T01:04	10	0	0.1	0	0	398	0.3	397	398	17.1	90.8
2025-08-28T01:05	10	0	0.1	0	0	398	0.3	397	398	17.1	91.0
2025-08-28T01:06	10	0	0.1	0	0	398	0.2	397	398	17.1	90.1
2025-08-28T01:07	10	0	0.1	0	0	398	0.2	397	398	17.2	89.7
2025-08-28T01:08	10	0	0.1	0	0	397	0.2	397	398	17.1	90.9
2025-08-28T01:09	10	0	0.1	0	0	397	0.3	397	398	17.1	90.8
2025-08-28T01:10	10	0	0.1	0	0	397	0.2	397	398	17.1	91.4
2025-08-28T01:11	10	0	0.1	0	0	398	0.2	397	398	17.0	91.0
2025-08-28T01:12	10	0	0.1	0	0	398	0.3	397	398	17.1	90.6
2025-08-28T01:13	10	0	0.1	0	0	398	0.2	397	398	17.1	90.5
2025-08-28T01:14	10	0	0.1	0	0	398	0.2	397	398	17.1	90.0
2025-08-28T01:15	10	0	1.0	0	7	398	0.2	397	398	17.2	88.7
2025-08-28T01:16	10	0	0.1	0	0	398	0.2	397	398	17.2	88.3
2025-08-28T01:17	10	0	0.1	0	0	398	0.3	397	398	17.2	88.2
2025-08-28T01:18	10	0	0.1	0	0	398	0.2	397	398	17.2	87.6
2025-08-28T01:19	10	0	0.1	0	0	398	0.2	397	398	17.2	88.0
2025-08-28T01:20	10	0	0.1	0	0	397	0.2	397	398	17.1	88.8
2025-08-28T01:21	10	0	0.1	0	0	397	0.2	397	398	17.1	88.9
2025-08-28T01:22	10	0	0.1	0	0	397	0.2	397	398	17.1	89.2
2025-08-28T01:23	10	0	0.1	0	0	397	0.2	397	398	17.1	89.2
2025-08-28T01:24	10	0	0.1	0	0	397	0.3	397	398	17.1	89.1
2025-08-28T01:25	10	0	0.1	0	0	397	0.2	396	397	17.1	88.4
2025-08-28T01:26	10	0	0.1	0	0	397	0.2	396	397	17.1	88.8
2025-08-28T01:27	10	0	0.1	0	0	397	0.2	396	397	17.0	89.2
2025-08-28T01:28	10	0	0.1	0	0	397	0.2	397	398	17.0	89.3
2025-08-28T01:29	10	0	0.1	0	0	397	0.2	397	398	17.0	89.4
2025-08-28T01:30	10	0	0.1	0	0	397	0.2	397	398	17.1	89.4
2025-08-28T01:31	10	0	0.1	0	0	397	0.2	397	398	17.0	89.9
2025-08-28T01:32	10	0	0.1	0	0	398	0.2	397	398	17.1	89.6
2025-08-28T01:33	10	0	0.0	0	0	398	0.3	397	398	17.1	89.5
2025-08-28T01:34	10	0	0.0	0	0	398	0.2	397	398	17.1	88.9
2025-08-28T01:35	10	0	0.1	0	0	398	0.2	397	399	17.2	88.7
2025-08-28T01:36	10	0	0.1	0	0	398	0.2	398	399	17.2	88.3
2025-08-28T01:37	10	0	0.1	0	0	398	0.2	398	399	17.3	88.3
2025-08-28T01:38	10	0	0.1	0	0	399	0.2	398	399	17.3	88.0
2025-08-28T01:39	10	0	0.1	0	0	398	0.2	398	399	17.3	88.2
2025-08-28T01:40	10	0	0.1	0	0	399	0.2	398	399	17.2	89.1
2025-08-28T01:41	10	0	0.1	0	0	399	0.3	398	399	17.3	88.4
2025-08-28T01:42	10	0	0.0	0	0	398	0.2	398	399	17.4	87.6
2025-08-28T01:43	10	0	0.1	0	0	398	0.3	397	398	17.4	87.8
2025-08-28T01:44	10	0	0.1	0	0	398	0.3	397	399	17.3	88.5
2025-08-28T01:45	10	0	0.1	0	0	398	0.2	397	398	17.3	88.8
2025-08-28T01:46	10	0	0.1	0	0	398	0.2	398	399	17.3	89.0
2025-08-28T01:47	10	0	0.0	0	0	398	0.2	398	399	17.3	88.9
2025-08-28T01:48	10	0	0.1	0	0	398	0.2	397	398	17.3	88.8
2025-08-28T01:49	10	0	0.1	0	0	397	0.3	397	398	17.3	88.4
2025-08-28T01:50	10	0	0.0	0	0	397	0.2	397	398	17.3	89.2
2025-08-28T01:51	10	0	0.1	0	0	398	0.2	397	398	17.3	88.2
2025-08-28T01:52	10	0	0.1	0	0	397	0.3	397	398	17.4	88.0
2025-08-28T01:53	10	0	0.0	0	0	398	0.3	397	398	17.3	88.4
2025-08-28T01:54	10	0	0.0	0	0	398	0.2	397	398	17.3	88.7
2025-08-28T01:55	10	0	0.0	0	0	398	0.2	397	398	17.3	88.5
2025-08-28T01:56	10	0	0.0	0	0	398	0.3	397	399	17.4	87.6
2025-08-28T01:57	10	0	0.1	0	0	398	0.2	398	399	17.5	87.1
2025-08-28T01:58	10	0	0.1	0	0	398	0.2	397	399	17.5	86.1
2025-08-28T01:59	10	0	0.1	0	0	398	0.2	397	398	17.5	86.4
2025-08-28T02:00	10	0	0.1	0	0	398	0.2	398	398	17.5	87.2
2025-08-28T02:01	10	0	0.1	0	0	398	0.2	397	398	17.4	88.8
2025-08-28T02:02	10	0	0.1	0	0	398	0.3	398	399	17.3	89.7
2025-08-28T02:03	10	0	0.0	0	0	399	0.2	398	399	17.4	87.7
2025-08-28T02:04	10	0	0.1	0	0	398	0.2	398	398	17.4	88.8
2025-08-28T02:05	10	0	0.1	0	0	398	0.2	398	399	17.3	88.7
2025-08-28T02:06	10	0	0.1	0	0	398	0.2	398	399	17.4	88.8
2025-08-28T02:07	10	0	0.0	0	0	399	0.3	398	399	17.4	88.6
2025-08-28T02:08	10	0	0.1	0	0	399	0.2	398	399	17.4	87.5
2025-08-28T02:09	10	0	0.1	0	0	398	0.2	398	399	17.3	89.4
2025-08-28T02:10	10	0	0.1	0	0	398	0.2	398	399	17.3	89.0
2025-08-28T02:11	10	0	0.1	0	0	398	0.2	398	398	17.3	90.0
2025-08-28T02:12	10	0	0.1	0	0	398	0.2	398	399	17.2	90.3
2025-08-28T02:13	10	0	0.1	0	0	398	0.3	398	399	17.2	90.1
2025-08-28T02:14	10	0	0.1	0	0	398	0.2	398	399	17.2	89.8
2025-08-28T02:15	10	0	0.1	0	0	398	0.2	398	398	17.2	90.1
2025-08-28T02:16	10	0	0.1	0	0	398	0.2	398	399	17.2	91.3
2025-08-28T02:17	10	0	0.1	0	0	398	0.2	398	399	17.1	91.1
2025-08-28T02:18	10	0	0.1	0	0	398	0.2	398	399	17.2	89.9
2025-08-28T02:19	10	0	0.1	0	0	398	0.2	398	399	17.2	90.1
2025-08-28T02:20	10	0	0.1	0	0	398	0.2	397	398	17.2	90.0
2025-08-28T02:21	10	0	0.1	0	0	398	0.2	397	398	17.2	90.7
2025-08-28T02:22	10	0	0.1	0	0	398	0.2	397	398	17.1	91.5
2025-08-28T02:23	10	0	0.1	0	0	397	0.2	397	398	17.0	92.3
2025-08-28T02:24	10	0	0.1	0	0	397	0.2	397	398	17.0	93.1
2025-08-28T02:25	10	0	0.1	0	0	397	0.2	397	398	16.9	93.6
2025-08-28T02:26	10	0	0.1	0	0	397	0.2	397	398	16.9	93.3
2025-08-28T02:27	10	0	0.1	0	0	397	0.2	397	398	16.9	93.4
2025-08-28T02:28	10	0	0.1	0	1	398	0.3	397	399	17.0	93.8
2025-08-28T02:29	10	0	0.1	0	0	398	0.2	398	399	17.1	93.8
2025-08-28T02:30	10	0	0.1	0	1	398	0.2	397	398	17.1	93.9
2025-08-28T02:31	10	0	0.1	0	0	397	0.2	397	398	17.0	94.1
2025-08-28T02:32	10	0	0.1	0	1	398	0.2	397	398	17.0	94.5
2025-08-28T02:33	10	0	0.1	0	1	398	0.2	397	398	17.0	94.9
2025-08-28T02:34	10	0	0.1	0	0	398	0.2	397	398	17.0	95.2
2025-08-28T02:35	10	0	0.1	0	1	397	0.2	397	398	17.0	95.6
2025-08-28T02:36	10	0	0.1	0	0	398	0.2	397	398	17.0	95.8
2025-08-28T02:37	10	0	0.1	0	0	398	0.2	397	398	17.0	96.2
2025-08-28T02:38	10	0	0.1	0	0	398	0.2	397	398	16.9	96.5
2025-08-28T02:39	10	0	0.1	0	0	397	0.2	397	398	16.9	96.8
2025-08-28T02:40	10	0	0.1	0	1	397	0.3	397	398	16.9	96.9
2025-08-28T02:41	10	0	0.1	0	0	397	0.3	396	397	16.7	97.3
2025-08-28T02:42	10	0	0.1	0	0	396	0.3	395	397	16.6	97.8
2025-08-28T02:43	10	0	0.2	0	0	396	0.2	395	396	16.5	98.0
2025-08-28T02:44	10	0	0.1	-1	0	396	0.3	395	396	16.5	97.8
2025-08-28T02:45	10	-1	0.2	-1	0	395	0.2	395	396	16.5	97.4
2025-08-28T02:46	10	-1	0.2	-1	0	395	0.2	395	396	16.5	97.5
2025-08-28T02:47	10	-1	0.1	-1	0	395	0.3	395	396	16.5	97.3
2025-08-28T02:48	10	-1	0.1	-1	0	395	0.3	395	396	16.6	96.6
2025-08-28T02:49	10	-1	0.1	-1	0	395	0.3	394	396	16.6	96.4
2025-08-28T02:50	10	-1	0.1	-1	-1	395	0.3	394	396	16.6	96.6
2025-08-28T02:51	10	-1	0.1	-1	-1	395	0.3	395	396	16.6	96.8
2025-08-28T02:52	10	-1	0.1	-1	0	395	0.2	395	396	16.6	96.9
2025-08-28T02:53	10	-1	0.1	-1	0	395	0.2	395	396	16.6	97.0
2025-08-28T02:54	10	-1	0.1	-1	0	396	0.2	395	396	16.6	97.1
2025-08-28T02:55	10	-1	0.1	-1	0	395	0.2	395	396	16.6	97.3
2025-08-28T02:56	10	-1	0.1	-1	0	395	0.3	395	396	16.6	97.4
2025-08-28T02:57	10	-1	0.1	-1	0	396	0.2	395	396	16.6	97.4
2025-08-28T02:58	10	0	0.2	-1	0	396	0.2	395	396	16.6	97.5
2025-08-28T02:59	10	-1	0.1	-1	0	396	0.3	395	396	16.6	96.8
2025-08-28T03:00	10	0	0.2	-1	0	395	0.2	395	396	16.6	96.5
2025-08-28T03:01	10	0	0.2	-1	0	395	0.3	395	396	16.6	96.2
2025-08-28T03:02	10	0	0.2	-1	0	395	0.2	395	396	16.6	95.4
2025-08-28T03:03	10	0	0.1	-1	0	395	0.2	395	396	16.7	95.7
2025-08-28T03:04	10	0	0.1	-1	0	396	0.3	395	396	16.6	95.8
2025-08-28T03:05	10	0	0.1	-1	0	395	0.2	395	396	16.6	95.5
2025-08-28T03:06	10	0	0.1	-1	0	395	0.2	395	396	16.7	95.7
2025-08-28T03:07	10	0	0.1	0	0	396	0.3	395	396	16.6	95.4
2025-08-28T03:08	10	0	0.1	-1	0	396	0.2	395	396	16.6	95.7
2025-08-28T03:09	10	0	0.1	0	0	395	0.2	395	396	16.6	95.4
2025-08-28T03:10	10	0	0.1	0	0	395	0.2	395	396	16.6	95.7
2025-08-28T03:11	10	0	0.1	0	0	395	0.2	395	396	16.6	96.1
2025-08-28T03:12	10	0	0.1	0	0	395	0.2	395	396	16.6	96.6
2025-08-28T03:13	10	0	0.1	0	0	396	0.2	395	396	16.6	96.7
2025-08-28T03:14	10	0	0.1	0	0	395	0.2	395	396	16.6	96.5
2025-08-28T03:15	10	0	0.1	0	0	395	0.2	395	396	16.6	96.8
2025-08-28T03:16	10	0	0.1	0	0	395	0.2	395	396	16.6	96.9
2025-08-28T03:17	10	0	0.1	0	0	395	0.2	395	396	16.6	96.7
2025-08-28T03:18	10	0	0.1	0	0	395	0.2	395	396	16.6	97.1
2025-08-28T03:19	10	0	0.1	0	0	396	0.2	395	396	16.5	97.5
2025-08-28T03:20	10	0	0.1	0	0	395	0.2	395	396	16.5	97.5
2025-08-28T03:21	10	0	0.1	0	0	395	0.3	395	396	16.5	97.8
2025-08-28T03:22	10	0	0.1	0	0	395	0.2	395	396	16.5	97.8
2025-08-28T03:23	10	0	0.1	0	0	395	0.2	395	396	16.5	97.3
2025-08-28T03:24	10	0	0.1	0	0	395	0.2	395	396	16.5	97.2
2025-08-28T03:25	10	0	0.1	0	0	395	0.2	395	396	16.5	97.2
2025-08-28T03:26	10	0	0.1	0	0	395	0.2	395	396	16.5	97.0
2025-08-28T03:27	10	0	0.1	0	0	395	0.3	394	396	16.5	97.0
2025-08-28T03:28	10	0	0.1	0	0	395	0.1	395	396	16.4	97.0
2025-08-28T03:29	10	0	0.1	0	0	395	0.3	394	396	16.4	97.1
2025-08-28T03:30	10	0	0.1	0	0	395	0.2	394	395	16.4	97.0
2025-08-28T03:31	10	0	0.0	0	0	395	0.2	395	395	16.4	96.8
2025-08-28T03:32	10	0	0.1	0	0	395	0.2	394	395	16.4	96.6
2025-08-28T03:33	10	0	0.1	0	0	395	0.3	394	396	16.4	96.8
2025-08-28T03:34	10	0	0.1	0	1	395	0.3	394	395	16.4	97.1
2025-08-28T03:35	10	0	0.1	0	0	395	0.2	395	395	16.4	97.3
2025-08-28T03:36	10	0	0.1	0	0	395	0.2	394	395	16.4	97.4
2025-08-28T03:37	10	0	0.1	0	0	395	0.2	394	395	16.4	97.7
2025-08-28T03:38	10	0	0.1	0	0	395	0.2	394	395	16.4	97.8
2025-08-28T03:39	10	0	0.1	0	0	394	0.2	394	395	16.4	97.7
2025-08-28T03:40	10	0	0.1	0	0	395	0.2	394	395	16.4	97.7
2025-08-28T03:41	10	0	0.0	0	0	395	0.2	394	395	16.4	97.9
2025-08-28T03:42	10	0	0.1	0	0	395	0.2	394	395	16.4	98.1
2025-08-28T03:43	10	0	0.1	0	0	395	0.2	394	395	16.4	98.2
2025-08-28T03:44	10	0	0.1	0	0	395	0.2	394	395	16.4	98.0
2025-08-28T03:45	10	0	0.1	0	0	395	0.2	394	395	16.4	98.1
2025-08-28T03:46	10	0	0.1	0	0	394	0.2	394	395	16.3	98.1
2025-08-28T03:47	10	0	0.1	0	0	394	0.2	394	395	16.3	98.0
2025-08-28T03:48	10	0	0.1	0	0	394	0.3	394	395	16.3	97.9
2025-08-28T03:49	10	0	0.1	0	0	394	0.2	394	395	16.3	97.3
2025-08-28T03:50	10	0	0.1	0	0	394	0.2	394	395	16.3	97.3
2025-08-28T03:51	10	0	0.1	0	0	394	0.2	394	395	16.3	97.4
2025-08-28T03:52	10	0	0.1	0	0	394	0.2	394	395	16.3	97.3
2025-08-28T03:53	10	0	0.1	0	0	394	0.2	393	395	16.3	96.6
2025-08-28T03:54	10	0	0.1	0	0	394	0.2	394	394	16.3	95.7
2025-08-28T03:55	10	0	0.1	0	0	394	0.2	393	394	16.4	95.6
2025-08-28T03:56	10	0	0.1	0	0	394	0.2	393	394	16.4	95.3
2025-08-28T03:57	10	0	0.1	0	0	394	0.2	393	394	16.4	95.1
2025-08-28T03:58	10	0	0.1	0	0	394	0.2	393	394	16.4	95.3
2025-08-28T03:59	10	0	0.1	0	0	394	0.2	393	394	16.3	95.4
2025-08-28T04:00	10	0	0.1	0	0	394	0.2	393	394	16.3	94.8
2025-08-28T04:01	10	0	0.1	0	0	394	0.2	393	394	16.3	94.6
2025-08-28T04:02	10	0	0.1	0	0	393	0.2	393	394	16.4	94.6
2025-08-28T04:03	10	0	0.1	0	0	394	0.2	393	394	16.3	94.1
2025-08-28T04:04	10	0	0.1	0	0	394	0.2	393	394	16.4	93.1
2025-08-28T04:05	10	0	0.1	0	0	393	0.2	393	394	16.4	93.0
2025-08-28T04:06	10	0	0.1	0	0	393	0.2	393	394	16.4	93.6
2025-08-28T04:07	10	0	0.1	0	0	393	0.2	393	394	16.4	93.4
2025-08-28T04:08	10	0	0.1	0	0	393	0.2	393	394	16.4	93.2
2025-08-28T04:09	10	0	0.1	0	0	393	0.2	393	394	16.4	93.4
2025-08-28T04:10	10	0	0.1	0	0	393	0.2	393	393	16.4	92.9
2025-08-28T04:11	10	0	0.1	0	0	393	0.2	393	394	16.3	93.0
2025-08-28T04:12	10	0	0.1	0	0	393	0.2	392	393	16.3	93.1
2025-08-28T04:13	10	0	0.1	0	0	393	0.2	392	393	16.3	93.6
2025-08-28T04:14	10	0	0.1	0	0	393	0.2	392	393	16.3	93.1
2025-08-28T04:15	10	0	0.1	0	0	393	0.2	393	393	16.3	93.6
2025-08-28T04:16	10	0	0.1	0	0	393	0.3	392	393	16.3	93.4
2025-08-28T04:17	10	0	0.1	0	0	393	0.3	392	393	16.3	92.7
2025-08-28T04:18	10	0	0.1	0	0	393	0.2	392	393	16.3	92.9
2025-08-28T04:19	10	0	0.1	0	0	393	0.3	392	393	16.3	93.0
2025-08-28T04:20	10	0	0.1	0	0	392	0.2	392	393	16.3	92.5
2025-08-28T04:21	10	0	0.1	0	0	392	0.2	392	393	16.3	93.1
2025-08-28T04:22	10	0	0.1	0	0	392	0.2	392	393	16.2	93.0
2025-08-28T04:23	10	0	0.1	0	0	392	0.2	392	393	16.2	92.8
2025-08-28T04:24	10	0	0.1	0	0	392	0.2	392	393	16.2	92.9
2025-08-28T04:25	10	0	0.1	0	0	392	0.2	392	392	16.2	94.0
2025-08-28T04:26	10	0	0.1	0	0	392	0.2	392	393	16.1	95.0
2025-08-28T04:27	10	0	0.1	0	0	392	0.2	392	393	16.1	95.7
2025-08-28T04:28	10	0	0.1	0	0	392	0.3	391	393	16.0	96.0
2025-08-28T04:29	10	0	0.1	0	0	392	0.2	392	393	16.0	96.3
2025-08-28T04:30	10	0	0.1	0	0	392	0.2	392	393	16.0	96.4
2025-08-28T04:31	10	0	0.1	0	0	392	0.2	392	393	16.0	95.9
2025-08-28T04:32	10	0	0.1	0	0	392	0.2	392	393	16.0	96.1
2025-08-28T04:33	10	0	0.1	0	0	392	0.2	392	393	16.0	96.6
2025-08-28T04:34	10	0	0.0	0	0	392	0.2	392	393	16.0	96.8
2025-08-28T04:35	10	0	0.1	0	0	392	0.2	392	393	16.0	96.9
2025-08-28T04:36	10	0	0.1	0	0	392	0.2	392	393	16.0	97.2
2025-08-28T04:37	10	0	0.1	0	0	392	0.2	392	393	16.0	97.3
2025-08-28T04:38	10	0	0.1	0	0	392	0.2	392	393	15.9	96.9
2025-08-28T04:39	10	0	0.1	0	0	392	0.2	392	392	16.0	96.5
2025-08-28T04:40	10	0	0.1	0	0	392	0.2	392	393	16.0	96.2
2025-08-28T04:41	10	0	0.1	0	0	392	0.2	391	392	16.0	96.7
2025-08-28T04:42	10	0	0.1	0	0	392	0.2	391	392	15.9	97.1
2025-08-28T04:43	10	0	0.1	0	0	392	0.3	391	392	15.9	97.3
2025-08-28T04:44	10	0	0.1	0	0	392	0.2	391	392	15.9	97.2
2025-08-28T04:45	10	0	0.1	0	0	392	0.2	392	393	15.9	97.1
2025-08-28T04:46	10	0	0.1	0	0	392	0.3	391	392	15.9	97.2
2025-08-28T04:47	10	0	0.1	0	0	392	0.2	391	392	15.8	97.2
2025-08-28T04:48	10	0	0.1	0	0	392	0.2	391	392	15.8	97.2
2025-08-28T04:49	10	0	0.1	0	0	392	0.2	391	392	15.8	97.0
2025-08-28T04:50	10	0	0.1	0	0	392	0.2	391	392	15.8	96.8
2025-08-28T04:51	10	0	0.1	0	0	391	0.3	391	392	15.8	96.3
2025-08-28T04:52	10	0	0.1	0	0	391	0.2	391	392	15.8	95.9
2025-08-28T04:53	10	0	0.1	0	0	391	0.2	391	392	15.8	96.1
2025-08-28T04:54	10	0	0.1	0	0	391	0.2	391	392	15.8	96.2
2025-08-28T04:55	10	0	0.1	0	0	391	0.2	391	391	15.7	96.2
2025-08-28T04:56	10	0	0.1	0	0	391	0.2	390	391	15.7	96.0
2025-08-28T04:57	10	0	0.1	0	0	390	0.2	390	391	15.7	96.3
2025-08-28T04:58	10	0	0.1	0	0	390	0.2	390	391	15.7	96.5
2025-08-28T04:59	10	0	0.7	0	5	391	0.2	390	391	15.7	96.7
2025-08-28T05:00	10	0	0.1	0	0	390	0.2	390	391	15.6	96.8
2025-08-28T05:01	10	0	0.1	0	0	390	0.2	390	391	15.6	96.6
2025-08-28T05:02	10	0	0.1	0	0	390	0.2	390	391	15.6	96.5
2025-08-28T05:03	10	0	0.1	0	0	390	0.3	390	391	15.6	96.7
2025-08-28T05:04	10	0	0.1	0	0	390	0.2	390	391	15.5	96.5
2025-08-28T05:05	10	0	0.1	0	0	390	0.3	390	391	15.5	96.7
2025-08-28T05:06	10	0	0.1	0	1	390	0.2	390	391	15.5	96.5
2025-08-28T05:07	10	0	0.1	0	1	390	0.2	390	391	15.5	96.4
2025-08-28T05:08	10	0	0.1	0	0	390	0.2	390	391	15.6	96.5
2025-08-28T05:09	10	0	0.1	0	1	391	0.2	390	391	15.6	96.4
2025-08-28T05:10	10	0	0.1	0	0	390	0.3	390	391	15.6	96.6
2025-08-28T05:11	10	0	0.1	0	1	391	0.3	390	391	15.5	96.4
2025-08-28T05:12	10	0	0.1	0	1	390	0.3	390	391	15.5	95.5
2025-08-28T05:13	10	0	0.1	0	0	390	0.2	390	391	15.6	95.1
2025-08-28T05:14	10	0	0.1	0	1	390	0.2	390	391	15.6	95.3
2025-08-28T05:15	10	0	0.1	0	1	390	0.3	390	391	15.6	95.4
2025-08-28T05:16	10	0	0.1	0	1	390	0.2	389	391	15.5	95.5
2025-08-28T05:17	10	1	0.1	0	1	390	0.3	389	390	15.5	95.9
2025-08-28T05:18	10	1	0.1	0	1	390	0.2	390	391	15.5	96.3
2025-08-28T05:19	10	1	0.1	0	1	390	0.2	390	391	15.5	96.6
2025-08-28T05:20	10	1	0.1	0	1	390	0.2	390	391	15.5	96.8
2025-08-28T05:21	10	1	0.1	0	1	390	0.2	390	391	15.4	96.9
2025-08-28T05:22	10	1	0.1	1	1	390	0.2	390	391	15.4	96.8
2025-08-28T05:23	10	1	0.1	1	1	390	0.2	390	391	15.4	96.8
2025-08-28T05:24	10	1	0.1	1	1	390	0.3	390	391	15.5	96.9
2025-08-28T05:25	10	1	0.1	1	1	390	0.2	390	391	15.4	97.0
2025-08-28T05:26	10	1	0.1	1	1	390	0.2	390	391	15.4	96.8
2025-08-28T05:27	10	1	0.1	1	1	390	0.2	390	391	15.4	96.8
2025-08-28T05:28	10	1	0.1	1	1	390	0.2	390	391	15.4	96.6
2025-08-28T05:29	10	1	0.1	1	1	390	0.2	390	391	15.4	96.6
2025-08-28T05:30	10	1	0.1	1	2	391	0.2	390	391	15.4	96.4
2025-08-28T05:31	10	2	0.1	1	2	391	0.2	390	391	15.5	95.9
2025-08-28T05:32	10	2	0.1	2	2	391	0.2	391	391	15.5	94.7
2025-08-28T05:33	10	2	0.1	2	2	391	0.2	391	391	15.6	94.0
2025-08-28T05:34	10	2	0.1	2	2	391	0.3	390	391	15.7	92.3
2025-08-28T05:35	10	2	0.1	2	2	391	0.3	390	391	15.7	91.7
2025-08-28T05:36	10	2	0.1	2	3	391	0.2	390	391	15.8	91.4
2025-08-28T05:37	10	3	0.1	2	3	391	0.3	390	391	15.7	92.2
2025-08-28T05:38	10	3	0.1	2	3	391	0.2	390	391	15.8	91.7
2025-08-28T05:39	10	3	0.1	3	3	391	0.3	390	391	15.8	91.1
2025-08-28T05:40	10	3	0.1	3	3	391	0.2	390	391	15.9	90.6
2025-08-28T05:41	10	3	0.1	3	3	391	0.2	391	392	15.9	90.8
2025-08-28T05:42	10	3	0.1	3	3	391	0.2	391	392	15.8	91.2
2025-08-28T05:43	10	3	0.1	3	3	391	0.2	391	392	15.8	90.9
2025-08-28T05:44	10	3	0.1	3	3	392	0.2	391	392	15.8	91.6
2025-08-28T05:45	10	3	0.1	3	3	392	0.3	391	392	15.8	91.4
2025-08-28T05:46	10	3	0.1	2	3	392	0.2	391	392	15.8	91.4
2025-08-28T05:47	10	3	0.1	3	3	392	0.2	391	392	15.8	91.1
2025-08-28T05:48	10	3	0.1	3	3	392	0.2	391	392	15.9	90.7
2025-08-28T05:49	10	3	0.1	3	3	391	0.2	391	392	15.9	89.6
2025-08-28T05:50	10	3	0.1	3	3	391	0.2	391	392	15.9	89.8
2025-08-28T05:51	10	3	0.1	2	3	391	0.3	391	392	15.9	91.9
2025-08-28T05:52	10	2	0.1	2	3	391	0.2	391	392	15.8	92.3
2025-08-28T05:53	10	2	0.1	2	2	392	0.3	391	392	15.8	92.7
2025-08-28T05:54	10	2	0.1	2	2	392	0.3	391	392	15.7	93.7
2025-08-28T05:55	10	2	0.1	2	2	392	0.4	391	392	15.7	94.0
2025-08-28T05:56	10	2	0.1	2	3	391	0.3	391	392	15.6	93.8
2025-08-28T05:57	10	2	0.1	2	3	391	0.3	391	392	15.6	94.4
2025-08-28T05:58	10	3	0.1	3	3	391	0.2	391	391	15.6	95.0
2025-08-28T05:59	10	3	0.1	3	3	391	0.3	391	392	15.6	95.6
2025-08-28T06:00	10	4	0.1	3	4	391	0.2	391	392	15.5	96.1
2025-08-28T06:01	10	4	0.1	4	4	392	0.2	391	392	15.6	96.3
2025-08-28T06:02	10	4	0.1	4	4	392	0.3	392	393	15.6	96.6
2025-08-28T06:03	10	4	0.2	4	5	392	0.3	391	393	15.5	96.5
2025-08-28T06:04	10	5	0.2	5	5	393	0.3	392	393	15.5	96.5
2025-08-28T06:05	10	5	0.2	5	6	393	0.2	392	393	15.6	96.5
2025-08-28T06:06	10	6	0.2	6	6	393	0.2	392	393	15.5	96.9
2025-08-28T06:07	10	6	0.1	6	7	393	0.2	392	393	15.5	97.1
2025-08-28T06:08	10	7	0.1	6	7	393	0.2	392	393	15.5	97.4
2025-08-28T06:09	10	6	0.1	6	7	393	0.2	393	394	15.5	97.5
2025-08-28T06:10	10	6	0.1	6	6	393	0.2	393	394	15.5	97.6
2025-08-28T06:11	10	5	0.2	5	6	394	0.2	393	394	15.5	97.6
2025-08-28T06:12	10	5	0.1	5	5	394	0.3	393	394	15.6	97.8
2025-08-28T06:13	10	5	0.1	4	5	393	0.3	393	394	15.6	97.7
2025-08-28T06:14	10	4	0.1	4	5	393	0.3	392	394	15.5	97.6
2025-08-28T06:15	10	4	0.1	4	5	393	0.2	392	393	15.4	97.1
2025-08-28T06:16	10	5	0.1	4	5	393	0.2	392	394	15.4	97.0
2025-08-28T06:17	10	4	0.1	4	5	393	0.2	393	393	15.4	96.6
2025-08-28T06:18	10	4	0.1	4	4	393	0.2	392	393	15.4	96.3
2025-08-28T06:19	10	4	0.1	4	4	393	0.2	392	393	15.5	96.3
2025-08-28T06:20	10	4	0.1	3	4	393	0.2	392	393	15.5	96.6
2025-08-28T06:21	10	3	0.1	3	4	393	0.2	393	393	15.5	96.6
2025-08-28T06:22	10	3	0.1	3	3	393	0.2	392	393	15.5	96.2
2025-08-28T06:23	10	3	0.1	2	3	393	0.2	392	393	15.5	96.0
2025-08-28T06:24	10	3	0.1	2	3	392	0.2	392	393	15.6	95.8
2025-08-28T06:25	10	2	0.1	2	3	392	0.2	391	393	15.6	96.3
2025-08-28T06:26	10	3	0.1	2	3	392	0.3	391	393	15.6	96.3
2025-08-28T06:27	10	3	0.1	3	3	392	0.2	391	392	15.5	96.4
2025-08-28T06:28	10	3	0.1	3	3	392	0.2	391	392	15.6	96.7
2025-08-28T06:29	10	3	0.1	3	3	392	0.2	391	392	15.6	96.7
2025-08-28T06:30	10	3	0.1	3	3	392	0.3	391	392	15.6	96.7
2025-08-28T06:31	10	3	0.1	3	3	392	0.3	391	392	15.6	96.7
2025-08-28T06:32	10	3	0.1	3	3	392	0.2	392	393	15.6	96.8
2025-08-28T06:33	10	3	0.1	3	4	392	0.3	392	393	15.6	96.8
2025-08-28T06:34	10	3	0.1	3	4	392	0.2	392	393	15.5	96.7
2025-08-28T06:35	10	3	0.1	3	4	392	0.2	392	393	15.5	96.3
2025-08-28T06:36	10	3	0.1	3	3	392	0.2	392	393	15.6	96.6
2025-08-28T06:37	10	3	0.1	3	3	392	0.2	392	393	15.6	96.7
2025-08-28T06:38	10	3	0.1	3	3	393	0.3	392	393	15.6	96.9
2025-08-28T06:39	10	3	0.1	3	3	392	0.2	392	393	15.5	96.7
2025-08-28T06:40	10	3	0.1	3	3	392	0.2	392	393	15.5	96.6
2025-08-28T06:41	10	3	0.1	3	4	392	0.2	391	392	15.5	96.4
2025-08-28T06:42	10	3	0.1	3	4	392	0.2	392	393	15.6	96.6
2025-08-28T06:43	10	3	0.1	3	3	392	0.3	391	392	15.5	96.9
2025-08-28T06:44	10	3	0.1	3	4	392	0.3	391	393	15.5	96.9
2025-08-28T06:45	10	3	0.1	3	3	392	0.2	391	393	15.5	96.4
2025-08-28T06:46	10	3	0.1	3	4	392	0.3	391	392	15.5	96.2
2025-08-28T06:47	10	3	0.1	3	4	392	0.3	391	392	15.5	95.4
2025-08-28T06:48	10	3	0.1	3	4	392	0.3	391	392	15.5	95.8
2025-08-28T06:49	10	3	0.1	3	3	392	0.2	391	392	15.5	95.9
2025-08-28T06:50	10	3	0.1	3	3	392	0.2	391	392	15.5	96.2
2025-08-28T06:51	10	3	0.1	3	3	392	0.2	391	392	15.5	96.6
2025-08-28T06:52	10	3	0.1	3	3	392	0.2	391	392	15.5	96.9
2025-08-28T06:53	10	3	0.1	3	4	392	0.3	391	392	15.5	97.2
2025-08-28T06:54	10	3	0.1	3	4	392	0.3	391	392	15.5	97.3
2025-08-28T06:55	10	4	0.1	3	4	391	0.3	391	392	15.4	96.8
2025-08-28T06:56	10	4	0.1	4	4	392	0.2	391	392	15.5	97.0
2025-08-28T06:57	10	4	0.1	4	4	392	0.2	391	392	15.4	97.3
2025-08-28T06:58	10	4	0.1	4	4	392	0.3	391	392	15.4	97.1
2025-08-28T06:59	10	4	0.1	4	4	392	0.3	391	392	15.5	97.3
2025-08-28T07:00	10	4	0.1	4	5	391	0.2	391	392	15.4	97.4
2025-08-28T07:01	10	5	0.1	4	5	392	0.2	391	392	15.4	97.3
2025-08-28T07:02	10	5	0.1	5	5	392	0.2	391	392	15.5	97.4
2025-08-28T07:03	10	5	0.1	5	5	392	0.4	391	392	15.4	97.2
2025-08-28T07:04	10	5	0.1	5	6	392	0.3	391	392	15.4	97.3
2025-08-28T07:05	10	6	0.2	5	6	392	0.3	391	393	15.5	97.4
2025-08-28T07:06	10	6	0.2	6	6	392	0.3	391	393	15.4	97.4
2025-08-28T07:07	10	7	0.2	6	7	392	0.2	391	392	15.4	97.2
2025-08-28T07:08	10	7	0.1	7	7	392	0.3	391	392	15.4	96.9
2025-08-28T07:09	10	7	0.2	7	8	392	0.3	392	393	15.5	97.3
2025-08-28T07:10	10	8	0.1	8	8	392	0.2	392	393	15.4	97.1
2025-08-28T07:11	10	9	0.2	8	9	393	0.3	392	393	15.5	97.2
2025-08-28T07:12	10	9	0.2	9	10	392	0.2	392	393	15.4	97.2
2025-08-28T07:13	10	10	0.3	10	11	393	0.4	392	394	15.4	97.2
2025-08-28T07:14	10	11	0.4	10	12	393	0.3	393	394	15.5	97.5
2025-08-28T07:15	10	12	0.4	12	13	394	0.3	393	394	15.5	97.6
2025-08-28T07:16	10	14	0.4	13	14	394	0.3	393	394	15.4	97.5
2025-08-28T07:17	10	15	0.2	14	15	395	0.4	394	395	15.5	97.6
2025-08-28T07:18	10	16	0.2	15	16	395	0.3	394	396	15.5	97.8
2025-08-28T07:19	10	16	0.3	16	17	395	0.3	395	396	15.5	97.5
2025-08-28T07:20	10	17	0.3	17	18	396	0.3	395	396	15.5	97.6
2025-08-28T07:21	10	18	0.3	18	19	396	0.3	396	397	15.5	97.5
2025-08-28T07:22	10	20	0.5	19	20	397	0.3	396	397	15.6	97.3
2025-08-28T07:23	10	21	0.4	20	22	397	0.2	396	398	15.6	97.2
2025-08-28T07:24	10	22	0.2	22	22	397	0.3	397	398	15.6	96.9
2025-08-28T07:25	10	22	0.1	22	23	398	0.5	397	399	15.6	96.8
2025-08-28T07:26	10	23	0.1	22	23	398	0.3	398	399	15.6	96.7
2025-08-28T07:27	10	22	0.1	22	22	399	0.2	398	399	15.7	96.9
2025-08-28T07:28	10	22	0.2	21	22	399	0.3	398	400	15.8	96.9
2025-08-28T07:29	10	21	0.2	21	21	399	0.4	399	400	15.8	97.1
2025-08-28T07:30	10	20	0.3	20	21	399	0.3	399	400	15.7	96.8
2025-08-28T07:31	10	19	0.2	19	20	399	0.2	399	400	15.7	96.3
2025-08-28T07:32	10	19	0.2	18	19	399	0.2	399	399	15.8	96.0
2025-08-28T07:33	10	18	0.2	18	18	399	0.3	398	399	15.8	95.8
2025-08-28T07:34	10	17	0.2	17	18	399	0.4	398	400	15.9	95.9
2025-08-28T07:35	10	17	0.1	17	17	398	0.2	398	399	15.9	95.1
2025-08-28T07:36	10	17	0.1	17	17	399	0.2	398	399	15.9	95.8
2025-08-28T07:37	10	17	0.1	16	17	399	0.4	398	400	15.9	96.2
2025-08-28T07:38	10	17	0.2	17	18	399	0.3	398	399	15.9	96.4
2025-08-28T07:39	10	18	0.3	17	18	399	0.2	399	400	15.9	95.7
2025-08-28T07:40	10	19	0.2	18	19	399	0.2	399	400	15.9	94.4
2025-08-28T07:41	10	19	0.2	19	19	399	0.2	399	400	15.9	94.5
2025-08-28T07:42	10	20	0.1	19	20	399	0.2	399	400	15.9	94.1
2025-08-28T07:43	10	20	0.1	19	20	399	0.3	399	400	15.9	93.9
2025-08-28T07:44	10	20	0.1	20	20	400	0.2	399	400	16.0	94.4
2025-08-28T07:45	10	20	0.1	20	21	400	0.3	400	401	16.0	94.7
2025-08-28T07:46	10	20	0.2	20	21	400	0.3	399	401	16.0	94.7
2025-08-28T07:47	10	21	0.2	21	22	400	0.2	400	401	16.0	94.2
2025-08-28T07:48	10	22	0.2	21	22	401	0.2	400	401	16.0	93.9
2025-08-28T07:49	10	22	0.2	22	23	401	0.3	400	402	16.2	94.5
2025-08-28T07:50	10	23	0.2	23	23	401	0.3	401	402	16.1	95.1
2025-08-28T07:51	10	23	0.2	23	24	402	0.3	401	402	16.1	94.8
2025-08-28T07:52	10	24	0.1	24	24	402	0.2	401	402	16.1	95.1
2025-08-28T07:53	10	24	0.1	24	25	402	0.2	401	402	16.1	94.6
2025-08-28T07:54	10	24	0.1	24	25	402	0.2	401	402	16.1	94.8
2025-08-28T07:55	10	24	0.3	23	24	402	0.3	401	403	16.1	95.0
2025-08-28T07:56	10	23	0.4	22	23	402	0.3	401	403	16.1	95.3
2025-08-28T07:57	10	21	0.4	21	22	402	0.3	401	402	16.1	95.4
2025-08-28T07:58	10	20	0.2	20	21	402	0.2	401	402	16.1	95.7
2025-08-28T07:59	10	20	0.1	19	20	402	0.2	401	402	16.1	95.4
2025-08-28T08:00	10	20	0.1	20	20	402	0.2	401	402	16.2	95.7
2025-08-28T08:01	10	20	0.2	20	21	402	0.4	401	402	16.1	94.9
2025-08-28T08:02	10	22	0.4	21	22	401	0.3	400	402	16.1	94.7
2025-08-28T08:03	10	23	0.6	22	24	402	0.2	401	402	16.2	94.8
2025-08-28T08:04	10	25	0.5	24	26	402	0.3	401	403	16.1	94.8
2025-08-28T08:05	10	26	0.1	26	26	403	0.3	402	403	16.1	94.5
2025-08-28T08:06	10	26	0.2	26	26	403	0.4	402	404	16.2	94.4
2025-08-28T08:07	10	25	0.3	25	26	403	0.2	403	404	16.1	94.3
2025-08-28T08:08	10	24	0.1	24	25	403	0.2	403	403	16.2	94.6
2025-08-28T08:09	10	24	0.1	24	24	404	0.3	403	404	16.2	94.3
2025-08-28T08:10	10	24	0.1	24	24	403	0.3	402	404	16.2	94.0
2025-08-28T08:11	10	25	0.2	24	25	403	0.4	402	404	16.2	93.6
2025-08-28T08:12	10	25	0.3	25	26	403	0.3	402	403	16.3	93.1
2025-08-28T08:13	10	27	0.4	26	27	403	0.3	402	403	16.3	92.4
2025-08-28T08:14	10	28	0.4	27	29	403	0.4	403	404	16.4	92.8
2025-08-28T08:15	10	29	0.2	29	29	404	0.3	404	405	16.5	93.6
2025-08-28T08:16	10	29	0.1	29	30	405	0.4	404	406	16.4	92.7
2025-08-28T08:17	10	29	0.2	29	29	406	0.2	405	406	16.5	92.7
2025-08-28T08:18	10	29	0.2	28	29	406	0.2	405	406	16.5	92.9
2025-08-28T08:19	10	28	0.1	28	29	406	0.3	405	407	16.5	93.0
2025-08-28T08:20	10	29	0.2	28	29	406	0.3	406	407	16.6	93.6
2025-08-28T08:21	10	30	0.2	29	30	405	0.6	405	407	16.5	91.8
2025-08-28T08:22	10	30	0.1	30	30	405	0.3	404	405	16.5	91.0
2025-08-28T08:23	10	30	0.1	30	30	406	0.4	405	406	16.5	90.6
2025-08-28T08:24	10	31	0.3	30	31	407	0.5	406	408	16.5	91.6
2025-08-28T08:25	10	32	0.4	31	33	408	0.3	407	408	16.6	91.1
2025-08-28T08:26	10	33	0.4	32	34	408	0.2	407	409	16.7	91.4
2025-08-28T08:27	10	34	0.2	34	35	408	0.2	407	409	16.6	90.5
2025-08-28T08:28	10	35	0.3	35	35	408	0.3	407	408	16.5	90.2
2025-08-28T08:29	10	36	0.4	36	37	407	0.2	407	408	16.5	89.4
2025-08-28T08:30	10	38	0.4	37	38	408	0.4	407	409	16.5	89.7
2025-08-28T08:31	10	39	0.1	38	39	408	0.3	408	409	16.5	90.2
2025-08-28T08:32	10	38	0.3	37	38	408	0.2	408	409	16.6	90.4
2025-08-28T08:33	10	37	0.4	36	37	409	0.2	408	409	16.5	90.6
2025-08-28T08:34	10	35	0.4	35	36	409	0.2	408	410	16.6	91.0
2025-08-28T08:35	10	34	0.5	33	35	409	0.3	408	410	16.6	90.9
2025-08-28T08:36	10	33	0.2	32	33	408	0.5	407	409	16.7	91.1
2025-08-28T08:37	10	33	0.2	32	33	408	0.2	407	408	16.7	90.7
2025-08-28T08:38	10	34	0.3	33	34	407	0.5	406	408	16.6	89.3
2025-08-28T08:39	10	34	0.1	34	34	407	0.5	406	408	16.6	88.2
2025-08-28T08:40	10	34	0.1	34	34	408	0.5	407	409	16.8	90.3
2025-08-28T08:41	10	35	0.2	34	35	409	0.6	408	410	16.8	90.9
2025-08-28T08:42	10	35	0.2	35	36	408	0.2	407	409	16.8	90.9
2025-08-28T08:43	10	36	0.1	36	36	408	0.3	408	409	16.8	90.9
2025-08-28T08:44	10	36	0.1	35	36	408	0.2	408	409	16.8	90.9
2025-08-28T08:45	10	35	0.1	35	35	409	0.3	409	410	16.8	90.9
2025-08-28T08:46	10	35	0.2	35	36	410	0.3	409	411	16.8	90.9
2025-08-28T08:47	10	36	0.3	36	37	411	0.2	410	411	16.8	90.9
2025-08-28T08:48	10	37	0.2	37	38	411	0.2	411	412	16.9	90.7
2025-08-28T08:49	10	38	0.1	38	38	412	0.3	411	412	17.0	90.4
2025-08-28T08:50	10	38	0.2	37	38	411	0.3	411	412	17.0	90.3
2025-08-28T08:51	10	37	0.3	36	37	411	0.2	411	412	16.9	90.3
2025-08-28T08:52	10	34	1.4	32	37	411	0.3	410	411	16.9	89.9
2025-08-28T08:53	10	29	1.4	27	32	410	0.4	410	411	16.9	90.0
2025-08-28T08:54	10	25	1.1	23	27	409	0.4	409	410	17.0	91.1
2025-08-28T08:55	10	22	0.8	21	23	408	0.7	407	409	17.0	89.6
2025-08-28T08:56	10	19	0.7	18	20	407	0.3	406	408	17.0	90.2
2025-08-28T08:57	10	17	0.7	15	18	406	0.5	405	407	17.0	90.2
2025-08-28T08:58	10	14	0.7	13	15	404	0.4	404	405	16.9	90.3
2025-08-28T08:59	10	12	0.5	12	13	404	0.5	403	405	16.9	91.1
2025-08-28T09:00	10	11	0.4	10	12	403	0.4	402	404	16.8	89.9
2025-08-28T09:01	10	10	0.3	9	10	402	0.3	402	403	16.9	90.1
2025-08-28T09:02	10	9	0.2	9	10	402	0.3	401	402	16.9	90.2
2025-08-28T09:03	10	8	0.2	8	9	402	0.2	401	402	16.9	90.1
2025-08-28T09:04	10	8	0.1	8	9	402	0.2	401	402	16.9	91.4
2025-08-28T09:05	10	8	0.2	8	9	402	0.4	401	403	16.9	90.7
2025-08-28T09:06	10	9	0.2	8	9	401	0.2	401	402	16.9	90.7
2025-08-28T09:07	10	9	0.2	9	10	401	0.3	401	402	16.9	90.8
2025-08-28T09:08	10	9	0.2	9	10	401	0.3	401	402	16.9	90.6
2025-08-28T09:09	10	10	0.3	9	11	402	0.3	401	402	16.9	91.0
2025-08-28T09:10	10	11	0.2	10	11	402	0.3	401	402	16.9	89.0
2025-08-28T09:11	10	11	0.3	11	12	401	0.4	400	402	16.9	88.4
2025-08-28T09:12	10	12	0.4	11	13	402	0.4	401	403	17.0	89.5
2025-08-28T09:13	10	14	0.4	13	14	403	0.4	402	403	17.0	89.0
2025-08-28T09:14	10	15	0.3	14	15	403	0.3	403	404	17.0	88.7
2025-08-28T09:15	10	15	0.2	15	16	404	0.3	403	405	17.0	89.2
2025-08-28T09:16	10	15	0.1	15	15	404	0.3	404	405	17.0	89.2
2025-08-28T09:17	10	15	0.2	14	15	404	0.3	403	405	17.0	89.6
2025-08-28T09:18	10	15	0.2	14	15	404	0.2	404	405	17.0	89.3
2025-08-28T09:19	10	15	0.3	15	16	404	0.3	403	405	17.0	89.3
2025-08-28T09:20	10	16	0.5	16	18	404	0.3	403	405	17.0	89.5
2025-08-28T09:21	10	18	0.4	17	18	405	0.3	404	406	17.0	89.7
2025-08-28T09:22	10	19	0.3	18	19	406	0.2	405	406	17.1	89.5
2025-08-28T09:23	10	20	0.4	19	21	406	0.3	405	406	17.1	89.9
2025-08-28T09:24	10	21	0.6	20	22	406	0.4	405	407	17.0	88.8
2025-08-28T09:25	10	23	0.6	22	24	407	0.4	406	408	17.1	89.2
2025-08-28T09:26	10	25	0.6	24	26	408	0.2	407	408	17.1	88.8
2025-08-28T09:27	10	27	0.4	26	27	408	0.4	407	409	17.1	88.8
2025-08-28T09:28	10	27	0.1	27	28	409	0.2	408	409	17.1	88.2
2025-08-28T09:29	10	27	0.2	27	28	409	0.3	408	409	17.1	88.1
2025-08-28T09:30	10	27	0.2	27	27	410	0.3	409	410	17.2	88.5
2025-08-28T09:31	10	26	0.4	25	27	409	0.4	409	411	17.1	87.5
2025-08-28T09:32	10	25	0.6	24	26	408	0.5	407	409	17.1	87.0
2025-08-28T09:33	10	23	0.6	22	24	407	0.2	407	408	17.0	86.7
2025-08-28T09:34	10	21	0.4	20	22	407	0.2	406	407	17.1	87.3
2025-08-28T09:35	10	20	0.3	19	20	407	0.2	407	408	17.1	88.3
2025-08-28T09:36	10	19	0.2	19	19	407	0.3	406	408	17.1	87.7
2025-08-28T09:37	10	18	0.1	18	19	407	0.2	406	407	17.1	87.7
2025-08-28T09:38	10	18	0.1	18	18	407	0.2	407	408	17.1	87.4
2025-08-28T09:39	10	18	0.1	18	18	407	0.3	406	407	17.0	86.3
2025-08-28T09:40	10	17	0.2	17	18	407	0.3	406	407	17.1	86.9
2025-08-28T09:41	10	17	0.2	16	17	407	0.3	406	407	17.1	87.4
2025-08-28T09:42	10	16	0.2	15	16	407	0.2	406	407	17.1	87.8
2025-08-28T09:43	10	15	0.1	15	15	406	0.4	405	407	17.1	88.2
2025-08-28T09:44	10	15	0.1	15	16	405	0.4	405	406	17.1	87.1
2025-08-28T09:45	10	15	0.1	15	16	405	0.3	405	406	17.1	85.5
2025-08-28T09:46	10	16	0.1	15	16	406	0.4	405	407	17.1	86.3
2025-08-28T09:47	10	16	0.1	16	16	406	0.4	406	407	17.1	86.7
2025-08-28T09:48	10	16	0.1	15	16	407	0.2	406	407	17.1	86.4
2025-08-28T09:49	10	16	0.1	15	16	406	0.3	405	407	17.1	86.8
2025-08-28T09:50	10	15	0.1	15	16	406	0.2	406	407	17.1	86.8
2025-08-28T09:51	10	16	0.1	15	16	406	0.2	406	407	17.1	86.7
2025-08-28T09:52	10	16	0.1	16	16	406	0.3	405	406	17.1	87.4
2025-08-28T09:53	10	17	0.2	16	17	406	0.3	405	407	17.2	87.3
2025-08-28T09:54	10	17	0.3	17	18	406	0.3	405	407	17.2	88.0
2025-08-28T09:55	10	18	0.2	18	19	406	0.3	405	406	17.1	87.2
2025-08-28T09:56	10	19	0.2	18	19	406	0.3	406	407	17.1	87.5
2025-08-28T09:57	10	19	0.2	19	20	407	0.2	406	408	17.1	87.9
2025-08-28T09:58	10	20	0.3	20	21	407	0.2	407	408	17.1	88.5
2025-08-28T09:59	10	22	0.4	21	22	408	0.2	407	408	17.2	87.7
2025-08-28T10:00	10	23	0.3	22	23	408	0.2	407	408	17.1	86.1
2025-08-28T10:01	10	24	0.5	23	25	408	0.3	407	409	17.2	87.3
2025-08-28T10:02	10	26	0.5	25	27	408	0.3	408	409	17.2	87.1
2025-08-28T10:03	10	27	0.4	26	28	409	0.4	408	410	17.2	87.8
2025-08-28T10:04	10	28	0.2	28	29	410	0.3	409	410	17.2	88.2
2025-08-28T10:05	10	29	0.1	29	29	410	0.2	409	410	17.2	88.9
2025-08-28T10:06	10	29	0.2	29	30	410	0.3	409	410	17.1	87.0
2025-08-28T10:07	10	30	0.3	30	31	410	0.3	409	411	17.1	87.6
2025-08-28T10:08	10	31	0.1	31	31	410	0.2	409	410	17.1	87.8
2025-08-28T10:09	10	30	0.4	29	31	411	0.3	410	411	17.2	89.0
2025-08-28T10:10	10	29	0.4	28	29	411	0.3	410	412	17.2	89.9
2025-08-28T10:11	10	27	0.3	27	28	411	0.3	410	411	17.2	89.4
2025-08-28T10:12	10	27	0.2	26	27	410	0.3	410	411	17.2	89.9
2025-08-28T10:13	10	26	0.1	26	27	410	0.2	409	410	17.2	89.8
2025-08-28T10:14	10	27	0.1	26	27	410	0.3	409	411	17.2	90.7
2025-08-28T10:15	10	27	0.1	26	27	409	0.5	408	410	17.2	90.5
2025-08-28T10:16	10	26	0.2	26	26	408	0.5	407	409	17.2	90.2
2025-08-28T10:17	10	26	0.1	26	26	407	0.3	407	408	17.1	89.9
2025-08-28T10:18	10	26	0.3	26	27	407	0.3	407	408	17.1	90.2
2025-08-28T10:19	10	28	0.4	27	29	408	0.6	407	409	17.2	91.4
2025-08-28T10:20	10	29	0.2	28	29	409	0.2	408	409	17.2	91.7
2025-08-28T10:21	10	29	0.1	29	29	409	0.3	408	409	17.1	90.8
2025-08-28T10:22	10	29	0.1	29	29	409	0.2	408	409	17.1	90.9
2025-08-28T10:23	10	30	0.2	29	30	409	0.3	408	409	17.1	90.7
2025-08-28T10:24	10	30	0.1	30	30	409	0.2	408	409	17.1	91.1
2025-08-28T10:25	10	29	0.4	28	30	409	0.3	409	410	17.2	91.8
2025-08-28T10:26	10	27	0.7	26	28	409	0.4	408	409	17.2	91.0
2025-08-28T10:27	10	26	0.4	25	26	408	0.7	407	409	17.1	90.5
2025-08-28T10:28	10	25	0.1	25	25	408	0.3	407	408	17.2	91.0
2025-08-28T10:29	10	25	0.2	25	26	408	0.3	407	409	17.2	91.5
2025-08-28T10:30	10	26	0.2	25	26	407	0.3	407	408	17.1	90.3
2025-08-28T10:31	10	26	0.1	26	27	407	0.5	406	408	17.1	89.2
2025-08-28T10:32	10	26	0.2	26	26	407	0.3	406	407	17.2	89.2
2025-08-28T10:33	10	25	0.4	24	26	407	0.4	406	407	17.2	88.7
2025-08-28T10:34	10	23	0.5	23	24	406	0.2	406	407	17.2	88.1
2025-08-28T10:35	10	22	0.3	22	23	406	0.2	406	407	17.2	88.6
2025-08-28T10:36	10	21	0.2	21	22	405	0.4	405	406	17.1	86.3
2025-08-28T10:37	10	21	0.1	21	22	405	0.3	405	406	17.2	87.9
2025-08-28T10:38	10	22	0.3	22	23	405	0.4	404	406	17.1	88.4
2025-08-28T10:39	10	23	0.5	23	24	405	0.4	405	406	17.0	88.2
2025-08-28T10:40	10	25	0.5	24	26	406	0.4	405	407	17.1	88.2
2025-08-28T10:41	10	27	0.4	26	27	407	0.2	406	407	17.1	88.5
2025-08-28T10:42	10	28	0.3	27	28	407	0.3	407	408	17.1	88.5
2025-08-28T10:43	10	28	0.2	28	29	408	0.6	407	409	17.1	88.9
2025-08-28T10:44	10	28	0.1	28	29	409	0.2	409	409	17.2	89.8
2025-08-28T10:45	10	28	0.2	28	28	409	0.3	408	409	17.2	89.2
2025-08-28T10:46	10	28	0.2	27	28	407	0.6	406	409	17.1	85.8
2025-08-28T10:47	10	27	0.1	27	28	407	0.4	406	407	17.2	84.6
2025-08-28T10:48	10	28	0.5	28	29	406	0.4	405	407	17.2	83.4
2025-08-28T10:49	10	31	0.8	29	32	406	0.4	405	407	17.1	83.8
2025-08-28T10:50	10	34	1.0	32	36	407	0.3	406	407	17.1	82.8
2025-08-28T10:51	10	37	1.2	35	40	408	1.0	406	410	17.1	84.2
2025-08-28T10:52	10	42	1.7	40	45	410	0.7	408	411	17.2	84.3
2025-08-28T10:53	10	48	1.6	46	51	411	0.6	409	412	17.2	83.1
2025-08-28T10:54	10	52	0.6	51	53	411	0.9	409	412	17.1	81.2
2025-08-28T10:55	10	52	0.3	52	53	413	0.8	411	414	17.1	83.7
2025-08-28T10:56	10	51	0.5	50	52	414	0.3	413	415	17.1	85.0
2025-08-28T10:57	10	49	0.6	48	50	414	0.3	413	415	17.2	85.3
2025-08-28T10:58	10	47	0.7	45	48	414	0.3	413	414	17.3	86.1
2025-08-28T10:59	10	45	0.4	44	45	413	0.8	411	414	17.2	85.4
2025-08-28T11:00	10	44	0.1	44	44	412	0.3	412	413	17.2	85.6
2025-08-28T11:01	10	44	0.1	43	44	412	0.6	411	413	17.2	85.0
2025-08-28T11:02	10	43	0.2	43	44	411	0.3	410	412	17.2	84.3
2025-08-28T11:03	10	43	0.2	43	43	411	0.5	410	413	17.2	85.9
2025-08-28T11:04	10	44	0.2	43	44	412	0.3	412	413	17.2	85.9
2025-08-28T11:05	10	44	0.1	44	45	413	0.3	413	414	17.3	85.8
2025-08-28T11:06	10	44	0.1	44	45	414	0.2	414	415	17.4	86.5
2025-08-28T11:07	10	44	0.1	44	44	413	0.3	413	414	17.3	85.0
2025-08-28T11:08	10	44	0.2	44	45	413	0.9	412	415	17.3	84.0
2025-08-28T11:09	10	46	0.6	45	46	412	0.3	412	413	17.3	83.5
2025-08-28T11:10	10	48	0.7	47	49	413	0.7	412	414	17.3	84.1
2025-08-28T11:11	10	49	0.1	49	50	414	0.2	414	415	17.4	84.9
2025-08-28T11:12	10	48	0.8	47	49	414	0.4	413	415	17.4	84.7
2025-08-28T11:13	10	46	0.6	45	47	414	0.2	413	414	17.3	84.7
2025-08-28T11:14	10	45	0.2	45	45	414	0.3	413	414	17.3	85.0
2025-08-28T11:15	10	46	0.6	45	48	414	0.4	413	415	17.4	85.5
2025-08-28T11:16	10	49	0.7	47	50	414	0.3	414	415	17.3	85.7
2025-08-28T11:17	10	50	0.4	50	51	415	0.3	414	415	17.4	86.2
2025-08-28T11:18	10	52	0.5	51	53	416	0.2	415	416	17.3	84.7
2025-08-28T11:19	10	55	0.8	53	56	416	0.7	415	418	17.4	84.2
2025-08-28T11:20	10	57	1.6	55	60	418	0.5	417	419	17.4	85.1
2025-08-28T11:21	10	66	4.3	60	74	420	0.7	419	421	17.6	86.5
2025-08-28T11:22	10	73	0.9	71	75	422	0.7	421	424	17.6	84.7
2025-08-28T11:23	10	73	5.6	65	81	424	0.8	423	425	17.6	85.0
2025-08-28T11:24	10	63	1.0	61	65	423	0.4	423	424	17.6	84.8
2025-08-28T11:25	10	60	0.9	58	62	423	0.5	422	424	17.7	85.6
2025-08-28T11:26	10	57	1.0	55	58	423	0.4	422	424	17.7	85.3
2025-08-28T11:27	10	53	1.2	51	55	422	0.8	420	423	17.8	84.7
2025-08-28T11:28	10	49	1.2	47	51	421	0.3	420	422	17.8	84.1
2025-08-28T11:29	10	45	0.7	45	47	421	0.3	420	421	17.9	83.7
2025-08-28T11:30	10	45	0.1	44	45	420	0.5	420	421	18.0	84.1
2025-08-28T11:31	10	46	0.4	45	46	420	0.5	419	421	17.9	83.2
2025-08-28T11:32	10	47	0.5	46	48	420	0.3	419	420	17.9	83.0
2025-08-28T11:33	10	48	0.3	48	49	420	0.3	419	421	17.9	84.0
2025-08-28T11:34	10	50	0.8	49	51	420	0.4	419	421	17.9	82.7
2025-08-28T11:35	10	51	0.5	50	51	420	0.3	419	420	17.8	83.2
2025-08-28T11:36	10	49	0.5	48	50	420	0.3	419	421	17.9	83.1
2025-08-28T11:37	10	47	0.6	46	48	419	0.7	418	421	17.9	83.2
2025-08-28T11:38	10	46	0.4	45	46	419	0.4	418	420	17.8	82.3
2025-08-28T11:39	10	44	0.3	44	45	419	0.3	418	420	17.9	83.6
2025-08-28T11:40	10	44	0.3	43	44	418	0.7	417	419	17.7	84.4
2025-08-28T11:41	10	43	0.2	42	43	417	0.4	416	417	17.7	84.4
2025-08-28T11:42	10	42	0.3	41	42	417	0.4	416	417	17.6	84.1
2025-08-28T11:43	10	41	0.1	41	42	418	0.4	417	419	17.7	84.5
2025-08-28T11:44	10	41	0.1	41	41	418	0.3	417	419	17.8	84.9
2025-08-28T11:45	10	41	0.1	41	42	418	0.2	417	418	17.9	84.8
2025-08-28T11:46	10	42	0.5	42	43	418	0.3	417	419	17.9	83.8
2025-08-28T11:47	10	45	1.0	43	47	418	0.5	417	419	17.8	83.0
2025-08-28T11:48	10	48	1.0	47	50	418	0.3	417	419	17.7	82.8
2025-08-28T11:49	10	52	0.9	50	53	419	0.3	418	420	17.9	83.7
2025-08-28T11:50	10	54	0.5	53	55	420	0.7	419	422	17.8	82.4
2025-08-28T11:51	10	56	0.3	55	56	422	0.3	421	422	17.9	83.3
2025-08-28T11:52	10	57	0.4	56	58	421	0.3	420	422	17.9	81.6
2025-08-28T11:53	10	58	0.6	57	59	420	0.3	420	421	17.9	81.4
2025-08-28T11:54	10	59	0.9	58	62	421	0.3	420	421	17.9	81.0
2025-08-28T11:55	10	61	0.9	60	63	422	0.5	421	423	17.9	80.8
2025-08-28T11:56	10	61	1.0	60	65	423	0.2	422	423	17.9	80.8
2025-08-28T11:57	10	65	0.9	64	67	423	0.4	422	424	18.0	81.4
2025-08-28T11:58	10	65	1.1	64	67	423	0.5	422	424	18.0	80.2
2025-08-28T11:59	10	68	1.9	66	71	426	0.8	424	427	18.0	80.8
2025-08-28T12:00	10	71	0.8	69	72	427	0.4	426	428	18.0	80.7
2025-08-28T12:01	10	68	1.2	66	70	427	0.6	426	428	18.1	81.1
2025-08-28T12:02	10	66	0.6	65	67	424	0.7	423	426	18.2	81.6
2025-08-28T12:03	10	66	0.4	65	67	425	0.6	423	425	18.1	82.1
2025-08-28T12:04	10	66	0.7	65	67	424	0.5	423	425	18.1	79.9
2025-08-28T12:05	10	66	0.7	65	68	426	0.6	425	428	18.2	80.9
2025-08-28T12:06	10	66	0.6	65	67	426	0.6	425	427	18.1	79.4
2025-08-28T12:07	10	67	0.5	66	68	426	0.3	425	426	18.0	80.0
2025-08-28T12:08	10	65	1.1	63	68	425	0.2	424	426	18.0	79.8
2025-08-28T12:09	10	63	0.3	62	63	425	0.4	424	425	18.1	79.8
2025-08-28T12:10	10	62	0.2	61	62	424	0.2	424	425	18.1	80.2
2025-08-28T12:11	10	61	0.2	61	61	424	0.6	423	425	18.1	79.9
2025-08-28T12:12	10	61	0.2	60	61	424	0.4	423	425	18.2	81.0
2025-08-28T12:13	10	60	0.7	58	61	423	0.4	423	424	18.1	79.5
2025-08-28T12:14	10	58	0.2	58	58	424	0.5	423	425	18.1	79.7
2025-08-28T12:15	10	57	0.9	56	58	423	0.5	422	424	18.1	80.0
2025-08-28T12:16	10	55	0.5	54	56	422	0.8	420	423	18.1	79.8
2025-08-28T12:17	10	53	0.4	53	54	421	0.4	421	422	18.0	79.4
2025-08-28T12:18	10	52	0.3	51	53	422	0.3	421	423	18.1	79.5
2025-08-28T12:19	10	51	0.2	51	52	422	0.3	421	422	18.1	79.7
2025-08-28T12:20	10	51	0.1	50	51	422	0.5	421	423	18.2	80.4
2025-08-28T12:21	10	50	0.1	50	51	422	0.5	421	423	18.4	81.1
2025-08-28T12:22	10	50	0.2	50	50	422	0.4	421	423	18.4	79.2
2025-08-28T12:23	10	49	0.2	49	50	422	0.2	422	423	18.3	78.6
2025-08-28T12:24	10	50	0.2	49	50	422	0.5	421	423	18.3	79.1
2025-08-28T12:25	10	51	1.0	50	54	422	0.6	421	423	18.4	79.0
2025-08-28T12:26	10	54	0.6	53	55	423	0.4	422	424	18.4	78.0
2025-08-28T12:27	10	52	0.2	51	53	424	0.6	423	425	18.4	78.6
2025-08-28T12:28	10	50	0.5	50	51	424	0.7	423	426	18.4	79.0
2025-08-28T12:29	10	49	0.3	49	50	424	0.4	423	425	18.4	78.4
2025-08-28T12:30	10	49	0.2	48	49	425	0.3	424	425	18.5	79.3
2025-08-28T12:31	10	50	0.2	49	50	424	0.4	423	425	18.5	78.4
2025-08-28T12:32	10	50	0.1	49	50	423	0.4	422	424	18.6	78.5
2025-08-28T12:33	10	49	0.3	49	50	423	0.4	422	423	18.5	78.1
2025-08-28T12:34	10	49	0.2	48	49	422	0.2	422	423	18.4	78.0
2025-08-28T12:35	10	49	0.3	49	50	424	0.2	423	424	18.4	78.3
2025-08-28T12:36	10	48	0.7	47	49	424	0.2	424	425	18.4	79.0
2025-08-28T12:37	10	45	0.6	44	47	424	0.2	424	425	18.6	79.1
2025-08-28T12:38	10	43	0.7	42	44	424	0.4	423	425	18.7	78.8
2025-08-28T12:39	10	41	0.7	39	42	423	0.2	423	424	18.6	78.4
2025-08-28T12:40	10	38	0.6	37	39	423	0.3	422	424	18.6	78.3
2025-08-28T12:41	10	36	0.5	35	37	422	0.7	421	424	18.7	78.7
2025-08-28T12:42	10	35	0.4	34	36	422	0.2	421	422	18.7	78.7
2025-08-28T12:43	10	34	0.3	33	34	421	1.1	419	422	18.7	78.0
2025-08-28T12:44	10	33	0.2	33	33	419	0.2	418	419	18.6	78.6
2025-08-28T12:45	10	33	0.1	33	33	419	0.6	418	420	18.6	78.8
2025-08-28T12:46	10	33	0.1	32	33	420	0.3	420	421	18.7	79.1
2025-08-28T12:47	10	33	0.1	32	33	420	0.3	420	421	18.6	78.5
2025-08-28T12:48	10	31	0.6	30	32	419	1.1	417	421	18.6	80.0
2025-08-28T12:49	10	30	0.3	29	31	416	0.8	415	418	18.3	81.8
2025-08-28T12:50	10	30	0.2	30	30	415	0.5	414	416	18.1	82.2
2025-08-28T12:51	10	31	0.5	30	32	415	0.4	414	415	18.0	82.6
2025-08-28T12:52	10	33	0.7	32	34	415	0.3	414	416	18.0	82.9
2025-08-28T12:53	10	36	0.4	35	36	416	0.9	415	418	18.1	83.5
2025-08-28T12:54	10	35	0.1	35	36	417	0.3	416	417	18.2	83.0
2025-08-28T12:55	10	36	0.4	35	37	417	0.2	416	417	18.2	82.8
2025-08-28T12:56	10	38	0.8	37	39	417	0.5	416	418	18.2	83.0
2025-08-28T12:57	10	41	0.8	39	42	418	0.3	417	418	18.3	82.6
2025-08-28T12:58	10	44	0.9	42	45	417	0.5	416	418	18.1	81.3
2025-08-28T12:59	10	47	1.3	45	50	420	1.1	418	421	18.3	82.9
2025-08-28T13:00	10	52	1.3	49	54	421	0.5	420	422	18.3	82.2
2025-08-28T13:01	10	58	1.6	54	59	421	0.4	420	422	18.3	81.5
2025-08-28T13:02	10	54	2.5	50	58	420	0.5	419	421	18.2	81.3
2025-08-28T13:03	10	45	2.5	41	50	419	0.3	418	419	18.2	81.6
2025-08-28T13:04	10	38	1.8	35	41	419	0.6	417	419	18.3	81.3
2025-08-28T13:05	10	33	1.3	30	35	416	0.7	415	418	18.3	81.1
2025-08-28T13:06	10	29	0.7	28	31	416	0.2	416	417	18.4	81.9
2025-08-28T13:07	10	28	0.1	28	28	415	1.1	413	417	18.4	81.7
2025-08-28T13:08	10	29	0.4	28	29	414	0.5	413	415	18.3	82.2
2025-08-28T13:09	10	31	0.7	29	32	414	0.4	413	415	18.3	82.1
2025-08-28T13:10	10	33	0.7	32	35	415	0.4	414	416	18.3	81.8
2025-08-28T13:11	10	36	0.9	34	38	416	0.4	415	417	18.3	81.3
2025-08-28T13:12	10	39	1.1	38	41	417	0.3	416	417	18.2	81.2
2025-08-28T13:13	10	43	0.9	41	44	417	0.3	416	418	18.2	81.3
2025-08-28T13:14	10	45	0.3	44	45	417	0.4	417	418	18.2	81.2
2025-08-28T13:15	10	45	0.3	44	45	417	0.3	417	418	18.1	80.9
2025-08-28T13:16	10	43	0.5	42	44	417	0.3	417	418	18.2	81.3
2025-08-28T13:17	10	42	1.3	41	49	417	0.3	417	418	18.3	81.6
2025-08-28T13:18	10	40	0.4	39	41	417	0.3	416	417	18.4	81.5
2025-08-28T13:19	10	39	0.3	38	39	416	0.5	415	417	18.4	80.9
2025-08-28T13:20	10	37	0.3	37	38	415	0.2	414	415	18.3	80.9
2025-08-28T13:21	10	36	0.4	36	37	415	0.7	413	416	18.3	80.4
2025-08-28T13:22	10	35	0.4	34	36	414	0.2	413	414	18.2	79.7
2025-08-28T13:23	10	34	0.4	33	34	413	0.2	413	414	18.2	80.1
2025-08-28T13:24	10	33	0.3	32	33	414	0.5	413	414	18.3	80.5
2025-08-28T13:25	10	32	0.1	32	32	414	0.2	414	415	18.3	80.4
2025-08-28T13:26	10	32	0.3	32	33	415	0.4	414	415	18.3	80.8
2025-08-28T13:27	10	34	0.4	33	34	416	0.5	415	417	18.4	80.7
2025-08-28T13:28	10	35	0.3	34	35	416	0.5	415	417	18.4	80.7
2025-08-28T13:29	10	36	0.3	35	36	415	0.2	414	415	18.4	80.1
2025-08-28T13:30	10	37	0.5	36	38	415	0.3	415	416	18.4	80.4
2025-08-28T13:31	10	39	1.0	38	41	416	0.2	415	416	18.4	80.1
2025-08-28T13:32	10	44	1.6	41	47	417	1.0	415	419	18.5	80.7
2025-08-28T13:33	10	54	5.0	47	63	419	1.0	418	422	18.5	80.5
2025-08-28T13:34	10	60	1.0	59	62	423	1.0	421	425	18.7	81.2
2025-08-28T13:35	10	61	1.1	59	62	423	0.4	422	424	18.6	79.9
2025-08-28T13:36	10	58	1.6	57	62	424	0.4	423	425	18.6	80.2
2025-08-28T13:37	10	57	0.5	56	57	423	0.2	422	423	18.6	79.3
2025-08-28T13:38	10	55	0.1	55	56	423	0.4	423	424	18.7	80.2
2025-08-28T13:39	10	56	0.4	55	57	424	0.6	423	425	18.8	80.3
2025-08-28T13:40	10	55	0.3	54	55	425	0.4	424	426	18.9	79.9
2025-08-28T13:41	10	54	0.7	52	55	426	0.2	425	426	18.9	79.4
2025-08-28T13:42	10	51	0.5	51	52	425	0.2	425	426	18.8	79.8
2025-08-28T13:43	10	50	0.3	50	51	426	0.4	425	426	18.9	80.3
2025-08-28T13:44	10	50	0.1	50	50	426	0.3	425	427	18.9	80.6
2025-08-28T13:45	10	51	0.7	50	52	427	0.4	426	428	19.1	80.5
2025-08-28T13:46	10	51	0.9	49	52	426	0.6	425	427	19.1	79.9
2025-08-28T13:47	10	49	0.2	49	49	425	1.0	423	426	19.0	79.2
2025-08-28T13:48	10	49	0.2	48	49	424	0.2	423	424	19.0	79.2
2025-08-28T13:49	10	49	0.1	48	49	423	0.5	422	424	18.9	78.9
2025-08-28T13:50	10	49	0.2	49	50	422	0.2	422	423	18.8	77.3
2025-08-28T13:51	10	50	0.2	49	50	423	0.6	422	424	18.9	78.5
2025-08-28T13:52	10	49	0.1	49	50	423	0.3	422	424	18.9	77.1
2025-08-28T13:53	10	49	0.1	49	49	423	0.3	422	423	18.7	77.2
2025-08-28T13:54	10	49	0.1	49	49	423	0.3	422	423	18.8	77.5
2025-08-28T13:55	10	50	0.4	49	51	424	0.4	423	424	18.8	78.3
2025-08-28T13:56	10	52	0.5	51	53	424	0.3	423	424	18.9	78.1
2025-08-28T13:57	10	53	0.4	53	54	425	0.6	423	426	18.9	77.3
2025-08-28T13:58	10	54	0.2	54	55	424	0.6	423	425	18.9	76.6
2025-08-28T13:59	10	55	0.1	54	55	424	0.3	424	425	18.8	75.8
2025-08-28T14:00	10	54	0.1	54	55	425	0.3	424	425	18.8	75.7
2025-08-28T14:01	10	55	0.3	54	55	425	0.5	424	426	18.8	75.9
2025-08-28T14:02	10	56	0.7	55	57	427	0.5	425	427	18.9	76.8
2025-08-28T14:03	10	61	3.3	58	69	427	0.5	427	429	19.1	76.7
2025-08-28T14:04	10	75	4.4	68	81	430	1.2	428	432	19.0	75.8
2025-08-28T14:05	10	77	2.5	74	82	432	0.4	431	433	19.2	75.4
2025-08-28T14:06	10	79	2.7	75	83	431	1.0	430	433	19.2	75.1
2025-08-28T14:07	10	79	1.5	76	82	433	0.3	432	433	19.3	74.9
2025-08-28T14:08	10	82	0.7	81	83	434	0.7	432	435	19.3	75.1
2025-08-28T14:09	10	79	1.1	77	81	435	0.6	434	435	19.3	74.4
2025-08-28T14:10	10	77	0.4	76	78	434	0.3	433	435	19.3	73.8
2025-08-28T14:11	10	74	1.1	72	76	434	0.8	432	435	19.3	75.1
2025-08-28T14:12	10	72	0.5	71	73	433	0.4	433	434	19.2	74.4
2025-08-28T14:13	10	70	1.5	68	72	433	0.7	432	434	19.3	73.8
2025-08-28T14:14	10	72	2.0	69	77	432	0.3	431	433	19.3	73.3
2025-08-28T14:15	10	78	2.2	74	81	433	0.5	432	434	19.3	73.2
2025-08-28T14:16	10	80	3.7	74	85	433	0.7	433	435	19.3	73.6
2025-08-28T14:17	10	82	0.9	81	84	435	0.3	435	436	19.3	74.7
2025-08-28T14:18	10	89	7.3	80	103	437	1.0	435	438	19.4	73.8
2025-08-28T14:19	10	79	3.3	75	85	436	0.6	435	437	19.5	73.7
2025-08-28T14:20	10	73	4.0	68	80	435	1.1	433	437	19.6	74.1
2025-08-28T14:21	10	67	0.3	67	68	434	0.7	432	435	19.6	72.6
2025-08-28T14:22	10	70	3.0	67	77	433	0.3	433	434	19.5	73.8
2025-08-28T14:23	10	72	4.5	69	89	434	0.8	432	436	19.5	73.6
2025-08-28T14:24	10	103	5.3	92	111	440	1.7	435	442	19.5	74.3
2025-08-28T14:25	10	87	5.2	81	97	440	1.0	438	441	19.5	73.8
2025-08-28T14:26	10	85	3.6	81	96	438	0.3	438	439	19.4	73.7
2025-08-28T14:27	10	109	16.7	90	139	442	3.1	439	448	19.5	74.7
2025-08-28T14:28	10	78	2.4	76	87	440	2.8	436	446	19.6	73.6
2025-08-28T14:29	10	83	1.7	78	86	437	0.3	436	437	19.5	72.9
2025-08-28T14:30	10	93	11.1	80	110	437	1.2	435	439	19.4	73.0
2025-08-28T14:31	10	85	6.3	77	93	437	0.6	436	438	19.3	74.1
2025-08-28T14:32	10	69	4.3	64	77	436	1.3	434	437	19.4	74.0
2025-08-28T14:33	10	63	1.0	60	64	434	0.4	433	435	19.4	73.8
2025-08-28T14:34	10	57	1.5	55	60	432	0.9	430	434	19.4	73.8
2025-08-28T14:35	10	54	0.5	53	55	431	0.2	431	431	19.4	74.1
2025-08-28T14:36	10	54	0.3	53	54	431	0.4	431	432	19.4	74.5
2025-08-28T14:37	10	55	0.5	54	56	432	0.4	431	433	19.6	74.2
2025-08-28T14:38	10	56	0.4	55	57	431	0.7	430	433	19.6	75.0
2025-08-28T14:39	10	55	0.1	55	55	432	0.3	431	432	19.5	75.3
2025-08-28T14:40	10	54	0.4	53	55	431	0.5	430	432	19.5	75.1
2025-08-28T14:41	10	52	0.6	51	53	431	0.6	430	432	19.5	74.3
2025-08-28T14:42	10	50	0.3	50	51	429	0.3	429	430	19.3	73.8
2025-08-28T14:43	10	50	0.1	50	50	430	0.3	429	430	19.3	74.9
2025-08-28T14:44	10	50	0.1	50	50	430	0.2	429	430	19.2	75.1
2025-08-28T14:45	10	51	0.3	50	51	430	0.3	429	431	19.3	75.3
2025-08-28T14:46	10	51	0.1	51	52	430	0.3	430	431	19.3	74.6
2025-08-28T14:47	10	51	0.1	51	51	431	0.4	430	431	19.5	74.2
2025-08-28T14:48	10	51	0.1	51	51	431	0.3	430	431	19.5	74.4
2025-08-28T14:49	10	51	0.1	51	51	430	0.3	430	431	19.4	73.7
2025-08-28T14:50	10	51	0.1	51	51	430	0.2	430	431	19.5	73.5
2025-08-28T14:51	10	51	0.2	51	52	430	0.2	430	431	19.6	72.8
2025-08-28T14:52	10	51	0.2	51	52	431	0.2	430	431	19.6	73.1
2025-08-28T14:53	10	51	0.2	51	52	431	0.3	430	432	19.7	72.8
2025-08-28T14:54	10	52	0.2	51	52	431	0.4	430	432	19.8	72.9
2025-08-28T14:55	10	52	0.1	52	53	432	0.3	431	433	19.8	74.0
2025-08-28T14:56	10	52	0.1	52	53	431	0.3	431	432	19.8	73.1
2025-08-28T14:57	10	52	0.2	51	52	432	0.3	431	433	19.6	72.9
2025-08-28T14:58	10	51	0.1	51	52	431	0.2	430	431	19.5	72.7
2025-08-28T14:59	10	51	0.1	51	52	431	0.3	430	432	19.5	73.1
2025-08-28T15:00	10	52	0.1	52	52	431	0.2	431	432	19.6	73.6
2025-08-28T15:01	10	52	0.1	52	52	431	0.2	430	431	19.5	73.4
2025-08-28T15:02	10	53	0.4	52	54	431	0.2	430	431	19.6	72.7
2025-08-28T15:03	10	55	0.6	54	56	431	0.3	431	432	19.6	72.3
2025-08-28T15:04	10	57	0.5	56	57	432	0.3	431	432	19.6	72.9
2025-08-28T15:05	10	57	0.1	57	58	433	0.3	432	433	19.6	73.1
2025-08-28T15:06	10	57	0.2	56	57	433	0.2	433	434	19.7	72.3
2025-08-28T15:07	10	55	0.5	55	56	433	0.2	433	434	19.8	72.1
2025-08-28T15:08	10	54	0.5	53	55	433	0.2	432	433	19.9	72.1
2025-08-28T15:09	10	52	0.3	52	53	432	0.3	431	433	19.9	71.6
2025-08-28T15:10	10	52	0.2	52	52	433	0.3	432	433	19.8	71.8
2025-08-28T15:11	10	52	0.1	52	53	432	0.3	432	433	19.8	73.1
2025-08-28T15:12	10	54	0.8	52	55	432	0.3	431	432	19.7	72.6
2025-08-28T15:13	10	56	0.4	55	56	431	0.2	431	432	19.6	73.2
2025-08-28T15:14	10	57	0.4	56	58	432	0.3	431	433	19.6	74.0
2025-08-28T15:15	10	58	0.2	58	59	433	0.4	432	434	19.6	73.6
2025-08-28T15:16	10	58	0.1	58	59	433	0.2	432	433	19.6	73.1
2025-08-28T15:17	10	58	0.4	57	58	433	0.2	433	434	19.7	73.1
2025-08-28T15:18	10	56	0.7	54	57	433	0.6	432	434	19.8	73.8
2025-08-28T15:19	10	53	0.8	52	54	433	0.7	431	433	19.7	75.1
2025-08-28T15:20	10	50	0.7	49	52	431	0.4	430	432	19.7	75.3
2025-08-28T15:21	10	48	0.6	47	49	430	0.8	429	431	19.6	75.1
2025-08-28T15:22	10	46	0.5	46	47	429	0.2	429	430	19.5	76.0
2025-08-28T15:23	10	45	0.3	44	46	429	0.4	428	430	19.6	76.2
2025-08-28T15:24	10	44	0.3	44	45	429	0.5	428	430	19.7	76.7
2025-08-28T15:25	10	43	0.4	42	44	427	1.1	425	429	19.4	76.3
2025-08-28T15:26	10	42	0.3	42	42	426	0.2	425	426	19.3	77.0
2025-08-28T15:27	10	41	0.2	41	42	426	0.3	425	427	19.5	77.8
2025-08-28T15:28	10	41	0.1	41	41	425	0.3	424	426	19.5	76.8
2025-08-28T15:29	10	42	0.3	41	42	426	0.7	425	427	19.4	77.3
2025-08-28T15:30	10	43	0.4	42	43	426	0.7	424	427	19.5	77.0
2025-08-28T15:31	10	45	0.9	43	46	424	0.2	424	425	19.4	76.5
2025-08-28T15:32	10	55	8.5	47	72	425	1.4	424	429	19.3	76.8
2025-08-28T15:33	10	55	3.2	52	66	428	0.4	427	429	19.4	76.3
2025-08-28T15:34	10	72	15.7	55	100	430	1.9	427	433	19.5	76.3
2025-08-28T15:35	10	78	20.4	57	114	433	1.1	432	435	19.4	75.8
2025-08-28T15:36	10	81	10.8	63	101	434	1.7	431	437	19.6	76.1
2025-08-28T15:37	10	61	5.0	54	68	433	1.1	432	435	19.7	76.0
2025-08-28T15:38	10	110	12.8	69	119	439	3.2	432	442	19.9	76.1
2025-08-28T15:39	10	110	2.3	106	114	440	0.3	440	441	19.8	75.1
2025-08-28T15:40	10	108	2.0	101	112	440	0.5	438	441	19.7	74.9
2025-08-28T15:41	10	95	4.5	87	101	439	0.9	437	441	19.6	75.7
2025-08-28T15:42	10	86	6.1	74	95	437	0.5	436	438	19.7	75.5
2025-08-28T15:43	10	69	13.1	55	91	435	2.2	432	438	19.8	75.2
2025-08-28T15:44	10	57	8.5	43	69	433	1.0	431	434	19.6	75.0
2025-08-28T15:45	10	41	0.6	40	43	429	1.2	427	432	19.7	75.5
2025-08-28T15:46	10	40	0.9	40	43	427	0.2	427	428	19.7	75.5
2025-08-28T15:47	10	41	0.8	41	44	427	0.4	426	427	19.8	76.3
2025-08-28T15:48	10	42	0.7	41	43	426	0.3	425	426	19.7	75.5
2025-08-28T15:49	10	41	2.2	40	46	426	0.3	425	426	19.8	76.1
2025-08-28T15:50	10	41	0.3	40	42	425	0.5	425	426	19.7	76.1
2025-08-28T15:51	10	41	0.1	41	42	424	0.3	424	425	19.6	76.4
2025-08-28T15:52	10	52	11.4	42	74	426	1.6	424	429	19.6	76.7
2025-08-28T15:53	10	61	8.4	49	76	428	0.9	427	430	19.6	76.3
2025-08-28T15:54	10	53	7.0	41	68	429	1.0	427	430	19.7	75.7
2025-08-28T15:55	10	40	0.5	40	41	427	0.3	427	428	19.7	75.6
2025-08-28T15:56	10	39	0.2	39	40	425	0.7	424	427	19.6	75.3
2025-08-28T15:57	10	39	0.2	38	39	425	0.4	424	426	19.5	75.2
2025-08-28T15:58	10	38	0.2	38	39	426	0.3	425	426	19.6	75.9
2025-08-28T15:59	10	37	0.2	37	38	425	0.4	424	426	19.6	75.7
2025-08-28T16:00	10	37	0.1	37	37	424	0.4	423	425	19.6	74.8
2025-08-28T16:01	10	40	2.2	37	44	424	0.3	423	424	19.6	75.0
2025-08-28T16:02	10	39	0.6	38	40	424	0.3	424	425	19.6	74.6
2025-08-28T16:03	10	39	0.1	38	39	424	0.3	424	425	19.6	74.7
2025-08-28T16:04	10	40	0.5	39	40	426	0.5	424	427	19.6	74.7
2025-08-28T16:05	10	41	0.4	40	42	426	0.3	425	426	19.6	74.3
2025-08-28T16:06	10	42	0.4	42	43	426	0.4	425	427	19.6	74.2
2025-08-28T16:07	10	44	0.5	43	46	427	0.6	426	428	19.6	75.2
2025-08-28T16:08	10	44	1.7	44	57	427	0.4	427	428	19.9	77.0
2025-08-28T16:09	10	43	0.6	42	44	426	0.7	425	428	19.8	77.3
2025-08-28T16:10	10	41	0.7	39	42	425	1.0	423	426	19.6	77.7
2025-08-28T16:11	10	39	0.3	38	39	424	0.4	423	425	19.5	78.2
2025-08-28T16:12	10	37	0.2	37	38	423	0.4	423	424	19.5	78.4
2025-08-28T16:13	10	38	0.2	37	38	423	0.2	422	423	19.5	78.7
2025-08-28T16:14	10	38	0.1	38	38	424	0.6	422	425	19.6	79.3
2025-08-28T16:15	10	38	0.4	38	39	424	0.2	423	424	19.6	78.9
2025-08-28T16:16	10	37	0.1	37	38	424	0.2	423	424	19.5	78.8
2025-08-28T16:17	10	37	0.1	37	38	423	0.4	423	424	19.6	78.8
2025-08-28T16:18	10	38	0.2	37	38	424	0.3	423	424	19.5	77.9
2025-08-28T16:19	10	39	0.3	38	39	424	0.3	423	424	19.5	78.1
2025-08-28T16:20	10	39	1.6	39	49	423	0.3	423	424	19.5	78.1
2025-08-28T16:21	10	43	3.2	39	49	424	0.4	423	425	19.6	78.1
2025-08-28T16:22	10	38	0.3	38	39	424	0.3	423	425	19.5	77.9
2025-08-28T16:23	10	37	0.3	37	38	424	0.4	423	424	19.5	78.8
2025-08-28T16:24	10	36	0.6	35	37	424	0.6	423	424	19.6	78.7
2025-08-28T16:25	10	33	0.7	32	35	423	0.3	423	424	19.5	78.7
2025-08-28T16:26	10	31	0.4	31	32	423	0.4	422	423	19.6	78.9
2025-08-28T16:27	10	30	0.5	29	31	422	0.3	421	422	19.6	78.9
2025-08-28T16:28	10	28	0.2	28	29	421	0.3	420	422	19.5	78.8
2025-08-28T16:29	10	28	0.2	28	29	420	0.3	419	421	19.5	78.3
2025-08-28T16:30	10	29	0.4	29	30	420	0.3	419	420	19.4	78.0
2025-08-28T16:31	10	30	0.2	30	30	420	0.2	420	421	19.4	78.0
2025-08-28T16:32	10	31	0.1	30	31	420	0.3	420	421	19.4	78.1
2025-08-28T16:33	10	31	0.1	30	31	420	0.3	420	421	19.4	78.3
2025-08-28T16:34	10	31	0.2	30	31	421	0.5	420	422	19.5	79.6
2025-08-28T16:35	10	31	0.1	31	31	422	0.2	421	422	19.6	79.0
2025-08-28T16:36	10	31	0.2	31	32	421	0.3	420	422	19.5	77.1
2025-08-28T16:37	10	32	0.3	32	33	420	0.2	420	421	19.4	77.9
2025-08-28T16:38	10	33	0.2	33	34	420	0.3	419	421	19.4	78.1
2025-08-28T16:39	10	33	0.2	33	34	421	0.3	420	422	19.5	77.7
2025-08-28T16:40	10	31	0.7	30	33	420	0.3	420	421	19.4	77.6
2025-08-28T16:41	10	29	0.8	27	30	420	0.3	419	421	19.5	77.6
2025-08-28T16:42	10	27	0.3	26	27	419	0.2	418	419	19.5	77.5
2025-08-28T16:43	10	26	0.5	25	26	419	0.3	418	419	19.5	77.6
2025-08-28T16:44	10	24	0.4	23	25	418	0.3	418	419	19.5	77.7
2025-08-28T16:45	10	23	0.2	23	24	418	0.2	418	418	19.5	77.6
2025-08-28T16:46	10	23	0.2	22	23	418	0.3	418	419	19.5	78.5
2025-08-28T16:47	10	22	0.2	22	22	418	0.2	418	419	19.5	77.6
2025-08-28T16:48	10	22	0.1	21	22	418	0.4	417	419	19.5	77.4
2025-08-28T16:49	10	22	0.1	21	22	417	0.2	417	418	19.4	76.0
2025-08-28T16:50	10	21	0.1	21	22	417	0.3	416	418	19.4	76.8
2025-08-28T16:51	10	21	0.1	21	22	417	0.2	416	417	19.4	76.9
2025-08-28T16:52	10	21	0.3	20	21	417	0.3	416	417	19.4	77.1
2025-08-28T16:53	10	20	0.4	19	20	417	0.2	416	417	19.5	77.6
2025-08-28T16:54	10	18	0.5	17	19	416	0.4	415	417	19.4	77.3
2025-08-28T16:55	10	16	0.5	16	17	415	0.3	414	415	19.4	77.6
2025-08-28T16:56	10	15	0.4	14	16	414	0.2	414	414	19.4	77.0
2025-08-28T16:57	10	14	0.3	13	14	414	0.2	413	415	19.4	77.2
2025-08-28T16:58	10	13	0.3	12	13	414	0.2	413	414	19.4	77.2
2025-08-28T16:59	10	12	0.2	11	12	413	0.4	413	414	19.4	77.4
2025-08-28T17:00	10	11	0.3	10	11	413	0.2	412	413	19.3	77.1
2025-08-28T17:01	10	10	0.3	9	10	412	0.3	411	413	19.3	77.2
2025-08-28T17:02	10	9	0.2	9	10	412	0.3	411	412	19.3	77.5
2025-08-28T17:03	10	8	0.2	8	9	411	0.3	410	411	19.3	77.7
2025-08-28T17:04	10	8	0.2	8	8	410	0.2	410	411	19.3	78.0
2025-08-28T17:05	10	8	0.2	7	8	410	0.3	410	411	19.3	77.7
2025-08-28T17:06	10	7	0.2	7	7	410	0.2	410	411	19.3	77.8
2025-08-28T17:07	10	7	0.2	7	7	409	0.2	409	410	19.3	77.9
2025-08-28T17:08	10	6	0.1	6	7	409	0.2	409	410	19.2	78.4
2025-08-28T17:09	10	6	0.1	6	6	409	0.2	409	410	19.2	78.6
2025-08-28T17:10	10	6	0.1	6	6	409	0.2	409	410	19.2	78.9
2025-08-28T17:11	10	6	0.1	6	6	409	0.2	408	409	19.2	79.3
2025-08-28T17:12	10	6	0.1	5	6	409	0.2	408	409	19.2	79.3
2025-08-28T17:13	10	5	0.1	5	6	408	0.2	408	409	19.2	79.2
2025-08-28T17:14	10	5	0.1	5	5	408	0.3	407	408	19.2	78.9
2025-08-28T17:15	10	5	0.1	5	5	408	0.2	407	408	19.2	79.1
2025-08-28T17:16	10	5	0.1	5	5	408	0.2	407	408	19.1	79.8
2025-08-28T17:17	10	5	0.1	5	5	408	0.2	407	408	19.1	80.5
2025-08-28T17:18	10	5	0.1	5	5	408	0.2	407	408	19.0	80.6
2025-08-28T17:19	10	5	0.1	4	5	408	0.2	407	408	19.0	80.5
2025-08-28T17:20	10	4	0.2	4	5	408	0.2	407	408	19.0	80.5
2025-08-28T17:21	10	4	0.2	3	4	407	0.2	407	408	19.0	80.4
2025-08-28T17:22	10	3	0.1	3	4	407	0.2	407	408	19.0	80.8
2025-08-28T17:23	10	3	0.1	3	3	407	0.2	407	408	18.9	81.3
2025-08-28T17:24	10	3	0.1	3	3	407	0.2	407	408	18.9	81.8
2025-08-28T17:25	10	3	0.2	2	4	407	0.2	406	407	18.8	82.2
2025-08-28T17:26	10	3	0.2	2	3	407	0.3	406	407	18.8	82.2
2025-08-28T17:27	10	2	0.2	2	3	407	0.2	406	408	18.8	81.8
2025-08-28T17:28	10	2	0.2	2	3	407	0.3	406	407	18.8	82.1
2025-08-28T17:29	10	2	0.2	2	2	407	0.2	406	407	18.8	82.0
2025-08-28T17:30	10	2	0.2	1	2	407	0.3	406	408	18.8	81.3
2025-08-28T17:31	10	2	0.2	1	2	407	0.2	406	407	18.8	81.5
2025-08-28T17:32	10	1	0.2	1	2	407	0.2	406	407	18.8	81.8
2025-08-28T17:33	10	1	0.2	1	2	407	0.2	406	407	18.8	81.8
2025-08-28T17:34	10	1	0.1	1	1	407	0.2	406	407	18.7	82.1
2025-08-28T17:35	10	1	0.1	1	1	407	0.2	406	407	18.7	82.3
2025-08-28T17:36	10	1	0.1	1	1	407	0.2	406	407	18.7	82.5
2025-08-28T17:37	10	1	0.1	1	1	407	0.2	406	407	18.7	82.3
2025-08-28T17:38	10	1	0.1	1	1	407	0.2	406	407	18.7	82.0
2025-08-28T17:39	10	1	0.1	0	1	407	0.2	406	407	18.7	82.4
2025-08-28T17:40	10	1	0.1	0	1	407	0.2	406	407	18.7	82.5
2025-08-28T17:41	10	1	0.1	0	1	407	0.2	406	407	18.7	82.5
2025-08-28T17:42	10	0	0.1	0	1	407	0.2	406	407	18.7	82.4
2025-08-28T17:43	10	0	0.1	0	1	407	0.2	406	407	18.7	82.6
2025-08-28T17:44	10	0	0.1	0	1	407	0.2	406	407	18.7	83.1
2025-08-28T17:45	10	0	0.1	0	1	407	0.2	406	407	18.7	83.2
2025-08-28T17:46	10	0	0.1	0	1	407	0.2	406	407	18.6	84.1
2025-08-28T17:47	10	0	0.1	0	1	407	0.2	406	407	18.6	83.8
2025-08-28T17:48	10	0	0.1	0	1	407	0.2	406	407	18.6	83.1
2025-08-28T17:49	10	0	0.1	0	1	407	0.2	406	407	18.6	83.1
2025-08-28T17:50	10	0	0.1	0	1	407	0.2	406	407	18.6	83.2
2025-08-28T17:51	10	0	0.1	0	1	406	0.2	406	407	18.6	83.2
2025-08-28T17:52	10	0	0.1	0	1	406	0.3	406	407	18.6	83.3
2025-08-28T17:53	10	0	0.1	0	0	406	0.2	406	407	18.6	83.5
2025-08-28T17:54	10	0	0.1	0	0	406	0.2	406	407	18.6	83.2
2025-08-28T17:55	10	0	0.1	0	1	406	0.2	405	407	18.6	82.8
2025-08-28T17:56	10	0	0.1	0	0	406	0.2	405	407	18.6	82.6
2025-08-28T17:57	10	0	0.1	0	0	406	0.2	405	406	18.6	82.8
2025-08-28T17:58	10	0	0.1	0	1	406	0.2	405	406	18.6	82.8
2025-08-28T17:59	10	0	0.1	0	1	405	0.3	405	406	18.5	83.4
2025-08-28T18:00	10	0	0.1	0	1	405	0.2	405	406	18.5	83.9
2025-08-28T18:01	10	0	0.1	0	1	405	0.2	404	405	18.4	84.1
2025-08-28T18:02	10	0	0.1	0	1	405	0.3	404	405	18.4	84.7
2025-08-28T18:03	10	0	0.1	0	1	404	0.2	404	405	18.4	85.0
2025-08-28T18:04	10	0	0.1	0	0	404	0.2	404	405	18.3	85.3
2025-08-28T18:05	10	0	0.1	0	1	404	0.3	404	405	18.3	86.3
2025-08-28T18:06	10	0	0.1	0	1	404	0.2	404	405	18.2	86.6
2025-08-28T18:07	10	0	0.1	0	0	404	0.2	404	405	18.2	86.8
2025-08-28T18:08	10	0	0.1	0	0	405	0.3	404	405	18.2	86.9
2025-08-28T18:09	10	0	0.1	0	0	404	0.2	404	405	18.2	87.1
2025-08-28T18:10	10	0	0.1	0	0	404	0.3	404	405	18.2	86.8
2025-08-28T18:11	10	0	0.1	0	1	404	0.2	404	405	18.2	86.6
2025-08-28T18:12	10	0	0.1	0	0	404	0.3	404	405	18.2	87.0
2025-08-28T18:13	10	0	0.1	0	0	404	0.3	404	405	18.2	87.3
2025-08-28T18:14	10	0	0.1	0	0	405	0.3	404	405	18.2	88.1
2025-08-28T18:15	10	0	0.1	0	0	404	0.2	404	405	18.1	88.0
2025-08-28T18:16	10	0	0.1	0	0	404	0.3	404	405	18.1	88.7
2025-08-28T18:17	10	0	0.1	0	0	404	0.2	404	405	18.1	89.0
2025-08-28T18:18	10	0	0.1	0	0	404	0.2	404	404	18.1	89.9
2025-08-28T18:19	10	0	0.1	0	0	404	0.2	404	405	18.0	89.7
2025-08-28T18:20	10	0	0.1	0	0	404	0.2	403	405	18.0	90.0
2025-08-28T18:21	10	0	0.1	0	0	404	0.2	403	404	18.0	89.7
2025-08-28T18:22	10	0	0.1	0	0	404	0.2	403	404	18.0	89.1
2025-08-28T18:23	10	0	0.1	0	0	404	0.2	403	404	18.0	89.5
2025-08-28T18:24	10	0	0.1	0	0	403	0.2	403	404	18.0	89.4
2025-08-28T18:25	10	0	0.1	0	0	403	0.2	403	403	18.0	89.3
2025-08-28T18:26	10	0	0.1	0	0	403	0.2	403	404	17.9	89.2
2025-08-28T18:27	10	0	0.1	0	0	403	0.2	402	403	17.9	89.0
2025-08-28T18:28	10	0	0.1	0	0	403	0.2	402	403	17.9	88.9
2025-08-28T18:29	10	0	0.1	0	0	403	0.2	402	404	18.0	88.0
2025-08-28T18:30	10	0	0.1	0	0	403	0.2	402	403	18.0	87.6
2025-08-28T18:31	10	0	0.1	0	0	403	0.2	402	403	18.0	88.5
2025-08-28T18:32	10	0	0.1	0	0	403	0.2	402	403	18.0	89.4
2025-08-28T18:33	10	0	0.1	0	0	403	0.2	402	403	17.9	89.6
2025-08-28T18:34	10	0	0.1	0	0	403	0.2	402	403	17.9	89.6
2025-08-28T18:35	10	0	0.1	0	0	403	0.2	402	403	17.9	89.8
2025-08-28T18:36	10	0	0.1	0	0	402	0.2	402	403	17.9	89.7
2025-08-28T18:37	10	0	0.1	0	0	402	0.2	402	403	17.9	89.5
2025-08-28T18:38	10	0	0.1	0	0	403	0.2	402	403	17.9	89.1
2025-08-28T18:39	10	0	0.1	0	0	403	0.2	402	403	17.9	88.6
2025-08-28T18:40	10	0	0.1	0	0	402	0.2	402	403	17.9	88.8
2025-08-28T18:41	10	0	0.1	0	0	403	0.2	402	403	17.9	88.4
2025-08-28T18:42	10	0	0.1	0	0	402	0.2	402	403	17.9	88.3
2025-08-28T18:43	10	0	0.1	0	1	403	0.2	402	403	17.9	88.5
2025-08-28T18:44	10	0	0.1	0	0	403	0.2	402	403	18.0	88.0
2025-08-28T18:45	10	0	0.1	0	0	403	0.2	402	403	18.0	88.3
2025-08-28T18:46	10	0	0.1	0	0	402	0.3	402	403	18.0	88.4
2025-08-28T18:47	10	0	0.1	0	0	403	0.2	402	403	17.9	88.7
2025-08-28T18:48	10	0	0.1	0	0	402	0.2	402	403	17.9	88.8
2025-08-28T18:49	10	0	0.1	0	0	402	0.2	402	403	17.9	88.8
2025-08-28T18:50	10	0	0.1	0	0	402	0.2	401	403	17.9	89.1
2025-08-28T18:51	10	0	0.1	0	0	402	0.2	401	402	17.9	88.8
2025-08-28T18:52	10	0	0.1	0	0	402	0.2	401	402	17.9	89.0
2025-08-28T18:53	10	0	0.1	0	0	402	0.2	401	402	17.8	89.4
2025-08-28T18:54	10	0	0.2	0	1	402	0.3	401	403	17.8	89.2
2025-08-28T18:55	10	0	0.2	0	1	402	0.2	401	402	17.8	88.8
2025-08-28T18:56	10	0	0.1	0	0	402	0.3	402	403	17.8	88.9
2025-08-28T18:57	10	0	0.1	0	0	402	0.2	402	403	17.8	88.9
2025-08-28T18:58	10	0	0.2	0	1	402	0.2	402	403	17.8	88.9
2025-08-28T18:59	10	0	0.2	0	0	403	0.2	402	403	17.8	88.9
2025-08-28T19:00	10	0	0.2	0	0	403	0.3	402	404	17.8	88.8
2025-08-28T19:01	10	0	0.1	0	1	403	0.2	402	403	17.8	88.8
2025-08-28T19:02	10	0	0.1	0	0	403	0.2	402	403	17.8	88.8
2025-08-28T19:03	10	0	0.2	0	1	403	0.3	402	404	17.8	88.5
2025-08-28T19:04	10	0	0.2	0	0	403	0.2	403	404	17.8	88.6
2025-08-28T19:05	10	0	0.1	0	0	403	0.3	402	404	17.9	87.9
2025-08-28T19:06	10	0	0.1	0	1	403	0.2	402	403	17.9	88.4
2025-08-28T19:07	10	0	0.1	0	0	403	0.2	402	403	17.9	88.2
2025-08-28T19:08	10	0	0.1	0	0	403	0.2	402	403	17.9	88.4
2025-08-28T19:09	10	0	0.1	0	0	402	0.2	402	403	17.9	88.5
2025-08-28T19:10	10	0	0.1	0	0	403	0.2	402	403	17.9	88.3
2025-08-28T19:11	10	0	0.1	0	0	402	0.2	402	403	17.9	88.6
2025-08-28T19:12	10	0	0.1	0	1	402	0.2	402	403	17.9	88.4
2025-08-28T19:13	10	0	0.1	0	0	402	0.2	402	403	17.9	88.4
2025-08-28T19:14	10	0	0.1	0	0	402	0.2	402	403	17.9	88.7
2025-08-28T19:15	10	0	0.1	0	0	402	0.2	401	403	17.8	88.4
2025-08-28T19:16	10	0	0.0	0	0	402	0.2	401	402	17.8	88.5
2025-08-28T19:17	10	0	0.1	0	0	402	0.2	401	402	17.8	88.0
2025-08-28T19:18	10	0	0.1	0	0	402	0.2	401	402	17.9	88.2
2025-08-28T19:19	10	0	0.1	0	0	402	0.2	401	402	17.8	88.7
2025-08-28T19:20	10	0	0.1	0	0	402	0.3	401	402	17.8	88.2
2025-08-28T19:21	10	0	0.1	0	0	402	0.2	401	402	17.8	88.4
2025-08-28T19:22	10	0	0.1	0	0	402	0.2	401	402	17.9	88.1
2025-08-28T19:23	10	0	0.1	0	0	402	0.2	401	402	17.9	87.8
2025-08-28T19:24	10	0	0.1	0	0	402	0.2	402	402	17.9	87.3
2025-08-28T19:25	10	0	0.1	0	0	402	0.3	401	402	17.9	87.8
2025-08-28T19:26	10	0	0.1	0	0	402	0.2	402	403	17.9	87.5
2025-08-28T19:27	10	0	0.1	0	0	402	0.2	402	403	18.0	87.1
2025-08-28T19:28	10	0	0.0	0	0	402	0.2	402	403	18.0	87.1
2025-08-28T19:29	10	0	0.1	0	0	402	0.2	402	403	18.0	87.9
2025-08-28T19:30	10	0	0.1	0	0	402	0.2	402	403	17.9	88.2
2025-08-28T19:31	10	0	0.1	0	0	402	0.2	402	403	17.9	88.1
2025-08-28T19:32	10	0	0.1	0	0	402	0.2	402	403	17.9	88.8
2025-08-28T19:33	10	0	0.1	0	0	402	0.2	402	403	17.9	88.9
2025-08-28T19:34	10	0	0.1	0	0	402	0.2	402	403	17.9	89.1
2025-08-28T19:35	10	0	0.1	0	0	402	0.2	401	402	17.8	88.7
2025-08-28T19:36	10	0	0.1	0	0	402	0.3	402	403	17.9	88.2
2025-08-28T19:37	10	0	0.1	0	0	402	0.2	401	402	17.9	88.5
2025-08-28T19:38	10	0	0.1	0	0	402	0.2	401	402	17.8	88.4
2025-08-28T19:39	10	0	0.1	0	0	402	0.3	401	402	17.8	88.4
2025-08-28T19:40	10	0	0.1	0	0	402	0.2	402	403	17.8	88.5
2025-08-28T19:41	10	0	0.1	0	0	402	0.2	401	403	17.9	88.7
2025-08-28T19:42	10	0	0.1	0	0	402	0.2	402	403	17.8	89.5
2025-08-28T19:43	10	0	0.1	0	0	402	0.2	402	403	17.8	89.4
2025-08-28T19:44	10	0	0.1	0	0	402	0.2	402	403	17.8	89.2
2025-08-28T19:45	10	0	0.1	0	0	402	0.2	402	403	17.8	89.8
2025-08-28T19:46	10	0	0.1	0	0	402	0.3	402	403	17.8	90.0
2025-08-28T19:47	10	0	0.1	0	0	402	0.3	402	403	17.8	90.3
2025-08-28T19:48	10	0	0.1	0	0	402	0.2	402	403	17.8	90.6
2025-08-28T19:49	10	0	0.1	0	0	402	0.3	401	402	17.8	90.8
2025-08-28T19:50	10	0	0.1	0	0	402	0.3	401	402	17.7	90.5
2025-08-28T19:51	10	0	0.1	0	0	401	0.2	401	402	17.7	90.3
2025-08-28T19:52	10	0	0.1	0	0	401	0.2	401	402	17.7	90.4
2025-08-28T19:53	10	0	0.1	0	0	402	0.2	401	402	17.7	89.8
2025-08-28T19:54	10	0	0.1	0	0	401	0.2	401	402	17.7	89.8
2025-08-28T19:55	10	0	0.1	0	0	401	0.3	401	402	17.7	89.5
2025-08-28T19:56	10	0	0.1	0	0	400	0.2	400	401	17.6	89.8
2025-08-28T19:57	10	0	0.1	0	0	400	0.3	399	400	17.5	90.2
2025-08-28T19:58	10	0	0.1	0	0	400	0.2	399	400	17.3	90.5
2025-08-28T19:59	10	0	0.1	0	0	399	0.3	398	400	17.3	90.8
2025-08-28T20:00	10	0	0.1	0	0	399	0.2	399	400	17.3	91.1
2025-08-28T20:01	10	0	0.1	-1	0	399	0.3	399	400	17.3	91.4
2025-08-28T20:02	10	0	0.1	0	0	399	0.2	399	400	17.3	91.9
2025-08-28T20:03	10	0	0.1	0	0	399	0.2	399	400	17.2	92.8
2025-08-28T20:04	10	0	0.1	0	0	399	0.4	398	399	17.1	94.0
2025-08-28T20:05	10	0	0.1	0	0	398	0.3	397	398	16.9	94.9
2025-08-28T20:06	10	0	0.1	0	0	397	0.5	396	398	16.7	95.6
2025-08-28T20:07	10	0	0.1	0	0	395	1.0	394	397	16.5	95.2
2025-08-28T20:08	10	0	0.1	-1	0	394	0.4	393	395	16.3	95.0
2025-08-28T20:09	10	-1	0.2	-1	0	394	0.2	393	394	16.1	95.4
2025-08-28T20:10	10	-1	0.1	-1	-1	393	0.3	393	394	16.1	95.6
2025-08-28T20:11	10	-1	0.1	-1	-1	394	0.3	393	394	16.1	96.6
2025-08-28T20:12	10	-1	0.1	-1	-1	394	0.4	393	394	16.1	97.8
2025-08-28T20:13	10	-1	0.1	-1	-1	393	0.3	393	394	16.1	98.6
2025-08-28T20:14	10	-1	0.1	-1	-1	393	0.2	393	394	16.1	99.0
2025-08-28T20:15	10	-1	0.1	-1	-1	393	0.3	393	394	16.0	99.1
2025-08-28T20:16	10	-1	0.1	-1	-1	393	0.2	392	393	15.9	99.2
2025-08-28T20:17	10	-1	0.1	-1	-1	393	0.2	392	393	15.9	99.2
2025-08-28T20:18	10	-1	0.1	-1	-1	392	0.4	391	392	15.6	99.3
2025-08-28T20:19	10	-1	0.1	-1	-1	391	0.4	391	392	15.7	99.1
2025-08-28T20:20	10	-1	0.1	-1	-1	392	0.3	391	392	15.8	99.6
2025-08-28T20:21	10	-1	0.1	-1	-1	392	0.3	391	392	15.8	99.4
2025-08-28T20:22	10	-1	0.1	-1	-1	392	0.2	391	392	15.7	99.5
2025-08-28T20:23	10	-1	0.1	-1	-1	392	0.2	391	392	15.7	99.6
2025-08-28T20:24	10	-1	0.1	-1	-1	391	0.2	391	392	15.6	99.7
2025-08-28T20:25	10	-1	0.1	-1	0	391	0.2	391	391	15.4	99.4
2025-08-28T20:26	10	-1	0.1	-1	0	391	0.3	390	391	15.3	99.2
2025-08-28T20:27	10	-1	0.1	-1	0	391	0.3	390	391	15.4	99.1
2025-08-28T20:28	10	-1	0.1	-1	0	391	0.2	390	391	15.3	99.1
2025-08-28T20:29	10	-1	0.1	-1	0	391	0.2	390	391	15.3	99.3
2025-08-28T20:30	10	-1	0.1	-1	0	391	0.2	390	391	15.3	99.3
2025-08-28T20:31	10	0	0.1	-1	0	390	0.2	390	391	15.3	99.6
2025-08-28T20:32	10	0	0.1	-1	0	390	0.2	390	391	15.3	99.5
2025-08-28T20:33	10	0	0.1	-1	0	390	0.3	390	391	15.3	99.3
2025-08-28T20:34	10	0	0.1	-1	0	391	0.2	390	391	15.4	99.3
2025-08-28T20:35	10	0	0.1	-1	0	391	0.3	390	391	15.4	99.5
2025-08-28T20:36	10	0	0.1	-1	0	391	0.2	390	391	15.5	99.2
2025-08-28T20:37	10	0	0.1	0	0	391	0.3	391	392	15.5	99.1
2025-08-28T20:38	10	0	0.2	0	0	391	0.3	391	392	15.6	99.1
2025-08-28T20:39	10	0	0.2	0	0	391	0.2	391	392	15.7	99.4
2025-08-28T20:40	10	0	0.1	-1	0	391	0.3	390	392	15.7	99.5
2025-08-28T20:41	10	0	0.2	0	0	391	0.3	390	392	15.7	99.5
2025-08-28T20:42	10	0	0.1	-1	0	391	0.3	391	392	15.7	99.5
2025-08-28T20:43	10	0	0.2	0	0	391	0.3	390	391	15.7	99.5
2025-08-28T20:44	10	0	0.2	-1	0	390	0.2	390	391	15.7	99.5
2025-08-28T20:45	10	0	0.1	0	0	390	0.3	389	391	15.7	99.5
2025-08-28T20:46	10	0	0.1	0	0	390	0.3	390	391	15.7	99.5
2025-08-28T20:47	10	0	0.2	0	1	390	0.3	390	391	15.6	99.3
2025-08-28T20:48	10	0	0.2	0	1	390	0.3	389	391	15.4	99.5
2025-08-28T20:49	10	0	0.1	0	0	390	0.2	390	391	15.4	99.7
2025-08-28T20:50	10	0	0.2	0	1	390	0.3	390	391	15.3	99.8
2025-08-28T20:51	10	0	0.1	-1	0	390	0.2	390	391	15.3	99.9
2025-08-28T20:52	10	0	0.1	-1	0	390	0.3	389	391	15.2	99.2
2025-08-28T20:53	10	0	0.1	0	0	390	0.3	389	390	15.3	99.1
2025-08-28T20:54	10	0	0.2	-1	0	390	0.2	389	390	15.3	99.4
2025-08-28T20:55	10	0	0.2	-1	0	390	0.2	389	390	15.3	99.5
2025-08-28T20:56	10	0	0.1	0	0	390	0.2	389	391	15.3	99.4
2025-08-28T20:57	10	0	0.2	-1	0	390	0.2	389	390	15.3	98.9
2025-08-28T20:58	10	0	0.1	0	0	390	0.2	389	390	15.3	98.7
2025-08-28T20:59	10	0	0.1	0	0	390	0.2	389	390	15.3	98.4
2025-08-28T21:00	10	0	0.0	0	0	390	0.2	390	390	15.3	97.6
2025-08-28T21:01	10	0	0.0	0	0	389	0.2	389	390	15.3	97.1
2025-08-28T21:02	10	0	0.1	0	0	389	0.2	389	390	15.3	96.7
2025-08-28T21:03	10	0	0.1	0	0	389	0.2	389	390	15.3	96.7
2025-08-28T21:04	10	0	0.1	0	0	389	0.2	389	390	15.4	96.5
2025-08-28T21:05	10	0	0.1	0	0	389	0.3	388	390	15.4	97.0
2025-08-28T21:06	10	0	0.1	0	0	389	0.3	389	390	15.4	97.0
2025-08-28T21:07	10	0	0.1	0	0	389	0.2	389	390	15.4	97.1
2025-08-28T21:08	10	0	0.1	0	0	389	0.2	388	389	15.4	96.5
2025-08-28T21:09	10	0	0.1	0	0	389	0.3	388	389	15.4	96.3
2025-08-28T21:10	10	0	0.1	0	0	389	0.2	388	389	15.4	96.2
2025-08-28T21:11	10	0	0.1	0	0	389	0.2	389	389	15.4	96.4
2025-08-28T21:12	10	0	0.1	0	0	389	0.2	388	389	15.3	96.4
2025-08-28T21:13	10	0	0.1	0	0	389	0.2	388	389	15.3	96.3
2025-08-28T21:14	10	0	0.0	0	0	389	0.3	388	389	15.3	95.4
2025-08-28T21:15	10	0	0.1	0	0	389	0.2	388	389	15.4	95.2
2025-08-28T21:16	10	0	0.1	0	0	389	0.3	388	389	15.4	95.2
2025-08-28T21:17	10	0	0.1	0	0	389	0.2	388	389	15.4	95.7
2025-08-28T21:18	10	0	0.0	0	0	389	0.2	388	389	15.4	96.2
2025-08-28T21:19	10	0	0.1	0	0	388	0.2	388	389	15.3	96.6
2025-08-28T21:20	10	0	0.1	0	0	388	0.3	388	389	15.3	96.5
2025-08-28T21:21	10	0	0.1	0	0	389	0.2	388	389	15.3	96.0
2025-08-28T21:22	10	0	0.1	0	0	389	0.3	388	389	15.4	96.1
2025-08-28T21:23	10	0	0.0	0	0	388	0.2	388	389	15.3	96.5
2025-08-28T21:24	10	0	0.1	0	0	388	0.2	388	389	15.3	96.6
2025-08-28T21:25	10	0	0.1	0	0	388	0.2	388	389	15.3	96.4
2025-08-28T21:26	10	0	0.1	0	0	388	0.2	388	389	15.3	96.2
2025-08-28T21:27	10	0	0.1	0	0	388	0.3	388	389	15.3	96.0
2025-08-28T21:28	10	0	0.1	0	0	388	0.2	387	389	15.3	94.8
2025-08-28T21:29	10	0	0.1	0	0	388	0.2	387	388	15.3	95.1
2025-08-28T21:30	10	0	0.1	0	0	387	0.3	387	388	15.2	95.2
2025-08-28T21:31	10	0	0.1	0	0	387	0.2	387	388	15.2	95.2
2025-08-28T21:32	10	0	0.1	0	0	387	0.2	387	388	15.2	93.8
2025-08-28T21:33	10	0	0.1	0	0	387	0.2	387	388	15.2	94.8
2025-08-28T21:34	10	0	0.1	0	0	387	0.2	387	388	15.2	95.2
2025-08-28T21:35	10	0	0.1	0	0	387	0.3	387	388	15.1	94.8
2025-08-28T21:36	10	0	0.1	0	0	387	0.2	386	387	15.1	94.4
2025-08-28T21:37	10	0	0.1	0	0	387	0.3	386	387	15.1	94.0
2025-08-28T21:38	10	0	0.1	0	0	386	0.3	386	387	15.0	93.6
2025-08-28T21:39	10	0	0.1	0	0	386	0.3	385	387	15.0	93.8
2025-08-28T21:40	10	0	0.1	0	0	386	0.3	385	387	14.9	93.9
2025-08-28T21:41	10	0	0.1	0	0	386	0.2	385	386	14.9	93.7
2025-08-28T21:42	10	0	0.1	0	0	385	0.3	385	386	14.9	94.5
2025-08-28T21:43	10	0	0.1	0	0	385	0.2	385	386	14.8	94.2
2025-08-28T21:44	10	0	0.1	0	0	385	0.3	385	386	14.7	94.2
2025-08-28T21:45	10	0	0.1	0	0	385	0.2	384	385	14.7	93.5
2025-08-28T21:46	10	0	0.1	0	0	385	0.2	384	385	14.7	92.8
2025-08-28T21:47	10	0	0.1	0	0	384	0.3	384	385	14.7	92.6
2025-08-28T21:48	10	0	0.1	0	0	384	0.2	384	385	14.7	92.3
2025-08-28T21:49	10	0	0.1	0	0	384	0.2	384	385	14.7	92.5
2025-08-28T21:50	10	0	0.1	0	0	384	0.2	384	385	14.7	92.1
2025-08-28T21:51	10	0	0.1	0	0	384	0.3	384	385	14.6	92.7
2025-08-28T21:52	10	0	0.1	0	0	384	0.2	384	385	14.6	92.7
2025-08-28T21:53	10	0	0.1	0	0	384	0.2	383	384	14.6	92.8
2025-08-28T21:54	10	0	0.1	0	0	384	0.3	383	384	14.6	92.8
2025-08-28T21:55	10	0	0.1	0	0	384	0.2	383	384	14.6	92.6
2025-08-28T21:56	10	0	0.1	0	0	384	0.3	383	385	14.6	93.2
2025-08-28T21:57	10	0	0.1	0	0	384	0.2	384	385	14.6	93.6
2025-08-28T21:58	10	0	0.1	0	0	384	0.3	384	385	14.6	92.7
2025-08-28T21:59	10	0	0.1	0	0	384	0.2	384	385	14.7	93.0
2025-08-28T22:00	10	0	0.1	0	0	384	0.2	384	385	14.6	93.2
2025-08-28T22:01	10	0	0.1	0	0	384	0.3	383	385	14.6	93.2
2025-08-28T22:02	10	0	0.1	0	0	384	0.2	383	385	14.6	93.8
2025-08-28T22:03	10	0	0.1	0	0	384	0.2	384	384	14.6	94.2
2025-08-28T22:04	10	0	0.1	0	0	384	0.2	383	385	14.5	94.8
2025-08-28T22:05	10	0	0.1	0	0	384	0.3	383	385	14.5	95.3
2025-08-28T22:06	10	0	0.1	0	0	384	0.3	384	385	14.5	95.7
2025-08-28T22:07	10	0	0.1	0	0	384	0.2	384	385	14.4	95.7
2025-08-28T22:08	10	0	0.1	0	0	384	0.3	383	385	14.5	95.8
2025-08-28T22:09	10	0	0.1	0	0	385	0.2	384	385	14.6	95.6
2025-08-28T22:10	10	0	0.1	0	0	385	0.2	384	385	14.7	95.2
2025-08-28T22:11	10	0	0.1	0	0	385	0.3	384	385	14.7	95.2
2025-08-28T22:12	10	0	0.1	0	0	385	0.2	385	385	14.7	95.5
2025-08-28T22:13	10	0	0.1	0	0	384	0.3	384	385	14.7	95.9
2025-08-28T22:14	10	0	0.1	0	0	385	0.2	384	385	14.6	96.1
2025-08-28T22:15	10	0	0.1	0	0	385	0.2	385	385	14.6	95.7
2025-08-28T22:16	10	0	0.1	0	0	385	0.2	384	385	14.7	95.3
2025-08-28T22:17	10	0	0.1	0	0	385	0.2	384	385	14.7	95.4
2025-08-28T22:18	10	0	0.1	0	0	385	0.2	384	385	14.6	95.8
2025-08-28T22:19	10	0	0.1	0	0	385	0.2	384	385	14.7	95.5
2025-08-28T22:20	10	0	0.1	0	0	385	0.2	384	385	14.6	96.0
2025-08-28T22:21	10	0	0.1	0	0	385	0.2	384	385	14.6	96.3
2025-08-28T22:22	10	0	0.1	0	0	385	0.2	384	385	14.6	96.2
2025-08-28T22:23	10	0	0.1	0	0	385	0.2	384	385	14.6	96.3
2025-08-28T22:24	10	0	0.1	0	0	385	0.2	384	385	14.6	95.9
2025-08-28T22:25	10	0	0.1	0	0	385	0.2	384	385	14.6	95.5
2025-08-28T22:26	10	0	0.1	0	0	385	0.2	385	385	14.7	95.1
2025-08-28T22:27	10	0	0.1	0	0	385	0.2	384	385	14.7	93.8
2025-08-28T22:28	10	0	0.1	0	0	385	0.2	385	385	14.8	92.6
2025-08-28T22:29	10	0	0.1	0	0	385	0.2	384	385	14.9	92.7
2025-08-28T22:30	10	0	0.1	0	0	385	0.3	384	385	14.9	92.6
2025-08-28T22:31	10	0	0.0	0	0	385	0.2	384	385	14.9	92.5
2025-08-28T22:32	10	0	0.0	0	0	385	0.3	384	385	14.8	92.8
2025-08-28T22:33	10	0	0.1	0	0	385	0.2	384	385	14.8	92.9
2025-08-28T22:34	10	0	0.1	0	0	385	0.2	384	385	14.8	92.7
2025-08-28T22:35	10	0	0.1	0	0	385	0.2	384	385	14.8	93.2
2025-08-28T22:36	10	0	0.0	0	0	385	0.2	384	385	14.8	93.2
2025-08-28T22:37	10	0	0.1	0	0	385	0.2	384	385	14.8	92.6
2025-08-28T22:38	10	0	0.1	0	0	385	0.2	384	385	14.7	92.9
2025-08-28T22:39	10	0	0.1	0	0	384	0.2	384	385	14.7	92.8
2025-08-28T22:40	10	0	0.1	0	0	384	0.2	384	385	14.7	93.1
2025-08-28T22:41	10	0	0.1	0	0	384	0.2	384	385	14.7	93.3
2025-08-28T22:42	10	0	0.1	0	0	385	0.2	384	385	14.7	93.1
2025-08-28T22:43	10	0	0.1	0	0	385	0.3	384	385	14.7	92.7
2025-08-28T22:44	10	0	0.1	0	0	384	0.2	384	385	14.7	92.4
2025-08-28T22:45	10	0	0.1	0	0	384	0.2	384	385	14.8	91.9
2025-08-28T22:46	10	0	0.1	0	0	384	0.2	384	385	14.8	91.7
2025-08-28T22:47	10	0	0.1	0	0	384	0.2	384	385	14.8	91.7
2025-08-28T22:48	10	0	0.1	0	0	384	0.2	384	385	14.7	91.7
2025-08-28T22:49	10	0	0.1	0	0	384	0.2	384	385	14.8	91.5
2025-08-28T22:50	10	0	0.1	0	0	384	0.3	384	385	14.8	91.3
2025-08-28T22:51	10	0	0.0	0	0	384	0.2	384	385	14.8	90.8
2025-08-28T22:52	10	0	0.1	0	0	384	0.3	384	385	14.9	89.7
2025-08-28T22:53	10	0	0.1	0	1	384	0.2	384	385	14.8	90.5
2025-08-28T22:54	10	0	0.1	0	0	384	0.2	384	385	14.8	90.7
2025-08-28T22:55	10	0	0.1	0	1	384	0.2	384	385	14.8	90.1
2025-08-28T22:56	10	0	0.1	0	0	384	0.3	384	385	14.8	90.3
2025-08-28T22:57	10	0	0.1	0	1	384	0.2	383	385	14.8	90.6
2025-08-28T22:58	10	0	0.1	0	1	384	0.2	384	385	14.7	90.9
2025-08-28T22:59	10	0	0.1	0	1	384	0.2	383	385	14.7	91.6
2025-08-28T23:00	10	0	0.1	0	0	384	0.2	384	385	14.7	91.6
2025-08-28T23:01	10	0	0.1	0	0	384	0.2	383	384	14.6	91.8
2025-08-28T23:02	10	0	0.1	0	1	384	0.2	384	385	14.6	91.6
2025-08-28T23:03	10	0	0.1	0	1	384	0.2	383	384	14.6	91.5
2025-08-28T23:04	10	0	0.1	0	0	384	0.2	383	384	14.6	91.2
2025-08-28T23:05	10	0	0.1	0	1	384	0.2	383	384	14.6	91.5
2025-08-28T23:06	10	0	0.1	0	0	384	0.2	383	384	14.6	90.5
2025-08-28T23:07	10	0	0.1	0	0	384	0.3	383	384	14.6	90.9
2025-08-28T23:08	10	0	0.2	0	1	384	0.3	383	384	14.6	91.2
2025-08-28T23:09	10	0	0.1	0	1	384	0.2	383	384	14.6	90.0
2025-08-28T23:10	10	0	0.1	0	1	384	0.3	383	384	14.7	89.3
2025-08-28T23:11	10	0	0.2	0	1	384	0.3	383	384	14.6	89.8
2025-08-28T23:12	10	0	0.2	0	1	383	0.3	383	384	14.7	88.8
2025-08-28T23:13	10	0	0.1	0	1	383	0.2	383	384	14.6	89.6
2025-08-28T23:14	10	0	0.2	0	1	383	0.2	383	384	14.6	89.7
2025-08-28T23:15	10	0	0.2	0	1	383	0.2	383	384	14.6	89.4
2025-08-28T23:16	10	0	0.1	0	0	383	0.2	382	383	14.6	89.4
2025-08-28T23:17	10	0	0.2	0	1	383	0.3	382	384	14.5	90.3
2025-08-28T23:18	10	0	0.2	0	1	383	0.2	383	384	14.5	90.8
2025-08-28T23:19	10	0	0.2	0	1	383	0.3	382	384	14.4	90.9
2025-08-28T23:20	10	0	0.1	0	0	383	0.3	382	383	14.4	91.3
2025-08-28T23:21	10	0	0.2	0	1	383	0.2	382	383	14.4	90.6
2025-08-28T23:22	10	0	0.2	0	1	383	0.3	382	383	14.4	90.7
2025-08-28T23:23	10	0	0.2	0	1	383	0.2	382	383	14.4	91.2
2025-08-28T23:24	10	0	0.2	0	0	383	0.2	382	383	14.4	90.9
2025-08-28T23:25	10	0	0.1	0	0	383	0.3	382	383	14.3	91.2
2025-08-28T23:26	10	0	0.2	0	1	382	0.2	382	383	14.3	91.9
2025-08-28T23:27	10	0	0.2	0	0	383	0.3	382	383	14.3	92.4
2025-08-28T23:28	10	0	0.2	0	1	382	0.2	382	383	14.2	92.5
2025-08-28T23:29	10	0	0.2	0	1	382	0.3	382	383	14.2	91.5
2025-08-28T23:30	10	0	0.2	0	1	382	0.3	382	383	14.2	91.3
2025-08-28T23:31	10	0	0.2	0	1	383	0.2	382	383	14.2	91.6
2025-08-28T23:32	10	0	0.1	0	0	382	0.2	382	383	14.2	91.9
2025-08-28T23:33	10	0	0.2	0	1	382	0.3	382	383	14.2	91.9
2025-08-28T23:34	10	0	0.1	0	1	382	0.3	381	383	14.2	91.4
2025-08-28T23:35	10	0	0.1	0	0	383	0.2	382	383	14.2	91.3
2025-08-28T23:36	10	0	0.2	0	0	382	0.2	382	383	14.2	91.1
2025-08-28T23:37	10	0	0.2	0	0	382	0.3	382	383	14.2	90.6
2025-08-28T23:38	10	0	0.1	0	0	382	0.2	382	383	14.2	90.0
2025-08-28T23:39	10	0	0.2	0	0	382	0.2	382	383	14.2	90.7
2025-08-28T23:40	10	0	0.1	0	0	382	0.3	381	383	14.1	92.6
2025-08-28T23:41	10	0	0.2	0	1	382	0.3	381	383	14.0	92.3
2025-08-28T23:42	10	0	0.2	0	1	382	0.3	381	383	14.1	92.8
2025-08-28T23:43	10	0	0.2	0	0	382	0.2	382	383	14.0	93.2
2025-08-28T23:44	10	0	0.1	0	0	382	0.2	382	382	14.0	93.3
2025-08-28T23:45	10	0	0.1	0	0	382	0.2	381	382	14.0	94.0
2025-08-28T23:46	10	0	0.1	0	0	382	0.2	381	382	13.9	93.8
2025-08-28T23:47	10	0	0.1	0	0	382	0.2	381	382	13.9	93.8
2025-08-28T23:48	10	0	0.1	0	0	382	0.3	381	382	13.9	93.3
2025-08-28T23:49	10	0	0.1	0	0	382	0.2	381	382	14.0	92.9
2025-08-28T23:50	10	0	0.1	0	0	382	0.3	381	382	13.9	93.5
2025-08-28T23:51	10	0	0.1	0	0	382	0.2	381	382	13.9	93.8
2025-08-28T23:52	10	0	0.2	0	1	382	0.2	381	382	13.9	94.7
2025-08-28T23:53	10	0	0.1	0	0	382	0.2	381	382	13.9	95.2
2025-08-28T23:54	10	0	0.2	0	1	382	0.2	381	382	13.8	94.7
2025-08-28T23:55	10	0	0.1	0	0	382	0.3	381	382	13.9	93.2
2025-08-28T23:56	10	0	0.1	0	0	382	0.2	381	382	14.0	92.6
2025-08-28T23:57	10	0	0.1	0	1	382	0.3	381	382	14.0	92.0
2025-08-28T23:58	10	0	0.1	0	0	382	0.2	381	382	14.0	91.3
2025-08-28T23:59	10	0	0.1	0	0	382	0.2	381	382	14.1	91.0
2025-08-29T00:00	10	0	0.2	0	1	382	0.2	381	382	14.0	91.0
2025-08-29T00:01	10	0	0.1	0	0	382	0.2	381	382	14.0	90.4
2025-08-29T00:02	10	0	0.2	0	1	382	0.3	381	382	14.0	90.8
2025-08-29T00:03	10	0	0.1	0	1	382	0.2	381	382	14.0	90.7
2025-08-29T00:04	10	0	0.2	0	0	382	0.2	381	382	14.1	90.8
2025-08-29T00:05	10	0	0.1	0	0	382	0.2	381	382	14.1	90.1
2025-08-29T00:06	10	0	0.1	0	0	382	0.2	381	382	14.1	90.5
2025-08-29T00:07	10	0	0.1	0	0	381	0.2	381	382	14.1	90.9
2025-08-29T00:08	10	0	0.1	0	0	381	0.2	381	382	14.1	91.3
2025-08-29T00:09	10	0	0.1	0	0	381	0.2	381	382	14.1	91.4
2025-08-29T00:10	10	0	0.1	0	0	381	0.2	381	382	14.1	91.5
2025-08-29T00:11	10	0	0.1	0	0	381	0.3	381	382	14.1	90.9
2025-08-29T00:12	10	0	0.1	0	0	381	0.2	381	382	14.1	90.3
2025-08-29T00:13	10	0	0.1	0	0	381	0.2	381	382	14.1	90.4
2025-08-29T00:14	10	0	0.1	0	0	381	0.2	381	382	14.2	90.0
2025-08-29T00:15	10	0	0.1	0	0	381	0.2	381	382	14.1	90.6
2025-08-29T00:16	10	0	0.1	0	0	381	0.2	381	382	14.1	90.5
2025-08-29T00:17	10	0	0.1	0	0	382	0.2	381	382	14.1	91.0
2025-08-29T00:18	10	0	0.1	0	0	381	0.2	381	382	14.1	91.5
2025-08-29T00:19	10	0	0.1	0	0	382	0.2	381	382	14.1	91.0
2025-08-29T00:20	10	0	0.1	0	0	381	0.2	381	382	14.1	90.8
2025-08-29T00:21	10	0	0.1	0	0	382	0.2	381	382	14.1	90.9
2025-08-29T00:22	10	0	0.1	0	0	382	0.2	381	382	14.1	91.4
2025-08-29T00:23	10	0	0.1	0	0	382	0.2	381	382	14.0	92.1
2025-08-29T00:24	10	0	0.1	0	0	382	0.2	381	382	14.0	92.2
2025-08-29T00:25	10	0	0.1	0	0	382	0.2	381	382	14.0	92.0
2025-08-29T00:26	10	0	0.1	0	0	382	0.2	381	382	14.0	92.2
2025-08-29T00:27	10	0	0.1	0	0	382	0.2	381	382	14.0	92.0
2025-08-29T00:28	10	0	0.1	0	0	382	0.2	381	382	14.0	92.3
2025-08-29T00:29	10	0	0.1	0	0	381	0.2	381	382	14.0	92.3
2025-08-29T00:30	10	0	0.1	0	0	381	0.2	381	382	14.0	91.9
2025-08-29T00:31	10	0	0.1	0	0	382	0.3	381	382	14.0	91.2
2025-08-29T00:32	10	0	0.1	0	0	381	0.2	381	382	14.1	90.8
2025-08-29T00:33	10	0	0.1	0	0	381	0.2	381	382	14.0	91.8
2025-08-29T00:34	10	0	0.1	0	0	381	0.2	381	382	13.9	92.1
2025-08-29T00:35	10	0	0.1	0	0	381	0.2	381	382	13.9	91.8
2025-08-29T00:36	10	0	0.1	0	0	381	0.3	381	382	13.9	91.7
2025-08-29T00:37	10	0	0.1	0	0	381	0.2	381	382	14.0	91.3
2025-08-29T00:38	10	0	0.1	0	0	381	0.2	380	381	13.9	91.9
2025-08-29T00:39	10	0	0.1	0	0	381	0.3	380	381	13.9	92.6
2025-08-29T00:40	10	0	0.1	0	0	381	0.3	380	382	13.9	93.0
2025-08-29T00:41	10	0	0.1	0	0	381	0.3	380	381	13.8	93.3
2025-08-29T00:42	10	0	0.1	0	0	381	0.2	380	382	13.8	93.8
2025-08-29T00:43	10	0	0.1	0	0	381	0.2	380	381	13.8	93.9
2025-08-29T00:44	10	0	0.1	0	0	381	0.2	381	381	13.8	93.5
2025-08-29T00:45	10	0	0.1	0	0	381	0.2	380	381	13.8	93.2
2025-08-29T00:46	10	0	0.1	0	0	380	0.3	380	381	13.7	92.3
2025-08-29T00:47	10	0	0.1	0	0	380	0.3	380	381	13.8	91.8
2025-08-29T00:48	10	0	0.1	0	0	380	0.2	380	381	13.7	91.9
2025-08-29T00:49	10	0	0.1	0	0	380	0.2	380	381	13.7	91.4
2025-08-29T00:50	10	0	0.1	0	0	380	0.2	379	380	13.7	91.2
2025-08-29T00:51	10	0	0.5	0	3	380	0.2	379	380	13.7	91.2
2025-08-29T00:52	10	0	0.1	0	0	380	0.2	379	380	13.7	90.7
2025-08-29T00:53	10	0	0.1	0	1	379	0.2	379	380	13.7	90.3
2025-08-29T00:54	10	0	0.1	0	0	379	0.2	379	380	13.6	91.4
2025-08-29T00:55	10	0	0.1	0	0	379	0.2	379	380	13.6	91.3
2025-08-29T00:56	10	0	0.0	0	0	379	0.2	378	379	13.6	91.7
2025-08-29T00:57	10	0	0.0	0	0	379	0.2	379	379	13.6	91.7
2025-08-29T00:58	10	0	0.1	0	0	379	0.2	378	379	13.6	90.8
2025-08-29T00:59	10	0	0.1	0	0	379	0.2	378	379	13.6	90.6
2025-08-29T01:00	10	0	0.1	0	0	379	0.3	378	379	13.6	91.0
2025-08-29T01:01	10	0	0.1	0	0	379	0.2	378	379	13.6	91.3
2025-08-29T01:02	10	0	0.1	0	0	379	0.2	378	379	13.5	91.5
2025-08-29T01:03	10	0	0.0	0	0	378	0.2	378	379	13.5	91.4
2025-08-29T01:04	10	0	0.0	0	0	379	0.2	378	379	13.5	91.5
2025-08-29T01:05	10	0	0.1	0	0	378	0.2	378	379	13.5	92.2
2025-08-29T01:06	10	0	0.1	0	0	378	0.2	378	379	13.4	92.5
2025-08-29T01:07	10	0	0.0	0	0	378	0.2	378	379	13.4	92.2
2025-08-29T01:08	10	0	0.1	0	0	378	0.2	377	378	13.4	92.3
2025-08-29T01:09	10	0	0.1	0	0	378	0.3	377	378	13.4	92.5
2025-08-29T01:10	10	0	0.1	0	0	377	0.2	377	378	13.4	91.3
2025-08-29T01:11	10	0	0.0	0	0	377	0.2	377	378	13.4	91.0
2025-08-29T01:12	10	0	0.1	0	0	377	0.2	377	378	13.4	90.9
2025-08-29T01:13	10	0	0.0	0	0	377	0.2	377	378	13.4	90.5
2025-08-29T01:14	10	0	0.1	0	0	377	0.2	376	377	13.4	91.0
2025-08-29T01:15	10	0	0.1	0	0	377	0.2	376	377	13.4	91.4
2025-08-29T01:16	10	0	0.0	0	0	377	0.2	376	377	13.4	91.8
2025-08-29T01:17	10	0	0.1	0	0	377	0.2	376	377	13.3	92.3
2025-08-29T01:18	10	0	0.0	0	0	377	0.2	376	377	13.3	92.3
2025-08-29T01:19	10	0	0.0	0	0	377	0.3	376	377	13.3	92.0
2025-08-29T01:20	10	0	0.0	0	0	376	0.2	376	377	13.3	91.8
2025-08-29T01:21	10	0	0.0	0	0	376	0.2	375	376	13.3	91.4
2025-08-29T01:22	10	0	0.0	0	0	376	0.2	375	376	13.3	91.7
2025-08-29T01:23	10	0	0.0	0	0	376	0.2	375	376	13.3	92.0
2025-08-29T01:24	10	0	0.0	0	0	376	0.2	375	376	13.3	91.5
2025-08-29T01:25	10	0	0.1	0	0	376	0.3	375	376	13.2	92.2
2025-08-29T01:26	10	0	0.1	0	0	375	0.3	375	376	13.2	91.9
2025-08-29T01:27	10	0	0.0	0	0	375	0.2	375	376	13.2	92.3
2025-08-29T01:28	10	0	0.0	0	0	375	0.2	374	376	13.2	91.7
2025-08-29T01:29	10	0	0.1	0	0	375	0.3	374	375	13.2	92.2
2025-08-29T01:30	10	0	0.1	0	0	375	0.3	374	376	13.2	91.8
2025-08-29T01:31	10	0	0.0	0	0	375	0.3	374	375	13.2	91.4
2025-08-29T01:32	10	0	0.1	0	0	374	0.3	374	375	13.2	90.9
2025-08-29T01:33	10	0	0.0	0	0	374	0.2	374	375	13.2	90.4
2025-08-29T01:34	10	0	0.0	0	0	374	0.3	373	375	13.2	90.6
2025-08-29T01:35	10	0	0.0	0	0	373	0.3	373	374	13.2	90.7
2025-08-29T01:36	10	0	0.1	0	0	373	0.3	373	374	13.2	90.6
2025-08-29T01:37	10	0	0.0	0	0	373	0.2	373	374	13.2	90.1
2025-08-29T01:38	10	0	0.0	0	0	373	0.2	373	373	13.2	90.1
2025-08-29T01:39	10	0	0.0	0	0	373	0.2	372	374	13.2	90.1
2025-08-29T01:40	10	0	0.1	0	0	373	0.2	372	373	13.1	90.8
2025-08-29T01:41	10	0	0.0	0	0	373	0.3	372	374	13.1	90.9
2025-08-29T01:42	10	0	0.0	0	0	372	0.2	372	373	13.1	91.3
2025-08-29T01:43	10	0	0.1	0	0	372	0.2	372	373	13.0	91.2
2025-08-29T01:44	10	0	0.1	0	0	372	0.2	372	373	13.0	91.2
2025-08-29T01:45	10	0	0.0	0	0	372	0.2	372	373	13.0	91.3
2025-08-29T01:46	10	0	0.1	0	0	372	0.3	371	372	13.0	91.3
2025-08-29T01:47	10	0	0.1	0	0	372	0.3	371	373	13.0	91.6
2025-08-29T01:48	10	0	0.0	0	0	372	0.2	371	372	12.9	91.9
2025-08-29T01:49	10	0	0.1	0	0	372	0.2	371	372	12.9	92.0
2025-08-29T01:50	10	0	0.1	0	0	372	0.2	371	372	12.9	92.2
2025-08-29T01:51	10	0	0.1	0	0	371	0.2	371	372	12.9	91.8
2025-08-29T01:52	10	0	0.1	0	0	372	0.2	371	372	12.9	91.9
2025-08-29T01:53	10	0	0.1	0	0	371	0.2	371	372	12.9	91.6
2025-08-29T01:54	10	0	0.1	0	0	371	0.3	371	372	12.9	91.8
2025-08-29T01:55	10	0	0.1	0	0	371	0.2	371	372	12.9	91.7
2025-08-29T01:56	10	0	0.1	0	0	371	0.3	371	372	12.9	91.7
2025-08-29T01:57	10	0	0.1	0	0	371	0.2	371	372	12.9	91.9
2025-08-29T01:58	10	0	0.1	0	0	371	0.2	371	372	12.8	92.2
2025-08-29T01:59	10	0	0.1	0	0	371	0.3	370	371	12.8	92.6
2025-08-29T02:00	10	0	0.1	0	0	370	0.3	370	371	12.7	92.9
2025-08-29T02:01	10	0	0.1	0	0	371	0.2	370	371	12.7	92.9
2025-08-29T02:02	10	0	0.1	0	0	370	0.2	370	371	12.7	93.0
2025-08-29T02:03	10	0	0.1	0	0	370	0.3	370	371	12.7	92.8
2025-08-29T02:04	10	0	0.1	0	0	370	0.2	370	371	12.7	92.9
2025-08-29T02:05	10	0	0.1	0	0	370	0.3	370	371	12.7	92.7
2025-08-29T02:06	10	0	0.1	0	0	370	0.2	370	371	12.7	92.9
2025-08-29T02:07	10	0	0.1	0	0	370	0.2	370	371	12.6	93.1
2025-08-29T02:08	10	0	0.1	0	0	370	0.3	369	371	12.6	92.9
2025-08-29T02:09	10	0	0.1	0	0	370	0.2	369	370	12.6	93.0
2025-08-29T02:10	10	0	0.1	0	0	370	0.2	370	371	12.6	92.8
2025-08-29T02:11	10	0	0.1	0	0	370	0.2	370	371	12.6	92.5
2025-08-29T02:12	10	0	0.1	0	0	370	0.2	369	370	12.6	92.7
2025-08-29T02:13	10	0	0.1	0	0	370	0.2	369	370	12.6	92.8
2025-08-29T02:14	10	0	0.1	0	0	370	0.3	370	371	12.6	92.6
2025-08-29T02:15	10	0	0.1	0	0	369	0.3	369	370	12.6	92.7
2025-08-29T02:16	10	0	0.1	0	0	369	0.2	369	370	12.5	92.9
2025-08-29T02:17	10	0	0.1	0	0	369	0.2	369	370	12.5	92.8
2025-08-29T02:18	10	0	0.1	0	0	370	0.3	369	370	12.5	92.5
2025-08-29T02:19	10	0	0.1	0	0	369	0.3	369	370	12.5	92.6
2025-08-29T02:20	10	0	0.1	0	0	370	0.3	369	370	12.5	92.5
2025-08-29T02:21	10	0	0.1	0	0	370	0.2	369	370	12.5	92.7
2025-08-29T02:22	10	0	0.1	0	0	369	0.3	369	370	12.5	92.7
2025-08-29T02:23	10	0	0.1	0	0	369	0.2	369	370	12.5	92.7
2025-08-29T02:24	10	0	0.1	0	0	370	0.2	369	370	12.5	92.7
2025-08-29T02:25	10	0	0.1	0	0	370	0.3	369	370	12.6	92.5
2025-08-29T02:26	10	0	0.1	0	0	370	0.2	369	370	12.6	92.6
2025-08-29T02:27	10	0	0.1	0	0	370	0.2	369	370	12.6	92.6
2025-08-29T02:28	10	0	0.1	0	0	370	0.2	369	370	12.5	92.7
2025-08-29T02:29	10	0	0.1	0	0	369	0.2	369	370	12.5	93.1
2025-08-29T02:30	10	0	0.1	0	0	369	0.2	369	370	12.4	93.1
2025-08-29T02:31	10	0	0.1	0	0	369	0.2	369	370	12.4	93.5
2025-08-29T02:32	10	0	0.1	0	0	369	0.2	368	369	12.4	93.7
2025-08-29T02:33	10	0	0.1	0	0	369	0.3	368	369	12.4	93.7
2025-08-29T02:34	10	0	0.1	0	0	369	0.2	369	369	12.4	93.3
2025-08-29T02:35	10	0	0.1	0	0	369	0.2	369	370	12.4	93.2
2025-08-29T02:36	10	0	0.1	0	0	369	0.3	368	370	12.4	93.1
2025-08-29T02:37	10	0	0.1	0	0	369	0.2	369	370	12.4	92.6
2025-08-29T02:38	10	0	0.1	0	0	369	0.2	368	369	12.4	92.5
2025-08-29T02:39	10	0	0.0	0	0	369	0.3	368	369	12.4	92.6
2025-08-29T02:40	10	0	0.0	0	0	369	0.2	368	369	12.4	92.6
2025-08-29T02:41	10	0	0.0	0	0	369	0.2	368	369	12.4	92.3
2025-08-29T02:42	10	0	0.0	0	0	369	0.2	368	369	12.4	92.5
2025-08-29T02:43	10	0	0.0	0	0	369	0.2	368	369	12.3	92.7
2025-08-29T02:44	10	0	0.0	0	0	369	0.2	368	369	12.4	92.3
2025-08-29T02:45	10	0	0.1	0	0	368	0.2	368	369	12.3	92.7
2025-08-29T02:46	10	0	0.1	0	0	368	0.2	368	368	12.3	93.0
2025-08-29T02:47	10	0	0.1	0	0	368	0.2	367	368	12.3	93.0
2025-08-29T02:48	10	0	0.1	0	0	368	0.3	368	369	12.3	92.7
2025-08-29T02:49	10	0	0.0	0	0	368	0.3	367	368	12.3	92.8
2025-08-29T02:50	10	0	0.1	0	0	368	0.2	367	369	12.3	92.8
2025-08-29T02:51	10	0	0.0	0	0	368	0.2	367	368	12.3	92.6
2025-08-29T02:52	10	0	0.1	0	0	367	0.2	367	368	12.3	92.9
2025-08-29T02:53	10	0	0.1	0	0	368	0.3	367	368	12.3	93.0
2025-08-29T02:54	10	0	0.1	0	0	367	0.2	367	368	12.3	92.8
2025-08-29T02:55	10	0	0.1	0	0	367	0.3	367	368	12.3	92.8
2025-08-29T02:56	10	0	0.1	0	0	367	0.2	367	368	12.2	92.8
2025-08-29T02:57	10	0	0.1	0	0	367	0.4	366	368	12.2	92.9
2025-08-29T02:58	10	0	0.1	0	0	367	0.2	366	367	12.2	92.5
2025-08-29T02:59	10	0	0.0	0	0	366	0.2	366	367	12.3	92.2
2025-08-29T03:00	10	0	0.1	0	0	366	0.3	366	367	12.2	92.2
2025-08-29T03:01	10	0	0.0	0	0	366	0.2	366	367	12.2	92.2
2025-08-29T03:02	10	0	0.1	0	0	366	0.2	365	366	12.2	91.9
2025-08-29T03:03	10	0	0.1	0	0	365	0.2	365	366	12.2	92.0
2025-08-29T03:04	10	0	0.1	0	0	365	0.2	365	366	12.3	91.8
2025-08-29T03:05	10	0	0.1	0	0	365	0.3	364	366	12.3	91.4
2025-08-29T03:06	10	0	0.1	0	0	364	0.2	364	365	12.3	91.2
2025-08-29T03:07	10	0	0.1	0	0	365	0.2	364	365	12.4	90.8
2025-08-29T03:08	10	0	0.4	0	3	365	0.2	364	366	12.4	90.4
2025-08-29T03:09	10	0	0.0	0	0	365	0.3	364	365	12.4	90.2
2025-08-29T03:10	10	0	0.1	0	0	365	0.2	365	366	12.4	89.9
2025-08-29T03:11	10	0	0.1	0	0	365	0.2	365	366	12.4	89.7
2025-08-29T03:12	10	0	0.1	0	0	366	0.3	365	366	12.4	89.6
2025-08-29T03:13	10	0	0.0	0	0	366	0.3	365	366	12.5	89.6
2025-08-29T03:14	10	0	0.0	0	0	366	0.2	365	366	12.4	89.5
2025-08-29T03:15	10	0	0.1	0	0	366	0.2	365	366	12.4	89.6
2025-08-29T03:16	10	0	0.1	0	0	366	0.3	365	366	12.3	90.3
2025-08-29T03:17	10	0	0.1	0	0	365	0.2	365	366	12.2	91.4
2025-08-29T03:18	10	0	0.1	0	0	365	0.3	365	366	12.2	91.3
2025-08-29T03:19	10	0	0.1	0	0	365	0.2	365	365	12.1	92.1
2025-08-29T03:20	10	0	0.1	0	0	365	0.2	365	365	12.1	92.1
2025-08-29T03:21	10	0	0.0	0	0	365	0.2	365	366	12.1	92.1
2025-08-29T03:22	10	0	0.1	0	0	365	0.2	365	365	12.1	92.1
2025-08-29T03:23	10	0	0.1	0	0	365	0.3	365	366	12.1	92.0
2025-08-29T03:24	10	0	0.1	0	0	366	0.2	365	366	12.2	91.8
2025-08-29T03:25	10	0	0.1	0	0	366	0.2	365	366	12.2	91.5
2025-08-29T03:26	10	0	0.1	0	0	366	0.2	366	367	12.2	91.8
2025-08-29T03:27	10	0	0.1	0	0	366	0.2	365	366	12.2	91.8
2025-08-29T03:28	10	0	0.0	0	0	366	0.2	365	366	12.1	92.3
2025-08-29T03:29	10	0	0.0	0	0	366	0.2	365	366	12.0	92.8
2025-08-29T03:30	10	0	0.1	0	0	365	0.2	365	366	12.0	93.0
2025-08-29T03:31	10	0	0.1	0	0	365	0.2	365	366	12.0	93.0
2025-08-29T03:32	10	0	0.1	0	0	366	0.2	365	366	12.0	92.6
2025-08-29T03:33	10	0	0.1	0	0	366	0.2	366	366	12.1	92.3
2025-08-29T03:34	10	0	0.1	0	0	366	0.2	365	366	12.1	92.1
2025-08-29T03:35	10	0	0.1	0	0	366	0.3	365	367	12.1	92.0
2025-08-29T03:36	10	0	0.1	0	0	366	0.2	365	366	12.1	92.0
2025-08-29T03:37	10	0	0.1	0	0	365	0.2	365	366	12.1	91.9
2025-08-29T03:38	10	0	0.1	0	0	366	0.2	365	366	12.1	92.0
2025-08-29T03:39	10	0	0.1	-1	0	366	0.2	365	366	12.1	91.7
2025-08-29T03:40	10	0	0.1	0	0	366	0.2	366	366	12.2	91.0
2025-08-29T03:41	10	0	0.1	-1	0	366	0.3	365	366	12.2	90.3
2025-08-29T03:42	10	0	0.1	0	0	366	0.3	365	366	12.3	90.2
2025-08-29T03:43	10	0	0.1	0	0	366	0.2	365	366	12.3	90.2
2025-08-29T03:44	10	0	0.1	0	0	366	0.2	365	366	12.2	90.8
2025-08-29T03:45	10	0	0.1	0	0	365	0.2	365	366	12.1	91.4
2025-08-29T03:46	10	0	0.1	-1	0	365	0.2	365	366	12.1	91.5
2025-08-29T03:47	10	0	0.1	-1	0	365	0.2	364	365	12.1	91.6
2025-08-29T03:48	10	0	0.1	0	0	365	0.2	364	365	12.0	92.2
2025-08-29T03:49	10	0	0.1	0	0	364	0.2	364	365	11.8	93.1
2025-08-29T03:50	10	0	0.1	0	0	364	0.3	364	365	11.8	93.3
2025-08-29T03:51	10	0	0.2	-1	0	365	0.3	364	365	11.8	93.4
2025-08-29T03:52	10	0	0.1	-1	0	365	0.2	364	365	11.8	93.5
2025-08-29T03:53	10	0	0.1	-1	0	364	0.2	364	365	11.7	93.7
2025-08-29T03:54	10	0	0.1	-1	0	364	0.2	364	365	11.7	93.7
2025-08-29T03:55	10	0	0.1	0	0	365	0.3	364	365	11.7	93.7
2025-08-29T03:56	10	0	0.1	-1	0	365	0.3	364	365	11.8	93.3
2025-08-29T03:57	10	0	0.1	-1	0	365	0.2	364	365	11.8	93.2
2025-08-29T03:58	10	0	0.2	-1	0	365	0.3	364	366	11.7	93.3
2025-08-29T03:59	10	0	0.1	0	0	364	0.2	364	365	11.6	93.8
2025-08-29T04:00	10	0	0.1	0	0	364	0.2	364	365	11.7	93.8
2025-08-29T04:01	10	0	0.1	-1	0	364	0.3	363	365	11.7	93.7
2025-08-29T04:02	10	0	0.2	-1	0	364	0.3	363	365	11.7	93.7
2025-08-29T04:03	10	0	0.1	-1	0	365	0.3	364	365	11.9	93.2
2025-08-29T04:04	10	0	0.1	-1	0	365	0.2	364	365	11.9	93.1
2025-08-29T04:05	10	0	0.1	-1	0	365	0.2	365	365	11.9	93.0
2025-08-29T04:06	10	0	0.1	0	0	365	0.2	365	366	11.8	93.0
2025-08-29T04:07	10	0	0.1	0	0	365	0.2	365	366	11.8	92.8
2025-08-29T04:08	10	0	0.1	-1	0	365	0.2	365	365	11.9	92.4
2025-08-29T04:09	10	0	0.1	-1	0	365	0.3	364	366	11.9	92.3
2025-08-29T04:10	10	0	0.1	0	0	364	0.2	364	365	11.8	92.5
2025-08-29T04:11	10	0	0.1	0	0	364	0.2	364	365	11.9	92.7
2025-08-29T04:12	10	0	0.1	-1	0	364	0.2	363	364	11.8	93.1
2025-08-29T04:13	10	0	0.1	0	0	363	0.3	363	364	11.8	93.3
2025-08-29T04:14	10	0	0.1	0	0	363	0.3	363	364	11.8	92.9
2025-08-29T04:15	10	0	0.1	-1	0	362	0.3	362	363	11.8	92.9
2025-08-29T04:16	10	0	0.1	0	0	362	0.3	361	363	11.8	93.0
2025-08-29T04:17	10	0	0.1	0	0	361	0.3	361	362	11.8	92.8
2025-08-29T04:18	10	0	0.1	0	0	361	0.3	360	362	11.9	92.4
2025-08-29T04:19	10	0	0.1	-1	0	360	0.3	360	361	11.9	92.3
2025-08-29T04:20	10	0	0.1	0	0	360	0.2	359	360	11.9	92.2
2025-08-29T04:21	10	0	0.1	0	0	359	0.3	358	360	11.9	92.3
2025-08-29T04:22	10	0	0.1	-1	0	359	0.2	359	359	11.9	92.3
2025-08-29T04:23	10	0	0.1	0	0	359	0.2	358	359	11.9	92.0
2025-08-29T04:24	10	0	0.1	-1	0	359	0.3	358	359	11.9	91.8
2025-08-29T04:25	10	0	0.1	-1	0	359	0.2	358	359	11.9	91.8
2025-08-29T04:26	10	0	0.1	0	0	359	0.2	358	359	11.9	91.7
2025-08-29T04:27	10	0	0.1	0	0	359	0.2	359	359	11.9	92.2
2025-08-29T04:28	10	0	0.1	0	0	359	0.2	359	360	11.8	92.4
2025-08-29T04:29	10	0	0.1	0	0	359	0.2	359	360	11.8	92.6
2025-08-29T04:30	10	0	0.1	0	0	360	0.3	359	360	11.8	92.3
2025-08-29T04:31	10	0	0.1	0	0	360	0.2	360	360	11.7	92.6
2025-08-29T04:32	10	0	0.1	0	0	360	0.2	359	360	11.7	92.9
2025-08-29T04:33	10	0	0.1	0	0	360	0.3	359	360	11.6	93.1
2025-08-29T04:34	10	0	0.1	0	0	359	0.3	359	360	11.6	93.5
2025-08-29T04:35	10	0	0.1	0	0	359	0.2	359	360	11.6	93.8
2025-08-29T04:36	10	0	0.1	0	0	359	0.3	358	360	11.5	94.3
2025-08-29T04:37	10	0	0.1	0	0	360	0.3	359	360	11.4	94.8
2025-08-29T04:38	10	0	0.1	0	0	359	0.3	359	360	11.4	95.2
2025-08-29T04:39	10	0	0.1	0	0	359	0.2	359	360	11.2	95.5
2025-08-29T04:40	10	0	0.1	0	0	359	0.3	359	360	11.2	95.7
2025-08-29T04:41	10	0	0.1	0	1	359	0.3	359	360	11.2	96.0
2025-08-29T04:42	10	0	0.1	0	0	359	0.2	359	360	11.1	96.2
2025-08-29T04:43	10	0	0.1	0	0	359	0.2	359	360	11.1	96.5
2025-08-29T04:44	10	0	0.1	0	0	359	0.3	358	360	11.1	96.4
2025-08-29T04:45	10	0	0.1	0	0	359	0.2	358	359	11.3	95.6
2025-08-29T04:46	10	0	0.1	0	0	359	0.2	358	359	11.3	95.6
2025-08-29T04:47	10	0	0.1	0	1	359	0.2	358	359	11.4	94.4
2025-08-29T04:48	10	0	0.1	0	0	358	0.2	358	359	11.5	93.2
2025-08-29T04:49	10	0	0.1	0	1	358	0.2	358	358	11.6	92.5
2025-08-29T04:50	10	0	0.1	0	1	358	0.2	358	358	11.6	92.3
2025-08-29T04:51	10	0	0.1	0	1	358	0.2	357	358	11.7	91.8
2025-08-29T04:52	10	1	0.1	0	1	358	0.2	358	358	11.7	91.8
2025-08-29T04:53	10	1	0.1	0	1	358	0.2	358	359	11.7	91.5
2025-08-29T04:54	10	1	0.1	1	1	358	0.4	357	359	11.8	90.6
2025-08-29T04:55	10	1	0.1	1	1	358	0.2	357	358	11.7	92.4
2025-08-29T04:56	10	1	0.1	1	1	357	0.2	357	358	11.5	92.9
2025-08-29T04:57	10	1	0.1	1	1	357	0.2	357	358	11.4	93.8
2025-08-29T04:58	10	1	0.1	1	2	357	0.2	357	358	11.3	94.1
2025-08-29T04:59	10	2	0.2	1	2	358	0.3	357	358	11.4	93.5
2025-08-29T05:00	10	2	0.2	2	2	358	0.3	357	358	11.4	93.4
2025-08-29T05:01	10	2	0.1	2	3	358	0.3	357	358	11.4	92.9
2025-08-29T05:02	10	3	0.1	3	3	358	0.2	357	359	11.5	92.2
2025-08-29T05:03	10	3	0.1	3	3	358	0.3	358	359	11.6	90.5
2025-08-29T05:04	10	3	0.1	3	4	359	0.2	358	359	11.8	89.0
2025-08-29T05:05	10	4	0.1	4	4	359	0.2	358	359	11.9	88.7
2025-08-29T05:06	10	4	0.2	4	5	359	0.3	358	359	11.9	87.8
2025-08-29T05:07	10	4	0.1	4	5	359	0.3	358	359	11.7	91.3
2025-08-29T05:08	10	5	0.1	4	5	359	0.2	359	359	11.5	92.6
2025-08-29T05:09	10	5	0.1	5	5	359	0.1	359	359	11.5	93.2
2025-08-29T05:10	10	5	0.2	5	6	359	0.2	359	359	11.4	93.4
2025-08-29T05:11	10	6	0.1	5	6	359	0.2	358	360	11.4	93.6
2025-08-29T05:12	10	6	0.1	6	6	359	0.2	359	360	11.4	94.0
2025-08-29T05:13	10	6	0.1	6	7	360	0.2	359	360	11.4	94.1
2025-08-29T05:14	10	6	0.3	5	6	359	0.2	359	360	11.4	94.3
2025-08-29T05:15	10	5	0.1	5	5	361	0.3	360	361	11.3	94.3
2025-08-29T05:16	10	6	0.7	5	7	361	0.2	360	361	11.3	93.5
2025-08-29T05:17	10	8	0.4	7	9	361	0.2	360	361	11.2	94.3
2025-08-29T05:18	10	9	0.2	9	9	361	0.2	361	362	11.0	94.6
2025-08-29T05:19	10	10	0.1	9	10	362	0.3	361	362	11.0	95.1
2025-08-29T05:20	10	10	0.1	10	10	362	0.3	361	362	11.0	95.6
2025-08-29T05:21	10	10	0.1	10	10	362	0.2	362	363	10.9	96.0
2025-08-29T05:22	10	10	0.2	9	11	362	0.2	362	363	10.9	96.1
2025-08-29T05:23	10	8	0.6	7	9	362	0.2	362	363	10.9	96.0
2025-08-29T05:24	10	11	1.0	9	12	362	0.3	362	363	10.9	95.9
2025-08-29T05:25	10	13	0.3	12	13	363	0.3	362	363	11.0	95.7
2025-08-29T05:26	10	14	0.2	13	14	363	0.2	363	363	11.1	95.2
2025-08-29T05:27	10	14	0.2	14	14	363	0.2	363	364	11.1	95.0
2025-08-29T05:28	10	15	0.2	14	15	364	0.2	363	364	11.2	94.2
2025-08-29T05:29	10	15	0.2	14	15	364	0.2	363	365	11.2	93.6
2025-08-29T05:30	10	13	0.6	12	14	364	0.2	364	365	11.3	93.2
2025-08-29T05:31	10	14	1.0	13	15	364	0.1	364	364	11.4	92.6
2025-08-29T05:32	10	16	0.3	15	16	364	0.2	364	365	11.3	93.2
2025-08-29T05:33	10	17	0.3	16	17	365	0.3	364	366	11.4	93.2
2025-08-29T05:34	10	18	0.2	17	18	365	0.2	365	366	11.4	92.9
2025-08-29T05:35	10	18	0.2	18	18	366	0.2	365	366	11.5	92.8
2025-08-29T05:36	10	19	0.2	18	19	367	0.2	366	367	11.5	93.1
2025-08-29T05:37	10	20	0.2	19	20	367	0.2	366	367	11.5	92.8
2025-08-29T05:38	10	20	0.4	19	21	367	0.2	366	367	11.5	93.0
2025-08-29T05:39	10	17	1.9	15	21	367	0.3	367	368	11.4	93.3
2025-08-29T05:40	10	19	0.6	18	20	367	0.2	367	368	11.4	93.5
2025-08-29T05:41	10	20	1.0	19	22	368	0.3	367	368	11.5	92.6
2025-08-29T05:42	10	23	0.4	22	23	368	0.3	367	368	11.5	92.6
2025-08-29T05:43	10	23	0.2	23	24	368	0.2	368	368	11.6	91.5
2025-08-29T05:44	10	24	0.2	24	25	368	0.2	368	369	11.5	92.4
2025-08-29T05:45	10	25	0.2	24	25	369	0.2	368	369	11.4	93.4
2025-08-29T05:46	10	25	0.2	25	25	369	0.3	368	369	11.4	93.3
2025-08-29T05:47	10	26	0.2	25	26	369	0.3	368	370	11.5	93.1
2025-08-29T05:48	10	26	0.2	26	27	370	0.4	369	371	11.6	92.2
2025-08-29T05:49	10	27	0.3	26	27	370	0.3	369	370	11.8	90.6
2025-08-29T05:50	10	27	0.3	27	28	371	0.2	370	371	11.9	90.2
2025-08-29T05:51	10	28	0.3	28	29	371	0.2	371	372	12.1	89.1
2025-08-29T05:52	10	29	0.3	29	30	372	0.2	371	372	12.2	88.6
2025-08-29T05:53	10	30	0.1	30	30	372	0.2	372	373	12.3	87.8
2025-08-29T05:54	10	30	0.2	30	30	373	0.2	372	373	12.4	87.2
2025-08-29T05:55	10	30	0.2	30	31	373	0.2	372	373	12.4	87.6
2025-08-29T05:56	10	31	0.2	30	31	373	0.3	373	374	12.5	87.2
2025-08-29T05:57	10	31	0.2	31	32	374	0.2	373	374	12.5	87.5
2025-08-29T05:58	10	32	0.2	32	32	374	0.2	374	375	12.5	86.9
2025-08-29T05:59	10	32	0.2	32	33	374	0.2	374	375	12.5	86.0
2025-08-29T06:00	10	33	0.2	32	33	375	0.3	374	375	12.6	86.1
2025-08-29T06:01	10	33	0.2	33	34	375	0.2	375	376	12.5	86.7
2025-08-29T06:02	10	34	0.2	33	34	375	0.3	375	376	12.5	87.0
2025-08-29T06:03	10	34	0.2	34	35	376	0.2	375	376	12.5	86.2
2025-08-29T06:04	10	34	0.2	34	35	376	0.3	375	376	12.6	85.1
2025-08-29T06:05	10	35	0.1	34	35	375	0.2	375	376	12.6	84.8
2025-08-29T06:06	10	35	0.1	34	35	376	0.3	375	376	12.6	85.2
2025-08-29T06:07	10	35	0.1	35	36	376	0.2	375	376	12.7	85.4
2025-08-29T06:08	10	35	0.1	35	36	376	0.3	375	376	12.6	85.8
2025-08-29T06:09	10	36	0.1	35	36	376	0.3	376	377	12.6	85.5
2025-08-29T06:10	10	36	0.1	36	36	376	0.2	376	377	12.6	85.4
2025-08-29T06:11	10	36	0.2	36	37	377	0.2	377	377	12.6	85.3
2025-08-29T06:12	10	37	0.4	37	39	377	0.2	376	378	12.7	84.9
2025-08-29T06:13	10	38	0.2	37	38	377	0.2	377	377	12.7	85.0
2025-08-29T06:14	10	38	0.2	38	38	378	0.2	377	378	12.7	86.3
2025-08-29T06:15	10	39	0.2	38	39	378	0.2	377	378	12.7	85.6
2025-08-29T06:16	10	39	0.2	39	40	378	0.2	378	379	12.8	84.4
2025-08-29T06:17	10	40	0.2	40	40	379	0.2	378	379	12.8	85.1
2025-08-29T06:18	10	40	0.2	40	41	379	0.2	379	380	12.9	85.6
2025-08-29T06:19	10	41	0.2	41	41	380	0.2	379	380	12.9	86.2
2025-08-29T06:20	10	42	0.2	41	42	380	0.3	379	380	12.9	85.3
2025-08-29T06:21	10	42	0.2	42	43	380	0.3	379	381	13.0	84.7
2025-08-29T06:22	10	43	0.2	42	43	380	0.2	380	380	13.0	84.3
2025-08-29T06:23	10	43	0.2	43	44	380	0.2	380	381	13.0	84.0
2025-08-29T06:24	10	44	0.2	44	44	381	0.3	380	382	13.1	84.1
2025-08-29T06:25	10	44	0.1	44	45	381	0.2	381	382	13.1	83.8
2025-08-29T06:26	10	45	0.2	45	45	382	0.3	381	382	13.2	84.2
2025-08-29T06:27	10	46	0.2	45	46	382	0.3	382	383	13.2	84.2
2025-08-29T06:28	10	46	0.2	46	46	383	0.3	382	384	13.3	83.4
2025-08-29T06:29	10	47	0.2	46	47	384	0.3	383	384	13.4	84.0
2025-08-29T06:30	10	47	0.2	47	48	384	0.5	383	385	13.4	84.7
2025-08-29T06:31	10	48	0.2	48	48	383	0.3	382	384	13.3	82.7
2025-08-29T06:32	10	49	0.2	48	49	383	0.3	383	384	13.3	82.5
2025-08-29T06:33	10	49	0.2	49	49	384	0.3	383	384	13.3	82.5
2025-08-29T06:34	10	49	0.2	49	50	384	0.3	383	385	13.4	82.3
2025-08-29T06:35	10	50	0.1	50	50	384	0.2	384	385	13.3	81.9
2025-08-29T06:36	10	51	0.2	50	51	385	0.4	384	386	13.4	81.9
2025-08-29T06:37	10	51	0.2	51	51	385	0.3	385	386	13.4	83.2
2025-08-29T06:38	10	52	0.1	51	52	386	0.3	385	387	13.5	82.8
2025-08-29T06:39	10	52	0.2	52	52	386	0.2	385	386	13.5	82.5
2025-08-29T06:40	10	53	0.2	52	53	386	0.2	386	387	13.5	82.0
2025-08-29T06:41	10	53	0.2	53	54	387	0.3	386	388	13.6	83.3
2025-08-29T06:42	10	54	0.1	54	54	387	0.2	387	387	13.7	83.8
2025-08-29T06:43	10	54	0.1	54	55	388	0.5	387	388	13.7	81.9
2025-08-29T06:44	10	55	0.2	55	55	388	0.3	387	388	13.7	82.0
2025-08-29T06:45	10	56	0.1	55	56	388	0.2	388	389	13.7	81.8
2025-08-29T06:46	10	56	0.2	56	56	388	0.2	388	389	13.7	82.5
2025-08-29T06:47	10	57	0.2	56	57	388	0.2	388	389	13.7	81.2
2025-08-29T06:48	10	57	0.1	57	58	389	0.3	389	390	13.8	80.1
2025-08-29T06:49	10	58	0.2	57	58	390	0.2	389	390	13.8	79.7
2025-08-29T06:50	10	57	0.4	56	58	390	0.2	389	390	13.8	80.3
2025-08-29T06:51	10	59	0.4	58	59	390	0.3	390	391	13.8	81.3
2025-08-29T06:52	10	59	0.2	59	60	391	0.2	390	391	13.8	80.7
2025-08-29T06:53	10	60	0.2	60	60	391	0.2	391	392	14.0	80.9
2025-08-29T06:54	10	60	0.2	60	61	391	0.2	391	392	14.1	80.3
2025-08-29T06:55	10	61	0.2	60	61	392	0.3	392	393	14.1	80.4
2025-08-29T06:56	10	61	0.2	61	62	393	0.2	392	393	14.0	81.0
2025-08-29T06:57	10	62	0.2	62	63	393	0.3	392	394	14.2	79.8
2025-08-29T06:58	10	63	0.3	62	63	393	0.3	393	395	14.4	80.9
2025-08-29T06:59	10	63	0.2	62	64	393	0.3	392	394	14.3	79.6
2025-08-29T07:00	10	64	0.2	63	64	393	0.2	392	394	14.1	80.5
2025-08-29T07:01	10	65	0.3	64	65	393	0.3	393	394	14.0	80.9
2025-08-29T07:02	10	65	0.2	65	66	393	0.2	393	394	14.1	81.3
2025-08-29T07:03	10	66	0.3	66	67	394	0.4	393	394	14.1	80.1
2025-08-29T07:04	10	67	0.3	67	68	395	0.4	394	396	14.0	81.1
2025-08-29T07:05	10	69	0.5	68	70	396	0.2	395	396	14.1	82.4
2025-08-29T07:06	10	71	0.7	70	73	396	0.5	395	397	14.1	82.8
2025-08-29T07:07	10	74	0.8	72	75	396	0.5	395	397	14.1	81.2
2025-08-29T07:08	10	76	0.6	75	77	397	0.3	396	397	14.2	80.9
2025-08-29T07:09	10	78	0.4	77	79	398	0.4	398	399	14.3	80.8
2025-08-29T07:10	10	79	0.4	78	80	399	0.3	399	400	14.4	81.9
2025-08-29T07:11	10	80	0.3	80	81	400	0.3	399	400	14.3	80.9
2025-08-29T07:12	10	81	0.1	80	81	400	0.2	400	401	14.4	81.0
2025-08-29T07:13	10	80	0.1	80	81	401	0.3	400	401	14.6	81.6
2025-08-29T07:14	10	81	0.3	80	81	401	0.2	401	402	14.9	80.8
2025-08-29T07:15	10	82	0.5	81	83	402	0.3	402	403	14.6	80.9
2025-08-29T07:16	10	84	0.8	83	86	403	0.3	402	403	14.6	80.2
2025-08-29T07:17	10	87	1.1	86	89	403	0.3	403	404	14.7	78.9
2025-08-29T07:18	10	91	0.9	89	93	405	0.4	404	405	14.8	78.0
2025-08-29T07:19	10	95	1.5	93	98	406	0.5	405	407	14.9	78.3
2025-08-29T07:20	10	99	1.5	96	101	407	0.3	407	408	15.0	78.4
2025-08-29T07:21	10	57	21.9	38	97	404	3.2	399	409	14.9	77.9
2025-08-29T07:22	10	39	1.6	38	44	399	1.0	398	401	15.1	76.4
2025-08-29T07:23	10	46	3.9	42	54	399	0.3	399	400	15.1	76.5
2025-08-29T07:24	10	69	22.9	43	107	401	2.1	398	405	15.3	76.5
2025-08-29T07:25	10	90	15.6	64	106	406	0.9	404	407	15.2	76.5
2025-08-29T07:26	10	67	20.5	47	101	406	1.6	403	408	15.2	76.5
2025-08-29T07:27	10	68	14.3	48	94	404	1.1	403	407	15.3	76.3
2025-08-29T07:28	10	63	18.1	43	89	406	1.3	403	408	15.3	76.1
2025-08-29T07:29	10	38	2.8	33	43	402	1.7	399	405	15.2	76.8
2025-08-29T07:30	10	31	1.2	29	33	398	0.9	397	400	15.0	77.1
2025-08-29T07:31	10	29	0.2	29	29	397	0.4	396	398	14.9	79.2
2025-08-29T07:32	10	29	0.3	29	30	396	0.6	395	397	14.8	79.8
2025-08-29T07:33	10	31	0.5	30	32	395	0.2	395	396	14.8	79.2
2025-08-29T07:34	10	43	15.5	32	79	396	1.2	395	400	14.7	79.5
2025-08-29T07:35	10	78	15.7	55	100	401	2.0	398	405	14.7	79.9
2025-08-29T07:36	10	50	10.0	40	80	402	1.9	399	405	14.8	79.9
2025-08-29T07:37	10	47	2.8	42	52	399	0.4	398	400	14.7	79.3
2025-08-29T07:38	10	40	0.6	39	42	398	0.4	397	399	14.8	80.2
2025-08-29T07:39	10	67	19.4	39	92	400	2.6	397	405	14.7	79.2
2025-08-29T07:40	10	96	13.3	72	110	406	1.4	403	408	14.8	79.5
2025-08-29T07:41	10	98	6.8	86	108	409	1.2	406	411	14.9	78.8
2025-08-29T07:42	10	55	12.5	45	85	406	2.5	402	410	14.9	79.3
2025-08-29T07:43	10	52	4.6	46	58	403	0.3	403	404	14.9	79.1
2025-08-29T07:44	10	55	4.7	48	62	403	0.5	402	404	14.9	79.2
2025-08-29T07:45	10	47	1.0	46	49	403	0.3	402	403	14.9	79.1
2025-08-29T07:46	10	57	6.1	46	64	402	0.7	401	404	14.9	78.9
2025-08-29T07:47	10	52	7.0	42	64	403	0.6	402	404	15.0	80.2
2025-08-29T07:48	10	48	4.5	42	56	401	0.7	400	403	15.0	79.5
2025-08-29T07:49	10	78	6.5	59	86	403	1.4	400	405	15.0	79.8
2025-08-29T07:50	10	94	3.4	86	98	406	1.0	404	408	14.9	79.1
2025-08-29T07:51	10	84	9.2	67	98	406	0.8	405	408	15.0	80.1
2025-08-29T07:52	10	85	12.4	50	99	407	0.6	406	408	14.9	80.1
2025-08-29T07:53	10	30	6.4	24	49	401	2.8	397	407	14.8	79.9
2025-08-29T07:54	10	29	3.9	25	37	397	0.6	396	399	14.8	80.8
2025-08-29T07:55	10	77	22.7	37	107	401	3.9	395	406	14.8	80.7
2025-08-29T07:56	10	43	7.4	38	67	402	1.8	399	406	14.9	80.9
2025-08-29T07:57	10	68	17.4	45	99	403	2.4	399	406	14.9	81.8
2025-08-29T07:58	10	47	2.5	41	51	402	0.9	401	404	15.0	81.1
2025-08-29T07:59	10	29	3.9	25	41	399	1.4	398	402	15.0	82.3
2025-08-29T08:00	10	26	0.8	25	28	397	0.9	395	398	15.1	81.9
2025-08-29T08:01	10	23	1.4	22	26	395	0.4	394	396	15.0	80.4
2025-08-29T08:02	10	38	13.3	22	64	396	1.5	394	398	15.0	81.4
2025-08-29T08:03	10	95	14.9	50	105	403	4.1	395	409	15.1	80.3
2025-08-29T08:04	10	104	0.1	104	105	409	1.6	407	412	15.2	79.6
2025-08-29T08:05	10	104	0.1	104	104	412	0.5	411	413	15.3	79.9
2025-08-29T08:06	10	104	0.1	104	105	413	0.6	412	414	15.4	78.3
2025-08-29T08:07	10	104	0.1	104	104	414	0.2	413	414	15.5	77.5
2025-08-29T08:08	10	104	0.3	104	105	414	0.3	413	415	15.5	78.2
2025-08-29T08:09	10	105	0.4	104	106	415	0.6	414	416	15.7	79.8
2025-08-29T08:10	10	106	2.4	99	108	414	0.3	414	415	15.6	77.0
2025-08-29T08:11	10	68	38.5	23	109	411	4.8	403	416	15.6	76.6
2025-08-29T08:12	10	71	35.7	24	109	406	3.2	402	412	15.6	76.4
2025-08-29T08:13	10	104	4.7	93	108	413	1.1	410	414	15.6	77.1
2025-08-29T08:14	10	102	1.9	98	104	414	0.3	413	415	15.8	78.7
2025-08-29T08:15	10	103	0.1	103	104	414	0.4	414	416	15.6	77.0
2025-08-29T08:16	10	103	0.1	103	104	414	0.8	413	416	15.6	77.4
2025-08-29T08:17	10	103	0.2	103	104	414	0.7	413	415	15.5	77.5
2025-08-29T08:18	10	104	0.3	104	105	416	0.3	415	417	15.6	78.4
2025-08-29T08:19	10	105	0.2	105	105	416	0.4	415	416	15.8	78.0
2025-08-29T08:20	10	105	0.1	105	106	417	0.4	416	418	15.8	78.2
2025-08-29T08:21	10	106	0.1	105	106	418	0.4	417	419	15.9	78.3
2025-08-29T08:22	10	106	0.1	106	106	417	1.1	416	420	16.1	77.4
2025-08-29T08:23	10	106	0.2	106	106	418	0.5	416	418	16.0	75.5
2025-08-29T08:24	10	107	0.2	106	107	419	0.6	418	420	16.0	76.3
2025-08-29T08:25	10	107	0.2	107	108	420	0.3	420	421	16.4	76.4
2025-08-29T08:26	10	108	0.1	107	108	420	0.8	419	422	16.4	75.7
2025-08-29T08:27	10	108	0.1	108	108	419	0.9	418	421	16.3	74.8
2025-08-29T08:28	10	108	0.1	108	109	419	0.5	418	420	16.2	73.6
2025-08-29T08:29	10	109	0.1	109	109	419	0.4	418	420	16.2	74.4
2025-08-29T08:30	10	109	0.1	109	110	420	0.5	419	421	16.2	74.4
2025-08-29T08:31	10	110	0.4	109	111	421	0.6	420	422	16.1	76.1
2025-08-29T08:32	10	112	0.7	111	113	421	0.4	420	422	16.0	75.4
2025-08-29T08:33	10	114	0.4	113	114	422	0.3	422	423	16.1	74.8
2025-08-29T08:34	10	114	0.3	113	114	423	0.7	422	424	15.9	75.8
2025-08-29T08:35	10	113	0.4	113	114	422	0.3	422	423	15.9	75.9
2025-08-29T08:36	10	115	0.4	114	116	423	0.3	422	424	16.2	75.4
2025-08-29T08:37	10	115	0.3	114	116	424	0.3	423	425	16.4	74.6
2025-08-29T08:38	10	114	0.3	114	115	425	0.4	425	427	16.6	73.1
2025-08-29T08:39	10	117	1.2	115	119	427	0.4	426	428	16.7	74.3
2025-08-29T08:40	10	120	0.4	119	121	427	0.3	426	428	16.7	74.3
2025-08-29T08:41	10	120	0.5	119	121	427	0.4	426	428	16.7	74.3
2025-08-29T08:42	10	118	0.5	117	119	427	0.4	426	428	16.7	74.3
2025-08-29T08:43	10	116	0.6	114	117	427	0.2	427	428	16.7	74.3
2025-08-29T08:44	10	115	2.6	110	118	426	0.6	425	428	16.7	74.3
2025-08-29T08:45	10	121	1.8	118	124	427	0.6	426	428	16.7	74.3
2025-08-29T08:46	10	126	1.3	124	128	430	1.0	428	431	16.7	74.6
2025-08-29T08:47	10	129	0.3	128	130	430	0.9	429	432	16.8	76.6
2025-08-29T08:48	10	128	1.1	126	129	433	0.6	431	434	16.8	76.5
2025-08-29T08:49	10	124	1.2	122	126	433	1.0	431	434	16.8	76.1
2025-08-29T08:50	10	121	0.6	120	122	430	1.3	427	432	16.8	76.0
2025-08-29T08:51	10	120	0.2	120	121	426	0.8	425	428	16.6	75.1
2025-08-29T08:52	10	119	0.3	119	120	427	0.6	425	428	16.6	75.5
2025-08-29T08:53	10	119	0.2	119	119	429	0.4	428	430	16.5	75.8
2025-08-29T08:54	10	119	0.3	119	120	431	0.7	429	432	16.6	76.2
2025-08-29T08:55	10	118	0.2	118	119	431	0.4	430	432	16.8	76.4
2025-08-29T08:56	10	119	0.5	118	120	430	0.8	429	432	16.9	75.8
2025-08-29T08:57	10	121	0.3	120	121	428	0.9	427	430	16.7	74.7
2025-08-29T08:58	10	121	0.1	120	121	428	0.3	427	428	16.5	75.0
2025-08-29T08:59	10	121	0.2	120	121	427	0.4	426	428	16.4	75.4
2025-08-29T09:00	10	120	1.9	112	121	427	0.3	427	428	16.4	75.7
2025-08-29T09:01	10	121	1.6	113	121	428	0.6	427	429	16.8	76.2
2025-08-29T09:02	10	117	6.5	91	123	429	0.9	426	430	17.0	75.5
2025-08-29T09:03	10	42	15.6	24	86	418	4.6	412	428	16.8	74.6
2025-08-29T09:04	10	34	9.1	24	50	412	0.8	410	414	16.7	74.9
2025-08-29T09:05	10	24	3.5	21	37	408	1.7	406	412	16.6	75.2
2025-08-29T09:06	10	42	16.4	24	91	408	1.3	406	410	16.7	75.3
2025-08-29T09:07	10	113	22.5	43	125	417	5.7	406	425	16.6	74.1
2025-08-29T09:08	10	122	0.3	121	123	424	1.2	422	426	16.6	73.5
2025-08-29T09:09	10	121	0.2	121	122	428	1.3	426	430	16.7	73.7
2025-08-29T09:10	10	121	0.2	121	122	428	0.4	428	429	16.9	73.4
2025-08-29T09:11	10	121	0.2	121	122	429	0.4	428	429	16.8	73.1
2025-08-29T09:12	10	122	0.3	121	122	429	1.1	427	431	16.7	72.4
2025-08-29T09:13	10	122	0.2	122	123	432	0.9	430	433	16.9	72.0
2025-08-29T09:14	10	122	0.2	122	123	431	1.1	429	433	17.0	71.5
2025-08-29T09:15	10	123	0.2	122	123	431	0.8	430	432	16.9	71.9
2025-08-29T09:16	10	123	0.2	123	124	432	0.4	431	433	16.9	71.5
2025-08-29T09:17	10	124	0.2	123	125	434	0.4	433	435	17.1	72.5
2025-08-29T09:18	10	124	0.2	124	125	434	0.9	432	435	17.1	72.0
2025-08-29T09:19	10	125	0.3	125	126	433	0.7	432	435	17.3	72.9
2025-08-29T09:20	10	126	0.3	125	127	434	0.3	434	435	17.2	71.4
2025-08-29T09:21	10	127	0.4	126	128	435	0.7	434	436	17.1	71.4
2025-08-29T09:22	10	128	0.4	127	129	436	0.7	434	437	17.2	71.9
2025-08-29T09:23	10	129	0.5	129	130	436	0.5	435	437	17.1	71.3
2025-08-29T09:24	10	131	0.5	130	132	436	0.5	436	437	17.1	71.3
2025-08-29T09:25	10	134	1.1	132	135	439	1.1	437	441	17.4	72.4
2025-08-29T09:26	10	135	0.2	135	135	440	0.8	438	441	17.6	72.2
2025-08-29T09:27	10	136	1.8	132	139	439	0.8	437	440	17.6	72.5
2025-08-29T09:28	10	120	28.1	40	141	436	2.4	428	439	17.3	71.9
2025-08-29T09:29	10	91	40.7	37	143	428	4.3	422	434	17.3	68.9
2025-08-29T09:30	10	36	1.9	34	45	422	4.4	417	432	17.3	69.9
2025-08-29T09:31	10	83	51.9	38	160	418	3.8	414	427	17.3	69.4
2025-08-29T09:32	10	160	0.5	159	161	435	5.1	424	442	17.2	67.7
2025-08-29T09:33	10	156	3.4	146	160	443	0.6	441	444	17.3	69.0
2025-08-29T09:34	10	152	2.2	146	155	444	0.5	443	445	17.3	69.1
2025-08-29T09:35	10	153	1.8	148	156	446	1.7	443	449	17.4	68.9
2025-08-29T09:36	10	159	1.5	156	161	447	1.1	445	448	17.6	69.1
2025-08-29T09:37	10	163	0.9	161	165	446	0.7	445	447	17.4	68.7
2025-08-29T09:38	10	132	48.1	55	170	444	5.7	430	449	17.3	68.8
2025-08-29T09:39	10	112	48.8	56	169	433	5.6	427	444	17.4	69.4
2025-08-29T09:40	10	61	30.0	43	162	433	6.9	424	446	17.6	69.6
2025-08-29T09:41	10	42	0.6	41	43	422	2.3	418	426	17.5	68.0
2025-08-29T09:42	10	44	2.1	42	49	417	0.5	417	419	17.2	68.1
2025-08-29T09:43	10	93	48.8	49	169	422	6.0	417	434	17.3	69.4
2025-08-29T09:44	10	159	26.0	70	174	436	3.1	431	442	17.3	68.8
2025-08-29T09:45	10	107	43.4	66	172	434	4.4	429	443	17.5	69.7
2025-08-29T09:46	10	82	28.2	58	150	435	5.3	428	442	17.5	69.4
2025-08-29T09:47	10	59	4.0	56	72	427	2.0	424	430	17.4	68.4
2025-08-29T09:48	10	105	43.7	58	177	430	6.3	424	442	17.4	69.1
2025-08-29T09:49	10	84	11.1	67	112	433	3.0	430	440	17.7	69.4
2025-08-29T09:50	10	58	2.8	56	66	427	1.7	425	431	17.7	67.3
2025-08-29T09:51	10	63	12.7	55	98	425	0.8	424	427	17.8	69.5
2025-08-29T09:52	10	160	24.1	92	178	439	7.9	424	449	17.8	68.7
2025-08-29T09:53	10	96	39.9	61	174	439	5.7	432	448	18.0	69.8
2025-08-29T09:54	10	173	2.1	170	179	448	3.5	439	453	18.2	68.2
2025-08-29T09:55	10	168	0.4	168	169	452	0.9	451	454	18.4	68.3
2025-08-29T09:56	10	161	19.8	98	171	454	0.8	450	455	18.5	66.5
2025-08-29T09:57	10	128	44.1	55	171	449	3.3	443	453	18.5	62.7
2025-08-29T09:58	10	108	44.5	55	174	442	3.4	438	449	18.5	62.0
2025-08-29T09:59	10	160	25.3	75	176	451	2.6	443	454	18.3	62.3
2025-08-29T10:00	10	126	50.8	62	178	440	4.6	432	446	18.3	63.8
2025-08-29T10:01	10	138	33.9	66	176	446	1.5	442	449	18.2	62.3
2025-08-29T10:02	10	49	13.3	39	86	434	5.3	427	444	18.2	63.8
2025-08-29T10:03	10	37	1.2	35	39	424	2.0	422	429	18.3	64.2
2025-08-29T10:04	10	33	0.9	32	35	420	2.1	416	423	18.3	63.6
2025-08-29T10:05	10	31	0.5	31	33	414	1.5	412	417	18.0	62.0
2025-08-29T10:06	10	33	1.4	31	36	413	0.3	412	414	17.9	62.5
2025-08-29T10:07	10	47	8.6	37	63	415	1.6	413	418	17.9	63.2
2025-08-29T10:08	10	69	15.1	41	100	420	2.0	417	423	17.9	61.5
2025-08-29T10:09	10	33	2.2	29	39	417	1.8	415	421	17.9	62.9
2025-08-29T10:10	10	47	17.1	29	73	416	2.3	413	421	18.0	63.0
2025-08-29T10:11	10	31	5.4	28	58	416	1.9	413	420	18.1	63.8
2025-08-29T10:12	10	51	12.5	34	78	416	1.6	413	419	18.1	63.7
2025-08-29T10:13	10	114	29.6	64	154	425	5.6	414	432	18.2	64.8
2025-08-29T10:14	10	131	24.6	54	151	434	2.3	430	438	18.1	62.7
2025-08-29T10:15	10	133	32.0	50	152	437	5.3	428	444	18.1	64.1
2025-08-29T10:16	10	146	0.9	145	148	443	1.0	441	444	18.1	62.8
2025-08-29T10:17	10	145	0.2	144	145	446	1.0	444	447	18.3	64.6
2025-08-29T10:18	10	144	0.1	144	144	445	1.4	442	447	18.5	62.6
2025-08-29T10:19	10	144	0.1	144	144	442	0.4	440	443	18.5	61.7
2025-08-29T10:20	10	145	0.3	144	145	443	1.6	441	445	18.7	61.7
2025-08-29T10:21	10	146	0.4	145	147	443	1.5	441	445	18.5	61.2
2025-08-29T10:22	10	147	0.2	147	147	446	0.5	445	448	18.3	61.5
2025-08-29T10:23	10	73	58.0	22	148	440	8.9	427	451	18.5	62.7
2025-08-29T10:24	10	26	2.5	23	31	425	2.6	420	430	18.8	64.7
2025-08-29T10:25	10	37	4.9	31	47	419	1.0	417	421	18.4	61.2
2025-08-29T10:26	10	31	1.1	29	34	417	0.8	415	419	18.2	62.3
2025-08-29T10:27	10	30	1.7	29	35	414	0.7	413	416	18.2	62.2
2025-08-29T10:28	10	108	43.3	35	156	424	9.0	412	439	18.1	61.8
2025-08-29T10:29	10	155	1.1	149	157	442	3.2	435	446	18.2	62.3
2025-08-29T10:30	10	65	34.0	33	140	433	6.6	425	448	18.3	61.3
2025-08-29T10:31	10	45	17.0	36	114	425	3.9	420	433	18.3	60.5
2025-08-29T10:32	10	36	4.4	33	49	419	2.2	415	421	18.4	61.5
2025-08-29T10:33	10	31	0.6	30	33	416	0.3	415	416	18.4	61.2
2025-08-29T10:34	10	30	0.8	29	32	414	0.9	412	416	18.4	62.2
2025-08-29T10:35	10	106	55.8	32	156	420	8.7	411	434	18.4	62.7
2025-08-29T10:36	10	154	0.4	153	155	437	2.7	430	440	18.5	62.0
2025-08-29T10:37	10	139	21.4	94	159	438	1.6	435	441	18.3	59.9
2025-08-29T10:38	10	126	32.7	68	160	440	2.8	435	444	18.4	61.1
2025-08-29T10:39	10	80	36.0	47	159	432	3.5	427	440	18.7	61.4
2025-08-29T10:40	10	61	34.7	40	156	430	7.3	422	443	18.6	60.4
2025-08-29T10:41	10	146	14.8	92	157	438	7.8	423	448	18.6	61.6
2025-08-29T10:42	10	146	1.3	144	149	445	1.3	442	447	18.9	61.0
2025-08-29T10:43	10	143	0.8	142	144	441	0.9	440	443	18.8	57.7
2025-08-29T10:44	10	142	0.3	141	142	442	0.8	440	444	19.0	58.6
2025-08-29T10:45	10	141	0.2	140	141	444	0.8	443	445	19.0	58.2
2025-08-29T10:46	10	141	0.2	140	141	442	1.5	439	444	18.9	56.7
2025-08-29T10:47	10	140	0.2	140	141	439	0.4	438	440	18.6	56.3
2025-08-29T10:48	10	140	0.2	140	141	443	1.7	440	446	18.7	58.4
2025-08-29T10:49	10	140	0.2	140	140	448	2.3	445	452	19.0	59.0
2025-08-29T10:50	10	140	0.2	140	141	449	2.8	445	453	19.3	58.9
2025-08-29T10:51	10	141	0.2	141	142	441	1.9	439	446	19.1	57.5
2025-08-29T10:52	10	141	0.2	141	142	440	0.6	439	441	18.7	55.8
2025-08-29T10:53	10	141	0.2	141	141	440	1.5	438	443	18.7	56.7
2025-08-29T10:54	10	141	0.2	141	142	442	0.9	441	444	19.0	57.6
2025-08-29T10:55	10	141	0.1	141	141	445	1.4	443	447	19.0	57.5
2025-08-29T10:56	10	141	0.1	140	141	444	1.5	443	447	19.3	58.3
2025-08-29T10:57	10	141	0.2	140	141	445	0.5	444	446	19.2	58.2
2025-08-29T10:58	10	141	0.2	141	141	443	0.9	441	445	19.1	57.5
2025-08-29T10:59	10	141	0.2	141	142	443	1.6	441	446	19.0	58.5
2025-08-29T11:00	10	141	0.2	140	141	445	1.2	442	447	19.2	57.7
2025-08-29T11:01	10	141	0.2	141	142	440	1.6	438	443	18.8	56.9
2025-08-29T11:02	10	140	0.2	140	141	444	2.4	440	448	18.8	57.9
2025-08-29T11:03	10	141	0.1	140	141	446	1.4	444	448	19.3	59.8
2025-08-29T11:04	10	140	0.2	140	141	447	0.6	446	448	19.2	59.2
2025-08-29T11:05	10	141	0.1	141	141	446	1.9	444	449	19.1	57.8
2025-08-29T11:06	10	141	0.3	140	142	447	1.7	444	450	18.9	56.1
2025-08-29T11:07	10	142	0.2	141	142	449	0.8	448	451	19.1	57.0
2025-08-29T11:08	10	142	0.2	141	142	450	1.1	448	452	19.3	58.0
2025-08-29T11:09	10	142	0.2	141	142	449	0.9	447	450	19.4	57.8
2025-08-29T11:10	10	141	0.2	141	142	450	1.2	448	452	19.6	58.1
2025-08-29T11:11	10	141	0.1	141	142	448	1.3	447	452	19.5	57.0
2025-08-29T11:12	10	141	0.2	141	141	446	0.8	444	447	19.4	57.8
2025-08-29T11:13	10	142	0.4	141	143	447	1.1	445	448	19.4	57.2
2025-08-29T11:14	10	142	0.2	142	143	447	1.2	445	450	19.1	56.9
2025-08-29T11:15	10	142	0.2	141	142	449	0.7	448	450	19.2	57.2
2025-08-29T11:16	10	141	0.1	141	142	446	1.4	444	448	19.2	56.8
2025-08-29T11:17	10	141	0.3	141	142	445	1.5	443	448	19.2	57.8
2025-08-29T11:18	10	140	0.3	140	141	447	1.8	444	450	19.6	59.8
2025-08-29T11:19	10	141	0.2	141	142	449	0.6	448	450	19.6	58.4
2025-08-29T11:20	10	141	0.1	141	142	448	0.8	447	449	19.3	57.4
2025-08-29T11:21	10	142	0.3	141	142	447	0.8	445	448	19.1	57.2
2025-08-29T11:22	10	142	0.3	141	142	445	1.6	443	448	19.3	58.2
2025-08-29T11:23	10	142	0.2	141	142	444	1.1	443	448	19.5	58.2
2025-08-29T11:24	10	142	0.1	141	142	448	1.5	445	450	19.4	59.0
2025-08-29T11:25	10	142	0.2	142	142	448	0.6	447	450	19.5	58.5
2025-08-29T11:26	10	142	0.1	142	143	444	1.2	442	447	19.1	57.2
2025-08-29T11:27	10	142	0.2	142	142	449	1.0	446	450	19.3	59.2
2025-08-29T11:28	10	142	0.1	142	142	446	0.8	444	447	19.2	57.9
2025-08-29T11:29	10	142	0.1	142	143	445	1.4	443	447	19.2	58.2
2025-08-29T11:30	10	142	0.2	142	143	448	0.6	447	450	19.4	58.6
2025-08-29T11:31	10	142	0.2	142	142	447	0.6	446	449	19.4	58.3
2025-08-29T11:32	10	143	0.3	142	143	446	1.6	444	449	19.2	57.8
2025-08-29T11:33	10	144	1.2	140	146	450	1.8	447	452	19.6	59.0
2025-08-29T11:34	10	96	17.9	79	139	442	4.7	436	451	19.4	56.1
2025-08-29T11:35	10	133	15.9	101	147	443	4.0	438	448	19.4	55.4
2025-08-29T11:36	10	146	2.0	141	153	449	1.2	447	451	19.7	57.7
2025-08-29T11:37	10	129	18.0	102	153	443	2.3	440	450	19.4	56.1
2025-08-29T11:38	10	144	1.4	142	147	445	0.8	443	445	19.2	56.2
2025-08-29T11:39	10	142	0.2	142	142	445	0.8	444	447	19.3	57.2
2025-08-29T11:40	10	142	0.1	142	142	447	1.4	444	449	19.3	57.4
2025-08-29T11:41	10	142	0.2	141	142	449	0.6	448	450	19.5	57.4
2025-08-29T11:42	10	142	0.9	141	147	451	1.0	448	453	19.5	56.8
2025-08-29T11:43	10	142	0.1	142	143	447	1.0	446	450	19.4	55.7
2025-08-29T11:44	10	143	0.2	142	143	449	1.3	447	451	19.3	56.0
2025-08-29T11:45	10	143	0.1	142	143	451	0.6	449	452	19.5	57.5
2025-08-29T11:46	10	142	0.2	142	143	453	1.4	451	455	19.7	57.0
2025-08-29T11:47	10	142	0.1	142	142	452	0.8	451	455	19.8	54.7
2025-08-29T11:48	10	142	0.3	142	143	452	1.0	450	453	19.8	54.6
2025-08-29T11:49	10	143	0.2	142	143	453	0.6	452	454	19.9	55.8
2025-08-29T11:50	10	143	0.1	143	143	456	0.8	454	458	19.9	56.3
2025-08-29T11:51	10	143	0.1	143	144	454	1.7	452	457	20.1	56.6
2025-08-29T11:52	10	144	0.1	143	144	456	1.3	454	459	20.0	57.4
2025-08-29T11:53	10	144	0.5	144	145	456	1.5	453	459	20.2	57.2
2025-08-29T11:54	10	146	0.3	145	147	455	0.6	454	456	20.1	57.5
2025-08-29T11:55	10	147	0.4	146	148	457	0.5	456	458	20.3	57.7
2025-08-29T11:56	10	150	0.9	148	151	458	0.7	456	459	20.2	56.8
2025-08-29T11:57	10	155	2.6	149	160	457	1.4	454	459	20.1	57.5
2025-08-29T11:58	10	146	16.8	96	157	451	1.7	449	457	19.8	56.3
2025-08-29T11:59	10	152	0.2	152	153	451	1.0	450	454	19.5	55.0
2025-08-29T12:00	10	151	0.5	150	152	454	1.4	452	456	19.7	56.1
2025-08-29T12:01	10	150	0.3	150	151	451	0.5	450	452	19.6	54.6
2025-08-29T12:02	10	153	1.2	151	155	452	1.1	450	454	19.6	55.4
2025-08-29T12:03	10	157	1.0	155	159	453	1.3	451	455	19.5	54.7
2025-08-29T12:04	10	137	17.3	108	160	451	1.8	448	454	19.7	54.2
2025-08-29T12:05	10	127	5.6	118	140	448	2.4	445	451	19.7	54.9
2025-08-29T12:06	10	130	10.3	102	146	448	1.9	445	451	19.9	56.4
2025-08-29T12:07	10	122	17.4	92	139	447	1.1	445	449	19.9	55.2
2025-08-29T12:08	10	122	5.1	115	131	449	0.6	448	450	20.0	55.7
2025-08-29T12:09	10	118	10.8	62	129	447	1.5	444	449	20.2	53.0
2025-08-29T12:10	10	66	31.6	37	132	436	3.2	432	445	20.0	53.7
2025-08-29T12:11	10	40	4.0	37	53	428	3.2	425	436	19.8	54.9
2025-08-29T12:12	10	161	32.6	52	175	443	8.7	424	453	19.7	55.4
2025-08-29T12:13	10	150	13.6	131	172	451	0.9	450	453	19.9	55.6
2025-08-29T12:14	10	126	10.6	112	147	449	1.0	448	451	20.1	52.2
2025-08-29T12:15	10	125	7.4	109	137	446	1.4	444	449	20.2	50.1
2025-08-29T12:16	10	120	9.0	92	131	443	1.0	441	445	20.1	50.2
2025-08-29T12:17	10	69	7.0	61	90	435	4.1	429	442	20.2	50.7
2025-08-29T12:18	10	65	4.7	54	72	429	1.3	427	431	20.0	50.3
2025-08-29T12:19	10	52	1.6	50	56	426	1.2	424	428	19.9	51.6
2025-08-29T12:20	10	59	10.9	52	93	426	0.7	424	427	19.9	51.3
2025-08-29T12:21	10	76	17.7	50	101	427	1.5	425	429	19.7	49.7
2025-08-29T12:22	10	81	7.8	65	94	428	1.5	426	431	19.7	50.0
2025-08-29T12:23	10	103	8.6	88	119	432	1.3	430	436	19.7	50.2
2025-08-29T12:24	10	147	11.0	121	159	438	2.4	434	443	19.7	50.3
2025-08-29T12:25	10	135	20.7	76	158	445	2.5	439	448	20.0	50.8
2025-08-29T12:26	10	54	9.2	49	85	431	5.1	425	441	20.0	50.1
2025-08-29T12:27	10	137	37.6	61	178	437	7.1	424	448	20.0	50.2
2025-08-29T12:28	10	175	1.0	173	177	448	2.4	444	452	19.9	50.1
2025-08-29T12:29	10	173	2.2	167	174	451	2.6	447	456	20.0	50.2
2025-08-29T12:30	10	171	0.4	170	172	447	0.6	446	449	20.0	48.0
2025-08-29T12:31	10	171	0.5	169	171	449	0.8	447	451	20.1	49.1
2025-08-29T12:32	10	170	1.9	166	173	452	1.0	450	453	20.2	50.1
2025-08-29T12:33	10	158	20.6	112	175	452	2.3	449	455	20.2	50.4
2025-08-29T12:34	10	93	8.1	81	109	441	4.4	436	451	20.2	50.4
2025-08-29T12:35	10	96	7.8	84	107	438	0.4	437	439	20.2	50.2
2025-08-29T12:36	10	81	5.2	71	91	435	1.4	433	438	20.0	49.7
2025-08-29T12:37	10	102	7.5	85	114	437	2.5	432	440	20.1	50.6
2025-08-29T12:38	10	93	5.0	81	100	437	0.7	436	438	20.1	51.1
2025-08-29T12:39	10	75	1.9	73	80	433	1.2	432	436	20.0	50.6
2025-08-29T12:40	10	74	2.4	70	79	433	1.0	430	434	20.0	52.0
2025-08-29T12:41	10	67	1.9	64	71	428	1.2	426	431	20.0	51.1
2025-08-29T12:42	10	80	5.6	71	86	429	0.5	428	430	20.0	51.8
2025-08-29T12:43	10	89	6.8	80	103	430	1.6	428	433	19.9	50.1
2025-08-29T12:44	10	118	9.8	103	133	435	2.2	432	439	19.9	51.1
2025-08-29T12:45	10	117	12.2	98	132	439	1.5	436	441	20.1	52.2
2025-08-29T12:46	10	96	6.9	88	110	436	0.5	435	437	20.0	52.3
2025-08-29T12:47	10	82	5.0	74	89	434	0.8	432	436	20.0	52.3
2025-08-29T12:48	10	78	5.1	72	87	431	0.8	430	433	20.1	51.8
2025-08-29T12:49	10	97	9.2	86	111	434	1.8	431	438	20.0	51.3
2025-08-29T12:50	10	98	7.2	90	110	439	0.5	437	439	20.3	53.2
2025-08-29T12:51	10	87	2.5	81	92	437	1.1	435	438	20.3	52.3
2025-08-29T12:52	10	80	1.2	78	82	433	0.8	432	436	20.2	52.1
2025-08-29T12:53	10	83	1.8	81	86	433	0.9	431	434	20.2	51.8
2025-08-29T12:54	10	98	5.8	86	109	435	1.0	433	436	20.2	52.2
2025-08-29T12:55	10	117	3.8	109	121	438	0.9	436	440	20.3	52.2
2025-08-29T12:56	10	111	5.6	99	117	439	1.3	437	441	20.4	51.8
2025-08-29T12:57	10	89	3.7	85	99	438	1.7	434	440	20.5	52.0
2025-08-29T12:58	10	90	2.3	86	92	436	1.0	434	437	20.4	52.3
2025-08-29T12:59	10	98	4.3	91	104	436	0.5	435	436	20.4	52.2
2025-08-29T13:00	10	120	9.1	104	138	438	2.2	434	442	20.4	50.3
2025-08-29T13:01	10	153	8.5	138	164	443	2.1	439	448	20.3	47.8
2025-08-29T13:02	10	166	1.7	163	168	449	1.2	447	452	20.4	49.7
2025-08-29T13:03	10	171	1.7	167	173	448	1.5	446	450	20.5	48.4
2025-08-29T13:04	10	170	1.5	168	172	452	1.0	450	454	20.6	48.2
2025-08-29T13:05	10	170	0.7	168	171	452	1.7	448	454	20.6	47.0
2025-08-29T13:06	10	164	5.9	154	170	449	0.8	447	451	20.4	46.0
2025-08-29T13:07	10	166	0.8	162	167	451	1.0	449	454	20.4	46.7
2025-08-29T13:08	10	165	0.3	165	166	456	1.2	454	458	20.6	48.1
2025-08-29T13:09	10	164	0.4	163	165	457	1.0	455	458	20.7	47.3
2025-08-29T13:10	10	161	1.0	160	163	454	2.3	449	458	20.6	46.9
2025-08-29T13:11	10	159	0.9	157	160	450	0.5	449	451	20.4	46.6
2025-08-29T13:12	10	154	2.5	150	157	453	1.3	450	455	20.6	47.2
2025-08-29T13:13	10	154	1.5	150	156	456	1.0	454	458	20.9	47.8
2025-08-29T13:14	10	155	1.1	154	158	458	2.3	454	461	21.2	48.3
2025-08-29T13:15	10	108	45.8	36	160	451	7.0	436	458	21.1	48.1
2025-08-29T13:16	10	80	50.6	37	160	435	4.2	430	444	20.9	47.7
2025-08-29T13:17	10	157	2.9	153	161	450	2.6	442	453	20.8	47.9
2025-08-29T13:18	10	153	6.6	131	159	452	1.5	449	454	20.9	47.2
2025-08-29T13:19	10	143	3.5	138	148	448	1.4	447	452	20.9	46.4
2025-08-29T13:20	10	89	31.9	53	147	445	4.1	437	450	21.0	47.3
2025-08-29T13:21	10	60	6.5	51	73	434	2.5	430	439	21.0	47.5
2025-08-29T13:22	10	53	2.7	51	61	429	1.0	428	432	20.8	46.2
2025-08-29T13:23	10	84	23.5	55	123	431	4.2	426	438	20.7	45.1
2025-08-29T13:24	10	129	23.9	87	159	439	3.2	434	442	20.7	44.0
2025-08-29T13:25	10	124	36.9	67	164	443	2.6	437	446	20.7	44.2
2025-08-29T13:26	10	89	7.8	70	102	437	1.1	435	439	20.8	45.1
2025-08-29T13:27	10	91	23.7	52	126	436	2.7	430	441	20.7	43.1
2025-08-29T13:28	10	120	36.1	53	153	436	5.1	429	444	20.6	43.5
2025-08-29T13:29	10	131	13.0	108	147	444	1.0	442	446	20.7	44.2
2025-08-29T13:30	10	115	2.9	110	119	440	1.8	437	443	20.7	43.5
2025-08-29T13:31	10	110	7.5	98	123	437	1.3	435	440	20.6	43.2
2025-08-29T13:32	10	104	19.5	76	127	439	2.3	435	441	20.7	43.5
2025-08-29T13:33	10	109	10.8	93	128	439	2.3	435	443	20.8	44.8
2025-08-29T13:34	10	84	12.2	63	112	438	2.0	434	443	20.9	45.9
2025-08-29T13:35	10	58	2.2	55	63	432	2.2	429	435	20.9	44.6
2025-08-29T13:36	10	59	9.2	52	84	429	1.0	428	432	20.9	45.8
2025-08-29T13:37	10	136	19.0	86	157	439	4.2	430	444	20.7	45.5
2025-08-29T13:38	10	99	21.8	69	129	437	3.5	432	441	20.6	45.5
2025-08-29T13:39	10	118	15.7	78	142	438	2.7	432	441	20.7	46.0
2025-08-29T13:40	10	91	16.9	56	120	438	2.6	431	441	20.7	45.9
2025-08-29T13:41	10	53	2.0	51	60	428	2.3	425	433	20.6	44.4
2025-08-29T13:42	10	61	2.4	55	64	427	0.5	426	428	20.6	46.0
2025-08-29T13:43	10	53	0.8	52	55	425	0.3	425	426	20.7	45.2
2025-08-29T13:44	10	51	3.4	48	59	424	1.1	422	426	20.6	44.9
2025-08-29T13:45	10	45	2.6	41	49	423	0.4	422	424	20.6	45.1
2025-08-29T13:46	10	40	0.8	38	41	421	0.8	420	423	20.6	45.6
2025-08-29T13:47	10	39	0.6	38	40	421	0.6	420	422	20.7	46.7
2025-08-29T13:48	10	41	0.8	40	44	421	0.3	421	422	20.7	46.4
2025-08-29T13:49	10	51	5.4	45	62	423	0.7	421	424	20.7	45.4
2025-08-29T13:50	10	47	0.4	46	48	422	0.5	421	423	20.7	46.3
2025-08-29T13:51	10	47	0.7	46	48	423	0.6	422	424	20.8	46.5
2025-08-29T13:52	10	45	0.5	44	46	421	1.0	420	423	20.9	45.3
2025-08-29T13:53	10	44	0.7	42	44	418	0.9	417	420	20.7	44.0
2025-08-29T13:54	10	39	1.2	38	42	417	0.4	416	418	20.5	44.7
2025-08-29T13:55	10	37	0.3	37	38	416	0.4	415	417	20.4	45.3
2025-08-29T13:56	10	37	0.1	36	37	416	0.4	415	417	20.4	46.5
2025-08-29T13:57	10	36	0.2	36	37	416	0.4	416	417	20.4	47.0
2025-08-29T13:58	10	36	0.2	36	36	415	0.5	414	416	20.3	46.5
2025-08-29T13:59	10	36	0.5	35	37	415	0.2	415	415	20.3	46.3
2025-08-29T14:00	10	36	0.2	36	37	415	0.6	414	415	20.2	46.3
2025-08-29T14:01	10	37	0.6	36	38	415	0.6	414	416	20.2	47.0
2025-08-29T14:02	10	40	1.5	38	42	416	0.4	415	416	20.2	47.0
2025-08-29T14:03	10	43	0.7	42	44	416	0.4	415	417	20.1	46.7
2025-08-29T14:04	10	46	0.6	44	47	417	0.7	415	418	20.1	46.5
2025-08-29T14:05	10	45	0.2	45	46	417	0.3	417	418	20.1	47.5
2025-08-29T14:06	10	46	0.3	45	46	418	0.2	417	419	20.1	48.3
2025-08-29T14:07	10	44	0.5	43	45	419	0.4	418	420	20.1	48.3
2025-08-29T14:08	10	43	0.1	43	44	419	0.2	419	419	20.1	48.7
2025-08-29T14:09	10	44	0.6	43	45	419	0.5	417	420	20.1	48.7
2025-08-29T14:10	10	47	1.7	45	50	420	0.7	419	421	20.0	48.6
2025-08-29T14:11	10	52	2.4	48	55	422	0.5	420	422	20.1	49.9
2025-08-29T14:12	10	51	0.9	49	53	421	0.6	420	422	20.0	49.9
2025-08-29T14:13	10	48	0.4	47	49	421	0.4	420	421	20.0	49.3
2025-08-29T14:14	10	49	0.8	48	50	420	0.6	419	421	20.1	49.9
2025-08-29T14:15	10	50	0.1	50	50	419	0.3	419	420	20.0	48.8
2025-08-29T14:16	10	51	0.6	50	52	419	0.4	418	420	20.0	49.5
2025-08-29T14:17	10	53	0.6	52	54	421	1.1	419	423	20.0	50.5
2025-08-29T14:18	10	55	1.1	54	57	421	0.4	420	422	20.0	49.8
2025-08-29T14:19	10	63	4.1	57	69	421	1.1	420	423	20.0	49.3
2025-08-29T14:20	10	60	3.6	57	68	422	0.3	422	423	20.0	50.5
2025-08-29T14:21	10	59	1.4	57	62	422	0.4	422	423	20.0	50.5
2025-08-29T14:22	10	62	3.6	56	67	422	0.4	421	423	20.0	49.8
2025-08-29T14:23	10	53	1.4	51	56	421	0.3	421	422	20.0	49.9
2025-08-29T14:24	10	48	1.6	45	51	419	1.2	417	421	20.0	48.8
2025-08-29T14:25	10	44	1.0	42	45	418	0.4	417	418	20.0	48.8
2025-08-29T14:26	10	41	0.8	39	42	416	0.4	416	417	19.9	49.0
2025-08-29T14:27	10	38	0.6	37	39	416	0.3	415	417	19.9	49.6
2025-08-29T14:28	10	36	0.5	36	37	416	0.4	415	417	19.9	50.1
2025-08-29T14:29	10	35	0.3	34	36	416	0.3	415	416	19.9	50.7
2025-08-29T14:30	10	34	0.4	33	34	416	0.4	415	417	19.9	51.3
2025-08-29T14:31	10	32	0.4	32	33	416	0.4	415	417	19.9	51.5
2025-08-29T14:32	10	31	0.4	30	32	415	0.3	414	416	19.9	51.3
2025-08-29T14:33	10	29	0.5	29	30	416	0.2	415	416	19.9	52.5
2025-08-29T14:34	10	28	0.5	27	29	414	0.9	413	416	19.8	51.9
2025-08-29T14:35	10	26	0.4	26	27	413	0.3	412	414	19.8	51.3
2025-08-29T14:36	10	25	0.3	25	26	413	0.3	412	413	19.8	51.7
2025-08-29T14:37	10	24	0.2	24	25	413	0.3	412	413	19.8	52.0
2025-08-29T14:38	10	24	0.1	24	24	412	0.2	412	413	19.7	51.5
2025-08-29T14:39	10	24	0.1	24	24	412	0.3	411	412	19.7	51.5
2025-08-29T14:40	10	24	0.1	24	24	412	0.2	411	412	19.7	51.9
2025-08-29T14:41	10	24	0.1	24	24	411	0.3	411	412	19.6	51.8
2025-08-29T14:42	10	24	0.1	24	24	411	0.2	411	412	19.6	52.2
2025-08-29T14:43	10	24	0.2	24	25	411	0.4	411	412	19.6	52.8
2025-08-29T14:44	10	25	0.2	25	25	412	0.4	410	412	19.6	52.1
2025-08-29T14:45	10	26	0.3	25	26	412	0.5	411	413	19.6	53.0
2025-08-29T14:46	10	27	0.3	26	27	412	0.4	412	413	19.6	53.0
2025-08-29T14:47	10	28	0.4	27	29	412	0.3	411	412	19.5	52.7
2025-08-29T14:48	10	29	0.4	29	30	412	0.7	411	413	19.5	52.6
2025-08-29T14:49	10	31	0.5	30	32	413	0.3	412	414	19.5	53.0
2025-08-29T14:50	10	33	0.5	32	34	413	0.4	412	414	19.5	53.5
2025-08-29T14:51	10	35	0.6	34	36	413	0.3	412	413	19.5	53.0
2025-08-29T14:52	10	36	0.5	36	37	414	0.7	413	415	19.5	53.5
2025-08-29T14:53	10	38	0.4	37	39	415	0.5	414	416	19.5	53.8
2025-08-29T14:54	10	39	0.3	38	40	416	0.3	415	416	19.5	54.0
2025-08-29T14:55	10	40	0.3	40	40	417	0.5	415	418	19.5	55.0
2025-08-29T14:56	10	41	0.2	40	41	418	0.5	417	419	19.6	55.5
2025-08-29T14:57	10	41	0.1	41	41	418	0.4	417	418	19.5	55.1
2025-08-29T14:58	10	41	0.1	41	41	418	0.4	417	419	19.6	55.7
2025-08-29T14:59	10	41	0.2	41	41	418	0.7	417	419	19.6	54.3
2025-08-29T15:00	10	40	0.2	40	41	417	0.3	416	418	19.6	54.3
2025-08-29T15:01	10	40	0.3	39	40	418	0.5	417	419	19.6	55.6
2025-08-29T15:02	10	39	0.3	38	39	419	0.6	418	420	19.6	55.6
2025-08-29T15:03	10	38	0.2	38	38	417	0.8	416	418	19.6	54.7
2025-08-29T15:04	10	37	0.3	37	38	417	0.3	416	418	19.6	54.9
2025-08-29T15:05	10	36	0.3	36	37	416	0.3	416	417	19.6	54.3
2025-08-29T15:06	10	35	0.3	35	36	416	0.4	415	417	19.6	55.2
2025-08-29T15:07	10	34	0.3	34	35	416	0.3	415	416	19.6	55.1
2025-08-29T15:08	10	33	0.3	33	34	416	0.4	415	416	19.6	55.0
2025-08-29T15:09	10	32	0.4	31	33	415	0.3	415	416	19.6	55.3
2025-08-29T15:10	10	31	0.4	30	31	415	0.4	414	416	19.6	55.0
2025-08-29T15:11	10	29	0.4	28	30	415	0.6	413	416	19.6	55.2
2025-08-29T15:12	10	28	0.4	27	29	413	0.6	412	414	19.5	53.9
2025-08-29T15:13	10	27	0.2	26	27	413	0.4	412	413	19.5	54.9
2025-08-29T15:14	10	26	0.1	26	27	412	0.3	411	413	19.5	54.6
2025-08-29T15:15	10	26	0.1	26	26	411	0.5	410	412	19.5	53.8
2025-08-29T15:16	10	26	0.1	26	26	410	0.2	410	411	19.4	53.8
2025-08-29T15:17	10	26	0.1	26	26	411	0.2	410	411	19.4	53.9
2025-08-29T15:18	10	26	0.2	26	27	411	0.5	410	412	19.4	54.7
2025-08-29T15:19	10	27	0.2	27	28	411	0.3	410	411	19.4	54.0
2025-08-29T15:20	10	28	0.4	28	29	411	0.6	410	412	19.4	54.5
2025-08-29T15:21	10	29	0.3	29	30	412	0.3	411	412	19.4	54.8
2025-08-29T15:22	10	30	0.1	30	30	412	0.3	412	413	19.4	55.3
2025-08-29T15:23	10	31	0.4	30	32	413	0.6	412	414	19.4	56.0
2025-08-29T15:24	10	33	0.7	32	34	413	0.4	412	413	19.4	55.1
2025-08-29T15:25	10	35	0.4	34	35	412	0.3	411	413	19.3	55.0
2025-08-29T15:26	10	35	0.2	35	35	412	0.5	411	413	19.3	55.2
2025-08-29T15:27	10	36	0.4	35	37	413	0.5	413	414	19.3	55.6
2025-08-29T15:28	10	38	1.0	37	40	414	0.4	413	415	19.3	55.9
2025-08-29T15:29	10	40	1.2	38	41	415	0.2	414	415	19.4	56.7
2025-08-29T15:30	10	42	3.5	38	49	413	0.5	413	415	19.3	56.0
2025-08-29T15:31	10	52	3.1	47	58	415	0.7	413	416	19.3	55.7
2025-08-29T15:32	10	69	2.9	59	73	416	0.8	414	418	19.2	55.1
2025-08-29T15:33	10	64	8.7	50	76	417	0.9	415	419	19.2	55.6
2025-08-29T15:34	10	55	3.2	52	66	416	0.5	415	417	19.2	55.7
2025-08-29T15:35	10	54	0.5	53	55	417	0.5	416	418	19.3	56.9
2025-08-29T15:36	10	53	0.5	52	54	416	0.4	415	417	19.2	56.3
2025-08-29T15:37	10	51	0.4	51	52	417	0.3	416	417	19.3	57.1
2025-08-29T15:38	10	50	0.6	49	51	415	0.9	414	417	19.1	56.0
2025-08-29T15:39	10	48	0.8	46	49	415	0.4	414	416	19.1	56.4
2025-08-29T15:40	10	45	0.6	44	46	414	0.4	413	415	19.1	56.1
2025-08-29T15:41	10	43	0.6	42	44	413	0.6	412	414	19.1	55.5
2025-08-29T15:42	10	41	0.7	40	42	412	0.3	411	413	19.0	54.7
2025-08-29T15:43	10	39	0.3	39	40	412	0.4	412	413	19.0	55.8
2025-08-29T15:44	10	38	0.4	37	39	412	0.3	412	413	19.0	56.3
2025-08-29T15:45	10	36	0.6	35	38	412	0.3	411	413	19.0	56.4
2025-08-29T15:46	10	35	0.3	34	35	412	0.4	411	413	19.0	56.5
2025-08-29T15:47	10	34	0.3	33	35	411	0.3	411	412	19.0	56.7
2025-08-29T15:48	10	33	0.4	32	33	411	0.4	411	412	19.0	57.1
2025-08-29T15:49	10	31	0.4	31	32	411	0.3	411	412	19.0	57.5
2025-08-29T15:50	10	30	0.4	29	31	412	0.3	411	412	19.0	57.7
2025-08-29T15:51	10	28	0.5	27	29	410	0.4	409	411	19.0	57.1
2025-08-29T15:52	10	27	0.4	26	28	409	0.3	408	410	18.8	55.8
2025-08-29T15:53	10	26	0.1	26	26	409	0.3	408	409	18.8	56.7
2025-08-29T15:54	10	26	0.1	26	26	408	0.3	408	409	18.7	56.5
2025-08-29T15:55	10	27	0.4	26	28	408	0.3	408	409	18.7	56.8
2025-08-29T15:56	10	29	0.4	28	29	408	0.3	408	409	18.7	56.4
2025-08-29T15:57	10	30	0.2	29	30	409	0.3	408	409	18.6	56.2
2025-08-29T15:58	10	30	0.1	30	30	408	0.3	407	408	18.5	54.1
2025-08-29T15:59	10	30	0.1	30	30	407	0.2	406	408	18.5	54.2
2025-08-29T16:00	10	29	0.4	29	30	407	0.4	406	408	18.5	53.8
2025-08-29T16:01	10	28	0.4	27	29	407	0.5	406	408	18.5	54.2
2025-08-29T16:02	10	27	0.3	26	27	406	0.4	405	407	18.4	54.3
2025-08-29T16:03	10	26	0.2	26	26	406	0.4	405	407	18.4	54.7
2025-08-29T16:04	10	25	0.2	25	26	406	0.2	405	406	18.3	55.2
2025-08-29T16:05	10	25	0.2	24	25	406	0.3	405	406	18.3	55.3
2025-08-29T16:06	10	24	0.1	24	25	406	0.4	405	407	18.3	56.2
2025-08-29T16:07	10	25	0.2	24	25	406	0.3	405	406	18.3	56.9
2025-08-29T16:08	10	25	0.1	25	25	405	0.6	404	406	18.2	55.9
2025-08-29T16:09	10	25	0.2	24	25	404	0.3	404	405	18.2	56.0
2025-08-29T16:10	10	24	0.1	24	25	404	0.3	404	405	18.2	56.4
2025-08-29T16:11	10	25	0.4	25	26	404	0.2	404	405	18.1	56.7
2025-08-29T16:12	10	26	0.2	26	27	404	0.3	403	404	18.1	56.4
2025-08-29T16:13	10	28	1.1	27	30	404	0.2	403	404	18.1	56.1
2025-08-29T16:14	10	32	1.7	29	35	404	0.6	403	405	18.0	56.5
2025-08-29T16:15	10	33	1.2	31	35	405	0.7	404	406	18.0	57.4
2025-08-29T16:16	10	36	1.1	34	39	406	0.6	405	407	18.0	57.7
2025-08-29T16:17	10	44	3.9	39	51	408	0.8	407	410	18.0	58.3
2025-08-29T16:18	10	54	3.2	51	60	409	0.5	408	410	18.1	57.9
2025-08-29T16:19	10	52	5.7	41	58	410	0.7	408	411	18.1	57.7
2025-08-29T16:20	10	39	2.0	36	42	409	0.9	407	410	18.2	57.8
2025-08-29T16:21	10	35	0.3	35	36	407	0.7	406	408	18.2	57.7
2025-08-29T16:22	10	35	0.2	34	35	406	0.5	405	407	18.2	58.3
2025-08-29T16:23	10	34	0.2	34	35	405	0.5	404	407	18.1	57.8
2025-08-29T16:24	10	35	0.3	35	36	405	0.3	404	406	18.0	58.1
2025-08-29T16:25	10	37	0.6	36	38	405	0.3	405	406	18.0	58.8
2025-08-29T16:26	10	39	0.7	38	40	405	0.5	404	406	18.0	58.5
2025-08-29T16:27	10	43	1.8	40	45	406	0.3	405	406	18.0	58.9
2025-08-29T16:28	10	45	0.5	44	46	406	0.4	405	407	17.9	58.9
2025-08-29T16:29	10	45	0.1	45	45	406	0.4	405	407	18.0	59.5
2025-08-29T16:30	10	46	0.2	45	46	407	0.4	406	408	18.0	59.3
2025-08-29T16:31	10	46	0.3	46	47	407	0.2	406	407	18.0	59.4
2025-08-29T16:32	10	47	0.4	47	48	408	0.9	406	410	18.0	60.2
2025-08-29T16:33	10	52	5.1	47	62	408	0.6	407	410	18.0	60.0
2025-08-29T16:34	10	53	3.4	49	62	409	0.4	409	410	18.0	60.0
2025-08-29T16:35	10	67	12.5	51	85	411	1.1	409	413	18.0	60.3
2025-08-29T16:36	10	87	3.4	80	90	413	1.2	411	415	18.1	60.3
2025-08-29T16:37	10	69	11.4	52	87	413	0.9	411	414	18.1	60.4
2025-08-29T16:38	10	46	2.9	44	52	410	1.2	408	412	18.2	60.4
2025-08-29T16:39	10	59	7.6	45	67	409	0.8	408	411	18.1	59.8
2025-08-29T16:40	10	60	5.0	53	68	410	0.6	409	411	18.1	60.0
2025-08-29T16:41	10	45	6.1	37	56	409	0.9	407	411	18.1	60.2
2025-08-29T16:42	10	34	1.2	33	37	407	0.9	406	409	18.1	60.7
2025-08-29T16:43	10	41	3.1	36	46	407	0.3	407	408	18.1	61.0
2025-08-29T16:44	10	37	3.3	33	41	406	0.6	405	408	18.0	60.8
2025-08-29T16:45	10	35	2.8	33	40	406	0.3	405	407	18.0	61.4
2025-08-29T16:46	10	41	0.3	40	41	406	0.5	405	407	18.0	61.2
2025-08-29T16:47	10	43	2.1	41	48	407	0.4	406	408	18.0	61.3
2025-08-29T16:48	10	53	2.1	49	56	408	1.0	406	409	18.0	61.5
2025-08-29T16:49	10	54	2.9	50	58	408	0.6	407	409	18.0	61.2
2025-08-29T16:50	10	51	1.3	47	52	407	0.3	407	408	18.0	61.5
2025-08-29T16:51	10	59	9.4	46	71	408	0.9	407	410	18.0	61.4
2025-08-29T16:52	10	74	1.6	71	76	411	1.1	409	412	18.1	61.6
2025-08-29T16:53	10	69	5.5	56	75	410	1.1	408	412	18.1	60.6
2025-08-29T16:54	10	51	2.7	44	56	406	1.0	405	408	18.0	60.7
2025-08-29T16:55	10	36	3.6	31	44	405	0.3	405	406	18.0	61.3
2025-08-29T16:56	10	29	1.2	28	32	404	0.9	403	406	18.0	61.3
2025-08-29T16:57	10	26	1.1	25	28	403	0.6	401	404	17.9	61.7
2025-08-29T16:58	10	26	0.8	25	28	402	0.3	401	403	17.8	62.1
2025-08-29T16:59	10	28	0.7	26	29	402	0.4	401	403	17.8	62.2
2025-08-29T17:00	10	24	1.8	21	26	402	0.4	401	402	17.8	62.7
2025-08-29T17:01	10	20	0.5	19	21	401	0.2	400	401	17.7	62.5
2025-08-29T17:02	10	19	0.3	18	19	401	0.3	400	401	17.7	62.8
2025-08-29T17:03	10	18	0.3	17	18	400	0.4	399	401	17.7	62.7
2025-08-29T17:04	10	17	0.3	17	18	399	0.2	399	400	17.6	63.0
2025-08-29T17:05	10	16	0.3	15	17	399	0.2	398	399	17.6	63.7
2025-08-29T17:06	10	15	0.3	14	15	399	0.2	398	399	17.6	64.1
2025-08-29T17:07	10	14	0.3	13	14	398	0.3	397	398	17.6	63.8
2025-08-29T17:08	10	13	0.3	12	13	397	0.3	397	398	17.6	63.4
2025-08-29T17:09	10	12	0.3	11	12	397	0.2	397	398	17.6	64.6
2025-08-29T17:10	10	11	0.2	11	11	397	0.2	396	397	17.6	64.5
2025-08-29T17:11	10	11	0.1	11	11	396	0.2	396	397	17.6	64.2
2025-08-29T17:12	10	11	0.1	10	11	396	0.3	395	396	17.6	64.0
2025-08-29T17:13	10	12	0.6	11	13	396	0.3	395	397	17.6	63.0
2025-08-29T17:14	10	13	0.2	13	14	396	0.3	395	396	17.6	63.8
2025-08-29T17:15	10	12	0.7	11	13	395	0.2	395	396	17.5	64.2
2025-08-29T17:16	10	10	0.5	9	11	395	0.3	395	396	17.5	64.1
2025-08-29T17:17	10	9	0.2	9	9	395	0.3	394	395	17.5	63.8
2025-08-29T17:18	10	8	0.1	8	9	394	0.3	394	395	17.5	64.7
2025-08-29T17:19	10	8	0.1	8	8	394	0.2	394	395	17.5	64.3
2025-08-29T17:20	10	8	0.2	8	9	394	0.2	394	394	17.5	64.5
2025-08-29T17:21	10	9	0.1	9	9	394	0.2	393	394	17.4	64.7
2025-08-29T17:22	10	8	0.2	8	9	394	0.2	393	394	17.4	64.8
2025-08-29T17:23	10	8	0.1	8	8	393	0.2	393	394	17.4	65.1
2025-08-29T17:24	10	8	0.1	8	8	393	0.2	392	394	17.3	65.7
2025-08-29T17:25	10	8	0.1	7	8	393	0.3	392	394	17.3	65.6
2025-08-29T17:26	10	7	0.1	7	8	393	0.2	392	393	17.3	65.6
2025-08-29T17:27	10	7	0.1	7	8	393	0.2	392	393	17.3	65.2
2025-08-29T17:28	10	7	0.1	7	7	393	0.2	392	393	17.3	65.6
2025-08-29T17:29	10	7	0.1	7	7	392	0.3	392	393	17.2	66.1
2025-08-29T17:30	10	7	0.1	7	7	392	0.3	392	393	17.1	66.8
2025-08-29T17:31	10	7	0.1	7	7	392	0.3	391	392	17.1	66.8
2025-08-29T17:32	10	7	0.2	7	7	392	0.3	391	393	17.1	66.0
2025-08-29T17:33	10	8	0.1	7	8	392	0.2	391	392	17.1	66.3
2025-08-29T17:34	10	9	0.5	8	10	392	0.3	391	392	17.1	66.7
2025-08-29T17:35	10	9	0.6	8	10	392	0.2	391	393	17.1	66.4
2025-08-29T17:36	10	8	0.3	8	10	392	0.2	392	393	17.1	66.6
2025-08-29T17:37	10	8	0.1	8	8	392	0.2	391	392	17.1	66.4
2025-08-29T17:38	10	8	0.1	8	8	392	0.2	391	392	17.1	66.4
2025-08-29T17:39	10	8	0.1	8	8	392	0.2	391	392	17.0	66.7
2025-08-29T17:40	10	8	0.1	8	8	392	0.3	391	392	17.0	66.6
2025-08-29T17:41	10	8	0.1	8	8	392	0.3	391	393	17.1	66.3
2025-08-29T17:42	10	8	0.1	8	8	391	0.3	391	392	17.0	66.8
2025-08-29T17:43	10	8	0.1	8	8	391	0.3	391	392	17.0	67.3
2025-08-29T17:44	10	8	0.1	8	8	391	0.3	391	392	17.0	67.0
2025-08-29T17:45	10	8	0.1	7	8	392	0.2	391	392	17.0	67.1
2025-08-29T17:46	10	7	0.1	7	8	392	0.3	391	392	17.0	66.8
2025-08-29T17:47	10	7	0.1	7	8	392	0.2	391	392	17.0	66.4
2025-08-29T17:48	10	7	0.1	7	8	392	0.2	391	392	17.0	67.0
2025-08-29T17:49	10	7	0.1	7	7	391	0.2	391	392	17.0	67.4
2025-08-29T17:50	10	7	0.1	7	7	391	0.2	391	392	17.0	67.3
2025-08-29T17:51	10	7	0.1	7	7	391	0.3	391	392	17.0	67.5
2025-08-29T17:52	10	7	0.1	7	7	391	0.3	391	392	17.0	67.5
2025-08-29T17:53	10	6	0.1	6	7	391	0.2	391	392	17.0	67.6
2025-08-29T17:54	10	6	0.2	6	6	391	0.2	391	392	17.0	67.5
2025-08-29T17:55	10	5	0.2	5	6	391	0.2	391	392	16.9	67.7
2025-08-29T17:56	10	5	0.2	5	5	391	0.2	391	392	17.0	67.3
2025-08-29T17:57	10	4	0.1	4	5	391	0.3	390	391	16.9	68.1
2025-08-29T17:58	10	4	0.1	4	4	390	0.3	390	391	16.9	68.4
2025-08-29T17:59	10	4	0.1	3	4	390	0.3	390	391	16.9	67.9
2025-08-29T18:00	10	3	0.1	3	4	390	0.3	389	391	16.9	67.8
2025-08-29T18:01	10	3	0.1	3	3	390	0.2	389	390	16.9	68.5
2025-08-29T18:02	10	3	0.1	3	3	390	0.2	389	390	16.9	68.3
2025-08-29T18:03	10	3	0.1	2	3	390	0.3	390	391	17.0	67.6
2025-08-29T18:04	10	2	0.1	2	3	390	0.2	390	391	17.0	67.7
2025-08-29T18:05	10	2	0.1	2	2	390	0.3	389	390	16.9	67.8
2025-08-29T18:06	10	2	0.1	2	2	389	0.3	389	390	16.8	68.7
2025-08-29T18:07	10	2	0.6	1	6	389	0.3	389	390	16.9	68.0
2025-08-29T18:08	10	1	0.1	1	2	389	0.2	389	390	16.9	68.5
2025-08-29T18:09	10	1	0.1	1	1	389	0.3	389	390	16.8	69.1
2025-08-29T18:10	10	1	0.1	1	1	389	0.2	388	389	16.8	68.9
2025-08-29T18:11	10	1	0.1	1	1	389	0.2	389	390	16.9	68.7
2025-08-29T18:12	10	1	0.1	1	1	389	0.3	388	390	16.8	69.0
2025-08-29T18:13	10	1	0.1	1	1	389	0.2	389	389	16.8	69.0
2025-08-29T18:14	10	1	0.1	0	1	389	0.3	389	390	16.9	68.6
2025-08-29T18:15	10	1	0.1	0	1	389	0.2	389	390	16.9	68.5
2025-08-29T18:16	10	1	0.1	0	1	390	0.2	389	390	16.9	68.4
2025-08-29T18:17	10	0	0.1	0	1	389	0.3	388	390	16.8	68.8
2025-08-29T18:18	10	0	0.1	0	1	389	0.2	389	390	16.8	69.1
2025-08-29T18:19	10	0	0.1	0	1	389	0.3	389	390	16.8	69.0
2025-08-29T18:20	10	0	0.1	0	1	391	0.3	390	391	17.0	67.2
2025-08-29T18:21	10	0	0.1	0	0	390	0.2	390	391	16.9	68.2
2025-08-29T18:22	10	0	0.1	0	1	390	0.3	390	391	16.9	68.2
2025-08-29T18:23	10	0	0.1	0	0	390	0.2	390	391	16.8	69.0
2025-08-29T18:24	10	0	0.1	0	0	391	0.3	390	391	16.9	68.7
2025-08-29T18:25	10	0	0.1	0	0	391	0.2	390	391	16.9	68.1
2025-08-29T18:26	10	0	0.1	0	0	391	0.2	390	391	16.9	68.8
2025-08-29T18:27	10	0	0.1	0	0	391	0.3	390	391	16.9	68.8
2025-08-29T18:28	10	0	0.1	0	0	391	0.2	391	391	16.9	68.4
2025-08-29T18:29	10	0	0.1	0	1	391	0.3	391	392	16.9	68.3
2025-08-29T18:30	10	0	0.1	0	0	392	0.2	391	392	17.0	68.0
2025-08-29T18:31	10	0	0.1	0	1	392	0.3	391	392	17.0	67.8
2025-08-29T18:32	10	0	0.1	0	0	392	0.2	391	393	17.0	67.8
2025-08-29T18:33	10	0	0.1	0	1	392	0.3	391	393	17.0	68.0
2025-08-29T18:34	10	0	0.2	0	1	392	0.3	391	393	17.0	68.1
2025-08-29T18:35	10	0	0.1	0	0	392	0.3	391	393	17.0	68.3
2025-08-29T18:36	10	0	0.2	0	1	392	0.2	391	393	17.0	68.3
2025-08-29T18:37	10	0	0.1	0	1	392	0.3	391	393	17.0	67.8
2025-08-29T18:38	10	0	0.1	0	1	392	0.3	392	393	17.0	67.5
2025-08-29T18:39	10	0	0.1	0	1	392	0.2	392	393	17.0	67.6
2025-08-29T18:40	10	0	0.2	0	1	392	0.3	392	393	17.0	67.9
2025-08-29T18:41	10	0	0.1	0	1	393	0.2	392	393	17.1	67.3
2025-08-29T18:42	10	0	0.1	0	0	392	0.3	391	393	17.0	68.1
2025-08-29T18:43	10	0	0.1	0	0	392	0.2	392	393	17.0	68.5
2025-08-29T18:44	10	0	0.2	0	1	392	0.2	392	392	17.0	68.3
2025-08-29T18:45	10	0	0.2	0	0	392	0.3	392	393	17.0	67.8
2025-08-29T18:46	10	0	0.1	0	1	392	0.3	392	393	17.0	67.8
2025-08-29T18:47	10	0	0.2	0	1	392	0.3	392	393	17.0	68.0
2025-08-29T18:48	10	0	0.2	0	1	392	0.2	392	393	17.0	67.8
2025-08-29T18:49	10	0	0.2	0	1	392	0.3	392	393	17.1	67.2
2025-08-29T18:50	10	0	0.1	0	0	392	0.3	392	393	17.1	67.2
2025-08-29T18:51	10	0	0.1	0	1	392	0.3	392	393	17.1	67.3
2025-08-29T18:52	10	0	0.1	0	1	393	0.3	392	393	17.1	67.3
2025-08-29T18:53	10	0	0.2	0	1	393	0.3	393	394	17.2	66.2
2025-08-29T18:54	10	0	0.2	0	1	393	0.3	392	394	17.1	67.2
2025-08-29T18:55	10	0	0.2	0	1	393	0.3	392	393	17.1	67.5
2025-08-29T18:56	10	0	0.1	0	1	392	0.3	391	393	17.0	68.2
2025-08-29T18:57	10	0	0.1	0	0	391	0.2	391	392	17.0	68.9
2025-08-29T18:58	10	0	0.1	0	1	391	0.5	390	392	16.9	69.2
2025-08-29T18:59	10	0	0.1	0	0	390	0.3	390	391	16.9	69.7
2025-08-29T19:00	10	0	0.1	0	0	390	0.3	389	391	16.8	70.2
2025-08-29T19:01	10	0	0.1	0	0	390	0.4	389	390	16.7	70.8
2025-08-29T19:02	10	0	0.1	0	0	389	0.3	388	389	16.6	72.4
2025-08-29T19:03	10	0	0.1	0	0	388	0.3	388	389	16.5	73.2
2025-08-29T19:04	10	0	0.1	0	0	388	0.3	388	389	16.5	72.4
2025-08-29T19:05	10	0	0.1	0	0	388	0.3	387	389	16.5	71.9
2025-08-29T19:06	10	0	0.1	0	1	388	0.4	387	389	16.6	71.9
2025-08-29T19:07	10	0	0.2	0	1	388	0.2	387	388	16.5	72.0
2025-08-29T19:08	10	0	0.1	0	0	388	0.3	387	388	16.5	72.7
2025-08-29T19:09	10	0	0.1	0	0	387	0.2	387	388	16.5	72.1
2025-08-29T19:10	10	0	0.2	0	0	387	0.2	386	388	16.4	72.8
2025-08-29T19:11	10	0	0.1	0	0	387	0.2	386	387	16.4	73.5
2025-08-29T19:12	10	0	0.1	0	0	386	0.3	386	387	16.3	73.9
2025-08-29T19:13	10	0	0.1	0	0	386	0.3	386	387	16.3	73.9
2025-08-29T19:14	10	0	0.1	0	0	386	0.2	386	387	16.3	73.9
2025-08-29T19:15	10	0	0.1	0	0	386	0.3	386	387	16.3	73.5
2025-08-29T19:16	10	0	0.1	0	0	386	0.3	386	387	16.4	73.3
2025-08-29T19:17	10	0	0.1	0	1	386	0.3	386	387	16.3	73.6
2025-08-29T19:18	10	0	0.1	0	0	387	0.1	386	387	16.4	73.1
2025-08-29T19:19	10	0	0.1	0	0	386	0.3	386	387	16.4	73.0
2025-08-29T19:20	10	0	0.1	0	0	386	0.2	386	387	16.3	73.5
2025-08-29T19:21	10	0	0.1	0	0	386	0.2	386	387	16.3	73.9
2025-08-29T19:22	10	0	0.1	0	0	386	0.2	386	387	16.3	74.0
2025-08-29T19:23	10	0	0.1	0	0	386	0.2	386	387	16.2	74.1
2025-08-29T19:24	10	0	0.2	0	1	387	0.4	386	388	16.3	73.4
2025-08-29T19:25	10	0	0.1	0	0	386	0.2	386	387	16.3	73.8
2025-08-29T19:26	10	0	0.1	0	0	386	0.3	386	387	16.2	74.3
2025-08-29T19:27	10	0	0.1	0	0	386	0.3	385	386	16.2	74.5
2025-08-29T19:28	10	0	0.1	0	0	386	0.2	385	386	16.2	74.2
2025-08-29T19:29	10	0	0.1	0	0	385	0.2	385	386	16.2	74.0
2025-08-29T19:30	10	0	0.1	0	0	385	0.3	384	385	16.2	74.3
2025-08-29T19:31	10	0	0.1	0	0	385	0.2	384	385	16.2	73.7
2025-08-29T19:32	10	0	0.1	0	0	384	0.2	383	385	16.2	74.1
2025-08-29T19:33	10	0	0.1	0	0	384	0.2	384	385	16.2	73.8
2025-08-29T19:34	10	0	0.1	0	0	384	0.4	383	385	16.3	73.6
2025-08-29T19:35	10	0	0.1	0	0	384	0.2	384	385	16.2	73.8
2025-08-29T19:36	10	0	0.0	0	0	384	0.3	383	385	16.1	74.6
2025-08-29T19:37	10	0	0.1	0	0	384	0.3	383	384	16.1	74.2
2025-08-29T19:38	10	0	0.0	0	0	384	0.3	383	384	16.2	73.8
2025-08-29T19:39	10	0	0.0	0	0	383	0.2	383	384	16.1	74.4
2025-08-29T19:40	10	0	0.1	0	0	384	0.3	383	385	16.3	73.4
2025-08-29T19:41	10	0	0.1	0	0	384	0.2	383	384	16.3	73.7
2025-08-29T19:42	10	0	0.1	0	0	384	0.2	383	384	16.2	74.2
2025-08-29T19:43	10	0	0.1	0	0	384	0.2	384	385	16.2	74.2
2025-08-29T19:44	10	0	0.1	0	0	384	0.2	384	385	16.2	73.9
2025-08-29T19:45	10	0	0.1	0	0	384	0.3	384	385	16.2	74.4
2025-08-29T19:46	10	0	0.1	0	0	384	0.2	384	385	16.1	74.5
2025-08-29T19:47	10	0	0.1	0	0	384	0.2	384	384	16.1	75.1
2025-08-29T19:48	10	0	0.1	0	0	384	0.3	384	385	16.0	75.6
2025-08-29T19:49	10	0	0.1	0	0	384	0.2	384	385	16.1	75.2
2025-08-29T19:50	10	0	0.1	0	0	384	0.2	384	385	16.1	75.0
2025-08-29T19:51	10	0	0.1	0	0	385	0.2	384	385	16.1	74.8
2025-08-29T19:52	10	0	0.1	0	0	384	0.2	384	385	16.1	75.0
2025-08-29T19:53	10	0	0.1	0	0	385	0.3	384	386	16.1	74.8
2025-08-29T19:54	10	0	0.1	0	0	385	0.2	385	386	16.1	74.8
2025-08-29T19:55	10	0	0.1	0	0	386	0.3	385	386	16.2	74.3
2025-08-29T19:56	10	0	0.1	0	0	386	0.2	385	386	16.2	73.8
2025-08-29T19:57	10	0	0.1	0	0	386	0.2	385	386	16.1	74.3
2025-08-29T19:58	10	0	0.1	0	0	386	0.2	385	386	16.1	74.4
2025-08-29T19:59	10	0	0.1	0	0	385	0.2	385	386	16.1	74.1
2025-08-29T20:00	10	0	0.1	0	0	385	0.3	384	386	16.1	74.5
2025-08-29T20:01	10	0	0.1	0	0	385	0.2	385	386	16.2	73.7
2025-08-29T20:02	10	0	0.1	0	0	385	0.3	384	386	16.2	73.8
2025-08-29T20:03	10	0	0.1	0	0	385	0.3	384	385	16.2	74.0
2025-08-29T20:04	10	0	0.1	0	0	385	0.3	384	385	16.2	73.1
2025-08-29T20:05	10	0	0.1	0	0	384	0.3	383	385	16.2	73.6
2025-08-29T20:06	10	0	0.1	0	0	384	0.2	384	384	16.2	73.3
2025-08-29T20:07	10	0	0.1	0	0	384	0.3	384	385	16.3	72.5
2025-08-29T20:08	10	0	0.1	0	0	384	0.2	384	385	16.3	72.9
2025-08-29T20:09	10	0	0.1	0	0	384	0.3	384	385	16.3	72.9
2025-08-29T20:10	10	0	0.1	0	0	384	0.3	384	385	16.2	73.5
2025-08-29T20:11	10	0	0.1	0	0	385	0.2	384	385	16.1	74.1
2025-08-29T20:12	10	0	0.1	0	0	385	0.2	384	385	16.0	74.4
2025-08-29T20:13	10	0	0.0	0	0	385	0.2	385	385	16.1	73.7
2025-08-29T20:14	10	0	0.1	0	0	385	0.2	384	385	16.1	73.8
2025-08-29T20:15	10	0	0.1	0	0	385	0.3	384	386	16.1	73.9
2025-08-29T20:16	10	0	0.1	0	0	385	0.2	384	385	16.0	74.2
2025-08-29T20:17	10	0	0.1	0	0	385	0.3	384	386	16.0	74.0
2025-08-29T20:18	10	0	0.1	0	0	385	0.3	384	386	16.0	74.1
2025-08-29T20:19	10	0	0.1	0	0	385	0.3	385	386	16.1	73.0
2025-08-29T20:20	10	0	0.1	0	0	386	0.2	385	386	16.3	72.1
2025-08-29T20:21	10	0	0.1	0	0	386	0.2	385	386	16.2	72.6
2025-08-29T20:22	10	0	0.1	0	0	385	0.3	385	386	16.3	72.2
2025-08-29T20:23	10	0	0.1	0	0	385	0.2	385	386	16.3	72.3
2025-08-29T20:24	10	0	0.1	0	0	385	0.4	384	385	16.2	72.8
2025-08-29T20:25	10	0	0.1	0	0	384	0.3	384	385	16.2	72.8
2025-08-29T20:26	10	0	0.1	0	0	384	0.3	383	385	16.1	73.2
2025-08-29T20:27	10	0	0.1	0	0	384	0.3	383	384	16.0	74.3
2025-08-29T20:28	10	0	0.1	0	0	383	0.3	383	384	16.0	74.8
2025-08-29T20:29	10	0	0.1	0	0	384	0.2	383	384	15.9	75.3
2025-08-29T20:30	10	0	0.0	0	0	384	0.3	383	384	15.9	75.3
2025-08-29T20:31	10	0	0.1	0	0	384	0.2	383	384	15.9	75.4
2025-08-29T20:32	10	0	0.1	0	0	383	0.2	383	384	15.9	75.9
2025-08-29T20:33	10	0	0.1	0	0	383	0.2	383	384	15.8	76.0
2025-08-29T20:34	10	0	0.1	0	0	383	0.3	382	384	15.8	76.3
2025-08-29T20:35	10	0	0.0	0	0	383	0.2	383	384	15.8	76.3
2025-08-29T20:36	10	0	0.0	0	0	383	0.3	383	384	15.8	76.4
2025-08-29T20:37	10	0	0.1	0	0	383	0.2	383	384	15.8	76.6
2025-08-29T20:38	10	0	0.0	0	0	383	0.3	383	384	15.8	76.8
2025-08-29T20:39	10	0	0.0	0	0	383	0.3	383	384	15.8	76.8
2025-08-29T20:40	10	0	0.1	0	0	383	0.2	383	384	15.8	74.3
2025-08-29T20:41	10	0	0.1	0	0	384	0.3	383	384	15.8	74.2
2025-08-29T20:42	10	0	0.1	0	0	384	0.4	383	385	15.8	76.8
2025-08-29T20:43	10	0	0.0	0	0	384	0.4	383	385	15.8	76.8
2025-08-29T20:44	10	0	0.1	0	0	385	0.3	384	385	15.8	76.8
2025-08-29T20:45	10	0	0.1	0	0	385	0.2	385	385	15.8	76.4
2025-08-29T20:46	10	0	0.1	0	0	385	0.3	385	386	15.9	75.6
2025-08-29T20:47	10	0	0.0	0	0	386	0.3	385	387	15.9	75.3
2025-08-29T20:48	10	0	0.1	0	0	386	0.3	385	386	16.0	74.7
2025-08-29T20:49	10	0	0.1	0	0	386	0.3	385	386	16.0	74.8
2025-08-29T20:50	10	0	0.1	0	0	386	0.2	385	386	16.0	75.1
2025-08-29T20:51	10	0	0.1	0	0	386	0.3	385	387	16.0	74.6
2025-08-29T20:52	10	0	0.1	0	0	386	0.2	386	386	16.1	74.3
2025-08-29T20:53	10	0	0.1	0	0	386	0.2	385	387	16.1	73.3
2025-08-29T20:54	10	0	0.1	0	0	386	0.3	385	386	16.1	73.4
2025-08-29T20:55	10	0	0.1	0	0	386	0.2	385	386	16.2	72.7
2025-08-29T20:56	10	0	0.1	0	0	386	0.3	385	387	16.1	73.4
2025-08-29T20:57	10	0	0.1	0	0	386	0.2	385	386	16.1	72.0
2025-08-29T20:58	10	0	0.1	0	1	386	0.3	385	386	16.2	69.8
2025-08-29T20:59	10	0	0.1	0	0	386	0.2	385	386	16.2	69.0
2025-08-29T21:00	10	0	0.1	0	0	386	0.2	385	386	16.3	68.2
2025-08-29T21:01	10	0	0.1	0	0	386	0.3	385	386	16.2	68.8
2025-08-29T21:02	10	0	0.1	0	0	386	0.3	385	386	16.1	69.0
2025-08-29T21:03	10	0	0.1	0	0	385	0.2	385	386	16.0	69.0
2025-08-29T21:04	10	0	0.1	0	0	386	0.3	385	386	16.1	67.2
2025-08-29T21:05	10	0	0.1	0	0	385	0.4	384	386	16.2	65.4
2025-08-29T21:06	10	0	0.1	0	1	385	0.3	384	385	16.1	66.2
2025-08-29T21:07	10	0	0.1	0	1	384	0.4	383	385	16.0	67.0
2025-08-29T21:08	10	0	0.1	0	0	383	0.4	383	384	15.8	67.8
2025-08-29T21:09	10	0	0.1	0	0	382	0.4	381	383	15.6	70.4
2025-08-29T21:10	10	0	0.1	0	0	382	0.4	381	383	15.3	72.2
2025-08-29T21:11	10	0	0.1	0	0	381	0.3	381	382	15.1	74.0
2025-08-29T21:12	10	0	0.1	0	0	380	0.3	380	381	14.8	76.1
2025-08-29T21:13	10	0	0.1	0	0	379	0.5	378	380	14.6	77.6
2025-08-29T21:14	10	-1	0.2	-1	0	379	0.3	378	379	14.4	79.0
2025-08-29T21:15	10	-1	0.1	-1	-1	379	0.2	378	379	14.2	80.6
2025-08-29T21:16	10	-1	0.1	-1	-1	379	0.3	378	379	14.1	80.8
2025-08-29T21:17	10	-1	0.1	-1	-1	378	0.2	378	379	13.9	82.6
2025-08-29T21:18	10	-1	0.1	-1	0	378	0.3	378	379	13.9	82.2
2025-08-29T21:19	10	-1	0.1	-1	-1	378	0.4	377	379	13.8	83.6
2025-08-29T21:20	10	-1	0.1	-1	0	378	0.3	377	379	13.8	83.4
2025-08-29T21:21	10	0	0.1	-1	0	378	0.3	377	379	13.8	83.7
2025-08-29T21:22	10	0	0.1	0	0	378	0.3	377	378	13.8	82.7
2025-08-29T21:23	10	0	0.1	0	0	378	0.3	377	378	13.9	82.0
2025-08-29T21:24	10	0	0.1	0	0	377	0.2	377	378	13.9	82.7
2025-08-29T21:25	10	0	0.1	0	0	378	0.3	377	378	13.8	83.3
2025-08-29T21:26	10	0	0.1	0	0	377	0.2	377	378	13.8	83.7
2025-08-29T21:27	10	0	0.1	0	0	377	0.2	377	378	13.7	83.7
2025-08-29T21:28	10	0	0.1	0	0	377	0.3	377	378	13.8	82.9
2025-08-29T21:29	10	0	0.1	0	0	377	0.2	377	378	13.7	83.9
2025-08-29T21:30	10	0	0.1	0	0	377	0.4	377	378	13.7	84.0
2025-08-29T21:31	10	0	0.1	0	0	377	0.3	377	378	13.7	84.4
2025-08-29T21:32	10	0	0.0	0	0	377	0.3	377	378	13.7	84.1
2025-08-29T21:33	10	0	0.0	0	0	377	0.2	377	378	13.6	84.4
2025-08-29T21:34	10	0	0.0	0	0	377	0.2	377	378	13.7	83.9
2025-08-29T21:35	10	0	0.0	0	0	377	0.2	377	378	13.6	85.0
2025-08-29T21:36	10	0	0.1	0	0	377	0.2	377	378	13.6	84.9
2025-08-29T21:37	10	0	0.0	0	0	377	0.4	377	378	13.6	84.6
2025-08-29T21:38	10	0	0.0	0	0	377	0.3	376	378	13.6	85.0
2025-08-29T21:39	10	0	0.1	0	0	377	0.2	376	377	13.6	85.6
2025-08-29T21:40	10	0	0.0	0	0	377	0.2	377	378	13.6	85.5
2025-08-29T21:41	10	0	0.0	0	0	377	0.2	376	377	13.6	85.6
2025-08-29T21:42	10	0	0.1	0	0	377	0.2	376	377	13.5	86.3
2025-08-29T21:43	10	0	0.0	0	0	376	0.2	376	377	13.5	86.6
2025-08-29T21:44	10	0	0.0	0	0	376	0.2	376	377	13.4	87.0
2025-08-29T21:45	10	0	0.1	0	0	376	0.2	376	377	13.5	86.7
2025-08-29T21:46	10	0	0.0	0	0	376	0.3	375	377	13.5	86.3
2025-08-29T21:47	10	0	0.1	0	0	376	0.3	375	376	13.5	86.6
2025-08-29T21:48	10	0	0.0	0	0	376	0.2	375	376	13.5	86.6
2025-08-29T21:49	10	0	0.1	0	0	376	0.2	375	376	13.5	86.4
2025-08-29T21:50	10	0	0.1	0	0	375	0.2	375	376	13.6	85.9
2025-08-29T21:51	10	0	0.0	0	0	376	0.3	375	376	13.5	86.4
2025-08-29T21:52	10	0	0.1	0	0	376	0.3	375	376	13.5	86.8
2025-08-29T21:53	10	0	0.1	0	0	376	0.3	375	376	13.5	86.0
2025-08-29T21:54	10	0	0.1	0	0	376	0.3	375	376	13.5	86.2
2025-08-29T21:55	10	0	0.1	0	0	375	0.3	375	376	13.5	86.4
2025-08-29T21:56	10	0	0.1	0	1	375	0.2	375	376	13.5	86.3
2025-08-29T21:57	10	0	0.1	0	0	375	0.3	375	376	13.5	86.3
2025-08-29T21:58	10	0	0.1	0	0	375	0.3	374	375	13.5	86.9
2025-08-29T21:59	10	0	0.1	0	0	374	0.2	374	375	13.5	86.3
2025-08-29T22:00	10	0	0.2	0	1	374	0.2	374	375	13.5	85.9
2025-08-29T22:01	10	0	0.1	0	1	374	0.3	373	375	13.5	85.7
2025-08-29T22:02	10	0	0.2	0	1	374	0.3	373	375	13.6	85.3
2025-08-29T22:03	10	0	0.2	0	0	374	0.3	374	375	13.6	84.4
2025-08-29T22:04	10	0	0.1	0	0	374	0.2	374	375	13.6	84.7
2025-08-29T22:05	10	0	0.2	0	0	374	0.2	373	374	13.6	85.1
2025-08-29T22:06	10	0	0.1	0	0	373	0.2	373	374	13.6	84.8
2025-08-29T22:07	10	0	0.1	0	0	373	0.3	372	373	13.5	85.8
2025-08-29T22:08	10	0	0.1	0	0	374	0.3	373	374	13.6	84.8
2025-08-29T22:09	10	0	0.1	0	0	373	0.2	373	374	13.6	84.5
2025-08-29T22:10	10	0	0.1	0	0	374	0.2	373	374	13.6	84.3
2025-08-29T22:11	10	0	0.1	0	0	373	0.3	372	373	13.5	84.9
2025-08-29T22:12	10	0	0.2	0	1	373	0.3	372	374	13.6	84.4
2025-08-29T22:13	10	0	0.1	0	0	372	0.2	372	373	13.5	85.0
2025-08-29T22:14	10	0	0.1	0	0	372	0.3	372	373	13.5	84.8
2025-08-29T22:15	10	0	0.1	0	0	373	0.2	372	373	13.6	84.0
2025-08-29T22:16	10	0	0.1	0	0	373	0.2	372	373	13.6	84.3
2025-08-29T22:17	10	0	0.1	0	0	372	0.2	372	373	13.4	85.4
2025-08-29T22:18	10	0	0.1	0	0	372	0.2	372	373	13.5	84.7
2025-08-29T22:19	10	0	0.1	0	0	372	0.3	371	372	13.4	85.3
2025-08-29T22:20	10	0	0.1	0	0	372	0.2	371	372	13.4	85.0
2025-08-29T22:21	10	0	0.1	0	0	372	0.2	371	373	13.4	84.7
2025-08-29T22:22	10	0	0.1	0	0	372	0.2	371	372	13.4	84.9
2025-08-29T22:23	10	0	0.0	0	0	371	0.3	371	372	13.4	85.4
2025-08-29T22:24	10	0	0.1	0	0	371	0.2	371	372	13.3	85.7
2025-08-29T22:25	10	0	0.0	0	0	372	0.2	371	372	13.4	85.2
2025-08-29T22:26	10	0	0.0	0	0	371	0.2	371	372	13.4	85.5
2025-08-29T22:27	10	0	0.1	0	0	371	0.2	371	372	13.3	85.7
2025-08-29T22:28	10	0	0.0	0	0	371	0.1	371	372	13.3	85.5
2025-08-29T22:29	10	0	0.1	0	0	371	0.3	371	372	13.4	85.3
2025-08-29T22:30	10	0	0.1	0	0	372	0.3	371	372	13.4	85.2
2025-08-29T22:31	10	0	0.1	0	0	372	0.3	372	373	13.6	83.7
2025-08-29T22:32	10	0	0.0	0	0	372	0.2	371	372	13.5	84.3
2025-08-29T22:33	10	0	0.1	0	0	372	0.3	371	373	13.5	84.7
2025-08-29T22:34	10	0	0.1	0	0	372	0.2	372	372	13.4	85.2
2025-08-29T22:35	10	0	0.1	0	0	372	0.3	371	373	13.4	85.4
2025-08-29T22:36	10	0	0.0	0	0	372	0.3	372	373	13.4	85.8
2025-08-29T22:37	10	0	0.1	0	0	372	0.2	371	372	13.3	86.3
2025-08-29T22:38	10	0	0.0	0	0	372	0.2	371	372	13.4	86.2
2025-08-29T22:39	10	0	0.1	0	0	372	0.3	371	372	13.3	86.6
2025-08-29T22:40	10	0	0.1	0	0	371	0.3	371	372	13.3	87.1
2025-08-29T22:41	10	0	0.1	0	0	371	0.3	371	372	13.3	87.2
2025-08-29T22:42	10	0	0.1	0	0	372	0.2	371	372	13.3	86.9
2025-08-29T22:43	10	0	0.1	0	0	372	0.2	372	373	13.3	87.0
2025-08-29T22:44	10	0	0.1	0	0	372	0.2	371	372	13.3	86.8
2025-08-29T22:45	10	0	0.1	0	0	372	0.3	371	373	13.3	86.9
2025-08-29T22:46	10	0	0.1	0	0	372	0.3	371	372	13.3	87.4
2025-08-29T22:47	10	0	0.1	0	0	371	0.3	371	372	13.2	87.8
2025-08-29T22:48	10	0	0.1	0	0	371	0.2	371	372	13.3	87.6
2025-08-29T22:49	10	0	0.1	0	0	371	0.3	371	372	13.3	87.4
2025-08-29T22:50	10	0	0.1	0	0	371	0.4	370	372	13.2	88.1
2025-08-29T22:51	10	0	0.1	0	0	371	0.3	370	371	13.1	88.8
2025-08-29T22:52	10	0	0.1	0	0	371	0.3	370	371	13.1	88.8
2025-08-29T22:53	10	0	0.1	0	0	371	0.2	371	372	13.1	88.5
2025-08-29T22:54	10	0	0.0	0	0	371	0.3	371	372	13.2	88.2
2025-08-29T22:55	10	0	0.1	0	0	371	0.3	371	372	13.2	88.2
2025-08-29T22:56	10	0	0.1	0	0	371	0.3	371	372	13.3	87.8
2025-08-29T22:57	10	0	0.1	0	0	372	0.3	371	372	13.3	87.6
2025-08-29T22:58	10	0	0.1	0	0	372	0.2	371	372	13.4	87.2
2025-08-29T22:59	10	0	0.1	0	0	372	0.2	372	373	13.4	87.4
2025-08-29T23:00	10	0	0.1	0	0	372	0.2	371	372	13.4	87.1
2025-08-29T23:01	10	0	0.1	0	0	372	0.3	371	373	13.4	87.3
2025-08-29T23:02	10	0	0.0	0	0	372	0.2	371	372	13.4	87.1
2025-08-29T23:03	10	0	0.1	0	0	372	0.2	372	372	13.4	87.0
2025-08-29T23:04	10	0	0.0	0	0	372	0.3	371	373	13.4	87.2
2025-08-29T23:05	10	0	0.1	0	0	372	0.2	371	372	13.4	87.7
2025-08-29T23:06	10	0	0.1	0	0	372	0.3	371	372	13.3	87.8
2025-08-29T23:07	10	0	0.0	0	0	372	0.2	371	372	13.4	87.9
2025-08-29T23:08	10	0	0.1	0	0	371	0.3	371	372	13.3	88.2
2025-08-29T23:09	10	0	0.1	0	0	372	0.2	371	372	13.3	88.3
2025-08-29T23:10	10	0	0.1	0	0	372	0.3	371	372	13.3	88.3
2025-08-29T23:11	10	0	0.1	0	0	372	0.2	372	372	13.4	88.0
2025-08-29T23:12	10	0	0.0	0	0	372	0.2	372	372	13.4	88.1
2025-08-29T23:13	10	0	0.1	0	0	372	0.2	371	372	13.3	88.3
2025-08-29T23:14	10	0	0.1	0	0	372	0.3	371	372	13.3	88.7
2025-08-29T23:15	10	0	0.1	0	0	372	0.3	371	372	13.3	88.7
2025-08-29T23:16	10	0	0.1	0	0	371	0.3	371	372	13.2	89.2
2025-08-29T23:17	10	0	0.1	0	0	372	0.2	371	372	13.3	88.8
2025-08-29T23:18	10	0	0.0	0	0	372	0.3	371	373	13.2	89.3
2025-08-29T23:19	10	0	0.1	0	0	372	0.2	371	372	13.2	89.2
2025-08-29T23:20	10	0	0.1	0	0	372	0.3	371	372	13.3	88.8
2025-08-29T23:21	10	0	0.1	0	0	372	0.3	371	372	13.3	89.0
2025-08-29T23:22	10	0	0.1	0	0	372	0.2	371	372	13.2	89.2
2025-08-29T23:23	10	0	0.1	0	0	371	0.4	371	372	13.3	89.1
2025-08-29T23:24	10	0	0.1	0	0	372	0.2	371	372	13.3	89.1
2025-08-29T23:25	10	0	0.1	0	0	372	0.2	371	372	13.3	88.9
2025-08-29T23:26	10	0	0.1	0	0	372	0.2	371	372	13.3	89.0
2025-08-29T23:27	10	0	0.0	0	0	372	0.3	371	373	13.3	89.1
2025-08-29T23:28	10	0	0.1	0	0	373	0.3	372	373	13.4	88.4
2025-08-29T23:29	10	0	0.4	0	2	373	0.3	372	373	13.4	88.6
2025-08-29T23:30	10	0	0.1	0	0	373	0.3	372	373	13.4	88.8
2025-08-29T23:31	10	0	0.1	0	0	374	0.2	373	374	13.4	88.4
2025-08-29T23:32	10	0	0.1	0	0	374	0.2	373	374	13.4	88.4
2025-08-29T23:33	10	0	0.1	0	0	374	0.3	373	375	13.4	88.4
2025-08-29T23:34	10	0	0.1	0	0	374	0.2	374	375	13.4	88.7
2025-08-29T23:35	10	0	0.1	0	0	374	0.3	373	375	13.4	88.5
2025-08-29T23:36	10	0	0.1	0	0	374	0.3	373	374	13.4	88.8
2025-08-29T23:37	10	0	0.1	0	0	374	0.3	373	374	13.4	89.0
2025-08-29T23:38	10	0	0.1	0	0	374	0.2	373	374	13.4	88.8
2025-08-29T23:39	10	0	0.1	0	0	374	0.3	373	374	13.4	88.8
2025-08-29T23:40	10	0	0.1	0	0	373	0.3	373	374	13.4	88.8
2025-08-29T23:41	10	0	0.1	0	0	373	0.3	372	374	13.4	88.9
2025-08-29T23:42	10	0	0.1	0	0	373	0.2	373	374	13.4	88.9
2025-08-29T23:43	10	0	0.1	0	0	373	0.3	372	373	13.4	89.2
2025-08-29T23:44	10	0	0.1	0	0	373	0.3	372	373	13.4	89.5
2025-08-29T23:45	10	0	0.0	0	0	372	0.3	372	373	13.4	89.6
2025-08-29T23:46	10	0	0.1	0	0	373	0.3	372	373	13.4	89.4
2025-08-29T23:47	10	0	0.1	0	0	373	0.4	372	374	13.4	89.7
2025-08-29T23:48	10	0	0.1	0	0	374	0.4	373	375	13.4	89.3
2025-08-29T23:49	10	0	0.1	0	0	375	0.3	374	375	13.4	89.3
2025-08-29T23:50	10	0	0.1	0	0	375	0.3	375	376	13.5	88.9
2025-08-29T23:51	10	0	0.1	0	0	375	0.2	375	376	13.6	88.6
2025-08-29T23:52	10	0	0.1	0	0	375	0.2	375	376	13.5	88.7
2025-08-29T23:53	10	0	0.1	0	0	375	0.2	375	376	13.5	88.6
2025-08-29T23:54	10	0	0.1	0	0	375	0.3	375	376	13.5	88.9
2025-08-29T23:55	10	0	0.1	0	0	375	0.2	374	375	13.5	88.8
2025-08-29T23:56	10	0	0.1	0	0	375	0.3	374	375	13.5	89.1
2025-08-29T23:57	10	0	0.1	0	0	375	0.2	374	376	13.5	89.0
2025-08-29T23:58	10	0	0.1	0	0	375	0.2	374	375	13.5	89.1
2025-08-29T23:59	10	0	0.1	0	0	375	0.3	375	376	13.4	89.1
2025-08-30T00:00	10	0	0.1	0	0	375	0.2	374	376	13.4	89.3
2025-08-30T00:01	10	0	0.1	0	0	375	0.2	375	376	13.4	89.7
2025-08-30T00:02	10	0	0.1	0	0	375	0.3	375	376	13.4	89.7
2025-08-30T00:03	10	0	0.1	0	0	375	0.2	375	376	13.4	89.5
2025-08-30T00:04	10	0	0.1	0	0	375	0.3	374	375	13.3	89.9
2025-08-30T00:05	10	0	0.1	0	0	375	0.3	374	376	13.3	89.9
2025-08-30T00:06	10	0	0.1	0	0	375	0.2	375	376	13.3	89.9
2025-08-30T00:07	10	0	0.1	0	0	375	0.2	375	376	13.3	90.2
2025-08-30T00:08	10	0	0.1	0	0	376	0.2	375	376	13.3	90.1
2025-08-30T00:09	10	0	0.1	0	0	376	0.3	375	376	13.3	90.2
2025-08-30T00:10	10	0	0.1	0	0	376	0.2	376	377	13.3	90.1
2025-08-30T00:11	10	0	0.1	0	0	376	0.2	376	377	13.3	89.9
2025-08-30T00:12	10	0	0.1	0	0	377	0.3	376	377	13.3	90.1
2025-08-30T00:13	10	0	0.1	0	0	377	0.2	376	377	13.3	90.0
2025-08-30T00:14	10	0	0.1	0	0	377	0.4	376	378	13.3	89.8
2025-08-30T00:15	10	0	0.1	0	0	376	0.3	376	377	13.4	89.2
2025-08-30T00:16	10	0	0.1	0	0	376	0.2	376	377	13.4	89.0
2025-08-30T00:17	10	0	0.1	0	0	377	0.2	376	377	13.6	87.2
2025-08-30T00:18	10	0	0.1	0	0	376	0.3	376	377	13.7	86.4
2025-08-30T00:19	10	0	0.1	0	0	376	0.4	376	377	13.8	85.8
2025-08-30T00:20	10	0	0.1	0	0	376	0.2	375	377	13.8	85.8
2025-08-30T00:21	10	0	0.1	0	0	376	0.2	375	377	13.9	84.9
2025-08-30T00:22	10	0	0.1	0	0	376	0.3	375	377	13.9	84.8
2025-08-30T00:23	10	0	0.1	0	0	376	0.3	375	377	14.0	84.2
2025-08-30T00:24	10	0	0.1	0	0	376	0.3	375	377	14.0	84.2
2025-08-30T00:25	10	0	0.1	0	0	376	0.3	376	377	14.0	83.9
2025-08-30T00:26	10	0	0.1	0	0	376	0.2	375	376	14.0	83.9
2025-08-30T00:27	10	0	0.1	0	0	376	0.3	375	377	13.9	85.2
2025-08-30T00:28	10	0	0.1	0	0	377	0.2	376	377	13.9	84.1
2025-08-30T00:29	10	0	0.1	0	0	377	0.3	376	377	13.9	84.1
2025-08-30T00:30	10	0	0.1	0	0	377	0.3	376	377	13.9	84.0
2025-08-30T00:31	10	0	0.1	0	0	377	0.2	376	377	14.0	83.9
2025-08-30T00:32	10	0	0.1	0	0	377	0.3	376	377	14.0	83.8
2025-08-30T00:33	10	0	0.1	0	0	377	0.3	376	377	13.9	83.9
2025-08-30T00:34	10	0	0.1	0	0	377	0.3	376	378	13.9	84.1
2025-08-30T00:35	10	0	0.1	0	0	376	0.3	376	377	13.9	83.9
2025-08-30T00:36	10	0	0.1	0	0	376	0.3	376	377	13.9	83.7
2025-08-30T00:37	10	0	0.1	0	0	376	0.3	375	376	14.1	82.4
2025-08-30T00:38	10	0	0.1	0	0	375	0.3	375	376	14.0	82.7
2025-08-30T00:39	10	0	0.1	0	0	375	0.2	374	376	14.0	82.3
2025-08-30T00:40	10	0	0.1	0	0	375	0.2	375	376	14.1	81.7
2025-08-30T00:41	10	0	0.1	0	0	375	0.3	374	376	14.0	82.5
2025-08-30T00:42	10	0	0.1	0	0	375	0.2	374	375	14.0	82.4
2025-08-30T00:43	10	0	0.1	0	0	375	0.3	375	376	13.9	82.6
2025-08-30T00:44	10	0	0.1	0	0	374	0.3	374	375	13.9	83.1
2025-08-30T00:45	10	0	0.1	0	0	375	0.2	374	375	13.9	83.1
2025-08-30T00:46	10	0	0.1	0	0	375	0.3	374	375	13.9	83.2
2025-08-30T00:47	10	0	0.1	0	0	375	0.3	374	375	13.9	82.3
2025-08-30T00:48	10	0	0.1	0	0	375	0.2	375	376	14.0	81.2
2025-08-30T00:49	10	0	0.1	0	0	375	0.2	374	375	13.9	82.4
2025-08-30T00:50	10	0	0.1	0	0	375	0.2	374	375	13.8	83.6
2025-08-30T00:51	10	0	0.1	0	0	375	0.3	374	375	13.8	83.4
2025-08-30T00:52	10	0	0.1	0	0	375	0.2	375	376	13.8	82.8
2025-08-30T00:53	10	0	0.1	0	0	375	0.2	375	376	13.8	82.7
2025-08-30T00:54	10	0	0.1	0	0	375	0.2	375	376	13.8	82.3
2025-08-30T00:55	10	0	0.0	0	0	375	0.2	375	376	13.8	82.4
2025-08-30T00:56	10	0	0.1	0	0	375	0.3	375	376	13.9	81.3
2025-08-30T00:57	10	0	0.1	0	0	375	0.3	375	375	13.8	82.0
2025-08-30T00:58	10	0	0.1	0	0	375	0.2	375	375	13.7	82.6
2025-08-30T00:59	10	0	0.1	0	0	375	0.3	374	376	13.8	82.1
2025-08-30T01:00	10	0	0.1	0	0	375	0.2	374	375	13.8	81.8
2025-08-30T01:01	10	0	0.1	0	0	375	0.2	374	375	13.9	81.4
2025-08-30T01:02	10	0	0.0	0	0	375	0.2	374	375	13.8	81.9
2025-08-30T01:03	10	0	0.1	0	0	375	0.2	374	375	13.8	82.2
2025-08-30T01:04	10	0	0.1	0	0	375	0.4	374	375	13.7	82.3
2025-08-30T01:05	10	0	0.1	0	0	375	0.3	374	376	13.8	82.2
2025-08-30T01:06	10	0	0.1	0	0	375	0.4	374	376	13.7	82.4
2025-08-30T01:07	10	0	0.1	0	0	376	0.2	375	376	13.7	82.4
2025-08-30T01:08	10	0	0.1	0	0	375	0.2	375	376	13.7	82.9
2025-08-30T01:09	10	0	0.1	0	0	375	0.2	375	376	13.7	82.6
2025-08-30T01:10	10	0	0.1	0	0	376	0.2	375	376	13.7	82.7
2025-08-30T01:11	10	0	0.1	0	0	375	0.2	375	376	13.7	83.2
2025-08-30T01:12	10	0	0.0	0	0	375	0.2	375	376	13.7	83.1
2025-08-30T01:13	10	0	0.1	0	0	376	0.2	375	376	13.8	82.2
2025-08-30T01:14	10	0	0.1	0	0	376	0.3	375	376	13.7	82.6
2025-08-30T01:15	10	0	0.1	0	0	376	0.3	375	377	13.7	82.8
2025-08-30T01:16	10	0	0.1	0	0	376	0.2	375	376	13.6	83.4
2025-08-30T01:17	10	0	0.1	0	0	376	0.3	376	377	13.7	82.2
2025-08-30T01:18	10	0	0.1	0	0	376	0.3	376	377	13.7	81.7
2025-08-30T01:19	10	0	0.1	0	0	376	0.2	376	377	13.8	81.5
2025-08-30T01:20	10	0	0.1	0	0	377	0.3	376	377	13.8	81.8
2025-08-30T01:21	10	0	0.1	0	0	376	0.2	376	377	13.7	81.9
2025-08-30T01:22	10	0	0.1	0	0	377	0.2	376	377	13.7	82.7
2025-08-30T01:23	10	0	0.1	0	0	377	0.2	376	377	13.7	82.9
2025-08-30T01:24	10	0	0.1	0	0	377	0.3	376	377	13.7	82.9
2025-08-30T01:25	10	0	0.1	0	0	377	0.2	376	377	13.7	83.0
2025-08-30T01:26	10	0	0.1	0	0	377	0.3	376	377	13.7	82.4
2025-08-30T01:27	10	0	0.1	0	0	377	0.2	376	377	13.7	82.2
2025-08-30T01:28	10	0	0.1	0	0	377	0.3	376	378	13.7	82.6
2025-08-30T01:29	10	0	0.0	0	0	377	0.3	376	377	13.7	82.6
2025-08-30T01:30	10	0	0.0	0	0	377	0.3	376	377	13.7	82.4
2025-08-30T01:31	10	0	0.0	0	0	377	0.2	376	377	13.7	82.1
2025-08-30T01:32	10	0	0.0	0	0	377	0.3	376	377	13.7	82.0
2025-08-30T01:33	10	0	0.0	0	0	377	0.2	376	377	13.7	81.9
2025-08-30T01:34	10	0	0.1	0	0	377	0.3	376	377	13.7	81.8
2025-08-30T01:35	10	0	0.1	0	0	377	0.2	376	377	13.7	81.8
2025-08-30T01:36	10	0	0.1	0	0	377	0.2	376	377	13.7	82.5
2025-08-30T01:37	10	0	0.0	0	0	377	0.3	376	377	13.6	83.0
2025-08-30T01:38	10	0	0.1	0	0	376	0.2	376	377	13.7	82.6
2025-08-30T01:39	10	0	0.1	0	0	376	0.2	376	377	13.6	83.2
2025-08-30T01:40	10	0	0.1	0	0	376	0.2	376	377	13.6	83.3
2025-08-30T01:41	10	0	0.1	0	0	376	0.2	376	377	13.6	83.6
2025-08-30T01:42	10	0	0.1	0	0	376	0.2	376	377	13.5	83.8
2025-08-30T01:43	10	0	0.1	0	0	376	0.3	375	377	13.5	84.3
2025-08-30T01:44	10	0	0.1	0	0	376	0.2	375	376	13.5	84.5
2025-08-30T01:45	10	0	0.1	0	0	376	0.3	375	376	13.4	84.9
2025-08-30T01:46	10	0	0.1	0	0	376	0.2	375	376	13.4	84.7
2025-08-30T01:47	10	0	0.1	0	0	376	0.2	375	376	13.5	84.6
2025-08-30T01:48	10	0	0.1	0	0	376	0.2	375	376	13.4	85.0
2025-08-30T01:49	10	0	0.1	0	0	376	0.2	375	376	13.4	84.9
2025-08-30T01:50	10	0	0.1	0	0	375	0.2	375	376	13.4	85.3
2025-08-30T01:51	10	0	0.1	0	0	376	0.2	375	376	13.4	85.3
2025-08-30T01:52	10	0	0.1	0	0	376	0.3	375	376	13.4	85.9
2025-08-30T01:53	10	0	0.1	0	0	376	0.4	375	377	13.4	86.0
2025-08-30T01:54	10	0	0.1	0	0	376	0.2	376	377	13.3	86.5
2025-08-30T01:55	10	0	0.1	0	0	376	0.2	376	377	13.3	86.8
2025-08-30T01:56	10	0	0.1	0	0	376	0.3	376	377	13.3	86.9
2025-08-30T01:57	10	0	0.1	0	0	376	0.3	376	377	13.3	86.9
2025-08-30T01:58	10	0	0.1	0	0	376	0.2	376	377	13.3	87.0
2025-08-30T01:59	10	0	0.1	0	0	376	0.2	376	377	13.3	87.2
2025-08-30T02:00	10	0	0.1	0	0	377	0.2	376	377	13.2	87.5
2025-08-30T02:01	10	0	0.1	0	0	377	0.3	376	377	13.3	87.0
2025-08-30T02:02	10	0	0.1	0	0	377	0.3	376	377	13.3	87.2
2025-08-30T02:03	10	0	0.1	0	0	377	0.2	376	377	13.3	86.9
2025-08-30T02:04	10	0	0.1	0	0	377	0.2	377	378	13.3	86.7
2025-08-30T02:05	10	0	0.1	0	0	377	0.3	376	378	13.3	86.7
2025-08-30T02:06	10	0	0.1	0	0	377	0.2	376	378	13.3	87.0
2025-08-30T02:07	10	0	0.1	0	0	377	0.2	376	377	13.4	86.5
2025-08-30T02:08	10	0	0.1	0	0	377	0.3	376	378	13.4	86.2
2025-08-30T02:09	10	0	0.1	0	0	377	0.2	377	377	13.4	86.4
2025-08-30T02:10	10	0	0.1	0	0	377	0.3	376	378	13.4	86.4
2025-08-30T02:11	10	0	0.1	0	0	377	0.2	377	377	13.4	86.7
2025-08-30T02:12	10	0	0.1	0	0	377	0.3	376	377	13.3	86.8
2025-08-30T02:13	10	0	0.0	0	0	377	0.2	377	377	13.3	86.9
2025-08-30T02:14	10	0	0.1	0	0	377	0.2	376	377	13.3	87.1
2025-08-30T02:15	10	0	0.1	0	0	377	0.2	376	377	13.3	87.1
2025-08-30T02:16	10	0	0.1	0	0	377	0.3	376	377	13.3	87.3
2025-08-30T02:17	10	0	0.1	0	0	377	0.2	376	377	13.3	87.6
2025-08-30T02:18	10	0	0.1	0	0	377	0.2	376	377	13.2	87.8
2025-08-30T02:19	10	0	0.1	0	0	377	0.2	376	377	13.2	87.5
2025-08-30T02:20	10	0	0.1	0	0	377	0.3	376	377	13.3	87.3
2025-08-30T02:21	10	0	0.1	0	0	376	0.3	376	377	13.3	86.8
2025-08-30T02:22	10	0	0.1	0	0	377	0.4	376	377	13.3	87.2
2025-08-30T02:23	10	0	0.1	0	0	377	0.2	376	377	13.2	87.6
2025-08-30T02:24	10	0	0.1	0	0	377	0.2	376	377	13.2	87.2
2025-08-30T02:25	10	0	0.1	0	0	377	0.2	376	377	13.2	87.7
2025-08-30T02:26	10	0	0.1	0	0	377	0.3	376	377	13.2	87.9
2025-08-30T02:27	10	0	0.1	0	0	377	0.2	376	377	13.2	88.4
2025-08-30T02:28	10	0	0.1	0	0	377	0.2	376	377	13.2	88.4
2025-08-30T02:29	10	0	0.1	0	0	377	0.2	376	377	13.2	88.9
2025-08-30T02:30	10	0	0.1	0	0	377	0.2	376	377	13.1	89.1
2025-08-30T02:31	10	0	0.1	0	0	377	0.2	376	377	13.1	89.7
2025-08-30T02:32	10	0	0.1	0	0	377	0.2	376	377	13.1	89.9
2025-08-30T02:33	10	0	0.1	0	0	377	0.2	376	377	13.1	90.0
2025-08-30T02:34	10	0	0.1	0	0	377	0.2	376	377	13.1	90.4
2025-08-30T02:35	10	0	0.1	0	0	377	0.3	376	377	13.1	90.7
2025-08-30T02:36	10	0	0.1	0	0	377	0.3	376	377	13.1	90.7
2025-08-30T02:37	10	0	0.1	0	0	377	0.2	376	377	13.1	90.9
2025-08-30T02:38	10	0	0.1	0	0	377	0.2	376	377	13.0	91.2
2025-08-30T02:39	10	0	0.1	0	0	377	0.2	376	377	13.0	91.3
2025-08-30T02:40	10	0	0.1	0	0	377	0.3	377	378	13.0	91.2
2025-08-30T02:41	10	0	0.1	0	0	377	0.2	376	377	13.1	90.8
2025-08-30T02:42	10	0	0.1	0	0	377	0.3	376	378	13.1	90.5
2025-08-30T02:43	10	0	0.1	0	0	377	0.2	377	377	13.1	90.6
2025-08-30T02:44	10	0	0.1	0	0	377	0.4	376	378	13.1	90.7
2025-08-30T02:45	10	0	0.0	0	0	377	0.2	377	378	13.1	90.9
2025-08-30T02:46	10	0	0.1	0	0	377	0.3	376	377	13.1	90.9
2025-08-30T02:47	10	0	0.1	0	0	377	0.2	377	378	13.1	90.9
2025-08-30T02:48	10	0	0.1	0	0	377	0.2	377	378	13.1	90.5
2025-08-30T02:49	10	0	0.1	0	0	377	0.2	376	377	13.1	89.9
2025-08-30T02:50	10	0	0.1	0	0	377	0.3	376	378	13.1	89.8
2025-08-30T02:51	10	0	0.1	0	0	377	0.2	377	378	13.1	89.6
2025-08-30T02:52	10	0	0.1	0	0	377	0.2	376	377	13.1	89.2
2025-08-30T02:53	10	0	0.1	0	0	377	0.2	376	377	13.1	88.8
2025-08-30T02:54	10	0	0.1	0	0	377	0.3	376	377	13.2	89.0
2025-08-30T02:55	10	0	0.1	0	0	377	0.2	376	377	13.1	89.1
2025-08-30T02:56	10	0	0.1	0	0	377	0.2	376	377	13.2	88.4
2025-08-30T02:57	10	0	0.1	0	0	377	0.2	377	378	13.2	88.4
2025-08-30T02:58	10	0	0.1	0	0	377	0.2	376	377	13.2	88.4
2025-08-30T02:59	10	0	0.1	0	0	377	0.2	376	377	13.2	88.4
2025-08-30T03:00	10	0	0.1	0	0	377	0.2	376	377	13.2	88.6
2025-08-30T03:01	10	0	0.1	0	0	377	0.2	376	377	13.2	88.8
2025-08-30T03:02	10	0	0.1	0	0	377	0.2	376	377	13.2	88.7
2025-08-30T03:03	10	0	0.1	0	0	377	0.3	376	377	13.1	89.0
2025-08-30T03:04	10	0	0.1	0	0	376	0.2	376	377	13.1	89.3
2025-08-30T03:05	10	0	0.1	0	0	377	0.2	376	377	13.1	89.4
2025-08-30T03:06	10	0	0.1	0	0	377	0.3	376	377	13.1	89.9
2025-08-30T03:07	10	0	0.1	0	0	377	0.2	376	377	13.1	90.1
2025-08-30T03:08	10	0	0.1	0	0	376	0.2	376	377	13.1	89.7
2025-08-30T03:09	10	0	0.1	0	0	377	0.2	376	377	13.1	89.8
2025-08-30T03:10	10	0	0.1	0	0	377	0.2	376	377	13.1	90.1
2025-08-30T03:11	10	0	0.1	0	0	376	0.2	376	377	13.1	89.8
2025-08-30T03:12	10	0	0.1	0	0	376	0.2	376	377	13.1	89.8
2025-08-30T03:13	10	0	0.1	0	0	376	0.2	376	377	13.1	89.9
2025-08-30T03:14	10	0	0.1	0	0	376	0.2	376	377	13.1	90.0
2025-08-30T03:15	10	0	0.1	0	0	376	0.2	376	377	13.1	89.6
2025-08-30T03:16	10	0	0.1	0	0	376	0.2	376	377	13.1	89.3
2025-08-30T03:17	10	0	0.1	0	0	376	0.2	376	377	13.1	89.3
2025-08-30T03:18	10	0	0.1	0	0	376	0.2	376	377	13.1	89.4
2025-08-30T03:19	10	0	0.1	0	0	376	0.2	376	377	13.1	89.2
2025-08-30T03:20	10	0	0.1	0	0	376	0.2	376	376	13.1	89.7
2025-08-30T03:21	10	0	0.1	0	0	376	0.2	376	377	13.1	89.8
2025-08-30T03:22	10	0	0.1	0	0	376	0.4	376	377	13.1	89.6
2025-08-30T03:23	10	0	0.1	0	0	376	0.3	375	377	13.1	89.2
2025-08-30T03:24	10	0	0.1	0	0	376	0.3	375	377	13.1	89.7
2025-08-30T03:25	10	0	0.1	0	0	376	0.3	375	377	13.1	89.8
2025-08-30T03:26	10	0	0.1	0	0	376	0.2	376	377	13.1	89.8
2025-08-30T03:27	10	0	0.1	0	0	376	0.2	376	377	13.1	90.0
2025-08-30T03:28	10	0	0.1	0	0	376	0.3	375	377	13.1	90.0
2025-08-30T03:29	10	0	0.1	0	0	376	0.3	375	376	13.1	89.9
2025-08-30T03:30	10	0	0.1	0	0	376	0.3	375	377	13.1	90.2
2025-08-30T03:31	10	0	0.1	0	0	376	0.3	375	376	13.1	90.2
2025-08-30T03:32	10	0	0.1	0	0	376	0.3	375	376	13.1	90.2
2025-08-30T03:33	10	0	0.1	0	0	376	0.2	376	376	13.1	89.4
2025-08-30T03:34	10	0	0.1	0	0	376	0.3	376	377	13.1	89.6
2025-08-30T03:35	10	0	0.1	0	0	376	0.2	376	377	13.1	90.0
2025-08-30T03:36	10	0	0.1	0	0	376	0.2	376	377	13.1	89.8
2025-08-30T03:37	10	0	0.1	0	0	376	0.2	376	377	13.2	89.1
2025-08-30T03:38	10	0	0.1	0	0	376	0.2	376	377	13.1	89.6
2025-08-30T03:39	10	0	0.1	0	0	376	0.2	376	377	13.1	89.7
2025-08-30T03:40	10	0	0.1	0	0	376	0.2	376	376	13.1	89.6
2025-08-30T03:41	10	0	0.1	0	0	376	0.2	376	377	13.1	89.9
2025-08-30T03:42	10	0	0.1	0	0	376	0.2	376	377	13.1	89.5
2025-08-30T03:43	10	0	0.1	0	0	376	0.2	376	377	13.1	89.3
2025-08-30T03:44	10	0	0.1	0	0	376	0.3	376	377	13.2	88.5
2025-08-30T03:45	10	0	0.1	0	0	376	0.2	375	376	13.2	88.9
2025-08-30T03:46	10	0	0.1	0	0	376	0.2	375	377	13.1	89.3
2025-08-30T03:47	10	0	0.1	0	0	376	0.2	376	376	13.1	89.5
2025-08-30T03:48	10	0	0.1	0	0	376	0.3	376	377	13.1	89.7
2025-08-30T03:49	10	0	0.1	0	0	376	0.2	376	377	13.1	90.1
2025-08-30T03:50	10	0	0.1	0	0	376	0.2	375	376	13.1	89.9
2025-08-30T03:51	10	0	0.1	0	0	376	0.2	375	376	13.1	90.3
2025-08-30T03:52	10	0	0.1	0	0	376	0.2	376	376	13.0	90.3
2025-08-30T03:53	10	0	0.1	0	0	376	0.3	375	376	13.0	90.7
2025-08-30T03:54	10	0	0.1	0	0	376	0.2	375	377	13.0	91.0
2025-08-30T03:55	10	0	0.1	0	0	376	0.2	375	376	13.0	90.7
2025-08-30T03:56	10	0	0.1	0	0	376	0.2	375	376	13.0	90.9
2025-08-30T03:57	10	0	0.1	0	0	376	0.2	376	377	13.0	90.6
2025-08-30T03:58	10	0	0.1	0	0	376	0.2	375	376	13.0	90.9
2025-08-30T03:59	10	0	0.1	0	0	376	0.2	375	376	13.0	90.4
2025-08-30T04:00	10	0	0.1	0	0	376	0.3	375	376	13.1	90.4
2025-08-30T04:01	10	0	0.1	0	0	376	0.3	375	376	13.0	90.8
2025-08-30T04:02	10	0	0.1	0	0	376	0.3	375	377	13.0	91.0
2025-08-30T04:03	10	0	0.1	0	0	376	0.2	375	376	13.0	91.6
2025-08-30T04:04	10	0	0.1	0	0	376	0.2	375	376	13.0	92.0
2025-08-30T04:05	10	0	0.1	0	0	376	0.2	375	376	13.0	92.2
2025-08-30T04:06	10	0	0.1	0	0	376	0.2	375	376	13.0	91.7
2025-08-30T04:07	10	0	0.1	0	0	376	0.2	376	376	13.0	92.1
2025-08-30T04:08	10	0	0.1	0	0	376	0.2	375	376	13.0	91.7
2025-08-30T04:09	10	0	0.1	0	0	376	0.2	375	376	13.0	91.7
2025-08-30T04:10	10	0	0.1	0	0	376	0.2	375	376	13.0	92.1
2025-08-30T04:11	10	0	0.1	0	0	376	0.2	376	377	13.0	92.2
2025-08-30T04:12	10	0	0.1	0	0	376	0.2	376	377	13.0	92.3
2025-08-30T04:13	10	0	0.1	0	0	376	0.2	375	376	12.9	92.3
2025-08-30T04:14	10	0	0.1	0	0	376	0.2	375	376	12.9	92.7
2025-08-30T04:15	10	0	0.1	0	0	376	0.2	375	377	12.9	92.3
2025-08-30T04:16	10	0	0.1	0	0	376	0.3	375	376	12.9	92.3
2025-08-30T04:17	10	0	0.1	0	0	376	0.2	376	376	12.9	92.8
2025-08-30T04:18	10	0	0.1	0	0	376	0.2	375	376	12.9	92.6
2025-08-30T04:19	10	0	0.1	0	0	376	0.2	376	376	13.0	92.7
2025-08-30T04:20	10	0	0.1	0	0	376	0.2	375	376	12.9	93.1
2025-08-30T04:21	10	0	0.1	0	0	376	0.2	376	376	12.9	92.9
2025-08-30T04:22	10	0	0.1	0	0	376	0.2	376	376	12.9	92.7
2025-08-30T04:23	10	0	0.1	0	0	376	0.2	376	376	12.9	92.7
2025-08-30T04:24	10	0	0.1	0	0	376	0.2	376	377	12.9	92.7
2025-08-30T04:25	10	0	0.1	0	0	376	0.3	376	377	12.9	92.6
2025-08-30T04:26	10	0	0.1	0	0	376	0.2	376	377	13.0	92.3
2025-08-30T04:27	10	0	0.1	0	0	376	0.2	376	377	12.9	92.4
2025-08-30T04:28	10	0	0.1	0	0	376	0.2	376	377	12.9	92.8
2025-08-30T04:29	10	0	0.1	0	0	377	0.2	376	377	12.9	92.9
2025-08-30T04:30	10	0	0.1	0	0	377	0.2	376	377	12.9	92.9
2025-08-30T04:31	10	0	0.1	0	0	377	0.2	376	377	13.0	92.6
2025-08-30T04:32	10	0	0.1	0	0	377	0.2	376	377	13.0	92.1
2025-08-30T04:33	10	0	0.1	0	0	377	0.2	376	377	13.0	92.0
2025-08-30T04:34	10	0	0.1	0	0	377	0.3	377	378	13.1	92.0
2025-08-30T04:35	10	0	0.1	0	0	377	0.2	377	377	13.1	91.5
2025-08-30T04:36	10	0	0.1	0	0	377	0.2	377	378	13.1	91.2
2025-08-30T04:37	10	0	0.1	0	0	377	0.2	377	378	13.1	91.3
2025-08-30T04:38	10	0	0.1	0	0	377	0.2	377	377	13.1	91.6
2025-08-30T04:39	10	0	0.1	0	0	377	0.2	376	377	13.1	92.1
2025-08-30T04:40	10	0	0.1	0	0	377	0.2	376	377	13.0	92.7
2025-08-30T04:41	10	0	0.1	0	0	377	0.2	377	378	13.0	92.8
2025-08-30T04:42	10	0	0.1	0	0	377	0.2	377	378	13.0	92.5
2025-08-30T04:43	10	0	0.1	0	0	377	0.1	377	377	13.0	92.8
2025-08-30T04:44	10	0	0.1	0	0	377	0.2	377	377	13.0	93.0
2025-08-30T04:45	10	0	0.1	0	0	377	0.2	377	378	13.0	92.6
2025-08-30T04:46	10	0	0.1	0	0	377	0.2	377	378	13.0	92.8
2025-08-30T04:47	10	0	0.1	0	0	377	0.2	377	378	13.0	92.5
2025-08-30T04:48	10	0	0.1	0	0	377	0.2	376	377	13.0	92.5
2025-08-30T04:49	10	0	0.1	0	0	377	0.2	377	378	13.0	92.8
2025-08-30T04:50	10	0	0.1	0	0	377	0.2	377	378	13.0	93.2
2025-08-30T04:51	10	0	0.1	0	0	377	0.2	377	378	13.0	93.0
2025-08-30T04:52	10	0	0.1	0	0	377	0.2	377	378	13.0	92.9
2025-08-30T04:53	10	0	0.1	0	0	377	0.2	377	378	13.0	93.1
2025-08-30T04:54	10	0	0.1	0	0	377	0.2	377	378	13.0	93.2
2025-08-30T04:55	10	0	0.1	0	0	377	0.2	377	378	13.0	93.0
2025-08-30T04:56	10	0	0.1	0	0	377	0.3	377	378	13.0	93.0
2025-08-30T04:57	10	0	0.1	0	0	377	0.2	377	378	13.0	93.3
2025-08-30T04:58	10	0	0.1	0	0	378	0.2	377	378	13.0	93.6
2025-08-30T04:59	10	0	0.1	0	0	378	0.2	377	378	13.0	93.6
2025-08-30T05:00	10	0	0.1	0	0	378	0.2	377	378	13.0	93.2
2025-08-30T05:01	10	0	0.1	0	0	378	0.2	377	378	13.0	93.2
2025-08-30T05:02	10	0	0.1	0	0	378	0.2	377	378	13.0	93.2
2025-08-30T05:03	10	0	0.1	0	0	378	0.2	377	378	13.0	93.1
2025-08-30T05:04	10	0	0.1	0	0	378	0.2	377	378	13.0	93.3
2025-08-30T05:05	10	0	0.1	0	0	378	0.2	377	378	13.0	93.5
2025-08-30T05:06	10	0	0.1	0	0	378	0.2	378	379	13.0	93.5
2025-08-30T05:07	10	0	0.1	0	0	378	0.2	378	379	13.0	93.4
2025-08-30T05:08	10	0	0.1	0	0	378	0.2	378	379	13.1	93.3
2025-08-30T05:09	10	0	0.1	0	1	378	0.2	378	379	13.1	93.5
2025-08-30T05:10	10	0	0.1	0	0	378	0.2	378	379	13.1	93.2
2025-08-30T05:11	10	0	0.1	0	1	378	0.2	378	379	13.1	93.2
2025-08-30T05:12	10	0	0.1	0	1	378	0.3	377	379	13.1	92.9
2025-08-30T05:13	10	0	0.1	0	1	378	0.2	378	379	13.1	92.9
2025-08-30T05:14	10	1	0.1	0	1	378	0.3	378	379	13.1	92.8
2025-08-30T05:15	10	1	0.1	0	1	379	0.2	378	379	13.1	92.8
2025-08-30T05:16	10	1	0.1	1	1	379	0.2	378	379	13.1	92.5
2025-08-30T05:17	10	1	0.1	1	1	379	0.2	378	379	13.1	92.6
2025-08-30T05:18	10	1	0.1	1	1	379	0.2	378	379	13.1	92.9
2025-08-30T05:19	10	1	0.1	1	2	379	0.2	379	380	13.1	92.7
2025-08-30T05:20	10	2	0.1	1	2	379	0.2	379	379	13.1	92.0
2025-08-30T05:21	10	2	0.1	2	2	379	0.3	379	380	13.2	91.1
2025-08-30T05:22	10	2	0.1	2	2	379	0.2	379	379	13.2	90.8
2025-08-30T05:23	10	2	0.2	2	3	379	0.3	379	380	13.2	91.5
2025-08-30T05:24	10	3	0.2	2	3	379	0.2	378	379	13.2	90.3
2025-08-30T05:25	10	3	0.1	3	3	379	0.2	379	380	13.3	90.1
2025-08-30T05:26	10	3	0.1	3	4	379	0.2	379	380	13.3	91.6
2025-08-30T05:27	10	3	0.1	3	4	379	0.2	379	380	13.2	92.7
2025-08-30T05:28	10	3	0.1	3	4	380	0.2	379	380	13.1	92.5
2025-08-30T05:29	10	3	0.1	3	3	379	0.2	379	380	13.2	91.4
2025-08-30T05:30	10	3	0.1	3	3	379	0.3	379	380	13.2	91.9
2025-08-30T05:31	10	3	0.1	2	3	379	0.3	379	380	13.2	92.0
2025-08-30T05:32	10	3	0.1	2	3	380	0.2	379	380	13.2	92.4
2025-08-30T05:33	10	3	0.1	2	3	380	0.2	379	380	13.2	92.7
2025-08-30T05:34	10	3	0.1	2	3	380	0.2	379	380	13.2	91.8
2025-08-30T05:35	10	3	0.1	3	3	380	0.2	379	380	13.2	92.4
2025-08-30T05:36	10	3	0.1	3	3	379	0.3	379	380	13.2	92.3
2025-08-30T05:37	10	3	0.1	3	3	380	0.2	379	380	13.2	92.5
2025-08-30T05:38	10	3	0.1	3	3	379	0.2	379	380	13.2	92.6
2025-08-30T05:39	10	3	0.1	3	3	379	0.2	379	380	13.2	92.4
2025-08-30T05:40	10	3	0.1	3	3	380	0.2	379	380	13.2	92.3
2025-08-30T05:41	10	3	0.1	3	3	379	0.3	379	380	13.2	91.8
2025-08-30T05:42	10	3	0.1	3	3	379	0.2	379	380	13.2	91.8
2025-08-30T05:43	10	3	0.1	3	4	379	0.3	379	380	13.2	92.0
2025-08-30T05:44	10	3	0.1	3	4	379	0.2	378	379	13.2	92.5
2025-08-30T05:45	10	4	0.1	3	4	379	0.2	378	380	13.2	92.5
2025-08-30T05:46	10	4	0.1	3	4	379	0.2	378	379	13.2	92.3
2025-08-30T05:47	10	4	0.1	3	4	379	0.2	378	379	13.2	91.9
2025-08-30T05:48	10	4	0.1	4	4	378	0.3	378	379	13.2	92.1
2025-08-30T05:49	10	4	0.1	4	4	378	0.3	377	379	13.2	92.2
2025-08-30T05:50	10	4	0.1	4	4	378	0.3	377	379	13.2	92.1
2025-08-30T05:51	10	4	0.1	4	5	378	0.2	377	378	13.2	92.2
2025-08-30T05:52	10	5	0.2	4	5	378	0.2	377	378	13.2	92.3
2025-08-30T05:53	10	5	0.2	5	6	378	0.3	377	378	13.2	92.7
2025-08-30T05:54	10	6	0.2	6	7	378	0.3	377	379	13.1	92.8
2025-08-30T05:55	10	7	0.3	7	8	378	0.3	378	379	13.2	92.4
2025-08-30T05:56	10	8	0.2	7	8	379	0.2	378	379	13.2	92.3
2025-08-30T05:57	10	9	0.2	8	9	379	0.3	378	379	13.2	92.3
2025-08-30T05:58	10	9	0.2	9	10	379	0.3	378	380	13.2	92.4
2025-08-30T05:59	10	10	0.1	9	10	380	0.3	379	380	13.2	92.4
2025-08-30T06:00	10	9	0.1	9	10	380	0.3	379	381	13.2	92.2
2025-08-30T06:01	10	9	0.1	9	9	380	0.2	380	381	13.2	91.7
2025-08-30T06:02	10	9	0.1	9	9	380	0.2	380	381	13.2	92.1
2025-08-30T06:03	10	9	0.1	9	10	381	0.4	380	381	13.2	92.1
2025-08-30T06:04	10	9	0.1	9	10	381	0.3	380	382	13.2	92.6
2025-08-30T06:05	10	10	0.1	9	10	381	0.2	381	382	13.2	93.0
2025-08-30T06:06	10	10	0.1	9	10	382	0.2	381	382	13.2	92.7
2025-08-30T06:07	10	9	0.1	9	10	382	0.2	381	382	13.3	92.4
2025-08-30T06:08	10	9	0.1	9	9	382	0.2	381	383	13.3	92.0
2025-08-30T06:09	10	9	0.1	8	9	382	0.3	381	382	13.3	91.4
2025-08-30T06:10	10	9	0.1	8	9	382	0.3	381	382	13.3	91.4
2025-08-30T06:11	10	8	0.1	8	9	382	0.3	381	383	13.3	92.0
2025-08-30T06:12	10	8	0.2	8	8	382	0.3	382	383	13.3	92.1
2025-08-30T06:13	10	7	0.1	7	8	382	0.4	381	383	13.3	91.9
2025-08-30T06:14	10	7	0.1	7	7	382	0.2	381	382	13.3	90.9
2025-08-30T06:15	10	7	0.1	7	8	381	0.4	380	382	13.3	90.0
2025-08-30T06:16	10	7	0.1	7	8	381	0.4	380	381	13.4	89.7
2025-08-30T06:17	10	8	0.2	7	8	381	0.2	380	381	13.4	88.8
2025-08-30T06:18	10	8	0.1	8	8	381	0.2	380	381	13.4	89.3
2025-08-30T06:19	10	9	0.2	8	9	381	0.2	380	381	13.4	89.1
2025-08-30T06:20	10	9	0.1	9	9	381	0.3	380	382	13.4	89.9
2025-08-30T06:21	10	9	0.1	9	9	381	0.2	381	382	13.4	90.3
2025-08-30T06:22	10	9	0.1	9	9	382	0.2	381	382	13.4	89.9
2025-08-30T06:23	10	9	0.1	8	9	382	0.2	381	382	13.4	90.1
2025-08-30T06:24	10	9	0.1	8	9	381	0.2	381	382	13.4	89.7
2025-08-30T06:25	10	9	0.1	8	9	382	0.3	381	382	13.4	89.9
2025-08-30T06:26	10	9	0.1	9	9	382	0.2	381	382	13.4	90.4
2025-08-30T06:27	10	9	0.1	9	9	382	0.2	381	382	13.4	89.7
2025-08-30T06:28	10	9	0.1	9	9	382	0.2	381	382	13.4	89.7
2025-08-30T06:29	10	9	0.1	9	9	382	0.3	381	382	13.4	89.7
2025-08-30T06:30	10	9	0.1	9	9	382	0.2	381	382	13.4	89.6
2025-08-30T06:31	10	8	0.1	8	9	381	0.3	381	382	13.4	89.9
2025-08-30T06:32	10	8	0.1	8	8	382	0.2	381	382	13.4	90.2
2025-08-30T06:33	10	8	0.1	7	8	382	0.2	381	382	13.4	90.1
2025-08-30T06:34	10	8	0.1	7	8	382	0.2	381	382	13.4	90.1
2025-08-30T06:35	10	8	0.1	7	8	381	0.2	381	382	13.4	90.2
2025-08-30T06:36	10	8	0.1	7	8	382	0.2	381	382	13.4	89.9
2025-08-30T06:37	10	8	0.1	8	8	382	0.2	381	382	13.4	89.9
2025-08-30T06:38	10	8	0.1	8	8	382	0.2	381	382	13.4	89.7
2025-08-30T06:39	10	9	0.3	8	9	381	0.3	381	382	13.4	88.4
2025-08-30T06:40	10	10	0.4	9	11	381	0.2	381	382	13.5	88.8
2025-08-30T06:41	10	11	0.4	11	12	382	0.2	382	382	13.5	89.1
2025-08-30T06:42	10	13	0.4	12	13	383	0.2	382	383	13.5	89.7
2025-08-30T06:43	10	14	0.3	13	14	383	0.2	383	383	13.5	89.0
2025-08-30T06:44	10	15	0.4	14	16	383	0.2	383	384	13.5	88.5
2025-08-30T06:45	10	16	0.4	16	17	384	0.4	383	385	13.6	88.3
2025-08-30T06:46	10	18	0.4	17	19	384	0.2	384	385	13.6	88.2
2025-08-30T06:47	10	19	0.4	18	20	384	0.3	384	385	13.6	88.4
2025-08-30T06:48	10	20	0.2	20	20	385	0.3	384	386	13.6	88.0
2025-08-30T06:49	10	20	0.1	20	21	386	0.4	385	387	13.6	88.5
2025-08-30T06:50	10	20	0.1	20	21	386	0.2	386	387	13.6	88.4
2025-08-30T06:51	10	20	0.2	19	20	386	0.3	386	387	13.7	88.5
2025-08-30T06:52	10	19	0.2	19	19	386	0.2	386	387	13.7	88.5
2025-08-30T06:53	10	18	0.2	18	19	386	0.2	386	387	13.7	87.8
2025-08-30T06:54	10	18	0.1	18	18	386	0.3	385	387	13.7	88.2
2025-08-30T06:55	10	18	0.1	18	18	386	0.2	386	387	13.7	88.4
2025-08-30T06:56	10	18	0.1	18	18	386	0.3	386	387	13.7	88.1
2025-08-30T06:57	10	18	0.1	18	18	387	0.3	386	387	13.8	88.4
2025-08-30T06:58	10	18	0.1	18	18	387	0.2	386	387	13.8	88.0
2025-08-30T06:59	10	18	0.1	17	18	387	0.3	386	387	13.8	87.9
2025-08-30T07:00	10	17	0.2	17	18	386	0.5	385	387	13.8	86.7
2025-08-30T07:01	10	17	0.1	17	17	386	0.3	385	386	13.8	86.7
2025-08-30T07:02	10	17	0.1	17	17	385	0.3	385	386	13.9	86.9
2025-08-30T07:03	10	17	0.2	17	18	385	0.3	384	386	13.9	87.3
2025-08-30T07:04	10	18	0.3	17	18	386	0.3	385	386	13.9	87.3
2025-08-30T07:05	10	19	0.3	18	19	386	0.3	386	387	13.9	87.2
2025-08-30T07:06	10	20	0.3	19	20	386	0.5	385	387	13.9	86.8
2025-08-30T07:07	10	21	0.2	20	21	386	0.4	386	387	13.9	86.9
2025-08-30T07:08	10	21	0.1	21	21	387	0.2	386	387	13.9	86.9
2025-08-30T07:09	10	21	0.1	21	21	386	0.3	386	387	13.9	86.6
2025-08-30T07:10	10	20	0.2	20	21	386	0.2	386	387	13.9	86.5
2025-08-30T07:11	10	20	0.2	20	20	386	0.3	386	387	13.9	86.4
2025-08-30T07:12	10	19	0.2	19	20	386	0.3	386	387	13.9	86.4
2025-08-30T07:13	10	19	0.2	18	19	387	0.3	386	387	13.9	87.0
2025-08-30T07:14	10	18	0.2	17	18	387	0.5	386	388	14.0	86.7
2025-08-30T07:15	10	17	0.2	17	18	386	0.2	386	387	14.0	86.6
2025-08-30T07:16	10	17	0.2	16	17	386	0.5	385	387	14.0	86.7
2025-08-30T07:17	10	16	0.1	16	17	385	0.2	385	386	13.9	86.4
2025-08-30T07:18	10	16	0.1	16	16	386	0.3	385	386	14.0	87.0
2025-08-30T07:19	10	16	0.1	16	16	386	0.3	385	387	14.0	86.4
2025-08-30T07:20	10	17	0.2	16	17	386	0.3	385	386	14.0	86.5
2025-08-30T07:21	10	17	0.1	17	17	386	0.4	385	386	14.0	86.2
2025-08-30T07:22	10	17	0.1	17	17	386	0.6	385	387	14.1	85.7
2025-08-30T07:23	10	17	0.1	17	17	386	0.5	385	387	14.1	86.1
2025-08-30T07:24	10	17	0.1	17	17	387	0.2	386	387	14.1	86.7
2025-08-30T07:25	10	18	0.3	17	18	387	0.2	387	388	14.1	86.4
2025-08-30T07:26	10	19	0.4	18	20	388	0.3	387	388	14.1	86.2
2025-08-30T07:27	10	20	0.4	19	21	388	0.2	387	389	14.1	86.5
2025-08-30T07:28	10	21	0.3	21	22	388	0.2	387	388	14.2	85.8
2025-08-30T07:29	10	23	0.4	22	23	388	0.5	388	389	14.2	85.0
2025-08-30T07:30	10	24	0.3	23	24	389	0.3	389	390	14.3	85.5
2025-08-30T07:31	10	25	0.4	24	25	390	0.3	390	391	14.3	85.8
2025-08-30T07:32	10	26	0.4	25	27	391	0.2	390	391	14.3	85.7
2025-08-30T07:33	10	28	0.5	27	29	391	0.5	391	392	14.4	85.1
2025-08-30T07:34	10	29	0.4	29	30	393	0.2	392	393	14.4	85.2
2025-08-30T07:35	10	30	0.1	30	30	392	0.2	391	393	14.4	84.7
2025-08-30T07:36	10	31	0.1	30	31	392	0.2	392	393	14.4	84.8
2025-08-30T07:37	10	30	0.4	29	31	392	0.2	392	392	14.4	84.9
2025-08-30T07:38	10	28	0.6	27	29	392	0.2	392	392	14.4	85.4
2025-08-30T07:39	10	27	0.4	26	27	392	0.4	391	393	14.5	85.0
2025-08-30T07:40	10	25	0.5	24	26	392	0.3	391	392	14.4	84.1
2025-08-30T07:41	10	23	0.9	22	25	390	0.5	389	391	14.4	83.7
2025-08-30T07:42	10	21	0.6	20	22	390	0.3	389	391	14.4	84.1
2025-08-30T07:43	10	19	0.4	19	20	389	0.8	388	391	14.5	84.3
2025-08-30T07:44	10	18	0.2	18	19	389	0.3	388	389	14.4	84.1
2025-08-30T07:45	10	18	0.1	18	18	388	0.3	388	389	14.5	83.6
2025-08-30T07:46	10	18	0.2	18	18	388	0.3	388	389	14.5	83.8
2025-08-30T07:47	10	18	0.1	18	19	388	0.4	388	389	14.5	84.2
2025-08-30T07:48	10	18	0.1	18	18	388	0.3	387	389	14.5	83.8
2025-08-30T07:49	10	18	0.1	18	18	388	0.3	387	388	14.4	83.8
2025-08-30T07:50	10	18	0.2	18	19	388	0.4	387	389	14.5	84.9
2025-08-30T07:51	10	19	0.2	18	19	388	0.3	388	389	14.5	85.3
2025-08-30T07:52	10	20	0.3	19	20	388	0.4	388	389	14.4	84.6
2025-08-30T07:53	10	20	0.3	20	21	388	0.3	387	388	14.4	84.5
2025-08-30T07:54	10	21	0.4	21	22	388	0.6	387	389	14.4	84.9
2025-08-30T07:55	10	23	0.4	22	23	389	0.5	388	390	14.4	85.1
2025-08-30T07:56	10	24	0.3	23	24	390	0.4	389	390	14.4	84.7
2025-08-30T07:57	10	25	0.2	24	25	390	0.3	389	390	14.4	84.8
2025-08-30T07:58	10	25	0.2	24	25	390	0.4	389	391	14.5	85.3
2025-08-30T07:59	10	25	0.2	24	25	391	0.5	390	392	14.5	84.8
2025-08-30T08:00	10	24	0.2	24	25	391	0.2	390	392	14.5	85.4
2025-08-30T08:01	10	24	0.2	23	24	391	0.3	390	391	14.5	85.0
2025-08-30T08:02	10	24	0.2	23	24	390	0.3	389	391	14.5	83.8
2025-08-30T08:03	10	24	0.2	23	24	390	0.4	389	390	14.5	84.1
2025-08-30T08:04	10	24	0.2	24	25	390	0.5	389	391	14.5	84.7
2025-08-30T08:05	10	25	0.3	25	26	390	0.3	390	391	14.4	84.8
2025-08-30T08:06	10	26	0.3	26	27	391	0.5	390	392	14.4	84.9
2025-08-30T08:07	10	27	0.4	26	28	392	0.4	391	392	14.5	85.5
2025-08-30T08:08	10	28	0.4	28	29	393	0.6	392	394	14.5	85.4
2025-08-30T08:09	10	30	0.4	29	31	392	0.8	391	394	14.5	83.6
2025-08-30T08:10	10	31	0.3	30	31	392	0.6	391	393	14.6	83.5
2025-08-30T08:11	10	31	0.3	31	32	393	0.6	392	395	14.6	84.3
2025-08-30T08:12	10	32	0.3	31	32	394	0.7	393	395	14.6	83.5
2025-08-30T08:13	10	32	0.3	32	33	393	0.5	392	393	14.7	82.5
2025-08-30T08:14	10	33	0.4	33	34	392	0.2	392	393	14.7	82.7
2025-08-30T08:15	10	35	0.4	34	36	393	0.5	392	394	14.7	82.8
2025-08-30T08:16	10	36	0.5	35	37	394	0.5	393	395	14.7	83.2
2025-08-30T08:17	10	38	0.3	37	38	395	0.3	394	396	14.8	83.7
2025-08-30T08:18	10	38	0.1	38	38	394	0.3	394	395	14.8	83.1
2025-08-30T08:19	10	38	0.2	37	38	395	0.4	394	396	14.8	83.7
2025-08-30T08:20	10	37	0.1	37	38	396	0.6	395	397	14.8	83.6
2025-08-30T08:21	10	38	0.3	38	39	396	0.6	395	397	14.8	83.9
2025-08-30T08:22	10	40	0.7	39	41	395	0.5	394	396	14.8	82.9
2025-08-30T08:23	10	42	0.9	41	44	395	0.2	395	396	14.8	82.6
2025-08-30T08:24	10	46	0.9	44	47	396	0.4	395	397	14.8	82.3
2025-08-30T08:25	10	49	0.7	47	50	395	0.5	395	396	14.8	81.6
2025-08-30T08:26	10	50	0.3	50	51	396	0.3	396	397	14.8	82.2
2025-08-30T08:27	10	51	0.2	51	52	397	0.6	396	398	14.8	81.5
2025-08-30T08:28	10	53	0.6	52	54	396	0.5	395	397	14.7	81.4
2025-08-30T08:29	10	53	0.1	53	53	397	0.4	396	397	14.7	81.3
2025-08-30T08:30	10	53	0.1	53	53	396	0.3	396	397	14.8	81.5
2025-08-30T08:31	10	53	0.1	53	53	397	0.5	396	397	14.8	80.8
2025-08-30T08:32	10	53	0.2	52	53	396	0.3	395	396	14.7	80.5
2025-08-30T08:33	10	53	0.6	52	54	396	0.4	395	397	14.8	80.5
2025-08-30T08:34	10	55	1.2	53	57	397	0.3	397	398	14.8	80.9
2025-08-30T08:35	10	54	0.5	53	55	398	0.4	397	399	14.8	81.1
2025-08-30T08:36	10	59	3.7	55	69	399	1.0	397	401	14.8	78.3
2025-08-30T08:37	10	65	1.6	63	69	400	0.8	399	401	14.8	79.9
2025-08-30T08:38	10	64	1.3	63	67	398	0.5	398	399	14.6	77.2
2025-08-30T08:39	10	70	1.6	67	73	400	1.4	398	402	14.8	79.9
2025-08-30T08:40	10	74	0.5	73	75	403	0.6	402	404	14.8	79.9
2025-08-30T08:41	10	82	3.9	76	88	405	0.9	403	406	14.8	79.9
2025-08-30T08:42	10	95	3.7	88	102	407	0.9	405	408	14.8	79.9
2025-08-30T08:43	10	97	1.8	93	99	407	1.1	405	409	14.8	79.9
2025-08-30T08:44	10	86	8.6	77	100	407	1.6	405	410	14.9	79.3
2025-08-30T08:45	10	86	4.8	78	93	407	1.1	406	409	15.3	79.4
2025-08-30T08:46	10	94	9.7	82	111	409	1.1	408	411	15.3	79.4
2025-08-30T08:47	10	84	4.6	79	92	410	0.9	408	411	15.5	80.3
2025-08-30T08:48	10	75	2.6	73	84	410	1.6	406	412	15.7	80.1
2025-08-30T08:49	10	78	4.9	74	94	405	1.3	403	408	15.5	78.3
2025-08-30T08:50	10	104	7.8	92	117	407	1.4	404	409	15.3	78.6
2025-08-30T08:51	10	101	8.9	89	114	409	0.6	408	411	15.5	78.5
2025-08-30T08:52	10	80	3.8	77	93	405	2.1	402	409	15.4	76.8
2025-08-30T08:53	10	81	10.7	67	101	405	1.2	403	407	15.4	77.2
2025-08-30T08:54	10	66	0.7	65	67	404	0.4	403	405	15.5	77.4
2025-08-30T08:55	10	66	0.9	65	68	403	1.1	401	405	15.5	77.0
2025-08-30T08:56	10	62	2.0	58	67	402	0.4	401	403	15.5	77.0
2025-08-30T08:57	10	60	1.8	57	62	401	0.4	400	402	15.6	77.0
2025-08-30T08:58	10	71	4.4	62	78	402	1.0	401	404	15.6	76.1
2025-08-30T08:59	10	111	21.8	76	153	406	3.6	401	412	15.6	75.6
2025-08-30T09:00	10	155	2.0	147	157	415	1.7	410	416	15.7	75.3
2025-08-30T09:01	10	150	3.6	143	153	416	0.8	414	418	15.8	75.6
2025-08-30T09:02	10	151	0.2	151	152	420	1.9	417	424	15.9	75.4
2025-08-30T09:03	10	153	0.9	151	154	421	1.8	418	424	16.3	75.8
2025-08-30T09:04	10	154	1.1	152	156	421	1.7	418	424	16.1	74.6
2025-08-30T09:05	10	156	6.3	143	164	424	0.7	423	425	16.2	74.8
2025-08-30T09:06	10	164	4.6	155	170	425	1.7	423	429	16.2	75.3
2025-08-30T09:07	10	120	43.1	71	171	424	6.0	416	432	16.4	74.4
2025-08-30T09:08	10	110	17.2	83	140	420	1.2	417	422	16.4	74.4
2025-08-30T09:09	10	84	6.5	76	95	417	3.0	412	422	16.5	73.7
2025-08-30T09:10	10	76	0.4	75	76	412	0.6	411	414	16.1	73.8
2025-08-30T09:11	10	78	1.4	76	81	411	0.7	410	412	16.0	73.4
2025-08-30T09:12	10	82	2.5	79	85	412	1.0	411	414	16.1	74.2
2025-08-30T09:13	10	94	5.1	86	101	413	1.6	411	416	16.0	74.0
2025-08-30T09:14	10	91	1.7	88	96	415	0.8	413	416	16.2	74.6
2025-08-30T09:15	10	96	7.9	88	117	413	0.5	412	414	16.1	73.8
2025-08-30T09:16	10	91	7.5	82	107	413	0.9	411	414	16.1	74.9
2025-08-30T09:17	10	82	0.4	82	84	414	0.3	414	415	16.2	74.3
2025-08-30T09:18	10	84	0.8	83	86	415	0.4	414	416	16.4	75.0
2025-08-30T09:19	10	82	0.8	80	83	413	0.7	412	415	16.3	74.7
2025-08-30T09:20	10	79	1.0	78	81	412	1.3	410	414	16.2	74.4
2025-08-30T09:21	10	76	0.7	75	78	412	0.7	411	413	16.1	74.6
2025-08-30T09:22	10	75	0.2	75	76	411	0.5	410	412	16.0	74.5
2025-08-30T09:23	10	77	1.0	76	81	410	0.5	409	411	16.1	74.0
2025-08-30T09:24	10	84	4.5	76	92	410	1.2	409	413	16.0	73.6
2025-08-30T09:25	10	75	0.9	73	76	411	0.7	410	413	16.2	73.7
2025-08-30T09:26	10	73	0.6	72	74	410	0.3	409	411	16.2	72.7
2025-08-30T09:27	10	76	0.7	74	77	409	0.9	408	410	16.2	73.5
2025-08-30T09:28	10	76	1.5	74	80	409	0.7	408	410	16.1	73.9
2025-08-30T09:29	10	72	0.5	71	74	409	0.6	408	410	16.2	73.4
2025-08-30T09:30	10	73	1.5	71	76	409	1.0	407	410	16.2	73.4
2025-08-30T09:31	10	85	6.4	76	97	409	1.8	407	413	16.0	74.1
2025-08-30T09:32	10	132	34.7	90	186	417	6.5	410	429	16.2	74.6
2025-08-30T09:33	10	108	25.8	81	153	425	3.4	419	429	16.5	74.9
2025-08-30T09:34	10	83	0.9	82	84	416	2.7	413	421	16.5	74.2
2025-08-30T09:35	10	86	1.7	84	91	414	0.5	413	415	16.3	74.0
2025-08-30T09:36	10	103	5.1	91	108	414	0.5	413	415	16.1	73.7
2025-08-30T09:37	10	116	8.9	106	133	416	1.1	414	417	16.1	73.4
2025-08-30T09:38	10	112	5.3	99	118	419	0.8	417	420	16.2	73.9
2025-08-30T09:39	10	95	2.0	91	99	420	0.7	418	421	16.4	74.0
2025-08-30T09:40	10	104	10.3	91	129	419	0.8	418	421	16.5	72.2
2025-08-30T09:41	10	152	16.1	123	175	424	2.3	419	426	16.4	72.2
2025-08-30T09:42	10	103	8.3	92	122	422	2.3	418	426	16.5	72.6
2025-08-30T09:43	10	82	6.9	75	94	416	1.8	413	420	16.3	72.3
2025-08-30T09:44	10	74	0.7	73	75	414	0.8	412	415	16.3	72.7
2025-08-30T09:45	10	72	0.8	70	73	413	0.4	412	414	16.2	72.7
2025-08-30T09:46	10	69	0.8	67	70	413	1.0	412	414	16.4	73.3
2025-08-30T09:47	10	66	0.9	64	67	412	0.4	412	414	16.5	73.9
2025-08-30T09:48	10	63	0.4	63	64	414	0.8	413	415	16.8	73.4
2025-08-30T09:49	10	69	4.1	63	76	413	0.8	411	414	16.7	71.8
2025-08-30T09:50	10	58	2.8	53	63	409	1.7	407	412	16.4	71.7
2025-08-30T09:51	10	51	1.6	48	53	406	1.1	404	408	16.2	71.8
2025-08-30T09:52	10	46	1.1	44	48	403	0.8	402	405	16.2	71.4
2025-08-30T09:53	10	43	0.6	42	44	402	0.5	401	403	16.1	71.3
2025-08-30T09:54	10	42	0.2	42	43	403	0.3	403	404	16.2	71.7
2025-08-30T09:55	10	44	0.6	43	45	403	0.5	403	404	16.2	72.4
2025-08-30T09:56	10	46	0.8	45	47	404	0.4	403	405	16.2	71.9
2025-08-30T09:57	10	49	0.8	47	50	404	0.6	403	405	16.2	72.3
2025-08-30T09:58	10	52	1.0	50	53	405	0.5	404	406	16.2	72.5
2025-08-30T09:59	10	58	3.3	53	66	407	0.8	406	408	16.3	72.5
2025-08-30T10:00	10	85	20.8	67	137	411	2.8	407	418	16.3	72.2
2025-08-30T10:01	10	97	33.2	59	150	419	2.6	413	423	16.5	72.4
2025-08-30T10:02	10	56	1.8	53	59	412	1.3	410	415	16.6	70.8
2025-08-30T10:03	10	51	1.1	49	53	409	0.9	408	411	16.5	70.2
2025-08-30T10:04	10	47	1.0	46	49	408	0.6	406	408	16.6	71.5
2025-08-30T10:05	10	44	0.8	43	46	407	0.3	406	407	16.6	71.5
2025-08-30T10:06	10	42	0.8	41	43	406	1.1	405	408	16.6	71.3
2025-08-30T10:07	10	39	0.6	39	41	404	0.5	403	406	16.5	71.6
2025-08-30T10:08	10	38	0.2	38	39	403	0.8	401	404	16.5	70.5
2025-08-30T10:09	10	39	0.3	38	39	402	0.3	402	403	16.5	71.1
2025-08-30T10:10	10	40	0.6	39	41	402	0.2	402	403	16.5	69.9
2025-08-30T10:11	10	42	1.0	41	44	403	0.4	402	404	16.5	70.5
2025-08-30T10:12	10	47	1.4	44	49	403	0.7	402	404	16.5	69.4
2025-08-30T10:13	10	52	1.7	49	55	404	0.3	403	405	16.5	70.3
2025-08-30T10:14	10	61	2.8	55	65	406	1.1	404	407	16.5	70.2
2025-08-30T10:15	10	64	0.8	63	66	408	0.6	407	409	16.6	70.4
2025-08-30T10:16	10	65	0.7	63	66	408	0.5	407	409	16.6	70.0
2025-08-30T10:17	10	71	5.9	66	90	409	0.8	408	412	16.6	70.2
2025-08-30T10:18	10	112	16.9	78	136	419	3.7	410	423	16.7	70.9
2025-08-30T10:19	10	71	1.9	70	77	417	1.1	415	421	16.9	70.2
2025-08-30T10:20	10	73	1.9	70	77	414	0.6	413	416	17.1	68.9
2025-08-30T10:21	10	86	5.2	78	104	415	0.6	414	416	17.0	67.8
2025-08-30T10:22	10	179	34.4	108	206	425	6.3	415	435	17.0	66.8
2025-08-30T10:23	10	194	10.0	157	199	437	1.9	433	440	17.1	67.0
2025-08-30T10:24	10	168	22.3	121	191	434	2.0	430	437	17.2	66.3
2025-08-30T10:25	10	76	13.2	65	118	424	5.6	415	436	17.3	66.8
2025-08-30T10:26	10	70	4.8	65	80	416	0.8	415	418	17.1	66.9
2025-08-30T10:27	10	62	4.0	57	70	414	2.6	410	417	17.0	67.6
2025-08-30T10:28	10	55	1.0	54	57	411	0.4	410	412	16.9	68.3
2025-08-30T10:29	10	51	2.7	48	57	410	0.8	408	412	17.0	67.8
2025-08-30T10:30	10	46	1.2	44	48	407	0.8	406	409	16.9	67.9
2025-08-30T10:31	10	42	0.9	41	44	406	0.4	405	407	16.8	68.3
2025-08-30T10:32	10	40	0.7	38	41	405	0.4	404	406	16.8	68.8
2025-08-30T10:33	10	37	0.6	36	38	406	0.4	405	407	16.9	69.6
2025-08-30T10:34	10	36	0.6	34	36	406	0.3	406	407	16.9	70.6
2025-08-30T10:35	10	34	0.5	33	35	404	0.9	403	406	16.9	70.1
2025-08-30T10:36	10	33	0.3	32	33	403	0.3	403	404	16.8	69.8
2025-08-30T10:37	10	32	0.1	32	32	404	0.3	404	405	16.8	70.4
2025-08-30T10:38	10	32	0.1	32	32	405	0.3	404	405	16.8	70.4
2025-08-30T10:39	10	33	0.4	32	33	405	0.4	404	406	16.9	71.0
2025-08-30T10:40	10	34	0.3	33	35	405	0.3	404	405	16.9	70.9
2025-08-30T10:41	10	35	0.2	35	35	405	0.2	405	406	16.9	71.3
2025-08-30T10:42	10	35	0.1	35	36	404	0.8	402	405	16.8	69.3
2025-08-30T10:43	10	35	0.2	34	35	403	0.3	403	404	16.8	69.8
2025-08-30T10:44	10	34	0.1	34	35	404	0.7	403	405	16.9	70.1
2025-08-30T10:45	10	34	0.3	34	35	405	0.5	404	405	17.0	70.3
2025-08-30T10:46	10	36	0.7	35	37	404	0.4	404	405	17.0	70.0
2025-08-30T10:47	10	38	0.5	37	39	405	0.6	403	405	16.9	69.5
2025-08-30T10:48	10	41	1.0	39	42	405	0.4	404	405	16.9	70.1
2025-08-30T10:49	10	45	1.7	42	48	404	0.4	403	405	16.8	68.8
2025-08-30T10:50	10	127	60.3	48	184	414	9.4	404	430	16.9	69.2
2025-08-30T10:51	10	185	1.1	183	187	434	3.2	426	438	17.1	69.1
2025-08-30T10:52	10	192	2.7	185	196	438	1.6	435	442	17.4	68.0
2025-08-30T10:53	10	187	10.1	162	201	442	1.1	441	444	17.7	67.4
2025-08-30T10:54	10	187	13.8	144	212	444	2.8	442	450	17.5	66.0
2025-08-30T10:55	10	124	36.8	78	198	443	4.7	433	449	17.8	66.7
2025-08-30T10:56	10	72	3.2	67	78	428	3.4	423	436	17.6	66.6
2025-08-30T10:57	10	63	2.3	59	67	421	1.8	418	425	17.6	66.4
2025-08-30T10:58	10	57	1.3	55	59	418	0.8	417	420	17.5	67.1
2025-08-30T10:59	10	58	2.1	55	62	417	0.4	416	418	17.4	66.9
2025-08-30T11:00	10	57	1.2	56	61	417	0.6	416	419	17.5	67.8
2025-08-30T11:01	10	55	0.8	54	56	416	1.8	412	418	17.5	65.6
2025-08-30T11:02	10	53	0.8	51	54	412	0.7	411	414	17.4	64.0
2025-08-30T11:03	10	50	0.5	49	51	413	0.5	411	413	17.4	64.3
2025-08-30T11:04	10	49	0.3	49	50	411	0.6	410	412	17.3	64.8
2025-08-30T11:05	10	51	0.8	50	53	410	0.4	410	411	17.2	66.0
2025-08-30T11:06	10	54	1.1	53	56	411	0.4	410	412	17.2	67.2
2025-08-30T11:07	10	58	1.2	56	60	413	1.1	411	415	17.2	69.2
2025-08-30T11:08	10	62	0.9	60	63	415	0.3	414	416	17.3	68.6
2025-08-30T11:09	10	63	0.3	63	64	416	0.9	415	418	17.3	69.2
2025-08-30T11:10	10	64	0.3	64	64	418	0.4	417	418	17.4	68.4
2025-08-30T11:11	10	65	0.5	64	66	417	0.3	417	418	17.4	67.3
2025-08-30T11:12	10	68	1.7	66	72	418	1.0	417	420	17.5	66.6
2025-08-30T11:13	10	77	3.2	73	82	421	1.3	419	423	17.6	66.1
2025-08-30T11:14	10	82	2.2	79	88	421	0.9	420	423	17.7	66.6
2025-08-30T11:15	10	145	42.3	89	193	428	6.3	420	439	17.7	63.6
2025-08-30T11:16	10	171	10.0	153	185	438	1.0	436	439	17.8	62.3
2025-08-30T11:17	10	188	3.7	183	193	440	2.4	436	445	17.8	59.4
2025-08-30T11:18	10	191	3.4	184	194	447	1.2	445	448	17.9	58.7
2025-08-30T11:19	10	186	6.9	173	195	448	1.4	445	450	17.8	58.1
2025-08-30T11:20	10	166	17.0	137	190	448	2.0	442	450	18.1	59.3
2025-08-30T11:21	10	147	25.7	114	200	444	2.0	441	450	18.1	59.9
2025-08-30T11:22	10	170	37.3	95	200	452	4.4	442	458	18.5	61.2
2025-08-30T11:23	10	74	6.2	68	91	433	6.5	424	446	18.4	61.3
2025-08-30T11:24	10	89	5.9	81	105	427	0.8	426	429	18.0	61.0
2025-08-30T11:25	10	117	21.3	85	155	432	3.5	427	437	17.9	60.1
2025-08-30T11:26	10	138	18.2	119	185	439	2.3	436	445	17.7	59.2
2025-08-30T11:27	10	179	3.0	175	185	447	1.3	444	449	17.9	59.7
2025-08-30T11:28	10	173	1.1	168	175	452	2.0	448	455	18.0	61.0
2025-08-30T11:29	10	126	23.5	79	168	446	5.1	438	455	18.1	62.3
2025-08-30T11:30	10	143	29.4	76	172	442	2.4	434	445	17.9	63.0
2025-08-30T11:31	10	131	43.4	62	177	437	4.7	430	443	17.8	63.4
2025-08-30T11:32	10	113	24.8	73	162	436	4.2	429	442	17.9	63.5
2025-08-30T11:33	10	76	21.0	52	116	429	3.3	423	433	17.9	64.3
2025-08-30T11:34	10	64	12.0	52	91	423	2.4	418	426	17.7	63.2
2025-08-30T11:35	10	87	21.1	56	117	423	3.8	418	430	17.5	64.2
2025-08-30T11:36	10	93	14.5	72	125	428	0.8	427	430	17.8	65.8
2025-08-30T11:37	10	138	24.5	100	171	432	2.5	428	435	17.7	63.0
2025-08-30T11:38	10	151	22.4	100	179	440	5.6	431	446	17.8	64.6
2025-08-30T11:39	10	90	12.6	73	112	436	3.5	430	443	17.8	63.6
2025-08-30T11:40	10	105	19.9	76	134	432	2.2	428	435	17.8	63.6
2025-08-30T11:41	10	64	11.9	51	87	430	3.0	424	433	18.0	64.5
2025-08-30T11:42	10	49	1.6	46	51	423	1.3	421	425	18.0	63.1
2025-08-30T11:43	10	45	0.3	45	46	420	0.5	420	422	17.9	64.1
2025-08-30T11:44	10	45	0.1	45	45	419	0.6	418	420	18.0	64.1
2025-08-30T11:45	10	44	0.9	42	45	417	1.0	415	419	17.9	63.6
2025-08-30T11:46	10	41	1.0	39	43	415	0.5	414	415	17.8	64.2
2025-08-30T11:47	10	38	0.5	37	39	413	0.4	412	414	17.8	64.8
2025-08-30T11:48	10	37	0.2	37	37	412	0.3	411	413	17.8	64.5
2025-08-30T11:49	10	37	0.1	37	37	411	0.5	410	412	17.7	64.4
2025-08-30T11:50	10	37	0.3	37	38	411	0.4	410	412	17.7	64.3
2025-08-30T11:51	10	39	1.0	38	41	411	0.3	411	412	17.7	64.0
2025-08-30T11:52	10	45	2.0	41	50	413	0.9	411	414	17.7	63.2
2025-08-30T11:53	10	66	13.7	50	95	417	3.1	413	424	17.8	63.8
2025-08-30T11:54	10	128	15.0	97	159	431	4.3	422	438	17.8	63.8
2025-08-30T11:55	10	138	29.7	91	203	438	3.5	434	448	17.9	63.3
2025-08-30T11:56	10	187	24.2	122	206	453	3.3	445	457	18.1	62.8
2025-08-30T11:57	10	78	14.6	71	126	441	5.8	433	453	18.5	63.7
2025-08-30T11:58	10	88	18.0	73	133	434	1.6	431	437	18.4	62.2
2025-08-30T11:59	10	146	31.4	99	190	444	3.1	436	448	18.4	62.7
2025-08-30T12:00	10	134	28.0	99	187	442	2.3	438	447	18.5	62.6
2025-08-30T12:01	10	160	19.0	134	197	448	3.6	444	455	18.4	61.8
2025-08-30T12:02	10	183	14.3	162	198	455	2.3	452	459	18.7	61.8
2025-08-30T12:03	10	102	27.2	67	167	444	5.2	434	455	18.5	59.6
2025-08-30T12:04	10	62	2.2	60	67	431	2.3	428	437	18.5	60.5
2025-08-30T12:05	10	60	0.3	60	61	427	1.0	426	430	18.6	60.8
2025-08-30T12:06	10	62	1.3	61	66	426	0.8	425	428	18.4	60.1
2025-08-30T12:07	10	65	1.8	62	68	428	0.5	427	429	18.7	62.7
2025-08-30T12:08	10	59	1.3	57	62	427	0.6	426	428	18.6	61.3
2025-08-30T12:09	10	56	0.9	54	57	425	0.6	424	426	18.4	60.2
2025-08-30T12:10	10	52	1.9	48	54	423	0.8	422	425	18.4	61.7
2025-08-30T12:11	10	45	1.4	43	48	422	0.6	421	423	18.4	62.3
2025-08-30T12:12	10	42	0.9	40	43	420	1.0	419	422	18.5	61.6
2025-08-30T12:13	10	39	0.4	39	40	419	0.2	419	420	18.4	60.3
2025-08-30T12:14	10	39	0.4	39	40	420	0.2	419	420	18.4	61.6
2025-08-30T12:15	10	42	1.3	40	45	420	0.4	419	420	18.5	62.4
2025-08-30T12:16	10	47	1.5	45	50	421	0.5	420	422	18.5	62.5
2025-08-30T12:17	10	51	0.8	50	52	421	0.5	420	422	18.6	61.9
2025-08-30T12:18	10	54	1.2	52	57	422	0.6	421	423	18.6	59.8
2025-08-30T12:19	10	59	1.0	57	60	423	0.5	422	424	18.6	56.0
2025-08-30T12:20	10	61	0.7	60	63	421	1.4	419	423	18.6	54.7
2025-08-30T12:21	10	64	1.0	62	66	422	1.3	419	424	18.6	55.1
2025-08-30T12:22	10	58	1.8	56	61	422	0.4	422	424	18.7	55.4
2025-08-30T12:23	10	55	0.3	54	56	422	0.4	421	422	18.9	55.7
2025-08-30T12:24	10	55	0.2	55	56	421	0.9	419	422	18.8	53.2
2025-08-30T12:25	10	55	0.3	55	56	419	0.5	418	420	18.8	53.0
2025-08-30T12:26	10	60	4.3	56	68	420	1.0	419	422	18.7	52.7
2025-08-30T12:27	10	113	49.8	65	187	428	7.4	421	443	18.9	54.7
2025-08-30T12:28	10	80	22.2	70	166	431	6.2	424	443	18.8	55.2
2025-08-30T12:29	10	108	22.6	73	138	429	3.7	424	434	18.7	54.9
2025-08-30T12:30	10	91	5.8	82	103	432	0.6	430	433	18.7	55.2
2025-08-30T12:31	10	80	6.0	74	93	429	1.8	427	432	18.8	54.6
2025-08-30T12:32	10	85	18.2	69	121	429	2.2	426	434	18.8	54.3
2025-08-30T12:33	10	75	13.3	60	109	431	2.6	426	434	19.1	55.5
2025-08-30T12:34	10	62	2.0	60	67	425	0.9	424	427	19.0	54.3
2025-08-30T12:35	10	74	11.5	65	114	426	1.0	425	429	18.9	54.2
2025-08-30T12:36	10	158	15.3	119	175	437	4.9	428	445	19.0	54.2
2025-08-30T12:37	10	171	2.7	165	174	445	1.2	443	447	19.0	55.1
2025-08-30T12:38	10	166	0.7	165	168	445	0.8	444	446	19.0	55.1
2025-08-30T12:39	10	163	1.7	157	165	443	1.2	442	445	18.9	55.3
2025-08-30T12:40	10	159	1.1	156	160	444	1.3	442	447	18.9	55.7
2025-08-30T12:41	10	158	0.2	158	159	449	1.1	447	451	19.4	57.5
2025-08-30T12:42	10	156	3.0	149	159	447	1.3	446	450	19.3	55.3
2025-08-30T12:43	10	159	0.5	158	159	448	1.2	447	451	19.1	55.3
2025-08-30T12:44	10	159	0.5	159	160	455	1.6	451	457	19.5	56.7
2025-08-30T12:45	10	154	8.9	135	162	453	1.7	451	456	19.7	56.8
2025-08-30T12:46	10	165	3.1	157	169	451	0.5	450	453	19.5	55.8
2025-08-30T12:47	10	79	46.7	46	170	440	9.3	427	454	19.2	55.8
2025-08-30T12:48	10	110	39.7	56	178	435	4.0	429	441	19.0	55.6
2025-08-30T12:49	10	87	20.0	47	120	434	1.6	432	437	18.8	56.3
2025-08-30T12:50	10	68	35.1	43	142	429	2.7	426	437	18.8	57.0
2025-08-30T12:51	10	70	39.1	34	139	430	6.2	421	438	19.0	56.7
2025-08-30T12:52	10	34	0.2	34	35	420	1.4	418	423	18.8	57.2
2025-08-30T12:53	10	34	0.3	34	35	418	0.5	417	419	18.9	57.5
2025-08-30T12:54	10	33	0.5	33	34	416	0.7	415	417	18.7	55.8
2025-08-30T12:55	10	32	0.4	31	32	415	0.3	415	416	18.7	56.6
2025-08-30T12:56	10	31	0.2	31	32	415	0.2	414	415	18.7	57.6
2025-08-30T12:57	10	32	0.4	31	33	414	0.3	413	415	18.7	57.6
2025-08-30T12:58	10	32	0.2	32	33	415	0.5	414	416	18.7	58.1
2025-08-30T12:59	10	31	0.7	30	32	415	0.6	414	416	18.7	58.3
2025-08-30T13:00	10	29	0.3	29	30	416	0.4	415	417	18.8	58.9
2025-08-30T13:01	10	28	0.2	28	29	415	0.9	414	416	18.8	57.9
2025-08-30T13:02	10	28	0.3	28	29	414	0.3	413	414	18.7	56.4
2025-08-30T13:03	10	30	0.7	29	31	414	0.3	413	414	18.6	56.9
2025-08-30T13:04	10	33	0.9	31	34	415	0.5	413	415	18.6	57.2
2025-08-30T13:05	10	36	1.3	34	38	415	0.6	414	417	18.7	57.6
2025-08-30T13:06	10	41	1.8	38	45	417	0.6	415	418	18.7	57.7
2025-08-30T13:07	10	49	2.5	45	53	419	1.0	417	421	18.7	58.3
2025-08-30T13:08	10	59	4.3	53	68	421	0.9	420	423	18.8	57.5
2025-08-30T13:09	10	109	25.9	68	148	430	6.8	421	441	18.9	57.3
2025-08-30T13:10	10	99	4.9	92	111	437	0.6	436	439	19.0	57.5
2025-08-30T13:11	10	95	3.5	87	103	436	0.8	435	438	19.1	57.3
2025-08-30T13:12	10	82	2.5	80	89	434	0.6	434	436	19.0	57.3
2025-08-30T13:13	10	89	8.5	82	108	433	1.1	431	435	18.9	58.5
2025-08-30T13:14	10	88	4.7	82	105	432	0.9	431	434	19.0	54.3
2025-08-30T13:15	10	76	2.4	73	81	432	0.5	431	433	19.3	52.7
2025-08-30T13:16	10	71	1.4	68	73	432	0.8	430	433	19.2	51.4
2025-08-30T13:17	10	67	0.6	66	68	430	0.7	429	431	19.3	54.8
2025-08-30T13:18	10	65	0.7	64	66	430	0.4	428	430	19.1	57.3
2025-08-30T13:19	10	62	0.6	61	64	428	0.4	427	429	19.3	55.5
2025-08-30T13:20	10	61	0.4	60	62	426	1.5	423	428	19.4	53.2
2025-08-30T13:21	10	59	0.7	58	60	423	0.6	422	424	19.3	53.1
2025-08-30T13:22	10	57	0.5	56	58	424	1.0	421	425	19.4	52.7
2025-08-30T13:23	10	56	0.3	55	56	420	0.6	419	422	19.2	51.4
2025-08-30T13:24	10	55	0.1	55	56	419	0.3	418	420	19.1	51.5
2025-08-30T13:25	10	56	0.2	55	56	419	0.9	418	421	19.1	52.0
2025-08-30T13:26	10	57	0.3	56	57	419	0.3	419	420	19.1	51.8
2025-08-30T13:27	10	56	0.4	55	57	420	0.7	419	421	19.1	51.6
2025-08-30T13:28	10	56	0.6	55	57	420	0.5	419	421	19.2	51.9
2025-08-30T13:29	10	60	4.5	55	70	420	0.5	419	421	19.3	50.3
2025-08-30T13:30	10	55	0.2	55	56	419	0.9	417	421	19.2	50.0
2025-08-30T13:31	10	56	0.2	55	56	417	0.4	416	417	19.1	51.0
2025-08-30T13:32	10	58	0.5	56	58	418	1.1	416	420	19.0	51.4
2025-08-30T13:33	10	56	1.0	54	58	420	0.6	419	421	19.0	51.0
2025-08-30T13:34	10	54	0.3	54	55	419	0.5	418	420	19.1	50.7
2025-08-30T13:35	10	59	3.4	55	68	420	0.4	419	420	19.2	51.3
2025-08-30T13:36	10	108	24.6	69	143	426	4.5	418	430	19.2	51.4
2025-08-30T13:37	10	68	8.2	59	83	427	1.2	425	429	19.4	52.3
2025-08-30T13:38	10	63	4.3	59	75	424	0.4	424	425	19.4	51.7
2025-08-30T13:39	10	102	25.4	75	170	431	4.8	424	442	19.5	52.8
2025-08-30T13:40	10	157	27.2	72	180	446	2.7	439	449	19.7	52.3
2025-08-30T13:41	10	56	4.7	51	71	430	7.0	420	444	19.8	50.9
2025-08-30T13:42	10	50	0.7	49	51	421	0.9	419	423	19.3	49.9
2025-08-30T13:43	10	50	0.7	48	51	419	0.3	418	420	19.3	51.1
2025-08-30T13:44	10	47	0.7	46	48	419	0.4	418	420	19.4	51.8
2025-08-30T13:45	10	45	0.7	44	46	419	0.6	417	420	19.4	52.2
2025-08-30T13:46	10	43	0.5	42	44	416	1.0	414	418	19.2	52.2
2025-08-30T13:47	10	43	0.3	42	43	416	0.3	415	416	19.2	52.7
2025-08-30T13:48	10	44	0.4	43	45	415	0.4	414	416	19.1	52.7
2025-08-30T13:49	10	45	0.2	45	46	415	0.6	414	416	19.1	53.7
2025-08-30T13:50	10	47	1.0	45	49	416	0.4	415	417	19.1	54.3
2025-08-30T13:51	10	58	10.4	49	92	417	1.7	415	421	19.1	54.7
2025-08-30T13:52	10	157	21.0	95	175	433	7.7	418	443	19.2	54.2
2025-08-30T13:53	10	169	8.8	150	178	444	2.8	440	448	19.3	54.1
2025-08-30T13:54	10	107	18.6	88	149	440	4.5	433	447	19.5	54.4
2025-08-30T13:55	10	97	13.3	78	121	435	1.5	431	437	19.5	54.6
2025-08-30T13:56	10	73	7.7	59	80	430	1.1	428	433	19.5	54.7
2025-08-30T13:57	10	53	2.8	49	59	427	1.4	425	430	19.6	55.0
2025-08-30T13:58	10	46	1.6	43	49	423	1.5	421	426	19.6	55.3
2025-08-30T13:59	10	42	0.8	40	43	420	1.4	418	423	19.5	55.7
2025-08-30T14:00	10	39	0.5	39	40	417	1.1	416	420	19.4	56.2
2025-08-30T14:01	10	39	0.1	39	39	416	0.8	414	417	19.2	55.7
2025-08-30T14:02	10	39	0.2	39	39	416	0.3	415	416	19.1	55.8
2025-08-30T14:03	10	40	0.2	39	40	417	0.4	416	417	19.2	56.4
2025-08-30T14:04	10	40	0.1	40	40	416	0.3	416	417	19.1	55.2
2025-08-30T14:05	10	40	0.1	39	40	417	0.9	416	419	19.2	56.3
2025-08-30T14:06	10	40	0.2	39	40	419	0.4	418	420	19.3	56.7
2025-08-30T14:07	10	41	0.5	40	42	418	0.4	417	419	19.2	55.0
2025-08-30T14:08	10	42	0.5	42	43	419	0.6	418	420	19.4	56.8
2025-08-30T14:09	10	44	0.6	43	45	419	0.6	417	420	19.4	56.3
2025-08-30T14:10	10	46	0.5	45	47	418	0.4	417	419	19.3	54.4
2025-08-30T14:11	10	47	0.3	47	48	420	0.5	418	421	19.3	54.8
2025-08-30T14:12	10	48	0.2	48	48	420	0.4	419	420	19.4	54.2
2025-08-30T14:13	10	49	0.2	48	49	419	0.7	418	420	19.4	53.4
2025-08-30T14:14	10	49	0.1	48	49	419	0.7	418	420	19.3	53.7
2025-08-30T14:15	10	49	0.1	49	49	417	0.6	417	419	19.2	53.1
2025-08-30T14:16	10	49	0.2	49	50	417	0.4	416	418	19.2	54.0
2025-08-30T14:17	10	50	0.4	50	51	418	0.4	417	418	19.2	54.4
2025-08-30T14:18	10	52	0.5	51	53	419	1.0	417	420	19.2	54.1
2025-08-30T14:19	10	53	0.5	52	54	421	0.6	419	421	19.2	54.2
2025-08-30T14:20	10	55	0.3	54	55	421	0.4	420	422	19.3	54.4
2025-08-30T14:21	10	55	0.1	55	55	422	0.6	420	423	19.3	54.8
2025-08-30T14:22	10	54	0.3	54	55	422	0.9	420	423	19.3	54.8
2025-08-30T14:23	10	54	0.3	53	54	422	0.3	421	422	19.3	54.0
2025-08-30T14:24	10	52	0.3	52	53	421	0.7	419	422	19.3	54.2
2025-08-30T14:25	10	51	0.5	50	52	420	0.3	420	421	19.2	54.5
2025-08-30T14:26	10	48	0.8	47	50	420	0.5	419	421	19.3	54.5
2025-08-30T14:27	10	46	0.8	44	47	418	0.3	418	419	19.3	54.1
2025-08-30T14:28	10	43	0.7	42	45	419	0.4	418	420	19.4	56.0
2025-08-30T14:29	10	41	0.2	41	42	419	0.3	419	420	19.4	54.9
2025-08-30T14:30	10	42	0.6	41	44	419	0.3	419	420	19.3	55.7
2025-08-30T14:31	10	44	0.3	44	45	418	1.2	416	420	19.2	55.5
2025-08-30T14:32	10	47	1.3	45	50	418	0.5	416	418	19.0	56.7
2025-08-30T14:33	10	53	3.8	48	58	419	0.5	418	420	19.0	57.9
2025-08-30T14:34	10	75	16.7	57	117	422	1.9	420	427	19.0	58.3
2025-08-30T14:35	10	145	9.8	118	156	435	5.5	424	442	19.1	58.7
2025-08-30T14:36	10	127	9.0	108	136	440	1.2	438	442	19.3	58.3
2025-08-30T14:37	10	104	7.8	88	110	438	1.6	436	441	19.4	58.6
2025-08-30T14:38	10	109	14.5	91	132	435	1.0	433	437	19.6	56.3
2025-08-30T14:39	10	98	9.8	88	119	433	1.5	431	435	19.5	54.9
2025-08-30T14:40	10	119	16.0	92	147	435	2.9	431	440	19.7	54.5
2025-08-30T14:41	10	139	12.4	112	156	439	0.6	438	440	19.6	52.6
2025-08-30T14:42	10	83	10.0	71	110	433	3.6	428	439	19.6	53.0
2025-08-30T14:43	10	69	10.2	60	94	428	2.7	423	431	19.6	53.6
2025-08-30T14:44	10	59	0.7	58	60	422	1.1	421	425	19.3	55.1
2025-08-30T14:45	10	58	0.1	58	58	422	0.6	421	424	19.2	56.1
2025-08-30T14:46	10	58	0.3	57	59	421	0.9	420	423	19.1	55.8
2025-08-30T14:47	10	63	4.4	59	72	422	0.6	421	423	19.1	56.1
2025-08-30T14:48	10	55	3.8	51	62	422	0.4	421	422	19.2	57.9
2025-08-30T14:49	10	49	1.6	46	51	419	1.0	417	421	19.0	59.5
2025-08-30T14:50	10	45	0.8	44	47	416	0.5	415	417	18.6	60.1
2025-08-30T14:51	10	44	0.2	43	44	417	0.3	416	417	18.7	60.7
2025-08-30T14:52	10	43	0.2	42	43	417	0.4	417	418	18.8	60.8
2025-08-30T14:53	10	42	0.2	42	43	416	0.8	415	418	18.8	60.7
2025-08-30T14:54	10	42	0.1	42	42	416	0.4	415	417	18.7	61.7
2025-08-30T14:55	10	42	0.1	42	42	415	0.8	414	416	18.7	62.0
2025-08-30T14:56	10	42	0.1	42	42	414	0.4	413	415	18.5	61.5
2025-08-30T14:57	10	42	0.1	42	43	415	0.4	414	416	18.5	61.4
2025-08-30T14:58	10	42	0.1	42	43	414	0.6	413	415	18.5	59.9
2025-08-30T14:59	10	42	0.1	42	43	414	0.3	413	414	18.5	60.1
2025-08-30T15:00	10	42	0.1	42	42	415	0.8	414	417	18.5	60.5
2025-08-30T15:01	10	42	0.1	42	42	416	0.5	415	417	18.5	60.9
2025-08-30T15:02	10	42	0.1	42	42	416	0.6	414	417	18.5	61.0
2025-08-30T15:03	10	42	0.1	42	42	415	0.4	414	416	18.5	61.2
2025-08-30T15:04	10	42	0.2	41	42	414	0.4	414	415	18.5	60.5
2025-08-30T15:05	10	41	0.1	41	42	414	0.4	413	415	18.5	59.9
2025-08-30T15:06	10	41	0.1	41	41	414	0.3	413	414	18.5	60.2
2025-08-30T15:07	10	41	0.1	41	42	415	0.4	414	416	18.6	60.5
2025-08-30T15:08	10	42	0.1	41	42	416	0.5	415	416	18.6	60.7
2025-08-30T15:09	10	42	0.1	41	42	415	0.3	415	416	18.6	60.5
2025-08-30T15:10	10	42	0.2	42	43	414	0.3	414	415	18.6	59.6
2025-08-30T15:11	10	43	0.2	42	43	415	0.3	414	415	18.6	60.2
2025-08-30T15:12	10	43	0.3	43	44	415	0.3	414	416	18.6	60.3
2025-08-30T15:13	10	44	0.3	44	45	416	0.8	415	418	18.6	60.9
2025-08-30T15:14	10	45	0.2	44	45	417	0.5	416	418	18.7	60.7
2025-08-30T15:15	10	45	0.2	45	46	417	0.3	416	417	18.7	59.9
2025-08-30T15:16	10	46	0.1	46	46	417	0.5	416	418	18.8	59.7
2025-08-30T15:17	10	46	0.2	46	47	417	0.4	415	418	18.8	58.2
2025-08-30T15:18	10	47	0.2	46	47	417	0.3	417	418	18.8	59.6
2025-08-30T15:19	10	48	0.3	47	48	418	0.3	417	419	18.8	59.3
2025-08-30T15:20	10	49	0.2	48	49	418	0.4	417	419	18.9	59.5
2025-08-30T15:21	10	49	0.3	49	50	418	1.0	417	420	19.0	59.4
2025-08-30T15:22	10	50	0.2	50	51	417	0.4	417	418	18.9	58.5
2025-08-30T15:23	10	51	0.1	51	51	419	0.7	418	420	18.9	58.8
2025-08-30T15:24	10	51	0.2	51	52	420	0.3	419	421	19.0	59.1
2025-08-30T15:25	10	52	0.3	51	53	421	0.3	420	421	19.1	59.8
2025-08-30T15:26	10	53	0.5	53	54	420	0.3	420	421	19.0	58.8
2025-08-30T15:27	10	53	0.3	52	53	421	0.4	420	422	19.1	59.5
2025-08-30T15:28	10	51	0.5	50	52	421	0.5	420	422	19.1	59.2
2025-08-30T15:29	10	50	0.3	49	50	419	0.5	418	421	19.1	59.1
2025-08-30T15:30	10	48	0.3	48	49	420	0.4	419	421	19.2	58.9
2025-08-30T15:31	10	47	0.3	47	48	419	0.5	419	420	19.2	58.5
2025-08-30T15:32	10	47	0.2	46	47	419	0.3	418	420	19.3	58.9
2025-08-30T15:33	10	46	0.1	46	46	417	0.6	416	419	19.2	56.4
2025-08-30T15:34	10	46	0.2	46	46	416	0.4	415	417	19.1	55.6
2025-08-30T15:35	10	46	0.1	45	46	415	0.2	415	416	19.1	55.6
2025-08-30T15:36	10	45	0.1	45	45	416	0.4	415	417	19.1	55.2
2025-08-30T15:37	10	45	0.1	44	45	415	0.3	415	416	19.2	54.8
2025-08-30T15:38	10	44	0.1	44	45	416	0.3	416	417	19.2	55.3
2025-08-30T15:39	10	45	0.1	44	45	416	0.4	415	416	19.2	55.0
2025-08-30T15:40	10	45	0.2	45	46	416	0.3	415	416	19.2	54.4
2025-08-30T15:41	10	46	0.2	45	46	416	0.3	415	416	19.2	53.9
2025-08-30T15:42	10	46	0.4	45	46	416	0.3	415	417	19.2	54.2
2025-08-30T15:43	10	45	0.2	44	45	416	0.3	416	417	19.2	54.2
2025-08-30T15:44	10	44	0.1	44	44	417	0.5	416	418	19.3	54.0
2025-08-30T15:45	10	44	0.1	44	44	416	0.2	416	417	19.3	54.0
2025-08-30T15:46	10	44	0.1	44	44	416	0.3	416	417	19.3	54.1
2025-08-30T15:47	10	44	0.1	44	44	416	0.4	415	416	19.2	53.6
2025-08-30T15:48	10	44	0.1	44	44	415	0.2	415	416	19.2	53.3
2025-08-30T15:49	10	44	0.1	44	44	415	0.3	414	416	19.2	53.2
2025-08-30T15:50	10	44	0.1	43	44	416	0.4	415	417	19.2	54.1
2025-08-30T15:51	10	43	0.2	43	44	415	0.4	415	416	19.2	54.3
2025-08-30T15:52	10	43	0.2	42	43	416	0.4	415	417	19.3	55.2
2025-08-30T15:53	10	43	0.1	42	43	416	0.3	416	417	19.3	55.1
2025-08-30T15:54	10	43	0.2	43	43	417	0.3	416	417	19.3	55.0
2025-08-30T15:55	10	43	0.1	43	43	416	0.4	416	417	19.3	54.8
2025-08-30T15:56	10	43	0.2	43	43	417	0.5	416	418	19.3	55.3
2025-08-30T15:57	10	42	0.2	42	43	417	0.4	417	418	19.3	54.6
2025-08-30T15:58	10	42	0.4	41	43	418	0.4	417	419	19.3	55.4
2025-08-30T15:59	10	47	3.6	42	53	418	0.6	417	420	19.4	54.6
2025-08-30T16:00	10	41	2.2	39	47	417	0.6	415	418	19.3	54.1
2025-08-30T16:01	10	39	0.2	38	39	416	0.4	416	417	19.3	54.4
2025-08-30T16:02	10	38	0.2	37	38	417	0.4	416	418	19.4	55.4
2025-08-30T16:03	10	37	0.1	37	38	417	0.5	417	418	19.5	55.9
2025-08-30T16:04	10	37	0.1	37	37	417	0.3	416	417	19.4	55.7
2025-08-30T16:05	10	37	0.1	37	38	416	0.5	415	417	19.4	55.1
2025-08-30T16:06	10	38	0.1	37	38	415	0.2	415	416	19.3	55.0
2025-08-30T16:07	10	37	0.1	37	38	416	0.3	415	417	19.4	56.3
2025-08-30T16:08	10	37	0.1	37	38	416	0.5	415	417	19.4	54.5
2025-08-30T16:09	10	42	9.6	37	80	416	0.8	415	418	19.4	55.0
2025-08-30T16:10	10	104	4.5	84	106	426	3.6	417	430	19.4	54.3
2025-08-30T16:11	10	105	0.3	104	105	430	0.5	429	430	19.5	53.8
2025-08-30T16:12	10	98	3.4	94	104	431	0.3	430	431	19.6	53.4
2025-08-30T16:13	10	97	1.1	94	98	432	1.1	430	434	19.7	53.6
2025-08-30T16:14	10	95	2.7	88	98	433	1.2	430	434	19.9	54.4
2025-08-30T16:15	10	79	4.8	74	88	429	1.2	427	432	19.9	52.8
2025-08-30T16:16	10	71	2.0	68	75	428	0.4	427	429	19.9	53.5
2025-08-30T16:17	10	65	7.3	57	77	428	1.6	425	430	20.0	55.4
2025-08-30T16:18	10	80	8.4	62	88	427	1.5	425	430	20.0	53.1
2025-08-30T16:19	10	72	4.3	66	81	428	0.6	427	430	20.1	54.5
2025-08-30T16:20	10	98	5.8	82	103	429	0.7	428	430	20.1	52.9
2025-08-30T16:21	10	55	16.3	41	94	424	3.9	419	431	20.0	52.7
2025-08-30T16:22	10	45	3.6	41	54	418	0.9	417	421	20.0	52.5
2025-08-30T16:23	10	53	1.4	51	55	419	0.3	419	420	20.0	52.6
2025-08-30T16:24	10	51	7.3	43	69	419	0.8	418	421	20.0	52.6
2025-08-30T16:25	10	90	8.9	69	97	424	2.7	419	428	20.0	53.0
2025-08-30T16:26	10	97	0.3	96	97	427	0.3	426	427	20.1	52.2
2025-08-30T16:27	10	95	0.6	94	96	427	0.5	427	428	20.1	52.3
2025-08-30T16:28	10	93	0.7	91	94	428	0.6	427	429	20.1	52.2
2025-08-30T16:29	10	88	4.4	76	91	427	0.6	426	428	20.1	52.3
2025-08-30T16:30	10	74	3.9	68	79	428	0.5	427	428	20.2	53.6
2025-08-30T16:31	10	79	5.8	71	85	428	0.3	427	428	20.3	53.5
2025-08-30T16:32	10	87	0.8	85	88	428	0.3	427	429	20.2	52.5
2025-08-30T16:33	10	87	0.2	87	88	429	0.4	428	430	20.2	53.0
2025-08-30T16:34	10	86	0.4	85	87	429	0.3	428	429	20.3	53.0
2025-08-30T16:35	10	84	0.8	83	85	428	0.6	427	429	20.3	52.9
2025-08-30T16:36	10	81	1.2	79	83	426	1.6	423	428	20.3	52.8
2025-08-30T16:37	10	78	0.9	76	79	425	0.6	423	426	20.2	52.2
2025-08-30T16:38	10	75	0.9	73	76	423	0.5	422	424	20.1	51.7
2025-08-30T16:39	10	72	1.0	70	73	422	0.8	420	423	20.2	51.7
2025-08-30T16:40	10	68	1.0	67	70	421	0.8	419	422	20.2	51.3
2025-08-30T16:41	10	65	0.9	64	67	420	0.3	419	420	20.2	51.2
2025-08-30T16:42	10	63	0.7	61	64	419	0.3	418	419	20.1	51.2
2025-08-30T16:43	10	60	0.6	59	61	417	1.0	416	419	20.0	50.8
2025-08-30T16:44	10	59	0.4	58	60	416	0.4	415	417	20.0	50.2
2025-08-30T16:45	10	57	0.3	57	58	414	0.6	413	415	20.0	49.1
2025-08-30T16:46	10	56	0.3	56	57	413	0.5	412	414	19.9	48.7
2025-08-30T16:47	10	56	0.3	55	56	413	0.3	412	413	19.8	48.7
2025-08-30T16:48	10	55	0.2	55	55	413	0.2	412	413	19.8	49.0
2025-08-30T16:49	10	54	0.2	54	55	413	0.3	412	413	19.8	49.6
2025-08-30T16:50	10	54	0.2	53	54	413	0.3	412	414	19.9	50.6
2025-08-30T16:51	10	53	0.2	52	53	413	0.4	412	414	19.9	50.8
2025-08-30T16:52	10	52	0.2	52	53	413	0.3	412	414	19.9	52.0
2025-08-30T16:53	10	51	0.2	51	52	413	0.3	413	414	19.9	51.9
2025-08-30T16:54	10	51	0.2	50	51	413	0.3	413	414	19.9	52.9
2025-08-30T16:55	10	50	0.2	50	50	413	0.4	412	413	19.9	52.1
2025-08-30T16:56	10	49	0.2	49	50	412	0.3	411	412	19.9	52.7
2025-08-30T16:57	10	49	0.2	49	49	411	0.6	410	412	19.9	52.2
2025-08-30T16:58	10	48	0.2	48	49	410	0.3	410	411	19.8	51.6
2025-08-30T16:59	10	48	0.2	47	48	410	0.3	409	410	19.7	51.5
2025-08-30T17:00	10	47	0.2	46	47	410	0.3	409	410	19.7	51.6
2025-08-30T17:01	10	46	0.2	46	47	410	0.2	409	410	19.7	51.7
2025-08-30T17:02	10	46	0.1	45	46	410	0.3	409	411	19.7	52.3
2025-08-30T17:03	10	45	0.2	45	45	410	0.2	409	411	19.8	53.1
2025-08-30T17:04	10	44	0.2	44	45	409	0.3	409	410	19.8	52.8
2025-08-30T17:05	10	44	0.3	43	44	409	0.3	408	409	19.7	52.5
2025-08-30T17:06	10	43	0.2	43	44	408	0.2	408	409	19.7	52.2
2025-08-30T17:07	10	43	0.3	42	43	408	0.4	407	409	19.7	53.3
2025-08-30T17:08	10	42	0.2	42	42	409	0.2	408	409	19.7	54.3
2025-08-30T17:09	10	41	0.3	41	42	409	0.3	408	409	19.7	54.3
2025-08-30T17:10	10	41	0.2	40	41	408	0.4	407	409	19.7	54.0
2025-08-30T17:11	10	40	0.2	40	41	407	0.2	407	408	19.6	54.1
2025-08-30T17:12	10	39	0.2	39	40	407	0.5	406	408	19.6	53.7
2025-08-30T17:13	10	39	0.2	38	39	407	0.2	406	407	19.6	53.7
2025-08-30T17:14	10	38	0.3	38	39	407	0.3	406	407	19.6	53.5
2025-08-30T17:15	10	37	0.2	37	38	406	0.2	406	407	19.6	53.7
2025-08-30T17:16	10	37	0.2	36	37	406	0.3	405	407	19.6	53.3
2025-08-30T17:17	10	36	0.2	36	37	406	0.2	405	406	19.5	53.2
2025-08-30T17:18	10	36	0.3	35	36	406	0.2	405	406	19.5	53.5
2025-08-30T17:19	10	35	0.3	34	35	406	0.2	405	406	19.6	55.3
2025-08-30T17:20	10	34	0.2	34	35	406	0.3	405	406	19.5	55.5
2025-08-30T17:21	10	33	0.3	33	34	405	0.3	404	406	19.5	55.1
2025-08-30T17:22	10	33	0.2	32	33	404	0.3	404	405	19.4	55.6
2025-08-30T17:23	10	32	0.3	32	33	404	0.3	403	404	19.4	54.7
2025-08-30T17:24	10	31	0.3	31	32	404	0.2	403	404	19.4	55.5
2025-08-30T17:25	10	31	0.2	30	31	403	0.2	403	404	19.4	55.2
2025-08-30T17:26	10	30	0.2	30	31	403	0.2	403	404	19.4	55.5
2025-08-30T17:27	10	29	0.3	29	30	403	0.2	403	404	19.3	57.7
2025-08-30T17:28	10	29	0.2	28	29	403	0.2	402	403	19.3	56.6
2025-08-30T17:29	10	28	0.3	28	29	402	0.2	402	403	19.3	56.0
2025-08-30T17:30	10	27	0.2	27	28	402	0.2	402	403	19.3	56.7
2025-08-30T17:31	10	27	0.2	26	27	402	0.2	401	402	19.3	56.6
2025-08-30T17:32	10	26	0.2	25	26	401	0.2	401	402	19.3	55.8
2025-08-30T17:33	10	25	0.2	25	25	401	0.2	401	402	19.3	55.9
2025-08-30T17:34	10	24	0.2	24	25	401	0.2	400	401	19.3	55.8
2025-08-30T17:35	10	24	0.2	23	24	401	0.2	400	401	19.3	55.8
2025-08-30T17:36	10	23	0.2	23	23	400	0.2	399	401	19.2	56.9
2025-08-30T17:37	10	22	0.2	22	23	400	0.2	399	400	19.2	57.1
2025-08-30T17:38	10	22	0.2	21	22	400	0.2	399	400	19.2	56.5
2025-08-30T17:39	10	21	0.2	21	21	399	0.2	399	400	19.2	56.4
2025-08-30T17:40	10	20	0.2	20	21	399	0.3	398	399	19.1	57.3
2025-08-30T17:41	10	20	0.2	19	20	398	0.2	398	399	19.1	57.0
2025-08-30T17:42	10	19	0.2	18	19	398	0.3	398	399	19.1	57.3
2025-08-30T17:43	10	18	0.3	17	18	398	0.3	397	398	19.1	58.1
2025-08-30T17:44	10	17	0.2	16	17	397	0.2	397	398	19.0	58.0
2025-08-30T17:45	10	16	0.3	15	16	397	0.2	396	397	19.0	58.4
2025-08-30T17:46	10	15	0.4	14	15	396	0.2	395	397	19.0	57.9
2025-08-30T17:47	10	14	0.3	13	14	396	0.2	395	396	19.0	58.2
2025-08-30T17:48	10	13	0.3	12	13	395	0.2	395	396	19.0	58.7
2025-08-30T17:49	10	12	0.3	11	12	394	0.2	394	395	18.9	58.9
2025-08-30T17:50	10	11	0.2	10	11	394	0.3	393	394	18.9	58.8
2025-08-30T17:51	10	10	0.2	10	10	393	0.3	393	394	18.9	58.5
2025-08-30T17:52	10	9	0.2	9	10	393	0.3	392	394	18.9	58.7
2025-08-30T17:53	10	9	0.2	9	9	393	0.3	392	394	18.9	58.5
2025-08-30T17:54	10	8	0.1	8	9	392	0.3	392	393	18.9	58.2
2025-08-30T17:55	10	8	0.2	8	8	392	0.3	391	393	18.9	58.3
2025-08-30T17:56	10	7	0.2	7	8	391	0.3	390	392	18.8	58.7
2025-08-30T17:57	10	7	0.2	6	7	391	0.2	390	391	18.8	58.2
2025-08-30T17:58	10	6	0.2	6	6	390	0.4	390	391	18.8	58.8
2025-08-30T17:59	10	5	0.2	5	6	389	0.3	389	390	18.7	59.1
2025-08-30T18:00	10	4	0.4	4	5	389	0.2	389	389	18.7	59.3
2025-08-30T18:01	10	3	0.4	2	4	388	0.3	388	389	18.7	58.3
2025-08-30T18:02	10	2	0.2	2	2	388	0.3	387	389	18.7	58.8
2025-08-30T18:03	10	2	0.1	1	2	387	0.3	387	388	18.6	59.9
2025-08-30T18:04	10	1	0.1	1	2	387	0.2	386	387	18.6	59.3
2025-08-30T18:05	10	1	0.1	1	1	386	0.2	386	387	18.5	59.3
2025-08-30T18:06	10	1	0.1	1	1	386	0.2	386	386	18.5	59.7
2025-08-30T18:07	10	1	0.1	1	1	386	0.2	385	386	18.5	59.7
2025-08-30T18:08	10	1	0.1	1	1	386	0.2	385	386	18.5	58.9
2025-08-30T18:09	10	1	0.1	1	1	385	0.2	385	386	18.4	59.7
2025-08-30T18:10	10	1	0.1	1	1	385	0.2	385	385	18.4	59.5
2025-08-30T18:11	10	1	0.1	1	1	385	0.2	385	385	18.4	59.5
2025-08-30T18:12	10	1	0.1	1	1	385	0.2	384	385	18.4	59.3
2025-08-30T18:13	10	1	0.1	0	1	385	0.2	384	385	18.3	59.4
2025-08-30T18:14	10	1	0.1	0	1	384	0.2	384	385	18.3	59.5
2025-08-30T18:15	10	1	0.2	0	1	384	0.2	383	384	18.2	59.9
2025-08-30T18:16	10	1	0.2	0	1	384	0.2	383	384	18.2	60.1
2025-08-30T18:17	10	0	0.2	0	1	383	0.3	383	384	18.2	60.4
2025-08-30T18:18	10	0	0.2	0	1	383	0.3	382	383	18.1	60.3
2025-08-30T18:19	10	0	0.2	0	1	383	0.2	382	383	18.1	60.4
2025-08-30T18:20	10	0	0.2	0	1	382	0.2	382	383	18.1	60.4
2025-08-30T18:21	10	0	0.2	0	1	382	0.2	382	383	18.0	61.1
2025-08-30T18:22	10	0	0.2	0	1	382	0.2	381	382	17.9	61.9
2025-08-30T18:23	10	0	0.1	0	1	382	0.3	381	382	17.9	62.2
2025-08-30T18:24	10	0	0.1	0	0	382	0.3	381	382	17.8	62.1
2025-08-30T18:25	10	0	0.1	0	0	381	0.2	381	382	17.8	61.9
2025-08-30T18:26	10	0	0.1	0	0	381	0.2	381	382	17.8	62.2
2025-08-30T18:27	10	0	0.1	0	0	381	0.2	380	381	17.8	62.6
2025-08-30T18:28	10	0	0.1	0	0	381	0.2	381	381	17.8	62.0
2025-08-30T18:29	10	0	0.1	0	0	381	0.2	380	381	17.8	62.1
2025-08-30T18:30	10	0	0.1	0	0	380	0.2	380	381	17.7	62.5
2025-08-30T18:31	10	0	0.1	0	0	380	0.2	380	380	17.7	62.6
2025-08-30T18:32	10	0	0.1	0	0	380	0.2	380	381	17.6	62.4
2025-08-30T18:33	10	0	0.1	0	0	380	0.2	379	380	17.7	62.0
2025-08-30T18:34	10	0	0.1	0	0	380	0.2	379	380	17.6	62.5
2025-08-30T18:35	10	0	0.1	0	0	380	0.2	379	380	17.6	62.7
2025-08-30T18:36	10	0	0.1	0	0	379	0.2	378	379	17.5	62.9
2025-08-30T18:37	10	0	0.1	0	0	378	0.2	378	379	17.5	63.5
2025-08-30T18:38	10	0	0.1	0	0	378	0.2	378	379	17.4	63.9
2025-08-30T18:39	10	0	0.1	0	0	378	0.2	377	378	17.4	63.6
2025-08-30T18:40	10	0	0.1	0	0	378	0.2	377	378	17.3	63.8
2025-08-30T18:41	10	0	0.1	0	0	377	0.2	377	378	17.3	64.4
2025-08-30T18:42	10	0	0.1	0	0	377	0.3	377	378	17.2	64.2
2025-08-30T18:43	10	0	0.1	0	0	377	0.3	376	377	17.2	64.6
2025-08-30T18:44	10	0	0.1	0	0	377	0.3	376	377	17.2	64.5
2025-08-30T18:45	10	0	0.1	0	0	376	0.2	376	376	17.1	64.8
2025-08-30T18:46	10	0	0.1	0	0	376	0.2	376	376	17.0	65.3
2025-08-30T18:47	10	0	0.1	0	0	376	0.4	375	377	17.0	65.2
2025-08-30T18:48	10	0	0.1	0	0	376	0.3	376	377	17.1	64.4
2025-08-30T18:49	10	0	0.1	0	0	376	0.2	376	376	17.1	64.6
2025-08-30T18:50	10	0	0.1	0	0	376	0.2	375	376	17.0	65.1
2025-08-30T18:51	10	0	0.1	0	0	376	0.2	376	376	17.0	65.3
2025-08-30T18:52	10	0	0.1	0	0	376	0.2	375	376	16.8	66.2
2025-08-30T18:53	10	0	0.1	0	0	375	0.2	375	376	16.8	66.6
2025-08-30T18:54	10	0	0.1	0	0	375	0.2	375	375	16.6	67.5
2025-08-30T18:55	10	0	0.1	0	0	375	0.3	374	375	16.5	68.2
2025-08-30T18:56	10	0	0.1	0	0	375	0.3	374	375	16.4	68.0
2025-08-30T18:57	10	0	0.1	0	0	374	0.3	374	375	16.4	68.9
2025-08-30T18:58	10	0	0.0	0	0	374	0.3	374	375	16.3	68.4
2025-08-30T18:59	10	0	0.1	0	0	374	0.2	374	375	16.4	67.7
2025-08-30T19:00	10	0	0.1	0	0	374	0.3	374	375	16.4	67.5
2025-08-30T19:01	10	0	0.1	0	0	374	0.2	374	375	16.5	67.0
2025-08-30T19:02	10	0	0.1	0	0	374	0.2	374	375	16.5	66.9
2025-08-30T19:03	10	0	0.1	0	0	374	0.2	374	374	16.4	66.9
2025-08-30T19:04	10	0	0.1	-1	0	374	0.2	373	374	16.4	67.1
2025-08-30T19:05	10	0	0.1	0	0	374	0.3	373	375	16.4	66.9
2025-08-30T19:06	10	0	0.2	0	0	374	0.3	373	374	16.5	66.1
2025-08-30T19:07	10	0	0.2	0	0	374	0.3	373	374	16.4	66.2
2025-08-30T19:08	10	0	0.2	0	1	374	0.3	373	374	16.4	66.6
2025-08-30T19:09	10	0	0.2	0	1	374	0.3	373	374	16.3	67.1
2025-08-30T19:10	10	0	0.1	0	0	373	0.4	372	374	16.1	68.7
2025-08-30T19:11	10	0	0.1	0	0	373	0.2	372	373	15.9	70.1
2025-08-30T19:12	10	0	0.1	0	0	373	0.2	372	373	15.8	70.7
2025-08-30T19:13	10	0	0.1	0	0	373	0.3	372	373	15.8	70.8
2025-08-30T19:14	10	0	0.1	0	0	373	0.2	372	373	15.7	71.6
2025-08-30T19:15	10	0	0.1	0	0	373	0.2	372	373	15.6	71.8
2025-08-30T19:16	10	0	0.1	0	0	373	0.2	372	373	15.6	72.1
2025-08-30T19:17	10	0	0.1	0	0	372	0.2	372	373	15.6	72.2
2025-08-30T19:18	10	0	0.0	0	0	373	0.2	372	373	15.5	72.6
2025-08-30T19:19	10	0	0.1	0	0	373	0.3	373	374	15.5	72.3
2025-08-30T19:20	10	0	0.1	0	0	373	0.3	373	374	15.7	70.2
2025-08-30T19:21	10	0	0.1	0	0	373	0.2	372	373	15.9	69.0
2025-08-30T19:22	10	0	0.1	0	0	373	0.2	373	374	16.1	68.0
2025-08-30T19:23	10	0	0.1	0	0	373	0.3	373	374	16.1	67.7
2025-08-30T19:24	10	0	0.1	0	0	373	0.2	373	374	16.2	66.9
2025-08-30T19:25	10	0	0.0	0	0	373	0.4	372	374	16.1	68.2
2025-08-30T19:26	10	0	0.1	0	0	373	0.3	372	374	15.8	69.2
2025-08-30T19:27	10	0	0.1	0	0	374	0.2	373	374	15.8	69.1
2025-08-30T19:28	10	0	0.1	0	0	374	0.2	374	374	15.9	68.7
2025-08-30T19:29	10	0	0.1	0	0	374	0.3	373	375	15.9	68.0
2025-08-30T19:30	10	0	0.0	0	0	374	0.4	374	375	16.0	68.1
2025-08-30T19:31	10	0	0.1	0	0	374	0.3	374	375	16.1	66.7
2025-08-30T19:32	10	0	0.1	0	0	374	0.4	373	375	16.2	66.5
2025-08-30T19:33	10	0	0.1	0	0	374	0.3	373	375	16.1	66.9
2025-08-30T19:34	10	0	0.1	0	0	374	0.2	373	375	16.1	67.0
2025-08-30T19:35	10	0	0.1	0	0	374	0.3	373	375	16.2	66.5
2025-08-30T19:36	10	0	0.1	0	0	374	0.2	374	375	16.4	64.9
2025-08-30T19:37	10	0	0.1	0	0	374	0.2	373	374	16.5	64.5
2025-08-30T19:38	10	0	0.1	0	0	374	0.2	373	374	16.5	65.0
2025-08-30T19:39	10	0	0.1	0	0	374	0.2	373	375	16.4	65.4
2025-08-30T19:40	10	0	0.1	0	0	374	0.3	373	374	16.3	66.2
2025-08-30T19:41	10	0	0.1	0	0	374	0.3	374	375	16.0	68.2
2025-08-30T19:42	10	0	0.1	0	0	375	0.3	375	376	15.8	70.0
2025-08-30T19:43	10	0	0.1	0	0	376	0.2	375	376	15.6	70.8
2025-08-30T19:44	10	0	0.1	0	0	376	0.2	375	376	15.5	71.1
2025-08-30T19:45	10	0	0.1	0	0	376	0.3	375	377	15.5	71.0
2025-08-30T19:46	10	0	0.1	0	0	376	0.2	375	377	15.4	71.7
2025-08-30T19:47	10	0	0.1	0	0	376	0.3	375	376	15.4	71.8
2025-08-30T19:48	10	0	0.1	0	0	376	0.2	375	376	15.5	71.0
2025-08-30T19:49	10	0	0.1	0	0	376	0.3	375	376	15.5	70.7
2025-08-30T19:50	10	0	0.1	0	0	376	0.3	375	376	15.5	71.1
2025-08-30T19:51	10	0	0.1	0	0	376	0.3	375	377	15.5	70.8
2025-08-30T19:52	10	0	0.1	0	0	376	0.4	375	376	15.6	70.9
2025-08-30T19:53	10	0	0.1	0	0	374	0.4	374	375	15.5	71.5
2025-08-30T19:54	10	0	0.1	0	0	374	0.3	373	374	15.4	71.6
2025-08-30T19:55	10	0	0.1	0	0	374	0.2	373	374	15.4	71.6
2025-08-30T19:56	10	0	0.1	0	0	374	0.2	373	374	15.4	71.9
2025-08-30T19:57	10	0	0.1	0	0	373	0.2	373	374	15.4	71.8
2025-08-30T19:58	10	0	0.1	0	0	373	0.2	372	373	15.4	72.3
2025-08-30T19:59	10	0	0.1	0	0	373	0.2	372	373	15.3	72.7
2025-08-30T20:00	10	0	0.1	0	0	372	0.1	372	373	15.4	72.7
2025-08-30T20:01	10	0	0.1	0	0	372	0.2	372	373	15.4	72.7
2025-08-30T20:02	10	0	0.1	0	0	372	0.2	372	373	15.4	72.8
2025-08-30T20:03	10	0	0.2	0	1	372	0.2	372	373	15.4	72.8
2025-08-30T20:04	10	0	0.1	0	0	372	0.2	372	373	15.3	73.2
2025-08-30T20:05	10	0	0.1	0	0	372	0.2	372	373	15.3	73.4
2025-08-30T20:06	10	0	0.2	0	0	372	0.2	371	373	15.3	73.6
2025-08-30T20:07	10	0	0.1	0	0	372	0.2	371	372	15.2	73.9
2025-08-30T20:08	10	0	0.2	0	0	372	0.3	371	372	15.2	74.3
2025-08-30T20:09	10	0	0.2	0	0	371	0.2	371	372	15.1	74.7
2025-08-30T20:10	10	0	0.2	0	0	372	0.4	371	372	15.1	74.9
2025-08-30T20:11	10	0	0.1	-1	0	372	0.3	371	373	15.1	74.9
2025-08-30T20:12	10	0	0.2	0	0	372	0.2	371	372	15.1	75.2
2025-08-30T20:13	10	0	0.1	-1	0	372	0.3	371	373	15.0	75.4
2025-08-30T20:14	10	0	0.2	-1	0	372	0.2	371	372	15.0	75.6
2025-08-30T20:15	10	0	0.1	0	0	372	0.3	371	373	15.0	75.6
2025-08-30T20:16	10	0	0.1	-1	0	372	0.2	372	373	15.0	75.5
2025-08-30T20:17	10	0	0.1	0	0	372	0.3	371	372	15.0	75.8
2025-08-30T20:18	10	0	0.1	0	0	372	0.2	371	372	14.9	76.0
2025-08-30T20:19	10	0	0.1	0	0	372	0.4	372	373	15.0	75.3
2025-08-30T20:20	10	0	0.1	0	0	373	0.2	372	373	15.1	75.1
2025-08-30T20:21	10	0	0.1	0	0	373	0.2	373	374	15.1	74.7
2025-08-30T20:22	10	0	0.1	0	0	373	0.3	373	374	15.2	74.2
2025-08-30T20:23	10	0	0.1	0	0	373	0.2	373	374	15.2	74.1
2025-08-30T20:24	10	0	0.0	0	0	374	0.2	373	374	15.0	75.4
2025-08-30T20:25	10	0	0.0	0	0	374	0.3	374	375	15.0	75.4
2025-08-30T20:26	10	0	0.0	0	0	374	0.3	374	375	15.0	75.7
2025-08-30T20:27	10	0	0.1	0	0	373	0.4	373	374	14.9	75.8
2025-08-30T20:28	10	0	0.0	0	0	373	0.3	372	373	14.8	76.3
2025-08-30T20:29	10	0	0.1	0	0	373	0.2	372	373	14.7	76.4
2025-08-30T20:30	10	0	0.1	0	0	373	0.3	372	374	14.7	75.8
2025-08-30T20:31	10	0	0.0	0	0	373	0.3	373	374	14.6	76.4
2025-08-30T20:32	10	0	0.1	0	0	373	0.3	372	373	14.6	77.1
2025-08-30T20:33	10	0	0.1	0	0	372	0.4	371	373	14.4	77.8
2025-08-30T20:34	10	0	0.1	0	0	371	0.3	370	371	14.4	78.1
2025-08-30T20:35	10	0	0.1	0	0	370	0.3	370	371	14.4	78.5
2025-08-30T20:36	10	0	0.1	0	0	370	0.2	370	371	13.8	78.6
2025-08-30T20:37	10	0	0.1	0	0	370	0.3	370	371	14.4	78.6
2025-08-30T20:38	10	0	0.1	0	0	371	0.4	370	372	14.4	78.6
2025-08-30T20:39	10	0	0.1	0	0	371	0.3	371	372	14.4	76.0
2025-08-30T20:40	10	0	0.1	0	0	372	0.3	371	373	14.4	78.6
2025-08-30T20:41	10	0	0.1	0	0	373	0.4	372	373	14.4	78.6
2025-08-30T20:42	10	0	0.1	0	0	373	0.3	373	374	14.4	78.6
2025-08-30T20:43	10	0	0.1	0	0	373	0.3	373	374	14.5	78.1
2025-08-30T20:44	10	0	0.1	0	0	373	0.3	372	374	14.5	77.9
2025-08-30T20:45	10	0	0.1	0	0	373	0.3	372	373	14.4	78.8
2025-08-30T20:46	10	0	0.1	0	0	373	0.2	372	373	14.4	79.3
2025-08-30T20:47	10	0	0.1	0	0	372	0.2	372	373	14.3	80.0
2025-08-30T20:48	10	0	0.1	0	0	372	0.3	371	373	14.1	80.8
2025-08-30T20:49	10	0	0.1	0	0	372	0.3	372	373	14.1	81.0
2025-08-30T20:50	10	0	0.1	0	0	372	0.2	371	372	14.1	81.3
2025-08-30T20:51	10	0	0.1	0	0	372	0.2	371	372	14.1	81.5
2025-08-30T20:52	10	0	0.1	0	0	372	0.3	372	373	14.1	81.6
2025-08-30T20:53	10	0	0.1	0	0	372	0.2	372	373	14.1	81.7
2025-08-30T20:54	10	0	0.1	0	0	372	0.3	372	373	14.1	81.6
2025-08-30T20:55	10	0	0.1	0	0	372	0.3	372	373	14.1	81.8
2025-08-30T20:56	10	0	0.1	0	0	372	0.3	372	373	14.0	82.2
2025-08-30T20:57	10	0	0.1	0	0	372	0.2	372	373	14.0	82.5
2025-08-30T20:58	10	0	0.1	0	0	372	0.2	372	372	13.9	82.9
2025-08-30T20:59	10	0	0.1	0	0	372	0.3	371	373	13.9	82.7
2025-08-30T21:00	10	0	0.1	0	0	372	0.3	371	373	13.9	82.7
2025-08-30T21:01	10	0	0.1	0	0	372	0.3	371	373	13.9	82.6
2025-08-30T21:02	10	0	0.1	0	0	372	0.3	371	373	13.9	82.4
2025-08-30T21:03	10	0	0.1	0	0	372	0.2	372	373	13.9	82.3
2025-08-30T21:04	10	0	0.1	0	0	372	0.2	372	373	14.0	81.9
2025-08-30T21:05	10	0	0.1	0	0	372	0.2	371	372	14.0	81.7
2025-08-30T21:06	10	0	0.1	0	0	371	0.2	371	372	14.0	81.8
2025-08-30T21:07	10	0	0.1	0	0	372	0.2	371	372	14.0	81.4
2025-08-30T21:08	10	0	0.1	0	0	371	0.3	371	372	14.1	81.0
2025-08-30T21:09	10	0	0.0	0	0	371	0.3	370	371	14.1	81.1
2025-08-30T21:10	10	0	0.0	0	0	370	0.3	369	370	14.1	81.3
2025-08-30T21:11	10	0	0.1	0	0	371	0.2	370	371	14.0	81.4
2025-08-30T21:12	10	0	0.1	0	0	370	0.3	370	371	14.0	81.6
2025-08-30T21:13	10	0	0.0	0	0	370	0.2	369	371	13.9	82.0
2025-08-30T21:14	10	0	0.0	0	0	370	0.3	369	370	13.9	82.0
2025-08-30T21:15	10	0	0.1	0	0	369	0.2	369	370	13.9	82.3
2025-08-30T21:16	10	0	0.0	0	0	368	0.4	368	369	13.8	82.6
2025-08-30T21:17	10	0	0.0	0	0	368	0.3	368	369	13.8	82.9
2025-08-30T21:18	10	0	0.1	0	0	369	0.2	368	369	13.8	82.6
2025-08-30T21:19	10	0	0.0	0	0	369	0.2	368	369	13.8	82.7
2025-08-30T21:20	10	0	0.0	0	0	369	0.3	368	370	13.8	82.5
2025-08-30T21:21	10	0	0.0	0	0	370	0.3	369	370	13.8	82.5
2025-08-30T21:22	10	0	0.0	0	0	370	0.2	370	371	13.7	82.9
2025-08-30T21:23	10	0	0.0	0	0	370	0.2	370	371	13.7	82.7
2025-08-30T21:24	10	0	0.0	0	0	370	0.2	369	370	13.7	82.8
2025-08-30T21:25	10	0	0.0	0	0	370	0.2	369	370	13.7	82.7
2025-08-30T21:26	10	0	0.0	0	0	370	0.4	369	371	13.7	82.7
2025-08-30T21:27	10	0	0.0	0	0	370	0.3	369	371	13.8	82.6
2025-08-30T21:28	10	0	0.0	0	0	370	0.2	369	370	13.7	82.8
2025-08-30T21:29	10	0	0.1	0	0	370	0.3	370	371	13.8	82.3
2025-08-30T21:30	10	0	0.0	0	0	370	0.2	370	371	13.8	82.1
2025-08-30T21:31	10	0	0.0	0	0	370	0.3	370	371	13.9	81.4
2025-08-30T21:32	10	0	0.0	0	0	370	0.2	370	371	14.0	80.8
2025-08-30T21:33	10	0	0.1	0	0	370	0.4	369	371	14.0	80.9
2025-08-30T21:34	10	0	0.1	0	0	369	0.4	368	370	13.9	81.1
2025-08-30T21:35	10	0	0.0	0	0	369	0.3	368	369	13.9	80.8
2025-08-30T21:36	10	0	0.0	0	0	369	0.2	369	370	14.0	80.0
2025-08-30T21:37	10	0	0.0	0	0	369	0.2	369	370	14.0	80.2
2025-08-30T21:38	10	0	0.1	0	0	369	0.2	369	370	14.1	79.8
2025-08-30T21:39	10	0	0.1	0	0	370	0.2	369	370	14.2	78.9
2025-08-30T21:40	10	0	0.1	0	0	369	0.2	368	370	14.2	79.0
2025-08-30T21:41	10	0	0.1	0	0	369	0.2	369	370	14.1	79.6
2025-08-30T21:42	10	0	0.1	0	0	369	0.3	368	369	14.0	79.9
2025-08-30T21:43	10	0	0.1	0	0	369	0.3	368	369	14.0	79.7
2025-08-30T21:44	10	0	0.2	0	1	368	0.4	367	369	14.0	79.9
2025-08-30T21:45	10	0	0.2	0	0	368	0.3	367	369	13.9	80.2
2025-08-30T21:46	10	0	0.1	0	0	369	0.3	368	369	13.9	80.6
2025-08-30T21:47	10	0	0.1	0	0	368	0.4	367	369	13.8	81.0
2025-08-30T21:48	10	0	0.1	0	0	368	0.3	368	370	13.6	81.8
2025-08-30T21:49	10	0	0.1	0	0	369	0.3	368	369	13.5	82.3
2025-08-30T21:50	10	0	0.2	0	0	369	0.3	368	370	13.5	82.2
2025-08-30T21:51	10	0	0.2	0	0	368	0.3	367	369	13.6	82.0
2025-08-30T21:52	10	0	0.2	0	1	368	0.2	367	368	13.6	82.3
2025-08-30T21:53	10	0	0.2	0	0	367	0.3	367	368	13.6	82.2
2025-08-30T21:54	10	0	0.1	0	0	367	0.3	366	368	13.5	82.9
2025-08-30T21:55	10	0	0.2	0	1	367	0.3	366	367	13.5	83.2
2025-08-30T21:56	10	0	0.2	0	0	367	0.3	366	367	13.5	83.2
2025-08-30T21:57	10	0	0.1	0	0	367	0.3	366	367	13.4	83.4
2025-08-30T21:58	10	0	0.1	0	0	366	0.2	366	366	13.4	83.5
2025-08-30T21:59	10	0	0.2	0	1	366	0.3	365	367	13.3	84.1
2025-08-30T22:00	10	0	0.1	0	0	366	0.3	366	367	13.3	84.4
2025-08-30T22:01	10	0	0.1	0	0	366	0.2	365	366	13.2	84.6
2025-08-30T22:02	10	0	0.2	0	1	365	0.3	365	366	13.1	84.9
2025-08-30T22:03	10	0	0.1	0	0	365	0.2	365	366	13.1	85.0
2025-08-30T22:04	10	0	0.1	0	0	365	0.3	364	365	13.2	84.9
2025-08-30T22:05	10	0	0.2	-1	0	365	0.2	364	365	13.1	85.0
2025-08-30T22:06	10	0	0.1	0	0	365	0.2	365	366	13.1	84.7
2025-08-30T22:07	10	0	0.1	0	0	366	0.5	365	367	13.1	84.4
2025-08-30T22:08	10	0	0.1	0	0	367	0.4	366	368	13.2	83.8
2025-08-30T22:09	10	0	0.1	0	0	368	0.2	367	368	13.1	84.5
2025-08-30T22:10	10	0	0.1	0	0	368	0.3	368	369	13.1	84.5
2025-08-30T22:11	10	0	0.1	0	0	368	0.2	368	369	13.1	84.3
2025-08-30T22:12	10	0	0.1	0	0	368	0.2	367	368	13.3	83.4
2025-08-30T22:13	10	0	0.0	0	0	367	0.3	366	368	13.3	83.5
2025-08-30T22:14	10	0	0.0	0	0	367	0.2	366	367	13.2	83.8
2025-08-30T22:15	10	0	0.1	0	0	366	0.3	366	367	13.3	83.8
2025-08-30T22:16	10	0	0.0	0	0	366	0.2	366	367	13.3	83.8
2025-08-30T22:17	10	0	0.0	0	0	366	0.3	366	367	13.3	84.1
2025-08-30T22:18	10	0	0.1	0	0	366	0.2	365	366	13.3	84.4
2025-08-30T22:19	10	0	0.0	0	0	366	0.2	365	366	13.2	84.6
2025-08-30T22:20	10	0	0.1	0	0	366	0.2	365	366	13.2	84.9
2025-08-30T22:21	10	0	0.0	0	0	366	0.3	366	367	13.1	85.3
2025-08-30T22:22	10	0	0.1	0	0	367	0.2	366	367	13.1	85.5
2025-08-30T22:23	10	0	0.0	0	0	367	0.2	366	367	13.1	85.5
2025-08-30T22:24	10	0	0.1	0	0	367	0.2	366	367	13.1	85.5
2025-08-30T22:25	10	0	0.1	0	0	367	0.3	366	367	13.1	85.4
2025-08-30T22:26	10	0	0.1	0	0	367	0.2	367	368	13.2	85.2
2025-08-30T22:27	10	0	0.0	0	0	367	0.3	366	368	13.2	85.0
2025-08-30T22:28	10	0	0.0	0	0	367	0.2	367	367	13.2	84.9
2025-08-30T22:29	10	0	0.0	0	0	367	0.3	366	367	13.2	84.8
2025-08-30T22:30	10	0	0.0	0	0	366	0.2	366	367	13.2	85.2
2025-08-30T22:31	10	0	0.0	0	0	366	0.3	365	367	13.1	85.7
2025-08-30T22:32	10	0	0.0	0	0	365	0.2	365	366	13.0	86.0
2025-08-30T22:33	10	0	0.0	0	0	365	0.2	365	366	13.0	86.0
2025-08-30T22:34	10	0	0.0	0	0	365	0.2	365	365	13.0	86.1
2025-08-30T22:35	10	0	0.0	0	0	365	0.3	364	365	13.0	86.3
2025-08-30T22:36	10	0	0.0	0	0	365	0.2	365	366	13.0	86.3
2025-08-30T22:37	10	0	0.1	0	0	365	0.3	364	366	13.0	86.2
2025-08-30T22:38	10	0	0.1	0	0	365	0.2	365	366	13.1	86.1
2025-08-30T22:39	10	0	0.0	0	0	366	0.3	365	367	13.1	85.9
2025-08-30T22:40	10	0	0.1	0	0	366	0.2	366	367	13.1	85.7
2025-08-30T22:41	10	0	0.0	0	0	366	0.2	366	367	13.1	85.5
2025-08-30T22:42	10	0	0.1	0	0	367	0.2	366	367	13.1	85.6
2025-08-30T22:43	10	0	0.1	0	0	367	0.2	366	367	13.1	85.5
2025-08-30T22:44	10	0	0.1	0	0	367	0.2	366	367	13.2	85.1
2025-08-30T22:45	10	0	0.1	0	0	367	0.2	366	367	13.2	85.0
2025-08-30T22:46	10	0	0.1	0	0	366	0.3	366	367	13.1	85.7
2025-08-30T22:47	10	0	0.0	0	0	366	0.3	365	366	13.0	86.1
2025-08-30T22:48	10	0	0.0	0	0	366	0.2	365	366	12.9	86.8
2025-08-30T22:49	10	0	0.0	0	0	366	0.2	365	366	12.8	87.3
2025-08-30T22:50	10	0	0.1	0	0	366	0.3	365	366	12.8	87.6
2025-08-30T22:51	10	0	0.1	0	0	366	0.3	365	366	12.8	87.6
2025-08-30T22:52	10	0	0.1	0	0	366	0.2	365	366	12.8	87.4
2025-08-30T22:53	10	0	0.1	0	0	366	0.2	365	366	12.8	87.6
2025-08-30T22:54	10	0	0.1	0	0	365	0.2	365	366	12.7	87.9
2025-08-30T22:55	10	0	0.1	0	0	364	0.4	364	365	12.6	88.2
2025-08-30T22:56	10	0	0.1	0	0	363	0.3	363	364	12.3	88.9
2025-08-30T22:57	10	0	0.1	0	0	364	0.5	363	365	12.1	90.0
2025-08-30T22:58	10	0	0.1	0	0	364	0.2	364	365	12.1	90.8
2025-08-30T22:59	10	0	0.1	0	0	364	0.2	363	365	12.2	90.9
2025-08-30T23:00	10	0	0.1	0	0	364	0.2	363	364	12.2	90.7
2025-08-30T23:01	10	0	0.1	0	0	363	0.2	363	364	12.3	90.5
2025-08-30T23:02	10	0	0.1	0	0	363	0.3	362	364	12.3	90.0
2025-08-30T23:03	10	0	0.1	0	0	362	0.2	362	363	12.4	89.4
2025-08-30T23:04	10	0	0.1	0	0	362	0.3	361	362	12.5	88.9
2025-08-30T23:05	10	0	0.1	0	0	362	0.4	361	363	12.6	88.7
2025-08-30T23:06	10	0	0.1	0	0	362	0.2	362	363	12.6	88.6
2025-08-30T23:07	10	0	0.1	0	0	363	0.2	362	363	12.6	88.4
2025-08-30T23:08	10	0	0.1	0	0	363	0.3	362	364	12.6	88.5
2025-08-30T23:09	10	0	0.1	0	0	363	0.2	363	364	12.6	88.8
2025-08-30T23:10	10	0	0.1	0	0	363	0.2	363	363	12.5	89.1
2025-08-30T23:11	10	0	0.1	-1	0	363	0.2	362	363	12.5	89.2
2025-08-30T23:12	10	0	0.1	0	0	362	0.2	362	363	12.5	88.9
2025-08-30T23:13	10	0	0.1	0	0	362	0.2	362	363	12.5	88.7
2025-08-30T23:14	10	0	0.1	0	0	363	0.2	362	363	12.6	88.4
2025-08-30T23:15	10	0	0.1	0	0	363	0.3	362	364	12.6	88.3
2025-08-30T23:16	10	0	0.1	0	0	363	0.2	363	364	12.6	88.4
2025-08-30T23:17	10	0	0.1	0	0	364	0.2	363	364	12.5	88.5
2025-08-30T23:18	10	0	0.1	0	0	363	0.4	362	364	12.5	88.4
2025-08-30T23:19	10	0	0.1	0	0	362	0.3	361	363	12.3	89.3
2025-08-30T23:20	10	0	0.1	0	0	362	0.2	361	363	12.2	89.8
2025-08-30T23:21	10	0	0.1	0	0	362	0.2	362	363	12.3	89.6
2025-08-30T23:22	10	0	0.1	0	0	362	0.3	361	363	12.3	89.5
2025-08-30T23:23	10	0	0.1	0	0	362	0.2	361	362	12.3	89.0
2025-08-30T23:24	10	0	0.1	0	0	362	0.2	361	362	12.4	88.9
2025-08-30T23:25	10	0	0.1	0	0	362	0.2	361	362	12.4	88.3
2025-08-30T23:26	10	0	0.1	0	0	362	0.2	361	362	12.5	87.9
2025-08-30T23:27	10	0	0.1	0	0	362	0.3	361	362	12.5	87.5
2025-08-30T23:28	10	0	0.1	0	0	362	0.3	361	363	12.5	87.4
2025-08-30T23:29	10	0	0.1	0	0	362	0.2	362	363	12.5	87.5
2025-08-30T23:30	10	0	0.1	0	0	362	0.2	362	363	12.6	87.1
2025-08-30T23:31	10	0	0.1	0	0	363	0.2	362	363	12.7	86.0
2025-08-30T23:32	10	0	0.1	0	0	363	0.2	362	363	12.9	84.7
2025-08-30T23:33	10	0	0.1	0	0	362	0.2	362	363	12.9	84.7
2025-08-30T23:34	10	0	0.1	0	0	363	0.2	362	363	12.9	84.2
2025-08-30T23:35	10	0	0.1	0	0	362	0.2	362	363	12.8	85.1
2025-08-30T23:36	10	0	0.1	0	0	362	0.4	361	363	12.6	87.0
2025-08-30T23:37	10	0	0.1	0	0	362	0.2	361	362	12.4	88.8
2025-08-30T23:38	10	0	0.1	0	0	362	0.2	361	362	12.3	89.4
2025-08-30T23:39	10	0	0.1	0	0	363	0.4	362	364	12.3	88.8
2025-08-30T23:40	10	0	0.1	0	0	363	0.2	362	363	12.3	88.0
2025-08-30T23:41	10	0	0.1	0	0	363	0.2	362	363	12.4	87.7
2025-08-30T23:42	10	0	0.1	0	0	362	0.2	362	363	12.5	86.9
2025-08-30T23:43	10	0	0.1	0	0	362	0.2	362	362	12.5	86.5
2025-08-30T23:44	10	0	0.1	0	0	362	0.3	361	362	12.4	87.3
2025-08-30T23:45	10	0	0.1	0	0	361	0.2	361	362	12.3	88.0
2025-08-30T23:46	10	0	0.1	0	0	361	0.2	360	361	12.2	88.2
2025-08-30T23:47	10	0	0.0	0	0	361	0.2	361	362	12.2	88.3
2025-08-30T23:48	10	0	0.1	0	0	361	0.2	360	361	12.2	88.3
2025-08-30T23:49	10	0	0.1	0	0	360	0.2	359	361	12.2	88.3
2025-08-30T23:50	10	0	0.1	0	0	360	0.3	360	361	12.3	88.1
2025-08-30T23:51	10	0	0.1	0	0	360	0.2	360	361	12.3	88.2
2025-08-30T23:52	10	0	0.1	0	0	361	0.2	360	361	12.3	88.2
2025-08-30T23:53	10	0	0.1	0	0	361	0.2	360	361	12.2	88.4
2025-08-30T23:54	10	0	0.0	0	0	361	0.2	360	361	12.2	88.6
2025-08-30T23:55	10	0	0.1	0	0	360	0.2	360	361	12.1	89.1
2025-08-30T23:56	10	0	0.1	0	0	360	0.2	360	361	12.0	90.1
2025-08-30T23:57	10	0	0.1	0	0	360	0.2	360	361	11.9	90.3
2025-08-30T23:58	10	0	0.1	0	0	360	0.3	359	360	11.9	90.3
2025-08-30T23:59	10	0	0.1	0	0	359	0.2	358	359	11.8	91.0
2025-08-31T00:00	10	0	0.1	0	0	359	0.2	358	359	11.7	91.5
2025-08-31T00:01	10	0	0.1	0	0	359	0.3	358	359	11.7	91.7
2025-08-31T00:02	10	0	0.1	0	0	359	0.2	358	359	11.7	91.4
2025-08-31T00:03	10	0	0.1	0	0	359	0.2	358	359	11.7	91.1
2025-08-31T00:04	10	0	0.1	0	0	359	0.2	359	360	11.7	91.0
2025-08-31T00:05	10	0	0.1	0	0	359	0.3	359	360	11.6	91.1
2025-08-31T00:06	10	0	0.1	0	0	360	0.3	359	360	11.6	91.2
2025-08-31T00:07	10	0	0.1	0	0	359	0.2	359	360	11.7	91.2
2025-08-31T00:08	10	0	0.1	0	0	359	0.2	359	360	11.7	91.4
2025-08-31T00:09	10	0	0.1	0	0	360	0.3	359	360	11.7	91.4
2025-08-31T00:10	10	0	0.1	0	0	360	0.3	359	360	11.7	91.3
2025-08-31T00:11	10	0	0.1	0	0	360	0.3	360	361	11.7	91.4
2025-08-31T00:12	10	0	0.1	0	0	360	0.2	360	361	11.7	91.5
2025-08-31T00:13	10	0	0.1	0	0	360	0.3	359	360	11.6	91.7
2025-08-31T00:14	10	0	0.1	0	0	359	0.3	359	360	11.7	91.6
2025-08-31T00:15	10	0	0.1	0	0	359	0.2	359	360	11.7	91.2
2025-08-31T00:16	10	0	0.1	0	0	359	0.2	359	360	11.9	90.4
2025-08-31T00:17	10	0	0.1	0	0	359	0.3	359	360	11.9	90.3
2025-08-31T00:18	10	0	0.1	0	0	360	0.3	359	360	11.9	90.0
2025-08-31T00:19	10	0	0.1	0	0	360	0.3	360	361	12.0	89.7
2025-08-31T00:20	10	0	0.1	0	0	361	0.2	360	362	11.9	89.8
2025-08-31T00:21	10	0	0.1	0	0	361	0.2	361	362	11.8	90.2
2025-08-31T00:22	10	0	0.1	0	0	361	0.2	360	361	11.7	90.3
2025-08-31T00:23	10	0	0.1	0	0	361	0.3	360	361	11.6	90.7
2025-08-31T00:24	10	0	0.1	0	0	360	0.3	360	361	11.6	90.8
2025-08-31T00:25	10	0	0.1	0	0	360	0.2	359	360	11.5	91.1
2025-08-31T00:26	10	0	0.1	0	0	360	0.2	360	360	11.5	91.4
2025-08-31T00:27	10	0	0.1	0	0	360	0.2	359	361	11.6	91.4
2025-08-31T00:28	10	0	0.1	0	0	361	0.5	360	362	11.8	90.6
2025-08-31T00:29	10	0	0.1	0	0	361	0.3	361	362	12.1	89.9
2025-08-31T00:30	10	0	0.1	0	0	362	0.2	361	362	12.1	89.5
2025-08-31T00:31	10	0	0.0	0	0	362	0.2	361	362	12.1	89.4
2025-08-31T00:32	10	0	0.0	0	0	361	0.4	361	362	12.0	89.7
2025-08-31T00:33	10	0	0.0	0	0	361	0.2	360	361	11.9	90.0
2025-08-31T00:34	10	0	0.0	0	0	361	0.2	360	361	11.8	90.4
2025-08-31T00:35	10	0	0.0	0	0	360	0.2	360	361	11.7	90.8
2025-08-31T00:36	10	0	0.0	0	0	360	0.2	359	360	11.6	91.3
2025-08-31T00:37	10	0	0.1	0	0	360	0.3	359	360	11.7	91.6
2025-08-31T00:38	10	0	0.1	0	0	359	0.2	359	360	11.8	91.7
2025-08-31T00:39	10	0	0.1	0	0	359	0.2	359	360	11.6	92.0
2025-08-31T00:40	10	0	0.1	0	0	359	0.2	359	360	11.6	92.3
2025-08-31T00:41	10	0	0.1	0	0	359	0.2	359	360	11.7	92.4
2025-08-31T00:42	10	0	0.1	-1	0	359	0.2	359	360	11.7	92.3
2025-08-31T00:43	10	0	0.1	0	0	359	0.2	359	360	11.6	92.4
2025-08-31T00:44	10	0	0.1	0	0	359	0.2	359	360	11.6	92.5
2025-08-31T00:45	10	0	0.1	0	0	359	0.2	359	360	11.7	92.2
2025-08-31T00:46	10	0	0.1	0	0	359	0.3	359	360	11.8	92.2
2025-08-31T00:47	10	0	0.1	0	0	360	0.2	359	360	11.7	92.2
2025-08-31T00:48	10	0	0.1	0	0	360	0.3	359	360	11.8	92.0
2025-08-31T00:49	10	0	0.1	0	0	360	0.3	359	361	11.9	91.7
2025-08-31T00:50	10	0	0.1	-1	0	361	0.2	360	361	12.0	91.4
2025-08-31T00:51	10	0	0.1	-1	0	360	0.3	360	361	11.9	91.4
2025-08-31T00:52	10	0	0.1	-1	0	360	0.2	359	360	11.9	91.5
2025-08-31T00:53	10	0	0.1	0	0	359	0.3	359	360	11.9	91.7
2025-08-31T00:54	10	0	0.1	-1	0	359	0.2	358	359	11.8	91.8
2025-08-31T00:55	10	0	0.1	0	0	359	0.3	358	359	11.8	91.9
2025-08-31T00:56	10	0	0.1	0	0	359	0.3	358	360	11.9	91.9
2025-08-31T00:57	10	0	0.1	-1	0	359	0.3	359	360	11.8	91.9
2025-08-31T00:58	10	0	0.2	-1	0	359	0.2	358	359	11.9	91.8
2025-08-31T00:59	10	0	0.1	-1	0	359	0.2	358	360	11.8	92.0
2025-08-31T01:00	10	0	0.1	0	0	359	0.2	358	359	11.8	92.1
2025-08-31T01:01	10	0	0.1	0	0	358	0.3	357	359	11.7	92.1
2025-08-31T01:02	10	0	0.1	0	0	359	0.2	358	359	11.6	92.4
2025-08-31T01:03	10	0	0.1	0	0	359	0.3	358	360	11.7	92.5
2025-08-31T01:04	10	0	0.1	-1	0	360	0.3	359	360	11.7	92.7
2025-08-31T01:05	10	0	0.1	0	0	360	0.2	359	360	11.7	92.8
2025-08-31T01:06	10	0	0.1	-1	0	360	0.3	359	361	11.7	92.7
2025-08-31T01:07	10	0	0.1	-1	0	360	0.3	360	361	11.7	92.7
2025-08-31T01:08	10	0	0.1	-1	0	360	0.2	360	361	11.8	92.4
2025-08-31T01:09	10	0	0.1	-1	0	360	0.2	360	361	11.8	92.2
2025-08-31T01:10	10	0	0.1	-1	0	360	0.3	360	361	11.8	92.1
2025-08-31T01:11	10	0	0.1	-1	0	360	0.2	360	361	11.9	91.8
2025-08-31T01:12	10	0	0.2	-1	0	360	0.3	359	360	12.0	91.5
2025-08-31T01:13	10	0	0.1	0	0	359	0.3	358	360	11.9	91.5
2025-08-31T01:14	10	0	0.1	0	0	358	0.4	357	359	11.8	91.7
2025-08-31T01:15	10	0	0.1	-1	0	358	0.3	358	359	11.7	92.0
2025-08-31T01:16	10	0	0.1	0	0	357	0.2	357	358	11.6	92.6
2025-08-31T01:17	10	0	0.2	0	0	357	0.2	356	357	11.5	92.8
2025-08-31T01:18	10	0	0.1	-1	0	357	0.2	357	358	11.6	92.7
2025-08-31T01:19	10	0	0.1	-1	0	357	0.3	356	358	11.6	92.3
2025-08-31T01:20	10	0	0.1	-1	0	357	0.3	356	358	11.6	91.9
2025-08-31T01:21	10	0	0.1	-1	0	357	0.3	356	358	11.7	91.4
2025-08-31T01:22	10	0	0.1	-1	0	358	0.3	357	359	11.7	91.1
2025-08-31T01:23	10	0	0.1	0	0	358	0.2	357	358	11.7	91.1
2025-08-31T01:24	10	0	0.2	-1	0	358	0.3	357	359	11.6	91.5
2025-08-31T01:25	10	0	0.1	0	0	358	0.3	358	359	11.6	92.0
2025-08-31T01:26	10	0	0.1	0	0	358	0.2	358	359	11.5	92.3
2025-08-31T01:27	10	0	0.1	-1	0	358	0.3	357	359	11.4	92.5
2025-08-31T01:28	10	0	0.2	0	0	358	0.2	357	358	11.3	92.9
2025-08-31T01:29	10	0	0.2	0	0	358	0.2	357	358	11.3	93.4
2025-08-31T01:30	10	0	0.1	0	0	357	0.2	357	358	11.2	93.6
2025-08-31T01:31	10	0	0.2	-1	0	357	0.3	356	358	11.2	93.7
2025-08-31T01:32	10	0	0.1	0	0	358	0.3	357	358	11.2	94.3
2025-08-31T01:33	10	0	0.1	0	0	357	0.3	357	358	11.1	94.6
2025-08-31T01:34	10	0	0.2	-1	0	357	0.3	356	358	11.1	94.5
2025-08-31T01:35	10	0	0.1	-1	0	357	0.2	356	357	11.0	94.3
2025-08-31T01:36	10	0	0.2	-1	0	357	0.2	356	357	11.0	94.3
2025-08-31T01:37	10	0	0.1	-1	0	357	0.3	356	358	11.0	94.5
2025-08-31T01:38	10	0	0.1	-1	0	357	0.2	357	358	11.1	94.7
2025-08-31T01:39	10	0	0.1	-1	0	358	0.4	357	359	11.1	94.3
2025-08-31T01:40	10	0	0.1	-1	0	358	0.2	358	359	11.2	94.3
2025-08-31T01:41	10	0	0.1	-1	0	358	0.2	357	359	11.2	94.2
2025-08-31T01:42	10	0	0.1	-1	0	359	0.4	358	360	11.2	93.8
2025-08-31T01:43	10	0	0.1	-1	0	359	0.2	359	360	11.2	93.6
2025-08-31T01:44	10	0	0.2	-1	0	359	0.3	358	359	11.2	93.7
2025-08-31T01:45	10	0	0.1	-1	0	358	0.3	358	359	11.1	93.8
2025-08-31T01:46	10	0	0.2	-1	0	358	0.3	357	359	11.1	94.0
2025-08-31T01:47	10	0	0.1	-1	0	358	0.3	358	359	11.0	94.3
2025-08-31T01:48	10	0	0.1	-1	0	359	0.2	358	359	11.1	94.2
2025-08-31T01:49	10	0	0.2	-1	0	359	0.2	359	360	11.1	94.2
2025-08-31T01:50	10	0	0.1	-1	0	359	0.2	359	360	11.1	94.0
2025-08-31T01:51	10	0	0.1	-1	0	359	0.2	359	360	11.2	93.7
2025-08-31T01:52	10	0	0.1	-1	0	359	0.3	359	360	11.2	93.6
2025-08-31T01:53	10	0	0.1	-1	0	359	0.2	359	360	11.3	93.1
2025-08-31T01:54	10	0	0.1	-1	0	359	0.2	359	360	11.3	93.1
2025-08-31T01:55	10	0	0.1	0	0	359	0.2	359	360	11.3	93.1
2025-08-31T01:56	10	0	0.1	-1	0	360	0.2	359	360	11.3	92.9
2025-08-31T01:57	10	0	0.1	-1	0	359	0.2	359	360	11.4	92.6
2025-08-31T01:58	10	0	0.1	-1	0	359	0.2	358	360	11.5	92.2
2025-08-31T01:59	10	0	0.1	-1	0	359	0.2	359	360	11.4	92.3
2025-08-31T02:00	10	0	0.1	-1	0	360	0.4	359	360	11.4	92.2
2025-08-31T02:01	10	0	0.1	-1	0	361	0.3	360	361	11.4	92.3
2025-08-31T02:02	10	0	0.1	-1	0	361	0.2	361	362	11.4	92.5
2025-08-31T02:03	10	0	0.1	-1	0	362	0.2	361	362	11.5	92.4
2025-08-31T02:04	10	0	0.1	-1	0	361	0.3	361	362	11.5	92.3
2025-08-31T02:05	10	0	0.1	-1	0	362	0.2	361	362	11.5	92.3
2025-08-31T02:06	10	0	0.1	-1	0	362	0.3	361	363	11.5	92.2
2025-08-31T02:07	10	0	0.1	-1	0	362	0.2	361	362	11.5	92.3
2025-08-31T02:08	10	0	0.1	-1	0	362	0.2	361	363	11.5	92.3
2025-08-31T02:09	10	0	0.1	0	0	363	0.2	362	363	11.5	92.1
2025-08-31T02:10	10	0	0.1	0	0	363	0.2	363	364	11.5	92.0
2025-08-31T02:11	10	0	0.1	-1	0	363	0.2	362	363	11.5	92.0
2025-08-31T02:12	10	0	0.1	-1	0	363	0.2	362	363	11.6	91.7
2025-08-31T02:13	10	0	0.1	0	0	362	0.3	362	363	11.6	91.6
2025-08-31T02:14	10	0	0.1	-1	0	362	0.2	362	362	11.5	91.6
2025-08-31T02:15	10	0	0.1	0	0	362	0.2	361	362	11.5	91.6
2025-08-31T02:16	10	0	0.1	-1	0	362	0.2	361	362	11.6	91.3
2025-08-31T02:17	10	0	0.1	0	0	362	0.3	361	363	11.6	91.1
2025-08-31T02:18	10	0	0.1	0	0	363	0.2	362	363	11.7	90.7
2025-08-31T02:19	10	0	0.1	0	0	363	0.2	362	363	11.6	90.9
2025-08-31T02:20	10	0	0.1	-1	0	363	0.2	362	363	11.6	91.1
2025-08-31T02:21	10	0	0.0	0	0	363	0.2	362	363	11.5	91.4
2025-08-31T02:22	10	0	0.1	0	0	363	0.2	362	363	11.4	91.7
2025-08-31T02:23	10	0	0.1	0	0	363	0.3	362	363	11.4	91.7
2025-08-31T02:24	10	0	0.1	0	0	363	0.2	362	363	11.4	91.9
2025-08-31T02:25	10	0	0.1	0	0	363	0.2	363	363	11.4	92.0
2025-08-31T02:26	10	0	0.1	0	0	364	0.2	363	364	11.4	91.6
2025-08-31T02:27	10	0	0.1	0	0	364	0.3	363	364	11.5	90.9
2025-08-31T02:28	10	0	0.1	-1	0	364	0.2	363	364	11.5	90.9
2025-08-31T02:29	10	0	0.0	0	0	364	0.3	364	365	11.5	90.6
2025-08-31T02:30	10	0	0.1	-1	0	365	0.2	364	365	11.5	90.6
2025-08-31T02:31	10	0	0.1	-1	0	365	0.3	364	366	11.5	90.7
2025-08-31T02:32	10	0	0.1	-1	0	365	0.3	364	366	11.6	90.5
2025-08-31T02:33	10	0	0.1	-1	0	366	0.2	365	366	11.6	90.1
2025-08-31T02:34	10	0	0.1	-1	0	366	0.2	365	366	11.6	89.9
2025-08-31T02:35	10	0	0.1	-1	0	366	0.3	365	366	11.7	89.4
2025-08-31T02:36	10	0	0.1	-1	0	366	0.2	365	366	11.8	88.9
2025-08-31T02:37	10	0	0.0	-1	0	366	0.2	366	366	11.8	89.0
2025-08-31T02:38	10	0	0.1	-1	0	366	0.2	365	366	11.8	88.8
2025-08-31T02:39	10	0	0.1	-1	0	366	0.2	365	366	11.8	88.8
2025-08-31T02:40	10	0	0.0	-1	0	365	0.3	364	366	11.7	89.2
2025-08-31T02:41	10	0	0.0	0	0	365	0.2	365	366	11.8	88.6
2025-08-31T02:42	10	0	0.1	0	0	365	0.3	364	365	11.8	88.5
2025-08-31T02:43	10	0	0.1	-1	0	364	0.2	364	365	11.8	88.8
2025-08-31T02:44	10	0	0.0	0	0	364	0.5	363	365	11.8	88.2
2025-08-31T02:45	10	0	0.1	0	0	364	0.5	363	364	11.6	89.9
2025-08-31T02:46	10	0	0.1	0	0	363	0.3	362	363	11.2	91.9
2025-08-31T02:47	10	0	0.1	0	0	363	0.2	362	363	11.1	92.3
2025-08-31T02:48	10	0	0.1	0	0	362	0.2	362	363	11.1	92.2
2025-08-31T02:49	10	0	0.1	0	0	362	0.2	361	363	11.1	92.6
2025-08-31T02:50	10	0	0.1	0	0	362	0.2	361	363	11.0	92.9
2025-08-31T02:51	10	0	0.1	0	0	362	0.2	361	362	11.1	93.3
2025-08-31T02:52	10	0	0.1	0	0	362	0.3	361	362	11.1	93.3
2025-08-31T02:53	10	0	0.1	-1	0	362	0.2	361	362	11.1	92.9
2025-08-31T02:54	10	0	0.1	-1	0	361	0.2	361	362	11.3	92.7
2025-08-31T02:55	10	0	0.1	-1	0	361	0.2	360	361	11.4	92.1
2025-08-31T02:56	10	0	0.1	-1	0	360	0.3	360	361	11.4	91.6
2025-08-31T02:57	10	0	0.1	-1	0	360	0.2	359	360	11.4	91.9
2025-08-31T02:58	10	0	0.1	-1	0	360	0.2	359	360	11.4	92.5
2025-08-31T02:59	10	0	0.1	-1	0	359	0.2	359	360	11.3	92.6
2025-08-31T03:00	10	0	0.1	-1	0	360	0.3	359	360	11.4	92.0
2025-08-31T03:01	10	0	0.1	-1	0	360	0.3	359	361	11.4	91.5
2025-08-31T03:02	10	0	0.1	-1	0	361	0.2	360	361	11.4	91.0
2025-08-31T03:03	10	-1	0.1	-1	0	362	0.4	361	362	11.3	91.3
2025-08-31T03:04	10	-1	0.1	-1	0	362	0.2	362	363	11.3	91.2
2025-08-31T03:05	10	-1	0.1	-1	0	362	0.2	362	363	11.3	91.3
2025-08-31T03:06	10	-1	0.1	-1	0	362	0.2	362	363	11.3	91.3
2025-08-31T03:07	10	-1	0.1	-1	0	362	0.2	362	362	11.3	91.0
2025-08-31T03:08	10	-1	0.1	-1	0	362	0.2	362	362	11.4	90.8
2025-08-31T03:09	10	0	0.1	-1	0	362	0.2	361	363	11.4	90.8
2025-08-31T03:10	10	0	0.1	-1	0	363	0.3	362	364	11.4	90.8
2025-08-31T03:11	10	0	0.1	0	0	363	0.3	362	364	11.3	91.2
2025-08-31T03:12	10	0	0.1	-1	0	363	0.3	362	363	11.2	91.8
2025-08-31T03:13	10	0	0.1	0	0	363	0.2	363	364	11.0	92.8
2025-08-31T03:14	10	0	0.1	0	0	364	0.3	363	364	10.9	93.3
2025-08-31T03:15	10	0	0.1	-1	0	364	0.3	364	365	10.9	93.7
2025-08-31T03:16	10	0	0.0	-1	0	365	0.4	364	366	10.8	93.9
2025-08-31T03:17	10	0	0.1	-1	0	365	0.2	365	366	10.9	93.9
2025-08-31T03:18	10	0	0.1	-1	0	365	0.2	365	366	10.9	94.0
2025-08-31T03:19	10	-1	0.1	-1	0	366	0.2	365	366	10.9	93.8
2025-08-31T03:20	10	-1	0.1	-1	0	366	0.2	365	366	11.0	93.7
2025-08-31T03:21	10	-1	0.1	-1	0	365	0.3	365	366	11.0	93.4
2025-08-31T03:22	10	0	0.1	-1	0	365	0.2	364	365	11.1	93.3
2025-08-31T03:23	10	0	0.1	-1	0	365	0.3	364	365	11.1	93.2
2025-08-31T03:24	10	0	0.1	-1	0	364	0.3	363	364	11.1	93.1
2025-08-31T03:25	10	0	0.1	-1	0	363	0.3	363	364	11.1	92.9
2025-08-31T03:26	10	0	0.1	-1	0	363	0.3	362	363	11.2	91.9
2025-08-31T03:27	10	0	0.1	-1	0	362	0.4	361	363	11.2	91.9
2025-08-31T03:28	10	0	0.1	-1	0	361	0.3	360	361	11.2	91.7
2025-08-31T03:29	10	0	0.0	0	0	360	0.3	360	361	11.2	91.6
2025-08-31T03:30	10	0	0.0	-1	0	360	0.2	359	360	11.1	92.4
2025-08-31T03:31	10	0	0.1	0	0	360	0.3	360	361	11.1	93.1
2025-08-31T03:32	10	0	0.1	-1	0	359	0.3	359	360	11.0	93.6
2025-08-31T03:33	10	0	0.1	-1	0	360	0.2	359	360	11.0	93.4
2025-08-31T03:34	10	0	0.1	-1	0	359	0.2	359	360	11.0	92.8
2025-08-31T03:35	10	0	0.1	0	0	359	0.2	358	359	11.0	93.0
2025-08-31T03:36	10	0	0.1	0	0	358	0.3	358	359	11.0	93.2
2025-08-31T03:37	10	0	0.1	-1	0	358	0.3	357	358	10.9	93.5
2025-08-31T03:38	10	0	0.1	0	0	357	0.2	357	358	10.8	94.0
2025-08-31T03:39	10	0	0.1	-1	0	357	0.2	357	358	10.8	94.2
2025-08-31T03:40	10	0	0.1	-1	0	357	0.2	357	358	10.8	94.3
2025-08-31T03:41	10	0	0.1	-1	0	357	0.2	357	357	10.7	94.7
2025-08-31T03:42	10	0	0.1	-1	0	357	0.3	356	357	10.7	94.8
2025-08-31T03:43	10	0	0.1	-1	0	357	0.2	357	358	10.7	94.9
2025-08-31T03:44	10	-1	0.1	-1	0	357	0.3	357	358	10.8	94.6
2025-08-31T03:45	10	0	0.1	-1	0	357	0.2	357	358	10.8	94.5
2025-08-31T03:46	10	0	0.1	-1	0	357	0.3	357	358	10.9	94.1
2025-08-31T03:47	10	0	0.1	-1	0	357	0.2	357	358	10.9	93.6
2025-08-31T03:48	10	0	0.1	-1	0	358	0.2	357	358	10.9	93.6
2025-08-31T03:49	10	0	0.0	-1	0	357	0.3	357	358	10.9	93.8
2025-08-31T03:50	10	0	0.1	-1	0	357	0.2	357	358	10.9	94.0
2025-08-31T03:51	10	0	0.1	-1	0	357	0.3	357	358	10.9	94.1
2025-08-31T03:52	10	0	0.1	-1	0	358	0.2	357	358	10.8	94.3
2025-08-31T03:53	10	0	0.1	-1	0	358	0.3	357	358	10.8	94.2
2025-08-31T03:54	10	0	0.1	-1	0	358	0.4	358	359	11.0	93.2
2025-08-31T03:55	10	0	0.1	-1	0	359	0.2	358	360	11.3	91.4
2025-08-31T03:56	10	0	0.1	-1	0	359	0.3	359	360	11.3	90.9
2025-08-31T03:57	10	0	0.1	-1	0	359	0.2	359	360	11.3	91.0
2025-08-31T03:58	10	0	0.1	-1	0	359	0.3	359	360	11.3	90.9
2025-08-31T03:59	10	0	0.1	-1	0	360	0.3	359	360	11.2	91.1
2025-08-31T04:00	10	0	0.1	-1	0	360	0.2	360	360	11.2	91.3
2025-08-31T04:01	10	0	0.1	-1	0	360	0.3	359	361	11.1	91.8
2025-08-31T04:02	10	0	0.1	-1	0	361	0.3	360	361	11.2	90.9
2025-08-31T04:03	10	0	0.1	-1	0	362	0.4	361	362	11.4	89.9
2025-08-31T04:04	10	0	0.1	-1	0	362	0.3	361	363	11.6	88.4
2025-08-31T04:05	10	0	0.1	-1	0	362	0.2	362	362	11.7	87.5
2025-08-31T04:06	10	0	0.1	-1	0	362	0.3	362	363	11.7	87.2
2025-08-31T04:07	10	0	0.0	-1	0	362	0.3	362	363	11.7	87.6
2025-08-31T04:08	10	0	0.1	-1	0	362	0.3	362	363	11.7	87.5
2025-08-31T04:09	10	0	0.0	0	0	362	0.2	362	363	11.7	87.2
2025-08-31T04:10	10	0	0.0	0	0	362	0.2	362	363	11.8	87.1
2025-08-31T04:11	10	0	0.0	-1	0	363	0.2	362	363	12.0	85.5
2025-08-31T04:12	10	0	0.0	-1	0	363	0.3	362	363	12.2	84.6
2025-08-31T04:13	10	0	0.0	-1	0	363	0.2	362	363	12.2	84.2
2025-08-31T04:14	10	0	0.0	-1	0	363	0.3	362	363	12.3	83.6
2025-08-31T04:15	10	0	0.0	0	0	363	0.2	362	363	12.4	83.2
2025-08-31T04:16	10	0	0.0	0	0	362	0.3	362	363	12.4	83.1
2025-08-31T04:17	10	0	0.1	0	0	362	0.3	361	362	12.4	83.1
2025-08-31T04:18	10	0	0.0	-1	0	362	0.2	361	362	12.3	83.5
2025-08-31T04:19	10	0	0.1	0	0	362	0.4	361	362	12.4	83.4
2025-08-31T04:20	10	0	0.0	0	0	361	0.4	360	362	12.2	84.3
2025-08-31T04:21	10	0	0.0	0	0	360	0.3	360	361	12.0	85.3
2025-08-31T04:22	10	0	0.1	0	0	360	0.3	359	361	11.9	86.0
2025-08-31T04:23	10	0	0.1	0	0	359	0.2	359	360	11.7	87.6
2025-08-31T04:24	10	0	0.1	0	0	359	0.2	358	359	11.6	87.9
2025-08-31T04:25	10	0	0.1	-1	0	359	0.2	358	359	11.6	88.0
2025-08-31T04:26	10	0	0.1	0	0	359	0.3	358	359	11.4	89.4
2025-08-31T04:27	10	0	0.1	-1	0	359	0.3	359	360	11.3	90.1
2025-08-31T04:28	10	0	0.1	-1	0	360	0.3	359	361	11.2	90.3
2025-08-31T04:29	10	0	0.1	-1	0	360	0.2	360	361	11.2	90.6
2025-08-31T04:30	10	0	0.1	-1	0	360	0.2	360	361	11.2	90.6
2025-08-31T04:31	10	0	0.1	-1	0	361	0.3	360	361	11.2	90.4
2025-08-31T04:32	10	0	0.1	0	0	361	0.3	360	361	11.2	90.4
2025-08-31T04:33	10	0	0.1	-1	0	361	0.3	360	362	11.0	91.4
2025-08-31T04:34	10	0	0.1	0	0	361	0.2	361	362	10.9	92.3
2025-08-31T04:35	10	0	0.1	0	0	361	0.2	360	362	10.9	92.8
2025-08-31T04:36	10	0	0.1	0	0	361	0.2	361	361	10.9	92.7
2025-08-31T04:37	10	0	0.1	0	0	361	0.2	360	361	10.9	92.9
2025-08-31T04:38	10	0	0.1	0	0	361	0.2	360	361	10.8	93.0
2025-08-31T04:39	10	0	0.1	0	0	360	0.2	360	361	10.8	93.2
2025-08-31T04:40	10	0	0.1	0	0	360	0.2	360	361	10.7	93.6
2025-08-31T04:41	10	0	0.1	0	0	360	0.2	359	360	10.7	93.9
2025-08-31T04:42	10	0	0.1	0	0	360	0.2	359	360	10.6	94.3
2025-08-31T04:43	10	0	0.1	0	0	359	0.2	359	360	10.6	94.4
2025-08-31T04:44	10	0	0.1	0	0	359	0.3	359	360	10.6	94.4
2025-08-31T04:45	10	0	0.4	0	3	359	0.3	359	360	10.6	94.5
2025-08-31T04:46	10	0	0.1	0	0	359	0.3	358	359	10.6	94.6
2025-08-31T04:47	10	0	0.1	0	1	359	0.2	358	359	10.6	94.7
2025-08-31T04:48	10	0	0.1	0	1	359	0.3	358	359	10.5	94.8
2025-08-31T04:49	10	0	0.1	0	1	359	0.3	358	360	10.5	94.9
2025-08-31T04:50	10	0	0.1	0	1	359	0.3	359	360	10.6	94.9
2025-08-31T04:51	10	0	0.1	0	1	360	0.2	359	360	10.7	94.3
2025-08-31T04:52	10	0	0.1	0	1	360	0.3	359	360	10.8	93.7
2025-08-31T04:53	10	1	0.1	0	1	360	0.2	359	361	10.8	93.4
2025-08-31T04:54	10	1	0.1	0	1	360	0.2	360	361	10.8	93.2
2025-08-31T04:55	10	1	0.1	0	1	360	0.2	360	361	10.8	93.2
2025-08-31T04:56	10	1	0.1	0	1	360	0.3	360	361	10.8	93.2
2025-08-31T04:57	10	1	0.1	1	1	360	0.2	360	361	10.9	93.0
2025-08-31T04:58	10	1	0.1	1	1	360	0.3	360	361	10.8	93.2
2025-08-31T04:59	10	1	0.1	1	1	360	0.3	360	361	10.9	93.2
2025-08-31T05:00	10	1	0.1	1	1	360	0.2	360	361	10.8	93.3
2025-08-31T05:01	10	2	0.2	1	2	360	0.2	360	361	10.8	93.3
2025-08-31T05:02	10	2	0.2	2	3	360	0.3	360	361	10.9	93.3
2025-08-31T05:03	10	3	0.2	2	3	361	0.4	360	362	11.1	92.4
2025-08-31T05:04	10	3	0.1	3	3	362	0.3	361	362	11.3	91.5
2025-08-31T05:05	10	3	0.2	3	3	362	0.3	362	363	11.4	90.7
2025-08-31T05:06	10	3	0.2	2	3	363	0.3	362	363	11.5	89.4
2025-08-31T05:07	10	2	0.2	2	2	363	0.3	362	363	11.4	89.7
2025-08-31T05:08	10	2	0.1	2	2	362	0.3	362	363	11.4	89.7
2025-08-31T05:09	10	2	0.1	2	2	362	0.3	362	363	11.4	89.4
2025-08-31T05:10	10	2	0.1	2	2	362	0.3	362	363	11.4	89.3
2025-08-31T05:11	10	2	0.1	2	2	362	0.2	362	363	11.3	89.7
2025-08-31T05:12	10	2	0.1	2	2	363	0.3	362	363	11.5	88.9
2025-08-31T05:13	10	3	0.1	2	3	362	0.2	362	363	11.4	89.3
2025-08-31T05:14	10	3	0.5	3	5	362	0.3	362	363	11.3	89.8
2025-08-31T05:15	10	6	0.7	4	7	362	0.3	361	362	11.2	90.5
2025-08-31T05:16	10	8	0.3	7	8	362	0.2	361	362	11.1	90.9
2025-08-31T05:17	10	8	0.2	8	9	362	0.3	361	362	11.1	91.3
2025-08-31T05:18	10	9	0.2	9	9	362	0.2	361	362	11.1	91.2
2025-08-31T05:19	10	9	0.2	9	10	362	0.2	362	363	11.1	91.0
2025-08-31T05:20	10	10	0.2	10	10	362	0.2	362	363	11.2	90.9
2025-08-31T05:21	10	11	0.2	10	11	363	0.2	362	363	11.2	90.8
2025-08-31T05:22	10	11	0.2	11	12	363	0.2	362	363	11.2	90.6
2025-08-31T05:23	10	12	0.2	11	12	363	0.2	363	364	11.3	90.4
2025-08-31T05:24	10	12	0.2	11	12	363	0.3	363	364	11.3	90.5
2025-08-31T05:25	10	9	1.2	7	11	363	0.3	363	364	11.4	90.3
2025-08-31T05:26	10	5	1.3	3	7	363	0.2	363	364	11.4	89.8
2025-08-31T05:27	10	3	0.1	3	3	363	0.3	363	364	11.4	89.7
2025-08-31T05:28	10	3	0.1	3	3	364	0.2	363	364	11.4	89.7
2025-08-31T05:29	10	3	0.1	3	4	364	0.2	363	364	11.4	89.9
2025-08-31T05:30	10	4	0.1	4	4	364	0.2	363	364	11.4	90.2
2025-08-31T05:31	10	4	0.1	4	4	364	0.2	364	365	11.4	90.8
2025-08-31T05:32	10	4	0.1	4	4	365	0.3	364	365	11.3	91.2
2025-08-31T05:33	10	4	0.1	4	5	365	0.2	365	366	11.4	90.9
2025-08-31T05:34	10	5	0.1	4	5	366	0.3	365	366	11.5	91.2
2025-08-31T05:35	10	5	0.1	5	5	366	0.2	365	366	11.3	92.0
2025-08-31T05:36	10	5	0.1	5	5	366	0.2	366	367	11.2	92.5
2025-08-31T05:37	10	6	0.1	5	6	366	0.2	366	367	11.1	92.8
2025-08-31T05:38	10	6	0.2	6	7	367	0.2	366	367	11.1	92.9
2025-08-31T05:39	10	7	0.1	6	7	367	0.2	366	367	11.1	92.6
2025-08-31T05:40	10	9	1.1	7	10	368	0.5	367	368	11.2	92.2
2025-08-31T05:41	10	9	0.5	8	10	368	0.2	368	369	11.4	91.0
2025-08-31T05:42	10	8	0.2	7	8	368	0.3	368	369	11.3	91.1
2025-08-31T05:43	10	8	0.4	8	11	369	0.3	368	369	11.4	90.4
2025-08-31T05:44	10	8	0.1	8	9	369	0.3	369	370	11.5	89.9
2025-08-31T05:45	10	9	0.1	8	9	370	0.3	369	370	11.6	89.8
2025-08-31T05:46	10	9	0.1	9	9	370	0.2	370	370	11.7	89.2
2025-08-31T05:47	10	9	0.0	9	9	370	0.2	370	370	11.7	89.1
2025-08-31T05:48	10	9	0.1	9	9	370	0.3	370	371	11.7	89.1
2025-08-31T05:49	10	9	0.1	9	9	370	0.3	370	371	11.8	89.0
2025-08-31T05:50	10	9	0.1	9	9	370	0.2	370	371	11.9	88.6
2025-08-31T05:51	10	8	0.1	8	9	370	0.3	370	371	11.9	88.8
2025-08-31T05:52	10	9	0.7	8	11	370	0.2	370	371	12.0	88.2
2025-08-31T05:53	10	12	0.9	11	14	370	0.3	370	371	12.1	87.8
2025-08-31T05:54	10	19	2.9	14	24	371	0.4	370	371	12.1	87.4
2025-08-31T05:55	10	25	1.5	21	27	372	0.4	371	372	12.0	88.2
2025-08-31T05:56	10	15	2.8	12	21	372	0.6	371	373	11.9	90.0
2025-08-31T05:57	10	14	1.1	12	15	371	0.4	370	372	11.9	90.3
2025-08-31T05:58	10	8	1.5	6	11	370	0.6	369	371	11.9	89.9
2025-08-31T05:59	10	6	0.2	6	7	370	0.4	369	371	11.9	90.2
2025-08-31T06:00	10	6	0.2	5	6	369	0.3	368	370	11.8	91.2
2025-08-31T06:01	10	5	0.1	5	6	368	0.3	368	369	11.7	91.6
2025-08-31T06:02	10	5	0.2	5	6	368	0.1	368	368	11.7	91.7
2025-08-31T06:03	10	18	8.1	6	31	369	0.9	367	371	11.7	91.7
2025-08-31T06:04	10	35	1.0	31	36	371	1.0	369	373	11.8	91.0
2025-08-31T06:05	10	36	0.1	35	36	373	0.6	372	374	11.9	90.0
2025-08-31T06:06	10	36	0.1	36	36	374	0.3	374	375	12.0	91.0
2025-08-31T06:07	10	36	0.1	36	36	375	0.2	375	376	12.0	91.6
2025-08-31T06:08	10	36	0.1	36	37	376	0.3	375	376	12.1	91.5
2025-08-31T06:09	10	36	0.1	36	37	377	0.2	376	377	12.4	91.1
2025-08-31T06:10	10	36	0.1	36	37	377	0.2	376	377	12.5	90.4
2025-08-31T06:11	10	37	0.2	37	37	378	0.3	377	378	12.7	89.5
2025-08-31T06:12	10	37	0.1	37	37	378	0.2	377	378	12.8	89.7
2025-08-31T06:13	10	38	0.2	37	38	378	0.2	378	378	12.9	89.2
2025-08-31T06:14	10	38	0.2	38	39	378	0.3	378	379	13.1	86.9
2025-08-31T06:15	10	39	0.2	38	39	378	0.2	378	379	12.8	88.7
2025-08-31T06:16	10	39	0.2	39	40	379	0.3	378	379	12.6	89.9
2025-08-31T06:17	10	40	0.2	39	40	379	0.2	379	380	12.6	89.7
2025-08-31T06:18	10	40	0.2	40	41	380	0.2	379	380	12.7	90.7
2025-08-31T06:19	10	41	0.5	40	43	380	0.2	380	381	12.8	90.2
2025-08-31T06:20	10	41	0.2	41	42	381	0.2	380	382	13.0	89.4
2025-08-31T06:21	10	42	0.2	41	42	382	0.2	381	382	12.9	87.8
2025-08-31T06:22	10	42	0.2	42	43	382	0.2	381	382	12.9	87.5
2025-08-31T06:23	10	43	0.2	43	43	382	0.3	381	383	13.0	87.1
2025-08-31T06:24	10	43	0.2	43	44	383	0.2	382	383	13.0	88.2
2025-08-31T06:25	10	44	0.2	44	44	383	0.2	382	383	12.9	88.9
2025-08-31T06:26	10	45	0.2	44	45	383	0.2	382	383	12.8	89.1
2025-08-31T06:27	10	45	0.1	45	45	383	0.2	382	383	12.8	88.0
2025-08-31T06:28	10	46	0.1	45	46	383	0.2	383	384	12.8	87.7
2025-08-31T06:29	10	46	0.2	46	46	384	0.2	383	384	12.9	87.9
2025-08-31T06:30	10	47	0.2	46	47	384	0.2	384	384	12.9	89.4
2025-08-31T06:31	10	47	0.2	47	48	384	0.2	384	384	12.8	87.8
2025-08-31T06:32	10	47	0.3	46	47	384	0.2	384	385	13.0	87.4
2025-08-31T06:33	10	47	0.6	46	48	385	0.3	384	386	13.2	84.6
2025-08-31T06:34	10	49	0.3	48	49	385	0.2	385	386	13.8	82.0
2025-08-31T06:35	10	49	0.1	49	50	386	0.2	385	386	14.1	80.6
2025-08-31T06:36	10	50	0.2	50	50	386	0.2	385	386	14.1	81.0
2025-08-31T06:37	10	51	0.2	50	51	386	0.2	386	387	13.8	82.0
2025-08-31T06:38	10	51	0.2	51	52	387	0.2	386	387	13.7	83.3
2025-08-31T06:39	10	52	0.2	51	52	387	0.2	387	388	13.7	84.2
2025-08-31T06:40	10	52	0.2	52	53	387	0.3	387	388	13.8	83.7
2025-08-31T06:41	10	53	0.2	53	53	388	0.2	387	388	14.0	81.4
2025-08-31T06:42	10	53	0.2	53	54	388	0.2	388	389	14.1	80.9
2025-08-31T06:43	10	54	0.2	54	55	389	0.3	388	389	14.1	81.0
2025-08-31T06:44	10	54	0.4	54	55	389	0.3	389	390	14.2	81.3
2025-08-31T06:45	10	56	0.3	54	56	389	0.2	389	390	14.3	81.2
2025-08-31T06:46	10	56	0.2	56	57	390	0.3	389	391	14.3	81.8
2025-08-31T06:47	10	57	0.2	57	57	390	0.4	390	391	14.3	82.4
2025-08-31T06:48	10	58	0.2	57	58	390	0.3	390	391	14.3	77.2
2025-08-31T06:49	10	58	0.2	58	59	391	0.2	390	391	14.4	78.2
2025-08-31T06:50	10	59	0.2	58	59	392	0.3	391	392	14.4	78.9
2025-08-31T06:51	10	59	0.2	59	60	392	0.2	391	392	14.4	79.2
2025-08-31T06:52	10	60	0.2	59	60	392	0.2	392	393	14.4	77.8
2025-08-31T06:53	10	61	0.3	60	61	392	0.2	392	393	14.5	77.3
2025-08-31T06:54	10	62	0.4	61	62	393	0.3	392	394	14.6	77.2
2025-08-31T06:55	10	63	0.4	62	64	394	0.3	393	395	14.8	76.4
2025-08-31T06:56	10	65	0.4	64	66	394	0.2	394	395	14.8	77.3
2025-08-31T06:57	10	61	1.5	59	65	395	0.3	394	395	14.8	76.6
2025-08-31T06:58	10	69	0.9	66	70	395	0.4	394	396	14.8	77.2
2025-08-31T06:59	10	63	6.2	55	71	396	0.8	394	397	14.6	78.4
2025-08-31T07:00	10	66	4.1	58	72	395	0.5	394	396	14.7	78.3
2025-08-31T07:01	10	47	5.9	40	58	394	1.2	392	396	14.8	78.6
2025-08-31T07:02	10	36	1.4	34	40	392	0.9	390	394	14.9	79.0
2025-08-31T07:03	10	44	3.5	38	48	392	0.4	391	393	14.9	77.9
2025-08-31T07:04	10	49	5.3	41	57	393	0.4	392	394	14.8	78.1
2025-08-31T07:05	10	57	5.5	43	63	394	0.9	392	395	14.8	76.7
2025-08-31T07:06	10	53	1.8	50	56	395	0.3	394	396	14.9	76.4
2025-08-31T07:07	10	47	1.4	44	49	395	0.4	394	396	15.0	77.4
2025-08-31T07:08	10	50	4.7	43	58	394	0.3	394	395	15.0	76.7
2025-08-31T07:09	10	71	8.1	47	79	397	1.5	394	399	15.2	76.5
2025-08-31T07:10	10	74	2.4	71	79	399	0.4	398	399	15.3	77.6
2025-08-31T07:11	10	82	1.1	79	83	401	0.9	399	402	15.8	75.9
2025-08-31T07:12	10	79	1.9	77	83	402	0.2	401	403	16.0	75.2
2025-08-31T07:13	10	77	3.0	73	84	402	0.3	402	403	15.9	76.3
2025-08-31T07:14	10	86	1.2	82	87	403	0.3	403	404	15.6	76.9
2025-08-31T07:15	10	82	4.0	77	90	403	0.3	402	404	15.7	75.9
2025-08-31T07:16	10	91	0.5	90	92	404	0.5	403	405	15.6	76.2
2025-08-31T07:17	10	92	0.3	92	93	405	0.2	404	405	15.5	76.9
2025-08-31T07:18	10	93	0.3	93	94	405	0.2	405	406	15.4	77.7
2025-08-31T07:19	10	94	0.2	94	95	406	0.3	406	407	15.5	78.8
2025-08-31T07:20	10	95	0.2	94	95	407	0.3	406	408	15.6	78.0
2025-08-31T07:21	10	91	2.6	83	95	408	0.3	407	408	15.6	78.0
2025-08-31T07:22	10	54	12.8	41	83	404	2.9	400	409	15.7	79.0
2025-08-31T07:23	10	42	1.6	40	45	400	1.2	398	402	15.6	77.8
2025-08-31T07:24	10	42	2.9	37	45	398	0.7	397	399	15.5	78.1
2025-08-31T07:25	10	34	2.5	31	39	396	0.6	395	397	15.5	78.2
2025-08-31T07:26	10	36	2.4	32	41	396	0.2	396	397	15.5	78.6
2025-08-31T07:27	10	35	2.7	33	40	396	0.4	396	397	15.5	78.5
2025-08-31T07:28	10	35	2.2	33	40	396	0.3	395	396	15.5	78.9
2025-08-31T07:29	10	38	2.3	35	42	396	0.3	396	397	15.5	79.3
2025-08-31T07:30	10	58	17.0	39	81	398	1.9	396	402	15.5	79.6
2025-08-31T07:31	10	96	6.8	81	101	405	2.3	400	408	15.8	80.2
2025-08-31T07:32	10	101	0.1	101	101	409	1.1	407	410	15.9	79.2
2025-08-31T07:33	10	84	14.8	61	101	408	1.5	406	410	15.9	79.9
2025-08-31T07:34	10	57	22.7	32	91	405	2.4	400	408	15.9	77.6
2025-08-31T07:35	10	32	2.0	30	36	400	1.3	398	402	16.1	76.3
2025-08-31T07:36	10	34	1.2	31	35	398	0.5	397	399	15.9	76.8
2025-08-31T07:37	10	31	0.8	30	33	397	0.4	396	398	15.8	77.7
2025-08-31T07:38	10	31	2.7	27	35	396	0.4	395	397	16.0	77.3
2025-08-31T07:39	10	26	0.8	25	28	395	0.6	394	396	15.8	77.7
2025-08-31T07:40	10	28	2.4	25	33	394	0.4	394	395	15.5	78.8
2025-08-31T07:41	10	46	11.2	31	63	395	1.5	394	399	15.3	79.3
2025-08-31T07:42	10	83	11.3	64	96	401	2.5	397	406	15.3	79.8
2025-08-31T07:43	10	96	2.4	92	99	406	1.2	404	408	15.3	79.7
2025-08-31T07:44	10	97	0.3	97	98	408	0.5	407	409	15.4	79.4
2025-08-31T07:45	10	96	0.2	96	97	410	0.4	409	410	15.5	79.6
2025-08-31T07:46	10	96	1.9	96	108	410	0.3	409	410	15.5	79.6
2025-08-31T07:47	10	96	0.1	95	96	410	0.2	410	411	15.5	79.2
2025-08-31T07:48	10	95	0.1	95	95	411	0.2	410	411	15.6	79.1
2025-08-31T07:49	10	95	0.1	95	95	411	0.4	410	412	15.6	78.8
2025-08-31T07:50	10	95	0.1	95	95	411	0.2	410	411	15.6	78.5
2025-08-31T07:51	10	95	0.1	95	95	412	0.6	411	413	15.7	78.9
2025-08-31T07:52	10	95	0.1	95	95	413	0.5	412	414	15.8	79.5
2025-08-31T07:53	10	95	0.1	95	95	413	0.2	412	413	15.9	78.4
2025-08-31T07:54	10	95	0.1	95	95	412	0.3	411	413	15.9	78.4
2025-08-31T07:55	10	95	0.1	95	95	413	0.4	412	414	15.9	78.1
2025-08-31T07:56	10	95	0.1	95	96	415	0.4	414	415	16.1	78.5
2025-08-31T07:57	10	96	0.1	95	96	414	0.7	413	416	16.4	78.3
2025-08-31T07:58	10	96	0.1	96	96	413	0.9	412	415	16.0	76.8
2025-08-31T07:59	10	96	0.1	96	96	413	0.4	412	414	15.9	77.5
2025-08-31T08:00	10	96	0.1	96	97	414	0.3	413	415	15.9	77.5
2025-08-31T08:01	10	97	0.1	96	97	413	0.6	413	414	16.0	77.4
2025-08-31T08:02	10	97	0.1	97	97	413	0.4	413	414	15.9	76.9
2025-08-31T08:03	10	97	0.1	97	97	414	0.4	412	414	15.9	77.2
2025-08-31T08:04	10	97	0.1	97	98	414	0.3	414	415	16.0	76.7
2025-08-31T08:05	10	98	0.2	97	98	415	0.5	414	416	16.0	76.6
2025-08-31T08:06	10	98	0.1	98	98	416	0.3	415	417	16.1	76.1
2025-08-31T08:07	10	98	0.1	98	99	417	0.6	415	418	16.2	76.1
2025-08-31T08:08	10	99	0.1	98	99	415	0.3	414	416	16.0	76.2
2025-08-31T08:09	10	99	0.1	98	99	415	0.5	414	416	16.1	76.7
2025-08-31T08:10	10	99	0.1	99	99	416	0.5	415	417	16.1	76.1
2025-08-31T08:11	10	99	0.1	99	100	417	0.4	416	417	16.1	75.9
2025-08-31T08:12	10	100	0.2	99	100	417	0.6	417	418	16.3	76.3
2025-08-31T08:13	10	100	0.1	100	100	418	0.4	417	419	16.2	75.8
2025-08-31T08:14	10	100	0.1	100	101	417	0.8	416	419	16.4	76.2
2025-08-31T08:15	10	101	0.1	100	101	417	0.8	416	418	16.3	75.8
2025-08-31T08:16	10	101	0.1	101	101	415	0.4	414	416	16.1	76.1
2025-08-31T08:17	10	101	0.1	101	101	416	0.2	416	417	16.1	76.3
2025-08-31T08:18	10	101	0.1	101	102	417	0.8	415	418	16.1	76.5
2025-08-31T08:19	10	102	0.1	101	102	418	0.6	417	419	16.2	76.2
2025-08-31T08:20	10	102	0.1	102	102	417	0.3	417	418	16.3	76.4
2025-08-31T08:21	10	102	0.1	102	103	418	0.5	417	419	16.2	76.1
2025-08-31T08:22	10	103	0.1	102	103	419	0.3	418	420	16.4	76.0
2025-08-31T08:23	10	103	0.1	103	103	420	1.1	418	422	16.6	76.8
2025-08-31T08:24	10	103	0.2	103	103	422	0.3	421	422	16.8	75.9
2025-08-31T08:25	10	104	0.1	103	104	421	0.3	421	422	16.5	75.2
2025-08-31T08:26	10	104	0.1	104	104	421	0.4	420	422	16.4	75.6
2025-08-31T08:27	10	104	0.1	104	104	421	0.7	420	423	16.6	75.7
2025-08-31T08:28	10	105	0.1	104	105	420	0.3	420	421	16.4	75.2
2025-08-31T08:29	10	105	0.1	105	105	420	0.6	420	422	16.3	75.5
2025-08-31T08:30	10	105	0.1	105	105	423	0.7	421	424	16.5	76.2
2025-08-31T08:31	10	105	0.1	105	105	423	0.4	422	423	16.5	75.0
2025-08-31T08:32	10	106	0.1	105	106	422	0.6	421	424	16.5	75.2
2025-08-31T08:33	10	106	0.1	106	106	424	0.3	423	424	16.5	75.3
2025-08-31T08:34	10	106	0.1	106	106	424	0.2	423	424	16.6	74.9
2025-08-31T08:35	10	107	0.1	106	107	424	0.3	424	425	16.5	74.3
2025-08-31T08:36	10	107	0.1	107	107	423	0.3	423	424	16.5	74.3
2025-08-31T08:37	10	107	0.1	107	107	425	0.6	423	426	16.5	74.3
2025-08-31T08:38	10	107	0.1	107	107	424	0.4	423	425	16.5	74.3
2025-08-31T08:39	10	108	0.1	107	108	424	0.3	424	425	16.5	74.3
2025-08-31T08:40	10	108	0.1	108	108	426	0.6	424	427	16.5	74.3
2025-08-31T08:41	10	108	0.1	108	109	425	0.8	424	427	16.5	74.3
2025-08-31T08:42	10	108	0.1	108	109	425	0.4	425	426	16.6	74.3
2025-08-31T08:43	10	109	0.1	109	109	427	0.5	426	428	16.8	71.8
2025-08-31T08:44	10	109	0.1	109	109	427	0.2	427	428	16.9	71.6
2025-08-31T08:45	10	109	0.1	109	110	428	0.2	427	428	17.2	70.1
2025-08-31T08:46	10	110	0.1	110	110	429	0.4	428	430	17.3	70.7
2025-08-31T08:47	10	110	0.1	110	111	430	0.3	429	431	17.3	71.2
2025-08-31T08:48	10	110	0.1	110	110	430	0.4	429	431	17.2	70.0
2025-08-31T08:49	10	111	0.1	110	111	430	0.2	430	431	17.2	69.8
2025-08-31T08:50	10	111	0.2	111	112	430	0.3	429	431	17.2	70.6
2025-08-31T08:51	10	111	0.1	111	112	431	0.3	430	432	17.4	71.3
2025-08-31T08:52	10	112	0.1	111	112	431	0.5	431	432	17.2	71.4
2025-08-31T08:53	10	112	0.1	112	112	431	0.3	430	431	17.1	70.7
2025-08-31T08:54	10	112	0.1	112	112	431	0.2	431	432	17.1	70.5
2025-08-31T08:55	10	112	0.2	112	113	432	0.3	432	433	17.2	70.9
2025-08-31T08:56	10	113	0.1	113	113	433	0.2	432	433	17.2	70.1
2025-08-31T08:57	10	113	0.1	113	113	433	0.3	432	433	17.4	71.5
2025-08-31T08:58	10	113	0.2	113	114	434	0.4	433	434	17.6	69.2
2025-08-31T08:59	10	114	0.1	113	114	433	0.3	432	434	17.2	67.6
2025-08-31T09:00	10	114	0.2	113	114	434	0.4	434	435	17.2	68.8
2025-08-31T09:01	10	114	0.3	114	115	435	0.3	435	436	17.5	68.3
2025-08-31T09:02	10	114	0.2	114	115	436	0.3	435	437	17.8	67.9
2025-08-31T09:03	10	115	0.2	114	115	435	0.9	433	437	17.9	66.0
2025-08-31T09:04	10	115	0.2	115	115	436	0.3	435	436	17.8	66.2
2025-08-31T09:05	10	115	0.2	115	116	436	0.6	435	437	17.8	67.8
2025-08-31T09:06	10	115	0.1	115	116	435	0.5	434	436	17.6	67.4
2025-08-31T09:07	10	116	0.1	116	116	436	0.3	435	436	17.9	67.4
2025-08-31T09:08	10	116	0.2	116	116	436	0.4	435	436	17.8	66.0
2025-08-31T09:09	10	116	0.1	116	117	436	0.3	435	437	17.9	65.3
2025-08-31T09:10	10	117	0.1	116	117	436	0.4	435	437	17.9	65.3
2025-08-31T09:11	10	117	0.1	117	117	436	0.4	435	437	17.8	65.3
2025-08-31T09:12	10	117	0.1	117	117	437	0.3	436	438	17.9	65.8
2025-08-31T09:13	10	117	0.1	117	118	438	0.3	437	439	18.0	66.6
2025-08-31T09:14	10	118	0.1	117	118	439	0.3	439	440	18.1	66.3
2025-08-31T09:15	10	118	0.1	118	118	439	0.5	439	441	18.3	67.2
2025-08-31T09:16	10	118	0.1	118	118	440	0.6	439	441	18.4	67.3
2025-08-31T09:17	10	118	0.1	118	119	441	0.3	441	442	18.4	65.6
2025-08-31T09:18	10	119	0.1	118	119	441	0.4	440	442	18.5	66.9
2025-08-31T09:19	10	119	0.1	119	119	441	0.6	440	442	18.4	66.6
2025-08-31T09:20	10	119	0.1	119	119	441	0.5	440	442	18.4	66.4
2025-08-31T09:21	10	119	0.1	119	120	442	0.4	441	443	18.4	66.6
2025-08-31T09:22	10	120	0.1	119	120	442	0.2	442	443	18.6	67.9
2025-08-31T09:23	10	120	0.1	120	120	443	0.5	442	444	18.6	66.0
2025-08-31T09:24	10	120	0.1	120	120	442	0.7	441	444	18.6	65.7
2025-08-31T09:25	10	120	0.1	120	120	443	0.7	442	444	18.7	66.8
2025-08-31T09:26	10	120	0.1	120	121	441	1.3	438	443	18.4	64.0
2025-08-31T09:27	10	121	0.1	121	121	440	0.3	439	440	18.0	63.1
2025-08-31T09:28	10	121	0.1	121	121	440	0.5	439	441	18.0	63.7
2025-08-31T09:29	10	121	0.1	121	121	441	0.4	440	442	17.9	62.9
2025-08-31T09:30	10	121	0.1	121	122	441	0.4	440	442	18.0	63.2
2025-08-31T09:31	10	122	0.1	121	122	441	0.5	440	442	18.0	63.3
2025-08-31T09:32	10	122	0.1	122	122	441	0.7	440	443	18.1	64.6
2025-08-31T09:33	10	122	0.1	122	122	442	0.7	440	443	18.2	64.7
2025-08-31T09:34	10	122	0.1	122	123	442	0.5	440	442	18.2	64.3
2025-08-31T09:35	10	123	0.1	122	123	442	0.9	441	444	18.3	64.9
2025-08-31T09:36	10	123	0.1	123	123	442	0.5	441	443	18.2	63.1
2025-08-31T09:37	10	123	0.1	123	123	444	0.7	442	445	18.2	63.2
2025-08-31T09:38	10	123	0.1	123	124	445	0.3	444	446	18.5	63.9
2025-08-31T09:39	10	124	0.1	123	124	445	0.3	445	446	18.5	63.0
2025-08-31T09:40	10	124	0.1	124	124	446	0.4	446	447	18.6	62.9
2025-08-31T09:41	10	124	0.1	124	124	446	0.4	445	446	18.5	62.6
2025-08-31T09:42	10	124	0.1	124	125	446	0.2	445	446	18.5	62.6
2025-08-31T09:43	10	125	0.1	124	125	445	0.6	444	446	18.6	62.5
2025-08-31T09:44	10	125	0.1	125	125	446	0.6	445	447	18.4	62.9
2025-08-31T09:45	10	125	0.1	125	125	448	0.6	447	449	18.7	63.6
2025-08-31T09:46	10	125	0.1	125	125	447	0.3	446	447	18.6	61.5
2025-08-31T09:47	10	125	0.1	125	126	447	0.4	447	448	18.7	61.9
2025-08-31T09:48	10	126	0.1	125	126	448	0.5	448	450	18.8	60.8
2025-08-31T09:49	10	126	0.1	126	126	449	0.3	448	450	18.9	61.9
2025-08-31T09:50	10	126	0.1	126	126	449	0.6	448	450	18.8	62.1
2025-08-31T09:51	10	126	0.1	126	127	449	0.5	448	450	18.9	62.9
2025-08-31T09:52	10	126	0.1	126	127	449	0.3	449	450	19.1	61.9
2025-08-31T09:53	10	127	0.1	126	127	450	0.5	448	450	19.2	61.8
2025-08-31T09:54	10	127	0.1	126	127	450	0.6	449	451	19.0	62.5
2025-08-31T09:55	10	127	0.1	127	127	450	0.6	449	451	19.3	62.5
2025-08-31T09:56	10	127	0.1	127	127	451	0.3	450	452	19.2	60.8
2025-08-31T09:57	10	127	0.1	127	127	450	0.6	449	451	18.8	59.8
2025-08-31T09:58	10	127	0.1	127	128	450	0.6	449	451	18.8	61.4
2025-08-31T09:59	10	128	0.1	127	128	448	0.7	447	450	18.6	60.7
2025-08-31T10:00	10	128	0.1	128	128	448	0.8	447	450	18.7	60.8
2025-08-31T10:01	10	128	0.1	128	128	447	0.9	445	448	18.6	60.9
2025-08-31T10:02	10	128	0.1	128	128	449	0.7	448	450	18.6	61.7
2025-08-31T10:03	10	128	0.1	128	128	449	0.3	449	450	18.8	61.5
2025-08-31T10:04	10	128	0.1	128	129	450	0.8	448	451	18.7	60.2
2025-08-31T10:05	10	129	0.1	128	129	452	0.3	451	452	18.7	60.3
2025-08-31T10:06	10	129	0.1	129	129	451	0.3	451	452	18.9	59.9
2025-08-31T10:07	10	129	0.1	129	129	453	0.6	452	454	19.2	59.6
2025-08-31T10:08	10	129	0.1	129	129	454	0.5	453	455	19.5	60.4
2025-08-31T10:09	10	129	0.1	129	130	454	1.7	450	456	19.3	60.5
2025-08-31T10:10	10	130	0.1	129	130	450	0.4	449	451	19.0	60.5
2025-08-31T10:11	10	130	0.1	129	130	453	1.1	451	455	19.1	61.5
2025-08-31T10:12	10	130	0.1	129	130	453	0.4	452	453	19.6	63.2
2025-08-31T10:13	10	130	0.1	130	130	453	1.0	451	455	19.6	62.5
2025-08-31T10:14	10	130	0.1	130	130	454	0.4	452	454	19.4	62.4
2025-08-31T10:15	10	130	0.1	130	130	450	0.6	449	452	18.9	61.9
2025-08-31T10:16	10	130	0.1	130	130	451	0.8	450	453	18.9	62.7
2025-08-31T10:17	10	130	0.1	130	131	455	0.6	453	456	19.4	63.8
2025-08-31T10:18	10	131	0.1	130	131	456	0.7	455	458	19.6	62.6
2025-08-31T10:19	10	131	0.1	131	131	457	0.3	456	457	19.6	61.6
2025-08-31T10:20	10	131	0.1	131	132	456	0.7	455	457	19.3	61.6
2025-08-31T10:21	10	131	0.1	131	132	456	0.3	456	457	19.2	62.1
2025-08-31T10:22	10	131	0.1	131	132	456	0.5	455	457	19.1	62.4
2025-08-31T10:23	10	132	0.1	131	132	454	0.4	454	456	19.0	61.5
2025-08-31T10:24	10	132	0.1	131	132	455	0.3	455	456	19.2	63.0
2025-08-31T10:25	10	132	0.1	132	132	455	0.6	453	456	19.3	60.8
2025-08-31T10:26	10	132	0.1	132	132	455	0.5	454	456	19.2	61.3
2025-08-31T10:27	10	132	0.1	132	132	456	0.7	455	457	19.2	61.6
2025-08-31T10:28	10	132	0.1	132	132	454	0.9	453	456	19.2	61.5
2025-08-31T10:29	10	132	0.1	132	132	454	0.2	453	454	19.0	61.5
2025-08-31T10:30	10	132	0.1	132	133	455	0.7	453	456	19.1	61.2
2025-08-31T10:31	10	133	0.1	132	133	457	0.7	455	458	19.2	61.6
2025-08-31T10:32	10	133	0.1	133	133	458	0.6	457	459	19.5	61.9
2025-08-31T10:33	10	133	0.1	133	133	457	0.4	456	458	19.3	60.5
2025-08-31T10:34	10	133	0.1	133	133	455	1.3	453	457	19.3	61.6
2025-08-31T10:35	10	133	0.1	133	133	454	0.5	453	455	19.3	62.1
2025-08-31T10:36	10	133	0.1	132	133	453	0.6	452	454	19.2	61.3
2025-08-31T10:37	10	133	0.1	132	133	454	0.6	453	455	19.3	61.7
2025-08-31T10:38	10	133	0.1	133	133	456	0.6	455	458	19.5	61.4
2025-08-31T10:39	10	133	0.1	133	133	457	0.4	456	457	19.6	61.5
2025-08-31T10:40	10	133	0.1	133	133	455	0.5	453	456	19.4	60.4
2025-08-31T10:41	10	133	0.1	133	133	455	0.5	454	456	19.3	60.9
2025-08-31T10:42	10	133	0.1	133	134	457	0.8	455	458	19.3	60.0
2025-08-31T10:43	10	134	0.1	134	134	459	0.3	458	459	19.3	60.3
2025-08-31T10:44	10	134	0.1	134	134	460	0.8	458	461	19.4	60.8
2025-08-31T10:45	10	134	0.1	134	134	460	0.3	460	461	19.6	60.5
2025-08-31T10:46	10	134	0.1	134	135	461	0.3	460	462	19.9	60.7
2025-08-31T10:47	10	135	0.1	134	135	460	0.9	459	462	19.9	59.7
2025-08-31T10:48	10	135	0.1	134	135	461	0.5	460	462	19.8	60.3
2025-08-31T10:49	10	135	0.1	135	135	459	0.5	459	461	19.5	59.4
2025-08-31T10:50	10	135	0.1	135	135	460	0.6	458	460	19.6	61.8
2025-08-31T10:51	10	135	0.1	135	135	458	0.8	457	459	19.5	60.1
2025-08-31T10:52	10	135	0.1	135	135	460	0.8	458	462	19.6	60.7
2025-08-31T10:53	10	135	0.1	135	135	459	0.9	458	461	19.6	60.3
2025-08-31T10:54	10	135	0.1	134	135	460	1.1	458	462	19.9	60.5
2025-08-31T10:55	10	135	0.1	134	135	458	1.0	456	460	19.8	60.1
2025-08-31T10:56	10	135	0.1	135	135	458	0.6	456	459	19.6	59.9
2025-08-31T10:57	10	135	0.1	135	135	457	0.4	456	457	19.5	59.9
2025-08-31T10:58	10	135	0.1	135	135	457	0.7	456	459	19.4	60.0
2025-08-31T10:59	10	135	0.1	135	135	457	1.0	455	459	19.4	60.0
2025-08-31T11:00	10	135	0.1	135	135	457	0.6	456	459	19.4	59.8
2025-08-31T11:01	10	135	0.1	135	136	460	0.8	458	461	19.5	60.1
2025-08-31T11:02	10	135	0.1	135	136	459	0.3	458	460	19.5	59.8
2025-08-31T11:03	10	136	0.1	135	136	459	0.5	458	460	19.5	59.8
2025-08-31T11:04	10	136	0.1	136	136	462	1.2	460	464	19.7	60.3
2025-08-31T11:05	10	136	0.1	136	136	462	0.4	461	463	19.7	59.7
2025-08-31T11:06	10	136	0.1	136	136	461	0.7	461	463	19.8	58.8
2025-08-31T11:07	10	136	0.1	136	137	463	1.3	461	465	19.9	59.1
2025-08-31T11:08	10	136	0.1	136	137	460	0.8	459	461	19.8	58.5
2025-08-31T11:09	10	136	0.1	136	137	461	1.2	459	463	19.7	58.7
2025-08-31T11:10	10	136	0.1	136	137	464	0.5	463	465	19.9	59.2
2025-08-31T11:11	10	136	0.1	136	137	465	0.4	464	465	19.9	59.0
2025-08-31T11:12	10	136	0.1	136	137	462	1.6	460	464	20.0	58.2
2025-08-31T11:13	10	136	0.1	136	137	460	0.9	459	462	19.9	58.0
2025-08-31T11:14	10	137	0.1	136	137	464	0.3	463	464	20.0	58.8
2025-08-31T11:15	10	137	0.1	136	137	463	1.1	462	465	20.1	58.2
2025-08-31T11:16	10	137	0.1	136	137	464	1.0	462	465	20.1	58.4
2025-08-31T11:17	10	137	0.1	137	137	465	0.6	464	467	20.3	58.8
2025-08-31T11:18	10	137	0.1	137	137	463	0.7	462	464	20.1	58.0
2025-08-31T11:19	10	137	0.1	137	137	463	0.5	462	464	20.1	58.8
2025-08-31T11:20	10	137	0.1	137	137	461	1.0	460	463	20.1	58.6
2025-08-31T11:21	10	137	0.1	137	137	461	0.5	460	463	20.0	58.3
2025-08-31T11:22	10	137	0.1	137	137	464	0.7	462	465	20.0	59.1
2025-08-31T11:23	10	137	0.1	137	137	463	0.5	462	464	20.0	58.3
2025-08-31T11:24	10	137	0.1	137	137	465	0.8	464	466	20.0	58.7
2025-08-31T11:25	10	137	0.1	137	137	467	0.3	466	468	20.4	59.7
2025-08-31T11:26	10	137	0.1	137	137	465	0.9	464	468	20.2	58.3
2025-08-31T11:27	10	137	0.1	137	137	466	0.9	464	467	20.1	58.8
2025-08-31T11:28	10	137	0.1	137	137	464	0.6	463	465	20.0	58.5
2025-08-31T11:29	10	137	0.2	137	137	465	0.4	465	466	20.1	58.8
2025-08-31T11:30	10	137	0.1	137	138	466	0.3	465	466	20.2	58.2
2025-08-31T11:31	10	138	0.1	137	138	467	0.6	465	468	20.4	59.2
2025-08-31T11:32	10	138	0.1	137	138	468	0.5	467	469	20.6	59.0
2025-08-31T11:33	10	138	0.1	138	138	469	0.5	468	470	20.7	59.5
2025-08-31T11:34	10	138	0.1	138	138	466	1.6	464	469	20.8	57.5
2025-08-31T11:35	10	138	0.1	138	138	467	0.9	465	468	20.6	58.4
2025-08-31T11:36	10	138	0.1	138	138	467	0.3	467	468	20.7	57.8
2025-08-31T11:37	10	138	0.1	138	138	463	2.0	461	468	20.5	57.8
2025-08-31T11:38	10	138	0.1	138	138	464	0.6	463	466	20.4	58.3
2025-08-31T11:39	10	138	0.1	137	138	467	0.6	466	468	20.6	59.0
2025-08-31T11:40	10	137	0.1	137	138	466	0.6	465	467	20.6	58.5
2025-08-31T11:41	10	137	0.1	137	138	468	0.4	467	468	21.1	59.2
2025-08-31T11:42	10	137	0.1	137	138	465	2.4	462	469	20.8	57.3
2025-08-31T11:43	10	138	0.1	137	138	464	0.9	462	465	20.3	57.8
2025-08-31T11:44	10	138	0.1	137	138	462	0.6	461	463	20.4	58.0
2025-08-31T11:45	10	138	0.1	137	138	463	1.0	461	465	20.4	57.8
2025-08-31T11:46	10	138	0.1	137	138	467	1.0	465	469	20.6	56.2
2025-08-31T11:47	10	138	0.1	138	138	469	0.4	469	470	21.0	57.1
2025-08-31T11:48	10	138	0.1	138	138	470	0.4	470	471	21.2	57.2
2025-08-31T11:49	10	138	0.1	138	138	469	0.9	467	470	21.1	55.0
2025-08-31T11:50	10	138	0.1	138	138	467	0.3	467	468	20.9	56.0
2025-08-31T11:51	10	138	0.1	138	139	468	0.4	467	469	20.8	56.1
2025-08-31T11:52	10	138	0.1	138	139	468	0.3	468	469	20.9	56.7
2025-08-31T11:53	10	139	0.1	138	139	470	0.3	469	470	21.0	57.3
2025-08-31T11:54	10	139	0.2	138	139	469	0.8	467	470	20.9	57.7
2025-08-31T11:55	10	138	0.1	138	138	468	0.5	467	469	20.9	58.0
2025-08-31T11:56	10	138	0.1	138	139	469	1.1	467	471	20.9	58.4
2025-08-31T11:57	10	138	0.2	138	138	465	0.6	464	467	20.7	57.4
2025-08-31T11:58	10	138	0.2	138	138	465	0.4	464	466	20.7	57.4
2025-08-31T11:59	10	138	0.2	137	138	467	0.9	465	469	20.7	57.6
2025-08-31T12:00	10	138	0.2	137	138	467	0.6	465	468	20.8	57.8
2025-08-31T12:01	10	138	0.2	138	138	469	0.6	468	470	21.0	57.3
2025-08-31T12:02	10	138	0.2	138	139	469	0.9	468	471	21.0	57.1
2025-08-31T12:03	10	138	0.2	138	139	471	0.9	469	472	21.2	57.7
2025-08-31T12:04	10	138	0.1	138	139	469	0.7	468	470	21.0	57.2
2025-08-31T12:05	10	139	0.1	138	139	469	0.6	468	471	21.0	57.0
2025-08-31T12:06	10	139	0.1	138	139	468	0.4	468	470	21.2	54.5
2025-08-31T12:07	10	139	0.1	138	139	468	0.9	466	470	21.3	54.0
2025-08-31T12:08	10	139	0.1	138	139	468	0.4	467	469	21.3	54.3
2025-08-31T12:09	10	138	0.1	138	139	469	0.5	468	470	21.4	54.2
2025-08-31T12:10	10	138	0.1	138	139	470	0.6	469	471	21.5	54.2
2025-08-31T12:11	10	138	0.1	138	138	471	0.7	469	472	21.5	54.9
2025-08-31T12:12	10	138	0.1	138	138	471	0.3	470	471	21.6	54.8
2025-08-31T12:13	10	138	0.0	138	138	470	0.5	469	471	21.6	54.7
2025-08-31T12:14	10	138	0.1	138	138	471	0.4	470	471	21.7	54.4
2025-08-31T12:15	10	138	0.1	138	138	471	0.2	470	471	21.7	54.8
2025-08-31T12:16	10	138	0.1	138	138	471	0.4	470	471	21.6	55.3
2025-08-31T12:17	10	138	0.1	138	138	472	0.6	471	473	21.6	55.5
2025-08-31T12:18	10	138	0.1	138	138	470	0.8	469	472	21.4	56.7
2025-08-31T12:19	10	138	0.1	137	138	471	1.3	469	473	21.4	57.0
2025-08-31T12:20	10	138	0.1	138	138	470	1.1	468	473	21.5	56.1
2025-08-31T12:21	10	138	0.1	137	138	469	0.9	468	471	21.4	56.8
2025-08-31T12:22	10	138	0.1	137	138	468	0.9	467	470	21.4	56.1
2025-08-31T12:23	10	137	0.1	137	138	468	0.4	467	469	21.2	56.5
2025-08-31T12:24	10	137	0.1	137	137	467	0.5	466	468	21.2	56.3
2025-08-31T12:25	10	137	0.1	137	137	467	0.7	466	469	21.0	56.5
2025-08-31T12:26	10	137	0.1	137	137	469	0.4	468	470	21.3	56.6
2025-08-31T12:27	10	137	0.1	137	137	470	0.7	469	471	21.3	56.2
2025-08-31T12:28	10	137	0.1	137	137	471	0.3	470	472	21.4	55.7
2025-08-31T12:29	10	137	0.1	137	137	471	0.3	470	472	21.5	55.5
2025-08-31T12:30	10	137	0.1	137	137	471	0.4	470	471	21.5	53.7
2025-08-31T12:31	10	137	0.1	137	137	472	0.5	471	473	21.7	53.8
2025-08-31T12:32	10	137	0.1	137	137	472	0.8	470	473	21.9	56.0
2025-08-31T12:33	10	137	0.2	136	137	468	1.7	466	471	21.6	54.3
2025-08-31T12:34	10	136	0.1	136	136	468	0.5	467	469	21.5	54.3
2025-08-31T12:35	10	136	0.1	136	136	470	0.8	468	471	21.8	55.3
2025-08-31T12:36	10	136	0.1	136	136	470	0.5	469	471	21.9	54.5
2025-08-31T12:37	10	136	0.1	136	136	470	0.5	469	471	21.8	54.0
2025-08-31T12:38	10	136	0.1	136	136	469	0.7	468	471	21.7	53.7
2025-08-31T12:39	10	136	0.1	135	136	469	0.3	468	470	21.7	54.1
2025-08-31T12:40	10	135	0.1	135	136	469	0.5	469	470	21.9	53.5
2025-08-31T12:41	10	135	0.1	135	135	471	0.7	470	472	22.0	52.9
2025-08-31T12:42	10	135	0.2	135	136	472	0.3	471	473	22.1	53.6
2025-08-31T12:43	10	135	0.1	135	135	472	0.4	471	473	22.0	52.6
2025-08-31T12:44	10	135	0.2	135	136	471	0.5	470	472	21.8	53.6
2025-08-31T12:45	10	135	0.2	134	135	469	1.1	468	471	21.8	53.6
2025-08-31T12:46	10	134	0.1	134	135	470	0.7	469	471	21.8	53.3
2025-08-31T12:47	10	134	0.2	134	135	471	0.6	470	472	21.9	52.9
2025-08-31T12:48	10	134	0.2	134	135	472	0.3	471	473	22.1	53.0
2025-08-31T12:49	10	134	0.2	133	135	471	1.3	469	473	22.2	53.3
2025-08-31T12:50	10	134	0.1	134	134	471	0.7	470	472	22.1	52.6
2025-08-31T12:51	10	134	0.1	134	134	470	0.3	469	470	22.0	52.3
2025-08-31T12:52	10	134	0.1	133	134	470	1.1	468	472	22.0	52.5
2025-08-31T12:53	10	134	0.1	133	134	472	0.6	471	473	22.1	53.4
2025-08-31T12:54	10	134	0.1	133	134	471	0.6	469	472	22.0	53.2
2025-08-31T12:55	10	133	0.2	133	133	468	0.5	467	470	21.9	53.7
2025-08-31T12:56	10	133	0.1	133	133	469	0.3	468	470	21.7	53.4
2025-08-31T12:57	10	133	0.1	132	133	468	0.5	467	470	21.8	54.6
2025-08-31T12:58	10	132	0.1	132	133	468	0.9	466	469	22.1	55.2
2025-08-31T12:59	10	132	0.1	132	132	468	1.4	466	470	22.2	54.5
2025-08-31T13:00	10	132	0.1	132	132	468	0.5	467	469	21.9	54.5
2025-08-31T13:01	10	132	0.1	132	132	468	0.8	467	469	21.9	54.1
2025-08-31T13:02	10	132	0.1	132	132	468	0.9	467	469	21.8	54.5
2025-08-31T13:03	10	132	0.1	132	132	469	0.9	467	471	22.0	54.5
2025-08-31T13:04	10	132	0.1	131	132	470	0.6	469	471	22.0	53.5
2025-08-31T13:05	10	131	0.1	131	132	469	1.2	467	471	22.1	54.7
2025-08-31T13:06	10	131	0.1	131	131	468	0.8	466	470	22.0	53.3
2025-08-31T13:07	10	131	0.1	131	131	469	0.7	468	470	22.0	52.9
2025-08-31T13:08	10	131	0.1	131	131	471	0.6	470	472	22.3	54.1
2025-08-31T13:09	10	131	0.1	130	131	472	0.5	471	473	22.2	53.4
2025-08-31T13:10	10	131	0.1	130	131	473	0.3	472	473	22.3	54.7
2025-08-31T13:11	10	131	0.1	130	131	473	0.4	472	474	22.4	54.1
2025-08-31T13:12	10	130	0.1	130	131	473	0.3	472	474	22.5	54.4
2025-08-31T13:13	10	130	0.1	130	131	473	0.3	472	474	22.7	54.0
2025-08-31T13:14	10	130	0.1	130	131	473	0.6	472	474	22.5	52.9
2025-08-31T13:15	10	130	0.2	130	130	472	0.8	470	473	22.6	54.2
2025-08-31T13:16	10	130	0.1	129	130	471	0.5	470	472	22.5	54.7
2025-08-31T13:17	10	129	0.2	129	130	470	0.4	469	470	22.5	54.1
2025-08-31T13:18	10	129	0.1	129	129	470	0.5	469	471	22.4	53.9
2025-08-31T13:19	10	129	0.1	129	129	469	0.5	468	470	22.2	53.9
2025-08-31T13:20	10	129	0.1	128	129	469	0.5	468	469	22.1	53.7
2025-08-31T13:21	10	129	0.1	128	129	469	0.5	469	470	22.2	52.7
2025-08-31T13:22	10	128	0.1	128	129	471	0.4	470	472	22.4	52.5
2025-08-31T13:23	10	128	0.1	128	129	471	0.3	470	472	22.5	53.3
2025-08-31T13:24	10	128	0.1	128	128	470	0.4	469	470	22.4	53.3
2025-08-31T13:25	10	128	0.1	128	128	471	0.4	470	472	22.4	53.4
2025-08-31T13:26	10	128	0.1	128	128	472	0.4	471	473	22.6	54.1
2025-08-31T13:27	10	127	0.1	127	128	470	1.2	468	472	22.6	54.6
2025-08-31T13:28	10	127	0.1	127	127	469	0.6	468	470	22.5	54.4
2025-08-31T13:29	10	127	0.1	127	127	471	1.1	469	472	22.6	55.1
2025-08-31T13:30	10	126	0.1	126	127	469	1.1	467	472	22.7	54.4
2025-08-31T13:31	10	126	0.1	126	127	467	0.7	466	468	22.6	53.7
2025-08-31T13:32	10	126	0.1	126	126	466	0.7	464	467	22.4	53.8
2025-08-31T13:33	10	126	0.1	125	126	467	0.9	465	468	22.4	54.3
2025-08-31T13:34	10	126	0.2	125	126	466	0.9	464	467	22.3	53.5
2025-08-31T13:35	10	125	0.3	125	126	468	0.7	467	469	22.2	53.8
2025-08-31T13:36	10	126	0.2	125	126	469	0.6	467	470	22.3	54.0
2025-08-31T13:37	10	125	0.3	125	126	469	0.5	469	470	22.5	54.8
2025-08-31T13:38	10	125	0.2	125	126	468	0.2	468	469	22.6	52.8
2025-08-31T13:39	10	125	0.1	125	126	469	0.6	468	470	22.7	53.1
2025-08-31T13:40	10	125	0.1	125	126	470	0.4	469	471	22.8	52.9
2025-08-31T13:41	10	125	0.1	125	125	471	0.6	470	472	22.9	53.4
2025-08-31T13:42	10	125	0.1	125	125	472	0.4	471	473	23.2	54.0
2025-08-31T13:43	10	125	0.1	125	125	472	0.4	471	472	23.3	54.1
2025-08-31T13:44	10	125	0.1	124	125	472	0.5	470	473	23.3	54.1
2025-08-31T13:45	10	124	0.1	124	125	469	1.0	468	471	23.0	53.3
2025-08-31T13:46	10	124	0.1	124	125	468	0.6	467	470	22.4	53.5
2025-08-31T13:47	10	124	0.2	124	124	469	0.6	467	470	22.4	54.1
2025-08-31T13:48	10	123	0.2	123	124	468	0.5	467	469	22.3	54.3
2025-08-31T13:49	10	123	0.1	123	123	467	0.6	466	468	22.4	54.3
2025-08-31T13:50	10	123	0.1	123	123	469	0.6	468	470	22.6	54.9
2025-08-31T13:51	10	123	0.1	122	123	468	0.9	467	470	22.6	53.7
2025-08-31T13:52	10	122	0.1	122	123	467	0.5	466	468	22.6	54.1
2025-08-31T13:53	10	122	0.1	122	122	468	0.4	467	469	22.8	54.0
2025-08-31T13:54	10	122	0.1	122	122	469	0.5	468	470	22.9	54.6
2025-08-31T13:55	10	122	0.1	121	122	468	0.6	467	469	22.8	53.5
2025-08-31T13:56	10	121	0.1	121	122	468	0.4	467	469	22.5	54.3
2025-08-31T13:57	10	121	0.1	121	121	469	1.0	467	471	22.8	55.3
2025-08-31T13:58	10	121	0.1	121	121	471	0.4	470	472	23.2	54.7
2025-08-31T13:59	10	121	0.1	121	121	470	0.6	469	472	23.5	55.6
2025-08-31T14:00	10	121	0.1	120	121	467	1.4	465	470	22.8	54.0
2025-08-31T14:01	10	120	0.2	120	121	465	1.5	462	467	22.5	54.7
2025-08-31T14:02	10	120	0.1	120	120	463	0.8	462	465	22.3	54.8
2025-08-31T14:03	10	120	0.2	119	120	466	1.3	464	468	22.4	55.3
2025-08-31T14:04	10	119	0.1	119	120	467	0.4	466	468	22.7	55.1
2025-08-31T14:05	10	119	0.1	119	119	466	0.6	465	467	22.7	54.9
2025-08-31T14:06	10	119	0.1	119	119	463	0.7	462	465	22.4	54.9
2025-08-31T14:07	10	119	0.1	119	119	463	0.6	462	464	22.5	55.5
2025-08-31T14:08	10	119	0.1	118	119	463	0.5	462	464	22.7	55.2
2025-08-31T14:09	10	118	0.2	118	119	465	1.0	463	466	22.7	55.4
2025-08-31T14:10	10	118	0.1	118	119	466	0.3	466	467	22.8	54.8
2025-08-31T14:11	10	118	0.2	118	118	465	0.9	463	467	23.2	55.0
2025-08-31T14:12	10	118	0.1	118	118	464	0.7	463	465	23.0	54.8
2025-08-31T14:13	10	118	0.1	118	118	464	0.6	462	465	23.1	54.6
2025-08-31T14:14	10	117	0.6	115	118	462	0.5	461	463	22.8	54.1
2025-08-31T14:15	10	100	6.6	92	115	459	1.9	457	462	22.6	54.5
2025-08-31T14:16	10	72	10.4	57	91	453	3.4	448	459	22.5	54.5
2025-08-31T14:17	10	60	3.9	54	67	448	0.5	447	450	22.4	54.8
2025-08-31T14:18	10	82	10.6	68	95	451	2.2	449	455	22.5	55.0
2025-08-31T14:19	10	97	5.2	89	104	456	1.0	454	457	22.5	55.2
2025-08-31T14:20	10	97	2.8	90	102	457	1.2	455	459	22.6	55.2
2025-08-31T14:21	10	96	5.6	88	108	458	0.7	457	459	22.7	54.7
2025-08-31T14:22	10	118	2.3	109	119	463	1.8	458	465	22.8	55.4
2025-08-31T14:23	10	111	4.1	105	117	462	1.2	459	464	22.7	55.0
2025-08-31T14:24	10	115	1.1	110	115	459	0.3	458	460	22.6	54.8
2025-08-31T14:25	10	114	0.3	114	115	458	0.6	457	459	22.6	54.8
2025-08-31T14:26	10	114	0.2	113	114	459	0.6	458	461	22.6	55.2
2025-08-31T14:27	10	113	0.1	113	114	461	0.4	460	462	22.6	55.1
2025-08-31T14:28	10	113	0.1	113	113	462	1.0	460	464	22.6	54.9
2025-08-31T14:29	10	113	0.1	112	113	462	0.7	461	464	22.6	55.0
2025-08-31T14:30	10	112	0.2	112	113	460	0.9	458	462	22.5	54.7
2025-08-31T14:31	10	112	0.1	112	112	461	0.5	460	462	22.5	54.8
2025-08-31T14:32	10	112	0.1	111	112	461	0.5	460	462	22.6	55.2
2025-08-31T14:33	10	111	0.2	111	112	460	0.7	459	462	22.7	55.3
2025-08-31T14:34	10	111	0.2	111	111	459	0.5	458	460	22.7	55.6
2025-08-31T14:35	10	110	0.2	110	111	458	0.4	458	459	22.6	55.8
2025-08-31T14:36	10	110	0.1	110	111	457	0.4	456	458	22.5	55.8
2025-08-31T14:37	10	110	0.1	110	110	458	0.8	457	459	22.5	56.1
2025-08-31T14:38	10	110	0.1	109	110	460	0.6	459	461	22.6	56.1
2025-08-31T14:39	10	110	0.1	109	110	459	0.7	457	460	22.6	55.2
2025-08-31T14:40	10	109	0.1	109	110	459	1.4	457	462	22.6	54.9
2025-08-31T14:41	10	109	0.1	109	109	463	0.8	461	464	23.0	56.4
2025-08-31T14:42	10	109	0.1	108	109	463	0.3	462	464	23.3	56.3
2025-08-31T14:43	10	108	0.2	108	109	460	2.0	456	463	23.0	54.3
2025-08-31T14:44	10	108	0.1	108	108	456	0.5	455	457	22.8	54.7
2025-08-31T14:45	10	108	0.1	108	108	460	1.1	457	461	22.8	54.9
2025-08-31T14:46	10	107	0.2	107	108	459	1.3	458	462	22.9	54.7
2025-08-31T14:47	10	107	0.2	107	107	458	0.6	456	459	22.8	54.8
2025-08-31T14:48	10	107	0.1	106	107	460	0.8	458	461	23.0	55.7
2025-08-31T14:49	10	106	0.2	106	107	460	0.7	458	461	23.1	54.8
2025-08-31T14:50	10	106	0.1	106	106	459	0.8	458	460	23.0	54.8
2025-08-31T14:51	10	106	0.2	105	106	458	0.2	458	459	23.1	55.7
2025-08-31T14:52	10	105	0.1	105	106	457	0.6	457	459	23.1	55.1
2025-08-31T14:53	10	105	0.2	105	105	456	0.3	456	457	22.8	55.1
2025-08-31T14:54	10	105	0.2	104	105	457	0.6	456	458	22.9	55.6
2025-08-31T14:55	10	104	0.2	104	105	457	0.9	456	459	22.8	55.3
2025-08-31T14:56	10	104	0.1	104	104	459	0.2	458	459	22.9	54.9
2025-08-31T14:57	10	104	0.1	103	104	459	0.5	458	460	23.0	54.3
2025-08-31T14:58	10	103	0.1	103	104	459	0.8	457	460	23.1	55.0
2025-08-31T14:59	10	103	0.1	103	104	458	0.3	457	458	23.0	54.0
2025-08-31T15:00	10	103	0.1	103	103	459	0.6	458	460	23.1	54.6
2025-08-31T15:01	10	102	0.2	102	103	459	0.6	458	460	23.1	54.6
2025-08-31T15:02	10	102	0.2	102	102	458	1.0	457	460	23.2	53.8
2025-08-31T15:03	10	102	0.1	101	102	458	0.2	457	458	23.0	53.5
2025-08-31T15:04	10	101	0.1	101	102	459	0.8	457	460	23.1	54.6
2025-08-31T15:05	10	101	0.1	101	101	458	1.6	456	460	23.2	55.0
2025-08-31T15:06	10	101	0.2	100	101	456	0.8	455	457	23.0	54.8
2025-08-31T15:07	10	100	0.2	100	101	456	0.6	455	457	23.1	54.8
2025-08-31T15:08	10	100	0.2	99	100	455	1.2	453	457	23.1	54.7
2025-08-31T15:09	10	99	0.2	99	100	455	0.3	454	455	22.8	54.9
2025-08-31T15:10	10	99	0.2	98	99	454	0.6	452	455	22.8	55.4
2025-08-31T15:11	10	98	0.2	98	99	454	0.4	453	454	22.8	55.1
2025-08-31T15:12	10	98	0.2	97	98	453	0.5	452	454	23.0	55.6
2025-08-31T15:13	10	97	0.1	97	98	456	0.7	454	457	23.3	55.5
2025-08-31T15:14	10	97	0.1	97	97	454	0.9	453	457	23.0	54.9
2025-08-31T15:15	10	97	0.2	96	97	453	0.3	452	454	23.0	55.1
2025-08-31T15:16	10	96	0.1	96	96	451	0.6	450	453	23.0	54.3
2025-08-31T15:17	10	96	0.1	96	96	453	1.1	451	455	22.9	54.7
2025-08-31T15:18	10	96	0.1	95	96	454	0.4	454	455	23.1	54.3
2025-08-31T15:19	10	95	0.1	95	95	456	0.6	455	457	23.1	54.9
2025-08-31T15:20	10	95	0.1	95	95	453	1.4	452	456	23.2	54.6
2025-08-31T15:21	10	95	0.2	94	95	453	0.3	452	453	22.9	54.4
2025-08-31T15:22	10	94	0.1	94	94	455	0.9	453	456	23.1	55.3
2025-08-31T15:23	10	94	0.2	93	94	452	1.0	450	454	23.0	54.7
2025-08-31T15:24	10	93	0.2	93	94	451	0.2	450	451	22.9	54.7
2025-08-31T15:25	10	93	0.1	92	93	452	0.8	451	454	23.0	55.1
2025-08-31T15:26	10	92	0.1	92	93	452	0.6	452	454	23.1	55.1
2025-08-31T15:27	10	92	0.1	92	92	451	0.8	449	452	23.1	55.0
2025-08-31T15:28	10	91	0.2	91	92	448	0.5	448	449	22.8	55.0
2025-08-31T15:29	10	91	0.2	91	91	447	0.8	445	448	22.6	55.1
2025-08-31T15:30	10	90	0.2	90	91	447	0.5	446	448	22.8	55.2
2025-08-31T15:31	10	90	0.2	89	90	447	0.8	446	448	22.9	55.0
2025-08-31T15:32	10	89	0.2	89	90	446	0.6	445	448	22.7	55.0
2025-08-31T15:33	10	89	0.2	89	89	447	0.4	445	447	22.7	55.2
2025-08-31T15:34	10	88	0.2	88	89	444	0.4	444	445	22.5	55.0
2025-08-31T15:35	10	88	0.2	88	88	445	0.5	444	446	22.5	55.4
2025-08-31T15:36	10	88	0.1	87	88	446	1.0	444	447	22.6	55.2
2025-08-31T15:37	10	87	0.1	87	87	447	0.4	446	447	22.7	55.2
2025-08-31T15:38	10	87	0.1	87	87	447	0.5	446	448	22.7	55.0
2025-08-31T15:39	10	87	0.1	86	87	447	0.2	446	447	22.7	54.9
2025-08-31T15:40	10	86	0.1	86	87	446	0.3	446	447	22.7	54.7
2025-08-31T15:41	10	86	0.2	86	86	445	0.5	444	446	22.9	55.1
2025-08-31T15:42	10	85	0.2	85	86	446	0.6	445	447	22.8	55.2
2025-08-31T15:43	10	85	0.2	85	85	445	0.3	445	446	22.7	55.0
2025-08-31T15:44	10	85	0.2	84	85	446	0.3	445	446	22.6	55.0
2025-08-31T15:45	10	84	0.2	84	85	445	0.3	444	446	22.8	55.2
2025-08-31T15:46	10	84	0.2	84	84	445	0.6	444	446	22.8	54.7
2025-08-31T15:47	10	83	0.2	83	84	445	0.8	444	446	22.9	55.0
2025-08-31T15:48	10	83	0.2	83	83	443	0.4	442	444	22.6	54.9
2025-08-31T15:49	10	83	0.1	82	83	444	0.4	443	445	22.6	55.2
2025-08-31T15:50	10	82	0.1	82	82	445	0.4	444	446	22.8	55.3
2025-08-31T15:51	10	82	0.2	81	82	444	0.4	443	445	22.6	54.9
2025-08-31T15:52	10	81	0.1	81	82	444	0.3	443	445	22.6	55.4
2025-08-31T15:53	10	81	0.2	80	81	444	0.6	443	445	22.7	54.9
2025-08-31T15:54	10	80	0.2	80	81	442	0.4	441	444	22.8	54.8
2025-08-31T15:55	10	80	0.2	79	80	442	0.9	441	444	22.7	54.8
2025-08-31T15:56	10	79	0.2	79	80	441	0.4	441	442	22.5	55.0
2025-08-31T15:57	10	79	0.1	78	79	442	0.2	441	442	22.6	55.3
2025-08-31T15:58	10	78	0.1	78	79	442	0.4	442	443	22.6	55.1
2025-08-31T15:59	10	78	0.1	77	78	443	0.4	442	444	22.8	55.3
2025-08-31T16:00	10	78	0.2	77	78	443	0.2	443	444	22.8	54.8
2025-08-31T16:01	10	77	0.2	77	78	443	0.7	441	444	22.9	54.9
2025-08-31T16:02	10	77	0.2	76	77	442	0.4	442	443	22.9	55.1
2025-08-31T16:03	10	76	0.2	76	77	442	0.3	442	443	22.9	54.8
2025-08-31T16:04	10	76	0.2	76	76	442	0.6	441	443	22.8	54.7
2025-08-31T16:05	10	76	0.2	75	76	443	0.6	442	444	22.9	55.6
2025-08-31T16:06	10	75	0.2	75	76	442	0.3	441	442	22.8	54.9
2025-08-31T16:07	10	75	0.2	74	75	440	1.0	438	441	22.8	54.9
2025-08-31T16:08	10	74	0.2	74	74	438	0.5	437	439	22.6	54.9
2025-08-31T16:09	10	73	0.2	73	74	439	0.3	439	440	22.7	55.2
2025-08-31T16:10	10	73	0.2	73	73	438	0.4	438	440	22.6	55.0
2025-08-31T16:11	10	73	0.2	72	73	439	0.4	438	439	22.6	54.8
2025-08-31T16:12	10	72	0.3	71	73	438	0.5	437	439	22.5	55.0
2025-08-31T16:13	10	70	0.8	69	72	438	0.5	437	439	22.5	54.9
2025-08-31T16:14	10	69	0.6	67	70	439	0.3	438	439	22.7	55.5
2025-08-31T16:15	10	64	2.5	59	67	438	0.5	437	439	22.8	55.3
2025-08-31T16:16	10	60	0.7	59	61	438	0.3	437	439	22.8	55.0
2025-08-31T16:17	10	54	1.5	53	58	436	0.9	434	437	22.6	54.8
2025-08-31T16:18	10	49	1.6	47	53	434	0.2	434	435	22.6	55.0
2025-08-31T16:19	10	52	1.8	48	54	435	0.5	434	436	22.7	55.3
2025-08-31T16:20	10	53	2.4	50	57	434	0.6	433	436	22.6	55.0
2025-08-31T16:21	10	58	1.1	56	60	434	0.3	433	434	22.5	55.4
2025-08-31T16:22	10	60	0.6	59	61	434	0.2	433	434	22.5	55.5
2025-08-31T16:23	10	63	1.8	60	66	435	0.8	433	436	22.5	55.8
2025-08-31T16:24	10	66	0.6	65	67	436	0.5	435	437	22.6	55.8
2025-08-31T16:25	10	63	2.8	57	66	434	0.3	434	435	22.5	55.4
2025-08-31T16:26	10	65	0.3	64	65	434	0.2	434	435	22.5	55.8
2025-08-31T16:27	10	66	0.4	65	66	435	0.4	434	435	22.5	55.3
2025-08-31T16:28	10	64	0.9	62	65	434	0.8	433	436	22.4	55.3
2025-08-31T16:29	10	62	0.3	62	63	433	0.3	432	433	22.3	55.3
2025-08-31T16:30	10	61	0.5	60	62	433	0.3	432	433	22.4	55.5
2025-08-31T16:31	10	60	0.4	59	60	432	0.2	432	433	22.4	55.1
2025-08-31T16:32	10	59	0.7	57	60	432	0.3	431	433	22.4	54.9
2025-08-31T16:33	10	58	0.6	57	59	432	0.3	431	433	22.4	55.0
2025-08-31T16:34	10	52	3.4	47	57	431	0.8	430	432	22.3	54.8
2025-08-31T16:35	10	50	1.2	47	51	430	0.3	429	430	22.3	55.0
2025-08-31T16:36	10	48	1.5	45	50	430	0.2	429	430	22.3	55.2
2025-08-31T16:37	10	43	0.8	42	45	429	0.4	428	429	22.4	55.3
2025-08-31T16:38	10	43	0.4	42	44	429	0.2	428	429	22.5	55.3
2025-08-31T16:39	10	44	0.2	44	44	429	0.3	428	429	22.4	55.3
2025-08-31T16:40	10	44	0.4	44	46	429	0.3	428	429	22.5	55.4
2025-08-31T16:41	10	48	1.2	46	49	429	0.4	428	429	22.3	54.9
2025-08-31T16:42	10	48	0.7	47	50	428	0.3	427	429	22.3	55.0
2025-08-31T16:43	10	47	0.6	46	48	428	0.3	428	429	22.3	55.6
2025-08-31T16:44	10	48	0.4	48	49	428	0.3	428	429	22.4	55.5
2025-08-31T16:45	10	48	0.3	47	48	428	0.3	427	428	22.3	55.6
2025-08-31T16:46	10	48	0.5	47	49	428	0.2	427	428	22.3	55.4
2025-08-31T16:47	10	48	0.7	47	49	428	0.3	427	429	22.3	55.5
2025-08-31T16:48	10	47	0.9	46	49	428	0.2	428	429	22.3	55.9
2025-08-31T16:49	10	49	1.1	47	51	428	0.2	428	429	22.3	56.0
2025-08-31T16:50	10	51	0.2	51	52	428	0.2	427	428	22.2	55.7
2025-08-31T16:51	10	52	0.2	51	52	428	0.2	427	428	22.2	55.9
2025-08-31T16:52	10	51	1.5	47	52	428	0.2	427	428	22.2	55.9
2025-08-31T16:53	10	47	0.4	47	48	427	0.4	426	428	22.1	55.7
2025-08-31T16:54	10	45	3.2	38	48	427	0.4	425	427	22.2	56.0
2025-08-31T16:55	10	37	1.8	35	41	425	0.3	425	426	22.2	56.3
2025-08-31T16:56	10	41	0.5	40	42	426	0.2	425	426	22.2	55.9
2025-08-31T16:57	10	40	0.2	39	40	426	0.3	425	426	22.2	56.3
2025-08-31T16:58	10	41	1.4	39	43	425	0.2	425	426	22.2	56.5
2025-08-31T16:59	10	45	1.5	43	48	425	0.3	424	426	22.1	56.3
2025-08-31T17:00	10	50	0.7	48	50	426	0.3	425	426	22.1	56.2
2025-08-31T17:01	10	50	0.2	50	50	427	0.3	426	427	22.1	56.9
2025-08-31T17:02	10	49	0.1	49	50	427	0.3	426	428	22.1	57.0
2025-08-31T17:03	10	49	0.2	49	49	427	0.3	426	427	22.1	56.3
2025-08-31T17:04	10	49	0.2	48	49	426	0.3	425	427	22.1	56.1
2025-08-31T17:05	10	48	0.2	47	48	426	0.3	425	426	22.1	55.8
2025-08-31T17:06	10	47	0.2	47	48	426	0.2	425	426	22.1	55.8
2025-08-31T17:07	10	46	0.2	46	47	426	0.2	426	427	22.1	55.7
2025-08-31T17:08	10	46	0.2	45	46	426	0.3	425	426	22.2	56.1
2025-08-31T17:09	10	45	0.2	45	46	425	0.4	424	426	22.2	56.2
2025-08-31T17:10	10	44	0.3	44	45	424	0.4	424	425	22.1	55.6
2025-08-31T17:11	10	43	0.3	43	44	424	0.3	423	424	22.0	55.7
2025-08-31T17:12	10	42	0.4	41	43	423	0.2	423	424	22.0	55.8
2025-08-31T17:13	10	41	0.3	40	42	423	0.2	423	424	22.0	55.7
2025-08-31T17:14	10	40	0.3	39	40	423	0.2	422	423	22.0	56.2
2025-08-31T17:15	10	39	0.3	38	39	422	0.2	422	423	22.0	56.0
2025-08-31T17:16	10	38	0.3	37	38	422	0.2	421	423	22.0	55.8
2025-08-31T17:17	10	37	0.3	36	37	422	0.2	421	422	22.0	56.0
2025-08-31T17:18	10	36	0.3	35	36	422	0.2	421	422	22.1	56.7
2025-08-31T17:19	10	35	0.2	35	36	421	0.3	421	422	22.1	56.9
2025-08-31T17:20	10	34	0.2	34	35	421	0.4	420	422	22.0	56.5
2025-08-31T17:21	10	34	0.3	33	34	421	0.2	420	421	22.0	56.3
2025-08-31T17:22	10	33	0.2	33	33	420	0.3	420	421	22.0	56.2
2025-08-31T17:23	10	32	0.2	32	33	420	0.2	419	420	22.0	56.1
2025-08-31T17:24	10	32	0.3	31	32	420	0.2	419	420	22.0	56.3
2025-08-31T17:25	10	31	0.3	30	32	419	0.2	419	420	22.0	56.2
2025-08-31T17:26	10	30	0.3	29	31	419	0.3	418	420	21.9	55.9
2025-08-31T17:27	10	29	0.4	28	30	418	0.2	418	419	21.9	56.0
2025-08-31T17:28	10	28	0.3	27	29	418	0.2	417	419	22.0	56.2
2025-08-31T17:29	10	27	0.3	27	28	418	0.3	417	419	22.0	56.5
2025-08-31T17:30	10	26	0.2	26	27	418	0.2	417	418	22.0	57.1
2025-08-31T17:31	10	26	0.3	25	27	417	0.3	417	418	22.0	57.1
2025-08-31T17:32	10	25	0.2	25	26	417	0.2	417	418	22.0	57.3
2025-08-31T17:33	10	24	0.2	24	25	417	0.2	416	417	21.9	57.0
2025-08-31T17:34	10	24	0.3	23	24	416	0.4	416	417	22.0	57.3
2025-08-31T17:35	10	23	0.4	22	24	416	0.3	415	417	21.9	57.1
2025-08-31T17:36	10	20	1.1	18	22	415	0.3	414	416	21.9	57.2
2025-08-31T17:37	10	17	0.3	17	18	414	0.4	414	415	21.8	57.8
2025-08-31T17:38	10	16	1.1	14	18	413	0.3	413	414	21.8	58.5
2025-08-31T17:39	10	13	0.7	12	14	413	0.2	412	414	21.7	58.6
2025-08-31T17:40	10	10	1.6	7	12	412	0.3	412	413	21.8	57.8
2025-08-31T17:41	10	5	1.0	4	7	412	0.5	410	413	21.7	58.0
2025-08-31T17:42	10	3	0.4	2	4	410	0.4	409	411	21.7	58.4
2025-08-31T17:43	10	2	0.3	2	3	409	0.3	409	410	21.6	59.0
2025-08-31T17:44	10	2	0.2	2	3	408	0.3	408	409	21.5	59.5
2025-08-31T17:45	10	2	0.2	1	2	408	0.3	407	409	21.5	59.5
2025-08-31T17:46	10	2	0.2	1	2	407	0.2	406	407	21.4	59.7
2025-08-31T17:47	10	2	0.2	1	2	406	0.2	406	407	21.4	59.7
2025-08-31T17:48	10	1	0.2	1	2	406	0.2	406	406	21.4	60.0
2025-08-31T17:49	10	1	0.2	1	2	405	0.3	405	406	21.4	59.4
2025-08-31T17:50	10	1	0.1	1	2	405	0.2	405	406	21.4	60.4
2025-08-31T17:51	10	1	0.1	1	2	405	0.3	404	405	21.3	60.9
2025-08-31T17:52	10	1	0.1	1	1	404	0.2	403	404	21.2	61.4
2025-08-31T17:53	10	1	0.1	1	1	404	0.2	403	404	21.2	61.7
2025-08-31T17:54	10	1	0.1	1	1	403	0.2	403	404	21.1	62.0
2025-08-31T17:55	10	1	0.1	1	1	403	0.2	402	403	21.1	61.8
2025-08-31T17:56	10	1	0.1	1	1	403	0.2	402	403	21.1	61.8
2025-08-31T17:57	10	1	0.1	1	1	402	0.2	402	403	21.1	61.7
2025-08-31T17:58	10	1	0.1	1	1	402	0.3	401	403	21.1	61.6
2025-08-31T17:59	10	1	0.1	1	1	402	0.2	401	402	21.1	61.6
2025-08-31T18:00	10	1	0.1	1	1	402	0.2	401	402	21.1	61.5
2025-08-31T18:01	10	1	0.1	1	1	402	0.3	401	403	21.0	61.4
2025-08-31T18:02	10	1	0.1	0	1	402	0.2	401	402	21.0	61.3
2025-08-31T18:03	10	1	0.1	0	1	401	0.2	401	402	21.0	61.6
2025-08-31T18:04	10	1	0.1	0	1	401	0.3	401	402	20.9	61.9
2025-08-31T18:05	10	1	0.1	0	1	401	0.2	400	401	20.9	62.2
2025-08-31T18:06	10	1	0.1	0	1	400	0.2	400	401	20.8	62.2
2025-08-31T18:07	10	0	0.1	0	1	400	0.3	400	401	20.8	62.0
2025-08-31T18:08	10	1	0.1	0	1	400	0.2	400	401	20.9	61.8
2025-08-31T18:09	10	0	0.1	0	1	400	0.3	399	401	20.9	62.0
2025-08-31T18:10	10	0	0.1	0	1	400	0.2	400	401	20.9	62.4
2025-08-31T18:11	10	0	0.1	0	1	400	0.3	399	400	20.9	61.9
2025-08-31T18:12	10	0	0.1	0	1	400	0.3	399	400	20.9	61.9
2025-08-31T18:13	10	0	0.1	0	1	400	0.3	399	400	20.8	62.3
2025-08-31T18:14	10	0	0.1	0	1	400	0.3	399	400	20.8	62.2
2025-08-31T18:15	10	0	0.1	0	1	399	0.3	398	399	20.8	62.8
2025-08-31T18:16	10	0	0.1	0	1	398	0.2	398	399	20.7	63.7
2025-08-31T18:17	10	0	0.1	0	1	398	0.2	398	399	20.7	62.6
2025-08-31T18:18	10	0	0.1	0	1	398	0.3	398	399	20.7	63.0
2025-08-31T18:19	10	0	0.1	0	0	399	0.3	398	399	20.7	63.4
2025-08-31T18:20	10	0	0.1	0	0	399	0.2	398	399	20.6	63.5
2025-08-31T18:21	10	0	0.1	0	0	398	0.3	398	399	20.7	63.3
2025-08-31T18:22	10	0	0.0	0	0	398	0.3	397	398	20.7	63.7
2025-08-31T18:23	10	0	0.1	0	0	396	0.6	395	397	20.6	64.4
2025-08-31T18:24	10	0	0.1	0	0	395	0.3	395	396	20.5	66.1
2025-08-31T18:25	10	0	0.1	0	0	395	0.2	395	396	20.2	67.8
2025-08-31T18:26	10	0	0.0	0	0	395	0.3	395	396	19.9	68.9
2025-08-31T18:27	10	0	0.1	0	0	395	0.3	394	396	19.8	69.2
2025-08-31T18:28	10	0	0.1	0	0	395	0.2	394	395	19.8	68.6
2025-08-31T18:29	10	0	0.1	0	0	394	0.2	394	395	19.8	69.7
2025-08-31T18:30	10	0	0.1	0	0	394	0.3	393	395	19.7	70.6
2025-08-31T18:31	10	0	0.1	0	0	394	0.3	393	395	19.5	71.6
2025-08-31T18:32	10	0	1.9	0	12	395	0.4	394	395	19.4	71.9
2025-08-31T18:33	10	0	0.1	0	0	395	0.2	394	395	19.4	72.0
2025-08-31T18:34	10	0	0.1	0	0	394	0.2	394	395	19.4	72.5
2025-08-31T18:35	10	0	0.1	0	0	394	0.2	394	395	19.4	71.9
2025-08-31T18:36	10	0	0.1	0	0	395	0.3	394	395	19.5	70.6
2025-08-31T18:37	10	0	0.1	0	0	395	0.2	394	395	19.5	70.2
2025-08-31T18:38	10	0	0.2	0	0	395	0.4	394	395	19.5	71.4
2025-08-31T18:39	10	0	0.2	0	1	395	0.3	394	396	19.5	70.3
2025-08-31T18:40	10	0	0.1	0	0	395	0.3	394	396	19.6	69.7
2025-08-31T18:41	10	0	0.1	0	0	395	0.2	394	395	19.5	71.4
2025-08-31T18:42	10	0	0.1	0	0	395	0.2	394	395	19.4	71.7
2025-08-31T18:43	10	0	0.2	0	1	395	0.3	394	395	19.5	71.3
2025-08-31T18:44	10	0	0.1	0	1	395	0.2	395	396	19.6	69.6
2025-08-31T18:45	10	0	0.1	0	0	395	0.3	394	396	19.5	70.4
2025-08-31T18:46	10	0	0.1	0	0	395	0.3	394	395	19.4	71.5
2025-08-31T18:47	10	0	0.0	0	0	395	0.2	394	395	19.3	72.4
2025-08-31T18:48	10	0	0.1	0	0	395	0.3	394	396	19.3	70.7
2025-08-31T18:49	10	0	0.0	0	0	395	0.4	395	396	19.5	68.9
2025-08-31T18:50	10	0	0.1	0	0	395	0.2	395	395	19.7	67.7
2025-08-31T18:51	10	0	0.1	0	0	395	0.2	394	395	19.8	67.5
2025-08-31T18:52	10	0	0.1	0	0	394	0.3	394	395	19.8	67.4
2025-08-31T18:53	10	0	0.1	0	0	393	0.6	392	394	19.7	68.4
2025-08-31T18:54	10	0	0.1	0	0	392	0.5	391	393	19.2	71.7
2025-08-31T18:55	10	0	0.1	0	0	392	0.3	391	393	19.0	72.5
2025-08-31T18:56	10	0	0.1	0	0	392	0.4	391	393	19.0	72.4
2025-08-31T18:57	10	0	0.1	0	0	393	0.3	392	393	19.1	70.5
2025-08-31T18:58	10	0	0.1	0	0	392	0.5	391	393	19.1	72.2
2025-08-31T18:59	10	0	0.1	0	0	392	0.2	391	392	18.8	74.2
2025-08-31T19:00	10	0	0.1	0	0	392	0.4	391	393	18.8	73.8
2025-08-31T19:01	10	0	0.1	0	0	393	0.3	392	393	18.7	74.4
2025-08-31T19:02	10	0	0.1	0	0	393	0.2	392	393	18.7	75.0
2025-08-31T19:03	10	0	0.1	0	0	393	0.4	392	394	18.7	75.1
2025-08-31T19:04	10	0	0.1	0	0	394	0.3	393	394	18.6	74.9
2025-08-31T19:05	10	0	0.1	0	0	394	0.4	394	395	18.7	73.5
2025-08-31T19:06	10	0	0.1	0	0	395	0.3	395	396	18.8	73.4
2025-08-31T19:07	10	0	0.1	0	0	395	0.2	395	396	19.1	70.6
2025-08-31T19:08	10	0	0.1	0	0	395	0.2	395	396	19.3	69.5
2025-08-31T19:09	10	0	0.1	0	0	396	0.3	395	396	19.1	71.2
2025-08-31T19:10	10	0	0.1	0	0	396	0.3	396	397	18.9	72.3
2025-08-31T19:11	10	0	0.1	0	0	397	0.7	396	398	18.3	78.4
2025-08-31T19:12	10	0	0.0	0	0	398	0.3	397	398	18.4	76.9
2025-08-31T19:13	10	0	0.0	0	0	398	0.3	398	399	18.3	76.6
2025-08-31T19:14	10	0	0.0	0	0	398	0.3	398	399	18.3	76.6
2025-08-31T19:15	10	0	0.1	0	0	399	0.3	398	399	18.4	75.7
2025-08-31T19:16	10	0	0.0	0	0	399	0.2	398	399	18.5	75.3
2025-08-31T19:17	10	0	0.1	0	0	399	0.3	398	399	18.5	75.4
2025-08-31T19:18	10	0	0.1	0	0	398	0.3	398	399	18.4	75.8
2025-08-31T19:19	10	0	0.1	0	0	398	0.3	397	398	18.4	76.2
2025-08-31T19:20	10	0	0.1	0	0	398	0.3	397	398	18.0	78.6
2025-08-31T19:21	10	0	0.1	0	0	399	0.6	397	399	18.3	75.8
2025-08-31T19:22	10	0	0.1	0	0	399	0.3	398	400	18.6	73.1
2025-08-31T19:23	10	0	0.1	0	0	399	0.3	398	399	18.7	72.5
2025-08-31T19:24	10	0	0.1	0	0	398	0.4	398	399	18.8	72.7
2025-08-31T19:25	10	0	0.1	0	0	397	0.6	396	398	18.7	73.9
2025-08-31T19:26	10	0	0.2	0	1	396	0.4	396	397	18.2	78.8
2025-08-31T19:27	10	0	0.2	0	1	397	0.3	396	397	17.8	80.6
2025-08-31T19:28	10	0	0.1	0	0	396	0.2	396	397	17.9	79.5
2025-08-31T19:29	10	0	0.2	0	1	397	0.4	396	398	18.0	79.2
2025-08-31T19:30	10	0	0.2	0	1	397	0.4	396	398	18.3	76.4
2025-08-31T19:31	10	0	0.2	0	1	397	0.3	396	397	18.2	77.3
2025-08-31T19:32	10	0	0.1	0	0	397	0.3	396	398	18.2	77.0
2025-08-31T19:33	10	0	0.1	0	0	397	0.3	397	398	18.1	76.8
2025-08-31T19:34	10	0	0.2	0	1	398	0.4	397	398	18.3	75.9
2025-08-31T19:35	10	0	0.1	0	0	398	0.3	397	398	18.4	74.7
2025-08-31T19:36	10	0	0.1	0	0	398	0.2	397	398	18.5	74.2
2025-08-31T19:37	10	0	0.1	0	0	398	0.2	397	398	18.5	74.9
2025-08-31T19:38	10	0	0.1	0	0	397	0.2	397	398	18.5	75.2
2025-08-31T19:39	10	0	0.1	0	0	397	0.4	396	398	18.4	76.4
2025-08-31T19:40	10	0	0.1	0	0	397	0.2	396	397	18.2	77.0
2025-08-31T19:41	10	0	0.1	0	0	397	0.3	396	397	18.3	75.7
2025-08-31T19:42	10	0	0.1	0	0	397	0.2	397	397	18.5	74.2
2025-08-31T19:43	10	0	0.1	0	0	397	0.2	396	397	18.6	73.6
2025-08-31T19:44	10	0	0.1	0	0	397	0.2	396	397	18.6	74.4
2025-08-31T19:45	10	0	0.1	0	0	396	0.4	395	397	18.4	76.2
2025-08-31T19:46	10	0	0.1	0	0	396	0.2	396	397	18.1	79.2
2025-08-31T19:47	10	0	0.1	0	0	396	0.3	396	397	18.0	78.8
2025-08-31T19:48	10	0	0.1	0	0	397	0.3	396	397	18.1	76.9
2025-08-31T19:49	10	0	0.1	0	0	397	0.2	397	398	18.2	76.0
2025-08-31T19:50	10	0	0.1	0	0	397	0.2	397	398	18.3	74.8
2025-08-31T19:51	10	0	0.1	0	0	397	0.2	397	398	18.4	75.3
2025-08-31T19:52	10	0	0.1	0	0	397	0.3	396	398	18.3	76.0
2025-08-31T19:53	10	0	0.1	0	0	397	0.3	397	398	18.1	78.9
2025-08-31T19:54	10	0	0.1	0	0	397	0.2	397	398	18.1	78.3
2025-08-31T19:55	10	0	0.1	0	0	398	0.2	397	398	18.0	78.9
2025-08-31T19:56	10	0	0.1	0	0	398	0.3	397	399	18.2	77.2
2025-08-31T19:57	10	0	0.1	0	0	398	0.2	398	399	18.3	76.3
2025-08-31T19:58	10	0	0.1	0	0	398	0.2	398	399	18.4	76.1
2025-08-31T19:59	10	0	0.1	0	0	398	0.4	397	398	18.2	77.9
2025-08-31T20:00	10	0	0.1	0	0	398	0.2	397	398	18.1	77.8
2025-08-31T20:01	10	0	0.1	0	1	398	0.3	397	398	18.2	76.7
2025-08-31T20:02	10	0	0.1	0	0	398	0.3	397	398	18.3	76.4
2025-08-31T20:03	10	0	0.1	0	1	398	0.4	397	398	18.2	77.2
2025-08-31T20:04	10	0	0.1	0	0	398	0.2	397	398	18.1	78.0
2025-08-31T20:05	10	0	0.1	0	0	398	0.2	397	398	18.2	77.3
2025-08-31T20:06	10	0	0.1	0	0	398	0.3	397	398	18.1	78.4
2025-08-31T20:07	10	0	0.1	0	0	398	0.2	397	399	18.0	79.1
2025-08-31T20:08	10	0	0.1	0	0	398	0.2	397	399	18.0	79.1
2025-08-31T20:09	10	0	0.1	0	0	398	0.3	397	399	18.0	79.2
2025-08-31T20:10	10	0	0.1	0	0	398	0.3	398	399	18.0	78.6
2025-08-31T20:11	10	0	0.1	0	0	398	0.2	398	399	18.0	78.6
2025-08-31T20:12	10	0	0.1	0	1	398	0.3	398	399	18.0	79.0
2025-08-31T20:13	10	0	0.1	0	0	398	0.2	398	399	18.0	78.4
2025-08-31T20:14	10	0	0.1	0	0	399	0.2	398	399	18.0	78.4
2025-08-31T20:15	10	0	0.1	0	0	399	0.2	398	399	18.0	78.8
2025-08-31T20:16	10	0	0.1	0	0	398	0.2	398	399	18.0	79.2
2025-08-31T20:17	10	0	0.1	0	0	399	0.3	398	399	18.0	78.7
2025-08-31T20:18	10	0	0.1	0	0	399	0.3	398	399	18.1	78.3
2025-08-31T20:19	10	0	0.1	0	0	399	0.2	398	399	18.1	78.4
2025-08-31T20:20	10	0	0.1	0	0	399	0.2	399	400	18.1	78.7
2025-08-31T20:21	10	0	0.1	0	0	399	0.2	399	400	18.1	78.3
2025-08-31T20:22	10	0	0.1	0	0	399	0.3	399	400	18.2	77.8
2025-08-31T20:23	10	0	0.1	0	0	400	0.3	399	400	18.3	76.9
2025-08-31T20:24	10	0	0.1	0	0	400	0.2	400	401	18.4	76.1
2025-08-31T20:25	10	0	0.1	0	0	400	0.2	400	401	18.5	75.7
2025-08-31T20:26	10	0	0.1	0	0	400	0.2	400	401	18.5	75.8
2025-08-31T20:27	10	0	0.1	0	0	400	0.2	400	401	18.5	75.6
2025-08-31T20:28	10	0	0.1	0	0	400	0.3	399	400	18.5	76.1
2025-08-31T20:29	10	0	0.1	0	0	400	0.2	399	400	18.4	76.6
2025-08-31T20:30	10	0	0.1	0	0	400	0.2	399	400	18.3	77.5
2025-08-31T20:31	10	0	0.1	0	0	399	0.2	399	400	18.2	78.0
2025-08-31T20:32	10	0	0.1	0	0	399	0.2	399	400	18.2	78.2
2025-08-31T20:33	10	0	0.1	0	0	399	0.3	399	400	18.2	78.3
2025-08-31T20:34	10	0	0.1	0	0	399	0.3	399	400	18.2	78.4
2025-08-31T20:35	10	0	0.1	0	0	399	0.3	399	400	18.2	78.4
2025-08-31T20:36	10	0	0.1	0	0	399	0.2	399	400	18.2	78.4
2025-08-31T20:37	10	0	0.1	0	0	399	0.2	399	400	18.2	70.6
2025-08-31T20:38	10	0	0.1	0	0	399	0.2	399	400	18.2	78.4
2025-08-31T20:39	10	0	0.1	0	0	399	0.2	399	400	18.2	78.4
2025-08-31T20:40	10	0	0.1	0	0	399	0.2	399	400	18.2	78.4
2025-08-31T20:41	10	0	0.1	0	0	399	0.2	399	400	18.2	78.4
2025-08-31T20:42	10	0	0.1	0	0	399	0.2	399	399	18.1	79.2
2025-08-31T20:43	10	0	0.1	0	0	399	0.3	398	399	18.1	79.5
2025-08-31T20:44	10	0	0.1	0	0	399	0.2	398	399	18.0	80.2
2025-08-31T20:45	10	0	0.1	0	0	399	0.2	399	399	18.0	80.4
2025-08-31T20:46	10	0	0.1	0	0	399	0.2	399	399	17.9	81.2
2025-08-31T20:47	10	0	0.1	0	0	399	0.2	399	400	18.0	80.8
2025-08-31T20:48	10	0	0.1	0	0	399	0.2	399	400	18.0	80.6
2025-08-31T20:49	10	0	0.1	0	0	399	0.2	399	399	18.0	80.6
2025-08-31T20:50	10	0	0.1	0	0	399	0.3	398	399	17.9	80.6
2025-08-31T20:51	10	0	0.1	0	0	399	0.3	399	400	18.0	80.2
2025-08-31T20:52	10	0	0.1	0	0	399	0.2	399	400	18.0	80.3
2025-08-31T20:53	10	0	0.1	0	0	399	0.3	399	400	18.0	80.4
2025-08-31T20:54	10	0	0.1	0	0	399	0.2	399	400	18.0	80.8
2025-08-31T20:55	10	0	0.1	0	0	399	0.2	399	400	17.9	81.2
2025-08-31T20:56	10	0	0.2	0	1	399	0.2	398	399	17.9	81.7
2025-08-31T20:57	10	0	0.1	0	0	399	0.2	399	400	17.8	82.1
2025-08-31T20:58	10	0	0.1	0	0	399	0.3	398	399	17.8	82.0
2025-08-31T20:59	10	0	0.1	0	0	399	0.3	398	399	17.9	81.8
2025-08-31T21:00	10	0	0.2	0	1	399	0.2	398	399	17.8	82.0
2025-08-31T21:01	10	0	0.1	0	0	399	0.2	398	399	17.8	82.5
2025-08-31T21:02	10	0	0.1	0	1	399	0.2	398	399	17.8	82.7
2025-08-31T21:03	10	0	0.2	0	1	399	0.3	398	399	17.7	82.8
2025-08-31T21:04	10	0	0.1	0	1	399	0.2	398	399	17.7	82.8
2025-08-31T21:05	10	0	0.2	0	1	399	0.3	398	399	17.7	83.3
2025-08-31T21:06	10	0	0.2	0	0	399	0.2	398	399	17.7	83.2
2025-08-31T21:07	10	0	0.2	0	1	399	0.3	398	399	17.7	83.1
2025-08-31T21:08	10	0	0.2	0	1	399	0.3	399	400	17.8	82.4
2025-08-31T21:09	10	0	0.1	0	1	399	0.2	398	399	17.8	82.2
2025-08-31T21:10	10	0	0.2	0	1	399	0.3	398	400	17.8	81.9
2025-08-31T21:11	10	0	0.2	0	1	399	0.2	398	400	17.9	82.0
2025-08-31T21:12	10	0	0.2	0	1	399	0.3	398	400	17.9	81.8
2025-08-31T21:13	10	0	0.2	0	1	399	0.2	399	399	17.9	81.7
2025-08-31T21:14	10	0	0.2	0	0	399	0.3	398	399	17.9	81.6
2025-08-31T21:15	10	0	0.2	0	1	399	0.3	399	400	17.9	81.1
2025-08-31T21:16	10	0	0.1	0	1	399	0.2	399	400	18.0	81.1
2025-08-31T21:17	10	0	0.2	0	1	399	0.3	398	400	18.0	81.1
2025-08-31T21:18	10	0	0.1	0	1	399	0.2	399	400	18.0	80.8
2025-08-31T21:19	10	0	0.2	0	1	400	0.2	399	400	18.0	80.2
2025-08-31T21:20	10	0	0.2	0	1	399	0.3	399	400	18.1	79.8
2025-08-31T21:21	10	0	0.1	0	1	400	0.3	399	400	18.1	79.6
2025-08-31T21:22	10	0	0.2	0	1	400	0.3	399	400	18.1	79.4
2025-08-31T21:23	10	0	0.1	0	0	400	0.2	399	400	18.2	79.3
2025-08-31T21:24	10	0	0.2	0	1	400	0.2	399	400	18.2	79.1
2025-08-31T21:25	10	0	0.2	0	1	400	0.3	399	400	18.2	79.4
2025-08-31T21:26	10	0	0.2	0	1	399	0.2	399	400	18.2	79.3
2025-08-31T21:27	10	0	0.1	0	0	399	0.3	399	400	18.1	79.2
2025-08-31T21:28	10	0	0.1	0	0	399	0.2	399	399	18.2	78.7
2025-08-31T21:29	10	0	0.1	0	1	399	0.2	399	400	18.3	78.3
2025-08-31T21:30	10	0	0.1	0	0	399	0.2	399	400	18.3	77.9
2025-08-31T21:31	10	0	0.1	0	0	399	0.3	399	400	18.3	77.7
2025-08-31T21:32	10	0	0.1	0	0	399	0.2	399	400	18.3	78.2
2025-08-31T21:33	10	0	0.1	0	0	399	0.2	399	400	18.2	79.3
2025-08-31T21:34	10	0	0.1	0	0	399	0.3	399	400	18.1	80.2
2025-08-31T21:35	10	0	0.1	0	0	399	0.2	398	399	18.0	80.4
2025-08-31T21:36	10	0	0.1	0	0	399	0.2	399	399	18.0	80.7
2025-08-31T21:37	10	0	0.1	0	0	399	0.3	399	400	18.0	80.2
2025-08-31T21:38	10	0	0.1	0	0	399	0.2	399	400	18.0	80.1
2025-08-31T21:39	10	0	0.1	0	0	399	0.2	399	400	18.0	80.4
2025-08-31T21:40	10	0	0.1	0	0	399	0.2	399	400	18.1	79.4
2025-08-31T21:41	10	0	0.1	0	0	399	0.2	399	400	18.2	78.9
2025-08-31T21:42	10	0	0.1	0	0	399	0.2	399	400	18.1	79.5
2025-08-31T21:43	10	0	0.1	0	0	400	0.2	399	400	18.1	79.4
2025-08-31T21:44	10	0	0.1	0	0	399	0.3	399	400	18.1	80.2
2025-08-31T21:45	10	0	0.1	0	0	399	0.2	399	399	18.0	81.0
2025-08-31T21:46	10	0	0.1	0	0	399	0.2	398	399	18.0	81.1
2025-08-31T21:47	10	0	0.1	0	0	398	0.2	398	399	17.9	82.0
2025-08-31T21:48	10	0	0.1	0	0	398	0.2	398	399	17.8	82.2
2025-08-31T21:49	10	0	0.1	0	0	398	0.2	397	398	17.7	82.9
2025-08-31T21:50	10	0	0.1	0	0	398	0.2	397	398	17.7	83.6
2025-08-31T21:51	10	0	0.1	0	0	398	0.2	397	398	17.6	84.1
2025-08-31T21:52	10	0	0.0	0	0	398	0.2	397	398	17.6	84.4
2025-08-31T21:53	10	0	0.0	0	0	398	0.2	397	398	17.6	84.4
2025-08-31T21:54	10	0	0.1	0	0	398	0.2	397	398	17.6	84.5
2025-08-31T21:55	10	0	0.0	0	0	398	0.2	398	398	17.6	84.7
2025-08-31T21:56	10	0	0.1	0	0	398	0.3	397	398	17.6	84.6
2025-08-31T21:57	10	0	0.1	0	0	398	0.2	397	398	17.6	85.0
2025-08-31T21:58	10	0	0.1	0	0	397	0.2	397	398	17.5	85.0
2025-08-31T21:59	10	0	0.1	0	0	397	0.2	397	398	17.5	84.9
2025-08-31T22:00	10	0	0.1	0	0	397	0.2	397	398	17.6	84.8
2025-08-31T22:01	10	0	0.1	0	0	397	0.2	397	398	17.7	83.5
2025-08-31T22:02	10	0	0.1	0	0	398	0.3	397	398	17.9	81.0
2025-08-31T22:03	10	0	0.1	0	0	398	0.2	397	398	18.1	79.0
2025-08-31T22:04	10	0	0.1	0	0	397	0.3	396	398	18.0	80.2
2025-08-31T22:05	10	0	0.1	0	0	396	0.3	396	397	17.7	83.9
2025-08-31T22:06	10	0	0.1	0	0	396	0.3	396	397	17.5	85.5
2025-08-31T22:07	10	0	0.1	0	0	396	0.2	395	396	17.4	85.8
2025-08-31T22:08	10	0	0.1	0	0	396	0.3	395	397	17.4	85.4
2025-08-31T22:09	10	0	0.1	0	0	396	0.3	396	397	17.5	84.3
2025-08-31T22:10	10	0	0.1	0	0	397	0.3	396	397	17.7	83.0
2025-08-31T22:11	10	0	0.1	0	0	397	0.3	397	398	17.8	82.1
2025-08-31T22:12	10	0	0.1	0	0	397	0.3	397	398	17.8	82.1
2025-08-31T22:13	10	0	0.1	0	0	398	0.2	397	398	17.8	81.9
2025-08-31T22:14	10	0	0.1	0	0	398	0.2	397	398	17.8	82.2
2025-08-31T22:15	10	0	0.1	0	0	398	0.2	397	398	17.7	82.9
2025-08-31T22:16	10	0	0.1	0	0	398	0.3	397	398	17.7	82.9
2025-08-31T22:17	10	0	0.1	0	0	398	0.2	398	399	17.8	82.8
2025-08-31T22:18	10	0	0.1	0	0	398	0.2	397	399	17.8	82.7
2025-08-31T22:19	10	0	0.1	0	0	398	0.2	398	399	17.8	82.6
2025-08-31T22:20	10	0	0.1	0	0	399	0.2	398	399	17.8	82.5
2025-08-31T22:21	10	0	0.1	0	0	398	0.2	398	399	17.8	82.4
2025-08-31T22:22	10	0	0.1	0	0	398	0.2	398	399	17.8	82.5
2025-08-31T22:23	10	0	0.1	0	0	398	0.2	397	398	17.8	83.2
2025-08-31T22:24	10	0	0.1	0	0	398	0.2	398	398	17.8	82.9
2025-08-31T22:25	10	0	0.1	0	0	398	0.2	397	398	17.8	83.0
2025-08-31T22:26	10	0	0.1	0	0	398	0.3	397	398	17.8	82.9
2025-08-31T22:27	10	0	0.1	0	0	398	0.2	397	398	17.7	83.5
2025-08-31T22:28	10	0	0.1	0	0	398	0.2	397	398	17.7	83.8
2025-08-31T22:29	10	0	0.1	0	0	398	0.2	397	398	17.7	83.4
2025-08-31T22:30	10	0	0.1	0	0	398	0.3	397	399	17.7	83.4
2025-08-31T22:31	10	0	0.1	0	0	398	0.2	398	399	17.8	83.3
2025-08-31T22:32	10	0	0.1	0	0	398	0.2	398	399	17.8	83.2
2025-08-31T22:33	10	0	0.1	0	0	398	0.2	398	399	17.8	83.0
2025-08-31T22:34	10	0	0.1	0	0	398	0.2	398	399	17.8	83.1
2025-08-31T22:35	10	0	0.1	0	0	399	0.2	398	399	17.8	82.7
2025-08-31T22:36	10	0	0.1	0	0	399	0.2	398	399	17.9	82.0
2025-08-31T22:37	10	0	0.1	0	0	399	0.3	398	399	18.0	81.8
2025-08-31T22:38	10	0	0.1	0	0	399	0.2	398	399	18.0	81.6
2025-08-31T22:39	10	0	0.1	0	0	399	0.2	399	400	18.1	80.9
2025-08-31T22:40	10	0	0.1	0	0	399	0.2	399	400	18.1	80.5
2025-08-31T22:41	10	0	0.1	0	0	400	0.3	399	400	18.2	80.1
2025-08-31T22:42	10	0	0.1	0	0	400	0.3	399	401	18.3	79.4
2025-08-31T22:43	10	0	0.1	0	0	400	0.2	400	401	18.3	78.7
2025-08-31T22:44	10	0	0.1	0	0	400	0.2	400	401	18.4	78.5
2025-08-31T22:45	10	0	0.1	0	0	400	0.2	400	401	18.4	78.5
2025-08-31T22:46	10	0	0.1	0	0	400	0.2	400	401	18.4	78.0
2025-08-31T22:47	10	0	0.1	0	0	401	0.3	400	401	18.4	77.6
2025-08-31T22:48	10	0	0.1	0	0	401	0.3	400	401	18.6	76.4
2025-08-31T22:49	10	0	0.1	0	0	401	0.2	400	401	18.5	77.8
2025-08-31T22:50	10	0	0.1	0	0	401	0.2	400	401	18.4	77.8
2025-08-31T22:51	10	0	0.1	0	0	401	0.2	400	402	18.5	77.1
2025-08-31T22:52	10	0	0.1	0	0	401	0.3	400	402	18.5	76.7
2025-08-31T22:53	10	0	0.1	0	0	401	0.2	400	401	18.5	76.4
2025-08-31T22:54	10	0	0.1	0	0	401	0.2	401	402	18.6	75.8
2025-08-31T22:55	10	0	0.1	0	0	401	0.3	401	402	18.8	74.4
2025-08-31T22:56	10	0	0.1	0	0	402	0.3	401	402	18.8	74.1
2025-08-31T22:57	10	0	0.1	0	0	402	0.3	401	402	19.0	73.3
2025-08-31T22:58	10	0	0.1	0	0	402	0.2	401	402	18.9	73.3
2025-08-31T22:59	10	0	0.1	0	0	401	0.3	401	402	18.9	73.9
2025-08-31T23:00	10	0	0.1	0	0	401	0.6	400	402	18.5	77.8
2025-08-31T23:01	10	0	0.1	0	0	399	0.5	399	401	17.9	82.7
2025-08-31T23:02	10	0	0.1	0	0	400	0.2	399	400	17.8	83.1
2025-08-31T23:03	10	0	0.1	0	0	399	0.2	399	400	18.0	81.0
2025-08-31T23:04	10	0	0.1	0	0	399	0.2	399	400	18.1	79.7
2025-08-31T23:05	10	0	0.1	0	0	400	0.4	399	401	18.1	79.1
2025-08-31T23:06	10	0	0.1	0	0	400	0.2	400	400	18.4	77.1
2025-08-31T23:07	10	0	0.1	0	0	400	0.4	399	401	18.4	77.1
2025-08-31T23:08	10	0	0.1	0	0	400	0.3	400	401	18.4	77.4
2025-08-31T23:09	10	0	0.1	0	0	401	0.4	400	402	18.6	76.9
2025-08-31T23:10	10	0	0.1	0	0	401	0.2	401	402	18.7	76.9
2025-08-31T23:11	10	0	0.1	0	0	401	0.2	401	402	18.6	77.2
2025-08-31T23:12	10	0	0.1	0	0	401	0.2	400	402	18.5	77.9
2025-08-31T23:13	10	0	0.1	0	0	401	0.2	400	401	18.5	78.5
2025-08-31T23:14	10	0	0.1	0	0	401	0.2	400	401	18.4	79.0
2025-08-31T23:15	10	0	0.1	0	0	401	0.3	400	401	18.4	79.1
2025-08-31T23:16	10	0	0.1	0	0	401	0.2	400	401	18.4	79.4
2025-08-31T23:17	10	0	0.1	0	0	401	0.2	401	401	18.4	79.3
2025-08-31T23:18	10	0	0.1	0	0	401	0.2	401	402	18.5	78.6
2025-08-31T23:19	10	0	0.1	0	0	402	0.4	401	403	18.7	76.7
2025-08-31T23:20	10	0	0.1	0	0	402	0.2	402	403	18.9	74.1
2025-08-31T23:21	10	0	0.1	0	0	402	0.2	401	402	18.9	75.1
2025-08-31T23:22	10	0	0.1	0	0	402	0.2	401	402	18.8	76.1
2025-08-31T23:23	10	0	0.1	0	0	402	0.3	401	402	18.8	76.7
2025-08-31T23:24	10	0	0.1	0	0	402	0.2	401	402	18.8	76.4
2025-08-31T23:25	10	0	0.1	0	0	402	0.3	401	402	18.8	75.4
2025-08-31T23:26	10	0	0.1	0	0	402	0.2	401	402	18.8	74.6
2025-08-31T23:27	10	0	0.1	0	0	402	0.2	401	402	18.8	74.4
2025-08-31T23:28	10	0	0.1	0	0	402	0.2	401	402	18.8	74.3
2025-08-31T23:29	10	0	0.1	0	0	402	0.3	401	402	18.8	74.2
2025-08-31T23:30	10	0	0.1	0	0	402	0.2	401	402	18.8	74.5
2025-08-31T23:31	10	0	0.1	0	0	401	0.2	401	402	18.8	75.1
2025-08-31T23:32	10	0	0.1	0	0	401	0.2	401	402	18.7	75.7
2025-08-31T23:33	10	0	0.1	0	0	401	0.2	401	402	18.7	75.8
2025-08-31T23:34	10	0	0.1	0	0	402	0.2	401	402	18.7	75.8
2025-08-31T23:35	10	0	0.1	0	0	401	0.2	401	402	18.6	76.0
2025-08-31T23:36	10	0	0.1	0	0	401	0.2	401	402	18.6	76.0
2025-08-31T23:37	10	0	0.1	0	0	401	0.2	401	401	18.6	75.5
2025-08-31T23:38	10	0	0.1	0	0	401	0.3	400	402	18.6	72.7
2025-08-31T23:39	10	0	0.1	0	0	401	0.2	400	401	18.7	70.9
2025-08-31T23:40	10	0	0.1	0	0	400	0.3	400	401	18.6	70.8
2025-08-31T23:41	10	0	0.1	0	0	400	0.2	400	401	18.6	70.9
2025-08-31T23:42	10	0	0.1	0	0	400	0.2	399	400	18.6	70.4
2025-08-31T23:43	10	0	0.1	0	0	400	0.2	399	400	18.5	70.4
2025-08-31T23:44	10	0	0.1	0	0	399	0.2	399	400	18.5	69.3
2025-08-31T23:45	10	0	0.1	0	0	399	0.2	399	400	18.5	69.2
2025-08-31T23:46	10	0	0.1	0	0	399	0.2	399	400	18.4	70.2
2025-08-31T23:47	10	0	0.1	0	0	399	0.3	399	400	18.4	70.2
2025-08-31T23:48	10	0	0.1	0	0	399	0.2	399	400	18.4	70.1
2025-08-31T23:49	10	0	0.1	0	0	399	0.2	399	400	18.4	70.2
2025-08-31T23:50	10	0	0.1	0	0	399	0.3	399	400	18.4	70.1
2025-08-31T23:51	10	0	0.1	0	0	399	0.3	398	400	18.4	70.5
2025-08-31T23:52	10	0	0.1	0	0	399	0.2	399	400	18.3	70.2
2025-08-31T23:53	10	0	0.1	0	0	399	0.3	399	400	18.3	70.0
2025-08-31T23:54	10	0	0.1	0	0	399	0.3	398	400	18.3	69.8
2025-08-31T23:55	10	0	0.1	0	0	399	0.2	399	400	18.3	70.4
2025-08-31T23:56	10	0	0.1	0	0	399	0.2	399	400	18.3	70.2
2025-08-31T23:57	10	0	0.1	0	0	399	0.2	399	400	18.4	69.2
2025-08-31T23:58	10	0	0.1	0	0	399	0.2	399	400	18.4	68.2
2025-08-31T23:59	10	0	0.1	0	0					18.4	68.5
